<?xml version="1.0" encoding="utf-8" standalone="yes"?>
<gpx version="1.1" creator="Locus Map, Android"
 xmlns="http://www.topografix.com/GPX/1/1"
 xmlns:xsi="http://www.w3.org/2001/XMLSchema-instance"
 xsi:schemaLocation="http://www.topografix.com/GPX/1/1 http://www.topografix.com/GPX/1/1/gpx.xsd"
 xmlns:gpxx="http://www.garmin.com/xmlschemas/GpxExtensions/v3"
 xmlns:gpxtrkx="http://www.garmin.com/xmlschemas/TrackStatsExtension/v1"
 xmlns:gpxtpx="http://www.garmin.com/xmlschemas/TrackPointExtension/v2"
 xmlns:locus="http://www.locusmap.eu">
	<metadata>
		<desc>File with points/tracks from Locus Map Classic/3.70.16</desc>
		<time>2025-08-02T14:40:16.240Z</time>
	</metadata>
<trk>
<name>Morning Jul 29th</name>
	<extensions>
		<line xmlns="http://www.topografix.com/GPX/gpx_style/0/2">
			<color>0000FF</color>
			<opacity>0.59</opacity>
			<width>6.0</width>
			<extensions>
				<locus:lsColorBase>#960000FF</locus:lsColorBase>
				<locus:lsWidth>6.0</locus:lsWidth>
				<locus:lsUnits>PIXELS</locus:lsUnits>
			</extensions>
		</line>
	</extensions>
<trkseg>
<trkpt lat="45.9323400" lon="10.2965540">
	<ele>468.00</ele>
	<time>2025-07-29T05:23:57.000Z</time>
</trkpt>
<trkpt lat="45.9323410" lon="10.2965530">
	<ele>468.00</ele>
	<time>2025-07-29T05:23:58.000Z</time>
</trkpt>
<trkpt lat="45.9323420" lon="10.2965530">
	<ele>468.00</ele>
	<time>2025-07-29T05:23:59.000Z</time>
</trkpt>
<trkpt lat="45.9323430" lon="10.2965530">
	<ele>468.00</ele>
	<time>2025-07-29T05:24:00.000Z</time>
</trkpt>
<trkpt lat="45.9323440" lon="10.2965530">
	<ele>468.00</ele>
	<time>2025-07-29T05:24:01.000Z</time>
</trkpt>
<trkpt lat="45.9323450" lon="10.2965540">
	<ele>468.00</ele>
	<time>2025-07-29T05:24:02.000Z</time>
</trkpt>
<trkpt lat="45.9323460" lon="10.2965540">
	<ele>468.00</ele>
	<time>2025-07-29T05:24:03.000Z</time>
</trkpt>
<trkpt lat="45.9323460" lon="10.2965540">
	<ele>468.00</ele>
	<time>2025-07-29T05:24:04.000Z</time>
</trkpt>
<trkpt lat="45.9323470" lon="10.2965540">
	<ele>468.00</ele>
	<time>2025-07-29T05:24:05.000Z</time>
</trkpt>
<trkpt lat="45.9323480" lon="10.2965540">
	<ele>468.00</ele>
	<time>2025-07-29T05:24:06.000Z</time>
</trkpt>
<trkpt lat="45.9323520" lon="10.2965490">
	<ele>468.00</ele>
	<time>2025-07-29T05:24:07.000Z</time>
</trkpt>
<trkpt lat="45.9323620" lon="10.2965320">
	<ele>468.00</ele>
	<time>2025-07-29T05:24:08.000Z</time>
</trkpt>
<trkpt lat="45.9323710" lon="10.2965140">
	<ele>468.00</ele>
	<time>2025-07-29T05:24:09.000Z</time>
</trkpt>
<trkpt lat="45.9323790" lon="10.2965020">
	<ele>468.00</ele>
	<time>2025-07-29T05:24:10.000Z</time>
</trkpt>
<trkpt lat="45.9323860" lon="10.2964880">
	<ele>468.00</ele>
	<time>2025-07-29T05:24:11.000Z</time>
</trkpt>
<trkpt lat="45.9323940" lon="10.2964680">
	<ele>468.00</ele>
	<time>2025-07-29T05:24:12.000Z</time>
</trkpt>
<trkpt lat="45.9324020" lon="10.2964450">
	<ele>468.00</ele>
	<time>2025-07-29T05:24:13.000Z</time>
</trkpt>
<trkpt lat="45.9324130" lon="10.2964260">
	<ele>468.00</ele>
	<time>2025-07-29T05:24:14.000Z</time>
</trkpt>
<trkpt lat="45.9324230" lon="10.2964110">
	<ele>468.00</ele>
	<time>2025-07-29T05:24:15.000Z</time>
</trkpt>
<trkpt lat="45.9324250" lon="10.2963970">
	<ele>468.00</ele>
	<time>2025-07-29T05:24:16.000Z</time>
</trkpt>
<trkpt lat="45.9324200" lon="10.2963890">
	<ele>468.00</ele>
	<time>2025-07-29T05:24:17.000Z</time>
</trkpt>
<trkpt lat="45.9324170" lon="10.2963810">
	<ele>468.00</ele>
	<time>2025-07-29T05:24:18.000Z</time>
</trkpt>
<trkpt lat="45.9324150" lon="10.2963790">
	<ele>468.00</ele>
	<time>2025-07-29T05:24:19.000Z</time>
</trkpt>
<trkpt lat="45.9324110" lon="10.2963760">
	<ele>468.00</ele>
	<time>2025-07-29T05:24:20.000Z</time>
</trkpt>
<trkpt lat="45.9324100" lon="10.2963690">
	<ele>467.80</ele>
	<time>2025-07-29T05:24:21.000Z</time>
</trkpt>
<trkpt lat="45.9324030" lon="10.2963590">
	<ele>467.80</ele>
	<time>2025-07-29T05:24:22.000Z</time>
</trkpt>
<trkpt lat="45.9323960" lon="10.2963490">
	<ele>467.80</ele>
	<time>2025-07-29T05:24:23.000Z</time>
</trkpt>
<trkpt lat="45.9323890" lon="10.2963420">
	<ele>467.80</ele>
	<time>2025-07-29T05:24:24.000Z</time>
</trkpt>
<trkpt lat="45.9323860" lon="10.2963370">
	<ele>467.80</ele>
	<time>2025-07-29T05:24:25.000Z</time>
</trkpt>
<trkpt lat="45.9323830" lon="10.2963400">
	<ele>467.80</ele>
	<time>2025-07-29T05:24:26.000Z</time>
</trkpt>
<trkpt lat="45.9323810" lon="10.2963420">
	<ele>467.60</ele>
	<time>2025-07-29T05:24:27.000Z</time>
</trkpt>
<trkpt lat="45.9323770" lon="10.2963360">
	<ele>467.60</ele>
	<time>2025-07-29T05:24:28.000Z</time>
</trkpt>
<trkpt lat="45.9323710" lon="10.2963240">
	<ele>467.60</ele>
	<time>2025-07-29T05:24:29.000Z</time>
</trkpt>
<trkpt lat="45.9323640" lon="10.2963150">
	<ele>467.80</ele>
	<time>2025-07-29T05:24:30.000Z</time>
</trkpt>
<trkpt lat="45.9323640" lon="10.2963050">
	<ele>467.80</ele>
	<time>2025-07-29T05:24:31.000Z</time>
</trkpt>
<trkpt lat="45.9323610" lon="10.2963000">
	<ele>467.80</ele>
	<time>2025-07-29T05:24:32.000Z</time>
</trkpt>
<trkpt lat="45.9323540" lon="10.2962880">
	<ele>468.00</ele>
	<time>2025-07-29T05:24:33.000Z</time>
</trkpt>
<trkpt lat="45.9323500" lon="10.2962830">
	<ele>468.00</ele>
	<time>2025-07-29T05:24:34.000Z</time>
</trkpt>
<trkpt lat="45.9323450" lon="10.2962770">
	<ele>468.00</ele>
	<time>2025-07-29T05:24:35.000Z</time>
</trkpt>
<trkpt lat="45.9323420" lon="10.2962750">
	<ele>468.00</ele>
	<time>2025-07-29T05:24:36.000Z</time>
</trkpt>
<trkpt lat="45.9323440" lon="10.2962740">
	<ele>468.20</ele>
	<time>2025-07-29T05:24:37.000Z</time>
</trkpt>
<trkpt lat="45.9323410" lon="10.2962650">
	<ele>468.20</ele>
	<time>2025-07-29T05:24:38.000Z</time>
</trkpt>
<trkpt lat="45.9323360" lon="10.2962560">
	<ele>468.00</ele>
	<time>2025-07-29T05:24:39.000Z</time>
</trkpt>
<trkpt lat="45.9323230" lon="10.2962340">
	<ele>468.00</ele>
	<time>2025-07-29T05:24:40.000Z</time>
</trkpt>
<trkpt lat="45.9323100" lon="10.2962100">
	<ele>468.00</ele>
	<time>2025-07-29T05:24:41.000Z</time>
</trkpt>
<trkpt lat="45.9322970" lon="10.2961910">
	<ele>468.00</ele>
	<time>2025-07-29T05:24:42.000Z</time>
</trkpt>
<trkpt lat="45.9322840" lon="10.2961660">
	<ele>468.00</ele>
	<time>2025-07-29T05:24:43.000Z</time>
</trkpt>
<trkpt lat="45.9322750" lon="10.2961430">
	<ele>468.00</ele>
	<time>2025-07-29T05:24:44.000Z</time>
</trkpt>
<trkpt lat="45.9322680" lon="10.2961260">
	<ele>468.00</ele>
	<time>2025-07-29T05:24:45.000Z</time>
</trkpt>
<trkpt lat="45.9322660" lon="10.2961120">
	<ele>468.00</ele>
	<time>2025-07-29T05:24:46.000Z</time>
</trkpt>
<trkpt lat="45.9322610" lon="10.2960960">
	<ele>468.00</ele>
	<time>2025-07-29T05:24:47.000Z</time>
</trkpt>
<trkpt lat="45.9322550" lon="10.2960820">
	<ele>468.00</ele>
	<time>2025-07-29T05:24:48.000Z</time>
</trkpt>
<trkpt lat="45.9322470" lon="10.2960640">
	<ele>468.00</ele>
	<time>2025-07-29T05:24:49.000Z</time>
</trkpt>
<trkpt lat="45.9322390" lon="10.2960470">
	<ele>468.00</ele>
	<time>2025-07-29T05:24:50.000Z</time>
</trkpt>
<trkpt lat="45.9322340" lon="10.2960290">
	<ele>468.20</ele>
	<time>2025-07-29T05:24:51.000Z</time>
</trkpt>
<trkpt lat="45.9322280" lon="10.2960190">
	<ele>468.20</ele>
	<time>2025-07-29T05:24:52.000Z</time>
</trkpt>
<trkpt lat="45.9322240" lon="10.2960110">
	<ele>468.20</ele>
	<time>2025-07-29T05:24:53.000Z</time>
</trkpt>
<trkpt lat="45.9322150" lon="10.2959960">
	<ele>468.20</ele>
	<time>2025-07-29T05:24:54.000Z</time>
</trkpt>
<trkpt lat="45.9322060" lon="10.2959830">
	<ele>468.20</ele>
	<time>2025-07-29T05:24:55.000Z</time>
</trkpt>
<trkpt lat="45.9321970" lon="10.2959680">
	<ele>468.20</ele>
	<time>2025-07-29T05:24:56.000Z</time>
</trkpt>
<trkpt lat="45.9321870" lon="10.2959520">
	<ele>468.20</ele>
	<time>2025-07-29T05:24:57.000Z</time>
</trkpt>
<trkpt lat="45.9321800" lon="10.2959390">
	<ele>468.20</ele>
	<time>2025-07-29T05:24:58.000Z</time>
</trkpt>
<trkpt lat="45.9321740" lon="10.2959230">
	<ele>468.20</ele>
	<time>2025-07-29T05:24:59.000Z</time>
</trkpt>
<trkpt lat="45.9321620" lon="10.2959080">
	<ele>468.20</ele>
	<time>2025-07-29T05:25:00.000Z</time>
</trkpt>
<trkpt lat="45.9321480" lon="10.2958950">
	<ele>468.20</ele>
	<time>2025-07-29T05:25:01.000Z</time>
</trkpt>
<trkpt lat="45.9321430" lon="10.2958860">
	<ele>468.20</ele>
	<time>2025-07-29T05:25:02.000Z</time>
</trkpt>
<trkpt lat="45.9321370" lon="10.2958780">
	<ele>468.20</ele>
	<time>2025-07-29T05:25:03.000Z</time>
</trkpt>
<trkpt lat="45.9321330" lon="10.2958620">
	<ele>468.20</ele>
	<time>2025-07-29T05:25:04.000Z</time>
</trkpt>
<trkpt lat="45.9321300" lon="10.2958490">
	<ele>468.20</ele>
	<time>2025-07-29T05:25:05.000Z</time>
</trkpt>
<trkpt lat="45.9321320" lon="10.2958380">
	<ele>468.20</ele>
	<time>2025-07-29T05:25:06.000Z</time>
</trkpt>
<trkpt lat="45.9321270" lon="10.2958340">
	<ele>468.20</ele>
	<time>2025-07-29T05:25:07.000Z</time>
</trkpt>
<trkpt lat="45.9321080" lon="10.2958210">
	<ele>468.20</ele>
	<time>2025-07-29T05:25:08.000Z</time>
</trkpt>
<trkpt lat="45.9321090" lon="10.2958250">
	<ele>468.20</ele>
	<time>2025-07-29T05:25:09.000Z</time>
</trkpt>
<trkpt lat="45.9321040" lon="10.2958220">
	<ele>468.20</ele>
	<time>2025-07-29T05:25:10.000Z</time>
</trkpt>
<trkpt lat="45.9321000" lon="10.2958220">
	<ele>468.20</ele>
	<time>2025-07-29T05:25:11.000Z</time>
</trkpt>
<trkpt lat="45.9321010" lon="10.2958190">
	<ele>468.20</ele>
	<time>2025-07-29T05:25:12.000Z</time>
</trkpt>
<trkpt lat="45.9320960" lon="10.2958100">
	<ele>468.20</ele>
	<time>2025-07-29T05:25:13.000Z</time>
</trkpt>
<trkpt lat="45.9321010" lon="10.2958110">
	<ele>468.40</ele>
	<time>2025-07-29T05:25:14.000Z</time>
</trkpt>
<trkpt lat="45.9321040" lon="10.2958040">
	<ele>468.60</ele>
	<time>2025-07-29T05:25:15.000Z</time>
</trkpt>
<trkpt lat="45.9321070" lon="10.2958040">
	<ele>468.60</ele>
	<time>2025-07-29T05:25:16.000Z</time>
</trkpt>
<trkpt lat="45.9321130" lon="10.2958020">
	<ele>468.60</ele>
	<time>2025-07-29T05:25:17.000Z</time>
</trkpt>
<trkpt lat="45.9321160" lon="10.2958030">
	<ele>468.80</ele>
	<time>2025-07-29T05:25:18.000Z</time>
</trkpt>
<trkpt lat="45.9321190" lon="10.2958100">
	<ele>468.60</ele>
	<time>2025-07-29T05:25:19.000Z</time>
</trkpt>
<trkpt lat="45.9321220" lon="10.2958110">
	<ele>468.60</ele>
	<time>2025-07-29T05:25:20.000Z</time>
</trkpt>
<trkpt lat="45.9321210" lon="10.2958090">
	<ele>468.20</ele>
	<time>2025-07-29T05:25:21.000Z</time>
</trkpt>
<trkpt lat="45.9321210" lon="10.2958090">
	<ele>468.20</ele>
	<time>2025-07-29T05:25:22.000Z</time>
</trkpt>
<trkpt lat="45.9321210" lon="10.2958090">
	<ele>468.20</ele>
	<time>2025-07-29T05:25:23.000Z</time>
</trkpt>
<trkpt lat="45.9321210" lon="10.2958090">
	<ele>468.20</ele>
	<time>2025-07-29T05:25:24.000Z</time>
</trkpt>
<trkpt lat="45.9321210" lon="10.2958090">
	<ele>468.20</ele>
	<time>2025-07-29T05:25:25.000Z</time>
</trkpt>
<trkpt lat="45.9321210" lon="10.2958090">
	<ele>468.40</ele>
	<time>2025-07-29T05:25:26.000Z</time>
</trkpt>
<trkpt lat="45.9321210" lon="10.2958090">
	<ele>468.40</ele>
	<time>2025-07-29T05:25:27.000Z</time>
</trkpt>
<trkpt lat="45.9321210" lon="10.2958090">
	<ele>468.40</ele>
	<time>2025-07-29T05:25:28.000Z</time>
</trkpt>
<trkpt lat="45.9321210" lon="10.2958090">
	<ele>468.40</ele>
	<time>2025-07-29T05:25:29.000Z</time>
</trkpt>
<trkpt lat="45.9321210" lon="10.2958090">
	<ele>468.40</ele>
	<time>2025-07-29T05:25:30.000Z</time>
</trkpt>
<trkpt lat="45.9321210" lon="10.2958090">
	<ele>468.40</ele>
	<time>2025-07-29T05:25:31.000Z</time>
</trkpt>
<trkpt lat="45.9321210" lon="10.2958090">
	<ele>468.20</ele>
	<time>2025-07-29T05:25:32.000Z</time>
</trkpt>
<trkpt lat="45.9321200" lon="10.2958090">
	<ele>468.20</ele>
	<time>2025-07-29T05:25:33.000Z</time>
</trkpt>
<trkpt lat="45.9321190" lon="10.2958090">
	<ele>468.20</ele>
	<time>2025-07-29T05:25:34.000Z</time>
</trkpt>
<trkpt lat="45.9321160" lon="10.2958090">
	<ele>468.20</ele>
	<time>2025-07-29T05:25:35.000Z</time>
</trkpt>
<trkpt lat="45.9321160" lon="10.2958090">
	<ele>468.20</ele>
	<time>2025-07-29T05:25:36.000Z</time>
</trkpt>
<trkpt lat="45.9321160" lon="10.2958090">
	<ele>468.00</ele>
	<time>2025-07-29T05:25:37.000Z</time>
</trkpt>
<trkpt lat="45.9321150" lon="10.2958100">
	<ele>468.00</ele>
	<time>2025-07-29T05:25:38.000Z</time>
</trkpt>
<trkpt lat="45.9321140" lon="10.2958100">
	<ele>468.00</ele>
	<time>2025-07-29T05:25:39.000Z</time>
</trkpt>
<trkpt lat="45.9321130" lon="10.2958100">
	<ele>468.20</ele>
	<time>2025-07-29T05:25:40.000Z</time>
</trkpt>
<trkpt lat="45.9321130" lon="10.2958100">
	<ele>468.20</ele>
	<time>2025-07-29T05:25:41.000Z</time>
</trkpt>
<trkpt lat="45.9321100" lon="10.2958100">
	<ele>468.20</ele>
	<time>2025-07-29T05:25:42.000Z</time>
</trkpt>
<trkpt lat="45.9321100" lon="10.2958110">
	<ele>468.20</ele>
	<time>2025-07-29T05:25:43.000Z</time>
</trkpt>
<trkpt lat="45.9321100" lon="10.2958110">
	<ele>468.20</ele>
	<time>2025-07-29T05:25:44.000Z</time>
</trkpt>
<trkpt lat="45.9321110" lon="10.2958110">
	<ele>468.20</ele>
	<time>2025-07-29T05:25:45.000Z</time>
</trkpt>
<trkpt lat="45.9321130" lon="10.2958110">
	<ele>468.20</ele>
	<time>2025-07-29T05:25:46.000Z</time>
</trkpt>
<trkpt lat="45.9321130" lon="10.2958120">
	<ele>468.20</ele>
	<time>2025-07-29T05:25:47.000Z</time>
</trkpt>
<trkpt lat="45.9321130" lon="10.2958130">
	<ele>468.20</ele>
	<time>2025-07-29T05:25:48.000Z</time>
</trkpt>
<trkpt lat="45.9321130" lon="10.2958150">
	<ele>468.20</ele>
	<time>2025-07-29T05:25:49.000Z</time>
</trkpt>
<trkpt lat="45.9321130" lon="10.2958150">
	<ele>468.20</ele>
	<time>2025-07-29T05:25:50.000Z</time>
</trkpt>
<trkpt lat="45.9321130" lon="10.2958150">
	<ele>468.20</ele>
	<time>2025-07-29T05:25:51.000Z</time>
</trkpt>
<trkpt lat="45.9321120" lon="10.2958150">
	<ele>468.20</ele>
	<time>2025-07-29T05:25:52.000Z</time>
</trkpt>
<trkpt lat="45.9321170" lon="10.2958140">
	<ele>468.20</ele>
	<time>2025-07-29T05:25:53.000Z</time>
</trkpt>
<trkpt lat="45.9321290" lon="10.2958050">
	<ele>468.20</ele>
	<time>2025-07-29T05:25:54.000Z</time>
</trkpt>
<trkpt lat="45.9321410" lon="10.2957950">
	<ele>468.20</ele>
	<time>2025-07-29T05:25:55.000Z</time>
</trkpt>
<trkpt lat="45.9321390" lon="10.2957780">
	<ele>468.20</ele>
	<time>2025-07-29T05:25:56.000Z</time>
</trkpt>
<trkpt lat="45.9321420" lon="10.2957580">
	<ele>468.40</ele>
	<time>2025-07-29T05:25:57.000Z</time>
</trkpt>
<trkpt lat="45.9321430" lon="10.2957360">
	<ele>468.40</ele>
	<time>2025-07-29T05:25:58.000Z</time>
</trkpt>
<trkpt lat="45.9321440" lon="10.2957130">
	<ele>468.60</ele>
	<time>2025-07-29T05:25:59.000Z</time>
</trkpt>
<trkpt lat="45.9321430" lon="10.2956970">
	<ele>469.00</ele>
	<time>2025-07-29T05:26:00.000Z</time>
</trkpt>
<trkpt lat="45.9321460" lon="10.2956800">
	<ele>469.00</ele>
	<time>2025-07-29T05:26:01.000Z</time>
</trkpt>
<trkpt lat="45.9321550" lon="10.2956680">
	<ele>469.20</ele>
	<time>2025-07-29T05:26:02.000Z</time>
</trkpt>
<trkpt lat="45.9321600" lon="10.2956560">
	<ele>469.40</ele>
	<time>2025-07-29T05:26:03.000Z</time>
</trkpt>
<trkpt lat="45.9321660" lon="10.2956420">
	<ele>469.40</ele>
	<time>2025-07-29T05:26:04.000Z</time>
</trkpt>
<trkpt lat="45.9321680" lon="10.2956280">
	<ele>469.60</ele>
	<time>2025-07-29T05:26:05.000Z</time>
</trkpt>
<trkpt lat="45.9321660" lon="10.2956080">
	<ele>469.80</ele>
	<time>2025-07-29T05:26:06.000Z</time>
</trkpt>
<trkpt lat="45.9321610" lon="10.2955910">
	<ele>469.80</ele>
	<time>2025-07-29T05:26:07.000Z</time>
</trkpt>
<trkpt lat="45.9321560" lon="10.2955760">
	<ele>470.00</ele>
	<time>2025-07-29T05:26:08.000Z</time>
</trkpt>
<trkpt lat="45.9321520" lon="10.2955620">
	<ele>470.00</ele>
	<time>2025-07-29T05:26:09.000Z</time>
</trkpt>
<trkpt lat="45.9321460" lon="10.2955470">
	<ele>470.40</ele>
	<time>2025-07-29T05:26:10.000Z</time>
</trkpt>
<trkpt lat="45.9321440" lon="10.2955330">
	<ele>470.60</ele>
	<time>2025-07-29T05:26:11.000Z</time>
</trkpt>
<trkpt lat="45.9321430" lon="10.2955200">
	<ele>470.80</ele>
	<time>2025-07-29T05:26:12.000Z</time>
</trkpt>
<trkpt lat="45.9321420" lon="10.2955070">
	<ele>471.00</ele>
	<time>2025-07-29T05:26:13.000Z</time>
</trkpt>
<trkpt lat="45.9321400" lon="10.2954950">
	<ele>471.20</ele>
	<time>2025-07-29T05:26:14.000Z</time>
</trkpt>
<trkpt lat="45.9321380" lon="10.2954810">
	<ele>471.20</ele>
	<time>2025-07-29T05:26:15.000Z</time>
</trkpt>
<trkpt lat="45.9321370" lon="10.2954680">
	<ele>471.40</ele>
	<time>2025-07-29T05:26:16.000Z</time>
</trkpt>
<trkpt lat="45.9321370" lon="10.2954530">
	<ele>471.60</ele>
	<time>2025-07-29T05:26:17.000Z</time>
</trkpt>
<trkpt lat="45.9321330" lon="10.2954390">
	<ele>471.80</ele>
	<time>2025-07-29T05:26:18.000Z</time>
</trkpt>
<trkpt lat="45.9321310" lon="10.2954230">
	<ele>472.00</ele>
	<time>2025-07-29T05:26:19.000Z</time>
</trkpt>
<trkpt lat="45.9321280" lon="10.2954110">
	<ele>472.00</ele>
	<time>2025-07-29T05:26:20.000Z</time>
</trkpt>
<trkpt lat="45.9321290" lon="10.2954020">
	<ele>472.20</ele>
	<time>2025-07-29T05:26:21.000Z</time>
</trkpt>
<trkpt lat="45.9321260" lon="10.2953890">
	<ele>472.40</ele>
	<time>2025-07-29T05:26:22.000Z</time>
</trkpt>
<trkpt lat="45.9321230" lon="10.2953730">
	<ele>472.40</ele>
	<time>2025-07-29T05:26:23.000Z</time>
</trkpt>
<trkpt lat="45.9321220" lon="10.2953550">
	<ele>472.60</ele>
	<time>2025-07-29T05:26:24.000Z</time>
</trkpt>
<trkpt lat="45.9321190" lon="10.2953480">
	<ele>472.80</ele>
	<time>2025-07-29T05:26:25.000Z</time>
</trkpt>
<trkpt lat="45.9321170" lon="10.2953410">
	<ele>473.00</ele>
	<time>2025-07-29T05:26:26.000Z</time>
</trkpt>
<trkpt lat="45.9321140" lon="10.2953310">
	<ele>473.20</ele>
	<time>2025-07-29T05:26:27.000Z</time>
</trkpt>
<trkpt lat="45.9321180" lon="10.2953180">
	<ele>473.40</ele>
	<time>2025-07-29T05:26:28.000Z</time>
</trkpt>
<trkpt lat="45.9321190" lon="10.2953040">
	<ele>473.60</ele>
	<time>2025-07-29T05:26:29.000Z</time>
</trkpt>
<trkpt lat="45.9321250" lon="10.2952840">
	<ele>473.80</ele>
	<time>2025-07-29T05:26:30.000Z</time>
</trkpt>
<trkpt lat="45.9321250" lon="10.2952600">
	<ele>473.80</ele>
	<time>2025-07-29T05:26:31.000Z</time>
</trkpt>
<trkpt lat="45.9321230" lon="10.2952400">
	<ele>474.00</ele>
	<time>2025-07-29T05:26:32.000Z</time>
</trkpt>
<trkpt lat="45.9321210" lon="10.2952150">
	<ele>474.20</ele>
	<time>2025-07-29T05:26:33.000Z</time>
</trkpt>
<trkpt lat="45.9321190" lon="10.2951940">
	<ele>474.60</ele>
	<time>2025-07-29T05:26:34.000Z</time>
</trkpt>
<trkpt lat="45.9321190" lon="10.2951840">
	<ele>474.60</ele>
	<time>2025-07-29T05:26:35.000Z</time>
</trkpt>
<trkpt lat="45.9321190" lon="10.2951650">
	<ele>474.80</ele>
	<time>2025-07-29T05:26:36.000Z</time>
</trkpt>
<trkpt lat="45.9321170" lon="10.2951460">
	<ele>475.00</ele>
	<time>2025-07-29T05:26:37.000Z</time>
</trkpt>
<trkpt lat="45.9321200" lon="10.2951300">
	<ele>475.20</ele>
	<time>2025-07-29T05:26:38.000Z</time>
</trkpt>
<trkpt lat="45.9321200" lon="10.2951140">
	<ele>475.40</ele>
	<time>2025-07-29T05:26:39.000Z</time>
</trkpt>
<trkpt lat="45.9321200" lon="10.2951010">
	<ele>475.80</ele>
	<time>2025-07-29T05:26:40.000Z</time>
</trkpt>
<trkpt lat="45.9321240" lon="10.2950860">
	<ele>476.00</ele>
	<time>2025-07-29T05:26:41.000Z</time>
</trkpt>
<trkpt lat="45.9321190" lon="10.2950730">
	<ele>476.20</ele>
	<time>2025-07-29T05:26:42.000Z</time>
</trkpt>
<trkpt lat="45.9321110" lon="10.2950520">
	<ele>476.40</ele>
	<time>2025-07-29T05:26:43.000Z</time>
</trkpt>
<trkpt lat="45.9321090" lon="10.2950320">
	<ele>476.40</ele>
	<time>2025-07-29T05:26:44.000Z</time>
</trkpt>
<trkpt lat="45.9321050" lon="10.2950060">
	<ele>476.40</ele>
	<time>2025-07-29T05:26:45.000Z</time>
</trkpt>
<trkpt lat="45.9320990" lon="10.2949880">
	<ele>476.60</ele>
	<time>2025-07-29T05:26:46.000Z</time>
</trkpt>
<trkpt lat="45.9320930" lon="10.2949730">
	<ele>476.80</ele>
	<time>2025-07-29T05:26:47.000Z</time>
</trkpt>
<trkpt lat="45.9320880" lon="10.2949620">
	<ele>477.00</ele>
	<time>2025-07-29T05:26:48.000Z</time>
</trkpt>
<trkpt lat="45.9320870" lon="10.2949480">
	<ele>477.20</ele>
	<time>2025-07-29T05:26:49.000Z</time>
</trkpt>
<trkpt lat="45.9320820" lon="10.2949340">
	<ele>477.20</ele>
	<time>2025-07-29T05:26:50.000Z</time>
</trkpt>
<trkpt lat="45.9320790" lon="10.2949180">
	<ele>477.40</ele>
	<time>2025-07-29T05:26:51.000Z</time>
</trkpt>
<trkpt lat="45.9320740" lon="10.2949040">
	<ele>477.60</ele>
	<time>2025-07-29T05:26:52.000Z</time>
</trkpt>
<trkpt lat="45.9320710" lon="10.2948880">
	<ele>477.60</ele>
	<time>2025-07-29T05:26:53.000Z</time>
</trkpt>
<trkpt lat="45.9320700" lon="10.2948700">
	<ele>477.80</ele>
	<time>2025-07-29T05:26:54.000Z</time>
</trkpt>
<trkpt lat="45.9320660" lon="10.2948530">
	<ele>478.00</ele>
	<time>2025-07-29T05:26:55.000Z</time>
</trkpt>
<trkpt lat="45.9320610" lon="10.2948370">
	<ele>478.00</ele>
	<time>2025-07-29T05:26:56.000Z</time>
</trkpt>
<trkpt lat="45.9320550" lon="10.2948220">
	<ele>478.20</ele>
	<time>2025-07-29T05:26:57.000Z</time>
</trkpt>
<trkpt lat="45.9320500" lon="10.2948060">
	<ele>478.40</ele>
	<time>2025-07-29T05:26:58.000Z</time>
</trkpt>
<trkpt lat="45.9320430" lon="10.2947890">
	<ele>478.60</ele>
	<time>2025-07-29T05:26:59.000Z</time>
</trkpt>
<trkpt lat="45.9320380" lon="10.2947730">
	<ele>478.60</ele>
	<time>2025-07-29T05:27:00.000Z</time>
</trkpt>
<trkpt lat="45.9320320" lon="10.2947550">
	<ele>478.60</ele>
	<time>2025-07-29T05:27:01.000Z</time>
</trkpt>
<trkpt lat="45.9320240" lon="10.2947370">
	<ele>479.00</ele>
	<time>2025-07-29T05:27:02.000Z</time>
</trkpt>
<trkpt lat="45.9320160" lon="10.2947200">
	<ele>479.00</ele>
	<time>2025-07-29T05:27:03.000Z</time>
</trkpt>
<trkpt lat="45.9320080" lon="10.2947030">
	<ele>479.20</ele>
	<time>2025-07-29T05:27:04.000Z</time>
</trkpt>
<trkpt lat="45.9320010" lon="10.2946880">
	<ele>479.20</ele>
	<time>2025-07-29T05:27:05.000Z</time>
</trkpt>
<trkpt lat="45.9319940" lon="10.2946750">
	<ele>479.20</ele>
	<time>2025-07-29T05:27:06.000Z</time>
</trkpt>
<trkpt lat="45.9319870" lon="10.2946630">
	<ele>479.40</ele>
	<time>2025-07-29T05:27:07.000Z</time>
</trkpt>
<trkpt lat="45.9319840" lon="10.2946500">
	<ele>479.60</ele>
	<time>2025-07-29T05:27:08.000Z</time>
</trkpt>
<trkpt lat="45.9319830" lon="10.2946330">
	<ele>479.80</ele>
	<time>2025-07-29T05:27:09.000Z</time>
</trkpt>
<trkpt lat="45.9319790" lon="10.2946150">
	<ele>479.80</ele>
	<time>2025-07-29T05:27:10.000Z</time>
</trkpt>
<trkpt lat="45.9319750" lon="10.2945960">
	<ele>480.00</ele>
	<time>2025-07-29T05:27:11.000Z</time>
</trkpt>
<trkpt lat="45.9319690" lon="10.2945740">
	<ele>480.20</ele>
	<time>2025-07-29T05:27:12.000Z</time>
</trkpt>
<trkpt lat="45.9319650" lon="10.2945530">
	<ele>480.20</ele>
	<time>2025-07-29T05:27:13.000Z</time>
</trkpt>
<trkpt lat="45.9319630" lon="10.2945370">
	<ele>480.40</ele>
	<time>2025-07-29T05:27:14.000Z</time>
</trkpt>
<trkpt lat="45.9319650" lon="10.2945240">
	<ele>480.40</ele>
	<time>2025-07-29T05:27:15.000Z</time>
</trkpt>
<trkpt lat="45.9319650" lon="10.2945080">
	<ele>480.60</ele>
	<time>2025-07-29T05:27:16.000Z</time>
</trkpt>
<trkpt lat="45.9319640" lon="10.2944910">
	<ele>480.80</ele>
	<time>2025-07-29T05:27:17.000Z</time>
</trkpt>
<trkpt lat="45.9319650" lon="10.2944750">
	<ele>480.80</ele>
	<time>2025-07-29T05:27:18.000Z</time>
</trkpt>
<trkpt lat="45.9319640" lon="10.2944600">
	<ele>481.00</ele>
	<time>2025-07-29T05:27:19.000Z</time>
</trkpt>
<trkpt lat="45.9319630" lon="10.2944420">
	<ele>481.20</ele>
	<time>2025-07-29T05:27:20.000Z</time>
</trkpt>
<trkpt lat="45.9319610" lon="10.2944210">
	<ele>481.20</ele>
	<time>2025-07-29T05:27:21.000Z</time>
</trkpt>
<trkpt lat="45.9319590" lon="10.2943980">
	<ele>481.60</ele>
	<time>2025-07-29T05:27:22.000Z</time>
</trkpt>
<trkpt lat="45.9319620" lon="10.2943830">
	<ele>481.80</ele>
	<time>2025-07-29T05:27:23.000Z</time>
</trkpt>
<trkpt lat="45.9319620" lon="10.2943600">
	<ele>482.00</ele>
	<time>2025-07-29T05:27:24.000Z</time>
</trkpt>
<trkpt lat="45.9319630" lon="10.2943360">
	<ele>482.20</ele>
	<time>2025-07-29T05:27:25.000Z</time>
</trkpt>
<trkpt lat="45.9319640" lon="10.2943100">
	<ele>482.20</ele>
	<time>2025-07-29T05:27:26.000Z</time>
</trkpt>
<trkpt lat="45.9319630" lon="10.2942910">
	<ele>482.40</ele>
	<time>2025-07-29T05:27:27.000Z</time>
</trkpt>
<trkpt lat="45.9319620" lon="10.2942760">
	<ele>482.40</ele>
	<time>2025-07-29T05:27:28.000Z</time>
</trkpt>
<trkpt lat="45.9319620" lon="10.2942640">
	<ele>482.60</ele>
	<time>2025-07-29T05:27:29.000Z</time>
</trkpt>
<trkpt lat="45.9319610" lon="10.2942510">
	<ele>482.60</ele>
	<time>2025-07-29T05:27:30.000Z</time>
</trkpt>
<trkpt lat="45.9319660" lon="10.2942390">
	<ele>482.60</ele>
	<time>2025-07-29T05:27:31.000Z</time>
</trkpt>
<trkpt lat="45.9319680" lon="10.2942250">
	<ele>482.80</ele>
	<time>2025-07-29T05:27:32.000Z</time>
</trkpt>
<trkpt lat="45.9319680" lon="10.2942150">
	<ele>482.80</ele>
	<time>2025-07-29T05:27:33.000Z</time>
</trkpt>
<trkpt lat="45.9319700" lon="10.2942040">
	<ele>483.00</ele>
	<time>2025-07-29T05:27:34.000Z</time>
</trkpt>
<trkpt lat="45.9319710" lon="10.2941920">
	<ele>483.00</ele>
	<time>2025-07-29T05:27:35.000Z</time>
</trkpt>
<trkpt lat="45.9319720" lon="10.2941850">
	<ele>483.20</ele>
	<time>2025-07-29T05:27:36.000Z</time>
</trkpt>
<trkpt lat="45.9319700" lon="10.2941690">
	<ele>483.20</ele>
	<time>2025-07-29T05:27:37.000Z</time>
</trkpt>
<trkpt lat="45.9319690" lon="10.2941520">
	<ele>483.40</ele>
	<time>2025-07-29T05:27:38.000Z</time>
</trkpt>
<trkpt lat="45.9319700" lon="10.2941360">
	<ele>483.60</ele>
	<time>2025-07-29T05:27:39.000Z</time>
</trkpt>
<trkpt lat="45.9319730" lon="10.2941190">
	<ele>483.80</ele>
	<time>2025-07-29T05:27:40.000Z</time>
</trkpt>
<trkpt lat="45.9319710" lon="10.2941090">
	<ele>483.80</ele>
	<time>2025-07-29T05:27:41.000Z</time>
</trkpt>
<trkpt lat="45.9319720" lon="10.2940900">
	<ele>484.00</ele>
	<time>2025-07-29T05:27:42.000Z</time>
</trkpt>
<trkpt lat="45.9319730" lon="10.2940760">
	<ele>484.20</ele>
	<time>2025-07-29T05:27:43.000Z</time>
</trkpt>
<trkpt lat="45.9319740" lon="10.2940630">
	<ele>484.40</ele>
	<time>2025-07-29T05:27:44.000Z</time>
</trkpt>
<trkpt lat="45.9319740" lon="10.2940460">
	<ele>484.40</ele>
	<time>2025-07-29T05:27:45.000Z</time>
</trkpt>
<trkpt lat="45.9319770" lon="10.2940280">
	<ele>484.40</ele>
	<time>2025-07-29T05:27:46.000Z</time>
</trkpt>
<trkpt lat="45.9319780" lon="10.2940110">
	<ele>484.60</ele>
	<time>2025-07-29T05:27:47.000Z</time>
</trkpt>
<trkpt lat="45.9319780" lon="10.2939970">
	<ele>484.80</ele>
	<time>2025-07-29T05:27:48.000Z</time>
</trkpt>
<trkpt lat="45.9319760" lon="10.2939810">
	<ele>485.00</ele>
	<time>2025-07-29T05:27:49.000Z</time>
</trkpt>
<trkpt lat="45.9319720" lon="10.2939650">
	<ele>485.00</ele>
	<time>2025-07-29T05:27:50.000Z</time>
</trkpt>
<trkpt lat="45.9319670" lon="10.2939490">
	<ele>485.20</ele>
	<time>2025-07-29T05:27:51.000Z</time>
</trkpt>
<trkpt lat="45.9319610" lon="10.2939350">
	<ele>485.20</ele>
	<time>2025-07-29T05:27:52.000Z</time>
</trkpt>
<trkpt lat="45.9319580" lon="10.2939210">
	<ele>485.40</ele>
	<time>2025-07-29T05:27:53.000Z</time>
</trkpt>
<trkpt lat="45.9319560" lon="10.2939070">
	<ele>485.60</ele>
	<time>2025-07-29T05:27:54.000Z</time>
</trkpt>
<trkpt lat="45.9319530" lon="10.2938930">
	<ele>485.80</ele>
	<time>2025-07-29T05:27:55.000Z</time>
</trkpt>
<trkpt lat="45.9319490" lon="10.2938760">
	<ele>486.00</ele>
	<time>2025-07-29T05:27:56.000Z</time>
</trkpt>
<trkpt lat="45.9319520" lon="10.2938580">
	<ele>486.00</ele>
	<time>2025-07-29T05:27:57.000Z</time>
</trkpt>
<trkpt lat="45.9319500" lon="10.2938410">
	<ele>486.20</ele>
	<time>2025-07-29T05:27:58.000Z</time>
</trkpt>
<trkpt lat="45.9319470" lon="10.2938260">
	<ele>486.40</ele>
	<time>2025-07-29T05:27:59.000Z</time>
</trkpt>
<trkpt lat="45.9319440" lon="10.2938150">
	<ele>486.40</ele>
	<time>2025-07-29T05:28:00.000Z</time>
</trkpt>
<trkpt lat="45.9319390" lon="10.2938010">
	<ele>486.80</ele>
	<time>2025-07-29T05:28:01.000Z</time>
</trkpt>
<trkpt lat="45.9319340" lon="10.2937890">
	<ele>487.00</ele>
	<time>2025-07-29T05:28:02.000Z</time>
</trkpt>
<trkpt lat="45.9319290" lon="10.2937740">
	<ele>487.20</ele>
	<time>2025-07-29T05:28:03.000Z</time>
</trkpt>
<trkpt lat="45.9319230" lon="10.2937620">
	<ele>487.20</ele>
	<time>2025-07-29T05:28:04.000Z</time>
</trkpt>
<trkpt lat="45.9319150" lon="10.2937500">
	<ele>487.40</ele>
	<time>2025-07-29T05:28:05.000Z</time>
</trkpt>
<trkpt lat="45.9319060" lon="10.2937390">
	<ele>487.60</ele>
	<time>2025-07-29T05:28:06.000Z</time>
</trkpt>
<trkpt lat="45.9318970" lon="10.2937300">
	<ele>487.60</ele>
	<time>2025-07-29T05:28:07.000Z</time>
</trkpt>
<trkpt lat="45.9318880" lon="10.2937250">
	<ele>487.80</ele>
	<time>2025-07-29T05:28:08.000Z</time>
</trkpt>
<trkpt lat="45.9318780" lon="10.2937210">
	<ele>487.80</ele>
	<time>2025-07-29T05:28:09.000Z</time>
</trkpt>
<trkpt lat="45.9318700" lon="10.2937160">
	<ele>488.00</ele>
	<time>2025-07-29T05:28:10.000Z</time>
</trkpt>
<trkpt lat="45.9318650" lon="10.2937100">
	<ele>488.20</ele>
	<time>2025-07-29T05:28:11.000Z</time>
</trkpt>
<trkpt lat="45.9318630" lon="10.2937060">
	<ele>488.40</ele>
	<time>2025-07-29T05:28:12.000Z</time>
</trkpt>
<trkpt lat="45.9318630" lon="10.2937060">
	<ele>488.80</ele>
	<time>2025-07-29T05:28:13.000Z</time>
</trkpt>
<trkpt lat="45.9318630" lon="10.2937060">
	<ele>489.00</ele>
	<time>2025-07-29T05:28:14.000Z</time>
</trkpt>
<trkpt lat="45.9318650" lon="10.2937070">
	<ele>489.20</ele>
	<time>2025-07-29T05:28:15.000Z</time>
</trkpt>
<trkpt lat="45.9318660" lon="10.2937080">
	<ele>489.20</ele>
	<time>2025-07-29T05:28:16.000Z</time>
</trkpt>
<trkpt lat="45.9318670" lon="10.2937090">
	<ele>489.40</ele>
	<time>2025-07-29T05:28:17.000Z</time>
</trkpt>
<trkpt lat="45.9318690" lon="10.2937100">
	<ele>489.40</ele>
	<time>2025-07-29T05:28:18.000Z</time>
</trkpt>
<trkpt lat="45.9318700" lon="10.2937100">
	<ele>489.40</ele>
	<time>2025-07-29T05:28:19.000Z</time>
</trkpt>
<trkpt lat="45.9318690" lon="10.2937100">
	<ele>489.40</ele>
	<time>2025-07-29T05:28:20.000Z</time>
</trkpt>
<trkpt lat="45.9318680" lon="10.2937100">
	<ele>489.40</ele>
	<time>2025-07-29T05:28:21.000Z</time>
</trkpt>
<trkpt lat="45.9318680" lon="10.2937100">
	<ele>489.40</ele>
	<time>2025-07-29T05:28:22.000Z</time>
</trkpt>
<trkpt lat="45.9318670" lon="10.2937110">
	<ele>489.40</ele>
	<time>2025-07-29T05:28:23.000Z</time>
</trkpt>
<trkpt lat="45.9318670" lon="10.2937110">
	<ele>489.40</ele>
	<time>2025-07-29T05:28:24.000Z</time>
</trkpt>
<trkpt lat="45.9318670" lon="10.2937110">
	<ele>489.40</ele>
	<time>2025-07-29T05:28:25.000Z</time>
</trkpt>
<trkpt lat="45.9318670" lon="10.2937110">
	<ele>489.40</ele>
	<time>2025-07-29T05:28:26.000Z</time>
</trkpt>
<trkpt lat="45.9318670" lon="10.2937110">
	<ele>489.40</ele>
	<time>2025-07-29T05:28:27.000Z</time>
</trkpt>
<trkpt lat="45.9318630" lon="10.2937120">
	<ele>489.40</ele>
	<time>2025-07-29T05:28:28.000Z</time>
</trkpt>
<trkpt lat="45.9318480" lon="10.2937120">
	<ele>489.40</ele>
	<time>2025-07-29T05:28:29.000Z</time>
</trkpt>
<trkpt lat="45.9318330" lon="10.2937110">
	<ele>489.40</ele>
	<time>2025-07-29T05:28:30.000Z</time>
</trkpt>
<trkpt lat="45.9318180" lon="10.2937100">
	<ele>489.60</ele>
	<time>2025-07-29T05:28:31.000Z</time>
</trkpt>
<trkpt lat="45.9318000" lon="10.2937120">
	<ele>489.80</ele>
	<time>2025-07-29T05:28:32.000Z</time>
</trkpt>
<trkpt lat="45.9317830" lon="10.2937120">
	<ele>490.00</ele>
	<time>2025-07-29T05:28:33.000Z</time>
</trkpt>
<trkpt lat="45.9317690" lon="10.2937130">
	<ele>490.20</ele>
	<time>2025-07-29T05:28:34.000Z</time>
</trkpt>
<trkpt lat="45.9317570" lon="10.2937220">
	<ele>490.40</ele>
	<time>2025-07-29T05:28:35.000Z</time>
</trkpt>
<trkpt lat="45.9317440" lon="10.2937340">
	<ele>490.40</ele>
	<time>2025-07-29T05:28:36.000Z</time>
</trkpt>
<trkpt lat="45.9317300" lon="10.2937460">
	<ele>490.80</ele>
	<time>2025-07-29T05:28:37.000Z</time>
</trkpt>
<trkpt lat="45.9317200" lon="10.2937580">
	<ele>490.80</ele>
	<time>2025-07-29T05:28:38.000Z</time>
</trkpt>
<trkpt lat="45.9317120" lon="10.2937710">
	<ele>491.00</ele>
	<time>2025-07-29T05:28:39.000Z</time>
</trkpt>
<trkpt lat="45.9317030" lon="10.2937850">
	<ele>491.40</ele>
	<time>2025-07-29T05:28:40.000Z</time>
</trkpt>
<trkpt lat="45.9316930" lon="10.2937990">
	<ele>491.60</ele>
	<time>2025-07-29T05:28:41.000Z</time>
</trkpt>
<trkpt lat="45.9316850" lon="10.2938160">
	<ele>491.60</ele>
	<time>2025-07-29T05:28:42.000Z</time>
</trkpt>
<trkpt lat="45.9316760" lon="10.2938280">
	<ele>492.00</ele>
	<time>2025-07-29T05:28:43.000Z</time>
</trkpt>
<trkpt lat="45.9316660" lon="10.2938390">
	<ele>492.20</ele>
	<time>2025-07-29T05:28:44.000Z</time>
</trkpt>
<trkpt lat="45.9316550" lon="10.2938490">
	<ele>492.40</ele>
	<time>2025-07-29T05:28:45.000Z</time>
</trkpt>
<trkpt lat="45.9316440" lon="10.2938580">
	<ele>492.60</ele>
	<time>2025-07-29T05:28:46.000Z</time>
</trkpt>
<trkpt lat="45.9316370" lon="10.2938670">
	<ele>492.80</ele>
	<time>2025-07-29T05:28:47.000Z</time>
</trkpt>
<trkpt lat="45.9316290" lon="10.2938690">
	<ele>493.00</ele>
	<time>2025-07-29T05:28:48.000Z</time>
</trkpt>
<trkpt lat="45.9316170" lon="10.2938730">
	<ele>493.20</ele>
	<time>2025-07-29T05:28:49.000Z</time>
</trkpt>
<trkpt lat="45.9316040" lon="10.2938800">
	<ele>493.40</ele>
	<time>2025-07-29T05:28:50.000Z</time>
</trkpt>
<trkpt lat="45.9315970" lon="10.2938800">
	<ele>493.60</ele>
	<time>2025-07-29T05:28:51.000Z</time>
</trkpt>
<trkpt lat="45.9315900" lon="10.2938820">
	<ele>493.80</ele>
	<time>2025-07-29T05:28:52.000Z</time>
</trkpt>
<trkpt lat="45.9315790" lon="10.2938920">
	<ele>494.00</ele>
	<time>2025-07-29T05:28:53.000Z</time>
</trkpt>
<trkpt lat="45.9315710" lon="10.2938960">
	<ele>494.20</ele>
	<time>2025-07-29T05:28:54.000Z</time>
</trkpt>
<trkpt lat="45.9315640" lon="10.2938930">
	<ele>494.40</ele>
	<time>2025-07-29T05:28:55.000Z</time>
</trkpt>
<trkpt lat="45.9315570" lon="10.2938850">
	<ele>494.60</ele>
	<time>2025-07-29T05:28:56.000Z</time>
</trkpt>
<trkpt lat="45.9315460" lon="10.2938830">
	<ele>495.00</ele>
	<time>2025-07-29T05:28:57.000Z</time>
</trkpt>
<trkpt lat="45.9315340" lon="10.2938830">
	<ele>495.20</ele>
	<time>2025-07-29T05:28:58.000Z</time>
</trkpt>
<trkpt lat="45.9315200" lon="10.2938880">
	<ele>495.40</ele>
	<time>2025-07-29T05:28:59.000Z</time>
</trkpt>
<trkpt lat="45.9315030" lon="10.2938930">
	<ele>495.60</ele>
	<time>2025-07-29T05:29:00.000Z</time>
</trkpt>
<trkpt lat="45.9314850" lon="10.2939020">
	<ele>495.80</ele>
	<time>2025-07-29T05:29:01.000Z</time>
</trkpt>
<trkpt lat="45.9314730" lon="10.2939090">
	<ele>496.00</ele>
	<time>2025-07-29T05:29:02.000Z</time>
</trkpt>
<trkpt lat="45.9314630" lon="10.2939130">
	<ele>496.20</ele>
	<time>2025-07-29T05:29:03.000Z</time>
</trkpt>
<trkpt lat="45.9314470" lon="10.2939150">
	<ele>496.20</ele>
	<time>2025-07-29T05:29:04.000Z</time>
</trkpt>
<trkpt lat="45.9314330" lon="10.2939200">
	<ele>496.20</ele>
	<time>2025-07-29T05:29:05.000Z</time>
</trkpt>
<trkpt lat="45.9314210" lon="10.2939240">
	<ele>496.20</ele>
	<time>2025-07-29T05:29:06.000Z</time>
</trkpt>
<trkpt lat="45.9314130" lon="10.2939230">
	<ele>496.40</ele>
	<time>2025-07-29T05:29:07.000Z</time>
</trkpt>
<trkpt lat="45.9314010" lon="10.2939310">
	<ele>496.60</ele>
	<time>2025-07-29T05:29:08.000Z</time>
</trkpt>
<trkpt lat="45.9313840" lon="10.2939410">
	<ele>496.60</ele>
	<time>2025-07-29T05:29:09.000Z</time>
</trkpt>
<trkpt lat="45.9313680" lon="10.2939500">
	<ele>496.60</ele>
	<time>2025-07-29T05:29:10.000Z</time>
</trkpt>
<trkpt lat="45.9313540" lon="10.2939560">
	<ele>496.60</ele>
	<time>2025-07-29T05:29:11.000Z</time>
</trkpt>
<trkpt lat="45.9313460" lon="10.2939610">
	<ele>496.80</ele>
	<time>2025-07-29T05:29:12.000Z</time>
</trkpt>
<trkpt lat="45.9313370" lon="10.2939720">
	<ele>496.80</ele>
	<time>2025-07-29T05:29:13.000Z</time>
</trkpt>
<trkpt lat="45.9313260" lon="10.2939820">
	<ele>497.00</ele>
	<time>2025-07-29T05:29:14.000Z</time>
</trkpt>
<trkpt lat="45.9313150" lon="10.2939900">
	<ele>497.00</ele>
	<time>2025-07-29T05:29:15.000Z</time>
</trkpt>
<trkpt lat="45.9312990" lon="10.2939950">
	<ele>497.20</ele>
	<time>2025-07-29T05:29:16.000Z</time>
</trkpt>
<trkpt lat="45.9312850" lon="10.2940130">
	<ele>497.20</ele>
	<time>2025-07-29T05:29:17.000Z</time>
</trkpt>
<trkpt lat="45.9312750" lon="10.2940210">
	<ele>497.20</ele>
	<time>2025-07-29T05:29:18.000Z</time>
</trkpt>
<trkpt lat="45.9312610" lon="10.2940240">
	<ele>497.40</ele>
	<time>2025-07-29T05:29:19.000Z</time>
</trkpt>
<trkpt lat="45.9312480" lon="10.2940270">
	<ele>497.40</ele>
	<time>2025-07-29T05:29:20.000Z</time>
</trkpt>
<trkpt lat="45.9312320" lon="10.2940360">
	<ele>497.60</ele>
	<time>2025-07-29T05:29:21.000Z</time>
</trkpt>
<trkpt lat="45.9312190" lon="10.2940460">
	<ele>497.60</ele>
	<time>2025-07-29T05:29:22.000Z</time>
</trkpt>
<trkpt lat="45.9312070" lon="10.2940580">
	<ele>497.80</ele>
	<time>2025-07-29T05:29:23.000Z</time>
</trkpt>
<trkpt lat="45.9311960" lon="10.2940680">
	<ele>497.80</ele>
	<time>2025-07-29T05:29:24.000Z</time>
</trkpt>
<trkpt lat="45.9311870" lon="10.2940870">
	<ele>498.00</ele>
	<time>2025-07-29T05:29:25.000Z</time>
</trkpt>
<trkpt lat="45.9311730" lon="10.2940980">
	<ele>498.00</ele>
	<time>2025-07-29T05:29:26.000Z</time>
</trkpt>
<trkpt lat="45.9311570" lon="10.2941050">
	<ele>498.20</ele>
	<time>2025-07-29T05:29:27.000Z</time>
</trkpt>
<trkpt lat="45.9311430" lon="10.2941150">
	<ele>498.20</ele>
	<time>2025-07-29T05:29:28.000Z</time>
</trkpt>
<trkpt lat="45.9311320" lon="10.2941200">
	<ele>498.20</ele>
	<time>2025-07-29T05:29:29.000Z</time>
</trkpt>
<trkpt lat="45.9311200" lon="10.2941200">
	<ele>498.40</ele>
	<time>2025-07-29T05:29:30.000Z</time>
</trkpt>
<trkpt lat="45.9311100" lon="10.2941220">
	<ele>498.40</ele>
	<time>2025-07-29T05:29:31.000Z</time>
</trkpt>
<trkpt lat="45.9310970" lon="10.2941370">
	<ele>498.60</ele>
	<time>2025-07-29T05:29:32.000Z</time>
</trkpt>
<trkpt lat="45.9310860" lon="10.2941500">
	<ele>498.60</ele>
	<time>2025-07-29T05:29:33.000Z</time>
</trkpt>
<trkpt lat="45.9310740" lon="10.2941630">
	<ele>498.60</ele>
	<time>2025-07-29T05:29:34.000Z</time>
</trkpt>
<trkpt lat="45.9310560" lon="10.2941770">
	<ele>498.60</ele>
	<time>2025-07-29T05:29:35.000Z</time>
</trkpt>
<trkpt lat="45.9310380" lon="10.2941850">
	<ele>498.60</ele>
	<time>2025-07-29T05:29:36.000Z</time>
</trkpt>
<trkpt lat="45.9310200" lon="10.2941920">
	<ele>498.60</ele>
	<time>2025-07-29T05:29:37.000Z</time>
</trkpt>
<trkpt lat="45.9310050" lon="10.2942060">
	<ele>498.80</ele>
	<time>2025-07-29T05:29:38.000Z</time>
</trkpt>
<trkpt lat="45.9309920" lon="10.2942170">
	<ele>498.80</ele>
	<time>2025-07-29T05:29:39.000Z</time>
</trkpt>
<trkpt lat="45.9309810" lon="10.2942260">
	<ele>498.80</ele>
	<time>2025-07-29T05:29:40.000Z</time>
</trkpt>
<trkpt lat="45.9309650" lon="10.2942320">
	<ele>499.00</ele>
	<time>2025-07-29T05:29:41.000Z</time>
</trkpt>
<trkpt lat="45.9309520" lon="10.2942350">
	<ele>499.00</ele>
	<time>2025-07-29T05:29:42.000Z</time>
</trkpt>
<trkpt lat="45.9309410" lon="10.2942400">
	<ele>499.00</ele>
	<time>2025-07-29T05:29:43.000Z</time>
</trkpt>
<trkpt lat="45.9309320" lon="10.2942460">
	<ele>499.00</ele>
	<time>2025-07-29T05:29:44.000Z</time>
</trkpt>
<trkpt lat="45.9309240" lon="10.2942500">
	<ele>499.00</ele>
	<time>2025-07-29T05:29:45.000Z</time>
</trkpt>
<trkpt lat="45.9309170" lon="10.2942580">
	<ele>499.00</ele>
	<time>2025-07-29T05:29:46.000Z</time>
</trkpt>
<trkpt lat="45.9309090" lon="10.2942750">
	<ele>499.00</ele>
	<time>2025-07-29T05:29:47.000Z</time>
</trkpt>
<trkpt lat="45.9308970" lon="10.2942890">
	<ele>499.20</ele>
	<time>2025-07-29T05:29:48.000Z</time>
</trkpt>
<trkpt lat="45.9308840" lon="10.2942930">
	<ele>499.20</ele>
	<time>2025-07-29T05:29:49.000Z</time>
</trkpt>
<trkpt lat="45.9308710" lon="10.2943000">
	<ele>499.40</ele>
	<time>2025-07-29T05:29:50.000Z</time>
</trkpt>
<trkpt lat="45.9308560" lon="10.2943160">
	<ele>499.40</ele>
	<time>2025-07-29T05:29:51.000Z</time>
</trkpt>
<trkpt lat="45.9308420" lon="10.2943240">
	<ele>499.40</ele>
	<time>2025-07-29T05:29:52.000Z</time>
</trkpt>
<trkpt lat="45.9308230" lon="10.2943290">
	<ele>499.40</ele>
	<time>2025-07-29T05:29:53.000Z</time>
</trkpt>
<trkpt lat="45.9307970" lon="10.2943360">
	<ele>499.60</ele>
	<time>2025-07-29T05:29:54.000Z</time>
</trkpt>
<trkpt lat="45.9307640" lon="10.2943360">
	<ele>499.60</ele>
	<time>2025-07-29T05:29:55.000Z</time>
</trkpt>
<trkpt lat="45.9307450" lon="10.2943400">
	<ele>499.80</ele>
	<time>2025-07-29T05:29:56.000Z</time>
</trkpt>
<trkpt lat="45.9307360" lon="10.2943460">
	<ele>500.00</ele>
	<time>2025-07-29T05:29:57.000Z</time>
</trkpt>
<trkpt lat="45.9307330" lon="10.2943470">
	<ele>500.20</ele>
	<time>2025-07-29T05:29:58.000Z</time>
</trkpt>
<trkpt lat="45.9307240" lon="10.2943540">
	<ele>500.20</ele>
	<time>2025-07-29T05:29:59.000Z</time>
</trkpt>
<trkpt lat="45.9307100" lon="10.2943620">
	<ele>500.40</ele>
	<time>2025-07-29T05:30:00.000Z</time>
</trkpt>
<trkpt lat="45.9306950" lon="10.2943710">
	<ele>500.40</ele>
	<time>2025-07-29T05:30:01.000Z</time>
</trkpt>
<trkpt lat="45.9306830" lon="10.2943800">
	<ele>500.60</ele>
	<time>2025-07-29T05:30:02.000Z</time>
</trkpt>
<trkpt lat="45.9306780" lon="10.2943840">
	<ele>500.80</ele>
	<time>2025-07-29T05:30:03.000Z</time>
</trkpt>
<trkpt lat="45.9306680" lon="10.2943900">
	<ele>500.80</ele>
	<time>2025-07-29T05:30:04.000Z</time>
</trkpt>
<trkpt lat="45.9306570" lon="10.2944030">
	<ele>500.80</ele>
	<time>2025-07-29T05:30:05.000Z</time>
</trkpt>
<trkpt lat="45.9306450" lon="10.2944120">
	<ele>501.00</ele>
	<time>2025-07-29T05:30:06.000Z</time>
</trkpt>
<trkpt lat="45.9306340" lon="10.2944180">
	<ele>501.00</ele>
	<time>2025-07-29T05:30:07.000Z</time>
</trkpt>
<trkpt lat="45.9306220" lon="10.2944240">
	<ele>501.00</ele>
	<time>2025-07-29T05:30:08.000Z</time>
</trkpt>
<trkpt lat="45.9306090" lon="10.2944300">
	<ele>501.00</ele>
	<time>2025-07-29T05:30:09.000Z</time>
</trkpt>
<trkpt lat="45.9305940" lon="10.2944340">
	<ele>501.00</ele>
	<time>2025-07-29T05:30:10.000Z</time>
</trkpt>
<trkpt lat="45.9305830" lon="10.2944380">
	<ele>501.00</ele>
	<time>2025-07-29T05:30:11.000Z</time>
</trkpt>
<trkpt lat="45.9305710" lon="10.2944360">
	<ele>501.00</ele>
	<time>2025-07-29T05:30:12.000Z</time>
</trkpt>
<trkpt lat="45.9305550" lon="10.2944370">
	<ele>501.00</ele>
	<time>2025-07-29T05:30:13.000Z</time>
</trkpt>
<trkpt lat="45.9305390" lon="10.2944440">
	<ele>501.00</ele>
	<time>2025-07-29T05:30:14.000Z</time>
</trkpt>
<trkpt lat="45.9305230" lon="10.2944530">
	<ele>501.00</ele>
	<time>2025-07-29T05:30:15.000Z</time>
</trkpt>
<trkpt lat="45.9305070" lon="10.2944640">
	<ele>501.20</ele>
	<time>2025-07-29T05:30:16.000Z</time>
</trkpt>
<trkpt lat="45.9304950" lon="10.2944680">
	<ele>501.20</ele>
	<time>2025-07-29T05:30:17.000Z</time>
</trkpt>
<trkpt lat="45.9304840" lon="10.2944670">
	<ele>501.20</ele>
	<time>2025-07-29T05:30:18.000Z</time>
</trkpt>
<trkpt lat="45.9304780" lon="10.2944650">
	<ele>501.40</ele>
	<time>2025-07-29T05:30:19.000Z</time>
</trkpt>
<trkpt lat="45.9304690" lon="10.2944750">
	<ele>501.40</ele>
	<time>2025-07-29T05:30:20.000Z</time>
</trkpt>
<trkpt lat="45.9304570" lon="10.2944860">
	<ele>501.40</ele>
	<time>2025-07-29T05:30:21.000Z</time>
</trkpt>
<trkpt lat="45.9304470" lon="10.2944910">
	<ele>501.40</ele>
	<time>2025-07-29T05:30:22.000Z</time>
</trkpt>
<trkpt lat="45.9304360" lon="10.2944940">
	<ele>501.40</ele>
	<time>2025-07-29T05:30:23.000Z</time>
</trkpt>
<trkpt lat="45.9304270" lon="10.2944990">
	<ele>501.60</ele>
	<time>2025-07-29T05:30:24.000Z</time>
</trkpt>
<trkpt lat="45.9304200" lon="10.2945070">
	<ele>501.60</ele>
	<time>2025-07-29T05:30:25.000Z</time>
</trkpt>
<trkpt lat="45.9304080" lon="10.2945140">
	<ele>501.60</ele>
	<time>2025-07-29T05:30:26.000Z</time>
</trkpt>
<trkpt lat="45.9303980" lon="10.2945270">
	<ele>501.60</ele>
	<time>2025-07-29T05:30:27.000Z</time>
</trkpt>
<trkpt lat="45.9303890" lon="10.2945370">
	<ele>501.60</ele>
	<time>2025-07-29T05:30:28.000Z</time>
</trkpt>
<trkpt lat="45.9303790" lon="10.2945470">
	<ele>501.80</ele>
	<time>2025-07-29T05:30:29.000Z</time>
</trkpt>
<trkpt lat="45.9303640" lon="10.2945530">
	<ele>501.80</ele>
	<time>2025-07-29T05:30:30.000Z</time>
</trkpt>
<trkpt lat="45.9303510" lon="10.2945650">
	<ele>501.80</ele>
	<time>2025-07-29T05:30:31.000Z</time>
</trkpt>
<trkpt lat="45.9303360" lon="10.2945790">
	<ele>501.80</ele>
	<time>2025-07-29T05:30:32.000Z</time>
</trkpt>
<trkpt lat="45.9303190" lon="10.2945950">
	<ele>501.80</ele>
	<time>2025-07-29T05:30:33.000Z</time>
</trkpt>
<trkpt lat="45.9303030" lon="10.2946100">
	<ele>502.00</ele>
	<time>2025-07-29T05:30:34.000Z</time>
</trkpt>
<trkpt lat="45.9302900" lon="10.2946210">
	<ele>502.00</ele>
	<time>2025-07-29T05:30:35.000Z</time>
</trkpt>
<trkpt lat="45.9302780" lon="10.2946260">
	<ele>502.00</ele>
	<time>2025-07-29T05:30:36.000Z</time>
</trkpt>
<trkpt lat="45.9302640" lon="10.2946340">
	<ele>502.20</ele>
	<time>2025-07-29T05:30:37.000Z</time>
</trkpt>
<trkpt lat="45.9302540" lon="10.2946400">
	<ele>502.20</ele>
	<time>2025-07-29T05:30:38.000Z</time>
</trkpt>
<trkpt lat="45.9302440" lon="10.2946440">
	<ele>502.20</ele>
	<time>2025-07-29T05:30:39.000Z</time>
</trkpt>
<trkpt lat="45.9302360" lon="10.2946460">
	<ele>502.40</ele>
	<time>2025-07-29T05:30:40.000Z</time>
</trkpt>
<trkpt lat="45.9302240" lon="10.2946590">
	<ele>502.40</ele>
	<time>2025-07-29T05:30:41.000Z</time>
</trkpt>
<trkpt lat="45.9302190" lon="10.2946660">
	<ele>502.40</ele>
	<time>2025-07-29T05:30:42.000Z</time>
</trkpt>
<trkpt lat="45.9302090" lon="10.2946710">
	<ele>502.40</ele>
	<time>2025-07-29T05:30:43.000Z</time>
</trkpt>
<trkpt lat="45.9302010" lon="10.2946840">
	<ele>502.40</ele>
	<time>2025-07-29T05:30:44.000Z</time>
</trkpt>
<trkpt lat="45.9301840" lon="10.2946900">
	<ele>502.60</ele>
	<time>2025-07-29T05:30:45.000Z</time>
</trkpt>
<trkpt lat="45.9301610" lon="10.2946920">
	<ele>502.60</ele>
	<time>2025-07-29T05:30:46.000Z</time>
</trkpt>
<trkpt lat="45.9301450" lon="10.2946910">
	<ele>502.80</ele>
	<time>2025-07-29T05:30:47.000Z</time>
</trkpt>
<trkpt lat="45.9301340" lon="10.2946900">
	<ele>502.80</ele>
	<time>2025-07-29T05:30:48.000Z</time>
</trkpt>
<trkpt lat="45.9301250" lon="10.2946930">
	<ele>503.00</ele>
	<time>2025-07-29T05:30:49.000Z</time>
</trkpt>
<trkpt lat="45.9301160" lon="10.2946990">
	<ele>503.20</ele>
	<time>2025-07-29T05:30:50.000Z</time>
</trkpt>
<trkpt lat="45.9301090" lon="10.2947050">
	<ele>503.20</ele>
	<time>2025-07-29T05:30:51.000Z</time>
</trkpt>
<trkpt lat="45.9301050" lon="10.2947080">
	<ele>503.40</ele>
	<time>2025-07-29T05:30:52.000Z</time>
</trkpt>
<trkpt lat="45.9301030" lon="10.2947090">
	<ele>503.40</ele>
	<time>2025-07-29T05:30:53.000Z</time>
</trkpt>
<trkpt lat="45.9301020" lon="10.2947080">
	<ele>503.40</ele>
	<time>2025-07-29T05:30:54.000Z</time>
</trkpt>
<trkpt lat="45.9301030" lon="10.2947070">
	<ele>503.40</ele>
	<time>2025-07-29T05:30:55.000Z</time>
</trkpt>
<trkpt lat="45.9301020" lon="10.2947080">
	<ele>503.40</ele>
	<time>2025-07-29T05:30:56.000Z</time>
</trkpt>
<trkpt lat="45.9301030" lon="10.2947160">
	<ele>503.40</ele>
	<time>2025-07-29T05:30:57.000Z</time>
</trkpt>
<trkpt lat="45.9300990" lon="10.2947300">
	<ele>503.40</ele>
	<time>2025-07-29T05:30:58.000Z</time>
</trkpt>
<trkpt lat="45.9300960" lon="10.2947470">
	<ele>503.40</ele>
	<time>2025-07-29T05:30:59.000Z</time>
</trkpt>
<trkpt lat="45.9300900" lon="10.2947580">
	<ele>503.40</ele>
	<time>2025-07-29T05:31:00.000Z</time>
</trkpt>
<trkpt lat="45.9300900" lon="10.2947640">
	<ele>503.40</ele>
	<time>2025-07-29T05:31:01.000Z</time>
</trkpt>
<trkpt lat="45.9300880" lon="10.2947690">
	<ele>503.40</ele>
	<time>2025-07-29T05:31:02.000Z</time>
</trkpt>
<trkpt lat="45.9300860" lon="10.2947690">
	<ele>503.40</ele>
	<time>2025-07-29T05:31:03.000Z</time>
</trkpt>
<trkpt lat="45.9300860" lon="10.2947690">
	<ele>503.60</ele>
	<time>2025-07-29T05:31:04.000Z</time>
</trkpt>
<trkpt lat="45.9300850" lon="10.2947660">
	<ele>503.40</ele>
	<time>2025-07-29T05:31:05.000Z</time>
</trkpt>
<trkpt lat="45.9300890" lon="10.2947620">
	<ele>503.40</ele>
	<time>2025-07-29T05:31:06.000Z</time>
</trkpt>
<trkpt lat="45.9300960" lon="10.2947550">
	<ele>503.40</ele>
	<time>2025-07-29T05:31:07.000Z</time>
</trkpt>
<trkpt lat="45.9301020" lon="10.2947500">
	<ele>503.40</ele>
	<time>2025-07-29T05:31:08.000Z</time>
</trkpt>
<trkpt lat="45.9301040" lon="10.2947400">
	<ele>503.40</ele>
	<time>2025-07-29T05:31:09.000Z</time>
</trkpt>
<trkpt lat="45.9301080" lon="10.2947280">
	<ele>503.40</ele>
	<time>2025-07-29T05:31:10.000Z</time>
</trkpt>
<trkpt lat="45.9301110" lon="10.2947260">
	<ele>503.40</ele>
	<time>2025-07-29T05:31:11.000Z</time>
</trkpt>
<trkpt lat="45.9301110" lon="10.2947300">
	<ele>503.40</ele>
	<time>2025-07-29T05:31:12.000Z</time>
</trkpt>
<trkpt lat="45.9301100" lon="10.2947310">
	<ele>503.40</ele>
	<time>2025-07-29T05:31:13.000Z</time>
</trkpt>
<trkpt lat="45.9301020" lon="10.2947280">
	<ele>503.40</ele>
	<time>2025-07-29T05:31:14.000Z</time>
</trkpt>
<trkpt lat="45.9300900" lon="10.2947320">
	<ele>503.40</ele>
	<time>2025-07-29T05:31:15.000Z</time>
</trkpt>
<trkpt lat="45.9300800" lon="10.2947370">
	<ele>503.40</ele>
	<time>2025-07-29T05:31:16.000Z</time>
</trkpt>
<trkpt lat="45.9300740" lon="10.2947480">
	<ele>503.20</ele>
	<time>2025-07-29T05:31:17.000Z</time>
</trkpt>
<trkpt lat="45.9300630" lon="10.2947510">
	<ele>503.20</ele>
	<time>2025-07-29T05:31:18.000Z</time>
</trkpt>
<trkpt lat="45.9300550" lon="10.2947570">
	<ele>503.20</ele>
	<time>2025-07-29T05:31:19.000Z</time>
</trkpt>
<trkpt lat="45.9300440" lon="10.2947580">
	<ele>503.20</ele>
	<time>2025-07-29T05:31:20.000Z</time>
</trkpt>
<trkpt lat="45.9300310" lon="10.2947560">
	<ele>503.20</ele>
	<time>2025-07-29T05:31:21.000Z</time>
</trkpt>
<trkpt lat="45.9300140" lon="10.2947510">
	<ele>503.20</ele>
	<time>2025-07-29T05:31:22.000Z</time>
</trkpt>
<trkpt lat="45.9300030" lon="10.2947480">
	<ele>503.20</ele>
	<time>2025-07-29T05:31:23.000Z</time>
</trkpt>
<trkpt lat="45.9299910" lon="10.2947440">
	<ele>503.20</ele>
	<time>2025-07-29T05:31:24.000Z</time>
</trkpt>
<trkpt lat="45.9299790" lon="10.2947420">
	<ele>503.20</ele>
	<time>2025-07-29T05:31:25.000Z</time>
</trkpt>
<trkpt lat="45.9299670" lon="10.2947430">
	<ele>503.20</ele>
	<time>2025-07-29T05:31:26.000Z</time>
</trkpt>
<trkpt lat="45.9299540" lon="10.2947370">
	<ele>503.20</ele>
	<time>2025-07-29T05:31:27.000Z</time>
</trkpt>
<trkpt lat="45.9299410" lon="10.2947300">
	<ele>503.20</ele>
	<time>2025-07-29T05:31:28.000Z</time>
</trkpt>
<trkpt lat="45.9299280" lon="10.2947230">
	<ele>503.40</ele>
	<time>2025-07-29T05:31:29.000Z</time>
</trkpt>
<trkpt lat="45.9299130" lon="10.2947170">
	<ele>503.40</ele>
	<time>2025-07-29T05:31:30.000Z</time>
</trkpt>
<trkpt lat="45.9298990" lon="10.2947160">
	<ele>503.40</ele>
	<time>2025-07-29T05:31:31.000Z</time>
</trkpt>
<trkpt lat="45.9298860" lon="10.2947170">
	<ele>503.40</ele>
	<time>2025-07-29T05:31:32.000Z</time>
</trkpt>
<trkpt lat="45.9298710" lon="10.2947170">
	<ele>503.40</ele>
	<time>2025-07-29T05:31:33.000Z</time>
</trkpt>
<trkpt lat="45.9298560" lon="10.2947210">
	<ele>503.40</ele>
	<time>2025-07-29T05:31:34.000Z</time>
</trkpt>
<trkpt lat="45.9298410" lon="10.2947310">
	<ele>503.40</ele>
	<time>2025-07-29T05:31:35.000Z</time>
</trkpt>
<trkpt lat="45.9298290" lon="10.2947370">
	<ele>503.40</ele>
	<time>2025-07-29T05:31:36.000Z</time>
</trkpt>
<trkpt lat="45.9298190" lon="10.2947470">
	<ele>503.40</ele>
	<time>2025-07-29T05:31:37.000Z</time>
</trkpt>
<trkpt lat="45.9298080" lon="10.2947540">
	<ele>503.60</ele>
	<time>2025-07-29T05:31:38.000Z</time>
</trkpt>
<trkpt lat="45.9297930" lon="10.2947570">
	<ele>503.60</ele>
	<time>2025-07-29T05:31:39.000Z</time>
</trkpt>
<trkpt lat="45.9297770" lon="10.2947580">
	<ele>503.60</ele>
	<time>2025-07-29T05:31:40.000Z</time>
</trkpt>
<trkpt lat="45.9297630" lon="10.2947650">
	<ele>503.60</ele>
	<time>2025-07-29T05:31:41.000Z</time>
</trkpt>
<trkpt lat="45.9297490" lon="10.2947710">
	<ele>503.60</ele>
	<time>2025-07-29T05:31:42.000Z</time>
</trkpt>
<trkpt lat="45.9297370" lon="10.2947700">
	<ele>503.60</ele>
	<time>2025-07-29T05:31:43.000Z</time>
</trkpt>
<trkpt lat="45.9297270" lon="10.2947730">
	<ele>503.60</ele>
	<time>2025-07-29T05:31:44.000Z</time>
</trkpt>
<trkpt lat="45.9297180" lon="10.2947810">
	<ele>503.80</ele>
	<time>2025-07-29T05:31:45.000Z</time>
</trkpt>
<trkpt lat="45.9297110" lon="10.2947890">
	<ele>503.80</ele>
	<time>2025-07-29T05:31:46.000Z</time>
</trkpt>
<trkpt lat="45.9297000" lon="10.2947970">
	<ele>504.00</ele>
	<time>2025-07-29T05:31:47.000Z</time>
</trkpt>
<trkpt lat="45.9296900" lon="10.2948020">
	<ele>504.00</ele>
	<time>2025-07-29T05:31:48.000Z</time>
</trkpt>
<trkpt lat="45.9296710" lon="10.2948130">
	<ele>504.20</ele>
	<time>2025-07-29T05:31:49.000Z</time>
</trkpt>
<trkpt lat="45.9296550" lon="10.2948180">
	<ele>504.20</ele>
	<time>2025-07-29T05:31:50.000Z</time>
</trkpt>
<trkpt lat="45.9296420" lon="10.2948270">
	<ele>504.20</ele>
	<time>2025-07-29T05:31:51.000Z</time>
</trkpt>
<trkpt lat="45.9296300" lon="10.2948420">
	<ele>504.20</ele>
	<time>2025-07-29T05:31:52.000Z</time>
</trkpt>
<trkpt lat="45.9296180" lon="10.2948530">
	<ele>504.40</ele>
	<time>2025-07-29T05:31:53.000Z</time>
</trkpt>
<trkpt lat="45.9296040" lon="10.2948640">
	<ele>504.20</ele>
	<time>2025-07-29T05:31:54.000Z</time>
</trkpt>
<trkpt lat="45.9295910" lon="10.2948700">
	<ele>504.20</ele>
	<time>2025-07-29T05:31:55.000Z</time>
</trkpt>
<trkpt lat="45.9295750" lon="10.2948770">
	<ele>504.00</ele>
	<time>2025-07-29T05:31:56.000Z</time>
</trkpt>
<trkpt lat="45.9295590" lon="10.2948830">
	<ele>504.00</ele>
	<time>2025-07-29T05:31:57.000Z</time>
</trkpt>
<trkpt lat="45.9295460" lon="10.2948900">
	<ele>504.00</ele>
	<time>2025-07-29T05:31:58.000Z</time>
</trkpt>
<trkpt lat="45.9295340" lon="10.2948970">
	<ele>504.00</ele>
	<time>2025-07-29T05:31:59.000Z</time>
</trkpt>
<trkpt lat="45.9295260" lon="10.2949080">
	<ele>504.00</ele>
	<time>2025-07-29T05:32:00.000Z</time>
</trkpt>
<trkpt lat="45.9295170" lon="10.2949160">
	<ele>504.00</ele>
	<time>2025-07-29T05:32:01.000Z</time>
</trkpt>
<trkpt lat="45.9295090" lon="10.2949240">
	<ele>504.00</ele>
	<time>2025-07-29T05:32:02.000Z</time>
</trkpt>
<trkpt lat="45.9294920" lon="10.2949290">
	<ele>504.00</ele>
	<time>2025-07-29T05:32:03.000Z</time>
</trkpt>
<trkpt lat="45.9294690" lon="10.2949330">
	<ele>504.00</ele>
	<time>2025-07-29T05:32:04.000Z</time>
</trkpt>
<trkpt lat="45.9294500" lon="10.2949370">
	<ele>504.00</ele>
	<time>2025-07-29T05:32:05.000Z</time>
</trkpt>
<trkpt lat="45.9294400" lon="10.2949400">
	<ele>504.20</ele>
	<time>2025-07-29T05:32:06.000Z</time>
</trkpt>
<trkpt lat="45.9294300" lon="10.2949440">
	<ele>504.20</ele>
	<time>2025-07-29T05:32:07.000Z</time>
</trkpt>
<trkpt lat="45.9294200" lon="10.2949540">
	<ele>504.20</ele>
	<time>2025-07-29T05:32:08.000Z</time>
</trkpt>
<trkpt lat="45.9294110" lon="10.2949700">
	<ele>504.20</ele>
	<time>2025-07-29T05:32:09.000Z</time>
</trkpt>
<trkpt lat="45.9294000" lon="10.2949780">
	<ele>504.20</ele>
	<time>2025-07-29T05:32:10.000Z</time>
</trkpt>
<trkpt lat="45.9293860" lon="10.2949890">
	<ele>504.20</ele>
	<time>2025-07-29T05:32:11.000Z</time>
</trkpt>
<trkpt lat="45.9293710" lon="10.2949980">
	<ele>504.40</ele>
	<time>2025-07-29T05:32:12.000Z</time>
</trkpt>
<trkpt lat="45.9293560" lon="10.2950070">
	<ele>504.40</ele>
	<time>2025-07-29T05:32:13.000Z</time>
</trkpt>
<trkpt lat="45.9293410" lon="10.2950090">
	<ele>504.40</ele>
	<time>2025-07-29T05:32:14.000Z</time>
</trkpt>
<trkpt lat="45.9293300" lon="10.2950130">
	<ele>504.40</ele>
	<time>2025-07-29T05:32:15.000Z</time>
</trkpt>
<trkpt lat="45.9293210" lon="10.2950200">
	<ele>504.40</ele>
	<time>2025-07-29T05:32:16.000Z</time>
</trkpt>
<trkpt lat="45.9293090" lon="10.2950300">
	<ele>504.40</ele>
	<time>2025-07-29T05:32:17.000Z</time>
</trkpt>
<trkpt lat="45.9292950" lon="10.2950390">
	<ele>504.40</ele>
	<time>2025-07-29T05:32:18.000Z</time>
</trkpt>
<trkpt lat="45.9292820" lon="10.2950490">
	<ele>504.60</ele>
	<time>2025-07-29T05:32:19.000Z</time>
</trkpt>
<trkpt lat="45.9292680" lon="10.2950560">
	<ele>504.60</ele>
	<time>2025-07-29T05:32:20.000Z</time>
</trkpt>
<trkpt lat="45.9292560" lon="10.2950570">
	<ele>504.60</ele>
	<time>2025-07-29T05:32:21.000Z</time>
</trkpt>
<trkpt lat="45.9292440" lon="10.2950600">
	<ele>504.60</ele>
	<time>2025-07-29T05:32:22.000Z</time>
</trkpt>
<trkpt lat="45.9292310" lon="10.2950630">
	<ele>504.60</ele>
	<time>2025-07-29T05:32:23.000Z</time>
</trkpt>
<trkpt lat="45.9292170" lon="10.2950660">
	<ele>504.60</ele>
	<time>2025-07-29T05:32:24.000Z</time>
</trkpt>
<trkpt lat="45.9292050" lon="10.2950690">
	<ele>504.60</ele>
	<time>2025-07-29T05:32:25.000Z</time>
</trkpt>
<trkpt lat="45.9291950" lon="10.2950730">
	<ele>504.60</ele>
	<time>2025-07-29T05:32:26.000Z</time>
</trkpt>
<trkpt lat="45.9291850" lon="10.2950780">
	<ele>504.60</ele>
	<time>2025-07-29T05:32:27.000Z</time>
</trkpt>
<trkpt lat="45.9291740" lon="10.2950860">
	<ele>504.60</ele>
	<time>2025-07-29T05:32:28.000Z</time>
</trkpt>
<trkpt lat="45.9291610" lon="10.2950930">
	<ele>504.60</ele>
	<time>2025-07-29T05:32:29.000Z</time>
</trkpt>
<trkpt lat="45.9291490" lon="10.2950980">
	<ele>504.80</ele>
	<time>2025-07-29T05:32:30.000Z</time>
</trkpt>
<trkpt lat="45.9291340" lon="10.2951040">
	<ele>504.80</ele>
	<time>2025-07-29T05:32:31.000Z</time>
</trkpt>
<trkpt lat="45.9291200" lon="10.2951110">
	<ele>504.60</ele>
	<time>2025-07-29T05:32:32.000Z</time>
</trkpt>
<trkpt lat="45.9291050" lon="10.2951180">
	<ele>504.60</ele>
	<time>2025-07-29T05:32:33.000Z</time>
</trkpt>
<trkpt lat="45.9290910" lon="10.2951230">
	<ele>504.60</ele>
	<time>2025-07-29T05:32:34.000Z</time>
</trkpt>
<trkpt lat="45.9290760" lon="10.2951270">
	<ele>504.60</ele>
	<time>2025-07-29T05:32:35.000Z</time>
</trkpt>
<trkpt lat="45.9290620" lon="10.2951280">
	<ele>504.60</ele>
	<time>2025-07-29T05:32:36.000Z</time>
</trkpt>
<trkpt lat="45.9290460" lon="10.2951280">
	<ele>504.80</ele>
	<time>2025-07-29T05:32:37.000Z</time>
</trkpt>
<trkpt lat="45.9290340" lon="10.2951310">
	<ele>504.80</ele>
	<time>2025-07-29T05:32:38.000Z</time>
</trkpt>
<trkpt lat="45.9290200" lon="10.2951350">
	<ele>504.80</ele>
	<time>2025-07-29T05:32:39.000Z</time>
</trkpt>
<trkpt lat="45.9290070" lon="10.2951370">
	<ele>505.00</ele>
	<time>2025-07-29T05:32:40.000Z</time>
</trkpt>
<trkpt lat="45.9289950" lon="10.2951400">
	<ele>505.00</ele>
	<time>2025-07-29T05:32:41.000Z</time>
</trkpt>
<trkpt lat="45.9289820" lon="10.2951380">
	<ele>505.00</ele>
	<time>2025-07-29T05:32:42.000Z</time>
</trkpt>
<trkpt lat="45.9289670" lon="10.2951400">
	<ele>505.20</ele>
	<time>2025-07-29T05:32:43.000Z</time>
</trkpt>
<trkpt lat="45.9289550" lon="10.2951410">
	<ele>505.20</ele>
	<time>2025-07-29T05:32:44.000Z</time>
</trkpt>
<trkpt lat="45.9289420" lon="10.2951410">
	<ele>505.20</ele>
	<time>2025-07-29T05:32:45.000Z</time>
</trkpt>
<trkpt lat="45.9289260" lon="10.2951420">
	<ele>505.20</ele>
	<time>2025-07-29T05:32:46.000Z</time>
</trkpt>
<trkpt lat="45.9289090" lon="10.2951450">
	<ele>505.20</ele>
	<time>2025-07-29T05:32:47.000Z</time>
</trkpt>
<trkpt lat="45.9288980" lon="10.2951500">
	<ele>505.20</ele>
	<time>2025-07-29T05:32:48.000Z</time>
</trkpt>
<trkpt lat="45.9288860" lon="10.2951540">
	<ele>505.20</ele>
	<time>2025-07-29T05:32:49.000Z</time>
</trkpt>
<trkpt lat="45.9288760" lon="10.2951630">
	<ele>505.20</ele>
	<time>2025-07-29T05:32:50.000Z</time>
</trkpt>
<trkpt lat="45.9288620" lon="10.2951710">
	<ele>505.20</ele>
	<time>2025-07-29T05:32:51.000Z</time>
</trkpt>
<trkpt lat="45.9288520" lon="10.2951810">
	<ele>505.20</ele>
	<time>2025-07-29T05:32:52.000Z</time>
</trkpt>
<trkpt lat="45.9288370" lon="10.2951840">
	<ele>505.20</ele>
	<time>2025-07-29T05:32:53.000Z</time>
</trkpt>
<trkpt lat="45.9288220" lon="10.2951890">
	<ele>505.20</ele>
	<time>2025-07-29T05:32:54.000Z</time>
</trkpt>
<trkpt lat="45.9288080" lon="10.2951920">
	<ele>505.20</ele>
	<time>2025-07-29T05:32:55.000Z</time>
</trkpt>
<trkpt lat="45.9287950" lon="10.2951950">
	<ele>505.20</ele>
	<time>2025-07-29T05:32:56.000Z</time>
</trkpt>
<trkpt lat="45.9287780" lon="10.2951980">
	<ele>505.20</ele>
	<time>2025-07-29T05:32:57.000Z</time>
</trkpt>
<trkpt lat="45.9287600" lon="10.2951980">
	<ele>505.40</ele>
	<time>2025-07-29T05:32:58.000Z</time>
</trkpt>
<trkpt lat="45.9287450" lon="10.2952060">
	<ele>505.40</ele>
	<time>2025-07-29T05:32:59.000Z</time>
</trkpt>
<trkpt lat="45.9287290" lon="10.2952120">
	<ele>505.40</ele>
	<time>2025-07-29T05:33:00.000Z</time>
</trkpt>
<trkpt lat="45.9287140" lon="10.2952120">
	<ele>505.40</ele>
	<time>2025-07-29T05:33:01.000Z</time>
</trkpt>
<trkpt lat="45.9287010" lon="10.2952160">
	<ele>505.40</ele>
	<time>2025-07-29T05:33:02.000Z</time>
</trkpt>
<trkpt lat="45.9286880" lon="10.2952260">
	<ele>505.40</ele>
	<time>2025-07-29T05:33:03.000Z</time>
</trkpt>
<trkpt lat="45.9286710" lon="10.2952290">
	<ele>505.60</ele>
	<time>2025-07-29T05:33:04.000Z</time>
</trkpt>
<trkpt lat="45.9286570" lon="10.2952370">
	<ele>505.60</ele>
	<time>2025-07-29T05:33:05.000Z</time>
</trkpt>
<trkpt lat="45.9286420" lon="10.2952420">
	<ele>505.60</ele>
	<time>2025-07-29T05:33:06.000Z</time>
</trkpt>
<trkpt lat="45.9286310" lon="10.2952530">
	<ele>505.60</ele>
	<time>2025-07-29T05:33:07.000Z</time>
</trkpt>
<trkpt lat="45.9286160" lon="10.2952610">
	<ele>505.60</ele>
	<time>2025-07-29T05:33:08.000Z</time>
</trkpt>
<trkpt lat="45.9286040" lon="10.2952650">
	<ele>505.60</ele>
	<time>2025-07-29T05:33:09.000Z</time>
</trkpt>
<trkpt lat="45.9285950" lon="10.2952690">
	<ele>505.60</ele>
	<time>2025-07-29T05:33:10.000Z</time>
</trkpt>
<trkpt lat="45.9285810" lon="10.2952750">
	<ele>505.80</ele>
	<time>2025-07-29T05:33:11.000Z</time>
</trkpt>
<trkpt lat="45.9285660" lon="10.2952810">
	<ele>505.80</ele>
	<time>2025-07-29T05:33:12.000Z</time>
</trkpt>
<trkpt lat="45.9285500" lon="10.2952870">
	<ele>505.80</ele>
	<time>2025-07-29T05:33:13.000Z</time>
</trkpt>
<trkpt lat="45.9285380" lon="10.2952930">
	<ele>505.80</ele>
	<time>2025-07-29T05:33:14.000Z</time>
</trkpt>
<trkpt lat="45.9285190" lon="10.2953000">
	<ele>505.80</ele>
	<time>2025-07-29T05:33:15.000Z</time>
</trkpt>
<trkpt lat="45.9285040" lon="10.2953060">
	<ele>505.80</ele>
	<time>2025-07-29T05:33:16.000Z</time>
</trkpt>
<trkpt lat="45.9284910" lon="10.2953120">
	<ele>505.80</ele>
	<time>2025-07-29T05:33:17.000Z</time>
</trkpt>
<trkpt lat="45.9284790" lon="10.2953180">
	<ele>505.80</ele>
	<time>2025-07-29T05:33:18.000Z</time>
</trkpt>
<trkpt lat="45.9284660" lon="10.2953300">
	<ele>505.80</ele>
	<time>2025-07-29T05:33:19.000Z</time>
</trkpt>
<trkpt lat="45.9284550" lon="10.2953420">
	<ele>505.60</ele>
	<time>2025-07-29T05:33:20.000Z</time>
</trkpt>
<trkpt lat="45.9284420" lon="10.2953460">
	<ele>505.60</ele>
	<time>2025-07-29T05:33:21.000Z</time>
</trkpt>
<trkpt lat="45.9284280" lon="10.2953510">
	<ele>505.60</ele>
	<time>2025-07-29T05:33:22.000Z</time>
</trkpt>
<trkpt lat="45.9284180" lon="10.2953580">
	<ele>505.60</ele>
	<time>2025-07-29T05:33:23.000Z</time>
</trkpt>
<trkpt lat="45.9284010" lon="10.2953640">
	<ele>505.60</ele>
	<time>2025-07-29T05:33:24.000Z</time>
</trkpt>
<trkpt lat="45.9283870" lon="10.2953670">
	<ele>505.60</ele>
	<time>2025-07-29T05:33:25.000Z</time>
</trkpt>
<trkpt lat="45.9283760" lon="10.2953710">
	<ele>505.60</ele>
	<time>2025-07-29T05:33:26.000Z</time>
</trkpt>
<trkpt lat="45.9283630" lon="10.2953740">
	<ele>505.80</ele>
	<time>2025-07-29T05:33:27.000Z</time>
</trkpt>
<trkpt lat="45.9283510" lon="10.2953790">
	<ele>506.00</ele>
	<time>2025-07-29T05:33:28.000Z</time>
</trkpt>
<trkpt lat="45.9283420" lon="10.2953820">
	<ele>506.00</ele>
	<time>2025-07-29T05:33:29.000Z</time>
</trkpt>
<trkpt lat="45.9283310" lon="10.2953890">
	<ele>506.00</ele>
	<time>2025-07-29T05:33:30.000Z</time>
</trkpt>
<trkpt lat="45.9283190" lon="10.2953970">
	<ele>506.00</ele>
	<time>2025-07-29T05:33:31.000Z</time>
</trkpt>
<trkpt lat="45.9283080" lon="10.2953990">
	<ele>506.00</ele>
	<time>2025-07-29T05:33:32.000Z</time>
</trkpt>
<trkpt lat="45.9282950" lon="10.2954030">
	<ele>506.00</ele>
	<time>2025-07-29T05:33:33.000Z</time>
</trkpt>
<trkpt lat="45.9282820" lon="10.2954060">
	<ele>506.00</ele>
	<time>2025-07-29T05:33:34.000Z</time>
</trkpt>
<trkpt lat="45.9282690" lon="10.2954090">
	<ele>506.00</ele>
	<time>2025-07-29T05:33:35.000Z</time>
</trkpt>
<trkpt lat="45.9282570" lon="10.2954130">
	<ele>506.00</ele>
	<time>2025-07-29T05:33:36.000Z</time>
</trkpt>
<trkpt lat="45.9282430" lon="10.2954170">
	<ele>506.00</ele>
	<time>2025-07-29T05:33:37.000Z</time>
</trkpt>
<trkpt lat="45.9282280" lon="10.2954210">
	<ele>506.00</ele>
	<time>2025-07-29T05:33:38.000Z</time>
</trkpt>
<trkpt lat="45.9282130" lon="10.2954290">
	<ele>506.00</ele>
	<time>2025-07-29T05:33:39.000Z</time>
</trkpt>
<trkpt lat="45.9281980" lon="10.2954350">
	<ele>506.20</ele>
	<time>2025-07-29T05:33:40.000Z</time>
</trkpt>
<trkpt lat="45.9281870" lon="10.2954380">
	<ele>506.40</ele>
	<time>2025-07-29T05:33:41.000Z</time>
</trkpt>
<trkpt lat="45.9281820" lon="10.2954420">
	<ele>506.40</ele>
	<time>2025-07-29T05:33:42.000Z</time>
</trkpt>
<trkpt lat="45.9281760" lon="10.2954450">
	<ele>506.40</ele>
	<time>2025-07-29T05:33:43.000Z</time>
</trkpt>
<trkpt lat="45.9281680" lon="10.2954530">
	<ele>506.40</ele>
	<time>2025-07-29T05:33:44.000Z</time>
</trkpt>
<trkpt lat="45.9281570" lon="10.2954630">
	<ele>506.40</ele>
	<time>2025-07-29T05:33:45.000Z</time>
</trkpt>
<trkpt lat="45.9281460" lon="10.2954750">
	<ele>506.40</ele>
	<time>2025-07-29T05:33:46.000Z</time>
</trkpt>
<trkpt lat="45.9281330" lon="10.2954840">
	<ele>506.40</ele>
	<time>2025-07-29T05:33:47.000Z</time>
</trkpt>
<trkpt lat="45.9281230" lon="10.2954940">
	<ele>506.40</ele>
	<time>2025-07-29T05:33:48.000Z</time>
</trkpt>
<trkpt lat="45.9281100" lon="10.2955060">
	<ele>506.40</ele>
	<time>2025-07-29T05:33:49.000Z</time>
</trkpt>
<trkpt lat="45.9280940" lon="10.2955150">
	<ele>506.60</ele>
	<time>2025-07-29T05:33:50.000Z</time>
</trkpt>
<trkpt lat="45.9280800" lon="10.2955250">
	<ele>506.60</ele>
	<time>2025-07-29T05:33:51.000Z</time>
</trkpt>
<trkpt lat="45.9280660" lon="10.2955400">
	<ele>506.80</ele>
	<time>2025-07-29T05:33:52.000Z</time>
</trkpt>
<trkpt lat="45.9280530" lon="10.2955500">
	<ele>506.80</ele>
	<time>2025-07-29T05:33:53.000Z</time>
</trkpt>
<trkpt lat="45.9280430" lon="10.2955610">
	<ele>506.80</ele>
	<time>2025-07-29T05:33:54.000Z</time>
</trkpt>
<trkpt lat="45.9280320" lon="10.2955660">
	<ele>506.80</ele>
	<time>2025-07-29T05:33:55.000Z</time>
</trkpt>
<trkpt lat="45.9280180" lon="10.2955710">
	<ele>506.80</ele>
	<time>2025-07-29T05:33:56.000Z</time>
</trkpt>
<trkpt lat="45.9280050" lon="10.2955780">
	<ele>506.80</ele>
	<time>2025-07-29T05:33:57.000Z</time>
</trkpt>
<trkpt lat="45.9279930" lon="10.2955860">
	<ele>506.80</ele>
	<time>2025-07-29T05:33:58.000Z</time>
</trkpt>
<trkpt lat="45.9279820" lon="10.2955960">
	<ele>507.00</ele>
	<time>2025-07-29T05:33:59.000Z</time>
</trkpt>
<trkpt lat="45.9279710" lon="10.2956070">
	<ele>507.00</ele>
	<time>2025-07-29T05:34:00.000Z</time>
</trkpt>
<trkpt lat="45.9279600" lon="10.2956180">
	<ele>507.00</ele>
	<time>2025-07-29T05:34:01.000Z</time>
</trkpt>
<trkpt lat="45.9279520" lon="10.2956310">
	<ele>507.00</ele>
	<time>2025-07-29T05:34:02.000Z</time>
</trkpt>
<trkpt lat="45.9279400" lon="10.2956440">
	<ele>507.20</ele>
	<time>2025-07-29T05:34:03.000Z</time>
</trkpt>
<trkpt lat="45.9279280" lon="10.2956540">
	<ele>507.20</ele>
	<time>2025-07-29T05:34:04.000Z</time>
</trkpt>
<trkpt lat="45.9279140" lon="10.2956560">
	<ele>507.40</ele>
	<time>2025-07-29T05:34:05.000Z</time>
</trkpt>
<trkpt lat="45.9279000" lon="10.2956610">
	<ele>507.40</ele>
	<time>2025-07-29T05:34:06.000Z</time>
</trkpt>
<trkpt lat="45.9278890" lon="10.2956740">
	<ele>507.40</ele>
	<time>2025-07-29T05:34:07.000Z</time>
</trkpt>
<trkpt lat="45.9278810" lon="10.2956880">
	<ele>507.40</ele>
	<time>2025-07-29T05:34:08.000Z</time>
</trkpt>
<trkpt lat="45.9278690" lon="10.2957010">
	<ele>507.40</ele>
	<time>2025-07-29T05:34:09.000Z</time>
</trkpt>
<trkpt lat="45.9278580" lon="10.2957100">
	<ele>507.40</ele>
	<time>2025-07-29T05:34:10.000Z</time>
</trkpt>
<trkpt lat="45.9278540" lon="10.2957360">
	<ele>507.60</ele>
	<time>2025-07-29T05:34:11.000Z</time>
</trkpt>
<trkpt lat="45.9278440" lon="10.2957460">
	<ele>507.60</ele>
	<time>2025-07-29T05:34:12.000Z</time>
</trkpt>
<trkpt lat="45.9278360" lon="10.2957670">
	<ele>507.60</ele>
	<time>2025-07-29T05:34:13.000Z</time>
</trkpt>
<trkpt lat="45.9278280" lon="10.2957830">
	<ele>507.60</ele>
	<time>2025-07-29T05:34:14.000Z</time>
</trkpt>
<trkpt lat="45.9278170" lon="10.2957940">
	<ele>507.80</ele>
	<time>2025-07-29T05:34:15.000Z</time>
</trkpt>
<trkpt lat="45.9277950" lon="10.2958000">
	<ele>507.80</ele>
	<time>2025-07-29T05:34:16.000Z</time>
</trkpt>
<trkpt lat="45.9277800" lon="10.2958060">
	<ele>507.80</ele>
	<time>2025-07-29T05:34:17.000Z</time>
</trkpt>
<trkpt lat="45.9277780" lon="10.2958260">
	<ele>508.00</ele>
	<time>2025-07-29T05:34:18.000Z</time>
</trkpt>
<trkpt lat="45.9277680" lon="10.2958340">
	<ele>508.00</ele>
	<time>2025-07-29T05:34:19.000Z</time>
</trkpt>
<trkpt lat="45.9277520" lon="10.2958320">
	<ele>508.00</ele>
	<time>2025-07-29T05:34:20.000Z</time>
</trkpt>
<trkpt lat="45.9277380" lon="10.2958380">
	<ele>508.20</ele>
	<time>2025-07-29T05:34:21.000Z</time>
</trkpt>
<trkpt lat="45.9277220" lon="10.2958410">
	<ele>508.20</ele>
	<time>2025-07-29T05:34:22.000Z</time>
</trkpt>
<trkpt lat="45.9277090" lon="10.2958470">
	<ele>508.20</ele>
	<time>2025-07-29T05:34:23.000Z</time>
</trkpt>
<trkpt lat="45.9276970" lon="10.2958540">
	<ele>508.20</ele>
	<time>2025-07-29T05:34:24.000Z</time>
</trkpt>
<trkpt lat="45.9276840" lon="10.2958560">
	<ele>508.40</ele>
	<time>2025-07-29T05:34:25.000Z</time>
</trkpt>
<trkpt lat="45.9276730" lon="10.2958560">
	<ele>508.40</ele>
	<time>2025-07-29T05:34:26.000Z</time>
</trkpt>
<trkpt lat="45.9276600" lon="10.2958560">
	<ele>508.40</ele>
	<time>2025-07-29T05:34:27.000Z</time>
</trkpt>
<trkpt lat="45.9276470" lon="10.2958610">
	<ele>508.40</ele>
	<time>2025-07-29T05:34:28.000Z</time>
</trkpt>
<trkpt lat="45.9276340" lon="10.2958590">
	<ele>508.60</ele>
	<time>2025-07-29T05:34:29.000Z</time>
</trkpt>
<trkpt lat="45.9276190" lon="10.2958630">
	<ele>508.80</ele>
	<time>2025-07-29T05:34:30.000Z</time>
</trkpt>
<trkpt lat="45.9276060" lon="10.2958520">
	<ele>509.00</ele>
	<time>2025-07-29T05:34:31.000Z</time>
</trkpt>
<trkpt lat="45.9275930" lon="10.2958420">
	<ele>509.20</ele>
	<time>2025-07-29T05:34:32.000Z</time>
</trkpt>
<trkpt lat="45.9275830" lon="10.2958320">
	<ele>509.20</ele>
	<time>2025-07-29T05:34:33.000Z</time>
</trkpt>
<trkpt lat="45.9275760" lon="10.2958290">
	<ele>509.40</ele>
	<time>2025-07-29T05:34:34.000Z</time>
</trkpt>
<trkpt lat="45.9275700" lon="10.2958290">
	<ele>509.40</ele>
	<time>2025-07-29T05:34:35.000Z</time>
</trkpt>
<trkpt lat="45.9275620" lon="10.2958190">
	<ele>509.60</ele>
	<time>2025-07-29T05:34:36.000Z</time>
</trkpt>
<trkpt lat="45.9275550" lon="10.2958060">
	<ele>509.60</ele>
	<time>2025-07-29T05:34:37.000Z</time>
</trkpt>
<trkpt lat="45.9275500" lon="10.2957840">
	<ele>509.80</ele>
	<time>2025-07-29T05:34:38.000Z</time>
</trkpt>
<trkpt lat="45.9275420" lon="10.2957620">
	<ele>509.80</ele>
	<time>2025-07-29T05:34:39.000Z</time>
</trkpt>
<trkpt lat="45.9275400" lon="10.2957440">
	<ele>510.00</ele>
	<time>2025-07-29T05:34:40.000Z</time>
</trkpt>
<trkpt lat="45.9275360" lon="10.2957310">
	<ele>510.00</ele>
	<time>2025-07-29T05:34:41.000Z</time>
</trkpt>
<trkpt lat="45.9275360" lon="10.2957130">
	<ele>510.00</ele>
	<time>2025-07-29T05:34:42.000Z</time>
</trkpt>
<trkpt lat="45.9275310" lon="10.2956980">
	<ele>510.00</ele>
	<time>2025-07-29T05:34:43.000Z</time>
</trkpt>
<trkpt lat="45.9275250" lon="10.2956810">
	<ele>510.20</ele>
	<time>2025-07-29T05:34:44.000Z</time>
</trkpt>
<trkpt lat="45.9275240" lon="10.2956600">
	<ele>510.20</ele>
	<time>2025-07-29T05:34:45.000Z</time>
</trkpt>
<trkpt lat="45.9275250" lon="10.2956420">
	<ele>510.20</ele>
	<time>2025-07-29T05:34:46.000Z</time>
</trkpt>
<trkpt lat="45.9275220" lon="10.2956240">
	<ele>510.40</ele>
	<time>2025-07-29T05:34:47.000Z</time>
</trkpt>
<trkpt lat="45.9275180" lon="10.2956100">
	<ele>510.40</ele>
	<time>2025-07-29T05:34:48.000Z</time>
</trkpt>
<trkpt lat="45.9275190" lon="10.2955940">
	<ele>510.40</ele>
	<time>2025-07-29T05:34:49.000Z</time>
</trkpt>
<trkpt lat="45.9275180" lon="10.2955780">
	<ele>510.40</ele>
	<time>2025-07-29T05:34:50.000Z</time>
</trkpt>
<trkpt lat="45.9275110" lon="10.2955720">
	<ele>510.40</ele>
	<time>2025-07-29T05:34:51.000Z</time>
</trkpt>
<trkpt lat="45.9275080" lon="10.2955630">
	<ele>510.60</ele>
	<time>2025-07-29T05:34:52.000Z</time>
</trkpt>
<trkpt lat="45.9275080" lon="10.2955480">
	<ele>510.60</ele>
	<time>2025-07-29T05:34:53.000Z</time>
</trkpt>
<trkpt lat="45.9275120" lon="10.2955350">
	<ele>510.60</ele>
	<time>2025-07-29T05:34:54.000Z</time>
</trkpt>
<trkpt lat="45.9275140" lon="10.2955210">
	<ele>510.80</ele>
	<time>2025-07-29T05:34:55.000Z</time>
</trkpt>
<trkpt lat="45.9275080" lon="10.2955090">
	<ele>510.80</ele>
	<time>2025-07-29T05:34:56.000Z</time>
</trkpt>
<trkpt lat="45.9274990" lon="10.2955000">
	<ele>511.00</ele>
	<time>2025-07-29T05:34:57.000Z</time>
</trkpt>
<trkpt lat="45.9274950" lon="10.2954870">
	<ele>511.00</ele>
	<time>2025-07-29T05:34:58.000Z</time>
</trkpt>
<trkpt lat="45.9274910" lon="10.2954690">
	<ele>511.00</ele>
	<time>2025-07-29T05:34:59.000Z</time>
</trkpt>
<trkpt lat="45.9274890" lon="10.2954510">
	<ele>511.20</ele>
	<time>2025-07-29T05:35:00.000Z</time>
</trkpt>
<trkpt lat="45.9274870" lon="10.2954330">
	<ele>511.20</ele>
	<time>2025-07-29T05:35:01.000Z</time>
</trkpt>
<trkpt lat="45.9274850" lon="10.2954210">
	<ele>511.40</ele>
	<time>2025-07-29T05:35:02.000Z</time>
</trkpt>
<trkpt lat="45.9274790" lon="10.2954050">
	<ele>511.40</ele>
	<time>2025-07-29T05:35:03.000Z</time>
</trkpt>
<trkpt lat="45.9274760" lon="10.2953840">
	<ele>511.60</ele>
	<time>2025-07-29T05:35:04.000Z</time>
</trkpt>
<trkpt lat="45.9274730" lon="10.2953650">
	<ele>511.60</ele>
	<time>2025-07-29T05:35:05.000Z</time>
</trkpt>
<trkpt lat="45.9274690" lon="10.2953480">
	<ele>511.80</ele>
	<time>2025-07-29T05:35:06.000Z</time>
</trkpt>
<trkpt lat="45.9274600" lon="10.2953360">
	<ele>511.80</ele>
	<time>2025-07-29T05:35:07.000Z</time>
</trkpt>
<trkpt lat="45.9274580" lon="10.2953190">
	<ele>512.00</ele>
	<time>2025-07-29T05:35:08.000Z</time>
</trkpt>
<trkpt lat="45.9274540" lon="10.2953000">
	<ele>512.00</ele>
	<time>2025-07-29T05:35:09.000Z</time>
</trkpt>
<trkpt lat="45.9274510" lon="10.2952820">
	<ele>512.20</ele>
	<time>2025-07-29T05:35:10.000Z</time>
</trkpt>
<trkpt lat="45.9274470" lon="10.2952670">
	<ele>512.40</ele>
	<time>2025-07-29T05:35:11.000Z</time>
</trkpt>
<trkpt lat="45.9274370" lon="10.2952510">
	<ele>512.40</ele>
	<time>2025-07-29T05:35:12.000Z</time>
</trkpt>
<trkpt lat="45.9274200" lon="10.2952370">
	<ele>512.40</ele>
	<time>2025-07-29T05:35:13.000Z</time>
</trkpt>
<trkpt lat="45.9274070" lon="10.2952180">
	<ele>512.60</ele>
	<time>2025-07-29T05:35:14.000Z</time>
</trkpt>
<trkpt lat="45.9273970" lon="10.2952070">
	<ele>512.80</ele>
	<time>2025-07-29T05:35:15.000Z</time>
</trkpt>
<trkpt lat="45.9273810" lon="10.2951830">
	<ele>512.80</ele>
	<time>2025-07-29T05:35:16.000Z</time>
</trkpt>
<trkpt lat="45.9273790" lon="10.2951670">
	<ele>513.00</ele>
	<time>2025-07-29T05:35:17.000Z</time>
</trkpt>
<trkpt lat="45.9273810" lon="10.2951560">
	<ele>513.00</ele>
	<time>2025-07-29T05:35:18.000Z</time>
</trkpt>
<trkpt lat="45.9273790" lon="10.2951430">
	<ele>513.20</ele>
	<time>2025-07-29T05:35:19.000Z</time>
</trkpt>
<trkpt lat="45.9273780" lon="10.2951210">
	<ele>513.40</ele>
	<time>2025-07-29T05:35:20.000Z</time>
</trkpt>
<trkpt lat="45.9273720" lon="10.2950980">
	<ele>513.60</ele>
	<time>2025-07-29T05:35:21.000Z</time>
</trkpt>
<trkpt lat="45.9273700" lon="10.2950780">
	<ele>513.80</ele>
	<time>2025-07-29T05:35:22.000Z</time>
</trkpt>
<trkpt lat="45.9273680" lon="10.2950610">
	<ele>514.00</ele>
	<time>2025-07-29T05:35:23.000Z</time>
</trkpt>
<trkpt lat="45.9273690" lon="10.2950510">
	<ele>514.20</ele>
	<time>2025-07-29T05:35:24.000Z</time>
</trkpt>
<trkpt lat="45.9273660" lon="10.2950380">
	<ele>514.20</ele>
	<time>2025-07-29T05:35:25.000Z</time>
</trkpt>
<trkpt lat="45.9273610" lon="10.2950250">
	<ele>514.40</ele>
	<time>2025-07-29T05:35:26.000Z</time>
</trkpt>
<trkpt lat="45.9273430" lon="10.2950070">
	<ele>514.60</ele>
	<time>2025-07-29T05:35:27.000Z</time>
</trkpt>
<trkpt lat="45.9273340" lon="10.2949960">
	<ele>514.80</ele>
	<time>2025-07-29T05:35:28.000Z</time>
</trkpt>
<trkpt lat="45.9273320" lon="10.2949820">
	<ele>514.80</ele>
	<time>2025-07-29T05:35:29.000Z</time>
</trkpt>
<trkpt lat="45.9273240" lon="10.2949660">
	<ele>515.00</ele>
	<time>2025-07-29T05:35:30.000Z</time>
</trkpt>
<trkpt lat="45.9273170" lon="10.2949460">
	<ele>515.20</ele>
	<time>2025-07-29T05:35:31.000Z</time>
</trkpt>
<trkpt lat="45.9273110" lon="10.2949250">
	<ele>515.40</ele>
	<time>2025-07-29T05:35:32.000Z</time>
</trkpt>
<trkpt lat="45.9273050" lon="10.2949000">
	<ele>515.60</ele>
	<time>2025-07-29T05:35:33.000Z</time>
</trkpt>
<trkpt lat="45.9272960" lon="10.2948820">
	<ele>515.60</ele>
	<time>2025-07-29T05:35:34.000Z</time>
</trkpt>
<trkpt lat="45.9272920" lon="10.2948650">
	<ele>515.80</ele>
	<time>2025-07-29T05:35:35.000Z</time>
</trkpt>
<trkpt lat="45.9272910" lon="10.2948490">
	<ele>516.00</ele>
	<time>2025-07-29T05:35:36.000Z</time>
</trkpt>
<trkpt lat="45.9272830" lon="10.2948340">
	<ele>516.00</ele>
	<time>2025-07-29T05:35:37.000Z</time>
</trkpt>
<trkpt lat="45.9272690" lon="10.2948220">
	<ele>516.20</ele>
	<time>2025-07-29T05:35:38.000Z</time>
</trkpt>
<trkpt lat="45.9272560" lon="10.2948150">
	<ele>516.40</ele>
	<time>2025-07-29T05:35:39.000Z</time>
</trkpt>
<trkpt lat="45.9272370" lon="10.2948010">
	<ele>516.40</ele>
	<time>2025-07-29T05:35:40.000Z</time>
</trkpt>
<trkpt lat="45.9272150" lon="10.2947830">
	<ele>516.80</ele>
	<time>2025-07-29T05:35:41.000Z</time>
</trkpt>
<trkpt lat="45.9272050" lon="10.2947720">
	<ele>517.00</ele>
	<time>2025-07-29T05:35:42.000Z</time>
</trkpt>
<trkpt lat="45.9271980" lon="10.2947580">
	<ele>517.00</ele>
	<time>2025-07-29T05:35:43.000Z</time>
</trkpt>
<trkpt lat="45.9271860" lon="10.2947470">
	<ele>517.20</ele>
	<time>2025-07-29T05:35:44.000Z</time>
</trkpt>
<trkpt lat="45.9271770" lon="10.2947370">
	<ele>517.40</ele>
	<time>2025-07-29T05:35:45.000Z</time>
</trkpt>
<trkpt lat="45.9271680" lon="10.2947270">
	<ele>517.40</ele>
	<time>2025-07-29T05:35:46.000Z</time>
</trkpt>
<trkpt lat="45.9271580" lon="10.2947160">
	<ele>517.80</ele>
	<time>2025-07-29T05:35:47.000Z</time>
</trkpt>
<trkpt lat="45.9271470" lon="10.2947110">
	<ele>517.80</ele>
	<time>2025-07-29T05:35:48.000Z</time>
</trkpt>
<trkpt lat="45.9271370" lon="10.2947040">
	<ele>518.00</ele>
	<time>2025-07-29T05:35:49.000Z</time>
</trkpt>
<trkpt lat="45.9271300" lon="10.2946920">
	<ele>518.20</ele>
	<time>2025-07-29T05:35:50.000Z</time>
</trkpt>
<trkpt lat="45.9271240" lon="10.2946830">
	<ele>518.40</ele>
	<time>2025-07-29T05:35:51.000Z</time>
</trkpt>
<trkpt lat="45.9271200" lon="10.2946710">
	<ele>518.40</ele>
	<time>2025-07-29T05:35:52.000Z</time>
</trkpt>
<trkpt lat="45.9271110" lon="10.2946600">
	<ele>518.60</ele>
	<time>2025-07-29T05:35:53.000Z</time>
</trkpt>
<trkpt lat="45.9271010" lon="10.2946460">
	<ele>518.60</ele>
	<time>2025-07-29T05:35:54.000Z</time>
</trkpt>
<trkpt lat="45.9270910" lon="10.2946340">
	<ele>518.80</ele>
	<time>2025-07-29T05:35:55.000Z</time>
</trkpt>
<trkpt lat="45.9270770" lon="10.2946220">
	<ele>518.80</ele>
	<time>2025-07-29T05:35:56.000Z</time>
</trkpt>
<trkpt lat="45.9270600" lon="10.2946120">
	<ele>519.00</ele>
	<time>2025-07-29T05:35:57.000Z</time>
</trkpt>
<trkpt lat="45.9270490" lon="10.2946020">
	<ele>519.20</ele>
	<time>2025-07-29T05:35:58.000Z</time>
</trkpt>
<trkpt lat="45.9270360" lon="10.2945890">
	<ele>519.20</ele>
	<time>2025-07-29T05:35:59.000Z</time>
</trkpt>
<trkpt lat="45.9270280" lon="10.2945750">
	<ele>519.40</ele>
	<time>2025-07-29T05:36:00.000Z</time>
</trkpt>
<trkpt lat="45.9270280" lon="10.2945580">
	<ele>519.60</ele>
	<time>2025-07-29T05:36:01.000Z</time>
</trkpt>
<trkpt lat="45.9270260" lon="10.2945430">
	<ele>519.60</ele>
	<time>2025-07-29T05:36:02.000Z</time>
</trkpt>
<trkpt lat="45.9270220" lon="10.2945290">
	<ele>519.60</ele>
	<time>2025-07-29T05:36:03.000Z</time>
</trkpt>
<trkpt lat="45.9270130" lon="10.2945160">
	<ele>519.80</ele>
	<time>2025-07-29T05:36:04.000Z</time>
</trkpt>
<trkpt lat="45.9270050" lon="10.2944940">
	<ele>520.00</ele>
	<time>2025-07-29T05:36:05.000Z</time>
</trkpt>
<trkpt lat="45.9269990" lon="10.2944800">
	<ele>520.00</ele>
	<time>2025-07-29T05:36:06.000Z</time>
</trkpt>
<trkpt lat="45.9269910" lon="10.2944630">
	<ele>520.00</ele>
	<time>2025-07-29T05:36:07.000Z</time>
</trkpt>
<trkpt lat="45.9269820" lon="10.2944540">
	<ele>520.20</ele>
	<time>2025-07-29T05:36:08.000Z</time>
</trkpt>
<trkpt lat="45.9269750" lon="10.2944380">
	<ele>520.20</ele>
	<time>2025-07-29T05:36:09.000Z</time>
</trkpt>
<trkpt lat="45.9269690" lon="10.2944160">
	<ele>520.40</ele>
	<time>2025-07-29T05:36:10.000Z</time>
</trkpt>
<trkpt lat="45.9269550" lon="10.2943950">
	<ele>520.40</ele>
	<time>2025-07-29T05:36:11.000Z</time>
</trkpt>
<trkpt lat="45.9269520" lon="10.2943910">
	<ele>520.60</ele>
	<time>2025-07-29T05:36:12.000Z</time>
</trkpt>
<trkpt lat="45.9269510" lon="10.2943880">
	<ele>520.60</ele>
	<time>2025-07-29T05:36:13.000Z</time>
</trkpt>
<trkpt lat="45.9269530" lon="10.2943880">
	<ele>520.80</ele>
	<time>2025-07-29T05:36:14.000Z</time>
</trkpt>
<trkpt lat="45.9269570" lon="10.2943880">
	<ele>520.80</ele>
	<time>2025-07-29T05:36:15.000Z</time>
</trkpt>
<trkpt lat="45.9269520" lon="10.2943720">
	<ele>520.80</ele>
	<time>2025-07-29T05:36:16.000Z</time>
</trkpt>
<trkpt lat="45.9269390" lon="10.2943550">
	<ele>520.80</ele>
	<time>2025-07-29T05:36:17.000Z</time>
</trkpt>
<trkpt lat="45.9269290" lon="10.2943370">
	<ele>520.80</ele>
	<time>2025-07-29T05:36:18.000Z</time>
</trkpt>
<trkpt lat="45.9269090" lon="10.2943150">
	<ele>520.80</ele>
	<time>2025-07-29T05:36:19.000Z</time>
</trkpt>
<trkpt lat="45.9268970" lon="10.2942970">
	<ele>520.80</ele>
	<time>2025-07-29T05:36:20.000Z</time>
</trkpt>
<trkpt lat="45.9268810" lon="10.2942820">
	<ele>520.80</ele>
	<time>2025-07-29T05:36:21.000Z</time>
</trkpt>
<trkpt lat="45.9268670" lon="10.2942680">
	<ele>521.00</ele>
	<time>2025-07-29T05:36:22.000Z</time>
</trkpt>
<trkpt lat="45.9268570" lon="10.2942570">
	<ele>521.00</ele>
	<time>2025-07-29T05:36:23.000Z</time>
</trkpt>
<trkpt lat="45.9268440" lon="10.2942400">
	<ele>521.00</ele>
	<time>2025-07-29T05:36:24.000Z</time>
</trkpt>
<trkpt lat="45.9268230" lon="10.2942140">
	<ele>521.00</ele>
	<time>2025-07-29T05:36:25.000Z</time>
</trkpt>
<trkpt lat="45.9268060" lon="10.2942020">
	<ele>521.00</ele>
	<time>2025-07-29T05:36:26.000Z</time>
</trkpt>
<trkpt lat="45.9267940" lon="10.2941950">
	<ele>521.20</ele>
	<time>2025-07-29T05:36:27.000Z</time>
</trkpt>
<trkpt lat="45.9267850" lon="10.2941850">
	<ele>521.20</ele>
	<time>2025-07-29T05:36:28.000Z</time>
</trkpt>
<trkpt lat="45.9267780" lon="10.2941840">
	<ele>521.40</ele>
	<time>2025-07-29T05:36:29.000Z</time>
</trkpt>
<trkpt lat="45.9267670" lon="10.2941850">
	<ele>521.40</ele>
	<time>2025-07-29T05:36:30.000Z</time>
</trkpt>
<trkpt lat="45.9267610" lon="10.2941880">
	<ele>521.40</ele>
	<time>2025-07-29T05:36:31.000Z</time>
</trkpt>
<trkpt lat="45.9267590" lon="10.2941840">
	<ele>521.60</ele>
	<time>2025-07-29T05:36:32.000Z</time>
</trkpt>
<trkpt lat="45.9267470" lon="10.2941810">
	<ele>521.60</ele>
	<time>2025-07-29T05:36:33.000Z</time>
</trkpt>
<trkpt lat="45.9267420" lon="10.2941790">
	<ele>521.60</ele>
	<time>2025-07-29T05:36:34.000Z</time>
</trkpt>
<trkpt lat="45.9267380" lon="10.2941720">
	<ele>521.80</ele>
	<time>2025-07-29T05:36:35.000Z</time>
</trkpt>
<trkpt lat="45.9267340" lon="10.2941650">
	<ele>521.80</ele>
	<time>2025-07-29T05:36:36.000Z</time>
</trkpt>
<trkpt lat="45.9267280" lon="10.2941610">
	<ele>522.00</ele>
	<time>2025-07-29T05:36:37.000Z</time>
</trkpt>
<trkpt lat="45.9267170" lon="10.2941580">
	<ele>522.00</ele>
	<time>2025-07-29T05:36:38.000Z</time>
</trkpt>
<trkpt lat="45.9267100" lon="10.2941610">
	<ele>522.20</ele>
	<time>2025-07-29T05:36:39.000Z</time>
</trkpt>
<trkpt lat="45.9267000" lon="10.2941590">
	<ele>522.20</ele>
	<time>2025-07-29T05:36:40.000Z</time>
</trkpt>
<trkpt lat="45.9266890" lon="10.2941630">
	<ele>522.20</ele>
	<time>2025-07-29T05:36:41.000Z</time>
</trkpt>
<trkpt lat="45.9266810" lon="10.2941670">
	<ele>522.40</ele>
	<time>2025-07-29T05:36:42.000Z</time>
</trkpt>
<trkpt lat="45.9266740" lon="10.2941730">
	<ele>522.60</ele>
	<time>2025-07-29T05:36:43.000Z</time>
</trkpt>
<trkpt lat="45.9266680" lon="10.2941740">
	<ele>522.80</ele>
	<time>2025-07-29T05:36:44.000Z</time>
</trkpt>
<trkpt lat="45.9266580" lon="10.2941780">
	<ele>523.00</ele>
	<time>2025-07-29T05:36:45.000Z</time>
</trkpt>
<trkpt lat="45.9266460" lon="10.2941820">
	<ele>523.00</ele>
	<time>2025-07-29T05:36:46.000Z</time>
</trkpt>
<trkpt lat="45.9266390" lon="10.2941870">
	<ele>523.40</ele>
	<time>2025-07-29T05:36:47.000Z</time>
</trkpt>
<trkpt lat="45.9266400" lon="10.2941930">
	<ele>523.40</ele>
	<time>2025-07-29T05:36:48.000Z</time>
</trkpt>
<trkpt lat="45.9266400" lon="10.2941940">
	<ele>523.40</ele>
	<time>2025-07-29T05:36:49.000Z</time>
</trkpt>
<trkpt lat="45.9266390" lon="10.2941960">
	<ele>523.60</ele>
	<time>2025-07-29T05:36:50.000Z</time>
</trkpt>
<trkpt lat="45.9266340" lon="10.2941930">
	<ele>523.60</ele>
	<time>2025-07-29T05:36:51.000Z</time>
</trkpt>
<trkpt lat="45.9266280" lon="10.2941900">
	<ele>523.60</ele>
	<time>2025-07-29T05:36:52.000Z</time>
</trkpt>
<trkpt lat="45.9266270" lon="10.2941850">
	<ele>523.60</ele>
	<time>2025-07-29T05:36:53.000Z</time>
</trkpt>
<trkpt lat="45.9266190" lon="10.2941770">
	<ele>523.60</ele>
	<time>2025-07-29T05:36:54.000Z</time>
</trkpt>
<trkpt lat="45.9266110" lon="10.2941670">
	<ele>523.60</ele>
	<time>2025-07-29T05:36:55.000Z</time>
</trkpt>
<trkpt lat="45.9266010" lon="10.2941640">
	<ele>523.80</ele>
	<time>2025-07-29T05:36:56.000Z</time>
</trkpt>
<trkpt lat="45.9265900" lon="10.2941690">
	<ele>524.20</ele>
	<time>2025-07-29T05:36:57.000Z</time>
</trkpt>
<trkpt lat="45.9265780" lon="10.2941700">
	<ele>524.40</ele>
	<time>2025-07-29T05:36:58.000Z</time>
</trkpt>
<trkpt lat="45.9265660" lon="10.2941680">
	<ele>524.60</ele>
	<time>2025-07-29T05:36:59.000Z</time>
</trkpt>
<trkpt lat="45.9265550" lon="10.2941600">
	<ele>524.80</ele>
	<time>2025-07-29T05:37:00.000Z</time>
</trkpt>
<trkpt lat="45.9265450" lon="10.2941600">
	<ele>525.00</ele>
	<time>2025-07-29T05:37:01.000Z</time>
</trkpt>
<trkpt lat="45.9265300" lon="10.2941580">
	<ele>525.00</ele>
	<time>2025-07-29T05:37:02.000Z</time>
</trkpt>
<trkpt lat="45.9265230" lon="10.2941550">
	<ele>525.20</ele>
	<time>2025-07-29T05:37:03.000Z</time>
</trkpt>
<trkpt lat="45.9265120" lon="10.2941580">
	<ele>525.40</ele>
	<time>2025-07-29T05:37:04.000Z</time>
</trkpt>
<trkpt lat="45.9264930" lon="10.2941540">
	<ele>525.40</ele>
	<time>2025-07-29T05:37:05.000Z</time>
</trkpt>
<trkpt lat="45.9264790" lon="10.2941550">
	<ele>525.60</ele>
	<time>2025-07-29T05:37:06.000Z</time>
</trkpt>
<trkpt lat="45.9264680" lon="10.2941550">
	<ele>525.80</ele>
	<time>2025-07-29T05:37:07.000Z</time>
</trkpt>
<trkpt lat="45.9264570" lon="10.2941480">
	<ele>525.80</ele>
	<time>2025-07-29T05:37:08.000Z</time>
</trkpt>
<trkpt lat="45.9264450" lon="10.2941320">
	<ele>526.20</ele>
	<time>2025-07-29T05:37:09.000Z</time>
</trkpt>
<trkpt lat="45.9264380" lon="10.2941260">
	<ele>526.40</ele>
	<time>2025-07-29T05:37:10.000Z</time>
</trkpt>
<trkpt lat="45.9264320" lon="10.2941210">
	<ele>526.60</ele>
	<time>2025-07-29T05:37:11.000Z</time>
</trkpt>
<trkpt lat="45.9264220" lon="10.2941130">
	<ele>526.80</ele>
	<time>2025-07-29T05:37:12.000Z</time>
</trkpt>
<trkpt lat="45.9264120" lon="10.2941070">
	<ele>527.00</ele>
	<time>2025-07-29T05:37:13.000Z</time>
</trkpt>
<trkpt lat="45.9264030" lon="10.2941010">
	<ele>527.40</ele>
	<time>2025-07-29T05:37:14.000Z</time>
</trkpt>
<trkpt lat="45.9263930" lon="10.2940990">
	<ele>527.40</ele>
	<time>2025-07-29T05:37:15.000Z</time>
</trkpt>
<trkpt lat="45.9263870" lon="10.2941000">
	<ele>527.60</ele>
	<time>2025-07-29T05:37:16.000Z</time>
</trkpt>
<trkpt lat="45.9263830" lon="10.2941020">
	<ele>527.60</ele>
	<time>2025-07-29T05:37:17.000Z</time>
</trkpt>
<trkpt lat="45.9263750" lon="10.2940960">
	<ele>527.80</ele>
	<time>2025-07-29T05:37:18.000Z</time>
</trkpt>
<trkpt lat="45.9263720" lon="10.2941020">
	<ele>528.00</ele>
	<time>2025-07-29T05:37:19.000Z</time>
</trkpt>
<trkpt lat="45.9263680" lon="10.2941100">
	<ele>528.40</ele>
	<time>2025-07-29T05:37:20.000Z</time>
</trkpt>
<trkpt lat="45.9263640" lon="10.2941130">
	<ele>528.40</ele>
	<time>2025-07-29T05:37:21.000Z</time>
</trkpt>
<trkpt lat="45.9263520" lon="10.2941000">
	<ele>528.80</ele>
	<time>2025-07-29T05:37:22.000Z</time>
</trkpt>
<trkpt lat="45.9263400" lon="10.2940940">
	<ele>529.00</ele>
	<time>2025-07-29T05:37:23.000Z</time>
</trkpt>
<trkpt lat="45.9263280" lon="10.2940820">
	<ele>529.20</ele>
	<time>2025-07-29T05:37:24.000Z</time>
</trkpt>
<trkpt lat="45.9263220" lon="10.2940680">
	<ele>529.40</ele>
	<time>2025-07-29T05:37:25.000Z</time>
</trkpt>
<trkpt lat="45.9263210" lon="10.2940640">
	<ele>529.40</ele>
	<time>2025-07-29T05:37:26.000Z</time>
</trkpt>
<trkpt lat="45.9263130" lon="10.2940580">
	<ele>529.80</ele>
	<time>2025-07-29T05:37:27.000Z</time>
</trkpt>
<trkpt lat="45.9263070" lon="10.2940580">
	<ele>530.00</ele>
	<time>2025-07-29T05:37:28.000Z</time>
</trkpt>
<trkpt lat="45.9263170" lon="10.2940470">
	<ele>530.20</ele>
	<time>2025-07-29T05:37:29.000Z</time>
</trkpt>
<trkpt lat="45.9263160" lon="10.2940520">
	<ele>530.40</ele>
	<time>2025-07-29T05:37:30.000Z</time>
</trkpt>
<trkpt lat="45.9263100" lon="10.2940360">
	<ele>530.60</ele>
	<time>2025-07-29T05:37:31.000Z</time>
</trkpt>
<trkpt lat="45.9263060" lon="10.2940350">
	<ele>530.80</ele>
	<time>2025-07-29T05:37:32.000Z</time>
</trkpt>
<trkpt lat="45.9263000" lon="10.2940230">
	<ele>531.00</ele>
	<time>2025-07-29T05:37:33.000Z</time>
</trkpt>
<trkpt lat="45.9262920" lon="10.2940090">
	<ele>531.20</ele>
	<time>2025-07-29T05:37:34.000Z</time>
</trkpt>
<trkpt lat="45.9262800" lon="10.2939950">
	<ele>531.40</ele>
	<time>2025-07-29T05:37:35.000Z</time>
</trkpt>
<trkpt lat="45.9262730" lon="10.2939890">
	<ele>531.80</ele>
	<time>2025-07-29T05:37:36.000Z</time>
</trkpt>
<trkpt lat="45.9262680" lon="10.2939800">
	<ele>532.00</ele>
	<time>2025-07-29T05:37:37.000Z</time>
</trkpt>
<trkpt lat="45.9262660" lon="10.2939700">
	<ele>532.20</ele>
	<time>2025-07-29T05:37:38.000Z</time>
</trkpt>
<trkpt lat="45.9262530" lon="10.2939580">
	<ele>532.20</ele>
	<time>2025-07-29T05:37:39.000Z</time>
</trkpt>
<trkpt lat="45.9262330" lon="10.2939350">
	<ele>532.40</ele>
	<time>2025-07-29T05:37:40.000Z</time>
</trkpt>
<trkpt lat="45.9262120" lon="10.2939150">
	<ele>532.40</ele>
	<time>2025-07-29T05:37:41.000Z</time>
</trkpt>
<trkpt lat="45.9262030" lon="10.2939030">
	<ele>532.60</ele>
	<time>2025-07-29T05:37:42.000Z</time>
</trkpt>
<trkpt lat="45.9261980" lon="10.2938950">
	<ele>532.80</ele>
	<time>2025-07-29T05:37:43.000Z</time>
</trkpt>
<trkpt lat="45.9261920" lon="10.2938840">
	<ele>533.00</ele>
	<time>2025-07-29T05:37:44.000Z</time>
</trkpt>
<trkpt lat="45.9261960" lon="10.2938840">
	<ele>533.00</ele>
	<time>2025-07-29T05:37:45.000Z</time>
</trkpt>
<trkpt lat="45.9261930" lon="10.2938760">
	<ele>533.20</ele>
	<time>2025-07-29T05:37:46.000Z</time>
</trkpt>
<trkpt lat="45.9261890" lon="10.2938630">
	<ele>533.40</ele>
	<time>2025-07-29T05:37:47.000Z</time>
</trkpt>
<trkpt lat="45.9261860" lon="10.2938560">
	<ele>533.60</ele>
	<time>2025-07-29T05:37:48.000Z</time>
</trkpt>
<trkpt lat="45.9261800" lon="10.2938500">
	<ele>533.60</ele>
	<time>2025-07-29T05:37:49.000Z</time>
</trkpt>
<trkpt lat="45.9261770" lon="10.2938440">
	<ele>533.80</ele>
	<time>2025-07-29T05:37:50.000Z</time>
</trkpt>
<trkpt lat="45.9261720" lon="10.2938310">
	<ele>534.00</ele>
	<time>2025-07-29T05:37:51.000Z</time>
</trkpt>
<trkpt lat="45.9261640" lon="10.2938220">
	<ele>534.00</ele>
	<time>2025-07-29T05:37:52.000Z</time>
</trkpt>
<trkpt lat="45.9261610" lon="10.2938100">
	<ele>534.20</ele>
	<time>2025-07-29T05:37:53.000Z</time>
</trkpt>
<trkpt lat="45.9261570" lon="10.2938010">
	<ele>534.40</ele>
	<time>2025-07-29T05:37:54.000Z</time>
</trkpt>
<trkpt lat="45.9261440" lon="10.2937880">
	<ele>534.60</ele>
	<time>2025-07-29T05:37:55.000Z</time>
</trkpt>
<trkpt lat="45.9261350" lon="10.2937790">
	<ele>534.80</ele>
	<time>2025-07-29T05:37:56.000Z</time>
</trkpt>
<trkpt lat="45.9261300" lon="10.2937660">
	<ele>534.80</ele>
	<time>2025-07-29T05:37:57.000Z</time>
</trkpt>
<trkpt lat="45.9261160" lon="10.2937530">
	<ele>535.00</ele>
	<time>2025-07-29T05:37:58.000Z</time>
</trkpt>
<trkpt lat="45.9261050" lon="10.2937420">
	<ele>535.20</ele>
	<time>2025-07-29T05:37:59.000Z</time>
</trkpt>
<trkpt lat="45.9260930" lon="10.2937290">
	<ele>535.20</ele>
	<time>2025-07-29T05:38:00.000Z</time>
</trkpt>
<trkpt lat="45.9260870" lon="10.2937170">
	<ele>535.40</ele>
	<time>2025-07-29T05:38:01.000Z</time>
</trkpt>
<trkpt lat="45.9260820" lon="10.2937100">
	<ele>535.60</ele>
	<time>2025-07-29T05:38:02.000Z</time>
</trkpt>
<trkpt lat="45.9260790" lon="10.2937060">
	<ele>535.80</ele>
	<time>2025-07-29T05:38:03.000Z</time>
</trkpt>
<trkpt lat="45.9260830" lon="10.2937020">
	<ele>536.00</ele>
	<time>2025-07-29T05:38:04.000Z</time>
</trkpt>
<trkpt lat="45.9260780" lon="10.2936910">
	<ele>536.00</ele>
	<time>2025-07-29T05:38:05.000Z</time>
</trkpt>
<trkpt lat="45.9260620" lon="10.2936870">
	<ele>536.40</ele>
	<time>2025-07-29T05:38:06.000Z</time>
</trkpt>
<trkpt lat="45.9260480" lon="10.2936840">
	<ele>536.40</ele>
	<time>2025-07-29T05:38:07.000Z</time>
</trkpt>
<trkpt lat="45.9260320" lon="10.2936770">
	<ele>536.60</ele>
	<time>2025-07-29T05:38:08.000Z</time>
</trkpt>
<trkpt lat="45.9260290" lon="10.2936730">
	<ele>536.80</ele>
	<time>2025-07-29T05:38:09.000Z</time>
</trkpt>
<trkpt lat="45.9260280" lon="10.2936690">
	<ele>537.00</ele>
	<time>2025-07-29T05:38:10.000Z</time>
</trkpt>
<trkpt lat="45.9260200" lon="10.2936550">
	<ele>537.20</ele>
	<time>2025-07-29T05:38:11.000Z</time>
</trkpt>
<trkpt lat="45.9260040" lon="10.2936370">
	<ele>537.40</ele>
	<time>2025-07-29T05:38:12.000Z</time>
</trkpt>
<trkpt lat="45.9259880" lon="10.2936190">
	<ele>537.60</ele>
	<time>2025-07-29T05:38:13.000Z</time>
</trkpt>
<trkpt lat="45.9259660" lon="10.2936070">
	<ele>537.60</ele>
	<time>2025-07-29T05:38:14.000Z</time>
</trkpt>
<trkpt lat="45.9259460" lon="10.2935870">
	<ele>537.80</ele>
	<time>2025-07-29T05:38:15.000Z</time>
</trkpt>
<trkpt lat="45.9259330" lon="10.2935680">
	<ele>538.00</ele>
	<time>2025-07-29T05:38:16.000Z</time>
</trkpt>
<trkpt lat="45.9259250" lon="10.2935610">
	<ele>538.00</ele>
	<time>2025-07-29T05:38:17.000Z</time>
</trkpt>
<trkpt lat="45.9259040" lon="10.2935530">
	<ele>538.40</ele>
	<time>2025-07-29T05:38:18.000Z</time>
</trkpt>
<trkpt lat="45.9258820" lon="10.2935560">
	<ele>538.60</ele>
	<time>2025-07-29T05:38:19.000Z</time>
</trkpt>
<trkpt lat="45.9258680" lon="10.2935650">
	<ele>538.80</ele>
	<time>2025-07-29T05:38:20.000Z</time>
</trkpt>
<trkpt lat="45.9258670" lon="10.2935730">
	<ele>539.00</ele>
	<time>2025-07-29T05:38:21.000Z</time>
</trkpt>
<trkpt lat="45.9258630" lon="10.2935750">
	<ele>539.00</ele>
	<time>2025-07-29T05:38:22.000Z</time>
</trkpt>
<trkpt lat="45.9258490" lon="10.2935690">
	<ele>539.20</ele>
	<time>2025-07-29T05:38:23.000Z</time>
</trkpt>
<trkpt lat="45.9258440" lon="10.2935710">
	<ele>539.20</ele>
	<time>2025-07-29T05:38:24.000Z</time>
</trkpt>
<trkpt lat="45.9258330" lon="10.2935700">
	<ele>539.20</ele>
	<time>2025-07-29T05:38:25.000Z</time>
</trkpt>
<trkpt lat="45.9258260" lon="10.2935630">
	<ele>539.60</ele>
	<time>2025-07-29T05:38:26.000Z</time>
</trkpt>
<trkpt lat="45.9258170" lon="10.2935510">
	<ele>539.60</ele>
	<time>2025-07-29T05:38:27.000Z</time>
</trkpt>
<trkpt lat="45.9258040" lon="10.2935290">
	<ele>539.80</ele>
	<time>2025-07-29T05:38:28.000Z</time>
</trkpt>
<trkpt lat="45.9257850" lon="10.2935000">
	<ele>540.00</ele>
	<time>2025-07-29T05:38:29.000Z</time>
</trkpt>
<trkpt lat="45.9257790" lon="10.2934970">
	<ele>540.00</ele>
	<time>2025-07-29T05:38:30.000Z</time>
</trkpt>
<trkpt lat="45.9257730" lon="10.2934920">
	<ele>540.20</ele>
	<time>2025-07-29T05:38:31.000Z</time>
</trkpt>
<trkpt lat="45.9257650" lon="10.2934730">
	<ele>540.40</ele>
	<time>2025-07-29T05:38:32.000Z</time>
</trkpt>
<trkpt lat="45.9257610" lon="10.2934670">
	<ele>540.60</ele>
	<time>2025-07-29T05:38:33.000Z</time>
</trkpt>
<trkpt lat="45.9257540" lon="10.2934620">
	<ele>540.80</ele>
	<time>2025-07-29T05:38:34.000Z</time>
</trkpt>
<trkpt lat="45.9257500" lon="10.2934600">
	<ele>541.00</ele>
	<time>2025-07-29T05:38:35.000Z</time>
</trkpt>
<trkpt lat="45.9257380" lon="10.2934510">
	<ele>541.20</ele>
	<time>2025-07-29T05:38:36.000Z</time>
</trkpt>
<trkpt lat="45.9257240" lon="10.2934430">
	<ele>541.60</ele>
	<time>2025-07-29T05:38:37.000Z</time>
</trkpt>
<trkpt lat="45.9257100" lon="10.2934320">
	<ele>541.80</ele>
	<time>2025-07-29T05:38:38.000Z</time>
</trkpt>
<trkpt lat="45.9257100" lon="10.2934310">
	<ele>542.00</ele>
	<time>2025-07-29T05:38:39.000Z</time>
</trkpt>
<trkpt lat="45.9257080" lon="10.2934290">
	<ele>542.00</ele>
	<time>2025-07-29T05:38:40.000Z</time>
</trkpt>
<trkpt lat="45.9257020" lon="10.2934240">
	<ele>542.20</ele>
	<time>2025-07-29T05:38:41.000Z</time>
</trkpt>
<trkpt lat="45.9256970" lon="10.2934160">
	<ele>542.40</ele>
	<time>2025-07-29T05:38:42.000Z</time>
</trkpt>
<trkpt lat="45.9256940" lon="10.2934120">
	<ele>542.60</ele>
	<time>2025-07-29T05:38:43.000Z</time>
</trkpt>
<trkpt lat="45.9256820" lon="10.2933960">
	<ele>543.00</ele>
	<time>2025-07-29T05:38:44.000Z</time>
</trkpt>
<trkpt lat="45.9256650" lon="10.2933750">
	<ele>543.20</ele>
	<time>2025-07-29T05:38:45.000Z</time>
</trkpt>
<trkpt lat="45.9256510" lon="10.2933640">
	<ele>543.40</ele>
	<time>2025-07-29T05:38:46.000Z</time>
</trkpt>
<trkpt lat="45.9256450" lon="10.2933620">
	<ele>543.60</ele>
	<time>2025-07-29T05:38:47.000Z</time>
</trkpt>
<trkpt lat="45.9256400" lon="10.2933590">
	<ele>543.80</ele>
	<time>2025-07-29T05:38:48.000Z</time>
</trkpt>
<trkpt lat="45.9256300" lon="10.2933450">
	<ele>544.00</ele>
	<time>2025-07-29T05:38:49.000Z</time>
</trkpt>
<trkpt lat="45.9256200" lon="10.2933420">
	<ele>544.20</ele>
	<time>2025-07-29T05:38:50.000Z</time>
</trkpt>
<trkpt lat="45.9256110" lon="10.2933440">
	<ele>544.40</ele>
	<time>2025-07-29T05:38:51.000Z</time>
</trkpt>
<trkpt lat="45.9256010" lon="10.2933520">
	<ele>544.60</ele>
	<time>2025-07-29T05:38:52.000Z</time>
</trkpt>
<trkpt lat="45.9255960" lon="10.2933520">
	<ele>544.80</ele>
	<time>2025-07-29T05:38:53.000Z</time>
</trkpt>
<trkpt lat="45.9255930" lon="10.2933510">
	<ele>545.00</ele>
	<time>2025-07-29T05:38:54.000Z</time>
</trkpt>
<trkpt lat="45.9255930" lon="10.2933490">
	<ele>545.20</ele>
	<time>2025-07-29T05:38:55.000Z</time>
</trkpt>
<trkpt lat="45.9255920" lon="10.2933490">
	<ele>545.40</ele>
	<time>2025-07-29T05:38:56.000Z</time>
</trkpt>
<trkpt lat="45.9255830" lon="10.2933390">
	<ele>545.60</ele>
	<time>2025-07-29T05:38:57.000Z</time>
</trkpt>
<trkpt lat="45.9255780" lon="10.2933280">
	<ele>545.80</ele>
	<time>2025-07-29T05:38:58.000Z</time>
</trkpt>
<trkpt lat="45.9255780" lon="10.2933200">
	<ele>545.80</ele>
	<time>2025-07-29T05:38:59.000Z</time>
</trkpt>
<trkpt lat="45.9255800" lon="10.2933100">
	<ele>546.00</ele>
	<time>2025-07-29T05:39:00.000Z</time>
</trkpt>
<trkpt lat="45.9255780" lon="10.2933030">
	<ele>546.20</ele>
	<time>2025-07-29T05:39:01.000Z</time>
</trkpt>
<trkpt lat="45.9255760" lon="10.2932920">
	<ele>546.40</ele>
	<time>2025-07-29T05:39:02.000Z</time>
</trkpt>
<trkpt lat="45.9255630" lon="10.2932790">
	<ele>546.60</ele>
	<time>2025-07-29T05:39:03.000Z</time>
</trkpt>
<trkpt lat="45.9255490" lon="10.2932640">
	<ele>546.80</ele>
	<time>2025-07-29T05:39:04.000Z</time>
</trkpt>
<trkpt lat="45.9255300" lon="10.2932550">
	<ele>547.00</ele>
	<time>2025-07-29T05:39:05.000Z</time>
</trkpt>
<trkpt lat="45.9255260" lon="10.2932590">
	<ele>547.20</ele>
	<time>2025-07-29T05:39:06.000Z</time>
</trkpt>
<trkpt lat="45.9255160" lon="10.2932490">
	<ele>547.20</ele>
	<time>2025-07-29T05:39:07.000Z</time>
</trkpt>
<trkpt lat="45.9255060" lon="10.2932430">
	<ele>547.40</ele>
	<time>2025-07-29T05:39:08.000Z</time>
</trkpt>
<trkpt lat="45.9254990" lon="10.2932330">
	<ele>547.60</ele>
	<time>2025-07-29T05:39:09.000Z</time>
</trkpt>
<trkpt lat="45.9254840" lon="10.2932290">
	<ele>547.60</ele>
	<time>2025-07-29T05:39:10.000Z</time>
</trkpt>
<trkpt lat="45.9254680" lon="10.2932220">
	<ele>547.80</ele>
	<time>2025-07-29T05:39:11.000Z</time>
</trkpt>
<trkpt lat="45.9254560" lon="10.2932090">
	<ele>548.00</ele>
	<time>2025-07-29T05:39:12.000Z</time>
</trkpt>
<trkpt lat="45.9254400" lon="10.2931930">
	<ele>548.20</ele>
	<time>2025-07-29T05:39:13.000Z</time>
</trkpt>
<trkpt lat="45.9254270" lon="10.2931780">
	<ele>548.60</ele>
	<time>2025-07-29T05:39:14.000Z</time>
</trkpt>
<trkpt lat="45.9254170" lon="10.2931600">
	<ele>548.80</ele>
	<time>2025-07-29T05:39:15.000Z</time>
</trkpt>
<trkpt lat="45.9254060" lon="10.2931420">
	<ele>548.80</ele>
	<time>2025-07-29T05:39:16.000Z</time>
</trkpt>
<trkpt lat="45.9253980" lon="10.2931250">
	<ele>548.80</ele>
	<time>2025-07-29T05:39:17.000Z</time>
</trkpt>
<trkpt lat="45.9254040" lon="10.2931060">
	<ele>548.80</ele>
	<time>2025-07-29T05:39:18.000Z</time>
</trkpt>
<trkpt lat="45.9253980" lon="10.2930970">
	<ele>549.00</ele>
	<time>2025-07-29T05:39:19.000Z</time>
</trkpt>
<trkpt lat="45.9254040" lon="10.2930950">
	<ele>549.00</ele>
	<time>2025-07-29T05:39:20.000Z</time>
</trkpt>
<trkpt lat="45.9254020" lon="10.2930860">
	<ele>549.00</ele>
	<time>2025-07-29T05:39:21.000Z</time>
</trkpt>
<trkpt lat="45.9253890" lon="10.2930790">
	<ele>549.20</ele>
	<time>2025-07-29T05:39:22.000Z</time>
</trkpt>
<trkpt lat="45.9253770" lon="10.2930700">
	<ele>549.40</ele>
	<time>2025-07-29T05:39:23.000Z</time>
</trkpt>
<trkpt lat="45.9253650" lon="10.2930600">
	<ele>549.60</ele>
	<time>2025-07-29T05:39:24.000Z</time>
</trkpt>
<trkpt lat="45.9253500" lon="10.2930530">
	<ele>549.60</ele>
	<time>2025-07-29T05:39:25.000Z</time>
</trkpt>
<trkpt lat="45.9253350" lon="10.2930470">
	<ele>549.60</ele>
	<time>2025-07-29T05:39:26.000Z</time>
</trkpt>
<trkpt lat="45.9253170" lon="10.2930530">
	<ele>549.80</ele>
	<time>2025-07-29T05:39:27.000Z</time>
</trkpt>
<trkpt lat="45.9253040" lon="10.2930540">
	<ele>549.80</ele>
	<time>2025-07-29T05:39:28.000Z</time>
</trkpt>
<trkpt lat="45.9252900" lon="10.2930480">
	<ele>549.80</ele>
	<time>2025-07-29T05:39:29.000Z</time>
</trkpt>
<trkpt lat="45.9252790" lon="10.2930380">
	<ele>550.00</ele>
	<time>2025-07-29T05:39:30.000Z</time>
</trkpt>
<trkpt lat="45.9252770" lon="10.2930250">
	<ele>550.00</ele>
	<time>2025-07-29T05:39:31.000Z</time>
</trkpt>
<trkpt lat="45.9252790" lon="10.2930180">
	<ele>550.20</ele>
	<time>2025-07-29T05:39:32.000Z</time>
</trkpt>
<trkpt lat="45.9252700" lon="10.2930010">
	<ele>550.20</ele>
	<time>2025-07-29T05:39:33.000Z</time>
</trkpt>
<trkpt lat="45.9252600" lon="10.2929860">
	<ele>550.40</ele>
	<time>2025-07-29T05:39:34.000Z</time>
</trkpt>
<trkpt lat="45.9252490" lon="10.2929770">
	<ele>550.40</ele>
	<time>2025-07-29T05:39:35.000Z</time>
</trkpt>
<trkpt lat="45.9252440" lon="10.2929640">
	<ele>550.60</ele>
	<time>2025-07-29T05:39:36.000Z</time>
</trkpt>
<trkpt lat="45.9252420" lon="10.2929600">
	<ele>550.60</ele>
	<time>2025-07-29T05:39:37.000Z</time>
</trkpt>
<trkpt lat="45.9252380" lon="10.2929450">
	<ele>550.60</ele>
	<time>2025-07-29T05:39:38.000Z</time>
</trkpt>
<trkpt lat="45.9252450" lon="10.2929260">
	<ele>550.80</ele>
	<time>2025-07-29T05:39:39.000Z</time>
</trkpt>
<trkpt lat="45.9252640" lon="10.2928910">
	<ele>550.80</ele>
	<time>2025-07-29T05:39:40.000Z</time>
</trkpt>
<trkpt lat="45.9252860" lon="10.2928690">
	<ele>551.00</ele>
	<time>2025-07-29T05:39:41.000Z</time>
</trkpt>
<trkpt lat="45.9252910" lon="10.2928620">
	<ele>551.00</ele>
	<time>2025-07-29T05:39:42.000Z</time>
</trkpt>
<trkpt lat="45.9252700" lon="10.2928290">
	<ele>551.20</ele>
	<time>2025-07-29T05:39:43.000Z</time>
</trkpt>
<trkpt lat="45.9252680" lon="10.2928250">
	<ele>551.20</ele>
	<time>2025-07-29T05:39:44.000Z</time>
</trkpt>
<trkpt lat="45.9252500" lon="10.2928080">
	<ele>551.40</ele>
	<time>2025-07-29T05:39:45.000Z</time>
</trkpt>
<trkpt lat="45.9252320" lon="10.2927920">
	<ele>551.40</ele>
	<time>2025-07-29T05:39:46.000Z</time>
</trkpt>
<trkpt lat="45.9252280" lon="10.2927830">
	<ele>551.40</ele>
	<time>2025-07-29T05:39:47.000Z</time>
</trkpt>
<trkpt lat="45.9252300" lon="10.2927770">
	<ele>551.60</ele>
	<time>2025-07-29T05:39:48.000Z</time>
</trkpt>
<trkpt lat="45.9252370" lon="10.2927720">
	<ele>551.80</ele>
	<time>2025-07-29T05:39:49.000Z</time>
</trkpt>
<trkpt lat="45.9252440" lon="10.2927650">
	<ele>552.00</ele>
	<time>2025-07-29T05:39:50.000Z</time>
</trkpt>
<trkpt lat="45.9252440" lon="10.2927590">
	<ele>552.20</ele>
	<time>2025-07-29T05:39:51.000Z</time>
</trkpt>
<trkpt lat="45.9252450" lon="10.2927450">
	<ele>552.40</ele>
	<time>2025-07-29T05:39:52.000Z</time>
</trkpt>
<trkpt lat="45.9252460" lon="10.2927280">
	<ele>552.40</ele>
	<time>2025-07-29T05:39:53.000Z</time>
</trkpt>
<trkpt lat="45.9252450" lon="10.2927090">
	<ele>552.60</ele>
	<time>2025-07-29T05:39:54.000Z</time>
</trkpt>
<trkpt lat="45.9252300" lon="10.2926890">
	<ele>552.60</ele>
	<time>2025-07-29T05:39:55.000Z</time>
</trkpt>
<trkpt lat="45.9252180" lon="10.2926740">
	<ele>552.80</ele>
	<time>2025-07-29T05:39:56.000Z</time>
</trkpt>
<trkpt lat="45.9252120" lon="10.2926520">
	<ele>552.80</ele>
	<time>2025-07-29T05:39:57.000Z</time>
</trkpt>
<trkpt lat="45.9252030" lon="10.2926250">
	<ele>553.00</ele>
	<time>2025-07-29T05:39:58.000Z</time>
</trkpt>
<trkpt lat="45.9251970" lon="10.2925980">
	<ele>553.00</ele>
	<time>2025-07-29T05:39:59.000Z</time>
</trkpt>
<trkpt lat="45.9251950" lon="10.2925740">
	<ele>553.20</ele>
	<time>2025-07-29T05:40:00.000Z</time>
</trkpt>
<trkpt lat="45.9251880" lon="10.2925500">
	<ele>553.20</ele>
	<time>2025-07-29T05:40:01.000Z</time>
</trkpt>
<trkpt lat="45.9251810" lon="10.2925230">
	<ele>553.40</ele>
	<time>2025-07-29T05:40:02.000Z</time>
</trkpt>
<trkpt lat="45.9251690" lon="10.2925000">
	<ele>553.40</ele>
	<time>2025-07-29T05:40:03.000Z</time>
</trkpt>
<trkpt lat="45.9251540" lon="10.2924800">
	<ele>553.60</ele>
	<time>2025-07-29T05:40:04.000Z</time>
</trkpt>
<trkpt lat="45.9251500" lon="10.2924740">
	<ele>553.60</ele>
	<time>2025-07-29T05:40:05.000Z</time>
</trkpt>
<trkpt lat="45.9251370" lon="10.2924690">
	<ele>553.80</ele>
	<time>2025-07-29T05:40:06.000Z</time>
</trkpt>
<trkpt lat="45.9251230" lon="10.2924620">
	<ele>553.80</ele>
	<time>2025-07-29T05:40:07.000Z</time>
</trkpt>
<trkpt lat="45.9251220" lon="10.2924590">
	<ele>554.00</ele>
	<time>2025-07-29T05:40:08.000Z</time>
</trkpt>
<trkpt lat="45.9251110" lon="10.2924570">
	<ele>554.20</ele>
	<time>2025-07-29T05:40:09.000Z</time>
</trkpt>
<trkpt lat="45.9250950" lon="10.2924550">
	<ele>554.20</ele>
	<time>2025-07-29T05:40:10.000Z</time>
</trkpt>
<trkpt lat="45.9250840" lon="10.2924500">
	<ele>554.60</ele>
	<time>2025-07-29T05:40:11.000Z</time>
</trkpt>
<trkpt lat="45.9250730" lon="10.2924540">
	<ele>554.80</ele>
	<time>2025-07-29T05:40:12.000Z</time>
</trkpt>
<trkpt lat="45.9250640" lon="10.2924550">
	<ele>555.00</ele>
	<time>2025-07-29T05:40:13.000Z</time>
</trkpt>
<trkpt lat="45.9250490" lon="10.2924410">
	<ele>555.20</ele>
	<time>2025-07-29T05:40:14.000Z</time>
</trkpt>
<trkpt lat="45.9250330" lon="10.2924300">
	<ele>555.40</ele>
	<time>2025-07-29T05:40:15.000Z</time>
</trkpt>
<trkpt lat="45.9250280" lon="10.2924250">
	<ele>555.60</ele>
	<time>2025-07-29T05:40:16.000Z</time>
</trkpt>
<trkpt lat="45.9250240" lon="10.2924230">
	<ele>556.00</ele>
	<time>2025-07-29T05:40:17.000Z</time>
</trkpt>
<trkpt lat="45.9250210" lon="10.2924200">
	<ele>556.00</ele>
	<time>2025-07-29T05:40:18.000Z</time>
</trkpt>
<trkpt lat="45.9250050" lon="10.2924150">
	<ele>556.40</ele>
	<time>2025-07-29T05:40:19.000Z</time>
</trkpt>
<trkpt lat="45.9249920" lon="10.2924080">
	<ele>556.60</ele>
	<time>2025-07-29T05:40:20.000Z</time>
</trkpt>
<trkpt lat="45.9249750" lon="10.2924020">
	<ele>556.80</ele>
	<time>2025-07-29T05:40:21.000Z</time>
</trkpt>
<trkpt lat="45.9249610" lon="10.2924050">
	<ele>557.00</ele>
	<time>2025-07-29T05:40:22.000Z</time>
</trkpt>
<trkpt lat="45.9249580" lon="10.2924060">
	<ele>557.40</ele>
	<time>2025-07-29T05:40:23.000Z</time>
</trkpt>
<trkpt lat="45.9249600" lon="10.2924170">
	<ele>557.60</ele>
	<time>2025-07-29T05:40:24.000Z</time>
</trkpt>
<trkpt lat="45.9249570" lon="10.2924280">
	<ele>558.00</ele>
	<time>2025-07-29T05:40:25.000Z</time>
</trkpt>
<trkpt lat="45.9249480" lon="10.2924320">
	<ele>558.20</ele>
	<time>2025-07-29T05:40:26.000Z</time>
</trkpt>
<trkpt lat="45.9249450" lon="10.2924320">
	<ele>558.20</ele>
	<time>2025-07-29T05:40:27.000Z</time>
</trkpt>
<trkpt lat="45.9249430" lon="10.2924350">
	<ele>558.40</ele>
	<time>2025-07-29T05:40:28.000Z</time>
</trkpt>
<trkpt lat="45.9249400" lon="10.2924410">
	<ele>558.40</ele>
	<time>2025-07-29T05:40:29.000Z</time>
</trkpt>
<trkpt lat="45.9249390" lon="10.2924420">
	<ele>558.40</ele>
	<time>2025-07-29T05:40:30.000Z</time>
</trkpt>
<trkpt lat="45.9249380" lon="10.2924400">
	<ele>558.20</ele>
	<time>2025-07-29T05:40:31.000Z</time>
</trkpt>
<trkpt lat="45.9249370" lon="10.2924410">
	<ele>558.20</ele>
	<time>2025-07-29T05:40:32.000Z</time>
</trkpt>
<trkpt lat="45.9249370" lon="10.2924420">
	<ele>558.20</ele>
	<time>2025-07-29T05:40:33.000Z</time>
</trkpt>
<trkpt lat="45.9249380" lon="10.2924460">
	<ele>558.20</ele>
	<time>2025-07-29T05:40:34.000Z</time>
</trkpt>
<trkpt lat="45.9249370" lon="10.2924500">
	<ele>558.20</ele>
	<time>2025-07-29T05:40:35.000Z</time>
</trkpt>
<trkpt lat="45.9249360" lon="10.2924500">
	<ele>558.20</ele>
	<time>2025-07-29T05:40:36.000Z</time>
</trkpt>
<trkpt lat="45.9249350" lon="10.2924480">
	<ele>558.20</ele>
	<time>2025-07-29T05:40:37.000Z</time>
</trkpt>
<trkpt lat="45.9249330" lon="10.2924510">
	<ele>558.20</ele>
	<time>2025-07-29T05:40:38.000Z</time>
</trkpt>
<trkpt lat="45.9249330" lon="10.2924380">
	<ele>558.20</ele>
	<time>2025-07-29T05:40:39.000Z</time>
</trkpt>
<trkpt lat="45.9249340" lon="10.2924330">
	<ele>558.00</ele>
	<time>2025-07-29T05:40:40.000Z</time>
</trkpt>
<trkpt lat="45.9249350" lon="10.2924350">
	<ele>558.00</ele>
	<time>2025-07-29T05:40:41.000Z</time>
</trkpt>
<trkpt lat="45.9249350" lon="10.2924380">
	<ele>558.00</ele>
	<time>2025-07-29T05:40:42.000Z</time>
</trkpt>
<trkpt lat="45.9249420" lon="10.2924280">
	<ele>558.00</ele>
	<time>2025-07-29T05:40:43.000Z</time>
</trkpt>
<trkpt lat="45.9249500" lon="10.2924160">
	<ele>558.00</ele>
	<time>2025-07-29T05:40:44.000Z</time>
</trkpt>
<trkpt lat="45.9249530" lon="10.2924130">
	<ele>558.00</ele>
	<time>2025-07-29T05:40:45.000Z</time>
</trkpt>
<trkpt lat="45.9249430" lon="10.2924180">
	<ele>558.00</ele>
	<time>2025-07-29T05:40:46.000Z</time>
</trkpt>
<trkpt lat="45.9249380" lon="10.2924190">
	<ele>558.20</ele>
	<time>2025-07-29T05:40:47.000Z</time>
</trkpt>
<trkpt lat="45.9249360" lon="10.2924210">
	<ele>558.20</ele>
	<time>2025-07-29T05:40:48.000Z</time>
</trkpt>
<trkpt lat="45.9249340" lon="10.2924260">
	<ele>558.40</ele>
	<time>2025-07-29T05:40:49.000Z</time>
</trkpt>
<trkpt lat="45.9249280" lon="10.2924370">
	<ele>558.60</ele>
	<time>2025-07-29T05:40:50.000Z</time>
</trkpt>
<trkpt lat="45.9249240" lon="10.2924490">
	<ele>558.40</ele>
	<time>2025-07-29T05:40:51.000Z</time>
</trkpt>
<trkpt lat="45.9249220" lon="10.2924620">
	<ele>558.40</ele>
	<time>2025-07-29T05:40:52.000Z</time>
</trkpt>
<trkpt lat="45.9249180" lon="10.2924710">
	<ele>558.40</ele>
	<time>2025-07-29T05:40:53.000Z</time>
</trkpt>
<trkpt lat="45.9249170" lon="10.2924770">
	<ele>558.40</ele>
	<time>2025-07-29T05:40:54.000Z</time>
</trkpt>
<trkpt lat="45.9249090" lon="10.2924870">
	<ele>558.60</ele>
	<time>2025-07-29T05:40:55.000Z</time>
</trkpt>
<trkpt lat="45.9249090" lon="10.2924920">
	<ele>558.80</ele>
	<time>2025-07-29T05:40:56.000Z</time>
</trkpt>
<trkpt lat="45.9249070" lon="10.2925030">
	<ele>558.80</ele>
	<time>2025-07-29T05:40:57.000Z</time>
</trkpt>
<trkpt lat="45.9248990" lon="10.2925120">
	<ele>559.00</ele>
	<time>2025-07-29T05:40:58.000Z</time>
</trkpt>
<trkpt lat="45.9248880" lon="10.2925180">
	<ele>559.00</ele>
	<time>2025-07-29T05:40:59.000Z</time>
</trkpt>
<trkpt lat="45.9248740" lon="10.2925150">
	<ele>559.40</ele>
	<time>2025-07-29T05:41:00.000Z</time>
</trkpt>
<trkpt lat="45.9248610" lon="10.2925130">
	<ele>559.60</ele>
	<time>2025-07-29T05:41:01.000Z</time>
</trkpt>
<trkpt lat="45.9248500" lon="10.2925300">
	<ele>559.60</ele>
	<time>2025-07-29T05:41:02.000Z</time>
</trkpt>
<trkpt lat="45.9248350" lon="10.2925510">
	<ele>560.00</ele>
	<time>2025-07-29T05:41:03.000Z</time>
</trkpt>
<trkpt lat="45.9248320" lon="10.2925660">
	<ele>560.20</ele>
	<time>2025-07-29T05:41:04.000Z</time>
</trkpt>
<trkpt lat="45.9248290" lon="10.2925850">
	<ele>560.40</ele>
	<time>2025-07-29T05:41:05.000Z</time>
</trkpt>
<trkpt lat="45.9248290" lon="10.2926060">
	<ele>560.60</ele>
	<time>2025-07-29T05:41:06.000Z</time>
</trkpt>
<trkpt lat="45.9248260" lon="10.2926210">
	<ele>560.80</ele>
	<time>2025-07-29T05:41:07.000Z</time>
</trkpt>
<trkpt lat="45.9248250" lon="10.2926390">
	<ele>561.00</ele>
	<time>2025-07-29T05:41:08.000Z</time>
</trkpt>
<trkpt lat="45.9248250" lon="10.2926550">
	<ele>561.20</ele>
	<time>2025-07-29T05:41:09.000Z</time>
</trkpt>
<trkpt lat="45.9248220" lon="10.2926690">
	<ele>561.40</ele>
	<time>2025-07-29T05:41:10.000Z</time>
</trkpt>
<trkpt lat="45.9248200" lon="10.2926880">
	<ele>561.60</ele>
	<time>2025-07-29T05:41:11.000Z</time>
</trkpt>
<trkpt lat="45.9248140" lon="10.2927060">
	<ele>561.80</ele>
	<time>2025-07-29T05:41:12.000Z</time>
</trkpt>
<trkpt lat="45.9248120" lon="10.2927140">
	<ele>561.80</ele>
	<time>2025-07-29T05:41:13.000Z</time>
</trkpt>
<trkpt lat="45.9248070" lon="10.2927240">
	<ele>562.00</ele>
	<time>2025-07-29T05:41:14.000Z</time>
</trkpt>
<trkpt lat="45.9248010" lon="10.2927360">
	<ele>562.20</ele>
	<time>2025-07-29T05:41:15.000Z</time>
</trkpt>
<trkpt lat="45.9248020" lon="10.2927480">
	<ele>562.40</ele>
	<time>2025-07-29T05:41:16.000Z</time>
</trkpt>
<trkpt lat="45.9248040" lon="10.2927630">
	<ele>562.60</ele>
	<time>2025-07-29T05:41:17.000Z</time>
</trkpt>
<trkpt lat="45.9248060" lon="10.2927740">
	<ele>562.80</ele>
	<time>2025-07-29T05:41:18.000Z</time>
</trkpt>
<trkpt lat="45.9248010" lon="10.2927850">
	<ele>563.00</ele>
	<time>2025-07-29T05:41:19.000Z</time>
</trkpt>
<trkpt lat="45.9247950" lon="10.2927950">
	<ele>563.20</ele>
	<time>2025-07-29T05:41:20.000Z</time>
</trkpt>
<trkpt lat="45.9247830" lon="10.2928050">
	<ele>563.40</ele>
	<time>2025-07-29T05:41:21.000Z</time>
</trkpt>
<trkpt lat="45.9247710" lon="10.2928100">
	<ele>563.60</ele>
	<time>2025-07-29T05:41:22.000Z</time>
</trkpt>
<trkpt lat="45.9247440" lon="10.2928050">
	<ele>563.80</ele>
	<time>2025-07-29T05:41:23.000Z</time>
</trkpt>
<trkpt lat="45.9247380" lon="10.2928100">
	<ele>564.00</ele>
	<time>2025-07-29T05:41:24.000Z</time>
</trkpt>
<trkpt lat="45.9247370" lon="10.2928120">
	<ele>564.20</ele>
	<time>2025-07-29T05:41:25.000Z</time>
</trkpt>
<trkpt lat="45.9247460" lon="10.2928260">
	<ele>564.40</ele>
	<time>2025-07-29T05:41:26.000Z</time>
</trkpt>
<trkpt lat="45.9247510" lon="10.2928500">
	<ele>564.40</ele>
	<time>2025-07-29T05:41:27.000Z</time>
</trkpt>
<trkpt lat="45.9247510" lon="10.2928710">
	<ele>564.80</ele>
	<time>2025-07-29T05:41:28.000Z</time>
</trkpt>
<trkpt lat="45.9247560" lon="10.2928850">
	<ele>565.00</ele>
	<time>2025-07-29T05:41:29.000Z</time>
</trkpt>
<trkpt lat="45.9247580" lon="10.2929010">
	<ele>565.00</ele>
	<time>2025-07-29T05:41:30.000Z</time>
</trkpt>
<trkpt lat="45.9247590" lon="10.2929190">
	<ele>565.20</ele>
	<time>2025-07-29T05:41:31.000Z</time>
</trkpt>
<trkpt lat="45.9247590" lon="10.2929210">
	<ele>565.40</ele>
	<time>2025-07-29T05:41:32.000Z</time>
</trkpt>
<trkpt lat="45.9247560" lon="10.2929200">
	<ele>565.40</ele>
	<time>2025-07-29T05:41:33.000Z</time>
</trkpt>
<trkpt lat="45.9247550" lon="10.2929190">
	<ele>565.40</ele>
	<time>2025-07-29T05:41:34.000Z</time>
</trkpt>
<trkpt lat="45.9247550" lon="10.2929180">
	<ele>565.40</ele>
	<time>2025-07-29T05:41:35.000Z</time>
</trkpt>
<trkpt lat="45.9247530" lon="10.2929190">
	<ele>565.60</ele>
	<time>2025-07-29T05:41:36.000Z</time>
</trkpt>
<trkpt lat="45.9247550" lon="10.2929220">
	<ele>565.40</ele>
	<time>2025-07-29T05:41:37.000Z</time>
</trkpt>
<trkpt lat="45.9247530" lon="10.2929240">
	<ele>565.40</ele>
	<time>2025-07-29T05:41:38.000Z</time>
</trkpt>
<trkpt lat="45.9247530" lon="10.2929410">
	<ele>565.40</ele>
	<time>2025-07-29T05:41:39.000Z</time>
</trkpt>
<trkpt lat="45.9247520" lon="10.2929480">
	<ele>565.40</ele>
	<time>2025-07-29T05:41:40.000Z</time>
</trkpt>
<trkpt lat="45.9247510" lon="10.2929460">
	<ele>565.60</ele>
	<time>2025-07-29T05:41:41.000Z</time>
</trkpt>
<trkpt lat="45.9247580" lon="10.2929650">
	<ele>565.60</ele>
	<time>2025-07-29T05:41:42.000Z</time>
</trkpt>
<trkpt lat="45.9247580" lon="10.2929700">
	<ele>565.80</ele>
	<time>2025-07-29T05:41:43.000Z</time>
</trkpt>
<trkpt lat="45.9247550" lon="10.2929720">
	<ele>566.00</ele>
	<time>2025-07-29T05:41:44.000Z</time>
</trkpt>
<trkpt lat="45.9247520" lon="10.2929840">
	<ele>566.20</ele>
	<time>2025-07-29T05:41:45.000Z</time>
</trkpt>
<trkpt lat="45.9247450" lon="10.2929940">
	<ele>566.40</ele>
	<time>2025-07-29T05:41:46.000Z</time>
</trkpt>
<trkpt lat="45.9247360" lon="10.2929910">
	<ele>566.60</ele>
	<time>2025-07-29T05:41:47.000Z</time>
</trkpt>
<trkpt lat="45.9247280" lon="10.2929810">
	<ele>566.80</ele>
	<time>2025-07-29T05:41:48.000Z</time>
</trkpt>
<trkpt lat="45.9247270" lon="10.2929830">
	<ele>567.00</ele>
	<time>2025-07-29T05:41:49.000Z</time>
</trkpt>
<trkpt lat="45.9247180" lon="10.2929810">
	<ele>567.20</ele>
	<time>2025-07-29T05:41:50.000Z</time>
</trkpt>
<trkpt lat="45.9247050" lon="10.2929770">
	<ele>567.60</ele>
	<time>2025-07-29T05:41:51.000Z</time>
</trkpt>
<trkpt lat="45.9246950" lon="10.2929730">
	<ele>567.80</ele>
	<time>2025-07-29T05:41:52.000Z</time>
</trkpt>
<trkpt lat="45.9246910" lon="10.2929690">
	<ele>568.00</ele>
	<time>2025-07-29T05:41:53.000Z</time>
</trkpt>
<trkpt lat="45.9246830" lon="10.2929700">
	<ele>568.40</ele>
	<time>2025-07-29T05:41:54.000Z</time>
</trkpt>
<trkpt lat="45.9246740" lon="10.2929650">
	<ele>568.80</ele>
	<time>2025-07-29T05:41:55.000Z</time>
</trkpt>
<trkpt lat="45.9246660" lon="10.2929600">
	<ele>569.00</ele>
	<time>2025-07-29T05:41:56.000Z</time>
</trkpt>
<trkpt lat="45.9246660" lon="10.2929550">
	<ele>569.20</ele>
	<time>2025-07-29T05:41:57.000Z</time>
</trkpt>
<trkpt lat="45.9246620" lon="10.2929500">
	<ele>569.40</ele>
	<time>2025-07-29T05:41:58.000Z</time>
</trkpt>
<trkpt lat="45.9246700" lon="10.2929460">
	<ele>569.80</ele>
	<time>2025-07-29T05:41:59.000Z</time>
</trkpt>
<trkpt lat="45.9246710" lon="10.2929430">
	<ele>570.00</ele>
	<time>2025-07-29T05:42:00.000Z</time>
</trkpt>
<trkpt lat="45.9246700" lon="10.2929400">
	<ele>570.40</ele>
	<time>2025-07-29T05:42:01.000Z</time>
</trkpt>
<trkpt lat="45.9246730" lon="10.2929360">
	<ele>570.60</ele>
	<time>2025-07-29T05:42:02.000Z</time>
</trkpt>
<trkpt lat="45.9246800" lon="10.2929290">
	<ele>570.80</ele>
	<time>2025-07-29T05:42:03.000Z</time>
</trkpt>
<trkpt lat="45.9246900" lon="10.2929260">
	<ele>571.00</ele>
	<time>2025-07-29T05:42:04.000Z</time>
</trkpt>
<trkpt lat="45.9246980" lon="10.2929210">
	<ele>571.40</ele>
	<time>2025-07-29T05:42:05.000Z</time>
</trkpt>
<trkpt lat="45.9247060" lon="10.2929140">
	<ele>571.60</ele>
	<time>2025-07-29T05:42:06.000Z</time>
</trkpt>
<trkpt lat="45.9247120" lon="10.2929060">
	<ele>571.60</ele>
	<time>2025-07-29T05:42:07.000Z</time>
</trkpt>
<trkpt lat="45.9247140" lon="10.2928960">
	<ele>571.80</ele>
	<time>2025-07-29T05:42:08.000Z</time>
</trkpt>
<trkpt lat="45.9247110" lon="10.2928860">
	<ele>571.80</ele>
	<time>2025-07-29T05:42:09.000Z</time>
</trkpt>
<trkpt lat="45.9247070" lon="10.2928710">
	<ele>572.00</ele>
	<time>2025-07-29T05:42:10.000Z</time>
</trkpt>
<trkpt lat="45.9247070" lon="10.2928530">
	<ele>572.20</ele>
	<time>2025-07-29T05:42:11.000Z</time>
</trkpt>
<trkpt lat="45.9247050" lon="10.2928390">
	<ele>572.40</ele>
	<time>2025-07-29T05:42:12.000Z</time>
</trkpt>
<trkpt lat="45.9247080" lon="10.2928230">
	<ele>572.60</ele>
	<time>2025-07-29T05:42:13.000Z</time>
</trkpt>
<trkpt lat="45.9247090" lon="10.2928110">
	<ele>572.80</ele>
	<time>2025-07-29T05:42:14.000Z</time>
</trkpt>
<trkpt lat="45.9247090" lon="10.2928000">
	<ele>573.00</ele>
	<time>2025-07-29T05:42:15.000Z</time>
</trkpt>
<trkpt lat="45.9247100" lon="10.2927880">
	<ele>573.20</ele>
	<time>2025-07-29T05:42:16.000Z</time>
</trkpt>
<trkpt lat="45.9247080" lon="10.2927710">
	<ele>573.40</ele>
	<time>2025-07-29T05:42:17.000Z</time>
</trkpt>
<trkpt lat="45.9247040" lon="10.2927530">
	<ele>573.40</ele>
	<time>2025-07-29T05:42:18.000Z</time>
</trkpt>
<trkpt lat="45.9247040" lon="10.2927320">
	<ele>573.40</ele>
	<time>2025-07-29T05:42:19.000Z</time>
</trkpt>
<trkpt lat="45.9247050" lon="10.2927110">
	<ele>573.60</ele>
	<time>2025-07-29T05:42:20.000Z</time>
</trkpt>
<trkpt lat="45.9247010" lon="10.2926940">
	<ele>573.80</ele>
	<time>2025-07-29T05:42:21.000Z</time>
</trkpt>
<trkpt lat="45.9246890" lon="10.2926790">
	<ele>574.00</ele>
	<time>2025-07-29T05:42:22.000Z</time>
</trkpt>
<trkpt lat="45.9246810" lon="10.2926690">
	<ele>574.20</ele>
	<time>2025-07-29T05:42:23.000Z</time>
</trkpt>
<trkpt lat="45.9246760" lon="10.2926590">
	<ele>574.20</ele>
	<time>2025-07-29T05:42:24.000Z</time>
</trkpt>
<trkpt lat="45.9246790" lon="10.2926440">
	<ele>574.40</ele>
	<time>2025-07-29T05:42:25.000Z</time>
</trkpt>
<trkpt lat="45.9246840" lon="10.2926320">
	<ele>574.60</ele>
	<time>2025-07-29T05:42:26.000Z</time>
</trkpt>
<trkpt lat="45.9246910" lon="10.2926210">
	<ele>574.60</ele>
	<time>2025-07-29T05:42:27.000Z</time>
</trkpt>
<trkpt lat="45.9246960" lon="10.2926040">
	<ele>574.60</ele>
	<time>2025-07-29T05:42:28.000Z</time>
</trkpt>
<trkpt lat="45.9246940" lon="10.2925860">
	<ele>574.80</ele>
	<time>2025-07-29T05:42:29.000Z</time>
</trkpt>
<trkpt lat="45.9246910" lon="10.2925690">
	<ele>575.00</ele>
	<time>2025-07-29T05:42:30.000Z</time>
</trkpt>
<trkpt lat="45.9246920" lon="10.2925510">
	<ele>575.00</ele>
	<time>2025-07-29T05:42:31.000Z</time>
</trkpt>
<trkpt lat="45.9246850" lon="10.2925330">
	<ele>575.20</ele>
	<time>2025-07-29T05:42:32.000Z</time>
</trkpt>
<trkpt lat="45.9246800" lon="10.2925190">
	<ele>575.40</ele>
	<time>2025-07-29T05:42:33.000Z</time>
</trkpt>
<trkpt lat="45.9246770" lon="10.2925100">
	<ele>575.40</ele>
	<time>2025-07-29T05:42:34.000Z</time>
</trkpt>
<trkpt lat="45.9246710" lon="10.2925000">
	<ele>575.60</ele>
	<time>2025-07-29T05:42:35.000Z</time>
</trkpt>
<trkpt lat="45.9246670" lon="10.2924890">
	<ele>575.80</ele>
	<time>2025-07-29T05:42:36.000Z</time>
</trkpt>
<trkpt lat="45.9246670" lon="10.2924690">
	<ele>576.00</ele>
	<time>2025-07-29T05:42:37.000Z</time>
</trkpt>
<trkpt lat="45.9246630" lon="10.2924500">
	<ele>576.20</ele>
	<time>2025-07-29T05:42:38.000Z</time>
</trkpt>
<trkpt lat="45.9246650" lon="10.2924280">
	<ele>576.20</ele>
	<time>2025-07-29T05:42:39.000Z</time>
</trkpt>
<trkpt lat="45.9246640" lon="10.2924150">
	<ele>576.40</ele>
	<time>2025-07-29T05:42:40.000Z</time>
</trkpt>
<trkpt lat="45.9246630" lon="10.2924020">
	<ele>576.60</ele>
	<time>2025-07-29T05:42:41.000Z</time>
</trkpt>
<trkpt lat="45.9246590" lon="10.2923920">
	<ele>576.80</ele>
	<time>2025-07-29T05:42:42.000Z</time>
</trkpt>
<trkpt lat="45.9246530" lon="10.2923810">
	<ele>577.00</ele>
	<time>2025-07-29T05:42:43.000Z</time>
</trkpt>
<trkpt lat="45.9246460" lon="10.2923670">
	<ele>577.20</ele>
	<time>2025-07-29T05:42:44.000Z</time>
</trkpt>
<trkpt lat="45.9246250" lon="10.2923490">
	<ele>577.20</ele>
	<time>2025-07-29T05:42:45.000Z</time>
</trkpt>
<trkpt lat="45.9246180" lon="10.2923330">
	<ele>577.40</ele>
	<time>2025-07-29T05:42:46.000Z</time>
</trkpt>
<trkpt lat="45.9246150" lon="10.2923220">
	<ele>577.80</ele>
	<time>2025-07-29T05:42:47.000Z</time>
</trkpt>
<trkpt lat="45.9246110" lon="10.2923110">
	<ele>578.00</ele>
	<time>2025-07-29T05:42:48.000Z</time>
</trkpt>
<trkpt lat="45.9246080" lon="10.2923020">
	<ele>578.20</ele>
	<time>2025-07-29T05:42:49.000Z</time>
</trkpt>
<trkpt lat="45.9246040" lon="10.2922900">
	<ele>578.20</ele>
	<time>2025-07-29T05:42:50.000Z</time>
</trkpt>
<trkpt lat="45.9245980" lon="10.2922760">
	<ele>578.60</ele>
	<time>2025-07-29T05:42:51.000Z</time>
</trkpt>
<trkpt lat="45.9245920" lon="10.2922630">
	<ele>578.80</ele>
	<time>2025-07-29T05:42:52.000Z</time>
</trkpt>
<trkpt lat="45.9245760" lon="10.2922480">
	<ele>579.00</ele>
	<time>2025-07-29T05:42:53.000Z</time>
</trkpt>
<trkpt lat="45.9245590" lon="10.2922320">
	<ele>579.00</ele>
	<time>2025-07-29T05:42:54.000Z</time>
</trkpt>
<trkpt lat="45.9245430" lon="10.2922080">
	<ele>579.20</ele>
	<time>2025-07-29T05:42:55.000Z</time>
</trkpt>
<trkpt lat="45.9245380" lon="10.2921900">
	<ele>579.40</ele>
	<time>2025-07-29T05:42:56.000Z</time>
</trkpt>
<trkpt lat="45.9245280" lon="10.2921780">
	<ele>579.60</ele>
	<time>2025-07-29T05:42:57.000Z</time>
</trkpt>
<trkpt lat="45.9245180" lon="10.2921680">
	<ele>579.80</ele>
	<time>2025-07-29T05:42:58.000Z</time>
</trkpt>
<trkpt lat="45.9245080" lon="10.2921640">
	<ele>580.00</ele>
	<time>2025-07-29T05:42:59.000Z</time>
</trkpt>
<trkpt lat="45.9244920" lon="10.2921540">
	<ele>580.00</ele>
	<time>2025-07-29T05:43:00.000Z</time>
</trkpt>
<trkpt lat="45.9244780" lon="10.2921370">
	<ele>580.20</ele>
	<time>2025-07-29T05:43:01.000Z</time>
</trkpt>
<trkpt lat="45.9244730" lon="10.2921320">
	<ele>580.20</ele>
	<time>2025-07-29T05:43:02.000Z</time>
</trkpt>
<trkpt lat="45.9244570" lon="10.2921080">
	<ele>580.40</ele>
	<time>2025-07-29T05:43:03.000Z</time>
</trkpt>
<trkpt lat="45.9244490" lon="10.2920950">
	<ele>580.40</ele>
	<time>2025-07-29T05:43:04.000Z</time>
</trkpt>
<trkpt lat="45.9244430" lon="10.2920800">
	<ele>580.40</ele>
	<time>2025-07-29T05:43:05.000Z</time>
</trkpt>
<trkpt lat="45.9244400" lon="10.2920730">
	<ele>580.60</ele>
	<time>2025-07-29T05:43:06.000Z</time>
</trkpt>
<trkpt lat="45.9244390" lon="10.2920680">
	<ele>580.60</ele>
	<time>2025-07-29T05:43:07.000Z</time>
</trkpt>
<trkpt lat="45.9244250" lon="10.2920470">
	<ele>580.80</ele>
	<time>2025-07-29T05:43:08.000Z</time>
</trkpt>
<trkpt lat="45.9244240" lon="10.2920420">
	<ele>580.80</ele>
	<time>2025-07-29T05:43:09.000Z</time>
</trkpt>
<trkpt lat="45.9244230" lon="10.2920410">
	<ele>580.80</ele>
	<time>2025-07-29T05:43:10.000Z</time>
</trkpt>
<trkpt lat="45.9244220" lon="10.2920410">
	<ele>581.00</ele>
	<time>2025-07-29T05:43:11.000Z</time>
</trkpt>
<trkpt lat="45.9244490" lon="10.2920560">
	<ele>581.00</ele>
	<time>2025-07-29T05:43:12.000Z</time>
</trkpt>
<trkpt lat="45.9244770" lon="10.2920720">
	<ele>581.00</ele>
	<time>2025-07-29T05:43:13.000Z</time>
</trkpt>
<trkpt lat="45.9244610" lon="10.2920670">
	<ele>581.00</ele>
	<time>2025-07-29T05:43:14.000Z</time>
</trkpt>
<trkpt lat="45.9244440" lon="10.2920500">
	<ele>581.00</ele>
	<time>2025-07-29T05:43:15.000Z</time>
</trkpt>
<trkpt lat="45.9244350" lon="10.2920340">
	<ele>581.00</ele>
	<time>2025-07-29T05:43:16.000Z</time>
</trkpt>
<trkpt lat="45.9244250" lon="10.2920190">
	<ele>581.00</ele>
	<time>2025-07-29T05:43:17.000Z</time>
</trkpt>
<trkpt lat="45.9244210" lon="10.2920120">
	<ele>581.00</ele>
	<time>2025-07-29T05:43:18.000Z</time>
</trkpt>
<trkpt lat="45.9244170" lon="10.2920070">
	<ele>581.00</ele>
	<time>2025-07-29T05:43:19.000Z</time>
</trkpt>
<trkpt lat="45.9244110" lon="10.2920030">
	<ele>581.20</ele>
	<time>2025-07-29T05:43:20.000Z</time>
</trkpt>
<trkpt lat="45.9244010" lon="10.2919960">
	<ele>581.20</ele>
	<time>2025-07-29T05:43:21.000Z</time>
</trkpt>
<trkpt lat="45.9243960" lon="10.2919920">
	<ele>581.20</ele>
	<time>2025-07-29T05:43:22.000Z</time>
</trkpt>
<trkpt lat="45.9243930" lon="10.2919930">
	<ele>581.20</ele>
	<time>2025-07-29T05:43:23.000Z</time>
</trkpt>
<trkpt lat="45.9243890" lon="10.2919960">
	<ele>581.20</ele>
	<time>2025-07-29T05:43:24.000Z</time>
</trkpt>
<trkpt lat="45.9243670" lon="10.2920120">
	<ele>581.40</ele>
	<time>2025-07-29T05:43:25.000Z</time>
</trkpt>
<trkpt lat="45.9243540" lon="10.2920400">
	<ele>581.60</ele>
	<time>2025-07-29T05:43:26.000Z</time>
</trkpt>
<trkpt lat="45.9243460" lon="10.2920600">
	<ele>581.80</ele>
	<time>2025-07-29T05:43:27.000Z</time>
</trkpt>
<trkpt lat="45.9243420" lon="10.2920720">
	<ele>582.00</ele>
	<time>2025-07-29T05:43:28.000Z</time>
</trkpt>
<trkpt lat="45.9243320" lon="10.2920820">
	<ele>582.20</ele>
	<time>2025-07-29T05:43:29.000Z</time>
</trkpt>
<trkpt lat="45.9243210" lon="10.2920920">
	<ele>582.20</ele>
	<time>2025-07-29T05:43:30.000Z</time>
</trkpt>
<trkpt lat="45.9243070" lon="10.2920950">
	<ele>582.20</ele>
	<time>2025-07-29T05:43:31.000Z</time>
</trkpt>
<trkpt lat="45.9242930" lon="10.2921030">
	<ele>582.40</ele>
	<time>2025-07-29T05:43:32.000Z</time>
</trkpt>
<trkpt lat="45.9242770" lon="10.2921090">
	<ele>582.40</ele>
	<time>2025-07-29T05:43:33.000Z</time>
</trkpt>
<trkpt lat="45.9242650" lon="10.2921130">
	<ele>582.60</ele>
	<time>2025-07-29T05:43:34.000Z</time>
</trkpt>
<trkpt lat="45.9242540" lon="10.2921200">
	<ele>582.80</ele>
	<time>2025-07-29T05:43:35.000Z</time>
</trkpt>
<trkpt lat="45.9242390" lon="10.2921290">
	<ele>582.80</ele>
	<time>2025-07-29T05:43:36.000Z</time>
</trkpt>
<trkpt lat="45.9242310" lon="10.2921350">
	<ele>582.80</ele>
	<time>2025-07-29T05:43:37.000Z</time>
</trkpt>
<trkpt lat="45.9242200" lon="10.2921420">
	<ele>582.80</ele>
	<time>2025-07-29T05:43:38.000Z</time>
</trkpt>
<trkpt lat="45.9242070" lon="10.2921460">
	<ele>583.00</ele>
	<time>2025-07-29T05:43:39.000Z</time>
</trkpt>
<trkpt lat="45.9241940" lon="10.2921480">
	<ele>583.20</ele>
	<time>2025-07-29T05:43:40.000Z</time>
</trkpt>
<trkpt lat="45.9241790" lon="10.2921500">
	<ele>583.20</ele>
	<time>2025-07-29T05:43:41.000Z</time>
</trkpt>
<trkpt lat="45.9241680" lon="10.2921590">
	<ele>583.60</ele>
	<time>2025-07-29T05:43:42.000Z</time>
</trkpt>
<trkpt lat="45.9241640" lon="10.2921660">
	<ele>583.80</ele>
	<time>2025-07-29T05:43:43.000Z</time>
</trkpt>
<trkpt lat="45.9241590" lon="10.2921710">
	<ele>583.80</ele>
	<time>2025-07-29T05:43:44.000Z</time>
</trkpt>
<trkpt lat="45.9241520" lon="10.2921820">
	<ele>584.00</ele>
	<time>2025-07-29T05:43:45.000Z</time>
</trkpt>
<trkpt lat="45.9241390" lon="10.2921920">
	<ele>584.00</ele>
	<time>2025-07-29T05:43:46.000Z</time>
</trkpt>
<trkpt lat="45.9241290" lon="10.2922020">
	<ele>584.20</ele>
	<time>2025-07-29T05:43:47.000Z</time>
</trkpt>
<trkpt lat="45.9241140" lon="10.2922120">
	<ele>584.40</ele>
	<time>2025-07-29T05:43:48.000Z</time>
</trkpt>
<trkpt lat="45.9241020" lon="10.2922210">
	<ele>584.60</ele>
	<time>2025-07-29T05:43:49.000Z</time>
</trkpt>
<trkpt lat="45.9240910" lon="10.2922310">
	<ele>584.80</ele>
	<time>2025-07-29T05:43:50.000Z</time>
</trkpt>
<trkpt lat="45.9240850" lon="10.2922380">
	<ele>584.80</ele>
	<time>2025-07-29T05:43:51.000Z</time>
</trkpt>
<trkpt lat="45.9240710" lon="10.2922400">
	<ele>585.00</ele>
	<time>2025-07-29T05:43:52.000Z</time>
</trkpt>
<trkpt lat="45.9240620" lon="10.2922510">
	<ele>585.20</ele>
	<time>2025-07-29T05:43:53.000Z</time>
</trkpt>
<trkpt lat="45.9240550" lon="10.2922650">
	<ele>585.40</ele>
	<time>2025-07-29T05:43:54.000Z</time>
</trkpt>
<trkpt lat="45.9240420" lon="10.2922700">
	<ele>585.60</ele>
	<time>2025-07-29T05:43:55.000Z</time>
</trkpt>
<trkpt lat="45.9240280" lon="10.2922740">
	<ele>585.60</ele>
	<time>2025-07-29T05:43:56.000Z</time>
</trkpt>
<trkpt lat="45.9240160" lon="10.2922770">
	<ele>585.80</ele>
	<time>2025-07-29T05:43:57.000Z</time>
</trkpt>
<trkpt lat="45.9240080" lon="10.2922830">
	<ele>585.80</ele>
	<time>2025-07-29T05:43:58.000Z</time>
</trkpt>
<trkpt lat="45.9240060" lon="10.2922880">
	<ele>585.80</ele>
	<time>2025-07-29T05:43:59.000Z</time>
</trkpt>
<trkpt lat="45.9240020" lon="10.2922920">
	<ele>586.00</ele>
	<time>2025-07-29T05:44:00.000Z</time>
</trkpt>
<trkpt lat="45.9239960" lon="10.2922950">
	<ele>586.20</ele>
	<time>2025-07-29T05:44:01.000Z</time>
</trkpt>
<trkpt lat="45.9239830" lon="10.2923030">
	<ele>586.40</ele>
	<time>2025-07-29T05:44:02.000Z</time>
</trkpt>
<trkpt lat="45.9239720" lon="10.2923090">
	<ele>586.80</ele>
	<time>2025-07-29T05:44:03.000Z</time>
</trkpt>
<trkpt lat="45.9239580" lon="10.2923100">
	<ele>586.80</ele>
	<time>2025-07-29T05:44:04.000Z</time>
</trkpt>
<trkpt lat="45.9239450" lon="10.2923200">
	<ele>587.00</ele>
	<time>2025-07-29T05:44:05.000Z</time>
</trkpt>
<trkpt lat="45.9239390" lon="10.2923310">
	<ele>587.20</ele>
	<time>2025-07-29T05:44:06.000Z</time>
</trkpt>
<trkpt lat="45.9239330" lon="10.2923420">
	<ele>587.20</ele>
	<time>2025-07-29T05:44:07.000Z</time>
</trkpt>
<trkpt lat="45.9239350" lon="10.2923460">
	<ele>587.40</ele>
	<time>2025-07-29T05:44:08.000Z</time>
</trkpt>
<trkpt lat="45.9239380" lon="10.2923560">
	<ele>587.60</ele>
	<time>2025-07-29T05:44:09.000Z</time>
</trkpt>
<trkpt lat="45.9239370" lon="10.2923620">
	<ele>587.80</ele>
	<time>2025-07-29T05:44:10.000Z</time>
</trkpt>
<trkpt lat="45.9239310" lon="10.2923670">
	<ele>588.00</ele>
	<time>2025-07-29T05:44:11.000Z</time>
</trkpt>
<trkpt lat="45.9239310" lon="10.2923800">
	<ele>588.20</ele>
	<time>2025-07-29T05:44:12.000Z</time>
</trkpt>
<trkpt lat="45.9239260" lon="10.2923970">
	<ele>588.60</ele>
	<time>2025-07-29T05:44:13.000Z</time>
</trkpt>
<trkpt lat="45.9239180" lon="10.2924070">
	<ele>588.60</ele>
	<time>2025-07-29T05:44:14.000Z</time>
</trkpt>
<trkpt lat="45.9239100" lon="10.2924120">
	<ele>588.80</ele>
	<time>2025-07-29T05:44:15.000Z</time>
</trkpt>
<trkpt lat="45.9239030" lon="10.2924270">
	<ele>589.00</ele>
	<time>2025-07-29T05:44:16.000Z</time>
</trkpt>
<trkpt lat="45.9238990" lon="10.2924490">
	<ele>589.20</ele>
	<time>2025-07-29T05:44:17.000Z</time>
</trkpt>
<trkpt lat="45.9238980" lon="10.2924710">
	<ele>589.20</ele>
	<time>2025-07-29T05:44:18.000Z</time>
</trkpt>
<trkpt lat="45.9238990" lon="10.2924910">
	<ele>589.60</ele>
	<time>2025-07-29T05:44:19.000Z</time>
</trkpt>
<trkpt lat="45.9238980" lon="10.2925120">
	<ele>589.80</ele>
	<time>2025-07-29T05:44:20.000Z</time>
</trkpt>
<trkpt lat="45.9238970" lon="10.2925260">
	<ele>590.00</ele>
	<time>2025-07-29T05:44:21.000Z</time>
</trkpt>
<trkpt lat="45.9238970" lon="10.2925440">
	<ele>590.40</ele>
	<time>2025-07-29T05:44:22.000Z</time>
</trkpt>
<trkpt lat="45.9238950" lon="10.2925570">
	<ele>590.60</ele>
	<time>2025-07-29T05:44:23.000Z</time>
</trkpt>
<trkpt lat="45.9238910" lon="10.2925680">
	<ele>590.60</ele>
	<time>2025-07-29T05:44:24.000Z</time>
</trkpt>
<trkpt lat="45.9238880" lon="10.2925840">
	<ele>590.80</ele>
	<time>2025-07-29T05:44:25.000Z</time>
</trkpt>
<trkpt lat="45.9238860" lon="10.2926030">
	<ele>591.20</ele>
	<time>2025-07-29T05:44:26.000Z</time>
</trkpt>
<trkpt lat="45.9238870" lon="10.2926230">
	<ele>591.40</ele>
	<time>2025-07-29T05:44:27.000Z</time>
</trkpt>
<trkpt lat="45.9238860" lon="10.2926360">
	<ele>591.40</ele>
	<time>2025-07-29T05:44:28.000Z</time>
</trkpt>
<trkpt lat="45.9238810" lon="10.2926480">
	<ele>591.60</ele>
	<time>2025-07-29T05:44:29.000Z</time>
</trkpt>
<trkpt lat="45.9238730" lon="10.2926580">
	<ele>591.80</ele>
	<time>2025-07-29T05:44:30.000Z</time>
</trkpt>
<trkpt lat="45.9238660" lon="10.2926680">
	<ele>592.20</ele>
	<time>2025-07-29T05:44:31.000Z</time>
</trkpt>
<trkpt lat="45.9238630" lon="10.2926840">
	<ele>592.40</ele>
	<time>2025-07-29T05:44:32.000Z</time>
</trkpt>
<trkpt lat="45.9238640" lon="10.2926940">
	<ele>592.60</ele>
	<time>2025-07-29T05:44:33.000Z</time>
</trkpt>
<trkpt lat="45.9238640" lon="10.2927080">
	<ele>592.60</ele>
	<time>2025-07-29T05:44:34.000Z</time>
</trkpt>
<trkpt lat="45.9238600" lon="10.2927190">
	<ele>592.80</ele>
	<time>2025-07-29T05:44:35.000Z</time>
</trkpt>
<trkpt lat="45.9238560" lon="10.2927290">
	<ele>593.00</ele>
	<time>2025-07-29T05:44:36.000Z</time>
</trkpt>
<trkpt lat="45.9238510" lon="10.2927410">
	<ele>593.20</ele>
	<time>2025-07-29T05:44:37.000Z</time>
</trkpt>
<trkpt lat="45.9238470" lon="10.2927540">
	<ele>593.60</ele>
	<time>2025-07-29T05:44:38.000Z</time>
</trkpt>
<trkpt lat="45.9238360" lon="10.2927500">
	<ele>593.80</ele>
	<time>2025-07-29T05:44:39.000Z</time>
</trkpt>
<trkpt lat="45.9238290" lon="10.2927580">
	<ele>594.00</ele>
	<time>2025-07-29T05:44:40.000Z</time>
</trkpt>
<trkpt lat="45.9238270" lon="10.2927770">
	<ele>594.20</ele>
	<time>2025-07-29T05:44:41.000Z</time>
</trkpt>
<trkpt lat="45.9238240" lon="10.2927900">
	<ele>594.40</ele>
	<time>2025-07-29T05:44:42.000Z</time>
</trkpt>
<trkpt lat="45.9238220" lon="10.2928000">
	<ele>594.60</ele>
	<time>2025-07-29T05:44:43.000Z</time>
</trkpt>
<trkpt lat="45.9238180" lon="10.2928130">
	<ele>594.60</ele>
	<time>2025-07-29T05:44:44.000Z</time>
</trkpt>
<trkpt lat="45.9238130" lon="10.2928240">
	<ele>595.00</ele>
	<time>2025-07-29T05:44:45.000Z</time>
</trkpt>
<trkpt lat="45.9238100" lon="10.2928280">
	<ele>595.20</ele>
	<time>2025-07-29T05:44:46.000Z</time>
</trkpt>
<trkpt lat="45.9238010" lon="10.2928310">
	<ele>595.40</ele>
	<time>2025-07-29T05:44:47.000Z</time>
</trkpt>
<trkpt lat="45.9237970" lon="10.2928340">
	<ele>595.60</ele>
	<time>2025-07-29T05:44:48.000Z</time>
</trkpt>
<trkpt lat="45.9237900" lon="10.2928320">
	<ele>595.80</ele>
	<time>2025-07-29T05:44:49.000Z</time>
</trkpt>
<trkpt lat="45.9237810" lon="10.2928260">
	<ele>596.00</ele>
	<time>2025-07-29T05:44:50.000Z</time>
</trkpt>
<trkpt lat="45.9237700" lon="10.2928190">
	<ele>596.40</ele>
	<time>2025-07-29T05:44:51.000Z</time>
</trkpt>
<trkpt lat="45.9237610" lon="10.2928160">
	<ele>596.60</ele>
	<time>2025-07-29T05:44:52.000Z</time>
</trkpt>
<trkpt lat="45.9237520" lon="10.2928150">
	<ele>596.60</ele>
	<time>2025-07-29T05:44:53.000Z</time>
</trkpt>
<trkpt lat="45.9237420" lon="10.2928200">
	<ele>597.00</ele>
	<time>2025-07-29T05:44:54.000Z</time>
</trkpt>
<trkpt lat="45.9237390" lon="10.2928300">
	<ele>597.20</ele>
	<time>2025-07-29T05:44:55.000Z</time>
</trkpt>
<trkpt lat="45.9237340" lon="10.2928430">
	<ele>597.40</ele>
	<time>2025-07-29T05:44:56.000Z</time>
</trkpt>
<trkpt lat="45.9237300" lon="10.2928570">
	<ele>597.80</ele>
	<time>2025-07-29T05:44:57.000Z</time>
</trkpt>
<trkpt lat="45.9237290" lon="10.2928810">
	<ele>598.00</ele>
	<time>2025-07-29T05:44:58.000Z</time>
</trkpt>
<trkpt lat="45.9237330" lon="10.2929070">
	<ele>598.00</ele>
	<time>2025-07-29T05:44:59.000Z</time>
</trkpt>
<trkpt lat="45.9237350" lon="10.2929230">
	<ele>598.20</ele>
	<time>2025-07-29T05:45:00.000Z</time>
</trkpt>
<trkpt lat="45.9237330" lon="10.2929410">
	<ele>598.40</ele>
	<time>2025-07-29T05:45:01.000Z</time>
</trkpt>
<trkpt lat="45.9237280" lon="10.2929510">
	<ele>598.60</ele>
	<time>2025-07-29T05:45:02.000Z</time>
</trkpt>
<trkpt lat="45.9237220" lon="10.2929620">
	<ele>598.80</ele>
	<time>2025-07-29T05:45:03.000Z</time>
</trkpt>
<trkpt lat="45.9237130" lon="10.2929680">
	<ele>599.20</ele>
	<time>2025-07-29T05:45:04.000Z</time>
</trkpt>
<trkpt lat="45.9237060" lon="10.2929800">
	<ele>599.40</ele>
	<time>2025-07-29T05:45:05.000Z</time>
</trkpt>
<trkpt lat="45.9237040" lon="10.2929920">
	<ele>599.40</ele>
	<time>2025-07-29T05:45:06.000Z</time>
</trkpt>
<trkpt lat="45.9237000" lon="10.2930010">
	<ele>599.60</ele>
	<time>2025-07-29T05:45:07.000Z</time>
</trkpt>
<trkpt lat="45.9236950" lon="10.2930070">
	<ele>599.80</ele>
	<time>2025-07-29T05:45:08.000Z</time>
</trkpt>
<trkpt lat="45.9236880" lon="10.2930230">
	<ele>600.00</ele>
	<time>2025-07-29T05:45:09.000Z</time>
</trkpt>
<trkpt lat="45.9236830" lon="10.2930340">
	<ele>600.00</ele>
	<time>2025-07-29T05:45:10.000Z</time>
</trkpt>
<trkpt lat="45.9236830" lon="10.2930520">
	<ele>600.20</ele>
	<time>2025-07-29T05:45:11.000Z</time>
</trkpt>
<trkpt lat="45.9236840" lon="10.2930640">
	<ele>600.40</ele>
	<time>2025-07-29T05:45:12.000Z</time>
</trkpt>
<trkpt lat="45.9236750" lon="10.2930820">
	<ele>600.80</ele>
	<time>2025-07-29T05:45:13.000Z</time>
</trkpt>
<trkpt lat="45.9236680" lon="10.2931050">
	<ele>601.00</ele>
	<time>2025-07-29T05:45:14.000Z</time>
</trkpt>
<trkpt lat="45.9236690" lon="10.2931160">
	<ele>601.00</ele>
	<time>2025-07-29T05:45:15.000Z</time>
</trkpt>
<trkpt lat="45.9236600" lon="10.2931220">
	<ele>601.20</ele>
	<time>2025-07-29T05:45:16.000Z</time>
</trkpt>
<trkpt lat="45.9236520" lon="10.2931330">
	<ele>601.40</ele>
	<time>2025-07-29T05:45:17.000Z</time>
</trkpt>
<trkpt lat="45.9236480" lon="10.2931460">
	<ele>601.60</ele>
	<time>2025-07-29T05:45:18.000Z</time>
</trkpt>
<trkpt lat="45.9236420" lon="10.2931490">
	<ele>601.80</ele>
	<time>2025-07-29T05:45:19.000Z</time>
</trkpt>
<trkpt lat="45.9236370" lon="10.2931550">
	<ele>602.00</ele>
	<time>2025-07-29T05:45:20.000Z</time>
</trkpt>
<trkpt lat="45.9236340" lon="10.2931670">
	<ele>602.20</ele>
	<time>2025-07-29T05:45:21.000Z</time>
</trkpt>
<trkpt lat="45.9236270" lon="10.2931770">
	<ele>602.40</ele>
	<time>2025-07-29T05:45:22.000Z</time>
</trkpt>
<trkpt lat="45.9236210" lon="10.2931880">
	<ele>602.60</ele>
	<time>2025-07-29T05:45:23.000Z</time>
</trkpt>
<trkpt lat="45.9236180" lon="10.2932050">
	<ele>602.60</ele>
	<time>2025-07-29T05:45:24.000Z</time>
</trkpt>
<trkpt lat="45.9236150" lon="10.2932180">
	<ele>603.00</ele>
	<time>2025-07-29T05:45:25.000Z</time>
</trkpt>
<trkpt lat="45.9236100" lon="10.2932230">
	<ele>603.00</ele>
	<time>2025-07-29T05:45:26.000Z</time>
</trkpt>
<trkpt lat="45.9236020" lon="10.2932230">
	<ele>603.40</ele>
	<time>2025-07-29T05:45:27.000Z</time>
</trkpt>
<trkpt lat="45.9235930" lon="10.2932320">
	<ele>603.60</ele>
	<time>2025-07-29T05:45:28.000Z</time>
</trkpt>
<trkpt lat="45.9235890" lon="10.2932610">
	<ele>603.80</ele>
	<time>2025-07-29T05:45:29.000Z</time>
</trkpt>
<trkpt lat="45.9235890" lon="10.2932840">
	<ele>604.00</ele>
	<time>2025-07-29T05:45:30.000Z</time>
</trkpt>
<trkpt lat="45.9235870" lon="10.2932920">
	<ele>604.40</ele>
	<time>2025-07-29T05:45:31.000Z</time>
</trkpt>
<trkpt lat="45.9235860" lon="10.2933020">
	<ele>604.60</ele>
	<time>2025-07-29T05:45:32.000Z</time>
</trkpt>
<trkpt lat="45.9235830" lon="10.2933060">
	<ele>604.80</ele>
	<time>2025-07-29T05:45:33.000Z</time>
</trkpt>
<trkpt lat="45.9235840" lon="10.2933140">
	<ele>605.00</ele>
	<time>2025-07-29T05:45:34.000Z</time>
</trkpt>
<trkpt lat="45.9235770" lon="10.2933240">
	<ele>605.20</ele>
	<time>2025-07-29T05:45:35.000Z</time>
</trkpt>
<trkpt lat="45.9235730" lon="10.2933360">
	<ele>605.40</ele>
	<time>2025-07-29T05:45:36.000Z</time>
</trkpt>
<trkpt lat="45.9235690" lon="10.2933420">
	<ele>605.40</ele>
	<time>2025-07-29T05:45:37.000Z</time>
</trkpt>
<trkpt lat="45.9235630" lon="10.2933510">
	<ele>605.60</ele>
	<time>2025-07-29T05:45:38.000Z</time>
</trkpt>
<trkpt lat="45.9235580" lon="10.2933560">
	<ele>605.80</ele>
	<time>2025-07-29T05:45:39.000Z</time>
</trkpt>
<trkpt lat="45.9235560" lon="10.2933830">
	<ele>606.00</ele>
	<time>2025-07-29T05:45:40.000Z</time>
</trkpt>
<trkpt lat="45.9235500" lon="10.2934190">
	<ele>606.40</ele>
	<time>2025-07-29T05:45:41.000Z</time>
</trkpt>
<trkpt lat="45.9235490" lon="10.2934540">
	<ele>606.60</ele>
	<time>2025-07-29T05:45:42.000Z</time>
</trkpt>
<trkpt lat="45.9235490" lon="10.2934790">
	<ele>606.60</ele>
	<time>2025-07-29T05:45:43.000Z</time>
</trkpt>
<trkpt lat="45.9235550" lon="10.2935020">
	<ele>606.80</ele>
	<time>2025-07-29T05:45:44.000Z</time>
</trkpt>
<trkpt lat="45.9235540" lon="10.2935120">
	<ele>607.00</ele>
	<time>2025-07-29T05:45:45.000Z</time>
</trkpt>
<trkpt lat="45.9235430" lon="10.2935220">
	<ele>607.20</ele>
	<time>2025-07-29T05:45:46.000Z</time>
</trkpt>
<trkpt lat="45.9235420" lon="10.2935250">
	<ele>607.40</ele>
	<time>2025-07-29T05:45:47.000Z</time>
</trkpt>
<trkpt lat="45.9235420" lon="10.2935260">
	<ele>607.40</ele>
	<time>2025-07-29T05:45:48.000Z</time>
</trkpt>
<trkpt lat="45.9235430" lon="10.2935250">
	<ele>607.60</ele>
	<time>2025-07-29T05:45:49.000Z</time>
</trkpt>
<trkpt lat="45.9235390" lon="10.2935380">
	<ele>607.60</ele>
	<time>2025-07-29T05:45:50.000Z</time>
</trkpt>
<trkpt lat="45.9235420" lon="10.2935380">
	<ele>607.80</ele>
	<time>2025-07-29T05:45:51.000Z</time>
</trkpt>
<trkpt lat="45.9235510" lon="10.2935480">
	<ele>608.00</ele>
	<time>2025-07-29T05:45:52.000Z</time>
</trkpt>
<trkpt lat="45.9235500" lon="10.2935540">
	<ele>608.00</ele>
	<time>2025-07-29T05:45:53.000Z</time>
</trkpt>
<trkpt lat="45.9235500" lon="10.2935620">
	<ele>608.00</ele>
	<time>2025-07-29T05:45:54.000Z</time>
</trkpt>
<trkpt lat="45.9235430" lon="10.2935680">
	<ele>608.00</ele>
	<time>2025-07-29T05:45:55.000Z</time>
</trkpt>
<trkpt lat="45.9235440" lon="10.2935810">
	<ele>608.20</ele>
	<time>2025-07-29T05:45:56.000Z</time>
</trkpt>
<trkpt lat="45.9235480" lon="10.2935920">
	<ele>608.20</ele>
	<time>2025-07-29T05:45:57.000Z</time>
</trkpt>
<trkpt lat="45.9235450" lon="10.2936090">
	<ele>608.60</ele>
	<time>2025-07-29T05:45:58.000Z</time>
</trkpt>
<trkpt lat="45.9235450" lon="10.2936230">
	<ele>608.80</ele>
	<time>2025-07-29T05:45:59.000Z</time>
</trkpt>
<trkpt lat="45.9235470" lon="10.2936370">
	<ele>609.00</ele>
	<time>2025-07-29T05:46:00.000Z</time>
</trkpt>
<trkpt lat="45.9235480" lon="10.2936500">
	<ele>609.40</ele>
	<time>2025-07-29T05:46:01.000Z</time>
</trkpt>
<trkpt lat="45.9235500" lon="10.2936650">
	<ele>609.60</ele>
	<time>2025-07-29T05:46:02.000Z</time>
</trkpt>
<trkpt lat="45.9235540" lon="10.2936770">
	<ele>609.80</ele>
	<time>2025-07-29T05:46:03.000Z</time>
</trkpt>
<trkpt lat="45.9235540" lon="10.2936890">
	<ele>610.00</ele>
	<time>2025-07-29T05:46:04.000Z</time>
</trkpt>
<trkpt lat="45.9235520" lon="10.2937090">
	<ele>610.00</ele>
	<time>2025-07-29T05:46:05.000Z</time>
</trkpt>
<trkpt lat="45.9235470" lon="10.2937190">
	<ele>610.20</ele>
	<time>2025-07-29T05:46:06.000Z</time>
</trkpt>
<trkpt lat="45.9235430" lon="10.2937270">
	<ele>610.40</ele>
	<time>2025-07-29T05:46:07.000Z</time>
</trkpt>
<trkpt lat="45.9235390" lon="10.2937400">
	<ele>610.60</ele>
	<time>2025-07-29T05:46:08.000Z</time>
</trkpt>
<trkpt lat="45.9235300" lon="10.2937470">
	<ele>610.80</ele>
	<time>2025-07-29T05:46:09.000Z</time>
</trkpt>
<trkpt lat="45.9235200" lon="10.2937530">
	<ele>610.80</ele>
	<time>2025-07-29T05:46:10.000Z</time>
</trkpt>
<trkpt lat="45.9235130" lon="10.2937610">
	<ele>611.00</ele>
	<time>2025-07-29T05:46:11.000Z</time>
</trkpt>
<trkpt lat="45.9235060" lon="10.2937700">
	<ele>611.40</ele>
	<time>2025-07-29T05:46:12.000Z</time>
</trkpt>
<trkpt lat="45.9235070" lon="10.2937830">
	<ele>611.60</ele>
	<time>2025-07-29T05:46:13.000Z</time>
</trkpt>
<trkpt lat="45.9235080" lon="10.2937970">
	<ele>611.60</ele>
	<time>2025-07-29T05:46:14.000Z</time>
</trkpt>
<trkpt lat="45.9235020" lon="10.2938140">
	<ele>611.80</ele>
	<time>2025-07-29T05:46:15.000Z</time>
</trkpt>
<trkpt lat="45.9234960" lon="10.2938260">
	<ele>612.00</ele>
	<time>2025-07-29T05:46:16.000Z</time>
</trkpt>
<trkpt lat="45.9234880" lon="10.2938410">
	<ele>612.20</ele>
	<time>2025-07-29T05:46:17.000Z</time>
</trkpt>
<trkpt lat="45.9234810" lon="10.2938480">
	<ele>612.40</ele>
	<time>2025-07-29T05:46:18.000Z</time>
</trkpt>
<trkpt lat="45.9234730" lon="10.2938530">
	<ele>612.60</ele>
	<time>2025-07-29T05:46:19.000Z</time>
</trkpt>
<trkpt lat="45.9234620" lon="10.2938680">
	<ele>612.80</ele>
	<time>2025-07-29T05:46:20.000Z</time>
</trkpt>
<trkpt lat="45.9234660" lon="10.2938840">
	<ele>613.00</ele>
	<time>2025-07-29T05:46:21.000Z</time>
</trkpt>
<trkpt lat="45.9234640" lon="10.2938920">
	<ele>613.20</ele>
	<time>2025-07-29T05:46:22.000Z</time>
</trkpt>
<trkpt lat="45.9234760" lon="10.2939100">
	<ele>613.40</ele>
	<time>2025-07-29T05:46:23.000Z</time>
</trkpt>
<trkpt lat="45.9234810" lon="10.2939310">
	<ele>613.60</ele>
	<time>2025-07-29T05:46:24.000Z</time>
</trkpt>
<trkpt lat="45.9234770" lon="10.2939380">
	<ele>613.60</ele>
	<time>2025-07-29T05:46:25.000Z</time>
</trkpt>
<trkpt lat="45.9234720" lon="10.2939490">
	<ele>613.80</ele>
	<time>2025-07-29T05:46:26.000Z</time>
</trkpt>
<trkpt lat="45.9234680" lon="10.2939540">
	<ele>613.80</ele>
	<time>2025-07-29T05:46:27.000Z</time>
</trkpt>
<trkpt lat="45.9234640" lon="10.2939590">
	<ele>614.00</ele>
	<time>2025-07-29T05:46:28.000Z</time>
</trkpt>
<trkpt lat="45.9234550" lon="10.2939580">
	<ele>614.20</ele>
	<time>2025-07-29T05:46:29.000Z</time>
</trkpt>
<trkpt lat="45.9234500" lon="10.2939600">
	<ele>614.60</ele>
	<time>2025-07-29T05:46:30.000Z</time>
</trkpt>
<trkpt lat="45.9234490" lon="10.2939770">
	<ele>615.00</ele>
	<time>2025-07-29T05:46:31.000Z</time>
</trkpt>
<trkpt lat="45.9234440" lon="10.2939870">
	<ele>615.20</ele>
	<time>2025-07-29T05:46:32.000Z</time>
</trkpt>
<trkpt lat="45.9234390" lon="10.2939910">
	<ele>615.40</ele>
	<time>2025-07-29T05:46:33.000Z</time>
</trkpt>
<trkpt lat="45.9234380" lon="10.2940130">
	<ele>615.60</ele>
	<time>2025-07-29T05:46:34.000Z</time>
</trkpt>
<trkpt lat="45.9234400" lon="10.2940330">
	<ele>615.80</ele>
	<time>2025-07-29T05:46:35.000Z</time>
</trkpt>
<trkpt lat="45.9234420" lon="10.2940610">
	<ele>616.00</ele>
	<time>2025-07-29T05:46:36.000Z</time>
</trkpt>
<trkpt lat="45.9234440" lon="10.2940870">
	<ele>616.40</ele>
	<time>2025-07-29T05:46:37.000Z</time>
</trkpt>
<trkpt lat="45.9234540" lon="10.2941120">
	<ele>616.60</ele>
	<time>2025-07-29T05:46:38.000Z</time>
</trkpt>
<trkpt lat="45.9234550" lon="10.2941250">
	<ele>616.80</ele>
	<time>2025-07-29T05:46:39.000Z</time>
</trkpt>
<trkpt lat="45.9234560" lon="10.2941400">
	<ele>617.00</ele>
	<time>2025-07-29T05:46:40.000Z</time>
</trkpt>
<trkpt lat="45.9234570" lon="10.2941600">
	<ele>617.20</ele>
	<time>2025-07-29T05:46:41.000Z</time>
</trkpt>
<trkpt lat="45.9234600" lon="10.2941830">
	<ele>617.60</ele>
	<time>2025-07-29T05:46:42.000Z</time>
</trkpt>
<trkpt lat="45.9234600" lon="10.2942000">
	<ele>617.60</ele>
	<time>2025-07-29T05:46:43.000Z</time>
</trkpt>
<trkpt lat="45.9234570" lon="10.2942130">
	<ele>618.00</ele>
	<time>2025-07-29T05:46:44.000Z</time>
</trkpt>
<trkpt lat="45.9234510" lon="10.2942230">
	<ele>618.00</ele>
	<time>2025-07-29T05:46:45.000Z</time>
</trkpt>
<trkpt lat="45.9234500" lon="10.2942270">
	<ele>618.20</ele>
	<time>2025-07-29T05:46:46.000Z</time>
</trkpt>
<trkpt lat="45.9234500" lon="10.2942280">
	<ele>618.20</ele>
	<time>2025-07-29T05:46:47.000Z</time>
</trkpt>
<trkpt lat="45.9234500" lon="10.2942300">
	<ele>618.40</ele>
	<time>2025-07-29T05:46:48.000Z</time>
</trkpt>
<trkpt lat="45.9234490" lon="10.2942290">
	<ele>618.40</ele>
	<time>2025-07-29T05:46:49.000Z</time>
</trkpt>
<trkpt lat="45.9234540" lon="10.2942340">
	<ele>618.40</ele>
	<time>2025-07-29T05:46:50.000Z</time>
</trkpt>
<trkpt lat="45.9234670" lon="10.2942550">
	<ele>618.60</ele>
	<time>2025-07-29T05:46:51.000Z</time>
</trkpt>
<trkpt lat="45.9234710" lon="10.2942780">
	<ele>618.60</ele>
	<time>2025-07-29T05:46:52.000Z</time>
</trkpt>
<trkpt lat="45.9234760" lon="10.2942990">
	<ele>618.60</ele>
	<time>2025-07-29T05:46:53.000Z</time>
</trkpt>
<trkpt lat="45.9234940" lon="10.2943300">
	<ele>618.80</ele>
	<time>2025-07-29T05:46:54.000Z</time>
</trkpt>
<trkpt lat="45.9234990" lon="10.2943490">
	<ele>619.00</ele>
	<time>2025-07-29T05:46:55.000Z</time>
</trkpt>
<trkpt lat="45.9235000" lon="10.2943690">
	<ele>619.20</ele>
	<time>2025-07-29T05:46:56.000Z</time>
</trkpt>
<trkpt lat="45.9235000" lon="10.2943760">
	<ele>619.40</ele>
	<time>2025-07-29T05:46:57.000Z</time>
</trkpt>
<trkpt lat="45.9235010" lon="10.2943810">
	<ele>619.60</ele>
	<time>2025-07-29T05:46:58.000Z</time>
</trkpt>
<trkpt lat="45.9235010" lon="10.2943940">
	<ele>619.80</ele>
	<time>2025-07-29T05:46:59.000Z</time>
</trkpt>
<trkpt lat="45.9235080" lon="10.2944130">
	<ele>620.20</ele>
	<time>2025-07-29T05:47:00.000Z</time>
</trkpt>
<trkpt lat="45.9235120" lon="10.2944280">
	<ele>620.40</ele>
	<time>2025-07-29T05:47:01.000Z</time>
</trkpt>
<trkpt lat="45.9235060" lon="10.2944430">
	<ele>620.60</ele>
	<time>2025-07-29T05:47:02.000Z</time>
</trkpt>
<trkpt lat="45.9234990" lon="10.2944590">
	<ele>620.80</ele>
	<time>2025-07-29T05:47:03.000Z</time>
</trkpt>
<trkpt lat="45.9234970" lon="10.2944720">
	<ele>621.00</ele>
	<time>2025-07-29T05:47:04.000Z</time>
</trkpt>
<trkpt lat="45.9234950" lon="10.2944920">
	<ele>621.20</ele>
	<time>2025-07-29T05:47:05.000Z</time>
</trkpt>
<trkpt lat="45.9234990" lon="10.2945020">
	<ele>621.60</ele>
	<time>2025-07-29T05:47:06.000Z</time>
</trkpt>
<trkpt lat="45.9235040" lon="10.2945070">
	<ele>621.80</ele>
	<time>2025-07-29T05:47:07.000Z</time>
</trkpt>
<trkpt lat="45.9235030" lon="10.2945120">
	<ele>621.80</ele>
	<time>2025-07-29T05:47:08.000Z</time>
</trkpt>
<trkpt lat="45.9235040" lon="10.2945220">
	<ele>622.00</ele>
	<time>2025-07-29T05:47:09.000Z</time>
</trkpt>
<trkpt lat="45.9235050" lon="10.2945340">
	<ele>622.20</ele>
	<time>2025-07-29T05:47:10.000Z</time>
</trkpt>
<trkpt lat="45.9234970" lon="10.2945460">
	<ele>622.60</ele>
	<time>2025-07-29T05:47:11.000Z</time>
</trkpt>
<trkpt lat="45.9234880" lon="10.2945430">
	<ele>622.80</ele>
	<time>2025-07-29T05:47:12.000Z</time>
</trkpt>
<trkpt lat="45.9234810" lon="10.2945540">
	<ele>622.80</ele>
	<time>2025-07-29T05:47:13.000Z</time>
</trkpt>
<trkpt lat="45.9234740" lon="10.2945700">
	<ele>623.20</ele>
	<time>2025-07-29T05:47:14.000Z</time>
</trkpt>
<trkpt lat="45.9234770" lon="10.2945940">
	<ele>623.40</ele>
	<time>2025-07-29T05:47:15.000Z</time>
</trkpt>
<trkpt lat="45.9234800" lon="10.2946140">
	<ele>623.60</ele>
	<time>2025-07-29T05:47:16.000Z</time>
</trkpt>
<trkpt lat="45.9234840" lon="10.2946330">
	<ele>623.80</ele>
	<time>2025-07-29T05:47:17.000Z</time>
</trkpt>
<trkpt lat="45.9234810" lon="10.2946400">
	<ele>624.20</ele>
	<time>2025-07-29T05:47:18.000Z</time>
</trkpt>
<trkpt lat="45.9234780" lon="10.2946450">
	<ele>624.40</ele>
	<time>2025-07-29T05:47:19.000Z</time>
</trkpt>
<trkpt lat="45.9234740" lon="10.2946440">
	<ele>624.60</ele>
	<time>2025-07-29T05:47:20.000Z</time>
</trkpt>
<trkpt lat="45.9234640" lon="10.2946510">
	<ele>624.80</ele>
	<time>2025-07-29T05:47:21.000Z</time>
</trkpt>
<trkpt lat="45.9234590" lon="10.2946550">
	<ele>625.00</ele>
	<time>2025-07-29T05:47:22.000Z</time>
</trkpt>
<trkpt lat="45.9234580" lon="10.2946590">
	<ele>625.20</ele>
	<time>2025-07-29T05:47:23.000Z</time>
</trkpt>
<trkpt lat="45.9234540" lon="10.2946650">
	<ele>625.60</ele>
	<time>2025-07-29T05:47:24.000Z</time>
</trkpt>
<trkpt lat="45.9234470" lon="10.2946660">
	<ele>625.80</ele>
	<time>2025-07-29T05:47:25.000Z</time>
</trkpt>
<trkpt lat="45.9234420" lon="10.2946690">
	<ele>626.00</ele>
	<time>2025-07-29T05:47:26.000Z</time>
</trkpt>
<trkpt lat="45.9234380" lon="10.2946800">
	<ele>626.20</ele>
	<time>2025-07-29T05:47:27.000Z</time>
</trkpt>
<trkpt lat="45.9234390" lon="10.2946890">
	<ele>626.40</ele>
	<time>2025-07-29T05:47:28.000Z</time>
</trkpt>
<trkpt lat="45.9234420" lon="10.2947030">
	<ele>626.80</ele>
	<time>2025-07-29T05:47:29.000Z</time>
</trkpt>
<trkpt lat="45.9234420" lon="10.2947160">
	<ele>627.00</ele>
	<time>2025-07-29T05:47:30.000Z</time>
</trkpt>
<trkpt lat="45.9234410" lon="10.2947270">
	<ele>627.00</ele>
	<time>2025-07-29T05:47:31.000Z</time>
</trkpt>
<trkpt lat="45.9234390" lon="10.2947320">
	<ele>627.20</ele>
	<time>2025-07-29T05:47:32.000Z</time>
</trkpt>
<trkpt lat="45.9234370" lon="10.2947380">
	<ele>627.40</ele>
	<time>2025-07-29T05:47:33.000Z</time>
</trkpt>
<trkpt lat="45.9234350" lon="10.2947440">
	<ele>627.60</ele>
	<time>2025-07-29T05:47:34.000Z</time>
</trkpt>
<trkpt lat="45.9234390" lon="10.2947490">
	<ele>628.00</ele>
	<time>2025-07-29T05:47:35.000Z</time>
</trkpt>
<trkpt lat="45.9234400" lon="10.2947560">
	<ele>628.20</ele>
	<time>2025-07-29T05:47:36.000Z</time>
</trkpt>
<trkpt lat="45.9234400" lon="10.2947680">
	<ele>628.40</ele>
	<time>2025-07-29T05:47:37.000Z</time>
</trkpt>
<trkpt lat="45.9234370" lon="10.2947820">
	<ele>628.40</ele>
	<time>2025-07-29T05:47:38.000Z</time>
</trkpt>
<trkpt lat="45.9234350" lon="10.2947930">
	<ele>628.60</ele>
	<time>2025-07-29T05:47:39.000Z</time>
</trkpt>
<trkpt lat="45.9234320" lon="10.2948020">
	<ele>629.00</ele>
	<time>2025-07-29T05:47:40.000Z</time>
</trkpt>
<trkpt lat="45.9234300" lon="10.2948080">
	<ele>629.20</ele>
	<time>2025-07-29T05:47:41.000Z</time>
</trkpt>
<trkpt lat="45.9234290" lon="10.2948100">
	<ele>629.20</ele>
	<time>2025-07-29T05:47:42.000Z</time>
</trkpt>
<trkpt lat="45.9234270" lon="10.2948160">
	<ele>629.60</ele>
	<time>2025-07-29T05:47:43.000Z</time>
</trkpt>
<trkpt lat="45.9234270" lon="10.2948190">
	<ele>630.00</ele>
	<time>2025-07-29T05:47:44.000Z</time>
</trkpt>
<trkpt lat="45.9234310" lon="10.2948270">
	<ele>630.20</ele>
	<time>2025-07-29T05:47:45.000Z</time>
</trkpt>
<trkpt lat="45.9234320" lon="10.2948420">
	<ele>630.20</ele>
	<time>2025-07-29T05:47:46.000Z</time>
</trkpt>
<trkpt lat="45.9234310" lon="10.2948490">
	<ele>630.60</ele>
	<time>2025-07-29T05:47:47.000Z</time>
</trkpt>
<trkpt lat="45.9234320" lon="10.2948570">
	<ele>631.00</ele>
	<time>2025-07-29T05:47:48.000Z</time>
</trkpt>
<trkpt lat="45.9234360" lon="10.2948640">
	<ele>631.20</ele>
	<time>2025-07-29T05:47:49.000Z</time>
</trkpt>
<trkpt lat="45.9234410" lon="10.2948740">
	<ele>631.40</ele>
	<time>2025-07-29T05:47:50.000Z</time>
</trkpt>
<trkpt lat="45.9234460" lon="10.2948770">
	<ele>631.60</ele>
	<time>2025-07-29T05:47:51.000Z</time>
</trkpt>
<trkpt lat="45.9234440" lon="10.2949030">
	<ele>631.80</ele>
	<time>2025-07-29T05:47:52.000Z</time>
</trkpt>
<trkpt lat="45.9234430" lon="10.2949250">
	<ele>632.00</ele>
	<time>2025-07-29T05:47:53.000Z</time>
</trkpt>
<trkpt lat="45.9234430" lon="10.2949290">
	<ele>632.20</ele>
	<time>2025-07-29T05:47:54.000Z</time>
</trkpt>
<trkpt lat="45.9234430" lon="10.2949350">
	<ele>632.40</ele>
	<time>2025-07-29T05:47:55.000Z</time>
</trkpt>
<trkpt lat="45.9234480" lon="10.2949470">
	<ele>632.60</ele>
	<time>2025-07-29T05:47:56.000Z</time>
</trkpt>
<trkpt lat="45.9234450" lon="10.2949540">
	<ele>633.00</ele>
	<time>2025-07-29T05:47:57.000Z</time>
</trkpt>
<trkpt lat="45.9234470" lon="10.2949680">
	<ele>633.20</ele>
	<time>2025-07-29T05:47:58.000Z</time>
</trkpt>
<trkpt lat="45.9234510" lon="10.2949720">
	<ele>633.60</ele>
	<time>2025-07-29T05:47:59.000Z</time>
</trkpt>
<trkpt lat="45.9234480" lon="10.2949920">
	<ele>633.80</ele>
	<time>2025-07-29T05:48:00.000Z</time>
</trkpt>
<trkpt lat="45.9234450" lon="10.2950070">
	<ele>634.00</ele>
	<time>2025-07-29T05:48:01.000Z</time>
</trkpt>
<trkpt lat="45.9234470" lon="10.2950240">
	<ele>634.20</ele>
	<time>2025-07-29T05:48:02.000Z</time>
</trkpt>
<trkpt lat="45.9234520" lon="10.2950400">
	<ele>634.40</ele>
	<time>2025-07-29T05:48:03.000Z</time>
</trkpt>
<trkpt lat="45.9234500" lon="10.2950520">
	<ele>634.80</ele>
	<time>2025-07-29T05:48:04.000Z</time>
</trkpt>
<trkpt lat="45.9234460" lon="10.2950650">
	<ele>635.00</ele>
	<time>2025-07-29T05:48:05.000Z</time>
</trkpt>
<trkpt lat="45.9234460" lon="10.2950790">
	<ele>635.40</ele>
	<time>2025-07-29T05:48:06.000Z</time>
</trkpt>
<trkpt lat="45.9234390" lon="10.2950750">
	<ele>635.60</ele>
	<time>2025-07-29T05:48:07.000Z</time>
</trkpt>
<trkpt lat="45.9234410" lon="10.2950810">
	<ele>635.80</ele>
	<time>2025-07-29T05:48:08.000Z</time>
</trkpt>
<trkpt lat="45.9234440" lon="10.2950820">
	<ele>636.00</ele>
	<time>2025-07-29T05:48:09.000Z</time>
</trkpt>
<trkpt lat="45.9234450" lon="10.2950870">
	<ele>636.20</ele>
	<time>2025-07-29T05:48:10.000Z</time>
</trkpt>
<trkpt lat="45.9234410" lon="10.2950920">
	<ele>636.60</ele>
	<time>2025-07-29T05:48:11.000Z</time>
</trkpt>
<trkpt lat="45.9234390" lon="10.2951010">
	<ele>636.60</ele>
	<time>2025-07-29T05:48:12.000Z</time>
</trkpt>
<trkpt lat="45.9234390" lon="10.2951080">
	<ele>636.80</ele>
	<time>2025-07-29T05:48:13.000Z</time>
</trkpt>
<trkpt lat="45.9234400" lon="10.2951150">
	<ele>637.00</ele>
	<time>2025-07-29T05:48:14.000Z</time>
</trkpt>
<trkpt lat="45.9234440" lon="10.2951250">
	<ele>637.20</ele>
	<time>2025-07-29T05:48:15.000Z</time>
</trkpt>
<trkpt lat="45.9234440" lon="10.2951360">
	<ele>637.60</ele>
	<time>2025-07-29T05:48:16.000Z</time>
</trkpt>
<trkpt lat="45.9234440" lon="10.2951420">
	<ele>637.80</ele>
	<time>2025-07-29T05:48:17.000Z</time>
</trkpt>
<trkpt lat="45.9234450" lon="10.2951570">
	<ele>638.00</ele>
	<time>2025-07-29T05:48:18.000Z</time>
</trkpt>
<trkpt lat="45.9234410" lon="10.2951670">
	<ele>638.20</ele>
	<time>2025-07-29T05:48:19.000Z</time>
</trkpt>
<trkpt lat="45.9234440" lon="10.2951770">
	<ele>638.60</ele>
	<time>2025-07-29T05:48:20.000Z</time>
</trkpt>
<trkpt lat="45.9234440" lon="10.2951930">
	<ele>638.80</ele>
	<time>2025-07-29T05:48:21.000Z</time>
</trkpt>
<trkpt lat="45.9234430" lon="10.2952140">
	<ele>639.00</ele>
	<time>2025-07-29T05:48:22.000Z</time>
</trkpt>
<trkpt lat="45.9234330" lon="10.2952240">
	<ele>639.20</ele>
	<time>2025-07-29T05:48:23.000Z</time>
</trkpt>
<trkpt lat="45.9234280" lon="10.2952290">
	<ele>639.20</ele>
	<time>2025-07-29T05:48:24.000Z</time>
</trkpt>
<trkpt lat="45.9234190" lon="10.2952390">
	<ele>639.60</ele>
	<time>2025-07-29T05:48:25.000Z</time>
</trkpt>
<trkpt lat="45.9234180" lon="10.2952430">
	<ele>639.80</ele>
	<time>2025-07-29T05:48:26.000Z</time>
</trkpt>
<trkpt lat="45.9234110" lon="10.2952430">
	<ele>640.00</ele>
	<time>2025-07-29T05:48:27.000Z</time>
</trkpt>
<trkpt lat="45.9234010" lon="10.2952340">
	<ele>640.20</ele>
	<time>2025-07-29T05:48:28.000Z</time>
</trkpt>
<trkpt lat="45.9233970" lon="10.2952350">
	<ele>640.40</ele>
	<time>2025-07-29T05:48:29.000Z</time>
</trkpt>
<trkpt lat="45.9233940" lon="10.2952430">
	<ele>640.60</ele>
	<time>2025-07-29T05:48:30.000Z</time>
</trkpt>
<trkpt lat="45.9233840" lon="10.2952470">
	<ele>640.80</ele>
	<time>2025-07-29T05:48:31.000Z</time>
</trkpt>
<trkpt lat="45.9233810" lon="10.2952510">
	<ele>641.00</ele>
	<time>2025-07-29T05:48:32.000Z</time>
</trkpt>
<trkpt lat="45.9233720" lon="10.2952650">
	<ele>641.20</ele>
	<time>2025-07-29T05:48:33.000Z</time>
</trkpt>
<trkpt lat="45.9233700" lon="10.2952720">
	<ele>641.40</ele>
	<time>2025-07-29T05:48:34.000Z</time>
</trkpt>
<trkpt lat="45.9233690" lon="10.2952750">
	<ele>641.80</ele>
	<time>2025-07-29T05:48:35.000Z</time>
</trkpt>
<trkpt lat="45.9233710" lon="10.2952780">
	<ele>642.00</ele>
	<time>2025-07-29T05:48:36.000Z</time>
</trkpt>
<trkpt lat="45.9233790" lon="10.2952880">
	<ele>642.20</ele>
	<time>2025-07-29T05:48:37.000Z</time>
</trkpt>
<trkpt lat="45.9233810" lon="10.2952890">
	<ele>642.60</ele>
	<time>2025-07-29T05:48:38.000Z</time>
</trkpt>
<trkpt lat="45.9233810" lon="10.2952910">
	<ele>642.80</ele>
	<time>2025-07-29T05:48:39.000Z</time>
</trkpt>
<trkpt lat="45.9233810" lon="10.2952990">
	<ele>643.00</ele>
	<time>2025-07-29T05:48:40.000Z</time>
</trkpt>
<trkpt lat="45.9233770" lon="10.2953160">
	<ele>643.20</ele>
	<time>2025-07-29T05:48:41.000Z</time>
</trkpt>
<trkpt lat="45.9233760" lon="10.2953170">
	<ele>643.60</ele>
	<time>2025-07-29T05:48:42.000Z</time>
</trkpt>
<trkpt lat="45.9233700" lon="10.2953300">
	<ele>643.60</ele>
	<time>2025-07-29T05:48:43.000Z</time>
</trkpt>
<trkpt lat="45.9233700" lon="10.2953430">
	<ele>643.80</ele>
	<time>2025-07-29T05:48:44.000Z</time>
</trkpt>
<trkpt lat="45.9233690" lon="10.2953490">
	<ele>644.00</ele>
	<time>2025-07-29T05:48:45.000Z</time>
</trkpt>
<trkpt lat="45.9233690" lon="10.2953570">
	<ele>644.20</ele>
	<time>2025-07-29T05:48:46.000Z</time>
</trkpt>
<trkpt lat="45.9233740" lon="10.2953670">
	<ele>644.20</ele>
	<time>2025-07-29T05:48:47.000Z</time>
</trkpt>
<trkpt lat="45.9233780" lon="10.2953670">
	<ele>644.60</ele>
	<time>2025-07-29T05:48:48.000Z</time>
</trkpt>
<trkpt lat="45.9233810" lon="10.2953670">
	<ele>644.80</ele>
	<time>2025-07-29T05:48:49.000Z</time>
</trkpt>
<trkpt lat="45.9233760" lon="10.2953760">
	<ele>645.20</ele>
	<time>2025-07-29T05:48:50.000Z</time>
</trkpt>
<trkpt lat="45.9233710" lon="10.2953900">
	<ele>645.40</ele>
	<time>2025-07-29T05:48:51.000Z</time>
</trkpt>
<trkpt lat="45.9233700" lon="10.2953950">
	<ele>645.60</ele>
	<time>2025-07-29T05:48:52.000Z</time>
</trkpt>
<trkpt lat="45.9233700" lon="10.2954040">
	<ele>645.80</ele>
	<time>2025-07-29T05:48:53.000Z</time>
</trkpt>
<trkpt lat="45.9233700" lon="10.2954150">
	<ele>646.00</ele>
	<time>2025-07-29T05:48:54.000Z</time>
</trkpt>
<trkpt lat="45.9233670" lon="10.2954260">
	<ele>646.20</ele>
	<time>2025-07-29T05:48:55.000Z</time>
</trkpt>
<trkpt lat="45.9233630" lon="10.2954370">
	<ele>646.40</ele>
	<time>2025-07-29T05:48:56.000Z</time>
</trkpt>
<trkpt lat="45.9233630" lon="10.2954470">
	<ele>646.40</ele>
	<time>2025-07-29T05:48:57.000Z</time>
</trkpt>
<trkpt lat="45.9233710" lon="10.2954530">
	<ele>646.80</ele>
	<time>2025-07-29T05:48:58.000Z</time>
</trkpt>
<trkpt lat="45.9233820" lon="10.2954640">
	<ele>647.20</ele>
	<time>2025-07-29T05:48:59.000Z</time>
</trkpt>
<trkpt lat="45.9233870" lon="10.2954840">
	<ele>647.40</ele>
	<time>2025-07-29T05:49:00.000Z</time>
</trkpt>
<trkpt lat="45.9233880" lon="10.2954880">
	<ele>647.60</ele>
	<time>2025-07-29T05:49:01.000Z</time>
</trkpt>
<trkpt lat="45.9233890" lon="10.2955050">
	<ele>647.80</ele>
	<time>2025-07-29T05:49:02.000Z</time>
</trkpt>
<trkpt lat="45.9233930" lon="10.2955270">
	<ele>648.00</ele>
	<time>2025-07-29T05:49:03.000Z</time>
</trkpt>
<trkpt lat="45.9233940" lon="10.2955500">
	<ele>648.20</ele>
	<time>2025-07-29T05:49:04.000Z</time>
</trkpt>
<trkpt lat="45.9233920" lon="10.2955660">
	<ele>648.40</ele>
	<time>2025-07-29T05:49:05.000Z</time>
</trkpt>
<trkpt lat="45.9233890" lon="10.2955770">
	<ele>648.60</ele>
	<time>2025-07-29T05:49:06.000Z</time>
</trkpt>
<trkpt lat="45.9233910" lon="10.2955890">
	<ele>648.60</ele>
	<time>2025-07-29T05:49:07.000Z</time>
</trkpt>
<trkpt lat="45.9233900" lon="10.2955940">
	<ele>648.80</ele>
	<time>2025-07-29T05:49:08.000Z</time>
</trkpt>
<trkpt lat="45.9233860" lon="10.2956160">
	<ele>648.80</ele>
	<time>2025-07-29T05:49:09.000Z</time>
</trkpt>
<trkpt lat="45.9233770" lon="10.2956280">
	<ele>649.20</ele>
	<time>2025-07-29T05:49:10.000Z</time>
</trkpt>
<trkpt lat="45.9233680" lon="10.2956420">
	<ele>649.40</ele>
	<time>2025-07-29T05:49:11.000Z</time>
</trkpt>
<trkpt lat="45.9233660" lon="10.2956520">
	<ele>649.60</ele>
	<time>2025-07-29T05:49:12.000Z</time>
</trkpt>
<trkpt lat="45.9233670" lon="10.2956560">
	<ele>650.00</ele>
	<time>2025-07-29T05:49:13.000Z</time>
</trkpt>
<trkpt lat="45.9233630" lon="10.2956690">
	<ele>650.20</ele>
	<time>2025-07-29T05:49:14.000Z</time>
</trkpt>
<trkpt lat="45.9233470" lon="10.2956930">
	<ele>650.40</ele>
	<time>2025-07-29T05:49:15.000Z</time>
</trkpt>
<trkpt lat="45.9233450" lon="10.2957080">
	<ele>650.40</ele>
	<time>2025-07-29T05:49:16.000Z</time>
</trkpt>
<trkpt lat="45.9233450" lon="10.2957230">
	<ele>650.80</ele>
	<time>2025-07-29T05:49:17.000Z</time>
</trkpt>
<trkpt lat="45.9233460" lon="10.2957360">
	<ele>651.00</ele>
	<time>2025-07-29T05:49:18.000Z</time>
</trkpt>
<trkpt lat="45.9233410" lon="10.2957540">
	<ele>651.40</ele>
	<time>2025-07-29T05:49:19.000Z</time>
</trkpt>
<trkpt lat="45.9233420" lon="10.2957690">
	<ele>651.40</ele>
	<time>2025-07-29T05:49:20.000Z</time>
</trkpt>
<trkpt lat="45.9233430" lon="10.2957880">
	<ele>651.60</ele>
	<time>2025-07-29T05:49:21.000Z</time>
</trkpt>
<trkpt lat="45.9233450" lon="10.2958040">
	<ele>651.80</ele>
	<time>2025-07-29T05:49:22.000Z</time>
</trkpt>
<trkpt lat="45.9233510" lon="10.2958190">
	<ele>652.00</ele>
	<time>2025-07-29T05:49:23.000Z</time>
</trkpt>
<trkpt lat="45.9233520" lon="10.2958340">
	<ele>652.20</ele>
	<time>2025-07-29T05:49:24.000Z</time>
</trkpt>
<trkpt lat="45.9233540" lon="10.2958490">
	<ele>652.20</ele>
	<time>2025-07-29T05:49:25.000Z</time>
</trkpt>
<trkpt lat="45.9233670" lon="10.2958590">
	<ele>652.40</ele>
	<time>2025-07-29T05:49:26.000Z</time>
</trkpt>
<trkpt lat="45.9233680" lon="10.2958720">
	<ele>652.60</ele>
	<time>2025-07-29T05:49:27.000Z</time>
</trkpt>
<trkpt lat="45.9233650" lon="10.2958880">
	<ele>652.80</ele>
	<time>2025-07-29T05:49:28.000Z</time>
</trkpt>
<trkpt lat="45.9233610" lon="10.2959050">
	<ele>652.80</ele>
	<time>2025-07-29T05:49:29.000Z</time>
</trkpt>
<trkpt lat="45.9233440" lon="10.2959430">
	<ele>653.00</ele>
	<time>2025-07-29T05:49:30.000Z</time>
</trkpt>
<trkpt lat="45.9233340" lon="10.2959680">
	<ele>653.20</ele>
	<time>2025-07-29T05:49:31.000Z</time>
</trkpt>
<trkpt lat="45.9233180" lon="10.2959850">
	<ele>653.40</ele>
	<time>2025-07-29T05:49:32.000Z</time>
</trkpt>
<trkpt lat="45.9233000" lon="10.2959890">
	<ele>653.60</ele>
	<time>2025-07-29T05:49:33.000Z</time>
</trkpt>
<trkpt lat="45.9232930" lon="10.2960010">
	<ele>653.80</ele>
	<time>2025-07-29T05:49:34.000Z</time>
</trkpt>
<trkpt lat="45.9232900" lon="10.2960020">
	<ele>653.80</ele>
	<time>2025-07-29T05:49:35.000Z</time>
</trkpt>
<trkpt lat="45.9233000" lon="10.2960260">
	<ele>653.80</ele>
	<time>2025-07-29T05:49:36.000Z</time>
</trkpt>
<trkpt lat="45.9233100" lon="10.2960340">
	<ele>654.00</ele>
	<time>2025-07-29T05:49:37.000Z</time>
</trkpt>
<trkpt lat="45.9233070" lon="10.2960560">
	<ele>654.00</ele>
	<time>2025-07-29T05:49:38.000Z</time>
</trkpt>
<trkpt lat="45.9232990" lon="10.2960720">
	<ele>654.20</ele>
	<time>2025-07-29T05:49:39.000Z</time>
</trkpt>
<trkpt lat="45.9232940" lon="10.2960870">
	<ele>654.40</ele>
	<time>2025-07-29T05:49:40.000Z</time>
</trkpt>
<trkpt lat="45.9232900" lon="10.2960980">
	<ele>654.40</ele>
	<time>2025-07-29T05:49:41.000Z</time>
</trkpt>
<trkpt lat="45.9232910" lon="10.2961000">
	<ele>654.40</ele>
	<time>2025-07-29T05:49:42.000Z</time>
</trkpt>
<trkpt lat="45.9232970" lon="10.2961060">
	<ele>654.60</ele>
	<time>2025-07-29T05:49:43.000Z</time>
</trkpt>
<trkpt lat="45.9232970" lon="10.2961170">
	<ele>654.60</ele>
	<time>2025-07-29T05:49:44.000Z</time>
</trkpt>
<trkpt lat="45.9232880" lon="10.2961310">
	<ele>654.80</ele>
	<time>2025-07-29T05:49:45.000Z</time>
</trkpt>
<trkpt lat="45.9232820" lon="10.2961420">
	<ele>654.80</ele>
	<time>2025-07-29T05:49:46.000Z</time>
</trkpt>
<trkpt lat="45.9232770" lon="10.2961480">
	<ele>655.00</ele>
	<time>2025-07-29T05:49:47.000Z</time>
</trkpt>
<trkpt lat="45.9232720" lon="10.2961510">
	<ele>655.20</ele>
	<time>2025-07-29T05:49:48.000Z</time>
</trkpt>
<trkpt lat="45.9232620" lon="10.2961620">
	<ele>655.20</ele>
	<time>2025-07-29T05:49:49.000Z</time>
</trkpt>
<trkpt lat="45.9232570" lon="10.2961730">
	<ele>655.40</ele>
	<time>2025-07-29T05:49:50.000Z</time>
</trkpt>
<trkpt lat="45.9232530" lon="10.2961790">
	<ele>655.60</ele>
	<time>2025-07-29T05:49:51.000Z</time>
</trkpt>
<trkpt lat="45.9232470" lon="10.2961850">
	<ele>655.60</ele>
	<time>2025-07-29T05:49:52.000Z</time>
</trkpt>
<trkpt lat="45.9232400" lon="10.2961940">
	<ele>655.80</ele>
	<time>2025-07-29T05:49:53.000Z</time>
</trkpt>
<trkpt lat="45.9232390" lon="10.2962030">
	<ele>655.80</ele>
	<time>2025-07-29T05:49:54.000Z</time>
</trkpt>
<trkpt lat="45.9232420" lon="10.2962140">
	<ele>656.00</ele>
	<time>2025-07-29T05:49:55.000Z</time>
</trkpt>
<trkpt lat="45.9232430" lon="10.2962270">
	<ele>656.20</ele>
	<time>2025-07-29T05:49:56.000Z</time>
</trkpt>
<trkpt lat="45.9232440" lon="10.2962400">
	<ele>656.40</ele>
	<time>2025-07-29T05:49:57.000Z</time>
</trkpt>
<trkpt lat="45.9232430" lon="10.2962560">
	<ele>656.60</ele>
	<time>2025-07-29T05:49:58.000Z</time>
</trkpt>
<trkpt lat="45.9232450" lon="10.2962720">
	<ele>656.80</ele>
	<time>2025-07-29T05:49:59.000Z</time>
</trkpt>
<trkpt lat="45.9232490" lon="10.2962820">
	<ele>656.80</ele>
	<time>2025-07-29T05:50:00.000Z</time>
</trkpt>
<trkpt lat="45.9232520" lon="10.2962910">
	<ele>657.00</ele>
	<time>2025-07-29T05:50:01.000Z</time>
</trkpt>
<trkpt lat="45.9232530" lon="10.2963060">
	<ele>657.40</ele>
	<time>2025-07-29T05:50:02.000Z</time>
</trkpt>
<trkpt lat="45.9232510" lon="10.2963240">
	<ele>657.60</ele>
	<time>2025-07-29T05:50:03.000Z</time>
</trkpt>
<trkpt lat="45.9232500" lon="10.2963340">
	<ele>657.80</ele>
	<time>2025-07-29T05:50:04.000Z</time>
</trkpt>
<trkpt lat="45.9232480" lon="10.2963530">
	<ele>658.00</ele>
	<time>2025-07-29T05:50:05.000Z</time>
</trkpt>
<trkpt lat="45.9232480" lon="10.2963700">
	<ele>658.20</ele>
	<time>2025-07-29T05:50:06.000Z</time>
</trkpt>
<trkpt lat="45.9232460" lon="10.2963900">
	<ele>658.20</ele>
	<time>2025-07-29T05:50:07.000Z</time>
</trkpt>
<trkpt lat="45.9232450" lon="10.2964070">
	<ele>658.40</ele>
	<time>2025-07-29T05:50:08.000Z</time>
</trkpt>
<trkpt lat="45.9232540" lon="10.2964230">
	<ele>658.40</ele>
	<time>2025-07-29T05:50:09.000Z</time>
</trkpt>
<trkpt lat="45.9232590" lon="10.2964360">
	<ele>658.60</ele>
	<time>2025-07-29T05:50:10.000Z</time>
</trkpt>
<trkpt lat="45.9232570" lon="10.2964500">
	<ele>659.00</ele>
	<time>2025-07-29T05:50:11.000Z</time>
</trkpt>
<trkpt lat="45.9232560" lon="10.2964610">
	<ele>659.00</ele>
	<time>2025-07-29T05:50:12.000Z</time>
</trkpt>
<trkpt lat="45.9232570" lon="10.2964720">
	<ele>659.20</ele>
	<time>2025-07-29T05:50:13.000Z</time>
</trkpt>
<trkpt lat="45.9232410" lon="10.2964850">
	<ele>659.40</ele>
	<time>2025-07-29T05:50:14.000Z</time>
</trkpt>
<trkpt lat="45.9232250" lon="10.2964870">
	<ele>659.40</ele>
	<time>2025-07-29T05:50:15.000Z</time>
</trkpt>
<trkpt lat="45.9232230" lon="10.2964940">
	<ele>659.60</ele>
	<time>2025-07-29T05:50:16.000Z</time>
</trkpt>
<trkpt lat="45.9232180" lon="10.2965000">
	<ele>659.80</ele>
	<time>2025-07-29T05:50:17.000Z</time>
</trkpt>
<trkpt lat="45.9232180" lon="10.2965080">
	<ele>660.00</ele>
	<time>2025-07-29T05:50:18.000Z</time>
</trkpt>
<trkpt lat="45.9232190" lon="10.2965130">
	<ele>660.20</ele>
	<time>2025-07-29T05:50:19.000Z</time>
</trkpt>
<trkpt lat="45.9232210" lon="10.2965270">
	<ele>660.40</ele>
	<time>2025-07-29T05:50:20.000Z</time>
</trkpt>
<trkpt lat="45.9232130" lon="10.2965410">
	<ele>660.40</ele>
	<time>2025-07-29T05:50:21.000Z</time>
</trkpt>
<trkpt lat="45.9232020" lon="10.2965490">
	<ele>660.60</ele>
	<time>2025-07-29T05:50:22.000Z</time>
</trkpt>
<trkpt lat="45.9231820" lon="10.2965560">
	<ele>661.00</ele>
	<time>2025-07-29T05:50:23.000Z</time>
</trkpt>
<trkpt lat="45.9231590" lon="10.2965700">
	<ele>661.00</ele>
	<time>2025-07-29T05:50:24.000Z</time>
</trkpt>
<trkpt lat="45.9231490" lon="10.2965820">
	<ele>661.20</ele>
	<time>2025-07-29T05:50:25.000Z</time>
</trkpt>
<trkpt lat="45.9231420" lon="10.2965910">
	<ele>661.40</ele>
	<time>2025-07-29T05:50:26.000Z</time>
</trkpt>
<trkpt lat="45.9231360" lon="10.2965950">
	<ele>661.60</ele>
	<time>2025-07-29T05:50:27.000Z</time>
</trkpt>
<trkpt lat="45.9231320" lon="10.2965990">
	<ele>661.80</ele>
	<time>2025-07-29T05:50:28.000Z</time>
</trkpt>
<trkpt lat="45.9231290" lon="10.2966020">
	<ele>661.80</ele>
	<time>2025-07-29T05:50:29.000Z</time>
</trkpt>
<trkpt lat="45.9231270" lon="10.2966100">
	<ele>662.00</ele>
	<time>2025-07-29T05:50:30.000Z</time>
</trkpt>
<trkpt lat="45.9231180" lon="10.2966170">
	<ele>662.40</ele>
	<time>2025-07-29T05:50:31.000Z</time>
</trkpt>
<trkpt lat="45.9231110" lon="10.2966220">
	<ele>662.60</ele>
	<time>2025-07-29T05:50:32.000Z</time>
</trkpt>
<trkpt lat="45.9231070" lon="10.2966270">
	<ele>662.80</ele>
	<time>2025-07-29T05:50:33.000Z</time>
</trkpt>
<trkpt lat="45.9231020" lon="10.2966300">
	<ele>663.00</ele>
	<time>2025-07-29T05:50:34.000Z</time>
</trkpt>
<trkpt lat="45.9230990" lon="10.2966380">
	<ele>663.20</ele>
	<time>2025-07-29T05:50:35.000Z</time>
</trkpt>
<trkpt lat="45.9230940" lon="10.2966430">
	<ele>663.60</ele>
	<time>2025-07-29T05:50:36.000Z</time>
</trkpt>
<trkpt lat="45.9230860" lon="10.2966450">
	<ele>663.60</ele>
	<time>2025-07-29T05:50:37.000Z</time>
</trkpt>
<trkpt lat="45.9230770" lon="10.2966470">
	<ele>663.80</ele>
	<time>2025-07-29T05:50:38.000Z</time>
</trkpt>
<trkpt lat="45.9230680" lon="10.2966490">
	<ele>664.20</ele>
	<time>2025-07-29T05:50:39.000Z</time>
</trkpt>
<trkpt lat="45.9230610" lon="10.2966520">
	<ele>664.40</ele>
	<time>2025-07-29T05:50:40.000Z</time>
</trkpt>
<trkpt lat="45.9230560" lon="10.2966560">
	<ele>664.40</ele>
	<time>2025-07-29T05:50:41.000Z</time>
</trkpt>
<trkpt lat="45.9230530" lon="10.2966610">
	<ele>664.80</ele>
	<time>2025-07-29T05:50:42.000Z</time>
</trkpt>
<trkpt lat="45.9230550" lon="10.2966650">
	<ele>665.00</ele>
	<time>2025-07-29T05:50:43.000Z</time>
</trkpt>
<trkpt lat="45.9230590" lon="10.2966760">
	<ele>665.20</ele>
	<time>2025-07-29T05:50:44.000Z</time>
</trkpt>
<trkpt lat="45.9230590" lon="10.2966860">
	<ele>665.40</ele>
	<time>2025-07-29T05:50:45.000Z</time>
</trkpt>
<trkpt lat="45.9230490" lon="10.2966890">
	<ele>665.80</ele>
	<time>2025-07-29T05:50:46.000Z</time>
</trkpt>
<trkpt lat="45.9230370" lon="10.2966910">
	<ele>666.00</ele>
	<time>2025-07-29T05:50:47.000Z</time>
</trkpt>
<trkpt lat="45.9230270" lon="10.2967000">
	<ele>666.00</ele>
	<time>2025-07-29T05:50:48.000Z</time>
</trkpt>
<trkpt lat="45.9230230" lon="10.2967060">
	<ele>666.40</ele>
	<time>2025-07-29T05:50:49.000Z</time>
</trkpt>
<trkpt lat="45.9230120" lon="10.2967120">
	<ele>666.60</ele>
	<time>2025-07-29T05:50:50.000Z</time>
</trkpt>
<trkpt lat="45.9230050" lon="10.2967220">
	<ele>666.80</ele>
	<time>2025-07-29T05:50:51.000Z</time>
</trkpt>
<trkpt lat="45.9230000" lon="10.2967250">
	<ele>666.80</ele>
	<time>2025-07-29T05:50:52.000Z</time>
</trkpt>
<trkpt lat="45.9229880" lon="10.2967310">
	<ele>667.00</ele>
	<time>2025-07-29T05:50:53.000Z</time>
</trkpt>
<trkpt lat="45.9229760" lon="10.2967310">
	<ele>667.20</ele>
	<time>2025-07-29T05:50:54.000Z</time>
</trkpt>
<trkpt lat="45.9229530" lon="10.2967250">
	<ele>667.40</ele>
	<time>2025-07-29T05:50:55.000Z</time>
</trkpt>
<trkpt lat="45.9229430" lon="10.2967310">
	<ele>667.80</ele>
	<time>2025-07-29T05:50:56.000Z</time>
</trkpt>
<trkpt lat="45.9229390" lon="10.2967360">
	<ele>668.20</ele>
	<time>2025-07-29T05:50:57.000Z</time>
</trkpt>
<trkpt lat="45.9229350" lon="10.2967420">
	<ele>668.40</ele>
	<time>2025-07-29T05:50:58.000Z</time>
</trkpt>
<trkpt lat="45.9229250" lon="10.2967480">
	<ele>668.40</ele>
	<time>2025-07-29T05:50:59.000Z</time>
</trkpt>
<trkpt lat="45.9229110" lon="10.2967460">
	<ele>668.60</ele>
	<time>2025-07-29T05:51:00.000Z</time>
</trkpt>
<trkpt lat="45.9228980" lon="10.2967490">
	<ele>668.60</ele>
	<time>2025-07-29T05:51:01.000Z</time>
</trkpt>
<trkpt lat="45.9228940" lon="10.2967530">
	<ele>668.80</ele>
	<time>2025-07-29T05:51:02.000Z</time>
</trkpt>
<trkpt lat="45.9228960" lon="10.2967590">
	<ele>669.00</ele>
	<time>2025-07-29T05:51:03.000Z</time>
</trkpt>
<trkpt lat="45.9228870" lon="10.2967600">
	<ele>669.40</ele>
	<time>2025-07-29T05:51:04.000Z</time>
</trkpt>
<trkpt lat="45.9228690" lon="10.2967600">
	<ele>669.80</ele>
	<time>2025-07-29T05:51:05.000Z</time>
</trkpt>
<trkpt lat="45.9228470" lon="10.2967550">
	<ele>670.00</ele>
	<time>2025-07-29T05:51:06.000Z</time>
</trkpt>
<trkpt lat="45.9228240" lon="10.2967500">
	<ele>670.20</ele>
	<time>2025-07-29T05:51:07.000Z</time>
</trkpt>
<trkpt lat="45.9228130" lon="10.2967540">
	<ele>670.40</ele>
	<time>2025-07-29T05:51:08.000Z</time>
</trkpt>
<trkpt lat="45.9228030" lon="10.2967490">
	<ele>670.60</ele>
	<time>2025-07-29T05:51:09.000Z</time>
</trkpt>
<trkpt lat="45.9228030" lon="10.2967520">
	<ele>670.80</ele>
	<time>2025-07-29T05:51:10.000Z</time>
</trkpt>
<trkpt lat="45.9228000" lon="10.2967560">
	<ele>670.80</ele>
	<time>2025-07-29T05:51:11.000Z</time>
</trkpt>
<trkpt lat="45.9227990" lon="10.2967620">
	<ele>671.20</ele>
	<time>2025-07-29T05:51:12.000Z</time>
</trkpt>
<trkpt lat="45.9227860" lon="10.2967580">
	<ele>671.20</ele>
	<time>2025-07-29T05:51:13.000Z</time>
</trkpt>
<trkpt lat="45.9227750" lon="10.2967570">
	<ele>671.40</ele>
	<time>2025-07-29T05:51:14.000Z</time>
</trkpt>
<trkpt lat="45.9227640" lon="10.2967520">
	<ele>671.80</ele>
	<time>2025-07-29T05:51:15.000Z</time>
</trkpt>
<trkpt lat="45.9227570" lon="10.2967510">
	<ele>672.00</ele>
	<time>2025-07-29T05:51:16.000Z</time>
</trkpt>
<trkpt lat="45.9227500" lon="10.2967530">
	<ele>672.00</ele>
	<time>2025-07-29T05:51:17.000Z</time>
</trkpt>
<trkpt lat="45.9227430" lon="10.2967580">
	<ele>672.20</ele>
	<time>2025-07-29T05:51:18.000Z</time>
</trkpt>
<trkpt lat="45.9227390" lon="10.2967610">
	<ele>672.40</ele>
	<time>2025-07-29T05:51:19.000Z</time>
</trkpt>
<trkpt lat="45.9227380" lon="10.2967640">
	<ele>672.60</ele>
	<time>2025-07-29T05:51:20.000Z</time>
</trkpt>
<trkpt lat="45.9227430" lon="10.2967710">
	<ele>672.80</ele>
	<time>2025-07-29T05:51:21.000Z</time>
</trkpt>
<trkpt lat="45.9227440" lon="10.2967730">
	<ele>673.00</ele>
	<time>2025-07-29T05:51:22.000Z</time>
</trkpt>
<trkpt lat="45.9227390" lon="10.2967750">
	<ele>673.20</ele>
	<time>2025-07-29T05:51:23.000Z</time>
</trkpt>
<trkpt lat="45.9227300" lon="10.2967730">
	<ele>673.40</ele>
	<time>2025-07-29T05:51:24.000Z</time>
</trkpt>
<trkpt lat="45.9227260" lon="10.2967780">
	<ele>673.60</ele>
	<time>2025-07-29T05:51:25.000Z</time>
</trkpt>
<trkpt lat="45.9227220" lon="10.2967860">
	<ele>673.80</ele>
	<time>2025-07-29T05:51:26.000Z</time>
</trkpt>
<trkpt lat="45.9227160" lon="10.2967940">
	<ele>674.20</ele>
	<time>2025-07-29T05:51:27.000Z</time>
</trkpt>
<trkpt lat="45.9227100" lon="10.2968030">
	<ele>674.20</ele>
	<time>2025-07-29T05:51:28.000Z</time>
</trkpt>
<trkpt lat="45.9227060" lon="10.2968080">
	<ele>674.40</ele>
	<time>2025-07-29T05:51:29.000Z</time>
</trkpt>
<trkpt lat="45.9227030" lon="10.2968110">
	<ele>674.60</ele>
	<time>2025-07-29T05:51:30.000Z</time>
</trkpt>
<trkpt lat="45.9226980" lon="10.2968180">
	<ele>674.60</ele>
	<time>2025-07-29T05:51:31.000Z</time>
</trkpt>
<trkpt lat="45.9226910" lon="10.2968230">
	<ele>675.00</ele>
	<time>2025-07-29T05:51:32.000Z</time>
</trkpt>
<trkpt lat="45.9226830" lon="10.2968240">
	<ele>675.20</ele>
	<time>2025-07-29T05:51:33.000Z</time>
</trkpt>
<trkpt lat="45.9226780" lon="10.2968340">
	<ele>675.40</ele>
	<time>2025-07-29T05:51:34.000Z</time>
</trkpt>
<trkpt lat="45.9226710" lon="10.2968430">
	<ele>675.40</ele>
	<time>2025-07-29T05:51:35.000Z</time>
</trkpt>
<trkpt lat="45.9226660" lon="10.2968530">
	<ele>675.80</ele>
	<time>2025-07-29T05:51:36.000Z</time>
</trkpt>
<trkpt lat="45.9226600" lon="10.2968640">
	<ele>675.80</ele>
	<time>2025-07-29T05:51:37.000Z</time>
</trkpt>
<trkpt lat="45.9226560" lon="10.2968770">
	<ele>676.00</ele>
	<time>2025-07-29T05:51:38.000Z</time>
</trkpt>
<trkpt lat="45.9226540" lon="10.2968900">
	<ele>676.20</ele>
	<time>2025-07-29T05:51:39.000Z</time>
</trkpt>
<trkpt lat="45.9226520" lon="10.2969040">
	<ele>676.20</ele>
	<time>2025-07-29T05:51:40.000Z</time>
</trkpt>
<trkpt lat="45.9226450" lon="10.2969180">
	<ele>676.60</ele>
	<time>2025-07-29T05:51:41.000Z</time>
</trkpt>
<trkpt lat="45.9226340" lon="10.2969330">
	<ele>676.60</ele>
	<time>2025-07-29T05:51:42.000Z</time>
</trkpt>
<trkpt lat="45.9226240" lon="10.2969400">
	<ele>676.80</ele>
	<time>2025-07-29T05:51:43.000Z</time>
</trkpt>
<trkpt lat="45.9226200" lon="10.2969500">
	<ele>677.00</ele>
	<time>2025-07-29T05:51:44.000Z</time>
</trkpt>
<trkpt lat="45.9226180" lon="10.2969610">
	<ele>677.20</ele>
	<time>2025-07-29T05:51:45.000Z</time>
</trkpt>
<trkpt lat="45.9226170" lon="10.2969700">
	<ele>677.40</ele>
	<time>2025-07-29T05:51:46.000Z</time>
</trkpt>
<trkpt lat="45.9226180" lon="10.2969780">
	<ele>677.40</ele>
	<time>2025-07-29T05:51:47.000Z</time>
</trkpt>
<trkpt lat="45.9226210" lon="10.2969830">
	<ele>677.60</ele>
	<time>2025-07-29T05:51:48.000Z</time>
</trkpt>
<trkpt lat="45.9226290" lon="10.2969970">
	<ele>677.80</ele>
	<time>2025-07-29T05:51:49.000Z</time>
</trkpt>
<trkpt lat="45.9226280" lon="10.2970170">
	<ele>678.00</ele>
	<time>2025-07-29T05:51:50.000Z</time>
</trkpt>
<trkpt lat="45.9226240" lon="10.2970310">
	<ele>678.20</ele>
	<time>2025-07-29T05:51:51.000Z</time>
</trkpt>
<trkpt lat="45.9226240" lon="10.2970360">
	<ele>678.40</ele>
	<time>2025-07-29T05:51:52.000Z</time>
</trkpt>
<trkpt lat="45.9226240" lon="10.2970460">
	<ele>678.60</ele>
	<time>2025-07-29T05:51:53.000Z</time>
</trkpt>
<trkpt lat="45.9226180" lon="10.2970600">
	<ele>678.80</ele>
	<time>2025-07-29T05:51:54.000Z</time>
</trkpt>
<trkpt lat="45.9226100" lon="10.2970730">
	<ele>679.00</ele>
	<time>2025-07-29T05:51:55.000Z</time>
</trkpt>
<trkpt lat="45.9226020" lon="10.2970860">
	<ele>679.20</ele>
	<time>2025-07-29T05:51:56.000Z</time>
</trkpt>
<trkpt lat="45.9226000" lon="10.2970940">
	<ele>679.40</ele>
	<time>2025-07-29T05:51:57.000Z</time>
</trkpt>
<trkpt lat="45.9226010" lon="10.2971070">
	<ele>679.60</ele>
	<time>2025-07-29T05:51:58.000Z</time>
</trkpt>
<trkpt lat="45.9225990" lon="10.2971200">
	<ele>679.80</ele>
	<time>2025-07-29T05:51:59.000Z</time>
</trkpt>
<trkpt lat="45.9226000" lon="10.2971340">
	<ele>679.80</ele>
	<time>2025-07-29T05:52:00.000Z</time>
</trkpt>
<trkpt lat="45.9226000" lon="10.2971460">
	<ele>680.00</ele>
	<time>2025-07-29T05:52:01.000Z</time>
</trkpt>
<trkpt lat="45.9226010" lon="10.2971510">
	<ele>680.20</ele>
	<time>2025-07-29T05:52:02.000Z</time>
</trkpt>
<trkpt lat="45.9226020" lon="10.2971660">
	<ele>680.40</ele>
	<time>2025-07-29T05:52:03.000Z</time>
</trkpt>
<trkpt lat="45.9226010" lon="10.2971810">
	<ele>680.60</ele>
	<time>2025-07-29T05:52:04.000Z</time>
</trkpt>
<trkpt lat="45.9226010" lon="10.2972030">
	<ele>680.80</ele>
	<time>2025-07-29T05:52:05.000Z</time>
</trkpt>
<trkpt lat="45.9226010" lon="10.2972210">
	<ele>681.00</ele>
	<time>2025-07-29T05:52:06.000Z</time>
</trkpt>
<trkpt lat="45.9225940" lon="10.2972210">
	<ele>681.00</ele>
	<time>2025-07-29T05:52:07.000Z</time>
</trkpt>
<trkpt lat="45.9225780" lon="10.2972270">
	<ele>681.20</ele>
	<time>2025-07-29T05:52:08.000Z</time>
</trkpt>
<trkpt lat="45.9225700" lon="10.2972350">
	<ele>681.60</ele>
	<time>2025-07-29T05:52:09.000Z</time>
</trkpt>
<trkpt lat="45.9225630" lon="10.2972380">
	<ele>681.80</ele>
	<time>2025-07-29T05:52:10.000Z</time>
</trkpt>
<trkpt lat="45.9225590" lon="10.2972440">
	<ele>682.20</ele>
	<time>2025-07-29T05:52:11.000Z</time>
</trkpt>
<trkpt lat="45.9225620" lon="10.2972560">
	<ele>682.40</ele>
	<time>2025-07-29T05:52:12.000Z</time>
</trkpt>
<trkpt lat="45.9225680" lon="10.2972720">
	<ele>682.40</ele>
	<time>2025-07-29T05:52:13.000Z</time>
</trkpt>
<trkpt lat="45.9225720" lon="10.2972850">
	<ele>682.80</ele>
	<time>2025-07-29T05:52:14.000Z</time>
</trkpt>
<trkpt lat="45.9225680" lon="10.2972990">
	<ele>683.00</ele>
	<time>2025-07-29T05:52:15.000Z</time>
</trkpt>
<trkpt lat="45.9225650" lon="10.2973160">
	<ele>683.20</ele>
	<time>2025-07-29T05:52:16.000Z</time>
</trkpt>
<trkpt lat="45.9225520" lon="10.2973300">
	<ele>683.40</ele>
	<time>2025-07-29T05:52:17.000Z</time>
</trkpt>
<trkpt lat="45.9225340" lon="10.2973400">
	<ele>683.60</ele>
	<time>2025-07-29T05:52:18.000Z</time>
</trkpt>
<trkpt lat="45.9225260" lon="10.2973440">
	<ele>684.00</ele>
	<time>2025-07-29T05:52:19.000Z</time>
</trkpt>
<trkpt lat="45.9225210" lon="10.2973470">
	<ele>684.00</ele>
	<time>2025-07-29T05:52:20.000Z</time>
</trkpt>
<trkpt lat="45.9225120" lon="10.2973510">
	<ele>684.20</ele>
	<time>2025-07-29T05:52:21.000Z</time>
</trkpt>
<trkpt lat="45.9225000" lon="10.2973490">
	<ele>684.40</ele>
	<time>2025-07-29T05:52:22.000Z</time>
</trkpt>
<trkpt lat="45.9224920" lon="10.2973530">
	<ele>684.60</ele>
	<time>2025-07-29T05:52:23.000Z</time>
</trkpt>
<trkpt lat="45.9224830" lon="10.2973560">
	<ele>685.00</ele>
	<time>2025-07-29T05:52:24.000Z</time>
</trkpt>
<trkpt lat="45.9224730" lon="10.2973630">
	<ele>685.20</ele>
	<time>2025-07-29T05:52:25.000Z</time>
</trkpt>
<trkpt lat="45.9224700" lon="10.2973700">
	<ele>685.40</ele>
	<time>2025-07-29T05:52:26.000Z</time>
</trkpt>
<trkpt lat="45.9224670" lon="10.2973760">
	<ele>685.80</ele>
	<time>2025-07-29T05:52:27.000Z</time>
</trkpt>
<trkpt lat="45.9224630" lon="10.2973830">
	<ele>685.80</ele>
	<time>2025-07-29T05:52:28.000Z</time>
</trkpt>
<trkpt lat="45.9224600" lon="10.2973880">
	<ele>686.20</ele>
	<time>2025-07-29T05:52:29.000Z</time>
</trkpt>
<trkpt lat="45.9224550" lon="10.2973940">
	<ele>686.40</ele>
	<time>2025-07-29T05:52:30.000Z</time>
</trkpt>
<trkpt lat="45.9224490" lon="10.2973990">
	<ele>686.40</ele>
	<time>2025-07-29T05:52:31.000Z</time>
</trkpt>
<trkpt lat="45.9224440" lon="10.2974030">
	<ele>686.60</ele>
	<time>2025-07-29T05:52:32.000Z</time>
</trkpt>
<trkpt lat="45.9224400" lon="10.2974050">
	<ele>686.80</ele>
	<time>2025-07-29T05:52:33.000Z</time>
</trkpt>
<trkpt lat="45.9224360" lon="10.2974100">
	<ele>687.20</ele>
	<time>2025-07-29T05:52:34.000Z</time>
</trkpt>
<trkpt lat="45.9224310" lon="10.2974110">
	<ele>687.40</ele>
	<time>2025-07-29T05:52:35.000Z</time>
</trkpt>
<trkpt lat="45.9224270" lon="10.2974220">
	<ele>687.60</ele>
	<time>2025-07-29T05:52:36.000Z</time>
</trkpt>
<trkpt lat="45.9224240" lon="10.2974290">
	<ele>687.60</ele>
	<time>2025-07-29T05:52:37.000Z</time>
</trkpt>
<trkpt lat="45.9224230" lon="10.2974420">
	<ele>688.00</ele>
	<time>2025-07-29T05:52:38.000Z</time>
</trkpt>
<trkpt lat="45.9224210" lon="10.2974530">
	<ele>688.20</ele>
	<time>2025-07-29T05:52:39.000Z</time>
</trkpt>
<trkpt lat="45.9224200" lon="10.2974750">
	<ele>688.40</ele>
	<time>2025-07-29T05:52:40.000Z</time>
</trkpt>
<trkpt lat="45.9224100" lon="10.2974850">
	<ele>688.60</ele>
	<time>2025-07-29T05:52:41.000Z</time>
</trkpt>
<trkpt lat="45.9224030" lon="10.2974920">
	<ele>688.80</ele>
	<time>2025-07-29T05:52:42.000Z</time>
</trkpt>
<trkpt lat="45.9224000" lon="10.2974940">
	<ele>689.00</ele>
	<time>2025-07-29T05:52:43.000Z</time>
</trkpt>
<trkpt lat="45.9223970" lon="10.2974980">
	<ele>689.20</ele>
	<time>2025-07-29T05:52:44.000Z</time>
</trkpt>
<trkpt lat="45.9223930" lon="10.2975010">
	<ele>689.60</ele>
	<time>2025-07-29T05:52:45.000Z</time>
</trkpt>
<trkpt lat="45.9223970" lon="10.2975060">
	<ele>689.80</ele>
	<time>2025-07-29T05:52:46.000Z</time>
</trkpt>
<trkpt lat="45.9223970" lon="10.2975190">
	<ele>690.00</ele>
	<time>2025-07-29T05:52:47.000Z</time>
</trkpt>
<trkpt lat="45.9223970" lon="10.2975370">
	<ele>690.00</ele>
	<time>2025-07-29T05:52:48.000Z</time>
</trkpt>
<trkpt lat="45.9223920" lon="10.2975530">
	<ele>690.40</ele>
	<time>2025-07-29T05:52:49.000Z</time>
</trkpt>
<trkpt lat="45.9223840" lon="10.2975620">
	<ele>690.40</ele>
	<time>2025-07-29T05:52:50.000Z</time>
</trkpt>
<trkpt lat="45.9223830" lon="10.2975640">
	<ele>690.80</ele>
	<time>2025-07-29T05:52:51.000Z</time>
</trkpt>
<trkpt lat="45.9223830" lon="10.2975680">
	<ele>691.00</ele>
	<time>2025-07-29T05:52:52.000Z</time>
</trkpt>
<trkpt lat="45.9223810" lon="10.2975740">
	<ele>691.40</ele>
	<time>2025-07-29T05:52:53.000Z</time>
</trkpt>
<trkpt lat="45.9223810" lon="10.2975800">
	<ele>691.60</ele>
	<time>2025-07-29T05:52:54.000Z</time>
</trkpt>
<trkpt lat="45.9223750" lon="10.2975880">
	<ele>691.80</ele>
	<time>2025-07-29T05:52:55.000Z</time>
</trkpt>
<trkpt lat="45.9223670" lon="10.2975980">
	<ele>691.80</ele>
	<time>2025-07-29T05:52:56.000Z</time>
</trkpt>
<trkpt lat="45.9223580" lon="10.2976050">
	<ele>692.00</ele>
	<time>2025-07-29T05:52:57.000Z</time>
</trkpt>
<trkpt lat="45.9223500" lon="10.2976100">
	<ele>692.40</ele>
	<time>2025-07-29T05:52:58.000Z</time>
</trkpt>
<trkpt lat="45.9223490" lon="10.2976180">
	<ele>692.40</ele>
	<time>2025-07-29T05:52:59.000Z</time>
</trkpt>
<trkpt lat="45.9223510" lon="10.2976300">
	<ele>692.60</ele>
	<time>2025-07-29T05:53:00.000Z</time>
</trkpt>
<trkpt lat="45.9223510" lon="10.2976350">
	<ele>693.00</ele>
	<time>2025-07-29T05:53:01.000Z</time>
</trkpt>
<trkpt lat="45.9223490" lon="10.2976530">
	<ele>693.20</ele>
	<time>2025-07-29T05:53:02.000Z</time>
</trkpt>
<trkpt lat="45.9223450" lon="10.2976720">
	<ele>693.40</ele>
	<time>2025-07-29T05:53:03.000Z</time>
</trkpt>
<trkpt lat="45.9223410" lon="10.2976960">
	<ele>693.60</ele>
	<time>2025-07-29T05:53:04.000Z</time>
</trkpt>
<trkpt lat="45.9223340" lon="10.2977090">
	<ele>693.80</ele>
	<time>2025-07-29T05:53:05.000Z</time>
</trkpt>
<trkpt lat="45.9223280" lon="10.2977160">
	<ele>694.00</ele>
	<time>2025-07-29T05:53:06.000Z</time>
</trkpt>
<trkpt lat="45.9223220" lon="10.2977260">
	<ele>694.20</ele>
	<time>2025-07-29T05:53:07.000Z</time>
</trkpt>
<trkpt lat="45.9223160" lon="10.2977380">
	<ele>694.40</ele>
	<time>2025-07-29T05:53:08.000Z</time>
</trkpt>
<trkpt lat="45.9223030" lon="10.2977470">
	<ele>694.60</ele>
	<time>2025-07-29T05:53:09.000Z</time>
</trkpt>
<trkpt lat="45.9222880" lon="10.2977480">
	<ele>694.80</ele>
	<time>2025-07-29T05:53:10.000Z</time>
</trkpt>
<trkpt lat="45.9222780" lon="10.2977500">
	<ele>695.00</ele>
	<time>2025-07-29T05:53:11.000Z</time>
</trkpt>
<trkpt lat="45.9222670" lon="10.2977560">
	<ele>695.20</ele>
	<time>2025-07-29T05:53:12.000Z</time>
</trkpt>
<trkpt lat="45.9222610" lon="10.2977620">
	<ele>695.40</ele>
	<time>2025-07-29T05:53:13.000Z</time>
</trkpt>
<trkpt lat="45.9222560" lon="10.2977630">
	<ele>695.60</ele>
	<time>2025-07-29T05:53:14.000Z</time>
</trkpt>
<trkpt lat="45.9222560" lon="10.2977710">
	<ele>695.80</ele>
	<time>2025-07-29T05:53:15.000Z</time>
</trkpt>
<trkpt lat="45.9222510" lon="10.2977810">
	<ele>696.00</ele>
	<time>2025-07-29T05:53:16.000Z</time>
</trkpt>
<trkpt lat="45.9222440" lon="10.2977910">
	<ele>696.20</ele>
	<time>2025-07-29T05:53:17.000Z</time>
</trkpt>
<trkpt lat="45.9222400" lon="10.2978030">
	<ele>696.40</ele>
	<time>2025-07-29T05:53:18.000Z</time>
</trkpt>
<trkpt lat="45.9222350" lon="10.2978100">
	<ele>696.40</ele>
	<time>2025-07-29T05:53:19.000Z</time>
</trkpt>
<trkpt lat="45.9222340" lon="10.2978140">
	<ele>696.60</ele>
	<time>2025-07-29T05:53:20.000Z</time>
</trkpt>
<trkpt lat="45.9222270" lon="10.2978170">
	<ele>696.80</ele>
	<time>2025-07-29T05:53:21.000Z</time>
</trkpt>
<trkpt lat="45.9222150" lon="10.2978190">
	<ele>697.00</ele>
	<time>2025-07-29T05:53:22.000Z</time>
</trkpt>
<trkpt lat="45.9221990" lon="10.2978260">
	<ele>697.20</ele>
	<time>2025-07-29T05:53:23.000Z</time>
</trkpt>
<trkpt lat="45.9221890" lon="10.2978340">
	<ele>697.40</ele>
	<time>2025-07-29T05:53:24.000Z</time>
</trkpt>
<trkpt lat="45.9221840" lon="10.2978460">
	<ele>697.60</ele>
	<time>2025-07-29T05:53:25.000Z</time>
</trkpt>
<trkpt lat="45.9221780" lon="10.2978560">
	<ele>697.60</ele>
	<time>2025-07-29T05:53:26.000Z</time>
</trkpt>
<trkpt lat="45.9221700" lon="10.2978700">
	<ele>697.80</ele>
	<time>2025-07-29T05:53:27.000Z</time>
</trkpt>
<trkpt lat="45.9221630" lon="10.2978790">
	<ele>698.00</ele>
	<time>2025-07-29T05:53:28.000Z</time>
</trkpt>
<trkpt lat="45.9221600" lon="10.2978810">
	<ele>698.20</ele>
	<time>2025-07-29T05:53:29.000Z</time>
</trkpt>
<trkpt lat="45.9221480" lon="10.2978890">
	<ele>698.40</ele>
	<time>2025-07-29T05:53:30.000Z</time>
</trkpt>
<trkpt lat="45.9221440" lon="10.2978910">
	<ele>698.60</ele>
	<time>2025-07-29T05:53:31.000Z</time>
</trkpt>
<trkpt lat="45.9221420" lon="10.2978960">
	<ele>698.60</ele>
	<time>2025-07-29T05:53:32.000Z</time>
</trkpt>
<trkpt lat="45.9221370" lon="10.2978990">
	<ele>698.80</ele>
	<time>2025-07-29T05:53:33.000Z</time>
</trkpt>
<trkpt lat="45.9221320" lon="10.2979010">
	<ele>699.00</ele>
	<time>2025-07-29T05:53:34.000Z</time>
</trkpt>
<trkpt lat="45.9221260" lon="10.2979020">
	<ele>699.00</ele>
	<time>2025-07-29T05:53:35.000Z</time>
</trkpt>
<trkpt lat="45.9221240" lon="10.2979060">
	<ele>699.20</ele>
	<time>2025-07-29T05:53:36.000Z</time>
</trkpt>
<trkpt lat="45.9221180" lon="10.2979120">
	<ele>699.40</ele>
	<time>2025-07-29T05:53:37.000Z</time>
</trkpt>
<trkpt lat="45.9221070" lon="10.2979200">
	<ele>699.60</ele>
	<time>2025-07-29T05:53:38.000Z</time>
</trkpt>
<trkpt lat="45.9220980" lon="10.2979320">
	<ele>700.00</ele>
	<time>2025-07-29T05:53:39.000Z</time>
</trkpt>
<trkpt lat="45.9220920" lon="10.2979430">
	<ele>700.20</ele>
	<time>2025-07-29T05:53:40.000Z</time>
</trkpt>
<trkpt lat="45.9220840" lon="10.2979560">
	<ele>700.40</ele>
	<time>2025-07-29T05:53:41.000Z</time>
</trkpt>
<trkpt lat="45.9220730" lon="10.2979680">
	<ele>700.60</ele>
	<time>2025-07-29T05:53:42.000Z</time>
</trkpt>
<trkpt lat="45.9220690" lon="10.2979720">
	<ele>701.00</ele>
	<time>2025-07-29T05:53:43.000Z</time>
</trkpt>
<trkpt lat="45.9220610" lon="10.2979800">
	<ele>701.20</ele>
	<time>2025-07-29T05:53:44.000Z</time>
</trkpt>
<trkpt lat="45.9220530" lon="10.2979900">
	<ele>701.40</ele>
	<time>2025-07-29T05:53:45.000Z</time>
</trkpt>
<trkpt lat="45.9220500" lon="10.2980000">
	<ele>701.60</ele>
	<time>2025-07-29T05:53:46.000Z</time>
</trkpt>
<trkpt lat="45.9220440" lon="10.2980080">
	<ele>701.80</ele>
	<time>2025-07-29T05:53:47.000Z</time>
</trkpt>
<trkpt lat="45.9220400" lon="10.2980160">
	<ele>702.00</ele>
	<time>2025-07-29T05:53:48.000Z</time>
</trkpt>
<trkpt lat="45.9220360" lon="10.2980240">
	<ele>702.20</ele>
	<time>2025-07-29T05:53:49.000Z</time>
</trkpt>
<trkpt lat="45.9220230" lon="10.2980330">
	<ele>702.40</ele>
	<time>2025-07-29T05:53:50.000Z</time>
</trkpt>
<trkpt lat="45.9220160" lon="10.2980400">
	<ele>702.60</ele>
	<time>2025-07-29T05:53:51.000Z</time>
</trkpt>
<trkpt lat="45.9220100" lon="10.2980480">
	<ele>702.80</ele>
	<time>2025-07-29T05:53:52.000Z</time>
</trkpt>
<trkpt lat="45.9220020" lon="10.2980540">
	<ele>703.20</ele>
	<time>2025-07-29T05:53:53.000Z</time>
</trkpt>
<trkpt lat="45.9219960" lon="10.2980570">
	<ele>703.40</ele>
	<time>2025-07-29T05:53:54.000Z</time>
</trkpt>
<trkpt lat="45.9219950" lon="10.2980610">
	<ele>703.40</ele>
	<time>2025-07-29T05:53:55.000Z</time>
</trkpt>
<trkpt lat="45.9219930" lon="10.2980650">
	<ele>703.80</ele>
	<time>2025-07-29T05:53:56.000Z</time>
</trkpt>
<trkpt lat="45.9219840" lon="10.2980600">
	<ele>704.00</ele>
	<time>2025-07-29T05:53:57.000Z</time>
</trkpt>
<trkpt lat="45.9219820" lon="10.2980610">
	<ele>704.20</ele>
	<time>2025-07-29T05:53:58.000Z</time>
</trkpt>
<trkpt lat="45.9219810" lon="10.2980540">
	<ele>704.60</ele>
	<time>2025-07-29T05:53:59.000Z</time>
</trkpt>
<trkpt lat="45.9219750" lon="10.2980560">
	<ele>704.80</ele>
	<time>2025-07-29T05:54:00.000Z</time>
</trkpt>
<trkpt lat="45.9219700" lon="10.2980630">
	<ele>704.80</ele>
	<time>2025-07-29T05:54:01.000Z</time>
</trkpt>
<trkpt lat="45.9219660" lon="10.2980630">
	<ele>705.00</ele>
	<time>2025-07-29T05:54:02.000Z</time>
</trkpt>
<trkpt lat="45.9219610" lon="10.2980580">
	<ele>705.40</ele>
	<time>2025-07-29T05:54:03.000Z</time>
</trkpt>
<trkpt lat="45.9219580" lon="10.2980510">
	<ele>705.60</ele>
	<time>2025-07-29T05:54:04.000Z</time>
</trkpt>
<trkpt lat="45.9219560" lon="10.2980460">
	<ele>705.60</ele>
	<time>2025-07-29T05:54:05.000Z</time>
</trkpt>
<trkpt lat="45.9219560" lon="10.2980420">
	<ele>706.00</ele>
	<time>2025-07-29T05:54:06.000Z</time>
</trkpt>
<trkpt lat="45.9219710" lon="10.2980320">
	<ele>706.20</ele>
	<time>2025-07-29T05:54:07.000Z</time>
</trkpt>
<trkpt lat="45.9220060" lon="10.2980180">
	<ele>706.40</ele>
	<time>2025-07-29T05:54:08.000Z</time>
</trkpt>
<trkpt lat="45.9220260" lon="10.2980110">
	<ele>706.60</ele>
	<time>2025-07-29T05:54:09.000Z</time>
</trkpt>
<trkpt lat="45.9220310" lon="10.2980100">
	<ele>706.80</ele>
	<time>2025-07-29T05:54:10.000Z</time>
</trkpt>
<trkpt lat="45.9220300" lon="10.2979900">
	<ele>707.00</ele>
	<time>2025-07-29T05:54:11.000Z</time>
</trkpt>
<trkpt lat="45.9220230" lon="10.2979720">
	<ele>707.40</ele>
	<time>2025-07-29T05:54:12.000Z</time>
</trkpt>
<trkpt lat="45.9220220" lon="10.2979640">
	<ele>707.60</ele>
	<time>2025-07-29T05:54:13.000Z</time>
</trkpt>
<trkpt lat="45.9220210" lon="10.2979510">
	<ele>707.80</ele>
	<time>2025-07-29T05:54:14.000Z</time>
</trkpt>
<trkpt lat="45.9220250" lon="10.2979390">
	<ele>708.00</ele>
	<time>2025-07-29T05:54:15.000Z</time>
</trkpt>
<trkpt lat="45.9220330" lon="10.2979250">
	<ele>708.20</ele>
	<time>2025-07-29T05:54:16.000Z</time>
</trkpt>
<trkpt lat="45.9220350" lon="10.2979090">
	<ele>708.60</ele>
	<time>2025-07-29T05:54:17.000Z</time>
</trkpt>
<trkpt lat="45.9220340" lon="10.2978970">
	<ele>708.80</ele>
	<time>2025-07-29T05:54:18.000Z</time>
</trkpt>
<trkpt lat="45.9220330" lon="10.2978840">
	<ele>709.00</ele>
	<time>2025-07-29T05:54:19.000Z</time>
</trkpt>
<trkpt lat="45.9220260" lon="10.2978660">
	<ele>709.00</ele>
	<time>2025-07-29T05:54:20.000Z</time>
</trkpt>
<trkpt lat="45.9220240" lon="10.2978580">
	<ele>709.20</ele>
	<time>2025-07-29T05:54:21.000Z</time>
</trkpt>
<trkpt lat="45.9220310" lon="10.2978520">
	<ele>709.40</ele>
	<time>2025-07-29T05:54:22.000Z</time>
</trkpt>
<trkpt lat="45.9220340" lon="10.2978380">
	<ele>709.60</ele>
	<time>2025-07-29T05:54:23.000Z</time>
</trkpt>
<trkpt lat="45.9220320" lon="10.2978320">
	<ele>709.60</ele>
	<time>2025-07-29T05:54:24.000Z</time>
</trkpt>
<trkpt lat="45.9220320" lon="10.2978280">
	<ele>709.80</ele>
	<time>2025-07-29T05:54:25.000Z</time>
</trkpt>
<trkpt lat="45.9220130" lon="10.2978090">
	<ele>710.20</ele>
	<time>2025-07-29T05:54:26.000Z</time>
</trkpt>
<trkpt lat="45.9220120" lon="10.2978030">
	<ele>710.40</ele>
	<time>2025-07-29T05:54:27.000Z</time>
</trkpt>
<trkpt lat="45.9220100" lon="10.2977910">
	<ele>710.60</ele>
	<time>2025-07-29T05:54:28.000Z</time>
</trkpt>
<trkpt lat="45.9220190" lon="10.2977830">
	<ele>710.60</ele>
	<time>2025-07-29T05:54:29.000Z</time>
</trkpt>
<trkpt lat="45.9220230" lon="10.2977740">
	<ele>710.80</ele>
	<time>2025-07-29T05:54:30.000Z</time>
</trkpt>
<trkpt lat="45.9220230" lon="10.2977570">
	<ele>710.80</ele>
	<time>2025-07-29T05:54:31.000Z</time>
</trkpt>
<trkpt lat="45.9220220" lon="10.2977380">
	<ele>710.80</ele>
	<time>2025-07-29T05:54:32.000Z</time>
</trkpt>
<trkpt lat="45.9220250" lon="10.2977270">
	<ele>711.00</ele>
	<time>2025-07-29T05:54:33.000Z</time>
</trkpt>
<trkpt lat="45.9220240" lon="10.2977140">
	<ele>711.00</ele>
	<time>2025-07-29T05:54:34.000Z</time>
</trkpt>
<trkpt lat="45.9220190" lon="10.2976990">
	<ele>711.20</ele>
	<time>2025-07-29T05:54:35.000Z</time>
</trkpt>
<trkpt lat="45.9220080" lon="10.2976870">
	<ele>711.20</ele>
	<time>2025-07-29T05:54:36.000Z</time>
</trkpt>
<trkpt lat="45.9219980" lon="10.2976650">
	<ele>711.40</ele>
	<time>2025-07-29T05:54:37.000Z</time>
</trkpt>
<trkpt lat="45.9219920" lon="10.2976520">
	<ele>711.40</ele>
	<time>2025-07-29T05:54:38.000Z</time>
</trkpt>
<trkpt lat="45.9219880" lon="10.2976400">
	<ele>711.60</ele>
	<time>2025-07-29T05:54:39.000Z</time>
</trkpt>
<trkpt lat="45.9219860" lon="10.2976260">
	<ele>711.60</ele>
	<time>2025-07-29T05:54:40.000Z</time>
</trkpt>
<trkpt lat="45.9219830" lon="10.2976150">
	<ele>711.80</ele>
	<time>2025-07-29T05:54:41.000Z</time>
</trkpt>
<trkpt lat="45.9219760" lon="10.2976030">
	<ele>711.80</ele>
	<time>2025-07-29T05:54:42.000Z</time>
</trkpt>
<trkpt lat="45.9219710" lon="10.2975910">
	<ele>711.80</ele>
	<time>2025-07-29T05:54:43.000Z</time>
</trkpt>
<trkpt lat="45.9219670" lon="10.2975810">
	<ele>712.00</ele>
	<time>2025-07-29T05:54:44.000Z</time>
</trkpt>
<trkpt lat="45.9219670" lon="10.2975700">
	<ele>712.20</ele>
	<time>2025-07-29T05:54:45.000Z</time>
</trkpt>
<trkpt lat="45.9219650" lon="10.2975580">
	<ele>712.20</ele>
	<time>2025-07-29T05:54:46.000Z</time>
</trkpt>
<trkpt lat="45.9219590" lon="10.2975400">
	<ele>712.40</ele>
	<time>2025-07-29T05:54:47.000Z</time>
</trkpt>
<trkpt lat="45.9219510" lon="10.2975330">
	<ele>712.40</ele>
	<time>2025-07-29T05:54:48.000Z</time>
</trkpt>
<trkpt lat="45.9219440" lon="10.2975240">
	<ele>712.60</ele>
	<time>2025-07-29T05:54:49.000Z</time>
</trkpt>
<trkpt lat="45.9219390" lon="10.2975120">
	<ele>712.60</ele>
	<time>2025-07-29T05:54:50.000Z</time>
</trkpt>
<trkpt lat="45.9219340" lon="10.2974970">
	<ele>712.60</ele>
	<time>2025-07-29T05:54:51.000Z</time>
</trkpt>
<trkpt lat="45.9219280" lon="10.2974830">
	<ele>712.80</ele>
	<time>2025-07-29T05:54:52.000Z</time>
</trkpt>
<trkpt lat="45.9219260" lon="10.2974710">
	<ele>712.80</ele>
	<time>2025-07-29T05:54:53.000Z</time>
</trkpt>
<trkpt lat="45.9219220" lon="10.2974580">
	<ele>713.00</ele>
	<time>2025-07-29T05:54:54.000Z</time>
</trkpt>
<trkpt lat="45.9219170" lon="10.2974440">
	<ele>713.20</ele>
	<time>2025-07-29T05:54:55.000Z</time>
</trkpt>
<trkpt lat="45.9219160" lon="10.2974290">
	<ele>713.20</ele>
	<time>2025-07-29T05:54:56.000Z</time>
</trkpt>
<trkpt lat="45.9219210" lon="10.2974180">
	<ele>713.40</ele>
	<time>2025-07-29T05:54:57.000Z</time>
</trkpt>
<trkpt lat="45.9219220" lon="10.2974030">
	<ele>713.40</ele>
	<time>2025-07-29T05:54:58.000Z</time>
</trkpt>
<trkpt lat="45.9219240" lon="10.2973850">
	<ele>713.60</ele>
	<time>2025-07-29T05:54:59.000Z</time>
</trkpt>
<trkpt lat="45.9219270" lon="10.2973630">
	<ele>713.80</ele>
	<time>2025-07-29T05:55:00.000Z</time>
</trkpt>
<trkpt lat="45.9219190" lon="10.2973410">
	<ele>714.00</ele>
	<time>2025-07-29T05:55:01.000Z</time>
</trkpt>
<trkpt lat="45.9219070" lon="10.2973220">
	<ele>714.00</ele>
	<time>2025-07-29T05:55:02.000Z</time>
</trkpt>
<trkpt lat="45.9219060" lon="10.2973060">
	<ele>714.20</ele>
	<time>2025-07-29T05:55:03.000Z</time>
</trkpt>
<trkpt lat="45.9219120" lon="10.2972880">
	<ele>714.40</ele>
	<time>2025-07-29T05:55:04.000Z</time>
</trkpt>
<trkpt lat="45.9219190" lon="10.2972750">
	<ele>714.40</ele>
	<time>2025-07-29T05:55:05.000Z</time>
</trkpt>
<trkpt lat="45.9219260" lon="10.2972620">
	<ele>714.60</ele>
	<time>2025-07-29T05:55:06.000Z</time>
</trkpt>
<trkpt lat="45.9219320" lon="10.2972470">
	<ele>715.00</ele>
	<time>2025-07-29T05:55:07.000Z</time>
</trkpt>
<trkpt lat="45.9219380" lon="10.2972370">
	<ele>715.20</ele>
	<time>2025-07-29T05:55:08.000Z</time>
</trkpt>
<trkpt lat="45.9219380" lon="10.2972230">
	<ele>715.20</ele>
	<time>2025-07-29T05:55:09.000Z</time>
</trkpt>
<trkpt lat="45.9219390" lon="10.2972060">
	<ele>715.40</ele>
	<time>2025-07-29T05:55:10.000Z</time>
</trkpt>
<trkpt lat="45.9219370" lon="10.2971890">
	<ele>715.80</ele>
	<time>2025-07-29T05:55:11.000Z</time>
</trkpt>
<trkpt lat="45.9219270" lon="10.2971780">
	<ele>716.00</ele>
	<time>2025-07-29T05:55:12.000Z</time>
</trkpt>
<trkpt lat="45.9219140" lon="10.2971800">
	<ele>716.20</ele>
	<time>2025-07-29T05:55:13.000Z</time>
</trkpt>
<trkpt lat="45.9219180" lon="10.2971750">
	<ele>716.40</ele>
	<time>2025-07-29T05:55:14.000Z</time>
</trkpt>
<trkpt lat="45.9219300" lon="10.2971640">
	<ele>716.60</ele>
	<time>2025-07-29T05:55:15.000Z</time>
</trkpt>
<trkpt lat="45.9219370" lon="10.2971450">
	<ele>716.80</ele>
	<time>2025-07-29T05:55:16.000Z</time>
</trkpt>
<trkpt lat="45.9219400" lon="10.2971270">
	<ele>717.00</ele>
	<time>2025-07-29T05:55:17.000Z</time>
</trkpt>
<trkpt lat="45.9219360" lon="10.2971130">
	<ele>717.20</ele>
	<time>2025-07-29T05:55:18.000Z</time>
</trkpt>
<trkpt lat="45.9219370" lon="10.2970960">
	<ele>717.40</ele>
	<time>2025-07-29T05:55:19.000Z</time>
</trkpt>
<trkpt lat="45.9219380" lon="10.2970740">
	<ele>717.60</ele>
	<time>2025-07-29T05:55:20.000Z</time>
</trkpt>
<trkpt lat="45.9219350" lon="10.2970610">
	<ele>717.60</ele>
	<time>2025-07-29T05:55:21.000Z</time>
</trkpt>
<trkpt lat="45.9219280" lon="10.2970530">
	<ele>717.80</ele>
	<time>2025-07-29T05:55:22.000Z</time>
</trkpt>
<trkpt lat="45.9219220" lon="10.2970380">
	<ele>718.00</ele>
	<time>2025-07-29T05:55:23.000Z</time>
</trkpt>
<trkpt lat="45.9219050" lon="10.2970270">
	<ele>718.20</ele>
	<time>2025-07-29T05:55:24.000Z</time>
</trkpt>
<trkpt lat="45.9218900" lon="10.2970170">
	<ele>718.40</ele>
	<time>2025-07-29T05:55:25.000Z</time>
</trkpt>
<trkpt lat="45.9218860" lon="10.2970030">
	<ele>718.60</ele>
	<time>2025-07-29T05:55:26.000Z</time>
</trkpt>
<trkpt lat="45.9218750" lon="10.2969930">
	<ele>718.80</ele>
	<time>2025-07-29T05:55:27.000Z</time>
</trkpt>
<trkpt lat="45.9218660" lon="10.2969830">
	<ele>719.20</ele>
	<time>2025-07-29T05:55:28.000Z</time>
</trkpt>
<trkpt lat="45.9218540" lon="10.2969760">
	<ele>719.20</ele>
	<time>2025-07-29T05:55:29.000Z</time>
</trkpt>
<trkpt lat="45.9218410" lon="10.2969650">
	<ele>719.40</ele>
	<time>2025-07-29T05:55:30.000Z</time>
</trkpt>
<trkpt lat="45.9218350" lon="10.2969520">
	<ele>719.40</ele>
	<time>2025-07-29T05:55:31.000Z</time>
</trkpt>
<trkpt lat="45.9218350" lon="10.2969390">
	<ele>719.80</ele>
	<time>2025-07-29T05:55:32.000Z</time>
</trkpt>
<trkpt lat="45.9218310" lon="10.2969270">
	<ele>720.00</ele>
	<time>2025-07-29T05:55:33.000Z</time>
</trkpt>
<trkpt lat="45.9218200" lon="10.2969180">
	<ele>720.00</ele>
	<time>2025-07-29T05:55:34.000Z</time>
</trkpt>
<trkpt lat="45.9218070" lon="10.2969130">
	<ele>720.20</ele>
	<time>2025-07-29T05:55:35.000Z</time>
</trkpt>
<trkpt lat="45.9218050" lon="10.2969080">
	<ele>720.20</ele>
	<time>2025-07-29T05:55:36.000Z</time>
</trkpt>
<trkpt lat="45.9218030" lon="10.2969050">
	<ele>720.20</ele>
	<time>2025-07-29T05:55:37.000Z</time>
</trkpt>
<trkpt lat="45.9218020" lon="10.2969010">
	<ele>720.40</ele>
	<time>2025-07-29T05:55:38.000Z</time>
</trkpt>
<trkpt lat="45.9217890" lon="10.2968920">
	<ele>720.40</ele>
	<time>2025-07-29T05:55:39.000Z</time>
</trkpt>
<trkpt lat="45.9217730" lon="10.2968810">
	<ele>720.60</ele>
	<time>2025-07-29T05:55:40.000Z</time>
</trkpt>
<trkpt lat="45.9217600" lon="10.2968670">
	<ele>720.80</ele>
	<time>2025-07-29T05:55:41.000Z</time>
</trkpt>
<trkpt lat="45.9217450" lon="10.2968500">
	<ele>720.80</ele>
	<time>2025-07-29T05:55:42.000Z</time>
</trkpt>
<trkpt lat="45.9217120" lon="10.2968140">
	<ele>720.80</ele>
	<time>2025-07-29T05:55:43.000Z</time>
</trkpt>
<trkpt lat="45.9216950" lon="10.2967950">
	<ele>720.80</ele>
	<time>2025-07-29T05:55:44.000Z</time>
</trkpt>
<trkpt lat="45.9216870" lon="10.2967790">
	<ele>720.80</ele>
	<time>2025-07-29T05:55:45.000Z</time>
</trkpt>
<trkpt lat="45.9216810" lon="10.2967660">
	<ele>721.00</ele>
	<time>2025-07-29T05:55:46.000Z</time>
</trkpt>
<trkpt lat="45.9216720" lon="10.2967460">
	<ele>721.00</ele>
	<time>2025-07-29T05:55:47.000Z</time>
</trkpt>
<trkpt lat="45.9216560" lon="10.2967310">
	<ele>721.00</ele>
	<time>2025-07-29T05:55:48.000Z</time>
</trkpt>
<trkpt lat="45.9216490" lon="10.2967200">
	<ele>721.20</ele>
	<time>2025-07-29T05:55:49.000Z</time>
</trkpt>
<trkpt lat="45.9216350" lon="10.2967110">
	<ele>721.20</ele>
	<time>2025-07-29T05:55:50.000Z</time>
</trkpt>
<trkpt lat="45.9216240" lon="10.2967030">
	<ele>721.40</ele>
	<time>2025-07-29T05:55:51.000Z</time>
</trkpt>
<trkpt lat="45.9216100" lon="10.2966910">
	<ele>721.60</ele>
	<time>2025-07-29T05:55:52.000Z</time>
</trkpt>
<trkpt lat="45.9216070" lon="10.2966890">
	<ele>721.60</ele>
	<time>2025-07-29T05:55:53.000Z</time>
</trkpt>
<trkpt lat="45.9215980" lon="10.2966680">
	<ele>721.80</ele>
	<time>2025-07-29T05:55:54.000Z</time>
</trkpt>
<trkpt lat="45.9215820" lon="10.2966420">
	<ele>722.00</ele>
	<time>2025-07-29T05:55:55.000Z</time>
</trkpt>
<trkpt lat="45.9215570" lon="10.2966170">
	<ele>722.00</ele>
	<time>2025-07-29T05:55:56.000Z</time>
</trkpt>
<trkpt lat="45.9215390" lon="10.2966030">
	<ele>722.20</ele>
	<time>2025-07-29T05:55:57.000Z</time>
</trkpt>
<trkpt lat="45.9215330" lon="10.2966020">
	<ele>722.20</ele>
	<time>2025-07-29T05:55:58.000Z</time>
</trkpt>
<trkpt lat="45.9215160" lon="10.2966050">
	<ele>722.40</ele>
	<time>2025-07-29T05:55:59.000Z</time>
</trkpt>
<trkpt lat="45.9215080" lon="10.2966050">
	<ele>722.60</ele>
	<time>2025-07-29T05:56:00.000Z</time>
</trkpt>
<trkpt lat="45.9215060" lon="10.2965960">
	<ele>722.60</ele>
	<time>2025-07-29T05:56:01.000Z</time>
</trkpt>
<trkpt lat="45.9215020" lon="10.2965940">
	<ele>722.60</ele>
	<time>2025-07-29T05:56:02.000Z</time>
</trkpt>
<trkpt lat="45.9214990" lon="10.2965970">
	<ele>722.60</ele>
	<time>2025-07-29T05:56:03.000Z</time>
</trkpt>
<trkpt lat="45.9214970" lon="10.2965820">
	<ele>722.60</ele>
	<time>2025-07-29T05:56:04.000Z</time>
</trkpt>
<trkpt lat="45.9214910" lon="10.2965730">
	<ele>722.60</ele>
	<time>2025-07-29T05:56:05.000Z</time>
</trkpt>
<trkpt lat="45.9214810" lon="10.2965640">
	<ele>722.80</ele>
	<time>2025-07-29T05:56:06.000Z</time>
</trkpt>
<trkpt lat="45.9214750" lon="10.2965600">
	<ele>722.80</ele>
	<time>2025-07-29T05:56:07.000Z</time>
</trkpt>
<trkpt lat="45.9214690" lon="10.2965530">
	<ele>722.80</ele>
	<time>2025-07-29T05:56:08.000Z</time>
</trkpt>
<trkpt lat="45.9214610" lon="10.2965530">
	<ele>723.00</ele>
	<time>2025-07-29T05:56:09.000Z</time>
</trkpt>
<trkpt lat="45.9214510" lon="10.2965440">
	<ele>723.20</ele>
	<time>2025-07-29T05:56:10.000Z</time>
</trkpt>
<trkpt lat="45.9214420" lon="10.2965440">
	<ele>723.20</ele>
	<time>2025-07-29T05:56:11.000Z</time>
</trkpt>
<trkpt lat="45.9214300" lon="10.2965430">
	<ele>723.40</ele>
	<time>2025-07-29T05:56:12.000Z</time>
</trkpt>
<trkpt lat="45.9214160" lon="10.2965320">
	<ele>723.60</ele>
	<time>2025-07-29T05:56:13.000Z</time>
</trkpt>
<trkpt lat="45.9214050" lon="10.2965260">
	<ele>723.60</ele>
	<time>2025-07-29T05:56:14.000Z</time>
</trkpt>
<trkpt lat="45.9214010" lon="10.2965300">
	<ele>723.80</ele>
	<time>2025-07-29T05:56:15.000Z</time>
</trkpt>
<trkpt lat="45.9214000" lon="10.2965320">
	<ele>723.80</ele>
	<time>2025-07-29T05:56:16.000Z</time>
</trkpt>
<trkpt lat="45.9213950" lon="10.2965300">
	<ele>724.00</ele>
	<time>2025-07-29T05:56:17.000Z</time>
</trkpt>
<trkpt lat="45.9213890" lon="10.2965300">
	<ele>724.20</ele>
	<time>2025-07-29T05:56:18.000Z</time>
</trkpt>
<trkpt lat="45.9213820" lon="10.2965190">
	<ele>724.20</ele>
	<time>2025-07-29T05:56:19.000Z</time>
</trkpt>
<trkpt lat="45.9213750" lon="10.2965110">
	<ele>724.40</ele>
	<time>2025-07-29T05:56:20.000Z</time>
</trkpt>
<trkpt lat="45.9213660" lon="10.2965140">
	<ele>724.60</ele>
	<time>2025-07-29T05:56:21.000Z</time>
</trkpt>
<trkpt lat="45.9213520" lon="10.2965140">
	<ele>724.80</ele>
	<time>2025-07-29T05:56:22.000Z</time>
</trkpt>
<trkpt lat="45.9213350" lon="10.2965030">
	<ele>724.80</ele>
	<time>2025-07-29T05:56:23.000Z</time>
</trkpt>
<trkpt lat="45.9213160" lon="10.2964960">
	<ele>725.00</ele>
	<time>2025-07-29T05:56:24.000Z</time>
</trkpt>
<trkpt lat="45.9213000" lon="10.2964910">
	<ele>725.20</ele>
	<time>2025-07-29T05:56:25.000Z</time>
</trkpt>
<trkpt lat="45.9212890" lon="10.2964890">
	<ele>725.20</ele>
	<time>2025-07-29T05:56:26.000Z</time>
</trkpt>
<trkpt lat="45.9212800" lon="10.2964870">
	<ele>725.40</ele>
	<time>2025-07-29T05:56:27.000Z</time>
</trkpt>
<trkpt lat="45.9212660" lon="10.2964900">
	<ele>725.60</ele>
	<time>2025-07-29T05:56:28.000Z</time>
</trkpt>
<trkpt lat="45.9212530" lon="10.2964930">
	<ele>725.80</ele>
	<time>2025-07-29T05:56:29.000Z</time>
</trkpt>
<trkpt lat="45.9212410" lon="10.2964960">
	<ele>725.80</ele>
	<time>2025-07-29T05:56:30.000Z</time>
</trkpt>
<trkpt lat="45.9212350" lon="10.2965020">
	<ele>726.00</ele>
	<time>2025-07-29T05:56:31.000Z</time>
</trkpt>
<trkpt lat="45.9212220" lon="10.2965080">
	<ele>726.00</ele>
	<time>2025-07-29T05:56:32.000Z</time>
</trkpt>
<trkpt lat="45.9212120" lon="10.2965120">
	<ele>726.20</ele>
	<time>2025-07-29T05:56:33.000Z</time>
</trkpt>
<trkpt lat="45.9211990" lon="10.2965180">
	<ele>726.20</ele>
	<time>2025-07-29T05:56:34.000Z</time>
</trkpt>
<trkpt lat="45.9211890" lon="10.2965230">
	<ele>726.40</ele>
	<time>2025-07-29T05:56:35.000Z</time>
</trkpt>
<trkpt lat="45.9211750" lon="10.2965280">
	<ele>726.60</ele>
	<time>2025-07-29T05:56:36.000Z</time>
</trkpt>
<trkpt lat="45.9211620" lon="10.2965330">
	<ele>726.80</ele>
	<time>2025-07-29T05:56:37.000Z</time>
</trkpt>
<trkpt lat="45.9211520" lon="10.2965340">
	<ele>727.00</ele>
	<time>2025-07-29T05:56:38.000Z</time>
</trkpt>
<trkpt lat="45.9211440" lon="10.2965350">
	<ele>727.00</ele>
	<time>2025-07-29T05:56:39.000Z</time>
</trkpt>
<trkpt lat="45.9211340" lon="10.2965400">
	<ele>727.20</ele>
	<time>2025-07-29T05:56:40.000Z</time>
</trkpt>
<trkpt lat="45.9211280" lon="10.2965450">
	<ele>727.40</ele>
	<time>2025-07-29T05:56:41.000Z</time>
</trkpt>
<trkpt lat="45.9211220" lon="10.2965510">
	<ele>727.80</ele>
	<time>2025-07-29T05:56:42.000Z</time>
</trkpt>
<trkpt lat="45.9211160" lon="10.2965570">
	<ele>727.80</ele>
	<time>2025-07-29T05:56:43.000Z</time>
</trkpt>
<trkpt lat="45.9211070" lon="10.2965720">
	<ele>728.00</ele>
	<time>2025-07-29T05:56:44.000Z</time>
</trkpt>
<trkpt lat="45.9210950" lon="10.2965830">
	<ele>728.20</ele>
	<time>2025-07-29T05:56:45.000Z</time>
</trkpt>
<trkpt lat="45.9210830" lon="10.2965890">
	<ele>728.40</ele>
	<time>2025-07-29T05:56:46.000Z</time>
</trkpt>
<trkpt lat="45.9210740" lon="10.2966040">
	<ele>728.40</ele>
	<time>2025-07-29T05:56:47.000Z</time>
</trkpt>
<trkpt lat="45.9210560" lon="10.2966160">
	<ele>728.60</ele>
	<time>2025-07-29T05:56:48.000Z</time>
</trkpt>
<trkpt lat="45.9210440" lon="10.2966180">
	<ele>728.80</ele>
	<time>2025-07-29T05:56:49.000Z</time>
</trkpt>
<trkpt lat="45.9210360" lon="10.2966290">
	<ele>729.00</ele>
	<time>2025-07-29T05:56:50.000Z</time>
</trkpt>
<trkpt lat="45.9210300" lon="10.2966370">
	<ele>729.20</ele>
	<time>2025-07-29T05:56:51.000Z</time>
</trkpt>
<trkpt lat="45.9210230" lon="10.2966390">
	<ele>729.20</ele>
	<time>2025-07-29T05:56:52.000Z</time>
</trkpt>
<trkpt lat="45.9210150" lon="10.2966460">
	<ele>729.40</ele>
	<time>2025-07-29T05:56:53.000Z</time>
</trkpt>
<trkpt lat="45.9210070" lon="10.2966520">
	<ele>729.60</ele>
	<time>2025-07-29T05:56:54.000Z</time>
</trkpt>
<trkpt lat="45.9210010" lon="10.2966520">
	<ele>729.80</ele>
	<time>2025-07-29T05:56:55.000Z</time>
</trkpt>
<trkpt lat="45.9209920" lon="10.2966530">
	<ele>730.00</ele>
	<time>2025-07-29T05:56:56.000Z</time>
</trkpt>
<trkpt lat="45.9209850" lon="10.2966610">
	<ele>730.20</ele>
	<time>2025-07-29T05:56:57.000Z</time>
</trkpt>
<trkpt lat="45.9209800" lon="10.2966720">
	<ele>730.20</ele>
	<time>2025-07-29T05:56:58.000Z</time>
</trkpt>
<trkpt lat="45.9209740" lon="10.2966840">
	<ele>730.40</ele>
	<time>2025-07-29T05:56:59.000Z</time>
</trkpt>
<trkpt lat="45.9209700" lon="10.2966990">
	<ele>730.60</ele>
	<time>2025-07-29T05:57:00.000Z</time>
</trkpt>
<trkpt lat="45.9209650" lon="10.2967130">
	<ele>731.00</ele>
	<time>2025-07-29T05:57:01.000Z</time>
</trkpt>
<trkpt lat="45.9209590" lon="10.2967260">
	<ele>731.20</ele>
	<time>2025-07-29T05:57:02.000Z</time>
</trkpt>
<trkpt lat="45.9209490" lon="10.2967370">
	<ele>731.20</ele>
	<time>2025-07-29T05:57:03.000Z</time>
</trkpt>
<trkpt lat="45.9209400" lon="10.2967450">
	<ele>731.40</ele>
	<time>2025-07-29T05:57:04.000Z</time>
</trkpt>
<trkpt lat="45.9209340" lon="10.2967600">
	<ele>731.60</ele>
	<time>2025-07-29T05:57:05.000Z</time>
</trkpt>
<trkpt lat="45.9209230" lon="10.2967720">
	<ele>731.80</ele>
	<time>2025-07-29T05:57:06.000Z</time>
</trkpt>
<trkpt lat="45.9209140" lon="10.2967840">
	<ele>731.80</ele>
	<time>2025-07-29T05:57:07.000Z</time>
</trkpt>
<trkpt lat="45.9209060" lon="10.2967980">
	<ele>732.00</ele>
	<time>2025-07-29T05:57:08.000Z</time>
</trkpt>
<trkpt lat="45.9208980" lon="10.2968040">
	<ele>732.20</ele>
	<time>2025-07-29T05:57:09.000Z</time>
</trkpt>
<trkpt lat="45.9208880" lon="10.2968140">
	<ele>732.40</ele>
	<time>2025-07-29T05:57:10.000Z</time>
</trkpt>
<trkpt lat="45.9208820" lon="10.2968250">
	<ele>732.60</ele>
	<time>2025-07-29T05:57:11.000Z</time>
</trkpt>
<trkpt lat="45.9208800" lon="10.2968380">
	<ele>732.80</ele>
	<time>2025-07-29T05:57:12.000Z</time>
</trkpt>
<trkpt lat="45.9208800" lon="10.2968490">
	<ele>733.00</ele>
	<time>2025-07-29T05:57:13.000Z</time>
</trkpt>
<trkpt lat="45.9208750" lon="10.2968570">
	<ele>733.20</ele>
	<time>2025-07-29T05:57:14.000Z</time>
</trkpt>
<trkpt lat="45.9208710" lon="10.2968690">
	<ele>733.60</ele>
	<time>2025-07-29T05:57:15.000Z</time>
</trkpt>
<trkpt lat="45.9208570" lon="10.2968960">
	<ele>733.80</ele>
	<time>2025-07-29T05:57:16.000Z</time>
</trkpt>
<trkpt lat="45.9208540" lon="10.2968980">
	<ele>734.00</ele>
	<time>2025-07-29T05:57:17.000Z</time>
</trkpt>
<trkpt lat="45.9208520" lon="10.2968980">
	<ele>734.20</ele>
	<time>2025-07-29T05:57:18.000Z</time>
</trkpt>
<trkpt lat="45.9208510" lon="10.2969000">
	<ele>734.40</ele>
	<time>2025-07-29T05:57:19.000Z</time>
</trkpt>
<trkpt lat="45.9208550" lon="10.2969090">
	<ele>734.60</ele>
	<time>2025-07-29T05:57:20.000Z</time>
</trkpt>
<trkpt lat="45.9208560" lon="10.2969280">
	<ele>734.80</ele>
	<time>2025-07-29T05:57:21.000Z</time>
</trkpt>
<trkpt lat="45.9208550" lon="10.2969480">
	<ele>734.80</ele>
	<time>2025-07-29T05:57:22.000Z</time>
</trkpt>
<trkpt lat="45.9208550" lon="10.2969650">
	<ele>734.80</ele>
	<time>2025-07-29T05:57:23.000Z</time>
</trkpt>
<trkpt lat="45.9208510" lon="10.2969790">
	<ele>735.00</ele>
	<time>2025-07-29T05:57:24.000Z</time>
</trkpt>
<trkpt lat="45.9208520" lon="10.2969920">
	<ele>735.20</ele>
	<time>2025-07-29T05:57:25.000Z</time>
</trkpt>
<trkpt lat="45.9208570" lon="10.2970030">
	<ele>735.40</ele>
	<time>2025-07-29T05:57:26.000Z</time>
</trkpt>
<trkpt lat="45.9208610" lon="10.2970160">
	<ele>735.60</ele>
	<time>2025-07-29T05:57:27.000Z</time>
</trkpt>
<trkpt lat="45.9208640" lon="10.2970360">
	<ele>735.80</ele>
	<time>2025-07-29T05:57:28.000Z</time>
</trkpt>
<trkpt lat="45.9208660" lon="10.2970480">
	<ele>736.20</ele>
	<time>2025-07-29T05:57:29.000Z</time>
</trkpt>
<trkpt lat="45.9208630" lon="10.2970640">
	<ele>736.40</ele>
	<time>2025-07-29T05:57:30.000Z</time>
</trkpt>
<trkpt lat="45.9208590" lon="10.2970920">
	<ele>736.60</ele>
	<time>2025-07-29T05:57:31.000Z</time>
</trkpt>
<trkpt lat="45.9208590" lon="10.2971150">
	<ele>737.00</ele>
	<time>2025-07-29T05:57:32.000Z</time>
</trkpt>
<trkpt lat="45.9208620" lon="10.2971210">
	<ele>737.20</ele>
	<time>2025-07-29T05:57:33.000Z</time>
</trkpt>
<trkpt lat="45.9208710" lon="10.2971330">
	<ele>737.20</ele>
	<time>2025-07-29T05:57:34.000Z</time>
</trkpt>
<trkpt lat="45.9208820" lon="10.2971520">
	<ele>737.40</ele>
	<time>2025-07-29T05:57:35.000Z</time>
</trkpt>
<trkpt lat="45.9208910" lon="10.2971660">
	<ele>737.60</ele>
	<time>2025-07-29T05:57:36.000Z</time>
</trkpt>
<trkpt lat="45.9208930" lon="10.2971790">
	<ele>738.20</ele>
	<time>2025-07-29T05:57:37.000Z</time>
</trkpt>
<trkpt lat="45.9208970" lon="10.2971870">
	<ele>738.40</ele>
	<time>2025-07-29T05:57:38.000Z</time>
</trkpt>
<trkpt lat="45.9209010" lon="10.2972040">
	<ele>738.60</ele>
	<time>2025-07-29T05:57:39.000Z</time>
</trkpt>
<trkpt lat="45.9209060" lon="10.2972210">
	<ele>738.80</ele>
	<time>2025-07-29T05:57:40.000Z</time>
</trkpt>
<trkpt lat="45.9209110" lon="10.2972310">
	<ele>739.00</ele>
	<time>2025-07-29T05:57:41.000Z</time>
</trkpt>
<trkpt lat="45.9209170" lon="10.2972350">
	<ele>739.20</ele>
	<time>2025-07-29T05:57:42.000Z</time>
</trkpt>
<trkpt lat="45.9209220" lon="10.2972360">
	<ele>739.40</ele>
	<time>2025-07-29T05:57:43.000Z</time>
</trkpt>
<trkpt lat="45.9209300" lon="10.2972400">
	<ele>739.60</ele>
	<time>2025-07-29T05:57:44.000Z</time>
</trkpt>
<trkpt lat="45.9209370" lon="10.2972560">
	<ele>740.00</ele>
	<time>2025-07-29T05:57:45.000Z</time>
</trkpt>
<trkpt lat="45.9209470" lon="10.2972790">
	<ele>740.20</ele>
	<time>2025-07-29T05:57:46.000Z</time>
</trkpt>
<trkpt lat="45.9209460" lon="10.2973130">
	<ele>740.40</ele>
	<time>2025-07-29T05:57:47.000Z</time>
</trkpt>
<trkpt lat="45.9209350" lon="10.2973500">
	<ele>740.60</ele>
	<time>2025-07-29T05:57:48.000Z</time>
</trkpt>
<trkpt lat="45.9209350" lon="10.2973570">
	<ele>740.80</ele>
	<time>2025-07-29T05:57:49.000Z</time>
</trkpt>
<trkpt lat="45.9209270" lon="10.2973590">
	<ele>740.80</ele>
	<time>2025-07-29T05:57:50.000Z</time>
</trkpt>
<trkpt lat="45.9209160" lon="10.2973520">
	<ele>741.20</ele>
	<time>2025-07-29T05:57:51.000Z</time>
</trkpt>
<trkpt lat="45.9209090" lon="10.2973510">
	<ele>741.40</ele>
	<time>2025-07-29T05:57:52.000Z</time>
</trkpt>
<trkpt lat="45.9209030" lon="10.2973490">
	<ele>741.60</ele>
	<time>2025-07-29T05:57:53.000Z</time>
</trkpt>
<trkpt lat="45.9208930" lon="10.2973460">
	<ele>741.80</ele>
	<time>2025-07-29T05:57:54.000Z</time>
</trkpt>
<trkpt lat="45.9208850" lon="10.2973540">
	<ele>742.00</ele>
	<time>2025-07-29T05:57:55.000Z</time>
</trkpt>
<trkpt lat="45.9208740" lon="10.2973500">
	<ele>742.20</ele>
	<time>2025-07-29T05:57:56.000Z</time>
</trkpt>
<trkpt lat="45.9208630" lon="10.2973430">
	<ele>742.40</ele>
	<time>2025-07-29T05:57:57.000Z</time>
</trkpt>
<trkpt lat="45.9208520" lon="10.2973400">
	<ele>742.60</ele>
	<time>2025-07-29T05:57:58.000Z</time>
</trkpt>
<trkpt lat="45.9208450" lon="10.2973390">
	<ele>742.80</ele>
	<time>2025-07-29T05:57:59.000Z</time>
</trkpt>
<trkpt lat="45.9208400" lon="10.2973370">
	<ele>743.00</ele>
	<time>2025-07-29T05:58:00.000Z</time>
</trkpt>
<trkpt lat="45.9208320" lon="10.2973330">
	<ele>743.20</ele>
	<time>2025-07-29T05:58:01.000Z</time>
</trkpt>
<trkpt lat="45.9208220" lon="10.2973280">
	<ele>743.40</ele>
	<time>2025-07-29T05:58:02.000Z</time>
</trkpt>
<trkpt lat="45.9208230" lon="10.2973260">
	<ele>743.40</ele>
	<time>2025-07-29T05:58:03.000Z</time>
</trkpt>
<trkpt lat="45.9208210" lon="10.2973240">
	<ele>743.60</ele>
	<time>2025-07-29T05:58:04.000Z</time>
</trkpt>
<trkpt lat="45.9208180" lon="10.2973220">
	<ele>743.80</ele>
	<time>2025-07-29T05:58:05.000Z</time>
</trkpt>
<trkpt lat="45.9208100" lon="10.2973270">
	<ele>744.00</ele>
	<time>2025-07-29T05:58:06.000Z</time>
</trkpt>
<trkpt lat="45.9208030" lon="10.2973280">
	<ele>744.20</ele>
	<time>2025-07-29T05:58:07.000Z</time>
</trkpt>
<trkpt lat="45.9207930" lon="10.2973280">
	<ele>744.40</ele>
	<time>2025-07-29T05:58:08.000Z</time>
</trkpt>
<trkpt lat="45.9207800" lon="10.2973280">
	<ele>744.40</ele>
	<time>2025-07-29T05:58:09.000Z</time>
</trkpt>
<trkpt lat="45.9207660" lon="10.2973220">
	<ele>744.60</ele>
	<time>2025-07-29T05:58:10.000Z</time>
</trkpt>
<trkpt lat="45.9207590" lon="10.2973060">
	<ele>744.80</ele>
	<time>2025-07-29T05:58:11.000Z</time>
</trkpt>
<trkpt lat="45.9207520" lon="10.2972930">
	<ele>745.20</ele>
	<time>2025-07-29T05:58:12.000Z</time>
</trkpt>
<trkpt lat="45.9207440" lon="10.2972810">
	<ele>745.40</ele>
	<time>2025-07-29T05:58:13.000Z</time>
</trkpt>
<trkpt lat="45.9207410" lon="10.2972750">
	<ele>745.60</ele>
	<time>2025-07-29T05:58:14.000Z</time>
</trkpt>
<trkpt lat="45.9207260" lon="10.2972760">
	<ele>745.80</ele>
	<time>2025-07-29T05:58:15.000Z</time>
</trkpt>
<trkpt lat="45.9207080" lon="10.2972710">
	<ele>746.00</ele>
	<time>2025-07-29T05:58:16.000Z</time>
</trkpt>
<trkpt lat="45.9206960" lon="10.2972630">
	<ele>746.20</ele>
	<time>2025-07-29T05:58:17.000Z</time>
</trkpt>
<trkpt lat="45.9206880" lon="10.2972570">
	<ele>746.40</ele>
	<time>2025-07-29T05:58:18.000Z</time>
</trkpt>
<trkpt lat="45.9206820" lon="10.2972530">
	<ele>746.60</ele>
	<time>2025-07-29T05:58:19.000Z</time>
</trkpt>
<trkpt lat="45.9206780" lon="10.2972450">
	<ele>746.80</ele>
	<time>2025-07-29T05:58:20.000Z</time>
</trkpt>
<trkpt lat="45.9206710" lon="10.2972430">
	<ele>747.00</ele>
	<time>2025-07-29T05:58:21.000Z</time>
</trkpt>
<trkpt lat="45.9206630" lon="10.2972380">
	<ele>747.20</ele>
	<time>2025-07-29T05:58:22.000Z</time>
</trkpt>
<trkpt lat="45.9206530" lon="10.2972290">
	<ele>747.40</ele>
	<time>2025-07-29T05:58:23.000Z</time>
</trkpt>
<trkpt lat="45.9206420" lon="10.2972190">
	<ele>747.40</ele>
	<time>2025-07-29T05:58:24.000Z</time>
</trkpt>
<trkpt lat="45.9206360" lon="10.2972170">
	<ele>747.60</ele>
	<time>2025-07-29T05:58:25.000Z</time>
</trkpt>
<trkpt lat="45.9206320" lon="10.2972140">
	<ele>747.80</ele>
	<time>2025-07-29T05:58:26.000Z</time>
</trkpt>
<trkpt lat="45.9206250" lon="10.2972120">
	<ele>748.20</ele>
	<time>2025-07-29T05:58:27.000Z</time>
</trkpt>
<trkpt lat="45.9206180" lon="10.2972080">
	<ele>748.20</ele>
	<time>2025-07-29T05:58:28.000Z</time>
</trkpt>
<trkpt lat="45.9206100" lon="10.2972080">
	<ele>748.40</ele>
	<time>2025-07-29T05:58:29.000Z</time>
</trkpt>
<trkpt lat="45.9206020" lon="10.2972050">
	<ele>748.60</ele>
	<time>2025-07-29T05:58:30.000Z</time>
</trkpt>
<trkpt lat="45.9205930" lon="10.2972020">
	<ele>748.80</ele>
	<time>2025-07-29T05:58:31.000Z</time>
</trkpt>
<trkpt lat="45.9205910" lon="10.2972010">
	<ele>749.00</ele>
	<time>2025-07-29T05:58:32.000Z</time>
</trkpt>
<trkpt lat="45.9205890" lon="10.2972130">
	<ele>749.20</ele>
	<time>2025-07-29T05:58:33.000Z</time>
</trkpt>
<trkpt lat="45.9205830" lon="10.2972180">
	<ele>749.60</ele>
	<time>2025-07-29T05:58:34.000Z</time>
</trkpt>
<trkpt lat="45.9205760" lon="10.2972170">
	<ele>749.80</ele>
	<time>2025-07-29T05:58:35.000Z</time>
</trkpt>
<trkpt lat="45.9205690" lon="10.2972140">
	<ele>750.00</ele>
	<time>2025-07-29T05:58:36.000Z</time>
</trkpt>
<trkpt lat="45.9205650" lon="10.2972150">
	<ele>750.20</ele>
	<time>2025-07-29T05:58:37.000Z</time>
</trkpt>
<trkpt lat="45.9205580" lon="10.2972150">
	<ele>750.40</ele>
	<time>2025-07-29T05:58:38.000Z</time>
</trkpt>
<trkpt lat="45.9205460" lon="10.2972140">
	<ele>750.60</ele>
	<time>2025-07-29T05:58:39.000Z</time>
</trkpt>
<trkpt lat="45.9205410" lon="10.2972160">
	<ele>750.80</ele>
	<time>2025-07-29T05:58:40.000Z</time>
</trkpt>
<trkpt lat="45.9205340" lon="10.2972260">
	<ele>751.00</ele>
	<time>2025-07-29T05:58:41.000Z</time>
</trkpt>
<trkpt lat="45.9205310" lon="10.2972330">
	<ele>751.00</ele>
	<time>2025-07-29T05:58:42.000Z</time>
</trkpt>
<trkpt lat="45.9205240" lon="10.2972340">
	<ele>751.20</ele>
	<time>2025-07-29T05:58:43.000Z</time>
</trkpt>
<trkpt lat="45.9205220" lon="10.2972360">
	<ele>751.20</ele>
	<time>2025-07-29T05:58:44.000Z</time>
</trkpt>
<trkpt lat="45.9205260" lon="10.2972370">
	<ele>751.20</ele>
	<time>2025-07-29T05:58:45.000Z</time>
</trkpt>
<trkpt lat="45.9205240" lon="10.2972370">
	<ele>751.40</ele>
	<time>2025-07-29T05:58:46.000Z</time>
</trkpt>
<trkpt lat="45.9205170" lon="10.2972360">
	<ele>751.60</ele>
	<time>2025-07-29T05:58:47.000Z</time>
</trkpt>
<trkpt lat="45.9205090" lon="10.2972330">
	<ele>751.80</ele>
	<time>2025-07-29T05:58:48.000Z</time>
</trkpt>
<trkpt lat="45.9205060" lon="10.2972350">
	<ele>752.00</ele>
	<time>2025-07-29T05:58:49.000Z</time>
</trkpt>
<trkpt lat="45.9204990" lon="10.2972400">
	<ele>752.20</ele>
	<time>2025-07-29T05:58:50.000Z</time>
</trkpt>
<trkpt lat="45.9204900" lon="10.2972440">
	<ele>752.40</ele>
	<time>2025-07-29T05:58:51.000Z</time>
</trkpt>
<trkpt lat="45.9204860" lon="10.2972440">
	<ele>752.60</ele>
	<time>2025-07-29T05:58:52.000Z</time>
</trkpt>
<trkpt lat="45.9204800" lon="10.2972410">
	<ele>752.60</ele>
	<time>2025-07-29T05:58:53.000Z</time>
</trkpt>
<trkpt lat="45.9204760" lon="10.2972430">
	<ele>753.00</ele>
	<time>2025-07-29T05:58:54.000Z</time>
</trkpt>
<trkpt lat="45.9204670" lon="10.2972550">
	<ele>753.00</ele>
	<time>2025-07-29T05:58:55.000Z</time>
</trkpt>
<trkpt lat="45.9204610" lon="10.2972590">
	<ele>753.20</ele>
	<time>2025-07-29T05:58:56.000Z</time>
</trkpt>
<trkpt lat="45.9204500" lon="10.2972580">
	<ele>753.40</ele>
	<time>2025-07-29T05:58:57.000Z</time>
</trkpt>
<trkpt lat="45.9204370" lon="10.2972490">
	<ele>753.60</ele>
	<time>2025-07-29T05:58:58.000Z</time>
</trkpt>
<trkpt lat="45.9204300" lon="10.2972400">
	<ele>753.60</ele>
	<time>2025-07-29T05:58:59.000Z</time>
</trkpt>
<trkpt lat="45.9204230" lon="10.2972360">
	<ele>754.00</ele>
	<time>2025-07-29T05:59:00.000Z</time>
</trkpt>
<trkpt lat="45.9204100" lon="10.2972300">
	<ele>754.00</ele>
	<time>2025-07-29T05:59:01.000Z</time>
</trkpt>
<trkpt lat="45.9204040" lon="10.2972340">
	<ele>754.40</ele>
	<time>2025-07-29T05:59:02.000Z</time>
</trkpt>
<trkpt lat="45.9203920" lon="10.2972340">
	<ele>754.80</ele>
	<time>2025-07-29T05:59:03.000Z</time>
</trkpt>
<trkpt lat="45.9203850" lon="10.2972330">
	<ele>755.00</ele>
	<time>2025-07-29T05:59:04.000Z</time>
</trkpt>
<trkpt lat="45.9203690" lon="10.2972320">
	<ele>755.00</ele>
	<time>2025-07-29T05:59:05.000Z</time>
</trkpt>
<trkpt lat="45.9203560" lon="10.2972350">
	<ele>755.20</ele>
	<time>2025-07-29T05:59:06.000Z</time>
</trkpt>
<trkpt lat="45.9203520" lon="10.2972340">
	<ele>755.20</ele>
	<time>2025-07-29T05:59:07.000Z</time>
</trkpt>
<trkpt lat="45.9203440" lon="10.2972390">
	<ele>755.40</ele>
	<time>2025-07-29T05:59:08.000Z</time>
</trkpt>
<trkpt lat="45.9203410" lon="10.2972380">
	<ele>755.60</ele>
	<time>2025-07-29T05:59:09.000Z</time>
</trkpt>
<trkpt lat="45.9203380" lon="10.2972380">
	<ele>755.80</ele>
	<time>2025-07-29T05:59:10.000Z</time>
</trkpt>
<trkpt lat="45.9203370" lon="10.2972310">
	<ele>756.00</ele>
	<time>2025-07-29T05:59:11.000Z</time>
</trkpt>
<trkpt lat="45.9203280" lon="10.2972250">
	<ele>756.20</ele>
	<time>2025-07-29T05:59:12.000Z</time>
</trkpt>
<trkpt lat="45.9203150" lon="10.2972170">
	<ele>756.60</ele>
	<time>2025-07-29T05:59:13.000Z</time>
</trkpt>
<trkpt lat="45.9203010" lon="10.2972100">
	<ele>756.80</ele>
	<time>2025-07-29T05:59:14.000Z</time>
</trkpt>
<trkpt lat="45.9202890" lon="10.2972030">
	<ele>757.00</ele>
	<time>2025-07-29T05:59:15.000Z</time>
</trkpt>
<trkpt lat="45.9202850" lon="10.2972010">
	<ele>757.00</ele>
	<time>2025-07-29T05:59:16.000Z</time>
</trkpt>
<trkpt lat="45.9202710" lon="10.2971970">
	<ele>757.40</ele>
	<time>2025-07-29T05:59:17.000Z</time>
</trkpt>
<trkpt lat="45.9202690" lon="10.2971950">
	<ele>757.60</ele>
	<time>2025-07-29T05:59:18.000Z</time>
</trkpt>
<trkpt lat="45.9202670" lon="10.2971890">
	<ele>758.00</ele>
	<time>2025-07-29T05:59:19.000Z</time>
</trkpt>
<trkpt lat="45.9202680" lon="10.2971890">
	<ele>758.20</ele>
	<time>2025-07-29T05:59:20.000Z</time>
</trkpt>
<trkpt lat="45.9202700" lon="10.2971910">
	<ele>758.40</ele>
	<time>2025-07-29T05:59:21.000Z</time>
</trkpt>
<trkpt lat="45.9202690" lon="10.2971920">
	<ele>758.40</ele>
	<time>2025-07-29T05:59:22.000Z</time>
</trkpt>
<trkpt lat="45.9202690" lon="10.2971900">
	<ele>758.60</ele>
	<time>2025-07-29T05:59:23.000Z</time>
</trkpt>
<trkpt lat="45.9202600" lon="10.2971830">
	<ele>758.80</ele>
	<time>2025-07-29T05:59:24.000Z</time>
</trkpt>
<trkpt lat="45.9202560" lon="10.2971800">
	<ele>758.80</ele>
	<time>2025-07-29T05:59:25.000Z</time>
</trkpt>
<trkpt lat="45.9202540" lon="10.2971810">
	<ele>758.80</ele>
	<time>2025-07-29T05:59:26.000Z</time>
</trkpt>
<trkpt lat="45.9202560" lon="10.2971810">
	<ele>759.00</ele>
	<time>2025-07-29T05:59:27.000Z</time>
</trkpt>
<trkpt lat="45.9202400" lon="10.2971880">
	<ele>759.00</ele>
	<time>2025-07-29T05:59:28.000Z</time>
</trkpt>
<trkpt lat="45.9202380" lon="10.2971890">
	<ele>759.20</ele>
	<time>2025-07-29T05:59:29.000Z</time>
</trkpt>
<trkpt lat="45.9202360" lon="10.2971890">
	<ele>759.40</ele>
	<time>2025-07-29T05:59:30.000Z</time>
</trkpt>
<trkpt lat="45.9202340" lon="10.2971890">
	<ele>759.40</ele>
	<time>2025-07-29T05:59:31.000Z</time>
</trkpt>
<trkpt lat="45.9202320" lon="10.2971880">
	<ele>759.60</ele>
	<time>2025-07-29T05:59:32.000Z</time>
</trkpt>
<trkpt lat="45.9202300" lon="10.2971890">
	<ele>759.80</ele>
	<time>2025-07-29T05:59:33.000Z</time>
</trkpt>
<trkpt lat="45.9202210" lon="10.2971870">
	<ele>760.00</ele>
	<time>2025-07-29T05:59:34.000Z</time>
</trkpt>
<trkpt lat="45.9202070" lon="10.2971860">
	<ele>760.00</ele>
	<time>2025-07-29T05:59:35.000Z</time>
</trkpt>
<trkpt lat="45.9201890" lon="10.2971770">
	<ele>760.00</ele>
	<time>2025-07-29T05:59:36.000Z</time>
</trkpt>
<trkpt lat="45.9201790" lon="10.2971660">
	<ele>760.20</ele>
	<time>2025-07-29T05:59:37.000Z</time>
</trkpt>
<trkpt lat="45.9201680" lon="10.2971580">
	<ele>760.40</ele>
	<time>2025-07-29T05:59:38.000Z</time>
</trkpt>
<trkpt lat="45.9201620" lon="10.2971550">
	<ele>760.60</ele>
	<time>2025-07-29T05:59:39.000Z</time>
</trkpt>
<trkpt lat="45.9201510" lon="10.2971470">
	<ele>760.80</ele>
	<time>2025-07-29T05:59:40.000Z</time>
</trkpt>
<trkpt lat="45.9201390" lon="10.2971380">
	<ele>761.00</ele>
	<time>2025-07-29T05:59:41.000Z</time>
</trkpt>
<trkpt lat="45.9201320" lon="10.2971360">
	<ele>761.40</ele>
	<time>2025-07-29T05:59:42.000Z</time>
</trkpt>
<trkpt lat="45.9201260" lon="10.2971280">
	<ele>761.60</ele>
	<time>2025-07-29T05:59:43.000Z</time>
</trkpt>
<trkpt lat="45.9201170" lon="10.2971160">
	<ele>761.80</ele>
	<time>2025-07-29T05:59:44.000Z</time>
</trkpt>
<trkpt lat="45.9201080" lon="10.2971020">
	<ele>762.00</ele>
	<time>2025-07-29T05:59:45.000Z</time>
</trkpt>
<trkpt lat="45.9200980" lon="10.2970940">
	<ele>762.40</ele>
	<time>2025-07-29T05:59:46.000Z</time>
</trkpt>
<trkpt lat="45.9200890" lon="10.2970870">
	<ele>762.60</ele>
	<time>2025-07-29T05:59:47.000Z</time>
</trkpt>
<trkpt lat="45.9200810" lon="10.2970760">
	<ele>762.80</ele>
	<time>2025-07-29T05:59:48.000Z</time>
</trkpt>
<trkpt lat="45.9200730" lon="10.2970610">
	<ele>763.00</ele>
	<time>2025-07-29T05:59:49.000Z</time>
</trkpt>
<trkpt lat="45.9200670" lon="10.2970460">
	<ele>763.20</ele>
	<time>2025-07-29T05:59:50.000Z</time>
</trkpt>
<trkpt lat="45.9200610" lon="10.2970350">
	<ele>763.40</ele>
	<time>2025-07-29T05:59:51.000Z</time>
</trkpt>
<trkpt lat="45.9200590" lon="10.2970210">
	<ele>763.60</ele>
	<time>2025-07-29T05:59:52.000Z</time>
</trkpt>
<trkpt lat="45.9200570" lon="10.2970160">
	<ele>763.80</ele>
	<time>2025-07-29T05:59:53.000Z</time>
</trkpt>
<trkpt lat="45.9200420" lon="10.2970070">
	<ele>764.00</ele>
	<time>2025-07-29T05:59:54.000Z</time>
</trkpt>
<trkpt lat="45.9200200" lon="10.2969970">
	<ele>764.20</ele>
	<time>2025-07-29T05:59:55.000Z</time>
</trkpt>
<trkpt lat="45.9199940" lon="10.2969940">
	<ele>764.40</ele>
	<time>2025-07-29T05:59:56.000Z</time>
</trkpt>
<trkpt lat="45.9199780" lon="10.2969960">
	<ele>764.60</ele>
	<time>2025-07-29T05:59:57.000Z</time>
</trkpt>
<trkpt lat="45.9199650" lon="10.2969960">
	<ele>764.80</ele>
	<time>2025-07-29T05:59:58.000Z</time>
</trkpt>
<trkpt lat="45.9199510" lon="10.2969920">
	<ele>764.80</ele>
	<time>2025-07-29T05:59:59.000Z</time>
</trkpt>
<trkpt lat="45.9199370" lon="10.2969860">
	<ele>765.00</ele>
	<time>2025-07-29T06:00:00.000Z</time>
</trkpt>
<trkpt lat="45.9199200" lon="10.2969820">
	<ele>765.20</ele>
	<time>2025-07-29T06:00:01.000Z</time>
</trkpt>
<trkpt lat="45.9199050" lon="10.2969850">
	<ele>765.40</ele>
	<time>2025-07-29T06:00:02.000Z</time>
</trkpt>
<trkpt lat="45.9198950" lon="10.2969860">
	<ele>765.80</ele>
	<time>2025-07-29T06:00:03.000Z</time>
</trkpt>
<trkpt lat="45.9198810" lon="10.2969880">
	<ele>766.00</ele>
	<time>2025-07-29T06:00:04.000Z</time>
</trkpt>
<trkpt lat="45.9198710" lon="10.2969930">
	<ele>766.20</ele>
	<time>2025-07-29T06:00:05.000Z</time>
</trkpt>
<trkpt lat="45.9198600" lon="10.2969990">
	<ele>766.40</ele>
	<time>2025-07-29T06:00:06.000Z</time>
</trkpt>
<trkpt lat="45.9198540" lon="10.2970120">
	<ele>766.40</ele>
	<time>2025-07-29T06:00:07.000Z</time>
</trkpt>
<trkpt lat="45.9198520" lon="10.2970230">
	<ele>766.80</ele>
	<time>2025-07-29T06:00:08.000Z</time>
</trkpt>
<trkpt lat="45.9198530" lon="10.2970320">
	<ele>767.00</ele>
	<time>2025-07-29T06:00:09.000Z</time>
</trkpt>
<trkpt lat="45.9198520" lon="10.2970380">
	<ele>767.00</ele>
	<time>2025-07-29T06:00:10.000Z</time>
</trkpt>
<trkpt lat="45.9198590" lon="10.2970450">
	<ele>767.20</ele>
	<time>2025-07-29T06:00:11.000Z</time>
</trkpt>
<trkpt lat="45.9198610" lon="10.2970490">
	<ele>767.40</ele>
	<time>2025-07-29T06:00:12.000Z</time>
</trkpt>
<trkpt lat="45.9198560" lon="10.2970630">
	<ele>767.60</ele>
	<time>2025-07-29T06:00:13.000Z</time>
</trkpt>
<trkpt lat="45.9198530" lon="10.2970680">
	<ele>767.80</ele>
	<time>2025-07-29T06:00:14.000Z</time>
</trkpt>
<trkpt lat="45.9198500" lon="10.2970700">
	<ele>768.00</ele>
	<time>2025-07-29T06:00:15.000Z</time>
</trkpt>
<trkpt lat="45.9198320" lon="10.2970970">
	<ele>768.00</ele>
	<time>2025-07-29T06:00:16.000Z</time>
</trkpt>
<trkpt lat="45.9198170" lon="10.2971240">
	<ele>768.00</ele>
	<time>2025-07-29T06:00:17.000Z</time>
</trkpt>
<trkpt lat="45.9198120" lon="10.2971330">
	<ele>768.20</ele>
	<time>2025-07-29T06:00:18.000Z</time>
</trkpt>
<trkpt lat="45.9198100" lon="10.2971390">
	<ele>768.40</ele>
	<time>2025-07-29T06:00:19.000Z</time>
</trkpt>
<trkpt lat="45.9198040" lon="10.2971530">
	<ele>768.60</ele>
	<time>2025-07-29T06:00:20.000Z</time>
</trkpt>
<trkpt lat="45.9197990" lon="10.2971620">
	<ele>768.80</ele>
	<time>2025-07-29T06:00:21.000Z</time>
</trkpt>
<trkpt lat="45.9198000" lon="10.2971680">
	<ele>769.00</ele>
	<time>2025-07-29T06:00:22.000Z</time>
</trkpt>
<trkpt lat="45.9197990" lon="10.2971730">
	<ele>769.20</ele>
	<time>2025-07-29T06:00:23.000Z</time>
</trkpt>
<trkpt lat="45.9197970" lon="10.2971750">
	<ele>769.40</ele>
	<time>2025-07-29T06:00:24.000Z</time>
</trkpt>
<trkpt lat="45.9197920" lon="10.2971860">
	<ele>769.60</ele>
	<time>2025-07-29T06:00:25.000Z</time>
</trkpt>
<trkpt lat="45.9197840" lon="10.2971930">
	<ele>769.60</ele>
	<time>2025-07-29T06:00:26.000Z</time>
</trkpt>
<trkpt lat="45.9197810" lon="10.2971980">
	<ele>769.80</ele>
	<time>2025-07-29T06:00:27.000Z</time>
</trkpt>
<trkpt lat="45.9197790" lon="10.2972020">
	<ele>770.00</ele>
	<time>2025-07-29T06:00:28.000Z</time>
</trkpt>
<trkpt lat="45.9197780" lon="10.2972060">
	<ele>770.20</ele>
	<time>2025-07-29T06:00:29.000Z</time>
</trkpt>
<trkpt lat="45.9197780" lon="10.2972070">
	<ele>770.20</ele>
	<time>2025-07-29T06:00:30.000Z</time>
</trkpt>
<trkpt lat="45.9197790" lon="10.2972130">
	<ele>770.20</ele>
	<time>2025-07-29T06:00:31.000Z</time>
</trkpt>
<trkpt lat="45.9197800" lon="10.2972170">
	<ele>770.40</ele>
	<time>2025-07-29T06:00:32.000Z</time>
</trkpt>
<trkpt lat="45.9197780" lon="10.2972310">
	<ele>770.40</ele>
	<time>2025-07-29T06:00:33.000Z</time>
</trkpt>
<trkpt lat="45.9197740" lon="10.2972540">
	<ele>770.60</ele>
	<time>2025-07-29T06:00:34.000Z</time>
</trkpt>
<trkpt lat="45.9197680" lon="10.2972640">
	<ele>770.60</ele>
	<time>2025-07-29T06:00:35.000Z</time>
</trkpt>
<trkpt lat="45.9197680" lon="10.2972680">
	<ele>770.60</ele>
	<time>2025-07-29T06:00:36.000Z</time>
</trkpt>
<trkpt lat="45.9197710" lon="10.2972790">
	<ele>770.60</ele>
	<time>2025-07-29T06:00:37.000Z</time>
</trkpt>
<trkpt lat="45.9197710" lon="10.2972800">
	<ele>770.80</ele>
	<time>2025-07-29T06:00:38.000Z</time>
</trkpt>
<trkpt lat="45.9197690" lon="10.2972770">
	<ele>770.80</ele>
	<time>2025-07-29T06:00:39.000Z</time>
</trkpt>
<trkpt lat="45.9197680" lon="10.2972750">
	<ele>770.80</ele>
	<time>2025-07-29T06:00:40.000Z</time>
</trkpt>
<trkpt lat="45.9197650" lon="10.2972730">
	<ele>770.80</ele>
	<time>2025-07-29T06:00:41.000Z</time>
</trkpt>
<trkpt lat="45.9197630" lon="10.2972770">
	<ele>770.80</ele>
	<time>2025-07-29T06:00:42.000Z</time>
</trkpt>
<trkpt lat="45.9197600" lon="10.2972800">
	<ele>770.80</ele>
	<time>2025-07-29T06:00:43.000Z</time>
</trkpt>
<trkpt lat="45.9197610" lon="10.2972770">
	<ele>770.80</ele>
	<time>2025-07-29T06:00:44.000Z</time>
</trkpt>
<trkpt lat="45.9197620" lon="10.2972710">
	<ele>770.80</ele>
	<time>2025-07-29T06:00:45.000Z</time>
</trkpt>
<trkpt lat="45.9197610" lon="10.2972680">
	<ele>770.80</ele>
	<time>2025-07-29T06:00:46.000Z</time>
</trkpt>
<trkpt lat="45.9197650" lon="10.2972770">
	<ele>770.80</ele>
	<time>2025-07-29T06:00:47.000Z</time>
</trkpt>
<trkpt lat="45.9197630" lon="10.2972830">
	<ele>771.00</ele>
	<time>2025-07-29T06:00:48.000Z</time>
</trkpt>
<trkpt lat="45.9197560" lon="10.2972860">
	<ele>771.00</ele>
	<time>2025-07-29T06:00:49.000Z</time>
</trkpt>
<trkpt lat="45.9197430" lon="10.2972860">
	<ele>771.00</ele>
	<time>2025-07-29T06:00:50.000Z</time>
</trkpt>
<trkpt lat="45.9197350" lon="10.2972950">
	<ele>771.20</ele>
	<time>2025-07-29T06:00:51.000Z</time>
</trkpt>
<trkpt lat="45.9197300" lon="10.2972950">
	<ele>771.40</ele>
	<time>2025-07-29T06:00:52.000Z</time>
</trkpt>
<trkpt lat="45.9197280" lon="10.2972940">
	<ele>771.60</ele>
	<time>2025-07-29T06:00:53.000Z</time>
</trkpt>
<trkpt lat="45.9197290" lon="10.2972970">
	<ele>772.00</ele>
	<time>2025-07-29T06:00:54.000Z</time>
</trkpt>
<trkpt lat="45.9197270" lon="10.2972970">
	<ele>772.00</ele>
	<time>2025-07-29T06:00:55.000Z</time>
</trkpt>
<trkpt lat="45.9197260" lon="10.2972970">
	<ele>772.20</ele>
	<time>2025-07-29T06:00:56.000Z</time>
</trkpt>
<trkpt lat="45.9197280" lon="10.2972980">
	<ele>772.20</ele>
	<time>2025-07-29T06:00:57.000Z</time>
</trkpt>
<trkpt lat="45.9197300" lon="10.2972990">
	<ele>772.20</ele>
	<time>2025-07-29T06:00:58.000Z</time>
</trkpt>
<trkpt lat="45.9197360" lon="10.2972970">
	<ele>772.20</ele>
	<time>2025-07-29T06:00:59.000Z</time>
</trkpt>
<trkpt lat="45.9197310" lon="10.2972980">
	<ele>772.00</ele>
	<time>2025-07-29T06:01:00.000Z</time>
</trkpt>
<trkpt lat="45.9197290" lon="10.2972970">
	<ele>771.80</ele>
	<time>2025-07-29T06:01:01.000Z</time>
</trkpt>
<trkpt lat="45.9197440" lon="10.2973070">
	<ele>771.80</ele>
	<time>2025-07-29T06:01:02.000Z</time>
</trkpt>
<trkpt lat="45.9197490" lon="10.2973120">
	<ele>771.60</ele>
	<time>2025-07-29T06:01:03.000Z</time>
</trkpt>
<trkpt lat="45.9197570" lon="10.2973140">
	<ele>771.60</ele>
	<time>2025-07-29T06:01:04.000Z</time>
</trkpt>
<trkpt lat="45.9197600" lon="10.2973170">
	<ele>771.60</ele>
	<time>2025-07-29T06:01:05.000Z</time>
</trkpt>
<trkpt lat="45.9197660" lon="10.2973100">
	<ele>771.60</ele>
	<time>2025-07-29T06:01:06.000Z</time>
</trkpt>
<trkpt lat="45.9197610" lon="10.2973050">
	<ele>771.60</ele>
	<time>2025-07-29T06:01:07.000Z</time>
</trkpt>
<trkpt lat="45.9197620" lon="10.2973080">
	<ele>771.80</ele>
	<time>2025-07-29T06:01:08.000Z</time>
</trkpt>
<trkpt lat="45.9197660" lon="10.2973120">
	<ele>771.80</ele>
	<time>2025-07-29T06:01:09.000Z</time>
</trkpt>
<trkpt lat="45.9197720" lon="10.2973130">
	<ele>771.80</ele>
	<time>2025-07-29T06:01:10.000Z</time>
</trkpt>
<trkpt lat="45.9197760" lon="10.2973140">
	<ele>771.60</ele>
	<time>2025-07-29T06:01:11.000Z</time>
</trkpt>
<trkpt lat="45.9197780" lon="10.2973140">
	<ele>771.60</ele>
	<time>2025-07-29T06:01:12.000Z</time>
</trkpt>
<trkpt lat="45.9197790" lon="10.2973150">
	<ele>771.60</ele>
	<time>2025-07-29T06:01:13.000Z</time>
</trkpt>
<trkpt lat="45.9197800" lon="10.2973140">
	<ele>771.60</ele>
	<time>2025-07-29T06:01:14.000Z</time>
</trkpt>
<trkpt lat="45.9197910" lon="10.2973150">
	<ele>771.60</ele>
	<time>2025-07-29T06:01:15.000Z</time>
</trkpt>
<trkpt lat="45.9197990" lon="10.2973100">
	<ele>771.60</ele>
	<time>2025-07-29T06:01:16.000Z</time>
</trkpt>
<trkpt lat="45.9198020" lon="10.2972970">
	<ele>771.60</ele>
	<time>2025-07-29T06:01:17.000Z</time>
</trkpt>
<trkpt lat="45.9197900" lon="10.2972840">
	<ele>771.60</ele>
	<time>2025-07-29T06:01:18.000Z</time>
</trkpt>
<trkpt lat="45.9197830" lon="10.2972700">
	<ele>771.80</ele>
	<time>2025-07-29T06:01:19.000Z</time>
</trkpt>
<trkpt lat="45.9197820" lon="10.2972550">
	<ele>771.80</ele>
	<time>2025-07-29T06:01:20.000Z</time>
</trkpt>
<trkpt lat="45.9197860" lon="10.2972480">
	<ele>772.00</ele>
	<time>2025-07-29T06:01:21.000Z</time>
</trkpt>
<trkpt lat="45.9197880" lon="10.2972430">
	<ele>772.00</ele>
	<time>2025-07-29T06:01:22.000Z</time>
</trkpt>
<trkpt lat="45.9197860" lon="10.2972400">
	<ele>772.20</ele>
	<time>2025-07-29T06:01:23.000Z</time>
</trkpt>
<trkpt lat="45.9197860" lon="10.2972400">
	<ele>772.40</ele>
	<time>2025-07-29T06:01:24.000Z</time>
</trkpt>
<trkpt lat="45.9197860" lon="10.2972400">
	<ele>772.60</ele>
	<time>2025-07-29T06:01:25.000Z</time>
</trkpt>
<trkpt lat="45.9197860" lon="10.2972400">
	<ele>772.80</ele>
	<time>2025-07-29T06:01:26.000Z</time>
</trkpt>
<trkpt lat="45.9197860" lon="10.2972400">
	<ele>773.00</ele>
	<time>2025-07-29T06:01:27.000Z</time>
</trkpt>
<trkpt lat="45.9197860" lon="10.2972400">
	<ele>773.20</ele>
	<time>2025-07-29T06:01:28.000Z</time>
</trkpt>
<trkpt lat="45.9197860" lon="10.2972400">
	<ele>773.40</ele>
	<time>2025-07-29T06:01:29.000Z</time>
</trkpt>
<trkpt lat="45.9197860" lon="10.2972400">
	<ele>773.60</ele>
	<time>2025-07-29T06:01:30.000Z</time>
</trkpt>
<trkpt lat="45.9197860" lon="10.2972400">
	<ele>773.80</ele>
	<time>2025-07-29T06:01:31.000Z</time>
</trkpt>
<trkpt lat="45.9197860" lon="10.2972400">
	<ele>773.80</ele>
	<time>2025-07-29T06:01:32.000Z</time>
</trkpt>
<trkpt lat="45.9197860" lon="10.2972400">
	<ele>774.00</ele>
	<time>2025-07-29T06:01:33.000Z</time>
</trkpt>
<trkpt lat="45.9197860" lon="10.2972400">
	<ele>774.20</ele>
	<time>2025-07-29T06:01:34.000Z</time>
</trkpt>
<trkpt lat="45.9197860" lon="10.2972400">
	<ele>774.20</ele>
	<time>2025-07-29T06:01:35.000Z</time>
</trkpt>
<trkpt lat="45.9197860" lon="10.2972400">
	<ele>774.40</ele>
	<time>2025-07-29T06:01:36.000Z</time>
</trkpt>
<trkpt lat="45.9197860" lon="10.2972400">
	<ele>774.60</ele>
	<time>2025-07-29T06:01:37.000Z</time>
</trkpt>
<trkpt lat="45.9197860" lon="10.2972400">
	<ele>774.80</ele>
	<time>2025-07-29T06:01:38.000Z</time>
</trkpt>
<trkpt lat="45.9197860" lon="10.2972400">
	<ele>774.80</ele>
	<time>2025-07-29T06:01:39.000Z</time>
</trkpt>
<trkpt lat="45.9197850" lon="10.2972390">
	<ele>775.00</ele>
	<time>2025-07-29T06:01:40.000Z</time>
</trkpt>
<trkpt lat="45.9197830" lon="10.2972360">
	<ele>775.20</ele>
	<time>2025-07-29T06:01:41.000Z</time>
</trkpt>
<trkpt lat="45.9197830" lon="10.2972320">
	<ele>775.60</ele>
	<time>2025-07-29T06:01:42.000Z</time>
</trkpt>
<trkpt lat="45.9197820" lon="10.2972290">
	<ele>775.80</ele>
	<time>2025-07-29T06:01:43.000Z</time>
</trkpt>
<trkpt lat="45.9197800" lon="10.2972260">
	<ele>776.00</ele>
	<time>2025-07-29T06:01:44.000Z</time>
</trkpt>
<trkpt lat="45.9197790" lon="10.2972200">
	<ele>776.20</ele>
	<time>2025-07-29T06:01:45.000Z</time>
</trkpt>
<trkpt lat="45.9197790" lon="10.2972090">
	<ele>776.20</ele>
	<time>2025-07-29T06:01:46.000Z</time>
</trkpt>
<trkpt lat="45.9197760" lon="10.2971980">
	<ele>776.40</ele>
	<time>2025-07-29T06:01:47.000Z</time>
</trkpt>
<trkpt lat="45.9197760" lon="10.2971860">
	<ele>776.60</ele>
	<time>2025-07-29T06:01:48.000Z</time>
</trkpt>
<trkpt lat="45.9197750" lon="10.2971710">
	<ele>776.80</ele>
	<time>2025-07-29T06:01:49.000Z</time>
</trkpt>
<trkpt lat="45.9197740" lon="10.2971580">
	<ele>777.00</ele>
	<time>2025-07-29T06:01:50.000Z</time>
</trkpt>
<trkpt lat="45.9197730" lon="10.2971490">
	<ele>777.20</ele>
	<time>2025-07-29T06:01:51.000Z</time>
</trkpt>
<trkpt lat="45.9197720" lon="10.2971430">
	<ele>777.40</ele>
	<time>2025-07-29T06:01:52.000Z</time>
</trkpt>
<trkpt lat="45.9197710" lon="10.2971420">
	<ele>777.60</ele>
	<time>2025-07-29T06:01:53.000Z</time>
</trkpt>
<trkpt lat="45.9197650" lon="10.2971320">
	<ele>777.80</ele>
	<time>2025-07-29T06:01:54.000Z</time>
</trkpt>
<trkpt lat="45.9197540" lon="10.2971150">
	<ele>778.20</ele>
	<time>2025-07-29T06:01:55.000Z</time>
</trkpt>
<trkpt lat="45.9197410" lon="10.2970970">
	<ele>778.40</ele>
	<time>2025-07-29T06:01:56.000Z</time>
</trkpt>
<trkpt lat="45.9197260" lon="10.2970770">
	<ele>778.60</ele>
	<time>2025-07-29T06:01:57.000Z</time>
</trkpt>
<trkpt lat="45.9197060" lon="10.2970620">
	<ele>778.80</ele>
	<time>2025-07-29T06:01:58.000Z</time>
</trkpt>
<trkpt lat="45.9196960" lon="10.2970530">
	<ele>779.00</ele>
	<time>2025-07-29T06:01:59.000Z</time>
</trkpt>
<trkpt lat="45.9196780" lon="10.2970400">
	<ele>779.20</ele>
	<time>2025-07-29T06:02:00.000Z</time>
</trkpt>
<trkpt lat="45.9196620" lon="10.2970330">
	<ele>779.40</ele>
	<time>2025-07-29T06:02:01.000Z</time>
</trkpt>
<trkpt lat="45.9196480" lon="10.2970250">
	<ele>779.60</ele>
	<time>2025-07-29T06:02:02.000Z</time>
</trkpt>
<trkpt lat="45.9196400" lon="10.2970210">
	<ele>779.80</ele>
	<time>2025-07-29T06:02:03.000Z</time>
</trkpt>
<trkpt lat="45.9196260" lon="10.2970230">
	<ele>780.00</ele>
	<time>2025-07-29T06:02:04.000Z</time>
</trkpt>
<trkpt lat="45.9196210" lon="10.2970280">
	<ele>780.20</ele>
	<time>2025-07-29T06:02:05.000Z</time>
</trkpt>
<trkpt lat="45.9196020" lon="10.2970310">
	<ele>780.40</ele>
	<time>2025-07-29T06:02:06.000Z</time>
</trkpt>
<trkpt lat="45.9195850" lon="10.2970350">
	<ele>780.60</ele>
	<time>2025-07-29T06:02:07.000Z</time>
</trkpt>
<trkpt lat="45.9195760" lon="10.2970400">
	<ele>780.80</ele>
	<time>2025-07-29T06:02:08.000Z</time>
</trkpt>
<trkpt lat="45.9195620" lon="10.2970350">
	<ele>781.00</ele>
	<time>2025-07-29T06:02:09.000Z</time>
</trkpt>
<trkpt lat="45.9195440" lon="10.2970280">
	<ele>781.20</ele>
	<time>2025-07-29T06:02:10.000Z</time>
</trkpt>
<trkpt lat="45.9195230" lon="10.2970230">
	<ele>781.20</ele>
	<time>2025-07-29T06:02:11.000Z</time>
</trkpt>
<trkpt lat="45.9195080" lon="10.2970250">
	<ele>781.20</ele>
	<time>2025-07-29T06:02:12.000Z</time>
</trkpt>
<trkpt lat="45.9195030" lon="10.2970280">
	<ele>781.40</ele>
	<time>2025-07-29T06:02:13.000Z</time>
</trkpt>
<trkpt lat="45.9195000" lon="10.2970320">
	<ele>781.60</ele>
	<time>2025-07-29T06:02:14.000Z</time>
</trkpt>
<trkpt lat="45.9194950" lon="10.2970380">
	<ele>781.80</ele>
	<time>2025-07-29T06:02:15.000Z</time>
</trkpt>
<trkpt lat="45.9194900" lon="10.2970460">
	<ele>782.00</ele>
	<time>2025-07-29T06:02:16.000Z</time>
</trkpt>
<trkpt lat="45.9194870" lon="10.2970480">
	<ele>782.20</ele>
	<time>2025-07-29T06:02:17.000Z</time>
</trkpt>
<trkpt lat="45.9194820" lon="10.2970420">
	<ele>782.40</ele>
	<time>2025-07-29T06:02:18.000Z</time>
</trkpt>
<trkpt lat="45.9194760" lon="10.2970430">
	<ele>782.60</ele>
	<time>2025-07-29T06:02:19.000Z</time>
</trkpt>
<trkpt lat="45.9194810" lon="10.2970520">
	<ele>782.80</ele>
	<time>2025-07-29T06:02:20.000Z</time>
</trkpt>
<trkpt lat="45.9194840" lon="10.2970590">
	<ele>783.00</ele>
	<time>2025-07-29T06:02:21.000Z</time>
</trkpt>
<trkpt lat="45.9194840" lon="10.2970640">
	<ele>783.20</ele>
	<time>2025-07-29T06:02:22.000Z</time>
</trkpt>
<trkpt lat="45.9194820" lon="10.2970700">
	<ele>783.40</ele>
	<time>2025-07-29T06:02:23.000Z</time>
</trkpt>
<trkpt lat="45.9194800" lon="10.2970710">
	<ele>783.60</ele>
	<time>2025-07-29T06:02:24.000Z</time>
</trkpt>
<trkpt lat="45.9194760" lon="10.2970750">
	<ele>783.80</ele>
	<time>2025-07-29T06:02:25.000Z</time>
</trkpt>
<trkpt lat="45.9194650" lon="10.2970820">
	<ele>784.00</ele>
	<time>2025-07-29T06:02:26.000Z</time>
</trkpt>
<trkpt lat="45.9194520" lon="10.2970860">
	<ele>784.20</ele>
	<time>2025-07-29T06:02:27.000Z</time>
</trkpt>
<trkpt lat="45.9194470" lon="10.2970920">
	<ele>784.40</ele>
	<time>2025-07-29T06:02:28.000Z</time>
</trkpt>
<trkpt lat="45.9194440" lon="10.2970960">
	<ele>784.80</ele>
	<time>2025-07-29T06:02:29.000Z</time>
</trkpt>
<trkpt lat="45.9194410" lon="10.2971110">
	<ele>785.00</ele>
	<time>2025-07-29T06:02:30.000Z</time>
</trkpt>
<trkpt lat="45.9194430" lon="10.2971200">
	<ele>785.20</ele>
	<time>2025-07-29T06:02:31.000Z</time>
</trkpt>
<trkpt lat="45.9194450" lon="10.2971290">
	<ele>785.40</ele>
	<time>2025-07-29T06:02:32.000Z</time>
</trkpt>
<trkpt lat="45.9194410" lon="10.2971410">
	<ele>785.60</ele>
	<time>2025-07-29T06:02:33.000Z</time>
</trkpt>
<trkpt lat="45.9194370" lon="10.2971580">
	<ele>785.80</ele>
	<time>2025-07-29T06:02:34.000Z</time>
</trkpt>
<trkpt lat="45.9194350" lon="10.2971620">
	<ele>786.00</ele>
	<time>2025-07-29T06:02:35.000Z</time>
</trkpt>
<trkpt lat="45.9194230" lon="10.2971800">
	<ele>786.40</ele>
	<time>2025-07-29T06:02:36.000Z</time>
</trkpt>
<trkpt lat="45.9194200" lon="10.2971830">
	<ele>786.60</ele>
	<time>2025-07-29T06:02:37.000Z</time>
</trkpt>
<trkpt lat="45.9194150" lon="10.2971750">
	<ele>787.00</ele>
	<time>2025-07-29T06:02:38.000Z</time>
</trkpt>
<trkpt lat="45.9193990" lon="10.2971780">
	<ele>787.00</ele>
	<time>2025-07-29T06:02:39.000Z</time>
</trkpt>
<trkpt lat="45.9193900" lon="10.2971910">
	<ele>787.20</ele>
	<time>2025-07-29T06:02:40.000Z</time>
</trkpt>
<trkpt lat="45.9193790" lon="10.2972060">
	<ele>787.40</ele>
	<time>2025-07-29T06:02:41.000Z</time>
</trkpt>
<trkpt lat="45.9193620" lon="10.2972270">
	<ele>787.60</ele>
	<time>2025-07-29T06:02:42.000Z</time>
</trkpt>
<trkpt lat="45.9193600" lon="10.2972440">
	<ele>787.80</ele>
	<time>2025-07-29T06:02:43.000Z</time>
</trkpt>
<trkpt lat="45.9193660" lon="10.2972660">
	<ele>788.00</ele>
	<time>2025-07-29T06:02:44.000Z</time>
</trkpt>
<trkpt lat="45.9193620" lon="10.2972730">
	<ele>788.40</ele>
	<time>2025-07-29T06:02:45.000Z</time>
</trkpt>
<trkpt lat="45.9193600" lon="10.2972750">
	<ele>788.40</ele>
	<time>2025-07-29T06:02:46.000Z</time>
</trkpt>
<trkpt lat="45.9193550" lon="10.2972760">
	<ele>788.60</ele>
	<time>2025-07-29T06:02:47.000Z</time>
</trkpt>
<trkpt lat="45.9193440" lon="10.2972700">
	<ele>788.80</ele>
	<time>2025-07-29T06:02:48.000Z</time>
</trkpt>
<trkpt lat="45.9193420" lon="10.2972750">
	<ele>789.00</ele>
	<time>2025-07-29T06:02:49.000Z</time>
</trkpt>
<trkpt lat="45.9193290" lon="10.2972670">
	<ele>789.40</ele>
	<time>2025-07-29T06:02:50.000Z</time>
</trkpt>
<trkpt lat="45.9193150" lon="10.2972790">
	<ele>789.60</ele>
	<time>2025-07-29T06:02:51.000Z</time>
</trkpt>
<trkpt lat="45.9193070" lon="10.2973010">
	<ele>789.80</ele>
	<time>2025-07-29T06:02:52.000Z</time>
</trkpt>
<trkpt lat="45.9193060" lon="10.2973190">
	<ele>790.00</ele>
	<time>2025-07-29T06:02:53.000Z</time>
</trkpt>
<trkpt lat="45.9193130" lon="10.2973350">
	<ele>790.20</ele>
	<time>2025-07-29T06:02:54.000Z</time>
</trkpt>
<trkpt lat="45.9193190" lon="10.2973450">
	<ele>790.40</ele>
	<time>2025-07-29T06:02:55.000Z</time>
</trkpt>
<trkpt lat="45.9193160" lon="10.2973510">
	<ele>790.40</ele>
	<time>2025-07-29T06:02:56.000Z</time>
</trkpt>
<trkpt lat="45.9193120" lon="10.2973590">
	<ele>790.60</ele>
	<time>2025-07-29T06:02:57.000Z</time>
</trkpt>
<trkpt lat="45.9193070" lon="10.2973730">
	<ele>791.00</ele>
	<time>2025-07-29T06:02:58.000Z</time>
</trkpt>
<trkpt lat="45.9193050" lon="10.2973810">
	<ele>791.20</ele>
	<time>2025-07-29T06:02:59.000Z</time>
</trkpt>
<trkpt lat="45.9192990" lon="10.2973850">
	<ele>791.40</ele>
	<time>2025-07-29T06:03:00.000Z</time>
</trkpt>
<trkpt lat="45.9192970" lon="10.2973930">
	<ele>791.40</ele>
	<time>2025-07-29T06:03:01.000Z</time>
</trkpt>
<trkpt lat="45.9192960" lon="10.2973970">
	<ele>791.80</ele>
	<time>2025-07-29T06:03:02.000Z</time>
</trkpt>
<trkpt lat="45.9193000" lon="10.2973990">
	<ele>792.00</ele>
	<time>2025-07-29T06:03:03.000Z</time>
</trkpt>
<trkpt lat="45.9193060" lon="10.2974040">
	<ele>792.00</ele>
	<time>2025-07-29T06:03:04.000Z</time>
</trkpt>
<trkpt lat="45.9193100" lon="10.2974140">
	<ele>792.40</ele>
	<time>2025-07-29T06:03:05.000Z</time>
</trkpt>
<trkpt lat="45.9193120" lon="10.2974270">
	<ele>792.60</ele>
	<time>2025-07-29T06:03:06.000Z</time>
</trkpt>
<trkpt lat="45.9193190" lon="10.2974430">
	<ele>792.80</ele>
	<time>2025-07-29T06:03:07.000Z</time>
</trkpt>
<trkpt lat="45.9193140" lon="10.2974560">
	<ele>793.00</ele>
	<time>2025-07-29T06:03:08.000Z</time>
</trkpt>
<trkpt lat="45.9193050" lon="10.2974660">
	<ele>793.40</ele>
	<time>2025-07-29T06:03:09.000Z</time>
</trkpt>
<trkpt lat="45.9192950" lon="10.2974730">
	<ele>793.40</ele>
	<time>2025-07-29T06:03:10.000Z</time>
</trkpt>
<trkpt lat="45.9192930" lon="10.2974810">
	<ele>793.60</ele>
	<time>2025-07-29T06:03:11.000Z</time>
</trkpt>
<trkpt lat="45.9192930" lon="10.2974870">
	<ele>793.80</ele>
	<time>2025-07-29T06:03:12.000Z</time>
</trkpt>
<trkpt lat="45.9192950" lon="10.2974940">
	<ele>794.00</ele>
	<time>2025-07-29T06:03:13.000Z</time>
</trkpt>
<trkpt lat="45.9192950" lon="10.2974980">
	<ele>794.40</ele>
	<time>2025-07-29T06:03:14.000Z</time>
</trkpt>
<trkpt lat="45.9192900" lon="10.2975050">
	<ele>794.60</ele>
	<time>2025-07-29T06:03:15.000Z</time>
</trkpt>
<trkpt lat="45.9192840" lon="10.2975140">
	<ele>794.80</ele>
	<time>2025-07-29T06:03:16.000Z</time>
</trkpt>
<trkpt lat="45.9192790" lon="10.2975270">
	<ele>795.00</ele>
	<time>2025-07-29T06:03:17.000Z</time>
</trkpt>
<trkpt lat="45.9192830" lon="10.2975400">
	<ele>795.20</ele>
	<time>2025-07-29T06:03:18.000Z</time>
</trkpt>
<trkpt lat="45.9192880" lon="10.2975540">
	<ele>795.40</ele>
	<time>2025-07-29T06:03:19.000Z</time>
</trkpt>
<trkpt lat="45.9192870" lon="10.2975690">
	<ele>795.60</ele>
	<time>2025-07-29T06:03:20.000Z</time>
</trkpt>
<trkpt lat="45.9192810" lon="10.2975800">
	<ele>795.80</ele>
	<time>2025-07-29T06:03:21.000Z</time>
</trkpt>
<trkpt lat="45.9192730" lon="10.2975900">
	<ele>796.00</ele>
	<time>2025-07-29T06:03:22.000Z</time>
</trkpt>
<trkpt lat="45.9192660" lon="10.2975970">
	<ele>796.20</ele>
	<time>2025-07-29T06:03:23.000Z</time>
</trkpt>
<trkpt lat="45.9192600" lon="10.2976030">
	<ele>796.40</ele>
	<time>2025-07-29T06:03:24.000Z</time>
</trkpt>
<trkpt lat="45.9192490" lon="10.2976050">
	<ele>796.40</ele>
	<time>2025-07-29T06:03:25.000Z</time>
</trkpt>
<trkpt lat="45.9192450" lon="10.2976070">
	<ele>796.60</ele>
	<time>2025-07-29T06:03:26.000Z</time>
</trkpt>
<trkpt lat="45.9192360" lon="10.2976110">
	<ele>796.60</ele>
	<time>2025-07-29T06:03:27.000Z</time>
</trkpt>
<trkpt lat="45.9192330" lon="10.2976080">
	<ele>796.80</ele>
	<time>2025-07-29T06:03:28.000Z</time>
</trkpt>
<trkpt lat="45.9192260" lon="10.2976100">
	<ele>797.00</ele>
	<time>2025-07-29T06:03:29.000Z</time>
</trkpt>
<trkpt lat="45.9192200" lon="10.2976170">
	<ele>797.20</ele>
	<time>2025-07-29T06:03:30.000Z</time>
</trkpt>
<trkpt lat="45.9192130" lon="10.2976190">
	<ele>797.40</ele>
	<time>2025-07-29T06:03:31.000Z</time>
</trkpt>
<trkpt lat="45.9192060" lon="10.2976180">
	<ele>797.40</ele>
	<time>2025-07-29T06:03:32.000Z</time>
</trkpt>
<trkpt lat="45.9191950" lon="10.2976240">
	<ele>797.60</ele>
	<time>2025-07-29T06:03:33.000Z</time>
</trkpt>
<trkpt lat="45.9191960" lon="10.2976250">
	<ele>797.80</ele>
	<time>2025-07-29T06:03:34.000Z</time>
</trkpt>
<trkpt lat="45.9191960" lon="10.2976280">
	<ele>798.00</ele>
	<time>2025-07-29T06:03:35.000Z</time>
</trkpt>
<trkpt lat="45.9191980" lon="10.2976290">
	<ele>798.00</ele>
	<time>2025-07-29T06:03:36.000Z</time>
</trkpt>
<trkpt lat="45.9191890" lon="10.2976270">
	<ele>798.20</ele>
	<time>2025-07-29T06:03:37.000Z</time>
</trkpt>
<trkpt lat="45.9191790" lon="10.2976180">
	<ele>798.40</ele>
	<time>2025-07-29T06:03:38.000Z</time>
</trkpt>
<trkpt lat="45.9191720" lon="10.2976090">
	<ele>798.60</ele>
	<time>2025-07-29T06:03:39.000Z</time>
</trkpt>
<trkpt lat="45.9191620" lon="10.2976150">
	<ele>798.60</ele>
	<time>2025-07-29T06:03:40.000Z</time>
</trkpt>
<trkpt lat="45.9191570" lon="10.2976170">
	<ele>798.80</ele>
	<time>2025-07-29T06:03:41.000Z</time>
</trkpt>
<trkpt lat="45.9191540" lon="10.2976080">
	<ele>799.00</ele>
	<time>2025-07-29T06:03:42.000Z</time>
</trkpt>
<trkpt lat="45.9191500" lon="10.2975980">
	<ele>799.20</ele>
	<time>2025-07-29T06:03:43.000Z</time>
</trkpt>
<trkpt lat="45.9191490" lon="10.2975900">
	<ele>799.20</ele>
	<time>2025-07-29T06:03:44.000Z</time>
</trkpt>
<trkpt lat="45.9191460" lon="10.2975900">
	<ele>799.60</ele>
	<time>2025-07-29T06:03:45.000Z</time>
</trkpt>
<trkpt lat="45.9191480" lon="10.2975880">
	<ele>799.80</ele>
	<time>2025-07-29T06:03:46.000Z</time>
</trkpt>
<trkpt lat="45.9191500" lon="10.2975850">
	<ele>799.80</ele>
	<time>2025-07-29T06:03:47.000Z</time>
</trkpt>
<trkpt lat="45.9191440" lon="10.2975710">
	<ele>800.20</ele>
	<time>2025-07-29T06:03:48.000Z</time>
</trkpt>
<trkpt lat="45.9191390" lon="10.2975650">
	<ele>800.40</ele>
	<time>2025-07-29T06:03:49.000Z</time>
</trkpt>
<trkpt lat="45.9191390" lon="10.2975560">
	<ele>800.40</ele>
	<time>2025-07-29T06:03:50.000Z</time>
</trkpt>
<trkpt lat="45.9191400" lon="10.2975510">
	<ele>800.60</ele>
	<time>2025-07-29T06:03:51.000Z</time>
</trkpt>
<trkpt lat="45.9191350" lon="10.2975510">
	<ele>800.60</ele>
	<time>2025-07-29T06:03:52.000Z</time>
</trkpt>
<trkpt lat="45.9191410" lon="10.2975500">
	<ele>800.80</ele>
	<time>2025-07-29T06:03:53.000Z</time>
</trkpt>
<trkpt lat="45.9191360" lon="10.2975510">
	<ele>801.00</ele>
	<time>2025-07-29T06:03:54.000Z</time>
</trkpt>
<trkpt lat="45.9191340" lon="10.2975520">
	<ele>801.20</ele>
	<time>2025-07-29T06:03:55.000Z</time>
</trkpt>
<trkpt lat="45.9191400" lon="10.2975450">
	<ele>801.40</ele>
	<time>2025-07-29T06:03:56.000Z</time>
</trkpt>
<trkpt lat="45.9191470" lon="10.2975340">
	<ele>801.60</ele>
	<time>2025-07-29T06:03:57.000Z</time>
</trkpt>
<trkpt lat="45.9191520" lon="10.2975290">
	<ele>801.60</ele>
	<time>2025-07-29T06:03:58.000Z</time>
</trkpt>
<trkpt lat="45.9191520" lon="10.2975250">
	<ele>802.00</ele>
	<time>2025-07-29T06:03:59.000Z</time>
</trkpt>
<trkpt lat="45.9191510" lon="10.2975190">
	<ele>802.40</ele>
	<time>2025-07-29T06:04:00.000Z</time>
</trkpt>
<trkpt lat="45.9191530" lon="10.2975020">
	<ele>802.40</ele>
	<time>2025-07-29T06:04:01.000Z</time>
</trkpt>
<trkpt lat="45.9191590" lon="10.2974850">
	<ele>802.60</ele>
	<time>2025-07-29T06:04:02.000Z</time>
</trkpt>
<trkpt lat="45.9191560" lon="10.2974780">
	<ele>802.80</ele>
	<time>2025-07-29T06:04:03.000Z</time>
</trkpt>
<trkpt lat="45.9191470" lon="10.2974760">
	<ele>803.00</ele>
	<time>2025-07-29T06:04:04.000Z</time>
</trkpt>
<trkpt lat="45.9191400" lon="10.2974710">
	<ele>803.20</ele>
	<time>2025-07-29T06:04:05.000Z</time>
</trkpt>
<trkpt lat="45.9191420" lon="10.2974650">
	<ele>803.40</ele>
	<time>2025-07-29T06:04:06.000Z</time>
</trkpt>
<trkpt lat="45.9191450" lon="10.2974550">
	<ele>803.60</ele>
	<time>2025-07-29T06:04:07.000Z</time>
</trkpt>
<trkpt lat="45.9191500" lon="10.2974490">
	<ele>803.60</ele>
	<time>2025-07-29T06:04:08.000Z</time>
</trkpt>
<trkpt lat="45.9191560" lon="10.2974370">
	<ele>804.00</ele>
	<time>2025-07-29T06:04:09.000Z</time>
</trkpt>
<trkpt lat="45.9191600" lon="10.2974270">
	<ele>804.40</ele>
	<time>2025-07-29T06:04:10.000Z</time>
</trkpt>
<trkpt lat="45.9191660" lon="10.2974170">
	<ele>804.60</ele>
	<time>2025-07-29T06:04:11.000Z</time>
</trkpt>
<trkpt lat="45.9191630" lon="10.2974020">
	<ele>804.80</ele>
	<time>2025-07-29T06:04:12.000Z</time>
</trkpt>
<trkpt lat="45.9191520" lon="10.2973910">
	<ele>805.00</ele>
	<time>2025-07-29T06:04:13.000Z</time>
</trkpt>
<trkpt lat="45.9191380" lon="10.2973760">
	<ele>805.20</ele>
	<time>2025-07-29T06:04:14.000Z</time>
</trkpt>
<trkpt lat="45.9191390" lon="10.2973580">
	<ele>805.40</ele>
	<time>2025-07-29T06:04:15.000Z</time>
</trkpt>
<trkpt lat="45.9191360" lon="10.2973480">
	<ele>805.60</ele>
	<time>2025-07-29T06:04:16.000Z</time>
</trkpt>
<trkpt lat="45.9191270" lon="10.2973390">
	<ele>805.60</ele>
	<time>2025-07-29T06:04:17.000Z</time>
</trkpt>
<trkpt lat="45.9191200" lon="10.2973290">
	<ele>805.80</ele>
	<time>2025-07-29T06:04:18.000Z</time>
</trkpt>
<trkpt lat="45.9191160" lon="10.2973150">
	<ele>806.00</ele>
	<time>2025-07-29T06:04:19.000Z</time>
</trkpt>
<trkpt lat="45.9191150" lon="10.2972970">
	<ele>806.20</ele>
	<time>2025-07-29T06:04:20.000Z</time>
</trkpt>
<trkpt lat="45.9191040" lon="10.2972760">
	<ele>806.20</ele>
	<time>2025-07-29T06:04:21.000Z</time>
</trkpt>
<trkpt lat="45.9190940" lon="10.2972510">
	<ele>806.40</ele>
	<time>2025-07-29T06:04:22.000Z</time>
</trkpt>
<trkpt lat="45.9190910" lon="10.2972450">
	<ele>806.60</ele>
	<time>2025-07-29T06:04:23.000Z</time>
</trkpt>
<trkpt lat="45.9190740" lon="10.2972190">
	<ele>807.00</ele>
	<time>2025-07-29T06:04:24.000Z</time>
</trkpt>
<trkpt lat="45.9190560" lon="10.2972050">
	<ele>807.20</ele>
	<time>2025-07-29T06:04:25.000Z</time>
</trkpt>
<trkpt lat="45.9190530" lon="10.2972010">
	<ele>807.40</ele>
	<time>2025-07-29T06:04:26.000Z</time>
</trkpt>
<trkpt lat="45.9190350" lon="10.2971940">
	<ele>807.40</ele>
	<time>2025-07-29T06:04:27.000Z</time>
</trkpt>
<trkpt lat="45.9190120" lon="10.2971820">
	<ele>807.60</ele>
	<time>2025-07-29T06:04:28.000Z</time>
</trkpt>
<trkpt lat="45.9189910" lon="10.2971630">
	<ele>807.80</ele>
	<time>2025-07-29T06:04:29.000Z</time>
</trkpt>
<trkpt lat="45.9189690" lon="10.2971500">
	<ele>808.00</ele>
	<time>2025-07-29T06:04:30.000Z</time>
</trkpt>
<trkpt lat="45.9189510" lon="10.2971380">
	<ele>808.00</ele>
	<time>2025-07-29T06:04:31.000Z</time>
</trkpt>
<trkpt lat="45.9189430" lon="10.2971300">
	<ele>808.20</ele>
	<time>2025-07-29T06:04:32.000Z</time>
</trkpt>
<trkpt lat="45.9189370" lon="10.2971210">
	<ele>808.20</ele>
	<time>2025-07-29T06:04:33.000Z</time>
</trkpt>
<trkpt lat="45.9189370" lon="10.2971120">
	<ele>808.20</ele>
	<time>2025-07-29T06:04:34.000Z</time>
</trkpt>
<trkpt lat="45.9189550" lon="10.2971070">
	<ele>808.20</ele>
	<time>2025-07-29T06:04:35.000Z</time>
</trkpt>
<trkpt lat="45.9189710" lon="10.2970970">
	<ele>808.20</ele>
	<time>2025-07-29T06:04:36.000Z</time>
</trkpt>
<trkpt lat="45.9189850" lon="10.2970830">
	<ele>808.40</ele>
	<time>2025-07-29T06:04:37.000Z</time>
</trkpt>
<trkpt lat="45.9189900" lon="10.2970660">
	<ele>808.60</ele>
	<time>2025-07-29T06:04:38.000Z</time>
</trkpt>
<trkpt lat="45.9189910" lon="10.2970500">
	<ele>808.60</ele>
	<time>2025-07-29T06:04:39.000Z</time>
</trkpt>
<trkpt lat="45.9189940" lon="10.2970340">
	<ele>808.80</ele>
	<time>2025-07-29T06:04:40.000Z</time>
</trkpt>
<trkpt lat="45.9189950" lon="10.2970150">
	<ele>809.00</ele>
	<time>2025-07-29T06:04:41.000Z</time>
</trkpt>
<trkpt lat="45.9189910" lon="10.2969970">
	<ele>809.20</ele>
	<time>2025-07-29T06:04:42.000Z</time>
</trkpt>
<trkpt lat="45.9189920" lon="10.2969820">
	<ele>809.20</ele>
	<time>2025-07-29T06:04:43.000Z</time>
</trkpt>
<trkpt lat="45.9189870" lon="10.2969680">
	<ele>809.40</ele>
	<time>2025-07-29T06:04:44.000Z</time>
</trkpt>
<trkpt lat="45.9189800" lon="10.2969570">
	<ele>809.40</ele>
	<time>2025-07-29T06:04:45.000Z</time>
</trkpt>
<trkpt lat="45.9189730" lon="10.2969430">
	<ele>809.60</ele>
	<time>2025-07-29T06:04:46.000Z</time>
</trkpt>
<trkpt lat="45.9189670" lon="10.2969300">
	<ele>809.60</ele>
	<time>2025-07-29T06:04:47.000Z</time>
</trkpt>
<trkpt lat="45.9189710" lon="10.2969100">
	<ele>809.80</ele>
	<time>2025-07-29T06:04:48.000Z</time>
</trkpt>
<trkpt lat="45.9189740" lon="10.2968900">
	<ele>810.00</ele>
	<time>2025-07-29T06:04:49.000Z</time>
</trkpt>
<trkpt lat="45.9189780" lon="10.2968720">
	<ele>810.20</ele>
	<time>2025-07-29T06:04:50.000Z</time>
</trkpt>
<trkpt lat="45.9189800" lon="10.2968580">
	<ele>810.40</ele>
	<time>2025-07-29T06:04:51.000Z</time>
</trkpt>
<trkpt lat="45.9189660" lon="10.2968510">
	<ele>810.60</ele>
	<time>2025-07-29T06:04:52.000Z</time>
</trkpt>
<trkpt lat="45.9189540" lon="10.2968450">
	<ele>810.80</ele>
	<time>2025-07-29T06:04:53.000Z</time>
</trkpt>
<trkpt lat="45.9189520" lon="10.2968370">
	<ele>811.00</ele>
	<time>2025-07-29T06:04:54.000Z</time>
</trkpt>
<trkpt lat="45.9189470" lon="10.2968310">
	<ele>811.20</ele>
	<time>2025-07-29T06:04:55.000Z</time>
</trkpt>
<trkpt lat="45.9189420" lon="10.2968270">
	<ele>811.20</ele>
	<time>2025-07-29T06:04:56.000Z</time>
</trkpt>
<trkpt lat="45.9189480" lon="10.2968210">
	<ele>811.40</ele>
	<time>2025-07-29T06:04:57.000Z</time>
</trkpt>
<trkpt lat="45.9189530" lon="10.2968180">
	<ele>811.60</ele>
	<time>2025-07-29T06:04:58.000Z</time>
</trkpt>
<trkpt lat="45.9189450" lon="10.2968120">
	<ele>811.80</ele>
	<time>2025-07-29T06:04:59.000Z</time>
</trkpt>
<trkpt lat="45.9189310" lon="10.2968080">
	<ele>811.80</ele>
	<time>2025-07-29T06:05:00.000Z</time>
</trkpt>
<trkpt lat="45.9189160" lon="10.2967930">
	<ele>812.00</ele>
	<time>2025-07-29T06:05:01.000Z</time>
</trkpt>
<trkpt lat="45.9189020" lon="10.2967810">
	<ele>812.20</ele>
	<time>2025-07-29T06:05:02.000Z</time>
</trkpt>
<trkpt lat="45.9188750" lon="10.2967740">
	<ele>812.40</ele>
	<time>2025-07-29T06:05:03.000Z</time>
</trkpt>
<trkpt lat="45.9188610" lon="10.2967620">
	<ele>812.40</ele>
	<time>2025-07-29T06:05:04.000Z</time>
</trkpt>
<trkpt lat="45.9188650" lon="10.2967520">
	<ele>812.60</ele>
	<time>2025-07-29T06:05:05.000Z</time>
</trkpt>
<trkpt lat="45.9188640" lon="10.2967450">
	<ele>812.80</ele>
	<time>2025-07-29T06:05:06.000Z</time>
</trkpt>
<trkpt lat="45.9188700" lon="10.2967350">
	<ele>813.00</ele>
	<time>2025-07-29T06:05:07.000Z</time>
</trkpt>
<trkpt lat="45.9188740" lon="10.2967210">
	<ele>813.00</ele>
	<time>2025-07-29T06:05:08.000Z</time>
</trkpt>
<trkpt lat="45.9188760" lon="10.2967120">
	<ele>813.40</ele>
	<time>2025-07-29T06:05:09.000Z</time>
</trkpt>
<trkpt lat="45.9188790" lon="10.2967090">
	<ele>813.40</ele>
	<time>2025-07-29T06:05:10.000Z</time>
</trkpt>
<trkpt lat="45.9188780" lon="10.2967010">
	<ele>813.60</ele>
	<time>2025-07-29T06:05:11.000Z</time>
</trkpt>
<trkpt lat="45.9188760" lon="10.2966950">
	<ele>813.60</ele>
	<time>2025-07-29T06:05:12.000Z</time>
</trkpt>
<trkpt lat="45.9188750" lon="10.2966850">
	<ele>813.80</ele>
	<time>2025-07-29T06:05:13.000Z</time>
</trkpt>
<trkpt lat="45.9188650" lon="10.2966720">
	<ele>814.20</ele>
	<time>2025-07-29T06:05:14.000Z</time>
</trkpt>
<trkpt lat="45.9188550" lon="10.2966600">
	<ele>814.20</ele>
	<time>2025-07-29T06:05:15.000Z</time>
</trkpt>
<trkpt lat="45.9188440" lon="10.2966490">
	<ele>814.40</ele>
	<time>2025-07-29T06:05:16.000Z</time>
</trkpt>
<trkpt lat="45.9188390" lon="10.2966340">
	<ele>814.60</ele>
	<time>2025-07-29T06:05:17.000Z</time>
</trkpt>
<trkpt lat="45.9188370" lon="10.2966200">
	<ele>814.80</ele>
	<time>2025-07-29T06:05:18.000Z</time>
</trkpt>
<trkpt lat="45.9188370" lon="10.2966070">
	<ele>815.20</ele>
	<time>2025-07-29T06:05:19.000Z</time>
</trkpt>
<trkpt lat="45.9188360" lon="10.2965960">
	<ele>815.40</ele>
	<time>2025-07-29T06:05:20.000Z</time>
</trkpt>
<trkpt lat="45.9188210" lon="10.2965880">
	<ele>815.60</ele>
	<time>2025-07-29T06:05:21.000Z</time>
</trkpt>
<trkpt lat="45.9188090" lon="10.2965790">
	<ele>815.80</ele>
	<time>2025-07-29T06:05:22.000Z</time>
</trkpt>
<trkpt lat="45.9188080" lon="10.2965810">
	<ele>816.00</ele>
	<time>2025-07-29T06:05:23.000Z</time>
</trkpt>
<trkpt lat="45.9187970" lon="10.2965640">
	<ele>816.20</ele>
	<time>2025-07-29T06:05:24.000Z</time>
</trkpt>
<trkpt lat="45.9187920" lon="10.2965620">
	<ele>816.40</ele>
	<time>2025-07-29T06:05:25.000Z</time>
</trkpt>
<trkpt lat="45.9187880" lon="10.2965610">
	<ele>816.80</ele>
	<time>2025-07-29T06:05:26.000Z</time>
</trkpt>
<trkpt lat="45.9187850" lon="10.2965610">
	<ele>816.80</ele>
	<time>2025-07-29T06:05:27.000Z</time>
</trkpt>
<trkpt lat="45.9187880" lon="10.2965550">
	<ele>817.00</ele>
	<time>2025-07-29T06:05:28.000Z</time>
</trkpt>
<trkpt lat="45.9187920" lon="10.2965450">
	<ele>817.20</ele>
	<time>2025-07-29T06:05:29.000Z</time>
</trkpt>
<trkpt lat="45.9188030" lon="10.2965370">
	<ele>817.40</ele>
	<time>2025-07-29T06:05:30.000Z</time>
</trkpt>
<trkpt lat="45.9188100" lon="10.2965200">
	<ele>817.60</ele>
	<time>2025-07-29T06:05:31.000Z</time>
</trkpt>
<trkpt lat="45.9188100" lon="10.2965120">
	<ele>817.80</ele>
	<time>2025-07-29T06:05:32.000Z</time>
</trkpt>
<trkpt lat="45.9188110" lon="10.2965050">
	<ele>818.00</ele>
	<time>2025-07-29T06:05:33.000Z</time>
</trkpt>
<trkpt lat="45.9188100" lon="10.2964940">
	<ele>818.20</ele>
	<time>2025-07-29T06:05:34.000Z</time>
</trkpt>
<trkpt lat="45.9188040" lon="10.2964820">
	<ele>818.40</ele>
	<time>2025-07-29T06:05:35.000Z</time>
</trkpt>
<trkpt lat="45.9188000" lon="10.2964730">
	<ele>818.60</ele>
	<time>2025-07-29T06:05:36.000Z</time>
</trkpt>
<trkpt lat="45.9187870" lon="10.2964720">
	<ele>818.80</ele>
	<time>2025-07-29T06:05:37.000Z</time>
</trkpt>
<trkpt lat="45.9187880" lon="10.2964620">
	<ele>819.20</ele>
	<time>2025-07-29T06:05:38.000Z</time>
</trkpt>
<trkpt lat="45.9187800" lon="10.2964520">
	<ele>819.40</ele>
	<time>2025-07-29T06:05:39.000Z</time>
</trkpt>
<trkpt lat="45.9187730" lon="10.2964430">
	<ele>819.60</ele>
	<time>2025-07-29T06:05:40.000Z</time>
</trkpt>
<trkpt lat="45.9187680" lon="10.2964310">
	<ele>819.80</ele>
	<time>2025-07-29T06:05:41.000Z</time>
</trkpt>
<trkpt lat="45.9187590" lon="10.2964240">
	<ele>820.00</ele>
	<time>2025-07-29T06:05:42.000Z</time>
</trkpt>
<trkpt lat="45.9187530" lon="10.2964170">
	<ele>820.20</ele>
	<time>2025-07-29T06:05:43.000Z</time>
</trkpt>
<trkpt lat="45.9187560" lon="10.2964080">
	<ele>820.20</ele>
	<time>2025-07-29T06:05:44.000Z</time>
</trkpt>
<trkpt lat="45.9187570" lon="10.2963970">
	<ele>820.40</ele>
	<time>2025-07-29T06:05:45.000Z</time>
</trkpt>
<trkpt lat="45.9187560" lon="10.2963930">
	<ele>820.60</ele>
	<time>2025-07-29T06:05:46.000Z</time>
</trkpt>
<trkpt lat="45.9187430" lon="10.2963860">
	<ele>820.80</ele>
	<time>2025-07-29T06:05:47.000Z</time>
</trkpt>
<trkpt lat="45.9187280" lon="10.2963800">
	<ele>821.00</ele>
	<time>2025-07-29T06:05:48.000Z</time>
</trkpt>
<trkpt lat="45.9187180" lon="10.2963740">
	<ele>821.20</ele>
	<time>2025-07-29T06:05:49.000Z</time>
</trkpt>
<trkpt lat="45.9187110" lon="10.2963650">
	<ele>821.40</ele>
	<time>2025-07-29T06:05:50.000Z</time>
</trkpt>
<trkpt lat="45.9187100" lon="10.2963620">
	<ele>821.60</ele>
	<time>2025-07-29T06:05:51.000Z</time>
</trkpt>
<trkpt lat="45.9187080" lon="10.2963580">
	<ele>821.80</ele>
	<time>2025-07-29T06:05:52.000Z</time>
</trkpt>
<trkpt lat="45.9186990" lon="10.2963470">
	<ele>822.00</ele>
	<time>2025-07-29T06:05:53.000Z</time>
</trkpt>
<trkpt lat="45.9186900" lon="10.2963410">
	<ele>822.20</ele>
	<time>2025-07-29T06:05:54.000Z</time>
</trkpt>
<trkpt lat="45.9186850" lon="10.2963340">
	<ele>822.40</ele>
	<time>2025-07-29T06:05:55.000Z</time>
</trkpt>
<trkpt lat="45.9186850" lon="10.2963260">
	<ele>822.60</ele>
	<time>2025-07-29T06:05:56.000Z</time>
</trkpt>
<trkpt lat="45.9186860" lon="10.2963090">
	<ele>822.80</ele>
	<time>2025-07-29T06:05:57.000Z</time>
</trkpt>
<trkpt lat="45.9186840" lon="10.2962970">
	<ele>822.80</ele>
	<time>2025-07-29T06:05:58.000Z</time>
</trkpt>
<trkpt lat="45.9186720" lon="10.2962910">
	<ele>823.00</ele>
	<time>2025-07-29T06:05:59.000Z</time>
</trkpt>
<trkpt lat="45.9186500" lon="10.2962840">
	<ele>823.20</ele>
	<time>2025-07-29T06:06:00.000Z</time>
</trkpt>
<trkpt lat="45.9186220" lon="10.2962660">
	<ele>823.40</ele>
	<time>2025-07-29T06:06:01.000Z</time>
</trkpt>
<trkpt lat="45.9186010" lon="10.2962560">
	<ele>823.60</ele>
	<time>2025-07-29T06:06:02.000Z</time>
</trkpt>
<trkpt lat="45.9185790" lon="10.2962430">
	<ele>823.80</ele>
	<time>2025-07-29T06:06:03.000Z</time>
</trkpt>
<trkpt lat="45.9185710" lon="10.2962280">
	<ele>824.00</ele>
	<time>2025-07-29T06:06:04.000Z</time>
</trkpt>
<trkpt lat="45.9185620" lon="10.2962150">
	<ele>824.00</ele>
	<time>2025-07-29T06:06:05.000Z</time>
</trkpt>
<trkpt lat="45.9185480" lon="10.2962060">
	<ele>824.20</ele>
	<time>2025-07-29T06:06:06.000Z</time>
</trkpt>
<trkpt lat="45.9185340" lon="10.2961910">
	<ele>824.20</ele>
	<time>2025-07-29T06:06:07.000Z</time>
</trkpt>
<trkpt lat="45.9185140" lon="10.2961840">
	<ele>824.40</ele>
	<time>2025-07-29T06:06:08.000Z</time>
</trkpt>
<trkpt lat="45.9184900" lon="10.2961730">
	<ele>824.60</ele>
	<time>2025-07-29T06:06:09.000Z</time>
</trkpt>
<trkpt lat="45.9184790" lon="10.2961700">
	<ele>824.60</ele>
	<time>2025-07-29T06:06:10.000Z</time>
</trkpt>
<trkpt lat="45.9184710" lon="10.2961720">
	<ele>824.80</ele>
	<time>2025-07-29T06:06:11.000Z</time>
</trkpt>
<trkpt lat="45.9184700" lon="10.2961880">
	<ele>824.80</ele>
	<time>2025-07-29T06:06:12.000Z</time>
</trkpt>
<trkpt lat="45.9184690" lon="10.2962070">
	<ele>825.00</ele>
	<time>2025-07-29T06:06:13.000Z</time>
</trkpt>
<trkpt lat="45.9184740" lon="10.2962210">
	<ele>825.00</ele>
	<time>2025-07-29T06:06:14.000Z</time>
</trkpt>
<trkpt lat="45.9184660" lon="10.2962420">
	<ele>825.00</ele>
	<time>2025-07-29T06:06:15.000Z</time>
</trkpt>
<trkpt lat="45.9184520" lon="10.2962560">
	<ele>825.20</ele>
	<time>2025-07-29T06:06:16.000Z</time>
</trkpt>
<trkpt lat="45.9184380" lon="10.2962800">
	<ele>825.40</ele>
	<time>2025-07-29T06:06:17.000Z</time>
</trkpt>
<trkpt lat="45.9184220" lon="10.2963070">
	<ele>825.80</ele>
	<time>2025-07-29T06:06:18.000Z</time>
</trkpt>
<trkpt lat="45.9184090" lon="10.2963370">
	<ele>825.80</ele>
	<time>2025-07-29T06:06:19.000Z</time>
</trkpt>
<trkpt lat="45.9184030" lon="10.2963600">
	<ele>826.20</ele>
	<time>2025-07-29T06:06:20.000Z</time>
</trkpt>
<trkpt lat="45.9184000" lon="10.2963750">
	<ele>826.40</ele>
	<time>2025-07-29T06:06:21.000Z</time>
</trkpt>
<trkpt lat="45.9183930" lon="10.2963870">
	<ele>826.40</ele>
	<time>2025-07-29T06:06:22.000Z</time>
</trkpt>
<trkpt lat="45.9183830" lon="10.2963990">
	<ele>826.60</ele>
	<time>2025-07-29T06:06:23.000Z</time>
</trkpt>
<trkpt lat="45.9183810" lon="10.2964080">
	<ele>826.80</ele>
	<time>2025-07-29T06:06:24.000Z</time>
</trkpt>
<trkpt lat="45.9183980" lon="10.2964270">
	<ele>827.00</ele>
	<time>2025-07-29T06:06:25.000Z</time>
</trkpt>
<trkpt lat="45.9183970" lon="10.2964350">
	<ele>827.40</ele>
	<time>2025-07-29T06:06:26.000Z</time>
</trkpt>
<trkpt lat="45.9183940" lon="10.2964310">
	<ele>827.40</ele>
	<time>2025-07-29T06:06:27.000Z</time>
</trkpt>
<trkpt lat="45.9183950" lon="10.2964360">
	<ele>827.60</ele>
	<time>2025-07-29T06:06:28.000Z</time>
</trkpt>
<trkpt lat="45.9183910" lon="10.2964310">
	<ele>827.80</ele>
	<time>2025-07-29T06:06:29.000Z</time>
</trkpt>
<trkpt lat="45.9183880" lon="10.2964360">
	<ele>828.00</ele>
	<time>2025-07-29T06:06:30.000Z</time>
</trkpt>
<trkpt lat="45.9183940" lon="10.2964460">
	<ele>828.40</ele>
	<time>2025-07-29T06:06:31.000Z</time>
</trkpt>
<trkpt lat="45.9184020" lon="10.2964610">
	<ele>828.60</ele>
	<time>2025-07-29T06:06:32.000Z</time>
</trkpt>
<trkpt lat="45.9183990" lon="10.2964720">
	<ele>828.80</ele>
	<time>2025-07-29T06:06:33.000Z</time>
</trkpt>
<trkpt lat="45.9183950" lon="10.2964790">
	<ele>829.00</ele>
	<time>2025-07-29T06:06:34.000Z</time>
</trkpt>
<trkpt lat="45.9183910" lon="10.2964840">
	<ele>829.20</ele>
	<time>2025-07-29T06:06:35.000Z</time>
</trkpt>
<trkpt lat="45.9183930" lon="10.2964850">
	<ele>829.40</ele>
	<time>2025-07-29T06:06:36.000Z</time>
</trkpt>
<trkpt lat="45.9183880" lon="10.2964880">
	<ele>829.40</ele>
	<time>2025-07-29T06:06:37.000Z</time>
</trkpt>
<trkpt lat="45.9183840" lon="10.2964940">
	<ele>829.80</ele>
	<time>2025-07-29T06:06:38.000Z</time>
</trkpt>
<trkpt lat="45.9183810" lon="10.2964980">
	<ele>829.80</ele>
	<time>2025-07-29T06:06:39.000Z</time>
</trkpt>
<trkpt lat="45.9183800" lon="10.2965070">
	<ele>830.00</ele>
	<time>2025-07-29T06:06:40.000Z</time>
</trkpt>
<trkpt lat="45.9183810" lon="10.2965190">
	<ele>830.20</ele>
	<time>2025-07-29T06:06:41.000Z</time>
</trkpt>
<trkpt lat="45.9183750" lon="10.2965320">
	<ele>830.60</ele>
	<time>2025-07-29T06:06:42.000Z</time>
</trkpt>
<trkpt lat="45.9183660" lon="10.2965430">
	<ele>830.60</ele>
	<time>2025-07-29T06:06:43.000Z</time>
</trkpt>
<trkpt lat="45.9183620" lon="10.2965510">
	<ele>831.00</ele>
	<time>2025-07-29T06:06:44.000Z</time>
</trkpt>
<trkpt lat="45.9183590" lon="10.2965640">
	<ele>831.00</ele>
	<time>2025-07-29T06:06:45.000Z</time>
</trkpt>
<trkpt lat="45.9183560" lon="10.2965700">
	<ele>831.20</ele>
	<time>2025-07-29T06:06:46.000Z</time>
</trkpt>
<trkpt lat="45.9183600" lon="10.2965730">
	<ele>831.40</ele>
	<time>2025-07-29T06:06:47.000Z</time>
</trkpt>
<trkpt lat="45.9183630" lon="10.2965810">
	<ele>831.60</ele>
	<time>2025-07-29T06:06:48.000Z</time>
</trkpt>
<trkpt lat="45.9183610" lon="10.2965910">
	<ele>831.80</ele>
	<time>2025-07-29T06:06:49.000Z</time>
</trkpt>
<trkpt lat="45.9183590" lon="10.2965930">
	<ele>832.00</ele>
	<time>2025-07-29T06:06:50.000Z</time>
</trkpt>
<trkpt lat="45.9183520" lon="10.2966020">
	<ele>832.20</ele>
	<time>2025-07-29T06:06:51.000Z</time>
</trkpt>
<trkpt lat="45.9183460" lon="10.2966110">
	<ele>832.40</ele>
	<time>2025-07-29T06:06:52.000Z</time>
</trkpt>
<trkpt lat="45.9183380" lon="10.2966230">
	<ele>832.60</ele>
	<time>2025-07-29T06:06:53.000Z</time>
</trkpt>
<trkpt lat="45.9183310" lon="10.2966430">
	<ele>832.80</ele>
	<time>2025-07-29T06:06:54.000Z</time>
</trkpt>
<trkpt lat="45.9183270" lon="10.2966580">
	<ele>833.00</ele>
	<time>2025-07-29T06:06:55.000Z</time>
</trkpt>
<trkpt lat="45.9183240" lon="10.2966690">
	<ele>833.00</ele>
	<time>2025-07-29T06:06:56.000Z</time>
</trkpt>
<trkpt lat="45.9183220" lon="10.2966800">
	<ele>833.20</ele>
	<time>2025-07-29T06:06:57.000Z</time>
</trkpt>
<trkpt lat="45.9183220" lon="10.2966900">
	<ele>833.40</ele>
	<time>2025-07-29T06:06:58.000Z</time>
</trkpt>
<trkpt lat="45.9183130" lon="10.2966940">
	<ele>833.80</ele>
	<time>2025-07-29T06:06:59.000Z</time>
</trkpt>
<trkpt lat="45.9183050" lon="10.2966980">
	<ele>834.00</ele>
	<time>2025-07-29T06:07:00.000Z</time>
</trkpt>
<trkpt lat="45.9182960" lon="10.2967020">
	<ele>834.20</ele>
	<time>2025-07-29T06:07:01.000Z</time>
</trkpt>
<trkpt lat="45.9182870" lon="10.2967160">
	<ele>834.40</ele>
	<time>2025-07-29T06:07:02.000Z</time>
</trkpt>
<trkpt lat="45.9182840" lon="10.2967180">
	<ele>834.40</ele>
	<time>2025-07-29T06:07:03.000Z</time>
</trkpt>
<trkpt lat="45.9182840" lon="10.2967200">
	<ele>834.40</ele>
	<time>2025-07-29T06:07:04.000Z</time>
</trkpt>
<trkpt lat="45.9182830" lon="10.2967320">
	<ele>834.60</ele>
	<time>2025-07-29T06:07:05.000Z</time>
</trkpt>
<trkpt lat="45.9182800" lon="10.2967450">
	<ele>834.80</ele>
	<time>2025-07-29T06:07:06.000Z</time>
</trkpt>
<trkpt lat="45.9182790" lon="10.2967650">
	<ele>835.00</ele>
	<time>2025-07-29T06:07:07.000Z</time>
</trkpt>
<trkpt lat="45.9182760" lon="10.2967890">
	<ele>835.40</ele>
	<time>2025-07-29T06:07:08.000Z</time>
</trkpt>
<trkpt lat="45.9182840" lon="10.2968130">
	<ele>835.60</ele>
	<time>2025-07-29T06:07:09.000Z</time>
</trkpt>
<trkpt lat="45.9182900" lon="10.2968290">
	<ele>835.80</ele>
	<time>2025-07-29T06:07:10.000Z</time>
</trkpt>
<trkpt lat="45.9182930" lon="10.2968380">
	<ele>835.80</ele>
	<time>2025-07-29T06:07:11.000Z</time>
</trkpt>
<trkpt lat="45.9182910" lon="10.2968400">
	<ele>836.00</ele>
	<time>2025-07-29T06:07:12.000Z</time>
</trkpt>
<trkpt lat="45.9182890" lon="10.2968540">
	<ele>836.20</ele>
	<time>2025-07-29T06:07:13.000Z</time>
</trkpt>
<trkpt lat="45.9182890" lon="10.2968690">
	<ele>836.20</ele>
	<time>2025-07-29T06:07:14.000Z</time>
</trkpt>
<trkpt lat="45.9182890" lon="10.2968810">
	<ele>836.40</ele>
	<time>2025-07-29T06:07:15.000Z</time>
</trkpt>
<trkpt lat="45.9182950" lon="10.2968910">
	<ele>836.60</ele>
	<time>2025-07-29T06:07:16.000Z</time>
</trkpt>
<trkpt lat="45.9182920" lon="10.2968970">
	<ele>836.80</ele>
	<time>2025-07-29T06:07:17.000Z</time>
</trkpt>
<trkpt lat="45.9182870" lon="10.2969030">
	<ele>837.00</ele>
	<time>2025-07-29T06:07:18.000Z</time>
</trkpt>
<trkpt lat="45.9182790" lon="10.2969160">
	<ele>837.40</ele>
	<time>2025-07-29T06:07:19.000Z</time>
</trkpt>
<trkpt lat="45.9182700" lon="10.2969290">
	<ele>837.60</ele>
	<time>2025-07-29T06:07:20.000Z</time>
</trkpt>
<trkpt lat="45.9182650" lon="10.2969420">
	<ele>837.80</ele>
	<time>2025-07-29T06:07:21.000Z</time>
</trkpt>
<trkpt lat="45.9182630" lon="10.2969550">
	<ele>837.80</ele>
	<time>2025-07-29T06:07:22.000Z</time>
</trkpt>
<trkpt lat="45.9182610" lon="10.2969700">
	<ele>838.20</ele>
	<time>2025-07-29T06:07:23.000Z</time>
</trkpt>
<trkpt lat="45.9182600" lon="10.2969770">
	<ele>838.40</ele>
	<time>2025-07-29T06:07:24.000Z</time>
</trkpt>
<trkpt lat="45.9182640" lon="10.2969890">
	<ele>838.60</ele>
	<time>2025-07-29T06:07:25.000Z</time>
</trkpt>
<trkpt lat="45.9182710" lon="10.2969980">
	<ele>839.00</ele>
	<time>2025-07-29T06:07:26.000Z</time>
</trkpt>
<trkpt lat="45.9182840" lon="10.2970080">
	<ele>839.20</ele>
	<time>2025-07-29T06:07:27.000Z</time>
</trkpt>
<trkpt lat="45.9182940" lon="10.2970180">
	<ele>839.20</ele>
	<time>2025-07-29T06:07:28.000Z</time>
</trkpt>
<trkpt lat="45.9183010" lon="10.2970340">
	<ele>839.60</ele>
	<time>2025-07-29T06:07:29.000Z</time>
</trkpt>
<trkpt lat="45.9182990" lon="10.2970550">
	<ele>839.80</ele>
	<time>2025-07-29T06:07:30.000Z</time>
</trkpt>
<trkpt lat="45.9182940" lon="10.2970780">
	<ele>839.80</ele>
	<time>2025-07-29T06:07:31.000Z</time>
</trkpt>
<trkpt lat="45.9182800" lon="10.2970830">
	<ele>840.20</ele>
	<time>2025-07-29T06:07:32.000Z</time>
</trkpt>
<trkpt lat="45.9182700" lon="10.2970960">
	<ele>840.20</ele>
	<time>2025-07-29T06:07:33.000Z</time>
</trkpt>
<trkpt lat="45.9182560" lon="10.2971100">
	<ele>840.40</ele>
	<time>2025-07-29T06:07:34.000Z</time>
</trkpt>
<trkpt lat="45.9182520" lon="10.2971160">
	<ele>840.60</ele>
	<time>2025-07-29T06:07:35.000Z</time>
</trkpt>
<trkpt lat="45.9182510" lon="10.2971220">
	<ele>840.80</ele>
	<time>2025-07-29T06:07:36.000Z</time>
</trkpt>
<trkpt lat="45.9182500" lon="10.2971240">
	<ele>841.00</ele>
	<time>2025-07-29T06:07:37.000Z</time>
</trkpt>
<trkpt lat="45.9182530" lon="10.2971140">
	<ele>841.20</ele>
	<time>2025-07-29T06:07:38.000Z</time>
</trkpt>
<trkpt lat="45.9182580" lon="10.2971180">
	<ele>841.40</ele>
	<time>2025-07-29T06:07:39.000Z</time>
</trkpt>
<trkpt lat="45.9182570" lon="10.2971180">
	<ele>841.60</ele>
	<time>2025-07-29T06:07:40.000Z</time>
</trkpt>
<trkpt lat="45.9182600" lon="10.2971250">
	<ele>841.80</ele>
	<time>2025-07-29T06:07:41.000Z</time>
</trkpt>
<trkpt lat="45.9182570" lon="10.2971270">
	<ele>841.80</ele>
	<time>2025-07-29T06:07:42.000Z</time>
</trkpt>
<trkpt lat="45.9182530" lon="10.2971280">
	<ele>842.20</ele>
	<time>2025-07-29T06:07:43.000Z</time>
</trkpt>
<trkpt lat="45.9182510" lon="10.2971260">
	<ele>842.20</ele>
	<time>2025-07-29T06:07:44.000Z</time>
</trkpt>
<trkpt lat="45.9182500" lon="10.2971260">
	<ele>842.40</ele>
	<time>2025-07-29T06:07:45.000Z</time>
</trkpt>
<trkpt lat="45.9182470" lon="10.2971030">
	<ele>842.60</ele>
	<time>2025-07-29T06:07:46.000Z</time>
</trkpt>
<trkpt lat="45.9182390" lon="10.2970870">
	<ele>842.80</ele>
	<time>2025-07-29T06:07:47.000Z</time>
</trkpt>
<trkpt lat="45.9182270" lon="10.2970890">
	<ele>843.20</ele>
	<time>2025-07-29T06:07:48.000Z</time>
</trkpt>
<trkpt lat="45.9182160" lon="10.2970800">
	<ele>843.40</ele>
	<time>2025-07-29T06:07:49.000Z</time>
</trkpt>
<trkpt lat="45.9182120" lon="10.2970780">
	<ele>843.40</ele>
	<time>2025-07-29T06:07:50.000Z</time>
</trkpt>
<trkpt lat="45.9182010" lon="10.2970710">
	<ele>843.60</ele>
	<time>2025-07-29T06:07:51.000Z</time>
</trkpt>
<trkpt lat="45.9181940" lon="10.2970690">
	<ele>843.80</ele>
	<time>2025-07-29T06:07:52.000Z</time>
</trkpt>
<trkpt lat="45.9181880" lon="10.2970660">
	<ele>844.20</ele>
	<time>2025-07-29T06:07:53.000Z</time>
</trkpt>
<trkpt lat="45.9181810" lon="10.2970620">
	<ele>844.40</ele>
	<time>2025-07-29T06:07:54.000Z</time>
</trkpt>
<trkpt lat="45.9181780" lon="10.2970560">
	<ele>844.40</ele>
	<time>2025-07-29T06:07:55.000Z</time>
</trkpt>
<trkpt lat="45.9181730" lon="10.2970510">
	<ele>844.40</ele>
	<time>2025-07-29T06:07:56.000Z</time>
</trkpt>
<trkpt lat="45.9181660" lon="10.2970460">
	<ele>844.60</ele>
	<time>2025-07-29T06:07:57.000Z</time>
</trkpt>
<trkpt lat="45.9181570" lon="10.2970390">
	<ele>844.60</ele>
	<time>2025-07-29T06:07:58.000Z</time>
</trkpt>
<trkpt lat="45.9181520" lon="10.2970310">
	<ele>844.80</ele>
	<time>2025-07-29T06:07:59.000Z</time>
</trkpt>
<trkpt lat="45.9181500" lon="10.2970200">
	<ele>845.00</ele>
	<time>2025-07-29T06:08:00.000Z</time>
</trkpt>
<trkpt lat="45.9181550" lon="10.2970010">
	<ele>845.00</ele>
	<time>2025-07-29T06:08:01.000Z</time>
</trkpt>
<trkpt lat="45.9181570" lon="10.2969950">
	<ele>845.20</ele>
	<time>2025-07-29T06:08:02.000Z</time>
</trkpt>
<trkpt lat="45.9181540" lon="10.2969930">
	<ele>845.40</ele>
	<time>2025-07-29T06:08:03.000Z</time>
</trkpt>
<trkpt lat="45.9181490" lon="10.2969910">
	<ele>845.60</ele>
	<time>2025-07-29T06:08:04.000Z</time>
</trkpt>
<trkpt lat="45.9181430" lon="10.2969830">
	<ele>845.80</ele>
	<time>2025-07-29T06:08:05.000Z</time>
</trkpt>
<trkpt lat="45.9181390" lon="10.2969720">
	<ele>846.00</ele>
	<time>2025-07-29T06:08:06.000Z</time>
</trkpt>
<trkpt lat="45.9181360" lon="10.2969680">
	<ele>846.20</ele>
	<time>2025-07-29T06:08:07.000Z</time>
</trkpt>
<trkpt lat="45.9181330" lon="10.2969670">
	<ele>846.40</ele>
	<time>2025-07-29T06:08:08.000Z</time>
</trkpt>
<trkpt lat="45.9181270" lon="10.2969590">
	<ele>846.60</ele>
	<time>2025-07-29T06:08:09.000Z</time>
</trkpt>
<trkpt lat="45.9181180" lon="10.2969420">
	<ele>846.60</ele>
	<time>2025-07-29T06:08:10.000Z</time>
</trkpt>
<trkpt lat="45.9181180" lon="10.2969300">
	<ele>846.80</ele>
	<time>2025-07-29T06:08:11.000Z</time>
</trkpt>
<trkpt lat="45.9181140" lon="10.2969200">
	<ele>847.00</ele>
	<time>2025-07-29T06:08:12.000Z</time>
</trkpt>
<trkpt lat="45.9181130" lon="10.2969110">
	<ele>847.00</ele>
	<time>2025-07-29T06:08:13.000Z</time>
</trkpt>
<trkpt lat="45.9181120" lon="10.2969070">
	<ele>847.20</ele>
	<time>2025-07-29T06:08:14.000Z</time>
</trkpt>
<trkpt lat="45.9181120" lon="10.2969040">
	<ele>847.20</ele>
	<time>2025-07-29T06:08:15.000Z</time>
</trkpt>
<trkpt lat="45.9181110" lon="10.2969020">
	<ele>847.40</ele>
	<time>2025-07-29T06:08:16.000Z</time>
</trkpt>
<trkpt lat="45.9181090" lon="10.2969020">
	<ele>847.60</ele>
	<time>2025-07-29T06:08:17.000Z</time>
</trkpt>
<trkpt lat="45.9181110" lon="10.2969040">
	<ele>847.80</ele>
	<time>2025-07-29T06:08:18.000Z</time>
</trkpt>
<trkpt lat="45.9181110" lon="10.2969020">
	<ele>848.00</ele>
	<time>2025-07-29T06:08:19.000Z</time>
</trkpt>
<trkpt lat="45.9181120" lon="10.2968980">
	<ele>848.00</ele>
	<time>2025-07-29T06:08:20.000Z</time>
</trkpt>
<trkpt lat="45.9181140" lon="10.2968940">
	<ele>848.20</ele>
	<time>2025-07-29T06:08:21.000Z</time>
</trkpt>
<trkpt lat="45.9181090" lon="10.2968860">
	<ele>848.40</ele>
	<time>2025-07-29T06:08:22.000Z</time>
</trkpt>
<trkpt lat="45.9181110" lon="10.2968820">
	<ele>848.60</ele>
	<time>2025-07-29T06:08:23.000Z</time>
</trkpt>
<trkpt lat="45.9181080" lon="10.2968790">
	<ele>848.80</ele>
	<time>2025-07-29T06:08:24.000Z</time>
</trkpt>
<trkpt lat="45.9181100" lon="10.2968740">
	<ele>848.80</ele>
	<time>2025-07-29T06:08:25.000Z</time>
</trkpt>
<trkpt lat="45.9181090" lon="10.2968560">
	<ele>849.00</ele>
	<time>2025-07-29T06:08:26.000Z</time>
</trkpt>
<trkpt lat="45.9181140" lon="10.2968350">
	<ele>849.00</ele>
	<time>2025-07-29T06:08:27.000Z</time>
</trkpt>
<trkpt lat="45.9181230" lon="10.2968180">
	<ele>849.20</ele>
	<time>2025-07-29T06:08:28.000Z</time>
</trkpt>
<trkpt lat="45.9181230" lon="10.2968050">
	<ele>849.20</ele>
	<time>2025-07-29T06:08:29.000Z</time>
</trkpt>
<trkpt lat="45.9181260" lon="10.2967980">
	<ele>849.40</ele>
	<time>2025-07-29T06:08:30.000Z</time>
</trkpt>
<trkpt lat="45.9181270" lon="10.2967910">
	<ele>849.60</ele>
	<time>2025-07-29T06:08:31.000Z</time>
</trkpt>
<trkpt lat="45.9181290" lon="10.2967850">
	<ele>849.60</ele>
	<time>2025-07-29T06:08:32.000Z</time>
</trkpt>
<trkpt lat="45.9181300" lon="10.2967790">
	<ele>849.80</ele>
	<time>2025-07-29T06:08:33.000Z</time>
</trkpt>
<trkpt lat="45.9181280" lon="10.2967700">
	<ele>849.80</ele>
	<time>2025-07-29T06:08:34.000Z</time>
</trkpt>
<trkpt lat="45.9181250" lon="10.2967540">
	<ele>850.00</ele>
	<time>2025-07-29T06:08:35.000Z</time>
</trkpt>
<trkpt lat="45.9181210" lon="10.2967340">
	<ele>850.00</ele>
	<time>2025-07-29T06:08:36.000Z</time>
</trkpt>
<trkpt lat="45.9181210" lon="10.2967140">
	<ele>850.00</ele>
	<time>2025-07-29T06:08:37.000Z</time>
</trkpt>
<trkpt lat="45.9181280" lon="10.2966940">
	<ele>850.20</ele>
	<time>2025-07-29T06:08:38.000Z</time>
</trkpt>
<trkpt lat="45.9181300" lon="10.2966730">
	<ele>850.20</ele>
	<time>2025-07-29T06:08:39.000Z</time>
</trkpt>
<trkpt lat="45.9181310" lon="10.2966630">
	<ele>850.40</ele>
	<time>2025-07-29T06:08:40.000Z</time>
</trkpt>
<trkpt lat="45.9181260" lon="10.2966450">
	<ele>850.60</ele>
	<time>2025-07-29T06:08:41.000Z</time>
</trkpt>
<trkpt lat="45.9181250" lon="10.2966370">
	<ele>850.60</ele>
	<time>2025-07-29T06:08:42.000Z</time>
</trkpt>
<trkpt lat="45.9181240" lon="10.2966230">
	<ele>851.00</ele>
	<time>2025-07-29T06:08:43.000Z</time>
</trkpt>
<trkpt lat="45.9181240" lon="10.2966090">
	<ele>851.20</ele>
	<time>2025-07-29T06:08:44.000Z</time>
</trkpt>
<trkpt lat="45.9181230" lon="10.2966040">
	<ele>851.40</ele>
	<time>2025-07-29T06:08:45.000Z</time>
</trkpt>
<trkpt lat="45.9181150" lon="10.2965810">
	<ele>851.60</ele>
	<time>2025-07-29T06:08:46.000Z</time>
</trkpt>
<trkpt lat="45.9181010" lon="10.2965540">
	<ele>851.80</ele>
	<time>2025-07-29T06:08:47.000Z</time>
</trkpt>
<trkpt lat="45.9180770" lon="10.2965350">
	<ele>852.00</ele>
	<time>2025-07-29T06:08:48.000Z</time>
</trkpt>
<trkpt lat="45.9180590" lon="10.2965180">
	<ele>852.20</ele>
	<time>2025-07-29T06:08:49.000Z</time>
</trkpt>
<trkpt lat="45.9180430" lon="10.2965070">
	<ele>852.40</ele>
	<time>2025-07-29T06:08:50.000Z</time>
</trkpt>
<trkpt lat="45.9180410" lon="10.2964940">
	<ele>852.60</ele>
	<time>2025-07-29T06:08:51.000Z</time>
</trkpt>
<trkpt lat="45.9180500" lon="10.2964800">
	<ele>853.00</ele>
	<time>2025-07-29T06:08:52.000Z</time>
</trkpt>
<trkpt lat="45.9180580" lon="10.2964720">
	<ele>853.20</ele>
	<time>2025-07-29T06:08:53.000Z</time>
</trkpt>
<trkpt lat="45.9180620" lon="10.2964650">
	<ele>853.40</ele>
	<time>2025-07-29T06:08:54.000Z</time>
</trkpt>
<trkpt lat="45.9180680" lon="10.2964540">
	<ele>853.40</ele>
	<time>2025-07-29T06:08:55.000Z</time>
</trkpt>
<trkpt lat="45.9180700" lon="10.2964420">
	<ele>853.40</ele>
	<time>2025-07-29T06:08:56.000Z</time>
</trkpt>
<trkpt lat="45.9180670" lon="10.2964280">
	<ele>853.80</ele>
	<time>2025-07-29T06:08:57.000Z</time>
</trkpt>
<trkpt lat="45.9180680" lon="10.2964230">
	<ele>854.00</ele>
	<time>2025-07-29T06:08:58.000Z</time>
</trkpt>
<trkpt lat="45.9180520" lon="10.2964090">
	<ele>854.20</ele>
	<time>2025-07-29T06:08:59.000Z</time>
</trkpt>
<trkpt lat="45.9180330" lon="10.2963960">
	<ele>854.60</ele>
	<time>2025-07-29T06:09:00.000Z</time>
</trkpt>
<trkpt lat="45.9180090" lon="10.2963970">
	<ele>854.60</ele>
	<time>2025-07-29T06:09:01.000Z</time>
</trkpt>
<trkpt lat="45.9179970" lon="10.2963920">
	<ele>854.80</ele>
	<time>2025-07-29T06:09:02.000Z</time>
</trkpt>
<trkpt lat="45.9179940" lon="10.2963840">
	<ele>855.00</ele>
	<time>2025-07-29T06:09:03.000Z</time>
</trkpt>
<trkpt lat="45.9179930" lon="10.2963680">
	<ele>855.20</ele>
	<time>2025-07-29T06:09:04.000Z</time>
</trkpt>
<trkpt lat="45.9179910" lon="10.2963580">
	<ele>855.40</ele>
	<time>2025-07-29T06:09:05.000Z</time>
</trkpt>
<trkpt lat="45.9179920" lon="10.2963420">
	<ele>855.60</ele>
	<time>2025-07-29T06:09:06.000Z</time>
</trkpt>
<trkpt lat="45.9179950" lon="10.2963260">
	<ele>855.60</ele>
	<time>2025-07-29T06:09:07.000Z</time>
</trkpt>
<trkpt lat="45.9179900" lon="10.2963120">
	<ele>855.80</ele>
	<time>2025-07-29T06:09:08.000Z</time>
</trkpt>
<trkpt lat="45.9179860" lon="10.2962990">
	<ele>856.00</ele>
	<time>2025-07-29T06:09:09.000Z</time>
</trkpt>
<trkpt lat="45.9179830" lon="10.2962860">
	<ele>856.00</ele>
	<time>2025-07-29T06:09:10.000Z</time>
</trkpt>
<trkpt lat="45.9179820" lon="10.2962790">
	<ele>856.20</ele>
	<time>2025-07-29T06:09:11.000Z</time>
</trkpt>
<trkpt lat="45.9179740" lon="10.2962730">
	<ele>856.20</ele>
	<time>2025-07-29T06:09:12.000Z</time>
</trkpt>
<trkpt lat="45.9179630" lon="10.2962620">
	<ele>856.40</ele>
	<time>2025-07-29T06:09:13.000Z</time>
</trkpt>
<trkpt lat="45.9179530" lon="10.2962460">
	<ele>856.60</ele>
	<time>2025-07-29T06:09:14.000Z</time>
</trkpt>
<trkpt lat="45.9179530" lon="10.2962230">
	<ele>856.60</ele>
	<time>2025-07-29T06:09:15.000Z</time>
</trkpt>
<trkpt lat="45.9179550" lon="10.2962150">
	<ele>856.80</ele>
	<time>2025-07-29T06:09:16.000Z</time>
</trkpt>
<trkpt lat="45.9179550" lon="10.2961920">
	<ele>856.80</ele>
	<time>2025-07-29T06:09:17.000Z</time>
</trkpt>
<trkpt lat="45.9179600" lon="10.2961680">
	<ele>856.80</ele>
	<time>2025-07-29T06:09:18.000Z</time>
</trkpt>
<trkpt lat="45.9179670" lon="10.2961450">
	<ele>857.00</ele>
	<time>2025-07-29T06:09:19.000Z</time>
</trkpt>
<trkpt lat="45.9179720" lon="10.2961290">
	<ele>857.00</ele>
	<time>2025-07-29T06:09:20.000Z</time>
</trkpt>
<trkpt lat="45.9179760" lon="10.2961100">
	<ele>857.00</ele>
	<time>2025-07-29T06:09:21.000Z</time>
</trkpt>
<trkpt lat="45.9179810" lon="10.2960970">
	<ele>857.00</ele>
	<time>2025-07-29T06:09:22.000Z</time>
</trkpt>
<trkpt lat="45.9179880" lon="10.2960800">
	<ele>857.20</ele>
	<time>2025-07-29T06:09:23.000Z</time>
</trkpt>
<trkpt lat="45.9179880" lon="10.2960620">
	<ele>857.20</ele>
	<time>2025-07-29T06:09:24.000Z</time>
</trkpt>
<trkpt lat="45.9179880" lon="10.2960440">
	<ele>857.60</ele>
	<time>2025-07-29T06:09:25.000Z</time>
</trkpt>
<trkpt lat="45.9179850" lon="10.2960280">
	<ele>857.80</ele>
	<time>2025-07-29T06:09:26.000Z</time>
</trkpt>
<trkpt lat="45.9179780" lon="10.2960100">
	<ele>858.00</ele>
	<time>2025-07-29T06:09:27.000Z</time>
</trkpt>
<trkpt lat="45.9179750" lon="10.2959930">
	<ele>858.00</ele>
	<time>2025-07-29T06:09:28.000Z</time>
</trkpt>
<trkpt lat="45.9179750" lon="10.2959860">
	<ele>858.20</ele>
	<time>2025-07-29T06:09:29.000Z</time>
</trkpt>
<trkpt lat="45.9179730" lon="10.2959840">
	<ele>858.40</ele>
	<time>2025-07-29T06:09:30.000Z</time>
</trkpt>
<trkpt lat="45.9179700" lon="10.2959700">
	<ele>858.60</ele>
	<time>2025-07-29T06:09:31.000Z</time>
</trkpt>
<trkpt lat="45.9179700" lon="10.2959590">
	<ele>858.80</ele>
	<time>2025-07-29T06:09:32.000Z</time>
</trkpt>
<trkpt lat="45.9179720" lon="10.2959570">
	<ele>859.00</ele>
	<time>2025-07-29T06:09:33.000Z</time>
</trkpt>
<trkpt lat="45.9179660" lon="10.2959490">
	<ele>859.20</ele>
	<time>2025-07-29T06:09:34.000Z</time>
</trkpt>
<trkpt lat="45.9179580" lon="10.2959400">
	<ele>859.40</ele>
	<time>2025-07-29T06:09:35.000Z</time>
</trkpt>
<trkpt lat="45.9179540" lon="10.2959370">
	<ele>859.60</ele>
	<time>2025-07-29T06:09:36.000Z</time>
</trkpt>
<trkpt lat="45.9179510" lon="10.2959260">
	<ele>859.80</ele>
	<time>2025-07-29T06:09:37.000Z</time>
</trkpt>
<trkpt lat="45.9179380" lon="10.2959180">
	<ele>860.00</ele>
	<time>2025-07-29T06:09:38.000Z</time>
</trkpt>
<trkpt lat="45.9179310" lon="10.2959080">
	<ele>860.40</ele>
	<time>2025-07-29T06:09:39.000Z</time>
</trkpt>
<trkpt lat="45.9179290" lon="10.2959030">
	<ele>860.60</ele>
	<time>2025-07-29T06:09:40.000Z</time>
</trkpt>
<trkpt lat="45.9179310" lon="10.2958820">
	<ele>860.80</ele>
	<time>2025-07-29T06:09:41.000Z</time>
</trkpt>
<trkpt lat="45.9179290" lon="10.2958770">
	<ele>861.00</ele>
	<time>2025-07-29T06:09:42.000Z</time>
</trkpt>
<trkpt lat="45.9179250" lon="10.2958560">
	<ele>861.20</ele>
	<time>2025-07-29T06:09:43.000Z</time>
</trkpt>
<trkpt lat="45.9179190" lon="10.2958420">
	<ele>861.40</ele>
	<time>2025-07-29T06:09:44.000Z</time>
</trkpt>
<trkpt lat="45.9179170" lon="10.2958280">
	<ele>861.60</ele>
	<time>2025-07-29T06:09:45.000Z</time>
</trkpt>
<trkpt lat="45.9179160" lon="10.2958150">
	<ele>861.60</ele>
	<time>2025-07-29T06:09:46.000Z</time>
</trkpt>
<trkpt lat="45.9179250" lon="10.2957940">
	<ele>861.80</ele>
	<time>2025-07-29T06:09:47.000Z</time>
</trkpt>
<trkpt lat="45.9179320" lon="10.2957820">
	<ele>862.20</ele>
	<time>2025-07-29T06:09:48.000Z</time>
</trkpt>
<trkpt lat="45.9179390" lon="10.2957700">
	<ele>862.20</ele>
	<time>2025-07-29T06:09:49.000Z</time>
</trkpt>
<trkpt lat="45.9179420" lon="10.2957600">
	<ele>862.60</ele>
	<time>2025-07-29T06:09:50.000Z</time>
</trkpt>
<trkpt lat="45.9179420" lon="10.2957500">
	<ele>862.80</ele>
	<time>2025-07-29T06:09:51.000Z</time>
</trkpt>
<trkpt lat="45.9179380" lon="10.2957380">
	<ele>863.00</ele>
	<time>2025-07-29T06:09:52.000Z</time>
</trkpt>
<trkpt lat="45.9179450" lon="10.2957140">
	<ele>863.00</ele>
	<time>2025-07-29T06:09:53.000Z</time>
</trkpt>
<trkpt lat="45.9179490" lon="10.2956890">
	<ele>863.20</ele>
	<time>2025-07-29T06:09:54.000Z</time>
</trkpt>
<trkpt lat="45.9179490" lon="10.2956660">
	<ele>863.60</ele>
	<time>2025-07-29T06:09:55.000Z</time>
</trkpt>
<trkpt lat="45.9179490" lon="10.2956570">
	<ele>863.80</ele>
	<time>2025-07-29T06:09:56.000Z</time>
</trkpt>
<trkpt lat="45.9179420" lon="10.2956430">
	<ele>864.00</ele>
	<time>2025-07-29T06:09:57.000Z</time>
</trkpt>
<trkpt lat="45.9179310" lon="10.2956320">
	<ele>864.20</ele>
	<time>2025-07-29T06:09:58.000Z</time>
</trkpt>
<trkpt lat="45.9179270" lon="10.2956160">
	<ele>864.20</ele>
	<time>2025-07-29T06:09:59.000Z</time>
</trkpt>
<trkpt lat="45.9179250" lon="10.2956010">
	<ele>864.40</ele>
	<time>2025-07-29T06:10:00.000Z</time>
</trkpt>
<trkpt lat="45.9179250" lon="10.2955820">
	<ele>864.40</ele>
	<time>2025-07-29T06:10:01.000Z</time>
</trkpt>
<trkpt lat="45.9179280" lon="10.2955670">
	<ele>864.40</ele>
	<time>2025-07-29T06:10:02.000Z</time>
</trkpt>
<trkpt lat="45.9179330" lon="10.2955560">
	<ele>864.60</ele>
	<time>2025-07-29T06:10:03.000Z</time>
</trkpt>
<trkpt lat="45.9179410" lon="10.2955500">
	<ele>864.80</ele>
	<time>2025-07-29T06:10:04.000Z</time>
</trkpt>
<trkpt lat="45.9179410" lon="10.2955450">
	<ele>864.80</ele>
	<time>2025-07-29T06:10:05.000Z</time>
</trkpt>
<trkpt lat="45.9179450" lon="10.2955360">
	<ele>865.00</ele>
	<time>2025-07-29T06:10:06.000Z</time>
</trkpt>
<trkpt lat="45.9179450" lon="10.2955230">
	<ele>865.20</ele>
	<time>2025-07-29T06:10:07.000Z</time>
</trkpt>
<trkpt lat="45.9179470" lon="10.2954810">
	<ele>865.40</ele>
	<time>2025-07-29T06:10:08.000Z</time>
</trkpt>
<trkpt lat="45.9179460" lon="10.2954620">
	<ele>865.60</ele>
	<time>2025-07-29T06:10:09.000Z</time>
</trkpt>
<trkpt lat="45.9179460" lon="10.2954540">
	<ele>865.80</ele>
	<time>2025-07-29T06:10:10.000Z</time>
</trkpt>
<trkpt lat="45.9179460" lon="10.2954450">
	<ele>866.00</ele>
	<time>2025-07-29T06:10:11.000Z</time>
</trkpt>
<trkpt lat="45.9179470" lon="10.2954420">
	<ele>866.20</ele>
	<time>2025-07-29T06:10:12.000Z</time>
</trkpt>
<trkpt lat="45.9179320" lon="10.2954510">
	<ele>866.20</ele>
	<time>2025-07-29T06:10:13.000Z</time>
</trkpt>
<trkpt lat="45.9179240" lon="10.2954560">
	<ele>866.20</ele>
	<time>2025-07-29T06:10:14.000Z</time>
</trkpt>
<trkpt lat="45.9179230" lon="10.2954440">
	<ele>866.20</ele>
	<time>2025-07-29T06:10:15.000Z</time>
</trkpt>
<trkpt lat="45.9179310" lon="10.2954270">
	<ele>866.40</ele>
	<time>2025-07-29T06:10:16.000Z</time>
</trkpt>
<trkpt lat="45.9179300" lon="10.2954060">
	<ele>866.40</ele>
	<time>2025-07-29T06:10:17.000Z</time>
</trkpt>
<trkpt lat="45.9179400" lon="10.2953920">
	<ele>866.60</ele>
	<time>2025-07-29T06:10:18.000Z</time>
</trkpt>
<trkpt lat="45.9179500" lon="10.2953810">
	<ele>866.60</ele>
	<time>2025-07-29T06:10:19.000Z</time>
</trkpt>
<trkpt lat="45.9179640" lon="10.2953720">
	<ele>866.80</ele>
	<time>2025-07-29T06:10:20.000Z</time>
</trkpt>
<trkpt lat="45.9179710" lon="10.2953580">
	<ele>866.80</ele>
	<time>2025-07-29T06:10:21.000Z</time>
</trkpt>
<trkpt lat="45.9179780" lon="10.2953490">
	<ele>867.00</ele>
	<time>2025-07-29T06:10:22.000Z</time>
</trkpt>
<trkpt lat="45.9179790" lon="10.2953340">
	<ele>867.20</ele>
	<time>2025-07-29T06:10:23.000Z</time>
</trkpt>
<trkpt lat="45.9179780" lon="10.2953130">
	<ele>867.40</ele>
	<time>2025-07-29T06:10:24.000Z</time>
</trkpt>
<trkpt lat="45.9179680" lon="10.2952900">
	<ele>867.40</ele>
	<time>2025-07-29T06:10:25.000Z</time>
</trkpt>
<trkpt lat="45.9179600" lon="10.2952630">
	<ele>867.60</ele>
	<time>2025-07-29T06:10:26.000Z</time>
</trkpt>
<trkpt lat="45.9179480" lon="10.2952360">
	<ele>867.80</ele>
	<time>2025-07-29T06:10:27.000Z</time>
</trkpt>
<trkpt lat="45.9179420" lon="10.2952130">
	<ele>867.80</ele>
	<time>2025-07-29T06:10:28.000Z</time>
</trkpt>
<trkpt lat="45.9179430" lon="10.2951960">
	<ele>868.00</ele>
	<time>2025-07-29T06:10:29.000Z</time>
</trkpt>
<trkpt lat="45.9179420" lon="10.2951800">
	<ele>868.00</ele>
	<time>2025-07-29T06:10:30.000Z</time>
</trkpt>
<trkpt lat="45.9179390" lon="10.2951620">
	<ele>868.20</ele>
	<time>2025-07-29T06:10:31.000Z</time>
</trkpt>
<trkpt lat="45.9179390" lon="10.2951520">
	<ele>868.40</ele>
	<time>2025-07-29T06:10:32.000Z</time>
</trkpt>
<trkpt lat="45.9179320" lon="10.2951500">
	<ele>868.40</ele>
	<time>2025-07-29T06:10:33.000Z</time>
</trkpt>
<trkpt lat="45.9179280" lon="10.2951440">
	<ele>868.60</ele>
	<time>2025-07-29T06:10:34.000Z</time>
</trkpt>
<trkpt lat="45.9179230" lon="10.2951370">
	<ele>868.60</ele>
	<time>2025-07-29T06:10:35.000Z</time>
</trkpt>
<trkpt lat="45.9179250" lon="10.2951260">
	<ele>868.80</ele>
	<time>2025-07-29T06:10:36.000Z</time>
</trkpt>
<trkpt lat="45.9179230" lon="10.2951120">
	<ele>869.00</ele>
	<time>2025-07-29T06:10:37.000Z</time>
</trkpt>
<trkpt lat="45.9179200" lon="10.2950910">
	<ele>869.20</ele>
	<time>2025-07-29T06:10:38.000Z</time>
</trkpt>
<trkpt lat="45.9179190" lon="10.2950700">
	<ele>869.20</ele>
	<time>2025-07-29T06:10:39.000Z</time>
</trkpt>
<trkpt lat="45.9179190" lon="10.2950480">
	<ele>869.40</ele>
	<time>2025-07-29T06:10:40.000Z</time>
</trkpt>
<trkpt lat="45.9179240" lon="10.2950230">
	<ele>869.40</ele>
	<time>2025-07-29T06:10:41.000Z</time>
</trkpt>
<trkpt lat="45.9179300" lon="10.2949920">
	<ele>869.60</ele>
	<time>2025-07-29T06:10:42.000Z</time>
</trkpt>
<trkpt lat="45.9179280" lon="10.2949820">
	<ele>869.80</ele>
	<time>2025-07-29T06:10:43.000Z</time>
</trkpt>
<trkpt lat="45.9179240" lon="10.2949690">
	<ele>870.00</ele>
	<time>2025-07-29T06:10:44.000Z</time>
</trkpt>
<trkpt lat="45.9179220" lon="10.2949530">
	<ele>870.20</ele>
	<time>2025-07-29T06:10:45.000Z</time>
</trkpt>
<trkpt lat="45.9179230" lon="10.2949270">
	<ele>870.40</ele>
	<time>2025-07-29T06:10:46.000Z</time>
</trkpt>
<trkpt lat="45.9179250" lon="10.2949020">
	<ele>870.60</ele>
	<time>2025-07-29T06:10:47.000Z</time>
</trkpt>
<trkpt lat="45.9179260" lon="10.2948840">
	<ele>870.80</ele>
	<time>2025-07-29T06:10:48.000Z</time>
</trkpt>
<trkpt lat="45.9179260" lon="10.2948670">
	<ele>871.00</ele>
	<time>2025-07-29T06:10:49.000Z</time>
</trkpt>
<trkpt lat="45.9179240" lon="10.2948560">
	<ele>871.20</ele>
	<time>2025-07-29T06:10:50.000Z</time>
</trkpt>
<trkpt lat="45.9179130" lon="10.2948470">
	<ele>871.40</ele>
	<time>2025-07-29T06:10:51.000Z</time>
</trkpt>
<trkpt lat="45.9179020" lon="10.2948400">
	<ele>871.40</ele>
	<time>2025-07-29T06:10:52.000Z</time>
</trkpt>
<trkpt lat="45.9178950" lon="10.2948280">
	<ele>871.60</ele>
	<time>2025-07-29T06:10:53.000Z</time>
</trkpt>
<trkpt lat="45.9178830" lon="10.2948160">
	<ele>871.80</ele>
	<time>2025-07-29T06:10:54.000Z</time>
</trkpt>
<trkpt lat="45.9178710" lon="10.2948090">
	<ele>872.00</ele>
	<time>2025-07-29T06:10:55.000Z</time>
</trkpt>
<trkpt lat="45.9178620" lon="10.2948020">
	<ele>872.20</ele>
	<time>2025-07-29T06:10:56.000Z</time>
</trkpt>
<trkpt lat="45.9178550" lon="10.2947970">
	<ele>872.40</ele>
	<time>2025-07-29T06:10:57.000Z</time>
</trkpt>
<trkpt lat="45.9178510" lon="10.2947930">
	<ele>872.60</ele>
	<time>2025-07-29T06:10:58.000Z</time>
</trkpt>
<trkpt lat="45.9178480" lon="10.2947840">
	<ele>872.80</ele>
	<time>2025-07-29T06:10:59.000Z</time>
</trkpt>
<trkpt lat="45.9178370" lon="10.2947820">
	<ele>873.00</ele>
	<time>2025-07-29T06:11:00.000Z</time>
</trkpt>
<trkpt lat="45.9178300" lon="10.2947740">
	<ele>873.20</ele>
	<time>2025-07-29T06:11:01.000Z</time>
</trkpt>
<trkpt lat="45.9178260" lon="10.2947710">
	<ele>873.40</ele>
	<time>2025-07-29T06:11:02.000Z</time>
</trkpt>
<trkpt lat="45.9178290" lon="10.2947700">
	<ele>873.60</ele>
	<time>2025-07-29T06:11:03.000Z</time>
</trkpt>
<trkpt lat="45.9178260" lon="10.2947680">
	<ele>873.80</ele>
	<time>2025-07-29T06:11:04.000Z</time>
</trkpt>
<trkpt lat="45.9178210" lon="10.2947560">
	<ele>874.00</ele>
	<time>2025-07-29T06:11:05.000Z</time>
</trkpt>
<trkpt lat="45.9178210" lon="10.2947450">
	<ele>874.40</ele>
	<time>2025-07-29T06:11:06.000Z</time>
</trkpt>
<trkpt lat="45.9178170" lon="10.2947330">
	<ele>874.60</ele>
	<time>2025-07-29T06:11:07.000Z</time>
</trkpt>
<trkpt lat="45.9178030" lon="10.2947300">
	<ele>874.80</ele>
	<time>2025-07-29T06:11:08.000Z</time>
</trkpt>
<trkpt lat="45.9177950" lon="10.2947250">
	<ele>875.00</ele>
	<time>2025-07-29T06:11:09.000Z</time>
</trkpt>
<trkpt lat="45.9177870" lon="10.2947150">
	<ele>875.40</ele>
	<time>2025-07-29T06:11:10.000Z</time>
</trkpt>
<trkpt lat="45.9177850" lon="10.2947120">
	<ele>875.80</ele>
	<time>2025-07-29T06:11:11.000Z</time>
</trkpt>
<trkpt lat="45.9177850" lon="10.2947090">
	<ele>876.00</ele>
	<time>2025-07-29T06:11:12.000Z</time>
</trkpt>
<trkpt lat="45.9177710" lon="10.2946930">
	<ele>876.20</ele>
	<time>2025-07-29T06:11:13.000Z</time>
</trkpt>
<trkpt lat="45.9177590" lon="10.2946950">
	<ele>876.40</ele>
	<time>2025-07-29T06:11:14.000Z</time>
</trkpt>
<trkpt lat="45.9177600" lon="10.2946900">
	<ele>876.60</ele>
	<time>2025-07-29T06:11:15.000Z</time>
</trkpt>
<trkpt lat="45.9177570" lon="10.2946880">
	<ele>876.80</ele>
	<time>2025-07-29T06:11:16.000Z</time>
</trkpt>
<trkpt lat="45.9177570" lon="10.2946880">
	<ele>877.00</ele>
	<time>2025-07-29T06:11:17.000Z</time>
</trkpt>
<trkpt lat="45.9177550" lon="10.2946870">
	<ele>877.20</ele>
	<time>2025-07-29T06:11:18.000Z</time>
</trkpt>
<trkpt lat="45.9177510" lon="10.2946830">
	<ele>877.40</ele>
	<time>2025-07-29T06:11:19.000Z</time>
</trkpt>
<trkpt lat="45.9177510" lon="10.2946810">
	<ele>877.80</ele>
	<time>2025-07-29T06:11:20.000Z</time>
</trkpt>
<trkpt lat="45.9177410" lon="10.2946730">
	<ele>877.80</ele>
	<time>2025-07-29T06:11:21.000Z</time>
</trkpt>
<trkpt lat="45.9177360" lon="10.2946530">
	<ele>878.20</ele>
	<time>2025-07-29T06:11:22.000Z</time>
</trkpt>
<trkpt lat="45.9177340" lon="10.2946420">
	<ele>878.40</ele>
	<time>2025-07-29T06:11:23.000Z</time>
</trkpt>
<trkpt lat="45.9177310" lon="10.2946250">
	<ele>878.60</ele>
	<time>2025-07-29T06:11:24.000Z</time>
</trkpt>
<trkpt lat="45.9177280" lon="10.2946130">
	<ele>878.80</ele>
	<time>2025-07-29T06:11:25.000Z</time>
</trkpt>
<trkpt lat="45.9177280" lon="10.2946060">
	<ele>879.20</ele>
	<time>2025-07-29T06:11:26.000Z</time>
</trkpt>
<trkpt lat="45.9177290" lon="10.2945960">
	<ele>879.20</ele>
	<time>2025-07-29T06:11:27.000Z</time>
</trkpt>
<trkpt lat="45.9177220" lon="10.2945930">
	<ele>879.40</ele>
	<time>2025-07-29T06:11:28.000Z</time>
</trkpt>
<trkpt lat="45.9177170" lon="10.2945850">
	<ele>879.80</ele>
	<time>2025-07-29T06:11:29.000Z</time>
</trkpt>
<trkpt lat="45.9177180" lon="10.2945790">
	<ele>880.00</ele>
	<time>2025-07-29T06:11:30.000Z</time>
</trkpt>
<trkpt lat="45.9177180" lon="10.2945720">
	<ele>880.20</ele>
	<time>2025-07-29T06:11:31.000Z</time>
</trkpt>
<trkpt lat="45.9177120" lon="10.2945710">
	<ele>880.40</ele>
	<time>2025-07-29T06:11:32.000Z</time>
</trkpt>
<trkpt lat="45.9177040" lon="10.2945720">
	<ele>880.60</ele>
	<time>2025-07-29T06:11:33.000Z</time>
</trkpt>
<trkpt lat="45.9177010" lon="10.2945680">
	<ele>881.00</ele>
	<time>2025-07-29T06:11:34.000Z</time>
</trkpt>
<trkpt lat="45.9177070" lon="10.2945580">
	<ele>881.20</ele>
	<time>2025-07-29T06:11:35.000Z</time>
</trkpt>
<trkpt lat="45.9177050" lon="10.2945520">
	<ele>881.40</ele>
	<time>2025-07-29T06:11:36.000Z</time>
</trkpt>
<trkpt lat="45.9177040" lon="10.2945420">
	<ele>881.60</ele>
	<time>2025-07-29T06:11:37.000Z</time>
</trkpt>
<trkpt lat="45.9177030" lon="10.2945340">
	<ele>881.80</ele>
	<time>2025-07-29T06:11:38.000Z</time>
</trkpt>
<trkpt lat="45.9177030" lon="10.2945210">
	<ele>882.00</ele>
	<time>2025-07-29T06:11:39.000Z</time>
</trkpt>
<trkpt lat="45.9177110" lon="10.2945080">
	<ele>882.20</ele>
	<time>2025-07-29T06:11:40.000Z</time>
</trkpt>
<trkpt lat="45.9177130" lon="10.2944920">
	<ele>882.40</ele>
	<time>2025-07-29T06:11:41.000Z</time>
</trkpt>
<trkpt lat="45.9177130" lon="10.2944800">
	<ele>882.60</ele>
	<time>2025-07-29T06:11:42.000Z</time>
</trkpt>
<trkpt lat="45.9177070" lon="10.2944660">
	<ele>882.80</ele>
	<time>2025-07-29T06:11:43.000Z</time>
</trkpt>
<trkpt lat="45.9177020" lon="10.2944510">
	<ele>883.00</ele>
	<time>2025-07-29T06:11:44.000Z</time>
</trkpt>
<trkpt lat="45.9176970" lon="10.2944410">
	<ele>883.20</ele>
	<time>2025-07-29T06:11:45.000Z</time>
</trkpt>
<trkpt lat="45.9176980" lon="10.2944360">
	<ele>883.40</ele>
	<time>2025-07-29T06:11:46.000Z</time>
</trkpt>
<trkpt lat="45.9176990" lon="10.2944350">
	<ele>883.60</ele>
	<time>2025-07-29T06:11:47.000Z</time>
</trkpt>
<trkpt lat="45.9176940" lon="10.2944310">
	<ele>883.80</ele>
	<time>2025-07-29T06:11:48.000Z</time>
</trkpt>
<trkpt lat="45.9176900" lon="10.2944240">
	<ele>884.00</ele>
	<time>2025-07-29T06:11:49.000Z</time>
</trkpt>
<trkpt lat="45.9176780" lon="10.2944210">
	<ele>884.00</ele>
	<time>2025-07-29T06:11:50.000Z</time>
</trkpt>
<trkpt lat="45.9176670" lon="10.2944110">
	<ele>884.20</ele>
	<time>2025-07-29T06:11:51.000Z</time>
</trkpt>
<trkpt lat="45.9176610" lon="10.2943980">
	<ele>884.60</ele>
	<time>2025-07-29T06:11:52.000Z</time>
</trkpt>
<trkpt lat="45.9176610" lon="10.2943870">
	<ele>884.80</ele>
	<time>2025-07-29T06:11:53.000Z</time>
</trkpt>
<trkpt lat="45.9176580" lon="10.2943800">
	<ele>885.00</ele>
	<time>2025-07-29T06:11:54.000Z</time>
</trkpt>
<trkpt lat="45.9176550" lon="10.2943670">
	<ele>885.00</ele>
	<time>2025-07-29T06:11:55.000Z</time>
</trkpt>
<trkpt lat="45.9176520" lon="10.2943500">
	<ele>885.20</ele>
	<time>2025-07-29T06:11:56.000Z</time>
</trkpt>
<trkpt lat="45.9176490" lon="10.2943430">
	<ele>885.20</ele>
	<time>2025-07-29T06:11:57.000Z</time>
</trkpt>
<trkpt lat="45.9176440" lon="10.2943400">
	<ele>885.40</ele>
	<time>2025-07-29T06:11:58.000Z</time>
</trkpt>
<trkpt lat="45.9176340" lon="10.2943300">
	<ele>885.40</ele>
	<time>2025-07-29T06:11:59.000Z</time>
</trkpt>
<trkpt lat="45.9176260" lon="10.2943170">
	<ele>885.40</ele>
	<time>2025-07-29T06:12:00.000Z</time>
</trkpt>
<trkpt lat="45.9176170" lon="10.2943070">
	<ele>885.80</ele>
	<time>2025-07-29T06:12:01.000Z</time>
</trkpt>
<trkpt lat="45.9176080" lon="10.2942970">
	<ele>886.00</ele>
	<time>2025-07-29T06:12:02.000Z</time>
</trkpt>
<trkpt lat="45.9175950" lon="10.2942870">
	<ele>886.20</ele>
	<time>2025-07-29T06:12:03.000Z</time>
</trkpt>
<trkpt lat="45.9175790" lon="10.2942820">
	<ele>886.40</ele>
	<time>2025-07-29T06:12:04.000Z</time>
</trkpt>
<trkpt lat="45.9175630" lon="10.2942840">
	<ele>886.40</ele>
	<time>2025-07-29T06:12:05.000Z</time>
</trkpt>
<trkpt lat="45.9175480" lon="10.2942810">
	<ele>886.60</ele>
	<time>2025-07-29T06:12:06.000Z</time>
</trkpt>
<trkpt lat="45.9175430" lon="10.2942760">
	<ele>886.80</ele>
	<time>2025-07-29T06:12:07.000Z</time>
</trkpt>
<trkpt lat="45.9175320" lon="10.2942690">
	<ele>887.00</ele>
	<time>2025-07-29T06:12:08.000Z</time>
</trkpt>
<trkpt lat="45.9175200" lon="10.2942700">
	<ele>887.00</ele>
	<time>2025-07-29T06:12:09.000Z</time>
</trkpt>
<trkpt lat="45.9175160" lon="10.2942760">
	<ele>887.20</ele>
	<time>2025-07-29T06:12:10.000Z</time>
</trkpt>
<trkpt lat="45.9175080" lon="10.2942780">
	<ele>887.40</ele>
	<time>2025-07-29T06:12:11.000Z</time>
</trkpt>
<trkpt lat="45.9174980" lon="10.2942690">
	<ele>887.60</ele>
	<time>2025-07-29T06:12:12.000Z</time>
</trkpt>
<trkpt lat="45.9174930" lon="10.2942670">
	<ele>888.00</ele>
	<time>2025-07-29T06:12:13.000Z</time>
</trkpt>
<trkpt lat="45.9174930" lon="10.2942550">
	<ele>888.20</ele>
	<time>2025-07-29T06:12:14.000Z</time>
</trkpt>
<trkpt lat="45.9174900" lon="10.2942530">
	<ele>888.40</ele>
	<time>2025-07-29T06:12:15.000Z</time>
</trkpt>
<trkpt lat="45.9175030" lon="10.2942390">
	<ele>888.60</ele>
	<time>2025-07-29T06:12:16.000Z</time>
</trkpt>
<trkpt lat="45.9175070" lon="10.2942350">
	<ele>888.80</ele>
	<time>2025-07-29T06:12:17.000Z</time>
</trkpt>
<trkpt lat="45.9175110" lon="10.2942320">
	<ele>889.20</ele>
	<time>2025-07-29T06:12:18.000Z</time>
</trkpt>
<trkpt lat="45.9175090" lon="10.2942390">
	<ele>889.40</ele>
	<time>2025-07-29T06:12:19.000Z</time>
</trkpt>
<trkpt lat="45.9174980" lon="10.2942380">
	<ele>889.40</ele>
	<time>2025-07-29T06:12:20.000Z</time>
</trkpt>
<trkpt lat="45.9174970" lon="10.2942170">
	<ele>889.80</ele>
	<time>2025-07-29T06:12:21.000Z</time>
</trkpt>
<trkpt lat="45.9174990" lon="10.2942020">
	<ele>890.00</ele>
	<time>2025-07-29T06:12:22.000Z</time>
</trkpt>
<trkpt lat="45.9174990" lon="10.2941870">
	<ele>890.20</ele>
	<time>2025-07-29T06:12:23.000Z</time>
</trkpt>
<trkpt lat="45.9174880" lon="10.2941830">
	<ele>890.40</ele>
	<time>2025-07-29T06:12:24.000Z</time>
</trkpt>
<trkpt lat="45.9174710" lon="10.2941790">
	<ele>890.60</ele>
	<time>2025-07-29T06:12:25.000Z</time>
</trkpt>
<trkpt lat="45.9174670" lon="10.2941740">
	<ele>891.00</ele>
	<time>2025-07-29T06:12:26.000Z</time>
</trkpt>
<trkpt lat="45.9174650" lon="10.2941720">
	<ele>891.20</ele>
	<time>2025-07-29T06:12:27.000Z</time>
</trkpt>
<trkpt lat="45.9174560" lon="10.2941670">
	<ele>891.40</ele>
	<time>2025-07-29T06:12:28.000Z</time>
</trkpt>
<trkpt lat="45.9174530" lon="10.2941640">
	<ele>891.60</ele>
	<time>2025-07-29T06:12:29.000Z</time>
</trkpt>
<trkpt lat="45.9174420" lon="10.2941560">
	<ele>891.60</ele>
	<time>2025-07-29T06:12:30.000Z</time>
</trkpt>
<trkpt lat="45.9174380" lon="10.2941520">
	<ele>891.80</ele>
	<time>2025-07-29T06:12:31.000Z</time>
</trkpt>
<trkpt lat="45.9174360" lon="10.2941480">
	<ele>892.20</ele>
	<time>2025-07-29T06:12:32.000Z</time>
</trkpt>
<trkpt lat="45.9174290" lon="10.2941370">
	<ele>892.20</ele>
	<time>2025-07-29T06:12:33.000Z</time>
</trkpt>
<trkpt lat="45.9174260" lon="10.2941330">
	<ele>892.60</ele>
	<time>2025-07-29T06:12:34.000Z</time>
</trkpt>
<trkpt lat="45.9174190" lon="10.2941270">
	<ele>892.80</ele>
	<time>2025-07-29T06:12:35.000Z</time>
</trkpt>
<trkpt lat="45.9174140" lon="10.2941240">
	<ele>893.00</ele>
	<time>2025-07-29T06:12:36.000Z</time>
</trkpt>
<trkpt lat="45.9174130" lon="10.2941190">
	<ele>893.40</ele>
	<time>2025-07-29T06:12:37.000Z</time>
</trkpt>
<trkpt lat="45.9174080" lon="10.2941100">
	<ele>893.60</ele>
	<time>2025-07-29T06:12:38.000Z</time>
</trkpt>
<trkpt lat="45.9173980" lon="10.2941010">
	<ele>893.80</ele>
	<time>2025-07-29T06:12:39.000Z</time>
</trkpt>
<trkpt lat="45.9173930" lon="10.2940970">
	<ele>894.00</ele>
	<time>2025-07-29T06:12:40.000Z</time>
</trkpt>
<trkpt lat="45.9173750" lon="10.2940860">
	<ele>894.40</ele>
	<time>2025-07-29T06:12:41.000Z</time>
</trkpt>
<trkpt lat="45.9173620" lon="10.2940800">
	<ele>894.60</ele>
	<time>2025-07-29T06:12:42.000Z</time>
</trkpt>
<trkpt lat="45.9173530" lon="10.2940770">
	<ele>894.80</ele>
	<time>2025-07-29T06:12:43.000Z</time>
</trkpt>
<trkpt lat="45.9173490" lon="10.2940740">
	<ele>895.00</ele>
	<time>2025-07-29T06:12:44.000Z</time>
</trkpt>
<trkpt lat="45.9173450" lon="10.2940680">
	<ele>895.40</ele>
	<time>2025-07-29T06:12:45.000Z</time>
</trkpt>
<trkpt lat="45.9173430" lon="10.2940650">
	<ele>895.60</ele>
	<time>2025-07-29T06:12:46.000Z</time>
</trkpt>
<trkpt lat="45.9173420" lon="10.2940550">
	<ele>895.80</ele>
	<time>2025-07-29T06:12:47.000Z</time>
</trkpt>
<trkpt lat="45.9173410" lon="10.2940460">
	<ele>896.00</ele>
	<time>2025-07-29T06:12:48.000Z</time>
</trkpt>
<trkpt lat="45.9173400" lon="10.2940350">
	<ele>896.20</ele>
	<time>2025-07-29T06:12:49.000Z</time>
</trkpt>
<trkpt lat="45.9173390" lon="10.2940290">
	<ele>896.40</ele>
	<time>2025-07-29T06:12:50.000Z</time>
</trkpt>
<trkpt lat="45.9173330" lon="10.2940280">
	<ele>896.80</ele>
	<time>2025-07-29T06:12:51.000Z</time>
</trkpt>
<trkpt lat="45.9173210" lon="10.2940270">
	<ele>897.00</ele>
	<time>2025-07-29T06:12:52.000Z</time>
</trkpt>
<trkpt lat="45.9173160" lon="10.2940260">
	<ele>897.20</ele>
	<time>2025-07-29T06:12:53.000Z</time>
</trkpt>
<trkpt lat="45.9173120" lon="10.2940260">
	<ele>897.40</ele>
	<time>2025-07-29T06:12:54.000Z</time>
</trkpt>
<trkpt lat="45.9173000" lon="10.2940140">
	<ele>897.60</ele>
	<time>2025-07-29T06:12:55.000Z</time>
</trkpt>
<trkpt lat="45.9172900" lon="10.2940070">
	<ele>897.80</ele>
	<time>2025-07-29T06:12:56.000Z</time>
</trkpt>
<trkpt lat="45.9172870" lon="10.2940040">
	<ele>898.00</ele>
	<time>2025-07-29T06:12:57.000Z</time>
</trkpt>
<trkpt lat="45.9172740" lon="10.2939960">
	<ele>898.20</ele>
	<time>2025-07-29T06:12:58.000Z</time>
</trkpt>
<trkpt lat="45.9172600" lon="10.2939880">
	<ele>898.20</ele>
	<time>2025-07-29T06:12:59.000Z</time>
</trkpt>
<trkpt lat="45.9172580" lon="10.2939870">
	<ele>898.20</ele>
	<time>2025-07-29T06:13:00.000Z</time>
</trkpt>
<trkpt lat="45.9172570" lon="10.2939850">
	<ele>898.20</ele>
	<time>2025-07-29T06:13:01.000Z</time>
</trkpt>
<trkpt lat="45.9172570" lon="10.2939820">
	<ele>898.20</ele>
	<time>2025-07-29T06:13:02.000Z</time>
</trkpt>
<trkpt lat="45.9172570" lon="10.2939800">
	<ele>898.20</ele>
	<time>2025-07-29T06:13:03.000Z</time>
</trkpt>
<trkpt lat="45.9172580" lon="10.2939780">
	<ele>898.40</ele>
	<time>2025-07-29T06:13:04.000Z</time>
</trkpt>
<trkpt lat="45.9172540" lon="10.2939750">
	<ele>898.40</ele>
	<time>2025-07-29T06:13:05.000Z</time>
</trkpt>
<trkpt lat="45.9172480" lon="10.2939690">
	<ele>898.40</ele>
	<time>2025-07-29T06:13:06.000Z</time>
</trkpt>
<trkpt lat="45.9172440" lon="10.2939650">
	<ele>898.40</ele>
	<time>2025-07-29T06:13:07.000Z</time>
</trkpt>
<trkpt lat="45.9172420" lon="10.2939670">
	<ele>898.40</ele>
	<time>2025-07-29T06:13:08.000Z</time>
</trkpt>
<trkpt lat="45.9172290" lon="10.2939680">
	<ele>898.60</ele>
	<time>2025-07-29T06:13:09.000Z</time>
</trkpt>
<trkpt lat="45.9172180" lon="10.2939610">
	<ele>898.60</ele>
	<time>2025-07-29T06:13:10.000Z</time>
</trkpt>
<trkpt lat="45.9172110" lon="10.2939480">
	<ele>898.80</ele>
	<time>2025-07-29T06:13:11.000Z</time>
</trkpt>
<trkpt lat="45.9172110" lon="10.2939480">
	<ele>898.80</ele>
	<time>2025-07-29T06:13:12.000Z</time>
</trkpt>
<trkpt lat="45.9172100" lon="10.2939330">
	<ele>899.20</ele>
	<time>2025-07-29T06:13:13.000Z</time>
</trkpt>
<trkpt lat="45.9172030" lon="10.2939240">
	<ele>899.60</ele>
	<time>2025-07-29T06:13:14.000Z</time>
</trkpt>
<trkpt lat="45.9172010" lon="10.2939240">
	<ele>899.80</ele>
	<time>2025-07-29T06:13:15.000Z</time>
</trkpt>
<trkpt lat="45.9171850" lon="10.2939220">
	<ele>900.20</ele>
	<time>2025-07-29T06:13:16.000Z</time>
</trkpt>
<trkpt lat="45.9171700" lon="10.2939240">
	<ele>900.40</ele>
	<time>2025-07-29T06:13:17.000Z</time>
</trkpt>
<trkpt lat="45.9171560" lon="10.2939290">
	<ele>900.60</ele>
	<time>2025-07-29T06:13:18.000Z</time>
</trkpt>
<trkpt lat="45.9171370" lon="10.2939380">
	<ele>900.80</ele>
	<time>2025-07-29T06:13:19.000Z</time>
</trkpt>
<trkpt lat="45.9171270" lon="10.2939490">
	<ele>901.20</ele>
	<time>2025-07-29T06:13:20.000Z</time>
</trkpt>
<trkpt lat="45.9171200" lon="10.2939550">
	<ele>901.40</ele>
	<time>2025-07-29T06:13:21.000Z</time>
</trkpt>
<trkpt lat="45.9171130" lon="10.2939620">
	<ele>901.80</ele>
	<time>2025-07-29T06:13:22.000Z</time>
</trkpt>
<trkpt lat="45.9171080" lon="10.2939650">
	<ele>901.80</ele>
	<time>2025-07-29T06:13:23.000Z</time>
</trkpt>
<trkpt lat="45.9171060" lon="10.2939670">
	<ele>902.00</ele>
	<time>2025-07-29T06:13:24.000Z</time>
</trkpt>
<trkpt lat="45.9171080" lon="10.2939740">
	<ele>902.20</ele>
	<time>2025-07-29T06:13:25.000Z</time>
</trkpt>
<trkpt lat="45.9171140" lon="10.2939760">
	<ele>902.20</ele>
	<time>2025-07-29T06:13:26.000Z</time>
</trkpt>
<trkpt lat="45.9171150" lon="10.2939760">
	<ele>902.40</ele>
	<time>2025-07-29T06:13:27.000Z</time>
</trkpt>
<trkpt lat="45.9171150" lon="10.2939740">
	<ele>902.40</ele>
	<time>2025-07-29T06:13:28.000Z</time>
</trkpt>
<trkpt lat="45.9171150" lon="10.2939770">
	<ele>902.40</ele>
	<time>2025-07-29T06:13:29.000Z</time>
</trkpt>
<trkpt lat="45.9171160" lon="10.2939860">
	<ele>902.40</ele>
	<time>2025-07-29T06:13:30.000Z</time>
</trkpt>
<trkpt lat="45.9171200" lon="10.2939960">
	<ele>902.40</ele>
	<time>2025-07-29T06:13:31.000Z</time>
</trkpt>
<trkpt lat="45.9171180" lon="10.2940060">
	<ele>902.40</ele>
	<time>2025-07-29T06:13:32.000Z</time>
</trkpt>
<trkpt lat="45.9171250" lon="10.2940160">
	<ele>902.60</ele>
	<time>2025-07-29T06:13:33.000Z</time>
</trkpt>
<trkpt lat="45.9171360" lon="10.2940210">
	<ele>902.80</ele>
	<time>2025-07-29T06:13:34.000Z</time>
</trkpt>
<trkpt lat="45.9171440" lon="10.2940380">
	<ele>903.00</ele>
	<time>2025-07-29T06:13:35.000Z</time>
</trkpt>
<trkpt lat="45.9171370" lon="10.2940620">
	<ele>903.00</ele>
	<time>2025-07-29T06:13:36.000Z</time>
</trkpt>
<trkpt lat="45.9171360" lon="10.2940690">
	<ele>903.20</ele>
	<time>2025-07-29T06:13:37.000Z</time>
</trkpt>
<trkpt lat="45.9171390" lon="10.2940960">
	<ele>903.40</ele>
	<time>2025-07-29T06:13:38.000Z</time>
</trkpt>
<trkpt lat="45.9171470" lon="10.2941120">
	<ele>903.60</ele>
	<time>2025-07-29T06:13:39.000Z</time>
</trkpt>
<trkpt lat="45.9171510" lon="10.2941110">
	<ele>903.80</ele>
	<time>2025-07-29T06:13:40.000Z</time>
</trkpt>
<trkpt lat="45.9171500" lon="10.2941120">
	<ele>904.40</ele>
	<time>2025-07-29T06:13:41.000Z</time>
</trkpt>
<trkpt lat="45.9171460" lon="10.2941250">
	<ele>904.60</ele>
	<time>2025-07-29T06:13:42.000Z</time>
</trkpt>
<trkpt lat="45.9171310" lon="10.2941340">
	<ele>904.80</ele>
	<time>2025-07-29T06:13:43.000Z</time>
</trkpt>
<trkpt lat="45.9171180" lon="10.2941430">
	<ele>905.00</ele>
	<time>2025-07-29T06:13:44.000Z</time>
</trkpt>
<trkpt lat="45.9171110" lon="10.2941470">
	<ele>905.20</ele>
	<time>2025-07-29T06:13:45.000Z</time>
</trkpt>
<trkpt lat="45.9171030" lon="10.2941550">
	<ele>905.40</ele>
	<time>2025-07-29T06:13:46.000Z</time>
</trkpt>
<trkpt lat="45.9171000" lon="10.2941630">
	<ele>905.60</ele>
	<time>2025-07-29T06:13:47.000Z</time>
</trkpt>
<trkpt lat="45.9171080" lon="10.2941640">
	<ele>905.80</ele>
	<time>2025-07-29T06:13:48.000Z</time>
</trkpt>
<trkpt lat="45.9171050" lon="10.2941680">
	<ele>906.00</ele>
	<time>2025-07-29T06:13:49.000Z</time>
</trkpt>
<trkpt lat="45.9171070" lon="10.2941750">
	<ele>906.20</ele>
	<time>2025-07-29T06:13:50.000Z</time>
</trkpt>
<trkpt lat="45.9171130" lon="10.2941790">
	<ele>906.40</ele>
	<time>2025-07-29T06:13:51.000Z</time>
</trkpt>
<trkpt lat="45.9171150" lon="10.2941840">
	<ele>906.60</ele>
	<time>2025-07-29T06:13:52.000Z</time>
</trkpt>
<trkpt lat="45.9171160" lon="10.2941860">
	<ele>906.80</ele>
	<time>2025-07-29T06:13:53.000Z</time>
</trkpt>
<trkpt lat="45.9171030" lon="10.2941960">
	<ele>907.20</ele>
	<time>2025-07-29T06:13:54.000Z</time>
</trkpt>
<trkpt lat="45.9170980" lon="10.2942060">
	<ele>907.40</ele>
	<time>2025-07-29T06:13:55.000Z</time>
</trkpt>
<trkpt lat="45.9170950" lon="10.2942180">
	<ele>907.60</ele>
	<time>2025-07-29T06:13:56.000Z</time>
</trkpt>
<trkpt lat="45.9170970" lon="10.2942280">
	<ele>907.60</ele>
	<time>2025-07-29T06:13:57.000Z</time>
</trkpt>
<trkpt lat="45.9170950" lon="10.2942390">
	<ele>907.80</ele>
	<time>2025-07-29T06:13:58.000Z</time>
</trkpt>
<trkpt lat="45.9170960" lon="10.2942490">
	<ele>908.00</ele>
	<time>2025-07-29T06:13:59.000Z</time>
</trkpt>
<trkpt lat="45.9170980" lon="10.2942590">
	<ele>908.20</ele>
	<time>2025-07-29T06:14:00.000Z</time>
</trkpt>
<trkpt lat="45.9170940" lon="10.2942750">
	<ele>908.20</ele>
	<time>2025-07-29T06:14:01.000Z</time>
</trkpt>
<trkpt lat="45.9170880" lon="10.2942880">
	<ele>908.40</ele>
	<time>2025-07-29T06:14:02.000Z</time>
</trkpt>
<trkpt lat="45.9170870" lon="10.2942990">
	<ele>908.60</ele>
	<time>2025-07-29T06:14:03.000Z</time>
</trkpt>
<trkpt lat="45.9170840" lon="10.2943160">
	<ele>908.80</ele>
	<time>2025-07-29T06:14:04.000Z</time>
</trkpt>
<trkpt lat="45.9170830" lon="10.2943280">
	<ele>909.00</ele>
	<time>2025-07-29T06:14:05.000Z</time>
</trkpt>
<trkpt lat="45.9170840" lon="10.2943390">
	<ele>909.20</ele>
	<time>2025-07-29T06:14:06.000Z</time>
</trkpt>
<trkpt lat="45.9170850" lon="10.2943500">
	<ele>909.40</ele>
	<time>2025-07-29T06:14:07.000Z</time>
</trkpt>
<trkpt lat="45.9170860" lon="10.2943630">
	<ele>909.60</ele>
	<time>2025-07-29T06:14:08.000Z</time>
</trkpt>
<trkpt lat="45.9170840" lon="10.2943800">
	<ele>910.00</ele>
	<time>2025-07-29T06:14:09.000Z</time>
</trkpt>
<trkpt lat="45.9170800" lon="10.2943890">
	<ele>910.20</ele>
	<time>2025-07-29T06:14:10.000Z</time>
</trkpt>
<trkpt lat="45.9170720" lon="10.2943970">
	<ele>910.40</ele>
	<time>2025-07-29T06:14:11.000Z</time>
</trkpt>
<trkpt lat="45.9170680" lon="10.2944000">
	<ele>910.60</ele>
	<time>2025-07-29T06:14:12.000Z</time>
</trkpt>
<trkpt lat="45.9170660" lon="10.2944060">
	<ele>910.80</ele>
	<time>2025-07-29T06:14:13.000Z</time>
</trkpt>
<trkpt lat="45.9170660" lon="10.2944120">
	<ele>911.20</ele>
	<time>2025-07-29T06:14:14.000Z</time>
</trkpt>
<trkpt lat="45.9170600" lon="10.2944220">
	<ele>911.40</ele>
	<time>2025-07-29T06:14:15.000Z</time>
</trkpt>
<trkpt lat="45.9170530" lon="10.2944340">
	<ele>911.60</ele>
	<time>2025-07-29T06:14:16.000Z</time>
</trkpt>
<trkpt lat="45.9170510" lon="10.2944390">
	<ele>911.60</ele>
	<time>2025-07-29T06:14:17.000Z</time>
</trkpt>
<trkpt lat="45.9170470" lon="10.2944400">
	<ele>911.80</ele>
	<time>2025-07-29T06:14:18.000Z</time>
</trkpt>
<trkpt lat="45.9170360" lon="10.2944440">
	<ele>912.00</ele>
	<time>2025-07-29T06:14:19.000Z</time>
</trkpt>
<trkpt lat="45.9170230" lon="10.2944520">
	<ele>912.20</ele>
	<time>2025-07-29T06:14:20.000Z</time>
</trkpt>
<trkpt lat="45.9170180" lon="10.2944600">
	<ele>912.20</ele>
	<time>2025-07-29T06:14:21.000Z</time>
</trkpt>
<trkpt lat="45.9170100" lon="10.2944700">
	<ele>912.40</ele>
	<time>2025-07-29T06:14:22.000Z</time>
</trkpt>
<trkpt lat="45.9170100" lon="10.2944760">
	<ele>912.60</ele>
	<time>2025-07-29T06:14:23.000Z</time>
</trkpt>
<trkpt lat="45.9170120" lon="10.2944930">
	<ele>912.80</ele>
	<time>2025-07-29T06:14:24.000Z</time>
</trkpt>
<trkpt lat="45.9170150" lon="10.2945100">
	<ele>913.00</ele>
	<time>2025-07-29T06:14:25.000Z</time>
</trkpt>
<trkpt lat="45.9170160" lon="10.2945240">
	<ele>913.20</ele>
	<time>2025-07-29T06:14:26.000Z</time>
</trkpt>
<trkpt lat="45.9170180" lon="10.2945360">
	<ele>913.20</ele>
	<time>2025-07-29T06:14:27.000Z</time>
</trkpt>
<trkpt lat="45.9170140" lon="10.2945510">
	<ele>913.60</ele>
	<time>2025-07-29T06:14:28.000Z</time>
</trkpt>
<trkpt lat="45.9170190" lon="10.2945550">
	<ele>913.80</ele>
	<time>2025-07-29T06:14:29.000Z</time>
</trkpt>
<trkpt lat="45.9170290" lon="10.2945580">
	<ele>914.20</ele>
	<time>2025-07-29T06:14:30.000Z</time>
</trkpt>
<trkpt lat="45.9170230" lon="10.2945690">
	<ele>914.40</ele>
	<time>2025-07-29T06:14:31.000Z</time>
</trkpt>
<trkpt lat="45.9170180" lon="10.2945710">
	<ele>914.80</ele>
	<time>2025-07-29T06:14:32.000Z</time>
</trkpt>
<trkpt lat="45.9170170" lon="10.2945750">
	<ele>915.00</ele>
	<time>2025-07-29T06:14:33.000Z</time>
</trkpt>
<trkpt lat="45.9170140" lon="10.2945780">
	<ele>915.20</ele>
	<time>2025-07-29T06:14:34.000Z</time>
</trkpt>
<trkpt lat="45.9170030" lon="10.2945670">
	<ele>915.40</ele>
	<time>2025-07-29T06:14:35.000Z</time>
</trkpt>
<trkpt lat="45.9170000" lon="10.2945600">
	<ele>915.60</ele>
	<time>2025-07-29T06:14:36.000Z</time>
</trkpt>
<trkpt lat="45.9169960" lon="10.2945590">
	<ele>915.80</ele>
	<time>2025-07-29T06:14:37.000Z</time>
</trkpt>
<trkpt lat="45.9169950" lon="10.2945560">
	<ele>916.20</ele>
	<time>2025-07-29T06:14:38.000Z</time>
</trkpt>
<trkpt lat="45.9169930" lon="10.2945520">
	<ele>916.40</ele>
	<time>2025-07-29T06:14:39.000Z</time>
</trkpt>
<trkpt lat="45.9169900" lon="10.2945470">
	<ele>916.60</ele>
	<time>2025-07-29T06:14:40.000Z</time>
</trkpt>
<trkpt lat="45.9169900" lon="10.2945410">
	<ele>916.80</ele>
	<time>2025-07-29T06:14:41.000Z</time>
</trkpt>
<trkpt lat="45.9169840" lon="10.2945380">
	<ele>917.00</ele>
	<time>2025-07-29T06:14:42.000Z</time>
</trkpt>
<trkpt lat="45.9169800" lon="10.2945390">
	<ele>917.20</ele>
	<time>2025-07-29T06:14:43.000Z</time>
</trkpt>
<trkpt lat="45.9169770" lon="10.2945370">
	<ele>917.40</ele>
	<time>2025-07-29T06:14:44.000Z</time>
</trkpt>
<trkpt lat="45.9169700" lon="10.2945380">
	<ele>917.60</ele>
	<time>2025-07-29T06:14:45.000Z</time>
</trkpt>
<trkpt lat="45.9169650" lon="10.2945410">
	<ele>917.80</ele>
	<time>2025-07-29T06:14:46.000Z</time>
</trkpt>
<trkpt lat="45.9169570" lon="10.2945450">
	<ele>918.00</ele>
	<time>2025-07-29T06:14:47.000Z</time>
</trkpt>
<trkpt lat="45.9169540" lon="10.2945420">
	<ele>918.00</ele>
	<time>2025-07-29T06:14:48.000Z</time>
</trkpt>
<trkpt lat="45.9169510" lon="10.2945370">
	<ele>918.40</ele>
	<time>2025-07-29T06:14:49.000Z</time>
</trkpt>
<trkpt lat="45.9169520" lon="10.2945290">
	<ele>918.60</ele>
	<time>2025-07-29T06:14:50.000Z</time>
</trkpt>
<trkpt lat="45.9169540" lon="10.2945170">
	<ele>918.80</ele>
	<time>2025-07-29T06:14:51.000Z</time>
</trkpt>
<trkpt lat="45.9169530" lon="10.2945060">
	<ele>919.00</ele>
	<time>2025-07-29T06:14:52.000Z</time>
</trkpt>
<trkpt lat="45.9169520" lon="10.2944990">
	<ele>919.40</ele>
	<time>2025-07-29T06:14:53.000Z</time>
</trkpt>
<trkpt lat="45.9169460" lon="10.2944920">
	<ele>919.40</ele>
	<time>2025-07-29T06:14:54.000Z</time>
</trkpt>
<trkpt lat="45.9169420" lon="10.2944870">
	<ele>919.80</ele>
	<time>2025-07-29T06:14:55.000Z</time>
</trkpt>
<trkpt lat="45.9169340" lon="10.2944840">
	<ele>919.80</ele>
	<time>2025-07-29T06:14:56.000Z</time>
</trkpt>
<trkpt lat="45.9169310" lon="10.2944800">
	<ele>920.00</ele>
	<time>2025-07-29T06:14:57.000Z</time>
</trkpt>
<trkpt lat="45.9169250" lon="10.2944740">
	<ele>920.20</ele>
	<time>2025-07-29T06:14:58.000Z</time>
</trkpt>
<trkpt lat="45.9169210" lon="10.2944650">
	<ele>920.40</ele>
	<time>2025-07-29T06:14:59.000Z</time>
</trkpt>
<trkpt lat="45.9169140" lon="10.2944590">
	<ele>920.60</ele>
	<time>2025-07-29T06:15:00.000Z</time>
</trkpt>
<trkpt lat="45.9169090" lon="10.2944520">
	<ele>921.00</ele>
	<time>2025-07-29T06:15:01.000Z</time>
</trkpt>
<trkpt lat="45.9169060" lon="10.2944460">
	<ele>921.40</ele>
	<time>2025-07-29T06:15:02.000Z</time>
</trkpt>
<trkpt lat="45.9169050" lon="10.2944420">
	<ele>921.60</ele>
	<time>2025-07-29T06:15:03.000Z</time>
</trkpt>
<trkpt lat="45.9169050" lon="10.2944340">
	<ele>921.80</ele>
	<time>2025-07-29T06:15:04.000Z</time>
</trkpt>
<trkpt lat="45.9169080" lon="10.2944270">
	<ele>922.20</ele>
	<time>2025-07-29T06:15:05.000Z</time>
</trkpt>
<trkpt lat="45.9169150" lon="10.2944190">
	<ele>922.40</ele>
	<time>2025-07-29T06:15:06.000Z</time>
</trkpt>
<trkpt lat="45.9169160" lon="10.2944150">
	<ele>922.40</ele>
	<time>2025-07-29T06:15:07.000Z</time>
</trkpt>
<trkpt lat="45.9169170" lon="10.2944140">
	<ele>922.60</ele>
	<time>2025-07-29T06:15:08.000Z</time>
</trkpt>
<trkpt lat="45.9169170" lon="10.2944100">
	<ele>922.80</ele>
	<time>2025-07-29T06:15:09.000Z</time>
</trkpt>
<trkpt lat="45.9169170" lon="10.2944000">
	<ele>923.00</ele>
	<time>2025-07-29T06:15:10.000Z</time>
</trkpt>
<trkpt lat="45.9169140" lon="10.2943910">
	<ele>923.20</ele>
	<time>2025-07-29T06:15:11.000Z</time>
</trkpt>
<trkpt lat="45.9169040" lon="10.2943840">
	<ele>923.40</ele>
	<time>2025-07-29T06:15:12.000Z</time>
</trkpt>
<trkpt lat="45.9169000" lon="10.2943710">
	<ele>923.60</ele>
	<time>2025-07-29T06:15:13.000Z</time>
</trkpt>
<trkpt lat="45.9168970" lon="10.2943460">
	<ele>923.80</ele>
	<time>2025-07-29T06:15:14.000Z</time>
</trkpt>
<trkpt lat="45.9168900" lon="10.2943470">
	<ele>924.00</ele>
	<time>2025-07-29T06:15:15.000Z</time>
</trkpt>
<trkpt lat="45.9168780" lon="10.2943440">
	<ele>924.20</ele>
	<time>2025-07-29T06:15:16.000Z</time>
</trkpt>
<trkpt lat="45.9168720" lon="10.2943440">
	<ele>924.40</ele>
	<time>2025-07-29T06:15:17.000Z</time>
</trkpt>
<trkpt lat="45.9168640" lon="10.2943460">
	<ele>924.60</ele>
	<time>2025-07-29T06:15:18.000Z</time>
</trkpt>
<trkpt lat="45.9168560" lon="10.2943490">
	<ele>924.60</ele>
	<time>2025-07-29T06:15:19.000Z</time>
</trkpt>
<trkpt lat="45.9168440" lon="10.2943480">
	<ele>925.00</ele>
	<time>2025-07-29T06:15:20.000Z</time>
</trkpt>
<trkpt lat="45.9168390" lon="10.2943490">
	<ele>925.20</ele>
	<time>2025-07-29T06:15:21.000Z</time>
</trkpt>
<trkpt lat="45.9168330" lon="10.2943450">
	<ele>925.20</ele>
	<time>2025-07-29T06:15:22.000Z</time>
</trkpt>
<trkpt lat="45.9168300" lon="10.2943380">
	<ele>925.40</ele>
	<time>2025-07-29T06:15:23.000Z</time>
</trkpt>
<trkpt lat="45.9168240" lon="10.2943290">
	<ele>925.60</ele>
	<time>2025-07-29T06:15:24.000Z</time>
</trkpt>
<trkpt lat="45.9168170" lon="10.2943210">
	<ele>925.80</ele>
	<time>2025-07-29T06:15:25.000Z</time>
</trkpt>
<trkpt lat="45.9168100" lon="10.2943150">
	<ele>926.00</ele>
	<time>2025-07-29T06:15:26.000Z</time>
</trkpt>
<trkpt lat="45.9168020" lon="10.2943060">
	<ele>926.20</ele>
	<time>2025-07-29T06:15:27.000Z</time>
</trkpt>
<trkpt lat="45.9167920" lon="10.2943010">
	<ele>926.40</ele>
	<time>2025-07-29T06:15:28.000Z</time>
</trkpt>
<trkpt lat="45.9167830" lon="10.2942960">
	<ele>926.60</ele>
	<time>2025-07-29T06:15:29.000Z</time>
</trkpt>
<trkpt lat="45.9167790" lon="10.2942890">
	<ele>926.60</ele>
	<time>2025-07-29T06:15:30.000Z</time>
</trkpt>
<trkpt lat="45.9167780" lon="10.2942740">
	<ele>926.80</ele>
	<time>2025-07-29T06:15:31.000Z</time>
</trkpt>
<trkpt lat="45.9167750" lon="10.2942600">
	<ele>927.00</ele>
	<time>2025-07-29T06:15:32.000Z</time>
</trkpt>
<trkpt lat="45.9167700" lon="10.2942510">
	<ele>927.20</ele>
	<time>2025-07-29T06:15:33.000Z</time>
</trkpt>
<trkpt lat="45.9167630" lon="10.2942460">
	<ele>927.20</ele>
	<time>2025-07-29T06:15:34.000Z</time>
</trkpt>
<trkpt lat="45.9167540" lon="10.2942430">
	<ele>927.40</ele>
	<time>2025-07-29T06:15:35.000Z</time>
</trkpt>
<trkpt lat="45.9167450" lon="10.2942340">
	<ele>927.60</ele>
	<time>2025-07-29T06:15:36.000Z</time>
</trkpt>
<trkpt lat="45.9167420" lon="10.2942160">
	<ele>927.80</ele>
	<time>2025-07-29T06:15:37.000Z</time>
</trkpt>
<trkpt lat="45.9167360" lon="10.2942020">
	<ele>928.00</ele>
	<time>2025-07-29T06:15:38.000Z</time>
</trkpt>
<trkpt lat="45.9167310" lon="10.2941950">
	<ele>928.20</ele>
	<time>2025-07-29T06:15:39.000Z</time>
</trkpt>
<trkpt lat="45.9167220" lon="10.2941830">
	<ele>928.40</ele>
	<time>2025-07-29T06:15:40.000Z</time>
</trkpt>
<trkpt lat="45.9167220" lon="10.2941720">
	<ele>928.80</ele>
	<time>2025-07-29T06:15:41.000Z</time>
</trkpt>
<trkpt lat="45.9167160" lon="10.2941620">
	<ele>929.00</ele>
	<time>2025-07-29T06:15:42.000Z</time>
</trkpt>
<trkpt lat="45.9167110" lon="10.2941570">
	<ele>929.00</ele>
	<time>2025-07-29T06:15:43.000Z</time>
</trkpt>
<trkpt lat="45.9167120" lon="10.2941460">
	<ele>929.20</ele>
	<time>2025-07-29T06:15:44.000Z</time>
</trkpt>
<trkpt lat="45.9167140" lon="10.2941340">
	<ele>929.20</ele>
	<time>2025-07-29T06:15:45.000Z</time>
</trkpt>
<trkpt lat="45.9167110" lon="10.2941240">
	<ele>929.40</ele>
	<time>2025-07-29T06:15:46.000Z</time>
</trkpt>
<trkpt lat="45.9167160" lon="10.2941100">
	<ele>929.60</ele>
	<time>2025-07-29T06:15:47.000Z</time>
</trkpt>
<trkpt lat="45.9167250" lon="10.2940990">
	<ele>929.60</ele>
	<time>2025-07-29T06:15:48.000Z</time>
</trkpt>
<trkpt lat="45.9167220" lon="10.2940950">
	<ele>929.80</ele>
	<time>2025-07-29T06:15:49.000Z</time>
</trkpt>
<trkpt lat="45.9167190" lon="10.2940840">
	<ele>929.80</ele>
	<time>2025-07-29T06:15:50.000Z</time>
</trkpt>
<trkpt lat="45.9167180" lon="10.2940740">
	<ele>930.00</ele>
	<time>2025-07-29T06:15:51.000Z</time>
</trkpt>
<trkpt lat="45.9167110" lon="10.2940670">
	<ele>930.20</ele>
	<time>2025-07-29T06:15:52.000Z</time>
</trkpt>
<trkpt lat="45.9167050" lon="10.2940590">
	<ele>930.20</ele>
	<time>2025-07-29T06:15:53.000Z</time>
</trkpt>
<trkpt lat="45.9166980" lon="10.2940560">
	<ele>930.40</ele>
	<time>2025-07-29T06:15:54.000Z</time>
</trkpt>
<trkpt lat="45.9166970" lon="10.2940410">
	<ele>930.60</ele>
	<time>2025-07-29T06:15:55.000Z</time>
</trkpt>
<trkpt lat="45.9166980" lon="10.2940190">
	<ele>930.60</ele>
	<time>2025-07-29T06:15:56.000Z</time>
</trkpt>
<trkpt lat="45.9167050" lon="10.2939890">
	<ele>930.60</ele>
	<time>2025-07-29T06:15:57.000Z</time>
</trkpt>
<trkpt lat="45.9167080" lon="10.2939830">
	<ele>930.80</ele>
	<time>2025-07-29T06:15:58.000Z</time>
</trkpt>
<trkpt lat="45.9167090" lon="10.2939760">
	<ele>931.00</ele>
	<time>2025-07-29T06:15:59.000Z</time>
</trkpt>
<trkpt lat="45.9166780" lon="10.2939680">
	<ele>931.20</ele>
	<time>2025-07-29T06:16:00.000Z</time>
</trkpt>
<trkpt lat="45.9166650" lon="10.2939650">
	<ele>931.40</ele>
	<time>2025-07-29T06:16:01.000Z</time>
</trkpt>
<trkpt lat="45.9166640" lon="10.2939530">
	<ele>931.40</ele>
	<time>2025-07-29T06:16:02.000Z</time>
</trkpt>
<trkpt lat="45.9166520" lon="10.2939440">
	<ele>931.60</ele>
	<time>2025-07-29T06:16:03.000Z</time>
</trkpt>
<trkpt lat="45.9166370" lon="10.2939320">
	<ele>931.80</ele>
	<time>2025-07-29T06:16:04.000Z</time>
</trkpt>
<trkpt lat="45.9166180" lon="10.2939260">
	<ele>931.80</ele>
	<time>2025-07-29T06:16:05.000Z</time>
</trkpt>
<trkpt lat="45.9165960" lon="10.2939290">
	<ele>932.00</ele>
	<time>2025-07-29T06:16:06.000Z</time>
</trkpt>
<trkpt lat="45.9165730" lon="10.2939130">
	<ele>932.20</ele>
	<time>2025-07-29T06:16:07.000Z</time>
</trkpt>
<trkpt lat="45.9165440" lon="10.2938920">
	<ele>932.20</ele>
	<time>2025-07-29T06:16:08.000Z</time>
</trkpt>
<trkpt lat="45.9165370" lon="10.2938880">
	<ele>932.40</ele>
	<time>2025-07-29T06:16:09.000Z</time>
</trkpt>
<trkpt lat="45.9165290" lon="10.2938780">
	<ele>932.40</ele>
	<time>2025-07-29T06:16:10.000Z</time>
</trkpt>
<trkpt lat="45.9165260" lon="10.2938730">
	<ele>932.40</ele>
	<time>2025-07-29T06:16:11.000Z</time>
</trkpt>
<trkpt lat="45.9165110" lon="10.2938620">
	<ele>932.60</ele>
	<time>2025-07-29T06:16:12.000Z</time>
</trkpt>
<trkpt lat="45.9164990" lon="10.2938510">
	<ele>932.80</ele>
	<time>2025-07-29T06:16:13.000Z</time>
</trkpt>
<trkpt lat="45.9164890" lon="10.2938380">
	<ele>933.00</ele>
	<time>2025-07-29T06:16:14.000Z</time>
</trkpt>
<trkpt lat="45.9164900" lon="10.2938310">
	<ele>933.20</ele>
	<time>2025-07-29T06:16:15.000Z</time>
</trkpt>
<trkpt lat="45.9164910" lon="10.2938290">
	<ele>933.40</ele>
	<time>2025-07-29T06:16:16.000Z</time>
</trkpt>
<trkpt lat="45.9164900" lon="10.2938290">
	<ele>933.40</ele>
	<time>2025-07-29T06:16:17.000Z</time>
</trkpt>
<trkpt lat="45.9164860" lon="10.2938210">
	<ele>933.80</ele>
	<time>2025-07-29T06:16:18.000Z</time>
</trkpt>
<trkpt lat="45.9164790" lon="10.2938110">
	<ele>934.00</ele>
	<time>2025-07-29T06:16:19.000Z</time>
</trkpt>
<trkpt lat="45.9164770" lon="10.2938160">
	<ele>934.20</ele>
	<time>2025-07-29T06:16:20.000Z</time>
</trkpt>
<trkpt lat="45.9164580" lon="10.2938120">
	<ele>934.40</ele>
	<time>2025-07-29T06:16:21.000Z</time>
</trkpt>
<trkpt lat="45.9164530" lon="10.2938100">
	<ele>934.60</ele>
	<time>2025-07-29T06:16:22.000Z</time>
</trkpt>
<trkpt lat="45.9164350" lon="10.2937960">
	<ele>934.80</ele>
	<time>2025-07-29T06:16:23.000Z</time>
</trkpt>
<trkpt lat="45.9164070" lon="10.2937780">
	<ele>934.80</ele>
	<time>2025-07-29T06:16:24.000Z</time>
</trkpt>
<trkpt lat="45.9163890" lon="10.2937690">
	<ele>935.00</ele>
	<time>2025-07-29T06:16:25.000Z</time>
</trkpt>
<trkpt lat="45.9163770" lon="10.2937720">
	<ele>935.20</ele>
	<time>2025-07-29T06:16:26.000Z</time>
</trkpt>
<trkpt lat="45.9163640" lon="10.2937860">
	<ele>935.40</ele>
	<time>2025-07-29T06:16:27.000Z</time>
</trkpt>
<trkpt lat="45.9163440" lon="10.2937940">
	<ele>935.60</ele>
	<time>2025-07-29T06:16:28.000Z</time>
</trkpt>
<trkpt lat="45.9163280" lon="10.2938010">
	<ele>935.80</ele>
	<time>2025-07-29T06:16:29.000Z</time>
</trkpt>
<trkpt lat="45.9163180" lon="10.2938110">
	<ele>936.00</ele>
	<time>2025-07-29T06:16:30.000Z</time>
</trkpt>
<trkpt lat="45.9163010" lon="10.2938110">
	<ele>936.20</ele>
	<time>2025-07-29T06:16:31.000Z</time>
</trkpt>
<trkpt lat="45.9162870" lon="10.2938080">
	<ele>936.60</ele>
	<time>2025-07-29T06:16:32.000Z</time>
</trkpt>
<trkpt lat="45.9162760" lon="10.2937990">
	<ele>936.60</ele>
	<time>2025-07-29T06:16:33.000Z</time>
</trkpt>
<trkpt lat="45.9162750" lon="10.2937880">
	<ele>936.80</ele>
	<time>2025-07-29T06:16:34.000Z</time>
</trkpt>
<trkpt lat="45.9162770" lon="10.2937760">
	<ele>937.20</ele>
	<time>2025-07-29T06:16:35.000Z</time>
</trkpt>
<trkpt lat="45.9162710" lon="10.2937680">
	<ele>937.20</ele>
	<time>2025-07-29T06:16:36.000Z</time>
</trkpt>
<trkpt lat="45.9162610" lon="10.2937610">
	<ele>937.40</ele>
	<time>2025-07-29T06:16:37.000Z</time>
</trkpt>
<trkpt lat="45.9162530" lon="10.2937640">
	<ele>937.60</ele>
	<time>2025-07-29T06:16:38.000Z</time>
</trkpt>
<trkpt lat="45.9162530" lon="10.2937610">
	<ele>937.80</ele>
	<time>2025-07-29T06:16:39.000Z</time>
</trkpt>
<trkpt lat="45.9162560" lon="10.2937620">
	<ele>938.00</ele>
	<time>2025-07-29T06:16:40.000Z</time>
</trkpt>
<trkpt lat="45.9162630" lon="10.2937570">
	<ele>938.20</ele>
	<time>2025-07-29T06:16:41.000Z</time>
</trkpt>
<trkpt lat="45.9162670" lon="10.2937590">
	<ele>938.40</ele>
	<time>2025-07-29T06:16:42.000Z</time>
</trkpt>
<trkpt lat="45.9162670" lon="10.2937590">
	<ele>938.60</ele>
	<time>2025-07-29T06:16:43.000Z</time>
</trkpt>
<trkpt lat="45.9162610" lon="10.2937560">
	<ele>938.80</ele>
	<time>2025-07-29T06:16:44.000Z</time>
</trkpt>
<trkpt lat="45.9162490" lon="10.2937570">
	<ele>939.00</ele>
	<time>2025-07-29T06:16:45.000Z</time>
</trkpt>
<trkpt lat="45.9162450" lon="10.2937540">
	<ele>939.20</ele>
	<time>2025-07-29T06:16:46.000Z</time>
</trkpt>
<trkpt lat="45.9162300" lon="10.2937550">
	<ele>939.40</ele>
	<time>2025-07-29T06:16:47.000Z</time>
</trkpt>
<trkpt lat="45.9162160" lon="10.2937560">
	<ele>939.60</ele>
	<time>2025-07-29T06:16:48.000Z</time>
</trkpt>
<trkpt lat="45.9162030" lon="10.2937540">
	<ele>939.80</ele>
	<time>2025-07-29T06:16:49.000Z</time>
</trkpt>
<trkpt lat="45.9161880" lon="10.2937490">
	<ele>940.20</ele>
	<time>2025-07-29T06:16:50.000Z</time>
</trkpt>
<trkpt lat="45.9161750" lon="10.2937520">
	<ele>940.40</ele>
	<time>2025-07-29T06:16:51.000Z</time>
</trkpt>
<trkpt lat="45.9161660" lon="10.2937480">
	<ele>940.60</ele>
	<time>2025-07-29T06:16:52.000Z</time>
</trkpt>
<trkpt lat="45.9161550" lon="10.2937410">
	<ele>940.60</ele>
	<time>2025-07-29T06:16:53.000Z</time>
</trkpt>
<trkpt lat="45.9161490" lon="10.2937420">
	<ele>941.00</ele>
	<time>2025-07-29T06:16:54.000Z</time>
</trkpt>
<trkpt lat="45.9161450" lon="10.2937380">
	<ele>941.00</ele>
	<time>2025-07-29T06:16:55.000Z</time>
</trkpt>
<trkpt lat="45.9161410" lon="10.2937360">
	<ele>941.20</ele>
	<time>2025-07-29T06:16:56.000Z</time>
</trkpt>
<trkpt lat="45.9161340" lon="10.2937340">
	<ele>941.40</ele>
	<time>2025-07-29T06:16:57.000Z</time>
</trkpt>
<trkpt lat="45.9161190" lon="10.2937270">
	<ele>941.60</ele>
	<time>2025-07-29T06:16:58.000Z</time>
</trkpt>
<trkpt lat="45.9161040" lon="10.2937130">
	<ele>941.80</ele>
	<time>2025-07-29T06:16:59.000Z</time>
</trkpt>
<trkpt lat="45.9160990" lon="10.2937080">
	<ele>941.80</ele>
	<time>2025-07-29T06:17:00.000Z</time>
</trkpt>
<trkpt lat="45.9160920" lon="10.2936970">
	<ele>942.00</ele>
	<time>2025-07-29T06:17:01.000Z</time>
</trkpt>
<trkpt lat="45.9160900" lon="10.2936920">
	<ele>942.00</ele>
	<time>2025-07-29T06:17:02.000Z</time>
</trkpt>
<trkpt lat="45.9160800" lon="10.2936800">
	<ele>942.40</ele>
	<time>2025-07-29T06:17:03.000Z</time>
</trkpt>
<trkpt lat="45.9160610" lon="10.2936730">
	<ele>942.60</ele>
	<time>2025-07-29T06:17:04.000Z</time>
</trkpt>
<trkpt lat="45.9160520" lon="10.2936630">
	<ele>942.80</ele>
	<time>2025-07-29T06:17:05.000Z</time>
</trkpt>
<trkpt lat="45.9160440" lon="10.2936490">
	<ele>943.20</ele>
	<time>2025-07-29T06:17:06.000Z</time>
</trkpt>
<trkpt lat="45.9160370" lon="10.2936320">
	<ele>943.20</ele>
	<time>2025-07-29T06:17:07.000Z</time>
</trkpt>
<trkpt lat="45.9160260" lon="10.2936290">
	<ele>943.40</ele>
	<time>2025-07-29T06:17:08.000Z</time>
</trkpt>
<trkpt lat="45.9160170" lon="10.2936370">
	<ele>943.60</ele>
	<time>2025-07-29T06:17:09.000Z</time>
</trkpt>
<trkpt lat="45.9160080" lon="10.2936530">
	<ele>943.80</ele>
	<time>2025-07-29T06:17:10.000Z</time>
</trkpt>
<trkpt lat="45.9159990" lon="10.2936250">
	<ele>944.00</ele>
	<time>2025-07-29T06:17:11.000Z</time>
</trkpt>
<trkpt lat="45.9159920" lon="10.2936240">
	<ele>944.20</ele>
	<time>2025-07-29T06:17:12.000Z</time>
</trkpt>
<trkpt lat="45.9159870" lon="10.2936250">
	<ele>944.40</ele>
	<time>2025-07-29T06:17:13.000Z</time>
</trkpt>
<trkpt lat="45.9159710" lon="10.2936350">
	<ele>944.60</ele>
	<time>2025-07-29T06:17:14.000Z</time>
</trkpt>
<trkpt lat="45.9159650" lon="10.2936380">
	<ele>945.00</ele>
	<time>2025-07-29T06:17:15.000Z</time>
</trkpt>
<trkpt lat="45.9159570" lon="10.2936510">
	<ele>945.20</ele>
	<time>2025-07-29T06:17:16.000Z</time>
</trkpt>
<trkpt lat="45.9159570" lon="10.2936630">
	<ele>945.60</ele>
	<time>2025-07-29T06:17:17.000Z</time>
</trkpt>
<trkpt lat="45.9159480" lon="10.2936710">
	<ele>945.80</ele>
	<time>2025-07-29T06:17:18.000Z</time>
</trkpt>
<trkpt lat="45.9159380" lon="10.2936760">
	<ele>946.20</ele>
	<time>2025-07-29T06:17:19.000Z</time>
</trkpt>
<trkpt lat="45.9159260" lon="10.2936830">
	<ele>946.20</ele>
	<time>2025-07-29T06:17:20.000Z</time>
</trkpt>
<trkpt lat="45.9159220" lon="10.2936870">
	<ele>946.40</ele>
	<time>2025-07-29T06:17:21.000Z</time>
</trkpt>
<trkpt lat="45.9159150" lon="10.2936960">
	<ele>946.40</ele>
	<time>2025-07-29T06:17:22.000Z</time>
</trkpt>
<trkpt lat="45.9159130" lon="10.2937110">
	<ele>946.40</ele>
	<time>2025-07-29T06:17:23.000Z</time>
</trkpt>
<trkpt lat="45.9159120" lon="10.2937240">
	<ele>946.60</ele>
	<time>2025-07-29T06:17:24.000Z</time>
</trkpt>
<trkpt lat="45.9159110" lon="10.2937330">
	<ele>946.80</ele>
	<time>2025-07-29T06:17:25.000Z</time>
</trkpt>
<trkpt lat="45.9159160" lon="10.2937610">
	<ele>946.80</ele>
	<time>2025-07-29T06:17:26.000Z</time>
</trkpt>
<trkpt lat="45.9159220" lon="10.2937780">
	<ele>947.00</ele>
	<time>2025-07-29T06:17:27.000Z</time>
</trkpt>
<trkpt lat="45.9159270" lon="10.2937840">
	<ele>947.20</ele>
	<time>2025-07-29T06:17:28.000Z</time>
</trkpt>
<trkpt lat="45.9159290" lon="10.2937850">
	<ele>947.40</ele>
	<time>2025-07-29T06:17:29.000Z</time>
</trkpt>
<trkpt lat="45.9159280" lon="10.2937880">
	<ele>947.60</ele>
	<time>2025-07-29T06:17:30.000Z</time>
</trkpt>
<trkpt lat="45.9159270" lon="10.2937900">
	<ele>947.80</ele>
	<time>2025-07-29T06:17:31.000Z</time>
</trkpt>
<trkpt lat="45.9159300" lon="10.2937920">
	<ele>948.00</ele>
	<time>2025-07-29T06:17:32.000Z</time>
</trkpt>
<trkpt lat="45.9159280" lon="10.2937910">
	<ele>948.00</ele>
	<time>2025-07-29T06:17:33.000Z</time>
</trkpt>
<trkpt lat="45.9159270" lon="10.2937880">
	<ele>948.40</ele>
	<time>2025-07-29T06:17:34.000Z</time>
</trkpt>
<trkpt lat="45.9159290" lon="10.2938040">
	<ele>948.60</ele>
	<time>2025-07-29T06:17:35.000Z</time>
</trkpt>
<trkpt lat="45.9159300" lon="10.2938130">
	<ele>948.80</ele>
	<time>2025-07-29T06:17:36.000Z</time>
</trkpt>
<trkpt lat="45.9159320" lon="10.2938120">
	<ele>948.80</ele>
	<time>2025-07-29T06:17:37.000Z</time>
</trkpt>
<trkpt lat="45.9159350" lon="10.2938170">
	<ele>949.00</ele>
	<time>2025-07-29T06:17:38.000Z</time>
</trkpt>
<trkpt lat="45.9159370" lon="10.2938270">
	<ele>949.20</ele>
	<time>2025-07-29T06:17:39.000Z</time>
</trkpt>
<trkpt lat="45.9159460" lon="10.2938360">
	<ele>949.40</ele>
	<time>2025-07-29T06:17:40.000Z</time>
</trkpt>
<trkpt lat="45.9159600" lon="10.2938580">
	<ele>949.60</ele>
	<time>2025-07-29T06:17:41.000Z</time>
</trkpt>
<trkpt lat="45.9159690" lon="10.2938640">
	<ele>949.80</ele>
	<time>2025-07-29T06:17:42.000Z</time>
</trkpt>
<trkpt lat="45.9159760" lon="10.2938690">
	<ele>949.80</ele>
	<time>2025-07-29T06:17:43.000Z</time>
</trkpt>
<trkpt lat="45.9159800" lon="10.2938720">
	<ele>950.00</ele>
	<time>2025-07-29T06:17:44.000Z</time>
</trkpt>
<trkpt lat="45.9159810" lon="10.2938760">
	<ele>950.20</ele>
	<time>2025-07-29T06:17:45.000Z</time>
</trkpt>
<trkpt lat="45.9159800" lon="10.2938770">
	<ele>950.40</ele>
	<time>2025-07-29T06:17:46.000Z</time>
</trkpt>
<trkpt lat="45.9159810" lon="10.2938740">
	<ele>950.40</ele>
	<time>2025-07-29T06:17:47.000Z</time>
</trkpt>
<trkpt lat="45.9159820" lon="10.2938730">
	<ele>950.60</ele>
	<time>2025-07-29T06:17:48.000Z</time>
</trkpt>
<trkpt lat="45.9159810" lon="10.2938800">
	<ele>950.80</ele>
	<time>2025-07-29T06:17:49.000Z</time>
</trkpt>
<trkpt lat="45.9159800" lon="10.2938840">
	<ele>950.80</ele>
	<time>2025-07-29T06:17:50.000Z</time>
</trkpt>
<trkpt lat="45.9159810" lon="10.2938870">
	<ele>951.00</ele>
	<time>2025-07-29T06:17:51.000Z</time>
</trkpt>
<trkpt lat="45.9159810" lon="10.2938960">
	<ele>951.20</ele>
	<time>2025-07-29T06:17:52.000Z</time>
</trkpt>
<trkpt lat="45.9159840" lon="10.2939080">
	<ele>951.40</ele>
	<time>2025-07-29T06:17:53.000Z</time>
</trkpt>
<trkpt lat="45.9159820" lon="10.2939250">
	<ele>951.80</ele>
	<time>2025-07-29T06:17:54.000Z</time>
</trkpt>
<trkpt lat="45.9159860" lon="10.2939550">
	<ele>952.00</ele>
	<time>2025-07-29T06:17:55.000Z</time>
</trkpt>
<trkpt lat="45.9159800" lon="10.2939750">
	<ele>952.20</ele>
	<time>2025-07-29T06:17:56.000Z</time>
</trkpt>
<trkpt lat="45.9159780" lon="10.2940070">
	<ele>952.40</ele>
	<time>2025-07-29T06:17:57.000Z</time>
</trkpt>
<trkpt lat="45.9159770" lon="10.2940260">
	<ele>952.60</ele>
	<time>2025-07-29T06:17:58.000Z</time>
</trkpt>
<trkpt lat="45.9159880" lon="10.2940410">
	<ele>953.00</ele>
	<time>2025-07-29T06:17:59.000Z</time>
</trkpt>
<trkpt lat="45.9159940" lon="10.2940550">
	<ele>953.20</ele>
	<time>2025-07-29T06:18:00.000Z</time>
</trkpt>
<trkpt lat="45.9159960" lon="10.2940720">
	<ele>953.40</ele>
	<time>2025-07-29T06:18:01.000Z</time>
</trkpt>
<trkpt lat="45.9160000" lon="10.2940910">
	<ele>953.60</ele>
	<time>2025-07-29T06:18:02.000Z</time>
</trkpt>
<trkpt lat="45.9160020" lon="10.2941070">
	<ele>953.80</ele>
	<time>2025-07-29T06:18:03.000Z</time>
</trkpt>
<trkpt lat="45.9160050" lon="10.2941160">
	<ele>954.00</ele>
	<time>2025-07-29T06:18:04.000Z</time>
</trkpt>
<trkpt lat="45.9160040" lon="10.2941240">
	<ele>954.00</ele>
	<time>2025-07-29T06:18:05.000Z</time>
</trkpt>
<trkpt lat="45.9160050" lon="10.2941320">
	<ele>954.20</ele>
	<time>2025-07-29T06:18:06.000Z</time>
</trkpt>
<trkpt lat="45.9159940" lon="10.2941450">
	<ele>954.60</ele>
	<time>2025-07-29T06:18:07.000Z</time>
</trkpt>
<trkpt lat="45.9159940" lon="10.2941520">
	<ele>954.80</ele>
	<time>2025-07-29T06:18:08.000Z</time>
</trkpt>
<trkpt lat="45.9159950" lon="10.2941540">
	<ele>955.00</ele>
	<time>2025-07-29T06:18:09.000Z</time>
</trkpt>
<trkpt lat="45.9159970" lon="10.2941660">
	<ele>955.20</ele>
	<time>2025-07-29T06:18:10.000Z</time>
</trkpt>
<trkpt lat="45.9159960" lon="10.2941730">
	<ele>955.60</ele>
	<time>2025-07-29T06:18:11.000Z</time>
</trkpt>
<trkpt lat="45.9159940" lon="10.2941780">
	<ele>955.80</ele>
	<time>2025-07-29T06:18:12.000Z</time>
</trkpt>
<trkpt lat="45.9159940" lon="10.2941810">
	<ele>956.00</ele>
	<time>2025-07-29T06:18:13.000Z</time>
</trkpt>
<trkpt lat="45.9159970" lon="10.2941660">
	<ele>956.20</ele>
	<time>2025-07-29T06:18:14.000Z</time>
</trkpt>
<trkpt lat="45.9160010" lon="10.2941760">
	<ele>956.40</ele>
	<time>2025-07-29T06:18:15.000Z</time>
</trkpt>
<trkpt lat="45.9160030" lon="10.2941790">
	<ele>956.60</ele>
	<time>2025-07-29T06:18:16.000Z</time>
</trkpt>
<trkpt lat="45.9160050" lon="10.2941870">
	<ele>956.80</ele>
	<time>2025-07-29T06:18:17.000Z</time>
</trkpt>
<trkpt lat="45.9160070" lon="10.2942000">
	<ele>957.20</ele>
	<time>2025-07-29T06:18:18.000Z</time>
</trkpt>
<trkpt lat="45.9160080" lon="10.2942040">
	<ele>957.20</ele>
	<time>2025-07-29T06:18:19.000Z</time>
</trkpt>
<trkpt lat="45.9160050" lon="10.2942180">
	<ele>957.60</ele>
	<time>2025-07-29T06:18:20.000Z</time>
</trkpt>
<trkpt lat="45.9160020" lon="10.2942270">
	<ele>957.80</ele>
	<time>2025-07-29T06:18:21.000Z</time>
</trkpt>
<trkpt lat="45.9160000" lon="10.2942340">
	<ele>958.00</ele>
	<time>2025-07-29T06:18:22.000Z</time>
</trkpt>
<trkpt lat="45.9159970" lon="10.2942410">
	<ele>958.40</ele>
	<time>2025-07-29T06:18:23.000Z</time>
</trkpt>
<trkpt lat="45.9159960" lon="10.2942450">
	<ele>958.60</ele>
	<time>2025-07-29T06:18:24.000Z</time>
</trkpt>
<trkpt lat="45.9159950" lon="10.2942480">
	<ele>959.00</ele>
	<time>2025-07-29T06:18:25.000Z</time>
</trkpt>
<trkpt lat="45.9159930" lon="10.2942590">
	<ele>959.20</ele>
	<time>2025-07-29T06:18:26.000Z</time>
</trkpt>
<trkpt lat="45.9159910" lon="10.2942680">
	<ele>959.60</ele>
	<time>2025-07-29T06:18:27.000Z</time>
</trkpt>
<trkpt lat="45.9159910" lon="10.2942730">
	<ele>959.80</ele>
	<time>2025-07-29T06:18:28.000Z</time>
</trkpt>
<trkpt lat="45.9159910" lon="10.2942860">
	<ele>960.00</ele>
	<time>2025-07-29T06:18:29.000Z</time>
</trkpt>
<trkpt lat="45.9159920" lon="10.2942990">
	<ele>960.40</ele>
	<time>2025-07-29T06:18:30.000Z</time>
</trkpt>
<trkpt lat="45.9159910" lon="10.2943080">
	<ele>960.60</ele>
	<time>2025-07-29T06:18:31.000Z</time>
</trkpt>
<trkpt lat="45.9159920" lon="10.2943200">
	<ele>961.00</ele>
	<time>2025-07-29T06:18:32.000Z</time>
</trkpt>
<trkpt lat="45.9159940" lon="10.2943310">
	<ele>961.40</ele>
	<time>2025-07-29T06:18:33.000Z</time>
</trkpt>
<trkpt lat="45.9159930" lon="10.2943350">
	<ele>961.60</ele>
	<time>2025-07-29T06:18:34.000Z</time>
</trkpt>
<trkpt lat="45.9159900" lon="10.2943430">
	<ele>961.80</ele>
	<time>2025-07-29T06:18:35.000Z</time>
</trkpt>
<trkpt lat="45.9159890" lon="10.2943520">
	<ele>961.80</ele>
	<time>2025-07-29T06:18:36.000Z</time>
</trkpt>
<trkpt lat="45.9159890" lon="10.2943620">
	<ele>962.00</ele>
	<time>2025-07-29T06:18:37.000Z</time>
</trkpt>
<trkpt lat="45.9159870" lon="10.2943720">
	<ele>962.40</ele>
	<time>2025-07-29T06:18:38.000Z</time>
</trkpt>
<trkpt lat="45.9159860" lon="10.2943790">
	<ele>962.60</ele>
	<time>2025-07-29T06:18:39.000Z</time>
</trkpt>
<trkpt lat="45.9159850" lon="10.2943840">
	<ele>962.80</ele>
	<time>2025-07-29T06:18:40.000Z</time>
</trkpt>
<trkpt lat="45.9159860" lon="10.2943940">
	<ele>963.00</ele>
	<time>2025-07-29T06:18:41.000Z</time>
</trkpt>
<trkpt lat="45.9159830" lon="10.2944050">
	<ele>963.20</ele>
	<time>2025-07-29T06:18:42.000Z</time>
</trkpt>
<trkpt lat="45.9159830" lon="10.2944100">
	<ele>963.20</ele>
	<time>2025-07-29T06:18:43.000Z</time>
</trkpt>
<trkpt lat="45.9159820" lon="10.2944160">
	<ele>963.40</ele>
	<time>2025-07-29T06:18:44.000Z</time>
</trkpt>
<trkpt lat="45.9159810" lon="10.2944210">
	<ele>963.60</ele>
	<time>2025-07-29T06:18:45.000Z</time>
</trkpt>
<trkpt lat="45.9159780" lon="10.2944330">
	<ele>963.80</ele>
	<time>2025-07-29T06:18:46.000Z</time>
</trkpt>
<trkpt lat="45.9159750" lon="10.2944500">
	<ele>963.80</ele>
	<time>2025-07-29T06:18:47.000Z</time>
</trkpt>
<trkpt lat="45.9159710" lon="10.2944640">
	<ele>963.80</ele>
	<time>2025-07-29T06:18:48.000Z</time>
</trkpt>
<trkpt lat="45.9159650" lon="10.2944650">
	<ele>964.00</ele>
	<time>2025-07-29T06:18:49.000Z</time>
</trkpt>
<trkpt lat="45.9159590" lon="10.2944720">
	<ele>964.20</ele>
	<time>2025-07-29T06:18:50.000Z</time>
</trkpt>
<trkpt lat="45.9159450" lon="10.2944710">
	<ele>964.20</ele>
	<time>2025-07-29T06:18:51.000Z</time>
</trkpt>
<trkpt lat="45.9159390" lon="10.2944750">
	<ele>964.40</ele>
	<time>2025-07-29T06:18:52.000Z</time>
</trkpt>
<trkpt lat="45.9159370" lon="10.2944770">
	<ele>964.60</ele>
	<time>2025-07-29T06:18:53.000Z</time>
</trkpt>
<trkpt lat="45.9159390" lon="10.2944870">
	<ele>964.60</ele>
	<time>2025-07-29T06:18:54.000Z</time>
</trkpt>
<trkpt lat="45.9159380" lon="10.2944860">
	<ele>964.80</ele>
	<time>2025-07-29T06:18:55.000Z</time>
</trkpt>
<trkpt lat="45.9159370" lon="10.2945070">
	<ele>965.00</ele>
	<time>2025-07-29T06:18:56.000Z</time>
</trkpt>
<trkpt lat="45.9159370" lon="10.2945200">
	<ele>965.20</ele>
	<time>2025-07-29T06:18:57.000Z</time>
</trkpt>
<trkpt lat="45.9159360" lon="10.2945220">
	<ele>965.40</ele>
	<time>2025-07-29T06:18:58.000Z</time>
</trkpt>
<trkpt lat="45.9159260" lon="10.2945300">
	<ele>965.80</ele>
	<time>2025-07-29T06:18:59.000Z</time>
</trkpt>
<trkpt lat="45.9159080" lon="10.2945330">
	<ele>965.80</ele>
	<time>2025-07-29T06:19:00.000Z</time>
</trkpt>
<trkpt lat="45.9158940" lon="10.2945370">
	<ele>966.00</ele>
	<time>2025-07-29T06:19:01.000Z</time>
</trkpt>
<trkpt lat="45.9158900" lon="10.2945480">
	<ele>966.20</ele>
	<time>2025-07-29T06:19:02.000Z</time>
</trkpt>
<trkpt lat="45.9158860" lon="10.2945550">
	<ele>966.60</ele>
	<time>2025-07-29T06:19:03.000Z</time>
</trkpt>
<trkpt lat="45.9158830" lon="10.2945590">
	<ele>966.80</ele>
	<time>2025-07-29T06:19:04.000Z</time>
</trkpt>
<trkpt lat="45.9158780" lon="10.2945600">
	<ele>967.00</ele>
	<time>2025-07-29T06:19:05.000Z</time>
</trkpt>
<trkpt lat="45.9158730" lon="10.2945660">
	<ele>967.20</ele>
	<time>2025-07-29T06:19:06.000Z</time>
</trkpt>
<trkpt lat="45.9158680" lon="10.2945670">
	<ele>967.40</ele>
	<time>2025-07-29T06:19:07.000Z</time>
</trkpt>
<trkpt lat="45.9158630" lon="10.2945700">
	<ele>967.60</ele>
	<time>2025-07-29T06:19:08.000Z</time>
</trkpt>
<trkpt lat="45.9158600" lon="10.2945740">
	<ele>967.80</ele>
	<time>2025-07-29T06:19:09.000Z</time>
</trkpt>
<trkpt lat="45.9158540" lon="10.2945800">
	<ele>968.20</ele>
	<time>2025-07-29T06:19:10.000Z</time>
</trkpt>
<trkpt lat="45.9158500" lon="10.2945870">
	<ele>968.60</ele>
	<time>2025-07-29T06:19:11.000Z</time>
</trkpt>
<trkpt lat="45.9158440" lon="10.2945930">
	<ele>969.00</ele>
	<time>2025-07-29T06:19:12.000Z</time>
</trkpt>
<trkpt lat="45.9158380" lon="10.2946010">
	<ele>969.40</ele>
	<time>2025-07-29T06:19:13.000Z</time>
</trkpt>
<trkpt lat="45.9158350" lon="10.2946030">
	<ele>969.80</ele>
	<time>2025-07-29T06:19:14.000Z</time>
</trkpt>
<trkpt lat="45.9158340" lon="10.2946010">
	<ele>969.80</ele>
	<time>2025-07-29T06:19:15.000Z</time>
</trkpt>
<trkpt lat="45.9158330" lon="10.2946180">
	<ele>970.00</ele>
	<time>2025-07-29T06:19:16.000Z</time>
</trkpt>
<trkpt lat="45.9158320" lon="10.2946290">
	<ele>970.00</ele>
	<time>2025-07-29T06:19:17.000Z</time>
</trkpt>
<trkpt lat="45.9158310" lon="10.2946410">
	<ele>970.20</ele>
	<time>2025-07-29T06:19:18.000Z</time>
</trkpt>
<trkpt lat="45.9158260" lon="10.2946380">
	<ele>970.20</ele>
	<time>2025-07-29T06:19:19.000Z</time>
</trkpt>
<trkpt lat="45.9158240" lon="10.2946350">
	<ele>970.20</ele>
	<time>2025-07-29T06:19:20.000Z</time>
</trkpt>
<trkpt lat="45.9158220" lon="10.2946390">
	<ele>970.60</ele>
	<time>2025-07-29T06:19:21.000Z</time>
</trkpt>
<trkpt lat="45.9158180" lon="10.2946440">
	<ele>970.80</ele>
	<time>2025-07-29T06:19:22.000Z</time>
</trkpt>
<trkpt lat="45.9158140" lon="10.2946500">
	<ele>971.00</ele>
	<time>2025-07-29T06:19:23.000Z</time>
</trkpt>
<trkpt lat="45.9158050" lon="10.2946520">
	<ele>971.20</ele>
	<time>2025-07-29T06:19:24.000Z</time>
</trkpt>
<trkpt lat="45.9157950" lon="10.2946560">
	<ele>971.60</ele>
	<time>2025-07-29T06:19:25.000Z</time>
</trkpt>
<trkpt lat="45.9157850" lon="10.2946600">
	<ele>972.00</ele>
	<time>2025-07-29T06:19:26.000Z</time>
</trkpt>
<trkpt lat="45.9157780" lon="10.2946650">
	<ele>972.00</ele>
	<time>2025-07-29T06:19:27.000Z</time>
</trkpt>
<trkpt lat="45.9157770" lon="10.2946760">
	<ele>972.40</ele>
	<time>2025-07-29T06:19:28.000Z</time>
</trkpt>
<trkpt lat="45.9157740" lon="10.2946790">
	<ele>972.60</ele>
	<time>2025-07-29T06:19:29.000Z</time>
</trkpt>
<trkpt lat="45.9157690" lon="10.2946840">
	<ele>972.60</ele>
	<time>2025-07-29T06:19:30.000Z</time>
</trkpt>
<trkpt lat="45.9157610" lon="10.2946860">
	<ele>972.80</ele>
	<time>2025-07-29T06:19:31.000Z</time>
</trkpt>
<trkpt lat="45.9157530" lon="10.2946850">
	<ele>972.80</ele>
	<time>2025-07-29T06:19:32.000Z</time>
</trkpt>
<trkpt lat="45.9157390" lon="10.2946840">
	<ele>973.00</ele>
	<time>2025-07-29T06:19:33.000Z</time>
</trkpt>
<trkpt lat="45.9157320" lon="10.2946820">
	<ele>973.00</ele>
	<time>2025-07-29T06:19:34.000Z</time>
</trkpt>
<trkpt lat="45.9157250" lon="10.2946870">
	<ele>973.00</ele>
	<time>2025-07-29T06:19:35.000Z</time>
</trkpt>
<trkpt lat="45.9157210" lon="10.2947020">
	<ele>973.20</ele>
	<time>2025-07-29T06:19:36.000Z</time>
</trkpt>
<trkpt lat="45.9157190" lon="10.2947210">
	<ele>973.40</ele>
	<time>2025-07-29T06:19:37.000Z</time>
</trkpt>
<trkpt lat="45.9157120" lon="10.2947400">
	<ele>973.80</ele>
	<time>2025-07-29T06:19:38.000Z</time>
</trkpt>
<trkpt lat="45.9157090" lon="10.2947490">
	<ele>974.00</ele>
	<time>2025-07-29T06:19:39.000Z</time>
</trkpt>
<trkpt lat="45.9157020" lon="10.2947680">
	<ele>974.20</ele>
	<time>2025-07-29T06:19:40.000Z</time>
</trkpt>
<trkpt lat="45.9157000" lon="10.2947920">
	<ele>974.20</ele>
	<time>2025-07-29T06:19:41.000Z</time>
</trkpt>
<trkpt lat="45.9156980" lon="10.2948040">
	<ele>974.20</ele>
	<time>2025-07-29T06:19:42.000Z</time>
</trkpt>
<trkpt lat="45.9156950" lon="10.2948140">
	<ele>974.60</ele>
	<time>2025-07-29T06:19:43.000Z</time>
</trkpt>
<trkpt lat="45.9156960" lon="10.2948270">
	<ele>974.80</ele>
	<time>2025-07-29T06:19:44.000Z</time>
</trkpt>
<trkpt lat="45.9156950" lon="10.2948390">
	<ele>975.00</ele>
	<time>2025-07-29T06:19:45.000Z</time>
</trkpt>
<trkpt lat="45.9156970" lon="10.2948460">
	<ele>975.00</ele>
	<time>2025-07-29T06:19:46.000Z</time>
</trkpt>
<trkpt lat="45.9157000" lon="10.2948540">
	<ele>975.20</ele>
	<time>2025-07-29T06:19:47.000Z</time>
</trkpt>
<trkpt lat="45.9157000" lon="10.2948680">
	<ele>975.20</ele>
	<time>2025-07-29T06:19:48.000Z</time>
</trkpt>
<trkpt lat="45.9157020" lon="10.2948800">
	<ele>975.40</ele>
	<time>2025-07-29T06:19:49.000Z</time>
</trkpt>
<trkpt lat="45.9157070" lon="10.2948910">
	<ele>975.60</ele>
	<time>2025-07-29T06:19:50.000Z</time>
</trkpt>
<trkpt lat="45.9157150" lon="10.2949030">
	<ele>975.80</ele>
	<time>2025-07-29T06:19:51.000Z</time>
</trkpt>
<trkpt lat="45.9157190" lon="10.2949180">
	<ele>976.00</ele>
	<time>2025-07-29T06:19:52.000Z</time>
</trkpt>
<trkpt lat="45.9157250" lon="10.2949350">
	<ele>976.40</ele>
	<time>2025-07-29T06:19:53.000Z</time>
</trkpt>
<trkpt lat="45.9157280" lon="10.2949500">
	<ele>976.60</ele>
	<time>2025-07-29T06:19:54.000Z</time>
</trkpt>
<trkpt lat="45.9157320" lon="10.2949640">
	<ele>976.60</ele>
	<time>2025-07-29T06:19:55.000Z</time>
</trkpt>
<trkpt lat="45.9157350" lon="10.2949800">
	<ele>976.80</ele>
	<time>2025-07-29T06:19:56.000Z</time>
</trkpt>
<trkpt lat="45.9157390" lon="10.2949940">
	<ele>977.00</ele>
	<time>2025-07-29T06:19:57.000Z</time>
</trkpt>
<trkpt lat="45.9157410" lon="10.2950100">
	<ele>977.20</ele>
	<time>2025-07-29T06:19:58.000Z</time>
</trkpt>
<trkpt lat="45.9157460" lon="10.2950240">
	<ele>977.20</ele>
	<time>2025-07-29T06:19:59.000Z</time>
</trkpt>
<trkpt lat="45.9157510" lon="10.2950370">
	<ele>977.40</ele>
	<time>2025-07-29T06:20:00.000Z</time>
</trkpt>
<trkpt lat="45.9157550" lon="10.2950520">
	<ele>977.60</ele>
	<time>2025-07-29T06:20:01.000Z</time>
</trkpt>
<trkpt lat="45.9157590" lon="10.2950660">
	<ele>977.80</ele>
	<time>2025-07-29T06:20:02.000Z</time>
</trkpt>
<trkpt lat="45.9157580" lon="10.2950740">
	<ele>978.00</ele>
	<time>2025-07-29T06:20:03.000Z</time>
</trkpt>
<trkpt lat="45.9157550" lon="10.2950880">
	<ele>978.00</ele>
	<time>2025-07-29T06:20:04.000Z</time>
</trkpt>
<trkpt lat="45.9157550" lon="10.2951020">
	<ele>978.20</ele>
	<time>2025-07-29T06:20:05.000Z</time>
</trkpt>
<trkpt lat="45.9157560" lon="10.2951170">
	<ele>978.40</ele>
	<time>2025-07-29T06:20:06.000Z</time>
</trkpt>
<trkpt lat="45.9157590" lon="10.2951290">
	<ele>978.60</ele>
	<time>2025-07-29T06:20:07.000Z</time>
</trkpt>
<trkpt lat="45.9157610" lon="10.2951360">
	<ele>978.80</ele>
	<time>2025-07-29T06:20:08.000Z</time>
</trkpt>
<trkpt lat="45.9157650" lon="10.2951460">
	<ele>979.00</ele>
	<time>2025-07-29T06:20:09.000Z</time>
</trkpt>
<trkpt lat="45.9157700" lon="10.2951570">
	<ele>979.00</ele>
	<time>2025-07-29T06:20:10.000Z</time>
</trkpt>
<trkpt lat="45.9157750" lon="10.2951620">
	<ele>979.20</ele>
	<time>2025-07-29T06:20:11.000Z</time>
</trkpt>
<trkpt lat="45.9157800" lon="10.2951740">
	<ele>979.40</ele>
	<time>2025-07-29T06:20:12.000Z</time>
</trkpt>
<trkpt lat="45.9157910" lon="10.2951760">
	<ele>979.40</ele>
	<time>2025-07-29T06:20:13.000Z</time>
</trkpt>
<trkpt lat="45.9157970" lon="10.2951850">
	<ele>979.60</ele>
	<time>2025-07-29T06:20:14.000Z</time>
</trkpt>
<trkpt lat="45.9158030" lon="10.2951990">
	<ele>979.60</ele>
	<time>2025-07-29T06:20:15.000Z</time>
</trkpt>
<trkpt lat="45.9158040" lon="10.2952200">
	<ele>979.80</ele>
	<time>2025-07-29T06:20:16.000Z</time>
</trkpt>
<trkpt lat="45.9158040" lon="10.2952400">
	<ele>980.00</ele>
	<time>2025-07-29T06:20:17.000Z</time>
</trkpt>
<trkpt lat="45.9158100" lon="10.2952540">
	<ele>980.20</ele>
	<time>2025-07-29T06:20:18.000Z</time>
</trkpt>
<trkpt lat="45.9158250" lon="10.2952530">
	<ele>980.40</ele>
	<time>2025-07-29T06:20:19.000Z</time>
</trkpt>
<trkpt lat="45.9158180" lon="10.2952490">
	<ele>980.60</ele>
	<time>2025-07-29T06:20:20.000Z</time>
</trkpt>
<trkpt lat="45.9158140" lon="10.2952600">
	<ele>980.60</ele>
	<time>2025-07-29T06:20:21.000Z</time>
</trkpt>
<trkpt lat="45.9158240" lon="10.2952700">
	<ele>980.80</ele>
	<time>2025-07-29T06:20:22.000Z</time>
</trkpt>
<trkpt lat="45.9158330" lon="10.2952790">
	<ele>981.00</ele>
	<time>2025-07-29T06:20:23.000Z</time>
</trkpt>
<trkpt lat="45.9158390" lon="10.2952890">
	<ele>981.00</ele>
	<time>2025-07-29T06:20:24.000Z</time>
</trkpt>
<trkpt lat="45.9158470" lon="10.2952900">
	<ele>981.20</ele>
	<time>2025-07-29T06:20:25.000Z</time>
</trkpt>
<trkpt lat="45.9158560" lon="10.2952940">
	<ele>981.20</ele>
	<time>2025-07-29T06:20:26.000Z</time>
</trkpt>
<trkpt lat="45.9158690" lon="10.2952970">
	<ele>981.40</ele>
	<time>2025-07-29T06:20:27.000Z</time>
</trkpt>
<trkpt lat="45.9158810" lon="10.2953050">
	<ele>981.60</ele>
	<time>2025-07-29T06:20:28.000Z</time>
</trkpt>
<trkpt lat="45.9158840" lon="10.2953110">
	<ele>981.80</ele>
	<time>2025-07-29T06:20:29.000Z</time>
</trkpt>
<trkpt lat="45.9158940" lon="10.2953230">
	<ele>982.00</ele>
	<time>2025-07-29T06:20:30.000Z</time>
</trkpt>
<trkpt lat="45.9159020" lon="10.2953350">
	<ele>982.20</ele>
	<time>2025-07-29T06:20:31.000Z</time>
</trkpt>
<trkpt lat="45.9159090" lon="10.2953660">
	<ele>982.20</ele>
	<time>2025-07-29T06:20:32.000Z</time>
</trkpt>
<trkpt lat="45.9159140" lon="10.2953890">
	<ele>982.40</ele>
	<time>2025-07-29T06:20:33.000Z</time>
</trkpt>
<trkpt lat="45.9159180" lon="10.2954080">
	<ele>982.40</ele>
	<time>2025-07-29T06:20:34.000Z</time>
</trkpt>
<trkpt lat="45.9159210" lon="10.2954210">
	<ele>982.60</ele>
	<time>2025-07-29T06:20:35.000Z</time>
</trkpt>
<trkpt lat="45.9159100" lon="10.2954330">
	<ele>982.80</ele>
	<time>2025-07-29T06:20:36.000Z</time>
</trkpt>
<trkpt lat="45.9159050" lon="10.2954480">
	<ele>983.00</ele>
	<time>2025-07-29T06:20:37.000Z</time>
</trkpt>
<trkpt lat="45.9159070" lon="10.2954680">
	<ele>983.00</ele>
	<time>2025-07-29T06:20:38.000Z</time>
</trkpt>
<trkpt lat="45.9159030" lon="10.2954890">
	<ele>983.20</ele>
	<time>2025-07-29T06:20:39.000Z</time>
</trkpt>
<trkpt lat="45.9159000" lon="10.2955080">
	<ele>983.40</ele>
	<time>2025-07-29T06:20:40.000Z</time>
</trkpt>
<trkpt lat="45.9158970" lon="10.2955150">
	<ele>983.60</ele>
	<time>2025-07-29T06:20:41.000Z</time>
</trkpt>
<trkpt lat="45.9158970" lon="10.2955190">
	<ele>983.80</ele>
	<time>2025-07-29T06:20:42.000Z</time>
</trkpt>
<trkpt lat="45.9159000" lon="10.2955210">
	<ele>984.00</ele>
	<time>2025-07-29T06:20:43.000Z</time>
</trkpt>
<trkpt lat="45.9158960" lon="10.2955230">
	<ele>984.00</ele>
	<time>2025-07-29T06:20:44.000Z</time>
</trkpt>
<trkpt lat="45.9158990" lon="10.2955290">
	<ele>984.20</ele>
	<time>2025-07-29T06:20:45.000Z</time>
</trkpt>
<trkpt lat="45.9159050" lon="10.2955340">
	<ele>984.20</ele>
	<time>2025-07-29T06:20:46.000Z</time>
</trkpt>
<trkpt lat="45.9159020" lon="10.2955390">
	<ele>984.40</ele>
	<time>2025-07-29T06:20:47.000Z</time>
</trkpt>
<trkpt lat="45.9158960" lon="10.2955530">
	<ele>984.40</ele>
	<time>2025-07-29T06:20:48.000Z</time>
</trkpt>
<trkpt lat="45.9158980" lon="10.2955570">
	<ele>984.40</ele>
	<time>2025-07-29T06:20:49.000Z</time>
</trkpt>
<trkpt lat="45.9159030" lon="10.2955600">
	<ele>984.60</ele>
	<time>2025-07-29T06:20:50.000Z</time>
</trkpt>
<trkpt lat="45.9159090" lon="10.2955700">
	<ele>985.00</ele>
	<time>2025-07-29T06:20:51.000Z</time>
</trkpt>
<trkpt lat="45.9158960" lon="10.2955810">
	<ele>985.20</ele>
	<time>2025-07-29T06:20:52.000Z</time>
</trkpt>
<trkpt lat="45.9158860" lon="10.2955850">
	<ele>985.60</ele>
	<time>2025-07-29T06:20:53.000Z</time>
</trkpt>
<trkpt lat="45.9158820" lon="10.2955880">
	<ele>985.80</ele>
	<time>2025-07-29T06:20:54.000Z</time>
</trkpt>
<trkpt lat="45.9158710" lon="10.2955880">
	<ele>986.20</ele>
	<time>2025-07-29T06:20:55.000Z</time>
</trkpt>
<trkpt lat="45.9158660" lon="10.2955880">
	<ele>986.40</ele>
	<time>2025-07-29T06:20:56.000Z</time>
</trkpt>
<trkpt lat="45.9158620" lon="10.2955910">
	<ele>986.40</ele>
	<time>2025-07-29T06:20:57.000Z</time>
</trkpt>
<trkpt lat="45.9158540" lon="10.2955890">
	<ele>986.60</ele>
	<time>2025-07-29T06:20:58.000Z</time>
</trkpt>
<trkpt lat="45.9158480" lon="10.2955920">
	<ele>986.60</ele>
	<time>2025-07-29T06:20:59.000Z</time>
</trkpt>
<trkpt lat="45.9158450" lon="10.2955940">
	<ele>986.80</ele>
	<time>2025-07-29T06:21:00.000Z</time>
</trkpt>
<trkpt lat="45.9158450" lon="10.2955970">
	<ele>986.80</ele>
	<time>2025-07-29T06:21:01.000Z</time>
</trkpt>
<trkpt lat="45.9158420" lon="10.2955960">
	<ele>987.00</ele>
	<time>2025-07-29T06:21:02.000Z</time>
</trkpt>
<trkpt lat="45.9158320" lon="10.2955980">
	<ele>987.20</ele>
	<time>2025-07-29T06:21:03.000Z</time>
</trkpt>
<trkpt lat="45.9158240" lon="10.2955970">
	<ele>987.40</ele>
	<time>2025-07-29T06:21:04.000Z</time>
</trkpt>
<trkpt lat="45.9158130" lon="10.2955960">
	<ele>987.60</ele>
	<time>2025-07-29T06:21:05.000Z</time>
</trkpt>
<trkpt lat="45.9158050" lon="10.2955980">
	<ele>987.80</ele>
	<time>2025-07-29T06:21:06.000Z</time>
</trkpt>
<trkpt lat="45.9157980" lon="10.2955980">
	<ele>987.80</ele>
	<time>2025-07-29T06:21:07.000Z</time>
</trkpt>
<trkpt lat="45.9157860" lon="10.2955970">
	<ele>988.00</ele>
	<time>2025-07-29T06:21:08.000Z</time>
</trkpt>
<trkpt lat="45.9157760" lon="10.2955960">
	<ele>988.20</ele>
	<time>2025-07-29T06:21:09.000Z</time>
</trkpt>
<trkpt lat="45.9157670" lon="10.2956010">
	<ele>988.20</ele>
	<time>2025-07-29T06:21:10.000Z</time>
</trkpt>
<trkpt lat="45.9157600" lon="10.2956040">
	<ele>988.40</ele>
	<time>2025-07-29T06:21:11.000Z</time>
</trkpt>
<trkpt lat="45.9157520" lon="10.2956080">
	<ele>988.60</ele>
	<time>2025-07-29T06:21:12.000Z</time>
</trkpt>
<trkpt lat="45.9157520" lon="10.2956040">
	<ele>988.80</ele>
	<time>2025-07-29T06:21:13.000Z</time>
</trkpt>
<trkpt lat="45.9157430" lon="10.2956100">
	<ele>989.00</ele>
	<time>2025-07-29T06:21:14.000Z</time>
</trkpt>
<trkpt lat="45.9157350" lon="10.2956140">
	<ele>989.20</ele>
	<time>2025-07-29T06:21:15.000Z</time>
</trkpt>
<trkpt lat="45.9157310" lon="10.2956110">
	<ele>989.40</ele>
	<time>2025-07-29T06:21:16.000Z</time>
</trkpt>
<trkpt lat="45.9157220" lon="10.2956030">
	<ele>989.80</ele>
	<time>2025-07-29T06:21:17.000Z</time>
</trkpt>
<trkpt lat="45.9157180" lon="10.2955990">
	<ele>990.00</ele>
	<time>2025-07-29T06:21:18.000Z</time>
</trkpt>
<trkpt lat="45.9157150" lon="10.2955950">
	<ele>990.20</ele>
	<time>2025-07-29T06:21:19.000Z</time>
</trkpt>
<trkpt lat="45.9157140" lon="10.2955890">
	<ele>990.40</ele>
	<time>2025-07-29T06:21:20.000Z</time>
</trkpt>
<trkpt lat="45.9157150" lon="10.2955860">
	<ele>990.60</ele>
	<time>2025-07-29T06:21:21.000Z</time>
</trkpt>
<trkpt lat="45.9157140" lon="10.2955860">
	<ele>990.80</ele>
	<time>2025-07-29T06:21:22.000Z</time>
</trkpt>
<trkpt lat="45.9157140" lon="10.2955850">
	<ele>991.00</ele>
	<time>2025-07-29T06:21:23.000Z</time>
</trkpt>
<trkpt lat="45.9157110" lon="10.2955820">
	<ele>991.20</ele>
	<time>2025-07-29T06:21:24.000Z</time>
</trkpt>
<trkpt lat="45.9157100" lon="10.2955780">
	<ele>991.40</ele>
	<time>2025-07-29T06:21:25.000Z</time>
</trkpt>
<trkpt lat="45.9157090" lon="10.2955790">
	<ele>991.60</ele>
	<time>2025-07-29T06:21:26.000Z</time>
</trkpt>
<trkpt lat="45.9157090" lon="10.2955780">
	<ele>991.80</ele>
	<time>2025-07-29T06:21:27.000Z</time>
</trkpt>
<trkpt lat="45.9157080" lon="10.2955770">
	<ele>991.80</ele>
	<time>2025-07-29T06:21:28.000Z</time>
</trkpt>
<trkpt lat="45.9156990" lon="10.2955830">
	<ele>992.00</ele>
	<time>2025-07-29T06:21:29.000Z</time>
</trkpt>
<trkpt lat="45.9156910" lon="10.2955790">
	<ele>992.40</ele>
	<time>2025-07-29T06:21:30.000Z</time>
</trkpt>
<trkpt lat="45.9156880" lon="10.2955760">
	<ele>992.60</ele>
	<time>2025-07-29T06:21:31.000Z</time>
</trkpt>
<trkpt lat="45.9156790" lon="10.2955690">
	<ele>992.60</ele>
	<time>2025-07-29T06:21:32.000Z</time>
</trkpt>
<trkpt lat="45.9156720" lon="10.2955600">
	<ele>992.80</ele>
	<time>2025-07-29T06:21:33.000Z</time>
</trkpt>
<trkpt lat="45.9156650" lon="10.2955550">
	<ele>993.00</ele>
	<time>2025-07-29T06:21:34.000Z</time>
</trkpt>
<trkpt lat="45.9156610" lon="10.2955510">
	<ele>993.20</ele>
	<time>2025-07-29T06:21:35.000Z</time>
</trkpt>
<trkpt lat="45.9156550" lon="10.2955470">
	<ele>993.40</ele>
	<time>2025-07-29T06:21:36.000Z</time>
</trkpt>
<trkpt lat="45.9156480" lon="10.2955400">
	<ele>993.40</ele>
	<time>2025-07-29T06:21:37.000Z</time>
</trkpt>
<trkpt lat="45.9156400" lon="10.2955340">
	<ele>993.60</ele>
	<time>2025-07-29T06:21:38.000Z</time>
</trkpt>
<trkpt lat="45.9156280" lon="10.2955300">
	<ele>993.80</ele>
	<time>2025-07-29T06:21:39.000Z</time>
</trkpt>
<trkpt lat="45.9156160" lon="10.2955270">
	<ele>994.00</ele>
	<time>2025-07-29T06:21:40.000Z</time>
</trkpt>
<trkpt lat="45.9156040" lon="10.2955230">
	<ele>994.00</ele>
	<time>2025-07-29T06:21:41.000Z</time>
</trkpt>
<trkpt lat="45.9155920" lon="10.2955240">
	<ele>994.20</ele>
	<time>2025-07-29T06:21:42.000Z</time>
</trkpt>
<trkpt lat="45.9155910" lon="10.2955250">
	<ele>994.60</ele>
	<time>2025-07-29T06:21:43.000Z</time>
</trkpt>
<trkpt lat="45.9155850" lon="10.2955250">
	<ele>994.60</ele>
	<time>2025-07-29T06:21:44.000Z</time>
</trkpt>
<trkpt lat="45.9155840" lon="10.2955320">
	<ele>994.80</ele>
	<time>2025-07-29T06:21:45.000Z</time>
</trkpt>
<trkpt lat="45.9155820" lon="10.2955340">
	<ele>995.00</ele>
	<time>2025-07-29T06:21:46.000Z</time>
</trkpt>
<trkpt lat="45.9155810" lon="10.2955320">
	<ele>995.00</ele>
	<time>2025-07-29T06:21:47.000Z</time>
</trkpt>
<trkpt lat="45.9155780" lon="10.2955320">
	<ele>995.20</ele>
	<time>2025-07-29T06:21:48.000Z</time>
</trkpt>
<trkpt lat="45.9155710" lon="10.2955350">
	<ele>995.60</ele>
	<time>2025-07-29T06:21:49.000Z</time>
</trkpt>
<trkpt lat="45.9155600" lon="10.2955390">
	<ele>995.60</ele>
	<time>2025-07-29T06:21:50.000Z</time>
</trkpt>
<trkpt lat="45.9155550" lon="10.2955370">
	<ele>995.80</ele>
	<time>2025-07-29T06:21:51.000Z</time>
</trkpt>
<trkpt lat="45.9155520" lon="10.2955370">
	<ele>995.80</ele>
	<time>2025-07-29T06:21:52.000Z</time>
</trkpt>
<trkpt lat="45.9155430" lon="10.2955300">
	<ele>996.00</ele>
	<time>2025-07-29T06:21:53.000Z</time>
</trkpt>
<trkpt lat="45.9155390" lon="10.2955260">
	<ele>996.20</ele>
	<time>2025-07-29T06:21:54.000Z</time>
</trkpt>
<trkpt lat="45.9155260" lon="10.2955240">
	<ele>996.40</ele>
	<time>2025-07-29T06:21:55.000Z</time>
</trkpt>
<trkpt lat="45.9155150" lon="10.2955140">
	<ele>996.60</ele>
	<time>2025-07-29T06:21:56.000Z</time>
</trkpt>
<trkpt lat="45.9155050" lon="10.2955080">
	<ele>996.80</ele>
	<time>2025-07-29T06:21:57.000Z</time>
</trkpt>
<trkpt lat="45.9155010" lon="10.2955010">
	<ele>997.00</ele>
	<time>2025-07-29T06:21:58.000Z</time>
</trkpt>
<trkpt lat="45.9154980" lon="10.2954990">
	<ele>997.20</ele>
	<time>2025-07-29T06:21:59.000Z</time>
</trkpt>
<trkpt lat="45.9154880" lon="10.2955030">
	<ele>997.40</ele>
	<time>2025-07-29T06:22:00.000Z</time>
</trkpt>
<trkpt lat="45.9154790" lon="10.2955010">
	<ele>997.40</ele>
	<time>2025-07-29T06:22:01.000Z</time>
</trkpt>
<trkpt lat="45.9154690" lon="10.2955000">
	<ele>997.60</ele>
	<time>2025-07-29T06:22:02.000Z</time>
</trkpt>
<trkpt lat="45.9154620" lon="10.2954980">
	<ele>997.80</ele>
	<time>2025-07-29T06:22:03.000Z</time>
</trkpt>
<trkpt lat="45.9154580" lon="10.2954960">
	<ele>998.20</ele>
	<time>2025-07-29T06:22:04.000Z</time>
</trkpt>
<trkpt lat="45.9154520" lon="10.2954970">
	<ele>998.40</ele>
	<time>2025-07-29T06:22:05.000Z</time>
</trkpt>
<trkpt lat="45.9154490" lon="10.2954980">
	<ele>998.80</ele>
	<time>2025-07-29T06:22:06.000Z</time>
</trkpt>
<trkpt lat="45.9154400" lon="10.2954980">
	<ele>999.20</ele>
	<time>2025-07-29T06:22:07.000Z</time>
</trkpt>
<trkpt lat="45.9154310" lon="10.2954960">
	<ele>999.40</ele>
	<time>2025-07-29T06:22:08.000Z</time>
</trkpt>
<trkpt lat="45.9154210" lon="10.2954960">
	<ele>999.40</ele>
	<time>2025-07-29T06:22:09.000Z</time>
</trkpt>
<trkpt lat="45.9154080" lon="10.2954940">
	<ele>999.60</ele>
	<time>2025-07-29T06:22:10.000Z</time>
</trkpt>
<trkpt lat="45.9154040" lon="10.2954930">
	<ele>999.60</ele>
	<time>2025-07-29T06:22:11.000Z</time>
</trkpt>
<trkpt lat="45.9153900" lon="10.2954910">
	<ele>1000.00</ele>
	<time>2025-07-29T06:22:12.000Z</time>
</trkpt>
<trkpt lat="45.9153740" lon="10.2954850">
	<ele>1000.20</ele>
	<time>2025-07-29T06:22:13.000Z</time>
</trkpt>
<trkpt lat="45.9153580" lon="10.2954850">
	<ele>1000.40</ele>
	<time>2025-07-29T06:22:14.000Z</time>
</trkpt>
<trkpt lat="45.9153480" lon="10.2954830">
	<ele>1000.60</ele>
	<time>2025-07-29T06:22:15.000Z</time>
</trkpt>
<trkpt lat="45.9153360" lon="10.2954750">
	<ele>1000.80</ele>
	<time>2025-07-29T06:22:16.000Z</time>
</trkpt>
<trkpt lat="45.9153290" lon="10.2954660">
	<ele>1001.20</ele>
	<time>2025-07-29T06:22:17.000Z</time>
</trkpt>
<trkpt lat="45.9153230" lon="10.2954580">
	<ele>1001.40</ele>
	<time>2025-07-29T06:22:18.000Z</time>
</trkpt>
<trkpt lat="45.9153170" lon="10.2954510">
	<ele>1001.60</ele>
	<time>2025-07-29T06:22:19.000Z</time>
</trkpt>
<trkpt lat="45.9153070" lon="10.2954460">
	<ele>1001.80</ele>
	<time>2025-07-29T06:22:20.000Z</time>
</trkpt>
<trkpt lat="45.9153010" lon="10.2954390">
	<ele>1002.00</ele>
	<time>2025-07-29T06:22:21.000Z</time>
</trkpt>
<trkpt lat="45.9152990" lon="10.2954340">
	<ele>1002.20</ele>
	<time>2025-07-29T06:22:22.000Z</time>
</trkpt>
<trkpt lat="45.9152780" lon="10.2954380">
	<ele>1002.40</ele>
	<time>2025-07-29T06:22:23.000Z</time>
</trkpt>
<trkpt lat="45.9152580" lon="10.2954430">
	<ele>1002.60</ele>
	<time>2025-07-29T06:22:24.000Z</time>
</trkpt>
<trkpt lat="45.9152540" lon="10.2954460">
	<ele>1003.00</ele>
	<time>2025-07-29T06:22:25.000Z</time>
</trkpt>
<trkpt lat="45.9152490" lon="10.2954450">
	<ele>1003.20</ele>
	<time>2025-07-29T06:22:26.000Z</time>
</trkpt>
<trkpt lat="45.9152520" lon="10.2954410">
	<ele>1003.20</ele>
	<time>2025-07-29T06:22:27.000Z</time>
</trkpt>
<trkpt lat="45.9152540" lon="10.2954390">
	<ele>1003.40</ele>
	<time>2025-07-29T06:22:28.000Z</time>
</trkpt>
<trkpt lat="45.9152520" lon="10.2954370">
	<ele>1003.60</ele>
	<time>2025-07-29T06:22:29.000Z</time>
</trkpt>
<trkpt lat="45.9152500" lon="10.2954360">
	<ele>1003.80</ele>
	<time>2025-07-29T06:22:30.000Z</time>
</trkpt>
<trkpt lat="45.9152330" lon="10.2954270">
	<ele>1004.20</ele>
	<time>2025-07-29T06:22:31.000Z</time>
</trkpt>
<trkpt lat="45.9152180" lon="10.2954270">
	<ele>1004.40</ele>
	<time>2025-07-29T06:22:32.000Z</time>
</trkpt>
<trkpt lat="45.9152040" lon="10.2954200">
	<ele>1004.60</ele>
	<time>2025-07-29T06:22:33.000Z</time>
</trkpt>
<trkpt lat="45.9151920" lon="10.2954160">
	<ele>1004.80</ele>
	<time>2025-07-29T06:22:34.000Z</time>
</trkpt>
<trkpt lat="45.9151840" lon="10.2954160">
	<ele>1004.80</ele>
	<time>2025-07-29T06:22:35.000Z</time>
</trkpt>
<trkpt lat="45.9151770" lon="10.2954180">
	<ele>1005.00</ele>
	<time>2025-07-29T06:22:36.000Z</time>
</trkpt>
<trkpt lat="45.9151700" lon="10.2954230">
	<ele>1005.40</ele>
	<time>2025-07-29T06:22:37.000Z</time>
</trkpt>
<trkpt lat="45.9151620" lon="10.2954280">
	<ele>1005.40</ele>
	<time>2025-07-29T06:22:38.000Z</time>
</trkpt>
<trkpt lat="45.9151490" lon="10.2954380">
	<ele>1005.60</ele>
	<time>2025-07-29T06:22:39.000Z</time>
</trkpt>
<trkpt lat="45.9151390" lon="10.2954460">
	<ele>1006.00</ele>
	<time>2025-07-29T06:22:40.000Z</time>
</trkpt>
<trkpt lat="45.9151250" lon="10.2954530">
	<ele>1006.00</ele>
	<time>2025-07-29T06:22:41.000Z</time>
</trkpt>
<trkpt lat="45.9151210" lon="10.2954540">
	<ele>1006.40</ele>
	<time>2025-07-29T06:22:42.000Z</time>
</trkpt>
<trkpt lat="45.9151080" lon="10.2954600">
	<ele>1006.40</ele>
	<time>2025-07-29T06:22:43.000Z</time>
</trkpt>
<trkpt lat="45.9151000" lon="10.2954700">
	<ele>1006.60</ele>
	<time>2025-07-29T06:22:44.000Z</time>
</trkpt>
<trkpt lat="45.9150950" lon="10.2954790">
	<ele>1006.80</ele>
	<time>2025-07-29T06:22:45.000Z</time>
</trkpt>
<trkpt lat="45.9150930" lon="10.2954820">
	<ele>1007.00</ele>
	<time>2025-07-29T06:22:46.000Z</time>
</trkpt>
<trkpt lat="45.9150960" lon="10.2954790">
	<ele>1007.00</ele>
	<time>2025-07-29T06:22:47.000Z</time>
</trkpt>
<trkpt lat="45.9150940" lon="10.2954770">
	<ele>1007.20</ele>
	<time>2025-07-29T06:22:48.000Z</time>
</trkpt>
<trkpt lat="45.9150930" lon="10.2954770">
	<ele>1007.20</ele>
	<time>2025-07-29T06:22:49.000Z</time>
</trkpt>
<trkpt lat="45.9150890" lon="10.2954770">
	<ele>1007.20</ele>
	<time>2025-07-29T06:22:50.000Z</time>
</trkpt>
<trkpt lat="45.9150900" lon="10.2954770">
	<ele>1007.20</ele>
	<time>2025-07-29T06:22:51.000Z</time>
</trkpt>
<trkpt lat="45.9150960" lon="10.2954830">
	<ele>1007.20</ele>
	<time>2025-07-29T06:22:52.000Z</time>
</trkpt>
<trkpt lat="45.9151000" lon="10.2954820">
	<ele>1007.20</ele>
	<time>2025-07-29T06:22:53.000Z</time>
</trkpt>
<trkpt lat="45.9150980" lon="10.2954670">
	<ele>1007.20</ele>
	<time>2025-07-29T06:22:54.000Z</time>
</trkpt>
<trkpt lat="45.9150900" lon="10.2954550">
	<ele>1007.40</ele>
	<time>2025-07-29T06:22:55.000Z</time>
</trkpt>
<trkpt lat="45.9150800" lon="10.2954430">
	<ele>1007.40</ele>
	<time>2025-07-29T06:22:56.000Z</time>
</trkpt>
<trkpt lat="45.9150740" lon="10.2954430">
	<ele>1007.40</ele>
	<time>2025-07-29T06:22:57.000Z</time>
</trkpt>
<trkpt lat="45.9150660" lon="10.2954360">
	<ele>1007.60</ele>
	<time>2025-07-29T06:22:58.000Z</time>
</trkpt>
<trkpt lat="45.9150630" lon="10.2954240">
	<ele>1007.80</ele>
	<time>2025-07-29T06:22:59.000Z</time>
</trkpt>
<trkpt lat="45.9150620" lon="10.2954180">
	<ele>1008.00</ele>
	<time>2025-07-29T06:23:00.000Z</time>
</trkpt>
<trkpt lat="45.9150570" lon="10.2954080">
	<ele>1008.40</ele>
	<time>2025-07-29T06:23:01.000Z</time>
</trkpt>
<trkpt lat="45.9150480" lon="10.2953930">
	<ele>1008.60</ele>
	<time>2025-07-29T06:23:02.000Z</time>
</trkpt>
<trkpt lat="45.9150350" lon="10.2953800">
	<ele>1008.80</ele>
	<time>2025-07-29T06:23:03.000Z</time>
</trkpt>
<trkpt lat="45.9150270" lon="10.2953760">
	<ele>1009.00</ele>
	<time>2025-07-29T06:23:04.000Z</time>
</trkpt>
<trkpt lat="45.9150190" lon="10.2953700">
	<ele>1009.20</ele>
	<time>2025-07-29T06:23:05.000Z</time>
</trkpt>
<trkpt lat="45.9150080" lon="10.2953590">
	<ele>1009.40</ele>
	<time>2025-07-29T06:23:06.000Z</time>
</trkpt>
<trkpt lat="45.9150030" lon="10.2953570">
	<ele>1009.80</ele>
	<time>2025-07-29T06:23:07.000Z</time>
</trkpt>
<trkpt lat="45.9149940" lon="10.2953390">
	<ele>1010.00</ele>
	<time>2025-07-29T06:23:08.000Z</time>
</trkpt>
<trkpt lat="45.9149900" lon="10.2953330">
	<ele>1010.00</ele>
	<time>2025-07-29T06:23:09.000Z</time>
</trkpt>
<trkpt lat="45.9149830" lon="10.2953190">
	<ele>1010.20</ele>
	<time>2025-07-29T06:23:10.000Z</time>
</trkpt>
<trkpt lat="45.9149720" lon="10.2953070">
	<ele>1010.40</ele>
	<time>2025-07-29T06:23:11.000Z</time>
</trkpt>
<trkpt lat="45.9149630" lon="10.2952980">
	<ele>1010.60</ele>
	<time>2025-07-29T06:23:12.000Z</time>
</trkpt>
<trkpt lat="45.9149520" lon="10.2952910">
	<ele>1010.80</ele>
	<time>2025-07-29T06:23:13.000Z</time>
</trkpt>
<trkpt lat="45.9149480" lon="10.2952880">
	<ele>1011.00</ele>
	<time>2025-07-29T06:23:14.000Z</time>
</trkpt>
<trkpt lat="45.9149460" lon="10.2952870">
	<ele>1011.20</ele>
	<time>2025-07-29T06:23:15.000Z</time>
</trkpt>
<trkpt lat="45.9149470" lon="10.2952840">
	<ele>1011.40</ele>
	<time>2025-07-29T06:23:16.000Z</time>
</trkpt>
<trkpt lat="45.9149470" lon="10.2952820">
	<ele>1011.60</ele>
	<time>2025-07-29T06:23:17.000Z</time>
</trkpt>
<trkpt lat="45.9149450" lon="10.2952800">
	<ele>1011.60</ele>
	<time>2025-07-29T06:23:18.000Z</time>
</trkpt>
<trkpt lat="45.9149420" lon="10.2952780">
	<ele>1011.80</ele>
	<time>2025-07-29T06:23:19.000Z</time>
</trkpt>
<trkpt lat="45.9149410" lon="10.2952780">
	<ele>1012.00</ele>
	<time>2025-07-29T06:23:20.000Z</time>
</trkpt>
<trkpt lat="45.9149340" lon="10.2952770">
	<ele>1012.20</ele>
	<time>2025-07-29T06:23:21.000Z</time>
</trkpt>
<trkpt lat="45.9149380" lon="10.2952670">
	<ele>1012.40</ele>
	<time>2025-07-29T06:23:22.000Z</time>
</trkpt>
<trkpt lat="45.9149300" lon="10.2952590">
	<ele>1012.60</ele>
	<time>2025-07-29T06:23:23.000Z</time>
</trkpt>
<trkpt lat="45.9149230" lon="10.2952450">
	<ele>1013.00</ele>
	<time>2025-07-29T06:23:24.000Z</time>
</trkpt>
<trkpt lat="45.9149210" lon="10.2952260">
	<ele>1013.20</ele>
	<time>2025-07-29T06:23:25.000Z</time>
</trkpt>
<trkpt lat="45.9149170" lon="10.2952210">
	<ele>1013.40</ele>
	<time>2025-07-29T06:23:26.000Z</time>
</trkpt>
<trkpt lat="45.9149220" lon="10.2952200">
	<ele>1013.40</ele>
	<time>2025-07-29T06:23:27.000Z</time>
</trkpt>
<trkpt lat="45.9149210" lon="10.2952150">
	<ele>1013.60</ele>
	<time>2025-07-29T06:23:28.000Z</time>
</trkpt>
<trkpt lat="45.9149180" lon="10.2952110">
	<ele>1013.80</ele>
	<time>2025-07-29T06:23:29.000Z</time>
</trkpt>
<trkpt lat="45.9149170" lon="10.2952080">
	<ele>1013.80</ele>
	<time>2025-07-29T06:23:30.000Z</time>
</trkpt>
<trkpt lat="45.9149080" lon="10.2952080">
	<ele>1014.00</ele>
	<time>2025-07-29T06:23:31.000Z</time>
</trkpt>
<trkpt lat="45.9148980" lon="10.2952110">
	<ele>1014.20</ele>
	<time>2025-07-29T06:23:32.000Z</time>
</trkpt>
<trkpt lat="45.9148960" lon="10.2952150">
	<ele>1014.40</ele>
	<time>2025-07-29T06:23:33.000Z</time>
</trkpt>
<trkpt lat="45.9148870" lon="10.2952070">
	<ele>1014.60</ele>
	<time>2025-07-29T06:23:34.000Z</time>
</trkpt>
<trkpt lat="45.9148870" lon="10.2952100">
	<ele>1014.80</ele>
	<time>2025-07-29T06:23:35.000Z</time>
</trkpt>
<trkpt lat="45.9148850" lon="10.2952100">
	<ele>1015.00</ele>
	<time>2025-07-29T06:23:36.000Z</time>
</trkpt>
<trkpt lat="45.9148860" lon="10.2952100">
	<ele>1015.00</ele>
	<time>2025-07-29T06:23:37.000Z</time>
</trkpt>
<trkpt lat="45.9148880" lon="10.2952100">
	<ele>1015.20</ele>
	<time>2025-07-29T06:23:38.000Z</time>
</trkpt>
<trkpt lat="45.9148900" lon="10.2952100">
	<ele>1015.20</ele>
	<time>2025-07-29T06:23:39.000Z</time>
</trkpt>
<trkpt lat="45.9148900" lon="10.2952080">
	<ele>1015.20</ele>
	<time>2025-07-29T06:23:40.000Z</time>
</trkpt>
<trkpt lat="45.9148760" lon="10.2951950">
	<ele>1015.20</ele>
	<time>2025-07-29T06:23:41.000Z</time>
</trkpt>
<trkpt lat="45.9148770" lon="10.2951920">
	<ele>1015.20</ele>
	<time>2025-07-29T06:23:42.000Z</time>
</trkpt>
<trkpt lat="45.9148780" lon="10.2951810">
	<ele>1015.20</ele>
	<time>2025-07-29T06:23:43.000Z</time>
</trkpt>
<trkpt lat="45.9148810" lon="10.2951710">
	<ele>1015.20</ele>
	<time>2025-07-29T06:23:44.000Z</time>
</trkpt>
<trkpt lat="45.9148870" lon="10.2951720">
	<ele>1015.20</ele>
	<time>2025-07-29T06:23:45.000Z</time>
</trkpt>
<trkpt lat="45.9148870" lon="10.2951710">
	<ele>1015.40</ele>
	<time>2025-07-29T06:23:46.000Z</time>
</trkpt>
<trkpt lat="45.9148900" lon="10.2951660">
	<ele>1015.60</ele>
	<time>2025-07-29T06:23:47.000Z</time>
</trkpt>
<trkpt lat="45.9148890" lon="10.2951530">
	<ele>1015.80</ele>
	<time>2025-07-29T06:23:48.000Z</time>
</trkpt>
<trkpt lat="45.9148850" lon="10.2951370">
	<ele>1016.00</ele>
	<time>2025-07-29T06:23:49.000Z</time>
</trkpt>
<trkpt lat="45.9148800" lon="10.2951240">
	<ele>1016.00</ele>
	<time>2025-07-29T06:23:50.000Z</time>
</trkpt>
<trkpt lat="45.9148740" lon="10.2951070">
	<ele>1016.20</ele>
	<time>2025-07-29T06:23:51.000Z</time>
</trkpt>
<trkpt lat="45.9148680" lon="10.2950810">
	<ele>1016.20</ele>
	<time>2025-07-29T06:23:52.000Z</time>
</trkpt>
<trkpt lat="45.9148640" lon="10.2950580">
	<ele>1016.20</ele>
	<time>2025-07-29T06:23:53.000Z</time>
</trkpt>
<trkpt lat="45.9148620" lon="10.2950440">
	<ele>1016.40</ele>
	<time>2025-07-29T06:23:54.000Z</time>
</trkpt>
<trkpt lat="45.9148570" lon="10.2950340">
	<ele>1016.60</ele>
	<time>2025-07-29T06:23:55.000Z</time>
</trkpt>
<trkpt lat="45.9148470" lon="10.2950370">
	<ele>1016.80</ele>
	<time>2025-07-29T06:23:56.000Z</time>
</trkpt>
<trkpt lat="45.9148340" lon="10.2950350">
	<ele>1017.00</ele>
	<time>2025-07-29T06:23:57.000Z</time>
</trkpt>
<trkpt lat="45.9148260" lon="10.2950260">
	<ele>1017.20</ele>
	<time>2025-07-29T06:23:58.000Z</time>
</trkpt>
<trkpt lat="45.9148210" lon="10.2950210">
	<ele>1017.20</ele>
	<time>2025-07-29T06:23:59.000Z</time>
</trkpt>
<trkpt lat="45.9148050" lon="10.2950090">
	<ele>1017.40</ele>
	<time>2025-07-29T06:24:00.000Z</time>
</trkpt>
<trkpt lat="45.9147900" lon="10.2949930">
	<ele>1017.40</ele>
	<time>2025-07-29T06:24:01.000Z</time>
</trkpt>
<trkpt lat="45.9147800" lon="10.2949720">
	<ele>1017.60</ele>
	<time>2025-07-29T06:24:02.000Z</time>
</trkpt>
<trkpt lat="45.9147670" lon="10.2949580">
	<ele>1017.80</ele>
	<time>2025-07-29T06:24:03.000Z</time>
</trkpt>
<trkpt lat="45.9147550" lon="10.2949540">
	<ele>1018.00</ele>
	<time>2025-07-29T06:24:04.000Z</time>
</trkpt>
<trkpt lat="45.9147440" lon="10.2949520">
	<ele>1018.20</ele>
	<time>2025-07-29T06:24:05.000Z</time>
</trkpt>
<trkpt lat="45.9147410" lon="10.2949510">
	<ele>1018.40</ele>
	<time>2025-07-29T06:24:06.000Z</time>
</trkpt>
<trkpt lat="45.9147340" lon="10.2949410">
	<ele>1018.40</ele>
	<time>2025-07-29T06:24:07.000Z</time>
</trkpt>
<trkpt lat="45.9147230" lon="10.2949300">
	<ele>1018.60</ele>
	<time>2025-07-29T06:24:08.000Z</time>
</trkpt>
<trkpt lat="45.9147100" lon="10.2949210">
	<ele>1018.60</ele>
	<time>2025-07-29T06:24:09.000Z</time>
</trkpt>
<trkpt lat="45.9146940" lon="10.2949010">
	<ele>1018.80</ele>
	<time>2025-07-29T06:24:10.000Z</time>
</trkpt>
<trkpt lat="45.9146810" lon="10.2948820">
	<ele>1019.00</ele>
	<time>2025-07-29T06:24:11.000Z</time>
</trkpt>
<trkpt lat="45.9146680" lon="10.2948600">
	<ele>1019.20</ele>
	<time>2025-07-29T06:24:12.000Z</time>
</trkpt>
<trkpt lat="45.9146530" lon="10.2948410">
	<ele>1019.40</ele>
	<time>2025-07-29T06:24:13.000Z</time>
</trkpt>
<trkpt lat="45.9146490" lon="10.2948370">
	<ele>1019.40</ele>
	<time>2025-07-29T06:24:14.000Z</time>
</trkpt>
<trkpt lat="45.9146390" lon="10.2948280">
	<ele>1019.60</ele>
	<time>2025-07-29T06:24:15.000Z</time>
</trkpt>
<trkpt lat="45.9146160" lon="10.2948270">
	<ele>1019.60</ele>
	<time>2025-07-29T06:24:16.000Z</time>
</trkpt>
<trkpt lat="45.9145970" lon="10.2948250">
	<ele>1019.80</ele>
	<time>2025-07-29T06:24:17.000Z</time>
</trkpt>
<trkpt lat="45.9145960" lon="10.2948240">
	<ele>1019.80</ele>
	<time>2025-07-29T06:24:18.000Z</time>
</trkpt>
<trkpt lat="45.9145960" lon="10.2948240">
	<ele>1020.00</ele>
	<time>2025-07-29T06:24:19.000Z</time>
</trkpt>
<trkpt lat="45.9145990" lon="10.2948270">
	<ele>1020.00</ele>
	<time>2025-07-29T06:24:20.000Z</time>
</trkpt>
<trkpt lat="45.9146020" lon="10.2948300">
	<ele>1020.00</ele>
	<time>2025-07-29T06:24:21.000Z</time>
</trkpt>
<trkpt lat="45.9146010" lon="10.2948300">
	<ele>1020.00</ele>
	<time>2025-07-29T06:24:22.000Z</time>
</trkpt>
<trkpt lat="45.9145990" lon="10.2948330">
	<ele>1020.00</ele>
	<time>2025-07-29T06:24:23.000Z</time>
</trkpt>
<trkpt lat="45.9145850" lon="10.2948300">
	<ele>1020.00</ele>
	<time>2025-07-29T06:24:24.000Z</time>
</trkpt>
<trkpt lat="45.9145820" lon="10.2948300">
	<ele>1020.00</ele>
	<time>2025-07-29T06:24:25.000Z</time>
</trkpt>
<trkpt lat="45.9145790" lon="10.2948320">
	<ele>1020.00</ele>
	<time>2025-07-29T06:24:26.000Z</time>
</trkpt>
<trkpt lat="45.9145700" lon="10.2948130">
	<ele>1020.20</ele>
	<time>2025-07-29T06:24:27.000Z</time>
</trkpt>
<trkpt lat="45.9145670" lon="10.2948060">
	<ele>1020.20</ele>
	<time>2025-07-29T06:24:28.000Z</time>
</trkpt>
<trkpt lat="45.9145650" lon="10.2948110">
	<ele>1020.20</ele>
	<time>2025-07-29T06:24:29.000Z</time>
</trkpt>
<trkpt lat="45.9145650" lon="10.2948120">
	<ele>1020.20</ele>
	<time>2025-07-29T06:24:30.000Z</time>
</trkpt>
<trkpt lat="45.9145640" lon="10.2948080">
	<ele>1020.20</ele>
	<time>2025-07-29T06:24:31.000Z</time>
</trkpt>
<trkpt lat="45.9145680" lon="10.2948040">
	<ele>1020.20</ele>
	<time>2025-07-29T06:24:32.000Z</time>
</trkpt>
<trkpt lat="45.9145640" lon="10.2947990">
	<ele>1020.20</ele>
	<time>2025-07-29T06:24:33.000Z</time>
</trkpt>
<trkpt lat="45.9145540" lon="10.2947930">
	<ele>1020.20</ele>
	<time>2025-07-29T06:24:34.000Z</time>
</trkpt>
<trkpt lat="45.9145460" lon="10.2947930">
	<ele>1020.20</ele>
	<time>2025-07-29T06:24:35.000Z</time>
</trkpt>
<trkpt lat="45.9145450" lon="10.2947890">
	<ele>1020.20</ele>
	<time>2025-07-29T06:24:36.000Z</time>
</trkpt>
<trkpt lat="45.9145500" lon="10.2947870">
	<ele>1020.40</ele>
	<time>2025-07-29T06:24:37.000Z</time>
</trkpt>
<trkpt lat="45.9145500" lon="10.2947850">
	<ele>1020.40</ele>
	<time>2025-07-29T06:24:38.000Z</time>
</trkpt>
<trkpt lat="45.9145490" lon="10.2947840">
	<ele>1020.20</ele>
	<time>2025-07-29T06:24:39.000Z</time>
</trkpt>
<trkpt lat="45.9145480" lon="10.2947820">
	<ele>1020.00</ele>
	<time>2025-07-29T06:24:40.000Z</time>
</trkpt>
<trkpt lat="45.9145500" lon="10.2947810">
	<ele>1020.00</ele>
	<time>2025-07-29T06:24:41.000Z</time>
</trkpt>
<trkpt lat="45.9145490" lon="10.2947820">
	<ele>1020.00</ele>
	<time>2025-07-29T06:24:42.000Z</time>
</trkpt>
<trkpt lat="45.9145500" lon="10.2947800">
	<ele>1019.80</ele>
	<time>2025-07-29T06:24:43.000Z</time>
</trkpt>
<trkpt lat="45.9145450" lon="10.2947810">
	<ele>1019.80</ele>
	<time>2025-07-29T06:24:44.000Z</time>
</trkpt>
<trkpt lat="45.9145410" lon="10.2947800">
	<ele>1020.00</ele>
	<time>2025-07-29T06:24:45.000Z</time>
</trkpt>
<trkpt lat="45.9145380" lon="10.2947720">
	<ele>1020.00</ele>
	<time>2025-07-29T06:24:46.000Z</time>
</trkpt>
<trkpt lat="45.9145350" lon="10.2947620">
	<ele>1020.20</ele>
	<time>2025-07-29T06:24:47.000Z</time>
</trkpt>
<trkpt lat="45.9145220" lon="10.2947480">
	<ele>1020.20</ele>
	<time>2025-07-29T06:24:48.000Z</time>
</trkpt>
<trkpt lat="45.9145110" lon="10.2947420">
	<ele>1020.40</ele>
	<time>2025-07-29T06:24:49.000Z</time>
</trkpt>
<trkpt lat="45.9145100" lon="10.2947300">
	<ele>1020.60</ele>
	<time>2025-07-29T06:24:50.000Z</time>
</trkpt>
<trkpt lat="45.9145090" lon="10.2947250">
	<ele>1020.80</ele>
	<time>2025-07-29T06:24:51.000Z</time>
</trkpt>
<trkpt lat="45.9145030" lon="10.2947220">
	<ele>1021.00</ele>
	<time>2025-07-29T06:24:52.000Z</time>
</trkpt>
<trkpt lat="45.9144980" lon="10.2947180">
	<ele>1021.20</ele>
	<time>2025-07-29T06:24:53.000Z</time>
</trkpt>
<trkpt lat="45.9144920" lon="10.2947070">
	<ele>1021.20</ele>
	<time>2025-07-29T06:24:54.000Z</time>
</trkpt>
<trkpt lat="45.9144840" lon="10.2947020">
	<ele>1021.60</ele>
	<time>2025-07-29T06:24:55.000Z</time>
</trkpt>
<trkpt lat="45.9144800" lon="10.2946970">
	<ele>1021.60</ele>
	<time>2025-07-29T06:24:56.000Z</time>
</trkpt>
<trkpt lat="45.9144760" lon="10.2946900">
	<ele>1022.00</ele>
	<time>2025-07-29T06:24:57.000Z</time>
</trkpt>
<trkpt lat="45.9144770" lon="10.2946810">
	<ele>1022.20</ele>
	<time>2025-07-29T06:24:58.000Z</time>
</trkpt>
<trkpt lat="45.9144800" lon="10.2946740">
	<ele>1022.40</ele>
	<time>2025-07-29T06:24:59.000Z</time>
</trkpt>
<trkpt lat="45.9144830" lon="10.2946660">
	<ele>1022.60</ele>
	<time>2025-07-29T06:25:00.000Z</time>
</trkpt>
<trkpt lat="45.9144740" lon="10.2946620">
	<ele>1022.80</ele>
	<time>2025-07-29T06:25:01.000Z</time>
</trkpt>
<trkpt lat="45.9144640" lon="10.2946580">
	<ele>1023.20</ele>
	<time>2025-07-29T06:25:02.000Z</time>
</trkpt>
<trkpt lat="45.9144600" lon="10.2946510">
	<ele>1023.40</ele>
	<time>2025-07-29T06:25:03.000Z</time>
</trkpt>
<trkpt lat="45.9144560" lon="10.2946310">
	<ele>1023.60</ele>
	<time>2025-07-29T06:25:04.000Z</time>
</trkpt>
<trkpt lat="45.9144460" lon="10.2946120">
	<ele>1023.60</ele>
	<time>2025-07-29T06:25:05.000Z</time>
</trkpt>
<trkpt lat="45.9144360" lon="10.2946010">
	<ele>1024.00</ele>
	<time>2025-07-29T06:25:06.000Z</time>
</trkpt>
<trkpt lat="45.9144290" lon="10.2945830">
	<ele>1024.20</ele>
	<time>2025-07-29T06:25:07.000Z</time>
</trkpt>
<trkpt lat="45.9144180" lon="10.2945780">
	<ele>1024.40</ele>
	<time>2025-07-29T06:25:08.000Z</time>
</trkpt>
<trkpt lat="45.9144080" lon="10.2945840">
	<ele>1024.60</ele>
	<time>2025-07-29T06:25:09.000Z</time>
</trkpt>
<trkpt lat="45.9143930" lon="10.2945880">
	<ele>1024.80</ele>
	<time>2025-07-29T06:25:10.000Z</time>
</trkpt>
<trkpt lat="45.9143820" lon="10.2945880">
	<ele>1025.00</ele>
	<time>2025-07-29T06:25:11.000Z</time>
</trkpt>
<trkpt lat="45.9143710" lon="10.2945900">
	<ele>1025.20</ele>
	<time>2025-07-29T06:25:12.000Z</time>
</trkpt>
<trkpt lat="45.9143630" lon="10.2945790">
	<ele>1025.40</ele>
	<time>2025-07-29T06:25:13.000Z</time>
</trkpt>
<trkpt lat="45.9143550" lon="10.2945710">
	<ele>1025.60</ele>
	<time>2025-07-29T06:25:14.000Z</time>
</trkpt>
<trkpt lat="45.9143470" lon="10.2945590">
	<ele>1025.80</ele>
	<time>2025-07-29T06:25:15.000Z</time>
</trkpt>
<trkpt lat="45.9143420" lon="10.2945470">
	<ele>1025.80</ele>
	<time>2025-07-29T06:25:16.000Z</time>
</trkpt>
<trkpt lat="45.9143400" lon="10.2945350">
	<ele>1026.00</ele>
	<time>2025-07-29T06:25:17.000Z</time>
</trkpt>
<trkpt lat="45.9143340" lon="10.2945310">
	<ele>1026.20</ele>
	<time>2025-07-29T06:25:18.000Z</time>
</trkpt>
<trkpt lat="45.9143320" lon="10.2945310">
	<ele>1026.40</ele>
	<time>2025-07-29T06:25:19.000Z</time>
</trkpt>
<trkpt lat="45.9143340" lon="10.2945310">
	<ele>1026.60</ele>
	<time>2025-07-29T06:25:20.000Z</time>
</trkpt>
<trkpt lat="45.9143320" lon="10.2945320">
	<ele>1026.60</ele>
	<time>2025-07-29T06:25:21.000Z</time>
</trkpt>
<trkpt lat="45.9143290" lon="10.2945290">
	<ele>1026.80</ele>
	<time>2025-07-29T06:25:22.000Z</time>
</trkpt>
<trkpt lat="45.9143240" lon="10.2945150">
	<ele>1027.20</ele>
	<time>2025-07-29T06:25:23.000Z</time>
</trkpt>
<trkpt lat="45.9143170" lon="10.2945030">
	<ele>1027.40</ele>
	<time>2025-07-29T06:25:24.000Z</time>
</trkpt>
<trkpt lat="45.9143130" lon="10.2944920">
	<ele>1027.60</ele>
	<time>2025-07-29T06:25:25.000Z</time>
</trkpt>
<trkpt lat="45.9143100" lon="10.2944800">
	<ele>1027.80</ele>
	<time>2025-07-29T06:25:26.000Z</time>
</trkpt>
<trkpt lat="45.9143080" lon="10.2944790">
	<ele>1028.00</ele>
	<time>2025-07-29T06:25:27.000Z</time>
</trkpt>
<trkpt lat="45.9143060" lon="10.2944820">
	<ele>1028.00</ele>
	<time>2025-07-29T06:25:28.000Z</time>
</trkpt>
<trkpt lat="45.9143000" lon="10.2944830">
	<ele>1028.20</ele>
	<time>2025-07-29T06:25:29.000Z</time>
</trkpt>
<trkpt lat="45.9142990" lon="10.2944810">
	<ele>1028.20</ele>
	<time>2025-07-29T06:25:30.000Z</time>
</trkpt>
<trkpt lat="45.9142960" lon="10.2944750">
	<ele>1028.60</ele>
	<time>2025-07-29T06:25:31.000Z</time>
</trkpt>
<trkpt lat="45.9142910" lon="10.2944750">
	<ele>1028.60</ele>
	<time>2025-07-29T06:25:32.000Z</time>
</trkpt>
<trkpt lat="45.9142840" lon="10.2944740">
	<ele>1028.80</ele>
	<time>2025-07-29T06:25:33.000Z</time>
</trkpt>
<trkpt lat="45.9142820" lon="10.2944710">
	<ele>1029.00</ele>
	<time>2025-07-29T06:25:34.000Z</time>
</trkpt>
<trkpt lat="45.9142810" lon="10.2944660">
	<ele>1029.20</ele>
	<time>2025-07-29T06:25:35.000Z</time>
</trkpt>
<trkpt lat="45.9142760" lon="10.2944680">
	<ele>1029.40</ele>
	<time>2025-07-29T06:25:36.000Z</time>
</trkpt>
<trkpt lat="45.9142670" lon="10.2944630">
	<ele>1029.60</ele>
	<time>2025-07-29T06:25:37.000Z</time>
</trkpt>
<trkpt lat="45.9142590" lon="10.2944580">
	<ele>1029.80</ele>
	<time>2025-07-29T06:25:38.000Z</time>
</trkpt>
<trkpt lat="45.9142530" lon="10.2944520">
	<ele>1030.00</ele>
	<time>2025-07-29T06:25:39.000Z</time>
</trkpt>
<trkpt lat="45.9142370" lon="10.2944540">
	<ele>1030.20</ele>
	<time>2025-07-29T06:25:40.000Z</time>
</trkpt>
<trkpt lat="45.9142240" lon="10.2944540">
	<ele>1030.40</ele>
	<time>2025-07-29T06:25:41.000Z</time>
</trkpt>
<trkpt lat="45.9142160" lon="10.2944490">
	<ele>1030.60</ele>
	<time>2025-07-29T06:25:42.000Z</time>
</trkpt>
<trkpt lat="45.9142050" lon="10.2944510">
	<ele>1030.80</ele>
	<time>2025-07-29T06:25:43.000Z</time>
</trkpt>
<trkpt lat="45.9141980" lon="10.2944490">
	<ele>1031.20</ele>
	<time>2025-07-29T06:25:44.000Z</time>
</trkpt>
<trkpt lat="45.9141780" lon="10.2944380">
	<ele>1031.40</ele>
	<time>2025-07-29T06:25:45.000Z</time>
</trkpt>
<trkpt lat="45.9141590" lon="10.2944220">
	<ele>1031.60</ele>
	<time>2025-07-29T06:25:46.000Z</time>
</trkpt>
<trkpt lat="45.9141400" lon="10.2944210">
	<ele>1031.80</ele>
	<time>2025-07-29T06:25:47.000Z</time>
</trkpt>
<trkpt lat="45.9141230" lon="10.2944260">
	<ele>1032.00</ele>
	<time>2025-07-29T06:25:48.000Z</time>
</trkpt>
<trkpt lat="45.9141060" lon="10.2944320">
	<ele>1032.40</ele>
	<time>2025-07-29T06:25:49.000Z</time>
</trkpt>
<trkpt lat="45.9140920" lon="10.2944360">
	<ele>1032.60</ele>
	<time>2025-07-29T06:25:50.000Z</time>
</trkpt>
<trkpt lat="45.9140800" lon="10.2944410">
	<ele>1032.80</ele>
	<time>2025-07-29T06:25:51.000Z</time>
</trkpt>
<trkpt lat="45.9140730" lon="10.2944500">
	<ele>1032.80</ele>
	<time>2025-07-29T06:25:52.000Z</time>
</trkpt>
<trkpt lat="45.9140670" lon="10.2944540">
	<ele>1033.00</ele>
	<time>2025-07-29T06:25:53.000Z</time>
</trkpt>
<trkpt lat="45.9140640" lon="10.2944580">
	<ele>1033.20</ele>
	<time>2025-07-29T06:25:54.000Z</time>
</trkpt>
<trkpt lat="45.9140700" lon="10.2944730">
	<ele>1033.40</ele>
	<time>2025-07-29T06:25:55.000Z</time>
</trkpt>
<trkpt lat="45.9140680" lon="10.2944900">
	<ele>1033.60</ele>
	<time>2025-07-29T06:25:56.000Z</time>
</trkpt>
<trkpt lat="45.9140640" lon="10.2944970">
	<ele>1033.60</ele>
	<time>2025-07-29T06:25:57.000Z</time>
</trkpt>
<trkpt lat="45.9140580" lon="10.2945030">
	<ele>1033.80</ele>
	<time>2025-07-29T06:25:58.000Z</time>
</trkpt>
<trkpt lat="45.9140490" lon="10.2945060">
	<ele>1034.20</ele>
	<time>2025-07-29T06:25:59.000Z</time>
</trkpt>
<trkpt lat="45.9140470" lon="10.2945120">
	<ele>1034.40</ele>
	<time>2025-07-29T06:26:00.000Z</time>
</trkpt>
<trkpt lat="45.9140420" lon="10.2945070">
	<ele>1034.60</ele>
	<time>2025-07-29T06:26:01.000Z</time>
</trkpt>
<trkpt lat="45.9140300" lon="10.2945170">
	<ele>1034.80</ele>
	<time>2025-07-29T06:26:02.000Z</time>
</trkpt>
<trkpt lat="45.9140170" lon="10.2945200">
	<ele>1035.00</ele>
	<time>2025-07-29T06:26:03.000Z</time>
</trkpt>
<trkpt lat="45.9140060" lon="10.2945210">
	<ele>1035.20</ele>
	<time>2025-07-29T06:26:04.000Z</time>
</trkpt>
<trkpt lat="45.9139970" lon="10.2945240">
	<ele>1035.60</ele>
	<time>2025-07-29T06:26:05.000Z</time>
</trkpt>
<trkpt lat="45.9139870" lon="10.2945270">
	<ele>1035.80</ele>
	<time>2025-07-29T06:26:06.000Z</time>
</trkpt>
<trkpt lat="45.9139790" lon="10.2945260">
	<ele>1036.00</ele>
	<time>2025-07-29T06:26:07.000Z</time>
</trkpt>
<trkpt lat="45.9139750" lon="10.2945220">
	<ele>1036.20</ele>
	<time>2025-07-29T06:26:08.000Z</time>
</trkpt>
<trkpt lat="45.9139710" lon="10.2945190">
	<ele>1036.40</ele>
	<time>2025-07-29T06:26:09.000Z</time>
</trkpt>
<trkpt lat="45.9139650" lon="10.2945200">
	<ele>1036.60</ele>
	<time>2025-07-29T06:26:10.000Z</time>
</trkpt>
<trkpt lat="45.9139600" lon="10.2945170">
	<ele>1036.80</ele>
	<time>2025-07-29T06:26:11.000Z</time>
</trkpt>
<trkpt lat="45.9139570" lon="10.2945080">
	<ele>1037.00</ele>
	<time>2025-07-29T06:26:12.000Z</time>
</trkpt>
<trkpt lat="45.9139510" lon="10.2944960">
	<ele>1037.00</ele>
	<time>2025-07-29T06:26:13.000Z</time>
</trkpt>
<trkpt lat="45.9139450" lon="10.2944890">
	<ele>1037.20</ele>
	<time>2025-07-29T06:26:14.000Z</time>
</trkpt>
<trkpt lat="45.9139380" lon="10.2944940">
	<ele>1037.40</ele>
	<time>2025-07-29T06:26:15.000Z</time>
</trkpt>
<trkpt lat="45.9139300" lon="10.2944970">
	<ele>1037.60</ele>
	<time>2025-07-29T06:26:16.000Z</time>
</trkpt>
<trkpt lat="45.9139220" lon="10.2945030">
	<ele>1037.80</ele>
	<time>2025-07-29T06:26:17.000Z</time>
</trkpt>
<trkpt lat="45.9139120" lon="10.2945320">
	<ele>1038.00</ele>
	<time>2025-07-29T06:26:18.000Z</time>
</trkpt>
<trkpt lat="45.9138980" lon="10.2945590">
	<ele>1038.20</ele>
	<time>2025-07-29T06:26:19.000Z</time>
</trkpt>
<trkpt lat="45.9138740" lon="10.2945920">
	<ele>1038.40</ele>
	<time>2025-07-29T06:26:20.000Z</time>
</trkpt>
<trkpt lat="45.9138630" lon="10.2945980">
	<ele>1038.60</ele>
	<time>2025-07-29T06:26:21.000Z</time>
</trkpt>
<trkpt lat="45.9138570" lon="10.2945940">
	<ele>1038.80</ele>
	<time>2025-07-29T06:26:22.000Z</time>
</trkpt>
<trkpt lat="45.9138520" lon="10.2945930">
	<ele>1039.00</ele>
	<time>2025-07-29T06:26:23.000Z</time>
</trkpt>
<trkpt lat="45.9138480" lon="10.2945740">
	<ele>1039.20</ele>
	<time>2025-07-29T06:26:24.000Z</time>
</trkpt>
<trkpt lat="45.9138450" lon="10.2945750">
	<ele>1039.20</ele>
	<time>2025-07-29T06:26:25.000Z</time>
</trkpt>
<trkpt lat="45.9138370" lon="10.2945750">
	<ele>1039.40</ele>
	<time>2025-07-29T06:26:26.000Z</time>
</trkpt>
<trkpt lat="45.9138200" lon="10.2945760">
	<ele>1039.60</ele>
	<time>2025-07-29T06:26:27.000Z</time>
</trkpt>
<trkpt lat="45.9138080" lon="10.2945820">
	<ele>1039.60</ele>
	<time>2025-07-29T06:26:28.000Z</time>
</trkpt>
<trkpt lat="45.9138030" lon="10.2945860">
	<ele>1039.80</ele>
	<time>2025-07-29T06:26:29.000Z</time>
</trkpt>
<trkpt lat="45.9137990" lon="10.2946030">
	<ele>1040.00</ele>
	<time>2025-07-29T06:26:30.000Z</time>
</trkpt>
<trkpt lat="45.9137950" lon="10.2946080">
	<ele>1040.20</ele>
	<time>2025-07-29T06:26:31.000Z</time>
</trkpt>
<trkpt lat="45.9137910" lon="10.2946180">
	<ele>1040.20</ele>
	<time>2025-07-29T06:26:32.000Z</time>
</trkpt>
<trkpt lat="45.9137950" lon="10.2946210">
	<ele>1040.20</ele>
	<time>2025-07-29T06:26:33.000Z</time>
</trkpt>
<trkpt lat="45.9137880" lon="10.2946220">
	<ele>1040.20</ele>
	<time>2025-07-29T06:26:34.000Z</time>
</trkpt>
<trkpt lat="45.9137830" lon="10.2946210">
	<ele>1040.40</ele>
	<time>2025-07-29T06:26:35.000Z</time>
</trkpt>
<trkpt lat="45.9137730" lon="10.2946170">
	<ele>1040.40</ele>
	<time>2025-07-29T06:26:36.000Z</time>
</trkpt>
<trkpt lat="45.9137590" lon="10.2946140">
	<ele>1040.40</ele>
	<time>2025-07-29T06:26:37.000Z</time>
</trkpt>
<trkpt lat="45.9137430" lon="10.2946080">
	<ele>1040.60</ele>
	<time>2025-07-29T06:26:38.000Z</time>
</trkpt>
<trkpt lat="45.9137370" lon="10.2946100">
	<ele>1040.60</ele>
	<time>2025-07-29T06:26:39.000Z</time>
</trkpt>
<trkpt lat="45.9137270" lon="10.2946120">
	<ele>1040.80</ele>
	<time>2025-07-29T06:26:40.000Z</time>
</trkpt>
<trkpt lat="45.9137260" lon="10.2946050">
	<ele>1040.80</ele>
	<time>2025-07-29T06:26:41.000Z</time>
</trkpt>
<trkpt lat="45.9137280" lon="10.2945930">
	<ele>1041.00</ele>
	<time>2025-07-29T06:26:42.000Z</time>
</trkpt>
<trkpt lat="45.9137210" lon="10.2945830">
	<ele>1041.00</ele>
	<time>2025-07-29T06:26:43.000Z</time>
</trkpt>
<trkpt lat="45.9137150" lon="10.2945820">
	<ele>1041.00</ele>
	<time>2025-07-29T06:26:44.000Z</time>
</trkpt>
<trkpt lat="45.9137100" lon="10.2945800">
	<ele>1041.00</ele>
	<time>2025-07-29T06:26:45.000Z</time>
</trkpt>
<trkpt lat="45.9137080" lon="10.2945780">
	<ele>1041.00</ele>
	<time>2025-07-29T06:26:46.000Z</time>
</trkpt>
<trkpt lat="45.9137080" lon="10.2945770">
	<ele>1041.00</ele>
	<time>2025-07-29T06:26:47.000Z</time>
</trkpt>
<trkpt lat="45.9137080" lon="10.2945770">
	<ele>1041.00</ele>
	<time>2025-07-29T06:26:48.000Z</time>
</trkpt>
<trkpt lat="45.9137110" lon="10.2945750">
	<ele>1041.00</ele>
	<time>2025-07-29T06:26:49.000Z</time>
</trkpt>
<trkpt lat="45.9137120" lon="10.2945690">
	<ele>1041.00</ele>
	<time>2025-07-29T06:26:50.000Z</time>
</trkpt>
<trkpt lat="45.9137140" lon="10.2945650">
	<ele>1041.00</ele>
	<time>2025-07-29T06:26:51.000Z</time>
</trkpt>
<trkpt lat="45.9137150" lon="10.2945650">
	<ele>1041.00</ele>
	<time>2025-07-29T06:26:52.000Z</time>
</trkpt>
<trkpt lat="45.9137150" lon="10.2945660">
	<ele>1041.00</ele>
	<time>2025-07-29T06:26:53.000Z</time>
</trkpt>
<trkpt lat="45.9137040" lon="10.2945610">
	<ele>1041.00</ele>
	<time>2025-07-29T06:26:54.000Z</time>
</trkpt>
<trkpt lat="45.9136990" lon="10.2945570">
	<ele>1041.20</ele>
	<time>2025-07-29T06:26:55.000Z</time>
</trkpt>
<trkpt lat="45.9136980" lon="10.2945540">
	<ele>1041.20</ele>
	<time>2025-07-29T06:26:56.000Z</time>
</trkpt>
<trkpt lat="45.9136910" lon="10.2945590">
	<ele>1041.20</ele>
	<time>2025-07-29T06:26:57.000Z</time>
</trkpt>
<trkpt lat="45.9136840" lon="10.2945640">
	<ele>1041.20</ele>
	<time>2025-07-29T06:26:58.000Z</time>
</trkpt>
<trkpt lat="45.9136810" lon="10.2945710">
	<ele>1041.40</ele>
	<time>2025-07-29T06:26:59.000Z</time>
</trkpt>
<trkpt lat="45.9136750" lon="10.2945710">
	<ele>1041.40</ele>
	<time>2025-07-29T06:27:00.000Z</time>
</trkpt>
<trkpt lat="45.9136680" lon="10.2945680">
	<ele>1041.20</ele>
	<time>2025-07-29T06:27:01.000Z</time>
</trkpt>
<trkpt lat="45.9136620" lon="10.2945620">
	<ele>1041.20</ele>
	<time>2025-07-29T06:27:02.000Z</time>
</trkpt>
<trkpt lat="45.9136500" lon="10.2945590">
	<ele>1041.40</ele>
	<time>2025-07-29T06:27:03.000Z</time>
</trkpt>
<trkpt lat="45.9136370" lon="10.2945550">
	<ele>1041.40</ele>
	<time>2025-07-29T06:27:04.000Z</time>
</trkpt>
<trkpt lat="45.9136290" lon="10.2945540">
	<ele>1041.40</ele>
	<time>2025-07-29T06:27:05.000Z</time>
</trkpt>
<trkpt lat="45.9136190" lon="10.2945490">
	<ele>1041.60</ele>
	<time>2025-07-29T06:27:06.000Z</time>
</trkpt>
<trkpt lat="45.9136130" lon="10.2945490">
	<ele>1041.60</ele>
	<time>2025-07-29T06:27:07.000Z</time>
</trkpt>
<trkpt lat="45.9136160" lon="10.2945480">
	<ele>1041.60</ele>
	<time>2025-07-29T06:27:08.000Z</time>
</trkpt>
<trkpt lat="45.9136130" lon="10.2945510">
	<ele>1041.80</ele>
	<time>2025-07-29T06:27:09.000Z</time>
</trkpt>
<trkpt lat="45.9136000" lon="10.2945540">
	<ele>1041.80</ele>
	<time>2025-07-29T06:27:10.000Z</time>
</trkpt>
<trkpt lat="45.9135850" lon="10.2945530">
	<ele>1042.00</ele>
	<time>2025-07-29T06:27:11.000Z</time>
</trkpt>
<trkpt lat="45.9135740" lon="10.2945490">
	<ele>1042.00</ele>
	<time>2025-07-29T06:27:12.000Z</time>
</trkpt>
<trkpt lat="45.9135650" lon="10.2945450">
	<ele>1042.20</ele>
	<time>2025-07-29T06:27:13.000Z</time>
</trkpt>
<trkpt lat="45.9135540" lon="10.2945400">
	<ele>1042.20</ele>
	<time>2025-07-29T06:27:14.000Z</time>
</trkpt>
<trkpt lat="45.9135380" lon="10.2945320">
	<ele>1042.40</ele>
	<time>2025-07-29T06:27:15.000Z</time>
</trkpt>
<trkpt lat="45.9135250" lon="10.2945240">
	<ele>1042.60</ele>
	<time>2025-07-29T06:27:16.000Z</time>
</trkpt>
<trkpt lat="45.9135130" lon="10.2945200">
	<ele>1042.60</ele>
	<time>2025-07-29T06:27:17.000Z</time>
</trkpt>
<trkpt lat="45.9134980" lon="10.2945090">
	<ele>1042.80</ele>
	<time>2025-07-29T06:27:18.000Z</time>
</trkpt>
<trkpt lat="45.9134810" lon="10.2945020">
	<ele>1043.00</ele>
	<time>2025-07-29T06:27:19.000Z</time>
</trkpt>
<trkpt lat="45.9134730" lon="10.2944920">
	<ele>1043.20</ele>
	<time>2025-07-29T06:27:20.000Z</time>
</trkpt>
<trkpt lat="45.9134640" lon="10.2944920">
	<ele>1043.40</ele>
	<time>2025-07-29T06:27:21.000Z</time>
</trkpt>
<trkpt lat="45.9134610" lon="10.2944920">
	<ele>1043.60</ele>
	<time>2025-07-29T06:27:22.000Z</time>
</trkpt>
<trkpt lat="45.9134540" lon="10.2944950">
	<ele>1043.80</ele>
	<time>2025-07-29T06:27:23.000Z</time>
</trkpt>
<trkpt lat="45.9134430" lon="10.2945000">
	<ele>1044.00</ele>
	<time>2025-07-29T06:27:24.000Z</time>
</trkpt>
<trkpt lat="45.9134280" lon="10.2945000">
	<ele>1044.20</ele>
	<time>2025-07-29T06:27:25.000Z</time>
</trkpt>
<trkpt lat="45.9134260" lon="10.2944990">
	<ele>1044.40</ele>
	<time>2025-07-29T06:27:26.000Z</time>
</trkpt>
<trkpt lat="45.9134080" lon="10.2945030">
	<ele>1044.60</ele>
	<time>2025-07-29T06:27:27.000Z</time>
</trkpt>
<trkpt lat="45.9133910" lon="10.2945020">
	<ele>1044.80</ele>
	<time>2025-07-29T06:27:28.000Z</time>
</trkpt>
<trkpt lat="45.9133780" lon="10.2944890">
	<ele>1045.00</ele>
	<time>2025-07-29T06:27:29.000Z</time>
</trkpt>
<trkpt lat="45.9133670" lon="10.2944810">
	<ele>1045.40</ele>
	<time>2025-07-29T06:27:30.000Z</time>
</trkpt>
<trkpt lat="45.9133610" lon="10.2944730">
	<ele>1045.60</ele>
	<time>2025-07-29T06:27:31.000Z</time>
</trkpt>
<trkpt lat="45.9133540" lon="10.2944670">
	<ele>1045.80</ele>
	<time>2025-07-29T06:27:32.000Z</time>
</trkpt>
<trkpt lat="45.9133420" lon="10.2944680">
	<ele>1045.80</ele>
	<time>2025-07-29T06:27:33.000Z</time>
</trkpt>
<trkpt lat="45.9133280" lon="10.2944720">
	<ele>1046.20</ele>
	<time>2025-07-29T06:27:34.000Z</time>
</trkpt>
<trkpt lat="45.9133260" lon="10.2944740">
	<ele>1046.20</ele>
	<time>2025-07-29T06:27:35.000Z</time>
</trkpt>
<trkpt lat="45.9133170" lon="10.2944650">
	<ele>1046.60</ele>
	<time>2025-07-29T06:27:36.000Z</time>
</trkpt>
<trkpt lat="45.9133060" lon="10.2944560">
	<ele>1046.80</ele>
	<time>2025-07-29T06:27:37.000Z</time>
</trkpt>
<trkpt lat="45.9132980" lon="10.2944540">
	<ele>1046.80</ele>
	<time>2025-07-29T06:27:38.000Z</time>
</trkpt>
<trkpt lat="45.9132910" lon="10.2944510">
	<ele>1047.20</ele>
	<time>2025-07-29T06:27:39.000Z</time>
</trkpt>
<trkpt lat="45.9132930" lon="10.2944400">
	<ele>1047.20</ele>
	<time>2025-07-29T06:27:40.000Z</time>
</trkpt>
<trkpt lat="45.9132870" lon="10.2944450">
	<ele>1047.60</ele>
	<time>2025-07-29T06:27:41.000Z</time>
</trkpt>
<trkpt lat="45.9132800" lon="10.2944530">
	<ele>1047.80</ele>
	<time>2025-07-29T06:27:42.000Z</time>
</trkpt>
<trkpt lat="45.9132770" lon="10.2944510">
	<ele>1048.00</ele>
	<time>2025-07-29T06:27:43.000Z</time>
</trkpt>
<trkpt lat="45.9132790" lon="10.2944420">
	<ele>1048.00</ele>
	<time>2025-07-29T06:27:44.000Z</time>
</trkpt>
<trkpt lat="45.9132800" lon="10.2944370">
	<ele>1048.40</ele>
	<time>2025-07-29T06:27:45.000Z</time>
</trkpt>
<trkpt lat="45.9132790" lon="10.2944370">
	<ele>1048.60</ele>
	<time>2025-07-29T06:27:46.000Z</time>
</trkpt>
<trkpt lat="45.9132780" lon="10.2944410">
	<ele>1048.60</ele>
	<time>2025-07-29T06:27:47.000Z</time>
</trkpt>
<trkpt lat="45.9132730" lon="10.2944500">
	<ele>1049.00</ele>
	<time>2025-07-29T06:27:48.000Z</time>
</trkpt>
<trkpt lat="45.9132690" lon="10.2944460">
	<ele>1049.00</ele>
	<time>2025-07-29T06:27:49.000Z</time>
</trkpt>
<trkpt lat="45.9132660" lon="10.2944380">
	<ele>1049.20</ele>
	<time>2025-07-29T06:27:50.000Z</time>
</trkpt>
<trkpt lat="45.9132550" lon="10.2944340">
	<ele>1049.60</ele>
	<time>2025-07-29T06:27:51.000Z</time>
</trkpt>
<trkpt lat="45.9132480" lon="10.2944350">
	<ele>1049.60</ele>
	<time>2025-07-29T06:27:52.000Z</time>
</trkpt>
<trkpt lat="45.9132400" lon="10.2944410">
	<ele>1049.80</ele>
	<time>2025-07-29T06:27:53.000Z</time>
</trkpt>
<trkpt lat="45.9132340" lon="10.2944360">
	<ele>1050.00</ele>
	<time>2025-07-29T06:27:54.000Z</time>
</trkpt>
<trkpt lat="45.9132250" lon="10.2944330">
	<ele>1050.00</ele>
	<time>2025-07-29T06:27:55.000Z</time>
</trkpt>
<trkpt lat="45.9132120" lon="10.2944330">
	<ele>1050.20</ele>
	<time>2025-07-29T06:27:56.000Z</time>
</trkpt>
<trkpt lat="45.9131840" lon="10.2944130">
	<ele>1050.60</ele>
	<time>2025-07-29T06:27:57.000Z</time>
</trkpt>
<trkpt lat="45.9131660" lon="10.2943960">
	<ele>1050.80</ele>
	<time>2025-07-29T06:27:58.000Z</time>
</trkpt>
<trkpt lat="45.9131580" lon="10.2943770">
	<ele>1051.00</ele>
	<time>2025-07-29T06:27:59.000Z</time>
</trkpt>
<trkpt lat="45.9131500" lon="10.2943640">
	<ele>1051.20</ele>
	<time>2025-07-29T06:28:00.000Z</time>
</trkpt>
<trkpt lat="45.9131490" lon="10.2943630">
	<ele>1051.40</ele>
	<time>2025-07-29T06:28:01.000Z</time>
</trkpt>
<trkpt lat="45.9131480" lon="10.2943680">
	<ele>1051.80</ele>
	<time>2025-07-29T06:28:02.000Z</time>
</trkpt>
<trkpt lat="45.9131490" lon="10.2943730">
	<ele>1052.00</ele>
	<time>2025-07-29T06:28:03.000Z</time>
</trkpt>
<trkpt lat="45.9131450" lon="10.2943710">
	<ele>1052.20</ele>
	<time>2025-07-29T06:28:04.000Z</time>
</trkpt>
<trkpt lat="45.9131370" lon="10.2943660">
	<ele>1052.20</ele>
	<time>2025-07-29T06:28:05.000Z</time>
</trkpt>
<trkpt lat="45.9131330" lon="10.2943570">
	<ele>1052.40</ele>
	<time>2025-07-29T06:28:06.000Z</time>
</trkpt>
<trkpt lat="45.9131270" lon="10.2943460">
	<ele>1052.60</ele>
	<time>2025-07-29T06:28:07.000Z</time>
</trkpt>
<trkpt lat="45.9131200" lon="10.2943410">
	<ele>1053.00</ele>
	<time>2025-07-29T06:28:08.000Z</time>
</trkpt>
<trkpt lat="45.9131140" lon="10.2943340">
	<ele>1053.00</ele>
	<time>2025-07-29T06:28:09.000Z</time>
</trkpt>
<trkpt lat="45.9131120" lon="10.2943240">
	<ele>1053.20</ele>
	<time>2025-07-29T06:28:10.000Z</time>
</trkpt>
<trkpt lat="45.9131180" lon="10.2943110">
	<ele>1053.40</ele>
	<time>2025-07-29T06:28:11.000Z</time>
</trkpt>
<trkpt lat="45.9131270" lon="10.2942940">
	<ele>1053.60</ele>
	<time>2025-07-29T06:28:12.000Z</time>
</trkpt>
<trkpt lat="45.9131350" lon="10.2942920">
	<ele>1053.60</ele>
	<time>2025-07-29T06:28:13.000Z</time>
</trkpt>
<trkpt lat="45.9131350" lon="10.2942920">
	<ele>1053.80</ele>
	<time>2025-07-29T06:28:14.000Z</time>
</trkpt>
<trkpt lat="45.9131200" lon="10.2942890">
	<ele>1054.00</ele>
	<time>2025-07-29T06:28:15.000Z</time>
</trkpt>
<trkpt lat="45.9130990" lon="10.2942840">
	<ele>1054.00</ele>
	<time>2025-07-29T06:28:16.000Z</time>
</trkpt>
<trkpt lat="45.9130810" lon="10.2942750">
	<ele>1054.20</ele>
	<time>2025-07-29T06:28:17.000Z</time>
</trkpt>
<trkpt lat="45.9130690" lon="10.2942610">
	<ele>1054.40</ele>
	<time>2025-07-29T06:28:18.000Z</time>
</trkpt>
<trkpt lat="45.9130540" lon="10.2942540">
	<ele>1054.40</ele>
	<time>2025-07-29T06:28:19.000Z</time>
</trkpt>
<trkpt lat="45.9130450" lon="10.2942480">
	<ele>1054.60</ele>
	<time>2025-07-29T06:28:20.000Z</time>
</trkpt>
<trkpt lat="45.9130350" lon="10.2942400">
	<ele>1055.00</ele>
	<time>2025-07-29T06:28:21.000Z</time>
</trkpt>
<trkpt lat="45.9130240" lon="10.2942310">
	<ele>1055.20</ele>
	<time>2025-07-29T06:28:22.000Z</time>
</trkpt>
<trkpt lat="45.9130140" lon="10.2942250">
	<ele>1055.20</ele>
	<time>2025-07-29T06:28:23.000Z</time>
</trkpt>
<trkpt lat="45.9130010" lon="10.2942200">
	<ele>1055.40</ele>
	<time>2025-07-29T06:28:24.000Z</time>
</trkpt>
<trkpt lat="45.9129920" lon="10.2942170">
	<ele>1055.60</ele>
	<time>2025-07-29T06:28:25.000Z</time>
</trkpt>
<trkpt lat="45.9129840" lon="10.2942150">
	<ele>1055.60</ele>
	<time>2025-07-29T06:28:26.000Z</time>
</trkpt>
<trkpt lat="45.9129820" lon="10.2942090">
	<ele>1055.80</ele>
	<time>2025-07-29T06:28:27.000Z</time>
</trkpt>
<trkpt lat="45.9129780" lon="10.2942000">
	<ele>1055.80</ele>
	<time>2025-07-29T06:28:28.000Z</time>
</trkpt>
<trkpt lat="45.9129760" lon="10.2941920">
	<ele>1056.00</ele>
	<time>2025-07-29T06:28:29.000Z</time>
</trkpt>
<trkpt lat="45.9129710" lon="10.2941860">
	<ele>1056.20</ele>
	<time>2025-07-29T06:28:30.000Z</time>
</trkpt>
<trkpt lat="45.9129710" lon="10.2941760">
	<ele>1056.40</ele>
	<time>2025-07-29T06:28:31.000Z</time>
</trkpt>
<trkpt lat="45.9129750" lon="10.2941650">
	<ele>1056.60</ele>
	<time>2025-07-29T06:28:32.000Z</time>
</trkpt>
<trkpt lat="45.9129730" lon="10.2941580">
	<ele>1056.60</ele>
	<time>2025-07-29T06:28:33.000Z</time>
</trkpt>
<trkpt lat="45.9129630" lon="10.2941550">
	<ele>1056.80</ele>
	<time>2025-07-29T06:28:34.000Z</time>
</trkpt>
<trkpt lat="45.9129510" lon="10.2941550">
	<ele>1057.00</ele>
	<time>2025-07-29T06:28:35.000Z</time>
</trkpt>
<trkpt lat="45.9129440" lon="10.2941530">
	<ele>1057.00</ele>
	<time>2025-07-29T06:28:36.000Z</time>
</trkpt>
<trkpt lat="45.9129370" lon="10.2941520">
	<ele>1057.20</ele>
	<time>2025-07-29T06:28:37.000Z</time>
</trkpt>
<trkpt lat="45.9129250" lon="10.2941470">
	<ele>1057.40</ele>
	<time>2025-07-29T06:28:38.000Z</time>
</trkpt>
<trkpt lat="45.9129140" lon="10.2941370">
	<ele>1057.40</ele>
	<time>2025-07-29T06:28:39.000Z</time>
</trkpt>
<trkpt lat="45.9129000" lon="10.2941300">
	<ele>1057.60</ele>
	<time>2025-07-29T06:28:40.000Z</time>
</trkpt>
<trkpt lat="45.9128830" lon="10.2941240">
	<ele>1057.60</ele>
	<time>2025-07-29T06:28:41.000Z</time>
</trkpt>
<trkpt lat="45.9128690" lon="10.2941140">
	<ele>1057.80</ele>
	<time>2025-07-29T06:28:42.000Z</time>
</trkpt>
<trkpt lat="45.9128560" lon="10.2941050">
	<ele>1057.80</ele>
	<time>2025-07-29T06:28:43.000Z</time>
</trkpt>
<trkpt lat="45.9128400" lon="10.2940950">
	<ele>1057.80</ele>
	<time>2025-07-29T06:28:44.000Z</time>
</trkpt>
<trkpt lat="45.9128230" lon="10.2940940">
	<ele>1058.00</ele>
	<time>2025-07-29T06:28:45.000Z</time>
</trkpt>
<trkpt lat="45.9128040" lon="10.2940910">
	<ele>1058.00</ele>
	<time>2025-07-29T06:28:46.000Z</time>
</trkpt>
<trkpt lat="45.9127900" lon="10.2940970">
	<ele>1058.20</ele>
	<time>2025-07-29T06:28:47.000Z</time>
</trkpt>
<trkpt lat="45.9127840" lon="10.2941040">
	<ele>1058.20</ele>
	<time>2025-07-29T06:28:48.000Z</time>
</trkpt>
<trkpt lat="45.9127790" lon="10.2941010">
	<ele>1058.40</ele>
	<time>2025-07-29T06:28:49.000Z</time>
</trkpt>
<trkpt lat="45.9127690" lon="10.2940920">
	<ele>1058.60</ele>
	<time>2025-07-29T06:28:50.000Z</time>
</trkpt>
<trkpt lat="45.9127610" lon="10.2940910">
	<ele>1058.60</ele>
	<time>2025-07-29T06:28:51.000Z</time>
</trkpt>
<trkpt lat="45.9127520" lon="10.2940970">
	<ele>1058.60</ele>
	<time>2025-07-29T06:28:52.000Z</time>
</trkpt>
<trkpt lat="45.9127410" lon="10.2941050">
	<ele>1058.80</ele>
	<time>2025-07-29T06:28:53.000Z</time>
</trkpt>
<trkpt lat="45.9127270" lon="10.2941200">
	<ele>1058.80</ele>
	<time>2025-07-29T06:28:54.000Z</time>
</trkpt>
<trkpt lat="45.9127180" lon="10.2941270">
	<ele>1058.80</ele>
	<time>2025-07-29T06:28:55.000Z</time>
</trkpt>
<trkpt lat="45.9126980" lon="10.2941250">
	<ele>1058.80</ele>
	<time>2025-07-29T06:28:56.000Z</time>
</trkpt>
<trkpt lat="45.9126880" lon="10.2941090">
	<ele>1058.80</ele>
	<time>2025-07-29T06:28:57.000Z</time>
</trkpt>
<trkpt lat="45.9126830" lon="10.2941030">
	<ele>1058.80</ele>
	<time>2025-07-29T06:28:58.000Z</time>
</trkpt>
<trkpt lat="45.9126790" lon="10.2941120">
	<ele>1059.00</ele>
	<time>2025-07-29T06:28:59.000Z</time>
</trkpt>
<trkpt lat="45.9126780" lon="10.2941160">
	<ele>1059.00</ele>
	<time>2025-07-29T06:29:00.000Z</time>
</trkpt>
<trkpt lat="45.9126740" lon="10.2941250">
	<ele>1059.00</ele>
	<time>2025-07-29T06:29:01.000Z</time>
</trkpt>
<trkpt lat="45.9126720" lon="10.2941290">
	<ele>1059.00</ele>
	<time>2025-07-29T06:29:02.000Z</time>
</trkpt>
<trkpt lat="45.9126670" lon="10.2941300">
	<ele>1059.00</ele>
	<time>2025-07-29T06:29:03.000Z</time>
</trkpt>
<trkpt lat="45.9126600" lon="10.2941320">
	<ele>1059.20</ele>
	<time>2025-07-29T06:29:04.000Z</time>
</trkpt>
<trkpt lat="45.9126510" lon="10.2941360">
	<ele>1059.20</ele>
	<time>2025-07-29T06:29:05.000Z</time>
</trkpt>
<trkpt lat="45.9126370" lon="10.2941360">
	<ele>1059.40</ele>
	<time>2025-07-29T06:29:06.000Z</time>
</trkpt>
<trkpt lat="45.9126230" lon="10.2941440">
	<ele>1059.40</ele>
	<time>2025-07-29T06:29:07.000Z</time>
</trkpt>
<trkpt lat="45.9126110" lon="10.2941420">
	<ele>1059.60</ele>
	<time>2025-07-29T06:29:08.000Z</time>
</trkpt>
<trkpt lat="45.9125980" lon="10.2941490">
	<ele>1059.60</ele>
	<time>2025-07-29T06:29:09.000Z</time>
</trkpt>
<trkpt lat="45.9125960" lon="10.2941580">
	<ele>1059.80</ele>
	<time>2025-07-29T06:29:10.000Z</time>
</trkpt>
<trkpt lat="45.9125910" lon="10.2941760">
	<ele>1059.80</ele>
	<time>2025-07-29T06:29:11.000Z</time>
</trkpt>
<trkpt lat="45.9125800" lon="10.2941860">
	<ele>1060.00</ele>
	<time>2025-07-29T06:29:12.000Z</time>
</trkpt>
<trkpt lat="45.9125710" lon="10.2941920">
	<ele>1060.00</ele>
	<time>2025-07-29T06:29:13.000Z</time>
</trkpt>
<trkpt lat="45.9125570" lon="10.2942000">
	<ele>1060.20</ele>
	<time>2025-07-29T06:29:14.000Z</time>
</trkpt>
<trkpt lat="45.9125440" lon="10.2942130">
	<ele>1060.20</ele>
	<time>2025-07-29T06:29:15.000Z</time>
</trkpt>
<trkpt lat="45.9125310" lon="10.2942310">
	<ele>1060.40</ele>
	<time>2025-07-29T06:29:16.000Z</time>
</trkpt>
<trkpt lat="45.9125170" lon="10.2942390">
	<ele>1060.60</ele>
	<time>2025-07-29T06:29:17.000Z</time>
</trkpt>
<trkpt lat="45.9125000" lon="10.2942540">
	<ele>1060.80</ele>
	<time>2025-07-29T06:29:18.000Z</time>
</trkpt>
<trkpt lat="45.9124860" lon="10.2942640">
	<ele>1060.80</ele>
	<time>2025-07-29T06:29:19.000Z</time>
</trkpt>
<trkpt lat="45.9124790" lon="10.2942700">
	<ele>1061.00</ele>
	<time>2025-07-29T06:29:20.000Z</time>
</trkpt>
<trkpt lat="45.9124720" lon="10.2942770">
	<ele>1061.20</ele>
	<time>2025-07-29T06:29:21.000Z</time>
</trkpt>
<trkpt lat="45.9124670" lon="10.2942860">
	<ele>1061.40</ele>
	<time>2025-07-29T06:29:22.000Z</time>
</trkpt>
<trkpt lat="45.9124630" lon="10.2942930">
	<ele>1061.60</ele>
	<time>2025-07-29T06:29:23.000Z</time>
</trkpt>
<trkpt lat="45.9124580" lon="10.2943010">
	<ele>1061.80</ele>
	<time>2025-07-29T06:29:24.000Z</time>
</trkpt>
<trkpt lat="45.9124510" lon="10.2943090">
	<ele>1062.00</ele>
	<time>2025-07-29T06:29:25.000Z</time>
</trkpt>
<trkpt lat="45.9124450" lon="10.2943160">
	<ele>1062.20</ele>
	<time>2025-07-29T06:29:26.000Z</time>
</trkpt>
<trkpt lat="45.9124380" lon="10.2943180">
	<ele>1062.60</ele>
	<time>2025-07-29T06:29:27.000Z</time>
</trkpt>
<trkpt lat="45.9124280" lon="10.2943260">
	<ele>1062.60</ele>
	<time>2025-07-29T06:29:28.000Z</time>
</trkpt>
<trkpt lat="45.9124230" lon="10.2943290">
	<ele>1062.80</ele>
	<time>2025-07-29T06:29:29.000Z</time>
</trkpt>
<trkpt lat="45.9124160" lon="10.2943380">
	<ele>1063.00</ele>
	<time>2025-07-29T06:29:30.000Z</time>
</trkpt>
<trkpt lat="45.9124090" lon="10.2943450">
	<ele>1063.20</ele>
	<time>2025-07-29T06:29:31.000Z</time>
</trkpt>
<trkpt lat="45.9124010" lon="10.2943540">
	<ele>1063.40</ele>
	<time>2025-07-29T06:29:32.000Z</time>
</trkpt>
<trkpt lat="45.9123970" lon="10.2943620">
	<ele>1063.60</ele>
	<time>2025-07-29T06:29:33.000Z</time>
</trkpt>
<trkpt lat="45.9123910" lon="10.2943720">
	<ele>1063.80</ele>
	<time>2025-07-29T06:29:34.000Z</time>
</trkpt>
<trkpt lat="45.9123820" lon="10.2943730">
	<ele>1064.00</ele>
	<time>2025-07-29T06:29:35.000Z</time>
</trkpt>
<trkpt lat="45.9123750" lon="10.2943740">
	<ele>1064.40</ele>
	<time>2025-07-29T06:29:36.000Z</time>
</trkpt>
<trkpt lat="45.9123660" lon="10.2943860">
	<ele>1064.60</ele>
	<time>2025-07-29T06:29:37.000Z</time>
</trkpt>
<trkpt lat="45.9123580" lon="10.2944010">
	<ele>1064.60</ele>
	<time>2025-07-29T06:29:38.000Z</time>
</trkpt>
<trkpt lat="45.9123530" lon="10.2944190">
	<ele>1064.80</ele>
	<time>2025-07-29T06:29:39.000Z</time>
</trkpt>
<trkpt lat="45.9123500" lon="10.2944330">
	<ele>1065.20</ele>
	<time>2025-07-29T06:29:40.000Z</time>
</trkpt>
<trkpt lat="45.9123510" lon="10.2944410">
	<ele>1065.40</ele>
	<time>2025-07-29T06:29:41.000Z</time>
</trkpt>
<trkpt lat="45.9123500" lon="10.2944480">
	<ele>1065.40</ele>
	<time>2025-07-29T06:29:42.000Z</time>
</trkpt>
<trkpt lat="45.9123570" lon="10.2944820">
	<ele>1065.60</ele>
	<time>2025-07-29T06:29:43.000Z</time>
</trkpt>
<trkpt lat="45.9123600" lon="10.2944990">
	<ele>1065.80</ele>
	<time>2025-07-29T06:29:44.000Z</time>
</trkpt>
<trkpt lat="45.9123520" lon="10.2945150">
	<ele>1066.00</ele>
	<time>2025-07-29T06:29:45.000Z</time>
</trkpt>
<trkpt lat="45.9123490" lon="10.2945210">
	<ele>1066.20</ele>
	<time>2025-07-29T06:29:46.000Z</time>
</trkpt>
<trkpt lat="45.9123530" lon="10.2945300">
	<ele>1066.40</ele>
	<time>2025-07-29T06:29:47.000Z</time>
</trkpt>
<trkpt lat="45.9123440" lon="10.2945370">
	<ele>1066.60</ele>
	<time>2025-07-29T06:29:48.000Z</time>
</trkpt>
<trkpt lat="45.9123400" lon="10.2945440">
	<ele>1067.00</ele>
	<time>2025-07-29T06:29:49.000Z</time>
</trkpt>
<trkpt lat="45.9123360" lon="10.2945460">
	<ele>1067.20</ele>
	<time>2025-07-29T06:29:50.000Z</time>
</trkpt>
<trkpt lat="45.9123360" lon="10.2945430">
	<ele>1067.40</ele>
	<time>2025-07-29T06:29:51.000Z</time>
</trkpt>
<trkpt lat="45.9123360" lon="10.2945510">
	<ele>1067.60</ele>
	<time>2025-07-29T06:29:52.000Z</time>
</trkpt>
<trkpt lat="45.9123420" lon="10.2945560">
	<ele>1067.80</ele>
	<time>2025-07-29T06:29:53.000Z</time>
</trkpt>
<trkpt lat="45.9123470" lon="10.2945590">
	<ele>1068.00</ele>
	<time>2025-07-29T06:29:54.000Z</time>
</trkpt>
<trkpt lat="45.9123510" lon="10.2945640">
	<ele>1068.20</ele>
	<time>2025-07-29T06:29:55.000Z</time>
</trkpt>
<trkpt lat="45.9123450" lon="10.2945860">
	<ele>1068.40</ele>
	<time>2025-07-29T06:29:56.000Z</time>
</trkpt>
<trkpt lat="45.9123470" lon="10.2946120">
	<ele>1068.80</ele>
	<time>2025-07-29T06:29:57.000Z</time>
</trkpt>
<trkpt lat="45.9123580" lon="10.2946170">
	<ele>1069.00</ele>
	<time>2025-07-29T06:29:58.000Z</time>
</trkpt>
<trkpt lat="45.9123510" lon="10.2946230">
	<ele>1069.20</ele>
	<time>2025-07-29T06:29:59.000Z</time>
</trkpt>
<trkpt lat="45.9123480" lon="10.2946350">
	<ele>1069.40</ele>
	<time>2025-07-29T06:30:00.000Z</time>
</trkpt>
<trkpt lat="45.9123440" lon="10.2946480">
	<ele>1069.60</ele>
	<time>2025-07-29T06:30:01.000Z</time>
</trkpt>
<trkpt lat="45.9123400" lon="10.2946640">
	<ele>1069.80</ele>
	<time>2025-07-29T06:30:02.000Z</time>
</trkpt>
<trkpt lat="45.9123370" lon="10.2946770">
	<ele>1069.80</ele>
	<time>2025-07-29T06:30:03.000Z</time>
</trkpt>
<trkpt lat="45.9123330" lon="10.2946940">
	<ele>1070.00</ele>
	<time>2025-07-29T06:30:04.000Z</time>
</trkpt>
<trkpt lat="45.9123280" lon="10.2947080">
	<ele>1070.40</ele>
	<time>2025-07-29T06:30:05.000Z</time>
</trkpt>
<trkpt lat="45.9123240" lon="10.2947200">
	<ele>1070.60</ele>
	<time>2025-07-29T06:30:06.000Z</time>
</trkpt>
<trkpt lat="45.9123200" lon="10.2947330">
	<ele>1070.80</ele>
	<time>2025-07-29T06:30:07.000Z</time>
</trkpt>
<trkpt lat="45.9123170" lon="10.2947530">
	<ele>1071.00</ele>
	<time>2025-07-29T06:30:08.000Z</time>
</trkpt>
<trkpt lat="45.9123170" lon="10.2947660">
	<ele>1071.00</ele>
	<time>2025-07-29T06:30:09.000Z</time>
</trkpt>
<trkpt lat="45.9123170" lon="10.2947790">
	<ele>1071.00</ele>
	<time>2025-07-29T06:30:10.000Z</time>
</trkpt>
<trkpt lat="45.9123160" lon="10.2947890">
	<ele>1071.20</ele>
	<time>2025-07-29T06:30:11.000Z</time>
</trkpt>
<trkpt lat="45.9123150" lon="10.2947920">
	<ele>1071.60</ele>
	<time>2025-07-29T06:30:12.000Z</time>
</trkpt>
<trkpt lat="45.9123120" lon="10.2947990">
	<ele>1071.80</ele>
	<time>2025-07-29T06:30:13.000Z</time>
</trkpt>
<trkpt lat="45.9123070" lon="10.2948040">
	<ele>1072.20</ele>
	<time>2025-07-29T06:30:14.000Z</time>
</trkpt>
<trkpt lat="45.9123040" lon="10.2948090">
	<ele>1072.40</ele>
	<time>2025-07-29T06:30:15.000Z</time>
</trkpt>
<trkpt lat="45.9123070" lon="10.2948280">
	<ele>1072.60</ele>
	<time>2025-07-29T06:30:16.000Z</time>
</trkpt>
<trkpt lat="45.9123080" lon="10.2948460">
	<ele>1072.80</ele>
	<time>2025-07-29T06:30:17.000Z</time>
</trkpt>
<trkpt lat="45.9123110" lon="10.2948600">
	<ele>1073.00</ele>
	<time>2025-07-29T06:30:18.000Z</time>
</trkpt>
<trkpt lat="45.9123130" lon="10.2948630">
	<ele>1073.00</ele>
	<time>2025-07-29T06:30:19.000Z</time>
</trkpt>
<trkpt lat="45.9123070" lon="10.2948820">
	<ele>1073.20</ele>
	<time>2025-07-29T06:30:20.000Z</time>
</trkpt>
<trkpt lat="45.9123040" lon="10.2948950">
	<ele>1073.40</ele>
	<time>2025-07-29T06:30:21.000Z</time>
</trkpt>
<trkpt lat="45.9122950" lon="10.2949070">
	<ele>1073.60</ele>
	<time>2025-07-29T06:30:22.000Z</time>
</trkpt>
<trkpt lat="45.9122900" lon="10.2949260">
	<ele>1073.80</ele>
	<time>2025-07-29T06:30:23.000Z</time>
</trkpt>
<trkpt lat="45.9122890" lon="10.2949480">
	<ele>1074.00</ele>
	<time>2025-07-29T06:30:24.000Z</time>
</trkpt>
<trkpt lat="45.9122880" lon="10.2949640">
	<ele>1074.20</ele>
	<time>2025-07-29T06:30:25.000Z</time>
</trkpt>
<trkpt lat="45.9122820" lon="10.2949780">
	<ele>1074.20</ele>
	<time>2025-07-29T06:30:26.000Z</time>
</trkpt>
<trkpt lat="45.9122820" lon="10.2949930">
	<ele>1074.40</ele>
	<time>2025-07-29T06:30:27.000Z</time>
</trkpt>
<trkpt lat="45.9122840" lon="10.2950070">
	<ele>1074.60</ele>
	<time>2025-07-29T06:30:28.000Z</time>
</trkpt>
<trkpt lat="45.9122820" lon="10.2950140">
	<ele>1075.00</ele>
	<time>2025-07-29T06:30:29.000Z</time>
</trkpt>
<trkpt lat="45.9122810" lon="10.2950170">
	<ele>1075.20</ele>
	<time>2025-07-29T06:30:30.000Z</time>
</trkpt>
<trkpt lat="45.9122780" lon="10.2950180">
	<ele>1075.20</ele>
	<time>2025-07-29T06:30:31.000Z</time>
</trkpt>
<trkpt lat="45.9122750" lon="10.2950210">
	<ele>1075.40</ele>
	<time>2025-07-29T06:30:32.000Z</time>
</trkpt>
<trkpt lat="45.9122780" lon="10.2950310">
	<ele>1075.40</ele>
	<time>2025-07-29T06:30:33.000Z</time>
</trkpt>
<trkpt lat="45.9122810" lon="10.2950500">
	<ele>1075.60</ele>
	<time>2025-07-29T06:30:34.000Z</time>
</trkpt>
<trkpt lat="45.9122830" lon="10.2950710">
	<ele>1075.60</ele>
	<time>2025-07-29T06:30:35.000Z</time>
</trkpt>
<trkpt lat="45.9122780" lon="10.2950820">
	<ele>1075.60</ele>
	<time>2025-07-29T06:30:36.000Z</time>
</trkpt>
<trkpt lat="45.9122740" lon="10.2950940">
	<ele>1075.60</ele>
	<time>2025-07-29T06:30:37.000Z</time>
</trkpt>
<trkpt lat="45.9122700" lon="10.2951050">
	<ele>1075.60</ele>
	<time>2025-07-29T06:30:38.000Z</time>
</trkpt>
<trkpt lat="45.9122620" lon="10.2951140">
	<ele>1075.60</ele>
	<time>2025-07-29T06:30:39.000Z</time>
</trkpt>
<trkpt lat="45.9122570" lon="10.2951290">
	<ele>1075.80</ele>
	<time>2025-07-29T06:30:40.000Z</time>
</trkpt>
<trkpt lat="45.9122520" lon="10.2951370">
	<ele>1076.20</ele>
	<time>2025-07-29T06:30:41.000Z</time>
</trkpt>
<trkpt lat="45.9122460" lon="10.2951560">
	<ele>1076.40</ele>
	<time>2025-07-29T06:30:42.000Z</time>
</trkpt>
<trkpt lat="45.9122510" lon="10.2951720">
	<ele>1076.60</ele>
	<time>2025-07-29T06:30:43.000Z</time>
</trkpt>
<trkpt lat="45.9122540" lon="10.2951870">
	<ele>1076.80</ele>
	<time>2025-07-29T06:30:44.000Z</time>
</trkpt>
<trkpt lat="45.9122570" lon="10.2951960">
	<ele>1077.20</ele>
	<time>2025-07-29T06:30:45.000Z</time>
</trkpt>
<trkpt lat="45.9122620" lon="10.2952020">
	<ele>1077.40</ele>
	<time>2025-07-29T06:30:46.000Z</time>
</trkpt>
<trkpt lat="45.9122640" lon="10.2952080">
	<ele>1077.60</ele>
	<time>2025-07-29T06:30:47.000Z</time>
</trkpt>
<trkpt lat="45.9122640" lon="10.2952300">
	<ele>1078.00</ele>
	<time>2025-07-29T06:30:48.000Z</time>
</trkpt>
<trkpt lat="45.9122670" lon="10.2952390">
	<ele>1078.20</ele>
	<time>2025-07-29T06:30:49.000Z</time>
</trkpt>
<trkpt lat="45.9122680" lon="10.2952490">
	<ele>1078.40</ele>
	<time>2025-07-29T06:30:50.000Z</time>
</trkpt>
<trkpt lat="45.9122710" lon="10.2952600">
	<ele>1078.60</ele>
	<time>2025-07-29T06:30:51.000Z</time>
</trkpt>
<trkpt lat="45.9122730" lon="10.2952690">
	<ele>1078.80</ele>
	<time>2025-07-29T06:30:52.000Z</time>
</trkpt>
<trkpt lat="45.9122760" lon="10.2952770">
	<ele>1079.00</ele>
	<time>2025-07-29T06:30:53.000Z</time>
</trkpt>
<trkpt lat="45.9122770" lon="10.2952910">
	<ele>1079.40</ele>
	<time>2025-07-29T06:30:54.000Z</time>
</trkpt>
<trkpt lat="45.9122750" lon="10.2952970">
	<ele>1079.80</ele>
	<time>2025-07-29T06:30:55.000Z</time>
</trkpt>
<trkpt lat="45.9122690" lon="10.2953110">
	<ele>1080.00</ele>
	<time>2025-07-29T06:30:56.000Z</time>
</trkpt>
<trkpt lat="45.9122640" lon="10.2953250">
	<ele>1080.20</ele>
	<time>2025-07-29T06:30:57.000Z</time>
</trkpt>
<trkpt lat="45.9122630" lon="10.2953380">
	<ele>1080.20</ele>
	<time>2025-07-29T06:30:58.000Z</time>
</trkpt>
<trkpt lat="45.9122610" lon="10.2953470">
	<ele>1080.60</ele>
	<time>2025-07-29T06:30:59.000Z</time>
</trkpt>
<trkpt lat="45.9122590" lon="10.2953540">
	<ele>1081.00</ele>
	<time>2025-07-29T06:31:00.000Z</time>
</trkpt>
<trkpt lat="45.9122590" lon="10.2953540">
	<ele>1081.40</ele>
	<time>2025-07-29T06:31:01.000Z</time>
</trkpt>
<trkpt lat="45.9122630" lon="10.2953530">
	<ele>1081.40</ele>
	<time>2025-07-29T06:31:02.000Z</time>
</trkpt>
<trkpt lat="45.9122660" lon="10.2953520">
	<ele>1081.60</ele>
	<time>2025-07-29T06:31:03.000Z</time>
</trkpt>
<trkpt lat="45.9122670" lon="10.2953530">
	<ele>1081.60</ele>
	<time>2025-07-29T06:31:04.000Z</time>
</trkpt>
<trkpt lat="45.9122690" lon="10.2953550">
	<ele>1081.60</ele>
	<time>2025-07-29T06:31:05.000Z</time>
</trkpt>
<trkpt lat="45.9122730" lon="10.2953670">
	<ele>1081.60</ele>
	<time>2025-07-29T06:31:06.000Z</time>
</trkpt>
<trkpt lat="45.9122700" lon="10.2953810">
	<ele>1081.60</ele>
	<time>2025-07-29T06:31:07.000Z</time>
</trkpt>
<trkpt lat="45.9122710" lon="10.2953930">
	<ele>1081.60</ele>
	<time>2025-07-29T06:31:08.000Z</time>
</trkpt>
<trkpt lat="45.9122730" lon="10.2954070">
	<ele>1081.60</ele>
	<time>2025-07-29T06:31:09.000Z</time>
</trkpt>
<trkpt lat="45.9122760" lon="10.2954270">
	<ele>1081.80</ele>
	<time>2025-07-29T06:31:10.000Z</time>
</trkpt>
<trkpt lat="45.9122770" lon="10.2954390">
	<ele>1081.80</ele>
	<time>2025-07-29T06:31:11.000Z</time>
</trkpt>
<trkpt lat="45.9122800" lon="10.2954490">
	<ele>1082.00</ele>
	<time>2025-07-29T06:31:12.000Z</time>
</trkpt>
<trkpt lat="45.9122850" lon="10.2954570">
	<ele>1082.20</ele>
	<time>2025-07-29T06:31:13.000Z</time>
</trkpt>
<trkpt lat="45.9122920" lon="10.2954650">
	<ele>1082.60</ele>
	<time>2025-07-29T06:31:14.000Z</time>
</trkpt>
<trkpt lat="45.9122990" lon="10.2954740">
	<ele>1082.80</ele>
	<time>2025-07-29T06:31:15.000Z</time>
</trkpt>
<trkpt lat="45.9122980" lon="10.2954830">
	<ele>1083.00</ele>
	<time>2025-07-29T06:31:16.000Z</time>
</trkpt>
<trkpt lat="45.9122970" lon="10.2954920">
	<ele>1083.20</ele>
	<time>2025-07-29T06:31:17.000Z</time>
</trkpt>
<trkpt lat="45.9123000" lon="10.2955010">
	<ele>1083.20</ele>
	<time>2025-07-29T06:31:18.000Z</time>
</trkpt>
<trkpt lat="45.9123020" lon="10.2955070">
	<ele>1083.40</ele>
	<time>2025-07-29T06:31:19.000Z</time>
</trkpt>
<trkpt lat="45.9123080" lon="10.2955180">
	<ele>1083.60</ele>
	<time>2025-07-29T06:31:20.000Z</time>
</trkpt>
<trkpt lat="45.9123140" lon="10.2955230">
	<ele>1083.80</ele>
	<time>2025-07-29T06:31:21.000Z</time>
</trkpt>
<trkpt lat="45.9123210" lon="10.2955300">
	<ele>1083.80</ele>
	<time>2025-07-29T06:31:22.000Z</time>
</trkpt>
<trkpt lat="45.9123270" lon="10.2955400">
	<ele>1084.00</ele>
	<time>2025-07-29T06:31:23.000Z</time>
</trkpt>
<trkpt lat="45.9123320" lon="10.2955430">
	<ele>1084.20</ele>
	<time>2025-07-29T06:31:24.000Z</time>
</trkpt>
<trkpt lat="45.9123380" lon="10.2955490">
	<ele>1084.20</ele>
	<time>2025-07-29T06:31:25.000Z</time>
</trkpt>
<trkpt lat="45.9123410" lon="10.2955550">
	<ele>1084.40</ele>
	<time>2025-07-29T06:31:26.000Z</time>
</trkpt>
<trkpt lat="45.9123490" lon="10.2955700">
	<ele>1084.60</ele>
	<time>2025-07-29T06:31:27.000Z</time>
</trkpt>
<trkpt lat="45.9123550" lon="10.2955840">
	<ele>1084.80</ele>
	<time>2025-07-29T06:31:28.000Z</time>
</trkpt>
<trkpt lat="45.9123630" lon="10.2955930">
	<ele>1085.00</ele>
	<time>2025-07-29T06:31:29.000Z</time>
</trkpt>
<trkpt lat="45.9123640" lon="10.2956040">
	<ele>1085.20</ele>
	<time>2025-07-29T06:31:30.000Z</time>
</trkpt>
<trkpt lat="45.9123650" lon="10.2956180">
	<ele>1085.40</ele>
	<time>2025-07-29T06:31:31.000Z</time>
</trkpt>
<trkpt lat="45.9123740" lon="10.2956260">
	<ele>1085.60</ele>
	<time>2025-07-29T06:31:32.000Z</time>
</trkpt>
<trkpt lat="45.9123770" lon="10.2956370">
	<ele>1085.80</ele>
	<time>2025-07-29T06:31:33.000Z</time>
</trkpt>
<trkpt lat="45.9123750" lon="10.2956430">
	<ele>1086.00</ele>
	<time>2025-07-29T06:31:34.000Z</time>
</trkpt>
<trkpt lat="45.9123730" lon="10.2956460">
	<ele>1086.20</ele>
	<time>2025-07-29T06:31:35.000Z</time>
</trkpt>
<trkpt lat="45.9123710" lon="10.2956580">
	<ele>1086.40</ele>
	<time>2025-07-29T06:31:36.000Z</time>
</trkpt>
<trkpt lat="45.9123710" lon="10.2956730">
	<ele>1086.60</ele>
	<time>2025-07-29T06:31:37.000Z</time>
</trkpt>
<trkpt lat="45.9123680" lon="10.2956850">
	<ele>1086.80</ele>
	<time>2025-07-29T06:31:38.000Z</time>
</trkpt>
<trkpt lat="45.9123690" lon="10.2956860">
	<ele>1087.00</ele>
	<time>2025-07-29T06:31:39.000Z</time>
</trkpt>
<trkpt lat="45.9123790" lon="10.2956900">
	<ele>1087.00</ele>
	<time>2025-07-29T06:31:40.000Z</time>
</trkpt>
<trkpt lat="45.9123910" lon="10.2956960">
	<ele>1087.20</ele>
	<time>2025-07-29T06:31:41.000Z</time>
</trkpt>
<trkpt lat="45.9124050" lon="10.2956980">
	<ele>1087.40</ele>
	<time>2025-07-29T06:31:42.000Z</time>
</trkpt>
<trkpt lat="45.9124040" lon="10.2957060">
	<ele>1087.60</ele>
	<time>2025-07-29T06:31:43.000Z</time>
</trkpt>
<trkpt lat="45.9124060" lon="10.2957260">
	<ele>1087.60</ele>
	<time>2025-07-29T06:31:44.000Z</time>
</trkpt>
<trkpt lat="45.9124060" lon="10.2957470">
	<ele>1087.80</ele>
	<time>2025-07-29T06:31:45.000Z</time>
</trkpt>
<trkpt lat="45.9124150" lon="10.2957680">
	<ele>1088.00</ele>
	<time>2025-07-29T06:31:46.000Z</time>
</trkpt>
<trkpt lat="45.9124140" lon="10.2957970">
	<ele>1088.00</ele>
	<time>2025-07-29T06:31:47.000Z</time>
</trkpt>
<trkpt lat="45.9124160" lon="10.2958160">
	<ele>1088.20</ele>
	<time>2025-07-29T06:31:48.000Z</time>
</trkpt>
<trkpt lat="45.9124170" lon="10.2958350">
	<ele>1088.40</ele>
	<time>2025-07-29T06:31:49.000Z</time>
</trkpt>
<trkpt lat="45.9124180" lon="10.2958460">
	<ele>1088.40</ele>
	<time>2025-07-29T06:31:50.000Z</time>
</trkpt>
<trkpt lat="45.9124080" lon="10.2958550">
	<ele>1088.60</ele>
	<time>2025-07-29T06:31:51.000Z</time>
</trkpt>
<trkpt lat="45.9124080" lon="10.2958660">
	<ele>1088.60</ele>
	<time>2025-07-29T06:31:52.000Z</time>
</trkpt>
<trkpt lat="45.9124080" lon="10.2958750">
	<ele>1088.80</ele>
	<time>2025-07-29T06:31:53.000Z</time>
</trkpt>
<trkpt lat="45.9124120" lon="10.2958790">
	<ele>1089.00</ele>
	<time>2025-07-29T06:31:54.000Z</time>
</trkpt>
<trkpt lat="45.9124180" lon="10.2958840">
	<ele>1089.20</ele>
	<time>2025-07-29T06:31:55.000Z</time>
</trkpt>
<trkpt lat="45.9124270" lon="10.2958950">
	<ele>1089.40</ele>
	<time>2025-07-29T06:31:56.000Z</time>
</trkpt>
<trkpt lat="45.9124340" lon="10.2959070">
	<ele>1089.60</ele>
	<time>2025-07-29T06:31:57.000Z</time>
</trkpt>
<trkpt lat="45.9124400" lon="10.2959220">
	<ele>1089.60</ele>
	<time>2025-07-29T06:31:58.000Z</time>
</trkpt>
<trkpt lat="45.9124450" lon="10.2959270">
	<ele>1089.60</ele>
	<time>2025-07-29T06:31:59.000Z</time>
</trkpt>
<trkpt lat="45.9124540" lon="10.2959310">
	<ele>1089.80</ele>
	<time>2025-07-29T06:32:00.000Z</time>
</trkpt>
<trkpt lat="45.9124600" lon="10.2959390">
	<ele>1089.80</ele>
	<time>2025-07-29T06:32:01.000Z</time>
</trkpt>
<trkpt lat="45.9124660" lon="10.2959520">
	<ele>1090.00</ele>
	<time>2025-07-29T06:32:02.000Z</time>
</trkpt>
<trkpt lat="45.9124710" lon="10.2959640">
	<ele>1090.00</ele>
	<time>2025-07-29T06:32:03.000Z</time>
</trkpt>
<trkpt lat="45.9124720" lon="10.2959810">
	<ele>1090.20</ele>
	<time>2025-07-29T06:32:04.000Z</time>
</trkpt>
<trkpt lat="45.9124730" lon="10.2959940">
	<ele>1090.40</ele>
	<time>2025-07-29T06:32:05.000Z</time>
</trkpt>
<trkpt lat="45.9124760" lon="10.2959970">
	<ele>1090.60</ele>
	<time>2025-07-29T06:32:06.000Z</time>
</trkpt>
<trkpt lat="45.9124710" lon="10.2960080">
	<ele>1090.80</ele>
	<time>2025-07-29T06:32:07.000Z</time>
</trkpt>
<trkpt lat="45.9124690" lon="10.2960220">
	<ele>1091.00</ele>
	<time>2025-07-29T06:32:08.000Z</time>
</trkpt>
<trkpt lat="45.9124690" lon="10.2960230">
	<ele>1091.20</ele>
	<time>2025-07-29T06:32:09.000Z</time>
</trkpt>
<trkpt lat="45.9124710" lon="10.2960260">
	<ele>1091.60</ele>
	<time>2025-07-29T06:32:10.000Z</time>
</trkpt>
<trkpt lat="45.9124670" lon="10.2960420">
	<ele>1091.80</ele>
	<time>2025-07-29T06:32:11.000Z</time>
</trkpt>
<trkpt lat="45.9124670" lon="10.2960480">
	<ele>1092.00</ele>
	<time>2025-07-29T06:32:12.000Z</time>
</trkpt>
<trkpt lat="45.9124630" lon="10.2960590">
	<ele>1092.20</ele>
	<time>2025-07-29T06:32:13.000Z</time>
</trkpt>
<trkpt lat="45.9124530" lon="10.2960700">
	<ele>1092.40</ele>
	<time>2025-07-29T06:32:14.000Z</time>
</trkpt>
<trkpt lat="45.9124450" lon="10.2960800">
	<ele>1092.60</ele>
	<time>2025-07-29T06:32:15.000Z</time>
</trkpt>
<trkpt lat="45.9124330" lon="10.2960930">
	<ele>1092.80</ele>
	<time>2025-07-29T06:32:16.000Z</time>
</trkpt>
<trkpt lat="45.9124230" lon="10.2960950">
	<ele>1093.00</ele>
	<time>2025-07-29T06:32:17.000Z</time>
</trkpt>
<trkpt lat="45.9124170" lon="10.2960940">
	<ele>1093.00</ele>
	<time>2025-07-29T06:32:18.000Z</time>
</trkpt>
<trkpt lat="45.9124150" lon="10.2961010">
	<ele>1093.40</ele>
	<time>2025-07-29T06:32:19.000Z</time>
</trkpt>
<trkpt lat="45.9124100" lon="10.2961140">
	<ele>1093.60</ele>
	<time>2025-07-29T06:32:20.000Z</time>
</trkpt>
<trkpt lat="45.9124070" lon="10.2961330">
	<ele>1094.00</ele>
	<time>2025-07-29T06:32:21.000Z</time>
</trkpt>
<trkpt lat="45.9124090" lon="10.2961470">
	<ele>1094.20</ele>
	<time>2025-07-29T06:32:22.000Z</time>
</trkpt>
<trkpt lat="45.9124130" lon="10.2961560">
	<ele>1094.40</ele>
	<time>2025-07-29T06:32:23.000Z</time>
</trkpt>
<trkpt lat="45.9124140" lon="10.2961640">
	<ele>1094.60</ele>
	<time>2025-07-29T06:32:24.000Z</time>
</trkpt>
<trkpt lat="45.9124010" lon="10.2961750">
	<ele>1094.80</ele>
	<time>2025-07-29T06:32:25.000Z</time>
</trkpt>
<trkpt lat="45.9124050" lon="10.2961890">
	<ele>1095.00</ele>
	<time>2025-07-29T06:32:26.000Z</time>
</trkpt>
<trkpt lat="45.9124030" lon="10.2961960">
	<ele>1095.20</ele>
	<time>2025-07-29T06:32:27.000Z</time>
</trkpt>
<trkpt lat="45.9124080" lon="10.2962080">
	<ele>1095.40</ele>
	<time>2025-07-29T06:32:28.000Z</time>
</trkpt>
<trkpt lat="45.9124240" lon="10.2962270">
	<ele>1095.40</ele>
	<time>2025-07-29T06:32:29.000Z</time>
</trkpt>
<trkpt lat="45.9124240" lon="10.2962650">
	<ele>1095.60</ele>
	<time>2025-07-29T06:32:30.000Z</time>
</trkpt>
<trkpt lat="45.9124260" lon="10.2962910">
	<ele>1095.80</ele>
	<time>2025-07-29T06:32:31.000Z</time>
</trkpt>
<trkpt lat="45.9124320" lon="10.2963020">
	<ele>1096.20</ele>
	<time>2025-07-29T06:32:32.000Z</time>
</trkpt>
<trkpt lat="45.9124410" lon="10.2963040">
	<ele>1096.40</ele>
	<time>2025-07-29T06:32:33.000Z</time>
</trkpt>
<trkpt lat="45.9124480" lon="10.2963150">
	<ele>1096.60</ele>
	<time>2025-07-29T06:32:34.000Z</time>
</trkpt>
<trkpt lat="45.9124570" lon="10.2963300">
	<ele>1096.80</ele>
	<time>2025-07-29T06:32:35.000Z</time>
</trkpt>
<trkpt lat="45.9124660" lon="10.2963600">
	<ele>1097.00</ele>
	<time>2025-07-29T06:32:36.000Z</time>
</trkpt>
<trkpt lat="45.9124680" lon="10.2963730">
	<ele>1097.20</ele>
	<time>2025-07-29T06:32:37.000Z</time>
</trkpt>
<trkpt lat="45.9124750" lon="10.2963820">
	<ele>1097.60</ele>
	<time>2025-07-29T06:32:38.000Z</time>
</trkpt>
<trkpt lat="45.9124880" lon="10.2963900">
	<ele>1097.60</ele>
	<time>2025-07-29T06:32:39.000Z</time>
</trkpt>
<trkpt lat="45.9124940" lon="10.2964050">
	<ele>1097.60</ele>
	<time>2025-07-29T06:32:40.000Z</time>
</trkpt>
<trkpt lat="45.9125000" lon="10.2964260">
	<ele>1097.80</ele>
	<time>2025-07-29T06:32:41.000Z</time>
</trkpt>
<trkpt lat="45.9125050" lon="10.2964460">
	<ele>1098.00</ele>
	<time>2025-07-29T06:32:42.000Z</time>
</trkpt>
<trkpt lat="45.9125080" lon="10.2964600">
	<ele>1098.20</ele>
	<time>2025-07-29T06:32:43.000Z</time>
</trkpt>
<trkpt lat="45.9125110" lon="10.2964700">
	<ele>1098.40</ele>
	<time>2025-07-29T06:32:44.000Z</time>
</trkpt>
<trkpt lat="45.9125150" lon="10.2964710">
	<ele>1098.60</ele>
	<time>2025-07-29T06:32:45.000Z</time>
</trkpt>
<trkpt lat="45.9125160" lon="10.2964780">
	<ele>1098.80</ele>
	<time>2025-07-29T06:32:46.000Z</time>
</trkpt>
<trkpt lat="45.9125220" lon="10.2964800">
	<ele>1099.20</ele>
	<time>2025-07-29T06:32:47.000Z</time>
</trkpt>
<trkpt lat="45.9125300" lon="10.2964840">
	<ele>1099.40</ele>
	<time>2025-07-29T06:32:48.000Z</time>
</trkpt>
<trkpt lat="45.9125360" lon="10.2964900">
	<ele>1099.60</ele>
	<time>2025-07-29T06:32:49.000Z</time>
</trkpt>
<trkpt lat="45.9125430" lon="10.2964830">
	<ele>1099.80</ele>
	<time>2025-07-29T06:32:50.000Z</time>
</trkpt>
<trkpt lat="45.9125380" lon="10.2964720">
	<ele>1099.80</ele>
	<time>2025-07-29T06:32:51.000Z</time>
</trkpt>
<trkpt lat="45.9125420" lon="10.2964720">
	<ele>1100.00</ele>
	<time>2025-07-29T06:32:52.000Z</time>
</trkpt>
<trkpt lat="45.9125450" lon="10.2964760">
	<ele>1100.20</ele>
	<time>2025-07-29T06:32:53.000Z</time>
</trkpt>
<trkpt lat="45.9125440" lon="10.2964790">
	<ele>1100.40</ele>
	<time>2025-07-29T06:32:54.000Z</time>
</trkpt>
<trkpt lat="45.9125450" lon="10.2964840">
	<ele>1100.60</ele>
	<time>2025-07-29T06:32:55.000Z</time>
</trkpt>
<trkpt lat="45.9125490" lon="10.2964960">
	<ele>1100.80</ele>
	<time>2025-07-29T06:32:56.000Z</time>
</trkpt>
<trkpt lat="45.9125450" lon="10.2965040">
	<ele>1101.00</ele>
	<time>2025-07-29T06:32:57.000Z</time>
</trkpt>
<trkpt lat="45.9125420" lon="10.2965000">
	<ele>1101.20</ele>
	<time>2025-07-29T06:32:58.000Z</time>
</trkpt>
<trkpt lat="45.9125380" lon="10.2964970">
	<ele>1101.40</ele>
	<time>2025-07-29T06:32:59.000Z</time>
</trkpt>
<trkpt lat="45.9125370" lon="10.2965030">
	<ele>1101.60</ele>
	<time>2025-07-29T06:33:00.000Z</time>
</trkpt>
<trkpt lat="45.9125270" lon="10.2965120">
	<ele>1101.80</ele>
	<time>2025-07-29T06:33:01.000Z</time>
</trkpt>
<trkpt lat="45.9125220" lon="10.2965210">
	<ele>1102.00</ele>
	<time>2025-07-29T06:33:02.000Z</time>
</trkpt>
<trkpt lat="45.9125100" lon="10.2965310">
	<ele>1102.20</ele>
	<time>2025-07-29T06:33:03.000Z</time>
</trkpt>
<trkpt lat="45.9125080" lon="10.2965370">
	<ele>1102.40</ele>
	<time>2025-07-29T06:33:04.000Z</time>
</trkpt>
<trkpt lat="45.9125050" lon="10.2965430">
	<ele>1102.60</ele>
	<time>2025-07-29T06:33:05.000Z</time>
</trkpt>
<trkpt lat="45.9124910" lon="10.2965470">
	<ele>1102.80</ele>
	<time>2025-07-29T06:33:06.000Z</time>
</trkpt>
<trkpt lat="45.9124820" lon="10.2965460">
	<ele>1103.00</ele>
	<time>2025-07-29T06:33:07.000Z</time>
</trkpt>
<trkpt lat="45.9124700" lon="10.2965490">
	<ele>1103.00</ele>
	<time>2025-07-29T06:33:08.000Z</time>
</trkpt>
<trkpt lat="45.9124650" lon="10.2965560">
	<ele>1103.40</ele>
	<time>2025-07-29T06:33:09.000Z</time>
</trkpt>
<trkpt lat="45.9124590" lon="10.2965570">
	<ele>1103.60</ele>
	<time>2025-07-29T06:33:10.000Z</time>
</trkpt>
<trkpt lat="45.9124610" lon="10.2965620">
	<ele>1103.80</ele>
	<time>2025-07-29T06:33:11.000Z</time>
</trkpt>
<trkpt lat="45.9124620" lon="10.2965730">
	<ele>1104.00</ele>
	<time>2025-07-29T06:33:12.000Z</time>
</trkpt>
<trkpt lat="45.9124570" lon="10.2965820">
	<ele>1104.20</ele>
	<time>2025-07-29T06:33:13.000Z</time>
</trkpt>
<trkpt lat="45.9124560" lon="10.2965880">
	<ele>1104.40</ele>
	<time>2025-07-29T06:33:14.000Z</time>
</trkpt>
<trkpt lat="45.9124490" lon="10.2965930">
	<ele>1104.60</ele>
	<time>2025-07-29T06:33:15.000Z</time>
</trkpt>
<trkpt lat="45.9124460" lon="10.2965960">
	<ele>1104.80</ele>
	<time>2025-07-29T06:33:16.000Z</time>
</trkpt>
<trkpt lat="45.9124290" lon="10.2965930">
	<ele>1105.00</ele>
	<time>2025-07-29T06:33:17.000Z</time>
</trkpt>
<trkpt lat="45.9124260" lon="10.2966000">
	<ele>1105.00</ele>
	<time>2025-07-29T06:33:18.000Z</time>
</trkpt>
<trkpt lat="45.9124150" lon="10.2966020">
	<ele>1105.20</ele>
	<time>2025-07-29T06:33:19.000Z</time>
</trkpt>
<trkpt lat="45.9124040" lon="10.2966090">
	<ele>1105.40</ele>
	<time>2025-07-29T06:33:20.000Z</time>
</trkpt>
<trkpt lat="45.9123940" lon="10.2966140">
	<ele>1105.60</ele>
	<time>2025-07-29T06:33:21.000Z</time>
</trkpt>
<trkpt lat="45.9123950" lon="10.2966240">
	<ele>1105.80</ele>
	<time>2025-07-29T06:33:22.000Z</time>
</trkpt>
<trkpt lat="45.9123900" lon="10.2966270">
	<ele>1106.00</ele>
	<time>2025-07-29T06:33:23.000Z</time>
</trkpt>
<trkpt lat="45.9123880" lon="10.2966310">
	<ele>1106.20</ele>
	<time>2025-07-29T06:33:24.000Z</time>
</trkpt>
<trkpt lat="45.9123860" lon="10.2966360">
	<ele>1106.40</ele>
	<time>2025-07-29T06:33:25.000Z</time>
</trkpt>
<trkpt lat="45.9123810" lon="10.2966410">
	<ele>1106.60</ele>
	<time>2025-07-29T06:33:26.000Z</time>
</trkpt>
<trkpt lat="45.9123780" lon="10.2966480">
	<ele>1106.80</ele>
	<time>2025-07-29T06:33:27.000Z</time>
</trkpt>
<trkpt lat="45.9123700" lon="10.2966570">
	<ele>1107.00</ele>
	<time>2025-07-29T06:33:28.000Z</time>
</trkpt>
<trkpt lat="45.9123630" lon="10.2966640">
	<ele>1107.20</ele>
	<time>2025-07-29T06:33:29.000Z</time>
</trkpt>
<trkpt lat="45.9123600" lon="10.2966720">
	<ele>1107.40</ele>
	<time>2025-07-29T06:33:30.000Z</time>
</trkpt>
<trkpt lat="45.9123550" lon="10.2966770">
	<ele>1107.60</ele>
	<time>2025-07-29T06:33:31.000Z</time>
</trkpt>
<trkpt lat="45.9123520" lon="10.2966820">
	<ele>1107.80</ele>
	<time>2025-07-29T06:33:32.000Z</time>
</trkpt>
<trkpt lat="45.9123470" lon="10.2966880">
	<ele>1108.00</ele>
	<time>2025-07-29T06:33:33.000Z</time>
</trkpt>
<trkpt lat="45.9123370" lon="10.2966900">
	<ele>1108.20</ele>
	<time>2025-07-29T06:33:34.000Z</time>
</trkpt>
<trkpt lat="45.9123260" lon="10.2966950">
	<ele>1108.40</ele>
	<time>2025-07-29T06:33:35.000Z</time>
</trkpt>
<trkpt lat="45.9123210" lon="10.2967000">
	<ele>1108.60</ele>
	<time>2025-07-29T06:33:36.000Z</time>
</trkpt>
<trkpt lat="45.9123220" lon="10.2967100">
	<ele>1108.80</ele>
	<time>2025-07-29T06:33:37.000Z</time>
</trkpt>
<trkpt lat="45.9123300" lon="10.2967340">
	<ele>1109.00</ele>
	<time>2025-07-29T06:33:38.000Z</time>
</trkpt>
<trkpt lat="45.9123340" lon="10.2967490">
	<ele>1109.20</ele>
	<time>2025-07-29T06:33:39.000Z</time>
</trkpt>
<trkpt lat="45.9123280" lon="10.2967550">
	<ele>1109.20</ele>
	<time>2025-07-29T06:33:40.000Z</time>
</trkpt>
<trkpt lat="45.9123170" lon="10.2967590">
	<ele>1109.60</ele>
	<time>2025-07-29T06:33:41.000Z</time>
</trkpt>
<trkpt lat="45.9122990" lon="10.2967720">
	<ele>1109.80</ele>
	<time>2025-07-29T06:33:42.000Z</time>
</trkpt>
<trkpt lat="45.9122850" lon="10.2967840">
	<ele>1110.00</ele>
	<time>2025-07-29T06:33:43.000Z</time>
</trkpt>
<trkpt lat="45.9122720" lon="10.2967970">
	<ele>1110.20</ele>
	<time>2025-07-29T06:33:44.000Z</time>
</trkpt>
<trkpt lat="45.9122640" lon="10.2968050">
	<ele>1110.20</ele>
	<time>2025-07-29T06:33:45.000Z</time>
</trkpt>
<trkpt lat="45.9122620" lon="10.2968130">
	<ele>1110.40</ele>
	<time>2025-07-29T06:33:46.000Z</time>
</trkpt>
<trkpt lat="45.9122560" lon="10.2968220">
	<ele>1110.80</ele>
	<time>2025-07-29T06:33:47.000Z</time>
</trkpt>
<trkpt lat="45.9122520" lon="10.2968260">
	<ele>1110.80</ele>
	<time>2025-07-29T06:33:48.000Z</time>
</trkpt>
<trkpt lat="45.9122430" lon="10.2968250">
	<ele>1111.00</ele>
	<time>2025-07-29T06:33:49.000Z</time>
</trkpt>
<trkpt lat="45.9122340" lon="10.2968310">
	<ele>1111.20</ele>
	<time>2025-07-29T06:33:50.000Z</time>
</trkpt>
<trkpt lat="45.9122260" lon="10.2968350">
	<ele>1111.60</ele>
	<time>2025-07-29T06:33:51.000Z</time>
</trkpt>
<trkpt lat="45.9122170" lon="10.2968380">
	<ele>1111.80</ele>
	<time>2025-07-29T06:33:52.000Z</time>
</trkpt>
<trkpt lat="45.9122080" lon="10.2968460">
	<ele>1112.00</ele>
	<time>2025-07-29T06:33:53.000Z</time>
</trkpt>
<trkpt lat="45.9121990" lon="10.2968510">
	<ele>1112.20</ele>
	<time>2025-07-29T06:33:54.000Z</time>
</trkpt>
<trkpt lat="45.9121970" lon="10.2968550">
	<ele>1112.40</ele>
	<time>2025-07-29T06:33:55.000Z</time>
</trkpt>
<trkpt lat="45.9121970" lon="10.2968590">
	<ele>1112.60</ele>
	<time>2025-07-29T06:33:56.000Z</time>
</trkpt>
<trkpt lat="45.9121930" lon="10.2968640">
	<ele>1112.80</ele>
	<time>2025-07-29T06:33:57.000Z</time>
</trkpt>
<trkpt lat="45.9121900" lon="10.2968690">
	<ele>1113.00</ele>
	<time>2025-07-29T06:33:58.000Z</time>
</trkpt>
<trkpt lat="45.9121910" lon="10.2968740">
	<ele>1113.20</ele>
	<time>2025-07-29T06:33:59.000Z</time>
</trkpt>
<trkpt lat="45.9121970" lon="10.2968840">
	<ele>1113.40</ele>
	<time>2025-07-29T06:34:00.000Z</time>
</trkpt>
<trkpt lat="45.9121970" lon="10.2968910">
	<ele>1113.60</ele>
	<time>2025-07-29T06:34:01.000Z</time>
</trkpt>
<trkpt lat="45.9121950" lon="10.2968990">
	<ele>1113.60</ele>
	<time>2025-07-29T06:34:02.000Z</time>
</trkpt>
<trkpt lat="45.9121940" lon="10.2969020">
	<ele>1113.80</ele>
	<time>2025-07-29T06:34:03.000Z</time>
</trkpt>
<trkpt lat="45.9121940" lon="10.2969070">
	<ele>1114.00</ele>
	<time>2025-07-29T06:34:04.000Z</time>
</trkpt>
<trkpt lat="45.9121930" lon="10.2969140">
	<ele>1114.20</ele>
	<time>2025-07-29T06:34:05.000Z</time>
</trkpt>
<trkpt lat="45.9121940" lon="10.2969250">
	<ele>1114.60</ele>
	<time>2025-07-29T06:34:06.000Z</time>
</trkpt>
<trkpt lat="45.9121930" lon="10.2969320">
	<ele>1114.80</ele>
	<time>2025-07-29T06:34:07.000Z</time>
</trkpt>
<trkpt lat="45.9121860" lon="10.2969440">
	<ele>1115.00</ele>
	<time>2025-07-29T06:34:08.000Z</time>
</trkpt>
<trkpt lat="45.9121810" lon="10.2969500">
	<ele>1115.20</ele>
	<time>2025-07-29T06:34:09.000Z</time>
</trkpt>
<trkpt lat="45.9121790" lon="10.2969580">
	<ele>1115.40</ele>
	<time>2025-07-29T06:34:10.000Z</time>
</trkpt>
<trkpt lat="45.9121750" lon="10.2969630">
	<ele>1115.60</ele>
	<time>2025-07-29T06:34:11.000Z</time>
</trkpt>
<trkpt lat="45.9121690" lon="10.2969690">
	<ele>1115.80</ele>
	<time>2025-07-29T06:34:12.000Z</time>
</trkpt>
<trkpt lat="45.9121660" lon="10.2969750">
	<ele>1116.00</ele>
	<time>2025-07-29T06:34:13.000Z</time>
</trkpt>
<trkpt lat="45.9121650" lon="10.2969850">
	<ele>1116.40</ele>
	<time>2025-07-29T06:34:14.000Z</time>
</trkpt>
<trkpt lat="45.9121620" lon="10.2969960">
	<ele>1116.60</ele>
	<time>2025-07-29T06:34:15.000Z</time>
</trkpt>
<trkpt lat="45.9121610" lon="10.2970030">
	<ele>1116.80</ele>
	<time>2025-07-29T06:34:16.000Z</time>
</trkpt>
<trkpt lat="45.9121560" lon="10.2970080">
	<ele>1117.20</ele>
	<time>2025-07-29T06:34:17.000Z</time>
</trkpt>
<trkpt lat="45.9121490" lon="10.2970090">
	<ele>1117.40</ele>
	<time>2025-07-29T06:34:18.000Z</time>
</trkpt>
<trkpt lat="45.9121460" lon="10.2970120">
	<ele>1117.60</ele>
	<time>2025-07-29T06:34:19.000Z</time>
</trkpt>
<trkpt lat="45.9121420" lon="10.2970130">
	<ele>1118.00</ele>
	<time>2025-07-29T06:34:20.000Z</time>
</trkpt>
<trkpt lat="45.9121370" lon="10.2970140">
	<ele>1118.20</ele>
	<time>2025-07-29T06:34:21.000Z</time>
</trkpt>
<trkpt lat="45.9121320" lon="10.2970210">
	<ele>1118.20</ele>
	<time>2025-07-29T06:34:22.000Z</time>
</trkpt>
<trkpt lat="45.9121280" lon="10.2970200">
	<ele>1118.40</ele>
	<time>2025-07-29T06:34:23.000Z</time>
</trkpt>
<trkpt lat="45.9121250" lon="10.2970220">
	<ele>1118.80</ele>
	<time>2025-07-29T06:34:24.000Z</time>
</trkpt>
<trkpt lat="45.9121220" lon="10.2970250">
	<ele>1119.00</ele>
	<time>2025-07-29T06:34:25.000Z</time>
</trkpt>
<trkpt lat="45.9121130" lon="10.2970260">
	<ele>1119.00</ele>
	<time>2025-07-29T06:34:26.000Z</time>
</trkpt>
<trkpt lat="45.9121060" lon="10.2970280">
	<ele>1119.40</ele>
	<time>2025-07-29T06:34:27.000Z</time>
</trkpt>
<trkpt lat="45.9121050" lon="10.2970260">
	<ele>1119.60</ele>
	<time>2025-07-29T06:34:28.000Z</time>
</trkpt>
<trkpt lat="45.9120940" lon="10.2970250">
	<ele>1120.00</ele>
	<time>2025-07-29T06:34:29.000Z</time>
</trkpt>
<trkpt lat="45.9120820" lon="10.2970260">
	<ele>1120.20</ele>
	<time>2025-07-29T06:34:30.000Z</time>
</trkpt>
<trkpt lat="45.9120780" lon="10.2970290">
	<ele>1120.20</ele>
	<time>2025-07-29T06:34:31.000Z</time>
</trkpt>
<trkpt lat="45.9120680" lon="10.2970270">
	<ele>1120.60</ele>
	<time>2025-07-29T06:34:32.000Z</time>
</trkpt>
<trkpt lat="45.9120620" lon="10.2970270">
	<ele>1120.80</ele>
	<time>2025-07-29T06:34:33.000Z</time>
</trkpt>
<trkpt lat="45.9120520" lon="10.2970300">
	<ele>1121.00</ele>
	<time>2025-07-29T06:34:34.000Z</time>
</trkpt>
<trkpt lat="45.9120400" lon="10.2970330">
	<ele>1121.20</ele>
	<time>2025-07-29T06:34:35.000Z</time>
</trkpt>
<trkpt lat="45.9120170" lon="10.2970350">
	<ele>1121.20</ele>
	<time>2025-07-29T06:34:36.000Z</time>
</trkpt>
<trkpt lat="45.9120040" lon="10.2970360">
	<ele>1121.40</ele>
	<time>2025-07-29T06:34:37.000Z</time>
</trkpt>
<trkpt lat="45.9119930" lon="10.2970370">
	<ele>1121.80</ele>
	<time>2025-07-29T06:34:38.000Z</time>
</trkpt>
<trkpt lat="45.9119810" lon="10.2970410">
	<ele>1121.80</ele>
	<time>2025-07-29T06:34:39.000Z</time>
</trkpt>
<trkpt lat="45.9119740" lon="10.2970460">
	<ele>1122.00</ele>
	<time>2025-07-29T06:34:40.000Z</time>
</trkpt>
<trkpt lat="45.9119690" lon="10.2970470">
	<ele>1122.20</ele>
	<time>2025-07-29T06:34:41.000Z</time>
</trkpt>
<trkpt lat="45.9119670" lon="10.2970470">
	<ele>1122.40</ele>
	<time>2025-07-29T06:34:42.000Z</time>
</trkpt>
<trkpt lat="45.9119660" lon="10.2970490">
	<ele>1122.60</ele>
	<time>2025-07-29T06:34:43.000Z</time>
</trkpt>
<trkpt lat="45.9119650" lon="10.2970520">
	<ele>1122.80</ele>
	<time>2025-07-29T06:34:44.000Z</time>
</trkpt>
<trkpt lat="45.9119650" lon="10.2970540">
	<ele>1122.80</ele>
	<time>2025-07-29T06:34:45.000Z</time>
</trkpt>
<trkpt lat="45.9119690" lon="10.2970590">
	<ele>1123.00</ele>
	<time>2025-07-29T06:34:46.000Z</time>
</trkpt>
<trkpt lat="45.9119680" lon="10.2970620">
	<ele>1123.20</ele>
	<time>2025-07-29T06:34:47.000Z</time>
</trkpt>
<trkpt lat="45.9119650" lon="10.2970680">
	<ele>1123.40</ele>
	<time>2025-07-29T06:34:48.000Z</time>
</trkpt>
<trkpt lat="45.9119520" lon="10.2970830">
	<ele>1123.60</ele>
	<time>2025-07-29T06:34:49.000Z</time>
</trkpt>
<trkpt lat="45.9119410" lon="10.2970910">
	<ele>1124.00</ele>
	<time>2025-07-29T06:34:50.000Z</time>
</trkpt>
<trkpt lat="45.9119340" lon="10.2970950">
	<ele>1124.20</ele>
	<time>2025-07-29T06:34:51.000Z</time>
</trkpt>
<trkpt lat="45.9119260" lon="10.2971030">
	<ele>1124.40</ele>
	<time>2025-07-29T06:34:52.000Z</time>
</trkpt>
<trkpt lat="45.9119170" lon="10.2971040">
	<ele>1124.60</ele>
	<time>2025-07-29T06:34:53.000Z</time>
</trkpt>
<trkpt lat="45.9119090" lon="10.2971070">
	<ele>1124.80</ele>
	<time>2025-07-29T06:34:54.000Z</time>
</trkpt>
<trkpt lat="45.9119080" lon="10.2971100">
	<ele>1124.80</ele>
	<time>2025-07-29T06:34:55.000Z</time>
</trkpt>
<trkpt lat="45.9119060" lon="10.2971090">
	<ele>1125.00</ele>
	<time>2025-07-29T06:34:56.000Z</time>
</trkpt>
<trkpt lat="45.9119020" lon="10.2971000">
	<ele>1125.20</ele>
	<time>2025-07-29T06:34:57.000Z</time>
</trkpt>
<trkpt lat="45.9118960" lon="10.2971000">
	<ele>1125.60</ele>
	<time>2025-07-29T06:34:58.000Z</time>
</trkpt>
<trkpt lat="45.9118860" lon="10.2970990">
	<ele>1125.80</ele>
	<time>2025-07-29T06:34:59.000Z</time>
</trkpt>
<trkpt lat="45.9118740" lon="10.2970960">
	<ele>1126.00</ele>
	<time>2025-07-29T06:35:00.000Z</time>
</trkpt>
<trkpt lat="45.9118620" lon="10.2970900">
	<ele>1126.20</ele>
	<time>2025-07-29T06:35:01.000Z</time>
</trkpt>
<trkpt lat="45.9118570" lon="10.2970800">
	<ele>1126.60</ele>
	<time>2025-07-29T06:35:02.000Z</time>
</trkpt>
<trkpt lat="45.9118500" lon="10.2970800">
	<ele>1126.80</ele>
	<time>2025-07-29T06:35:03.000Z</time>
</trkpt>
<trkpt lat="45.9118440" lon="10.2970840">
	<ele>1126.80</ele>
	<time>2025-07-29T06:35:04.000Z</time>
</trkpt>
<trkpt lat="45.9118330" lon="10.2970860">
	<ele>1127.00</ele>
	<time>2025-07-29T06:35:05.000Z</time>
</trkpt>
<trkpt lat="45.9118230" lon="10.2970980">
	<ele>1127.20</ele>
	<time>2025-07-29T06:35:06.000Z</time>
</trkpt>
<trkpt lat="45.9118080" lon="10.2971080">
	<ele>1127.60</ele>
	<time>2025-07-29T06:35:07.000Z</time>
</trkpt>
<trkpt lat="45.9117960" lon="10.2971220">
	<ele>1127.80</ele>
	<time>2025-07-29T06:35:08.000Z</time>
</trkpt>
<trkpt lat="45.9117920" lon="10.2971340">
	<ele>1128.00</ele>
	<time>2025-07-29T06:35:09.000Z</time>
</trkpt>
<trkpt lat="45.9117940" lon="10.2971350">
	<ele>1128.20</ele>
	<time>2025-07-29T06:35:10.000Z</time>
</trkpt>
<trkpt lat="45.9118000" lon="10.2971410">
	<ele>1128.40</ele>
	<time>2025-07-29T06:35:11.000Z</time>
</trkpt>
<trkpt lat="45.9118020" lon="10.2971430">
	<ele>1128.40</ele>
	<time>2025-07-29T06:35:12.000Z</time>
</trkpt>
<trkpt lat="45.9117990" lon="10.2971470">
	<ele>1128.60</ele>
	<time>2025-07-29T06:35:13.000Z</time>
</trkpt>
<trkpt lat="45.9117970" lon="10.2971540">
	<ele>1128.60</ele>
	<time>2025-07-29T06:35:14.000Z</time>
</trkpt>
<trkpt lat="45.9117950" lon="10.2971560">
	<ele>1128.80</ele>
	<time>2025-07-29T06:35:15.000Z</time>
</trkpt>
<trkpt lat="45.9117890" lon="10.2971550">
	<ele>1128.80</ele>
	<time>2025-07-29T06:35:16.000Z</time>
</trkpt>
<trkpt lat="45.9117870" lon="10.2971480">
	<ele>1129.00</ele>
	<time>2025-07-29T06:35:17.000Z</time>
</trkpt>
<trkpt lat="45.9117920" lon="10.2971430">
	<ele>1129.00</ele>
	<time>2025-07-29T06:35:18.000Z</time>
</trkpt>
<trkpt lat="45.9117950" lon="10.2971430">
	<ele>1129.40</ele>
	<time>2025-07-29T06:35:19.000Z</time>
</trkpt>
<trkpt lat="45.9117890" lon="10.2971380">
	<ele>1129.80</ele>
	<time>2025-07-29T06:35:20.000Z</time>
</trkpt>
<trkpt lat="45.9117880" lon="10.2971400">
	<ele>1130.00</ele>
	<time>2025-07-29T06:35:21.000Z</time>
</trkpt>
<trkpt lat="45.9117910" lon="10.2971440">
	<ele>1130.00</ele>
	<time>2025-07-29T06:35:22.000Z</time>
</trkpt>
<trkpt lat="45.9117940" lon="10.2971440">
	<ele>1130.20</ele>
	<time>2025-07-29T06:35:23.000Z</time>
</trkpt>
<trkpt lat="45.9117820" lon="10.2971360">
	<ele>1130.40</ele>
	<time>2025-07-29T06:35:24.000Z</time>
</trkpt>
<trkpt lat="45.9117730" lon="10.2971310">
	<ele>1130.60</ele>
	<time>2025-07-29T06:35:25.000Z</time>
</trkpt>
<trkpt lat="45.9117650" lon="10.2971280">
	<ele>1130.60</ele>
	<time>2025-07-29T06:35:26.000Z</time>
</trkpt>
<trkpt lat="45.9117580" lon="10.2971300">
	<ele>1130.80</ele>
	<time>2025-07-29T06:35:27.000Z</time>
</trkpt>
<trkpt lat="45.9117480" lon="10.2971250">
	<ele>1131.00</ele>
	<time>2025-07-29T06:35:28.000Z</time>
</trkpt>
<trkpt lat="45.9117400" lon="10.2971160">
	<ele>1131.20</ele>
	<time>2025-07-29T06:35:29.000Z</time>
</trkpt>
<trkpt lat="45.9117240" lon="10.2971020">
	<ele>1131.40</ele>
	<time>2025-07-29T06:35:30.000Z</time>
</trkpt>
<trkpt lat="45.9117060" lon="10.2971050">
	<ele>1131.60</ele>
	<time>2025-07-29T06:35:31.000Z</time>
</trkpt>
<trkpt lat="45.9116970" lon="10.2971160">
	<ele>1131.80</ele>
	<time>2025-07-29T06:35:32.000Z</time>
</trkpt>
<trkpt lat="45.9116900" lon="10.2971200">
	<ele>1132.00</ele>
	<time>2025-07-29T06:35:33.000Z</time>
</trkpt>
<trkpt lat="45.9116710" lon="10.2971170">
	<ele>1132.20</ele>
	<time>2025-07-29T06:35:34.000Z</time>
</trkpt>
<trkpt lat="45.9116630" lon="10.2971180">
	<ele>1132.40</ele>
	<time>2025-07-29T06:35:35.000Z</time>
</trkpt>
<trkpt lat="45.9116540" lon="10.2971090">
	<ele>1132.60</ele>
	<time>2025-07-29T06:35:36.000Z</time>
</trkpt>
<trkpt lat="45.9116430" lon="10.2971050">
	<ele>1132.80</ele>
	<time>2025-07-29T06:35:37.000Z</time>
</trkpt>
<trkpt lat="45.9116310" lon="10.2971030">
	<ele>1133.00</ele>
	<time>2025-07-29T06:35:38.000Z</time>
</trkpt>
<trkpt lat="45.9116280" lon="10.2971060">
	<ele>1133.20</ele>
	<time>2025-07-29T06:35:39.000Z</time>
</trkpt>
<trkpt lat="45.9116300" lon="10.2971060">
	<ele>1133.20</ele>
	<time>2025-07-29T06:35:40.000Z</time>
</trkpt>
<trkpt lat="45.9116340" lon="10.2971070">
	<ele>1133.60</ele>
	<time>2025-07-29T06:35:41.000Z</time>
</trkpt>
<trkpt lat="45.9116400" lon="10.2971150">
	<ele>1133.80</ele>
	<time>2025-07-29T06:35:42.000Z</time>
</trkpt>
<trkpt lat="45.9116430" lon="10.2971250">
	<ele>1134.00</ele>
	<time>2025-07-29T06:35:43.000Z</time>
</trkpt>
<trkpt lat="45.9116450" lon="10.2971380">
	<ele>1134.00</ele>
	<time>2025-07-29T06:35:44.000Z</time>
</trkpt>
<trkpt lat="45.9116370" lon="10.2971430">
	<ele>1134.20</ele>
	<time>2025-07-29T06:35:45.000Z</time>
</trkpt>
<trkpt lat="45.9116310" lon="10.2971520">
	<ele>1134.40</ele>
	<time>2025-07-29T06:35:46.000Z</time>
</trkpt>
<trkpt lat="45.9116190" lon="10.2971550">
	<ele>1134.40</ele>
	<time>2025-07-29T06:35:47.000Z</time>
</trkpt>
<trkpt lat="45.9116040" lon="10.2971550">
	<ele>1134.40</ele>
	<time>2025-07-29T06:35:48.000Z</time>
</trkpt>
<trkpt lat="45.9115950" lon="10.2971580">
	<ele>1134.60</ele>
	<time>2025-07-29T06:35:49.000Z</time>
</trkpt>
<trkpt lat="45.9115940" lon="10.2971610">
	<ele>1134.80</ele>
	<time>2025-07-29T06:35:50.000Z</time>
</trkpt>
<trkpt lat="45.9115930" lon="10.2971640">
	<ele>1135.00</ele>
	<time>2025-07-29T06:35:51.000Z</time>
</trkpt>
<trkpt lat="45.9115780" lon="10.2971690">
	<ele>1135.20</ele>
	<time>2025-07-29T06:35:52.000Z</time>
</trkpt>
<trkpt lat="45.9115730" lon="10.2971720">
	<ele>1135.40</ele>
	<time>2025-07-29T06:35:53.000Z</time>
</trkpt>
<trkpt lat="45.9115720" lon="10.2971710">
	<ele>1135.80</ele>
	<time>2025-07-29T06:35:54.000Z</time>
</trkpt>
<trkpt lat="45.9115620" lon="10.2971690">
	<ele>1135.80</ele>
	<time>2025-07-29T06:35:55.000Z</time>
</trkpt>
<trkpt lat="45.9115560" lon="10.2971770">
	<ele>1136.00</ele>
	<time>2025-07-29T06:35:56.000Z</time>
</trkpt>
<trkpt lat="45.9115440" lon="10.2971800">
	<ele>1136.20</ele>
	<time>2025-07-29T06:35:57.000Z</time>
</trkpt>
<trkpt lat="45.9115310" lon="10.2971800">
	<ele>1136.20</ele>
	<time>2025-07-29T06:35:58.000Z</time>
</trkpt>
<trkpt lat="45.9115280" lon="10.2971840">
	<ele>1136.20</ele>
	<time>2025-07-29T06:35:59.000Z</time>
</trkpt>
<trkpt lat="45.9115140" lon="10.2971880">
	<ele>1136.40</ele>
	<time>2025-07-29T06:36:00.000Z</time>
</trkpt>
<trkpt lat="45.9115020" lon="10.2971900">
	<ele>1136.60</ele>
	<time>2025-07-29T06:36:01.000Z</time>
</trkpt>
<trkpt lat="45.9114950" lon="10.2971930">
	<ele>1136.80</ele>
	<time>2025-07-29T06:36:02.000Z</time>
</trkpt>
<trkpt lat="45.9114840" lon="10.2971960">
	<ele>1137.00</ele>
	<time>2025-07-29T06:36:03.000Z</time>
</trkpt>
<trkpt lat="45.9114720" lon="10.2972010">
	<ele>1137.20</ele>
	<time>2025-07-29T06:36:04.000Z</time>
</trkpt>
<trkpt lat="45.9114580" lon="10.2972060">
	<ele>1137.40</ele>
	<time>2025-07-29T06:36:05.000Z</time>
</trkpt>
<trkpt lat="45.9114450" lon="10.2972110">
	<ele>1137.60</ele>
	<time>2025-07-29T06:36:06.000Z</time>
</trkpt>
<trkpt lat="45.9114410" lon="10.2972120">
	<ele>1137.80</ele>
	<time>2025-07-29T06:36:07.000Z</time>
</trkpt>
<trkpt lat="45.9114340" lon="10.2972130">
	<ele>1138.00</ele>
	<time>2025-07-29T06:36:08.000Z</time>
</trkpt>
<trkpt lat="45.9114280" lon="10.2972190">
	<ele>1138.20</ele>
	<time>2025-07-29T06:36:09.000Z</time>
</trkpt>
<trkpt lat="45.9114320" lon="10.2972290">
	<ele>1138.20</ele>
	<time>2025-07-29T06:36:10.000Z</time>
</trkpt>
<trkpt lat="45.9114270" lon="10.2972320">
	<ele>1138.20</ele>
	<time>2025-07-29T06:36:11.000Z</time>
</trkpt>
<trkpt lat="45.9114130" lon="10.2972390">
	<ele>1138.40</ele>
	<time>2025-07-29T06:36:12.000Z</time>
</trkpt>
<trkpt lat="45.9113910" lon="10.2972450">
	<ele>1138.40</ele>
	<time>2025-07-29T06:36:13.000Z</time>
</trkpt>
<trkpt lat="45.9113690" lon="10.2972430">
	<ele>1138.40</ele>
	<time>2025-07-29T06:36:14.000Z</time>
</trkpt>
<trkpt lat="45.9113540" lon="10.2972450">
	<ele>1138.60</ele>
	<time>2025-07-29T06:36:15.000Z</time>
</trkpt>
<trkpt lat="45.9113390" lon="10.2972570">
	<ele>1138.60</ele>
	<time>2025-07-29T06:36:16.000Z</time>
</trkpt>
<trkpt lat="45.9113170" lon="10.2972580">
	<ele>1138.80</ele>
	<time>2025-07-29T06:36:17.000Z</time>
</trkpt>
<trkpt lat="45.9113070" lon="10.2972580">
	<ele>1138.80</ele>
	<time>2025-07-29T06:36:18.000Z</time>
</trkpt>
<trkpt lat="45.9112950" lon="10.2972630">
	<ele>1139.00</ele>
	<time>2025-07-29T06:36:19.000Z</time>
</trkpt>
<trkpt lat="45.9112800" lon="10.2972680">
	<ele>1139.00</ele>
	<time>2025-07-29T06:36:20.000Z</time>
</trkpt>
<trkpt lat="45.9112670" lon="10.2972770">
	<ele>1139.20</ele>
	<time>2025-07-29T06:36:21.000Z</time>
</trkpt>
<trkpt lat="45.9112630" lon="10.2972970">
	<ele>1139.20</ele>
	<time>2025-07-29T06:36:22.000Z</time>
</trkpt>
<trkpt lat="45.9112620" lon="10.2973100">
	<ele>1139.40</ele>
	<time>2025-07-29T06:36:23.000Z</time>
</trkpt>
<trkpt lat="45.9112520" lon="10.2973250">
	<ele>1139.40</ele>
	<time>2025-07-29T06:36:24.000Z</time>
</trkpt>
<trkpt lat="45.9112410" lon="10.2973340">
	<ele>1139.60</ele>
	<time>2025-07-29T06:36:25.000Z</time>
</trkpt>
<trkpt lat="45.9112350" lon="10.2973390">
	<ele>1139.80</ele>
	<time>2025-07-29T06:36:26.000Z</time>
</trkpt>
<trkpt lat="45.9112260" lon="10.2973460">
	<ele>1139.80</ele>
	<time>2025-07-29T06:36:27.000Z</time>
</trkpt>
<trkpt lat="45.9112200" lon="10.2973550">
	<ele>1139.80</ele>
	<time>2025-07-29T06:36:28.000Z</time>
</trkpt>
<trkpt lat="45.9112080" lon="10.2973660">
	<ele>1140.00</ele>
	<time>2025-07-29T06:36:29.000Z</time>
</trkpt>
<trkpt lat="45.9112000" lon="10.2973690">
	<ele>1140.20</ele>
	<time>2025-07-29T06:36:30.000Z</time>
</trkpt>
<trkpt lat="45.9111910" lon="10.2973770">
	<ele>1140.20</ele>
	<time>2025-07-29T06:36:31.000Z</time>
</trkpt>
<trkpt lat="45.9111780" lon="10.2973790">
	<ele>1140.40</ele>
	<time>2025-07-29T06:36:32.000Z</time>
</trkpt>
<trkpt lat="45.9111710" lon="10.2973790">
	<ele>1140.60</ele>
	<time>2025-07-29T06:36:33.000Z</time>
</trkpt>
<trkpt lat="45.9111660" lon="10.2973800">
	<ele>1140.60</ele>
	<time>2025-07-29T06:36:34.000Z</time>
</trkpt>
<trkpt lat="45.9111560" lon="10.2973840">
	<ele>1141.00</ele>
	<time>2025-07-29T06:36:35.000Z</time>
</trkpt>
<trkpt lat="45.9111520" lon="10.2973940">
	<ele>1141.00</ele>
	<time>2025-07-29T06:36:36.000Z</time>
</trkpt>
<trkpt lat="45.9111500" lon="10.2974090">
	<ele>1141.20</ele>
	<time>2025-07-29T06:36:37.000Z</time>
</trkpt>
<trkpt lat="45.9111380" lon="10.2974150">
	<ele>1141.40</ele>
	<time>2025-07-29T06:36:38.000Z</time>
</trkpt>
<trkpt lat="45.9111270" lon="10.2974320">
	<ele>1141.60</ele>
	<time>2025-07-29T06:36:39.000Z</time>
</trkpt>
<trkpt lat="45.9111150" lon="10.2974430">
	<ele>1141.80</ele>
	<time>2025-07-29T06:36:40.000Z</time>
</trkpt>
<trkpt lat="45.9111100" lon="10.2974550">
	<ele>1141.80</ele>
	<time>2025-07-29T06:36:41.000Z</time>
</trkpt>
<trkpt lat="45.9111070" lon="10.2974710">
	<ele>1142.00</ele>
	<time>2025-07-29T06:36:42.000Z</time>
</trkpt>
<trkpt lat="45.9111090" lon="10.2974880">
	<ele>1142.20</ele>
	<time>2025-07-29T06:36:43.000Z</time>
</trkpt>
<trkpt lat="45.9111020" lon="10.2974940">
	<ele>1142.40</ele>
	<time>2025-07-29T06:36:44.000Z</time>
</trkpt>
<trkpt lat="45.9110940" lon="10.2975000">
	<ele>1142.60</ele>
	<time>2025-07-29T06:36:45.000Z</time>
</trkpt>
<trkpt lat="45.9110880" lon="10.2975130">
	<ele>1143.00</ele>
	<time>2025-07-29T06:36:46.000Z</time>
</trkpt>
<trkpt lat="45.9110800" lon="10.2975120">
	<ele>1143.20</ele>
	<time>2025-07-29T06:36:47.000Z</time>
</trkpt>
<trkpt lat="45.9110680" lon="10.2975060">
	<ele>1143.40</ele>
	<time>2025-07-29T06:36:48.000Z</time>
</trkpt>
<trkpt lat="45.9110620" lon="10.2975050">
	<ele>1143.60</ele>
	<time>2025-07-29T06:36:49.000Z</time>
</trkpt>
<trkpt lat="45.9110620" lon="10.2975140">
	<ele>1143.60</ele>
	<time>2025-07-29T06:36:50.000Z</time>
</trkpt>
<trkpt lat="45.9110540" lon="10.2975150">
	<ele>1143.80</ele>
	<time>2025-07-29T06:36:51.000Z</time>
</trkpt>
<trkpt lat="45.9110440" lon="10.2975130">
	<ele>1144.00</ele>
	<time>2025-07-29T06:36:52.000Z</time>
</trkpt>
<trkpt lat="45.9110340" lon="10.2975110">
	<ele>1144.20</ele>
	<time>2025-07-29T06:36:53.000Z</time>
</trkpt>
<trkpt lat="45.9110240" lon="10.2975130">
	<ele>1144.40</ele>
	<time>2025-07-29T06:36:54.000Z</time>
</trkpt>
<trkpt lat="45.9110120" lon="10.2975200">
	<ele>1144.40</ele>
	<time>2025-07-29T06:36:55.000Z</time>
</trkpt>
<trkpt lat="45.9109990" lon="10.2975260">
	<ele>1144.40</ele>
	<time>2025-07-29T06:36:56.000Z</time>
</trkpt>
<trkpt lat="45.9109840" lon="10.2975340">
	<ele>1144.60</ele>
	<time>2025-07-29T06:36:57.000Z</time>
</trkpt>
<trkpt lat="45.9109700" lon="10.2975410">
	<ele>1144.80</ele>
	<time>2025-07-29T06:36:58.000Z</time>
</trkpt>
<trkpt lat="45.9109570" lon="10.2975460">
	<ele>1145.00</ele>
	<time>2025-07-29T06:36:59.000Z</time>
</trkpt>
<trkpt lat="45.9109480" lon="10.2975450">
	<ele>1145.20</ele>
	<time>2025-07-29T06:37:00.000Z</time>
</trkpt>
<trkpt lat="45.9109410" lon="10.2975420">
	<ele>1145.40</ele>
	<time>2025-07-29T06:37:01.000Z</time>
</trkpt>
<trkpt lat="45.9109330" lon="10.2975400">
	<ele>1145.40</ele>
	<time>2025-07-29T06:37:02.000Z</time>
</trkpt>
<trkpt lat="45.9109340" lon="10.2975390">
	<ele>1145.60</ele>
	<time>2025-07-29T06:37:03.000Z</time>
</trkpt>
<trkpt lat="45.9109350" lon="10.2975350">
	<ele>1145.80</ele>
	<time>2025-07-29T06:37:04.000Z</time>
</trkpt>
<trkpt lat="45.9109400" lon="10.2975290">
	<ele>1146.00</ele>
	<time>2025-07-29T06:37:05.000Z</time>
</trkpt>
<trkpt lat="45.9109420" lon="10.2975280">
	<ele>1146.20</ele>
	<time>2025-07-29T06:37:06.000Z</time>
</trkpt>
<trkpt lat="45.9109400" lon="10.2975240">
	<ele>1146.20</ele>
	<time>2025-07-29T06:37:07.000Z</time>
</trkpt>
<trkpt lat="45.9109410" lon="10.2975240">
	<ele>1146.60</ele>
	<time>2025-07-29T06:37:08.000Z</time>
</trkpt>
<trkpt lat="45.9109380" lon="10.2975240">
	<ele>1146.80</ele>
	<time>2025-07-29T06:37:09.000Z</time>
</trkpt>
<trkpt lat="45.9109370" lon="10.2975260">
	<ele>1147.00</ele>
	<time>2025-07-29T06:37:10.000Z</time>
</trkpt>
<trkpt lat="45.9109340" lon="10.2975280">
	<ele>1147.00</ele>
	<time>2025-07-29T06:37:11.000Z</time>
</trkpt>
<trkpt lat="45.9109260" lon="10.2975270">
	<ele>1147.20</ele>
	<time>2025-07-29T06:37:12.000Z</time>
</trkpt>
<trkpt lat="45.9109200" lon="10.2975230">
	<ele>1147.40</ele>
	<time>2025-07-29T06:37:13.000Z</time>
</trkpt>
<trkpt lat="45.9109140" lon="10.2975190">
	<ele>1147.60</ele>
	<time>2025-07-29T06:37:14.000Z</time>
</trkpt>
<trkpt lat="45.9109030" lon="10.2975170">
	<ele>1147.80</ele>
	<time>2025-07-29T06:37:15.000Z</time>
</trkpt>
<trkpt lat="45.9108980" lon="10.2975140">
	<ele>1148.00</ele>
	<time>2025-07-29T06:37:16.000Z</time>
</trkpt>
<trkpt lat="45.9108900" lon="10.2975100">
	<ele>1148.20</ele>
	<time>2025-07-29T06:37:17.000Z</time>
</trkpt>
<trkpt lat="45.9108790" lon="10.2975120">
	<ele>1148.40</ele>
	<time>2025-07-29T06:37:18.000Z</time>
</trkpt>
<trkpt lat="45.9108720" lon="10.2975200">
	<ele>1148.60</ele>
	<time>2025-07-29T06:37:19.000Z</time>
</trkpt>
<trkpt lat="45.9108640" lon="10.2975290">
	<ele>1148.80</ele>
	<time>2025-07-29T06:37:20.000Z</time>
</trkpt>
<trkpt lat="45.9108550" lon="10.2975350">
	<ele>1149.00</ele>
	<time>2025-07-29T06:37:21.000Z</time>
</trkpt>
<trkpt lat="45.9108500" lon="10.2975380">
	<ele>1149.20</ele>
	<time>2025-07-29T06:37:22.000Z</time>
</trkpt>
<trkpt lat="45.9108440" lon="10.2975490">
	<ele>1149.40</ele>
	<time>2025-07-29T06:37:23.000Z</time>
</trkpt>
<trkpt lat="45.9108310" lon="10.2975490">
	<ele>1149.60</ele>
	<time>2025-07-29T06:37:24.000Z</time>
</trkpt>
<trkpt lat="45.9108220" lon="10.2975610">
	<ele>1149.80</ele>
	<time>2025-07-29T06:37:25.000Z</time>
</trkpt>
<trkpt lat="45.9108070" lon="10.2975640">
	<ele>1150.00</ele>
	<time>2025-07-29T06:37:26.000Z</time>
</trkpt>
<trkpt lat="45.9108050" lon="10.2975790">
	<ele>1150.20</ele>
	<time>2025-07-29T06:37:27.000Z</time>
</trkpt>
<trkpt lat="45.9108160" lon="10.2975780">
	<ele>1150.40</ele>
	<time>2025-07-29T06:37:28.000Z</time>
</trkpt>
<trkpt lat="45.9108030" lon="10.2975720">
	<ele>1150.60</ele>
	<time>2025-07-29T06:37:29.000Z</time>
</trkpt>
<trkpt lat="45.9107900" lon="10.2975700">
	<ele>1150.60</ele>
	<time>2025-07-29T06:37:30.000Z</time>
</trkpt>
<trkpt lat="45.9107860" lon="10.2975650">
	<ele>1150.80</ele>
	<time>2025-07-29T06:37:31.000Z</time>
</trkpt>
<trkpt lat="45.9107800" lon="10.2975780">
	<ele>1151.00</ele>
	<time>2025-07-29T06:37:32.000Z</time>
</trkpt>
<trkpt lat="45.9107730" lon="10.2975860">
	<ele>1151.20</ele>
	<time>2025-07-29T06:37:33.000Z</time>
</trkpt>
<trkpt lat="45.9107550" lon="10.2975840">
	<ele>1151.40</ele>
	<time>2025-07-29T06:37:34.000Z</time>
</trkpt>
<trkpt lat="45.9107490" lon="10.2975970">
	<ele>1151.80</ele>
	<time>2025-07-29T06:37:35.000Z</time>
</trkpt>
<trkpt lat="45.9107450" lon="10.2975980">
	<ele>1152.00</ele>
	<time>2025-07-29T06:37:36.000Z</time>
</trkpt>
<trkpt lat="45.9107390" lon="10.2975870">
	<ele>1152.40</ele>
	<time>2025-07-29T06:37:37.000Z</time>
</trkpt>
<trkpt lat="45.9107350" lon="10.2975660">
	<ele>1152.60</ele>
	<time>2025-07-29T06:37:38.000Z</time>
</trkpt>
<trkpt lat="45.9107290" lon="10.2975660">
	<ele>1152.80</ele>
	<time>2025-07-29T06:37:39.000Z</time>
</trkpt>
<trkpt lat="45.9107220" lon="10.2975750">
	<ele>1153.00</ele>
	<time>2025-07-29T06:37:40.000Z</time>
</trkpt>
<trkpt lat="45.9107140" lon="10.2975700">
	<ele>1153.20</ele>
	<time>2025-07-29T06:37:41.000Z</time>
</trkpt>
<trkpt lat="45.9107040" lon="10.2975690">
	<ele>1153.40</ele>
	<time>2025-07-29T06:37:42.000Z</time>
</trkpt>
<trkpt lat="45.9106860" lon="10.2975680">
	<ele>1153.60</ele>
	<time>2025-07-29T06:37:43.000Z</time>
</trkpt>
<trkpt lat="45.9106930" lon="10.2975730">
	<ele>1154.00</ele>
	<time>2025-07-29T06:37:44.000Z</time>
</trkpt>
<trkpt lat="45.9106910" lon="10.2975770">
	<ele>1154.20</ele>
	<time>2025-07-29T06:37:45.000Z</time>
</trkpt>
<trkpt lat="45.9106910" lon="10.2975810">
	<ele>1154.40</ele>
	<time>2025-07-29T06:37:46.000Z</time>
</trkpt>
<trkpt lat="45.9106880" lon="10.2975830">
	<ele>1154.60</ele>
	<time>2025-07-29T06:37:47.000Z</time>
</trkpt>
<trkpt lat="45.9106830" lon="10.2975870">
	<ele>1154.80</ele>
	<time>2025-07-29T06:37:48.000Z</time>
</trkpt>
<trkpt lat="45.9106730" lon="10.2975930">
	<ele>1155.00</ele>
	<time>2025-07-29T06:37:49.000Z</time>
</trkpt>
<trkpt lat="45.9106610" lon="10.2975940">
	<ele>1155.20</ele>
	<time>2025-07-29T06:37:50.000Z</time>
</trkpt>
<trkpt lat="45.9106470" lon="10.2975930">
	<ele>1155.60</ele>
	<time>2025-07-29T06:37:51.000Z</time>
</trkpt>
<trkpt lat="45.9106310" lon="10.2975850">
	<ele>1155.80</ele>
	<time>2025-07-29T06:37:52.000Z</time>
</trkpt>
<trkpt lat="45.9106250" lon="10.2975780">
	<ele>1155.80</ele>
	<time>2025-07-29T06:37:53.000Z</time>
</trkpt>
<trkpt lat="45.9106210" lon="10.2975700">
	<ele>1156.00</ele>
	<time>2025-07-29T06:37:54.000Z</time>
</trkpt>
<trkpt lat="45.9106110" lon="10.2975650">
	<ele>1156.40</ele>
	<time>2025-07-29T06:37:55.000Z</time>
</trkpt>
<trkpt lat="45.9105980" lon="10.2975650">
	<ele>1156.60</ele>
	<time>2025-07-29T06:37:56.000Z</time>
</trkpt>
<trkpt lat="45.9105860" lon="10.2975610">
	<ele>1156.60</ele>
	<time>2025-07-29T06:37:57.000Z</time>
</trkpt>
<trkpt lat="45.9105780" lon="10.2975580">
	<ele>1156.80</ele>
	<time>2025-07-29T06:37:58.000Z</time>
</trkpt>
<trkpt lat="45.9105660" lon="10.2975670">
	<ele>1157.00</ele>
	<time>2025-07-29T06:37:59.000Z</time>
</trkpt>
<trkpt lat="45.9105620" lon="10.2975760">
	<ele>1157.00</ele>
	<time>2025-07-29T06:38:00.000Z</time>
</trkpt>
<trkpt lat="45.9105530" lon="10.2975830">
	<ele>1157.20</ele>
	<time>2025-07-29T06:38:01.000Z</time>
</trkpt>
<trkpt lat="45.9105440" lon="10.2975930">
	<ele>1157.40</ele>
	<time>2025-07-29T06:38:02.000Z</time>
</trkpt>
<trkpt lat="45.9105360" lon="10.2976000">
	<ele>1157.60</ele>
	<time>2025-07-29T06:38:03.000Z</time>
</trkpt>
<trkpt lat="45.9105280" lon="10.2976050">
	<ele>1157.80</ele>
	<time>2025-07-29T06:38:04.000Z</time>
</trkpt>
<trkpt lat="45.9105210" lon="10.2976120">
	<ele>1157.80</ele>
	<time>2025-07-29T06:38:05.000Z</time>
</trkpt>
<trkpt lat="45.9105190" lon="10.2976240">
	<ele>1158.20</ele>
	<time>2025-07-29T06:38:06.000Z</time>
</trkpt>
<trkpt lat="45.9105170" lon="10.2976410">
	<ele>1158.40</ele>
	<time>2025-07-29T06:38:07.000Z</time>
</trkpt>
<trkpt lat="45.9105040" lon="10.2976540">
	<ele>1158.60</ele>
	<time>2025-07-29T06:38:08.000Z</time>
</trkpt>
<trkpt lat="45.9104960" lon="10.2976630">
	<ele>1158.60</ele>
	<time>2025-07-29T06:38:09.000Z</time>
</trkpt>
<trkpt lat="45.9104860" lon="10.2976690">
	<ele>1158.80</ele>
	<time>2025-07-29T06:38:10.000Z</time>
</trkpt>
<trkpt lat="45.9104820" lon="10.2976680">
	<ele>1158.80</ele>
	<time>2025-07-29T06:38:11.000Z</time>
</trkpt>
<trkpt lat="45.9104750" lon="10.2976860">
	<ele>1159.00</ele>
	<time>2025-07-29T06:38:12.000Z</time>
</trkpt>
<trkpt lat="45.9104690" lon="10.2976840">
	<ele>1159.20</ele>
	<time>2025-07-29T06:38:13.000Z</time>
</trkpt>
<trkpt lat="45.9104590" lon="10.2976820">
	<ele>1159.60</ele>
	<time>2025-07-29T06:38:14.000Z</time>
</trkpt>
<trkpt lat="45.9104520" lon="10.2976800">
	<ele>1159.80</ele>
	<time>2025-07-29T06:38:15.000Z</time>
</trkpt>
<trkpt lat="45.9104470" lon="10.2976680">
	<ele>1160.00</ele>
	<time>2025-07-29T06:38:16.000Z</time>
</trkpt>
<trkpt lat="45.9104380" lon="10.2976580">
	<ele>1160.00</ele>
	<time>2025-07-29T06:38:17.000Z</time>
</trkpt>
<trkpt lat="45.9104250" lon="10.2976580">
	<ele>1160.20</ele>
	<time>2025-07-29T06:38:18.000Z</time>
</trkpt>
<trkpt lat="45.9104140" lon="10.2976550">
	<ele>1160.40</ele>
	<time>2025-07-29T06:38:19.000Z</time>
</trkpt>
<trkpt lat="45.9104030" lon="10.2976530">
	<ele>1160.60</ele>
	<time>2025-07-29T06:38:20.000Z</time>
</trkpt>
<trkpt lat="45.9104050" lon="10.2976580">
	<ele>1160.60</ele>
	<time>2025-07-29T06:38:21.000Z</time>
</trkpt>
<trkpt lat="45.9104060" lon="10.2976570">
	<ele>1160.80</ele>
	<time>2025-07-29T06:38:22.000Z</time>
</trkpt>
<trkpt lat="45.9103980" lon="10.2976520">
	<ele>1161.00</ele>
	<time>2025-07-29T06:38:23.000Z</time>
</trkpt>
<trkpt lat="45.9103930" lon="10.2976420">
	<ele>1161.20</ele>
	<time>2025-07-29T06:38:24.000Z</time>
</trkpt>
<trkpt lat="45.9103870" lon="10.2976370">
	<ele>1161.20</ele>
	<time>2025-07-29T06:38:25.000Z</time>
</trkpt>
<trkpt lat="45.9103830" lon="10.2976360">
	<ele>1161.40</ele>
	<time>2025-07-29T06:38:26.000Z</time>
</trkpt>
<trkpt lat="45.9103770" lon="10.2976320">
	<ele>1161.60</ele>
	<time>2025-07-29T06:38:27.000Z</time>
</trkpt>
<trkpt lat="45.9103690" lon="10.2976280">
	<ele>1161.60</ele>
	<time>2025-07-29T06:38:28.000Z</time>
</trkpt>
<trkpt lat="45.9103620" lon="10.2976290">
	<ele>1162.00</ele>
	<time>2025-07-29T06:38:29.000Z</time>
</trkpt>
<trkpt lat="45.9103590" lon="10.2976220">
	<ele>1162.20</ele>
	<time>2025-07-29T06:38:30.000Z</time>
</trkpt>
<trkpt lat="45.9103580" lon="10.2976200">
	<ele>1162.20</ele>
	<time>2025-07-29T06:38:31.000Z</time>
</trkpt>
<trkpt lat="45.9103580" lon="10.2976300">
	<ele>1162.40</ele>
	<time>2025-07-29T06:38:32.000Z</time>
</trkpt>
<trkpt lat="45.9103580" lon="10.2976390">
	<ele>1162.60</ele>
	<time>2025-07-29T06:38:33.000Z</time>
</trkpt>
<trkpt lat="45.9103490" lon="10.2976540">
	<ele>1162.80</ele>
	<time>2025-07-29T06:38:34.000Z</time>
</trkpt>
<trkpt lat="45.9103320" lon="10.2976650">
	<ele>1163.00</ele>
	<time>2025-07-29T06:38:35.000Z</time>
</trkpt>
<trkpt lat="45.9103220" lon="10.2976670">
	<ele>1163.00</ele>
	<time>2025-07-29T06:38:36.000Z</time>
</trkpt>
<trkpt lat="45.9103110" lon="10.2976670">
	<ele>1163.20</ele>
	<time>2025-07-29T06:38:37.000Z</time>
</trkpt>
<trkpt lat="45.9102990" lon="10.2976690">
	<ele>1163.40</ele>
	<time>2025-07-29T06:38:38.000Z</time>
</trkpt>
<trkpt lat="45.9102940" lon="10.2976760">
	<ele>1163.60</ele>
	<time>2025-07-29T06:38:39.000Z</time>
</trkpt>
<trkpt lat="45.9102900" lon="10.2976850">
	<ele>1163.80</ele>
	<time>2025-07-29T06:38:40.000Z</time>
</trkpt>
<trkpt lat="45.9102840" lon="10.2976920">
	<ele>1164.00</ele>
	<time>2025-07-29T06:38:41.000Z</time>
</trkpt>
<trkpt lat="45.9102760" lon="10.2977010">
	<ele>1164.00</ele>
	<time>2025-07-29T06:38:42.000Z</time>
</trkpt>
<trkpt lat="45.9102560" lon="10.2977110">
	<ele>1164.20</ele>
	<time>2025-07-29T06:38:43.000Z</time>
</trkpt>
<trkpt lat="45.9102470" lon="10.2977160">
	<ele>1164.40</ele>
	<time>2025-07-29T06:38:44.000Z</time>
</trkpt>
<trkpt lat="45.9102370" lon="10.2977250">
	<ele>1164.60</ele>
	<time>2025-07-29T06:38:45.000Z</time>
</trkpt>
<trkpt lat="45.9102330" lon="10.2977320">
	<ele>1164.80</ele>
	<time>2025-07-29T06:38:46.000Z</time>
</trkpt>
<trkpt lat="45.9102240" lon="10.2977380">
	<ele>1165.00</ele>
	<time>2025-07-29T06:38:47.000Z</time>
</trkpt>
<trkpt lat="45.9102080" lon="10.2977420">
	<ele>1165.20</ele>
	<time>2025-07-29T06:38:48.000Z</time>
</trkpt>
<trkpt lat="45.9101950" lon="10.2977450">
	<ele>1165.40</ele>
	<time>2025-07-29T06:38:49.000Z</time>
</trkpt>
<trkpt lat="45.9101790" lon="10.2977370">
	<ele>1165.60</ele>
	<time>2025-07-29T06:38:50.000Z</time>
</trkpt>
<trkpt lat="45.9101630" lon="10.2977470">
	<ele>1165.60</ele>
	<time>2025-07-29T06:38:51.000Z</time>
</trkpt>
<trkpt lat="45.9101510" lon="10.2977610">
	<ele>1165.80</ele>
	<time>2025-07-29T06:38:52.000Z</time>
</trkpt>
<trkpt lat="45.9101460" lon="10.2977800">
	<ele>1166.00</ele>
	<time>2025-07-29T06:38:53.000Z</time>
</trkpt>
<trkpt lat="45.9101370" lon="10.2977890">
	<ele>1166.00</ele>
	<time>2025-07-29T06:38:54.000Z</time>
</trkpt>
<trkpt lat="45.9101260" lon="10.2977890">
	<ele>1166.00</ele>
	<time>2025-07-29T06:38:55.000Z</time>
</trkpt>
<trkpt lat="45.9100980" lon="10.2977820">
	<ele>1166.20</ele>
	<time>2025-07-29T06:38:56.000Z</time>
</trkpt>
<trkpt lat="45.9100750" lon="10.2977790">
	<ele>1166.20</ele>
	<time>2025-07-29T06:38:57.000Z</time>
</trkpt>
<trkpt lat="45.9100450" lon="10.2977810">
	<ele>1166.40</ele>
	<time>2025-07-29T06:38:58.000Z</time>
</trkpt>
<trkpt lat="45.9100400" lon="10.2977830">
	<ele>1166.60</ele>
	<time>2025-07-29T06:38:59.000Z</time>
</trkpt>
<trkpt lat="45.9100400" lon="10.2977870">
	<ele>1166.60</ele>
	<time>2025-07-29T06:39:00.000Z</time>
</trkpt>
<trkpt lat="45.9100410" lon="10.2977880">
	<ele>1166.80</ele>
	<time>2025-07-29T06:39:01.000Z</time>
</trkpt>
<trkpt lat="45.9100380" lon="10.2977890">
	<ele>1167.00</ele>
	<time>2025-07-29T06:39:02.000Z</time>
</trkpt>
<trkpt lat="45.9100340" lon="10.2977820">
	<ele>1167.00</ele>
	<time>2025-07-29T06:39:03.000Z</time>
</trkpt>
<trkpt lat="45.9100240" lon="10.2977750">
	<ele>1167.20</ele>
	<time>2025-07-29T06:39:04.000Z</time>
</trkpt>
<trkpt lat="45.9100130" lon="10.2977740">
	<ele>1167.40</ele>
	<time>2025-07-29T06:39:05.000Z</time>
</trkpt>
<trkpt lat="45.9100040" lon="10.2977780">
	<ele>1167.40</ele>
	<time>2025-07-29T06:39:06.000Z</time>
</trkpt>
<trkpt lat="45.9099970" lon="10.2977860">
	<ele>1167.80</ele>
	<time>2025-07-29T06:39:07.000Z</time>
</trkpt>
<trkpt lat="45.9099900" lon="10.2977880">
	<ele>1168.00</ele>
	<time>2025-07-29T06:39:08.000Z</time>
</trkpt>
<trkpt lat="45.9099820" lon="10.2977890">
	<ele>1168.00</ele>
	<time>2025-07-29T06:39:09.000Z</time>
</trkpt>
<trkpt lat="45.9099780" lon="10.2977940">
	<ele>1168.00</ele>
	<time>2025-07-29T06:39:10.000Z</time>
</trkpt>
<trkpt lat="45.9099750" lon="10.2977940">
	<ele>1168.20</ele>
	<time>2025-07-29T06:39:11.000Z</time>
</trkpt>
<trkpt lat="45.9099680" lon="10.2977880">
	<ele>1168.20</ele>
	<time>2025-07-29T06:39:12.000Z</time>
</trkpt>
<trkpt lat="45.9099630" lon="10.2977810">
	<ele>1168.20</ele>
	<time>2025-07-29T06:39:13.000Z</time>
</trkpt>
<trkpt lat="45.9099590" lon="10.2977750">
	<ele>1168.40</ele>
	<time>2025-07-29T06:39:14.000Z</time>
</trkpt>
<trkpt lat="45.9099520" lon="10.2977690">
	<ele>1168.40</ele>
	<time>2025-07-29T06:39:15.000Z</time>
</trkpt>
<trkpt lat="45.9099400" lon="10.2977620">
	<ele>1168.60</ele>
	<time>2025-07-29T06:39:16.000Z</time>
</trkpt>
<trkpt lat="45.9099280" lon="10.2977550">
	<ele>1168.80</ele>
	<time>2025-07-29T06:39:17.000Z</time>
</trkpt>
<trkpt lat="45.9099160" lon="10.2977420">
	<ele>1169.00</ele>
	<time>2025-07-29T06:39:18.000Z</time>
</trkpt>
<trkpt lat="45.9099070" lon="10.2977300">
	<ele>1169.00</ele>
	<time>2025-07-29T06:39:19.000Z</time>
</trkpt>
<trkpt lat="45.9098920" lon="10.2977260">
	<ele>1169.20</ele>
	<time>2025-07-29T06:39:20.000Z</time>
</trkpt>
<trkpt lat="45.9098740" lon="10.2977240">
	<ele>1169.20</ele>
	<time>2025-07-29T06:39:21.000Z</time>
</trkpt>
<trkpt lat="45.9098610" lon="10.2977200">
	<ele>1169.40</ele>
	<time>2025-07-29T06:39:22.000Z</time>
</trkpt>
<trkpt lat="45.9098460" lon="10.2977080">
	<ele>1169.40</ele>
	<time>2025-07-29T06:39:23.000Z</time>
</trkpt>
<trkpt lat="45.9098360" lon="10.2976930">
	<ele>1169.60</ele>
	<time>2025-07-29T06:39:24.000Z</time>
</trkpt>
<trkpt lat="45.9098360" lon="10.2976820">
	<ele>1170.00</ele>
	<time>2025-07-29T06:39:25.000Z</time>
</trkpt>
<trkpt lat="45.9098460" lon="10.2976690">
	<ele>1170.20</ele>
	<time>2025-07-29T06:39:26.000Z</time>
</trkpt>
<trkpt lat="45.9098450" lon="10.2976580">
	<ele>1170.20</ele>
	<time>2025-07-29T06:39:27.000Z</time>
</trkpt>
<trkpt lat="45.9098360" lon="10.2976460">
	<ele>1170.20</ele>
	<time>2025-07-29T06:39:28.000Z</time>
</trkpt>
<trkpt lat="45.9098230" lon="10.2976370">
	<ele>1170.20</ele>
	<time>2025-07-29T06:39:29.000Z</time>
</trkpt>
<trkpt lat="45.9098230" lon="10.2976340">
	<ele>1170.40</ele>
	<time>2025-07-29T06:39:30.000Z</time>
</trkpt>
<trkpt lat="45.9098160" lon="10.2976210">
	<ele>1170.40</ele>
	<time>2025-07-29T06:39:31.000Z</time>
</trkpt>
<trkpt lat="45.9098070" lon="10.2976070">
	<ele>1170.40</ele>
	<time>2025-07-29T06:39:32.000Z</time>
</trkpt>
<trkpt lat="45.9097990" lon="10.2975950">
	<ele>1170.40</ele>
	<time>2025-07-29T06:39:33.000Z</time>
</trkpt>
<trkpt lat="45.9097910" lon="10.2975870">
	<ele>1170.60</ele>
	<time>2025-07-29T06:39:34.000Z</time>
</trkpt>
<trkpt lat="45.9097790" lon="10.2975810">
	<ele>1170.80</ele>
	<time>2025-07-29T06:39:35.000Z</time>
</trkpt>
<trkpt lat="45.9097670" lon="10.2975730">
	<ele>1170.80</ele>
	<time>2025-07-29T06:39:36.000Z</time>
</trkpt>
<trkpt lat="45.9097640" lon="10.2975630">
	<ele>1171.00</ele>
	<time>2025-07-29T06:39:37.000Z</time>
</trkpt>
<trkpt lat="45.9097600" lon="10.2975540">
	<ele>1171.00</ele>
	<time>2025-07-29T06:39:38.000Z</time>
</trkpt>
<trkpt lat="45.9097580" lon="10.2975470">
	<ele>1171.20</ele>
	<time>2025-07-29T06:39:39.000Z</time>
</trkpt>
<trkpt lat="45.9097600" lon="10.2975460">
	<ele>1171.40</ele>
	<time>2025-07-29T06:39:40.000Z</time>
</trkpt>
<trkpt lat="45.9097540" lon="10.2975380">
	<ele>1171.40</ele>
	<time>2025-07-29T06:39:41.000Z</time>
</trkpt>
<trkpt lat="45.9097490" lon="10.2975300">
	<ele>1171.60</ele>
	<time>2025-07-29T06:39:42.000Z</time>
</trkpt>
<trkpt lat="45.9097550" lon="10.2975260">
	<ele>1171.60</ele>
	<time>2025-07-29T06:39:43.000Z</time>
</trkpt>
<trkpt lat="45.9097520" lon="10.2975220">
	<ele>1171.80</ele>
	<time>2025-07-29T06:39:44.000Z</time>
</trkpt>
<trkpt lat="45.9097480" lon="10.2975170">
	<ele>1171.80</ele>
	<time>2025-07-29T06:39:45.000Z</time>
</trkpt>
<trkpt lat="45.9097410" lon="10.2975110">
	<ele>1172.00</ele>
	<time>2025-07-29T06:39:46.000Z</time>
</trkpt>
<trkpt lat="45.9097330" lon="10.2975000">
	<ele>1172.00</ele>
	<time>2025-07-29T06:39:47.000Z</time>
</trkpt>
<trkpt lat="45.9097300" lon="10.2974840">
	<ele>1172.00</ele>
	<time>2025-07-29T06:39:48.000Z</time>
</trkpt>
<trkpt lat="45.9097290" lon="10.2974770">
	<ele>1172.00</ele>
	<time>2025-07-29T06:39:49.000Z</time>
</trkpt>
<trkpt lat="45.9097290" lon="10.2974610">
	<ele>1172.00</ele>
	<time>2025-07-29T06:39:50.000Z</time>
</trkpt>
<trkpt lat="45.9097290" lon="10.2974510">
	<ele>1172.00</ele>
	<time>2025-07-29T06:39:51.000Z</time>
</trkpt>
<trkpt lat="45.9097230" lon="10.2974420">
	<ele>1172.00</ele>
	<time>2025-07-29T06:39:52.000Z</time>
</trkpt>
<trkpt lat="45.9097160" lon="10.2974330">
	<ele>1172.00</ele>
	<time>2025-07-29T06:39:53.000Z</time>
</trkpt>
<trkpt lat="45.9097180" lon="10.2974240">
	<ele>1172.20</ele>
	<time>2025-07-29T06:39:54.000Z</time>
</trkpt>
<trkpt lat="45.9097140" lon="10.2974240">
	<ele>1172.40</ele>
	<time>2025-07-29T06:39:55.000Z</time>
</trkpt>
<trkpt lat="45.9097220" lon="10.2974180">
	<ele>1172.40</ele>
	<time>2025-07-29T06:39:56.000Z</time>
</trkpt>
<trkpt lat="45.9097370" lon="10.2974100">
	<ele>1172.60</ele>
	<time>2025-07-29T06:39:57.000Z</time>
</trkpt>
<trkpt lat="45.9097560" lon="10.2974090">
	<ele>1172.60</ele>
	<time>2025-07-29T06:39:58.000Z</time>
</trkpt>
<trkpt lat="45.9097580" lon="10.2974060">
	<ele>1172.80</ele>
	<time>2025-07-29T06:39:59.000Z</time>
</trkpt>
<trkpt lat="45.9097630" lon="10.2973920">
	<ele>1173.00</ele>
	<time>2025-07-29T06:40:00.000Z</time>
</trkpt>
<trkpt lat="45.9097660" lon="10.2973850">
	<ele>1173.20</ele>
	<time>2025-07-29T06:40:01.000Z</time>
</trkpt>
<trkpt lat="45.9097710" lon="10.2973750">
	<ele>1173.20</ele>
	<time>2025-07-29T06:40:02.000Z</time>
</trkpt>
<trkpt lat="45.9097750" lon="10.2973630">
	<ele>1173.40</ele>
	<time>2025-07-29T06:40:03.000Z</time>
</trkpt>
<trkpt lat="45.9097810" lon="10.2973470">
	<ele>1173.60</ele>
	<time>2025-07-29T06:40:04.000Z</time>
</trkpt>
<trkpt lat="45.9097830" lon="10.2973350">
	<ele>1173.80</ele>
	<time>2025-07-29T06:40:05.000Z</time>
</trkpt>
<trkpt lat="45.9097780" lon="10.2973220">
	<ele>1173.80</ele>
	<time>2025-07-29T06:40:06.000Z</time>
</trkpt>
<trkpt lat="45.9097740" lon="10.2973080">
	<ele>1174.00</ele>
	<time>2025-07-29T06:40:07.000Z</time>
</trkpt>
<trkpt lat="45.9097710" lon="10.2972970">
	<ele>1174.00</ele>
	<time>2025-07-29T06:40:08.000Z</time>
</trkpt>
<trkpt lat="45.9097690" lon="10.2972870">
	<ele>1174.20</ele>
	<time>2025-07-29T06:40:09.000Z</time>
</trkpt>
<trkpt lat="45.9097680" lon="10.2972830">
	<ele>1174.20</ele>
	<time>2025-07-29T06:40:10.000Z</time>
</trkpt>
<trkpt lat="45.9097760" lon="10.2972670">
	<ele>1174.40</ele>
	<time>2025-07-29T06:40:11.000Z</time>
</trkpt>
<trkpt lat="45.9097730" lon="10.2972580">
	<ele>1174.40</ele>
	<time>2025-07-29T06:40:12.000Z</time>
</trkpt>
<trkpt lat="45.9097610" lon="10.2972460">
	<ele>1174.80</ele>
	<time>2025-07-29T06:40:13.000Z</time>
</trkpt>
<trkpt lat="45.9097560" lon="10.2972490">
	<ele>1175.00</ele>
	<time>2025-07-29T06:40:14.000Z</time>
</trkpt>
<trkpt lat="45.9097550" lon="10.2972400">
	<ele>1175.00</ele>
	<time>2025-07-29T06:40:15.000Z</time>
</trkpt>
<trkpt lat="45.9097670" lon="10.2972250">
	<ele>1175.00</ele>
	<time>2025-07-29T06:40:16.000Z</time>
</trkpt>
<trkpt lat="45.9097720" lon="10.2972060">
	<ele>1175.00</ele>
	<time>2025-07-29T06:40:17.000Z</time>
</trkpt>
<trkpt lat="45.9097660" lon="10.2971880">
	<ele>1175.00</ele>
	<time>2025-07-29T06:40:18.000Z</time>
</trkpt>
<trkpt lat="45.9097650" lon="10.2971750">
	<ele>1175.20</ele>
	<time>2025-07-29T06:40:19.000Z</time>
</trkpt>
<trkpt lat="45.9097640" lon="10.2971640">
	<ele>1175.20</ele>
	<time>2025-07-29T06:40:20.000Z</time>
</trkpt>
<trkpt lat="45.9097740" lon="10.2971540">
	<ele>1175.40</ele>
	<time>2025-07-29T06:40:21.000Z</time>
</trkpt>
<trkpt lat="45.9097710" lon="10.2971380">
	<ele>1175.60</ele>
	<time>2025-07-29T06:40:22.000Z</time>
</trkpt>
<trkpt lat="45.9097760" lon="10.2971220">
	<ele>1175.80</ele>
	<time>2025-07-29T06:40:23.000Z</time>
</trkpt>
<trkpt lat="45.9097770" lon="10.2971140">
	<ele>1175.80</ele>
	<time>2025-07-29T06:40:24.000Z</time>
</trkpt>
<trkpt lat="45.9097710" lon="10.2971070">
	<ele>1176.00</ele>
	<time>2025-07-29T06:40:25.000Z</time>
</trkpt>
<trkpt lat="45.9097710" lon="10.2971000">
	<ele>1176.00</ele>
	<time>2025-07-29T06:40:26.000Z</time>
</trkpt>
<trkpt lat="45.9097800" lon="10.2970860">
	<ele>1176.20</ele>
	<time>2025-07-29T06:40:27.000Z</time>
</trkpt>
<trkpt lat="45.9097810" lon="10.2970670">
	<ele>1176.20</ele>
	<time>2025-07-29T06:40:28.000Z</time>
</trkpt>
<trkpt lat="45.9097690" lon="10.2970610">
	<ele>1176.40</ele>
	<time>2025-07-29T06:40:29.000Z</time>
</trkpt>
<trkpt lat="45.9097590" lon="10.2970600">
	<ele>1176.40</ele>
	<time>2025-07-29T06:40:30.000Z</time>
</trkpt>
<trkpt lat="45.9097510" lon="10.2970560">
	<ele>1176.60</ele>
	<time>2025-07-29T06:40:31.000Z</time>
</trkpt>
<trkpt lat="45.9097450" lon="10.2970490">
	<ele>1176.80</ele>
	<time>2025-07-29T06:40:32.000Z</time>
</trkpt>
<trkpt lat="45.9097380" lon="10.2970400">
	<ele>1177.00</ele>
	<time>2025-07-29T06:40:33.000Z</time>
</trkpt>
<trkpt lat="45.9097360" lon="10.2970230">
	<ele>1177.20</ele>
	<time>2025-07-29T06:40:34.000Z</time>
</trkpt>
<trkpt lat="45.9097500" lon="10.2970080">
	<ele>1177.20</ele>
	<time>2025-07-29T06:40:35.000Z</time>
</trkpt>
<trkpt lat="45.9097500" lon="10.2969850">
	<ele>1177.20</ele>
	<time>2025-07-29T06:40:36.000Z</time>
</trkpt>
<trkpt lat="45.9097370" lon="10.2969630">
	<ele>1177.40</ele>
	<time>2025-07-29T06:40:37.000Z</time>
</trkpt>
<trkpt lat="45.9097200" lon="10.2969420">
	<ele>1177.60</ele>
	<time>2025-07-29T06:40:38.000Z</time>
</trkpt>
<trkpt lat="45.9097150" lon="10.2969440">
	<ele>1177.60</ele>
	<time>2025-07-29T06:40:39.000Z</time>
</trkpt>
<trkpt lat="45.9097200" lon="10.2969370">
	<ele>1177.80</ele>
	<time>2025-07-29T06:40:40.000Z</time>
</trkpt>
<trkpt lat="45.9097290" lon="10.2969250">
	<ele>1178.00</ele>
	<time>2025-07-29T06:40:41.000Z</time>
</trkpt>
<trkpt lat="45.9097250" lon="10.2969180">
	<ele>1178.20</ele>
	<time>2025-07-29T06:40:42.000Z</time>
</trkpt>
<trkpt lat="45.9097240" lon="10.2969020">
	<ele>1178.20</ele>
	<time>2025-07-29T06:40:43.000Z</time>
</trkpt>
<trkpt lat="45.9097230" lon="10.2968870">
	<ele>1178.40</ele>
	<time>2025-07-29T06:40:44.000Z</time>
</trkpt>
<trkpt lat="45.9097190" lon="10.2968680">
	<ele>1178.60</ele>
	<time>2025-07-29T06:40:45.000Z</time>
</trkpt>
<trkpt lat="45.9097010" lon="10.2968470">
	<ele>1178.60</ele>
	<time>2025-07-29T06:40:46.000Z</time>
</trkpt>
<trkpt lat="45.9096860" lon="10.2968330">
	<ele>1178.80</ele>
	<time>2025-07-29T06:40:47.000Z</time>
</trkpt>
<trkpt lat="45.9096710" lon="10.2968290">
	<ele>1179.00</ele>
	<time>2025-07-29T06:40:48.000Z</time>
</trkpt>
<trkpt lat="45.9096620" lon="10.2968260">
	<ele>1179.00</ele>
	<time>2025-07-29T06:40:49.000Z</time>
</trkpt>
<trkpt lat="45.9096610" lon="10.2968140">
	<ele>1179.20</ele>
	<time>2025-07-29T06:40:50.000Z</time>
</trkpt>
<trkpt lat="45.9096600" lon="10.2968070">
	<ele>1179.40</ele>
	<time>2025-07-29T06:40:51.000Z</time>
</trkpt>
<trkpt lat="45.9096510" lon="10.2967980">
	<ele>1179.60</ele>
	<time>2025-07-29T06:40:52.000Z</time>
</trkpt>
<trkpt lat="45.9096420" lon="10.2967880">
	<ele>1179.80</ele>
	<time>2025-07-29T06:40:53.000Z</time>
</trkpt>
<trkpt lat="45.9096320" lon="10.2967810">
	<ele>1180.00</ele>
	<time>2025-07-29T06:40:54.000Z</time>
</trkpt>
<trkpt lat="45.9096250" lon="10.2967760">
	<ele>1180.20</ele>
	<time>2025-07-29T06:40:55.000Z</time>
</trkpt>
<trkpt lat="45.9096120" lon="10.2967690">
	<ele>1180.40</ele>
	<time>2025-07-29T06:40:56.000Z</time>
</trkpt>
<trkpt lat="45.9095920" lon="10.2967640">
	<ele>1180.60</ele>
	<time>2025-07-29T06:40:57.000Z</time>
</trkpt>
<trkpt lat="45.9095780" lon="10.2967560">
	<ele>1180.80</ele>
	<time>2025-07-29T06:40:58.000Z</time>
</trkpt>
<trkpt lat="45.9095720" lon="10.2967430">
	<ele>1181.20</ele>
	<time>2025-07-29T06:40:59.000Z</time>
</trkpt>
<trkpt lat="45.9095610" lon="10.2967260">
	<ele>1181.40</ele>
	<time>2025-07-29T06:41:00.000Z</time>
</trkpt>
<trkpt lat="45.9095540" lon="10.2967160">
	<ele>1181.60</ele>
	<time>2025-07-29T06:41:01.000Z</time>
</trkpt>
<trkpt lat="45.9095530" lon="10.2967060">
	<ele>1181.60</ele>
	<time>2025-07-29T06:41:02.000Z</time>
</trkpt>
<trkpt lat="45.9095410" lon="10.2966990">
	<ele>1181.80</ele>
	<time>2025-07-29T06:41:03.000Z</time>
</trkpt>
<trkpt lat="45.9095340" lon="10.2966860">
	<ele>1182.00</ele>
	<time>2025-07-29T06:41:04.000Z</time>
</trkpt>
<trkpt lat="45.9095210" lon="10.2966720">
	<ele>1182.20</ele>
	<time>2025-07-29T06:41:05.000Z</time>
</trkpt>
<trkpt lat="45.9095210" lon="10.2966480">
	<ele>1182.40</ele>
	<time>2025-07-29T06:41:06.000Z</time>
</trkpt>
<trkpt lat="45.9095200" lon="10.2966200">
	<ele>1182.40</ele>
	<time>2025-07-29T06:41:07.000Z</time>
</trkpt>
<trkpt lat="45.9095210" lon="10.2966020">
	<ele>1182.60</ele>
	<time>2025-07-29T06:41:08.000Z</time>
</trkpt>
<trkpt lat="45.9095110" lon="10.2965940">
	<ele>1182.60</ele>
	<time>2025-07-29T06:41:09.000Z</time>
</trkpt>
<trkpt lat="45.9095030" lon="10.2965890">
	<ele>1182.80</ele>
	<time>2025-07-29T06:41:10.000Z</time>
</trkpt>
<trkpt lat="45.9094900" lon="10.2965790">
	<ele>1183.00</ele>
	<time>2025-07-29T06:41:11.000Z</time>
</trkpt>
<trkpt lat="45.9094550" lon="10.2965540">
	<ele>1183.20</ele>
	<time>2025-07-29T06:41:12.000Z</time>
</trkpt>
<trkpt lat="45.9094230" lon="10.2965370">
	<ele>1183.40</ele>
	<time>2025-07-29T06:41:13.000Z</time>
</trkpt>
<trkpt lat="45.9094080" lon="10.2965180">
	<ele>1183.40</ele>
	<time>2025-07-29T06:41:14.000Z</time>
</trkpt>
<trkpt lat="45.9094060" lon="10.2965100">
	<ele>1183.60</ele>
	<time>2025-07-29T06:41:15.000Z</time>
</trkpt>
<trkpt lat="45.9094190" lon="10.2965050">
	<ele>1183.80</ele>
	<time>2025-07-29T06:41:16.000Z</time>
</trkpt>
<trkpt lat="45.9094420" lon="10.2964900">
	<ele>1183.80</ele>
	<time>2025-07-29T06:41:17.000Z</time>
</trkpt>
<trkpt lat="45.9094450" lon="10.2964840">
	<ele>1184.00</ele>
	<time>2025-07-29T06:41:18.000Z</time>
</trkpt>
<trkpt lat="45.9094480" lon="10.2964680">
	<ele>1184.20</ele>
	<time>2025-07-29T06:41:19.000Z</time>
</trkpt>
<trkpt lat="45.9094430" lon="10.2964500">
	<ele>1184.40</ele>
	<time>2025-07-29T06:41:20.000Z</time>
</trkpt>
<trkpt lat="45.9094390" lon="10.2964360">
	<ele>1184.40</ele>
	<time>2025-07-29T06:41:21.000Z</time>
</trkpt>
<trkpt lat="45.9094500" lon="10.2964360">
	<ele>1184.60</ele>
	<time>2025-07-29T06:41:22.000Z</time>
</trkpt>
<trkpt lat="45.9094490" lon="10.2964410">
	<ele>1184.60</ele>
	<time>2025-07-29T06:41:23.000Z</time>
</trkpt>
<trkpt lat="45.9094470" lon="10.2964420">
	<ele>1184.60</ele>
	<time>2025-07-29T06:41:24.000Z</time>
</trkpt>
<trkpt lat="45.9094520" lon="10.2964500">
	<ele>1185.00</ele>
	<time>2025-07-29T06:41:25.000Z</time>
</trkpt>
<trkpt lat="45.9094520" lon="10.2964500">
	<ele>1185.20</ele>
	<time>2025-07-29T06:41:26.000Z</time>
</trkpt>
<trkpt lat="45.9094550" lon="10.2964500">
	<ele>1185.20</ele>
	<time>2025-07-29T06:41:27.000Z</time>
</trkpt>
<trkpt lat="45.9094510" lon="10.2964490">
	<ele>1185.20</ele>
	<time>2025-07-29T06:41:28.000Z</time>
</trkpt>
<trkpt lat="45.9094440" lon="10.2964470">
	<ele>1185.40</ele>
	<time>2025-07-29T06:41:29.000Z</time>
</trkpt>
<trkpt lat="45.9094340" lon="10.2964490">
	<ele>1185.40</ele>
	<time>2025-07-29T06:41:30.000Z</time>
</trkpt>
<trkpt lat="45.9094180" lon="10.2964530">
	<ele>1185.40</ele>
	<time>2025-07-29T06:41:31.000Z</time>
</trkpt>
<trkpt lat="45.9094060" lon="10.2964480">
	<ele>1185.40</ele>
	<time>2025-07-29T06:41:32.000Z</time>
</trkpt>
<trkpt lat="45.9093990" lon="10.2964490">
	<ele>1185.60</ele>
	<time>2025-07-29T06:41:33.000Z</time>
</trkpt>
<trkpt lat="45.9093810" lon="10.2964440">
	<ele>1185.80</ele>
	<time>2025-07-29T06:41:34.000Z</time>
</trkpt>
<trkpt lat="45.9093800" lon="10.2964420">
	<ele>1186.00</ele>
	<time>2025-07-29T06:41:35.000Z</time>
</trkpt>
<trkpt lat="45.9093660" lon="10.2964360">
	<ele>1186.20</ele>
	<time>2025-07-29T06:41:36.000Z</time>
</trkpt>
<trkpt lat="45.9093570" lon="10.2964320">
	<ele>1186.40</ele>
	<time>2025-07-29T06:41:37.000Z</time>
</trkpt>
<trkpt lat="45.9093430" lon="10.2964300">
	<ele>1186.60</ele>
	<time>2025-07-29T06:41:38.000Z</time>
</trkpt>
<trkpt lat="45.9093430" lon="10.2964290">
	<ele>1186.80</ele>
	<time>2025-07-29T06:41:39.000Z</time>
</trkpt>
<trkpt lat="45.9093330" lon="10.2964220">
	<ele>1187.00</ele>
	<time>2025-07-29T06:41:40.000Z</time>
</trkpt>
<trkpt lat="45.9093210" lon="10.2964230">
	<ele>1187.20</ele>
	<time>2025-07-29T06:41:41.000Z</time>
</trkpt>
<trkpt lat="45.9093090" lon="10.2964150">
	<ele>1187.40</ele>
	<time>2025-07-29T06:41:42.000Z</time>
</trkpt>
<trkpt lat="45.9092950" lon="10.2964010">
	<ele>1187.80</ele>
	<time>2025-07-29T06:41:43.000Z</time>
</trkpt>
<trkpt lat="45.9092850" lon="10.2963920">
	<ele>1188.00</ele>
	<time>2025-07-29T06:41:44.000Z</time>
</trkpt>
<trkpt lat="45.9092640" lon="10.2963850">
	<ele>1188.20</ele>
	<time>2025-07-29T06:41:45.000Z</time>
</trkpt>
<trkpt lat="45.9092600" lon="10.2963840">
	<ele>1188.40</ele>
	<time>2025-07-29T06:41:46.000Z</time>
</trkpt>
<trkpt lat="45.9092610" lon="10.2963740">
	<ele>1188.60</ele>
	<time>2025-07-29T06:41:47.000Z</time>
</trkpt>
<trkpt lat="45.9092600" lon="10.2963600">
	<ele>1189.00</ele>
	<time>2025-07-29T06:41:48.000Z</time>
</trkpt>
<trkpt lat="45.9092580" lon="10.2963470">
	<ele>1189.40</ele>
	<time>2025-07-29T06:41:49.000Z</time>
</trkpt>
<trkpt lat="45.9092430" lon="10.2963440">
	<ele>1189.60</ele>
	<time>2025-07-29T06:41:50.000Z</time>
</trkpt>
<trkpt lat="45.9092250" lon="10.2963440">
	<ele>1190.00</ele>
	<time>2025-07-29T06:41:51.000Z</time>
</trkpt>
<trkpt lat="45.9092210" lon="10.2963450">
	<ele>1190.20</ele>
	<time>2025-07-29T06:41:52.000Z</time>
</trkpt>
<trkpt lat="45.9092160" lon="10.2963430">
	<ele>1190.20</ele>
	<time>2025-07-29T06:41:53.000Z</time>
</trkpt>
<trkpt lat="45.9092110" lon="10.2963460">
	<ele>1190.40</ele>
	<time>2025-07-29T06:41:54.000Z</time>
</trkpt>
<trkpt lat="45.9091970" lon="10.2963500">
	<ele>1190.60</ele>
	<time>2025-07-29T06:41:55.000Z</time>
</trkpt>
<trkpt lat="45.9091840" lon="10.2963480">
	<ele>1190.80</ele>
	<time>2025-07-29T06:41:56.000Z</time>
</trkpt>
<trkpt lat="45.9091700" lon="10.2963450">
	<ele>1190.80</ele>
	<time>2025-07-29T06:41:57.000Z</time>
</trkpt>
<trkpt lat="45.9091440" lon="10.2963320">
	<ele>1191.20</ele>
	<time>2025-07-29T06:41:58.000Z</time>
</trkpt>
<trkpt lat="45.9091390" lon="10.2963290">
	<ele>1191.40</ele>
	<time>2025-07-29T06:41:59.000Z</time>
</trkpt>
<trkpt lat="45.9091320" lon="10.2963160">
	<ele>1191.60</ele>
	<time>2025-07-29T06:42:00.000Z</time>
</trkpt>
<trkpt lat="45.9091290" lon="10.2963100">
	<ele>1191.60</ele>
	<time>2025-07-29T06:42:01.000Z</time>
</trkpt>
<trkpt lat="45.9091210" lon="10.2963050">
	<ele>1191.80</ele>
	<time>2025-07-29T06:42:02.000Z</time>
</trkpt>
<trkpt lat="45.9091170" lon="10.2962980">
	<ele>1192.00</ele>
	<time>2025-07-29T06:42:03.000Z</time>
</trkpt>
<trkpt lat="45.9091170" lon="10.2962920">
	<ele>1192.00</ele>
	<time>2025-07-29T06:42:04.000Z</time>
</trkpt>
<trkpt lat="45.9091200" lon="10.2962850">
	<ele>1192.00</ele>
	<time>2025-07-29T06:42:05.000Z</time>
</trkpt>
<trkpt lat="45.9091130" lon="10.2962760">
	<ele>1192.20</ele>
	<time>2025-07-29T06:42:06.000Z</time>
</trkpt>
<trkpt lat="45.9091060" lon="10.2962610">
	<ele>1192.20</ele>
	<time>2025-07-29T06:42:07.000Z</time>
</trkpt>
<trkpt lat="45.9090990" lon="10.2962530">
	<ele>1192.40</ele>
	<time>2025-07-29T06:42:08.000Z</time>
</trkpt>
<trkpt lat="45.9090850" lon="10.2962450">
	<ele>1192.40</ele>
	<time>2025-07-29T06:42:09.000Z</time>
</trkpt>
<trkpt lat="45.9090600" lon="10.2962340">
	<ele>1192.60</ele>
	<time>2025-07-29T06:42:10.000Z</time>
</trkpt>
<trkpt lat="45.9090420" lon="10.2962310">
	<ele>1192.80</ele>
	<time>2025-07-29T06:42:11.000Z</time>
</trkpt>
<trkpt lat="45.9090300" lon="10.2962330">
	<ele>1193.00</ele>
	<time>2025-07-29T06:42:12.000Z</time>
</trkpt>
<trkpt lat="45.9090270" lon="10.2962300">
	<ele>1193.00</ele>
	<time>2025-07-29T06:42:13.000Z</time>
</trkpt>
<trkpt lat="45.9090250" lon="10.2962260">
	<ele>1193.20</ele>
	<time>2025-07-29T06:42:14.000Z</time>
</trkpt>
<trkpt lat="45.9090190" lon="10.2962230">
	<ele>1193.40</ele>
	<time>2025-07-29T06:42:15.000Z</time>
</trkpt>
<trkpt lat="45.9090010" lon="10.2962160">
	<ele>1193.60</ele>
	<time>2025-07-29T06:42:16.000Z</time>
</trkpt>
<trkpt lat="45.9089870" lon="10.2962120">
	<ele>1193.80</ele>
	<time>2025-07-29T06:42:17.000Z</time>
</trkpt>
<trkpt lat="45.9089830" lon="10.2962100">
	<ele>1194.00</ele>
	<time>2025-07-29T06:42:18.000Z</time>
</trkpt>
<trkpt lat="45.9089820" lon="10.2962120">
	<ele>1194.20</ele>
	<time>2025-07-29T06:42:19.000Z</time>
</trkpt>
<trkpt lat="45.9089710" lon="10.2962070">
	<ele>1194.40</ele>
	<time>2025-07-29T06:42:20.000Z</time>
</trkpt>
<trkpt lat="45.9089650" lon="10.2962010">
	<ele>1194.60</ele>
	<time>2025-07-29T06:42:21.000Z</time>
</trkpt>
<trkpt lat="45.9089580" lon="10.2961910">
	<ele>1194.80</ele>
	<time>2025-07-29T06:42:22.000Z</time>
</trkpt>
<trkpt lat="45.9089440" lon="10.2961840">
	<ele>1194.80</ele>
	<time>2025-07-29T06:42:23.000Z</time>
</trkpt>
<trkpt lat="45.9089360" lon="10.2961800">
	<ele>1195.00</ele>
	<time>2025-07-29T06:42:24.000Z</time>
</trkpt>
<trkpt lat="45.9089210" lon="10.2961780">
	<ele>1195.20</ele>
	<time>2025-07-29T06:42:25.000Z</time>
</trkpt>
<trkpt lat="45.9089120" lon="10.2961790">
	<ele>1195.20</ele>
	<time>2025-07-29T06:42:26.000Z</time>
</trkpt>
<trkpt lat="45.9089060" lon="10.2961810">
	<ele>1195.20</ele>
	<time>2025-07-29T06:42:27.000Z</time>
</trkpt>
<trkpt lat="45.9089040" lon="10.2961850">
	<ele>1195.40</ele>
	<time>2025-07-29T06:42:28.000Z</time>
</trkpt>
<trkpt lat="45.9089050" lon="10.2961850">
	<ele>1195.40</ele>
	<time>2025-07-29T06:42:29.000Z</time>
</trkpt>
<trkpt lat="45.9089050" lon="10.2961860">
	<ele>1195.60</ele>
	<time>2025-07-29T06:42:30.000Z</time>
</trkpt>
<trkpt lat="45.9089060" lon="10.2961840">
	<ele>1195.80</ele>
	<time>2025-07-29T06:42:31.000Z</time>
</trkpt>
<trkpt lat="45.9088990" lon="10.2961900">
	<ele>1196.20</ele>
	<time>2025-07-29T06:42:32.000Z</time>
</trkpt>
<trkpt lat="45.9088920" lon="10.2962010">
	<ele>1196.20</ele>
	<time>2025-07-29T06:42:33.000Z</time>
</trkpt>
<trkpt lat="45.9088910" lon="10.2962050">
	<ele>1196.40</ele>
	<time>2025-07-29T06:42:34.000Z</time>
</trkpt>
<trkpt lat="45.9089100" lon="10.2962130">
	<ele>1196.60</ele>
	<time>2025-07-29T06:42:35.000Z</time>
</trkpt>
<trkpt lat="45.9089140" lon="10.2962120">
	<ele>1196.80</ele>
	<time>2025-07-29T06:42:36.000Z</time>
</trkpt>
<trkpt lat="45.9089140" lon="10.2962040">
	<ele>1196.80</ele>
	<time>2025-07-29T06:42:37.000Z</time>
</trkpt>
<trkpt lat="45.9088980" lon="10.2961930">
	<ele>1197.00</ele>
	<time>2025-07-29T06:42:38.000Z</time>
</trkpt>
<trkpt lat="45.9088920" lon="10.2961790">
	<ele>1197.20</ele>
	<time>2025-07-29T06:42:39.000Z</time>
</trkpt>
<trkpt lat="45.9088980" lon="10.2961680">
	<ele>1197.40</ele>
	<time>2025-07-29T06:42:40.000Z</time>
</trkpt>
<trkpt lat="45.9088920" lon="10.2961540">
	<ele>1197.40</ele>
	<time>2025-07-29T06:42:41.000Z</time>
</trkpt>
<trkpt lat="45.9088910" lon="10.2961490">
	<ele>1197.60</ele>
	<time>2025-07-29T06:42:42.000Z</time>
</trkpt>
<trkpt lat="45.9088830" lon="10.2961370">
	<ele>1197.80</ele>
	<time>2025-07-29T06:42:43.000Z</time>
</trkpt>
<trkpt lat="45.9088830" lon="10.2961320">
	<ele>1198.00</ele>
	<time>2025-07-29T06:42:44.000Z</time>
</trkpt>
<trkpt lat="45.9088770" lon="10.2961290">
	<ele>1198.20</ele>
	<time>2025-07-29T06:42:45.000Z</time>
</trkpt>
<trkpt lat="45.9088660" lon="10.2961200">
	<ele>1198.60</ele>
	<time>2025-07-29T06:42:46.000Z</time>
</trkpt>
<trkpt lat="45.9088580" lon="10.2961130">
	<ele>1198.80</ele>
	<time>2025-07-29T06:42:47.000Z</time>
</trkpt>
<trkpt lat="45.9088440" lon="10.2961080">
	<ele>1199.00</ele>
	<time>2025-07-29T06:42:48.000Z</time>
</trkpt>
<trkpt lat="45.9088260" lon="10.2961100">
	<ele>1199.00</ele>
	<time>2025-07-29T06:42:49.000Z</time>
</trkpt>
<trkpt lat="45.9088060" lon="10.2961100">
	<ele>1199.20</ele>
	<time>2025-07-29T06:42:50.000Z</time>
</trkpt>
<trkpt lat="45.9088010" lon="10.2961060">
	<ele>1199.60</ele>
	<time>2025-07-29T06:42:51.000Z</time>
</trkpt>
<trkpt lat="45.9088020" lon="10.2961040">
	<ele>1199.80</ele>
	<time>2025-07-29T06:42:52.000Z</time>
</trkpt>
<trkpt lat="45.9088010" lon="10.2960990">
	<ele>1200.00</ele>
	<time>2025-07-29T06:42:53.000Z</time>
</trkpt>
<trkpt lat="45.9087930" lon="10.2960870">
	<ele>1200.00</ele>
	<time>2025-07-29T06:42:54.000Z</time>
</trkpt>
<trkpt lat="45.9087930" lon="10.2960790">
	<ele>1200.20</ele>
	<time>2025-07-29T06:42:55.000Z</time>
</trkpt>
<trkpt lat="45.9087890" lon="10.2960760">
	<ele>1200.20</ele>
	<time>2025-07-29T06:42:56.000Z</time>
</trkpt>
<trkpt lat="45.9087850" lon="10.2960780">
	<ele>1200.60</ele>
	<time>2025-07-29T06:42:57.000Z</time>
</trkpt>
<trkpt lat="45.9087830" lon="10.2960800">
	<ele>1200.80</ele>
	<time>2025-07-29T06:42:58.000Z</time>
</trkpt>
<trkpt lat="45.9087800" lon="10.2960830">
	<ele>1201.00</ele>
	<time>2025-07-29T06:42:59.000Z</time>
</trkpt>
<trkpt lat="45.9087860" lon="10.2960850">
	<ele>1201.40</ele>
	<time>2025-07-29T06:43:00.000Z</time>
</trkpt>
<trkpt lat="45.9088060" lon="10.2961050">
	<ele>1201.60</ele>
	<time>2025-07-29T06:43:01.000Z</time>
</trkpt>
<trkpt lat="45.9088130" lon="10.2961160">
	<ele>1201.80</ele>
	<time>2025-07-29T06:43:02.000Z</time>
</trkpt>
<trkpt lat="45.9088120" lon="10.2961250">
	<ele>1202.00</ele>
	<time>2025-07-29T06:43:03.000Z</time>
</trkpt>
<trkpt lat="45.9087880" lon="10.2961240">
	<ele>1202.00</ele>
	<time>2025-07-29T06:43:04.000Z</time>
</trkpt>
<trkpt lat="45.9087780" lon="10.2961230">
	<ele>1202.40</ele>
	<time>2025-07-29T06:43:05.000Z</time>
</trkpt>
<trkpt lat="45.9087670" lon="10.2961140">
	<ele>1202.60</ele>
	<time>2025-07-29T06:43:06.000Z</time>
</trkpt>
<trkpt lat="45.9087650" lon="10.2961050">
	<ele>1202.80</ele>
	<time>2025-07-29T06:43:07.000Z</time>
</trkpt>
<trkpt lat="45.9087720" lon="10.2961010">
	<ele>1203.00</ele>
	<time>2025-07-29T06:43:08.000Z</time>
</trkpt>
<trkpt lat="45.9087770" lon="10.2960890">
	<ele>1203.40</ele>
	<time>2025-07-29T06:43:09.000Z</time>
</trkpt>
<trkpt lat="45.9087820" lon="10.2960800">
	<ele>1203.60</ele>
	<time>2025-07-29T06:43:10.000Z</time>
</trkpt>
<trkpt lat="45.9087850" lon="10.2960710">
	<ele>1203.80</ele>
	<time>2025-07-29T06:43:11.000Z</time>
</trkpt>
<trkpt lat="45.9087850" lon="10.2960680">
	<ele>1204.00</ele>
	<time>2025-07-29T06:43:12.000Z</time>
</trkpt>
<trkpt lat="45.9087850" lon="10.2960710">
	<ele>1204.20</ele>
	<time>2025-07-29T06:43:13.000Z</time>
</trkpt>
<trkpt lat="45.9087790" lon="10.2960770">
	<ele>1204.40</ele>
	<time>2025-07-29T06:43:14.000Z</time>
</trkpt>
<trkpt lat="45.9087720" lon="10.2960860">
	<ele>1204.60</ele>
	<time>2025-07-29T06:43:15.000Z</time>
</trkpt>
<trkpt lat="45.9087690" lon="10.2960870">
	<ele>1204.60</ele>
	<time>2025-07-29T06:43:16.000Z</time>
</trkpt>
<trkpt lat="45.9087660" lon="10.2960830">
	<ele>1204.80</ele>
	<time>2025-07-29T06:43:17.000Z</time>
</trkpt>
<trkpt lat="45.9087710" lon="10.2960750">
	<ele>1205.20</ele>
	<time>2025-07-29T06:43:18.000Z</time>
</trkpt>
<trkpt lat="45.9087690" lon="10.2960720">
	<ele>1205.60</ele>
	<time>2025-07-29T06:43:19.000Z</time>
</trkpt>
<trkpt lat="45.9087740" lon="10.2960570">
	<ele>1205.80</ele>
	<time>2025-07-29T06:43:20.000Z</time>
</trkpt>
<trkpt lat="45.9087750" lon="10.2960400">
	<ele>1205.80</ele>
	<time>2025-07-29T06:43:21.000Z</time>
</trkpt>
<trkpt lat="45.9087650" lon="10.2960290">
	<ele>1206.00</ele>
	<time>2025-07-29T06:43:22.000Z</time>
</trkpt>
<trkpt lat="45.9087520" lon="10.2960190">
	<ele>1206.40</ele>
	<time>2025-07-29T06:43:23.000Z</time>
</trkpt>
<trkpt lat="45.9087470" lon="10.2960010">
	<ele>1206.60</ele>
	<time>2025-07-29T06:43:24.000Z</time>
</trkpt>
<trkpt lat="45.9087430" lon="10.2959870">
	<ele>1206.80</ele>
	<time>2025-07-29T06:43:25.000Z</time>
</trkpt>
<trkpt lat="45.9087370" lon="10.2959850">
	<ele>1207.00</ele>
	<time>2025-07-29T06:43:26.000Z</time>
</trkpt>
<trkpt lat="45.9087340" lon="10.2959870">
	<ele>1207.20</ele>
	<time>2025-07-29T06:43:27.000Z</time>
</trkpt>
<trkpt lat="45.9087260" lon="10.2959830">
	<ele>1207.40</ele>
	<time>2025-07-29T06:43:28.000Z</time>
</trkpt>
<trkpt lat="45.9087110" lon="10.2959790">
	<ele>1207.40</ele>
	<time>2025-07-29T06:43:29.000Z</time>
</trkpt>
<trkpt lat="45.9086950" lon="10.2959750">
	<ele>1207.60</ele>
	<time>2025-07-29T06:43:30.000Z</time>
</trkpt>
<trkpt lat="45.9086870" lon="10.2959670">
	<ele>1207.80</ele>
	<time>2025-07-29T06:43:31.000Z</time>
</trkpt>
<trkpt lat="45.9086820" lon="10.2959620">
	<ele>1208.00</ele>
	<time>2025-07-29T06:43:32.000Z</time>
</trkpt>
<trkpt lat="45.9086820" lon="10.2959520">
	<ele>1208.20</ele>
	<time>2025-07-29T06:43:33.000Z</time>
</trkpt>
<trkpt lat="45.9086850" lon="10.2959400">
	<ele>1208.40</ele>
	<time>2025-07-29T06:43:34.000Z</time>
</trkpt>
<trkpt lat="45.9086860" lon="10.2959360">
	<ele>1208.60</ele>
	<time>2025-07-29T06:43:35.000Z</time>
</trkpt>
<trkpt lat="45.9086840" lon="10.2959290">
	<ele>1208.60</ele>
	<time>2025-07-29T06:43:36.000Z</time>
</trkpt>
<trkpt lat="45.9086860" lon="10.2959190">
	<ele>1208.80</ele>
	<time>2025-07-29T06:43:37.000Z</time>
</trkpt>
<trkpt lat="45.9086900" lon="10.2959140">
	<ele>1209.20</ele>
	<time>2025-07-29T06:43:38.000Z</time>
</trkpt>
<trkpt lat="45.9086850" lon="10.2959040">
	<ele>1209.60</ele>
	<time>2025-07-29T06:43:39.000Z</time>
</trkpt>
<trkpt lat="45.9086750" lon="10.2958920">
	<ele>1209.80</ele>
	<time>2025-07-29T06:43:40.000Z</time>
</trkpt>
<trkpt lat="45.9086720" lon="10.2958890">
	<ele>1209.80</ele>
	<time>2025-07-29T06:43:41.000Z</time>
</trkpt>
<trkpt lat="45.9086730" lon="10.2958840">
	<ele>1210.00</ele>
	<time>2025-07-29T06:43:42.000Z</time>
</trkpt>
<trkpt lat="45.9086710" lon="10.2958730">
	<ele>1210.00</ele>
	<time>2025-07-29T06:43:43.000Z</time>
</trkpt>
<trkpt lat="45.9086770" lon="10.2958620">
	<ele>1210.00</ele>
	<time>2025-07-29T06:43:44.000Z</time>
</trkpt>
<trkpt lat="45.9086940" lon="10.2958400">
	<ele>1210.20</ele>
	<time>2025-07-29T06:43:45.000Z</time>
</trkpt>
<trkpt lat="45.9087010" lon="10.2958210">
	<ele>1210.40</ele>
	<time>2025-07-29T06:43:46.000Z</time>
</trkpt>
<trkpt lat="45.9087030" lon="10.2958120">
	<ele>1210.60</ele>
	<time>2025-07-29T06:43:47.000Z</time>
</trkpt>
<trkpt lat="45.9087050" lon="10.2958060">
	<ele>1210.80</ele>
	<time>2025-07-29T06:43:48.000Z</time>
</trkpt>
<trkpt lat="45.9087220" lon="10.2957850">
	<ele>1211.00</ele>
	<time>2025-07-29T06:43:49.000Z</time>
</trkpt>
<trkpt lat="45.9087320" lon="10.2957620">
	<ele>1211.20</ele>
	<time>2025-07-29T06:43:50.000Z</time>
</trkpt>
<trkpt lat="45.9087490" lon="10.2957500">
	<ele>1211.40</ele>
	<time>2025-07-29T06:43:51.000Z</time>
</trkpt>
<trkpt lat="45.9087560" lon="10.2957330">
	<ele>1211.60</ele>
	<time>2025-07-29T06:43:52.000Z</time>
</trkpt>
<trkpt lat="45.9087640" lon="10.2957220">
	<ele>1211.60</ele>
	<time>2025-07-29T06:43:53.000Z</time>
</trkpt>
<trkpt lat="45.9087680" lon="10.2957200">
	<ele>1211.80</ele>
	<time>2025-07-29T06:43:54.000Z</time>
</trkpt>
<trkpt lat="45.9087660" lon="10.2957170">
	<ele>1211.80</ele>
	<time>2025-07-29T06:43:55.000Z</time>
</trkpt>
<trkpt lat="45.9087460" lon="10.2957140">
	<ele>1211.80</ele>
	<time>2025-07-29T06:43:56.000Z</time>
</trkpt>
<trkpt lat="45.9087440" lon="10.2957070">
	<ele>1212.00</ele>
	<time>2025-07-29T06:43:57.000Z</time>
</trkpt>
<trkpt lat="45.9087390" lon="10.2956930">
	<ele>1212.00</ele>
	<time>2025-07-29T06:43:58.000Z</time>
</trkpt>
<trkpt lat="45.9087390" lon="10.2956810">
	<ele>1212.00</ele>
	<time>2025-07-29T06:43:59.000Z</time>
</trkpt>
<trkpt lat="45.9087510" lon="10.2956730">
	<ele>1212.20</ele>
	<time>2025-07-29T06:44:00.000Z</time>
</trkpt>
<trkpt lat="45.9087570" lon="10.2956680">
	<ele>1212.40</ele>
	<time>2025-07-29T06:44:01.000Z</time>
</trkpt>
<trkpt lat="45.9087560" lon="10.2956610">
	<ele>1212.60</ele>
	<time>2025-07-29T06:44:02.000Z</time>
</trkpt>
<trkpt lat="45.9087500" lon="10.2956570">
	<ele>1212.80</ele>
	<time>2025-07-29T06:44:03.000Z</time>
</trkpt>
<trkpt lat="45.9087460" lon="10.2956560">
	<ele>1212.80</ele>
	<time>2025-07-29T06:44:04.000Z</time>
</trkpt>
<trkpt lat="45.9087470" lon="10.2956540">
	<ele>1213.00</ele>
	<time>2025-07-29T06:44:05.000Z</time>
</trkpt>
<trkpt lat="45.9087400" lon="10.2956490">
	<ele>1213.20</ele>
	<time>2025-07-29T06:44:06.000Z</time>
</trkpt>
<trkpt lat="45.9087490" lon="10.2956430">
	<ele>1213.40</ele>
	<time>2025-07-29T06:44:07.000Z</time>
</trkpt>
<trkpt lat="45.9087600" lon="10.2956360">
	<ele>1213.60</ele>
	<time>2025-07-29T06:44:08.000Z</time>
</trkpt>
<trkpt lat="45.9087710" lon="10.2956210">
	<ele>1213.60</ele>
	<time>2025-07-29T06:44:09.000Z</time>
</trkpt>
<trkpt lat="45.9087800" lon="10.2956070">
	<ele>1213.80</ele>
	<time>2025-07-29T06:44:10.000Z</time>
</trkpt>
<trkpt lat="45.9087790" lon="10.2955980">
	<ele>1214.00</ele>
	<time>2025-07-29T06:44:11.000Z</time>
</trkpt>
<trkpt lat="45.9087760" lon="10.2955880">
	<ele>1214.20</ele>
	<time>2025-07-29T06:44:12.000Z</time>
</trkpt>
<trkpt lat="45.9087650" lon="10.2955800">
	<ele>1214.40</ele>
	<time>2025-07-29T06:44:13.000Z</time>
</trkpt>
<trkpt lat="45.9087560" lon="10.2955750">
	<ele>1214.80</ele>
	<time>2025-07-29T06:44:14.000Z</time>
</trkpt>
<trkpt lat="45.9087500" lon="10.2955690">
	<ele>1214.80</ele>
	<time>2025-07-29T06:44:15.000Z</time>
</trkpt>
<trkpt lat="45.9087540" lon="10.2955520">
	<ele>1215.00</ele>
	<time>2025-07-29T06:44:16.000Z</time>
</trkpt>
<trkpt lat="45.9087580" lon="10.2955390">
	<ele>1215.20</ele>
	<time>2025-07-29T06:44:17.000Z</time>
</trkpt>
<trkpt lat="45.9087630" lon="10.2955350">
	<ele>1215.40</ele>
	<time>2025-07-29T06:44:18.000Z</time>
</trkpt>
<trkpt lat="45.9087760" lon="10.2955230">
	<ele>1215.40</ele>
	<time>2025-07-29T06:44:19.000Z</time>
</trkpt>
<trkpt lat="45.9087770" lon="10.2955170">
	<ele>1215.80</ele>
	<time>2025-07-29T06:44:20.000Z</time>
</trkpt>
<trkpt lat="45.9087820" lon="10.2955090">
	<ele>1216.00</ele>
	<time>2025-07-29T06:44:21.000Z</time>
</trkpt>
<trkpt lat="45.9087810" lon="10.2955060">
	<ele>1216.20</ele>
	<time>2025-07-29T06:44:22.000Z</time>
</trkpt>
<trkpt lat="45.9087810" lon="10.2955060">
	<ele>1216.40</ele>
	<time>2025-07-29T06:44:23.000Z</time>
</trkpt>
<trkpt lat="45.9087790" lon="10.2955010">
	<ele>1216.60</ele>
	<time>2025-07-29T06:44:24.000Z</time>
</trkpt>
<trkpt lat="45.9087830" lon="10.2954910">
	<ele>1216.80</ele>
	<time>2025-07-29T06:44:25.000Z</time>
</trkpt>
<trkpt lat="45.9087800" lon="10.2954820">
	<ele>1217.20</ele>
	<time>2025-07-29T06:44:26.000Z</time>
</trkpt>
<trkpt lat="45.9087800" lon="10.2954740">
	<ele>1217.40</ele>
	<time>2025-07-29T06:44:27.000Z</time>
</trkpt>
<trkpt lat="45.9087810" lon="10.2954680">
	<ele>1217.60</ele>
	<time>2025-07-29T06:44:28.000Z</time>
</trkpt>
<trkpt lat="45.9087750" lon="10.2954590">
	<ele>1217.60</ele>
	<time>2025-07-29T06:44:29.000Z</time>
</trkpt>
<trkpt lat="45.9087710" lon="10.2954490">
	<ele>1217.80</ele>
	<time>2025-07-29T06:44:30.000Z</time>
</trkpt>
<trkpt lat="45.9087710" lon="10.2954470">
	<ele>1218.20</ele>
	<time>2025-07-29T06:44:31.000Z</time>
</trkpt>
<trkpt lat="45.9087710" lon="10.2954480">
	<ele>1218.40</ele>
	<time>2025-07-29T06:44:32.000Z</time>
</trkpt>
<trkpt lat="45.9087680" lon="10.2954390">
	<ele>1218.60</ele>
	<time>2025-07-29T06:44:33.000Z</time>
</trkpt>
<trkpt lat="45.9087690" lon="10.2954380">
	<ele>1218.80</ele>
	<time>2025-07-29T06:44:34.000Z</time>
</trkpt>
<trkpt lat="45.9087730" lon="10.2954210">
	<ele>1219.00</ele>
	<time>2025-07-29T06:44:35.000Z</time>
</trkpt>
<trkpt lat="45.9087740" lon="10.2954030">
	<ele>1219.20</ele>
	<time>2025-07-29T06:44:36.000Z</time>
</trkpt>
<trkpt lat="45.9087720" lon="10.2953880">
	<ele>1219.40</ele>
	<time>2025-07-29T06:44:37.000Z</time>
</trkpt>
<trkpt lat="45.9087740" lon="10.2953830">
	<ele>1219.60</ele>
	<time>2025-07-29T06:44:38.000Z</time>
</trkpt>
<trkpt lat="45.9087690" lon="10.2953750">
	<ele>1220.00</ele>
	<time>2025-07-29T06:44:39.000Z</time>
</trkpt>
<trkpt lat="45.9087640" lon="10.2953680">
	<ele>1220.00</ele>
	<time>2025-07-29T06:44:40.000Z</time>
</trkpt>
<trkpt lat="45.9087600" lon="10.2953640">
	<ele>1220.40</ele>
	<time>2025-07-29T06:44:41.000Z</time>
</trkpt>
<trkpt lat="45.9087600" lon="10.2953540">
	<ele>1220.60</ele>
	<time>2025-07-29T06:44:42.000Z</time>
</trkpt>
<trkpt lat="45.9087590" lon="10.2953410">
	<ele>1220.80</ele>
	<time>2025-07-29T06:44:43.000Z</time>
</trkpt>
<trkpt lat="45.9087510" lon="10.2953240">
	<ele>1221.00</ele>
	<time>2025-07-29T06:44:44.000Z</time>
</trkpt>
<trkpt lat="45.9087460" lon="10.2953100">
	<ele>1221.20</ele>
	<time>2025-07-29T06:44:45.000Z</time>
</trkpt>
<trkpt lat="45.9087400" lon="10.2952920">
	<ele>1221.40</ele>
	<time>2025-07-29T06:44:46.000Z</time>
</trkpt>
<trkpt lat="45.9087290" lon="10.2952710">
	<ele>1221.60</ele>
	<time>2025-07-29T06:44:47.000Z</time>
</trkpt>
<trkpt lat="45.9087160" lon="10.2952370">
	<ele>1221.80</ele>
	<time>2025-07-29T06:44:48.000Z</time>
</trkpt>
<trkpt lat="45.9086930" lon="10.2952130">
	<ele>1222.00</ele>
	<time>2025-07-29T06:44:49.000Z</time>
</trkpt>
<trkpt lat="45.9086610" lon="10.2952060">
	<ele>1222.20</ele>
	<time>2025-07-29T06:44:50.000Z</time>
</trkpt>
<trkpt lat="45.9086480" lon="10.2951990">
	<ele>1222.60</ele>
	<time>2025-07-29T06:44:51.000Z</time>
</trkpt>
<trkpt lat="45.9086340" lon="10.2951910">
	<ele>1222.80</ele>
	<time>2025-07-29T06:44:52.000Z</time>
</trkpt>
<trkpt lat="45.9086300" lon="10.2951890">
	<ele>1223.00</ele>
	<time>2025-07-29T06:44:53.000Z</time>
</trkpt>
<trkpt lat="45.9086220" lon="10.2951870">
	<ele>1223.20</ele>
	<time>2025-07-29T06:44:54.000Z</time>
</trkpt>
<trkpt lat="45.9086080" lon="10.2951810">
	<ele>1223.40</ele>
	<time>2025-07-29T06:44:55.000Z</time>
</trkpt>
<trkpt lat="45.9085720" lon="10.2951580">
	<ele>1223.60</ele>
	<time>2025-07-29T06:44:56.000Z</time>
</trkpt>
<trkpt lat="45.9085720" lon="10.2951550">
	<ele>1223.60</ele>
	<time>2025-07-29T06:44:57.000Z</time>
</trkpt>
<trkpt lat="45.9085790" lon="10.2951440">
	<ele>1223.80</ele>
	<time>2025-07-29T06:44:58.000Z</time>
</trkpt>
<trkpt lat="45.9086010" lon="10.2951410">
	<ele>1224.00</ele>
	<time>2025-07-29T06:44:59.000Z</time>
</trkpt>
<trkpt lat="45.9086020" lon="10.2951350">
	<ele>1224.20</ele>
	<time>2025-07-29T06:45:00.000Z</time>
</trkpt>
<trkpt lat="45.9086140" lon="10.2951390">
	<ele>1224.40</ele>
	<time>2025-07-29T06:45:01.000Z</time>
</trkpt>
<trkpt lat="45.9086200" lon="10.2951360">
	<ele>1224.60</ele>
	<time>2025-07-29T06:45:02.000Z</time>
</trkpt>
<trkpt lat="45.9086210" lon="10.2951370">
	<ele>1224.80</ele>
	<time>2025-07-29T06:45:03.000Z</time>
</trkpt>
<trkpt lat="45.9086190" lon="10.2951330">
	<ele>1224.80</ele>
	<time>2025-07-29T06:45:04.000Z</time>
</trkpt>
<trkpt lat="45.9086180" lon="10.2951290">
	<ele>1224.80</ele>
	<time>2025-07-29T06:45:05.000Z</time>
</trkpt>
<trkpt lat="45.9086260" lon="10.2951170">
	<ele>1225.20</ele>
	<time>2025-07-29T06:45:06.000Z</time>
</trkpt>
<trkpt lat="45.9086330" lon="10.2951140">
	<ele>1225.40</ele>
	<time>2025-07-29T06:45:07.000Z</time>
</trkpt>
<trkpt lat="45.9086180" lon="10.2951280">
	<ele>1225.40</ele>
	<time>2025-07-29T06:45:08.000Z</time>
</trkpt>
<trkpt lat="45.9086030" lon="10.2951380">
	<ele>1225.80</ele>
	<time>2025-07-29T06:45:09.000Z</time>
</trkpt>
<trkpt lat="45.9085960" lon="10.2951370">
	<ele>1225.80</ele>
	<time>2025-07-29T06:45:10.000Z</time>
</trkpt>
<trkpt lat="45.9085920" lon="10.2951300">
	<ele>1226.20</ele>
	<time>2025-07-29T06:45:11.000Z</time>
</trkpt>
<trkpt lat="45.9085920" lon="10.2951180">
	<ele>1226.40</ele>
	<time>2025-07-29T06:45:12.000Z</time>
</trkpt>
<trkpt lat="45.9085940" lon="10.2951080">
	<ele>1226.60</ele>
	<time>2025-07-29T06:45:13.000Z</time>
</trkpt>
<trkpt lat="45.9085860" lon="10.2951050">
	<ele>1226.80</ele>
	<time>2025-07-29T06:45:14.000Z</time>
</trkpt>
<trkpt lat="45.9085730" lon="10.2950970">
	<ele>1226.80</ele>
	<time>2025-07-29T06:45:15.000Z</time>
</trkpt>
<trkpt lat="45.9085600" lon="10.2950930">
	<ele>1227.00</ele>
	<time>2025-07-29T06:45:16.000Z</time>
</trkpt>
<trkpt lat="45.9085560" lon="10.2950840">
	<ele>1227.00</ele>
	<time>2025-07-29T06:45:17.000Z</time>
</trkpt>
<trkpt lat="45.9085460" lon="10.2950810">
	<ele>1227.20</ele>
	<time>2025-07-29T06:45:18.000Z</time>
</trkpt>
<trkpt lat="45.9085340" lon="10.2950820">
	<ele>1227.60</ele>
	<time>2025-07-29T06:45:19.000Z</time>
</trkpt>
<trkpt lat="45.9085310" lon="10.2950690">
	<ele>1227.60</ele>
	<time>2025-07-29T06:45:20.000Z</time>
</trkpt>
<trkpt lat="45.9085260" lon="10.2950550">
	<ele>1227.80</ele>
	<time>2025-07-29T06:45:21.000Z</time>
</trkpt>
<trkpt lat="45.9085230" lon="10.2950530">
	<ele>1228.00</ele>
	<time>2025-07-29T06:45:22.000Z</time>
</trkpt>
<trkpt lat="45.9085160" lon="10.2950440">
	<ele>1228.40</ele>
	<time>2025-07-29T06:45:23.000Z</time>
</trkpt>
<trkpt lat="45.9085050" lon="10.2950420">
	<ele>1228.60</ele>
	<time>2025-07-29T06:45:24.000Z</time>
</trkpt>
<trkpt lat="45.9084900" lon="10.2950450">
	<ele>1228.80</ele>
	<time>2025-07-29T06:45:25.000Z</time>
</trkpt>
<trkpt lat="45.9084700" lon="10.2950420">
	<ele>1228.80</ele>
	<time>2025-07-29T06:45:26.000Z</time>
</trkpt>
<trkpt lat="45.9084630" lon="10.2950410">
	<ele>1228.80</ele>
	<time>2025-07-29T06:45:27.000Z</time>
</trkpt>
<trkpt lat="45.9084520" lon="10.2950410">
	<ele>1229.00</ele>
	<time>2025-07-29T06:45:28.000Z</time>
</trkpt>
<trkpt lat="45.9084460" lon="10.2950380">
	<ele>1229.00</ele>
	<time>2025-07-29T06:45:29.000Z</time>
</trkpt>
<trkpt lat="45.9084410" lon="10.2950350">
	<ele>1229.20</ele>
	<time>2025-07-29T06:45:30.000Z</time>
</trkpt>
<trkpt lat="45.9084320" lon="10.2950310">
	<ele>1229.60</ele>
	<time>2025-07-29T06:45:31.000Z</time>
</trkpt>
<trkpt lat="45.9084010" lon="10.2950240">
	<ele>1229.60</ele>
	<time>2025-07-29T06:45:32.000Z</time>
</trkpt>
<trkpt lat="45.9083910" lon="10.2950130">
	<ele>1230.00</ele>
	<time>2025-07-29T06:45:33.000Z</time>
</trkpt>
<trkpt lat="45.9083860" lon="10.2950020">
	<ele>1230.20</ele>
	<time>2025-07-29T06:45:34.000Z</time>
</trkpt>
<trkpt lat="45.9083870" lon="10.2949910">
	<ele>1230.40</ele>
	<time>2025-07-29T06:45:35.000Z</time>
</trkpt>
<trkpt lat="45.9083850" lon="10.2949860">
	<ele>1230.60</ele>
	<time>2025-07-29T06:45:36.000Z</time>
</trkpt>
<trkpt lat="45.9083760" lon="10.2949890">
	<ele>1230.80</ele>
	<time>2025-07-29T06:45:37.000Z</time>
</trkpt>
<trkpt lat="45.9083700" lon="10.2949880">
	<ele>1230.80</ele>
	<time>2025-07-29T06:45:38.000Z</time>
</trkpt>
<trkpt lat="45.9083640" lon="10.2949790">
	<ele>1231.00</ele>
	<time>2025-07-29T06:45:39.000Z</time>
</trkpt>
<trkpt lat="45.9083540" lon="10.2949650">
	<ele>1231.40</ele>
	<time>2025-07-29T06:45:40.000Z</time>
</trkpt>
<trkpt lat="45.9083390" lon="10.2949640">
	<ele>1231.60</ele>
	<time>2025-07-29T06:45:41.000Z</time>
</trkpt>
<trkpt lat="45.9083200" lon="10.2949600">
	<ele>1231.60</ele>
	<time>2025-07-29T06:45:42.000Z</time>
</trkpt>
<trkpt lat="45.9083220" lon="10.2949590">
	<ele>1231.80</ele>
	<time>2025-07-29T06:45:43.000Z</time>
</trkpt>
<trkpt lat="45.9083210" lon="10.2949530">
	<ele>1232.00</ele>
	<time>2025-07-29T06:45:44.000Z</time>
</trkpt>
<trkpt lat="45.9083170" lon="10.2949460">
	<ele>1232.20</ele>
	<time>2025-07-29T06:45:45.000Z</time>
</trkpt>
<trkpt lat="45.9083180" lon="10.2949380">
	<ele>1232.40</ele>
	<time>2025-07-29T06:45:46.000Z</time>
</trkpt>
<trkpt lat="45.9083160" lon="10.2949380">
	<ele>1232.60</ele>
	<time>2025-07-29T06:45:47.000Z</time>
</trkpt>
<trkpt lat="45.9083210" lon="10.2949290">
	<ele>1232.80</ele>
	<time>2025-07-29T06:45:48.000Z</time>
</trkpt>
<trkpt lat="45.9083180" lon="10.2949250">
	<ele>1233.00</ele>
	<time>2025-07-29T06:45:49.000Z</time>
</trkpt>
<trkpt lat="45.9083130" lon="10.2949250">
	<ele>1233.20</ele>
	<time>2025-07-29T06:45:50.000Z</time>
</trkpt>
<trkpt lat="45.9082990" lon="10.2949270">
	<ele>1233.40</ele>
	<time>2025-07-29T06:45:51.000Z</time>
</trkpt>
<trkpt lat="45.9082850" lon="10.2949250">
	<ele>1233.60</ele>
	<time>2025-07-29T06:45:52.000Z</time>
</trkpt>
<trkpt lat="45.9082660" lon="10.2949140">
	<ele>1233.80</ele>
	<time>2025-07-29T06:45:53.000Z</time>
</trkpt>
<trkpt lat="45.9082570" lon="10.2949070">
	<ele>1234.00</ele>
	<time>2025-07-29T06:45:54.000Z</time>
</trkpt>
<trkpt lat="45.9082420" lon="10.2949010">
	<ele>1234.20</ele>
	<time>2025-07-29T06:45:55.000Z</time>
</trkpt>
<trkpt lat="45.9082330" lon="10.2948990">
	<ele>1234.40</ele>
	<time>2025-07-29T06:45:56.000Z</time>
</trkpt>
<trkpt lat="45.9082280" lon="10.2948970">
	<ele>1234.80</ele>
	<time>2025-07-29T06:45:57.000Z</time>
</trkpt>
<trkpt lat="45.9082230" lon="10.2948980">
	<ele>1234.80</ele>
	<time>2025-07-29T06:45:58.000Z</time>
</trkpt>
<trkpt lat="45.9082130" lon="10.2949010">
	<ele>1235.00</ele>
	<time>2025-07-29T06:45:59.000Z</time>
</trkpt>
<trkpt lat="45.9082090" lon="10.2949010">
	<ele>1235.40</ele>
	<time>2025-07-29T06:46:00.000Z</time>
</trkpt>
<trkpt lat="45.9081940" lon="10.2948920">
	<ele>1235.60</ele>
	<time>2025-07-29T06:46:01.000Z</time>
</trkpt>
<trkpt lat="45.9081870" lon="10.2948880">
	<ele>1235.60</ele>
	<time>2025-07-29T06:46:02.000Z</time>
</trkpt>
<trkpt lat="45.9081790" lon="10.2948850">
	<ele>1236.00</ele>
	<time>2025-07-29T06:46:03.000Z</time>
</trkpt>
<trkpt lat="45.9081660" lon="10.2948940">
	<ele>1236.20</ele>
	<time>2025-07-29T06:46:04.000Z</time>
</trkpt>
<trkpt lat="45.9081520" lon="10.2949000">
	<ele>1236.40</ele>
	<time>2025-07-29T06:46:05.000Z</time>
</trkpt>
<trkpt lat="45.9081460" lon="10.2948980">
	<ele>1236.60</ele>
	<time>2025-07-29T06:46:06.000Z</time>
</trkpt>
<trkpt lat="45.9081510" lon="10.2948880">
	<ele>1236.80</ele>
	<time>2025-07-29T06:46:07.000Z</time>
</trkpt>
<trkpt lat="45.9081630" lon="10.2948710">
	<ele>1237.20</ele>
	<time>2025-07-29T06:46:08.000Z</time>
</trkpt>
<trkpt lat="45.9081590" lon="10.2948680">
	<ele>1237.40</ele>
	<time>2025-07-29T06:46:09.000Z</time>
</trkpt>
<trkpt lat="45.9081550" lon="10.2948730">
	<ele>1237.40</ele>
	<time>2025-07-29T06:46:10.000Z</time>
</trkpt>
<trkpt lat="45.9081490" lon="10.2948780">
	<ele>1237.80</ele>
	<time>2025-07-29T06:46:11.000Z</time>
</trkpt>
<trkpt lat="45.9081290" lon="10.2948840">
	<ele>1237.80</ele>
	<time>2025-07-29T06:46:12.000Z</time>
</trkpt>
<trkpt lat="45.9081170" lon="10.2948840">
	<ele>1238.00</ele>
	<time>2025-07-29T06:46:13.000Z</time>
</trkpt>
<trkpt lat="45.9081120" lon="10.2948820">
	<ele>1238.40</ele>
	<time>2025-07-29T06:46:14.000Z</time>
</trkpt>
<trkpt lat="45.9080990" lon="10.2948810">
	<ele>1238.60</ele>
	<time>2025-07-29T06:46:15.000Z</time>
</trkpt>
<trkpt lat="45.9080940" lon="10.2948780">
	<ele>1238.80</ele>
	<time>2025-07-29T06:46:16.000Z</time>
</trkpt>
<trkpt lat="45.9080910" lon="10.2948670">
	<ele>1238.80</ele>
	<time>2025-07-29T06:46:17.000Z</time>
</trkpt>
<trkpt lat="45.9080760" lon="10.2948580">
	<ele>1239.00</ele>
	<time>2025-07-29T06:46:18.000Z</time>
</trkpt>
<trkpt lat="45.9080640" lon="10.2948560">
	<ele>1239.20</ele>
	<time>2025-07-29T06:46:19.000Z</time>
</trkpt>
<trkpt lat="45.9080550" lon="10.2948480">
	<ele>1239.20</ele>
	<time>2025-07-29T06:46:20.000Z</time>
</trkpt>
<trkpt lat="45.9080440" lon="10.2948420">
	<ele>1239.40</ele>
	<time>2025-07-29T06:46:21.000Z</time>
</trkpt>
<trkpt lat="45.9080390" lon="10.2948380">
	<ele>1239.40</ele>
	<time>2025-07-29T06:46:22.000Z</time>
</trkpt>
<trkpt lat="45.9080210" lon="10.2948330">
	<ele>1239.60</ele>
	<time>2025-07-29T06:46:23.000Z</time>
</trkpt>
<trkpt lat="45.9080130" lon="10.2948290">
	<ele>1239.80</ele>
	<time>2025-07-29T06:46:24.000Z</time>
</trkpt>
<trkpt lat="45.9080070" lon="10.2948250">
	<ele>1240.00</ele>
	<time>2025-07-29T06:46:25.000Z</time>
</trkpt>
<trkpt lat="45.9080030" lon="10.2948200">
	<ele>1240.40</ele>
	<time>2025-07-29T06:46:26.000Z</time>
</trkpt>
<trkpt lat="45.9079990" lon="10.2948160">
	<ele>1240.60</ele>
	<time>2025-07-29T06:46:27.000Z</time>
</trkpt>
<trkpt lat="45.9079970" lon="10.2948130">
	<ele>1240.80</ele>
	<time>2025-07-29T06:46:28.000Z</time>
</trkpt>
<trkpt lat="45.9079990" lon="10.2948050">
	<ele>1241.00</ele>
	<time>2025-07-29T06:46:29.000Z</time>
</trkpt>
<trkpt lat="45.9080000" lon="10.2948000">
	<ele>1241.20</ele>
	<time>2025-07-29T06:46:30.000Z</time>
</trkpt>
<trkpt lat="45.9080050" lon="10.2948000">
	<ele>1241.40</ele>
	<time>2025-07-29T06:46:31.000Z</time>
</trkpt>
<trkpt lat="45.9080060" lon="10.2947980">
	<ele>1241.60</ele>
	<time>2025-07-29T06:46:32.000Z</time>
</trkpt>
<trkpt lat="45.9079990" lon="10.2947920">
	<ele>1241.80</ele>
	<time>2025-07-29T06:46:33.000Z</time>
</trkpt>
<trkpt lat="45.9079900" lon="10.2947940">
	<ele>1242.00</ele>
	<time>2025-07-29T06:46:34.000Z</time>
</trkpt>
<trkpt lat="45.9079810" lon="10.2948010">
	<ele>1242.20</ele>
	<time>2025-07-29T06:46:35.000Z</time>
</trkpt>
<trkpt lat="45.9079770" lon="10.2947950">
	<ele>1242.40</ele>
	<time>2025-07-29T06:46:36.000Z</time>
</trkpt>
<trkpt lat="45.9079700" lon="10.2947920">
	<ele>1242.40</ele>
	<time>2025-07-29T06:46:37.000Z</time>
</trkpt>
<trkpt lat="45.9079670" lon="10.2947840">
	<ele>1242.60</ele>
	<time>2025-07-29T06:46:38.000Z</time>
</trkpt>
<trkpt lat="45.9079680" lon="10.2947750">
	<ele>1242.80</ele>
	<time>2025-07-29T06:46:39.000Z</time>
</trkpt>
<trkpt lat="45.9079720" lon="10.2947700">
	<ele>1242.80</ele>
	<time>2025-07-29T06:46:40.000Z</time>
</trkpt>
<trkpt lat="45.9079730" lon="10.2947710">
	<ele>1243.20</ele>
	<time>2025-07-29T06:46:41.000Z</time>
</trkpt>
<trkpt lat="45.9079770" lon="10.2947690">
	<ele>1243.40</ele>
	<time>2025-07-29T06:46:42.000Z</time>
</trkpt>
<trkpt lat="45.9079720" lon="10.2947640">
	<ele>1243.60</ele>
	<time>2025-07-29T06:46:43.000Z</time>
</trkpt>
<trkpt lat="45.9079710" lon="10.2947600">
	<ele>1243.80</ele>
	<time>2025-07-29T06:46:44.000Z</time>
</trkpt>
<trkpt lat="45.9079710" lon="10.2947570">
	<ele>1244.00</ele>
	<time>2025-07-29T06:46:45.000Z</time>
</trkpt>
<trkpt lat="45.9079840" lon="10.2947520">
	<ele>1244.00</ele>
	<time>2025-07-29T06:46:46.000Z</time>
</trkpt>
<trkpt lat="45.9079940" lon="10.2947440">
	<ele>1244.20</ele>
	<time>2025-07-29T06:46:47.000Z</time>
</trkpt>
<trkpt lat="45.9080060" lon="10.2947360">
	<ele>1244.40</ele>
	<time>2025-07-29T06:46:48.000Z</time>
</trkpt>
<trkpt lat="45.9080050" lon="10.2947350">
	<ele>1244.60</ele>
	<time>2025-07-29T06:46:49.000Z</time>
</trkpt>
<trkpt lat="45.9080060" lon="10.2947310">
	<ele>1244.80</ele>
	<time>2025-07-29T06:46:50.000Z</time>
</trkpt>
<trkpt lat="45.9080050" lon="10.2947380">
	<ele>1245.00</ele>
	<time>2025-07-29T06:46:51.000Z</time>
</trkpt>
<trkpt lat="45.9080180" lon="10.2947260">
	<ele>1245.20</ele>
	<time>2025-07-29T06:46:52.000Z</time>
</trkpt>
<trkpt lat="45.9080310" lon="10.2947210">
	<ele>1245.40</ele>
	<time>2025-07-29T06:46:53.000Z</time>
</trkpt>
<trkpt lat="45.9080290" lon="10.2947160">
	<ele>1245.60</ele>
	<time>2025-07-29T06:46:54.000Z</time>
</trkpt>
<trkpt lat="45.9080250" lon="10.2947100">
	<ele>1245.80</ele>
	<time>2025-07-29T06:46:55.000Z</time>
</trkpt>
<trkpt lat="45.9080240" lon="10.2947020">
	<ele>1245.80</ele>
	<time>2025-07-29T06:46:56.000Z</time>
</trkpt>
<trkpt lat="45.9080210" lon="10.2946970">
	<ele>1246.20</ele>
	<time>2025-07-29T06:46:57.000Z</time>
</trkpt>
<trkpt lat="45.9080150" lon="10.2946940">
	<ele>1246.40</ele>
	<time>2025-07-29T06:46:58.000Z</time>
</trkpt>
<trkpt lat="45.9080040" lon="10.2946890">
	<ele>1246.60</ele>
	<time>2025-07-29T06:46:59.000Z</time>
</trkpt>
<trkpt lat="45.9079940" lon="10.2946840">
	<ele>1246.60</ele>
	<time>2025-07-29T06:47:00.000Z</time>
</trkpt>
<trkpt lat="45.9079880" lon="10.2946850">
	<ele>1247.00</ele>
	<time>2025-07-29T06:47:01.000Z</time>
</trkpt>
<trkpt lat="45.9079870" lon="10.2946710">
	<ele>1247.20</ele>
	<time>2025-07-29T06:47:02.000Z</time>
</trkpt>
<trkpt lat="45.9079740" lon="10.2946620">
	<ele>1247.40</ele>
	<time>2025-07-29T06:47:03.000Z</time>
</trkpt>
<trkpt lat="45.9079650" lon="10.2946590">
	<ele>1247.60</ele>
	<time>2025-07-29T06:47:04.000Z</time>
</trkpt>
<trkpt lat="45.9079630" lon="10.2946590">
	<ele>1247.60</ele>
	<time>2025-07-29T06:47:05.000Z</time>
</trkpt>
<trkpt lat="45.9079340" lon="10.2946560">
	<ele>1247.80</ele>
	<time>2025-07-29T06:47:06.000Z</time>
</trkpt>
<trkpt lat="45.9079290" lon="10.2946530">
	<ele>1248.00</ele>
	<time>2025-07-29T06:47:07.000Z</time>
</trkpt>
<trkpt lat="45.9079270" lon="10.2946350">
	<ele>1248.20</ele>
	<time>2025-07-29T06:47:08.000Z</time>
</trkpt>
<trkpt lat="45.9079210" lon="10.2946300">
	<ele>1248.40</ele>
	<time>2025-07-29T06:47:09.000Z</time>
</trkpt>
<trkpt lat="45.9079010" lon="10.2946270">
	<ele>1248.60</ele>
	<time>2025-07-29T06:47:10.000Z</time>
</trkpt>
<trkpt lat="45.9078750" lon="10.2946260">
	<ele>1248.60</ele>
	<time>2025-07-29T06:47:11.000Z</time>
</trkpt>
<trkpt lat="45.9078650" lon="10.2946370">
	<ele>1248.80</ele>
	<time>2025-07-29T06:47:12.000Z</time>
</trkpt>
<trkpt lat="45.9078550" lon="10.2946360">
	<ele>1249.00</ele>
	<time>2025-07-29T06:47:13.000Z</time>
</trkpt>
<trkpt lat="45.9078330" lon="10.2946230">
	<ele>1249.20</ele>
	<time>2025-07-29T06:47:14.000Z</time>
</trkpt>
<trkpt lat="45.9078220" lon="10.2946140">
	<ele>1249.40</ele>
	<time>2025-07-29T06:47:15.000Z</time>
</trkpt>
<trkpt lat="45.9078160" lon="10.2946060">
	<ele>1249.60</ele>
	<time>2025-07-29T06:47:16.000Z</time>
</trkpt>
<trkpt lat="45.9078110" lon="10.2946000">
	<ele>1250.00</ele>
	<time>2025-07-29T06:47:17.000Z</time>
</trkpt>
<trkpt lat="45.9078090" lon="10.2945970">
	<ele>1250.00</ele>
	<time>2025-07-29T06:47:18.000Z</time>
</trkpt>
<trkpt lat="45.9078110" lon="10.2945950">
	<ele>1250.40</ele>
	<time>2025-07-29T06:47:19.000Z</time>
</trkpt>
<trkpt lat="45.9078080" lon="10.2946040">
	<ele>1250.60</ele>
	<time>2025-07-29T06:47:20.000Z</time>
</trkpt>
<trkpt lat="45.9078020" lon="10.2946190">
	<ele>1250.80</ele>
	<time>2025-07-29T06:47:21.000Z</time>
</trkpt>
<trkpt lat="45.9077990" lon="10.2946200">
	<ele>1251.00</ele>
	<time>2025-07-29T06:47:22.000Z</time>
</trkpt>
<trkpt lat="45.9078080" lon="10.2946120">
	<ele>1251.20</ele>
	<time>2025-07-29T06:47:23.000Z</time>
</trkpt>
<trkpt lat="45.9078060" lon="10.2946150">
	<ele>1251.20</ele>
	<time>2025-07-29T06:47:24.000Z</time>
</trkpt>
<trkpt lat="45.9077960" lon="10.2946130">
	<ele>1251.40</ele>
	<time>2025-07-29T06:47:25.000Z</time>
</trkpt>
<trkpt lat="45.9077840" lon="10.2946090">
	<ele>1251.60</ele>
	<time>2025-07-29T06:47:26.000Z</time>
</trkpt>
<trkpt lat="45.9077820" lon="10.2946020">
	<ele>1251.80</ele>
	<time>2025-07-29T06:47:27.000Z</time>
</trkpt>
<trkpt lat="45.9077770" lon="10.2945930">
	<ele>1252.00</ele>
	<time>2025-07-29T06:47:28.000Z</time>
</trkpt>
<trkpt lat="45.9077640" lon="10.2945860">
	<ele>1252.20</ele>
	<time>2025-07-29T06:47:29.000Z</time>
</trkpt>
<trkpt lat="45.9077520" lon="10.2945800">
	<ele>1252.60</ele>
	<time>2025-07-29T06:47:30.000Z</time>
</trkpt>
<trkpt lat="45.9077450" lon="10.2945700">
	<ele>1252.60</ele>
	<time>2025-07-29T06:47:31.000Z</time>
</trkpt>
<trkpt lat="45.9077330" lon="10.2945600">
	<ele>1252.80</ele>
	<time>2025-07-29T06:47:32.000Z</time>
</trkpt>
<trkpt lat="45.9077230" lon="10.2945580">
	<ele>1253.20</ele>
	<time>2025-07-29T06:47:33.000Z</time>
</trkpt>
<trkpt lat="45.9077150" lon="10.2945540">
	<ele>1253.40</ele>
	<time>2025-07-29T06:47:34.000Z</time>
</trkpt>
<trkpt lat="45.9077080" lon="10.2945530">
	<ele>1253.60</ele>
	<time>2025-07-29T06:47:35.000Z</time>
</trkpt>
<trkpt lat="45.9077030" lon="10.2945530">
	<ele>1253.80</ele>
	<time>2025-07-29T06:47:36.000Z</time>
</trkpt>
<trkpt lat="45.9076990" lon="10.2945520">
	<ele>1254.00</ele>
	<time>2025-07-29T06:47:37.000Z</time>
</trkpt>
<trkpt lat="45.9076980" lon="10.2945490">
	<ele>1254.20</ele>
	<time>2025-07-29T06:47:38.000Z</time>
</trkpt>
<trkpt lat="45.9076930" lon="10.2945430">
	<ele>1254.40</ele>
	<time>2025-07-29T06:47:39.000Z</time>
</trkpt>
<trkpt lat="45.9076830" lon="10.2945390">
	<ele>1254.60</ele>
	<time>2025-07-29T06:47:40.000Z</time>
</trkpt>
<trkpt lat="45.9076800" lon="10.2945390">
	<ele>1254.80</ele>
	<time>2025-07-29T06:47:41.000Z</time>
</trkpt>
<trkpt lat="45.9076820" lon="10.2945420">
	<ele>1254.80</ele>
	<time>2025-07-29T06:47:42.000Z</time>
</trkpt>
<trkpt lat="45.9076860" lon="10.2945450">
	<ele>1255.20</ele>
	<time>2025-07-29T06:47:43.000Z</time>
</trkpt>
<trkpt lat="45.9076890" lon="10.2945470">
	<ele>1255.40</ele>
	<time>2025-07-29T06:47:44.000Z</time>
</trkpt>
<trkpt lat="45.9076880" lon="10.2945560">
	<ele>1255.60</ele>
	<time>2025-07-29T06:47:45.000Z</time>
</trkpt>
<trkpt lat="45.9076870" lon="10.2945550">
	<ele>1255.60</ele>
	<time>2025-07-29T06:47:46.000Z</time>
</trkpt>
<trkpt lat="45.9076840" lon="10.2945550">
	<ele>1255.80</ele>
	<time>2025-07-29T06:47:47.000Z</time>
</trkpt>
<trkpt lat="45.9076740" lon="10.2945550">
	<ele>1255.80</ele>
	<time>2025-07-29T06:47:48.000Z</time>
</trkpt>
<trkpt lat="45.9076690" lon="10.2945570">
	<ele>1256.00</ele>
	<time>2025-07-29T06:47:49.000Z</time>
</trkpt>
<trkpt lat="45.9076700" lon="10.2945560">
	<ele>1256.00</ele>
	<time>2025-07-29T06:47:50.000Z</time>
</trkpt>
<trkpt lat="45.9076680" lon="10.2945550">
	<ele>1256.20</ele>
	<time>2025-07-29T06:47:51.000Z</time>
</trkpt>
<trkpt lat="45.9076640" lon="10.2945560">
	<ele>1256.20</ele>
	<time>2025-07-29T06:47:52.000Z</time>
</trkpt>
<trkpt lat="45.9076630" lon="10.2945560">
	<ele>1256.40</ele>
	<time>2025-07-29T06:47:53.000Z</time>
</trkpt>
<trkpt lat="45.9076600" lon="10.2945570">
	<ele>1256.40</ele>
	<time>2025-07-29T06:47:54.000Z</time>
</trkpt>
<trkpt lat="45.9076520" lon="10.2945620">
	<ele>1256.40</ele>
	<time>2025-07-29T06:47:55.000Z</time>
</trkpt>
<trkpt lat="45.9076570" lon="10.2945760">
	<ele>1256.40</ele>
	<time>2025-07-29T06:47:56.000Z</time>
</trkpt>
<trkpt lat="45.9076590" lon="10.2945920">
	<ele>1256.40</ele>
	<time>2025-07-29T06:47:57.000Z</time>
</trkpt>
<trkpt lat="45.9076560" lon="10.2946110">
	<ele>1256.40</ele>
	<time>2025-07-29T06:47:58.000Z</time>
</trkpt>
<trkpt lat="45.9076590" lon="10.2946250">
	<ele>1256.60</ele>
	<time>2025-07-29T06:47:59.000Z</time>
</trkpt>
<trkpt lat="45.9076640" lon="10.2946420">
	<ele>1256.60</ele>
	<time>2025-07-29T06:48:00.000Z</time>
</trkpt>
<trkpt lat="45.9076640" lon="10.2946450">
	<ele>1256.80</ele>
	<time>2025-07-29T06:48:01.000Z</time>
</trkpt>
<trkpt lat="45.9076560" lon="10.2946460">
	<ele>1256.80</ele>
	<time>2025-07-29T06:48:02.000Z</time>
</trkpt>
<trkpt lat="45.9076540" lon="10.2946470">
	<ele>1257.00</ele>
	<time>2025-07-29T06:48:03.000Z</time>
</trkpt>
<trkpt lat="45.9076520" lon="10.2946480">
	<ele>1257.20</ele>
	<time>2025-07-29T06:48:04.000Z</time>
</trkpt>
<trkpt lat="45.9076480" lon="10.2946470">
	<ele>1257.40</ele>
	<time>2025-07-29T06:48:05.000Z</time>
</trkpt>
<trkpt lat="45.9076500" lon="10.2946500">
	<ele>1257.60</ele>
	<time>2025-07-29T06:48:06.000Z</time>
</trkpt>
<trkpt lat="45.9076450" lon="10.2946530">
	<ele>1257.80</ele>
	<time>2025-07-29T06:48:07.000Z</time>
</trkpt>
<trkpt lat="45.9076360" lon="10.2946590">
	<ele>1257.80</ele>
	<time>2025-07-29T06:48:08.000Z</time>
</trkpt>
<trkpt lat="45.9076350" lon="10.2946730">
	<ele>1258.00</ele>
	<time>2025-07-29T06:48:09.000Z</time>
</trkpt>
<trkpt lat="45.9076290" lon="10.2946790">
	<ele>1258.00</ele>
	<time>2025-07-29T06:48:10.000Z</time>
</trkpt>
<trkpt lat="45.9076320" lon="10.2946880">
	<ele>1258.40</ele>
	<time>2025-07-29T06:48:11.000Z</time>
</trkpt>
<trkpt lat="45.9076350" lon="10.2946960">
	<ele>1258.60</ele>
	<time>2025-07-29T06:48:12.000Z</time>
</trkpt>
<trkpt lat="45.9076390" lon="10.2947030">
	<ele>1258.60</ele>
	<time>2025-07-29T06:48:13.000Z</time>
</trkpt>
<trkpt lat="45.9076310" lon="10.2947100">
	<ele>1258.80</ele>
	<time>2025-07-29T06:48:14.000Z</time>
</trkpt>
<trkpt lat="45.9076240" lon="10.2947170">
	<ele>1259.20</ele>
	<time>2025-07-29T06:48:15.000Z</time>
</trkpt>
<trkpt lat="45.9076310" lon="10.2947260">
	<ele>1259.40</ele>
	<time>2025-07-29T06:48:16.000Z</time>
</trkpt>
<trkpt lat="45.9076220" lon="10.2947410">
	<ele>1259.60</ele>
	<time>2025-07-29T06:48:17.000Z</time>
</trkpt>
<trkpt lat="45.9076110" lon="10.2947570">
	<ele>1259.80</ele>
	<time>2025-07-29T06:48:18.000Z</time>
</trkpt>
<trkpt lat="45.9075950" lon="10.2947640">
	<ele>1260.00</ele>
	<time>2025-07-29T06:48:19.000Z</time>
</trkpt>
<trkpt lat="45.9075730" lon="10.2947650">
	<ele>1260.20</ele>
	<time>2025-07-29T06:48:20.000Z</time>
</trkpt>
<trkpt lat="45.9075600" lon="10.2947710">
	<ele>1260.40</ele>
	<time>2025-07-29T06:48:21.000Z</time>
</trkpt>
<trkpt lat="45.9075660" lon="10.2947810">
	<ele>1260.60</ele>
	<time>2025-07-29T06:48:22.000Z</time>
</trkpt>
<trkpt lat="45.9075680" lon="10.2947850">
	<ele>1260.60</ele>
	<time>2025-07-29T06:48:23.000Z</time>
</trkpt>
<trkpt lat="45.9075800" lon="10.2947950">
	<ele>1260.80</ele>
	<time>2025-07-29T06:48:24.000Z</time>
</trkpt>
<trkpt lat="45.9075870" lon="10.2948080">
	<ele>1261.00</ele>
	<time>2025-07-29T06:48:25.000Z</time>
</trkpt>
<trkpt lat="45.9075870" lon="10.2948090">
	<ele>1261.20</ele>
	<time>2025-07-29T06:48:26.000Z</time>
</trkpt>
<trkpt lat="45.9075860" lon="10.2948110">
	<ele>1261.60</ele>
	<time>2025-07-29T06:48:27.000Z</time>
</trkpt>
<trkpt lat="45.9075840" lon="10.2948160">
	<ele>1261.60</ele>
	<time>2025-07-29T06:48:28.000Z</time>
</trkpt>
<trkpt lat="45.9075890" lon="10.2948210">
	<ele>1261.80</ele>
	<time>2025-07-29T06:48:29.000Z</time>
</trkpt>
<trkpt lat="45.9075930" lon="10.2948240">
	<ele>1262.00</ele>
	<time>2025-07-29T06:48:30.000Z</time>
</trkpt>
<trkpt lat="45.9075910" lon="10.2948270">
	<ele>1262.40</ele>
	<time>2025-07-29T06:48:31.000Z</time>
</trkpt>
<trkpt lat="45.9076030" lon="10.2948420">
	<ele>1262.60</ele>
	<time>2025-07-29T06:48:32.000Z</time>
</trkpt>
<trkpt lat="45.9076070" lon="10.2948510">
	<ele>1262.80</ele>
	<time>2025-07-29T06:48:33.000Z</time>
</trkpt>
<trkpt lat="45.9076030" lon="10.2948630">
	<ele>1263.00</ele>
	<time>2025-07-29T06:48:34.000Z</time>
</trkpt>
<trkpt lat="45.9076070" lon="10.2948710">
	<ele>1263.20</ele>
	<time>2025-07-29T06:48:35.000Z</time>
</trkpt>
<trkpt lat="45.9076100" lon="10.2948820">
	<ele>1263.40</ele>
	<time>2025-07-29T06:48:36.000Z</time>
</trkpt>
<trkpt lat="45.9076160" lon="10.2948930">
	<ele>1263.60</ele>
	<time>2025-07-29T06:48:37.000Z</time>
</trkpt>
<trkpt lat="45.9076170" lon="10.2948960">
	<ele>1263.80</ele>
	<time>2025-07-29T06:48:38.000Z</time>
</trkpt>
<trkpt lat="45.9076180" lon="10.2949000">
	<ele>1264.00</ele>
	<time>2025-07-29T06:48:39.000Z</time>
</trkpt>
<trkpt lat="45.9076180" lon="10.2949040">
	<ele>1264.00</ele>
	<time>2025-07-29T06:48:40.000Z</time>
</trkpt>
<trkpt lat="45.9076100" lon="10.2949140">
	<ele>1264.20</ele>
	<time>2025-07-29T06:48:41.000Z</time>
</trkpt>
<trkpt lat="45.9076090" lon="10.2949170">
	<ele>1264.40</ele>
	<time>2025-07-29T06:48:42.000Z</time>
</trkpt>
<trkpt lat="45.9076100" lon="10.2949210">
	<ele>1264.40</ele>
	<time>2025-07-29T06:48:43.000Z</time>
</trkpt>
<trkpt lat="45.9076110" lon="10.2949230">
	<ele>1264.60</ele>
	<time>2025-07-29T06:48:44.000Z</time>
</trkpt>
<trkpt lat="45.9076190" lon="10.2949440">
	<ele>1264.80</ele>
	<time>2025-07-29T06:48:45.000Z</time>
</trkpt>
<trkpt lat="45.9076230" lon="10.2949560">
	<ele>1264.80</ele>
	<time>2025-07-29T06:48:46.000Z</time>
</trkpt>
<trkpt lat="45.9076290" lon="10.2949700">
	<ele>1265.00</ele>
	<time>2025-07-29T06:48:47.000Z</time>
</trkpt>
<trkpt lat="45.9076310" lon="10.2949830">
	<ele>1265.00</ele>
	<time>2025-07-29T06:48:48.000Z</time>
</trkpt>
<trkpt lat="45.9076450" lon="10.2950000">
	<ele>1265.20</ele>
	<time>2025-07-29T06:48:49.000Z</time>
</trkpt>
<trkpt lat="45.9076530" lon="10.2950130">
	<ele>1265.60</ele>
	<time>2025-07-29T06:48:50.000Z</time>
</trkpt>
<trkpt lat="45.9076480" lon="10.2950270">
	<ele>1265.80</ele>
	<time>2025-07-29T06:48:51.000Z</time>
</trkpt>
<trkpt lat="45.9076410" lon="10.2950410">
	<ele>1266.00</ele>
	<time>2025-07-29T06:48:52.000Z</time>
</trkpt>
<trkpt lat="45.9076500" lon="10.2950670">
	<ele>1266.20</ele>
	<time>2025-07-29T06:48:53.000Z</time>
</trkpt>
<trkpt lat="45.9076600" lon="10.2950770">
	<ele>1266.40</ele>
	<time>2025-07-29T06:48:54.000Z</time>
</trkpt>
<trkpt lat="45.9076680" lon="10.2950880">
	<ele>1266.60</ele>
	<time>2025-07-29T06:48:55.000Z</time>
</trkpt>
<trkpt lat="45.9076690" lon="10.2950960">
	<ele>1266.80</ele>
	<time>2025-07-29T06:48:56.000Z</time>
</trkpt>
<trkpt lat="45.9076800" lon="10.2951080">
	<ele>1267.00</ele>
	<time>2025-07-29T06:48:57.000Z</time>
</trkpt>
<trkpt lat="45.9076890" lon="10.2951260">
	<ele>1267.20</ele>
	<time>2025-07-29T06:48:58.000Z</time>
</trkpt>
<trkpt lat="45.9076980" lon="10.2951510">
	<ele>1267.60</ele>
	<time>2025-07-29T06:48:59.000Z</time>
</trkpt>
<trkpt lat="45.9076990" lon="10.2951790">
	<ele>1267.80</ele>
	<time>2025-07-29T06:49:00.000Z</time>
</trkpt>
<trkpt lat="45.9077060" lon="10.2951940">
	<ele>1267.80</ele>
	<time>2025-07-29T06:49:01.000Z</time>
</trkpt>
<trkpt lat="45.9077130" lon="10.2952140">
	<ele>1268.00</ele>
	<time>2025-07-29T06:49:02.000Z</time>
</trkpt>
<trkpt lat="45.9077100" lon="10.2952120">
	<ele>1268.20</ele>
	<time>2025-07-29T06:49:03.000Z</time>
</trkpt>
<trkpt lat="45.9077190" lon="10.2952190">
	<ele>1268.40</ele>
	<time>2025-07-29T06:49:04.000Z</time>
</trkpt>
<trkpt lat="45.9077220" lon="10.2952200">
	<ele>1268.60</ele>
	<time>2025-07-29T06:49:05.000Z</time>
</trkpt>
<trkpt lat="45.9077160" lon="10.2952160">
	<ele>1268.80</ele>
	<time>2025-07-29T06:49:06.000Z</time>
</trkpt>
<trkpt lat="45.9077150" lon="10.2952210">
	<ele>1269.00</ele>
	<time>2025-07-29T06:49:07.000Z</time>
</trkpt>
<trkpt lat="45.9077210" lon="10.2952230">
	<ele>1269.20</ele>
	<time>2025-07-29T06:49:08.000Z</time>
</trkpt>
<trkpt lat="45.9077240" lon="10.2952300">
	<ele>1269.40</ele>
	<time>2025-07-29T06:49:09.000Z</time>
</trkpt>
<trkpt lat="45.9077320" lon="10.2952350">
	<ele>1269.60</ele>
	<time>2025-07-29T06:49:10.000Z</time>
</trkpt>
<trkpt lat="45.9077400" lon="10.2952360">
	<ele>1269.80</ele>
	<time>2025-07-29T06:49:11.000Z</time>
</trkpt>
<trkpt lat="45.9077510" lon="10.2952370">
	<ele>1270.00</ele>
	<time>2025-07-29T06:49:12.000Z</time>
</trkpt>
<trkpt lat="45.9077560" lon="10.2952400">
	<ele>1270.20</ele>
	<time>2025-07-29T06:49:13.000Z</time>
</trkpt>
<trkpt lat="45.9077580" lon="10.2952460">
	<ele>1270.40</ele>
	<time>2025-07-29T06:49:14.000Z</time>
</trkpt>
<trkpt lat="45.9077580" lon="10.2952510">
	<ele>1270.60</ele>
	<time>2025-07-29T06:49:15.000Z</time>
</trkpt>
<trkpt lat="45.9077590" lon="10.2952550">
	<ele>1270.80</ele>
	<time>2025-07-29T06:49:16.000Z</time>
</trkpt>
<trkpt lat="45.9077580" lon="10.2952580">
	<ele>1271.00</ele>
	<time>2025-07-29T06:49:17.000Z</time>
</trkpt>
<trkpt lat="45.9077620" lon="10.2952660">
	<ele>1271.20</ele>
	<time>2025-07-29T06:49:18.000Z</time>
</trkpt>
<trkpt lat="45.9077700" lon="10.2952760">
	<ele>1271.60</ele>
	<time>2025-07-29T06:49:19.000Z</time>
</trkpt>
<trkpt lat="45.9077760" lon="10.2952850">
	<ele>1271.80</ele>
	<time>2025-07-29T06:49:20.000Z</time>
</trkpt>
<trkpt lat="45.9077790" lon="10.2952960">
	<ele>1272.00</ele>
	<time>2025-07-29T06:49:21.000Z</time>
</trkpt>
<trkpt lat="45.9077800" lon="10.2953010">
	<ele>1272.20</ele>
	<time>2025-07-29T06:49:22.000Z</time>
</trkpt>
<trkpt lat="45.9077830" lon="10.2953090">
	<ele>1272.20</ele>
	<time>2025-07-29T06:49:23.000Z</time>
</trkpt>
<trkpt lat="45.9077840" lon="10.2953230">
	<ele>1272.40</ele>
	<time>2025-07-29T06:49:24.000Z</time>
</trkpt>
<trkpt lat="45.9077880" lon="10.2953350">
	<ele>1272.60</ele>
	<time>2025-07-29T06:49:25.000Z</time>
</trkpt>
<trkpt lat="45.9077910" lon="10.2953520">
	<ele>1273.00</ele>
	<time>2025-07-29T06:49:26.000Z</time>
</trkpt>
<trkpt lat="45.9077960" lon="10.2953640">
	<ele>1273.00</ele>
	<time>2025-07-29T06:49:27.000Z</time>
</trkpt>
<trkpt lat="45.9078110" lon="10.2953820">
	<ele>1273.20</ele>
	<time>2025-07-29T06:49:28.000Z</time>
</trkpt>
<trkpt lat="45.9078250" lon="10.2953880">
	<ele>1273.40</ele>
	<time>2025-07-29T06:49:29.000Z</time>
</trkpt>
<trkpt lat="45.9078570" lon="10.2954060">
	<ele>1273.60</ele>
	<time>2025-07-29T06:49:30.000Z</time>
</trkpt>
<trkpt lat="45.9078610" lon="10.2954150">
	<ele>1273.80</ele>
	<time>2025-07-29T06:49:31.000Z</time>
</trkpt>
<trkpt lat="45.9078620" lon="10.2954240">
	<ele>1274.00</ele>
	<time>2025-07-29T06:49:32.000Z</time>
</trkpt>
<trkpt lat="45.9078570" lon="10.2954250">
	<ele>1274.20</ele>
	<time>2025-07-29T06:49:33.000Z</time>
</trkpt>
<trkpt lat="45.9078560" lon="10.2954340">
	<ele>1274.40</ele>
	<time>2025-07-29T06:49:34.000Z</time>
</trkpt>
<trkpt lat="45.9078490" lon="10.2954540">
	<ele>1274.60</ele>
	<time>2025-07-29T06:49:35.000Z</time>
</trkpt>
<trkpt lat="45.9078580" lon="10.2954610">
	<ele>1274.80</ele>
	<time>2025-07-29T06:49:36.000Z</time>
</trkpt>
<trkpt lat="45.9078550" lon="10.2954640">
	<ele>1275.00</ele>
	<time>2025-07-29T06:49:37.000Z</time>
</trkpt>
<trkpt lat="45.9078560" lon="10.2954680">
	<ele>1275.20</ele>
	<time>2025-07-29T06:49:38.000Z</time>
</trkpt>
<trkpt lat="45.9078560" lon="10.2954800">
	<ele>1275.40</ele>
	<time>2025-07-29T06:49:39.000Z</time>
</trkpt>
<trkpt lat="45.9078600" lon="10.2954840">
	<ele>1275.60</ele>
	<time>2025-07-29T06:49:40.000Z</time>
</trkpt>
<trkpt lat="45.9078670" lon="10.2954740">
	<ele>1275.80</ele>
	<time>2025-07-29T06:49:41.000Z</time>
</trkpt>
<trkpt lat="45.9078640" lon="10.2954760">
	<ele>1276.00</ele>
	<time>2025-07-29T06:49:42.000Z</time>
</trkpt>
<trkpt lat="45.9078640" lon="10.2954720">
	<ele>1276.20</ele>
	<time>2025-07-29T06:49:43.000Z</time>
</trkpt>
<trkpt lat="45.9078630" lon="10.2954720">
	<ele>1276.40</ele>
	<time>2025-07-29T06:49:44.000Z</time>
</trkpt>
<trkpt lat="45.9078660" lon="10.2954770">
	<ele>1276.40</ele>
	<time>2025-07-29T06:49:45.000Z</time>
</trkpt>
<trkpt lat="45.9078660" lon="10.2954780">
	<ele>1276.60</ele>
	<time>2025-07-29T06:49:46.000Z</time>
</trkpt>
<trkpt lat="45.9078630" lon="10.2954790">
	<ele>1276.60</ele>
	<time>2025-07-29T06:49:47.000Z</time>
</trkpt>
<trkpt lat="45.9078710" lon="10.2954860">
	<ele>1276.60</ele>
	<time>2025-07-29T06:49:48.000Z</time>
</trkpt>
<trkpt lat="45.9078760" lon="10.2954950">
	<ele>1276.60</ele>
	<time>2025-07-29T06:49:49.000Z</time>
</trkpt>
<trkpt lat="45.9078740" lon="10.2955000">
	<ele>1276.60</ele>
	<time>2025-07-29T06:49:50.000Z</time>
</trkpt>
<trkpt lat="45.9078660" lon="10.2955030">
	<ele>1276.60</ele>
	<time>2025-07-29T06:49:51.000Z</time>
</trkpt>
<trkpt lat="45.9078740" lon="10.2955040">
	<ele>1276.60</ele>
	<time>2025-07-29T06:49:52.000Z</time>
</trkpt>
<trkpt lat="45.9078850" lon="10.2955080">
	<ele>1276.80</ele>
	<time>2025-07-29T06:49:53.000Z</time>
</trkpt>
<trkpt lat="45.9078990" lon="10.2955130">
	<ele>1276.80</ele>
	<time>2025-07-29T06:49:54.000Z</time>
</trkpt>
<trkpt lat="45.9078980" lon="10.2955180">
	<ele>1277.20</ele>
	<time>2025-07-29T06:49:55.000Z</time>
</trkpt>
<trkpt lat="45.9079030" lon="10.2955260">
	<ele>1277.20</ele>
	<time>2025-07-29T06:49:56.000Z</time>
</trkpt>
<trkpt lat="45.9079040" lon="10.2955300">
	<ele>1277.40</ele>
	<time>2025-07-29T06:49:57.000Z</time>
</trkpt>
<trkpt lat="45.9079060" lon="10.2955420">
	<ele>1277.60</ele>
	<time>2025-07-29T06:49:58.000Z</time>
</trkpt>
<trkpt lat="45.9079040" lon="10.2955530">
	<ele>1277.80</ele>
	<time>2025-07-29T06:49:59.000Z</time>
</trkpt>
<trkpt lat="45.9079070" lon="10.2955560">
	<ele>1278.00</ele>
	<time>2025-07-29T06:50:00.000Z</time>
</trkpt>
<trkpt lat="45.9079110" lon="10.2955600">
	<ele>1278.40</ele>
	<time>2025-07-29T06:50:01.000Z</time>
</trkpt>
<trkpt lat="45.9079110" lon="10.2955650">
	<ele>1278.60</ele>
	<time>2025-07-29T06:50:02.000Z</time>
</trkpt>
<trkpt lat="45.9079070" lon="10.2955700">
	<ele>1278.80</ele>
	<time>2025-07-29T06:50:03.000Z</time>
</trkpt>
<trkpt lat="45.9079000" lon="10.2955740">
	<ele>1279.00</ele>
	<time>2025-07-29T06:50:04.000Z</time>
</trkpt>
<trkpt lat="45.9078950" lon="10.2955800">
	<ele>1279.20</ele>
	<time>2025-07-29T06:50:05.000Z</time>
</trkpt>
<trkpt lat="45.9078890" lon="10.2955820">
	<ele>1279.40</ele>
	<time>2025-07-29T06:50:06.000Z</time>
</trkpt>
<trkpt lat="45.9078840" lon="10.2955860">
	<ele>1279.80</ele>
	<time>2025-07-29T06:50:07.000Z</time>
</trkpt>
<trkpt lat="45.9078810" lon="10.2955930">
	<ele>1280.00</ele>
	<time>2025-07-29T06:50:08.000Z</time>
</trkpt>
<trkpt lat="45.9078800" lon="10.2956010">
	<ele>1280.20</ele>
	<time>2025-07-29T06:50:09.000Z</time>
</trkpt>
<trkpt lat="45.9078760" lon="10.2956030">
	<ele>1280.20</ele>
	<time>2025-07-29T06:50:10.000Z</time>
</trkpt>
<trkpt lat="45.9078720" lon="10.2956020">
	<ele>1280.60</ele>
	<time>2025-07-29T06:50:11.000Z</time>
</trkpt>
<trkpt lat="45.9078680" lon="10.2956070">
	<ele>1280.80</ele>
	<time>2025-07-29T06:50:12.000Z</time>
</trkpt>
<trkpt lat="45.9078570" lon="10.2956130">
	<ele>1281.00</ele>
	<time>2025-07-29T06:50:13.000Z</time>
</trkpt>
<trkpt lat="45.9078570" lon="10.2956200">
	<ele>1281.20</ele>
	<time>2025-07-29T06:50:14.000Z</time>
</trkpt>
<trkpt lat="45.9078390" lon="10.2956270">
	<ele>1281.60</ele>
	<time>2025-07-29T06:50:15.000Z</time>
</trkpt>
<trkpt lat="45.9078160" lon="10.2956340">
	<ele>1281.80</ele>
	<time>2025-07-29T06:50:16.000Z</time>
</trkpt>
<trkpt lat="45.9078060" lon="10.2956430">
	<ele>1282.00</ele>
	<time>2025-07-29T06:50:17.000Z</time>
</trkpt>
<trkpt lat="45.9078030" lon="10.2956460">
	<ele>1282.20</ele>
	<time>2025-07-29T06:50:18.000Z</time>
</trkpt>
<trkpt lat="45.9078110" lon="10.2956540">
	<ele>1282.60</ele>
	<time>2025-07-29T06:50:19.000Z</time>
</trkpt>
<trkpt lat="45.9078110" lon="10.2956620">
	<ele>1283.00</ele>
	<time>2025-07-29T06:50:20.000Z</time>
</trkpt>
<trkpt lat="45.9078000" lon="10.2956680">
	<ele>1283.20</ele>
	<time>2025-07-29T06:50:21.000Z</time>
</trkpt>
<trkpt lat="45.9077920" lon="10.2956740">
	<ele>1283.40</ele>
	<time>2025-07-29T06:50:22.000Z</time>
</trkpt>
<trkpt lat="45.9077800" lon="10.2956800">
	<ele>1283.60</ele>
	<time>2025-07-29T06:50:23.000Z</time>
</trkpt>
<trkpt lat="45.9077750" lon="10.2956850">
	<ele>1283.80</ele>
	<time>2025-07-29T06:50:24.000Z</time>
</trkpt>
<trkpt lat="45.9077730" lon="10.2956890">
	<ele>1284.00</ele>
	<time>2025-07-29T06:50:25.000Z</time>
</trkpt>
<trkpt lat="45.9077710" lon="10.2956980">
	<ele>1284.00</ele>
	<time>2025-07-29T06:50:26.000Z</time>
</trkpt>
<trkpt lat="45.9077680" lon="10.2957070">
	<ele>1284.20</ele>
	<time>2025-07-29T06:50:27.000Z</time>
</trkpt>
<trkpt lat="45.9077650" lon="10.2957070">
	<ele>1284.40</ele>
	<time>2025-07-29T06:50:28.000Z</time>
</trkpt>
<trkpt lat="45.9077660" lon="10.2957100">
	<ele>1284.60</ele>
	<time>2025-07-29T06:50:29.000Z</time>
</trkpt>
<trkpt lat="45.9077680" lon="10.2957140">
	<ele>1284.60</ele>
	<time>2025-07-29T06:50:30.000Z</time>
</trkpt>
<trkpt lat="45.9077670" lon="10.2957170">
	<ele>1285.00</ele>
	<time>2025-07-29T06:50:31.000Z</time>
</trkpt>
<trkpt lat="45.9077650" lon="10.2957200">
	<ele>1285.20</ele>
	<time>2025-07-29T06:50:32.000Z</time>
</trkpt>
<trkpt lat="45.9077720" lon="10.2957110">
	<ele>1285.40</ele>
	<time>2025-07-29T06:50:33.000Z</time>
</trkpt>
<trkpt lat="45.9077810" lon="10.2957280">
	<ele>1285.60</ele>
	<time>2025-07-29T06:50:34.000Z</time>
</trkpt>
<trkpt lat="45.9078050" lon="10.2957280">
	<ele>1285.80</ele>
	<time>2025-07-29T06:50:35.000Z</time>
</trkpt>
<trkpt lat="45.9078100" lon="10.2957310">
	<ele>1286.00</ele>
	<time>2025-07-29T06:50:36.000Z</time>
</trkpt>
<trkpt lat="45.9078130" lon="10.2957320">
	<ele>1286.20</ele>
	<time>2025-07-29T06:50:37.000Z</time>
</trkpt>
<trkpt lat="45.9078160" lon="10.2957230">
	<ele>1286.20</ele>
	<time>2025-07-29T06:50:38.000Z</time>
</trkpt>
<trkpt lat="45.9078000" lon="10.2957200">
	<ele>1286.40</ele>
	<time>2025-07-29T06:50:39.000Z</time>
</trkpt>
<trkpt lat="45.9077800" lon="10.2957280">
	<ele>1286.40</ele>
	<time>2025-07-29T06:50:40.000Z</time>
</trkpt>
<trkpt lat="45.9077740" lon="10.2957310">
	<ele>1286.40</ele>
	<time>2025-07-29T06:50:41.000Z</time>
</trkpt>
<trkpt lat="45.9077670" lon="10.2957380">
	<ele>1286.60</ele>
	<time>2025-07-29T06:50:42.000Z</time>
</trkpt>
<trkpt lat="45.9077630" lon="10.2957380">
	<ele>1286.60</ele>
	<time>2025-07-29T06:50:43.000Z</time>
</trkpt>
<trkpt lat="45.9077610" lon="10.2957370">
	<ele>1286.80</ele>
	<time>2025-07-29T06:50:44.000Z</time>
</trkpt>
<trkpt lat="45.9077620" lon="10.2957350">
	<ele>1286.80</ele>
	<time>2025-07-29T06:50:45.000Z</time>
</trkpt>
<trkpt lat="45.9077730" lon="10.2957260">
	<ele>1287.00</ele>
	<time>2025-07-29T06:50:46.000Z</time>
</trkpt>
<trkpt lat="45.9077830" lon="10.2957160">
	<ele>1287.00</ele>
	<time>2025-07-29T06:50:47.000Z</time>
</trkpt>
<trkpt lat="45.9078080" lon="10.2957070">
	<ele>1287.00</ele>
	<time>2025-07-29T06:50:48.000Z</time>
</trkpt>
<trkpt lat="45.9078200" lon="10.2957000">
	<ele>1287.20</ele>
	<time>2025-07-29T06:50:49.000Z</time>
</trkpt>
<trkpt lat="45.9078210" lon="10.2957010">
	<ele>1287.20</ele>
	<time>2025-07-29T06:50:50.000Z</time>
</trkpt>
<trkpt lat="45.9078120" lon="10.2957040">
	<ele>1287.20</ele>
	<time>2025-07-29T06:50:51.000Z</time>
</trkpt>
<trkpt lat="45.9078100" lon="10.2957050">
	<ele>1287.20</ele>
	<time>2025-07-29T06:50:52.000Z</time>
</trkpt>
<trkpt lat="45.9078010" lon="10.2957050">
	<ele>1287.20</ele>
	<time>2025-07-29T06:50:53.000Z</time>
</trkpt>
<trkpt lat="45.9078090" lon="10.2956950">
	<ele>1287.20</ele>
	<time>2025-07-29T06:50:54.000Z</time>
</trkpt>
<trkpt lat="45.9078210" lon="10.2956830">
	<ele>1287.20</ele>
	<time>2025-07-29T06:50:55.000Z</time>
</trkpt>
<trkpt lat="45.9078210" lon="10.2956780">
	<ele>1287.40</ele>
	<time>2025-07-29T06:50:56.000Z</time>
</trkpt>
<trkpt lat="45.9078150" lon="10.2956730">
	<ele>1287.40</ele>
	<time>2025-07-29T06:50:57.000Z</time>
</trkpt>
<trkpt lat="45.9078050" lon="10.2956720">
	<ele>1287.60</ele>
	<time>2025-07-29T06:50:58.000Z</time>
</trkpt>
<trkpt lat="45.9077960" lon="10.2956680">
	<ele>1287.80</ele>
	<time>2025-07-29T06:50:59.000Z</time>
</trkpt>
<trkpt lat="45.9077860" lon="10.2956630">
	<ele>1287.80</ele>
	<time>2025-07-29T06:51:00.000Z</time>
</trkpt>
<trkpt lat="45.9077790" lon="10.2956610">
	<ele>1288.00</ele>
	<time>2025-07-29T06:51:01.000Z</time>
</trkpt>
<trkpt lat="45.9077730" lon="10.2956570">
	<ele>1288.20</ele>
	<time>2025-07-29T06:51:02.000Z</time>
</trkpt>
<trkpt lat="45.9077670" lon="10.2956510">
	<ele>1288.20</ele>
	<time>2025-07-29T06:51:03.000Z</time>
</trkpt>
<trkpt lat="45.9077630" lon="10.2956450">
	<ele>1288.40</ele>
	<time>2025-07-29T06:51:04.000Z</time>
</trkpt>
<trkpt lat="45.9077620" lon="10.2956380">
	<ele>1288.40</ele>
	<time>2025-07-29T06:51:05.000Z</time>
</trkpt>
<trkpt lat="45.9077450" lon="10.2956390">
	<ele>1288.60</ele>
	<time>2025-07-29T06:51:06.000Z</time>
</trkpt>
<trkpt lat="45.9077340" lon="10.2956380">
	<ele>1288.80</ele>
	<time>2025-07-29T06:51:07.000Z</time>
</trkpt>
<trkpt lat="45.9077340" lon="10.2956240">
	<ele>1289.00</ele>
	<time>2025-07-29T06:51:08.000Z</time>
</trkpt>
<trkpt lat="45.9077200" lon="10.2956210">
	<ele>1289.20</ele>
	<time>2025-07-29T06:51:09.000Z</time>
</trkpt>
<trkpt lat="45.9077030" lon="10.2956220">
	<ele>1289.40</ele>
	<time>2025-07-29T06:51:10.000Z</time>
</trkpt>
<trkpt lat="45.9076950" lon="10.2956190">
	<ele>1289.60</ele>
	<time>2025-07-29T06:51:11.000Z</time>
</trkpt>
<trkpt lat="45.9076930" lon="10.2956130">
	<ele>1289.80</ele>
	<time>2025-07-29T06:51:12.000Z</time>
</trkpt>
<trkpt lat="45.9076960" lon="10.2956100">
	<ele>1289.80</ele>
	<time>2025-07-29T06:51:13.000Z</time>
</trkpt>
<trkpt lat="45.9077010" lon="10.2955970">
	<ele>1290.00</ele>
	<time>2025-07-29T06:51:14.000Z</time>
</trkpt>
<trkpt lat="45.9076990" lon="10.2955910">
	<ele>1290.20</ele>
	<time>2025-07-29T06:51:15.000Z</time>
</trkpt>
<trkpt lat="45.9077090" lon="10.2955770">
	<ele>1290.40</ele>
	<time>2025-07-29T06:51:16.000Z</time>
</trkpt>
<trkpt lat="45.9077250" lon="10.2955600">
	<ele>1290.40</ele>
	<time>2025-07-29T06:51:17.000Z</time>
</trkpt>
<trkpt lat="45.9077300" lon="10.2955520">
	<ele>1290.60</ele>
	<time>2025-07-29T06:51:18.000Z</time>
</trkpt>
<trkpt lat="45.9077210" lon="10.2955490">
	<ele>1290.80</ele>
	<time>2025-07-29T06:51:19.000Z</time>
</trkpt>
<trkpt lat="45.9077050" lon="10.2955500">
	<ele>1291.00</ele>
	<time>2025-07-29T06:51:20.000Z</time>
</trkpt>
<trkpt lat="45.9076900" lon="10.2955520">
	<ele>1291.20</ele>
	<time>2025-07-29T06:51:21.000Z</time>
</trkpt>
<trkpt lat="45.9076850" lon="10.2955520">
	<ele>1291.40</ele>
	<time>2025-07-29T06:51:22.000Z</time>
</trkpt>
<trkpt lat="45.9076850" lon="10.2955490">
	<ele>1291.60</ele>
	<time>2025-07-29T06:51:23.000Z</time>
</trkpt>
<trkpt lat="45.9076730" lon="10.2955470">
	<ele>1291.60</ele>
	<time>2025-07-29T06:51:24.000Z</time>
</trkpt>
<trkpt lat="45.9076600" lon="10.2955410">
	<ele>1291.80</ele>
	<time>2025-07-29T06:51:25.000Z</time>
</trkpt>
<trkpt lat="45.9076480" lon="10.2955320">
	<ele>1292.00</ele>
	<time>2025-07-29T06:51:26.000Z</time>
</trkpt>
<trkpt lat="45.9076370" lon="10.2955210">
	<ele>1292.20</ele>
	<time>2025-07-29T06:51:27.000Z</time>
</trkpt>
<trkpt lat="45.9076300" lon="10.2955120">
	<ele>1292.40</ele>
	<time>2025-07-29T06:51:28.000Z</time>
</trkpt>
<trkpt lat="45.9076290" lon="10.2955080">
	<ele>1292.60</ele>
	<time>2025-07-29T06:51:29.000Z</time>
</trkpt>
<trkpt lat="45.9076220" lon="10.2955050">
	<ele>1292.80</ele>
	<time>2025-07-29T06:51:30.000Z</time>
</trkpt>
<trkpt lat="45.9076110" lon="10.2955040">
	<ele>1293.00</ele>
	<time>2025-07-29T06:51:31.000Z</time>
</trkpt>
<trkpt lat="45.9076080" lon="10.2954990">
	<ele>1293.20</ele>
	<time>2025-07-29T06:51:32.000Z</time>
</trkpt>
<trkpt lat="45.9076080" lon="10.2954950">
	<ele>1293.40</ele>
	<time>2025-07-29T06:51:33.000Z</time>
</trkpt>
<trkpt lat="45.9076000" lon="10.2954860">
	<ele>1293.60</ele>
	<time>2025-07-29T06:51:34.000Z</time>
</trkpt>
<trkpt lat="45.9075850" lon="10.2954760">
	<ele>1293.80</ele>
	<time>2025-07-29T06:51:35.000Z</time>
</trkpt>
<trkpt lat="45.9075670" lon="10.2954850">
	<ele>1293.80</ele>
	<time>2025-07-29T06:51:36.000Z</time>
</trkpt>
<trkpt lat="45.9075520" lon="10.2955050">
	<ele>1294.00</ele>
	<time>2025-07-29T06:51:37.000Z</time>
</trkpt>
<trkpt lat="45.9075530" lon="10.2955250">
	<ele>1294.00</ele>
	<time>2025-07-29T06:51:38.000Z</time>
</trkpt>
<trkpt lat="45.9075510" lon="10.2955190">
	<ele>1294.40</ele>
	<time>2025-07-29T06:51:39.000Z</time>
</trkpt>
<trkpt lat="45.9075380" lon="10.2955230">
	<ele>1294.40</ele>
	<time>2025-07-29T06:51:40.000Z</time>
</trkpt>
<trkpt lat="45.9075250" lon="10.2955200">
	<ele>1294.60</ele>
	<time>2025-07-29T06:51:41.000Z</time>
</trkpt>
<trkpt lat="45.9075200" lon="10.2955170">
	<ele>1295.00</ele>
	<time>2025-07-29T06:51:42.000Z</time>
</trkpt>
<trkpt lat="45.9075100" lon="10.2955160">
	<ele>1295.40</ele>
	<time>2025-07-29T06:51:43.000Z</time>
</trkpt>
<trkpt lat="45.9074890" lon="10.2955140">
	<ele>1295.60</ele>
	<time>2025-07-29T06:51:44.000Z</time>
</trkpt>
<trkpt lat="45.9074800" lon="10.2955110">
	<ele>1295.80</ele>
	<time>2025-07-29T06:51:45.000Z</time>
</trkpt>
<trkpt lat="45.9074810" lon="10.2955000">
	<ele>1295.80</ele>
	<time>2025-07-29T06:51:46.000Z</time>
</trkpt>
<trkpt lat="45.9074860" lon="10.2954880">
	<ele>1296.00</ele>
	<time>2025-07-29T06:51:47.000Z</time>
</trkpt>
<trkpt lat="45.9074860" lon="10.2954850">
	<ele>1296.20</ele>
	<time>2025-07-29T06:51:48.000Z</time>
</trkpt>
<trkpt lat="45.9074870" lon="10.2954650">
	<ele>1296.40</ele>
	<time>2025-07-29T06:51:49.000Z</time>
</trkpt>
<trkpt lat="45.9074870" lon="10.2954480">
	<ele>1296.60</ele>
	<time>2025-07-29T06:51:50.000Z</time>
</trkpt>
<trkpt lat="45.9074980" lon="10.2954260">
	<ele>1296.60</ele>
	<time>2025-07-29T06:51:51.000Z</time>
</trkpt>
<trkpt lat="45.9075010" lon="10.2954110">
	<ele>1297.00</ele>
	<time>2025-07-29T06:51:52.000Z</time>
</trkpt>
<trkpt lat="45.9075010" lon="10.2953920">
	<ele>1297.20</ele>
	<time>2025-07-29T06:51:53.000Z</time>
</trkpt>
<trkpt lat="45.9075080" lon="10.2953800">
	<ele>1297.40</ele>
	<time>2025-07-29T06:51:54.000Z</time>
</trkpt>
<trkpt lat="45.9075050" lon="10.2953830">
	<ele>1297.40</ele>
	<time>2025-07-29T06:51:55.000Z</time>
</trkpt>
<trkpt lat="45.9074990" lon="10.2953910">
	<ele>1297.60</ele>
	<time>2025-07-29T06:51:56.000Z</time>
</trkpt>
<trkpt lat="45.9074950" lon="10.2953900">
	<ele>1298.00</ele>
	<time>2025-07-29T06:51:57.000Z</time>
</trkpt>
<trkpt lat="45.9074750" lon="10.2953870">
	<ele>1298.20</ele>
	<time>2025-07-29T06:51:58.000Z</time>
</trkpt>
<trkpt lat="45.9074520" lon="10.2953790">
	<ele>1298.20</ele>
	<time>2025-07-29T06:51:59.000Z</time>
</trkpt>
<trkpt lat="45.9074320" lon="10.2953710">
	<ele>1298.40</ele>
	<time>2025-07-29T06:52:00.000Z</time>
</trkpt>
<trkpt lat="45.9074170" lon="10.2953650">
	<ele>1298.60</ele>
	<time>2025-07-29T06:52:01.000Z</time>
</trkpt>
<trkpt lat="45.9074090" lon="10.2953660">
	<ele>1298.80</ele>
	<time>2025-07-29T06:52:02.000Z</time>
</trkpt>
<trkpt lat="45.9074000" lon="10.2953630">
	<ele>1299.20</ele>
	<time>2025-07-29T06:52:03.000Z</time>
</trkpt>
<trkpt lat="45.9073890" lon="10.2953570">
	<ele>1299.40</ele>
	<time>2025-07-29T06:52:04.000Z</time>
</trkpt>
<trkpt lat="45.9073750" lon="10.2953640">
	<ele>1299.60</ele>
	<time>2025-07-29T06:52:05.000Z</time>
</trkpt>
<trkpt lat="45.9073680" lon="10.2953670">
	<ele>1299.80</ele>
	<time>2025-07-29T06:52:06.000Z</time>
</trkpt>
<trkpt lat="45.9073750" lon="10.2953660">
	<ele>1300.00</ele>
	<time>2025-07-29T06:52:07.000Z</time>
</trkpt>
<trkpt lat="45.9073780" lon="10.2953630">
	<ele>1300.20</ele>
	<time>2025-07-29T06:52:08.000Z</time>
</trkpt>
<trkpt lat="45.9073740" lon="10.2953580">
	<ele>1300.20</ele>
	<time>2025-07-29T06:52:09.000Z</time>
</trkpt>
<trkpt lat="45.9073740" lon="10.2953580">
	<ele>1300.40</ele>
	<time>2025-07-29T06:52:10.000Z</time>
</trkpt>
<trkpt lat="45.9073630" lon="10.2953520">
	<ele>1300.60</ele>
	<time>2025-07-29T06:52:11.000Z</time>
</trkpt>
<trkpt lat="45.9073520" lon="10.2953500">
	<ele>1300.60</ele>
	<time>2025-07-29T06:52:12.000Z</time>
</trkpt>
<trkpt lat="45.9073420" lon="10.2953380">
	<ele>1300.80</ele>
	<time>2025-07-29T06:52:13.000Z</time>
</trkpt>
<trkpt lat="45.9073360" lon="10.2953280">
	<ele>1301.00</ele>
	<time>2025-07-29T06:52:14.000Z</time>
</trkpt>
<trkpt lat="45.9073290" lon="10.2953120">
	<ele>1301.20</ele>
	<time>2025-07-29T06:52:15.000Z</time>
</trkpt>
<trkpt lat="45.9073220" lon="10.2953030">
	<ele>1301.40</ele>
	<time>2025-07-29T06:52:16.000Z</time>
</trkpt>
<trkpt lat="45.9073140" lon="10.2952920">
	<ele>1301.60</ele>
	<time>2025-07-29T06:52:17.000Z</time>
</trkpt>
<trkpt lat="45.9073150" lon="10.2952820">
	<ele>1301.80</ele>
	<time>2025-07-29T06:52:18.000Z</time>
</trkpt>
<trkpt lat="45.9073010" lon="10.2952700">
	<ele>1301.80</ele>
	<time>2025-07-29T06:52:19.000Z</time>
</trkpt>
<trkpt lat="45.9072910" lon="10.2952690">
	<ele>1302.00</ele>
	<time>2025-07-29T06:52:20.000Z</time>
</trkpt>
<trkpt lat="45.9072750" lon="10.2952560">
	<ele>1302.00</ele>
	<time>2025-07-29T06:52:21.000Z</time>
</trkpt>
<trkpt lat="45.9072700" lon="10.2952310">
	<ele>1302.40</ele>
	<time>2025-07-29T06:52:22.000Z</time>
</trkpt>
<trkpt lat="45.9072680" lon="10.2952200">
	<ele>1302.60</ele>
	<time>2025-07-29T06:52:23.000Z</time>
</trkpt>
<trkpt lat="45.9072560" lon="10.2952330">
	<ele>1302.80</ele>
	<time>2025-07-29T06:52:24.000Z</time>
</trkpt>
<trkpt lat="45.9072460" lon="10.2952410">
	<ele>1302.80</ele>
	<time>2025-07-29T06:52:25.000Z</time>
</trkpt>
<trkpt lat="45.9072350" lon="10.2952300">
	<ele>1303.00</ele>
	<time>2025-07-29T06:52:26.000Z</time>
</trkpt>
<trkpt lat="45.9072280" lon="10.2952160">
	<ele>1303.20</ele>
	<time>2025-07-29T06:52:27.000Z</time>
</trkpt>
<trkpt lat="45.9072220" lon="10.2951970">
	<ele>1303.20</ele>
	<time>2025-07-29T06:52:28.000Z</time>
</trkpt>
<trkpt lat="45.9072170" lon="10.2951830">
	<ele>1303.40</ele>
	<time>2025-07-29T06:52:29.000Z</time>
</trkpt>
<trkpt lat="45.9072160" lon="10.2951800">
	<ele>1303.60</ele>
	<time>2025-07-29T06:52:30.000Z</time>
</trkpt>
<trkpt lat="45.9072150" lon="10.2951910">
	<ele>1303.60</ele>
	<time>2025-07-29T06:52:31.000Z</time>
</trkpt>
<trkpt lat="45.9072190" lon="10.2951910">
	<ele>1303.80</ele>
	<time>2025-07-29T06:52:32.000Z</time>
</trkpt>
<trkpt lat="45.9072270" lon="10.2951980">
	<ele>1304.00</ele>
	<time>2025-07-29T06:52:33.000Z</time>
</trkpt>
<trkpt lat="45.9072320" lon="10.2951900">
	<ele>1304.20</ele>
	<time>2025-07-29T06:52:34.000Z</time>
</trkpt>
<trkpt lat="45.9072310" lon="10.2951750">
	<ele>1304.20</ele>
	<time>2025-07-29T06:52:35.000Z</time>
</trkpt>
<trkpt lat="45.9072280" lon="10.2951550">
	<ele>1304.40</ele>
	<time>2025-07-29T06:52:36.000Z</time>
</trkpt>
<trkpt lat="45.9072220" lon="10.2951450">
	<ele>1304.40</ele>
	<time>2025-07-29T06:52:37.000Z</time>
</trkpt>
<trkpt lat="45.9072070" lon="10.2951460">
	<ele>1304.60</ele>
	<time>2025-07-29T06:52:38.000Z</time>
</trkpt>
<trkpt lat="45.9071970" lon="10.2951460">
	<ele>1304.80</ele>
	<time>2025-07-29T06:52:39.000Z</time>
</trkpt>
<trkpt lat="45.9071860" lon="10.2951370">
	<ele>1305.00</ele>
	<time>2025-07-29T06:52:40.000Z</time>
</trkpt>
<trkpt lat="45.9071740" lon="10.2951270">
	<ele>1305.20</ele>
	<time>2025-07-29T06:52:41.000Z</time>
</trkpt>
<trkpt lat="45.9071700" lon="10.2951180">
	<ele>1305.40</ele>
	<time>2025-07-29T06:52:42.000Z</time>
</trkpt>
<trkpt lat="45.9071730" lon="10.2951130">
	<ele>1305.40</ele>
	<time>2025-07-29T06:52:43.000Z</time>
</trkpt>
<trkpt lat="45.9071690" lon="10.2951140">
	<ele>1305.60</ele>
	<time>2025-07-29T06:52:44.000Z</time>
</trkpt>
<trkpt lat="45.9071710" lon="10.2951090">
	<ele>1305.60</ele>
	<time>2025-07-29T06:52:45.000Z</time>
</trkpt>
<trkpt lat="45.9071700" lon="10.2951030">
	<ele>1306.00</ele>
	<time>2025-07-29T06:52:46.000Z</time>
</trkpt>
<trkpt lat="45.9071610" lon="10.2950940">
	<ele>1306.20</ele>
	<time>2025-07-29T06:52:47.000Z</time>
</trkpt>
<trkpt lat="45.9071420" lon="10.2950920">
	<ele>1306.20</ele>
	<time>2025-07-29T06:52:48.000Z</time>
</trkpt>
<trkpt lat="45.9071300" lon="10.2950830">
	<ele>1306.40</ele>
	<time>2025-07-29T06:52:49.000Z</time>
</trkpt>
<trkpt lat="45.9071270" lon="10.2950720">
	<ele>1306.60</ele>
	<time>2025-07-29T06:52:50.000Z</time>
</trkpt>
<trkpt lat="45.9071230" lon="10.2950670">
	<ele>1306.80</ele>
	<time>2025-07-29T06:52:51.000Z</time>
</trkpt>
<trkpt lat="45.9071170" lon="10.2950630">
	<ele>1306.80</ele>
	<time>2025-07-29T06:52:52.000Z</time>
</trkpt>
<trkpt lat="45.9071120" lon="10.2950580">
	<ele>1307.00</ele>
	<time>2025-07-29T06:52:53.000Z</time>
</trkpt>
<trkpt lat="45.9071130" lon="10.2950520">
	<ele>1307.20</ele>
	<time>2025-07-29T06:52:54.000Z</time>
</trkpt>
<trkpt lat="45.9071120" lon="10.2950500">
	<ele>1307.20</ele>
	<time>2025-07-29T06:52:55.000Z</time>
</trkpt>
<trkpt lat="45.9071130" lon="10.2950400">
	<ele>1307.40</ele>
	<time>2025-07-29T06:52:56.000Z</time>
</trkpt>
<trkpt lat="45.9071130" lon="10.2950170">
	<ele>1307.40</ele>
	<time>2025-07-29T06:52:57.000Z</time>
</trkpt>
<trkpt lat="45.9071110" lon="10.2950000">
	<ele>1307.60</ele>
	<time>2025-07-29T06:52:58.000Z</time>
</trkpt>
<trkpt lat="45.9071000" lon="10.2950090">
	<ele>1307.80</ele>
	<time>2025-07-29T06:52:59.000Z</time>
</trkpt>
<trkpt lat="45.9070820" lon="10.2950280">
	<ele>1307.80</ele>
	<time>2025-07-29T06:53:00.000Z</time>
</trkpt>
<trkpt lat="45.9070710" lon="10.2950320">
	<ele>1307.80</ele>
	<time>2025-07-29T06:53:01.000Z</time>
</trkpt>
<trkpt lat="45.9070630" lon="10.2950290">
	<ele>1308.20</ele>
	<time>2025-07-29T06:53:02.000Z</time>
</trkpt>
<trkpt lat="45.9070640" lon="10.2950200">
	<ele>1308.40</ele>
	<time>2025-07-29T06:53:03.000Z</time>
</trkpt>
<trkpt lat="45.9070620" lon="10.2950150">
	<ele>1308.60</ele>
	<time>2025-07-29T06:53:04.000Z</time>
</trkpt>
<trkpt lat="45.9070490" lon="10.2950090">
	<ele>1308.60</ele>
	<time>2025-07-29T06:53:05.000Z</time>
</trkpt>
<trkpt lat="45.9070420" lon="10.2950020">
	<ele>1308.80</ele>
	<time>2025-07-29T06:53:06.000Z</time>
</trkpt>
<trkpt lat="45.9070380" lon="10.2949950">
	<ele>1309.00</ele>
	<time>2025-07-29T06:53:07.000Z</time>
</trkpt>
<trkpt lat="45.9070330" lon="10.2949840">
	<ele>1309.00</ele>
	<time>2025-07-29T06:53:08.000Z</time>
</trkpt>
<trkpt lat="45.9070230" lon="10.2949780">
	<ele>1309.20</ele>
	<time>2025-07-29T06:53:09.000Z</time>
</trkpt>
<trkpt lat="45.9070210" lon="10.2949740">
	<ele>1309.40</ele>
	<time>2025-07-29T06:53:10.000Z</time>
</trkpt>
<trkpt lat="45.9070180" lon="10.2949700">
	<ele>1309.80</ele>
	<time>2025-07-29T06:53:11.000Z</time>
</trkpt>
<trkpt lat="45.9070180" lon="10.2949670">
	<ele>1310.00</ele>
	<time>2025-07-29T06:53:12.000Z</time>
</trkpt>
<trkpt lat="45.9070170" lon="10.2949650">
	<ele>1310.20</ele>
	<time>2025-07-29T06:53:13.000Z</time>
</trkpt>
<trkpt lat="45.9070160" lon="10.2949620">
	<ele>1310.40</ele>
	<time>2025-07-29T06:53:14.000Z</time>
</trkpt>
<trkpt lat="45.9070130" lon="10.2949600">
	<ele>1310.60</ele>
	<time>2025-07-29T06:53:15.000Z</time>
</trkpt>
<trkpt lat="45.9070090" lon="10.2949590">
	<ele>1310.60</ele>
	<time>2025-07-29T06:53:16.000Z</time>
</trkpt>
<trkpt lat="45.9070060" lon="10.2949570">
	<ele>1310.80</ele>
	<time>2025-07-29T06:53:17.000Z</time>
</trkpt>
<trkpt lat="45.9070040" lon="10.2949560">
	<ele>1311.00</ele>
	<time>2025-07-29T06:53:18.000Z</time>
</trkpt>
<trkpt lat="45.9070010" lon="10.2949520">
	<ele>1311.20</ele>
	<time>2025-07-29T06:53:19.000Z</time>
</trkpt>
<trkpt lat="45.9069980" lon="10.2949520">
	<ele>1311.40</ele>
	<time>2025-07-29T06:53:20.000Z</time>
</trkpt>
<trkpt lat="45.9069920" lon="10.2949460">
	<ele>1311.60</ele>
	<time>2025-07-29T06:53:21.000Z</time>
</trkpt>
<trkpt lat="45.9069850" lon="10.2949420">
	<ele>1311.80</ele>
	<time>2025-07-29T06:53:22.000Z</time>
</trkpt>
<trkpt lat="45.9069780" lon="10.2949340">
	<ele>1312.20</ele>
	<time>2025-07-29T06:53:23.000Z</time>
</trkpt>
<trkpt lat="45.9069690" lon="10.2949280">
	<ele>1312.40</ele>
	<time>2025-07-29T06:53:24.000Z</time>
</trkpt>
<trkpt lat="45.9069650" lon="10.2949250">
	<ele>1312.60</ele>
	<time>2025-07-29T06:53:25.000Z</time>
</trkpt>
<trkpt lat="45.9069560" lon="10.2949210">
	<ele>1312.80</ele>
	<time>2025-07-29T06:53:26.000Z</time>
</trkpt>
<trkpt lat="45.9069440" lon="10.2949190">
	<ele>1312.80</ele>
	<time>2025-07-29T06:53:27.000Z</time>
</trkpt>
<trkpt lat="45.9069290" lon="10.2949200">
	<ele>1313.00</ele>
	<time>2025-07-29T06:53:28.000Z</time>
</trkpt>
<trkpt lat="45.9069120" lon="10.2949170">
	<ele>1313.20</ele>
	<time>2025-07-29T06:53:29.000Z</time>
</trkpt>
<trkpt lat="45.9069050" lon="10.2949150">
	<ele>1313.40</ele>
	<time>2025-07-29T06:53:30.000Z</time>
</trkpt>
<trkpt lat="45.9068980" lon="10.2949200">
	<ele>1313.80</ele>
	<time>2025-07-29T06:53:31.000Z</time>
</trkpt>
<trkpt lat="45.9068900" lon="10.2949240">
	<ele>1314.00</ele>
	<time>2025-07-29T06:53:32.000Z</time>
</trkpt>
<trkpt lat="45.9068810" lon="10.2949190">
	<ele>1314.40</ele>
	<time>2025-07-29T06:53:33.000Z</time>
</trkpt>
<trkpt lat="45.9068780" lon="10.2949180">
	<ele>1314.60</ele>
	<time>2025-07-29T06:53:34.000Z</time>
</trkpt>
<trkpt lat="45.9068720" lon="10.2949200">
	<ele>1314.80</ele>
	<time>2025-07-29T06:53:35.000Z</time>
</trkpt>
<trkpt lat="45.9068690" lon="10.2949230">
	<ele>1315.00</ele>
	<time>2025-07-29T06:53:36.000Z</time>
</trkpt>
<trkpt lat="45.9068660" lon="10.2949210">
	<ele>1315.20</ele>
	<time>2025-07-29T06:53:37.000Z</time>
</trkpt>
<trkpt lat="45.9068630" lon="10.2949190">
	<ele>1315.40</ele>
	<time>2025-07-29T06:53:38.000Z</time>
</trkpt>
<trkpt lat="45.9068530" lon="10.2949090">
	<ele>1315.60</ele>
	<time>2025-07-29T06:53:39.000Z</time>
</trkpt>
<trkpt lat="45.9068430" lon="10.2949020">
	<ele>1315.80</ele>
	<time>2025-07-29T06:53:40.000Z</time>
</trkpt>
<trkpt lat="45.9068420" lon="10.2949050">
	<ele>1316.00</ele>
	<time>2025-07-29T06:53:41.000Z</time>
</trkpt>
<trkpt lat="45.9068330" lon="10.2949090">
	<ele>1316.20</ele>
	<time>2025-07-29T06:53:42.000Z</time>
</trkpt>
<trkpt lat="45.9068310" lon="10.2949070">
	<ele>1316.40</ele>
	<time>2025-07-29T06:53:43.000Z</time>
</trkpt>
<trkpt lat="45.9068290" lon="10.2948970">
	<ele>1316.60</ele>
	<time>2025-07-29T06:53:44.000Z</time>
</trkpt>
<trkpt lat="45.9068220" lon="10.2949000">
	<ele>1316.60</ele>
	<time>2025-07-29T06:53:45.000Z</time>
</trkpt>
<trkpt lat="45.9068090" lon="10.2949080">
	<ele>1316.80</ele>
	<time>2025-07-29T06:53:46.000Z</time>
</trkpt>
<trkpt lat="45.9067950" lon="10.2949160">
	<ele>1317.00</ele>
	<time>2025-07-29T06:53:47.000Z</time>
</trkpt>
<trkpt lat="45.9067880" lon="10.2949200">
	<ele>1317.20</ele>
	<time>2025-07-29T06:53:48.000Z</time>
</trkpt>
<trkpt lat="45.9067860" lon="10.2949210">
	<ele>1317.40</ele>
	<time>2025-07-29T06:53:49.000Z</time>
</trkpt>
<trkpt lat="45.9067820" lon="10.2949220">
	<ele>1317.60</ele>
	<time>2025-07-29T06:53:50.000Z</time>
</trkpt>
<trkpt lat="45.9067690" lon="10.2949170">
	<ele>1317.80</ele>
	<time>2025-07-29T06:53:51.000Z</time>
</trkpt>
<trkpt lat="45.9067660" lon="10.2949190">
	<ele>1318.00</ele>
	<time>2025-07-29T06:53:52.000Z</time>
</trkpt>
<trkpt lat="45.9067640" lon="10.2949210">
	<ele>1318.20</ele>
	<time>2025-07-29T06:53:53.000Z</time>
</trkpt>
<trkpt lat="45.9067600" lon="10.2949300">
	<ele>1318.40</ele>
	<time>2025-07-29T06:53:54.000Z</time>
</trkpt>
<trkpt lat="45.9067580" lon="10.2949320">
	<ele>1318.60</ele>
	<time>2025-07-29T06:53:55.000Z</time>
</trkpt>
<trkpt lat="45.9067690" lon="10.2949450">
	<ele>1318.80</ele>
	<time>2025-07-29T06:53:56.000Z</time>
</trkpt>
<trkpt lat="45.9067720" lon="10.2949470">
	<ele>1318.80</ele>
	<time>2025-07-29T06:53:57.000Z</time>
</trkpt>
<trkpt lat="45.9067650" lon="10.2949380">
	<ele>1319.20</ele>
	<time>2025-07-29T06:53:58.000Z</time>
</trkpt>
<trkpt lat="45.9067600" lon="10.2949330">
	<ele>1319.40</ele>
	<time>2025-07-29T06:53:59.000Z</time>
</trkpt>
<trkpt lat="45.9067570" lon="10.2949320">
	<ele>1319.40</ele>
	<time>2025-07-29T06:54:00.000Z</time>
</trkpt>
<trkpt lat="45.9067540" lon="10.2949310">
	<ele>1319.40</ele>
	<time>2025-07-29T06:54:01.000Z</time>
</trkpt>
<trkpt lat="45.9067530" lon="10.2949330">
	<ele>1319.60</ele>
	<time>2025-07-29T06:54:02.000Z</time>
</trkpt>
<trkpt lat="45.9067500" lon="10.2949310">
	<ele>1319.40</ele>
	<time>2025-07-29T06:54:03.000Z</time>
</trkpt>
<trkpt lat="45.9067480" lon="10.2949380">
	<ele>1319.40</ele>
	<time>2025-07-29T06:54:04.000Z</time>
</trkpt>
<trkpt lat="45.9067470" lon="10.2949400">
	<ele>1319.40</ele>
	<time>2025-07-29T06:54:05.000Z</time>
</trkpt>
<trkpt lat="45.9067420" lon="10.2949420">
	<ele>1319.40</ele>
	<time>2025-07-29T06:54:06.000Z</time>
</trkpt>
<trkpt lat="45.9067380" lon="10.2949400">
	<ele>1319.40</ele>
	<time>2025-07-29T06:54:07.000Z</time>
</trkpt>
<trkpt lat="45.9067350" lon="10.2949390">
	<ele>1319.60</ele>
	<time>2025-07-29T06:54:08.000Z</time>
</trkpt>
<trkpt lat="45.9067330" lon="10.2949400">
	<ele>1319.60</ele>
	<time>2025-07-29T06:54:09.000Z</time>
</trkpt>
<trkpt lat="45.9067330" lon="10.2949400">
	<ele>1319.60</ele>
	<time>2025-07-29T06:54:10.000Z</time>
</trkpt>
<trkpt lat="45.9067320" lon="10.2949410">
	<ele>1319.80</ele>
	<time>2025-07-29T06:54:11.000Z</time>
</trkpt>
<trkpt lat="45.9067290" lon="10.2949430">
	<ele>1319.80</ele>
	<time>2025-07-29T06:54:12.000Z</time>
</trkpt>
<trkpt lat="45.9067250" lon="10.2949390">
	<ele>1319.80</ele>
	<time>2025-07-29T06:54:13.000Z</time>
</trkpt>
<trkpt lat="45.9067200" lon="10.2949380">
	<ele>1319.80</ele>
	<time>2025-07-29T06:54:14.000Z</time>
</trkpt>
<trkpt lat="45.9067110" lon="10.2949400">
	<ele>1319.80</ele>
	<time>2025-07-29T06:54:15.000Z</time>
</trkpt>
<trkpt lat="45.9067040" lon="10.2949440">
	<ele>1319.80</ele>
	<time>2025-07-29T06:54:16.000Z</time>
</trkpt>
<trkpt lat="45.9066990" lon="10.2949520">
	<ele>1319.80</ele>
	<time>2025-07-29T06:54:17.000Z</time>
</trkpt>
<trkpt lat="45.9066950" lon="10.2949610">
	<ele>1320.00</ele>
	<time>2025-07-29T06:54:18.000Z</time>
</trkpt>
<trkpt lat="45.9066880" lon="10.2949710">
	<ele>1320.00</ele>
	<time>2025-07-29T06:54:19.000Z</time>
</trkpt>
<trkpt lat="45.9066810" lon="10.2949800">
	<ele>1320.40</ele>
	<time>2025-07-29T06:54:20.000Z</time>
</trkpt>
<trkpt lat="45.9066730" lon="10.2949870">
	<ele>1320.60</ele>
	<time>2025-07-29T06:54:21.000Z</time>
</trkpt>
<trkpt lat="45.9066660" lon="10.2949930">
	<ele>1320.60</ele>
	<time>2025-07-29T06:54:22.000Z</time>
</trkpt>
<trkpt lat="45.9066590" lon="10.2949970">
	<ele>1320.80</ele>
	<time>2025-07-29T06:54:23.000Z</time>
</trkpt>
<trkpt lat="45.9066490" lon="10.2950040">
	<ele>1321.00</ele>
	<time>2025-07-29T06:54:24.000Z</time>
</trkpt>
<trkpt lat="45.9066400" lon="10.2950100">
	<ele>1321.20</ele>
	<time>2025-07-29T06:54:25.000Z</time>
</trkpt>
<trkpt lat="45.9066310" lon="10.2950150">
	<ele>1321.20</ele>
	<time>2025-07-29T06:54:26.000Z</time>
</trkpt>
<trkpt lat="45.9066220" lon="10.2950220">
	<ele>1321.40</ele>
	<time>2025-07-29T06:54:27.000Z</time>
</trkpt>
<trkpt lat="45.9066200" lon="10.2950300">
	<ele>1321.60</ele>
	<time>2025-07-29T06:54:28.000Z</time>
</trkpt>
<trkpt lat="45.9066160" lon="10.2950340">
	<ele>1321.80</ele>
	<time>2025-07-29T06:54:29.000Z</time>
</trkpt>
<trkpt lat="45.9066140" lon="10.2950370">
	<ele>1322.00</ele>
	<time>2025-07-29T06:54:30.000Z</time>
</trkpt>
<trkpt lat="45.9066060" lon="10.2950360">
	<ele>1322.00</ele>
	<time>2025-07-29T06:54:31.000Z</time>
</trkpt>
<trkpt lat="45.9065940" lon="10.2950390">
	<ele>1322.20</ele>
	<time>2025-07-29T06:54:32.000Z</time>
</trkpt>
<trkpt lat="45.9065840" lon="10.2950480">
	<ele>1322.40</ele>
	<time>2025-07-29T06:54:33.000Z</time>
</trkpt>
<trkpt lat="45.9065750" lon="10.2950590">
	<ele>1322.40</ele>
	<time>2025-07-29T06:54:34.000Z</time>
</trkpt>
<trkpt lat="45.9065690" lon="10.2950710">
	<ele>1322.40</ele>
	<time>2025-07-29T06:54:35.000Z</time>
</trkpt>
<trkpt lat="45.9065610" lon="10.2950790">
	<ele>1322.60</ele>
	<time>2025-07-29T06:54:36.000Z</time>
</trkpt>
<trkpt lat="45.9065480" lon="10.2950850">
	<ele>1322.60</ele>
	<time>2025-07-29T06:54:37.000Z</time>
</trkpt>
<trkpt lat="45.9065340" lon="10.2950940">
	<ele>1322.60</ele>
	<time>2025-07-29T06:54:38.000Z</time>
</trkpt>
<trkpt lat="45.9065240" lon="10.2950980">
	<ele>1322.60</ele>
	<time>2025-07-29T06:54:39.000Z</time>
</trkpt>
<trkpt lat="45.9065150" lon="10.2950970">
	<ele>1322.60</ele>
	<time>2025-07-29T06:54:40.000Z</time>
</trkpt>
<trkpt lat="45.9065030" lon="10.2950940">
	<ele>1322.80</ele>
	<time>2025-07-29T06:54:41.000Z</time>
</trkpt>
<trkpt lat="45.9064880" lon="10.2950940">
	<ele>1322.80</ele>
	<time>2025-07-29T06:54:42.000Z</time>
</trkpt>
<trkpt lat="45.9064660" lon="10.2950950">
	<ele>1322.80</ele>
	<time>2025-07-29T06:54:43.000Z</time>
</trkpt>
<trkpt lat="45.9064340" lon="10.2951080">
	<ele>1322.80</ele>
	<time>2025-07-29T06:54:44.000Z</time>
</trkpt>
<trkpt lat="45.9064090" lon="10.2951200">
	<ele>1322.80</ele>
	<time>2025-07-29T06:54:45.000Z</time>
</trkpt>
<trkpt lat="45.9064000" lon="10.2951200">
	<ele>1323.00</ele>
	<time>2025-07-29T06:54:46.000Z</time>
</trkpt>
<trkpt lat="45.9063750" lon="10.2951130">
	<ele>1323.00</ele>
	<time>2025-07-29T06:54:47.000Z</time>
</trkpt>
<trkpt lat="45.9063610" lon="10.2951050">
	<ele>1323.00</ele>
	<time>2025-07-29T06:54:48.000Z</time>
</trkpt>
<trkpt lat="45.9063590" lon="10.2951000">
	<ele>1323.20</ele>
	<time>2025-07-29T06:54:49.000Z</time>
</trkpt>
<trkpt lat="45.9063530" lon="10.2951000">
	<ele>1323.20</ele>
	<time>2025-07-29T06:54:50.000Z</time>
</trkpt>
<trkpt lat="45.9063370" lon="10.2951120">
	<ele>1323.40</ele>
	<time>2025-07-29T06:54:51.000Z</time>
</trkpt>
<trkpt lat="45.9063330" lon="10.2951140">
	<ele>1323.40</ele>
	<time>2025-07-29T06:54:52.000Z</time>
</trkpt>
<trkpt lat="45.9063240" lon="10.2951190">
	<ele>1323.20</ele>
	<time>2025-07-29T06:54:53.000Z</time>
</trkpt>
<trkpt lat="45.9063180" lon="10.2951200">
	<ele>1323.20</ele>
	<time>2025-07-29T06:54:54.000Z</time>
</trkpt>
<trkpt lat="45.9063040" lon="10.2951140">
	<ele>1323.00</ele>
	<time>2025-07-29T06:54:55.000Z</time>
</trkpt>
<trkpt lat="45.9062930" lon="10.2951100">
	<ele>1323.00</ele>
	<time>2025-07-29T06:54:56.000Z</time>
</trkpt>
<trkpt lat="45.9062850" lon="10.2951010">
	<ele>1323.00</ele>
	<time>2025-07-29T06:54:57.000Z</time>
</trkpt>
<trkpt lat="45.9062720" lon="10.2950940">
	<ele>1323.00</ele>
	<time>2025-07-29T06:54:58.000Z</time>
</trkpt>
<trkpt lat="45.9062640" lon="10.2950930">
	<ele>1323.00</ele>
	<time>2025-07-29T06:54:59.000Z</time>
</trkpt>
<trkpt lat="45.9062560" lon="10.2950900">
	<ele>1323.20</ele>
	<time>2025-07-29T06:55:00.000Z</time>
</trkpt>
<trkpt lat="45.9062400" lon="10.2950930">
	<ele>1323.20</ele>
	<time>2025-07-29T06:55:01.000Z</time>
</trkpt>
<trkpt lat="45.9062290" lon="10.2950970">
	<ele>1323.20</ele>
	<time>2025-07-29T06:55:02.000Z</time>
</trkpt>
<trkpt lat="45.9062230" lon="10.2951050">
	<ele>1323.40</ele>
	<time>2025-07-29T06:55:03.000Z</time>
</trkpt>
<trkpt lat="45.9062190" lon="10.2951130">
	<ele>1323.40</ele>
	<time>2025-07-29T06:55:04.000Z</time>
</trkpt>
<trkpt lat="45.9062130" lon="10.2951140">
	<ele>1323.40</ele>
	<time>2025-07-29T06:55:05.000Z</time>
</trkpt>
<trkpt lat="45.9062070" lon="10.2951150">
	<ele>1323.40</ele>
	<time>2025-07-29T06:55:06.000Z</time>
</trkpt>
<trkpt lat="45.9062010" lon="10.2951130">
	<ele>1323.40</ele>
	<time>2025-07-29T06:55:07.000Z</time>
</trkpt>
<trkpt lat="45.9061950" lon="10.2951100">
	<ele>1323.40</ele>
	<time>2025-07-29T06:55:08.000Z</time>
</trkpt>
<trkpt lat="45.9061840" lon="10.2951050">
	<ele>1323.60</ele>
	<time>2025-07-29T06:55:09.000Z</time>
</trkpt>
<trkpt lat="45.9061700" lon="10.2950970">
	<ele>1323.60</ele>
	<time>2025-07-29T06:55:10.000Z</time>
</trkpt>
<trkpt lat="45.9061490" lon="10.2950910">
	<ele>1323.60</ele>
	<time>2025-07-29T06:55:11.000Z</time>
</trkpt>
<trkpt lat="45.9061330" lon="10.2950890">
	<ele>1323.60</ele>
	<time>2025-07-29T06:55:12.000Z</time>
</trkpt>
<trkpt lat="45.9061310" lon="10.2950920">
	<ele>1323.80</ele>
	<time>2025-07-29T06:55:13.000Z</time>
</trkpt>
<trkpt lat="45.9061220" lon="10.2950880">
	<ele>1323.80</ele>
	<time>2025-07-29T06:55:14.000Z</time>
</trkpt>
<trkpt lat="45.9061010" lon="10.2950840">
	<ele>1323.80</ele>
	<time>2025-07-29T06:55:15.000Z</time>
</trkpt>
<trkpt lat="45.9060890" lon="10.2950760">
	<ele>1323.80</ele>
	<time>2025-07-29T06:55:16.000Z</time>
</trkpt>
<trkpt lat="45.9060810" lon="10.2950690">
	<ele>1323.80</ele>
	<time>2025-07-29T06:55:17.000Z</time>
</trkpt>
<trkpt lat="45.9060640" lon="10.2950640">
	<ele>1324.00</ele>
	<time>2025-07-29T06:55:18.000Z</time>
</trkpt>
<trkpt lat="45.9060550" lon="10.2950640">
	<ele>1324.00</ele>
	<time>2025-07-29T06:55:19.000Z</time>
</trkpt>
<trkpt lat="45.9060290" lon="10.2950650">
	<ele>1324.20</ele>
	<time>2025-07-29T06:55:20.000Z</time>
</trkpt>
<trkpt lat="45.9060220" lon="10.2950660">
	<ele>1324.20</ele>
	<time>2025-07-29T06:55:21.000Z</time>
</trkpt>
<trkpt lat="45.9059850" lon="10.2950750">
	<ele>1324.20</ele>
	<time>2025-07-29T06:55:22.000Z</time>
</trkpt>
<trkpt lat="45.9059400" lon="10.2950790">
	<ele>1324.40</ele>
	<time>2025-07-29T06:55:23.000Z</time>
</trkpt>
<trkpt lat="45.9058650" lon="10.2950790">
	<ele>1324.40</ele>
	<time>2025-07-29T06:55:24.000Z</time>
</trkpt>
<trkpt lat="45.9058300" lon="10.2950780">
	<ele>1324.60</ele>
	<time>2025-07-29T06:55:25.000Z</time>
</trkpt>
<trkpt lat="45.9058190" lon="10.2950770">
	<ele>1324.60</ele>
	<time>2025-07-29T06:55:26.000Z</time>
</trkpt>
<trkpt lat="45.9057800" lon="10.2950690">
	<ele>1324.60</ele>
	<time>2025-07-29T06:55:27.000Z</time>
</trkpt>
<trkpt lat="45.9057680" lon="10.2950700">
	<ele>1324.80</ele>
	<time>2025-07-29T06:55:28.000Z</time>
</trkpt>
<trkpt lat="45.9057640" lon="10.2950710">
	<ele>1324.80</ele>
	<time>2025-07-29T06:55:29.000Z</time>
</trkpt>
<trkpt lat="45.9057600" lon="10.2950630">
	<ele>1324.80</ele>
	<time>2025-07-29T06:55:30.000Z</time>
</trkpt>
<trkpt lat="45.9057590" lon="10.2950600">
	<ele>1324.60</ele>
	<time>2025-07-29T06:55:31.000Z</time>
</trkpt>
<trkpt lat="45.9057560" lon="10.2950540">
	<ele>1324.60</ele>
	<time>2025-07-29T06:55:32.000Z</time>
</trkpt>
<trkpt lat="45.9057560" lon="10.2950470">
	<ele>1324.60</ele>
	<time>2025-07-29T06:55:33.000Z</time>
</trkpt>
<trkpt lat="45.9057430" lon="10.2950470">
	<ele>1324.60</ele>
	<time>2025-07-29T06:55:34.000Z</time>
</trkpt>
<trkpt lat="45.9057250" lon="10.2950460">
	<ele>1325.00</ele>
	<time>2025-07-29T06:55:35.000Z</time>
</trkpt>
<trkpt lat="45.9057000" lon="10.2950360">
	<ele>1325.20</ele>
	<time>2025-07-29T06:55:36.000Z</time>
</trkpt>
<trkpt lat="45.9057090" lon="10.2950370">
	<ele>1325.20</ele>
	<time>2025-07-29T06:55:37.000Z</time>
</trkpt>
<trkpt lat="45.9057060" lon="10.2950310">
	<ele>1325.40</ele>
	<time>2025-07-29T06:55:38.000Z</time>
</trkpt>
<trkpt lat="45.9057000" lon="10.2950280">
	<ele>1325.40</ele>
	<time>2025-07-29T06:55:39.000Z</time>
</trkpt>
<trkpt lat="45.9056970" lon="10.2950260">
	<ele>1325.60</ele>
	<time>2025-07-29T06:55:40.000Z</time>
</trkpt>
<trkpt lat="45.9056950" lon="10.2950240">
	<ele>1325.60</ele>
	<time>2025-07-29T06:55:41.000Z</time>
</trkpt>
<trkpt lat="45.9056950" lon="10.2950220">
	<ele>1325.60</ele>
	<time>2025-07-29T06:55:42.000Z</time>
</trkpt>
<trkpt lat="45.9056890" lon="10.2950180">
	<ele>1325.60</ele>
	<time>2025-07-29T06:55:43.000Z</time>
</trkpt>
<trkpt lat="45.9056840" lon="10.2950130">
	<ele>1325.60</ele>
	<time>2025-07-29T06:55:44.000Z</time>
</trkpt>
<trkpt lat="45.9056850" lon="10.2950110">
	<ele>1325.80</ele>
	<time>2025-07-29T06:55:45.000Z</time>
</trkpt>
<trkpt lat="45.9056880" lon="10.2950110">
	<ele>1325.80</ele>
	<time>2025-07-29T06:55:46.000Z</time>
</trkpt>
<trkpt lat="45.9056890" lon="10.2950080">
	<ele>1325.80</ele>
	<time>2025-07-29T06:55:47.000Z</time>
</trkpt>
<trkpt lat="45.9056850" lon="10.2950050">
	<ele>1326.00</ele>
	<time>2025-07-29T06:55:48.000Z</time>
</trkpt>
<trkpt lat="45.9056810" lon="10.2950060">
	<ele>1326.20</ele>
	<time>2025-07-29T06:55:49.000Z</time>
</trkpt>
<trkpt lat="45.9056780" lon="10.2950100">
	<ele>1326.40</ele>
	<time>2025-07-29T06:55:50.000Z</time>
</trkpt>
<trkpt lat="45.9056800" lon="10.2950130">
	<ele>1326.60</ele>
	<time>2025-07-29T06:55:51.000Z</time>
</trkpt>
<trkpt lat="45.9056860" lon="10.2950140">
	<ele>1326.60</ele>
	<time>2025-07-29T06:55:52.000Z</time>
</trkpt>
<trkpt lat="45.9056840" lon="10.2950130">
	<ele>1326.80</ele>
	<time>2025-07-29T06:55:53.000Z</time>
</trkpt>
<trkpt lat="45.9056710" lon="10.2950070">
	<ele>1327.20</ele>
	<time>2025-07-29T06:55:54.000Z</time>
</trkpt>
<trkpt lat="45.9056600" lon="10.2949920">
	<ele>1327.40</ele>
	<time>2025-07-29T06:55:55.000Z</time>
</trkpt>
<trkpt lat="45.9056520" lon="10.2949780">
	<ele>1327.40</ele>
	<time>2025-07-29T06:55:56.000Z</time>
</trkpt>
<trkpt lat="45.9056470" lon="10.2949680">
	<ele>1327.60</ele>
	<time>2025-07-29T06:55:57.000Z</time>
</trkpt>
<trkpt lat="45.9056470" lon="10.2949580">
	<ele>1328.00</ele>
	<time>2025-07-29T06:55:58.000Z</time>
</trkpt>
<trkpt lat="45.9056500" lon="10.2949510">
	<ele>1328.20</ele>
	<time>2025-07-29T06:55:59.000Z</time>
</trkpt>
<trkpt lat="45.9056550" lon="10.2949420">
	<ele>1328.20</ele>
	<time>2025-07-29T06:56:00.000Z</time>
</trkpt>
<trkpt lat="45.9056660" lon="10.2949330">
	<ele>1328.40</ele>
	<time>2025-07-29T06:56:01.000Z</time>
</trkpt>
<trkpt lat="45.9056680" lon="10.2949290">
	<ele>1328.60</ele>
	<time>2025-07-29T06:56:02.000Z</time>
</trkpt>
<trkpt lat="45.9056660" lon="10.2949250">
	<ele>1328.60</ele>
	<time>2025-07-29T06:56:03.000Z</time>
</trkpt>
<trkpt lat="45.9056520" lon="10.2949150">
	<ele>1329.00</ele>
	<time>2025-07-29T06:56:04.000Z</time>
</trkpt>
<trkpt lat="45.9056350" lon="10.2949030">
	<ele>1329.20</ele>
	<time>2025-07-29T06:56:05.000Z</time>
</trkpt>
<trkpt lat="45.9056310" lon="10.2949010">
	<ele>1329.40</ele>
	<time>2025-07-29T06:56:06.000Z</time>
</trkpt>
<trkpt lat="45.9056340" lon="10.2949040">
	<ele>1329.60</ele>
	<time>2025-07-29T06:56:07.000Z</time>
</trkpt>
<trkpt lat="45.9056350" lon="10.2949050">
	<ele>1330.00</ele>
	<time>2025-07-29T06:56:08.000Z</time>
</trkpt>
<trkpt lat="45.9056330" lon="10.2949060">
	<ele>1330.20</ele>
	<time>2025-07-29T06:56:09.000Z</time>
</trkpt>
<trkpt lat="45.9056330" lon="10.2949030">
	<ele>1330.20</ele>
	<time>2025-07-29T06:56:10.000Z</time>
</trkpt>
<trkpt lat="45.9056280" lon="10.2948980">
	<ele>1330.40</ele>
	<time>2025-07-29T06:56:11.000Z</time>
</trkpt>
<trkpt lat="45.9056240" lon="10.2948940">
	<ele>1330.60</ele>
	<time>2025-07-29T06:56:12.000Z</time>
</trkpt>
<trkpt lat="45.9056160" lon="10.2948910">
	<ele>1330.80</ele>
	<time>2025-07-29T06:56:13.000Z</time>
</trkpt>
<trkpt lat="45.9056120" lon="10.2948930">
	<ele>1331.20</ele>
	<time>2025-07-29T06:56:14.000Z</time>
</trkpt>
<trkpt lat="45.9056110" lon="10.2948880">
	<ele>1331.40</ele>
	<time>2025-07-29T06:56:15.000Z</time>
</trkpt>
<trkpt lat="45.9056090" lon="10.2948820">
	<ele>1331.40</ele>
	<time>2025-07-29T06:56:16.000Z</time>
</trkpt>
<trkpt lat="45.9056020" lon="10.2948710">
	<ele>1331.80</ele>
	<time>2025-07-29T06:56:17.000Z</time>
</trkpt>
<trkpt lat="45.9055920" lon="10.2948560">
	<ele>1332.00</ele>
	<time>2025-07-29T06:56:18.000Z</time>
</trkpt>
<trkpt lat="45.9055920" lon="10.2948460">
	<ele>1332.20</ele>
	<time>2025-07-29T06:56:19.000Z</time>
</trkpt>
<trkpt lat="45.9055890" lon="10.2948330">
	<ele>1332.20</ele>
	<time>2025-07-29T06:56:20.000Z</time>
</trkpt>
<trkpt lat="45.9055750" lon="10.2948190">
	<ele>1332.40</ele>
	<time>2025-07-29T06:56:21.000Z</time>
</trkpt>
<trkpt lat="45.9055650" lon="10.2948100">
	<ele>1332.60</ele>
	<time>2025-07-29T06:56:22.000Z</time>
</trkpt>
<trkpt lat="45.9055600" lon="10.2948040">
	<ele>1332.80</ele>
	<time>2025-07-29T06:56:23.000Z</time>
</trkpt>
<trkpt lat="45.9055540" lon="10.2948050">
	<ele>1333.00</ele>
	<time>2025-07-29T06:56:24.000Z</time>
</trkpt>
<trkpt lat="45.9055350" lon="10.2947980">
	<ele>1333.20</ele>
	<time>2025-07-29T06:56:25.000Z</time>
</trkpt>
<trkpt lat="45.9055250" lon="10.2947900">
	<ele>1333.40</ele>
	<time>2025-07-29T06:56:26.000Z</time>
</trkpt>
<trkpt lat="45.9055110" lon="10.2947890">
	<ele>1333.60</ele>
	<time>2025-07-29T06:56:27.000Z</time>
</trkpt>
<trkpt lat="45.9055050" lon="10.2947910">
	<ele>1333.80</ele>
	<time>2025-07-29T06:56:28.000Z</time>
</trkpt>
<trkpt lat="45.9054930" lon="10.2947890">
	<ele>1333.80</ele>
	<time>2025-07-29T06:56:29.000Z</time>
</trkpt>
<trkpt lat="45.9054820" lon="10.2947790">
	<ele>1334.20</ele>
	<time>2025-07-29T06:56:30.000Z</time>
</trkpt>
<trkpt lat="45.9054750" lon="10.2947720">
	<ele>1334.40</ele>
	<time>2025-07-29T06:56:31.000Z</time>
</trkpt>
<trkpt lat="45.9054660" lon="10.2947670">
	<ele>1334.60</ele>
	<time>2025-07-29T06:56:32.000Z</time>
</trkpt>
<trkpt lat="45.9054580" lon="10.2947640">
	<ele>1334.60</ele>
	<time>2025-07-29T06:56:33.000Z</time>
</trkpt>
<trkpt lat="45.9054430" lon="10.2947630">
	<ele>1334.80</ele>
	<time>2025-07-29T06:56:34.000Z</time>
</trkpt>
<trkpt lat="45.9054460" lon="10.2947570">
	<ele>1335.00</ele>
	<time>2025-07-29T06:56:35.000Z</time>
</trkpt>
<trkpt lat="45.9054450" lon="10.2947550">
	<ele>1335.20</ele>
	<time>2025-07-29T06:56:36.000Z</time>
</trkpt>
<trkpt lat="45.9054390" lon="10.2947510">
	<ele>1335.40</ele>
	<time>2025-07-29T06:56:37.000Z</time>
</trkpt>
<trkpt lat="45.9054360" lon="10.2947570">
	<ele>1335.60</ele>
	<time>2025-07-29T06:56:38.000Z</time>
</trkpt>
<trkpt lat="45.9054280" lon="10.2947520">
	<ele>1335.80</ele>
	<time>2025-07-29T06:56:39.000Z</time>
</trkpt>
<trkpt lat="45.9054250" lon="10.2947510">
	<ele>1335.80</ele>
	<time>2025-07-29T06:56:40.000Z</time>
</trkpt>
<trkpt lat="45.9054280" lon="10.2947460">
	<ele>1336.00</ele>
	<time>2025-07-29T06:56:41.000Z</time>
</trkpt>
<trkpt lat="45.9054370" lon="10.2947460">
	<ele>1336.40</ele>
	<time>2025-07-29T06:56:42.000Z</time>
</trkpt>
<trkpt lat="45.9054400" lon="10.2947440">
	<ele>1336.40</ele>
	<time>2025-07-29T06:56:43.000Z</time>
</trkpt>
<trkpt lat="45.9054440" lon="10.2947400">
	<ele>1336.60</ele>
	<time>2025-07-29T06:56:44.000Z</time>
</trkpt>
<trkpt lat="45.9054590" lon="10.2947320">
	<ele>1337.00</ele>
	<time>2025-07-29T06:56:45.000Z</time>
</trkpt>
<trkpt lat="45.9054630" lon="10.2947310">
	<ele>1337.20</ele>
	<time>2025-07-29T06:56:46.000Z</time>
</trkpt>
<trkpt lat="45.9054440" lon="10.2947310">
	<ele>1337.40</ele>
	<time>2025-07-29T06:56:47.000Z</time>
</trkpt>
<trkpt lat="45.9054190" lon="10.2947330">
	<ele>1337.40</ele>
	<time>2025-07-29T06:56:48.000Z</time>
</trkpt>
<trkpt lat="45.9053950" lon="10.2947310">
	<ele>1337.60</ele>
	<time>2025-07-29T06:56:49.000Z</time>
</trkpt>
<trkpt lat="45.9053880" lon="10.2947250">
	<ele>1337.80</ele>
	<time>2025-07-29T06:56:50.000Z</time>
</trkpt>
<trkpt lat="45.9053720" lon="10.2947270">
	<ele>1338.00</ele>
	<time>2025-07-29T06:56:51.000Z</time>
</trkpt>
<trkpt lat="45.9053630" lon="10.2947300">
	<ele>1338.20</ele>
	<time>2025-07-29T06:56:52.000Z</time>
</trkpt>
<trkpt lat="45.9053560" lon="10.2947330">
	<ele>1338.60</ele>
	<time>2025-07-29T06:56:53.000Z</time>
</trkpt>
<trkpt lat="45.9053490" lon="10.2947340">
	<ele>1338.80</ele>
	<time>2025-07-29T06:56:54.000Z</time>
</trkpt>
<trkpt lat="45.9053410" lon="10.2947310">
	<ele>1339.00</ele>
	<time>2025-07-29T06:56:55.000Z</time>
</trkpt>
<trkpt lat="45.9053310" lon="10.2947270">
	<ele>1339.20</ele>
	<time>2025-07-29T06:56:56.000Z</time>
</trkpt>
<trkpt lat="45.9053190" lon="10.2947230">
	<ele>1339.20</ele>
	<time>2025-07-29T06:56:57.000Z</time>
</trkpt>
<trkpt lat="45.9053010" lon="10.2947170">
	<ele>1339.40</ele>
	<time>2025-07-29T06:56:58.000Z</time>
</trkpt>
<trkpt lat="45.9052820" lon="10.2947060">
	<ele>1339.60</ele>
	<time>2025-07-29T06:56:59.000Z</time>
</trkpt>
<trkpt lat="45.9052750" lon="10.2947020">
	<ele>1339.80</ele>
	<time>2025-07-29T06:57:00.000Z</time>
</trkpt>
<trkpt lat="45.9052700" lon="10.2946920">
	<ele>1340.00</ele>
	<time>2025-07-29T06:57:01.000Z</time>
</trkpt>
<trkpt lat="45.9052610" lon="10.2946760">
	<ele>1340.20</ele>
	<time>2025-07-29T06:57:02.000Z</time>
</trkpt>
<trkpt lat="45.9052430" lon="10.2946660">
	<ele>1340.40</ele>
	<time>2025-07-29T06:57:03.000Z</time>
</trkpt>
<trkpt lat="45.9052280" lon="10.2946570">
	<ele>1340.60</ele>
	<time>2025-07-29T06:57:04.000Z</time>
</trkpt>
<trkpt lat="45.9052220" lon="10.2946530">
	<ele>1340.80</ele>
	<time>2025-07-29T06:57:05.000Z</time>
</trkpt>
<trkpt lat="45.9052200" lon="10.2946480">
	<ele>1341.00</ele>
	<time>2025-07-29T06:57:06.000Z</time>
</trkpt>
<trkpt lat="45.9052140" lon="10.2946440">
	<ele>1341.20</ele>
	<time>2025-07-29T06:57:07.000Z</time>
</trkpt>
<trkpt lat="45.9052090" lon="10.2946410">
	<ele>1341.40</ele>
	<time>2025-07-29T06:57:08.000Z</time>
</trkpt>
<trkpt lat="45.9052100" lon="10.2946400">
	<ele>1341.80</ele>
	<time>2025-07-29T06:57:09.000Z</time>
</trkpt>
<trkpt lat="45.9052040" lon="10.2946370">
	<ele>1341.80</ele>
	<time>2025-07-29T06:57:10.000Z</time>
</trkpt>
<trkpt lat="45.9051950" lon="10.2946380">
	<ele>1342.00</ele>
	<time>2025-07-29T06:57:11.000Z</time>
</trkpt>
<trkpt lat="45.9051900" lon="10.2946450">
	<ele>1342.00</ele>
	<time>2025-07-29T06:57:12.000Z</time>
</trkpt>
<trkpt lat="45.9051860" lon="10.2946510">
	<ele>1342.20</ele>
	<time>2025-07-29T06:57:13.000Z</time>
</trkpt>
<trkpt lat="45.9051870" lon="10.2946480">
	<ele>1342.40</ele>
	<time>2025-07-29T06:57:14.000Z</time>
</trkpt>
<trkpt lat="45.9051800" lon="10.2946400">
	<ele>1342.40</ele>
	<time>2025-07-29T06:57:15.000Z</time>
</trkpt>
<trkpt lat="45.9051760" lon="10.2946270">
	<ele>1342.60</ele>
	<time>2025-07-29T06:57:16.000Z</time>
</trkpt>
<trkpt lat="45.9051770" lon="10.2946170">
	<ele>1342.80</ele>
	<time>2025-07-29T06:57:17.000Z</time>
</trkpt>
<trkpt lat="45.9051750" lon="10.2946080">
	<ele>1342.80</ele>
	<time>2025-07-29T06:57:18.000Z</time>
</trkpt>
<trkpt lat="45.9051660" lon="10.2946000">
	<ele>1342.80</ele>
	<time>2025-07-29T06:57:19.000Z</time>
</trkpt>
<trkpt lat="45.9051510" lon="10.2945860">
	<ele>1343.00</ele>
	<time>2025-07-29T06:57:20.000Z</time>
</trkpt>
<trkpt lat="45.9051290" lon="10.2945750">
	<ele>1343.00</ele>
	<time>2025-07-29T06:57:21.000Z</time>
</trkpt>
<trkpt lat="45.9051040" lon="10.2945630">
	<ele>1343.00</ele>
	<time>2025-07-29T06:57:22.000Z</time>
</trkpt>
<trkpt lat="45.9050860" lon="10.2945470">
	<ele>1343.20</ele>
	<time>2025-07-29T06:57:23.000Z</time>
</trkpt>
<trkpt lat="45.9050760" lon="10.2945380">
	<ele>1343.40</ele>
	<time>2025-07-29T06:57:24.000Z</time>
</trkpt>
<trkpt lat="45.9050690" lon="10.2945360">
	<ele>1343.60</ele>
	<time>2025-07-29T06:57:25.000Z</time>
</trkpt>
<trkpt lat="45.9050600" lon="10.2945230">
	<ele>1343.80</ele>
	<time>2025-07-29T06:57:26.000Z</time>
</trkpt>
<trkpt lat="45.9050390" lon="10.2945250">
	<ele>1343.80</ele>
	<time>2025-07-29T06:57:27.000Z</time>
</trkpt>
<trkpt lat="45.9050410" lon="10.2945200">
	<ele>1344.00</ele>
	<time>2025-07-29T06:57:28.000Z</time>
</trkpt>
<trkpt lat="45.9050460" lon="10.2945130">
	<ele>1344.20</ele>
	<time>2025-07-29T06:57:29.000Z</time>
</trkpt>
<trkpt lat="45.9050640" lon="10.2945050">
	<ele>1344.40</ele>
	<time>2025-07-29T06:57:30.000Z</time>
</trkpt>
<trkpt lat="45.9050830" lon="10.2944900">
	<ele>1344.40</ele>
	<time>2025-07-29T06:57:31.000Z</time>
</trkpt>
<trkpt lat="45.9050920" lon="10.2944850">
	<ele>1344.60</ele>
	<time>2025-07-29T06:57:32.000Z</time>
</trkpt>
<trkpt lat="45.9050960" lon="10.2944810">
	<ele>1344.80</ele>
	<time>2025-07-29T06:57:33.000Z</time>
</trkpt>
<trkpt lat="45.9050920" lon="10.2944810">
	<ele>1344.80</ele>
	<time>2025-07-29T06:57:34.000Z</time>
</trkpt>
<trkpt lat="45.9050910" lon="10.2944750">
	<ele>1345.00</ele>
	<time>2025-07-29T06:57:35.000Z</time>
</trkpt>
<trkpt lat="45.9050880" lon="10.2944650">
	<ele>1345.20</ele>
	<time>2025-07-29T06:57:36.000Z</time>
</trkpt>
<trkpt lat="45.9050870" lon="10.2944540">
	<ele>1345.20</ele>
	<time>2025-07-29T06:57:37.000Z</time>
</trkpt>
<trkpt lat="45.9050810" lon="10.2944490">
	<ele>1345.60</ele>
	<time>2025-07-29T06:57:38.000Z</time>
</trkpt>
<trkpt lat="45.9050680" lon="10.2944490">
	<ele>1345.80</ele>
	<time>2025-07-29T06:57:39.000Z</time>
</trkpt>
<trkpt lat="45.9050580" lon="10.2944400">
	<ele>1346.00</ele>
	<time>2025-07-29T06:57:40.000Z</time>
</trkpt>
<trkpt lat="45.9050500" lon="10.2944270">
	<ele>1346.20</ele>
	<time>2025-07-29T06:57:41.000Z</time>
</trkpt>
<trkpt lat="45.9050490" lon="10.2944150">
	<ele>1346.40</ele>
	<time>2025-07-29T06:57:42.000Z</time>
</trkpt>
<trkpt lat="45.9050460" lon="10.2944130">
	<ele>1346.40</ele>
	<time>2025-07-29T06:57:43.000Z</time>
</trkpt>
<trkpt lat="45.9050480" lon="10.2944030">
	<ele>1346.60</ele>
	<time>2025-07-29T06:57:44.000Z</time>
</trkpt>
<trkpt lat="45.9050530" lon="10.2943980">
	<ele>1346.80</ele>
	<time>2025-07-29T06:57:45.000Z</time>
</trkpt>
<trkpt lat="45.9050530" lon="10.2943910">
	<ele>1347.00</ele>
	<time>2025-07-29T06:57:46.000Z</time>
</trkpt>
<trkpt lat="45.9050510" lon="10.2943850">
	<ele>1347.20</ele>
	<time>2025-07-29T06:57:47.000Z</time>
</trkpt>
<trkpt lat="45.9050510" lon="10.2943870">
	<ele>1347.40</ele>
	<time>2025-07-29T06:57:48.000Z</time>
</trkpt>
<trkpt lat="45.9050480" lon="10.2943810">
	<ele>1347.40</ele>
	<time>2025-07-29T06:57:49.000Z</time>
</trkpt>
<trkpt lat="45.9050470" lon="10.2943650">
	<ele>1347.60</ele>
	<time>2025-07-29T06:57:50.000Z</time>
</trkpt>
<trkpt lat="45.9050420" lon="10.2943510">
	<ele>1347.80</ele>
	<time>2025-07-29T06:57:51.000Z</time>
</trkpt>
<trkpt lat="45.9050300" lon="10.2943330">
	<ele>1348.00</ele>
	<time>2025-07-29T06:57:52.000Z</time>
</trkpt>
<trkpt lat="45.9050250" lon="10.2943100">
	<ele>1348.20</ele>
	<time>2025-07-29T06:57:53.000Z</time>
</trkpt>
<trkpt lat="45.9050280" lon="10.2942880">
	<ele>1348.40</ele>
	<time>2025-07-29T06:57:54.000Z</time>
</trkpt>
<trkpt lat="45.9050210" lon="10.2942760">
	<ele>1348.60</ele>
	<time>2025-07-29T06:57:55.000Z</time>
</trkpt>
<trkpt lat="45.9050130" lon="10.2942740">
	<ele>1348.80</ele>
	<time>2025-07-29T06:57:56.000Z</time>
</trkpt>
<trkpt lat="45.9049950" lon="10.2942770">
	<ele>1349.00</ele>
	<time>2025-07-29T06:57:57.000Z</time>
</trkpt>
<trkpt lat="45.9049850" lon="10.2942750">
	<ele>1349.00</ele>
	<time>2025-07-29T06:57:58.000Z</time>
</trkpt>
<trkpt lat="45.9049840" lon="10.2942730">
	<ele>1349.20</ele>
	<time>2025-07-29T06:57:59.000Z</time>
</trkpt>
<trkpt lat="45.9049770" lon="10.2942640">
	<ele>1349.40</ele>
	<time>2025-07-29T06:58:00.000Z</time>
</trkpt>
<trkpt lat="45.9049700" lon="10.2942590">
	<ele>1349.60</ele>
	<time>2025-07-29T06:58:01.000Z</time>
</trkpt>
<trkpt lat="45.9049580" lon="10.2942550">
	<ele>1349.60</ele>
	<time>2025-07-29T06:58:02.000Z</time>
</trkpt>
<trkpt lat="45.9049540" lon="10.2942470">
	<ele>1350.00</ele>
	<time>2025-07-29T06:58:03.000Z</time>
</trkpt>
<trkpt lat="45.9049560" lon="10.2942380">
	<ele>1350.20</ele>
	<time>2025-07-29T06:58:04.000Z</time>
</trkpt>
<trkpt lat="45.9049590" lon="10.2942290">
	<ele>1350.40</ele>
	<time>2025-07-29T06:58:05.000Z</time>
</trkpt>
<trkpt lat="45.9049640" lon="10.2942230">
	<ele>1350.60</ele>
	<time>2025-07-29T06:58:06.000Z</time>
</trkpt>
<trkpt lat="45.9049690" lon="10.2942120">
	<ele>1350.80</ele>
	<time>2025-07-29T06:58:07.000Z</time>
</trkpt>
<trkpt lat="45.9049770" lon="10.2942030">
	<ele>1351.00</ele>
	<time>2025-07-29T06:58:08.000Z</time>
</trkpt>
<trkpt lat="45.9049860" lon="10.2941920">
	<ele>1351.20</ele>
	<time>2025-07-29T06:58:09.000Z</time>
</trkpt>
<trkpt lat="45.9049850" lon="10.2941830">
	<ele>1351.40</ele>
	<time>2025-07-29T06:58:10.000Z</time>
</trkpt>
<trkpt lat="45.9049850" lon="10.2941790">
	<ele>1351.40</ele>
	<time>2025-07-29T06:58:11.000Z</time>
</trkpt>
<trkpt lat="45.9049840" lon="10.2941760">
	<ele>1351.60</ele>
	<time>2025-07-29T06:58:12.000Z</time>
</trkpt>
<trkpt lat="45.9049850" lon="10.2941750">
	<ele>1351.80</ele>
	<time>2025-07-29T06:58:13.000Z</time>
</trkpt>
<trkpt lat="45.9049870" lon="10.2941690">
	<ele>1352.00</ele>
	<time>2025-07-29T06:58:14.000Z</time>
</trkpt>
<trkpt lat="45.9049930" lon="10.2941650">
	<ele>1352.20</ele>
	<time>2025-07-29T06:58:15.000Z</time>
</trkpt>
<trkpt lat="45.9049910" lon="10.2941620">
	<ele>1352.40</ele>
	<time>2025-07-29T06:58:16.000Z</time>
</trkpt>
<trkpt lat="45.9049810" lon="10.2941470">
	<ele>1352.60</ele>
	<time>2025-07-29T06:58:17.000Z</time>
</trkpt>
<trkpt lat="45.9049610" lon="10.2941270">
	<ele>1352.80</ele>
	<time>2025-07-29T06:58:18.000Z</time>
</trkpt>
<trkpt lat="45.9049430" lon="10.2941050">
	<ele>1352.80</ele>
	<time>2025-07-29T06:58:19.000Z</time>
</trkpt>
<trkpt lat="45.9049450" lon="10.2940890">
	<ele>1353.00</ele>
	<time>2025-07-29T06:58:20.000Z</time>
</trkpt>
<trkpt lat="45.9049360" lon="10.2940770">
	<ele>1353.00</ele>
	<time>2025-07-29T06:58:21.000Z</time>
</trkpt>
<trkpt lat="45.9049260" lon="10.2940720">
	<ele>1353.20</ele>
	<time>2025-07-29T06:58:22.000Z</time>
</trkpt>
<trkpt lat="45.9049080" lon="10.2940670">
	<ele>1353.40</ele>
	<time>2025-07-29T06:58:23.000Z</time>
</trkpt>
<trkpt lat="45.9048690" lon="10.2940530">
	<ele>1353.60</ele>
	<time>2025-07-29T06:58:24.000Z</time>
</trkpt>
<trkpt lat="45.9048430" lon="10.2940430">
	<ele>1353.80</ele>
	<time>2025-07-29T06:58:25.000Z</time>
</trkpt>
<trkpt lat="45.9048330" lon="10.2940340">
	<ele>1354.00</ele>
	<time>2025-07-29T06:58:26.000Z</time>
</trkpt>
<trkpt lat="45.9048270" lon="10.2940300">
	<ele>1354.00</ele>
	<time>2025-07-29T06:58:27.000Z</time>
</trkpt>
<trkpt lat="45.9048380" lon="10.2940280">
	<ele>1354.20</ele>
	<time>2025-07-29T06:58:28.000Z</time>
</trkpt>
<trkpt lat="45.9048460" lon="10.2940210">
	<ele>1354.40</ele>
	<time>2025-07-29T06:58:29.000Z</time>
</trkpt>
<trkpt lat="45.9048490" lon="10.2940040">
	<ele>1354.40</ele>
	<time>2025-07-29T06:58:30.000Z</time>
</trkpt>
<trkpt lat="45.9048300" lon="10.2939810">
	<ele>1354.60</ele>
	<time>2025-07-29T06:58:31.000Z</time>
</trkpt>
<trkpt lat="45.9048150" lon="10.2939730">
	<ele>1354.80</ele>
	<time>2025-07-29T06:58:32.000Z</time>
</trkpt>
<trkpt lat="45.9048060" lon="10.2939720">
	<ele>1355.00</ele>
	<time>2025-07-29T06:58:33.000Z</time>
</trkpt>
<trkpt lat="45.9048020" lon="10.2939590">
	<ele>1355.40</ele>
	<time>2025-07-29T06:58:34.000Z</time>
</trkpt>
<trkpt lat="45.9047820" lon="10.2939470">
	<ele>1355.60</ele>
	<time>2025-07-29T06:58:35.000Z</time>
</trkpt>
<trkpt lat="45.9047840" lon="10.2939400">
	<ele>1355.80</ele>
	<time>2025-07-29T06:58:36.000Z</time>
</trkpt>
<trkpt lat="45.9047880" lon="10.2939420">
	<ele>1356.00</ele>
	<time>2025-07-29T06:58:37.000Z</time>
</trkpt>
<trkpt lat="45.9047950" lon="10.2939430">
	<ele>1356.00</ele>
	<time>2025-07-29T06:58:38.000Z</time>
</trkpt>
<trkpt lat="45.9047950" lon="10.2939370">
	<ele>1356.20</ele>
	<time>2025-07-29T06:58:39.000Z</time>
</trkpt>
<trkpt lat="45.9047950" lon="10.2939280">
	<ele>1356.40</ele>
	<time>2025-07-29T06:58:40.000Z</time>
</trkpt>
<trkpt lat="45.9047870" lon="10.2939190">
	<ele>1356.60</ele>
	<time>2025-07-29T06:58:41.000Z</time>
</trkpt>
<trkpt lat="45.9047840" lon="10.2939140">
	<ele>1356.80</ele>
	<time>2025-07-29T06:58:42.000Z</time>
</trkpt>
<trkpt lat="45.9047840" lon="10.2939120">
	<ele>1356.80</ele>
	<time>2025-07-29T06:58:43.000Z</time>
</trkpt>
<trkpt lat="45.9047730" lon="10.2939110">
	<ele>1357.00</ele>
	<time>2025-07-29T06:58:44.000Z</time>
</trkpt>
<trkpt lat="45.9047690" lon="10.2939080">
	<ele>1357.40</ele>
	<time>2025-07-29T06:58:45.000Z</time>
</trkpt>
<trkpt lat="45.9047620" lon="10.2939050">
	<ele>1357.60</ele>
	<time>2025-07-29T06:58:46.000Z</time>
</trkpt>
<trkpt lat="45.9047510" lon="10.2939010">
	<ele>1357.80</ele>
	<time>2025-07-29T06:58:47.000Z</time>
</trkpt>
<trkpt lat="45.9047410" lon="10.2939000">
	<ele>1358.00</ele>
	<time>2025-07-29T06:58:48.000Z</time>
</trkpt>
<trkpt lat="45.9047330" lon="10.2938920">
	<ele>1358.20</ele>
	<time>2025-07-29T06:58:49.000Z</time>
</trkpt>
<trkpt lat="45.9047230" lon="10.2938870">
	<ele>1358.40</ele>
	<time>2025-07-29T06:58:50.000Z</time>
</trkpt>
<trkpt lat="45.9047140" lon="10.2938870">
	<ele>1358.60</ele>
	<time>2025-07-29T06:58:51.000Z</time>
</trkpt>
<trkpt lat="45.9047060" lon="10.2938860">
	<ele>1358.80</ele>
	<time>2025-07-29T06:58:52.000Z</time>
</trkpt>
<trkpt lat="45.9046920" lon="10.2938850">
	<ele>1359.00</ele>
	<time>2025-07-29T06:58:53.000Z</time>
</trkpt>
<trkpt lat="45.9046790" lon="10.2938880">
	<ele>1359.20</ele>
	<time>2025-07-29T06:58:54.000Z</time>
</trkpt>
<trkpt lat="45.9046670" lon="10.2938880">
	<ele>1359.40</ele>
	<time>2025-07-29T06:58:55.000Z</time>
</trkpt>
<trkpt lat="45.9046610" lon="10.2938860">
	<ele>1359.40</ele>
	<time>2025-07-29T06:58:56.000Z</time>
</trkpt>
<trkpt lat="45.9046610" lon="10.2938830">
	<ele>1359.60</ele>
	<time>2025-07-29T06:58:57.000Z</time>
</trkpt>
<trkpt lat="45.9046650" lon="10.2938750">
	<ele>1359.80</ele>
	<time>2025-07-29T06:58:58.000Z</time>
</trkpt>
<trkpt lat="45.9046780" lon="10.2938620">
	<ele>1360.00</ele>
	<time>2025-07-29T06:58:59.000Z</time>
</trkpt>
<trkpt lat="45.9046710" lon="10.2938580">
	<ele>1360.20</ele>
	<time>2025-07-29T06:59:00.000Z</time>
</trkpt>
<trkpt lat="45.9046650" lon="10.2938510">
	<ele>1360.60</ele>
	<time>2025-07-29T06:59:01.000Z</time>
</trkpt>
<trkpt lat="45.9046630" lon="10.2938440">
	<ele>1360.80</ele>
	<time>2025-07-29T06:59:02.000Z</time>
</trkpt>
<trkpt lat="45.9046580" lon="10.2938320">
	<ele>1361.00</ele>
	<time>2025-07-29T06:59:03.000Z</time>
</trkpt>
<trkpt lat="45.9046600" lon="10.2938170">
	<ele>1361.20</ele>
	<time>2025-07-29T06:59:04.000Z</time>
</trkpt>
<trkpt lat="45.9046540" lon="10.2937970">
	<ele>1361.80</ele>
	<time>2025-07-29T06:59:05.000Z</time>
</trkpt>
<trkpt lat="45.9046420" lon="10.2937730">
	<ele>1362.00</ele>
	<time>2025-07-29T06:59:06.000Z</time>
</trkpt>
<trkpt lat="45.9046270" lon="10.2937560">
	<ele>1362.20</ele>
	<time>2025-07-29T06:59:07.000Z</time>
</trkpt>
<trkpt lat="45.9046160" lon="10.2937460">
	<ele>1362.40</ele>
	<time>2025-07-29T06:59:08.000Z</time>
</trkpt>
<trkpt lat="45.9046140" lon="10.2937390">
	<ele>1362.40</ele>
	<time>2025-07-29T06:59:09.000Z</time>
</trkpt>
<trkpt lat="45.9046100" lon="10.2937340">
	<ele>1362.80</ele>
	<time>2025-07-29T06:59:10.000Z</time>
</trkpt>
<trkpt lat="45.9045970" lon="10.2937300">
	<ele>1363.00</ele>
	<time>2025-07-29T06:59:11.000Z</time>
</trkpt>
<trkpt lat="45.9045930" lon="10.2937290">
	<ele>1363.20</ele>
	<time>2025-07-29T06:59:12.000Z</time>
</trkpt>
<trkpt lat="45.9045930" lon="10.2937220">
	<ele>1363.40</ele>
	<time>2025-07-29T06:59:13.000Z</time>
</trkpt>
<trkpt lat="45.9045880" lon="10.2937210">
	<ele>1363.40</ele>
	<time>2025-07-29T06:59:14.000Z</time>
</trkpt>
<trkpt lat="45.9045860" lon="10.2937190">
	<ele>1363.60</ele>
	<time>2025-07-29T06:59:15.000Z</time>
</trkpt>
<trkpt lat="45.9045850" lon="10.2937120">
	<ele>1363.60</ele>
	<time>2025-07-29T06:59:16.000Z</time>
</trkpt>
<trkpt lat="45.9045910" lon="10.2936990">
	<ele>1363.80</ele>
	<time>2025-07-29T06:59:17.000Z</time>
</trkpt>
<trkpt lat="45.9045870" lon="10.2936960">
	<ele>1363.80</ele>
	<time>2025-07-29T06:59:18.000Z</time>
</trkpt>
<trkpt lat="45.9045700" lon="10.2936930">
	<ele>1363.80</ele>
	<time>2025-07-29T06:59:19.000Z</time>
</trkpt>
<trkpt lat="45.9045620" lon="10.2936840">
	<ele>1364.00</ele>
	<time>2025-07-29T06:59:20.000Z</time>
</trkpt>
<trkpt lat="45.9045640" lon="10.2936710">
	<ele>1364.20</ele>
	<time>2025-07-29T06:59:21.000Z</time>
</trkpt>
<trkpt lat="45.9045890" lon="10.2936580">
	<ele>1364.40</ele>
	<time>2025-07-29T06:59:22.000Z</time>
</trkpt>
<trkpt lat="45.9046040" lon="10.2936420">
	<ele>1364.40</ele>
	<time>2025-07-29T06:59:23.000Z</time>
</trkpt>
<trkpt lat="45.9046010" lon="10.2936300">
	<ele>1364.60</ele>
	<time>2025-07-29T06:59:24.000Z</time>
</trkpt>
<trkpt lat="45.9045840" lon="10.2936160">
	<ele>1364.80</ele>
	<time>2025-07-29T06:59:25.000Z</time>
</trkpt>
<trkpt lat="45.9045630" lon="10.2935990">
	<ele>1365.00</ele>
	<time>2025-07-29T06:59:26.000Z</time>
</trkpt>
<trkpt lat="45.9045270" lon="10.2935810">
	<ele>1365.20</ele>
	<time>2025-07-29T06:59:27.000Z</time>
</trkpt>
<trkpt lat="45.9044990" lon="10.2935650">
	<ele>1365.20</ele>
	<time>2025-07-29T06:59:28.000Z</time>
</trkpt>
<trkpt lat="45.9044950" lon="10.2935550">
	<ele>1365.40</ele>
	<time>2025-07-29T06:59:29.000Z</time>
</trkpt>
<trkpt lat="45.9044900" lon="10.2935450">
	<ele>1365.60</ele>
	<time>2025-07-29T06:59:30.000Z</time>
</trkpt>
<trkpt lat="45.9044870" lon="10.2935370">
	<ele>1366.00</ele>
	<time>2025-07-29T06:59:31.000Z</time>
</trkpt>
<trkpt lat="45.9044810" lon="10.2935300">
	<ele>1366.20</ele>
	<time>2025-07-29T06:59:32.000Z</time>
</trkpt>
<trkpt lat="45.9044730" lon="10.2935220">
	<ele>1366.40</ele>
	<time>2025-07-29T06:59:33.000Z</time>
</trkpt>
<trkpt lat="45.9044730" lon="10.2935180">
	<ele>1366.60</ele>
	<time>2025-07-29T06:59:34.000Z</time>
</trkpt>
<trkpt lat="45.9044660" lon="10.2935120">
	<ele>1366.80</ele>
	<time>2025-07-29T06:59:35.000Z</time>
</trkpt>
<trkpt lat="45.9044600" lon="10.2935080">
	<ele>1367.00</ele>
	<time>2025-07-29T06:59:36.000Z</time>
</trkpt>
<trkpt lat="45.9044560" lon="10.2935010">
	<ele>1367.20</ele>
	<time>2025-07-29T06:59:37.000Z</time>
</trkpt>
<trkpt lat="45.9044480" lon="10.2934960">
	<ele>1367.20</ele>
	<time>2025-07-29T06:59:38.000Z</time>
</trkpt>
<trkpt lat="45.9044400" lon="10.2934840">
	<ele>1367.40</ele>
	<time>2025-07-29T06:59:39.000Z</time>
</trkpt>
<trkpt lat="45.9044340" lon="10.2934740">
	<ele>1367.40</ele>
	<time>2025-07-29T06:59:40.000Z</time>
</trkpt>
<trkpt lat="45.9044280" lon="10.2934680">
	<ele>1367.60</ele>
	<time>2025-07-29T06:59:41.000Z</time>
</trkpt>
<trkpt lat="45.9044140" lon="10.2934720">
	<ele>1367.80</ele>
	<time>2025-07-29T06:59:42.000Z</time>
</trkpt>
<trkpt lat="45.9044080" lon="10.2934730">
	<ele>1368.00</ele>
	<time>2025-07-29T06:59:43.000Z</time>
</trkpt>
<trkpt lat="45.9044180" lon="10.2934720">
	<ele>1368.00</ele>
	<time>2025-07-29T06:59:44.000Z</time>
</trkpt>
<trkpt lat="45.9044170" lon="10.2934740">
	<ele>1368.20</ele>
	<time>2025-07-29T06:59:45.000Z</time>
</trkpt>
<trkpt lat="45.9044170" lon="10.2934640">
	<ele>1368.20</ele>
	<time>2025-07-29T06:59:46.000Z</time>
</trkpt>
<trkpt lat="45.9044180" lon="10.2934580">
	<ele>1368.40</ele>
	<time>2025-07-29T06:59:47.000Z</time>
</trkpt>
<trkpt lat="45.9044070" lon="10.2934580">
	<ele>1368.60</ele>
	<time>2025-07-29T06:59:48.000Z</time>
</trkpt>
<trkpt lat="45.9044000" lon="10.2934590">
	<ele>1368.80</ele>
	<time>2025-07-29T06:59:49.000Z</time>
</trkpt>
<trkpt lat="45.9043890" lon="10.2934510">
	<ele>1369.00</ele>
	<time>2025-07-29T06:59:50.000Z</time>
</trkpt>
<trkpt lat="45.9043730" lon="10.2934490">
	<ele>1369.00</ele>
	<time>2025-07-29T06:59:51.000Z</time>
</trkpt>
<trkpt lat="45.9043620" lon="10.2934420">
	<ele>1369.20</ele>
	<time>2025-07-29T06:59:52.000Z</time>
</trkpt>
<trkpt lat="45.9043490" lon="10.2934290">
	<ele>1369.20</ele>
	<time>2025-07-29T06:59:53.000Z</time>
</trkpt>
<trkpt lat="45.9043470" lon="10.2934240">
	<ele>1369.20</ele>
	<time>2025-07-29T06:59:54.000Z</time>
</trkpt>
<trkpt lat="45.9043460" lon="10.2934170">
	<ele>1369.40</ele>
	<time>2025-07-29T06:59:55.000Z</time>
</trkpt>
<trkpt lat="45.9043460" lon="10.2934020">
	<ele>1369.60</ele>
	<time>2025-07-29T06:59:56.000Z</time>
</trkpt>
<trkpt lat="45.9043380" lon="10.2933860">
	<ele>1369.80</ele>
	<time>2025-07-29T06:59:57.000Z</time>
</trkpt>
<trkpt lat="45.9043330" lon="10.2933720">
	<ele>1370.00</ele>
	<time>2025-07-29T06:59:58.000Z</time>
</trkpt>
<trkpt lat="45.9043260" lon="10.2933620">
	<ele>1370.00</ele>
	<time>2025-07-29T06:59:59.000Z</time>
</trkpt>
<trkpt lat="45.9043170" lon="10.2933510">
	<ele>1370.20</ele>
	<time>2025-07-29T07:00:00.000Z</time>
</trkpt>
<trkpt lat="45.9043100" lon="10.2933420">
	<ele>1370.40</ele>
	<time>2025-07-29T07:00:01.000Z</time>
</trkpt>
<trkpt lat="45.9043160" lon="10.2933320">
	<ele>1370.60</ele>
	<time>2025-07-29T07:00:02.000Z</time>
</trkpt>
<trkpt lat="45.9043260" lon="10.2933200">
	<ele>1370.80</ele>
	<time>2025-07-29T07:00:03.000Z</time>
</trkpt>
<trkpt lat="45.9043250" lon="10.2933130">
	<ele>1371.00</ele>
	<time>2025-07-29T07:00:04.000Z</time>
</trkpt>
<trkpt lat="45.9043220" lon="10.2932960">
	<ele>1371.20</ele>
	<time>2025-07-29T07:00:05.000Z</time>
</trkpt>
<trkpt lat="45.9043150" lon="10.2932780">
	<ele>1371.40</ele>
	<time>2025-07-29T07:00:06.000Z</time>
</trkpt>
<trkpt lat="45.9043120" lon="10.2932610">
	<ele>1371.60</ele>
	<time>2025-07-29T07:00:07.000Z</time>
</trkpt>
<trkpt lat="45.9042910" lon="10.2932450">
	<ele>1371.80</ele>
	<time>2025-07-29T07:00:08.000Z</time>
</trkpt>
<trkpt lat="45.9042640" lon="10.2932310">
	<ele>1372.00</ele>
	<time>2025-07-29T07:00:09.000Z</time>
</trkpt>
<trkpt lat="45.9042380" lon="10.2932230">
	<ele>1372.00</ele>
	<time>2025-07-29T07:00:10.000Z</time>
</trkpt>
<trkpt lat="45.9042240" lon="10.2932240">
	<ele>1372.20</ele>
	<time>2025-07-29T07:00:11.000Z</time>
</trkpt>
<trkpt lat="45.9042100" lon="10.2932180">
	<ele>1372.40</ele>
	<time>2025-07-29T07:00:12.000Z</time>
</trkpt>
<trkpt lat="45.9042000" lon="10.2932090">
	<ele>1372.60</ele>
	<time>2025-07-29T07:00:13.000Z</time>
</trkpt>
<trkpt lat="45.9041950" lon="10.2932000">
	<ele>1372.80</ele>
	<time>2025-07-29T07:00:14.000Z</time>
</trkpt>
<trkpt lat="45.9041920" lon="10.2931950">
	<ele>1373.00</ele>
	<time>2025-07-29T07:00:15.000Z</time>
</trkpt>
<trkpt lat="45.9041910" lon="10.2931940">
	<ele>1373.20</ele>
	<time>2025-07-29T07:00:16.000Z</time>
</trkpt>
<trkpt lat="45.9041850" lon="10.2931940">
	<ele>1373.40</ele>
	<time>2025-07-29T07:00:17.000Z</time>
</trkpt>
<trkpt lat="45.9041810" lon="10.2931880">
	<ele>1373.60</ele>
	<time>2025-07-29T07:00:18.000Z</time>
</trkpt>
<trkpt lat="45.9041770" lon="10.2931840">
	<ele>1373.60</ele>
	<time>2025-07-29T07:00:19.000Z</time>
</trkpt>
<trkpt lat="45.9041770" lon="10.2931770">
	<ele>1373.80</ele>
	<time>2025-07-29T07:00:20.000Z</time>
</trkpt>
<trkpt lat="45.9041740" lon="10.2931720">
	<ele>1374.20</ele>
	<time>2025-07-29T07:00:21.000Z</time>
</trkpt>
<trkpt lat="45.9041720" lon="10.2931720">
	<ele>1374.60</ele>
	<time>2025-07-29T07:00:22.000Z</time>
</trkpt>
<trkpt lat="45.9041850" lon="10.2931630">
	<ele>1374.80</ele>
	<time>2025-07-29T07:00:23.000Z</time>
</trkpt>
<trkpt lat="45.9041820" lon="10.2931640">
	<ele>1375.00</ele>
	<time>2025-07-29T07:00:24.000Z</time>
</trkpt>
<trkpt lat="45.9041820" lon="10.2931670">
	<ele>1375.00</ele>
	<time>2025-07-29T07:00:25.000Z</time>
</trkpt>
<trkpt lat="45.9041850" lon="10.2931600">
	<ele>1375.00</ele>
	<time>2025-07-29T07:00:26.000Z</time>
</trkpt>
<trkpt lat="45.9041880" lon="10.2931490">
	<ele>1375.20</ele>
	<time>2025-07-29T07:00:27.000Z</time>
</trkpt>
<trkpt lat="45.9041870" lon="10.2931430">
	<ele>1375.60</ele>
	<time>2025-07-29T07:00:28.000Z</time>
</trkpt>
<trkpt lat="45.9041900" lon="10.2931160">
	<ele>1375.80</ele>
	<time>2025-07-29T07:00:29.000Z</time>
</trkpt>
<trkpt lat="45.9041820" lon="10.2931000">
	<ele>1375.80</ele>
	<time>2025-07-29T07:00:30.000Z</time>
</trkpt>
<trkpt lat="45.9041730" lon="10.2930890">
	<ele>1376.00</ele>
	<time>2025-07-29T07:00:31.000Z</time>
</trkpt>
<trkpt lat="45.9041670" lon="10.2930920">
	<ele>1376.20</ele>
	<time>2025-07-29T07:00:32.000Z</time>
</trkpt>
<trkpt lat="45.9041720" lon="10.2930920">
	<ele>1376.40</ele>
	<time>2025-07-29T07:00:33.000Z</time>
</trkpt>
<trkpt lat="45.9041870" lon="10.2930780">
	<ele>1376.60</ele>
	<time>2025-07-29T07:00:34.000Z</time>
</trkpt>
<trkpt lat="45.9042030" lon="10.2930500">
	<ele>1376.60</ele>
	<time>2025-07-29T07:00:35.000Z</time>
</trkpt>
<trkpt lat="45.9042030" lon="10.2930460">
	<ele>1376.80</ele>
	<time>2025-07-29T07:00:36.000Z</time>
</trkpt>
<trkpt lat="45.9042000" lon="10.2930430">
	<ele>1377.00</ele>
	<time>2025-07-29T07:00:37.000Z</time>
</trkpt>
<trkpt lat="45.9042060" lon="10.2930250">
	<ele>1377.20</ele>
	<time>2025-07-29T07:00:38.000Z</time>
</trkpt>
<trkpt lat="45.9042080" lon="10.2930030">
	<ele>1377.40</ele>
	<time>2025-07-29T07:00:39.000Z</time>
</trkpt>
<trkpt lat="45.9042040" lon="10.2929840">
	<ele>1377.60</ele>
	<time>2025-07-29T07:00:40.000Z</time>
</trkpt>
<trkpt lat="45.9042050" lon="10.2929720">
	<ele>1377.80</ele>
	<time>2025-07-29T07:00:41.000Z</time>
</trkpt>
<trkpt lat="45.9041920" lon="10.2929630">
	<ele>1378.00</ele>
	<time>2025-07-29T07:00:42.000Z</time>
</trkpt>
<trkpt lat="45.9041810" lon="10.2929560">
	<ele>1378.20</ele>
	<time>2025-07-29T07:00:43.000Z</time>
</trkpt>
<trkpt lat="45.9041740" lon="10.2929410">
	<ele>1378.40</ele>
	<time>2025-07-29T07:00:44.000Z</time>
</trkpt>
<trkpt lat="45.9041590" lon="10.2929340">
	<ele>1378.60</ele>
	<time>2025-07-29T07:00:45.000Z</time>
</trkpt>
<trkpt lat="45.9041440" lon="10.2929240">
	<ele>1378.80</ele>
	<time>2025-07-29T07:00:46.000Z</time>
</trkpt>
<trkpt lat="45.9041370" lon="10.2929150">
	<ele>1379.00</ele>
	<time>2025-07-29T07:00:47.000Z</time>
</trkpt>
<trkpt lat="45.9041350" lon="10.2928990">
	<ele>1379.20</ele>
	<time>2025-07-29T07:00:48.000Z</time>
</trkpt>
<trkpt lat="45.9041280" lon="10.2929000">
	<ele>1379.40</ele>
	<time>2025-07-29T07:00:49.000Z</time>
</trkpt>
<trkpt lat="45.9041150" lon="10.2929220">
	<ele>1379.40</ele>
	<time>2025-07-29T07:00:50.000Z</time>
</trkpt>
<trkpt lat="45.9040970" lon="10.2929330">
	<ele>1379.60</ele>
	<time>2025-07-29T07:00:51.000Z</time>
</trkpt>
<trkpt lat="45.9040800" lon="10.2929230">
	<ele>1379.80</ele>
	<time>2025-07-29T07:00:52.000Z</time>
</trkpt>
<trkpt lat="45.9040660" lon="10.2929010">
	<ele>1380.00</ele>
	<time>2025-07-29T07:00:53.000Z</time>
</trkpt>
<trkpt lat="45.9040550" lon="10.2928830">
	<ele>1380.20</ele>
	<time>2025-07-29T07:00:54.000Z</time>
</trkpt>
<trkpt lat="45.9040570" lon="10.2928690">
	<ele>1380.40</ele>
	<time>2025-07-29T07:00:55.000Z</time>
</trkpt>
<trkpt lat="45.9040580" lon="10.2928580">
	<ele>1380.60</ele>
	<time>2025-07-29T07:00:56.000Z</time>
</trkpt>
<trkpt lat="45.9040490" lon="10.2928400">
	<ele>1380.80</ele>
	<time>2025-07-29T07:00:57.000Z</time>
</trkpt>
<trkpt lat="45.9040390" lon="10.2928310">
	<ele>1381.00</ele>
	<time>2025-07-29T07:00:58.000Z</time>
</trkpt>
<trkpt lat="45.9040320" lon="10.2928230">
	<ele>1381.00</ele>
	<time>2025-07-29T07:00:59.000Z</time>
</trkpt>
<trkpt lat="45.9040140" lon="10.2928200">
	<ele>1381.00</ele>
	<time>2025-07-29T07:01:00.000Z</time>
</trkpt>
<trkpt lat="45.9040020" lon="10.2928140">
	<ele>1381.20</ele>
	<time>2025-07-29T07:01:01.000Z</time>
</trkpt>
<trkpt lat="45.9039840" lon="10.2928100">
	<ele>1381.20</ele>
	<time>2025-07-29T07:01:02.000Z</time>
</trkpt>
<trkpt lat="45.9039790" lon="10.2928140">
	<ele>1381.20</ele>
	<time>2025-07-29T07:01:03.000Z</time>
</trkpt>
<trkpt lat="45.9039790" lon="10.2928140">
	<ele>1381.00</ele>
	<time>2025-07-29T07:01:04.000Z</time>
</trkpt>
<trkpt lat="45.9039810" lon="10.2928230">
	<ele>1381.00</ele>
	<time>2025-07-29T07:01:05.000Z</time>
</trkpt>
<trkpt lat="45.9039580" lon="10.2928280">
	<ele>1381.00</ele>
	<time>2025-07-29T07:01:06.000Z</time>
</trkpt>
<trkpt lat="45.9039400" lon="10.2928350">
	<ele>1381.00</ele>
	<time>2025-07-29T07:01:07.000Z</time>
</trkpt>
<trkpt lat="45.9039200" lon="10.2928340">
	<ele>1381.00</ele>
	<time>2025-07-29T07:01:08.000Z</time>
</trkpt>
<trkpt lat="45.9039030" lon="10.2928300">
	<ele>1381.00</ele>
	<time>2025-07-29T07:01:09.000Z</time>
</trkpt>
<trkpt lat="45.9038920" lon="10.2928250">
	<ele>1381.20</ele>
	<time>2025-07-29T07:01:10.000Z</time>
</trkpt>
<trkpt lat="45.9038910" lon="10.2928240">
	<ele>1381.20</ele>
	<time>2025-07-29T07:01:11.000Z</time>
</trkpt>
<trkpt lat="45.9038940" lon="10.2928130">
	<ele>1381.40</ele>
	<time>2025-07-29T07:01:12.000Z</time>
</trkpt>
<trkpt lat="45.9038930" lon="10.2927970">
	<ele>1381.40</ele>
	<time>2025-07-29T07:01:13.000Z</time>
</trkpt>
<trkpt lat="45.9038850" lon="10.2927830">
	<ele>1381.40</ele>
	<time>2025-07-29T07:01:14.000Z</time>
</trkpt>
<trkpt lat="45.9038710" lon="10.2927770">
	<ele>1381.80</ele>
	<time>2025-07-29T07:01:15.000Z</time>
</trkpt>
<trkpt lat="45.9038610" lon="10.2927700">
	<ele>1382.00</ele>
	<time>2025-07-29T07:01:16.000Z</time>
</trkpt>
<trkpt lat="45.9038490" lon="10.2927730">
	<ele>1382.20</ele>
	<time>2025-07-29T07:01:17.000Z</time>
</trkpt>
<trkpt lat="45.9038590" lon="10.2927670">
	<ele>1382.40</ele>
	<time>2025-07-29T07:01:18.000Z</time>
</trkpt>
<trkpt lat="45.9038550" lon="10.2927660">
	<ele>1382.60</ele>
	<time>2025-07-29T07:01:19.000Z</time>
</trkpt>
<trkpt lat="45.9038430" lon="10.2927600">
	<ele>1382.80</ele>
	<time>2025-07-29T07:01:20.000Z</time>
</trkpt>
<trkpt lat="45.9038270" lon="10.2927520">
	<ele>1383.00</ele>
	<time>2025-07-29T07:01:21.000Z</time>
</trkpt>
<trkpt lat="45.9038140" lon="10.2927470">
	<ele>1383.00</ele>
	<time>2025-07-29T07:01:22.000Z</time>
</trkpt>
<trkpt lat="45.9037940" lon="10.2927430">
	<ele>1383.40</ele>
	<time>2025-07-29T07:01:23.000Z</time>
</trkpt>
<trkpt lat="45.9037800" lon="10.2927400">
	<ele>1383.40</ele>
	<time>2025-07-29T07:01:24.000Z</time>
</trkpt>
<trkpt lat="45.9037690" lon="10.2927360">
	<ele>1383.60</ele>
	<time>2025-07-29T07:01:25.000Z</time>
</trkpt>
<trkpt lat="45.9037530" lon="10.2927260">
	<ele>1383.80</ele>
	<time>2025-07-29T07:01:26.000Z</time>
</trkpt>
<trkpt lat="45.9037440" lon="10.2927140">
	<ele>1384.00</ele>
	<time>2025-07-29T07:01:27.000Z</time>
</trkpt>
<trkpt lat="45.9037420" lon="10.2927100">
	<ele>1384.20</ele>
	<time>2025-07-29T07:01:28.000Z</time>
</trkpt>
<trkpt lat="45.9037290" lon="10.2927070">
	<ele>1384.40</ele>
	<time>2025-07-29T07:01:29.000Z</time>
</trkpt>
<trkpt lat="45.9037230" lon="10.2927040">
	<ele>1384.40</ele>
	<time>2025-07-29T07:01:30.000Z</time>
</trkpt>
<trkpt lat="45.9037240" lon="10.2926930">
	<ele>1384.60</ele>
	<time>2025-07-29T07:01:31.000Z</time>
</trkpt>
<trkpt lat="45.9037200" lon="10.2926890">
	<ele>1384.60</ele>
	<time>2025-07-29T07:01:32.000Z</time>
</trkpt>
<trkpt lat="45.9037190" lon="10.2926870">
	<ele>1385.00</ele>
	<time>2025-07-29T07:01:33.000Z</time>
</trkpt>
<trkpt lat="45.9037180" lon="10.2926820">
	<ele>1385.00</ele>
	<time>2025-07-29T07:01:34.000Z</time>
</trkpt>
<trkpt lat="45.9037020" lon="10.2926770">
	<ele>1385.20</ele>
	<time>2025-07-29T07:01:35.000Z</time>
</trkpt>
<trkpt lat="45.9036930" lon="10.2926800">
	<ele>1385.40</ele>
	<time>2025-07-29T07:01:36.000Z</time>
</trkpt>
<trkpt lat="45.9036840" lon="10.2926700">
	<ele>1385.60</ele>
	<time>2025-07-29T07:01:37.000Z</time>
</trkpt>
<trkpt lat="45.9036860" lon="10.2926790">
	<ele>1385.80</ele>
	<time>2025-07-29T07:01:38.000Z</time>
</trkpt>
<trkpt lat="45.9036880" lon="10.2926820">
	<ele>1386.00</ele>
	<time>2025-07-29T07:01:39.000Z</time>
</trkpt>
<trkpt lat="45.9036770" lon="10.2926740">
	<ele>1386.20</ele>
	<time>2025-07-29T07:01:40.000Z</time>
</trkpt>
<trkpt lat="45.9036630" lon="10.2926620">
	<ele>1386.40</ele>
	<time>2025-07-29T07:01:41.000Z</time>
</trkpt>
<trkpt lat="45.9036600" lon="10.2926570">
	<ele>1386.60</ele>
	<time>2025-07-29T07:01:42.000Z</time>
</trkpt>
<trkpt lat="45.9036590" lon="10.2926560">
	<ele>1386.60</ele>
	<time>2025-07-29T07:01:43.000Z</time>
</trkpt>
<trkpt lat="45.9036540" lon="10.2926550">
	<ele>1386.60</ele>
	<time>2025-07-29T07:01:44.000Z</time>
</trkpt>
<trkpt lat="45.9036460" lon="10.2926690">
	<ele>1386.60</ele>
	<time>2025-07-29T07:01:45.000Z</time>
</trkpt>
<trkpt lat="45.9036340" lon="10.2926630">
	<ele>1386.80</ele>
	<time>2025-07-29T07:01:46.000Z</time>
</trkpt>
<trkpt lat="45.9036300" lon="10.2926620">
	<ele>1386.80</ele>
	<time>2025-07-29T07:01:47.000Z</time>
</trkpt>
<trkpt lat="45.9036250" lon="10.2926460">
	<ele>1386.80</ele>
	<time>2025-07-29T07:01:48.000Z</time>
</trkpt>
<trkpt lat="45.9036240" lon="10.2926450">
	<ele>1386.80</ele>
	<time>2025-07-29T07:01:49.000Z</time>
</trkpt>
<trkpt lat="45.9036150" lon="10.2926350">
	<ele>1386.80</ele>
	<time>2025-07-29T07:01:50.000Z</time>
</trkpt>
<trkpt lat="45.9036150" lon="10.2926360">
	<ele>1387.00</ele>
	<time>2025-07-29T07:01:51.000Z</time>
</trkpt>
<trkpt lat="45.9036230" lon="10.2926500">
	<ele>1387.00</ele>
	<time>2025-07-29T07:01:52.000Z</time>
</trkpt>
<trkpt lat="45.9036210" lon="10.2926520">
	<ele>1386.80</ele>
	<time>2025-07-29T07:01:53.000Z</time>
</trkpt>
<trkpt lat="45.9036260" lon="10.2926580">
	<ele>1386.80</ele>
	<time>2025-07-29T07:01:54.000Z</time>
</trkpt>
<trkpt lat="45.9036350" lon="10.2926690">
	<ele>1387.00</ele>
	<time>2025-07-29T07:01:55.000Z</time>
</trkpt>
<trkpt lat="45.9036450" lon="10.2926790">
	<ele>1387.00</ele>
	<time>2025-07-29T07:01:56.000Z</time>
</trkpt>
<trkpt lat="45.9036600" lon="10.2926860">
	<ele>1387.00</ele>
	<time>2025-07-29T07:01:57.000Z</time>
</trkpt>
<trkpt lat="45.9036790" lon="10.2926800">
	<ele>1387.00</ele>
	<time>2025-07-29T07:01:58.000Z</time>
</trkpt>
<trkpt lat="45.9036870" lon="10.2926830">
	<ele>1387.00</ele>
	<time>2025-07-29T07:01:59.000Z</time>
</trkpt>
<trkpt lat="45.9036930" lon="10.2926880">
	<ele>1387.00</ele>
	<time>2025-07-29T07:02:00.000Z</time>
</trkpt>
<trkpt lat="45.9036980" lon="10.2926880">
	<ele>1387.00</ele>
	<time>2025-07-29T07:02:01.000Z</time>
</trkpt>
<trkpt lat="45.9036930" lon="10.2926960">
	<ele>1387.00</ele>
	<time>2025-07-29T07:02:02.000Z</time>
</trkpt>
<trkpt lat="45.9036900" lon="10.2926990">
	<ele>1387.00</ele>
	<time>2025-07-29T07:02:03.000Z</time>
</trkpt>
<trkpt lat="45.9036950" lon="10.2927030">
	<ele>1387.20</ele>
	<time>2025-07-29T07:02:04.000Z</time>
</trkpt>
<trkpt lat="45.9036950" lon="10.2927030">
	<ele>1387.20</ele>
	<time>2025-07-29T07:02:05.000Z</time>
</trkpt>
<trkpt lat="45.9037110" lon="10.2927060">
	<ele>1387.20</ele>
	<time>2025-07-29T07:02:06.000Z</time>
</trkpt>
<trkpt lat="45.9037130" lon="10.2927080">
	<ele>1387.20</ele>
	<time>2025-07-29T07:02:07.000Z</time>
</trkpt>
<trkpt lat="45.9037160" lon="10.2927100">
	<ele>1387.20</ele>
	<time>2025-07-29T07:02:08.000Z</time>
</trkpt>
<trkpt lat="45.9037070" lon="10.2927190">
	<ele>1387.20</ele>
	<time>2025-07-29T07:02:09.000Z</time>
</trkpt>
<trkpt lat="45.9036960" lon="10.2927370">
	<ele>1387.20</ele>
	<time>2025-07-29T07:02:10.000Z</time>
</trkpt>
<trkpt lat="45.9036960" lon="10.2927440">
	<ele>1387.20</ele>
	<time>2025-07-29T07:02:11.000Z</time>
</trkpt>
<trkpt lat="45.9036900" lon="10.2927540">
	<ele>1387.00</ele>
	<time>2025-07-29T07:02:12.000Z</time>
</trkpt>
<trkpt lat="45.9036890" lon="10.2927570">
	<ele>1387.00</ele>
	<time>2025-07-29T07:02:13.000Z</time>
</trkpt>
<trkpt lat="45.9036840" lon="10.2927520">
	<ele>1387.00</ele>
	<time>2025-07-29T07:02:14.000Z</time>
</trkpt>
<trkpt lat="45.9036720" lon="10.2927440">
	<ele>1387.00</ele>
	<time>2025-07-29T07:02:15.000Z</time>
</trkpt>
<trkpt lat="45.9036730" lon="10.2927400">
	<ele>1387.00</ele>
	<time>2025-07-29T07:02:16.000Z</time>
</trkpt>
<trkpt lat="45.9036720" lon="10.2927350">
	<ele>1387.00</ele>
	<time>2025-07-29T07:02:17.000Z</time>
</trkpt>
<trkpt lat="45.9036650" lon="10.2927300">
	<ele>1387.00</ele>
	<time>2025-07-29T07:02:18.000Z</time>
</trkpt>
<trkpt lat="45.9036600" lon="10.2927330">
	<ele>1387.00</ele>
	<time>2025-07-29T07:02:19.000Z</time>
</trkpt>
<trkpt lat="45.9036490" lon="10.2927280">
	<ele>1387.20</ele>
	<time>2025-07-29T07:02:20.000Z</time>
</trkpt>
<trkpt lat="45.9036380" lon="10.2927170">
	<ele>1387.20</ele>
	<time>2025-07-29T07:02:21.000Z</time>
</trkpt>
<trkpt lat="45.9036340" lon="10.2927080">
	<ele>1387.20</ele>
	<time>2025-07-29T07:02:22.000Z</time>
</trkpt>
<trkpt lat="45.9036250" lon="10.2927010">
	<ele>1387.20</ele>
	<time>2025-07-29T07:02:23.000Z</time>
</trkpt>
<trkpt lat="45.9036190" lon="10.2926930">
	<ele>1387.20</ele>
	<time>2025-07-29T07:02:24.000Z</time>
</trkpt>
<trkpt lat="45.9036220" lon="10.2926820">
	<ele>1387.20</ele>
	<time>2025-07-29T07:02:25.000Z</time>
</trkpt>
<trkpt lat="45.9036250" lon="10.2926690">
	<ele>1387.40</ele>
	<time>2025-07-29T07:02:26.000Z</time>
</trkpt>
<trkpt lat="45.9036240" lon="10.2926600">
	<ele>1387.40</ele>
	<time>2025-07-29T07:02:27.000Z</time>
</trkpt>
<trkpt lat="45.9036230" lon="10.2926580">
	<ele>1387.60</ele>
	<time>2025-07-29T07:02:28.000Z</time>
</trkpt>
<trkpt lat="45.9036340" lon="10.2926570">
	<ele>1387.80</ele>
	<time>2025-07-29T07:02:29.000Z</time>
</trkpt>
<trkpt lat="45.9036360" lon="10.2926540">
	<ele>1387.80</ele>
	<time>2025-07-29T07:02:30.000Z</time>
</trkpt>
<trkpt lat="45.9036410" lon="10.2926490">
	<ele>1387.80</ele>
	<time>2025-07-29T07:02:31.000Z</time>
</trkpt>
<trkpt lat="45.9036500" lon="10.2926630">
	<ele>1387.80</ele>
	<time>2025-07-29T07:02:32.000Z</time>
</trkpt>
<trkpt lat="45.9036470" lon="10.2926620">
	<ele>1387.80</ele>
	<time>2025-07-29T07:02:33.000Z</time>
</trkpt>
<trkpt lat="45.9036500" lon="10.2926590">
	<ele>1388.00</ele>
	<time>2025-07-29T07:02:34.000Z</time>
</trkpt>
<trkpt lat="45.9036520" lon="10.2926530">
	<ele>1388.00</ele>
	<time>2025-07-29T07:02:35.000Z</time>
</trkpt>
<trkpt lat="45.9036510" lon="10.2926490">
	<ele>1388.20</ele>
	<time>2025-07-29T07:02:36.000Z</time>
</trkpt>
<trkpt lat="45.9036520" lon="10.2926490">
	<ele>1388.20</ele>
	<time>2025-07-29T07:02:37.000Z</time>
</trkpt>
<trkpt lat="45.9036530" lon="10.2926490">
	<ele>1388.40</ele>
	<time>2025-07-29T07:02:38.000Z</time>
</trkpt>
<trkpt lat="45.9036510" lon="10.2926390">
	<ele>1388.40</ele>
	<time>2025-07-29T07:02:39.000Z</time>
</trkpt>
<trkpt lat="45.9036460" lon="10.2926370">
	<ele>1388.40</ele>
	<time>2025-07-29T07:02:40.000Z</time>
</trkpt>
<trkpt lat="45.9036410" lon="10.2926340">
	<ele>1388.40</ele>
	<time>2025-07-29T07:02:41.000Z</time>
</trkpt>
<trkpt lat="45.9036220" lon="10.2926230">
	<ele>1388.40</ele>
	<time>2025-07-29T07:02:42.000Z</time>
</trkpt>
<trkpt lat="45.9036130" lon="10.2926210">
	<ele>1388.20</ele>
	<time>2025-07-29T07:02:43.000Z</time>
</trkpt>
<trkpt lat="45.9036090" lon="10.2926180">
	<ele>1388.20</ele>
	<time>2025-07-29T07:02:44.000Z</time>
</trkpt>
<trkpt lat="45.9036080" lon="10.2926210">
	<ele>1388.20</ele>
	<time>2025-07-29T07:02:45.000Z</time>
</trkpt>
<trkpt lat="45.9036040" lon="10.2926220">
	<ele>1388.20</ele>
	<time>2025-07-29T07:02:46.000Z</time>
</trkpt>
<trkpt lat="45.9036050" lon="10.2926190">
	<ele>1388.20</ele>
	<time>2025-07-29T07:02:47.000Z</time>
</trkpt>
<trkpt lat="45.9036050" lon="10.2926210">
	<ele>1388.20</ele>
	<time>2025-07-29T07:02:48.000Z</time>
</trkpt>
<trkpt lat="45.9036090" lon="10.2926200">
	<ele>1388.20</ele>
	<time>2025-07-29T07:02:49.000Z</time>
</trkpt>
<trkpt lat="45.9036230" lon="10.2926180">
	<ele>1388.40</ele>
	<time>2025-07-29T07:02:50.000Z</time>
</trkpt>
<trkpt lat="45.9036260" lon="10.2926200">
	<ele>1388.40</ele>
	<time>2025-07-29T07:02:51.000Z</time>
</trkpt>
<trkpt lat="45.9036210" lon="10.2926220">
	<ele>1388.40</ele>
	<time>2025-07-29T07:02:52.000Z</time>
</trkpt>
<trkpt lat="45.9036180" lon="10.2926220">
	<ele>1388.60</ele>
	<time>2025-07-29T07:02:53.000Z</time>
</trkpt>
<trkpt lat="45.9036190" lon="10.2926180">
	<ele>1388.60</ele>
	<time>2025-07-29T07:02:54.000Z</time>
</trkpt>
<trkpt lat="45.9036120" lon="10.2926150">
	<ele>1388.60</ele>
	<time>2025-07-29T07:02:55.000Z</time>
</trkpt>
<trkpt lat="45.9036100" lon="10.2926140">
	<ele>1388.60</ele>
	<time>2025-07-29T07:02:56.000Z</time>
</trkpt>
<trkpt lat="45.9036120" lon="10.2926030">
	<ele>1388.60</ele>
	<time>2025-07-29T07:02:57.000Z</time>
</trkpt>
<trkpt lat="45.9036150" lon="10.2925930">
	<ele>1388.60</ele>
	<time>2025-07-29T07:02:58.000Z</time>
</trkpt>
<trkpt lat="45.9036130" lon="10.2925910">
	<ele>1388.60</ele>
	<time>2025-07-29T07:02:59.000Z</time>
</trkpt>
<trkpt lat="45.9036210" lon="10.2925870">
	<ele>1388.40</ele>
	<time>2025-07-29T07:03:00.000Z</time>
</trkpt>
<trkpt lat="45.9036410" lon="10.2925910">
	<ele>1388.40</ele>
	<time>2025-07-29T07:03:01.000Z</time>
</trkpt>
<trkpt lat="45.9036580" lon="10.2925860">
	<ele>1388.40</ele>
	<time>2025-07-29T07:03:02.000Z</time>
</trkpt>
<trkpt lat="45.9036720" lon="10.2925840">
	<ele>1388.40</ele>
	<time>2025-07-29T07:03:03.000Z</time>
</trkpt>
<trkpt lat="45.9036810" lon="10.2925810">
	<ele>1388.40</ele>
	<time>2025-07-29T07:03:04.000Z</time>
</trkpt>
<trkpt lat="45.9036790" lon="10.2925730">
	<ele>1388.40</ele>
	<time>2025-07-29T07:03:05.000Z</time>
</trkpt>
<trkpt lat="45.9036660" lon="10.2925600">
	<ele>1388.40</ele>
	<time>2025-07-29T07:03:06.000Z</time>
</trkpt>
<trkpt lat="45.9036720" lon="10.2925510">
	<ele>1388.40</ele>
	<time>2025-07-29T07:03:07.000Z</time>
</trkpt>
<trkpt lat="45.9036730" lon="10.2925460">
	<ele>1388.20</ele>
	<time>2025-07-29T07:03:08.000Z</time>
</trkpt>
<trkpt lat="45.9036770" lon="10.2925410">
	<ele>1388.20</ele>
	<time>2025-07-29T07:03:09.000Z</time>
</trkpt>
<trkpt lat="45.9036780" lon="10.2925330">
	<ele>1388.20</ele>
	<time>2025-07-29T07:03:10.000Z</time>
</trkpt>
<trkpt lat="45.9036770" lon="10.2925210">
	<ele>1388.40</ele>
	<time>2025-07-29T07:03:11.000Z</time>
</trkpt>
<trkpt lat="45.9036630" lon="10.2925090">
	<ele>1388.40</ele>
	<time>2025-07-29T07:03:12.000Z</time>
</trkpt>
<trkpt lat="45.9036500" lon="10.2925060">
	<ele>1388.40</ele>
	<time>2025-07-29T07:03:13.000Z</time>
</trkpt>
<trkpt lat="45.9036410" lon="10.2924930">
	<ele>1388.40</ele>
	<time>2025-07-29T07:03:14.000Z</time>
</trkpt>
<trkpt lat="45.9036330" lon="10.2924890">
	<ele>1388.60</ele>
	<time>2025-07-29T07:03:15.000Z</time>
</trkpt>
<trkpt lat="45.9036300" lon="10.2924810">
	<ele>1388.60</ele>
	<time>2025-07-29T07:03:16.000Z</time>
</trkpt>
<trkpt lat="45.9036220" lon="10.2924760">
	<ele>1388.60</ele>
	<time>2025-07-29T07:03:17.000Z</time>
</trkpt>
<trkpt lat="45.9036160" lon="10.2924750">
	<ele>1388.80</ele>
	<time>2025-07-29T07:03:18.000Z</time>
</trkpt>
<trkpt lat="45.9036130" lon="10.2924760">
	<ele>1388.80</ele>
	<time>2025-07-29T07:03:19.000Z</time>
</trkpt>
<trkpt lat="45.9036130" lon="10.2924720">
	<ele>1388.80</ele>
	<time>2025-07-29T07:03:20.000Z</time>
</trkpt>
<trkpt lat="45.9036100" lon="10.2924710">
	<ele>1388.80</ele>
	<time>2025-07-29T07:03:21.000Z</time>
</trkpt>
<trkpt lat="45.9036080" lon="10.2924660">
	<ele>1388.80</ele>
	<time>2025-07-29T07:03:22.000Z</time>
</trkpt>
<trkpt lat="45.9036040" lon="10.2924720">
	<ele>1388.80</ele>
	<time>2025-07-29T07:03:23.000Z</time>
</trkpt>
<trkpt lat="45.9035990" lon="10.2924830">
	<ele>1388.80</ele>
	<time>2025-07-29T07:03:24.000Z</time>
</trkpt>
<trkpt lat="45.9036060" lon="10.2924960">
	<ele>1388.80</ele>
	<time>2025-07-29T07:03:25.000Z</time>
</trkpt>
<trkpt lat="45.9036160" lon="10.2925090">
	<ele>1388.80</ele>
	<time>2025-07-29T07:03:26.000Z</time>
</trkpt>
<trkpt lat="45.9036290" lon="10.2925310">
	<ele>1388.80</ele>
	<time>2025-07-29T07:03:27.000Z</time>
</trkpt>
<trkpt lat="45.9036350" lon="10.2925340">
	<ele>1388.80</ele>
	<time>2025-07-29T07:03:28.000Z</time>
</trkpt>
<trkpt lat="45.9036410" lon="10.2925390">
	<ele>1388.80</ele>
	<time>2025-07-29T07:03:29.000Z</time>
</trkpt>
<trkpt lat="45.9036500" lon="10.2925530">
	<ele>1388.60</ele>
	<time>2025-07-29T07:03:30.000Z</time>
</trkpt>
<trkpt lat="45.9036610" lon="10.2925680">
	<ele>1388.60</ele>
	<time>2025-07-29T07:03:31.000Z</time>
</trkpt>
<trkpt lat="45.9036750" lon="10.2925880">
	<ele>1388.60</ele>
	<time>2025-07-29T07:03:32.000Z</time>
</trkpt>
<trkpt lat="45.9036790" lon="10.2925970">
	<ele>1388.60</ele>
	<time>2025-07-29T07:03:33.000Z</time>
</trkpt>
<trkpt lat="45.9036750" lon="10.2926050">
	<ele>1388.60</ele>
	<time>2025-07-29T07:03:34.000Z</time>
</trkpt>
<trkpt lat="45.9036720" lon="10.2926100">
	<ele>1388.40</ele>
	<time>2025-07-29T07:03:35.000Z</time>
</trkpt>
<trkpt lat="45.9036700" lon="10.2926160">
	<ele>1388.40</ele>
	<time>2025-07-29T07:03:36.000Z</time>
</trkpt>
<trkpt lat="45.9036700" lon="10.2926180">
	<ele>1388.60</ele>
	<time>2025-07-29T07:03:37.000Z</time>
</trkpt>
<trkpt lat="45.9036710" lon="10.2926220">
	<ele>1388.80</ele>
	<time>2025-07-29T07:03:38.000Z</time>
</trkpt>
<trkpt lat="45.9036700" lon="10.2926230">
	<ele>1388.80</ele>
	<time>2025-07-29T07:03:39.000Z</time>
</trkpt>
<trkpt lat="45.9036620" lon="10.2926120">
	<ele>1389.20</ele>
	<time>2025-07-29T07:03:40.000Z</time>
</trkpt>
<trkpt lat="45.9036420" lon="10.2926040">
	<ele>1389.40</ele>
	<time>2025-07-29T07:03:41.000Z</time>
</trkpt>
<trkpt lat="45.9036290" lon="10.2925960">
	<ele>1389.60</ele>
	<time>2025-07-29T07:03:42.000Z</time>
</trkpt>
<trkpt lat="45.9036250" lon="10.2925880">
	<ele>1389.80</ele>
	<time>2025-07-29T07:03:43.000Z</time>
</trkpt>
<trkpt lat="45.9036200" lon="10.2925850">
	<ele>1390.00</ele>
	<time>2025-07-29T07:03:44.000Z</time>
</trkpt>
<trkpt lat="45.9036320" lon="10.2926050">
	<ele>1390.00</ele>
	<time>2025-07-29T07:03:45.000Z</time>
</trkpt>
<trkpt lat="45.9036320" lon="10.2926080">
	<ele>1390.00</ele>
	<time>2025-07-29T07:03:46.000Z</time>
</trkpt>
<trkpt lat="45.9036190" lon="10.2926040">
	<ele>1390.20</ele>
	<time>2025-07-29T07:03:47.000Z</time>
</trkpt>
<trkpt lat="45.9036050" lon="10.2926000">
	<ele>1390.40</ele>
	<time>2025-07-29T07:03:48.000Z</time>
</trkpt>
<trkpt lat="45.9035940" lon="10.2925960">
	<ele>1390.40</ele>
	<time>2025-07-29T07:03:49.000Z</time>
</trkpt>
<trkpt lat="45.9035860" lon="10.2925910">
	<ele>1390.60</ele>
	<time>2025-07-29T07:03:50.000Z</time>
</trkpt>
<trkpt lat="45.9035830" lon="10.2925880">
	<ele>1390.60</ele>
	<time>2025-07-29T07:03:51.000Z</time>
</trkpt>
<trkpt lat="45.9035660" lon="10.2925830">
	<ele>1390.60</ele>
	<time>2025-07-29T07:03:52.000Z</time>
</trkpt>
<trkpt lat="45.9035570" lon="10.2925940">
	<ele>1391.00</ele>
	<time>2025-07-29T07:03:53.000Z</time>
</trkpt>
<trkpt lat="45.9035580" lon="10.2926010">
	<ele>1391.40</ele>
	<time>2025-07-29T07:03:54.000Z</time>
</trkpt>
<trkpt lat="45.9035480" lon="10.2926030">
	<ele>1391.60</ele>
	<time>2025-07-29T07:03:55.000Z</time>
</trkpt>
<trkpt lat="45.9035420" lon="10.2926030">
	<ele>1391.80</ele>
	<time>2025-07-29T07:03:56.000Z</time>
</trkpt>
<trkpt lat="45.9035390" lon="10.2926000">
	<ele>1392.00</ele>
	<time>2025-07-29T07:03:57.000Z</time>
</trkpt>
<trkpt lat="45.9035250" lon="10.2925940">
	<ele>1392.20</ele>
	<time>2025-07-29T07:03:58.000Z</time>
</trkpt>
<trkpt lat="45.9035140" lon="10.2925850">
	<ele>1392.40</ele>
	<time>2025-07-29T07:03:59.000Z</time>
</trkpt>
<trkpt lat="45.9035040" lon="10.2925770">
	<ele>1392.60</ele>
	<time>2025-07-29T07:04:00.000Z</time>
</trkpt>
<trkpt lat="45.9034970" lon="10.2925690">
	<ele>1392.80</ele>
	<time>2025-07-29T07:04:01.000Z</time>
</trkpt>
<trkpt lat="45.9034820" lon="10.2925670">
	<ele>1392.80</ele>
	<time>2025-07-29T07:04:02.000Z</time>
</trkpt>
<trkpt lat="45.9034780" lon="10.2925730">
	<ele>1392.80</ele>
	<time>2025-07-29T07:04:03.000Z</time>
</trkpt>
<trkpt lat="45.9034630" lon="10.2925790">
	<ele>1393.00</ele>
	<time>2025-07-29T07:04:04.000Z</time>
</trkpt>
<trkpt lat="45.9034450" lon="10.2925930">
	<ele>1393.00</ele>
	<time>2025-07-29T07:04:05.000Z</time>
</trkpt>
<trkpt lat="45.9034400" lon="10.2926040">
	<ele>1393.20</ele>
	<time>2025-07-29T07:04:06.000Z</time>
</trkpt>
<trkpt lat="45.9034300" lon="10.2926180">
	<ele>1393.20</ele>
	<time>2025-07-29T07:04:07.000Z</time>
</trkpt>
<trkpt lat="45.9034150" lon="10.2926280">
	<ele>1393.40</ele>
	<time>2025-07-29T07:04:08.000Z</time>
</trkpt>
<trkpt lat="45.9034030" lon="10.2926370">
	<ele>1393.60</ele>
	<time>2025-07-29T07:04:09.000Z</time>
</trkpt>
<trkpt lat="45.9033940" lon="10.2926330">
	<ele>1393.80</ele>
	<time>2025-07-29T07:04:10.000Z</time>
</trkpt>
<trkpt lat="45.9033900" lon="10.2926310">
	<ele>1394.00</ele>
	<time>2025-07-29T07:04:11.000Z</time>
</trkpt>
<trkpt lat="45.9033910" lon="10.2926290">
	<ele>1394.20</ele>
	<time>2025-07-29T07:04:12.000Z</time>
</trkpt>
<trkpt lat="45.9033900" lon="10.2926290">
	<ele>1394.60</ele>
	<time>2025-07-29T07:04:13.000Z</time>
</trkpt>
<trkpt lat="45.9033900" lon="10.2926210">
	<ele>1394.80</ele>
	<time>2025-07-29T07:04:14.000Z</time>
</trkpt>
<trkpt lat="45.9033940" lon="10.2926270">
	<ele>1395.00</ele>
	<time>2025-07-29T07:04:15.000Z</time>
</trkpt>
<trkpt lat="45.9033880" lon="10.2926340">
	<ele>1395.20</ele>
	<time>2025-07-29T07:04:16.000Z</time>
</trkpt>
<trkpt lat="45.9033750" lon="10.2926320">
	<ele>1395.60</ele>
	<time>2025-07-29T07:04:17.000Z</time>
</trkpt>
<trkpt lat="45.9033660" lon="10.2926330">
	<ele>1395.80</ele>
	<time>2025-07-29T07:04:18.000Z</time>
</trkpt>
<trkpt lat="45.9033480" lon="10.2926290">
	<ele>1396.00</ele>
	<time>2025-07-29T07:04:19.000Z</time>
</trkpt>
<trkpt lat="45.9033390" lon="10.2926300">
	<ele>1396.40</ele>
	<time>2025-07-29T07:04:20.000Z</time>
</trkpt>
<trkpt lat="45.9033270" lon="10.2926320">
	<ele>1396.40</ele>
	<time>2025-07-29T07:04:21.000Z</time>
</trkpt>
<trkpt lat="45.9033120" lon="10.2926290">
	<ele>1396.60</ele>
	<time>2025-07-29T07:04:22.000Z</time>
</trkpt>
<trkpt lat="45.9032950" lon="10.2926320">
	<ele>1396.60</ele>
	<time>2025-07-29T07:04:23.000Z</time>
</trkpt>
<trkpt lat="45.9032850" lon="10.2926350">
	<ele>1396.80</ele>
	<time>2025-07-29T07:04:24.000Z</time>
</trkpt>
<trkpt lat="45.9032830" lon="10.2926330">
	<ele>1397.20</ele>
	<time>2025-07-29T07:04:25.000Z</time>
</trkpt>
<trkpt lat="45.9032870" lon="10.2926300">
	<ele>1397.40</ele>
	<time>2025-07-29T07:04:26.000Z</time>
</trkpt>
<trkpt lat="45.9032930" lon="10.2926280">
	<ele>1397.60</ele>
	<time>2025-07-29T07:04:27.000Z</time>
</trkpt>
<trkpt lat="45.9032950" lon="10.2926220">
	<ele>1397.80</ele>
	<time>2025-07-29T07:04:28.000Z</time>
</trkpt>
<trkpt lat="45.9032860" lon="10.2926120">
	<ele>1398.00</ele>
	<time>2025-07-29T07:04:29.000Z</time>
</trkpt>
<trkpt lat="45.9032710" lon="10.2925960">
	<ele>1398.00</ele>
	<time>2025-07-29T07:04:30.000Z</time>
</trkpt>
<trkpt lat="45.9032570" lon="10.2925780">
	<ele>1398.00</ele>
	<time>2025-07-29T07:04:31.000Z</time>
</trkpt>
<trkpt lat="45.9032340" lon="10.2925680">
	<ele>1398.20</ele>
	<time>2025-07-29T07:04:32.000Z</time>
</trkpt>
<trkpt lat="45.9032210" lon="10.2925640">
	<ele>1398.40</ele>
	<time>2025-07-29T07:04:33.000Z</time>
</trkpt>
<trkpt lat="45.9032150" lon="10.2925600">
	<ele>1398.40</ele>
	<time>2025-07-29T07:04:34.000Z</time>
</trkpt>
<trkpt lat="45.9031820" lon="10.2925470">
	<ele>1398.60</ele>
	<time>2025-07-29T07:04:35.000Z</time>
</trkpt>
<trkpt lat="45.9031700" lon="10.2925380">
	<ele>1398.80</ele>
	<time>2025-07-29T07:04:36.000Z</time>
</trkpt>
<trkpt lat="45.9031590" lon="10.2925350">
	<ele>1399.00</ele>
	<time>2025-07-29T07:04:37.000Z</time>
</trkpt>
<trkpt lat="45.9031550" lon="10.2925360">
	<ele>1399.00</ele>
	<time>2025-07-29T07:04:38.000Z</time>
</trkpt>
<trkpt lat="45.9031450" lon="10.2925390">
	<ele>1399.40</ele>
	<time>2025-07-29T07:04:39.000Z</time>
</trkpt>
<trkpt lat="45.9031360" lon="10.2925430">
	<ele>1399.60</ele>
	<time>2025-07-29T07:04:40.000Z</time>
</trkpt>
<trkpt lat="45.9031360" lon="10.2925480">
	<ele>1399.80</ele>
	<time>2025-07-29T07:04:41.000Z</time>
</trkpt>
<trkpt lat="45.9031310" lon="10.2925440">
	<ele>1400.00</ele>
	<time>2025-07-29T07:04:42.000Z</time>
</trkpt>
<trkpt lat="45.9031310" lon="10.2925350">
	<ele>1400.20</ele>
	<time>2025-07-29T07:04:43.000Z</time>
</trkpt>
<trkpt lat="45.9031330" lon="10.2925290">
	<ele>1400.40</ele>
	<time>2025-07-29T07:04:44.000Z</time>
</trkpt>
<trkpt lat="45.9031310" lon="10.2925180">
	<ele>1400.40</ele>
	<time>2025-07-29T07:04:45.000Z</time>
</trkpt>
<trkpt lat="45.9031330" lon="10.2925120">
	<ele>1400.60</ele>
	<time>2025-07-29T07:04:46.000Z</time>
</trkpt>
<trkpt lat="45.9031400" lon="10.2925210">
	<ele>1401.00</ele>
	<time>2025-07-29T07:04:47.000Z</time>
</trkpt>
<trkpt lat="45.9031370" lon="10.2925200">
	<ele>1401.20</ele>
	<time>2025-07-29T07:04:48.000Z</time>
</trkpt>
<trkpt lat="45.9031330" lon="10.2925170">
	<ele>1401.20</ele>
	<time>2025-07-29T07:04:49.000Z</time>
</trkpt>
<trkpt lat="45.9031260" lon="10.2925090">
	<ele>1401.40</ele>
	<time>2025-07-29T07:04:50.000Z</time>
</trkpt>
<trkpt lat="45.9031160" lon="10.2925010">
	<ele>1401.40</ele>
	<time>2025-07-29T07:04:51.000Z</time>
</trkpt>
<trkpt lat="45.9031140" lon="10.2925020">
	<ele>1401.40</ele>
	<time>2025-07-29T07:04:52.000Z</time>
</trkpt>
<trkpt lat="45.9031060" lon="10.2924960">
	<ele>1401.80</ele>
	<time>2025-07-29T07:04:53.000Z</time>
</trkpt>
<trkpt lat="45.9031020" lon="10.2924930">
	<ele>1402.00</ele>
	<time>2025-07-29T07:04:54.000Z</time>
</trkpt>
<trkpt lat="45.9030960" lon="10.2924950">
	<ele>1402.20</ele>
	<time>2025-07-29T07:04:55.000Z</time>
</trkpt>
<trkpt lat="45.9030920" lon="10.2924920">
	<ele>1402.40</ele>
	<time>2025-07-29T07:04:56.000Z</time>
</trkpt>
<trkpt lat="45.9030870" lon="10.2924950">
	<ele>1402.60</ele>
	<time>2025-07-29T07:04:57.000Z</time>
</trkpt>
<trkpt lat="45.9030870" lon="10.2924990">
	<ele>1402.80</ele>
	<time>2025-07-29T07:04:58.000Z</time>
</trkpt>
<trkpt lat="45.9030840" lon="10.2925000">
	<ele>1403.00</ele>
	<time>2025-07-29T07:04:59.000Z</time>
</trkpt>
<trkpt lat="45.9030830" lon="10.2924990">
	<ele>1403.20</ele>
	<time>2025-07-29T07:05:00.000Z</time>
</trkpt>
<trkpt lat="45.9030810" lon="10.2924980">
	<ele>1403.40</ele>
	<time>2025-07-29T07:05:01.000Z</time>
</trkpt>
<trkpt lat="45.9030860" lon="10.2925060">
	<ele>1403.60</ele>
	<time>2025-07-29T07:05:02.000Z</time>
</trkpt>
<trkpt lat="45.9030880" lon="10.2925130">
	<ele>1404.00</ele>
	<time>2025-07-29T07:05:03.000Z</time>
</trkpt>
<trkpt lat="45.9030900" lon="10.2925140">
	<ele>1404.20</ele>
	<time>2025-07-29T07:05:04.000Z</time>
</trkpt>
<trkpt lat="45.9030790" lon="10.2925100">
	<ele>1404.40</ele>
	<time>2025-07-29T07:05:05.000Z</time>
</trkpt>
<trkpt lat="45.9030660" lon="10.2925100">
	<ele>1404.60</ele>
	<time>2025-07-29T07:05:06.000Z</time>
</trkpt>
<trkpt lat="45.9030500" lon="10.2925110">
	<ele>1404.80</ele>
	<time>2025-07-29T07:05:07.000Z</time>
</trkpt>
<trkpt lat="45.9030340" lon="10.2925080">
	<ele>1405.00</ele>
	<time>2025-07-29T07:05:08.000Z</time>
</trkpt>
<trkpt lat="45.9030240" lon="10.2925040">
	<ele>1405.20</ele>
	<time>2025-07-29T07:05:09.000Z</time>
</trkpt>
<trkpt lat="45.9030180" lon="10.2924940">
	<ele>1405.60</ele>
	<time>2025-07-29T07:05:10.000Z</time>
</trkpt>
<trkpt lat="45.9030150" lon="10.2924830">
	<ele>1405.80</ele>
	<time>2025-07-29T07:05:11.000Z</time>
</trkpt>
<trkpt lat="45.9030050" lon="10.2924770">
	<ele>1406.00</ele>
	<time>2025-07-29T07:05:12.000Z</time>
</trkpt>
<trkpt lat="45.9029880" lon="10.2924750">
	<ele>1406.20</ele>
	<time>2025-07-29T07:05:13.000Z</time>
</trkpt>
<trkpt lat="45.9029750" lon="10.2924720">
	<ele>1406.40</ele>
	<time>2025-07-29T07:05:14.000Z</time>
</trkpt>
<trkpt lat="45.9029690" lon="10.2924670">
	<ele>1406.80</ele>
	<time>2025-07-29T07:05:15.000Z</time>
</trkpt>
<trkpt lat="45.9029550" lon="10.2924540">
	<ele>1407.00</ele>
	<time>2025-07-29T07:05:16.000Z</time>
</trkpt>
<trkpt lat="45.9029440" lon="10.2924500">
	<ele>1407.20</ele>
	<time>2025-07-29T07:05:17.000Z</time>
</trkpt>
<trkpt lat="45.9029420" lon="10.2924440">
	<ele>1407.60</ele>
	<time>2025-07-29T07:05:18.000Z</time>
</trkpt>
<trkpt lat="45.9029400" lon="10.2924380">
	<ele>1407.80</ele>
	<time>2025-07-29T07:05:19.000Z</time>
</trkpt>
<trkpt lat="45.9029380" lon="10.2924360">
	<ele>1408.00</ele>
	<time>2025-07-29T07:05:20.000Z</time>
</trkpt>
<trkpt lat="45.9029350" lon="10.2924360">
	<ele>1408.40</ele>
	<time>2025-07-29T07:05:21.000Z</time>
</trkpt>
<trkpt lat="45.9029330" lon="10.2924410">
	<ele>1408.60</ele>
	<time>2025-07-29T07:05:22.000Z</time>
</trkpt>
<trkpt lat="45.9029260" lon="10.2924410">
	<ele>1408.80</ele>
	<time>2025-07-29T07:05:23.000Z</time>
</trkpt>
<trkpt lat="45.9029200" lon="10.2924460">
	<ele>1409.00</ele>
	<time>2025-07-29T07:05:24.000Z</time>
</trkpt>
<trkpt lat="45.9029060" lon="10.2924400">
	<ele>1409.20</ele>
	<time>2025-07-29T07:05:25.000Z</time>
</trkpt>
<trkpt lat="45.9028990" lon="10.2924400">
	<ele>1409.20</ele>
	<time>2025-07-29T07:05:26.000Z</time>
</trkpt>
<trkpt lat="45.9028840" lon="10.2924330">
	<ele>1409.60</ele>
	<time>2025-07-29T07:05:27.000Z</time>
</trkpt>
<trkpt lat="45.9028830" lon="10.2924270">
	<ele>1409.80</ele>
	<time>2025-07-29T07:05:28.000Z</time>
</trkpt>
<trkpt lat="45.9028710" lon="10.2924220">
	<ele>1410.00</ele>
	<time>2025-07-29T07:05:29.000Z</time>
</trkpt>
<trkpt lat="45.9028600" lon="10.2924180">
	<ele>1410.20</ele>
	<time>2025-07-29T07:05:30.000Z</time>
</trkpt>
<trkpt lat="45.9028490" lon="10.2924150">
	<ele>1410.40</ele>
	<time>2025-07-29T07:05:31.000Z</time>
</trkpt>
<trkpt lat="45.9028330" lon="10.2924170">
	<ele>1410.60</ele>
	<time>2025-07-29T07:05:32.000Z</time>
</trkpt>
<trkpt lat="45.9028060" lon="10.2924080">
	<ele>1410.60</ele>
	<time>2025-07-29T07:05:33.000Z</time>
</trkpt>
<trkpt lat="45.9027880" lon="10.2924020">
	<ele>1411.00</ele>
	<time>2025-07-29T07:05:34.000Z</time>
</trkpt>
<trkpt lat="45.9027800" lon="10.2924030">
	<ele>1411.20</ele>
	<time>2025-07-29T07:05:35.000Z</time>
</trkpt>
<trkpt lat="45.9027760" lon="10.2924020">
	<ele>1411.40</ele>
	<time>2025-07-29T07:05:36.000Z</time>
</trkpt>
<trkpt lat="45.9027650" lon="10.2923960">
	<ele>1411.60</ele>
	<time>2025-07-29T07:05:37.000Z</time>
</trkpt>
<trkpt lat="45.9027610" lon="10.2923910">
	<ele>1411.80</ele>
	<time>2025-07-29T07:05:38.000Z</time>
</trkpt>
<trkpt lat="45.9027550" lon="10.2923880">
	<ele>1412.00</ele>
	<time>2025-07-29T07:05:39.000Z</time>
</trkpt>
<trkpt lat="45.9027510" lon="10.2923870">
	<ele>1412.20</ele>
	<time>2025-07-29T07:05:40.000Z</time>
</trkpt>
<trkpt lat="45.9027570" lon="10.2923870">
	<ele>1412.20</ele>
	<time>2025-07-29T07:05:41.000Z</time>
</trkpt>
<trkpt lat="45.9027600" lon="10.2923960">
	<ele>1412.40</ele>
	<time>2025-07-29T07:05:42.000Z</time>
</trkpt>
<trkpt lat="45.9027520" lon="10.2924000">
	<ele>1412.80</ele>
	<time>2025-07-29T07:05:43.000Z</time>
</trkpt>
<trkpt lat="45.9027380" lon="10.2924040">
	<ele>1412.80</ele>
	<time>2025-07-29T07:05:44.000Z</time>
</trkpt>
<trkpt lat="45.9027260" lon="10.2924110">
	<ele>1413.00</ele>
	<time>2025-07-29T07:05:45.000Z</time>
</trkpt>
<trkpt lat="45.9027180" lon="10.2924160">
	<ele>1413.20</ele>
	<time>2025-07-29T07:05:46.000Z</time>
</trkpt>
<trkpt lat="45.9027220" lon="10.2924130">
	<ele>1413.20</ele>
	<time>2025-07-29T07:05:47.000Z</time>
</trkpt>
<trkpt lat="45.9027190" lon="10.2924090">
	<ele>1413.40</ele>
	<time>2025-07-29T07:05:48.000Z</time>
</trkpt>
<trkpt lat="45.9027070" lon="10.2924020">
	<ele>1413.80</ele>
	<time>2025-07-29T07:05:49.000Z</time>
</trkpt>
<trkpt lat="45.9027000" lon="10.2923980">
	<ele>1414.00</ele>
	<time>2025-07-29T07:05:50.000Z</time>
</trkpt>
<trkpt lat="45.9026880" lon="10.2923890">
	<ele>1414.20</ele>
	<time>2025-07-29T07:05:51.000Z</time>
</trkpt>
<trkpt lat="45.9026860" lon="10.2923870">
	<ele>1414.40</ele>
	<time>2025-07-29T07:05:52.000Z</time>
</trkpt>
<trkpt lat="45.9026850" lon="10.2923850">
	<ele>1414.40</ele>
	<time>2025-07-29T07:05:53.000Z</time>
</trkpt>
<trkpt lat="45.9026950" lon="10.2923840">
	<ele>1414.60</ele>
	<time>2025-07-29T07:05:54.000Z</time>
</trkpt>
<trkpt lat="45.9027020" lon="10.2923730">
	<ele>1414.80</ele>
	<time>2025-07-29T07:05:55.000Z</time>
</trkpt>
<trkpt lat="45.9027000" lon="10.2923600">
	<ele>1415.00</ele>
	<time>2025-07-29T07:05:56.000Z</time>
</trkpt>
<trkpt lat="45.9027070" lon="10.2923570">
	<ele>1415.20</ele>
	<time>2025-07-29T07:05:57.000Z</time>
</trkpt>
<trkpt lat="45.9026950" lon="10.2923540">
	<ele>1415.40</ele>
	<time>2025-07-29T07:05:58.000Z</time>
</trkpt>
<trkpt lat="45.9026860" lon="10.2923500">
	<ele>1415.60</ele>
	<time>2025-07-29T07:05:59.000Z</time>
</trkpt>
<trkpt lat="45.9026800" lon="10.2923420">
	<ele>1415.60</ele>
	<time>2025-07-29T07:06:00.000Z</time>
</trkpt>
<trkpt lat="45.9026760" lon="10.2923430">
	<ele>1415.80</ele>
	<time>2025-07-29T07:06:01.000Z</time>
</trkpt>
<trkpt lat="45.9026810" lon="10.2923380">
	<ele>1416.00</ele>
	<time>2025-07-29T07:06:02.000Z</time>
</trkpt>
<trkpt lat="45.9026780" lon="10.2923420">
	<ele>1416.00</ele>
	<time>2025-07-29T07:06:03.000Z</time>
</trkpt>
<trkpt lat="45.9026800" lon="10.2923400">
	<ele>1416.00</ele>
	<time>2025-07-29T07:06:04.000Z</time>
</trkpt>
<trkpt lat="45.9026840" lon="10.2923380">
	<ele>1416.00</ele>
	<time>2025-07-29T07:06:05.000Z</time>
</trkpt>
<trkpt lat="45.9026950" lon="10.2923370">
	<ele>1416.00</ele>
	<time>2025-07-29T07:06:06.000Z</time>
</trkpt>
<trkpt lat="45.9026950" lon="10.2923360">
	<ele>1416.20</ele>
	<time>2025-07-29T07:06:07.000Z</time>
</trkpt>
<trkpt lat="45.9026850" lon="10.2923330">
	<ele>1416.20</ele>
	<time>2025-07-29T07:06:08.000Z</time>
</trkpt>
<trkpt lat="45.9026730" lon="10.2923320">
	<ele>1416.20</ele>
	<time>2025-07-29T07:06:09.000Z</time>
</trkpt>
<trkpt lat="45.9026660" lon="10.2923280">
	<ele>1416.20</ele>
	<time>2025-07-29T07:06:10.000Z</time>
</trkpt>
<trkpt lat="45.9026630" lon="10.2923220">
	<ele>1416.40</ele>
	<time>2025-07-29T07:06:11.000Z</time>
</trkpt>
<trkpt lat="45.9026600" lon="10.2923180">
	<ele>1416.60</ele>
	<time>2025-07-29T07:06:12.000Z</time>
</trkpt>
<trkpt lat="45.9026630" lon="10.2923190">
	<ele>1417.00</ele>
	<time>2025-07-29T07:06:13.000Z</time>
</trkpt>
<trkpt lat="45.9026680" lon="10.2923130">
	<ele>1417.20</ele>
	<time>2025-07-29T07:06:14.000Z</time>
</trkpt>
<trkpt lat="45.9026660" lon="10.2923090">
	<ele>1417.40</ele>
	<time>2025-07-29T07:06:15.000Z</time>
</trkpt>
<trkpt lat="45.9026680" lon="10.2923100">
	<ele>1417.60</ele>
	<time>2025-07-29T07:06:16.000Z</time>
</trkpt>
<trkpt lat="45.9026880" lon="10.2923150">
	<ele>1417.80</ele>
	<time>2025-07-29T07:06:17.000Z</time>
</trkpt>
<trkpt lat="45.9026880" lon="10.2923110">
	<ele>1418.00</ele>
	<time>2025-07-29T07:06:18.000Z</time>
</trkpt>
<trkpt lat="45.9027000" lon="10.2923160">
	<ele>1418.00</ele>
	<time>2025-07-29T07:06:19.000Z</time>
</trkpt>
<trkpt lat="45.9027040" lon="10.2923150">
	<ele>1418.20</ele>
	<time>2025-07-29T07:06:20.000Z</time>
</trkpt>
<trkpt lat="45.9027080" lon="10.2923170">
	<ele>1418.40</ele>
	<time>2025-07-29T07:06:21.000Z</time>
</trkpt>
<trkpt lat="45.9027150" lon="10.2923200">
	<ele>1418.60</ele>
	<time>2025-07-29T07:06:22.000Z</time>
</trkpt>
<trkpt lat="45.9027020" lon="10.2923180">
	<ele>1418.80</ele>
	<time>2025-07-29T07:06:23.000Z</time>
</trkpt>
<trkpt lat="45.9027040" lon="10.2922980">
	<ele>1418.80</ele>
	<time>2025-07-29T07:06:24.000Z</time>
</trkpt>
<trkpt lat="45.9027010" lon="10.2923020">
	<ele>1419.00</ele>
	<time>2025-07-29T07:06:25.000Z</time>
</trkpt>
<trkpt lat="45.9026980" lon="10.2922990">
	<ele>1419.20</ele>
	<time>2025-07-29T07:06:26.000Z</time>
</trkpt>
<trkpt lat="45.9026990" lon="10.2923050">
	<ele>1419.60</ele>
	<time>2025-07-29T07:06:27.000Z</time>
</trkpt>
<trkpt lat="45.9026990" lon="10.2922990">
	<ele>1419.80</ele>
	<time>2025-07-29T07:06:28.000Z</time>
</trkpt>
<trkpt lat="45.9027010" lon="10.2922950">
	<ele>1420.00</ele>
	<time>2025-07-29T07:06:29.000Z</time>
</trkpt>
<trkpt lat="45.9027070" lon="10.2922870">
	<ele>1420.20</ele>
	<time>2025-07-29T07:06:30.000Z</time>
</trkpt>
<trkpt lat="45.9027180" lon="10.2922760">
	<ele>1420.40</ele>
	<time>2025-07-29T07:06:31.000Z</time>
</trkpt>
<trkpt lat="45.9027340" lon="10.2922650">
	<ele>1420.60</ele>
	<time>2025-07-29T07:06:32.000Z</time>
</trkpt>
<trkpt lat="45.9027360" lon="10.2922670">
	<ele>1420.60</ele>
	<time>2025-07-29T07:06:33.000Z</time>
</trkpt>
<trkpt lat="45.9027520" lon="10.2922570">
	<ele>1420.80</ele>
	<time>2025-07-29T07:06:34.000Z</time>
</trkpt>
<trkpt lat="45.9027490" lon="10.2922560">
	<ele>1421.20</ele>
	<time>2025-07-29T07:06:35.000Z</time>
</trkpt>
<trkpt lat="45.9027560" lon="10.2922560">
	<ele>1421.40</ele>
	<time>2025-07-29T07:06:36.000Z</time>
</trkpt>
<trkpt lat="45.9027480" lon="10.2922430">
	<ele>1421.80</ele>
	<time>2025-07-29T07:06:37.000Z</time>
</trkpt>
<trkpt lat="45.9027540" lon="10.2922320">
	<ele>1422.00</ele>
	<time>2025-07-29T07:06:38.000Z</time>
</trkpt>
<trkpt lat="45.9027480" lon="10.2922210">
	<ele>1422.20</ele>
	<time>2025-07-29T07:06:39.000Z</time>
</trkpt>
<trkpt lat="45.9027480" lon="10.2922110">
	<ele>1422.20</ele>
	<time>2025-07-29T07:06:40.000Z</time>
</trkpt>
<trkpt lat="45.9027520" lon="10.2921910">
	<ele>1422.40</ele>
	<time>2025-07-29T07:06:41.000Z</time>
</trkpt>
<trkpt lat="45.9027580" lon="10.2921850">
	<ele>1422.60</ele>
	<time>2025-07-29T07:06:42.000Z</time>
</trkpt>
<trkpt lat="45.9027690" lon="10.2921840">
	<ele>1422.80</ele>
	<time>2025-07-29T07:06:43.000Z</time>
</trkpt>
<trkpt lat="45.9027790" lon="10.2921890">
	<ele>1423.00</ele>
	<time>2025-07-29T07:06:44.000Z</time>
</trkpt>
<trkpt lat="45.9027820" lon="10.2921860">
	<ele>1423.20</ele>
	<time>2025-07-29T07:06:45.000Z</time>
</trkpt>
<trkpt lat="45.9027850" lon="10.2921870">
	<ele>1423.40</ele>
	<time>2025-07-29T07:06:46.000Z</time>
</trkpt>
<trkpt lat="45.9027910" lon="10.2921710">
	<ele>1423.60</ele>
	<time>2025-07-29T07:06:47.000Z</time>
</trkpt>
<trkpt lat="45.9028040" lon="10.2921530">
	<ele>1423.60</ele>
	<time>2025-07-29T07:06:48.000Z</time>
</trkpt>
<trkpt lat="45.9028120" lon="10.2921340">
	<ele>1423.80</ele>
	<time>2025-07-29T07:06:49.000Z</time>
</trkpt>
<trkpt lat="45.9027930" lon="10.2921180">
	<ele>1424.00</ele>
	<time>2025-07-29T07:06:50.000Z</time>
</trkpt>
<trkpt lat="45.9027660" lon="10.2921140">
	<ele>1424.20</ele>
	<time>2025-07-29T07:06:51.000Z</time>
</trkpt>
<trkpt lat="45.9027720" lon="10.2921190">
	<ele>1424.40</ele>
	<time>2025-07-29T07:06:52.000Z</time>
</trkpt>
<trkpt lat="45.9027680" lon="10.2921060">
	<ele>1424.40</ele>
	<time>2025-07-29T07:06:53.000Z</time>
</trkpt>
<trkpt lat="45.9027410" lon="10.2920950">
	<ele>1424.80</ele>
	<time>2025-07-29T07:06:54.000Z</time>
</trkpt>
<trkpt lat="45.9027360" lon="10.2920940">
	<ele>1425.00</ele>
	<time>2025-07-29T07:06:55.000Z</time>
</trkpt>
<trkpt lat="45.9027390" lon="10.2920880">
	<ele>1425.00</ele>
	<time>2025-07-29T07:06:56.000Z</time>
</trkpt>
<trkpt lat="45.9027350" lon="10.2920850">
	<ele>1425.20</ele>
	<time>2025-07-29T07:06:57.000Z</time>
</trkpt>
<trkpt lat="45.9027370" lon="10.2920800">
	<ele>1425.40</ele>
	<time>2025-07-29T07:06:58.000Z</time>
</trkpt>
<trkpt lat="45.9027440" lon="10.2920740">
	<ele>1425.60</ele>
	<time>2025-07-29T07:06:59.000Z</time>
</trkpt>
<trkpt lat="45.9027450" lon="10.2920660">
	<ele>1425.80</ele>
	<time>2025-07-29T07:07:00.000Z</time>
</trkpt>
<trkpt lat="45.9027420" lon="10.2920530">
	<ele>1426.00</ele>
	<time>2025-07-29T07:07:01.000Z</time>
</trkpt>
<trkpt lat="45.9027360" lon="10.2920430">
	<ele>1426.20</ele>
	<time>2025-07-29T07:07:02.000Z</time>
</trkpt>
<trkpt lat="45.9027300" lon="10.2920330">
	<ele>1426.40</ele>
	<time>2025-07-29T07:07:03.000Z</time>
</trkpt>
<trkpt lat="45.9027290" lon="10.2920240">
	<ele>1426.60</ele>
	<time>2025-07-29T07:07:04.000Z</time>
</trkpt>
<trkpt lat="45.9027260" lon="10.2920150">
	<ele>1426.60</ele>
	<time>2025-07-29T07:07:05.000Z</time>
</trkpt>
<trkpt lat="45.9027180" lon="10.2919990">
	<ele>1426.80</ele>
	<time>2025-07-29T07:07:06.000Z</time>
</trkpt>
<trkpt lat="45.9027200" lon="10.2919940">
	<ele>1427.00</ele>
	<time>2025-07-29T07:07:07.000Z</time>
</trkpt>
<trkpt lat="45.9027210" lon="10.2919910">
	<ele>1427.20</ele>
	<time>2025-07-29T07:07:08.000Z</time>
</trkpt>
<trkpt lat="45.9027250" lon="10.2919900">
	<ele>1427.40</ele>
	<time>2025-07-29T07:07:09.000Z</time>
</trkpt>
<trkpt lat="45.9027270" lon="10.2919860">
	<ele>1427.60</ele>
	<time>2025-07-29T07:07:10.000Z</time>
</trkpt>
<trkpt lat="45.9027280" lon="10.2919810">
	<ele>1427.60</ele>
	<time>2025-07-29T07:07:11.000Z</time>
</trkpt>
<trkpt lat="45.9027270" lon="10.2919760">
	<ele>1427.80</ele>
	<time>2025-07-29T07:07:12.000Z</time>
</trkpt>
<trkpt lat="45.9027270" lon="10.2919710">
	<ele>1428.00</ele>
	<time>2025-07-29T07:07:13.000Z</time>
</trkpt>
<trkpt lat="45.9027240" lon="10.2919560">
	<ele>1428.00</ele>
	<time>2025-07-29T07:07:14.000Z</time>
</trkpt>
<trkpt lat="45.9027150" lon="10.2919350">
	<ele>1428.40</ele>
	<time>2025-07-29T07:07:15.000Z</time>
</trkpt>
<trkpt lat="45.9027150" lon="10.2919290">
	<ele>1428.60</ele>
	<time>2025-07-29T07:07:16.000Z</time>
</trkpt>
<trkpt lat="45.9027160" lon="10.2919250">
	<ele>1428.60</ele>
	<time>2025-07-29T07:07:17.000Z</time>
</trkpt>
<trkpt lat="45.9027090" lon="10.2919070">
	<ele>1428.80</ele>
	<time>2025-07-29T07:07:18.000Z</time>
</trkpt>
<trkpt lat="45.9026910" lon="10.2918920">
	<ele>1429.00</ele>
	<time>2025-07-29T07:07:19.000Z</time>
</trkpt>
<trkpt lat="45.9026860" lon="10.2918880">
	<ele>1429.00</ele>
	<time>2025-07-29T07:07:20.000Z</time>
</trkpt>
<trkpt lat="45.9026740" lon="10.2918840">
	<ele>1429.00</ele>
	<time>2025-07-29T07:07:21.000Z</time>
</trkpt>
<trkpt lat="45.9026560" lon="10.2918810">
	<ele>1429.20</ele>
	<time>2025-07-29T07:07:22.000Z</time>
</trkpt>
<trkpt lat="45.9026510" lon="10.2918840">
	<ele>1429.20</ele>
	<time>2025-07-29T07:07:23.000Z</time>
</trkpt>
<trkpt lat="45.9026480" lon="10.2918830">
	<ele>1429.40</ele>
	<time>2025-07-29T07:07:24.000Z</time>
</trkpt>
<trkpt lat="45.9026430" lon="10.2918780">
	<ele>1429.40</ele>
	<time>2025-07-29T07:07:25.000Z</time>
</trkpt>
<trkpt lat="45.9026310" lon="10.2918680">
	<ele>1429.60</ele>
	<time>2025-07-29T07:07:26.000Z</time>
</trkpt>
<trkpt lat="45.9026160" lon="10.2918630">
	<ele>1429.80</ele>
	<time>2025-07-29T07:07:27.000Z</time>
</trkpt>
<trkpt lat="45.9025970" lon="10.2918530">
	<ele>1430.00</ele>
	<time>2025-07-29T07:07:28.000Z</time>
</trkpt>
<trkpt lat="45.9025800" lon="10.2918470">
	<ele>1430.00</ele>
	<time>2025-07-29T07:07:29.000Z</time>
</trkpt>
<trkpt lat="45.9025660" lon="10.2918460">
	<ele>1430.20</ele>
	<time>2025-07-29T07:07:30.000Z</time>
</trkpt>
<trkpt lat="45.9025540" lon="10.2918430">
	<ele>1430.40</ele>
	<time>2025-07-29T07:07:31.000Z</time>
</trkpt>
<trkpt lat="45.9025470" lon="10.2918400">
	<ele>1430.40</ele>
	<time>2025-07-29T07:07:32.000Z</time>
</trkpt>
<trkpt lat="45.9025410" lon="10.2918350">
	<ele>1430.60</ele>
	<time>2025-07-29T07:07:33.000Z</time>
</trkpt>
<trkpt lat="45.9025380" lon="10.2918340">
	<ele>1430.80</ele>
	<time>2025-07-29T07:07:34.000Z</time>
</trkpt>
<trkpt lat="45.9025320" lon="10.2918330">
	<ele>1431.00</ele>
	<time>2025-07-29T07:07:35.000Z</time>
</trkpt>
<trkpt lat="45.9025220" lon="10.2918370">
	<ele>1431.20</ele>
	<time>2025-07-29T07:07:36.000Z</time>
</trkpt>
<trkpt lat="45.9025030" lon="10.2918360">
	<ele>1431.40</ele>
	<time>2025-07-29T07:07:37.000Z</time>
</trkpt>
<trkpt lat="45.9024990" lon="10.2918360">
	<ele>1431.60</ele>
	<time>2025-07-29T07:07:38.000Z</time>
</trkpt>
<trkpt lat="45.9024950" lon="10.2918320">
	<ele>1431.60</ele>
	<time>2025-07-29T07:07:39.000Z</time>
</trkpt>
<trkpt lat="45.9024920" lon="10.2918200">
	<ele>1431.80</ele>
	<time>2025-07-29T07:07:40.000Z</time>
</trkpt>
<trkpt lat="45.9024770" lon="10.2918090">
	<ele>1432.00</ele>
	<time>2025-07-29T07:07:41.000Z</time>
</trkpt>
<trkpt lat="45.9024850" lon="10.2918110">
	<ele>1432.40</ele>
	<time>2025-07-29T07:07:42.000Z</time>
</trkpt>
<trkpt lat="45.9024670" lon="10.2918100">
	<ele>1432.60</ele>
	<time>2025-07-29T07:07:43.000Z</time>
</trkpt>
<trkpt lat="45.9024510" lon="10.2918100">
	<ele>1432.80</ele>
	<time>2025-07-29T07:07:44.000Z</time>
</trkpt>
<trkpt lat="45.9024430" lon="10.2918110">
	<ele>1433.00</ele>
	<time>2025-07-29T07:07:45.000Z</time>
</trkpt>
<trkpt lat="45.9024330" lon="10.2918090">
	<ele>1433.20</ele>
	<time>2025-07-29T07:07:46.000Z</time>
</trkpt>
<trkpt lat="45.9024240" lon="10.2918080">
	<ele>1433.40</ele>
	<time>2025-07-29T07:07:47.000Z</time>
</trkpt>
<trkpt lat="45.9024280" lon="10.2918080">
	<ele>1433.80</ele>
	<time>2025-07-29T07:07:48.000Z</time>
</trkpt>
<trkpt lat="45.9024260" lon="10.2918100">
	<ele>1434.00</ele>
	<time>2025-07-29T07:07:49.000Z</time>
</trkpt>
<trkpt lat="45.9024190" lon="10.2918070">
	<ele>1434.20</ele>
	<time>2025-07-29T07:07:50.000Z</time>
</trkpt>
<trkpt lat="45.9024060" lon="10.2917980">
	<ele>1434.40</ele>
	<time>2025-07-29T07:07:51.000Z</time>
</trkpt>
<trkpt lat="45.9023990" lon="10.2917930">
	<ele>1434.60</ele>
	<time>2025-07-29T07:07:52.000Z</time>
</trkpt>
<trkpt lat="45.9023910" lon="10.2917870">
	<ele>1434.80</ele>
	<time>2025-07-29T07:07:53.000Z</time>
</trkpt>
<trkpt lat="45.9023850" lon="10.2917770">
	<ele>1434.80</ele>
	<time>2025-07-29T07:07:54.000Z</time>
</trkpt>
<trkpt lat="45.9023800" lon="10.2917720">
	<ele>1434.80</ele>
	<time>2025-07-29T07:07:55.000Z</time>
</trkpt>
<trkpt lat="45.9023780" lon="10.2917640">
	<ele>1435.20</ele>
	<time>2025-07-29T07:07:56.000Z</time>
</trkpt>
<trkpt lat="45.9023730" lon="10.2917500">
	<ele>1435.40</ele>
	<time>2025-07-29T07:07:57.000Z</time>
</trkpt>
<trkpt lat="45.9023670" lon="10.2917360">
	<ele>1435.60</ele>
	<time>2025-07-29T07:07:58.000Z</time>
</trkpt>
<trkpt lat="45.9023640" lon="10.2917330">
	<ele>1435.80</ele>
	<time>2025-07-29T07:07:59.000Z</time>
</trkpt>
<trkpt lat="45.9023500" lon="10.2917250">
	<ele>1436.00</ele>
	<time>2025-07-29T07:08:00.000Z</time>
</trkpt>
<trkpt lat="45.9023340" lon="10.2917230">
	<ele>1436.20</ele>
	<time>2025-07-29T07:08:01.000Z</time>
</trkpt>
<trkpt lat="45.9023220" lon="10.2917220">
	<ele>1436.40</ele>
	<time>2025-07-29T07:08:02.000Z</time>
</trkpt>
<trkpt lat="45.9023130" lon="10.2917160">
	<ele>1436.60</ele>
	<time>2025-07-29T07:08:03.000Z</time>
</trkpt>
<trkpt lat="45.9023100" lon="10.2917090">
	<ele>1436.80</ele>
	<time>2025-07-29T07:08:04.000Z</time>
</trkpt>
<trkpt lat="45.9023040" lon="10.2917070">
	<ele>1437.00</ele>
	<time>2025-07-29T07:08:05.000Z</time>
</trkpt>
<trkpt lat="45.9022970" lon="10.2917080">
	<ele>1437.20</ele>
	<time>2025-07-29T07:08:06.000Z</time>
</trkpt>
<trkpt lat="45.9022870" lon="10.2917000">
	<ele>1437.20</ele>
	<time>2025-07-29T07:08:07.000Z</time>
</trkpt>
<trkpt lat="45.9022770" lon="10.2916950">
	<ele>1437.60</ele>
	<time>2025-07-29T07:08:08.000Z</time>
</trkpt>
<trkpt lat="45.9022670" lon="10.2916930">
	<ele>1437.80</ele>
	<time>2025-07-29T07:08:09.000Z</time>
</trkpt>
<trkpt lat="45.9022580" lon="10.2916900">
	<ele>1438.00</ele>
	<time>2025-07-29T07:08:10.000Z</time>
</trkpt>
<trkpt lat="45.9022530" lon="10.2916880">
	<ele>1438.20</ele>
	<time>2025-07-29T07:08:11.000Z</time>
</trkpt>
<trkpt lat="45.9022500" lon="10.2916860">
	<ele>1438.40</ele>
	<time>2025-07-29T07:08:12.000Z</time>
</trkpt>
<trkpt lat="45.9022500" lon="10.2916830">
	<ele>1438.60</ele>
	<time>2025-07-29T07:08:13.000Z</time>
</trkpt>
<trkpt lat="45.9022490" lon="10.2916870">
	<ele>1438.80</ele>
	<time>2025-07-29T07:08:14.000Z</time>
</trkpt>
<trkpt lat="45.9022380" lon="10.2916900">
	<ele>1439.00</ele>
	<time>2025-07-29T07:08:15.000Z</time>
</trkpt>
<trkpt lat="45.9022310" lon="10.2916870">
	<ele>1439.20</ele>
	<time>2025-07-29T07:08:16.000Z</time>
</trkpt>
<trkpt lat="45.9022320" lon="10.2916920">
	<ele>1439.40</ele>
	<time>2025-07-29T07:08:17.000Z</time>
</trkpt>
<trkpt lat="45.9022240" lon="10.2916970">
	<ele>1439.60</ele>
	<time>2025-07-29T07:08:18.000Z</time>
</trkpt>
<trkpt lat="45.9022120" lon="10.2916980">
	<ele>1439.80</ele>
	<time>2025-07-29T07:08:19.000Z</time>
</trkpt>
<trkpt lat="45.9022040" lon="10.2916940">
	<ele>1440.00</ele>
	<time>2025-07-29T07:08:20.000Z</time>
</trkpt>
<trkpt lat="45.9021940" lon="10.2916920">
	<ele>1440.00</ele>
	<time>2025-07-29T07:08:21.000Z</time>
</trkpt>
<trkpt lat="45.9021990" lon="10.2916930">
	<ele>1440.20</ele>
	<time>2025-07-29T07:08:22.000Z</time>
</trkpt>
<trkpt lat="45.9022010" lon="10.2916950">
	<ele>1440.40</ele>
	<time>2025-07-29T07:08:23.000Z</time>
</trkpt>
<trkpt lat="45.9021990" lon="10.2916950">
	<ele>1440.60</ele>
	<time>2025-07-29T07:08:24.000Z</time>
</trkpt>
<trkpt lat="45.9022020" lon="10.2916970">
	<ele>1441.00</ele>
	<time>2025-07-29T07:08:25.000Z</time>
</trkpt>
<trkpt lat="45.9021910" lon="10.2916970">
	<ele>1441.20</ele>
	<time>2025-07-29T07:08:26.000Z</time>
</trkpt>
<trkpt lat="45.9021800" lon="10.2916930">
	<ele>1441.60</ele>
	<time>2025-07-29T07:08:27.000Z</time>
</trkpt>
<trkpt lat="45.9021610" lon="10.2916900">
	<ele>1442.00</ele>
	<time>2025-07-29T07:08:28.000Z</time>
</trkpt>
<trkpt lat="45.9021370" lon="10.2916860">
	<ele>1442.20</ele>
	<time>2025-07-29T07:08:29.000Z</time>
</trkpt>
<trkpt lat="45.9021150" lon="10.2916870">
	<ele>1442.40</ele>
	<time>2025-07-29T07:08:30.000Z</time>
</trkpt>
<trkpt lat="45.9021020" lon="10.2916870">
	<ele>1442.40</ele>
	<time>2025-07-29T07:08:31.000Z</time>
</trkpt>
<trkpt lat="45.9020960" lon="10.2916870">
	<ele>1442.40</ele>
	<time>2025-07-29T07:08:32.000Z</time>
</trkpt>
<trkpt lat="45.9020800" lon="10.2916820">
	<ele>1442.60</ele>
	<time>2025-07-29T07:08:33.000Z</time>
</trkpt>
<trkpt lat="45.9020770" lon="10.2916750">
	<ele>1442.80</ele>
	<time>2025-07-29T07:08:34.000Z</time>
</trkpt>
<trkpt lat="45.9020720" lon="10.2916680">
	<ele>1442.80</ele>
	<time>2025-07-29T07:08:35.000Z</time>
</trkpt>
<trkpt lat="45.9020670" lon="10.2916610">
	<ele>1443.00</ele>
	<time>2025-07-29T07:08:36.000Z</time>
</trkpt>
<trkpt lat="45.9020670" lon="10.2916560">
	<ele>1443.20</ele>
	<time>2025-07-29T07:08:37.000Z</time>
</trkpt>
<trkpt lat="45.9020650" lon="10.2916550">
	<ele>1443.20</ele>
	<time>2025-07-29T07:08:38.000Z</time>
</trkpt>
<trkpt lat="45.9020620" lon="10.2916560">
	<ele>1443.40</ele>
	<time>2025-07-29T07:08:39.000Z</time>
</trkpt>
<trkpt lat="45.9020550" lon="10.2916630">
	<ele>1443.40</ele>
	<time>2025-07-29T07:08:40.000Z</time>
</trkpt>
<trkpt lat="45.9020490" lon="10.2916650">
	<ele>1443.60</ele>
	<time>2025-07-29T07:08:41.000Z</time>
</trkpt>
<trkpt lat="45.9020400" lon="10.2916710">
	<ele>1444.00</ele>
	<time>2025-07-29T07:08:42.000Z</time>
</trkpt>
<trkpt lat="45.9020310" lon="10.2916750">
	<ele>1444.20</ele>
	<time>2025-07-29T07:08:43.000Z</time>
</trkpt>
<trkpt lat="45.9020280" lon="10.2916790">
	<ele>1444.20</ele>
	<time>2025-07-29T07:08:44.000Z</time>
</trkpt>
<trkpt lat="45.9020190" lon="10.2916810">
	<ele>1444.40</ele>
	<time>2025-07-29T07:08:45.000Z</time>
</trkpt>
<trkpt lat="45.9020170" lon="10.2916790">
	<ele>1444.80</ele>
	<time>2025-07-29T07:08:46.000Z</time>
</trkpt>
<trkpt lat="45.9020050" lon="10.2916730">
	<ele>1445.00</ele>
	<time>2025-07-29T07:08:47.000Z</time>
</trkpt>
<trkpt lat="45.9019960" lon="10.2916720">
	<ele>1445.20</ele>
	<time>2025-07-29T07:08:48.000Z</time>
</trkpt>
<trkpt lat="45.9019790" lon="10.2916690">
	<ele>1445.20</ele>
	<time>2025-07-29T07:08:49.000Z</time>
</trkpt>
<trkpt lat="45.9019650" lon="10.2916650">
	<ele>1445.40</ele>
	<time>2025-07-29T07:08:50.000Z</time>
</trkpt>
<trkpt lat="45.9019620" lon="10.2916560">
	<ele>1445.40</ele>
	<time>2025-07-29T07:08:51.000Z</time>
</trkpt>
<trkpt lat="45.9019640" lon="10.2916460">
	<ele>1445.60</ele>
	<time>2025-07-29T07:08:52.000Z</time>
</trkpt>
<trkpt lat="45.9019630" lon="10.2916310">
	<ele>1445.80</ele>
	<time>2025-07-29T07:08:53.000Z</time>
</trkpt>
<trkpt lat="45.9019580" lon="10.2916240">
	<ele>1446.00</ele>
	<time>2025-07-29T07:08:54.000Z</time>
</trkpt>
<trkpt lat="45.9019380" lon="10.2916130">
	<ele>1446.20</ele>
	<time>2025-07-29T07:08:55.000Z</time>
</trkpt>
<trkpt lat="45.9019390" lon="10.2916060">
	<ele>1446.20</ele>
	<time>2025-07-29T07:08:56.000Z</time>
</trkpt>
<trkpt lat="45.9019320" lon="10.2916080">
	<ele>1446.40</ele>
	<time>2025-07-29T07:08:57.000Z</time>
</trkpt>
<trkpt lat="45.9019250" lon="10.2916120">
	<ele>1446.80</ele>
	<time>2025-07-29T07:08:58.000Z</time>
</trkpt>
<trkpt lat="45.9019270" lon="10.2916140">
	<ele>1447.00</ele>
	<time>2025-07-29T07:08:59.000Z</time>
</trkpt>
<trkpt lat="45.9019270" lon="10.2916080">
	<ele>1447.00</ele>
	<time>2025-07-29T07:09:00.000Z</time>
</trkpt>
<trkpt lat="45.9019260" lon="10.2916170">
	<ele>1447.20</ele>
	<time>2025-07-29T07:09:01.000Z</time>
</trkpt>
<trkpt lat="45.9019190" lon="10.2916230">
	<ele>1447.40</ele>
	<time>2025-07-29T07:09:02.000Z</time>
</trkpt>
<trkpt lat="45.9019240" lon="10.2916260">
	<ele>1447.60</ele>
	<time>2025-07-29T07:09:03.000Z</time>
</trkpt>
<trkpt lat="45.9019250" lon="10.2916240">
	<ele>1447.80</ele>
	<time>2025-07-29T07:09:04.000Z</time>
</trkpt>
<trkpt lat="45.9019240" lon="10.2916300">
	<ele>1448.00</ele>
	<time>2025-07-29T07:09:05.000Z</time>
</trkpt>
<trkpt lat="45.9019240" lon="10.2916300">
	<ele>1448.20</ele>
	<time>2025-07-29T07:09:06.000Z</time>
</trkpt>
<trkpt lat="45.9019190" lon="10.2916270">
	<ele>1448.40</ele>
	<time>2025-07-29T07:09:07.000Z</time>
</trkpt>
<trkpt lat="45.9019160" lon="10.2916200">
	<ele>1448.60</ele>
	<time>2025-07-29T07:09:08.000Z</time>
</trkpt>
<trkpt lat="45.9019110" lon="10.2916300">
	<ele>1448.80</ele>
	<time>2025-07-29T07:09:09.000Z</time>
</trkpt>
<trkpt lat="45.9019130" lon="10.2916300">
	<ele>1448.80</ele>
	<time>2025-07-29T07:09:10.000Z</time>
</trkpt>
<trkpt lat="45.9019140" lon="10.2916360">
	<ele>1449.00</ele>
	<time>2025-07-29T07:09:11.000Z</time>
</trkpt>
<trkpt lat="45.9019250" lon="10.2916430">
	<ele>1449.40</ele>
	<time>2025-07-29T07:09:12.000Z</time>
</trkpt>
<trkpt lat="45.9019300" lon="10.2916470">
	<ele>1449.60</ele>
	<time>2025-07-29T07:09:13.000Z</time>
</trkpt>
<trkpt lat="45.9019290" lon="10.2916500">
	<ele>1449.60</ele>
	<time>2025-07-29T07:09:14.000Z</time>
</trkpt>
<trkpt lat="45.9019290" lon="10.2916540">
	<ele>1449.80</ele>
	<time>2025-07-29T07:09:15.000Z</time>
</trkpt>
<trkpt lat="45.9019260" lon="10.2916650">
	<ele>1450.00</ele>
	<time>2025-07-29T07:09:16.000Z</time>
</trkpt>
<trkpt lat="45.9019150" lon="10.2916680">
	<ele>1450.20</ele>
	<time>2025-07-29T07:09:17.000Z</time>
</trkpt>
<trkpt lat="45.9019140" lon="10.2916650">
	<ele>1450.40</ele>
	<time>2025-07-29T07:09:18.000Z</time>
</trkpt>
<trkpt lat="45.9019130" lon="10.2916510">
	<ele>1450.60</ele>
	<time>2025-07-29T07:09:19.000Z</time>
</trkpt>
<trkpt lat="45.9019160" lon="10.2916430">
	<ele>1450.80</ele>
	<time>2025-07-29T07:09:20.000Z</time>
</trkpt>
<trkpt lat="45.9019020" lon="10.2916330">
	<ele>1451.00</ele>
	<time>2025-07-29T07:09:21.000Z</time>
</trkpt>
<trkpt lat="45.9018820" lon="10.2916160">
	<ele>1451.20</ele>
	<time>2025-07-29T07:09:22.000Z</time>
</trkpt>
<trkpt lat="45.9018390" lon="10.2915840">
	<ele>1451.40</ele>
	<time>2025-07-29T07:09:23.000Z</time>
</trkpt>
<trkpt lat="45.9018150" lon="10.2915730">
	<ele>1451.60</ele>
	<time>2025-07-29T07:09:24.000Z</time>
</trkpt>
<trkpt lat="45.9017740" lon="10.2915440">
	<ele>1452.00</ele>
	<time>2025-07-29T07:09:25.000Z</time>
</trkpt>
<trkpt lat="45.9017620" lon="10.2915320">
	<ele>1452.20</ele>
	<time>2025-07-29T07:09:26.000Z</time>
</trkpt>
<trkpt lat="45.9017550" lon="10.2915340">
	<ele>1452.40</ele>
	<time>2025-07-29T07:09:27.000Z</time>
</trkpt>
<trkpt lat="45.9017450" lon="10.2915340">
	<ele>1452.60</ele>
	<time>2025-07-29T07:09:28.000Z</time>
</trkpt>
<trkpt lat="45.9017450" lon="10.2915360">
	<ele>1452.80</ele>
	<time>2025-07-29T07:09:29.000Z</time>
</trkpt>
<trkpt lat="45.9017430" lon="10.2915410">
	<ele>1453.00</ele>
	<time>2025-07-29T07:09:30.000Z</time>
</trkpt>
<trkpt lat="45.9017390" lon="10.2915420">
	<ele>1453.20</ele>
	<time>2025-07-29T07:09:31.000Z</time>
</trkpt>
<trkpt lat="45.9017350" lon="10.2915510">
	<ele>1453.40</ele>
	<time>2025-07-29T07:09:32.000Z</time>
</trkpt>
<trkpt lat="45.9017330" lon="10.2915550">
	<ele>1453.60</ele>
	<time>2025-07-29T07:09:33.000Z</time>
</trkpt>
<trkpt lat="45.9017350" lon="10.2915590">
	<ele>1453.80</ele>
	<time>2025-07-29T07:09:34.000Z</time>
</trkpt>
<trkpt lat="45.9017370" lon="10.2915590">
	<ele>1454.20</ele>
	<time>2025-07-29T07:09:35.000Z</time>
</trkpt>
<trkpt lat="45.9017080" lon="10.2915600">
	<ele>1454.40</ele>
	<time>2025-07-29T07:09:36.000Z</time>
</trkpt>
<trkpt lat="45.9016980" lon="10.2915570">
	<ele>1454.60</ele>
	<time>2025-07-29T07:09:37.000Z</time>
</trkpt>
<trkpt lat="45.9016930" lon="10.2915530">
	<ele>1454.80</ele>
	<time>2025-07-29T07:09:38.000Z</time>
</trkpt>
<trkpt lat="45.9016860" lon="10.2915530">
	<ele>1455.20</ele>
	<time>2025-07-29T07:09:39.000Z</time>
</trkpt>
<trkpt lat="45.9016820" lon="10.2915530">
	<ele>1455.20</ele>
	<time>2025-07-29T07:09:40.000Z</time>
</trkpt>
<trkpt lat="45.9016880" lon="10.2915560">
	<ele>1455.60</ele>
	<time>2025-07-29T07:09:41.000Z</time>
</trkpt>
<trkpt lat="45.9016960" lon="10.2915630">
	<ele>1455.60</ele>
	<time>2025-07-29T07:09:42.000Z</time>
</trkpt>
<trkpt lat="45.9016940" lon="10.2915630">
	<ele>1455.80</ele>
	<time>2025-07-29T07:09:43.000Z</time>
</trkpt>
<trkpt lat="45.9017030" lon="10.2915650">
	<ele>1456.00</ele>
	<time>2025-07-29T07:09:44.000Z</time>
</trkpt>
<trkpt lat="45.9017010" lon="10.2915620">
	<ele>1456.00</ele>
	<time>2025-07-29T07:09:45.000Z</time>
</trkpt>
<trkpt lat="45.9017080" lon="10.2915590">
	<ele>1456.20</ele>
	<time>2025-07-29T07:09:46.000Z</time>
</trkpt>
<trkpt lat="45.9017100" lon="10.2915510">
	<ele>1456.40</ele>
	<time>2025-07-29T07:09:47.000Z</time>
</trkpt>
<trkpt lat="45.9017070" lon="10.2915460">
	<ele>1456.60</ele>
	<time>2025-07-29T07:09:48.000Z</time>
</trkpt>
<trkpt lat="45.9017010" lon="10.2915400">
	<ele>1456.80</ele>
	<time>2025-07-29T07:09:49.000Z</time>
</trkpt>
<trkpt lat="45.9016970" lon="10.2915430">
	<ele>1456.80</ele>
	<time>2025-07-29T07:09:50.000Z</time>
</trkpt>
<trkpt lat="45.9016940" lon="10.2915510">
	<ele>1457.00</ele>
	<time>2025-07-29T07:09:51.000Z</time>
</trkpt>
<trkpt lat="45.9017000" lon="10.2915600">
	<ele>1457.40</ele>
	<time>2025-07-29T07:09:52.000Z</time>
</trkpt>
<trkpt lat="45.9017040" lon="10.2915670">
	<ele>1457.60</ele>
	<time>2025-07-29T07:09:53.000Z</time>
</trkpt>
<trkpt lat="45.9017050" lon="10.2915710">
	<ele>1457.60</ele>
	<time>2025-07-29T07:09:54.000Z</time>
</trkpt>
<trkpt lat="45.9017060" lon="10.2915730">
	<ele>1458.00</ele>
	<time>2025-07-29T07:09:55.000Z</time>
</trkpt>
<trkpt lat="45.9017110" lon="10.2915710">
	<ele>1458.20</ele>
	<time>2025-07-29T07:09:56.000Z</time>
</trkpt>
<trkpt lat="45.9017060" lon="10.2915780">
	<ele>1458.40</ele>
	<time>2025-07-29T07:09:57.000Z</time>
</trkpt>
<trkpt lat="45.9017020" lon="10.2915810">
	<ele>1458.40</ele>
	<time>2025-07-29T07:09:58.000Z</time>
</trkpt>
<trkpt lat="45.9016910" lon="10.2915870">
	<ele>1458.60</ele>
	<time>2025-07-29T07:09:59.000Z</time>
</trkpt>
<trkpt lat="45.9016790" lon="10.2915870">
	<ele>1458.80</ele>
	<time>2025-07-29T07:10:00.000Z</time>
</trkpt>
<trkpt lat="45.9016670" lon="10.2915790">
	<ele>1459.00</ele>
	<time>2025-07-29T07:10:01.000Z</time>
</trkpt>
<trkpt lat="45.9016520" lon="10.2915750">
	<ele>1459.20</ele>
	<time>2025-07-29T07:10:02.000Z</time>
</trkpt>
<trkpt lat="45.9016390" lon="10.2915730">
	<ele>1459.40</ele>
	<time>2025-07-29T07:10:03.000Z</time>
</trkpt>
<trkpt lat="45.9016360" lon="10.2915740">
	<ele>1459.40</ele>
	<time>2025-07-29T07:10:04.000Z</time>
</trkpt>
<trkpt lat="45.9016280" lon="10.2915700">
	<ele>1459.80</ele>
	<time>2025-07-29T07:10:05.000Z</time>
</trkpt>
<trkpt lat="45.9016240" lon="10.2915690">
	<ele>1459.80</ele>
	<time>2025-07-29T07:10:06.000Z</time>
</trkpt>
<trkpt lat="45.9016300" lon="10.2915710">
	<ele>1460.20</ele>
	<time>2025-07-29T07:10:07.000Z</time>
</trkpt>
<trkpt lat="45.9016280" lon="10.2915680">
	<ele>1460.40</ele>
	<time>2025-07-29T07:10:08.000Z</time>
</trkpt>
<trkpt lat="45.9016200" lon="10.2915650">
	<ele>1460.60</ele>
	<time>2025-07-29T07:10:09.000Z</time>
</trkpt>
<trkpt lat="45.9016070" lon="10.2915670">
	<ele>1460.60</ele>
	<time>2025-07-29T07:10:10.000Z</time>
</trkpt>
<trkpt lat="45.9015960" lon="10.2915640">
	<ele>1460.80</ele>
	<time>2025-07-29T07:10:11.000Z</time>
</trkpt>
<trkpt lat="45.9015740" lon="10.2915560">
	<ele>1461.00</ele>
	<time>2025-07-29T07:10:12.000Z</time>
</trkpt>
<trkpt lat="45.9015570" lon="10.2915520">
	<ele>1461.20</ele>
	<time>2025-07-29T07:10:13.000Z</time>
</trkpt>
<trkpt lat="45.9015480" lon="10.2915560">
	<ele>1461.40</ele>
	<time>2025-07-29T07:10:14.000Z</time>
</trkpt>
<trkpt lat="45.9015410" lon="10.2915570">
	<ele>1461.40</ele>
	<time>2025-07-29T07:10:15.000Z</time>
</trkpt>
<trkpt lat="45.9015360" lon="10.2915650">
	<ele>1461.60</ele>
	<time>2025-07-29T07:10:16.000Z</time>
</trkpt>
<trkpt lat="45.9015250" lon="10.2915680">
	<ele>1461.60</ele>
	<time>2025-07-29T07:10:17.000Z</time>
</trkpt>
<trkpt lat="45.9015120" lon="10.2915710">
	<ele>1461.80</ele>
	<time>2025-07-29T07:10:18.000Z</time>
</trkpt>
<trkpt lat="45.9014970" lon="10.2915760">
	<ele>1461.80</ele>
	<time>2025-07-29T07:10:19.000Z</time>
</trkpt>
<trkpt lat="45.9014890" lon="10.2915850">
	<ele>1462.00</ele>
	<time>2025-07-29T07:10:20.000Z</time>
</trkpt>
<trkpt lat="45.9014790" lon="10.2915940">
	<ele>1462.20</ele>
	<time>2025-07-29T07:10:21.000Z</time>
</trkpt>
<trkpt lat="45.9014690" lon="10.2916060">
	<ele>1462.40</ele>
	<time>2025-07-29T07:10:22.000Z</time>
</trkpt>
<trkpt lat="45.9014620" lon="10.2916150">
	<ele>1462.40</ele>
	<time>2025-07-29T07:10:23.000Z</time>
</trkpt>
<trkpt lat="45.9014500" lon="10.2916200">
	<ele>1462.60</ele>
	<time>2025-07-29T07:10:24.000Z</time>
</trkpt>
<trkpt lat="45.9014370" lon="10.2916180">
	<ele>1462.60</ele>
	<time>2025-07-29T07:10:25.000Z</time>
</trkpt>
<trkpt lat="45.9014430" lon="10.2916170">
	<ele>1462.80</ele>
	<time>2025-07-29T07:10:26.000Z</time>
</trkpt>
<trkpt lat="45.9014530" lon="10.2916190">
	<ele>1463.00</ele>
	<time>2025-07-29T07:10:27.000Z</time>
</trkpt>
<trkpt lat="45.9014630" lon="10.2916280">
	<ele>1463.20</ele>
	<time>2025-07-29T07:10:28.000Z</time>
</trkpt>
<trkpt lat="45.9014800" lon="10.2916270">
	<ele>1463.40</ele>
	<time>2025-07-29T07:10:29.000Z</time>
</trkpt>
<trkpt lat="45.9014880" lon="10.2916280">
	<ele>1463.60</ele>
	<time>2025-07-29T07:10:30.000Z</time>
</trkpt>
<trkpt lat="45.9014770" lon="10.2916270">
	<ele>1464.00</ele>
	<time>2025-07-29T07:10:31.000Z</time>
</trkpt>
<trkpt lat="45.9014670" lon="10.2916280">
	<ele>1464.00</ele>
	<time>2025-07-29T07:10:32.000Z</time>
</trkpt>
<trkpt lat="45.9014510" lon="10.2916280">
	<ele>1464.20</ele>
	<time>2025-07-29T07:10:33.000Z</time>
</trkpt>
<trkpt lat="45.9014370" lon="10.2916300">
	<ele>1464.40</ele>
	<time>2025-07-29T07:10:34.000Z</time>
</trkpt>
<trkpt lat="45.9014180" lon="10.2916200">
	<ele>1464.60</ele>
	<time>2025-07-29T07:10:35.000Z</time>
</trkpt>
<trkpt lat="45.9014000" lon="10.2916140">
	<ele>1464.80</ele>
	<time>2025-07-29T07:10:36.000Z</time>
</trkpt>
<trkpt lat="45.9013850" lon="10.2916100">
	<ele>1464.80</ele>
	<time>2025-07-29T07:10:37.000Z</time>
</trkpt>
<trkpt lat="45.9013770" lon="10.2916040">
	<ele>1465.00</ele>
	<time>2025-07-29T07:10:38.000Z</time>
</trkpt>
<trkpt lat="45.9013650" lon="10.2916010">
	<ele>1465.20</ele>
	<time>2025-07-29T07:10:39.000Z</time>
</trkpt>
<trkpt lat="45.9013540" lon="10.2915990">
	<ele>1465.40</ele>
	<time>2025-07-29T07:10:40.000Z</time>
</trkpt>
<trkpt lat="45.9013510" lon="10.2915910">
	<ele>1465.60</ele>
	<time>2025-07-29T07:10:41.000Z</time>
</trkpt>
<trkpt lat="45.9013420" lon="10.2915810">
	<ele>1465.80</ele>
	<time>2025-07-29T07:10:42.000Z</time>
</trkpt>
<trkpt lat="45.9013290" lon="10.2915800">
	<ele>1466.00</ele>
	<time>2025-07-29T07:10:43.000Z</time>
</trkpt>
<trkpt lat="45.9013200" lon="10.2915760">
	<ele>1466.20</ele>
	<time>2025-07-29T07:10:44.000Z</time>
</trkpt>
<trkpt lat="45.9013090" lon="10.2915850">
	<ele>1466.40</ele>
	<time>2025-07-29T07:10:45.000Z</time>
</trkpt>
<trkpt lat="45.9012910" lon="10.2915990">
	<ele>1466.60</ele>
	<time>2025-07-29T07:10:46.000Z</time>
</trkpt>
<trkpt lat="45.9012930" lon="10.2916020">
	<ele>1466.60</ele>
	<time>2025-07-29T07:10:47.000Z</time>
</trkpt>
<trkpt lat="45.9012740" lon="10.2916090">
	<ele>1466.80</ele>
	<time>2025-07-29T07:10:48.000Z</time>
</trkpt>
<trkpt lat="45.9012490" lon="10.2916300">
	<ele>1466.80</ele>
	<time>2025-07-29T07:10:49.000Z</time>
</trkpt>
<trkpt lat="45.9012290" lon="10.2916180">
	<ele>1467.00</ele>
	<time>2025-07-29T07:10:50.000Z</time>
</trkpt>
<trkpt lat="45.9012210" lon="10.2916160">
	<ele>1467.20</ele>
	<time>2025-07-29T07:10:51.000Z</time>
</trkpt>
<trkpt lat="45.9012090" lon="10.2916110">
	<ele>1467.60</ele>
	<time>2025-07-29T07:10:52.000Z</time>
</trkpt>
<trkpt lat="45.9011990" lon="10.2916100">
	<ele>1467.60</ele>
	<time>2025-07-29T07:10:53.000Z</time>
</trkpt>
<trkpt lat="45.9011830" lon="10.2916050">
	<ele>1467.80</ele>
	<time>2025-07-29T07:10:54.000Z</time>
</trkpt>
<trkpt lat="45.9011670" lon="10.2915990">
	<ele>1467.80</ele>
	<time>2025-07-29T07:10:55.000Z</time>
</trkpt>
<trkpt lat="45.9011490" lon="10.2916010">
	<ele>1468.00</ele>
	<time>2025-07-29T07:10:56.000Z</time>
</trkpt>
<trkpt lat="45.9011360" lon="10.2916070">
	<ele>1468.00</ele>
	<time>2025-07-29T07:10:57.000Z</time>
</trkpt>
<trkpt lat="45.9011350" lon="10.2916130">
	<ele>1468.20</ele>
	<time>2025-07-29T07:10:58.000Z</time>
</trkpt>
<trkpt lat="45.9011320" lon="10.2916190">
	<ele>1468.20</ele>
	<time>2025-07-29T07:10:59.000Z</time>
</trkpt>
<trkpt lat="45.9011330" lon="10.2916270">
	<ele>1468.40</ele>
	<time>2025-07-29T07:11:00.000Z</time>
</trkpt>
<trkpt lat="45.9011250" lon="10.2916300">
	<ele>1468.60</ele>
	<time>2025-07-29T07:11:01.000Z</time>
</trkpt>
<trkpt lat="45.9011180" lon="10.2916300">
	<ele>1468.80</ele>
	<time>2025-07-29T07:11:02.000Z</time>
</trkpt>
<trkpt lat="45.9011140" lon="10.2916300">
	<ele>1469.00</ele>
	<time>2025-07-29T07:11:03.000Z</time>
</trkpt>
<trkpt lat="45.9011150" lon="10.2916330">
	<ele>1469.20</ele>
	<time>2025-07-29T07:11:04.000Z</time>
</trkpt>
<trkpt lat="45.9011150" lon="10.2916310">
	<ele>1469.40</ele>
	<time>2025-07-29T07:11:05.000Z</time>
</trkpt>
<trkpt lat="45.9011150" lon="10.2916300">
	<ele>1469.60</ele>
	<time>2025-07-29T07:11:06.000Z</time>
</trkpt>
<trkpt lat="45.9011210" lon="10.2916300">
	<ele>1469.60</ele>
	<time>2025-07-29T07:11:07.000Z</time>
</trkpt>
<trkpt lat="45.9011220" lon="10.2916300">
	<ele>1469.60</ele>
	<time>2025-07-29T07:11:08.000Z</time>
</trkpt>
<trkpt lat="45.9011230" lon="10.2916300">
	<ele>1469.60</ele>
	<time>2025-07-29T07:11:09.000Z</time>
</trkpt>
<trkpt lat="45.9011230" lon="10.2916310">
	<ele>1469.60</ele>
	<time>2025-07-29T07:11:10.000Z</time>
</trkpt>
<trkpt lat="45.9011220" lon="10.2916320">
	<ele>1469.60</ele>
	<time>2025-07-29T07:11:11.000Z</time>
</trkpt>
<trkpt lat="45.9011230" lon="10.2916370">
	<ele>1469.60</ele>
	<time>2025-07-29T07:11:12.000Z</time>
</trkpt>
<trkpt lat="45.9011230" lon="10.2916340">
	<ele>1469.60</ele>
	<time>2025-07-29T07:11:13.000Z</time>
</trkpt>
<trkpt lat="45.9011150" lon="10.2916330">
	<ele>1469.40</ele>
	<time>2025-07-29T07:11:14.000Z</time>
</trkpt>
<trkpt lat="45.9011080" lon="10.2916390">
	<ele>1469.40</ele>
	<time>2025-07-29T07:11:15.000Z</time>
</trkpt>
<trkpt lat="45.9010990" lon="10.2916420">
	<ele>1469.40</ele>
	<time>2025-07-29T07:11:16.000Z</time>
</trkpt>
<trkpt lat="45.9010980" lon="10.2916430">
	<ele>1469.40</ele>
	<time>2025-07-29T07:11:17.000Z</time>
</trkpt>
<trkpt lat="45.9010950" lon="10.2916350">
	<ele>1469.40</ele>
	<time>2025-07-29T07:11:18.000Z</time>
</trkpt>
<trkpt lat="45.9010960" lon="10.2916280">
	<ele>1469.40</ele>
	<time>2025-07-29T07:11:19.000Z</time>
</trkpt>
<trkpt lat="45.9011080" lon="10.2916250">
	<ele>1469.40</ele>
	<time>2025-07-29T07:11:20.000Z</time>
</trkpt>
<trkpt lat="45.9011190" lon="10.2916160">
	<ele>1469.40</ele>
	<time>2025-07-29T07:11:21.000Z</time>
</trkpt>
<trkpt lat="45.9011180" lon="10.2916080">
	<ele>1469.60</ele>
	<time>2025-07-29T07:11:22.000Z</time>
</trkpt>
<trkpt lat="45.9011160" lon="10.2916020">
	<ele>1469.60</ele>
	<time>2025-07-29T07:11:23.000Z</time>
</trkpt>
<trkpt lat="45.9011190" lon="10.2915940">
	<ele>1469.60</ele>
	<time>2025-07-29T07:11:24.000Z</time>
</trkpt>
<trkpt lat="45.9011260" lon="10.2915860">
	<ele>1469.80</ele>
	<time>2025-07-29T07:11:25.000Z</time>
</trkpt>
<trkpt lat="45.9011300" lon="10.2915770">
	<ele>1470.00</ele>
	<time>2025-07-29T07:11:26.000Z</time>
</trkpt>
<trkpt lat="45.9011340" lon="10.2915640">
	<ele>1470.00</ele>
	<time>2025-07-29T07:11:27.000Z</time>
</trkpt>
<trkpt lat="45.9011410" lon="10.2915510">
	<ele>1470.20</ele>
	<time>2025-07-29T07:11:28.000Z</time>
</trkpt>
<trkpt lat="45.9011450" lon="10.2915350">
	<ele>1470.20</ele>
	<time>2025-07-29T07:11:29.000Z</time>
</trkpt>
<trkpt lat="45.9011450" lon="10.2915250">
	<ele>1470.20</ele>
	<time>2025-07-29T07:11:30.000Z</time>
</trkpt>
<trkpt lat="45.9011560" lon="10.2915150">
	<ele>1470.20</ele>
	<time>2025-07-29T07:11:31.000Z</time>
</trkpt>
<trkpt lat="45.9011710" lon="10.2915100">
	<ele>1470.40</ele>
	<time>2025-07-29T07:11:32.000Z</time>
</trkpt>
<trkpt lat="45.9011820" lon="10.2915090">
	<ele>1470.60</ele>
	<time>2025-07-29T07:11:33.000Z</time>
</trkpt>
<trkpt lat="45.9011810" lon="10.2915040">
	<ele>1470.60</ele>
	<time>2025-07-29T07:11:34.000Z</time>
</trkpt>
<trkpt lat="45.9011800" lon="10.2915010">
	<ele>1470.80</ele>
	<time>2025-07-29T07:11:35.000Z</time>
</trkpt>
<trkpt lat="45.9011790" lon="10.2915000">
	<ele>1471.00</ele>
	<time>2025-07-29T07:11:36.000Z</time>
</trkpt>
<trkpt lat="45.9011730" lon="10.2914870">
	<ele>1471.00</ele>
	<time>2025-07-29T07:11:37.000Z</time>
</trkpt>
<trkpt lat="45.9011690" lon="10.2914790">
	<ele>1471.20</ele>
	<time>2025-07-29T07:11:38.000Z</time>
</trkpt>
<trkpt lat="45.9011710" lon="10.2914660">
	<ele>1471.40</ele>
	<time>2025-07-29T07:11:39.000Z</time>
</trkpt>
<trkpt lat="45.9011710" lon="10.2914560">
	<ele>1471.40</ele>
	<time>2025-07-29T07:11:40.000Z</time>
</trkpt>
<trkpt lat="45.9011780" lon="10.2914440">
	<ele>1471.60</ele>
	<time>2025-07-29T07:11:41.000Z</time>
</trkpt>
<trkpt lat="45.9011680" lon="10.2914330">
	<ele>1471.80</ele>
	<time>2025-07-29T07:11:42.000Z</time>
</trkpt>
<trkpt lat="45.9011660" lon="10.2914280">
	<ele>1471.80</ele>
	<time>2025-07-29T07:11:43.000Z</time>
</trkpt>
<trkpt lat="45.9011690" lon="10.2914180">
	<ele>1472.00</ele>
	<time>2025-07-29T07:11:44.000Z</time>
</trkpt>
<trkpt lat="45.9011670" lon="10.2914100">
	<ele>1472.20</ele>
	<time>2025-07-29T07:11:45.000Z</time>
</trkpt>
<trkpt lat="45.9011680" lon="10.2914020">
	<ele>1472.20</ele>
	<time>2025-07-29T07:11:46.000Z</time>
</trkpt>
<trkpt lat="45.9011680" lon="10.2913910">
	<ele>1472.40</ele>
	<time>2025-07-29T07:11:47.000Z</time>
</trkpt>
<trkpt lat="45.9011590" lon="10.2913750">
	<ele>1472.40</ele>
	<time>2025-07-29T07:11:48.000Z</time>
</trkpt>
<trkpt lat="45.9011460" lon="10.2913580">
	<ele>1472.60</ele>
	<time>2025-07-29T07:11:49.000Z</time>
</trkpt>
<trkpt lat="45.9011310" lon="10.2913370">
	<ele>1472.60</ele>
	<time>2025-07-29T07:11:50.000Z</time>
</trkpt>
<trkpt lat="45.9011050" lon="10.2913270">
	<ele>1472.60</ele>
	<time>2025-07-29T07:11:51.000Z</time>
</trkpt>
<trkpt lat="45.9010880" lon="10.2913210">
	<ele>1472.80</ele>
	<time>2025-07-29T07:11:52.000Z</time>
</trkpt>
<trkpt lat="45.9010720" lon="10.2913090">
	<ele>1472.80</ele>
	<time>2025-07-29T07:11:53.000Z</time>
</trkpt>
<trkpt lat="45.9010520" lon="10.2913020">
	<ele>1472.80</ele>
	<time>2025-07-29T07:11:54.000Z</time>
</trkpt>
<trkpt lat="45.9010250" lon="10.2912950">
	<ele>1473.00</ele>
	<time>2025-07-29T07:11:55.000Z</time>
</trkpt>
<trkpt lat="45.9010090" lon="10.2912880">
	<ele>1473.00</ele>
	<time>2025-07-29T07:11:56.000Z</time>
</trkpt>
<trkpt lat="45.9010040" lon="10.2912780">
	<ele>1473.00</ele>
	<time>2025-07-29T07:11:57.000Z</time>
</trkpt>
<trkpt lat="45.9009990" lon="10.2912650">
	<ele>1473.00</ele>
	<time>2025-07-29T07:11:58.000Z</time>
</trkpt>
<trkpt lat="45.9009890" lon="10.2912570">
	<ele>1473.20</ele>
	<time>2025-07-29T07:11:59.000Z</time>
</trkpt>
<trkpt lat="45.9009780" lon="10.2912480">
	<ele>1473.20</ele>
	<time>2025-07-29T07:12:00.000Z</time>
</trkpt>
<trkpt lat="45.9009710" lon="10.2912420">
	<ele>1473.20</ele>
	<time>2025-07-29T07:12:01.000Z</time>
</trkpt>
<trkpt lat="45.9009630" lon="10.2912320">
	<ele>1473.20</ele>
	<time>2025-07-29T07:12:02.000Z</time>
</trkpt>
<trkpt lat="45.9009520" lon="10.2912210">
	<ele>1473.40</ele>
	<time>2025-07-29T07:12:03.000Z</time>
</trkpt>
<trkpt lat="45.9009460" lon="10.2912150">
	<ele>1473.40</ele>
	<time>2025-07-29T07:12:04.000Z</time>
</trkpt>
<trkpt lat="45.9009530" lon="10.2912140">
	<ele>1473.40</ele>
	<time>2025-07-29T07:12:05.000Z</time>
</trkpt>
<trkpt lat="45.9009580" lon="10.2912010">
	<ele>1473.40</ele>
	<time>2025-07-29T07:12:06.000Z</time>
</trkpt>
<trkpt lat="45.9009630" lon="10.2911810">
	<ele>1473.40</ele>
	<time>2025-07-29T07:12:07.000Z</time>
</trkpt>
<trkpt lat="45.9009560" lon="10.2911660">
	<ele>1473.40</ele>
	<time>2025-07-29T07:12:08.000Z</time>
</trkpt>
<trkpt lat="45.9009520" lon="10.2911380">
	<ele>1473.40</ele>
	<time>2025-07-29T07:12:09.000Z</time>
</trkpt>
<trkpt lat="45.9009580" lon="10.2911260">
	<ele>1473.60</ele>
	<time>2025-07-29T07:12:10.000Z</time>
</trkpt>
<trkpt lat="45.9009690" lon="10.2911110">
	<ele>1473.60</ele>
	<time>2025-07-29T07:12:11.000Z</time>
</trkpt>
<trkpt lat="45.9009710" lon="10.2910910">
	<ele>1473.60</ele>
	<time>2025-07-29T07:12:12.000Z</time>
</trkpt>
<trkpt lat="45.9009700" lon="10.2910950">
	<ele>1473.80</ele>
	<time>2025-07-29T07:12:13.000Z</time>
</trkpt>
<trkpt lat="45.9009720" lon="10.2910720">
	<ele>1474.00</ele>
	<time>2025-07-29T07:12:14.000Z</time>
</trkpt>
<trkpt lat="45.9009910" lon="10.2910660">
	<ele>1474.40</ele>
	<time>2025-07-29T07:12:15.000Z</time>
</trkpt>
<trkpt lat="45.9010110" lon="10.2910750">
	<ele>1474.40</ele>
	<time>2025-07-29T07:12:16.000Z</time>
</trkpt>
<trkpt lat="45.9010230" lon="10.2910830">
	<ele>1474.60</ele>
	<time>2025-07-29T07:12:17.000Z</time>
</trkpt>
<trkpt lat="45.9010290" lon="10.2910590">
	<ele>1474.60</ele>
	<time>2025-07-29T07:12:18.000Z</time>
</trkpt>
<trkpt lat="45.9010160" lon="10.2910440">
	<ele>1474.80</ele>
	<time>2025-07-29T07:12:19.000Z</time>
</trkpt>
<trkpt lat="45.9010200" lon="10.2910230">
	<ele>1475.20</ele>
	<time>2025-07-29T07:12:20.000Z</time>
</trkpt>
<trkpt lat="45.9010260" lon="10.2910110">
	<ele>1475.20</ele>
	<time>2025-07-29T07:12:21.000Z</time>
</trkpt>
<trkpt lat="45.9010270" lon="10.2910050">
	<ele>1475.40</ele>
	<time>2025-07-29T07:12:22.000Z</time>
</trkpt>
<trkpt lat="45.9010290" lon="10.2909960">
	<ele>1475.40</ele>
	<time>2025-07-29T07:12:23.000Z</time>
</trkpt>
<trkpt lat="45.9010300" lon="10.2909860">
	<ele>1475.60</ele>
	<time>2025-07-29T07:12:24.000Z</time>
</trkpt>
<trkpt lat="45.9010300" lon="10.2909820">
	<ele>1475.60</ele>
	<time>2025-07-29T07:12:25.000Z</time>
</trkpt>
<trkpt lat="45.9010310" lon="10.2909790">
	<ele>1475.80</ele>
	<time>2025-07-29T07:12:26.000Z</time>
</trkpt>
<trkpt lat="45.9010360" lon="10.2909670">
	<ele>1475.80</ele>
	<time>2025-07-29T07:12:27.000Z</time>
</trkpt>
<trkpt lat="45.9010420" lon="10.2909460">
	<ele>1476.00</ele>
	<time>2025-07-29T07:12:28.000Z</time>
</trkpt>
<trkpt lat="45.9010520" lon="10.2909230">
	<ele>1476.00</ele>
	<time>2025-07-29T07:12:29.000Z</time>
</trkpt>
<trkpt lat="45.9010650" lon="10.2909050">
	<ele>1476.20</ele>
	<time>2025-07-29T07:12:30.000Z</time>
</trkpt>
<trkpt lat="45.9010770" lon="10.2908940">
	<ele>1476.20</ele>
	<time>2025-07-29T07:12:31.000Z</time>
</trkpt>
<trkpt lat="45.9010890" lon="10.2908850">
	<ele>1476.20</ele>
	<time>2025-07-29T07:12:32.000Z</time>
</trkpt>
<trkpt lat="45.9010950" lon="10.2908730">
	<ele>1476.20</ele>
	<time>2025-07-29T07:12:33.000Z</time>
</trkpt>
<trkpt lat="45.9011010" lon="10.2908550">
	<ele>1476.20</ele>
	<time>2025-07-29T07:12:34.000Z</time>
</trkpt>
<trkpt lat="45.9011060" lon="10.2908430">
	<ele>1476.40</ele>
	<time>2025-07-29T07:12:35.000Z</time>
</trkpt>
<trkpt lat="45.9011060" lon="10.2908300">
	<ele>1476.40</ele>
	<time>2025-07-29T07:12:36.000Z</time>
</trkpt>
<trkpt lat="45.9011000" lon="10.2908200">
	<ele>1476.40</ele>
	<time>2025-07-29T07:12:37.000Z</time>
</trkpt>
<trkpt lat="45.9010990" lon="10.2908020">
	<ele>1476.40</ele>
	<time>2025-07-29T07:12:38.000Z</time>
</trkpt>
<trkpt lat="45.9011020" lon="10.2907840">
	<ele>1476.60</ele>
	<time>2025-07-29T07:12:39.000Z</time>
</trkpt>
<trkpt lat="45.9011040" lon="10.2907680">
	<ele>1476.80</ele>
	<time>2025-07-29T07:12:40.000Z</time>
</trkpt>
<trkpt lat="45.9011170" lon="10.2907410">
	<ele>1477.00</ele>
	<time>2025-07-29T07:12:41.000Z</time>
</trkpt>
<trkpt lat="45.9011250" lon="10.2907100">
	<ele>1477.00</ele>
	<time>2025-07-29T07:12:42.000Z</time>
</trkpt>
<trkpt lat="45.9011370" lon="10.2906800">
	<ele>1477.20</ele>
	<time>2025-07-29T07:12:43.000Z</time>
</trkpt>
<trkpt lat="45.9011450" lon="10.2906620">
	<ele>1477.40</ele>
	<time>2025-07-29T07:12:44.000Z</time>
</trkpt>
<trkpt lat="45.9011500" lon="10.2906470">
	<ele>1477.40</ele>
	<time>2025-07-29T07:12:45.000Z</time>
</trkpt>
<trkpt lat="45.9011520" lon="10.2906340">
	<ele>1477.60</ele>
	<time>2025-07-29T07:12:46.000Z</time>
</trkpt>
<trkpt lat="45.9011590" lon="10.2906210">
	<ele>1477.80</ele>
	<time>2025-07-29T07:12:47.000Z</time>
</trkpt>
<trkpt lat="45.9011650" lon="10.2906070">
	<ele>1478.00</ele>
	<time>2025-07-29T07:12:48.000Z</time>
</trkpt>
<trkpt lat="45.9011630" lon="10.2906040">
	<ele>1478.20</ele>
	<time>2025-07-29T07:12:49.000Z</time>
</trkpt>
<trkpt lat="45.9011530" lon="10.2906040">
	<ele>1478.40</ele>
	<time>2025-07-29T07:12:50.000Z</time>
</trkpt>
<trkpt lat="45.9011560" lon="10.2906050">
	<ele>1478.60</ele>
	<time>2025-07-29T07:12:51.000Z</time>
</trkpt>
<trkpt lat="45.9011540" lon="10.2906020">
	<ele>1478.80</ele>
	<time>2025-07-29T07:12:52.000Z</time>
</trkpt>
<trkpt lat="45.9011510" lon="10.2906010">
	<ele>1478.80</ele>
	<time>2025-07-29T07:12:53.000Z</time>
</trkpt>
<trkpt lat="45.9011450" lon="10.2905900">
	<ele>1479.00</ele>
	<time>2025-07-29T07:12:54.000Z</time>
</trkpt>
<trkpt lat="45.9011330" lon="10.2905820">
	<ele>1479.20</ele>
	<time>2025-07-29T07:12:55.000Z</time>
</trkpt>
<trkpt lat="45.9011240" lon="10.2905760">
	<ele>1479.40</ele>
	<time>2025-07-29T07:12:56.000Z</time>
</trkpt>
<trkpt lat="45.9011210" lon="10.2905750">
	<ele>1479.60</ele>
	<time>2025-07-29T07:12:57.000Z</time>
</trkpt>
<trkpt lat="45.9011210" lon="10.2905680">
	<ele>1479.80</ele>
	<time>2025-07-29T07:12:58.000Z</time>
</trkpt>
<trkpt lat="45.9011190" lon="10.2905590">
	<ele>1480.00</ele>
	<time>2025-07-29T07:12:59.000Z</time>
</trkpt>
<trkpt lat="45.9011180" lon="10.2905600">
	<ele>1480.20</ele>
	<time>2025-07-29T07:13:00.000Z</time>
</trkpt>
<trkpt lat="45.9011170" lon="10.2905580">
	<ele>1480.60</ele>
	<time>2025-07-29T07:13:01.000Z</time>
</trkpt>
<trkpt lat="45.9011220" lon="10.2905490">
	<ele>1480.60</ele>
	<time>2025-07-29T07:13:02.000Z</time>
</trkpt>
<trkpt lat="45.9011210" lon="10.2905290">
	<ele>1480.80</ele>
	<time>2025-07-29T07:13:03.000Z</time>
</trkpt>
<trkpt lat="45.9011420" lon="10.2905250">
	<ele>1481.00</ele>
	<time>2025-07-29T07:13:04.000Z</time>
</trkpt>
<trkpt lat="45.9011610" lon="10.2905060">
	<ele>1481.20</ele>
	<time>2025-07-29T07:13:05.000Z</time>
</trkpt>
<trkpt lat="45.9011720" lon="10.2904870">
	<ele>1481.40</ele>
	<time>2025-07-29T07:13:06.000Z</time>
</trkpt>
<trkpt lat="45.9011810" lon="10.2904660">
	<ele>1481.60</ele>
	<time>2025-07-29T07:13:07.000Z</time>
</trkpt>
<trkpt lat="45.9011800" lon="10.2904620">
	<ele>1481.80</ele>
	<time>2025-07-29T07:13:08.000Z</time>
</trkpt>
<trkpt lat="45.9011800" lon="10.2904570">
	<ele>1482.00</ele>
	<time>2025-07-29T07:13:09.000Z</time>
</trkpt>
<trkpt lat="45.9011640" lon="10.2904480">
	<ele>1482.00</ele>
	<time>2025-07-29T07:13:10.000Z</time>
</trkpt>
<trkpt lat="45.9011580" lon="10.2904330">
	<ele>1482.40</ele>
	<time>2025-07-29T07:13:11.000Z</time>
</trkpt>
<trkpt lat="45.9011470" lon="10.2904180">
	<ele>1482.60</ele>
	<time>2025-07-29T07:13:12.000Z</time>
</trkpt>
<trkpt lat="45.9011320" lon="10.2904040">
	<ele>1482.80</ele>
	<time>2025-07-29T07:13:13.000Z</time>
</trkpt>
<trkpt lat="45.9011200" lon="10.2903950">
	<ele>1482.80</ele>
	<time>2025-07-29T07:13:14.000Z</time>
</trkpt>
<trkpt lat="45.9011120" lon="10.2903810">
	<ele>1483.00</ele>
	<time>2025-07-29T07:13:15.000Z</time>
</trkpt>
<trkpt lat="45.9011180" lon="10.2903630">
	<ele>1483.20</ele>
	<time>2025-07-29T07:13:16.000Z</time>
</trkpt>
<trkpt lat="45.9011210" lon="10.2903490">
	<ele>1483.40</ele>
	<time>2025-07-29T07:13:17.000Z</time>
</trkpt>
<trkpt lat="45.9011340" lon="10.2903360">
	<ele>1483.60</ele>
	<time>2025-07-29T07:13:18.000Z</time>
</trkpt>
<trkpt lat="45.9011380" lon="10.2903190">
	<ele>1484.00</ele>
	<time>2025-07-29T07:13:19.000Z</time>
</trkpt>
<trkpt lat="45.9011410" lon="10.2903020">
	<ele>1484.20</ele>
	<time>2025-07-29T07:13:20.000Z</time>
</trkpt>
<trkpt lat="45.9011410" lon="10.2902980">
	<ele>1484.60</ele>
	<time>2025-07-29T07:13:21.000Z</time>
</trkpt>
<trkpt lat="45.9011400" lon="10.2902970">
	<ele>1485.00</ele>
	<time>2025-07-29T07:13:22.000Z</time>
</trkpt>
<trkpt lat="45.9011420" lon="10.2902920">
	<ele>1485.20</ele>
	<time>2025-07-29T07:13:23.000Z</time>
</trkpt>
<trkpt lat="45.9011380" lon="10.2902900">
	<ele>1485.40</ele>
	<time>2025-07-29T07:13:24.000Z</time>
</trkpt>
<trkpt lat="45.9011350" lon="10.2902850">
	<ele>1485.80</ele>
	<time>2025-07-29T07:13:25.000Z</time>
</trkpt>
<trkpt lat="45.9011320" lon="10.2902750">
	<ele>1486.00</ele>
	<time>2025-07-29T07:13:26.000Z</time>
</trkpt>
<trkpt lat="45.9011320" lon="10.2902620">
	<ele>1486.40</ele>
	<time>2025-07-29T07:13:27.000Z</time>
</trkpt>
<trkpt lat="45.9011320" lon="10.2902580">
	<ele>1486.60</ele>
	<time>2025-07-29T07:13:28.000Z</time>
</trkpt>
<trkpt lat="45.9011340" lon="10.2902420">
	<ele>1487.00</ele>
	<time>2025-07-29T07:13:29.000Z</time>
</trkpt>
<trkpt lat="45.9011250" lon="10.2902340">
	<ele>1487.20</ele>
	<time>2025-07-29T07:13:30.000Z</time>
</trkpt>
<trkpt lat="45.9011210" lon="10.2902390">
	<ele>1487.40</ele>
	<time>2025-07-29T07:13:31.000Z</time>
</trkpt>
<trkpt lat="45.9011200" lon="10.2902430">
	<ele>1487.60</ele>
	<time>2025-07-29T07:13:32.000Z</time>
</trkpt>
<trkpt lat="45.9011120" lon="10.2902370">
	<ele>1487.80</ele>
	<time>2025-07-29T07:13:33.000Z</time>
</trkpt>
<trkpt lat="45.9011060" lon="10.2902370">
	<ele>1488.00</ele>
	<time>2025-07-29T07:13:34.000Z</time>
</trkpt>
<trkpt lat="45.9011010" lon="10.2902290">
	<ele>1488.20</ele>
	<time>2025-07-29T07:13:35.000Z</time>
</trkpt>
<trkpt lat="45.9010970" lon="10.2902270">
	<ele>1488.60</ele>
	<time>2025-07-29T07:13:36.000Z</time>
</trkpt>
<trkpt lat="45.9010980" lon="10.2902270">
	<ele>1488.80</ele>
	<time>2025-07-29T07:13:37.000Z</time>
</trkpt>
<trkpt lat="45.9010900" lon="10.2902260">
	<ele>1488.80</ele>
	<time>2025-07-29T07:13:38.000Z</time>
</trkpt>
<trkpt lat="45.9010810" lon="10.2902240">
	<ele>1489.00</ele>
	<time>2025-07-29T07:13:39.000Z</time>
</trkpt>
<trkpt lat="45.9010800" lon="10.2902180">
	<ele>1489.00</ele>
	<time>2025-07-29T07:13:40.000Z</time>
</trkpt>
<trkpt lat="45.9010760" lon="10.2902140">
	<ele>1489.20</ele>
	<time>2025-07-29T07:13:41.000Z</time>
</trkpt>
<trkpt lat="45.9010750" lon="10.2902090">
	<ele>1489.40</ele>
	<time>2025-07-29T07:13:42.000Z</time>
</trkpt>
<trkpt lat="45.9010700" lon="10.2902040">
	<ele>1489.60</ele>
	<time>2025-07-29T07:13:43.000Z</time>
</trkpt>
<trkpt lat="45.9010620" lon="10.2902000">
	<ele>1489.60</ele>
	<time>2025-07-29T07:13:44.000Z</time>
</trkpt>
<trkpt lat="45.9010600" lon="10.2902010">
	<ele>1490.00</ele>
	<time>2025-07-29T07:13:45.000Z</time>
</trkpt>
<trkpt lat="45.9010470" lon="10.2902010">
	<ele>1490.20</ele>
	<time>2025-07-29T07:13:46.000Z</time>
</trkpt>
<trkpt lat="45.9010300" lon="10.2902000">
	<ele>1490.20</ele>
	<time>2025-07-29T07:13:47.000Z</time>
</trkpt>
<trkpt lat="45.9010160" lon="10.2901950">
	<ele>1490.60</ele>
	<time>2025-07-29T07:13:48.000Z</time>
</trkpt>
<trkpt lat="45.9010120" lon="10.2901950">
	<ele>1490.80</ele>
	<time>2025-07-29T07:13:49.000Z</time>
</trkpt>
<trkpt lat="45.9010080" lon="10.2902050">
	<ele>1491.20</ele>
	<time>2025-07-29T07:13:50.000Z</time>
</trkpt>
<trkpt lat="45.9010040" lon="10.2901970">
	<ele>1491.40</ele>
	<time>2025-07-29T07:13:51.000Z</time>
</trkpt>
<trkpt lat="45.9009910" lon="10.2901920">
	<ele>1491.60</ele>
	<time>2025-07-29T07:13:52.000Z</time>
</trkpt>
<trkpt lat="45.9009890" lon="10.2901930">
	<ele>1492.00</ele>
	<time>2025-07-29T07:13:53.000Z</time>
</trkpt>
<trkpt lat="45.9009880" lon="10.2901930">
	<ele>1492.20</ele>
	<time>2025-07-29T07:13:54.000Z</time>
</trkpt>
<trkpt lat="45.9009840" lon="10.2901910">
	<ele>1492.40</ele>
	<time>2025-07-29T07:13:55.000Z</time>
</trkpt>
<trkpt lat="45.9009800" lon="10.2901870">
	<ele>1492.60</ele>
	<time>2025-07-29T07:13:56.000Z</time>
</trkpt>
<trkpt lat="45.9009790" lon="10.2901860">
	<ele>1492.60</ele>
	<time>2025-07-29T07:13:57.000Z</time>
</trkpt>
<trkpt lat="45.9009830" lon="10.2901880">
	<ele>1493.00</ele>
	<time>2025-07-29T07:13:58.000Z</time>
</trkpt>
<trkpt lat="45.9009900" lon="10.2901870">
	<ele>1493.20</ele>
	<time>2025-07-29T07:13:59.000Z</time>
</trkpt>
<trkpt lat="45.9009900" lon="10.2901720">
	<ele>1493.20</ele>
	<time>2025-07-29T07:14:00.000Z</time>
</trkpt>
<trkpt lat="45.9009810" lon="10.2901560">
	<ele>1493.20</ele>
	<time>2025-07-29T07:14:01.000Z</time>
</trkpt>
<trkpt lat="45.9009820" lon="10.2901510">
	<ele>1493.60</ele>
	<time>2025-07-29T07:14:02.000Z</time>
</trkpt>
<trkpt lat="45.9009780" lon="10.2901460">
	<ele>1493.60</ele>
	<time>2025-07-29T07:14:03.000Z</time>
</trkpt>
<trkpt lat="45.9009880" lon="10.2901470">
	<ele>1493.80</ele>
	<time>2025-07-29T07:14:04.000Z</time>
</trkpt>
<trkpt lat="45.9009860" lon="10.2901500">
	<ele>1494.00</ele>
	<time>2025-07-29T07:14:05.000Z</time>
</trkpt>
<trkpt lat="45.9009880" lon="10.2901540">
	<ele>1494.20</ele>
	<time>2025-07-29T07:14:06.000Z</time>
</trkpt>
<trkpt lat="45.9009970" lon="10.2901550">
	<ele>1494.40</ele>
	<time>2025-07-29T07:14:07.000Z</time>
</trkpt>
<trkpt lat="45.9010020" lon="10.2901520">
	<ele>1494.60</ele>
	<time>2025-07-29T07:14:08.000Z</time>
</trkpt>
<trkpt lat="45.9010020" lon="10.2901560">
	<ele>1494.80</ele>
	<time>2025-07-29T07:14:09.000Z</time>
</trkpt>
<trkpt lat="45.9009960" lon="10.2901580">
	<ele>1495.00</ele>
	<time>2025-07-29T07:14:10.000Z</time>
</trkpt>
<trkpt lat="45.9009810" lon="10.2901670">
	<ele>1495.00</ele>
	<time>2025-07-29T07:14:11.000Z</time>
</trkpt>
<trkpt lat="45.9009580" lon="10.2901740">
	<ele>1495.40</ele>
	<time>2025-07-29T07:14:12.000Z</time>
</trkpt>
<trkpt lat="45.9009420" lon="10.2901810">
	<ele>1495.40</ele>
	<time>2025-07-29T07:14:13.000Z</time>
</trkpt>
<trkpt lat="45.9009270" lon="10.2901880">
	<ele>1495.60</ele>
	<time>2025-07-29T07:14:14.000Z</time>
</trkpt>
<trkpt lat="45.9009210" lon="10.2901910">
	<ele>1495.80</ele>
	<time>2025-07-29T07:14:15.000Z</time>
</trkpt>
<trkpt lat="45.9009230" lon="10.2901970">
	<ele>1496.00</ele>
	<time>2025-07-29T07:14:16.000Z</time>
</trkpt>
<trkpt lat="45.9009150" lon="10.2901980">
	<ele>1496.20</ele>
	<time>2025-07-29T07:14:17.000Z</time>
</trkpt>
<trkpt lat="45.9009050" lon="10.2901940">
	<ele>1496.40</ele>
	<time>2025-07-29T07:14:18.000Z</time>
</trkpt>
<trkpt lat="45.9008940" lon="10.2901970">
	<ele>1496.80</ele>
	<time>2025-07-29T07:14:19.000Z</time>
</trkpt>
<trkpt lat="45.9008890" lon="10.2901960">
	<ele>1497.00</ele>
	<time>2025-07-29T07:14:20.000Z</time>
</trkpt>
<trkpt lat="45.9008860" lon="10.2902020">
	<ele>1497.20</ele>
	<time>2025-07-29T07:14:21.000Z</time>
</trkpt>
<trkpt lat="45.9008850" lon="10.2902000">
	<ele>1497.40</ele>
	<time>2025-07-29T07:14:22.000Z</time>
</trkpt>
<trkpt lat="45.9008900" lon="10.2901980">
	<ele>1497.60</ele>
	<time>2025-07-29T07:14:23.000Z</time>
</trkpt>
<trkpt lat="45.9008860" lon="10.2901930">
	<ele>1498.00</ele>
	<time>2025-07-29T07:14:24.000Z</time>
</trkpt>
<trkpt lat="45.9008910" lon="10.2901780">
	<ele>1498.20</ele>
	<time>2025-07-29T07:14:25.000Z</time>
</trkpt>
<trkpt lat="45.9009010" lon="10.2901650">
	<ele>1498.40</ele>
	<time>2025-07-29T07:14:26.000Z</time>
</trkpt>
<trkpt lat="45.9008920" lon="10.2901690">
	<ele>1498.60</ele>
	<time>2025-07-29T07:14:27.000Z</time>
</trkpt>
<trkpt lat="45.9008980" lon="10.2901760">
	<ele>1498.80</ele>
	<time>2025-07-29T07:14:28.000Z</time>
</trkpt>
<trkpt lat="45.9009110" lon="10.2901900">
	<ele>1499.20</ele>
	<time>2025-07-29T07:14:29.000Z</time>
</trkpt>
<trkpt lat="45.9009090" lon="10.2902040">
	<ele>1499.40</ele>
	<time>2025-07-29T07:14:30.000Z</time>
</trkpt>
<trkpt lat="45.9009010" lon="10.2902130">
	<ele>1499.40</ele>
	<time>2025-07-29T07:14:31.000Z</time>
</trkpt>
<trkpt lat="45.9009000" lon="10.2902180">
	<ele>1499.60</ele>
	<time>2025-07-29T07:14:32.000Z</time>
</trkpt>
<trkpt lat="45.9009000" lon="10.2902230">
	<ele>1499.60</ele>
	<time>2025-07-29T07:14:33.000Z</time>
</trkpt>
<trkpt lat="45.9009030" lon="10.2902280">
	<ele>1499.80</ele>
	<time>2025-07-29T07:14:34.000Z</time>
</trkpt>
<trkpt lat="45.9009040" lon="10.2902360">
	<ele>1500.00</ele>
	<time>2025-07-29T07:14:35.000Z</time>
</trkpt>
<trkpt lat="45.9008980" lon="10.2902440">
	<ele>1500.40</ele>
	<time>2025-07-29T07:14:36.000Z</time>
</trkpt>
<trkpt lat="45.9008870" lon="10.2902530">
	<ele>1500.60</ele>
	<time>2025-07-29T07:14:37.000Z</time>
</trkpt>
<trkpt lat="45.9008780" lon="10.2902640">
	<ele>1500.80</ele>
	<time>2025-07-29T07:14:38.000Z</time>
</trkpt>
<trkpt lat="45.9008770" lon="10.2902700">
	<ele>1500.80</ele>
	<time>2025-07-29T07:14:39.000Z</time>
</trkpt>
<trkpt lat="45.9008790" lon="10.2902760">
	<ele>1501.00</ele>
	<time>2025-07-29T07:14:40.000Z</time>
</trkpt>
<trkpt lat="45.9008750" lon="10.2902790">
	<ele>1501.20</ele>
	<time>2025-07-29T07:14:41.000Z</time>
</trkpt>
<trkpt lat="45.9008740" lon="10.2902850">
	<ele>1501.40</ele>
	<time>2025-07-29T07:14:42.000Z</time>
</trkpt>
<trkpt lat="45.9008740" lon="10.2902890">
	<ele>1501.60</ele>
	<time>2025-07-29T07:14:43.000Z</time>
</trkpt>
<trkpt lat="45.9008720" lon="10.2902950">
	<ele>1501.80</ele>
	<time>2025-07-29T07:14:44.000Z</time>
</trkpt>
<trkpt lat="45.9008700" lon="10.2902960">
	<ele>1501.80</ele>
	<time>2025-07-29T07:14:45.000Z</time>
</trkpt>
<trkpt lat="45.9008610" lon="10.2903030">
	<ele>1502.00</ele>
	<time>2025-07-29T07:14:46.000Z</time>
</trkpt>
<trkpt lat="45.9008520" lon="10.2903100">
	<ele>1502.00</ele>
	<time>2025-07-29T07:14:47.000Z</time>
</trkpt>
<trkpt lat="45.9008490" lon="10.2903130">
	<ele>1502.20</ele>
	<time>2025-07-29T07:14:48.000Z</time>
</trkpt>
<trkpt lat="45.9008520" lon="10.2903250">
	<ele>1502.40</ele>
	<time>2025-07-29T07:14:49.000Z</time>
</trkpt>
<trkpt lat="45.9008580" lon="10.2903340">
	<ele>1502.60</ele>
	<time>2025-07-29T07:14:50.000Z</time>
</trkpt>
<trkpt lat="45.9008500" lon="10.2903360">
	<ele>1502.80</ele>
	<time>2025-07-29T07:14:51.000Z</time>
</trkpt>
<trkpt lat="45.9008380" lon="10.2903450">
	<ele>1503.00</ele>
	<time>2025-07-29T07:14:52.000Z</time>
</trkpt>
<trkpt lat="45.9008210" lon="10.2903450">
	<ele>1503.20</ele>
	<time>2025-07-29T07:14:53.000Z</time>
</trkpt>
<trkpt lat="45.9008080" lon="10.2903460">
	<ele>1503.40</ele>
	<time>2025-07-29T07:14:54.000Z</time>
</trkpt>
<trkpt lat="45.9007960" lon="10.2903400">
	<ele>1503.80</ele>
	<time>2025-07-29T07:14:55.000Z</time>
</trkpt>
<trkpt lat="45.9007840" lon="10.2903420">
	<ele>1504.00</ele>
	<time>2025-07-29T07:14:56.000Z</time>
</trkpt>
<trkpt lat="45.9007840" lon="10.2903420">
	<ele>1504.20</ele>
	<time>2025-07-29T07:14:57.000Z</time>
</trkpt>
<trkpt lat="45.9007760" lon="10.2903420">
	<ele>1504.40</ele>
	<time>2025-07-29T07:14:58.000Z</time>
</trkpt>
<trkpt lat="45.9007760" lon="10.2903480">
	<ele>1504.60</ele>
	<time>2025-07-29T07:14:59.000Z</time>
</trkpt>
<trkpt lat="45.9007660" lon="10.2903570">
	<ele>1504.80</ele>
	<time>2025-07-29T07:15:00.000Z</time>
</trkpt>
<trkpt lat="45.9007450" lon="10.2903620">
	<ele>1505.00</ele>
	<time>2025-07-29T07:15:01.000Z</time>
</trkpt>
<trkpt lat="45.9007340" lon="10.2903720">
	<ele>1505.20</ele>
	<time>2025-07-29T07:15:02.000Z</time>
</trkpt>
<trkpt lat="45.9007260" lon="10.2903770">
	<ele>1505.40</ele>
	<time>2025-07-29T07:15:03.000Z</time>
</trkpt>
<trkpt lat="45.9007240" lon="10.2903810">
	<ele>1505.60</ele>
	<time>2025-07-29T07:15:04.000Z</time>
</trkpt>
<trkpt lat="45.9007230" lon="10.2903820">
	<ele>1506.00</ele>
	<time>2025-07-29T07:15:05.000Z</time>
</trkpt>
<trkpt lat="45.9007120" lon="10.2903850">
	<ele>1506.20</ele>
	<time>2025-07-29T07:15:06.000Z</time>
</trkpt>
<trkpt lat="45.9007010" lon="10.2903810">
	<ele>1506.40</ele>
	<time>2025-07-29T07:15:07.000Z</time>
</trkpt>
<trkpt lat="45.9006980" lon="10.2903800">
	<ele>1506.60</ele>
	<time>2025-07-29T07:15:08.000Z</time>
</trkpt>
<trkpt lat="45.9006960" lon="10.2903780">
	<ele>1506.80</ele>
	<time>2025-07-29T07:15:09.000Z</time>
</trkpt>
<trkpt lat="45.9006910" lon="10.2903820">
	<ele>1507.00</ele>
	<time>2025-07-29T07:15:10.000Z</time>
</trkpt>
<trkpt lat="45.9006790" lon="10.2903910">
	<ele>1507.20</ele>
	<time>2025-07-29T07:15:11.000Z</time>
</trkpt>
<trkpt lat="45.9006740" lon="10.2904060">
	<ele>1507.20</ele>
	<time>2025-07-29T07:15:12.000Z</time>
</trkpt>
<trkpt lat="45.9006730" lon="10.2904080">
	<ele>1507.40</ele>
	<time>2025-07-29T07:15:13.000Z</time>
</trkpt>
<trkpt lat="45.9006610" lon="10.2904110">
	<ele>1507.60</ele>
	<time>2025-07-29T07:15:14.000Z</time>
</trkpt>
<trkpt lat="45.9006570" lon="10.2904140">
	<ele>1507.60</ele>
	<time>2025-07-29T07:15:15.000Z</time>
</trkpt>
<trkpt lat="45.9006460" lon="10.2904130">
	<ele>1507.80</ele>
	<time>2025-07-29T07:15:16.000Z</time>
</trkpt>
<trkpt lat="45.9006370" lon="10.2904040">
	<ele>1508.00</ele>
	<time>2025-07-29T07:15:17.000Z</time>
</trkpt>
<trkpt lat="45.9006340" lon="10.2904010">
	<ele>1508.20</ele>
	<time>2025-07-29T07:15:18.000Z</time>
</trkpt>
<trkpt lat="45.9006430" lon="10.2903930">
	<ele>1508.20</ele>
	<time>2025-07-29T07:15:19.000Z</time>
</trkpt>
<trkpt lat="45.9006590" lon="10.2903860">
	<ele>1508.60</ele>
	<time>2025-07-29T07:15:20.000Z</time>
</trkpt>
<trkpt lat="45.9006590" lon="10.2903840">
	<ele>1508.80</ele>
	<time>2025-07-29T07:15:21.000Z</time>
</trkpt>
<trkpt lat="45.9006650" lon="10.2903820">
	<ele>1509.00</ele>
	<time>2025-07-29T07:15:22.000Z</time>
</trkpt>
<trkpt lat="45.9006700" lon="10.2903910">
	<ele>1509.00</ele>
	<time>2025-07-29T07:15:23.000Z</time>
</trkpt>
<trkpt lat="45.9006770" lon="10.2904200">
	<ele>1509.20</ele>
	<time>2025-07-29T07:15:24.000Z</time>
</trkpt>
<trkpt lat="45.9006790" lon="10.2904240">
	<ele>1509.40</ele>
	<time>2025-07-29T07:15:25.000Z</time>
</trkpt>
<trkpt lat="45.9006660" lon="10.2904220">
	<ele>1509.40</ele>
	<time>2025-07-29T07:15:26.000Z</time>
</trkpt>
<trkpt lat="45.9006660" lon="10.2904080">
	<ele>1509.60</ele>
	<time>2025-07-29T07:15:27.000Z</time>
</trkpt>
<trkpt lat="45.9006660" lon="10.2904130">
	<ele>1509.60</ele>
	<time>2025-07-29T07:15:28.000Z</time>
</trkpt>
<trkpt lat="45.9006670" lon="10.2904130">
	<ele>1509.80</ele>
	<time>2025-07-29T07:15:29.000Z</time>
</trkpt>
<trkpt lat="45.9006670" lon="10.2904130">
	<ele>1510.00</ele>
	<time>2025-07-29T07:15:30.000Z</time>
</trkpt>
<trkpt lat="45.9006670" lon="10.2904130">
	<ele>1510.20</ele>
	<time>2025-07-29T07:15:31.000Z</time>
</trkpt>
<trkpt lat="45.9006670" lon="10.2904130">
	<ele>1510.40</ele>
	<time>2025-07-29T07:15:32.000Z</time>
</trkpt>
<trkpt lat="45.9006670" lon="10.2904130">
	<ele>1510.60</ele>
	<time>2025-07-29T07:15:33.000Z</time>
</trkpt>
<trkpt lat="45.9006670" lon="10.2904130">
	<ele>1510.80</ele>
	<time>2025-07-29T07:15:34.000Z</time>
</trkpt>
<trkpt lat="45.9006670" lon="10.2904130">
	<ele>1511.00</ele>
	<time>2025-07-29T07:15:35.000Z</time>
</trkpt>
<trkpt lat="45.9006660" lon="10.2904100">
	<ele>1511.20</ele>
	<time>2025-07-29T07:15:36.000Z</time>
</trkpt>
<trkpt lat="45.9006520" lon="10.2904050">
	<ele>1511.20</ele>
	<time>2025-07-29T07:15:37.000Z</time>
</trkpt>
<trkpt lat="45.9006440" lon="10.2904030">
	<ele>1511.60</ele>
	<time>2025-07-29T07:15:38.000Z</time>
</trkpt>
<trkpt lat="45.9006370" lon="10.2903990">
	<ele>1511.80</ele>
	<time>2025-07-29T07:15:39.000Z</time>
</trkpt>
<trkpt lat="45.9006270" lon="10.2903940">
	<ele>1511.80</ele>
	<time>2025-07-29T07:15:40.000Z</time>
</trkpt>
<trkpt lat="45.9006170" lon="10.2903840">
	<ele>1512.00</ele>
	<time>2025-07-29T07:15:41.000Z</time>
</trkpt>
<trkpt lat="45.9006050" lon="10.2903800">
	<ele>1512.20</ele>
	<time>2025-07-29T07:15:42.000Z</time>
</trkpt>
<trkpt lat="45.9005980" lon="10.2903750">
	<ele>1512.40</ele>
	<time>2025-07-29T07:15:43.000Z</time>
</trkpt>
<trkpt lat="45.9005980" lon="10.2903700">
	<ele>1512.60</ele>
	<time>2025-07-29T07:15:44.000Z</time>
</trkpt>
<trkpt lat="45.9005860" lon="10.2903620">
	<ele>1512.80</ele>
	<time>2025-07-29T07:15:45.000Z</time>
</trkpt>
<trkpt lat="45.9005770" lon="10.2903470">
	<ele>1513.00</ele>
	<time>2025-07-29T07:15:46.000Z</time>
</trkpt>
<trkpt lat="45.9005730" lon="10.2903340">
	<ele>1513.00</ele>
	<time>2025-07-29T07:15:47.000Z</time>
</trkpt>
<trkpt lat="45.9005670" lon="10.2903240">
	<ele>1513.00</ele>
	<time>2025-07-29T07:15:48.000Z</time>
</trkpt>
<trkpt lat="45.9005660" lon="10.2903140">
	<ele>1513.20</ele>
	<time>2025-07-29T07:15:49.000Z</time>
</trkpt>
<trkpt lat="45.9005710" lon="10.2903090">
	<ele>1513.20</ele>
	<time>2025-07-29T07:15:50.000Z</time>
</trkpt>
<trkpt lat="45.9005760" lon="10.2903090">
	<ele>1513.40</ele>
	<time>2025-07-29T07:15:51.000Z</time>
</trkpt>
<trkpt lat="45.9005760" lon="10.2903080">
	<ele>1513.40</ele>
	<time>2025-07-29T07:15:52.000Z</time>
</trkpt>
<trkpt lat="45.9005740" lon="10.2903050">
	<ele>1513.60</ele>
	<time>2025-07-29T07:15:53.000Z</time>
</trkpt>
<trkpt lat="45.9005700" lon="10.2902910">
	<ele>1513.60</ele>
	<time>2025-07-29T07:15:54.000Z</time>
</trkpt>
<trkpt lat="45.9005700" lon="10.2902830">
	<ele>1513.80</ele>
	<time>2025-07-29T07:15:55.000Z</time>
</trkpt>
<trkpt lat="45.9005740" lon="10.2902720">
	<ele>1514.00</ele>
	<time>2025-07-29T07:15:56.000Z</time>
</trkpt>
<trkpt lat="45.9005750" lon="10.2902590">
	<ele>1514.20</ele>
	<time>2025-07-29T07:15:57.000Z</time>
</trkpt>
<trkpt lat="45.9005720" lon="10.2902500">
	<ele>1514.20</ele>
	<time>2025-07-29T07:15:58.000Z</time>
</trkpt>
<trkpt lat="45.9005730" lon="10.2902480">
	<ele>1514.40</ele>
	<time>2025-07-29T07:15:59.000Z</time>
</trkpt>
<trkpt lat="45.9005710" lon="10.2902470">
	<ele>1514.60</ele>
	<time>2025-07-29T07:16:00.000Z</time>
</trkpt>
<trkpt lat="45.9005630" lon="10.2902410">
	<ele>1514.80</ele>
	<time>2025-07-29T07:16:01.000Z</time>
</trkpt>
<trkpt lat="45.9005580" lon="10.2902410">
	<ele>1515.00</ele>
	<time>2025-07-29T07:16:02.000Z</time>
</trkpt>
<trkpt lat="45.9005560" lon="10.2902400">
	<ele>1515.00</ele>
	<time>2025-07-29T07:16:03.000Z</time>
</trkpt>
<trkpt lat="45.9005500" lon="10.2902380">
	<ele>1515.20</ele>
	<time>2025-07-29T07:16:04.000Z</time>
</trkpt>
<trkpt lat="45.9005540" lon="10.2902350">
	<ele>1515.20</ele>
	<time>2025-07-29T07:16:05.000Z</time>
</trkpt>
<trkpt lat="45.9005610" lon="10.2902310">
	<ele>1515.40</ele>
	<time>2025-07-29T07:16:06.000Z</time>
</trkpt>
<trkpt lat="45.9005620" lon="10.2902220">
	<ele>1515.40</ele>
	<time>2025-07-29T07:16:07.000Z</time>
</trkpt>
<trkpt lat="45.9005510" lon="10.2902190">
	<ele>1515.60</ele>
	<time>2025-07-29T07:16:08.000Z</time>
</trkpt>
<trkpt lat="45.9005360" lon="10.2902050">
	<ele>1516.00</ele>
	<time>2025-07-29T07:16:09.000Z</time>
</trkpt>
<trkpt lat="45.9005210" lon="10.2901930">
	<ele>1516.20</ele>
	<time>2025-07-29T07:16:10.000Z</time>
</trkpt>
<trkpt lat="45.9005040" lon="10.2901820">
	<ele>1516.20</ele>
	<time>2025-07-29T07:16:11.000Z</time>
</trkpt>
<trkpt lat="45.9004820" lon="10.2901730">
	<ele>1516.40</ele>
	<time>2025-07-29T07:16:12.000Z</time>
</trkpt>
<trkpt lat="45.9004730" lon="10.2901610">
	<ele>1516.60</ele>
	<time>2025-07-29T07:16:13.000Z</time>
</trkpt>
<trkpt lat="45.9004660" lon="10.2901550">
	<ele>1517.00</ele>
	<time>2025-07-29T07:16:14.000Z</time>
</trkpt>
<trkpt lat="45.9004670" lon="10.2901540">
	<ele>1517.00</ele>
	<time>2025-07-29T07:16:15.000Z</time>
</trkpt>
<trkpt lat="45.9004670" lon="10.2901510">
	<ele>1517.20</ele>
	<time>2025-07-29T07:16:16.000Z</time>
</trkpt>
<trkpt lat="45.9004690" lon="10.2901470">
	<ele>1517.20</ele>
	<time>2025-07-29T07:16:17.000Z</time>
</trkpt>
<trkpt lat="45.9004740" lon="10.2901450">
	<ele>1517.20</ele>
	<time>2025-07-29T07:16:18.000Z</time>
</trkpt>
<trkpt lat="45.9004860" lon="10.2901480">
	<ele>1517.20</ele>
	<time>2025-07-29T07:16:19.000Z</time>
</trkpt>
<trkpt lat="45.9004930" lon="10.2901560">
	<ele>1517.40</ele>
	<time>2025-07-29T07:16:20.000Z</time>
</trkpt>
<trkpt lat="45.9004960" lon="10.2901550">
	<ele>1517.40</ele>
	<time>2025-07-29T07:16:21.000Z</time>
</trkpt>
<trkpt lat="45.9004940" lon="10.2901510">
	<ele>1517.60</ele>
	<time>2025-07-29T07:16:22.000Z</time>
</trkpt>
<trkpt lat="45.9004970" lon="10.2901500">
	<ele>1517.80</ele>
	<time>2025-07-29T07:16:23.000Z</time>
</trkpt>
<trkpt lat="45.9004970" lon="10.2901570">
	<ele>1517.80</ele>
	<time>2025-07-29T07:16:24.000Z</time>
</trkpt>
<trkpt lat="45.9004830" lon="10.2901580">
	<ele>1518.00</ele>
	<time>2025-07-29T07:16:25.000Z</time>
</trkpt>
<trkpt lat="45.9004790" lon="10.2901610">
	<ele>1518.20</ele>
	<time>2025-07-29T07:16:26.000Z</time>
</trkpt>
<trkpt lat="45.9004840" lon="10.2901480">
	<ele>1518.40</ele>
	<time>2025-07-29T07:16:27.000Z</time>
</trkpt>
<trkpt lat="45.9004840" lon="10.2901320">
	<ele>1518.80</ele>
	<time>2025-07-29T07:16:28.000Z</time>
</trkpt>
<trkpt lat="45.9004750" lon="10.2901210">
	<ele>1518.80</ele>
	<time>2025-07-29T07:16:29.000Z</time>
</trkpt>
<trkpt lat="45.9004670" lon="10.2901100">
	<ele>1519.00</ele>
	<time>2025-07-29T07:16:30.000Z</time>
</trkpt>
<trkpt lat="45.9004620" lon="10.2900990">
	<ele>1519.20</ele>
	<time>2025-07-29T07:16:31.000Z</time>
</trkpt>
<trkpt lat="45.9004480" lon="10.2900850">
	<ele>1519.20</ele>
	<time>2025-07-29T07:16:32.000Z</time>
</trkpt>
<trkpt lat="45.9004210" lon="10.2900770">
	<ele>1519.40</ele>
	<time>2025-07-29T07:16:33.000Z</time>
</trkpt>
<trkpt lat="45.9004090" lon="10.2900680">
	<ele>1519.60</ele>
	<time>2025-07-29T07:16:34.000Z</time>
</trkpt>
<trkpt lat="45.9003940" lon="10.2900610">
	<ele>1519.80</ele>
	<time>2025-07-29T07:16:35.000Z</time>
</trkpt>
<trkpt lat="45.9003810" lon="10.2900540">
	<ele>1520.00</ele>
	<time>2025-07-29T07:16:36.000Z</time>
</trkpt>
<trkpt lat="45.9003700" lon="10.2900470">
	<ele>1520.20</ele>
	<time>2025-07-29T07:16:37.000Z</time>
</trkpt>
<trkpt lat="45.9003590" lon="10.2900420">
	<ele>1520.20</ele>
	<time>2025-07-29T07:16:38.000Z</time>
</trkpt>
<trkpt lat="45.9003500" lon="10.2900370">
	<ele>1520.40</ele>
	<time>2025-07-29T07:16:39.000Z</time>
</trkpt>
<trkpt lat="45.9003420" lon="10.2900270">
	<ele>1520.60</ele>
	<time>2025-07-29T07:16:40.000Z</time>
</trkpt>
<trkpt lat="45.9003340" lon="10.2900170">
	<ele>1520.80</ele>
	<time>2025-07-29T07:16:41.000Z</time>
</trkpt>
<trkpt lat="45.9003260" lon="10.2900030">
	<ele>1521.00</ele>
	<time>2025-07-29T07:16:42.000Z</time>
</trkpt>
<trkpt lat="45.9003170" lon="10.2899920">
	<ele>1521.40</ele>
	<time>2025-07-29T07:16:43.000Z</time>
</trkpt>
<trkpt lat="45.9003070" lon="10.2899790">
	<ele>1521.60</ele>
	<time>2025-07-29T07:16:44.000Z</time>
</trkpt>
<trkpt lat="45.9002950" lon="10.2899740">
	<ele>1521.60</ele>
	<time>2025-07-29T07:16:45.000Z</time>
</trkpt>
<trkpt lat="45.9002830" lon="10.2899710">
	<ele>1521.80</ele>
	<time>2025-07-29T07:16:46.000Z</time>
</trkpt>
<trkpt lat="45.9002730" lon="10.2899650">
	<ele>1522.00</ele>
	<time>2025-07-29T07:16:47.000Z</time>
</trkpt>
<trkpt lat="45.9002590" lon="10.2899600">
	<ele>1522.00</ele>
	<time>2025-07-29T07:16:48.000Z</time>
</trkpt>
<trkpt lat="45.9002550" lon="10.2899590">
	<ele>1522.20</ele>
	<time>2025-07-29T07:16:49.000Z</time>
</trkpt>
<trkpt lat="45.9002490" lon="10.2899520">
	<ele>1522.40</ele>
	<time>2025-07-29T07:16:50.000Z</time>
</trkpt>
<trkpt lat="45.9002390" lon="10.2899460">
	<ele>1522.60</ele>
	<time>2025-07-29T07:16:51.000Z</time>
</trkpt>
<trkpt lat="45.9002280" lon="10.2899420">
	<ele>1522.80</ele>
	<time>2025-07-29T07:16:52.000Z</time>
</trkpt>
<trkpt lat="45.9002180" lon="10.2899470">
	<ele>1523.00</ele>
	<time>2025-07-29T07:16:53.000Z</time>
</trkpt>
<trkpt lat="45.9002180" lon="10.2899580">
	<ele>1523.00</ele>
	<time>2025-07-29T07:16:54.000Z</time>
</trkpt>
<trkpt lat="45.9002170" lon="10.2899660">
	<ele>1523.20</ele>
	<time>2025-07-29T07:16:55.000Z</time>
</trkpt>
<trkpt lat="45.9002160" lon="10.2899680">
	<ele>1523.40</ele>
	<time>2025-07-29T07:16:56.000Z</time>
</trkpt>
<trkpt lat="45.9002110" lon="10.2899780">
	<ele>1523.60</ele>
	<time>2025-07-29T07:16:57.000Z</time>
</trkpt>
<trkpt lat="45.9002050" lon="10.2899840">
	<ele>1523.80</ele>
	<time>2025-07-29T07:16:58.000Z</time>
</trkpt>
<trkpt lat="45.9001990" lon="10.2899830">
	<ele>1524.00</ele>
	<time>2025-07-29T07:16:59.000Z</time>
</trkpt>
<trkpt lat="45.9001970" lon="10.2899790">
	<ele>1524.20</ele>
	<time>2025-07-29T07:17:00.000Z</time>
</trkpt>
<trkpt lat="45.9002050" lon="10.2899630">
	<ele>1524.20</ele>
	<time>2025-07-29T07:17:01.000Z</time>
</trkpt>
<trkpt lat="45.9002180" lon="10.2899460">
	<ele>1524.40</ele>
	<time>2025-07-29T07:17:02.000Z</time>
</trkpt>
<trkpt lat="45.9002140" lon="10.2899410">
	<ele>1524.60</ele>
	<time>2025-07-29T07:17:03.000Z</time>
</trkpt>
<trkpt lat="45.9002090" lon="10.2899450">
	<ele>1524.80</ele>
	<time>2025-07-29T07:17:04.000Z</time>
</trkpt>
<trkpt lat="45.9002040" lon="10.2899410">
	<ele>1524.80</ele>
	<time>2025-07-29T07:17:05.000Z</time>
</trkpt>
<trkpt lat="45.9002020" lon="10.2899410">
	<ele>1525.00</ele>
	<time>2025-07-29T07:17:06.000Z</time>
</trkpt>
<trkpt lat="45.9001980" lon="10.2899370">
	<ele>1525.20</ele>
	<time>2025-07-29T07:17:07.000Z</time>
</trkpt>
<trkpt lat="45.9001970" lon="10.2899300">
	<ele>1525.40</ele>
	<time>2025-07-29T07:17:08.000Z</time>
</trkpt>
<trkpt lat="45.9001950" lon="10.2899210">
	<ele>1525.60</ele>
	<time>2025-07-29T07:17:09.000Z</time>
</trkpt>
<trkpt lat="45.9001960" lon="10.2899130">
	<ele>1525.80</ele>
	<time>2025-07-29T07:17:10.000Z</time>
</trkpt>
<trkpt lat="45.9002010" lon="10.2899040">
	<ele>1526.00</ele>
	<time>2025-07-29T07:17:11.000Z</time>
</trkpt>
<trkpt lat="45.9002070" lon="10.2898990">
	<ele>1526.20</ele>
	<time>2025-07-29T07:17:12.000Z</time>
</trkpt>
<trkpt lat="45.9002080" lon="10.2898980">
	<ele>1526.40</ele>
	<time>2025-07-29T07:17:13.000Z</time>
</trkpt>
<trkpt lat="45.9002240" lon="10.2898940">
	<ele>1526.80</ele>
	<time>2025-07-29T07:17:14.000Z</time>
</trkpt>
<trkpt lat="45.9002280" lon="10.2898790">
	<ele>1527.00</ele>
	<time>2025-07-29T07:17:15.000Z</time>
</trkpt>
<trkpt lat="45.9002230" lon="10.2898780">
	<ele>1527.00</ele>
	<time>2025-07-29T07:17:16.000Z</time>
</trkpt>
<trkpt lat="45.9002130" lon="10.2898760">
	<ele>1527.20</ele>
	<time>2025-07-29T07:17:17.000Z</time>
</trkpt>
<trkpt lat="45.9002050" lon="10.2898750">
	<ele>1527.40</ele>
	<time>2025-07-29T07:17:18.000Z</time>
</trkpt>
<trkpt lat="45.9001940" lon="10.2898700">
	<ele>1527.40</ele>
	<time>2025-07-29T07:17:19.000Z</time>
</trkpt>
<trkpt lat="45.9001830" lon="10.2898660">
	<ele>1527.40</ele>
	<time>2025-07-29T07:17:20.000Z</time>
</trkpt>
<trkpt lat="45.9001800" lon="10.2898730">
	<ele>1527.60</ele>
	<time>2025-07-29T07:17:21.000Z</time>
</trkpt>
<trkpt lat="45.9001780" lon="10.2898720">
	<ele>1527.60</ele>
	<time>2025-07-29T07:17:22.000Z</time>
</trkpt>
<trkpt lat="45.9001820" lon="10.2898680">
	<ele>1527.80</ele>
	<time>2025-07-29T07:17:23.000Z</time>
</trkpt>
<trkpt lat="45.9001800" lon="10.2898550">
	<ele>1528.00</ele>
	<time>2025-07-29T07:17:24.000Z</time>
</trkpt>
<trkpt lat="45.9001730" lon="10.2898500">
	<ele>1528.00</ele>
	<time>2025-07-29T07:17:25.000Z</time>
</trkpt>
<trkpt lat="45.9001620" lon="10.2898400">
	<ele>1528.20</ele>
	<time>2025-07-29T07:17:26.000Z</time>
</trkpt>
<trkpt lat="45.9001580" lon="10.2898300">
	<ele>1528.40</ele>
	<time>2025-07-29T07:17:27.000Z</time>
</trkpt>
<trkpt lat="45.9001560" lon="10.2898250">
	<ele>1528.60</ele>
	<time>2025-07-29T07:17:28.000Z</time>
</trkpt>
<trkpt lat="45.9001580" lon="10.2898250">
	<ele>1528.60</ele>
	<time>2025-07-29T07:17:29.000Z</time>
</trkpt>
<trkpt lat="45.9001620" lon="10.2898200">
	<ele>1528.80</ele>
	<time>2025-07-29T07:17:30.000Z</time>
</trkpt>
<trkpt lat="45.9001630" lon="10.2898120">
	<ele>1529.00</ele>
	<time>2025-07-29T07:17:31.000Z</time>
</trkpt>
<trkpt lat="45.9001690" lon="10.2897970">
	<ele>1529.00</ele>
	<time>2025-07-29T07:17:32.000Z</time>
</trkpt>
<trkpt lat="45.9001780" lon="10.2897940">
	<ele>1529.20</ele>
	<time>2025-07-29T07:17:33.000Z</time>
</trkpt>
<trkpt lat="45.9001810" lon="10.2897880">
	<ele>1529.40</ele>
	<time>2025-07-29T07:17:34.000Z</time>
</trkpt>
<trkpt lat="45.9001900" lon="10.2897800">
	<ele>1529.60</ele>
	<time>2025-07-29T07:17:35.000Z</time>
</trkpt>
<trkpt lat="45.9002000" lon="10.2897670">
	<ele>1529.60</ele>
	<time>2025-07-29T07:17:36.000Z</time>
</trkpt>
<trkpt lat="45.9002010" lon="10.2897570">
	<ele>1529.80</ele>
	<time>2025-07-29T07:17:37.000Z</time>
</trkpt>
<trkpt lat="45.9001950" lon="10.2897540">
	<ele>1530.00</ele>
	<time>2025-07-29T07:17:38.000Z</time>
</trkpt>
<trkpt lat="45.9001990" lon="10.2897560">
	<ele>1530.20</ele>
	<time>2025-07-29T07:17:39.000Z</time>
</trkpt>
<trkpt lat="45.9001970" lon="10.2897540">
	<ele>1530.20</ele>
	<time>2025-07-29T07:17:40.000Z</time>
</trkpt>
<trkpt lat="45.9002110" lon="10.2897520">
	<ele>1530.40</ele>
	<time>2025-07-29T07:17:41.000Z</time>
</trkpt>
<trkpt lat="45.9002200" lon="10.2897450">
	<ele>1530.60</ele>
	<time>2025-07-29T07:17:42.000Z</time>
</trkpt>
<trkpt lat="45.9002100" lon="10.2897380">
	<ele>1530.80</ele>
	<time>2025-07-29T07:17:43.000Z</time>
</trkpt>
<trkpt lat="45.9001970" lon="10.2897320">
	<ele>1531.00</ele>
	<time>2025-07-29T07:17:44.000Z</time>
</trkpt>
<trkpt lat="45.9001790" lon="10.2897180">
	<ele>1531.20</ele>
	<time>2025-07-29T07:17:45.000Z</time>
</trkpt>
<trkpt lat="45.9001740" lon="10.2897120">
	<ele>1531.20</ele>
	<time>2025-07-29T07:17:46.000Z</time>
</trkpt>
<trkpt lat="45.9001540" lon="10.2897010">
	<ele>1531.40</ele>
	<time>2025-07-29T07:17:47.000Z</time>
</trkpt>
<trkpt lat="45.9001320" lon="10.2897000">
	<ele>1531.60</ele>
	<time>2025-07-29T07:17:48.000Z</time>
</trkpt>
<trkpt lat="45.9001260" lon="10.2896890">
	<ele>1531.80</ele>
	<time>2025-07-29T07:17:49.000Z</time>
</trkpt>
<trkpt lat="45.9001190" lon="10.2896920">
	<ele>1532.20</ele>
	<time>2025-07-29T07:17:50.000Z</time>
</trkpt>
<trkpt lat="45.9001320" lon="10.2896840">
	<ele>1532.40</ele>
	<time>2025-07-29T07:17:51.000Z</time>
</trkpt>
<trkpt lat="45.9001440" lon="10.2896600">
	<ele>1532.60</ele>
	<time>2025-07-29T07:17:52.000Z</time>
</trkpt>
<trkpt lat="45.9001600" lon="10.2896380">
	<ele>1532.60</ele>
	<time>2025-07-29T07:17:53.000Z</time>
</trkpt>
<trkpt lat="45.9001570" lon="10.2896270">
	<ele>1532.80</ele>
	<time>2025-07-29T07:17:54.000Z</time>
</trkpt>
<trkpt lat="45.9001500" lon="10.2896200">
	<ele>1532.80</ele>
	<time>2025-07-29T07:17:55.000Z</time>
</trkpt>
<trkpt lat="45.9001500" lon="10.2896160">
	<ele>1533.00</ele>
	<time>2025-07-29T07:17:56.000Z</time>
</trkpt>
<trkpt lat="45.9001500" lon="10.2896140">
	<ele>1533.20</ele>
	<time>2025-07-29T07:17:57.000Z</time>
</trkpt>
<trkpt lat="45.9001500" lon="10.2896120">
	<ele>1533.40</ele>
	<time>2025-07-29T07:17:58.000Z</time>
</trkpt>
<trkpt lat="45.9001520" lon="10.2896020">
	<ele>1533.60</ele>
	<time>2025-07-29T07:17:59.000Z</time>
</trkpt>
<trkpt lat="45.9001440" lon="10.2895910">
	<ele>1534.00</ele>
	<time>2025-07-29T07:18:00.000Z</time>
</trkpt>
<trkpt lat="45.9001550" lon="10.2895790">
	<ele>1534.00</ele>
	<time>2025-07-29T07:18:01.000Z</time>
</trkpt>
<trkpt lat="45.9001470" lon="10.2895780">
	<ele>1534.20</ele>
	<time>2025-07-29T07:18:02.000Z</time>
</trkpt>
<trkpt lat="45.9001370" lon="10.2895740">
	<ele>1534.20</ele>
	<time>2025-07-29T07:18:03.000Z</time>
</trkpt>
<trkpt lat="45.9001340" lon="10.2895760">
	<ele>1534.40</ele>
	<time>2025-07-29T07:18:04.000Z</time>
</trkpt>
<trkpt lat="45.9001300" lon="10.2895730">
	<ele>1534.60</ele>
	<time>2025-07-29T07:18:05.000Z</time>
</trkpt>
<trkpt lat="45.9001400" lon="10.2895620">
	<ele>1534.80</ele>
	<time>2025-07-29T07:18:06.000Z</time>
</trkpt>
<trkpt lat="45.9001440" lon="10.2895560">
	<ele>1535.00</ele>
	<time>2025-07-29T07:18:07.000Z</time>
</trkpt>
<trkpt lat="45.9001450" lon="10.2895420">
	<ele>1535.20</ele>
	<time>2025-07-29T07:18:08.000Z</time>
</trkpt>
<trkpt lat="45.9001460" lon="10.2895320">
	<ele>1535.40</ele>
	<time>2025-07-29T07:18:09.000Z</time>
</trkpt>
<trkpt lat="45.9001470" lon="10.2895220">
	<ele>1535.60</ele>
	<time>2025-07-29T07:18:10.000Z</time>
</trkpt>
<trkpt lat="45.9001470" lon="10.2895110">
	<ele>1535.80</ele>
	<time>2025-07-29T07:18:11.000Z</time>
</trkpt>
<trkpt lat="45.9001450" lon="10.2895060">
	<ele>1536.00</ele>
	<time>2025-07-29T07:18:12.000Z</time>
</trkpt>
<trkpt lat="45.9001360" lon="10.2894960">
	<ele>1536.20</ele>
	<time>2025-07-29T07:18:13.000Z</time>
</trkpt>
<trkpt lat="45.9001210" lon="10.2894860">
	<ele>1536.20</ele>
	<time>2025-07-29T07:18:14.000Z</time>
</trkpt>
<trkpt lat="45.9001140" lon="10.2894820">
	<ele>1536.60</ele>
	<time>2025-07-29T07:18:15.000Z</time>
</trkpt>
<trkpt lat="45.9001130" lon="10.2894760">
	<ele>1536.60</ele>
	<time>2025-07-29T07:18:16.000Z</time>
</trkpt>
<trkpt lat="45.9001050" lon="10.2894630">
	<ele>1536.80</ele>
	<time>2025-07-29T07:18:17.000Z</time>
</trkpt>
<trkpt lat="45.9001050" lon="10.2894550">
	<ele>1537.00</ele>
	<time>2025-07-29T07:18:18.000Z</time>
</trkpt>
<trkpt lat="45.9001010" lon="10.2894380">
	<ele>1537.00</ele>
	<time>2025-07-29T07:18:19.000Z</time>
</trkpt>
<trkpt lat="45.9000850" lon="10.2894260">
	<ele>1537.20</ele>
	<time>2025-07-29T07:18:20.000Z</time>
</trkpt>
<trkpt lat="45.9000610" lon="10.2894210">
	<ele>1537.40</ele>
	<time>2025-07-29T07:18:21.000Z</time>
</trkpt>
<trkpt lat="45.9000380" lon="10.2894160">
	<ele>1537.60</ele>
	<time>2025-07-29T07:18:22.000Z</time>
</trkpt>
<trkpt lat="45.9000290" lon="10.2894100">
	<ele>1537.80</ele>
	<time>2025-07-29T07:18:23.000Z</time>
</trkpt>
<trkpt lat="45.9000270" lon="10.2894020">
	<ele>1538.20</ele>
	<time>2025-07-29T07:18:24.000Z</time>
</trkpt>
<trkpt lat="45.9000400" lon="10.2893970">
	<ele>1538.40</ele>
	<time>2025-07-29T07:18:25.000Z</time>
</trkpt>
<trkpt lat="45.9000510" lon="10.2893900">
	<ele>1538.40</ele>
	<time>2025-07-29T07:18:26.000Z</time>
</trkpt>
<trkpt lat="45.9000540" lon="10.2893760">
	<ele>1538.60</ele>
	<time>2025-07-29T07:18:27.000Z</time>
</trkpt>
<trkpt lat="45.9000520" lon="10.2893660">
	<ele>1538.80</ele>
	<time>2025-07-29T07:18:28.000Z</time>
</trkpt>
<trkpt lat="45.9000380" lon="10.2893510">
	<ele>1539.00</ele>
	<time>2025-07-29T07:18:29.000Z</time>
</trkpt>
<trkpt lat="45.9000350" lon="10.2893450">
	<ele>1539.40</ele>
	<time>2025-07-29T07:18:30.000Z</time>
</trkpt>
<trkpt lat="45.9000240" lon="10.2893370">
	<ele>1539.60</ele>
	<time>2025-07-29T07:18:31.000Z</time>
</trkpt>
<trkpt lat="45.9000120" lon="10.2893350">
	<ele>1539.80</ele>
	<time>2025-07-29T07:18:32.000Z</time>
</trkpt>
<trkpt lat="45.9000100" lon="10.2893340">
	<ele>1540.20</ele>
	<time>2025-07-29T07:18:33.000Z</time>
</trkpt>
<trkpt lat="45.9000180" lon="10.2893310">
	<ele>1540.40</ele>
	<time>2025-07-29T07:18:34.000Z</time>
</trkpt>
<trkpt lat="45.9000260" lon="10.2893250">
	<ele>1540.40</ele>
	<time>2025-07-29T07:18:35.000Z</time>
</trkpt>
<trkpt lat="45.9000270" lon="10.2893190">
	<ele>1540.60</ele>
	<time>2025-07-29T07:18:36.000Z</time>
</trkpt>
<trkpt lat="45.9000230" lon="10.2893150">
	<ele>1540.80</ele>
	<time>2025-07-29T07:18:37.000Z</time>
</trkpt>
<trkpt lat="45.9000150" lon="10.2893080">
	<ele>1541.00</ele>
	<time>2025-07-29T07:18:38.000Z</time>
</trkpt>
<trkpt lat="45.9000020" lon="10.2892940">
	<ele>1541.20</ele>
	<time>2025-07-29T07:18:39.000Z</time>
</trkpt>
<trkpt lat="45.8999870" lon="10.2892900">
	<ele>1541.40</ele>
	<time>2025-07-29T07:18:40.000Z</time>
</trkpt>
<trkpt lat="45.8999700" lon="10.2892890">
	<ele>1541.40</ele>
	<time>2025-07-29T07:18:41.000Z</time>
</trkpt>
<trkpt lat="45.8999560" lon="10.2892870">
	<ele>1541.60</ele>
	<time>2025-07-29T07:18:42.000Z</time>
</trkpt>
<trkpt lat="45.8999520" lon="10.2892780">
	<ele>1541.80</ele>
	<time>2025-07-29T07:18:43.000Z</time>
</trkpt>
<trkpt lat="45.8999480" lon="10.2892650">
	<ele>1542.00</ele>
	<time>2025-07-29T07:18:44.000Z</time>
</trkpt>
<trkpt lat="45.8999510" lon="10.2892490">
	<ele>1542.20</ele>
	<time>2025-07-29T07:18:45.000Z</time>
</trkpt>
<trkpt lat="45.8999530" lon="10.2892390">
	<ele>1542.40</ele>
	<time>2025-07-29T07:18:46.000Z</time>
</trkpt>
<trkpt lat="45.8999470" lon="10.2892290">
	<ele>1542.40</ele>
	<time>2025-07-29T07:18:47.000Z</time>
</trkpt>
<trkpt lat="45.8999450" lon="10.2892230">
	<ele>1542.60</ele>
	<time>2025-07-29T07:18:48.000Z</time>
</trkpt>
<trkpt lat="45.8999490" lon="10.2892150">
	<ele>1542.80</ele>
	<time>2025-07-29T07:18:49.000Z</time>
</trkpt>
<trkpt lat="45.8999520" lon="10.2892050">
	<ele>1543.00</ele>
	<time>2025-07-29T07:18:50.000Z</time>
</trkpt>
<trkpt lat="45.8999430" lon="10.2891930">
	<ele>1543.20</ele>
	<time>2025-07-29T07:18:51.000Z</time>
</trkpt>
<trkpt lat="45.8999290" lon="10.2891830">
	<ele>1543.20</ele>
	<time>2025-07-29T07:18:52.000Z</time>
</trkpt>
<trkpt lat="45.8999100" lon="10.2891810">
	<ele>1543.40</ele>
	<time>2025-07-29T07:18:53.000Z</time>
</trkpt>
<trkpt lat="45.8998920" lon="10.2891770">
	<ele>1543.60</ele>
	<time>2025-07-29T07:18:54.000Z</time>
</trkpt>
<trkpt lat="45.8998780" lon="10.2891780">
	<ele>1543.80</ele>
	<time>2025-07-29T07:18:55.000Z</time>
</trkpt>
<trkpt lat="45.8998570" lon="10.2891740">
	<ele>1544.20</ele>
	<time>2025-07-29T07:18:56.000Z</time>
</trkpt>
<trkpt lat="45.8998390" lon="10.2891650">
	<ele>1544.20</ele>
	<time>2025-07-29T07:18:57.000Z</time>
</trkpt>
<trkpt lat="45.8998320" lon="10.2891540">
	<ele>1544.40</ele>
	<time>2025-07-29T07:18:58.000Z</time>
</trkpt>
<trkpt lat="45.8998260" lon="10.2891520">
	<ele>1544.60</ele>
	<time>2025-07-29T07:18:59.000Z</time>
</trkpt>
<trkpt lat="45.8998240" lon="10.2891550">
	<ele>1544.80</ele>
	<time>2025-07-29T07:19:00.000Z</time>
</trkpt>
<trkpt lat="45.8998200" lon="10.2891710">
	<ele>1545.00</ele>
	<time>2025-07-29T07:19:01.000Z</time>
</trkpt>
<trkpt lat="45.8998100" lon="10.2891780">
	<ele>1545.20</ele>
	<time>2025-07-29T07:19:02.000Z</time>
</trkpt>
<trkpt lat="45.8998040" lon="10.2891780">
	<ele>1545.20</ele>
	<time>2025-07-29T07:19:03.000Z</time>
</trkpt>
<trkpt lat="45.8998000" lon="10.2891760">
	<ele>1545.60</ele>
	<time>2025-07-29T07:19:04.000Z</time>
</trkpt>
<trkpt lat="45.8997980" lon="10.2891760">
	<ele>1545.60</ele>
	<time>2025-07-29T07:19:05.000Z</time>
</trkpt>
<trkpt lat="45.8997830" lon="10.2891630">
	<ele>1545.80</ele>
	<time>2025-07-29T07:19:06.000Z</time>
</trkpt>
<trkpt lat="45.8997690" lon="10.2891470">
	<ele>1546.00</ele>
	<time>2025-07-29T07:19:07.000Z</time>
</trkpt>
<trkpt lat="45.8997630" lon="10.2891290">
	<ele>1546.20</ele>
	<time>2025-07-29T07:19:08.000Z</time>
</trkpt>
<trkpt lat="45.8997620" lon="10.2891140">
	<ele>1546.60</ele>
	<time>2025-07-29T07:19:09.000Z</time>
</trkpt>
<trkpt lat="45.8997540" lon="10.2891070">
	<ele>1546.80</ele>
	<time>2025-07-29T07:19:10.000Z</time>
</trkpt>
<trkpt lat="45.8997520" lon="10.2890990">
	<ele>1547.00</ele>
	<time>2025-07-29T07:19:11.000Z</time>
</trkpt>
<trkpt lat="45.8997340" lon="10.2891010">
	<ele>1547.20</ele>
	<time>2025-07-29T07:19:12.000Z</time>
</trkpt>
<trkpt lat="45.8997310" lon="10.2890950">
	<ele>1547.40</ele>
	<time>2025-07-29T07:19:13.000Z</time>
</trkpt>
<trkpt lat="45.8997260" lon="10.2890740">
	<ele>1547.60</ele>
	<time>2025-07-29T07:19:14.000Z</time>
</trkpt>
<trkpt lat="45.8997270" lon="10.2890590">
	<ele>1548.00</ele>
	<time>2025-07-29T07:19:15.000Z</time>
</trkpt>
<trkpt lat="45.8997280" lon="10.2890510">
	<ele>1548.20</ele>
	<time>2025-07-29T07:19:16.000Z</time>
</trkpt>
<trkpt lat="45.8997240" lon="10.2890480">
	<ele>1548.40</ele>
	<time>2025-07-29T07:19:17.000Z</time>
</trkpt>
<trkpt lat="45.8997330" lon="10.2890410">
	<ele>1548.80</ele>
	<time>2025-07-29T07:19:18.000Z</time>
</trkpt>
<trkpt lat="45.8997420" lon="10.2890450">
	<ele>1549.00</ele>
	<time>2025-07-29T07:19:19.000Z</time>
</trkpt>
<trkpt lat="45.8997530" lon="10.2890330">
	<ele>1549.40</ele>
	<time>2025-07-29T07:19:20.000Z</time>
</trkpt>
<trkpt lat="45.8997590" lon="10.2890190">
	<ele>1549.60</ele>
	<time>2025-07-29T07:19:21.000Z</time>
</trkpt>
<trkpt lat="45.8997650" lon="10.2890050">
	<ele>1549.80</ele>
	<time>2025-07-29T07:19:22.000Z</time>
</trkpt>
<trkpt lat="45.8997760" lon="10.2889880">
	<ele>1550.00</ele>
	<time>2025-07-29T07:19:23.000Z</time>
</trkpt>
<trkpt lat="45.8997930" lon="10.2889750">
	<ele>1550.00</ele>
	<time>2025-07-29T07:19:24.000Z</time>
</trkpt>
<trkpt lat="45.8997950" lon="10.2889660">
	<ele>1550.20</ele>
	<time>2025-07-29T07:19:25.000Z</time>
</trkpt>
<trkpt lat="45.8997980" lon="10.2889610">
	<ele>1550.40</ele>
	<time>2025-07-29T07:19:26.000Z</time>
</trkpt>
<trkpt lat="45.8998020" lon="10.2889480">
	<ele>1550.60</ele>
	<time>2025-07-29T07:19:27.000Z</time>
</trkpt>
<trkpt lat="45.8998140" lon="10.2889340">
	<ele>1550.60</ele>
	<time>2025-07-29T07:19:28.000Z</time>
</trkpt>
<trkpt lat="45.8998240" lon="10.2889120">
	<ele>1550.80</ele>
	<time>2025-07-29T07:19:29.000Z</time>
</trkpt>
<trkpt lat="45.8998290" lon="10.2889190">
	<ele>1550.80</ele>
	<time>2025-07-29T07:19:30.000Z</time>
</trkpt>
<trkpt lat="45.8998100" lon="10.2889020">
	<ele>1551.00</ele>
	<time>2025-07-29T07:19:31.000Z</time>
</trkpt>
<trkpt lat="45.8997830" lon="10.2888870">
	<ele>1551.00</ele>
	<time>2025-07-29T07:19:32.000Z</time>
</trkpt>
<trkpt lat="45.8997590" lon="10.2888710">
	<ele>1551.40</ele>
	<time>2025-07-29T07:19:33.000Z</time>
</trkpt>
<trkpt lat="45.8997440" lon="10.2888650">
	<ele>1551.60</ele>
	<time>2025-07-29T07:19:34.000Z</time>
</trkpt>
<trkpt lat="45.8997390" lon="10.2888590">
	<ele>1551.60</ele>
	<time>2025-07-29T07:19:35.000Z</time>
</trkpt>
<trkpt lat="45.8997280" lon="10.2888610">
	<ele>1551.80</ele>
	<time>2025-07-29T07:19:36.000Z</time>
</trkpt>
<trkpt lat="45.8997210" lon="10.2888580">
	<ele>1551.80</ele>
	<time>2025-07-29T07:19:37.000Z</time>
</trkpt>
<trkpt lat="45.8997140" lon="10.2888510">
	<ele>1552.00</ele>
	<time>2025-07-29T07:19:38.000Z</time>
</trkpt>
<trkpt lat="45.8997170" lon="10.2888500">
	<ele>1552.20</ele>
	<time>2025-07-29T07:19:39.000Z</time>
</trkpt>
<trkpt lat="45.8997180" lon="10.2888380">
	<ele>1552.40</ele>
	<time>2025-07-29T07:19:40.000Z</time>
</trkpt>
<trkpt lat="45.8997250" lon="10.2888360">
	<ele>1552.40</ele>
	<time>2025-07-29T07:19:41.000Z</time>
</trkpt>
<trkpt lat="45.8997210" lon="10.2888450">
	<ele>1552.60</ele>
	<time>2025-07-29T07:19:42.000Z</time>
</trkpt>
<trkpt lat="45.8997020" lon="10.2888450">
	<ele>1552.80</ele>
	<time>2025-07-29T07:19:43.000Z</time>
</trkpt>
<trkpt lat="45.8996920" lon="10.2888480">
	<ele>1553.00</ele>
	<time>2025-07-29T07:19:44.000Z</time>
</trkpt>
<trkpt lat="45.8996920" lon="10.2888570">
	<ele>1553.20</ele>
	<time>2025-07-29T07:19:45.000Z</time>
</trkpt>
<trkpt lat="45.8996870" lon="10.2888600">
	<ele>1553.20</ele>
	<time>2025-07-29T07:19:46.000Z</time>
</trkpt>
<trkpt lat="45.8996860" lon="10.2888500">
	<ele>1553.60</ele>
	<time>2025-07-29T07:19:47.000Z</time>
</trkpt>
<trkpt lat="45.8996930" lon="10.2888560">
	<ele>1553.80</ele>
	<time>2025-07-29T07:19:48.000Z</time>
</trkpt>
<trkpt lat="45.8996980" lon="10.2888390">
	<ele>1554.00</ele>
	<time>2025-07-29T07:19:49.000Z</time>
</trkpt>
<trkpt lat="45.8996910" lon="10.2888080">
	<ele>1554.20</ele>
	<time>2025-07-29T07:19:50.000Z</time>
</trkpt>
<trkpt lat="45.8996630" lon="10.2887810">
	<ele>1554.40</ele>
	<time>2025-07-29T07:19:51.000Z</time>
</trkpt>
<trkpt lat="45.8996390" lon="10.2887740">
	<ele>1554.60</ele>
	<time>2025-07-29T07:19:52.000Z</time>
</trkpt>
<trkpt lat="45.8996390" lon="10.2887660">
	<ele>1554.80</ele>
	<time>2025-07-29T07:19:53.000Z</time>
</trkpt>
<trkpt lat="45.8996390" lon="10.2887630">
	<ele>1555.00</ele>
	<time>2025-07-29T07:19:54.000Z</time>
</trkpt>
<trkpt lat="45.8996370" lon="10.2887530">
	<ele>1555.00</ele>
	<time>2025-07-29T07:19:55.000Z</time>
</trkpt>
<trkpt lat="45.8996370" lon="10.2887430">
	<ele>1555.20</ele>
	<time>2025-07-29T07:19:56.000Z</time>
</trkpt>
<trkpt lat="45.8996260" lon="10.2887360">
	<ele>1555.40</ele>
	<time>2025-07-29T07:19:57.000Z</time>
</trkpt>
<trkpt lat="45.8996230" lon="10.2887280">
	<ele>1555.40</ele>
	<time>2025-07-29T07:19:58.000Z</time>
</trkpt>
<trkpt lat="45.8996130" lon="10.2887230">
	<ele>1555.80</ele>
	<time>2025-07-29T07:19:59.000Z</time>
</trkpt>
<trkpt lat="45.8996120" lon="10.2887190">
	<ele>1556.00</ele>
	<time>2025-07-29T07:20:00.000Z</time>
</trkpt>
<trkpt lat="45.8996030" lon="10.2887200">
	<ele>1556.20</ele>
	<time>2025-07-29T07:20:01.000Z</time>
</trkpt>
<trkpt lat="45.8995900" lon="10.2887140">
	<ele>1556.60</ele>
	<time>2025-07-29T07:20:02.000Z</time>
</trkpt>
<trkpt lat="45.8995750" lon="10.2887110">
	<ele>1556.80</ele>
	<time>2025-07-29T07:20:03.000Z</time>
</trkpt>
<trkpt lat="45.8995660" lon="10.2887150">
	<ele>1557.00</ele>
	<time>2025-07-29T07:20:04.000Z</time>
</trkpt>
<trkpt lat="45.8995580" lon="10.2887140">
	<ele>1557.00</ele>
	<time>2025-07-29T07:20:05.000Z</time>
</trkpt>
<trkpt lat="45.8995490" lon="10.2887130">
	<ele>1557.20</ele>
	<time>2025-07-29T07:20:06.000Z</time>
</trkpt>
<trkpt lat="45.8995370" lon="10.2887090">
	<ele>1557.60</ele>
	<time>2025-07-29T07:20:07.000Z</time>
</trkpt>
<trkpt lat="45.8995340" lon="10.2887060">
	<ele>1557.80</ele>
	<time>2025-07-29T07:20:08.000Z</time>
</trkpt>
<trkpt lat="45.8995210" lon="10.2887030">
	<ele>1557.80</ele>
	<time>2025-07-29T07:20:09.000Z</time>
</trkpt>
<trkpt lat="45.8995130" lon="10.2887020">
	<ele>1558.00</ele>
	<time>2025-07-29T07:20:10.000Z</time>
</trkpt>
<trkpt lat="45.8995080" lon="10.2887030">
	<ele>1558.20</ele>
	<time>2025-07-29T07:20:11.000Z</time>
</trkpt>
<trkpt lat="45.8994960" lon="10.2886950">
	<ele>1558.40</ele>
	<time>2025-07-29T07:20:12.000Z</time>
</trkpt>
<trkpt lat="45.8994850" lon="10.2886960">
	<ele>1558.40</ele>
	<time>2025-07-29T07:20:13.000Z</time>
</trkpt>
<trkpt lat="45.8994700" lon="10.2887030">
	<ele>1558.60</ele>
	<time>2025-07-29T07:20:14.000Z</time>
</trkpt>
<trkpt lat="45.8994620" lon="10.2887070">
	<ele>1559.00</ele>
	<time>2025-07-29T07:20:15.000Z</time>
</trkpt>
<trkpt lat="45.8994520" lon="10.2887030">
	<ele>1559.40</ele>
	<time>2025-07-29T07:20:16.000Z</time>
</trkpt>
<trkpt lat="45.8994340" lon="10.2887050">
	<ele>1559.40</ele>
	<time>2025-07-29T07:20:17.000Z</time>
</trkpt>
<trkpt lat="45.8994240" lon="10.2887150">
	<ele>1559.80</ele>
	<time>2025-07-29T07:20:18.000Z</time>
</trkpt>
<trkpt lat="45.8994230" lon="10.2887230">
	<ele>1560.00</ele>
	<time>2025-07-29T07:20:19.000Z</time>
</trkpt>
<trkpt lat="45.8994270" lon="10.2887260">
	<ele>1560.00</ele>
	<time>2025-07-29T07:20:20.000Z</time>
</trkpt>
<trkpt lat="45.8994280" lon="10.2887300">
	<ele>1560.20</ele>
	<time>2025-07-29T07:20:21.000Z</time>
</trkpt>
<trkpt lat="45.8994320" lon="10.2887400">
	<ele>1560.40</ele>
	<time>2025-07-29T07:20:22.000Z</time>
</trkpt>
<trkpt lat="45.8994600" lon="10.2887580">
	<ele>1560.60</ele>
	<time>2025-07-29T07:20:23.000Z</time>
</trkpt>
<trkpt lat="45.8994630" lon="10.2887620">
	<ele>1560.80</ele>
	<time>2025-07-29T07:20:24.000Z</time>
</trkpt>
<trkpt lat="45.8994480" lon="10.2887550">
	<ele>1560.80</ele>
	<time>2025-07-29T07:20:25.000Z</time>
</trkpt>
<trkpt lat="45.8994310" lon="10.2887530">
	<ele>1560.80</ele>
	<time>2025-07-29T07:20:26.000Z</time>
</trkpt>
<trkpt lat="45.8994130" lon="10.2887630">
	<ele>1561.00</ele>
	<time>2025-07-29T07:20:27.000Z</time>
</trkpt>
<trkpt lat="45.8994020" lon="10.2887640">
	<ele>1561.20</ele>
	<time>2025-07-29T07:20:28.000Z</time>
</trkpt>
<trkpt lat="45.8993980" lon="10.2887700">
	<ele>1561.60</ele>
	<time>2025-07-29T07:20:29.000Z</time>
</trkpt>
<trkpt lat="45.8993970" lon="10.2887690">
	<ele>1561.80</ele>
	<time>2025-07-29T07:20:30.000Z</time>
</trkpt>
<trkpt lat="45.8993810" lon="10.2887680">
	<ele>1562.00</ele>
	<time>2025-07-29T07:20:31.000Z</time>
</trkpt>
<trkpt lat="45.8993760" lon="10.2887710">
	<ele>1562.20</ele>
	<time>2025-07-29T07:20:32.000Z</time>
</trkpt>
<trkpt lat="45.8993830" lon="10.2887830">
	<ele>1562.40</ele>
	<time>2025-07-29T07:20:33.000Z</time>
</trkpt>
<trkpt lat="45.8993850" lon="10.2887900">
	<ele>1562.40</ele>
	<time>2025-07-29T07:20:34.000Z</time>
</trkpt>
<trkpt lat="45.8993850" lon="10.2887930">
	<ele>1562.60</ele>
	<time>2025-07-29T07:20:35.000Z</time>
</trkpt>
<trkpt lat="45.8993830" lon="10.2887920">
	<ele>1562.80</ele>
	<time>2025-07-29T07:20:36.000Z</time>
</trkpt>
<trkpt lat="45.8993680" lon="10.2887810">
	<ele>1562.80</ele>
	<time>2025-07-29T07:20:37.000Z</time>
</trkpt>
<trkpt lat="45.8993630" lon="10.2887830">
	<ele>1563.00</ele>
	<time>2025-07-29T07:20:38.000Z</time>
</trkpt>
<trkpt lat="45.8993510" lon="10.2887910">
	<ele>1563.00</ele>
	<time>2025-07-29T07:20:39.000Z</time>
</trkpt>
<trkpt lat="45.8993410" lon="10.2888010">
	<ele>1563.20</ele>
	<time>2025-07-29T07:20:40.000Z</time>
</trkpt>
<trkpt lat="45.8993330" lon="10.2888210">
	<ele>1563.60</ele>
	<time>2025-07-29T07:20:41.000Z</time>
</trkpt>
<trkpt lat="45.8993340" lon="10.2888370">
	<ele>1563.80</ele>
	<time>2025-07-29T07:20:42.000Z</time>
</trkpt>
<trkpt lat="45.8993350" lon="10.2888460">
	<ele>1563.80</ele>
	<time>2025-07-29T07:20:43.000Z</time>
</trkpt>
<trkpt lat="45.8993320" lon="10.2888550">
	<ele>1564.00</ele>
	<time>2025-07-29T07:20:44.000Z</time>
</trkpt>
<trkpt lat="45.8993300" lon="10.2888570">
	<ele>1564.20</ele>
	<time>2025-07-29T07:20:45.000Z</time>
</trkpt>
<trkpt lat="45.8993290" lon="10.2888680">
	<ele>1564.40</ele>
	<time>2025-07-29T07:20:46.000Z</time>
</trkpt>
<trkpt lat="45.8993230" lon="10.2888760">
	<ele>1564.60</ele>
	<time>2025-07-29T07:20:47.000Z</time>
</trkpt>
<trkpt lat="45.8993120" lon="10.2888940">
	<ele>1564.60</ele>
	<time>2025-07-29T07:20:48.000Z</time>
</trkpt>
<trkpt lat="45.8993050" lon="10.2889130">
	<ele>1564.80</ele>
	<time>2025-07-29T07:20:49.000Z</time>
</trkpt>
<trkpt lat="45.8993000" lon="10.2889290">
	<ele>1564.80</ele>
	<time>2025-07-29T07:20:50.000Z</time>
</trkpt>
<trkpt lat="45.8992940" lon="10.2889390">
	<ele>1565.00</ele>
	<time>2025-07-29T07:20:51.000Z</time>
</trkpt>
<trkpt lat="45.8992970" lon="10.2889530">
	<ele>1565.20</ele>
	<time>2025-07-29T07:20:52.000Z</time>
</trkpt>
<trkpt lat="45.8992920" lon="10.2889560">
	<ele>1565.60</ele>
	<time>2025-07-29T07:20:53.000Z</time>
</trkpt>
<trkpt lat="45.8992900" lon="10.2889590">
	<ele>1565.60</ele>
	<time>2025-07-29T07:20:54.000Z</time>
</trkpt>
<trkpt lat="45.8992870" lon="10.2889620">
	<ele>1565.80</ele>
	<time>2025-07-29T07:20:55.000Z</time>
</trkpt>
<trkpt lat="45.8992860" lon="10.2889600">
	<ele>1566.20</ele>
	<time>2025-07-29T07:20:56.000Z</time>
</trkpt>
<trkpt lat="45.8992830" lon="10.2889660">
	<ele>1566.40</ele>
	<time>2025-07-29T07:20:57.000Z</time>
</trkpt>
<trkpt lat="45.8992800" lon="10.2889680">
	<ele>1566.60</ele>
	<time>2025-07-29T07:20:58.000Z</time>
</trkpt>
<trkpt lat="45.8992750" lon="10.2889500">
	<ele>1566.80</ele>
	<time>2025-07-29T07:20:59.000Z</time>
</trkpt>
<trkpt lat="45.8992670" lon="10.2889380">
	<ele>1567.00</ele>
	<time>2025-07-29T07:21:00.000Z</time>
</trkpt>
<trkpt lat="45.8992610" lon="10.2889420">
	<ele>1567.20</ele>
	<time>2025-07-29T07:21:01.000Z</time>
</trkpt>
<trkpt lat="45.8992560" lon="10.2889510">
	<ele>1567.20</ele>
	<time>2025-07-29T07:21:02.000Z</time>
</trkpt>
<trkpt lat="45.8992570" lon="10.2889580">
	<ele>1567.20</ele>
	<time>2025-07-29T07:21:03.000Z</time>
</trkpt>
<trkpt lat="45.8992610" lon="10.2889700">
	<ele>1567.20</ele>
	<time>2025-07-29T07:21:04.000Z</time>
</trkpt>
<trkpt lat="45.8992640" lon="10.2889820">
	<ele>1567.20</ele>
	<time>2025-07-29T07:21:05.000Z</time>
</trkpt>
<trkpt lat="45.8992650" lon="10.2889980">
	<ele>1567.20</ele>
	<time>2025-07-29T07:21:06.000Z</time>
</trkpt>
<trkpt lat="45.8992730" lon="10.2890140">
	<ele>1567.40</ele>
	<time>2025-07-29T07:21:07.000Z</time>
</trkpt>
<trkpt lat="45.8992710" lon="10.2890220">
	<ele>1567.40</ele>
	<time>2025-07-29T07:21:08.000Z</time>
</trkpt>
<trkpt lat="45.8992620" lon="10.2890310">
	<ele>1567.40</ele>
	<time>2025-07-29T07:21:09.000Z</time>
</trkpt>
<trkpt lat="45.8992640" lon="10.2890400">
	<ele>1567.60</ele>
	<time>2025-07-29T07:21:10.000Z</time>
</trkpt>
<trkpt lat="45.8992670" lon="10.2890510">
	<ele>1568.00</ele>
	<time>2025-07-29T07:21:11.000Z</time>
</trkpt>
<trkpt lat="45.8992660" lon="10.2890540">
	<ele>1568.20</ele>
	<time>2025-07-29T07:21:12.000Z</time>
</trkpt>
<trkpt lat="45.8992640" lon="10.2890610">
	<ele>1568.40</ele>
	<time>2025-07-29T07:21:13.000Z</time>
</trkpt>
<trkpt lat="45.8992650" lon="10.2890690">
	<ele>1568.60</ele>
	<time>2025-07-29T07:21:14.000Z</time>
</trkpt>
<trkpt lat="45.8992630" lon="10.2890790">
	<ele>1568.80</ele>
	<time>2025-07-29T07:21:15.000Z</time>
</trkpt>
<trkpt lat="45.8992550" lon="10.2890910">
	<ele>1568.80</ele>
	<time>2025-07-29T07:21:16.000Z</time>
</trkpt>
<trkpt lat="45.8992510" lon="10.2891020">
	<ele>1568.80</ele>
	<time>2025-07-29T07:21:17.000Z</time>
</trkpt>
<trkpt lat="45.8992410" lon="10.2891120">
	<ele>1569.00</ele>
	<time>2025-07-29T07:21:18.000Z</time>
</trkpt>
<trkpt lat="45.8992440" lon="10.2891190">
	<ele>1569.20</ele>
	<time>2025-07-29T07:21:19.000Z</time>
</trkpt>
<trkpt lat="45.8992440" lon="10.2891170">
	<ele>1569.40</ele>
	<time>2025-07-29T07:21:20.000Z</time>
</trkpt>
<trkpt lat="45.8992400" lon="10.2891210">
	<ele>1569.60</ele>
	<time>2025-07-29T07:21:21.000Z</time>
</trkpt>
<trkpt lat="45.8992310" lon="10.2891300">
	<ele>1569.80</ele>
	<time>2025-07-29T07:21:22.000Z</time>
</trkpt>
<trkpt lat="45.8992260" lon="10.2891340">
	<ele>1569.80</ele>
	<time>2025-07-29T07:21:23.000Z</time>
</trkpt>
<trkpt lat="45.8992170" lon="10.2891450">
	<ele>1570.00</ele>
	<time>2025-07-29T07:21:24.000Z</time>
</trkpt>
<trkpt lat="45.8992130" lon="10.2891510">
	<ele>1570.40</ele>
	<time>2025-07-29T07:21:25.000Z</time>
</trkpt>
<trkpt lat="45.8992060" lon="10.2891590">
	<ele>1570.60</ele>
	<time>2025-07-29T07:21:26.000Z</time>
</trkpt>
<trkpt lat="45.8991980" lon="10.2891680">
	<ele>1570.60</ele>
	<time>2025-07-29T07:21:27.000Z</time>
</trkpt>
<trkpt lat="45.8991980" lon="10.2891750">
	<ele>1570.80</ele>
	<time>2025-07-29T07:21:28.000Z</time>
</trkpt>
<trkpt lat="45.8991910" lon="10.2891840">
	<ele>1571.00</ele>
	<time>2025-07-29T07:21:29.000Z</time>
</trkpt>
<trkpt lat="45.8992000" lon="10.2891950">
	<ele>1571.00</ele>
	<time>2025-07-29T07:21:30.000Z</time>
</trkpt>
<trkpt lat="45.8991970" lon="10.2892090">
	<ele>1571.20</ele>
	<time>2025-07-29T07:21:31.000Z</time>
</trkpt>
<trkpt lat="45.8991930" lon="10.2892160">
	<ele>1571.20</ele>
	<time>2025-07-29T07:21:32.000Z</time>
</trkpt>
<trkpt lat="45.8991850" lon="10.2892210">
	<ele>1571.20</ele>
	<time>2025-07-29T07:21:33.000Z</time>
</trkpt>
<trkpt lat="45.8991730" lon="10.2892360">
	<ele>1571.40</ele>
	<time>2025-07-29T07:21:34.000Z</time>
</trkpt>
<trkpt lat="45.8991630" lon="10.2892480">
	<ele>1571.40</ele>
	<time>2025-07-29T07:21:35.000Z</time>
</trkpt>
<trkpt lat="45.8991450" lon="10.2892560">
	<ele>1571.60</ele>
	<time>2025-07-29T07:21:36.000Z</time>
</trkpt>
<trkpt lat="45.8991290" lon="10.2892670">
	<ele>1571.60</ele>
	<time>2025-07-29T07:21:37.000Z</time>
</trkpt>
<trkpt lat="45.8991200" lon="10.2892790">
	<ele>1571.80</ele>
	<time>2025-07-29T07:21:38.000Z</time>
</trkpt>
<trkpt lat="45.8991140" lon="10.2892850">
	<ele>1571.80</ele>
	<time>2025-07-29T07:21:39.000Z</time>
</trkpt>
<trkpt lat="45.8991090" lon="10.2892930">
	<ele>1572.00</ele>
	<time>2025-07-29T07:21:40.000Z</time>
</trkpt>
<trkpt lat="45.8991000" lon="10.2892960">
	<ele>1572.00</ele>
	<time>2025-07-29T07:21:41.000Z</time>
</trkpt>
<trkpt lat="45.8990920" lon="10.2893020">
	<ele>1572.20</ele>
	<time>2025-07-29T07:21:42.000Z</time>
</trkpt>
<trkpt lat="45.8990820" lon="10.2893050">
	<ele>1572.20</ele>
	<time>2025-07-29T07:21:43.000Z</time>
</trkpt>
<trkpt lat="45.8990690" lon="10.2893100">
	<ele>1572.20</ele>
	<time>2025-07-29T07:21:44.000Z</time>
</trkpt>
<trkpt lat="45.8990500" lon="10.2893070">
	<ele>1572.40</ele>
	<time>2025-07-29T07:21:45.000Z</time>
</trkpt>
<trkpt lat="45.8990370" lon="10.2893050">
	<ele>1572.40</ele>
	<time>2025-07-29T07:21:46.000Z</time>
</trkpt>
<trkpt lat="45.8990310" lon="10.2893050">
	<ele>1572.40</ele>
	<time>2025-07-29T07:21:47.000Z</time>
</trkpt>
<trkpt lat="45.8990310" lon="10.2893100">
	<ele>1572.80</ele>
	<time>2025-07-29T07:21:48.000Z</time>
</trkpt>
<trkpt lat="45.8990260" lon="10.2893210">
	<ele>1573.00</ele>
	<time>2025-07-29T07:21:49.000Z</time>
</trkpt>
<trkpt lat="45.8990140" lon="10.2893270">
	<ele>1573.20</ele>
	<time>2025-07-29T07:21:50.000Z</time>
</trkpt>
<trkpt lat="45.8990020" lon="10.2893330">
	<ele>1573.20</ele>
	<time>2025-07-29T07:21:51.000Z</time>
</trkpt>
<trkpt lat="45.8989920" lon="10.2893460">
	<ele>1573.40</ele>
	<time>2025-07-29T07:21:52.000Z</time>
</trkpt>
<trkpt lat="45.8989790" lon="10.2893490">
	<ele>1573.60</ele>
	<time>2025-07-29T07:21:53.000Z</time>
</trkpt>
<trkpt lat="45.8989690" lon="10.2893540">
	<ele>1573.80</ele>
	<time>2025-07-29T07:21:54.000Z</time>
</trkpt>
<trkpt lat="45.8989630" lon="10.2893590">
	<ele>1574.00</ele>
	<time>2025-07-29T07:21:55.000Z</time>
</trkpt>
<trkpt lat="45.8989520" lon="10.2893620">
	<ele>1574.20</ele>
	<time>2025-07-29T07:21:56.000Z</time>
</trkpt>
<trkpt lat="45.8989420" lon="10.2893670">
	<ele>1574.40</ele>
	<time>2025-07-29T07:21:57.000Z</time>
</trkpt>
<trkpt lat="45.8989360" lon="10.2893750">
	<ele>1574.40</ele>
	<time>2025-07-29T07:21:58.000Z</time>
</trkpt>
<trkpt lat="45.8989390" lon="10.2893870">
	<ele>1574.60</ele>
	<time>2025-07-29T07:21:59.000Z</time>
</trkpt>
<trkpt lat="45.8989250" lon="10.2893890">
	<ele>1574.60</ele>
	<time>2025-07-29T07:22:00.000Z</time>
</trkpt>
<trkpt lat="45.8989040" lon="10.2893910">
	<ele>1574.60</ele>
	<time>2025-07-29T07:22:01.000Z</time>
</trkpt>
<trkpt lat="45.8988840" lon="10.2893900">
	<ele>1574.80</ele>
	<time>2025-07-29T07:22:02.000Z</time>
</trkpt>
<trkpt lat="45.8988710" lon="10.2893880">
	<ele>1574.80</ele>
	<time>2025-07-29T07:22:03.000Z</time>
</trkpt>
<trkpt lat="45.8988510" lon="10.2893730">
	<ele>1574.80</ele>
	<time>2025-07-29T07:22:04.000Z</time>
</trkpt>
<trkpt lat="45.8988330" lon="10.2893720">
	<ele>1575.00</ele>
	<time>2025-07-29T07:22:05.000Z</time>
</trkpt>
<trkpt lat="45.8988140" lon="10.2893690">
	<ele>1575.20</ele>
	<time>2025-07-29T07:22:06.000Z</time>
</trkpt>
<trkpt lat="45.8988030" lon="10.2893720">
	<ele>1575.40</ele>
	<time>2025-07-29T07:22:07.000Z</time>
</trkpt>
<trkpt lat="45.8987990" lon="10.2893840">
	<ele>1575.60</ele>
	<time>2025-07-29T07:22:08.000Z</time>
</trkpt>
<trkpt lat="45.8987970" lon="10.2893960">
	<ele>1575.60</ele>
	<time>2025-07-29T07:22:09.000Z</time>
</trkpt>
<trkpt lat="45.8987930" lon="10.2894030">
	<ele>1575.80</ele>
	<time>2025-07-29T07:22:10.000Z</time>
</trkpt>
<trkpt lat="45.8987820" lon="10.2894090">
	<ele>1575.80</ele>
	<time>2025-07-29T07:22:11.000Z</time>
</trkpt>
<trkpt lat="45.8987710" lon="10.2894140">
	<ele>1576.00</ele>
	<time>2025-07-29T07:22:12.000Z</time>
</trkpt>
<trkpt lat="45.8987680" lon="10.2894350">
	<ele>1576.00</ele>
	<time>2025-07-29T07:22:13.000Z</time>
</trkpt>
<trkpt lat="45.8987660" lon="10.2894350">
	<ele>1576.00</ele>
	<time>2025-07-29T07:22:14.000Z</time>
</trkpt>
<trkpt lat="45.8987590" lon="10.2894410">
	<ele>1576.20</ele>
	<time>2025-07-29T07:22:15.000Z</time>
</trkpt>
<trkpt lat="45.8987450" lon="10.2894460">
	<ele>1576.20</ele>
	<time>2025-07-29T07:22:16.000Z</time>
</trkpt>
<trkpt lat="45.8987160" lon="10.2894410">
	<ele>1576.40</ele>
	<time>2025-07-29T07:22:17.000Z</time>
</trkpt>
<trkpt lat="45.8987000" lon="10.2894480">
	<ele>1576.60</ele>
	<time>2025-07-29T07:22:18.000Z</time>
</trkpt>
<trkpt lat="45.8986830" lon="10.2894530">
	<ele>1576.60</ele>
	<time>2025-07-29T07:22:19.000Z</time>
</trkpt>
<trkpt lat="45.8986630" lon="10.2894620">
	<ele>1576.80</ele>
	<time>2025-07-29T07:22:20.000Z</time>
</trkpt>
<trkpt lat="45.8986470" lon="10.2894640">
	<ele>1576.80</ele>
	<time>2025-07-29T07:22:21.000Z</time>
</trkpt>
<trkpt lat="45.8986340" lon="10.2894660">
	<ele>1577.00</ele>
	<time>2025-07-29T07:22:22.000Z</time>
</trkpt>
<trkpt lat="45.8986260" lon="10.2894760">
	<ele>1577.20</ele>
	<time>2025-07-29T07:22:23.000Z</time>
</trkpt>
<trkpt lat="45.8986190" lon="10.2894810">
	<ele>1577.20</ele>
	<time>2025-07-29T07:22:24.000Z</time>
</trkpt>
<trkpt lat="45.8986130" lon="10.2894860">
	<ele>1577.40</ele>
	<time>2025-07-29T07:22:25.000Z</time>
</trkpt>
<trkpt lat="45.8986120" lon="10.2895020">
	<ele>1577.40</ele>
	<time>2025-07-29T07:22:26.000Z</time>
</trkpt>
<trkpt lat="45.8986130" lon="10.2895190">
	<ele>1577.60</ele>
	<time>2025-07-29T07:22:27.000Z</time>
</trkpt>
<trkpt lat="45.8986020" lon="10.2895290">
	<ele>1577.80</ele>
	<time>2025-07-29T07:22:28.000Z</time>
</trkpt>
<trkpt lat="45.8985920" lon="10.2895350">
	<ele>1577.80</ele>
	<time>2025-07-29T07:22:29.000Z</time>
</trkpt>
<trkpt lat="45.8985810" lon="10.2895360">
	<ele>1578.00</ele>
	<time>2025-07-29T07:22:30.000Z</time>
</trkpt>
<trkpt lat="45.8985660" lon="10.2895400">
	<ele>1578.00</ele>
	<time>2025-07-29T07:22:31.000Z</time>
</trkpt>
<trkpt lat="45.8985510" lon="10.2895430">
	<ele>1578.20</ele>
	<time>2025-07-29T07:22:32.000Z</time>
</trkpt>
<trkpt lat="45.8985420" lon="10.2895440">
	<ele>1578.60</ele>
	<time>2025-07-29T07:22:33.000Z</time>
</trkpt>
<trkpt lat="45.8985400" lon="10.2895510">
	<ele>1578.60</ele>
	<time>2025-07-29T07:22:34.000Z</time>
</trkpt>
<trkpt lat="45.8985380" lon="10.2895620">
	<ele>1578.80</ele>
	<time>2025-07-29T07:22:35.000Z</time>
</trkpt>
<trkpt lat="45.8985300" lon="10.2895760">
	<ele>1578.80</ele>
	<time>2025-07-29T07:22:36.000Z</time>
</trkpt>
<trkpt lat="45.8985310" lon="10.2895940">
	<ele>1579.00</ele>
	<time>2025-07-29T07:22:37.000Z</time>
</trkpt>
<trkpt lat="45.8985200" lon="10.2896050">
	<ele>1579.00</ele>
	<time>2025-07-29T07:22:38.000Z</time>
</trkpt>
<trkpt lat="45.8985070" lon="10.2896150">
	<ele>1579.00</ele>
	<time>2025-07-29T07:22:39.000Z</time>
</trkpt>
<trkpt lat="45.8984870" lon="10.2896130">
	<ele>1579.20</ele>
	<time>2025-07-29T07:22:40.000Z</time>
</trkpt>
<trkpt lat="45.8984600" lon="10.2896100">
	<ele>1579.20</ele>
	<time>2025-07-29T07:22:41.000Z</time>
</trkpt>
<trkpt lat="45.8984400" lon="10.2896060">
	<ele>1579.20</ele>
	<time>2025-07-29T07:22:42.000Z</time>
</trkpt>
<trkpt lat="45.8984240" lon="10.2896120">
	<ele>1579.20</ele>
	<time>2025-07-29T07:22:43.000Z</time>
</trkpt>
<trkpt lat="45.8984110" lon="10.2896220">
	<ele>1579.40</ele>
	<time>2025-07-29T07:22:44.000Z</time>
</trkpt>
<trkpt lat="45.8984020" lon="10.2896300">
	<ele>1579.60</ele>
	<time>2025-07-29T07:22:45.000Z</time>
</trkpt>
<trkpt lat="45.8983850" lon="10.2896300">
	<ele>1579.80</ele>
	<time>2025-07-29T07:22:46.000Z</time>
</trkpt>
<trkpt lat="45.8983780" lon="10.2896410">
	<ele>1580.00</ele>
	<time>2025-07-29T07:22:47.000Z</time>
</trkpt>
<trkpt lat="45.8983660" lon="10.2896430">
	<ele>1580.20</ele>
	<time>2025-07-29T07:22:48.000Z</time>
</trkpt>
<trkpt lat="45.8983500" lon="10.2896410">
	<ele>1580.40</ele>
	<time>2025-07-29T07:22:49.000Z</time>
</trkpt>
<trkpt lat="45.8983330" lon="10.2896400">
	<ele>1580.60</ele>
	<time>2025-07-29T07:22:50.000Z</time>
</trkpt>
<trkpt lat="45.8983160" lon="10.2896400">
	<ele>1580.80</ele>
	<time>2025-07-29T07:22:51.000Z</time>
</trkpt>
<trkpt lat="45.8983040" lon="10.2896440">
	<ele>1580.80</ele>
	<time>2025-07-29T07:22:52.000Z</time>
</trkpt>
<trkpt lat="45.8982850" lon="10.2896420">
	<ele>1581.20</ele>
	<time>2025-07-29T07:22:53.000Z</time>
</trkpt>
<trkpt lat="45.8982670" lon="10.2896400">
	<ele>1581.20</ele>
	<time>2025-07-29T07:22:54.000Z</time>
</trkpt>
<trkpt lat="45.8982520" lon="10.2896440">
	<ele>1581.40</ele>
	<time>2025-07-29T07:22:55.000Z</time>
</trkpt>
<trkpt lat="45.8982430" lon="10.2896490">
	<ele>1581.60</ele>
	<time>2025-07-29T07:22:56.000Z</time>
</trkpt>
<trkpt lat="45.8982350" lon="10.2896580">
	<ele>1582.00</ele>
	<time>2025-07-29T07:22:57.000Z</time>
</trkpt>
<trkpt lat="45.8982270" lon="10.2896640">
	<ele>1582.20</ele>
	<time>2025-07-29T07:22:58.000Z</time>
</trkpt>
<trkpt lat="45.8982230" lon="10.2896720">
	<ele>1582.20</ele>
	<time>2025-07-29T07:22:59.000Z</time>
</trkpt>
<trkpt lat="45.8982170" lon="10.2896810">
	<ele>1582.40</ele>
	<time>2025-07-29T07:23:00.000Z</time>
</trkpt>
<trkpt lat="45.8982130" lon="10.2896900">
	<ele>1582.60</ele>
	<time>2025-07-29T07:23:01.000Z</time>
</trkpt>
<trkpt lat="45.8982070" lon="10.2896980">
	<ele>1582.80</ele>
	<time>2025-07-29T07:23:02.000Z</time>
</trkpt>
<trkpt lat="45.8982030" lon="10.2897060">
	<ele>1583.00</ele>
	<time>2025-07-29T07:23:03.000Z</time>
</trkpt>
<trkpt lat="45.8981990" lon="10.2897150">
	<ele>1583.00</ele>
	<time>2025-07-29T07:23:04.000Z</time>
</trkpt>
<trkpt lat="45.8981930" lon="10.2897240">
	<ele>1583.20</ele>
	<time>2025-07-29T07:23:05.000Z</time>
</trkpt>
<trkpt lat="45.8981890" lon="10.2897330">
	<ele>1583.60</ele>
	<time>2025-07-29T07:23:06.000Z</time>
</trkpt>
<trkpt lat="45.8981840" lon="10.2897410">
	<ele>1583.80</ele>
	<time>2025-07-29T07:23:07.000Z</time>
</trkpt>
<trkpt lat="45.8981800" lon="10.2897490">
	<ele>1583.80</ele>
	<time>2025-07-29T07:23:08.000Z</time>
</trkpt>
<trkpt lat="45.8981820" lon="10.2897660">
	<ele>1584.00</ele>
	<time>2025-07-29T07:23:09.000Z</time>
</trkpt>
<trkpt lat="45.8981800" lon="10.2897820">
	<ele>1584.20</ele>
	<time>2025-07-29T07:23:10.000Z</time>
</trkpt>
<trkpt lat="45.8981740" lon="10.2897940">
	<ele>1584.40</ele>
	<time>2025-07-29T07:23:11.000Z</time>
</trkpt>
<trkpt lat="45.8981640" lon="10.2898000">
	<ele>1584.60</ele>
	<time>2025-07-29T07:23:12.000Z</time>
</trkpt>
<trkpt lat="45.8981680" lon="10.2898090">
	<ele>1585.00</ele>
	<time>2025-07-29T07:23:13.000Z</time>
</trkpt>
<trkpt lat="45.8981660" lon="10.2898170">
	<ele>1585.20</ele>
	<time>2025-07-29T07:23:14.000Z</time>
</trkpt>
<trkpt lat="45.8981620" lon="10.2898270">
	<ele>1585.60</ele>
	<time>2025-07-29T07:23:15.000Z</time>
</trkpt>
<trkpt lat="45.8981520" lon="10.2898410">
	<ele>1585.60</ele>
	<time>2025-07-29T07:23:16.000Z</time>
</trkpt>
<trkpt lat="45.8981430" lon="10.2898560">
	<ele>1585.80</ele>
	<time>2025-07-29T07:23:17.000Z</time>
</trkpt>
<trkpt lat="45.8981160" lon="10.2898540">
	<ele>1586.00</ele>
	<time>2025-07-29T07:23:18.000Z</time>
</trkpt>
<trkpt lat="45.8981230" lon="10.2898720">
	<ele>1586.20</ele>
	<time>2025-07-29T07:23:19.000Z</time>
</trkpt>
<trkpt lat="45.8981200" lon="10.2898870">
	<ele>1586.40</ele>
	<time>2025-07-29T07:23:20.000Z</time>
</trkpt>
<trkpt lat="45.8981160" lon="10.2899040">
	<ele>1586.40</ele>
	<time>2025-07-29T07:23:21.000Z</time>
</trkpt>
<trkpt lat="45.8981240" lon="10.2899280">
	<ele>1586.60</ele>
	<time>2025-07-29T07:23:22.000Z</time>
</trkpt>
<trkpt lat="45.8981330" lon="10.2899460">
	<ele>1586.80</ele>
	<time>2025-07-29T07:23:23.000Z</time>
</trkpt>
<trkpt lat="45.8981360" lon="10.2899630">
	<ele>1587.00</ele>
	<time>2025-07-29T07:23:24.000Z</time>
</trkpt>
<trkpt lat="45.8981420" lon="10.2899810">
	<ele>1587.00</ele>
	<time>2025-07-29T07:23:25.000Z</time>
</trkpt>
<trkpt lat="45.8981400" lon="10.2899890">
	<ele>1587.20</ele>
	<time>2025-07-29T07:23:26.000Z</time>
</trkpt>
<trkpt lat="45.8981390" lon="10.2899990">
	<ele>1587.40</ele>
	<time>2025-07-29T07:23:27.000Z</time>
</trkpt>
<trkpt lat="45.8981330" lon="10.2900030">
	<ele>1587.60</ele>
	<time>2025-07-29T07:23:28.000Z</time>
</trkpt>
<trkpt lat="45.8981080" lon="10.2899870">
	<ele>1587.60</ele>
	<time>2025-07-29T07:23:29.000Z</time>
</trkpt>
<trkpt lat="45.8980930" lon="10.2899820">
	<ele>1588.00</ele>
	<time>2025-07-29T07:23:30.000Z</time>
</trkpt>
<trkpt lat="45.8980880" lon="10.2899850">
	<ele>1588.20</ele>
	<time>2025-07-29T07:23:31.000Z</time>
</trkpt>
<trkpt lat="45.8980840" lon="10.2899950">
	<ele>1588.60</ele>
	<time>2025-07-29T07:23:32.000Z</time>
</trkpt>
<trkpt lat="45.8980780" lon="10.2900060">
	<ele>1588.80</ele>
	<time>2025-07-29T07:23:33.000Z</time>
</trkpt>
<trkpt lat="45.8980730" lon="10.2900150">
	<ele>1589.00</ele>
	<time>2025-07-29T07:23:34.000Z</time>
</trkpt>
<trkpt lat="45.8980730" lon="10.2900290">
	<ele>1589.20</ele>
	<time>2025-07-29T07:23:35.000Z</time>
</trkpt>
<trkpt lat="45.8980720" lon="10.2900350">
	<ele>1589.40</ele>
	<time>2025-07-29T07:23:36.000Z</time>
</trkpt>
<trkpt lat="45.8980660" lon="10.2900430">
	<ele>1589.60</ele>
	<time>2025-07-29T07:23:37.000Z</time>
</trkpt>
<trkpt lat="45.8980530" lon="10.2900510">
	<ele>1589.80</ele>
	<time>2025-07-29T07:23:38.000Z</time>
</trkpt>
<trkpt lat="45.8980390" lon="10.2900540">
	<ele>1590.00</ele>
	<time>2025-07-29T07:23:39.000Z</time>
</trkpt>
<trkpt lat="45.8980260" lon="10.2900510">
	<ele>1590.00</ele>
	<time>2025-07-29T07:23:40.000Z</time>
</trkpt>
<trkpt lat="45.8980190" lon="10.2900520">
	<ele>1590.20</ele>
	<time>2025-07-29T07:23:41.000Z</time>
</trkpt>
<trkpt lat="45.8980020" lon="10.2900360">
	<ele>1590.20</ele>
	<time>2025-07-29T07:23:42.000Z</time>
</trkpt>
<trkpt lat="45.8980010" lon="10.2900400">
	<ele>1590.40</ele>
	<time>2025-07-29T07:23:43.000Z</time>
</trkpt>
<trkpt lat="45.8980010" lon="10.2900470">
	<ele>1590.60</ele>
	<time>2025-07-29T07:23:44.000Z</time>
</trkpt>
<trkpt lat="45.8979890" lon="10.2900290">
	<ele>1590.60</ele>
	<time>2025-07-29T07:23:45.000Z</time>
</trkpt>
<trkpt lat="45.8979740" lon="10.2900120">
	<ele>1590.60</ele>
	<time>2025-07-29T07:23:46.000Z</time>
</trkpt>
<trkpt lat="45.8979910" lon="10.2900230">
	<ele>1590.80</ele>
	<time>2025-07-29T07:23:47.000Z</time>
</trkpt>
<trkpt lat="45.8979820" lon="10.2900440">
	<ele>1590.80</ele>
	<time>2025-07-29T07:23:48.000Z</time>
</trkpt>
<trkpt lat="45.8979870" lon="10.2900620">
	<ele>1590.80</ele>
	<time>2025-07-29T07:23:49.000Z</time>
</trkpt>
<trkpt lat="45.8979970" lon="10.2900890">
	<ele>1590.80</ele>
	<time>2025-07-29T07:23:50.000Z</time>
</trkpt>
<trkpt lat="45.8980040" lon="10.2900850">
	<ele>1590.80</ele>
	<time>2025-07-29T07:23:51.000Z</time>
</trkpt>
<trkpt lat="45.8980050" lon="10.2900860">
	<ele>1590.80</ele>
	<time>2025-07-29T07:23:52.000Z</time>
</trkpt>
<trkpt lat="45.8980050" lon="10.2900950">
	<ele>1590.80</ele>
	<time>2025-07-29T07:23:53.000Z</time>
</trkpt>
<trkpt lat="45.8979970" lon="10.2900940">
	<ele>1590.80</ele>
	<time>2025-07-29T07:23:54.000Z</time>
</trkpt>
<trkpt lat="45.8979980" lon="10.2901040">
	<ele>1590.80</ele>
	<time>2025-07-29T07:23:55.000Z</time>
</trkpt>
<trkpt lat="45.8980030" lon="10.2901320">
	<ele>1590.60</ele>
	<time>2025-07-29T07:23:56.000Z</time>
</trkpt>
<trkpt lat="45.8980030" lon="10.2901480">
	<ele>1590.60</ele>
	<time>2025-07-29T07:23:57.000Z</time>
</trkpt>
<trkpt lat="45.8979960" lon="10.2901540">
	<ele>1590.60</ele>
	<time>2025-07-29T07:23:58.000Z</time>
</trkpt>
<trkpt lat="45.8979910" lon="10.2901620">
	<ele>1590.60</ele>
	<time>2025-07-29T07:23:59.000Z</time>
</trkpt>
<trkpt lat="45.8979870" lon="10.2901640">
	<ele>1590.60</ele>
	<time>2025-07-29T07:24:00.000Z</time>
</trkpt>
<trkpt lat="45.8979800" lon="10.2901690">
	<ele>1590.80</ele>
	<time>2025-07-29T07:24:01.000Z</time>
</trkpt>
<trkpt lat="45.8979730" lon="10.2901780">
	<ele>1591.00</ele>
	<time>2025-07-29T07:24:02.000Z</time>
</trkpt>
<trkpt lat="45.8979690" lon="10.2901790">
	<ele>1591.20</ele>
	<time>2025-07-29T07:24:03.000Z</time>
</trkpt>
<trkpt lat="45.8979650" lon="10.2901830">
	<ele>1591.40</ele>
	<time>2025-07-29T07:24:04.000Z</time>
</trkpt>
<trkpt lat="45.8979620" lon="10.2901870">
	<ele>1591.40</ele>
	<time>2025-07-29T07:24:05.000Z</time>
</trkpt>
<trkpt lat="45.8979570" lon="10.2901930">
	<ele>1591.60</ele>
	<time>2025-07-29T07:24:06.000Z</time>
</trkpt>
<trkpt lat="45.8979530" lon="10.2901990">
	<ele>1591.80</ele>
	<time>2025-07-29T07:24:07.000Z</time>
</trkpt>
<trkpt lat="45.8979460" lon="10.2902130">
	<ele>1591.80</ele>
	<time>2025-07-29T07:24:08.000Z</time>
</trkpt>
<trkpt lat="45.8979440" lon="10.2902250">
	<ele>1592.00</ele>
	<time>2025-07-29T07:24:09.000Z</time>
</trkpt>
<trkpt lat="45.8979390" lon="10.2902350">
	<ele>1592.20</ele>
	<time>2025-07-29T07:24:10.000Z</time>
</trkpt>
<trkpt lat="45.8979370" lon="10.2902440">
	<ele>1592.20</ele>
	<time>2025-07-29T07:24:11.000Z</time>
</trkpt>
<trkpt lat="45.8979290" lon="10.2902440">
	<ele>1592.40</ele>
	<time>2025-07-29T07:24:12.000Z</time>
</trkpt>
<trkpt lat="45.8979210" lon="10.2902430">
	<ele>1592.40</ele>
	<time>2025-07-29T07:24:13.000Z</time>
</trkpt>
<trkpt lat="45.8979200" lon="10.2902430">
	<ele>1592.60</ele>
	<time>2025-07-29T07:24:14.000Z</time>
</trkpt>
<trkpt lat="45.8979250" lon="10.2902530">
	<ele>1592.80</ele>
	<time>2025-07-29T07:24:15.000Z</time>
</trkpt>
<trkpt lat="45.8979330" lon="10.2902560">
	<ele>1593.00</ele>
	<time>2025-07-29T07:24:16.000Z</time>
</trkpt>
<trkpt lat="45.8979460" lon="10.2902650">
	<ele>1593.00</ele>
	<time>2025-07-29T07:24:17.000Z</time>
</trkpt>
<trkpt lat="45.8979570" lon="10.2902760">
	<ele>1593.20</ele>
	<time>2025-07-29T07:24:18.000Z</time>
</trkpt>
<trkpt lat="45.8979590" lon="10.2902770">
	<ele>1593.60</ele>
	<time>2025-07-29T07:24:19.000Z</time>
</trkpt>
<trkpt lat="45.8979530" lon="10.2902780">
	<ele>1593.80</ele>
	<time>2025-07-29T07:24:20.000Z</time>
</trkpt>
<trkpt lat="45.8979450" lon="10.2902830">
	<ele>1594.00</ele>
	<time>2025-07-29T07:24:21.000Z</time>
</trkpt>
<trkpt lat="45.8979420" lon="10.2902950">
	<ele>1594.00</ele>
	<time>2025-07-29T07:24:22.000Z</time>
</trkpt>
<trkpt lat="45.8979440" lon="10.2903070">
	<ele>1594.20</ele>
	<time>2025-07-29T07:24:23.000Z</time>
</trkpt>
<trkpt lat="45.8979350" lon="10.2903100">
	<ele>1594.20</ele>
	<time>2025-07-29T07:24:24.000Z</time>
</trkpt>
<trkpt lat="45.8979340" lon="10.2903170">
	<ele>1594.40</ele>
	<time>2025-07-29T07:24:25.000Z</time>
</trkpt>
<trkpt lat="45.8979230" lon="10.2903210">
	<ele>1594.40</ele>
	<time>2025-07-29T07:24:26.000Z</time>
</trkpt>
<trkpt lat="45.8979090" lon="10.2903260">
	<ele>1594.40</ele>
	<time>2025-07-29T07:24:27.000Z</time>
</trkpt>
<trkpt lat="45.8979020" lon="10.2903330">
	<ele>1594.40</ele>
	<time>2025-07-29T07:24:28.000Z</time>
</trkpt>
<trkpt lat="45.8978960" lon="10.2903390">
	<ele>1594.60</ele>
	<time>2025-07-29T07:24:29.000Z</time>
</trkpt>
<trkpt lat="45.8978860" lon="10.2903470">
	<ele>1594.60</ele>
	<time>2025-07-29T07:24:30.000Z</time>
</trkpt>
<trkpt lat="45.8978770" lon="10.2903570">
	<ele>1594.80</ele>
	<time>2025-07-29T07:24:31.000Z</time>
</trkpt>
<trkpt lat="45.8978660" lon="10.2903640">
	<ele>1594.80</ele>
	<time>2025-07-29T07:24:32.000Z</time>
</trkpt>
<trkpt lat="45.8978580" lon="10.2903690">
	<ele>1595.00</ele>
	<time>2025-07-29T07:24:33.000Z</time>
</trkpt>
<trkpt lat="45.8978570" lon="10.2903740">
	<ele>1595.20</ele>
	<time>2025-07-29T07:24:34.000Z</time>
</trkpt>
<trkpt lat="45.8978450" lon="10.2903710">
	<ele>1595.20</ele>
	<time>2025-07-29T07:24:35.000Z</time>
</trkpt>
<trkpt lat="45.8978360" lon="10.2903710">
	<ele>1595.40</ele>
	<time>2025-07-29T07:24:36.000Z</time>
</trkpt>
<trkpt lat="45.8978180" lon="10.2903760">
	<ele>1595.60</ele>
	<time>2025-07-29T07:24:37.000Z</time>
</trkpt>
<trkpt lat="45.8978120" lon="10.2903760">
	<ele>1595.60</ele>
	<time>2025-07-29T07:24:38.000Z</time>
</trkpt>
<trkpt lat="45.8977970" lon="10.2903690">
	<ele>1595.80</ele>
	<time>2025-07-29T07:24:39.000Z</time>
</trkpt>
<trkpt lat="45.8978160" lon="10.2903980">
	<ele>1595.80</ele>
	<time>2025-07-29T07:24:40.000Z</time>
</trkpt>
<trkpt lat="45.8978180" lon="10.2903950">
	<ele>1596.00</ele>
	<time>2025-07-29T07:24:41.000Z</time>
</trkpt>
<trkpt lat="45.8978220" lon="10.2903960">
	<ele>1596.00</ele>
	<time>2025-07-29T07:24:42.000Z</time>
</trkpt>
<trkpt lat="45.8978150" lon="10.2903890">
	<ele>1596.20</ele>
	<time>2025-07-29T07:24:43.000Z</time>
</trkpt>
<trkpt lat="45.8978100" lon="10.2903830">
	<ele>1596.20</ele>
	<time>2025-07-29T07:24:44.000Z</time>
</trkpt>
<trkpt lat="45.8977930" lon="10.2903810">
	<ele>1596.20</ele>
	<time>2025-07-29T07:24:45.000Z</time>
</trkpt>
<trkpt lat="45.8977840" lon="10.2903810">
	<ele>1596.40</ele>
	<time>2025-07-29T07:24:46.000Z</time>
</trkpt>
<trkpt lat="45.8977820" lon="10.2903820">
	<ele>1596.40</ele>
	<time>2025-07-29T07:24:47.000Z</time>
</trkpt>
<trkpt lat="45.8977800" lon="10.2903910">
	<ele>1596.40</ele>
	<time>2025-07-29T07:24:48.000Z</time>
</trkpt>
<trkpt lat="45.8977780" lon="10.2904030">
	<ele>1596.40</ele>
	<time>2025-07-29T07:24:49.000Z</time>
</trkpt>
<trkpt lat="45.8977710" lon="10.2904100">
	<ele>1596.40</ele>
	<time>2025-07-29T07:24:50.000Z</time>
</trkpt>
<trkpt lat="45.8977610" lon="10.2904140">
	<ele>1596.60</ele>
	<time>2025-07-29T07:24:51.000Z</time>
</trkpt>
<trkpt lat="45.8977480" lon="10.2904130">
	<ele>1596.60</ele>
	<time>2025-07-29T07:24:52.000Z</time>
</trkpt>
<trkpt lat="45.8977370" lon="10.2904160">
	<ele>1596.60</ele>
	<time>2025-07-29T07:24:53.000Z</time>
</trkpt>
<trkpt lat="45.8977220" lon="10.2904120">
	<ele>1596.60</ele>
	<time>2025-07-29T07:24:54.000Z</time>
</trkpt>
<trkpt lat="45.8976960" lon="10.2904020">
	<ele>1596.80</ele>
	<time>2025-07-29T07:24:55.000Z</time>
</trkpt>
<trkpt lat="45.8976800" lon="10.2903980">
	<ele>1597.00</ele>
	<time>2025-07-29T07:24:56.000Z</time>
</trkpt>
<trkpt lat="45.8976690" lon="10.2904000">
	<ele>1597.00</ele>
	<time>2025-07-29T07:24:57.000Z</time>
</trkpt>
<trkpt lat="45.8976590" lon="10.2904010">
	<ele>1597.20</ele>
	<time>2025-07-29T07:24:58.000Z</time>
</trkpt>
<trkpt lat="45.8976510" lon="10.2904030">
	<ele>1597.40</ele>
	<time>2025-07-29T07:24:59.000Z</time>
</trkpt>
<trkpt lat="45.8976360" lon="10.2904040">
	<ele>1597.40</ele>
	<time>2025-07-29T07:25:00.000Z</time>
</trkpt>
<trkpt lat="45.8976270" lon="10.2904130">
	<ele>1597.60</ele>
	<time>2025-07-29T07:25:01.000Z</time>
</trkpt>
<trkpt lat="45.8976220" lon="10.2904200">
	<ele>1597.80</ele>
	<time>2025-07-29T07:25:02.000Z</time>
</trkpt>
<trkpt lat="45.8976180" lon="10.2904230">
	<ele>1598.00</ele>
	<time>2025-07-29T07:25:03.000Z</time>
</trkpt>
<trkpt lat="45.8976120" lon="10.2904290">
	<ele>1598.20</ele>
	<time>2025-07-29T07:25:04.000Z</time>
</trkpt>
<trkpt lat="45.8976060" lon="10.2904310">
	<ele>1598.20</ele>
	<time>2025-07-29T07:25:05.000Z</time>
</trkpt>
<trkpt lat="45.8975990" lon="10.2904360">
	<ele>1598.40</ele>
	<time>2025-07-29T07:25:06.000Z</time>
</trkpt>
<trkpt lat="45.8975800" lon="10.2904290">
	<ele>1598.40</ele>
	<time>2025-07-29T07:25:07.000Z</time>
</trkpt>
<trkpt lat="45.8975750" lon="10.2904250">
	<ele>1598.60</ele>
	<time>2025-07-29T07:25:08.000Z</time>
</trkpt>
<trkpt lat="45.8975690" lon="10.2904210">
	<ele>1598.60</ele>
	<time>2025-07-29T07:25:09.000Z</time>
</trkpt>
<trkpt lat="45.8975680" lon="10.2904160">
	<ele>1598.80</ele>
	<time>2025-07-29T07:25:10.000Z</time>
</trkpt>
<trkpt lat="45.8975660" lon="10.2904150">
	<ele>1598.80</ele>
	<time>2025-07-29T07:25:11.000Z</time>
</trkpt>
<trkpt lat="45.8975730" lon="10.2904170">
	<ele>1598.80</ele>
	<time>2025-07-29T07:25:12.000Z</time>
</trkpt>
<trkpt lat="45.8975680" lon="10.2904160">
	<ele>1599.00</ele>
	<time>2025-07-29T07:25:13.000Z</time>
</trkpt>
<trkpt lat="45.8975670" lon="10.2904110">
	<ele>1599.20</ele>
	<time>2025-07-29T07:25:14.000Z</time>
</trkpt>
<trkpt lat="45.8975580" lon="10.2904050">
	<ele>1599.60</ele>
	<time>2025-07-29T07:25:15.000Z</time>
</trkpt>
<trkpt lat="45.8975510" lon="10.2903990">
	<ele>1599.80</ele>
	<time>2025-07-29T07:25:16.000Z</time>
</trkpt>
<trkpt lat="45.8975460" lon="10.2903960">
	<ele>1599.80</ele>
	<time>2025-07-29T07:25:17.000Z</time>
</trkpt>
<trkpt lat="45.8975390" lon="10.2904060">
	<ele>1599.80</ele>
	<time>2025-07-29T07:25:18.000Z</time>
</trkpt>
<trkpt lat="45.8975350" lon="10.2904180">
	<ele>1600.00</ele>
	<time>2025-07-29T07:25:19.000Z</time>
</trkpt>
<trkpt lat="45.8975350" lon="10.2904300">
	<ele>1600.00</ele>
	<time>2025-07-29T07:25:20.000Z</time>
</trkpt>
<trkpt lat="45.8975330" lon="10.2904350">
	<ele>1600.00</ele>
	<time>2025-07-29T07:25:21.000Z</time>
</trkpt>
<trkpt lat="45.8975240" lon="10.2904470">
	<ele>1600.00</ele>
	<time>2025-07-29T07:25:22.000Z</time>
</trkpt>
<trkpt lat="45.8975160" lon="10.2904350">
	<ele>1600.00</ele>
	<time>2025-07-29T07:25:23.000Z</time>
</trkpt>
<trkpt lat="45.8975180" lon="10.2904480">
	<ele>1600.00</ele>
	<time>2025-07-29T07:25:24.000Z</time>
</trkpt>
<trkpt lat="45.8975140" lon="10.2904590">
	<ele>1600.40</ele>
	<time>2025-07-29T07:25:25.000Z</time>
</trkpt>
<trkpt lat="45.8975110" lon="10.2904620">
	<ele>1600.60</ele>
	<time>2025-07-29T07:25:26.000Z</time>
</trkpt>
<trkpt lat="45.8975020" lon="10.2904580">
	<ele>1600.80</ele>
	<time>2025-07-29T07:25:27.000Z</time>
</trkpt>
<trkpt lat="45.8974910" lon="10.2904510">
	<ele>1601.00</ele>
	<time>2025-07-29T07:25:28.000Z</time>
</trkpt>
<trkpt lat="45.8974580" lon="10.2904290">
	<ele>1601.20</ele>
	<time>2025-07-29T07:25:29.000Z</time>
</trkpt>
<trkpt lat="45.8974300" lon="10.2904180">
	<ele>1601.40</ele>
	<time>2025-07-29T07:25:30.000Z</time>
</trkpt>
<trkpt lat="45.8974120" lon="10.2904010">
	<ele>1601.60</ele>
	<time>2025-07-29T07:25:31.000Z</time>
</trkpt>
<trkpt lat="45.8973990" lon="10.2903910">
	<ele>1601.60</ele>
	<time>2025-07-29T07:25:32.000Z</time>
</trkpt>
<trkpt lat="45.8973780" lon="10.2903840">
	<ele>1601.80</ele>
	<time>2025-07-29T07:25:33.000Z</time>
</trkpt>
<trkpt lat="45.8973640" lon="10.2903780">
	<ele>1602.00</ele>
	<time>2025-07-29T07:25:34.000Z</time>
</trkpt>
<trkpt lat="45.8973430" lon="10.2903760">
	<ele>1602.20</ele>
	<time>2025-07-29T07:25:35.000Z</time>
</trkpt>
<trkpt lat="45.8973200" lon="10.2903690">
	<ele>1602.40</ele>
	<time>2025-07-29T07:25:36.000Z</time>
</trkpt>
<trkpt lat="45.8972950" lon="10.2903630">
	<ele>1602.60</ele>
	<time>2025-07-29T07:25:37.000Z</time>
</trkpt>
<trkpt lat="45.8972770" lon="10.2903600">
	<ele>1602.80</ele>
	<time>2025-07-29T07:25:38.000Z</time>
</trkpt>
<trkpt lat="45.8972670" lon="10.2903550">
	<ele>1602.80</ele>
	<time>2025-07-29T07:25:39.000Z</time>
</trkpt>
<trkpt lat="45.8972570" lon="10.2903520">
	<ele>1602.80</ele>
	<time>2025-07-29T07:25:40.000Z</time>
</trkpt>
<trkpt lat="45.8972430" lon="10.2903510">
	<ele>1603.00</ele>
	<time>2025-07-29T07:25:41.000Z</time>
</trkpt>
<trkpt lat="45.8972230" lon="10.2903500">
	<ele>1603.20</ele>
	<time>2025-07-29T07:25:42.000Z</time>
</trkpt>
<trkpt lat="45.8972110" lon="10.2903460">
	<ele>1603.40</ele>
	<time>2025-07-29T07:25:43.000Z</time>
</trkpt>
<trkpt lat="45.8972080" lon="10.2903470">
	<ele>1603.60</ele>
	<time>2025-07-29T07:25:44.000Z</time>
</trkpt>
<trkpt lat="45.8972070" lon="10.2903590">
	<ele>1603.80</ele>
	<time>2025-07-29T07:25:45.000Z</time>
</trkpt>
<trkpt lat="45.8972040" lon="10.2903760">
	<ele>1604.00</ele>
	<time>2025-07-29T07:25:46.000Z</time>
</trkpt>
<trkpt lat="45.8972020" lon="10.2903900">
	<ele>1604.20</ele>
	<time>2025-07-29T07:25:47.000Z</time>
</trkpt>
<trkpt lat="45.8971980" lon="10.2903990">
	<ele>1604.40</ele>
	<time>2025-07-29T07:25:48.000Z</time>
</trkpt>
<trkpt lat="45.8971900" lon="10.2904060">
	<ele>1604.40</ele>
	<time>2025-07-29T07:25:49.000Z</time>
</trkpt>
<trkpt lat="45.8971710" lon="10.2904110">
	<ele>1604.60</ele>
	<time>2025-07-29T07:25:50.000Z</time>
</trkpt>
<trkpt lat="45.8971570" lon="10.2904180">
	<ele>1604.80</ele>
	<time>2025-07-29T07:25:51.000Z</time>
</trkpt>
<trkpt lat="45.8971450" lon="10.2904250">
	<ele>1605.00</ele>
	<time>2025-07-29T07:25:52.000Z</time>
</trkpt>
<trkpt lat="45.8971360" lon="10.2904290">
	<ele>1605.00</ele>
	<time>2025-07-29T07:25:53.000Z</time>
</trkpt>
<trkpt lat="45.8971290" lon="10.2904360">
	<ele>1605.20</ele>
	<time>2025-07-29T07:25:54.000Z</time>
</trkpt>
<trkpt lat="45.8971210" lon="10.2904380">
	<ele>1605.20</ele>
	<time>2025-07-29T07:25:55.000Z</time>
</trkpt>
<trkpt lat="45.8971150" lon="10.2904390">
	<ele>1605.40</ele>
	<time>2025-07-29T07:25:56.000Z</time>
</trkpt>
<trkpt lat="45.8971120" lon="10.2904460">
	<ele>1605.60</ele>
	<time>2025-07-29T07:25:57.000Z</time>
</trkpt>
<trkpt lat="45.8971120" lon="10.2904510">
	<ele>1605.80</ele>
	<time>2025-07-29T07:25:58.000Z</time>
</trkpt>
<trkpt lat="45.8971100" lon="10.2904530">
	<ele>1605.80</ele>
	<time>2025-07-29T07:25:59.000Z</time>
</trkpt>
<trkpt lat="45.8971090" lon="10.2904530">
	<ele>1606.00</ele>
	<time>2025-07-29T07:26:00.000Z</time>
</trkpt>
<trkpt lat="45.8971040" lon="10.2904570">
	<ele>1606.20</ele>
	<time>2025-07-29T07:26:01.000Z</time>
</trkpt>
<trkpt lat="45.8970970" lon="10.2904530">
	<ele>1606.20</ele>
	<time>2025-07-29T07:26:02.000Z</time>
</trkpt>
<trkpt lat="45.8970890" lon="10.2904530">
	<ele>1606.40</ele>
	<time>2025-07-29T07:26:03.000Z</time>
</trkpt>
<trkpt lat="45.8970810" lon="10.2904620">
	<ele>1606.60</ele>
	<time>2025-07-29T07:26:04.000Z</time>
</trkpt>
<trkpt lat="45.8970850" lon="10.2904720">
	<ele>1606.80</ele>
	<time>2025-07-29T07:26:05.000Z</time>
</trkpt>
<trkpt lat="45.8970920" lon="10.2904800">
	<ele>1607.00</ele>
	<time>2025-07-29T07:26:06.000Z</time>
</trkpt>
<trkpt lat="45.8970910" lon="10.2904850">
	<ele>1607.20</ele>
	<time>2025-07-29T07:26:07.000Z</time>
</trkpt>
<trkpt lat="45.8970880" lon="10.2904800">
	<ele>1607.20</ele>
	<time>2025-07-29T07:26:08.000Z</time>
</trkpt>
<trkpt lat="45.8970750" lon="10.2904940">
	<ele>1607.40</ele>
	<time>2025-07-29T07:26:09.000Z</time>
</trkpt>
<trkpt lat="45.8970690" lon="10.2904990">
	<ele>1607.60</ele>
	<time>2025-07-29T07:26:10.000Z</time>
</trkpt>
<trkpt lat="45.8970650" lon="10.2905070">
	<ele>1607.60</ele>
	<time>2025-07-29T07:26:11.000Z</time>
</trkpt>
<trkpt lat="45.8970600" lon="10.2905030">
	<ele>1607.80</ele>
	<time>2025-07-29T07:26:12.000Z</time>
</trkpt>
<trkpt lat="45.8970540" lon="10.2904970">
	<ele>1607.80</ele>
	<time>2025-07-29T07:26:13.000Z</time>
</trkpt>
<trkpt lat="45.8970440" lon="10.2904900">
	<ele>1608.00</ele>
	<time>2025-07-29T07:26:14.000Z</time>
</trkpt>
<trkpt lat="45.8970300" lon="10.2904860">
	<ele>1608.00</ele>
	<time>2025-07-29T07:26:15.000Z</time>
</trkpt>
<trkpt lat="45.8970170" lon="10.2904870">
	<ele>1608.20</ele>
	<time>2025-07-29T07:26:16.000Z</time>
</trkpt>
<trkpt lat="45.8970020" lon="10.2904890">
	<ele>1608.20</ele>
	<time>2025-07-29T07:26:17.000Z</time>
</trkpt>
<trkpt lat="45.8969820" lon="10.2904860">
	<ele>1608.40</ele>
	<time>2025-07-29T07:26:18.000Z</time>
</trkpt>
<trkpt lat="45.8969640" lon="10.2904790">
	<ele>1608.40</ele>
	<time>2025-07-29T07:26:19.000Z</time>
</trkpt>
<trkpt lat="45.8969460" lon="10.2904750">
	<ele>1608.40</ele>
	<time>2025-07-29T07:26:20.000Z</time>
</trkpt>
<trkpt lat="45.8969350" lon="10.2904770">
	<ele>1608.60</ele>
	<time>2025-07-29T07:26:21.000Z</time>
</trkpt>
<trkpt lat="45.8969240" lon="10.2904750">
	<ele>1608.80</ele>
	<time>2025-07-29T07:26:22.000Z</time>
</trkpt>
<trkpt lat="45.8969100" lon="10.2904720">
	<ele>1608.80</ele>
	<time>2025-07-29T07:26:23.000Z</time>
</trkpt>
<trkpt lat="45.8968990" lon="10.2904720">
	<ele>1609.00</ele>
	<time>2025-07-29T07:26:24.000Z</time>
</trkpt>
<trkpt lat="45.8968840" lon="10.2904730">
	<ele>1609.00</ele>
	<time>2025-07-29T07:26:25.000Z</time>
</trkpt>
<trkpt lat="45.8968650" lon="10.2904710">
	<ele>1609.20</ele>
	<time>2025-07-29T07:26:26.000Z</time>
</trkpt>
<trkpt lat="45.8968560" lon="10.2904740">
	<ele>1609.20</ele>
	<time>2025-07-29T07:26:27.000Z</time>
</trkpt>
<trkpt lat="45.8968520" lon="10.2904770">
	<ele>1609.40</ele>
	<time>2025-07-29T07:26:28.000Z</time>
</trkpt>
<trkpt lat="45.8968490" lon="10.2904780">
	<ele>1609.40</ele>
	<time>2025-07-29T07:26:29.000Z</time>
</trkpt>
<trkpt lat="45.8968490" lon="10.2904800">
	<ele>1609.60</ele>
	<time>2025-07-29T07:26:30.000Z</time>
</trkpt>
<trkpt lat="45.8968540" lon="10.2904860">
	<ele>1609.80</ele>
	<time>2025-07-29T07:26:31.000Z</time>
</trkpt>
<trkpt lat="45.8968630" lon="10.2905000">
	<ele>1609.80</ele>
	<time>2025-07-29T07:26:32.000Z</time>
</trkpt>
<trkpt lat="45.8968660" lon="10.2905040">
	<ele>1610.00</ele>
	<time>2025-07-29T07:26:33.000Z</time>
</trkpt>
<trkpt lat="45.8968660" lon="10.2905050">
	<ele>1610.00</ele>
	<time>2025-07-29T07:26:34.000Z</time>
</trkpt>
<trkpt lat="45.8968620" lon="10.2905110">
	<ele>1610.20</ele>
	<time>2025-07-29T07:26:35.000Z</time>
</trkpt>
<trkpt lat="45.8968570" lon="10.2905130">
	<ele>1610.20</ele>
	<time>2025-07-29T07:26:36.000Z</time>
</trkpt>
<trkpt lat="45.8968500" lon="10.2905290">
	<ele>1610.40</ele>
	<time>2025-07-29T07:26:37.000Z</time>
</trkpt>
<trkpt lat="45.8968530" lon="10.2905410">
	<ele>1610.40</ele>
	<time>2025-07-29T07:26:38.000Z</time>
</trkpt>
<trkpt lat="45.8968610" lon="10.2905490">
	<ele>1610.60</ele>
	<time>2025-07-29T07:26:39.000Z</time>
</trkpt>
<trkpt lat="45.8968660" lon="10.2905440">
	<ele>1610.80</ele>
	<time>2025-07-29T07:26:40.000Z</time>
</trkpt>
<trkpt lat="45.8968610" lon="10.2905310">
	<ele>1611.00</ele>
	<time>2025-07-29T07:26:41.000Z</time>
</trkpt>
<trkpt lat="45.8968510" lon="10.2905170">
	<ele>1611.00</ele>
	<time>2025-07-29T07:26:42.000Z</time>
</trkpt>
<trkpt lat="45.8968360" lon="10.2905030">
	<ele>1611.20</ele>
	<time>2025-07-29T07:26:43.000Z</time>
</trkpt>
<trkpt lat="45.8968270" lon="10.2904920">
	<ele>1611.20</ele>
	<time>2025-07-29T07:26:44.000Z</time>
</trkpt>
<trkpt lat="45.8968180" lon="10.2904800">
	<ele>1611.40</ele>
	<time>2025-07-29T07:26:45.000Z</time>
</trkpt>
<trkpt lat="45.8968020" lon="10.2904730">
	<ele>1611.60</ele>
	<time>2025-07-29T07:26:46.000Z</time>
</trkpt>
<trkpt lat="45.8967820" lon="10.2904730">
	<ele>1611.60</ele>
	<time>2025-07-29T07:26:47.000Z</time>
</trkpt>
<trkpt lat="45.8967750" lon="10.2904730">
	<ele>1611.80</ele>
	<time>2025-07-29T07:26:48.000Z</time>
</trkpt>
<trkpt lat="45.8967560" lon="10.2904800">
	<ele>1612.00</ele>
	<time>2025-07-29T07:26:49.000Z</time>
</trkpt>
<trkpt lat="45.8967370" lon="10.2904850">
	<ele>1612.20</ele>
	<time>2025-07-29T07:26:50.000Z</time>
</trkpt>
<trkpt lat="45.8967240" lon="10.2904920">
	<ele>1612.40</ele>
	<time>2025-07-29T07:26:51.000Z</time>
</trkpt>
<trkpt lat="45.8967110" lon="10.2905060">
	<ele>1612.60</ele>
	<time>2025-07-29T07:26:52.000Z</time>
</trkpt>
<trkpt lat="45.8967050" lon="10.2905110">
	<ele>1612.80</ele>
	<time>2025-07-29T07:26:53.000Z</time>
</trkpt>
<trkpt lat="45.8966900" lon="10.2905240">
	<ele>1612.80</ele>
	<time>2025-07-29T07:26:54.000Z</time>
</trkpt>
<trkpt lat="45.8966850" lon="10.2905310">
	<ele>1613.00</ele>
	<time>2025-07-29T07:26:55.000Z</time>
</trkpt>
<trkpt lat="45.8966830" lon="10.2905390">
	<ele>1613.20</ele>
	<time>2025-07-29T07:26:56.000Z</time>
</trkpt>
<trkpt lat="45.8966680" lon="10.2905430">
	<ele>1613.40</ele>
	<time>2025-07-29T07:26:57.000Z</time>
</trkpt>
<trkpt lat="45.8966460" lon="10.2905530">
	<ele>1613.60</ele>
	<time>2025-07-29T07:26:58.000Z</time>
</trkpt>
<trkpt lat="45.8966230" lon="10.2905620">
	<ele>1613.80</ele>
	<time>2025-07-29T07:26:59.000Z</time>
</trkpt>
<trkpt lat="45.8966040" lon="10.2905620">
	<ele>1614.00</ele>
	<time>2025-07-29T07:27:00.000Z</time>
</trkpt>
<trkpt lat="45.8965880" lon="10.2905580">
	<ele>1614.00</ele>
	<time>2025-07-29T07:27:01.000Z</time>
</trkpt>
<trkpt lat="45.8965680" lon="10.2905500">
	<ele>1614.20</ele>
	<time>2025-07-29T07:27:02.000Z</time>
</trkpt>
<trkpt lat="45.8965560" lon="10.2905370">
	<ele>1614.40</ele>
	<time>2025-07-29T07:27:03.000Z</time>
</trkpt>
<trkpt lat="45.8965420" lon="10.2905250">
	<ele>1614.60</ele>
	<time>2025-07-29T07:27:04.000Z</time>
</trkpt>
<trkpt lat="45.8965350" lon="10.2905120">
	<ele>1614.80</ele>
	<time>2025-07-29T07:27:05.000Z</time>
</trkpt>
<trkpt lat="45.8965320" lon="10.2905070">
	<ele>1615.00</ele>
	<time>2025-07-29T07:27:06.000Z</time>
</trkpt>
<trkpt lat="45.8965310" lon="10.2905100">
	<ele>1615.20</ele>
	<time>2025-07-29T07:27:07.000Z</time>
</trkpt>
<trkpt lat="45.8965300" lon="10.2905110">
	<ele>1615.40</ele>
	<time>2025-07-29T07:27:08.000Z</time>
</trkpt>
<trkpt lat="45.8965220" lon="10.2905120">
	<ele>1615.60</ele>
	<time>2025-07-29T07:27:09.000Z</time>
</trkpt>
<trkpt lat="45.8965070" lon="10.2905140">
	<ele>1615.80</ele>
	<time>2025-07-29T07:27:10.000Z</time>
</trkpt>
<trkpt lat="45.8964900" lon="10.2905150">
	<ele>1615.80</ele>
	<time>2025-07-29T07:27:11.000Z</time>
</trkpt>
<trkpt lat="45.8964670" lon="10.2905200">
	<ele>1616.00</ele>
	<time>2025-07-29T07:27:12.000Z</time>
</trkpt>
<trkpt lat="45.8964590" lon="10.2905180">
	<ele>1616.00</ele>
	<time>2025-07-29T07:27:13.000Z</time>
</trkpt>
<trkpt lat="45.8964540" lon="10.2905190">
	<ele>1616.00</ele>
	<time>2025-07-29T07:27:14.000Z</time>
</trkpt>
<trkpt lat="45.8964530" lon="10.2905210">
	<ele>1616.20</ele>
	<time>2025-07-29T07:27:15.000Z</time>
</trkpt>
<trkpt lat="45.8964510" lon="10.2905250">
	<ele>1616.20</ele>
	<time>2025-07-29T07:27:16.000Z</time>
</trkpt>
<trkpt lat="45.8964510" lon="10.2905440">
	<ele>1616.40</ele>
	<time>2025-07-29T07:27:17.000Z</time>
</trkpt>
<trkpt lat="45.8964470" lon="10.2905540">
	<ele>1616.40</ele>
	<time>2025-07-29T07:27:18.000Z</time>
</trkpt>
<trkpt lat="45.8964330" lon="10.2905760">
	<ele>1616.60</ele>
	<time>2025-07-29T07:27:19.000Z</time>
</trkpt>
<trkpt lat="45.8964270" lon="10.2905790">
	<ele>1616.80</ele>
	<time>2025-07-29T07:27:20.000Z</time>
</trkpt>
<trkpt lat="45.8964250" lon="10.2906180">
	<ele>1616.80</ele>
	<time>2025-07-29T07:27:21.000Z</time>
</trkpt>
<trkpt lat="45.8964180" lon="10.2906420">
	<ele>1617.00</ele>
	<time>2025-07-29T07:27:22.000Z</time>
</trkpt>
<trkpt lat="45.8964200" lon="10.2906600">
	<ele>1617.00</ele>
	<time>2025-07-29T07:27:23.000Z</time>
</trkpt>
<trkpt lat="45.8964150" lon="10.2906570">
	<ele>1617.20</ele>
	<time>2025-07-29T07:27:24.000Z</time>
</trkpt>
<trkpt lat="45.8964050" lon="10.2906490">
	<ele>1617.20</ele>
	<time>2025-07-29T07:27:25.000Z</time>
</trkpt>
<trkpt lat="45.8963970" lon="10.2906410">
	<ele>1617.40</ele>
	<time>2025-07-29T07:27:26.000Z</time>
</trkpt>
<trkpt lat="45.8963860" lon="10.2906350">
	<ele>1617.40</ele>
	<time>2025-07-29T07:27:27.000Z</time>
</trkpt>
<trkpt lat="45.8963740" lon="10.2906260">
	<ele>1617.60</ele>
	<time>2025-07-29T07:27:28.000Z</time>
</trkpt>
<trkpt lat="45.8963700" lon="10.2906100">
	<ele>1617.80</ele>
	<time>2025-07-29T07:27:29.000Z</time>
</trkpt>
<trkpt lat="45.8963620" lon="10.2905890">
	<ele>1617.80</ele>
	<time>2025-07-29T07:27:30.000Z</time>
</trkpt>
<trkpt lat="45.8963540" lon="10.2905800">
	<ele>1618.00</ele>
	<time>2025-07-29T07:27:31.000Z</time>
</trkpt>
<trkpt lat="45.8963550" lon="10.2905710">
	<ele>1618.20</ele>
	<time>2025-07-29T07:27:32.000Z</time>
</trkpt>
<trkpt lat="45.8963510" lon="10.2905650">
	<ele>1618.40</ele>
	<time>2025-07-29T07:27:33.000Z</time>
</trkpt>
<trkpt lat="45.8963450" lon="10.2905620">
	<ele>1618.40</ele>
	<time>2025-07-29T07:27:34.000Z</time>
</trkpt>
<trkpt lat="45.8963260" lon="10.2905650">
	<ele>1618.60</ele>
	<time>2025-07-29T07:27:35.000Z</time>
</trkpt>
<trkpt lat="45.8963080" lon="10.2905750">
	<ele>1618.80</ele>
	<time>2025-07-29T07:27:36.000Z</time>
</trkpt>
<trkpt lat="45.8962740" lon="10.2905640">
	<ele>1619.00</ele>
	<time>2025-07-29T07:27:37.000Z</time>
</trkpt>
<trkpt lat="45.8962490" lon="10.2905540">
	<ele>1619.20</ele>
	<time>2025-07-29T07:27:38.000Z</time>
</trkpt>
<trkpt lat="45.8962300" lon="10.2905430">
	<ele>1619.40</ele>
	<time>2025-07-29T07:27:39.000Z</time>
</trkpt>
<trkpt lat="45.8962090" lon="10.2905330">
	<ele>1619.60</ele>
	<time>2025-07-29T07:27:40.000Z</time>
</trkpt>
<trkpt lat="45.8961960" lon="10.2905330">
	<ele>1619.80</ele>
	<time>2025-07-29T07:27:41.000Z</time>
</trkpt>
<trkpt lat="45.8961800" lon="10.2905320">
	<ele>1620.00</ele>
	<time>2025-07-29T07:27:42.000Z</time>
</trkpt>
<trkpt lat="45.8961630" lon="10.2905340">
	<ele>1620.00</ele>
	<time>2025-07-29T07:27:43.000Z</time>
</trkpt>
<trkpt lat="45.8961560" lon="10.2905310">
	<ele>1620.20</ele>
	<time>2025-07-29T07:27:44.000Z</time>
</trkpt>
<trkpt lat="45.8961440" lon="10.2905340">
	<ele>1620.20</ele>
	<time>2025-07-29T07:27:45.000Z</time>
</trkpt>
<trkpt lat="45.8961350" lon="10.2905360">
	<ele>1620.40</ele>
	<time>2025-07-29T07:27:46.000Z</time>
</trkpt>
<trkpt lat="45.8961310" lon="10.2905330">
	<ele>1620.60</ele>
	<time>2025-07-29T07:27:47.000Z</time>
</trkpt>
<trkpt lat="45.8961300" lon="10.2905330">
	<ele>1620.80</ele>
	<time>2025-07-29T07:27:48.000Z</time>
</trkpt>
<trkpt lat="45.8961390" lon="10.2905410">
	<ele>1620.80</ele>
	<time>2025-07-29T07:27:49.000Z</time>
</trkpt>
<trkpt lat="45.8961410" lon="10.2905410">
	<ele>1621.00</ele>
	<time>2025-07-29T07:27:50.000Z</time>
</trkpt>
<trkpt lat="45.8961410" lon="10.2905400">
	<ele>1621.20</ele>
	<time>2025-07-29T07:27:51.000Z</time>
</trkpt>
<trkpt lat="45.8961410" lon="10.2905410">
	<ele>1621.40</ele>
	<time>2025-07-29T07:27:52.000Z</time>
</trkpt>
<trkpt lat="45.8961360" lon="10.2905500">
	<ele>1621.40</ele>
	<time>2025-07-29T07:27:53.000Z</time>
</trkpt>
<trkpt lat="45.8961350" lon="10.2905660">
	<ele>1621.40</ele>
	<time>2025-07-29T07:27:54.000Z</time>
</trkpt>
<trkpt lat="45.8961280" lon="10.2905880">
	<ele>1621.40</ele>
	<time>2025-07-29T07:27:55.000Z</time>
</trkpt>
<trkpt lat="45.8961190" lon="10.2905880">
	<ele>1621.40</ele>
	<time>2025-07-29T07:27:56.000Z</time>
</trkpt>
<trkpt lat="45.8961170" lon="10.2905910">
	<ele>1621.40</ele>
	<time>2025-07-29T07:27:57.000Z</time>
</trkpt>
<trkpt lat="45.8961090" lon="10.2906030">
	<ele>1621.40</ele>
	<time>2025-07-29T07:27:58.000Z</time>
</trkpt>
<trkpt lat="45.8960960" lon="10.2906060">
	<ele>1621.40</ele>
	<time>2025-07-29T07:27:59.000Z</time>
</trkpt>
<trkpt lat="45.8960820" lon="10.2906060">
	<ele>1621.60</ele>
	<time>2025-07-29T07:28:00.000Z</time>
</trkpt>
<trkpt lat="45.8960650" lon="10.2906060">
	<ele>1621.80</ele>
	<time>2025-07-29T07:28:01.000Z</time>
</trkpt>
<trkpt lat="45.8960580" lon="10.2906020">
	<ele>1622.00</ele>
	<time>2025-07-29T07:28:02.000Z</time>
</trkpt>
<trkpt lat="45.8960470" lon="10.2906030">
	<ele>1622.20</ele>
	<time>2025-07-29T07:28:03.000Z</time>
</trkpt>
<trkpt lat="45.8960340" lon="10.2906020">
	<ele>1622.20</ele>
	<time>2025-07-29T07:28:04.000Z</time>
</trkpt>
<trkpt lat="45.8960150" lon="10.2906010">
	<ele>1622.40</ele>
	<time>2025-07-29T07:28:05.000Z</time>
</trkpt>
<trkpt lat="45.8960080" lon="10.2906000">
	<ele>1622.40</ele>
	<time>2025-07-29T07:28:06.000Z</time>
</trkpt>
<trkpt lat="45.8960050" lon="10.2906010">
	<ele>1622.60</ele>
	<time>2025-07-29T07:28:07.000Z</time>
</trkpt>
<trkpt lat="45.8960030" lon="10.2906030">
	<ele>1622.60</ele>
	<time>2025-07-29T07:28:08.000Z</time>
</trkpt>
<trkpt lat="45.8960030" lon="10.2906090">
	<ele>1622.80</ele>
	<time>2025-07-29T07:28:09.000Z</time>
</trkpt>
<trkpt lat="45.8960000" lon="10.2906100">
	<ele>1623.00</ele>
	<time>2025-07-29T07:28:10.000Z</time>
</trkpt>
<trkpt lat="45.8959930" lon="10.2906110">
	<ele>1623.00</ele>
	<time>2025-07-29T07:28:11.000Z</time>
</trkpt>
<trkpt lat="45.8959870" lon="10.2906100">
	<ele>1623.20</ele>
	<time>2025-07-29T07:28:12.000Z</time>
</trkpt>
<trkpt lat="45.8959810" lon="10.2906090">
	<ele>1623.40</ele>
	<time>2025-07-29T07:28:13.000Z</time>
</trkpt>
<trkpt lat="45.8959730" lon="10.2906080">
	<ele>1623.40</ele>
	<time>2025-07-29T07:28:14.000Z</time>
</trkpt>
<trkpt lat="45.8959640" lon="10.2906100">
	<ele>1623.80</ele>
	<time>2025-07-29T07:28:15.000Z</time>
</trkpt>
<trkpt lat="45.8959570" lon="10.2906100">
	<ele>1624.00</ele>
	<time>2025-07-29T07:28:16.000Z</time>
</trkpt>
<trkpt lat="45.8959500" lon="10.2906070">
	<ele>1624.00</ele>
	<time>2025-07-29T07:28:17.000Z</time>
</trkpt>
<trkpt lat="45.8959350" lon="10.2906070">
	<ele>1624.20</ele>
	<time>2025-07-29T07:28:18.000Z</time>
</trkpt>
<trkpt lat="45.8959240" lon="10.2906080">
	<ele>1624.20</ele>
	<time>2025-07-29T07:28:19.000Z</time>
</trkpt>
<trkpt lat="45.8959160" lon="10.2906080">
	<ele>1624.60</ele>
	<time>2025-07-29T07:28:20.000Z</time>
</trkpt>
<trkpt lat="45.8959100" lon="10.2906060">
	<ele>1624.80</ele>
	<time>2025-07-29T07:28:21.000Z</time>
</trkpt>
<trkpt lat="45.8959040" lon="10.2906070">
	<ele>1625.00</ele>
	<time>2025-07-29T07:28:22.000Z</time>
</trkpt>
<trkpt lat="45.8959010" lon="10.2906040">
	<ele>1625.00</ele>
	<time>2025-07-29T07:28:23.000Z</time>
</trkpt>
<trkpt lat="45.8958970" lon="10.2906000">
	<ele>1625.20</ele>
	<time>2025-07-29T07:28:24.000Z</time>
</trkpt>
<trkpt lat="45.8958910" lon="10.2905840">
	<ele>1625.20</ele>
	<time>2025-07-29T07:28:25.000Z</time>
</trkpt>
<trkpt lat="45.8958810" lon="10.2905750">
	<ele>1625.20</ele>
	<time>2025-07-29T07:28:26.000Z</time>
</trkpt>
<trkpt lat="45.8958660" lon="10.2905620">
	<ele>1625.40</ele>
	<time>2025-07-29T07:28:27.000Z</time>
</trkpt>
<trkpt lat="45.8958570" lon="10.2905540">
	<ele>1625.60</ele>
	<time>2025-07-29T07:28:28.000Z</time>
</trkpt>
<trkpt lat="45.8958400" lon="10.2905560">
	<ele>1625.80</ele>
	<time>2025-07-29T07:28:29.000Z</time>
</trkpt>
<trkpt lat="45.8958330" lon="10.2905470">
	<ele>1625.80</ele>
	<time>2025-07-29T07:28:30.000Z</time>
</trkpt>
<trkpt lat="45.8958240" lon="10.2905440">
	<ele>1625.80</ele>
	<time>2025-07-29T07:28:31.000Z</time>
</trkpt>
<trkpt lat="45.8958130" lon="10.2905430">
	<ele>1626.00</ele>
	<time>2025-07-29T07:28:32.000Z</time>
</trkpt>
<trkpt lat="45.8958070" lon="10.2905400">
	<ele>1626.00</ele>
	<time>2025-07-29T07:28:33.000Z</time>
</trkpt>
<trkpt lat="45.8958030" lon="10.2905350">
	<ele>1626.20</ele>
	<time>2025-07-29T07:28:34.000Z</time>
</trkpt>
<trkpt lat="45.8957950" lon="10.2905300">
	<ele>1626.20</ele>
	<time>2025-07-29T07:28:35.000Z</time>
</trkpt>
<trkpt lat="45.8957910" lon="10.2905220">
	<ele>1626.40</ele>
	<time>2025-07-29T07:28:36.000Z</time>
</trkpt>
<trkpt lat="45.8957800" lon="10.2905190">
	<ele>1626.60</ele>
	<time>2025-07-29T07:28:37.000Z</time>
</trkpt>
<trkpt lat="45.8957680" lon="10.2905160">
	<ele>1626.60</ele>
	<time>2025-07-29T07:28:38.000Z</time>
</trkpt>
<trkpt lat="45.8957610" lon="10.2905090">
	<ele>1626.80</ele>
	<time>2025-07-29T07:28:39.000Z</time>
</trkpt>
<trkpt lat="45.8957540" lon="10.2905050">
	<ele>1626.80</ele>
	<time>2025-07-29T07:28:40.000Z</time>
</trkpt>
<trkpt lat="45.8957460" lon="10.2905000">
	<ele>1627.00</ele>
	<time>2025-07-29T07:28:41.000Z</time>
</trkpt>
<trkpt lat="45.8957410" lon="10.2904950">
	<ele>1627.20</ele>
	<time>2025-07-29T07:28:42.000Z</time>
</trkpt>
<trkpt lat="45.8957320" lon="10.2904970">
	<ele>1627.40</ele>
	<time>2025-07-29T07:28:43.000Z</time>
</trkpt>
<trkpt lat="45.8957260" lon="10.2904960">
	<ele>1627.40</ele>
	<time>2025-07-29T07:28:44.000Z</time>
</trkpt>
<trkpt lat="45.8957200" lon="10.2904950">
	<ele>1627.40</ele>
	<time>2025-07-29T07:28:45.000Z</time>
</trkpt>
<trkpt lat="45.8957160" lon="10.2904910">
	<ele>1627.60</ele>
	<time>2025-07-29T07:28:46.000Z</time>
</trkpt>
<trkpt lat="45.8957200" lon="10.2904870">
	<ele>1627.80</ele>
	<time>2025-07-29T07:28:47.000Z</time>
</trkpt>
<trkpt lat="45.8957220" lon="10.2904950">
	<ele>1627.80</ele>
	<time>2025-07-29T07:28:48.000Z</time>
</trkpt>
<trkpt lat="45.8957310" lon="10.2905040">
	<ele>1628.00</ele>
	<time>2025-07-29T07:28:49.000Z</time>
</trkpt>
<trkpt lat="45.8957330" lon="10.2905170">
	<ele>1628.00</ele>
	<time>2025-07-29T07:28:50.000Z</time>
</trkpt>
<trkpt lat="45.8957310" lon="10.2905270">
	<ele>1628.20</ele>
	<time>2025-07-29T07:28:51.000Z</time>
</trkpt>
<trkpt lat="45.8957320" lon="10.2905280">
	<ele>1628.40</ele>
	<time>2025-07-29T07:28:52.000Z</time>
</trkpt>
<trkpt lat="45.8957290" lon="10.2905290">
	<ele>1628.40</ele>
	<time>2025-07-29T07:28:53.000Z</time>
</trkpt>
<trkpt lat="45.8957230" lon="10.2905340">
	<ele>1628.40</ele>
	<time>2025-07-29T07:28:54.000Z</time>
</trkpt>
<trkpt lat="45.8957200" lon="10.2905380">
	<ele>1628.60</ele>
	<time>2025-07-29T07:28:55.000Z</time>
</trkpt>
<trkpt lat="45.8957130" lon="10.2905410">
	<ele>1628.80</ele>
	<time>2025-07-29T07:28:56.000Z</time>
</trkpt>
<trkpt lat="45.8957100" lon="10.2905400">
	<ele>1629.00</ele>
	<time>2025-07-29T07:28:57.000Z</time>
</trkpt>
<trkpt lat="45.8957040" lon="10.2905390">
	<ele>1629.20</ele>
	<time>2025-07-29T07:28:58.000Z</time>
</trkpt>
<trkpt lat="45.8957010" lon="10.2905380">
	<ele>1629.20</ele>
	<time>2025-07-29T07:28:59.000Z</time>
</trkpt>
<trkpt lat="45.8956900" lon="10.2905360">
	<ele>1629.60</ele>
	<time>2025-07-29T07:29:00.000Z</time>
</trkpt>
<trkpt lat="45.8956860" lon="10.2905400">
	<ele>1629.80</ele>
	<time>2025-07-29T07:29:01.000Z</time>
</trkpt>
<trkpt lat="45.8956830" lon="10.2905400">
	<ele>1630.00</ele>
	<time>2025-07-29T07:29:02.000Z</time>
</trkpt>
<trkpt lat="45.8956750" lon="10.2905370">
	<ele>1630.00</ele>
	<time>2025-07-29T07:29:03.000Z</time>
</trkpt>
<trkpt lat="45.8956680" lon="10.2905370">
	<ele>1630.20</ele>
	<time>2025-07-29T07:29:04.000Z</time>
</trkpt>
<trkpt lat="45.8956570" lon="10.2905390">
	<ele>1630.40</ele>
	<time>2025-07-29T07:29:05.000Z</time>
</trkpt>
<trkpt lat="45.8956490" lon="10.2905430">
	<ele>1630.40</ele>
	<time>2025-07-29T07:29:06.000Z</time>
</trkpt>
<trkpt lat="45.8956420" lon="10.2905420">
	<ele>1630.80</ele>
	<time>2025-07-29T07:29:07.000Z</time>
</trkpt>
<trkpt lat="45.8956360" lon="10.2905380">
	<ele>1631.00</ele>
	<time>2025-07-29T07:29:08.000Z</time>
</trkpt>
<trkpt lat="45.8956260" lon="10.2905320">
	<ele>1631.00</ele>
	<time>2025-07-29T07:29:09.000Z</time>
</trkpt>
<trkpt lat="45.8956120" lon="10.2905190">
	<ele>1631.00</ele>
	<time>2025-07-29T07:29:10.000Z</time>
</trkpt>
<trkpt lat="45.8956020" lon="10.2905090">
	<ele>1631.20</ele>
	<time>2025-07-29T07:29:11.000Z</time>
</trkpt>
<trkpt lat="45.8955850" lon="10.2905050">
	<ele>1631.20</ele>
	<time>2025-07-29T07:29:12.000Z</time>
</trkpt>
<trkpt lat="45.8955790" lon="10.2904990">
	<ele>1631.20</ele>
	<time>2025-07-29T07:29:13.000Z</time>
</trkpt>
<trkpt lat="45.8955620" lon="10.2904990">
	<ele>1631.20</ele>
	<time>2025-07-29T07:29:14.000Z</time>
</trkpt>
<trkpt lat="45.8955520" lon="10.2904890">
	<ele>1631.60</ele>
	<time>2025-07-29T07:29:15.000Z</time>
</trkpt>
<trkpt lat="45.8955460" lon="10.2904760">
	<ele>1631.80</ele>
	<time>2025-07-29T07:29:16.000Z</time>
</trkpt>
<trkpt lat="45.8955420" lon="10.2904700">
	<ele>1632.20</ele>
	<time>2025-07-29T07:29:17.000Z</time>
</trkpt>
<trkpt lat="45.8955280" lon="10.2904640">
	<ele>1632.60</ele>
	<time>2025-07-29T07:29:18.000Z</time>
</trkpt>
<trkpt lat="45.8955220" lon="10.2904630">
	<ele>1632.60</ele>
	<time>2025-07-29T07:29:19.000Z</time>
</trkpt>
<trkpt lat="45.8955060" lon="10.2904580">
	<ele>1632.80</ele>
	<time>2025-07-29T07:29:20.000Z</time>
</trkpt>
<trkpt lat="45.8954930" lon="10.2904450">
	<ele>1633.00</ele>
	<time>2025-07-29T07:29:21.000Z</time>
</trkpt>
<trkpt lat="45.8954830" lon="10.2904340">
	<ele>1633.00</ele>
	<time>2025-07-29T07:29:22.000Z</time>
</trkpt>
<trkpt lat="45.8954700" lon="10.2904260">
	<ele>1633.20</ele>
	<time>2025-07-29T07:29:23.000Z</time>
</trkpt>
<trkpt lat="45.8954620" lon="10.2904300">
	<ele>1633.20</ele>
	<time>2025-07-29T07:29:24.000Z</time>
</trkpt>
<trkpt lat="45.8954550" lon="10.2904320">
	<ele>1633.40</ele>
	<time>2025-07-29T07:29:25.000Z</time>
</trkpt>
<trkpt lat="45.8954440" lon="10.2904280">
	<ele>1633.40</ele>
	<time>2025-07-29T07:29:26.000Z</time>
</trkpt>
<trkpt lat="45.8954410" lon="10.2904250">
	<ele>1633.60</ele>
	<time>2025-07-29T07:29:27.000Z</time>
</trkpt>
<trkpt lat="45.8954360" lon="10.2904220">
	<ele>1633.80</ele>
	<time>2025-07-29T07:29:28.000Z</time>
</trkpt>
<trkpt lat="45.8954390" lon="10.2904230">
	<ele>1633.80</ele>
	<time>2025-07-29T07:29:29.000Z</time>
</trkpt>
<trkpt lat="45.8954290" lon="10.2904200">
	<ele>1633.80</ele>
	<time>2025-07-29T07:29:30.000Z</time>
</trkpt>
<trkpt lat="45.8954240" lon="10.2904160">
	<ele>1634.00</ele>
	<time>2025-07-29T07:29:31.000Z</time>
</trkpt>
<trkpt lat="45.8954190" lon="10.2904150">
	<ele>1634.20</ele>
	<time>2025-07-29T07:29:32.000Z</time>
</trkpt>
<trkpt lat="45.8954110" lon="10.2904150">
	<ele>1634.40</ele>
	<time>2025-07-29T07:29:33.000Z</time>
</trkpt>
<trkpt lat="45.8954030" lon="10.2904150">
	<ele>1634.40</ele>
	<time>2025-07-29T07:29:34.000Z</time>
</trkpt>
<trkpt lat="45.8953970" lon="10.2904100">
	<ele>1634.80</ele>
	<time>2025-07-29T07:29:35.000Z</time>
</trkpt>
<trkpt lat="45.8953920" lon="10.2904080">
	<ele>1634.80</ele>
	<time>2025-07-29T07:29:36.000Z</time>
</trkpt>
<trkpt lat="45.8953890" lon="10.2904040">
	<ele>1635.00</ele>
	<time>2025-07-29T07:29:37.000Z</time>
</trkpt>
<trkpt lat="45.8953810" lon="10.2904040">
	<ele>1635.00</ele>
	<time>2025-07-29T07:29:38.000Z</time>
</trkpt>
<trkpt lat="45.8953680" lon="10.2903990">
	<ele>1635.20</ele>
	<time>2025-07-29T07:29:39.000Z</time>
</trkpt>
<trkpt lat="45.8953620" lon="10.2903880">
	<ele>1635.40</ele>
	<time>2025-07-29T07:29:40.000Z</time>
</trkpt>
<trkpt lat="45.8953570" lon="10.2903890">
	<ele>1635.40</ele>
	<time>2025-07-29T07:29:41.000Z</time>
</trkpt>
<trkpt lat="45.8953580" lon="10.2903800">
	<ele>1635.60</ele>
	<time>2025-07-29T07:29:42.000Z</time>
</trkpt>
<trkpt lat="45.8953570" lon="10.2903710">
	<ele>1635.80</ele>
	<time>2025-07-29T07:29:43.000Z</time>
</trkpt>
<trkpt lat="45.8953530" lon="10.2903700">
	<ele>1636.00</ele>
	<time>2025-07-29T07:29:44.000Z</time>
</trkpt>
<trkpt lat="45.8953470" lon="10.2903660">
	<ele>1636.20</ele>
	<time>2025-07-29T07:29:45.000Z</time>
</trkpt>
<trkpt lat="45.8953420" lon="10.2903620">
	<ele>1636.40</ele>
	<time>2025-07-29T07:29:46.000Z</time>
</trkpt>
<trkpt lat="45.8953390" lon="10.2903450">
	<ele>1636.40</ele>
	<time>2025-07-29T07:29:47.000Z</time>
</trkpt>
<trkpt lat="45.8953350" lon="10.2903420">
	<ele>1636.60</ele>
	<time>2025-07-29T07:29:48.000Z</time>
</trkpt>
<trkpt lat="45.8953370" lon="10.2903440">
	<ele>1636.80</ele>
	<time>2025-07-29T07:29:49.000Z</time>
</trkpt>
<trkpt lat="45.8953390" lon="10.2903450">
	<ele>1637.00</ele>
	<time>2025-07-29T07:29:50.000Z</time>
</trkpt>
<trkpt lat="45.8953320" lon="10.2903480">
	<ele>1637.20</ele>
	<time>2025-07-29T07:29:51.000Z</time>
</trkpt>
<trkpt lat="45.8953310" lon="10.2903480">
	<ele>1637.20</ele>
	<time>2025-07-29T07:29:52.000Z</time>
</trkpt>
<trkpt lat="45.8953280" lon="10.2903470">
	<ele>1637.40</ele>
	<time>2025-07-29T07:29:53.000Z</time>
</trkpt>
<trkpt lat="45.8953210" lon="10.2903430">
	<ele>1637.60</ele>
	<time>2025-07-29T07:29:54.000Z</time>
</trkpt>
<trkpt lat="45.8953130" lon="10.2903400">
	<ele>1637.60</ele>
	<time>2025-07-29T07:29:55.000Z</time>
</trkpt>
<trkpt lat="45.8953020" lon="10.2903360">
	<ele>1638.00</ele>
	<time>2025-07-29T07:29:56.000Z</time>
</trkpt>
<trkpt lat="45.8952920" lon="10.2903380">
	<ele>1638.20</ele>
	<time>2025-07-29T07:29:57.000Z</time>
</trkpt>
<trkpt lat="45.8952800" lon="10.2903390">
	<ele>1638.40</ele>
	<time>2025-07-29T07:29:58.000Z</time>
</trkpt>
<trkpt lat="45.8952750" lon="10.2903370">
	<ele>1638.40</ele>
	<time>2025-07-29T07:29:59.000Z</time>
</trkpt>
<trkpt lat="45.8952710" lon="10.2903370">
	<ele>1638.60</ele>
	<time>2025-07-29T07:30:00.000Z</time>
</trkpt>
<trkpt lat="45.8952670" lon="10.2903230">
	<ele>1638.80</ele>
	<time>2025-07-29T07:30:01.000Z</time>
</trkpt>
<trkpt lat="45.8952640" lon="10.2903190">
	<ele>1639.00</ele>
	<time>2025-07-29T07:30:02.000Z</time>
</trkpt>
<trkpt lat="45.8952590" lon="10.2903140">
	<ele>1639.20</ele>
	<time>2025-07-29T07:30:03.000Z</time>
</trkpt>
<trkpt lat="45.8952550" lon="10.2903090">
	<ele>1639.20</ele>
	<time>2025-07-29T07:30:04.000Z</time>
</trkpt>
<trkpt lat="45.8952510" lon="10.2903080">
	<ele>1639.40</ele>
	<time>2025-07-29T07:30:05.000Z</time>
</trkpt>
<trkpt lat="45.8952470" lon="10.2903110">
	<ele>1639.40</ele>
	<time>2025-07-29T07:30:06.000Z</time>
</trkpt>
<trkpt lat="45.8952410" lon="10.2903090">
	<ele>1639.60</ele>
	<time>2025-07-29T07:30:07.000Z</time>
</trkpt>
<trkpt lat="45.8952350" lon="10.2903060">
	<ele>1639.80</ele>
	<time>2025-07-29T07:30:08.000Z</time>
</trkpt>
<trkpt lat="45.8952320" lon="10.2903040">
	<ele>1640.00</ele>
	<time>2025-07-29T07:30:09.000Z</time>
</trkpt>
<trkpt lat="45.8952240" lon="10.2902990">
	<ele>1640.20</ele>
	<time>2025-07-29T07:30:10.000Z</time>
</trkpt>
<trkpt lat="45.8952120" lon="10.2902920">
	<ele>1640.60</ele>
	<time>2025-07-29T07:30:11.000Z</time>
</trkpt>
<trkpt lat="45.8952070" lon="10.2902920">
	<ele>1640.60</ele>
	<time>2025-07-29T07:30:12.000Z</time>
</trkpt>
<trkpt lat="45.8952030" lon="10.2902970">
	<ele>1641.00</ele>
	<time>2025-07-29T07:30:13.000Z</time>
</trkpt>
<trkpt lat="45.8951970" lon="10.2903000">
	<ele>1641.40</ele>
	<time>2025-07-29T07:30:14.000Z</time>
</trkpt>
<trkpt lat="45.8951950" lon="10.2902990">
	<ele>1641.60</ele>
	<time>2025-07-29T07:30:15.000Z</time>
</trkpt>
<trkpt lat="45.8951950" lon="10.2903000">
	<ele>1641.80</ele>
	<time>2025-07-29T07:30:16.000Z</time>
</trkpt>
<trkpt lat="45.8951940" lon="10.2903030">
	<ele>1641.80</ele>
	<time>2025-07-29T07:30:17.000Z</time>
</trkpt>
<trkpt lat="45.8951860" lon="10.2903050">
	<ele>1641.80</ele>
	<time>2025-07-29T07:30:18.000Z</time>
</trkpt>
<trkpt lat="45.8951800" lon="10.2903080">
	<ele>1642.00</ele>
	<time>2025-07-29T07:30:19.000Z</time>
</trkpt>
<trkpt lat="45.8951720" lon="10.2903060">
	<ele>1642.00</ele>
	<time>2025-07-29T07:30:20.000Z</time>
</trkpt>
<trkpt lat="45.8951620" lon="10.2903030">
	<ele>1642.20</ele>
	<time>2025-07-29T07:30:21.000Z</time>
</trkpt>
<trkpt lat="45.8951550" lon="10.2903050">
	<ele>1642.40</ele>
	<time>2025-07-29T07:30:22.000Z</time>
</trkpt>
<trkpt lat="45.8951470" lon="10.2903090">
	<ele>1642.60</ele>
	<time>2025-07-29T07:30:23.000Z</time>
</trkpt>
<trkpt lat="45.8951430" lon="10.2903080">
	<ele>1642.80</ele>
	<time>2025-07-29T07:30:24.000Z</time>
</trkpt>
<trkpt lat="45.8951400" lon="10.2903050">
	<ele>1643.00</ele>
	<time>2025-07-29T07:30:25.000Z</time>
</trkpt>
<trkpt lat="45.8951340" lon="10.2903010">
	<ele>1643.00</ele>
	<time>2025-07-29T07:30:26.000Z</time>
</trkpt>
<trkpt lat="45.8951270" lon="10.2902980">
	<ele>1643.20</ele>
	<time>2025-07-29T07:30:27.000Z</time>
</trkpt>
<trkpt lat="45.8951240" lon="10.2902980">
	<ele>1643.40</ele>
	<time>2025-07-29T07:30:28.000Z</time>
</trkpt>
<trkpt lat="45.8951220" lon="10.2902970">
	<ele>1643.60</ele>
	<time>2025-07-29T07:30:29.000Z</time>
</trkpt>
<trkpt lat="45.8951230" lon="10.2902960">
	<ele>1643.80</ele>
	<time>2025-07-29T07:30:30.000Z</time>
</trkpt>
<trkpt lat="45.8951240" lon="10.2902960">
	<ele>1643.80</ele>
	<time>2025-07-29T07:30:31.000Z</time>
</trkpt>
<trkpt lat="45.8951260" lon="10.2902910">
	<ele>1644.00</ele>
	<time>2025-07-29T07:30:32.000Z</time>
</trkpt>
<trkpt lat="45.8951200" lon="10.2902830">
	<ele>1644.40</ele>
	<time>2025-07-29T07:30:33.000Z</time>
</trkpt>
<trkpt lat="45.8951100" lon="10.2902720">
	<ele>1644.60</ele>
	<time>2025-07-29T07:30:34.000Z</time>
</trkpt>
<trkpt lat="45.8950980" lon="10.2902530">
	<ele>1644.80</ele>
	<time>2025-07-29T07:30:35.000Z</time>
</trkpt>
<trkpt lat="45.8950820" lon="10.2902320">
	<ele>1645.00</ele>
	<time>2025-07-29T07:30:36.000Z</time>
</trkpt>
<trkpt lat="45.8950660" lon="10.2902320">
	<ele>1645.20</ele>
	<time>2025-07-29T07:30:37.000Z</time>
</trkpt>
<trkpt lat="45.8950490" lon="10.2902410">
	<ele>1645.40</ele>
	<time>2025-07-29T07:30:38.000Z</time>
</trkpt>
<trkpt lat="45.8950380" lon="10.2902480">
	<ele>1645.40</ele>
	<time>2025-07-29T07:30:39.000Z</time>
</trkpt>
<trkpt lat="45.8950250" lon="10.2902540">
	<ele>1645.60</ele>
	<time>2025-07-29T07:30:40.000Z</time>
</trkpt>
<trkpt lat="45.8950150" lon="10.2902550">
	<ele>1645.80</ele>
	<time>2025-07-29T07:30:41.000Z</time>
</trkpt>
<trkpt lat="45.8950030" lon="10.2902570">
	<ele>1645.80</ele>
	<time>2025-07-29T07:30:42.000Z</time>
</trkpt>
<trkpt lat="45.8949850" lon="10.2902550">
	<ele>1646.00</ele>
	<time>2025-07-29T07:30:43.000Z</time>
</trkpt>
<trkpt lat="45.8949740" lon="10.2902500">
	<ele>1646.20</ele>
	<time>2025-07-29T07:30:44.000Z</time>
</trkpt>
<trkpt lat="45.8949590" lon="10.2902480">
	<ele>1646.40</ele>
	<time>2025-07-29T07:30:45.000Z</time>
</trkpt>
<trkpt lat="45.8949500" lon="10.2902460">
	<ele>1646.60</ele>
	<time>2025-07-29T07:30:46.000Z</time>
</trkpt>
<trkpt lat="45.8949460" lon="10.2902440">
	<ele>1646.80</ele>
	<time>2025-07-29T07:30:47.000Z</time>
</trkpt>
<trkpt lat="45.8949360" lon="10.2902420">
	<ele>1647.00</ele>
	<time>2025-07-29T07:30:48.000Z</time>
</trkpt>
<trkpt lat="45.8949290" lon="10.2902390">
	<ele>1647.00</ele>
	<time>2025-07-29T07:30:49.000Z</time>
</trkpt>
<trkpt lat="45.8949240" lon="10.2902370">
	<ele>1647.20</ele>
	<time>2025-07-29T07:30:50.000Z</time>
</trkpt>
<trkpt lat="45.8949240" lon="10.2902300">
	<ele>1647.40</ele>
	<time>2025-07-29T07:30:51.000Z</time>
</trkpt>
<trkpt lat="45.8949230" lon="10.2902220">
	<ele>1647.40</ele>
	<time>2025-07-29T07:30:52.000Z</time>
</trkpt>
<trkpt lat="45.8949210" lon="10.2902160">
	<ele>1647.80</ele>
	<time>2025-07-29T07:30:53.000Z</time>
</trkpt>
<trkpt lat="45.8949210" lon="10.2902130">
	<ele>1647.80</ele>
	<time>2025-07-29T07:30:54.000Z</time>
</trkpt>
<trkpt lat="45.8949200" lon="10.2901980">
	<ele>1648.00</ele>
	<time>2025-07-29T07:30:55.000Z</time>
</trkpt>
<trkpt lat="45.8949150" lon="10.2901880">
	<ele>1648.00</ele>
	<time>2025-07-29T07:30:56.000Z</time>
</trkpt>
<trkpt lat="45.8949110" lon="10.2901860">
	<ele>1648.20</ele>
	<time>2025-07-29T07:30:57.000Z</time>
</trkpt>
<trkpt lat="45.8949120" lon="10.2901830">
	<ele>1648.40</ele>
	<time>2025-07-29T07:30:58.000Z</time>
</trkpt>
<trkpt lat="45.8949100" lon="10.2901860">
	<ele>1648.60</ele>
	<time>2025-07-29T07:30:59.000Z</time>
</trkpt>
<trkpt lat="45.8949000" lon="10.2901830">
	<ele>1648.80</ele>
	<time>2025-07-29T07:31:00.000Z</time>
</trkpt>
<trkpt lat="45.8949060" lon="10.2901780">
	<ele>1649.00</ele>
	<time>2025-07-29T07:31:01.000Z</time>
</trkpt>
<trkpt lat="45.8949020" lon="10.2901720">
	<ele>1649.00</ele>
	<time>2025-07-29T07:31:02.000Z</time>
</trkpt>
<trkpt lat="45.8948990" lon="10.2901670">
	<ele>1649.20</ele>
	<time>2025-07-29T07:31:03.000Z</time>
</trkpt>
<trkpt lat="45.8948970" lon="10.2901640">
	<ele>1649.40</ele>
	<time>2025-07-29T07:31:04.000Z</time>
</trkpt>
<trkpt lat="45.8948960" lon="10.2901630">
	<ele>1649.40</ele>
	<time>2025-07-29T07:31:05.000Z</time>
</trkpt>
<trkpt lat="45.8948960" lon="10.2901630">
	<ele>1649.60</ele>
	<time>2025-07-29T07:31:06.000Z</time>
</trkpt>
<trkpt lat="45.8948970" lon="10.2901590">
	<ele>1649.80</ele>
	<time>2025-07-29T07:31:07.000Z</time>
</trkpt>
<trkpt lat="45.8948940" lon="10.2901590">
	<ele>1649.80</ele>
	<time>2025-07-29T07:31:08.000Z</time>
</trkpt>
<trkpt lat="45.8948850" lon="10.2901560">
	<ele>1650.00</ele>
	<time>2025-07-29T07:31:09.000Z</time>
</trkpt>
<trkpt lat="45.8948810" lon="10.2901560">
	<ele>1650.20</ele>
	<time>2025-07-29T07:31:10.000Z</time>
</trkpt>
<trkpt lat="45.8948680" lon="10.2901510">
	<ele>1650.40</ele>
	<time>2025-07-29T07:31:11.000Z</time>
</trkpt>
<trkpt lat="45.8948570" lon="10.2901450">
	<ele>1650.60</ele>
	<time>2025-07-29T07:31:12.000Z</time>
</trkpt>
<trkpt lat="45.8948470" lon="10.2901410">
	<ele>1650.60</ele>
	<time>2025-07-29T07:31:13.000Z</time>
</trkpt>
<trkpt lat="45.8948330" lon="10.2901450">
	<ele>1650.80</ele>
	<time>2025-07-29T07:31:14.000Z</time>
</trkpt>
<trkpt lat="45.8948160" lon="10.2901430">
	<ele>1651.00</ele>
	<time>2025-07-29T07:31:15.000Z</time>
</trkpt>
<trkpt lat="45.8948020" lon="10.2901370">
	<ele>1651.20</ele>
	<time>2025-07-29T07:31:16.000Z</time>
</trkpt>
<trkpt lat="45.8947910" lon="10.2901300">
	<ele>1651.20</ele>
	<time>2025-07-29T07:31:17.000Z</time>
</trkpt>
<trkpt lat="45.8947770" lon="10.2901330">
	<ele>1651.40</ele>
	<time>2025-07-29T07:31:18.000Z</time>
</trkpt>
<trkpt lat="45.8947620" lon="10.2901400">
	<ele>1651.60</ele>
	<time>2025-07-29T07:31:19.000Z</time>
</trkpt>
<trkpt lat="45.8947530" lon="10.2901400">
	<ele>1651.60</ele>
	<time>2025-07-29T07:31:20.000Z</time>
</trkpt>
<trkpt lat="45.8947460" lon="10.2901440">
	<ele>1651.80</ele>
	<time>2025-07-29T07:31:21.000Z</time>
</trkpt>
<trkpt lat="45.8947410" lon="10.2901430">
	<ele>1652.20</ele>
	<time>2025-07-29T07:31:22.000Z</time>
</trkpt>
<trkpt lat="45.8947350" lon="10.2901360">
	<ele>1652.40</ele>
	<time>2025-07-29T07:31:23.000Z</time>
</trkpt>
<trkpt lat="45.8947230" lon="10.2901210">
	<ele>1652.40</ele>
	<time>2025-07-29T07:31:24.000Z</time>
</trkpt>
<trkpt lat="45.8947090" lon="10.2901150">
	<ele>1652.60</ele>
	<time>2025-07-29T07:31:25.000Z</time>
</trkpt>
<trkpt lat="45.8947010" lon="10.2901100">
	<ele>1652.80</ele>
	<time>2025-07-29T07:31:26.000Z</time>
</trkpt>
<trkpt lat="45.8947030" lon="10.2901030">
	<ele>1653.00</ele>
	<time>2025-07-29T07:31:27.000Z</time>
</trkpt>
<trkpt lat="45.8947130" lon="10.2901070">
	<ele>1653.20</ele>
	<time>2025-07-29T07:31:28.000Z</time>
</trkpt>
<trkpt lat="45.8947160" lon="10.2901040">
	<ele>1653.40</ele>
	<time>2025-07-29T07:31:29.000Z</time>
</trkpt>
<trkpt lat="45.8947130" lon="10.2901010">
	<ele>1653.60</ele>
	<time>2025-07-29T07:31:30.000Z</time>
</trkpt>
<trkpt lat="45.8947100" lon="10.2901030">
	<ele>1653.60</ele>
	<time>2025-07-29T07:31:31.000Z</time>
</trkpt>
<trkpt lat="45.8947020" lon="10.2901010">
	<ele>1653.80</ele>
	<time>2025-07-29T07:31:32.000Z</time>
</trkpt>
<trkpt lat="45.8946980" lon="10.2900980">
	<ele>1654.00</ele>
	<time>2025-07-29T07:31:33.000Z</time>
</trkpt>
<trkpt lat="45.8946910" lon="10.2901030">
	<ele>1654.20</ele>
	<time>2025-07-29T07:31:34.000Z</time>
</trkpt>
<trkpt lat="45.8946790" lon="10.2901050">
	<ele>1654.40</ele>
	<time>2025-07-29T07:31:35.000Z</time>
</trkpt>
<trkpt lat="45.8946650" lon="10.2901080">
	<ele>1654.40</ele>
	<time>2025-07-29T07:31:36.000Z</time>
</trkpt>
<trkpt lat="45.8946600" lon="10.2901060">
	<ele>1654.40</ele>
	<time>2025-07-29T07:31:37.000Z</time>
</trkpt>
<trkpt lat="45.8946540" lon="10.2901060">
	<ele>1654.60</ele>
	<time>2025-07-29T07:31:38.000Z</time>
</trkpt>
<trkpt lat="45.8946440" lon="10.2901040">
	<ele>1654.80</ele>
	<time>2025-07-29T07:31:39.000Z</time>
</trkpt>
<trkpt lat="45.8946410" lon="10.2901040">
	<ele>1655.00</ele>
	<time>2025-07-29T07:31:40.000Z</time>
</trkpt>
<trkpt lat="45.8946370" lon="10.2901030">
	<ele>1655.20</ele>
	<time>2025-07-29T07:31:41.000Z</time>
</trkpt>
<trkpt lat="45.8946270" lon="10.2900960">
	<ele>1655.20</ele>
	<time>2025-07-29T07:31:42.000Z</time>
</trkpt>
<trkpt lat="45.8946210" lon="10.2900960">
	<ele>1655.40</ele>
	<time>2025-07-29T07:31:43.000Z</time>
</trkpt>
<trkpt lat="45.8946170" lon="10.2900930">
	<ele>1655.60</ele>
	<time>2025-07-29T07:31:44.000Z</time>
</trkpt>
<trkpt lat="45.8946130" lon="10.2900900">
	<ele>1655.80</ele>
	<time>2025-07-29T07:31:45.000Z</time>
</trkpt>
<trkpt lat="45.8946140" lon="10.2900880">
	<ele>1656.20</ele>
	<time>2025-07-29T07:31:46.000Z</time>
</trkpt>
<trkpt lat="45.8946070" lon="10.2900860">
	<ele>1656.20</ele>
	<time>2025-07-29T07:31:47.000Z</time>
</trkpt>
<trkpt lat="45.8946010" lon="10.2900870">
	<ele>1656.40</ele>
	<time>2025-07-29T07:31:48.000Z</time>
</trkpt>
<trkpt lat="45.8946010" lon="10.2900790">
	<ele>1656.40</ele>
	<time>2025-07-29T07:31:49.000Z</time>
</trkpt>
<trkpt lat="45.8945900" lon="10.2900720">
	<ele>1656.60</ele>
	<time>2025-07-29T07:31:50.000Z</time>
</trkpt>
<trkpt lat="45.8945760" lon="10.2900670">
	<ele>1656.80</ele>
	<time>2025-07-29T07:31:51.000Z</time>
</trkpt>
<trkpt lat="45.8945550" lon="10.2900580">
	<ele>1657.00</ele>
	<time>2025-07-29T07:31:52.000Z</time>
</trkpt>
<trkpt lat="45.8945400" lon="10.2900520">
	<ele>1657.00</ele>
	<time>2025-07-29T07:31:53.000Z</time>
</trkpt>
<trkpt lat="45.8945300" lon="10.2900480">
	<ele>1657.20</ele>
	<time>2025-07-29T07:31:54.000Z</time>
</trkpt>
<trkpt lat="45.8945240" lon="10.2900450">
	<ele>1657.40</ele>
	<time>2025-07-29T07:31:55.000Z</time>
</trkpt>
<trkpt lat="45.8945160" lon="10.2900440">
	<ele>1657.80</ele>
	<time>2025-07-29T07:31:56.000Z</time>
</trkpt>
<trkpt lat="45.8945090" lon="10.2900450">
	<ele>1658.00</ele>
	<time>2025-07-29T07:31:57.000Z</time>
</trkpt>
<trkpt lat="45.8945020" lon="10.2900450">
	<ele>1658.20</ele>
	<time>2025-07-29T07:31:58.000Z</time>
</trkpt>
<trkpt lat="45.8944910" lon="10.2900440">
	<ele>1658.20</ele>
	<time>2025-07-29T07:31:59.000Z</time>
</trkpt>
<trkpt lat="45.8944830" lon="10.2900380">
	<ele>1658.40</ele>
	<time>2025-07-29T07:32:00.000Z</time>
</trkpt>
<trkpt lat="45.8944760" lon="10.2900280">
	<ele>1658.60</ele>
	<time>2025-07-29T07:32:01.000Z</time>
</trkpt>
<trkpt lat="45.8944650" lon="10.2900230">
	<ele>1658.80</ele>
	<time>2025-07-29T07:32:02.000Z</time>
</trkpt>
<trkpt lat="45.8944560" lon="10.2900180">
	<ele>1659.00</ele>
	<time>2025-07-29T07:32:03.000Z</time>
</trkpt>
<trkpt lat="45.8944500" lon="10.2900110">
	<ele>1659.20</ele>
	<time>2025-07-29T07:32:04.000Z</time>
</trkpt>
<trkpt lat="45.8944410" lon="10.2900120">
	<ele>1659.40</ele>
	<time>2025-07-29T07:32:05.000Z</time>
</trkpt>
<trkpt lat="45.8944380" lon="10.2900120">
	<ele>1659.60</ele>
	<time>2025-07-29T07:32:06.000Z</time>
</trkpt>
<trkpt lat="45.8944170" lon="10.2900070">
	<ele>1659.80</ele>
	<time>2025-07-29T07:32:07.000Z</time>
</trkpt>
<trkpt lat="45.8944020" lon="10.2900050">
	<ele>1660.00</ele>
	<time>2025-07-29T07:32:08.000Z</time>
</trkpt>
<trkpt lat="45.8943950" lon="10.2900020">
	<ele>1660.00</ele>
	<time>2025-07-29T07:32:09.000Z</time>
</trkpt>
<trkpt lat="45.8943880" lon="10.2900120">
	<ele>1660.00</ele>
	<time>2025-07-29T07:32:10.000Z</time>
</trkpt>
<trkpt lat="45.8943840" lon="10.2900180">
	<ele>1660.20</ele>
	<time>2025-07-29T07:32:11.000Z</time>
</trkpt>
<trkpt lat="45.8943760" lon="10.2900170">
	<ele>1660.40</ele>
	<time>2025-07-29T07:32:12.000Z</time>
</trkpt>
<trkpt lat="45.8943730" lon="10.2900110">
	<ele>1660.60</ele>
	<time>2025-07-29T07:32:13.000Z</time>
</trkpt>
<trkpt lat="45.8943710" lon="10.2899910">
	<ele>1660.60</ele>
	<time>2025-07-29T07:32:14.000Z</time>
</trkpt>
<trkpt lat="45.8943660" lon="10.2899830">
	<ele>1660.60</ele>
	<time>2025-07-29T07:32:15.000Z</time>
</trkpt>
<trkpt lat="45.8943550" lon="10.2899790">
	<ele>1660.80</ele>
	<time>2025-07-29T07:32:16.000Z</time>
</trkpt>
<trkpt lat="45.8943440" lon="10.2899760">
	<ele>1660.80</ele>
	<time>2025-07-29T07:32:17.000Z</time>
</trkpt>
<trkpt lat="45.8943380" lon="10.2899760">
	<ele>1661.00</ele>
	<time>2025-07-29T07:32:18.000Z</time>
</trkpt>
<trkpt lat="45.8943290" lon="10.2899730">
	<ele>1661.00</ele>
	<time>2025-07-29T07:32:19.000Z</time>
</trkpt>
<trkpt lat="45.8943230" lon="10.2899710">
	<ele>1661.00</ele>
	<time>2025-07-29T07:32:20.000Z</time>
</trkpt>
<trkpt lat="45.8943100" lon="10.2899640">
	<ele>1661.20</ele>
	<time>2025-07-29T07:32:21.000Z</time>
</trkpt>
<trkpt lat="45.8942990" lon="10.2899540">
	<ele>1661.40</ele>
	<time>2025-07-29T07:32:22.000Z</time>
</trkpt>
<trkpt lat="45.8942860" lon="10.2899470">
	<ele>1661.40</ele>
	<time>2025-07-29T07:32:23.000Z</time>
</trkpt>
<trkpt lat="45.8942740" lon="10.2899460">
	<ele>1661.60</ele>
	<time>2025-07-29T07:32:24.000Z</time>
</trkpt>
<trkpt lat="45.8942680" lon="10.2899520">
	<ele>1661.80</ele>
	<time>2025-07-29T07:32:25.000Z</time>
</trkpt>
<trkpt lat="45.8942690" lon="10.2899620">
	<ele>1661.80</ele>
	<time>2025-07-29T07:32:26.000Z</time>
</trkpt>
<trkpt lat="45.8942700" lon="10.2899710">
	<ele>1662.00</ele>
	<time>2025-07-29T07:32:27.000Z</time>
</trkpt>
<trkpt lat="45.8942640" lon="10.2899710">
	<ele>1662.00</ele>
	<time>2025-07-29T07:32:28.000Z</time>
</trkpt>
<trkpt lat="45.8942570" lon="10.2899710">
	<ele>1662.20</ele>
	<time>2025-07-29T07:32:29.000Z</time>
</trkpt>
<trkpt lat="45.8942490" lon="10.2899630">
	<ele>1662.40</ele>
	<time>2025-07-29T07:32:30.000Z</time>
</trkpt>
<trkpt lat="45.8942420" lon="10.2899590">
	<ele>1662.60</ele>
	<time>2025-07-29T07:32:31.000Z</time>
</trkpt>
<trkpt lat="45.8942330" lon="10.2899510">
	<ele>1662.80</ele>
	<time>2025-07-29T07:32:32.000Z</time>
</trkpt>
<trkpt lat="45.8942290" lon="10.2899460">
	<ele>1662.80</ele>
	<time>2025-07-29T07:32:33.000Z</time>
</trkpt>
<trkpt lat="45.8942310" lon="10.2899460">
	<ele>1663.00</ele>
	<time>2025-07-29T07:32:34.000Z</time>
</trkpt>
<trkpt lat="45.8942330" lon="10.2899470">
	<ele>1663.00</ele>
	<time>2025-07-29T07:32:35.000Z</time>
</trkpt>
<trkpt lat="45.8942350" lon="10.2899480">
	<ele>1663.20</ele>
	<time>2025-07-29T07:32:36.000Z</time>
</trkpt>
<trkpt lat="45.8942370" lon="10.2899490">
	<ele>1663.40</ele>
	<time>2025-07-29T07:32:37.000Z</time>
</trkpt>
<trkpt lat="45.8942380" lon="10.2899500">
	<ele>1663.40</ele>
	<time>2025-07-29T07:32:38.000Z</time>
</trkpt>
<trkpt lat="45.8942380" lon="10.2899510">
	<ele>1663.40</ele>
	<time>2025-07-29T07:32:39.000Z</time>
</trkpt>
<trkpt lat="45.8942390" lon="10.2899510">
	<ele>1663.40</ele>
	<time>2025-07-29T07:32:40.000Z</time>
</trkpt>
<trkpt lat="45.8942410" lon="10.2899520">
	<ele>1663.40</ele>
	<time>2025-07-29T07:32:41.000Z</time>
</trkpt>
<trkpt lat="45.8942380" lon="10.2899490">
	<ele>1663.40</ele>
	<time>2025-07-29T07:32:42.000Z</time>
</trkpt>
<trkpt lat="45.8942330" lon="10.2899500">
	<ele>1663.20</ele>
	<time>2025-07-29T07:32:43.000Z</time>
</trkpt>
<trkpt lat="45.8942230" lon="10.2899510">
	<ele>1663.20</ele>
	<time>2025-07-29T07:32:44.000Z</time>
</trkpt>
<trkpt lat="45.8942150" lon="10.2899510">
	<ele>1663.20</ele>
	<time>2025-07-29T07:32:45.000Z</time>
</trkpt>
<trkpt lat="45.8942030" lon="10.2899510">
	<ele>1663.20</ele>
	<time>2025-07-29T07:32:46.000Z</time>
</trkpt>
<trkpt lat="45.8941940" lon="10.2899620">
	<ele>1663.20</ele>
	<time>2025-07-29T07:32:47.000Z</time>
</trkpt>
<trkpt lat="45.8941890" lon="10.2899700">
	<ele>1663.20</ele>
	<time>2025-07-29T07:32:48.000Z</time>
</trkpt>
<trkpt lat="45.8941810" lon="10.2899790">
	<ele>1663.40</ele>
	<time>2025-07-29T07:32:49.000Z</time>
</trkpt>
<trkpt lat="45.8941740" lon="10.2899850">
	<ele>1663.60</ele>
	<time>2025-07-29T07:32:50.000Z</time>
</trkpt>
<trkpt lat="45.8941690" lon="10.2899950">
	<ele>1663.80</ele>
	<time>2025-07-29T07:32:51.000Z</time>
</trkpt>
<trkpt lat="45.8941640" lon="10.2900020">
	<ele>1664.00</ele>
	<time>2025-07-29T07:32:52.000Z</time>
</trkpt>
<trkpt lat="45.8941620" lon="10.2900070">
	<ele>1664.20</ele>
	<time>2025-07-29T07:32:53.000Z</time>
</trkpt>
<trkpt lat="45.8941620" lon="10.2900100">
	<ele>1664.40</ele>
	<time>2025-07-29T07:32:54.000Z</time>
</trkpt>
<trkpt lat="45.8941630" lon="10.2900110">
	<ele>1664.60</ele>
	<time>2025-07-29T07:32:55.000Z</time>
</trkpt>
<trkpt lat="45.8941650" lon="10.2900130">
	<ele>1664.80</ele>
	<time>2025-07-29T07:32:56.000Z</time>
</trkpt>
<trkpt lat="45.8941650" lon="10.2900120">
	<ele>1664.80</ele>
	<time>2025-07-29T07:32:57.000Z</time>
</trkpt>
<trkpt lat="45.8941660" lon="10.2900100">
	<ele>1664.80</ele>
	<time>2025-07-29T07:32:58.000Z</time>
</trkpt>
<trkpt lat="45.8941640" lon="10.2900020">
	<ele>1664.80</ele>
	<time>2025-07-29T07:32:59.000Z</time>
</trkpt>
<trkpt lat="45.8941560" lon="10.2899870">
	<ele>1664.80</ele>
	<time>2025-07-29T07:33:00.000Z</time>
</trkpt>
<trkpt lat="45.8941490" lon="10.2899740">
	<ele>1664.80</ele>
	<time>2025-07-29T07:33:01.000Z</time>
</trkpt>
<trkpt lat="45.8941420" lon="10.2899610">
	<ele>1664.60</ele>
	<time>2025-07-29T07:33:02.000Z</time>
</trkpt>
<trkpt lat="45.8941370" lon="10.2899540">
	<ele>1664.60</ele>
	<time>2025-07-29T07:33:03.000Z</time>
</trkpt>
<trkpt lat="45.8941310" lon="10.2899440">
	<ele>1664.60</ele>
	<time>2025-07-29T07:33:04.000Z</time>
</trkpt>
<trkpt lat="45.8941220" lon="10.2899300">
	<ele>1664.60</ele>
	<time>2025-07-29T07:33:05.000Z</time>
</trkpt>
<trkpt lat="45.8941100" lon="10.2899180">
	<ele>1664.60</ele>
	<time>2025-07-29T07:33:06.000Z</time>
</trkpt>
<trkpt lat="45.8941020" lon="10.2899080">
	<ele>1664.60</ele>
	<time>2025-07-29T07:33:07.000Z</time>
</trkpt>
<trkpt lat="45.8940950" lon="10.2898970">
	<ele>1664.60</ele>
	<time>2025-07-29T07:33:08.000Z</time>
</trkpt>
<trkpt lat="45.8940850" lon="10.2898850">
	<ele>1664.60</ele>
	<time>2025-07-29T07:33:09.000Z</time>
</trkpt>
<trkpt lat="45.8940810" lon="10.2898810">
	<ele>1664.60</ele>
	<time>2025-07-29T07:33:10.000Z</time>
</trkpt>
<trkpt lat="45.8940810" lon="10.2898720">
	<ele>1664.80</ele>
	<time>2025-07-29T07:33:11.000Z</time>
</trkpt>
<trkpt lat="45.8940770" lon="10.2898600">
	<ele>1664.80</ele>
	<time>2025-07-29T07:33:12.000Z</time>
</trkpt>
<trkpt lat="45.8940690" lon="10.2898510">
	<ele>1665.00</ele>
	<time>2025-07-29T07:33:13.000Z</time>
</trkpt>
<trkpt lat="45.8940610" lon="10.2898440">
	<ele>1665.00</ele>
	<time>2025-07-29T07:33:14.000Z</time>
</trkpt>
<trkpt lat="45.8940530" lon="10.2898430">
	<ele>1665.20</ele>
	<time>2025-07-29T07:33:15.000Z</time>
</trkpt>
<trkpt lat="45.8940430" lon="10.2898370">
	<ele>1665.20</ele>
	<time>2025-07-29T07:33:16.000Z</time>
</trkpt>
<trkpt lat="45.8940350" lon="10.2898350">
	<ele>1665.20</ele>
	<time>2025-07-29T07:33:17.000Z</time>
</trkpt>
<trkpt lat="45.8940230" lon="10.2898340">
	<ele>1665.40</ele>
	<time>2025-07-29T07:33:18.000Z</time>
</trkpt>
<trkpt lat="45.8940120" lon="10.2898340">
	<ele>1665.60</ele>
	<time>2025-07-29T07:33:19.000Z</time>
</trkpt>
<trkpt lat="45.8940020" lon="10.2898340">
	<ele>1665.60</ele>
	<time>2025-07-29T07:33:20.000Z</time>
</trkpt>
<trkpt lat="45.8939930" lon="10.2898370">
	<ele>1665.80</ele>
	<time>2025-07-29T07:33:21.000Z</time>
</trkpt>
<trkpt lat="45.8939890" lon="10.2898390">
	<ele>1666.00</ele>
	<time>2025-07-29T07:33:22.000Z</time>
</trkpt>
<trkpt lat="45.8939870" lon="10.2898410">
	<ele>1666.20</ele>
	<time>2025-07-29T07:33:23.000Z</time>
</trkpt>
<trkpt lat="45.8939830" lon="10.2898400">
	<ele>1666.60</ele>
	<time>2025-07-29T07:33:24.000Z</time>
</trkpt>
<trkpt lat="45.8939660" lon="10.2898360">
	<ele>1666.80</ele>
	<time>2025-07-29T07:33:25.000Z</time>
</trkpt>
<trkpt lat="45.8939530" lon="10.2898350">
	<ele>1667.00</ele>
	<time>2025-07-29T07:33:26.000Z</time>
</trkpt>
<trkpt lat="45.8939390" lon="10.2898360">
	<ele>1667.20</ele>
	<time>2025-07-29T07:33:27.000Z</time>
</trkpt>
<trkpt lat="45.8939270" lon="10.2898350">
	<ele>1667.40</ele>
	<time>2025-07-29T07:33:28.000Z</time>
</trkpt>
<trkpt lat="45.8939190" lon="10.2898310">
	<ele>1667.60</ele>
	<time>2025-07-29T07:33:29.000Z</time>
</trkpt>
<trkpt lat="45.8939100" lon="10.2898310">
	<ele>1667.80</ele>
	<time>2025-07-29T07:33:30.000Z</time>
</trkpt>
<trkpt lat="45.8939010" lon="10.2898280">
	<ele>1667.80</ele>
	<time>2025-07-29T07:33:31.000Z</time>
</trkpt>
<trkpt lat="45.8938920" lon="10.2898250">
	<ele>1668.00</ele>
	<time>2025-07-29T07:33:32.000Z</time>
</trkpt>
<trkpt lat="45.8938830" lon="10.2898200">
	<ele>1668.40</ele>
	<time>2025-07-29T07:33:33.000Z</time>
</trkpt>
<trkpt lat="45.8938800" lon="10.2898130">
	<ele>1668.60</ele>
	<time>2025-07-29T07:33:34.000Z</time>
</trkpt>
<trkpt lat="45.8938720" lon="10.2898080">
	<ele>1668.80</ele>
	<time>2025-07-29T07:33:35.000Z</time>
</trkpt>
<trkpt lat="45.8938590" lon="10.2898050">
	<ele>1669.00</ele>
	<time>2025-07-29T07:33:36.000Z</time>
</trkpt>
<trkpt lat="45.8938500" lon="10.2898040">
	<ele>1669.20</ele>
	<time>2025-07-29T07:33:37.000Z</time>
</trkpt>
<trkpt lat="45.8938370" lon="10.2897950">
	<ele>1669.40</ele>
	<time>2025-07-29T07:33:38.000Z</time>
</trkpt>
<trkpt lat="45.8938240" lon="10.2897850">
	<ele>1669.60</ele>
	<time>2025-07-29T07:33:39.000Z</time>
</trkpt>
<trkpt lat="45.8938130" lon="10.2897760">
	<ele>1669.80</ele>
	<time>2025-07-29T07:33:40.000Z</time>
</trkpt>
<trkpt lat="45.8938050" lon="10.2897720">
	<ele>1670.00</ele>
	<time>2025-07-29T07:33:41.000Z</time>
</trkpt>
<trkpt lat="45.8938060" lon="10.2897760">
	<ele>1670.20</ele>
	<time>2025-07-29T07:33:42.000Z</time>
</trkpt>
<trkpt lat="45.8938040" lon="10.2897770">
	<ele>1670.60</ele>
	<time>2025-07-29T07:33:43.000Z</time>
</trkpt>
<trkpt lat="45.8938010" lon="10.2897720">
	<ele>1670.80</ele>
	<time>2025-07-29T07:33:44.000Z</time>
</trkpt>
<trkpt lat="45.8937960" lon="10.2897660">
	<ele>1670.80</ele>
	<time>2025-07-29T07:33:45.000Z</time>
</trkpt>
<trkpt lat="45.8937870" lon="10.2897590">
	<ele>1671.00</ele>
	<time>2025-07-29T07:33:46.000Z</time>
</trkpt>
<trkpt lat="45.8937750" lon="10.2897490">
	<ele>1671.20</ele>
	<time>2025-07-29T07:33:47.000Z</time>
</trkpt>
<trkpt lat="45.8937620" lon="10.2897430">
	<ele>1671.40</ele>
	<time>2025-07-29T07:33:48.000Z</time>
</trkpt>
<trkpt lat="45.8937510" lon="10.2897360">
	<ele>1671.60</ele>
	<time>2025-07-29T07:33:49.000Z</time>
</trkpt>
<trkpt lat="45.8937430" lon="10.2897330">
	<ele>1671.80</ele>
	<time>2025-07-29T07:33:50.000Z</time>
</trkpt>
<trkpt lat="45.8937330" lon="10.2897300">
	<ele>1672.00</ele>
	<time>2025-07-29T07:33:51.000Z</time>
</trkpt>
<trkpt lat="45.8937230" lon="10.2897310">
	<ele>1672.20</ele>
	<time>2025-07-29T07:33:52.000Z</time>
</trkpt>
<trkpt lat="45.8937160" lon="10.2897290">
	<ele>1672.40</ele>
	<time>2025-07-29T07:33:53.000Z</time>
</trkpt>
<trkpt lat="45.8937110" lon="10.2897270">
	<ele>1672.40</ele>
	<time>2025-07-29T07:33:54.000Z</time>
</trkpt>
<trkpt lat="45.8937040" lon="10.2897210">
	<ele>1672.60</ele>
	<time>2025-07-29T07:33:55.000Z</time>
</trkpt>
<trkpt lat="45.8936970" lon="10.2897120">
	<ele>1672.60</ele>
	<time>2025-07-29T07:33:56.000Z</time>
</trkpt>
<trkpt lat="45.8936860" lon="10.2897000">
	<ele>1672.80</ele>
	<time>2025-07-29T07:33:57.000Z</time>
</trkpt>
<trkpt lat="45.8936770" lon="10.2896890">
	<ele>1673.00</ele>
	<time>2025-07-29T07:33:58.000Z</time>
</trkpt>
<trkpt lat="45.8936730" lon="10.2896860">
	<ele>1673.20</ele>
	<time>2025-07-29T07:33:59.000Z</time>
</trkpt>
<trkpt lat="45.8936770" lon="10.2896870">
	<ele>1673.40</ele>
	<time>2025-07-29T07:34:00.000Z</time>
</trkpt>
<trkpt lat="45.8936790" lon="10.2896800">
	<ele>1673.80</ele>
	<time>2025-07-29T07:34:01.000Z</time>
</trkpt>
<trkpt lat="45.8936810" lon="10.2896780">
	<ele>1674.00</ele>
	<time>2025-07-29T07:34:02.000Z</time>
</trkpt>
<trkpt lat="45.8936800" lon="10.2896720">
	<ele>1674.20</ele>
	<time>2025-07-29T07:34:03.000Z</time>
</trkpt>
<trkpt lat="45.8936740" lon="10.2896650">
	<ele>1674.20</ele>
	<time>2025-07-29T07:34:04.000Z</time>
</trkpt>
<trkpt lat="45.8936660" lon="10.2896610">
	<ele>1674.40</ele>
	<time>2025-07-29T07:34:05.000Z</time>
</trkpt>
<trkpt lat="45.8936570" lon="10.2896510">
	<ele>1674.40</ele>
	<time>2025-07-29T07:34:06.000Z</time>
</trkpt>
<trkpt lat="45.8936480" lon="10.2896460">
	<ele>1674.60</ele>
	<time>2025-07-29T07:34:07.000Z</time>
</trkpt>
<trkpt lat="45.8936450" lon="10.2896440">
	<ele>1674.60</ele>
	<time>2025-07-29T07:34:08.000Z</time>
</trkpt>
<trkpt lat="45.8936450" lon="10.2896430">
	<ele>1674.80</ele>
	<time>2025-07-29T07:34:09.000Z</time>
</trkpt>
<trkpt lat="45.8936410" lon="10.2896370">
	<ele>1674.80</ele>
	<time>2025-07-29T07:34:10.000Z</time>
</trkpt>
<trkpt lat="45.8936360" lon="10.2896320">
	<ele>1674.80</ele>
	<time>2025-07-29T07:34:11.000Z</time>
</trkpt>
<trkpt lat="45.8936290" lon="10.2896270">
	<ele>1675.00</ele>
	<time>2025-07-29T07:34:12.000Z</time>
</trkpt>
<trkpt lat="45.8936220" lon="10.2896190">
	<ele>1675.20</ele>
	<time>2025-07-29T07:34:13.000Z</time>
</trkpt>
<trkpt lat="45.8936130" lon="10.2896190">
	<ele>1675.20</ele>
	<time>2025-07-29T07:34:14.000Z</time>
</trkpt>
<trkpt lat="45.8936040" lon="10.2896190">
	<ele>1675.40</ele>
	<time>2025-07-29T07:34:15.000Z</time>
</trkpt>
<trkpt lat="45.8935950" lon="10.2896180">
	<ele>1675.60</ele>
	<time>2025-07-29T07:34:16.000Z</time>
</trkpt>
<trkpt lat="45.8935860" lon="10.2896150">
	<ele>1675.60</ele>
	<time>2025-07-29T07:34:17.000Z</time>
</trkpt>
<trkpt lat="45.8935770" lon="10.2896110">
	<ele>1675.80</ele>
	<time>2025-07-29T07:34:18.000Z</time>
</trkpt>
<trkpt lat="45.8935650" lon="10.2896060">
	<ele>1675.80</ele>
	<time>2025-07-29T07:34:19.000Z</time>
</trkpt>
<trkpt lat="45.8935520" lon="10.2896020">
	<ele>1675.80</ele>
	<time>2025-07-29T07:34:20.000Z</time>
</trkpt>
<trkpt lat="45.8935430" lon="10.2896020">
	<ele>1676.20</ele>
	<time>2025-07-29T07:34:21.000Z</time>
</trkpt>
<trkpt lat="45.8935360" lon="10.2896020">
	<ele>1676.20</ele>
	<time>2025-07-29T07:34:22.000Z</time>
</trkpt>
<trkpt lat="45.8935270" lon="10.2895970">
	<ele>1676.40</ele>
	<time>2025-07-29T07:34:23.000Z</time>
</trkpt>
<trkpt lat="45.8935190" lon="10.2895950">
	<ele>1676.60</ele>
	<time>2025-07-29T07:34:24.000Z</time>
</trkpt>
<trkpt lat="45.8935140" lon="10.2895980">
	<ele>1676.80</ele>
	<time>2025-07-29T07:34:25.000Z</time>
</trkpt>
<trkpt lat="45.8935070" lon="10.2895990">
	<ele>1677.00</ele>
	<time>2025-07-29T07:34:26.000Z</time>
</trkpt>
<trkpt lat="45.8934970" lon="10.2895980">
	<ele>1677.20</ele>
	<time>2025-07-29T07:34:27.000Z</time>
</trkpt>
<trkpt lat="45.8934860" lon="10.2895950">
	<ele>1677.40</ele>
	<time>2025-07-29T07:34:28.000Z</time>
</trkpt>
<trkpt lat="45.8934790" lon="10.2895920">
	<ele>1677.60</ele>
	<time>2025-07-29T07:34:29.000Z</time>
</trkpt>
<trkpt lat="45.8934740" lon="10.2895940">
	<ele>1677.60</ele>
	<time>2025-07-29T07:34:30.000Z</time>
</trkpt>
<trkpt lat="45.8934680" lon="10.2895960">
	<ele>1678.00</ele>
	<time>2025-07-29T07:34:31.000Z</time>
</trkpt>
<trkpt lat="45.8934650" lon="10.2896010">
	<ele>1678.00</ele>
	<time>2025-07-29T07:34:32.000Z</time>
</trkpt>
<trkpt lat="45.8934610" lon="10.2896000">
	<ele>1678.20</ele>
	<time>2025-07-29T07:34:33.000Z</time>
</trkpt>
<trkpt lat="45.8934580" lon="10.2895930">
	<ele>1678.40</ele>
	<time>2025-07-29T07:34:34.000Z</time>
</trkpt>
<trkpt lat="45.8934550" lon="10.2895850">
	<ele>1678.60</ele>
	<time>2025-07-29T07:34:35.000Z</time>
</trkpt>
<trkpt lat="45.8934510" lon="10.2895820">
	<ele>1678.80</ele>
	<time>2025-07-29T07:34:36.000Z</time>
</trkpt>
<trkpt lat="45.8934450" lon="10.2895760">
	<ele>1679.00</ele>
	<time>2025-07-29T07:34:37.000Z</time>
</trkpt>
<trkpt lat="45.8934330" lon="10.2895700">
	<ele>1679.20</ele>
	<time>2025-07-29T07:34:38.000Z</time>
</trkpt>
<trkpt lat="45.8934200" lon="10.2895560">
	<ele>1679.40</ele>
	<time>2025-07-29T07:34:39.000Z</time>
</trkpt>
<trkpt lat="45.8934120" lon="10.2895420">
	<ele>1679.60</ele>
	<time>2025-07-29T07:34:40.000Z</time>
</trkpt>
<trkpt lat="45.8934040" lon="10.2895330">
	<ele>1679.80</ele>
	<time>2025-07-29T07:34:41.000Z</time>
</trkpt>
<trkpt lat="45.8933970" lon="10.2895260">
	<ele>1679.80</ele>
	<time>2025-07-29T07:34:42.000Z</time>
</trkpt>
<trkpt lat="45.8933900" lon="10.2895180">
	<ele>1680.00</ele>
	<time>2025-07-29T07:34:43.000Z</time>
</trkpt>
<trkpt lat="45.8933840" lon="10.2895100">
	<ele>1680.00</ele>
	<time>2025-07-29T07:34:44.000Z</time>
</trkpt>
<trkpt lat="45.8933780" lon="10.2895070">
	<ele>1680.20</ele>
	<time>2025-07-29T07:34:45.000Z</time>
</trkpt>
<trkpt lat="45.8933700" lon="10.2895070">
	<ele>1680.20</ele>
	<time>2025-07-29T07:34:46.000Z</time>
</trkpt>
<trkpt lat="45.8933660" lon="10.2895040">
	<ele>1680.20</ele>
	<time>2025-07-29T07:34:47.000Z</time>
</trkpt>
<trkpt lat="45.8933650" lon="10.2895040">
	<ele>1680.40</ele>
	<time>2025-07-29T07:34:48.000Z</time>
</trkpt>
<trkpt lat="45.8933630" lon="10.2895010">
	<ele>1680.80</ele>
	<time>2025-07-29T07:34:49.000Z</time>
</trkpt>
<trkpt lat="45.8933620" lon="10.2894990">
	<ele>1680.80</ele>
	<time>2025-07-29T07:34:50.000Z</time>
</trkpt>
<trkpt lat="45.8933620" lon="10.2894980">
	<ele>1681.00</ele>
	<time>2025-07-29T07:34:51.000Z</time>
</trkpt>
<trkpt lat="45.8933620" lon="10.2894970">
	<ele>1681.00</ele>
	<time>2025-07-29T07:34:52.000Z</time>
</trkpt>
<trkpt lat="45.8933600" lon="10.2894960">
	<ele>1681.00</ele>
	<time>2025-07-29T07:34:53.000Z</time>
</trkpt>
<trkpt lat="45.8933560" lon="10.2894970">
	<ele>1681.00</ele>
	<time>2025-07-29T07:34:54.000Z</time>
</trkpt>
<trkpt lat="45.8933540" lon="10.2894950">
	<ele>1681.00</ele>
	<time>2025-07-29T07:34:55.000Z</time>
</trkpt>
<trkpt lat="45.8933540" lon="10.2894950">
	<ele>1681.00</ele>
	<time>2025-07-29T07:34:56.000Z</time>
</trkpt>
<trkpt lat="45.8933540" lon="10.2894930">
	<ele>1680.80</ele>
	<time>2025-07-29T07:34:57.000Z</time>
</trkpt>
<trkpt lat="45.8933540" lon="10.2894920">
	<ele>1680.80</ele>
	<time>2025-07-29T07:34:58.000Z</time>
</trkpt>
<trkpt lat="45.8933530" lon="10.2894910">
	<ele>1680.80</ele>
	<time>2025-07-29T07:34:59.000Z</time>
</trkpt>
<trkpt lat="45.8933520" lon="10.2894900">
	<ele>1680.60</ele>
	<time>2025-07-29T07:35:00.000Z</time>
</trkpt>
<trkpt lat="45.8933520" lon="10.2894910">
	<ele>1680.80</ele>
	<time>2025-07-29T07:35:01.000Z</time>
</trkpt>
<trkpt lat="45.8933520" lon="10.2894910">
	<ele>1680.80</ele>
	<time>2025-07-29T07:35:02.000Z</time>
</trkpt>
<trkpt lat="45.8933520" lon="10.2894910">
	<ele>1680.80</ele>
	<time>2025-07-29T07:35:03.000Z</time>
</trkpt>
<trkpt lat="45.8933520" lon="10.2894910">
	<ele>1680.80</ele>
	<time>2025-07-29T07:35:04.000Z</time>
</trkpt>
<trkpt lat="45.8933520" lon="10.2894910">
	<ele>1680.60</ele>
	<time>2025-07-29T07:35:05.000Z</time>
</trkpt>
<trkpt lat="45.8933520" lon="10.2894910">
	<ele>1680.60</ele>
	<time>2025-07-29T07:35:06.000Z</time>
</trkpt>
<trkpt lat="45.8933520" lon="10.2894910">
	<ele>1680.60</ele>
	<time>2025-07-29T07:35:07.000Z</time>
</trkpt>
<trkpt lat="45.8933520" lon="10.2894910">
	<ele>1680.60</ele>
	<time>2025-07-29T07:35:08.000Z</time>
</trkpt>
<trkpt lat="45.8933520" lon="10.2894910">
	<ele>1680.40</ele>
	<time>2025-07-29T07:35:09.000Z</time>
</trkpt>
<trkpt lat="45.8933520" lon="10.2894910">
	<ele>1680.40</ele>
	<time>2025-07-29T07:35:10.000Z</time>
</trkpt>
<trkpt lat="45.8933530" lon="10.2894910">
	<ele>1680.40</ele>
	<time>2025-07-29T07:35:11.000Z</time>
</trkpt>
<trkpt lat="45.8933530" lon="10.2894910">
	<ele>1680.40</ele>
	<time>2025-07-29T07:35:12.000Z</time>
</trkpt>
<trkpt lat="45.8933540" lon="10.2894910">
	<ele>1680.60</ele>
	<time>2025-07-29T07:35:13.000Z</time>
</trkpt>
<trkpt lat="45.8933540" lon="10.2894910">
	<ele>1680.80</ele>
	<time>2025-07-29T07:35:14.000Z</time>
</trkpt>
<trkpt lat="45.8933540" lon="10.2894910">
	<ele>1681.00</ele>
	<time>2025-07-29T07:35:15.000Z</time>
</trkpt>
<trkpt lat="45.8933520" lon="10.2894840">
	<ele>1681.20</ele>
	<time>2025-07-29T07:35:16.000Z</time>
</trkpt>
<trkpt lat="45.8933440" lon="10.2894710">
	<ele>1681.40</ele>
	<time>2025-07-29T07:35:17.000Z</time>
</trkpt>
<trkpt lat="45.8933340" lon="10.2894640">
	<ele>1681.60</ele>
	<time>2025-07-29T07:35:18.000Z</time>
</trkpt>
<trkpt lat="45.8933250" lon="10.2894550">
	<ele>1681.60</ele>
	<time>2025-07-29T07:35:19.000Z</time>
</trkpt>
<trkpt lat="45.8933130" lon="10.2894510">
	<ele>1681.60</ele>
	<time>2025-07-29T07:35:20.000Z</time>
</trkpt>
<trkpt lat="45.8933040" lon="10.2894460">
	<ele>1681.80</ele>
	<time>2025-07-29T07:35:21.000Z</time>
</trkpt>
<trkpt lat="45.8932950" lon="10.2894440">
	<ele>1682.00</ele>
	<time>2025-07-29T07:35:22.000Z</time>
</trkpt>
<trkpt lat="45.8932860" lon="10.2894440">
	<ele>1682.00</ele>
	<time>2025-07-29T07:35:23.000Z</time>
</trkpt>
<trkpt lat="45.8932790" lon="10.2894430">
	<ele>1682.20</ele>
	<time>2025-07-29T07:35:24.000Z</time>
</trkpt>
<trkpt lat="45.8932730" lon="10.2894380">
	<ele>1682.40</ele>
	<time>2025-07-29T07:35:25.000Z</time>
</trkpt>
<trkpt lat="45.8932700" lon="10.2894410">
	<ele>1682.60</ele>
	<time>2025-07-29T07:35:26.000Z</time>
</trkpt>
<trkpt lat="45.8932670" lon="10.2894430">
	<ele>1682.80</ele>
	<time>2025-07-29T07:35:27.000Z</time>
</trkpt>
<trkpt lat="45.8932650" lon="10.2894440">
	<ele>1683.20</ele>
	<time>2025-07-29T07:35:28.000Z</time>
</trkpt>
<trkpt lat="45.8932650" lon="10.2894430">
	<ele>1683.40</ele>
	<time>2025-07-29T07:35:29.000Z</time>
</trkpt>
<trkpt lat="45.8932620" lon="10.2894460">
	<ele>1683.80</ele>
	<time>2025-07-29T07:35:30.000Z</time>
</trkpt>
<trkpt lat="45.8932570" lon="10.2894570">
	<ele>1684.00</ele>
	<time>2025-07-29T07:35:31.000Z</time>
</trkpt>
<trkpt lat="45.8932550" lon="10.2894580">
	<ele>1684.00</ele>
	<time>2025-07-29T07:35:32.000Z</time>
</trkpt>
<trkpt lat="45.8932530" lon="10.2894610">
	<ele>1684.20</ele>
	<time>2025-07-29T07:35:33.000Z</time>
</trkpt>
<trkpt lat="45.8932520" lon="10.2894620">
	<ele>1684.20</ele>
	<time>2025-07-29T07:35:34.000Z</time>
</trkpt>
<trkpt lat="45.8932520" lon="10.2894640">
	<ele>1684.20</ele>
	<time>2025-07-29T07:35:35.000Z</time>
</trkpt>
<trkpt lat="45.8932530" lon="10.2894640">
	<ele>1684.20</ele>
	<time>2025-07-29T07:35:36.000Z</time>
</trkpt>
<trkpt lat="45.8932540" lon="10.2894650">
	<ele>1684.20</ele>
	<time>2025-07-29T07:35:37.000Z</time>
</trkpt>
<trkpt lat="45.8932550" lon="10.2894660">
	<ele>1684.00</ele>
	<time>2025-07-29T07:35:38.000Z</time>
</trkpt>
<trkpt lat="45.8932550" lon="10.2894660">
	<ele>1683.80</ele>
	<time>2025-07-29T07:35:39.000Z</time>
</trkpt>
<trkpt lat="45.8932550" lon="10.2894660">
	<ele>1683.80</ele>
	<time>2025-07-29T07:35:40.000Z</time>
</trkpt>
<trkpt lat="45.8932550" lon="10.2894660">
	<ele>1683.80</ele>
	<time>2025-07-29T07:35:41.000Z</time>
</trkpt>
<trkpt lat="45.8932550" lon="10.2894660">
	<ele>1683.80</ele>
	<time>2025-07-29T07:35:42.000Z</time>
</trkpt>
<trkpt lat="45.8932550" lon="10.2894660">
	<ele>1683.60</ele>
	<time>2025-07-29T07:35:43.000Z</time>
</trkpt>
<trkpt lat="45.8932550" lon="10.2894660">
	<ele>1684.00</ele>
	<time>2025-07-29T07:35:44.000Z</time>
</trkpt>
<trkpt lat="45.8932550" lon="10.2894660">
	<ele>1684.00</ele>
	<time>2025-07-29T07:35:45.000Z</time>
</trkpt>
<trkpt lat="45.8932550" lon="10.2894660">
	<ele>1684.00</ele>
	<time>2025-07-29T07:35:46.000Z</time>
</trkpt>
<trkpt lat="45.8932550" lon="10.2894660">
	<ele>1684.00</ele>
	<time>2025-07-29T07:35:47.000Z</time>
</trkpt>
<trkpt lat="45.8932550" lon="10.2894660">
	<ele>1684.00</ele>
	<time>2025-07-29T07:35:48.000Z</time>
</trkpt>
<trkpt lat="45.8932550" lon="10.2894660">
	<ele>1684.00</ele>
	<time>2025-07-29T07:35:49.000Z</time>
</trkpt>
<trkpt lat="45.8932550" lon="10.2894660">
	<ele>1684.00</ele>
	<time>2025-07-29T07:35:50.000Z</time>
</trkpt>
<trkpt lat="45.8932550" lon="10.2894660">
	<ele>1684.20</ele>
	<time>2025-07-29T07:35:51.000Z</time>
</trkpt>
<trkpt lat="45.8932530" lon="10.2894590">
	<ele>1684.20</ele>
	<time>2025-07-29T07:35:52.000Z</time>
</trkpt>
<trkpt lat="45.8932510" lon="10.2894420">
	<ele>1684.20</ele>
	<time>2025-07-29T07:35:53.000Z</time>
</trkpt>
<trkpt lat="45.8932470" lon="10.2894260">
	<ele>1684.40</ele>
	<time>2025-07-29T07:35:54.000Z</time>
</trkpt>
<trkpt lat="45.8932430" lon="10.2894040">
	<ele>1684.60</ele>
	<time>2025-07-29T07:35:55.000Z</time>
</trkpt>
<trkpt lat="45.8932390" lon="10.2893910">
	<ele>1684.80</ele>
	<time>2025-07-29T07:35:56.000Z</time>
</trkpt>
<trkpt lat="45.8932330" lon="10.2893740">
	<ele>1685.20</ele>
	<time>2025-07-29T07:35:57.000Z</time>
</trkpt>
<trkpt lat="45.8932220" lon="10.2893550">
	<ele>1685.40</ele>
	<time>2025-07-29T07:35:58.000Z</time>
</trkpt>
<trkpt lat="45.8932080" lon="10.2893370">
	<ele>1685.60</ele>
	<time>2025-07-29T07:35:59.000Z</time>
</trkpt>
<trkpt lat="45.8931920" lon="10.2893280">
	<ele>1685.60</ele>
	<time>2025-07-29T07:36:00.000Z</time>
</trkpt>
<trkpt lat="45.8931940" lon="10.2893190">
	<ele>1685.60</ele>
	<time>2025-07-29T07:36:01.000Z</time>
</trkpt>
<trkpt lat="45.8932000" lon="10.2893160">
	<ele>1685.80</ele>
	<time>2025-07-29T07:36:02.000Z</time>
</trkpt>
<trkpt lat="45.8931980" lon="10.2893120">
	<ele>1686.00</ele>
	<time>2025-07-29T07:36:03.000Z</time>
</trkpt>
<trkpt lat="45.8931950" lon="10.2893060">
	<ele>1686.20</ele>
	<time>2025-07-29T07:36:04.000Z</time>
</trkpt>
<trkpt lat="45.8931890" lon="10.2892980">
	<ele>1686.40</ele>
	<time>2025-07-29T07:36:05.000Z</time>
</trkpt>
<trkpt lat="45.8931800" lon="10.2892920">
	<ele>1686.80</ele>
	<time>2025-07-29T07:36:06.000Z</time>
</trkpt>
<trkpt lat="45.8931730" lon="10.2892860">
	<ele>1687.00</ele>
	<time>2025-07-29T07:36:07.000Z</time>
</trkpt>
<trkpt lat="45.8931700" lon="10.2892840">
	<ele>1687.20</ele>
	<time>2025-07-29T07:36:08.000Z</time>
</trkpt>
<trkpt lat="45.8931680" lon="10.2892840">
	<ele>1687.40</ele>
	<time>2025-07-29T07:36:09.000Z</time>
</trkpt>
<trkpt lat="45.8931630" lon="10.2892780">
	<ele>1687.40</ele>
	<time>2025-07-29T07:36:10.000Z</time>
</trkpt>
<trkpt lat="45.8931650" lon="10.2892710">
	<ele>1687.60</ele>
	<time>2025-07-29T07:36:11.000Z</time>
</trkpt>
<trkpt lat="45.8931640" lon="10.2892610">
	<ele>1687.60</ele>
	<time>2025-07-29T07:36:12.000Z</time>
</trkpt>
<trkpt lat="45.8931610" lon="10.2892500">
	<ele>1687.80</ele>
	<time>2025-07-29T07:36:13.000Z</time>
</trkpt>
<trkpt lat="45.8931550" lon="10.2892430">
	<ele>1687.80</ele>
	<time>2025-07-29T07:36:14.000Z</time>
</trkpt>
<trkpt lat="45.8931490" lon="10.2892340">
	<ele>1688.00</ele>
	<time>2025-07-29T07:36:15.000Z</time>
</trkpt>
<trkpt lat="45.8931460" lon="10.2892280">
	<ele>1688.20</ele>
	<time>2025-07-29T07:36:16.000Z</time>
</trkpt>
<trkpt lat="45.8931440" lon="10.2892230">
	<ele>1688.40</ele>
	<time>2025-07-29T07:36:17.000Z</time>
</trkpt>
<trkpt lat="45.8931440" lon="10.2892170">
	<ele>1688.60</ele>
	<time>2025-07-29T07:36:18.000Z</time>
</trkpt>
<trkpt lat="45.8931430" lon="10.2892070">
	<ele>1688.80</ele>
	<time>2025-07-29T07:36:19.000Z</time>
</trkpt>
<trkpt lat="45.8931420" lon="10.2891970">
	<ele>1689.00</ele>
	<time>2025-07-29T07:36:20.000Z</time>
</trkpt>
<trkpt lat="45.8931390" lon="10.2891880">
	<ele>1689.20</ele>
	<time>2025-07-29T07:36:21.000Z</time>
</trkpt>
<trkpt lat="45.8931330" lon="10.2891840">
	<ele>1689.40</ele>
	<time>2025-07-29T07:36:22.000Z</time>
</trkpt>
<trkpt lat="45.8931260" lon="10.2891790">
	<ele>1689.60</ele>
	<time>2025-07-29T07:36:23.000Z</time>
</trkpt>
<trkpt lat="45.8931180" lon="10.2891780">
	<ele>1689.80</ele>
	<time>2025-07-29T07:36:24.000Z</time>
</trkpt>
<trkpt lat="45.8931090" lon="10.2891800">
	<ele>1689.80</ele>
	<time>2025-07-29T07:36:25.000Z</time>
</trkpt>
<trkpt lat="45.8931030" lon="10.2891750">
	<ele>1690.00</ele>
	<time>2025-07-29T07:36:26.000Z</time>
</trkpt>
<trkpt lat="45.8930990" lon="10.2891680">
	<ele>1690.00</ele>
	<time>2025-07-29T07:36:27.000Z</time>
</trkpt>
<trkpt lat="45.8930950" lon="10.2891600">
	<ele>1690.20</ele>
	<time>2025-07-29T07:36:28.000Z</time>
</trkpt>
<trkpt lat="45.8930830" lon="10.2891590">
	<ele>1690.20</ele>
	<time>2025-07-29T07:36:29.000Z</time>
</trkpt>
<trkpt lat="45.8930790" lon="10.2891530">
	<ele>1690.40</ele>
	<time>2025-07-29T07:36:30.000Z</time>
</trkpt>
<trkpt lat="45.8930770" lon="10.2891470">
	<ele>1690.60</ele>
	<time>2025-07-29T07:36:31.000Z</time>
</trkpt>
<trkpt lat="45.8930750" lon="10.2891410">
	<ele>1690.80</ele>
	<time>2025-07-29T07:36:32.000Z</time>
</trkpt>
<trkpt lat="45.8930810" lon="10.2891370">
	<ele>1691.00</ele>
	<time>2025-07-29T07:36:33.000Z</time>
</trkpt>
<trkpt lat="45.8930830" lon="10.2891290">
	<ele>1691.00</ele>
	<time>2025-07-29T07:36:34.000Z</time>
</trkpt>
<trkpt lat="45.8930900" lon="10.2891240">
	<ele>1691.20</ele>
	<time>2025-07-29T07:36:35.000Z</time>
</trkpt>
<trkpt lat="45.8930820" lon="10.2891120">
	<ele>1691.40</ele>
	<time>2025-07-29T07:36:36.000Z</time>
</trkpt>
<trkpt lat="45.8930750" lon="10.2890940">
	<ele>1691.60</ele>
	<time>2025-07-29T07:36:37.000Z</time>
</trkpt>
<trkpt lat="45.8930710" lon="10.2890750">
	<ele>1691.80</ele>
	<time>2025-07-29T07:36:38.000Z</time>
</trkpt>
<trkpt lat="45.8930720" lon="10.2890650">
	<ele>1692.00</ele>
	<time>2025-07-29T07:36:39.000Z</time>
</trkpt>
<trkpt lat="45.8930730" lon="10.2890590">
	<ele>1692.20</ele>
	<time>2025-07-29T07:36:40.000Z</time>
</trkpt>
<trkpt lat="45.8930700" lon="10.2890520">
	<ele>1692.20</ele>
	<time>2025-07-29T07:36:41.000Z</time>
</trkpt>
<trkpt lat="45.8930630" lon="10.2890460">
	<ele>1692.40</ele>
	<time>2025-07-29T07:36:42.000Z</time>
</trkpt>
<trkpt lat="45.8930580" lon="10.2890410">
	<ele>1692.80</ele>
	<time>2025-07-29T07:36:43.000Z</time>
</trkpt>
<trkpt lat="45.8930540" lon="10.2890340">
	<ele>1693.00</ele>
	<time>2025-07-29T07:36:44.000Z</time>
</trkpt>
<trkpt lat="45.8930470" lon="10.2890240">
	<ele>1693.20</ele>
	<time>2025-07-29T07:36:45.000Z</time>
</trkpt>
<trkpt lat="45.8930440" lon="10.2890210">
	<ele>1693.40</ele>
	<time>2025-07-29T07:36:46.000Z</time>
</trkpt>
<trkpt lat="45.8930400" lon="10.2890120">
	<ele>1693.60</ele>
	<time>2025-07-29T07:36:47.000Z</time>
</trkpt>
<trkpt lat="45.8930350" lon="10.2890010">
	<ele>1693.60</ele>
	<time>2025-07-29T07:36:48.000Z</time>
</trkpt>
<trkpt lat="45.8930300" lon="10.2889910">
	<ele>1693.80</ele>
	<time>2025-07-29T07:36:49.000Z</time>
</trkpt>
<trkpt lat="45.8930250" lon="10.2889840">
	<ele>1693.80</ele>
	<time>2025-07-29T07:36:50.000Z</time>
</trkpt>
<trkpt lat="45.8930200" lon="10.2889770">
	<ele>1694.00</ele>
	<time>2025-07-29T07:36:51.000Z</time>
</trkpt>
<trkpt lat="45.8930130" lon="10.2889740">
	<ele>1694.20</ele>
	<time>2025-07-29T07:36:52.000Z</time>
</trkpt>
<trkpt lat="45.8930090" lon="10.2889680">
	<ele>1694.40</ele>
	<time>2025-07-29T07:36:53.000Z</time>
</trkpt>
<trkpt lat="45.8930050" lon="10.2889660">
	<ele>1694.40</ele>
	<time>2025-07-29T07:36:54.000Z</time>
</trkpt>
<trkpt lat="45.8930020" lon="10.2889630">
	<ele>1694.60</ele>
	<time>2025-07-29T07:36:55.000Z</time>
</trkpt>
<trkpt lat="45.8929970" lon="10.2889550">
	<ele>1694.60</ele>
	<time>2025-07-29T07:36:56.000Z</time>
</trkpt>
<trkpt lat="45.8929930" lon="10.2889410">
	<ele>1694.80</ele>
	<time>2025-07-29T07:36:57.000Z</time>
</trkpt>
<trkpt lat="45.8929920" lon="10.2889330">
	<ele>1695.00</ele>
	<time>2025-07-29T07:36:58.000Z</time>
</trkpt>
<trkpt lat="45.8929900" lon="10.2889290">
	<ele>1695.40</ele>
	<time>2025-07-29T07:36:59.000Z</time>
</trkpt>
<trkpt lat="45.8929880" lon="10.2889190">
	<ele>1695.80</ele>
	<time>2025-07-29T07:37:00.000Z</time>
</trkpt>
<trkpt lat="45.8929900" lon="10.2889080">
	<ele>1695.80</ele>
	<time>2025-07-29T07:37:01.000Z</time>
</trkpt>
<trkpt lat="45.8929910" lon="10.2889010">
	<ele>1696.00</ele>
	<time>2025-07-29T07:37:02.000Z</time>
</trkpt>
<trkpt lat="45.8929880" lon="10.2888930">
	<ele>1696.20</ele>
	<time>2025-07-29T07:37:03.000Z</time>
</trkpt>
<trkpt lat="45.8929830" lon="10.2888840">
	<ele>1696.40</ele>
	<time>2025-07-29T07:37:04.000Z</time>
</trkpt>
<trkpt lat="45.8929770" lon="10.2888760">
	<ele>1696.40</ele>
	<time>2025-07-29T07:37:05.000Z</time>
</trkpt>
<trkpt lat="45.8929690" lon="10.2888700">
	<ele>1696.60</ele>
	<time>2025-07-29T07:37:06.000Z</time>
</trkpt>
<trkpt lat="45.8929580" lon="10.2888590">
	<ele>1696.80</ele>
	<time>2025-07-29T07:37:07.000Z</time>
</trkpt>
<trkpt lat="45.8929550" lon="10.2888490">
	<ele>1697.00</ele>
	<time>2025-07-29T07:37:08.000Z</time>
</trkpt>
<trkpt lat="45.8929560" lon="10.2888450">
	<ele>1697.00</ele>
	<time>2025-07-29T07:37:09.000Z</time>
</trkpt>
<trkpt lat="45.8929530" lon="10.2888390">
	<ele>1697.20</ele>
	<time>2025-07-29T07:37:10.000Z</time>
</trkpt>
<trkpt lat="45.8929510" lon="10.2888330">
	<ele>1697.40</ele>
	<time>2025-07-29T07:37:11.000Z</time>
</trkpt>
<trkpt lat="45.8929450" lon="10.2888240">
	<ele>1697.60</ele>
	<time>2025-07-29T07:37:12.000Z</time>
</trkpt>
<trkpt lat="45.8929400" lon="10.2888190">
	<ele>1697.60</ele>
	<time>2025-07-29T07:37:13.000Z</time>
</trkpt>
<trkpt lat="45.8929350" lon="10.2888120">
	<ele>1697.80</ele>
	<time>2025-07-29T07:37:14.000Z</time>
</trkpt>
<trkpt lat="45.8929340" lon="10.2888020">
	<ele>1698.00</ele>
	<time>2025-07-29T07:37:15.000Z</time>
</trkpt>
<trkpt lat="45.8929320" lon="10.2887920">
	<ele>1698.20</ele>
	<time>2025-07-29T07:37:16.000Z</time>
</trkpt>
<trkpt lat="45.8929250" lon="10.2887830">
	<ele>1698.60</ele>
	<time>2025-07-29T07:37:17.000Z</time>
</trkpt>
<trkpt lat="45.8929210" lon="10.2887720">
	<ele>1698.80</ele>
	<time>2025-07-29T07:37:18.000Z</time>
</trkpt>
<trkpt lat="45.8929200" lon="10.2887640">
	<ele>1699.00</ele>
	<time>2025-07-29T07:37:19.000Z</time>
</trkpt>
<trkpt lat="45.8929190" lon="10.2887550">
	<ele>1699.20</ele>
	<time>2025-07-29T07:37:20.000Z</time>
</trkpt>
<trkpt lat="45.8929150" lon="10.2887470">
	<ele>1699.20</ele>
	<time>2025-07-29T07:37:21.000Z</time>
</trkpt>
<trkpt lat="45.8929100" lon="10.2887410">
	<ele>1699.40</ele>
	<time>2025-07-29T07:37:22.000Z</time>
</trkpt>
<trkpt lat="45.8929080" lon="10.2887350">
	<ele>1699.60</ele>
	<time>2025-07-29T07:37:23.000Z</time>
</trkpt>
<trkpt lat="45.8929050" lon="10.2887310">
	<ele>1699.60</ele>
	<time>2025-07-29T07:37:24.000Z</time>
</trkpt>
<trkpt lat="45.8929030" lon="10.2887270">
	<ele>1699.80</ele>
	<time>2025-07-29T07:37:25.000Z</time>
</trkpt>
<trkpt lat="45.8928950" lon="10.2887220">
	<ele>1699.80</ele>
	<time>2025-07-29T07:37:26.000Z</time>
</trkpt>
<trkpt lat="45.8928900" lon="10.2887130">
	<ele>1700.00</ele>
	<time>2025-07-29T07:37:27.000Z</time>
</trkpt>
<trkpt lat="45.8928830" lon="10.2887050">
	<ele>1700.20</ele>
	<time>2025-07-29T07:37:28.000Z</time>
</trkpt>
<trkpt lat="45.8928710" lon="10.2886960">
	<ele>1700.20</ele>
	<time>2025-07-29T07:37:29.000Z</time>
</trkpt>
<trkpt lat="45.8928610" lon="10.2886890">
	<ele>1700.40</ele>
	<time>2025-07-29T07:37:30.000Z</time>
</trkpt>
<trkpt lat="45.8928560" lon="10.2886880">
	<ele>1700.60</ele>
	<time>2025-07-29T07:37:31.000Z</time>
</trkpt>
<trkpt lat="45.8928520" lon="10.2886850">
	<ele>1700.80</ele>
	<time>2025-07-29T07:37:32.000Z</time>
</trkpt>
<trkpt lat="45.8928500" lon="10.2886800">
	<ele>1700.80</ele>
	<time>2025-07-29T07:37:33.000Z</time>
</trkpt>
<trkpt lat="45.8928510" lon="10.2886730">
	<ele>1701.20</ele>
	<time>2025-07-29T07:37:34.000Z</time>
</trkpt>
<trkpt lat="45.8928460" lon="10.2886690">
	<ele>1701.40</ele>
	<time>2025-07-29T07:37:35.000Z</time>
</trkpt>
<trkpt lat="45.8928410" lon="10.2886620">
	<ele>1701.40</ele>
	<time>2025-07-29T07:37:36.000Z</time>
</trkpt>
<trkpt lat="45.8928400" lon="10.2886510">
	<ele>1701.60</ele>
	<time>2025-07-29T07:37:37.000Z</time>
</trkpt>
<trkpt lat="45.8928370" lon="10.2886430">
	<ele>1701.80</ele>
	<time>2025-07-29T07:37:38.000Z</time>
</trkpt>
<trkpt lat="45.8928340" lon="10.2886360">
	<ele>1701.80</ele>
	<time>2025-07-29T07:37:39.000Z</time>
</trkpt>
<trkpt lat="45.8928310" lon="10.2886270">
	<ele>1702.20</ele>
	<time>2025-07-29T07:37:40.000Z</time>
</trkpt>
<trkpt lat="45.8928270" lon="10.2886210">
	<ele>1702.40</ele>
	<time>2025-07-29T07:37:41.000Z</time>
</trkpt>
<trkpt lat="45.8928250" lon="10.2886140">
	<ele>1702.40</ele>
	<time>2025-07-29T07:37:42.000Z</time>
</trkpt>
<trkpt lat="45.8928230" lon="10.2886050">
	<ele>1702.60</ele>
	<time>2025-07-29T07:37:43.000Z</time>
</trkpt>
<trkpt lat="45.8928190" lon="10.2885970">
	<ele>1702.60</ele>
	<time>2025-07-29T07:37:44.000Z</time>
</trkpt>
<trkpt lat="45.8928160" lon="10.2885880">
	<ele>1703.00</ele>
	<time>2025-07-29T07:37:45.000Z</time>
</trkpt>
<trkpt lat="45.8928140" lon="10.2885800">
	<ele>1703.00</ele>
	<time>2025-07-29T07:37:46.000Z</time>
</trkpt>
<trkpt lat="45.8928110" lon="10.2885740">
	<ele>1703.20</ele>
	<time>2025-07-29T07:37:47.000Z</time>
</trkpt>
<trkpt lat="45.8928050" lon="10.2885680">
	<ele>1703.40</ele>
	<time>2025-07-29T07:37:48.000Z</time>
</trkpt>
<trkpt lat="45.8928000" lon="10.2885610">
	<ele>1703.40</ele>
	<time>2025-07-29T07:37:49.000Z</time>
</trkpt>
<trkpt lat="45.8927950" lon="10.2885560">
	<ele>1703.80</ele>
	<time>2025-07-29T07:37:50.000Z</time>
</trkpt>
<trkpt lat="45.8927900" lon="10.2885480">
	<ele>1704.00</ele>
	<time>2025-07-29T07:37:51.000Z</time>
</trkpt>
<trkpt lat="45.8927890" lon="10.2885400">
	<ele>1704.00</ele>
	<time>2025-07-29T07:37:52.000Z</time>
</trkpt>
<trkpt lat="45.8927900" lon="10.2885330">
	<ele>1704.20</ele>
	<time>2025-07-29T07:37:53.000Z</time>
</trkpt>
<trkpt lat="45.8927880" lon="10.2885240">
	<ele>1704.40</ele>
	<time>2025-07-29T07:37:54.000Z</time>
</trkpt>
<trkpt lat="45.8927860" lon="10.2885160">
	<ele>1704.60</ele>
	<time>2025-07-29T07:37:55.000Z</time>
</trkpt>
<trkpt lat="45.8927840" lon="10.2885110">
	<ele>1704.60</ele>
	<time>2025-07-29T07:37:56.000Z</time>
</trkpt>
<trkpt lat="45.8927820" lon="10.2885040">
	<ele>1704.80</ele>
	<time>2025-07-29T07:37:57.000Z</time>
</trkpt>
<trkpt lat="45.8927780" lon="10.2884980">
	<ele>1705.00</ele>
	<time>2025-07-29T07:37:58.000Z</time>
</trkpt>
<trkpt lat="45.8927720" lon="10.2884920">
	<ele>1705.20</ele>
	<time>2025-07-29T07:37:59.000Z</time>
</trkpt>
<trkpt lat="45.8927640" lon="10.2884850">
	<ele>1705.40</ele>
	<time>2025-07-29T07:38:00.000Z</time>
</trkpt>
<trkpt lat="45.8927610" lon="10.2884790">
	<ele>1705.40</ele>
	<time>2025-07-29T07:38:01.000Z</time>
</trkpt>
<trkpt lat="45.8927580" lon="10.2884730">
	<ele>1705.80</ele>
	<time>2025-07-29T07:38:02.000Z</time>
</trkpt>
<trkpt lat="45.8927540" lon="10.2884650">
	<ele>1706.00</ele>
	<time>2025-07-29T07:38:03.000Z</time>
</trkpt>
<trkpt lat="45.8927510" lon="10.2884570">
	<ele>1706.20</ele>
	<time>2025-07-29T07:38:04.000Z</time>
</trkpt>
<trkpt lat="45.8927500" lon="10.2884500">
	<ele>1706.20</ele>
	<time>2025-07-29T07:38:05.000Z</time>
</trkpt>
<trkpt lat="45.8927460" lon="10.2884420">
	<ele>1706.60</ele>
	<time>2025-07-29T07:38:06.000Z</time>
</trkpt>
<trkpt lat="45.8927400" lon="10.2884360">
	<ele>1706.60</ele>
	<time>2025-07-29T07:38:07.000Z</time>
</trkpt>
<trkpt lat="45.8927320" lon="10.2884320">
	<ele>1706.80</ele>
	<time>2025-07-29T07:38:08.000Z</time>
</trkpt>
<trkpt lat="45.8927280" lon="10.2884250">
	<ele>1706.80</ele>
	<time>2025-07-29T07:38:09.000Z</time>
</trkpt>
<trkpt lat="45.8927260" lon="10.2884190">
	<ele>1707.00</ele>
	<time>2025-07-29T07:38:10.000Z</time>
</trkpt>
<trkpt lat="45.8927250" lon="10.2884100">
	<ele>1707.20</ele>
	<time>2025-07-29T07:38:11.000Z</time>
</trkpt>
<trkpt lat="45.8927270" lon="10.2884030">
	<ele>1707.60</ele>
	<time>2025-07-29T07:38:12.000Z</time>
</trkpt>
<trkpt lat="45.8927260" lon="10.2883950">
	<ele>1707.60</ele>
	<time>2025-07-29T07:38:13.000Z</time>
</trkpt>
<trkpt lat="45.8927220" lon="10.2883900">
	<ele>1707.80</ele>
	<time>2025-07-29T07:38:14.000Z</time>
</trkpt>
<trkpt lat="45.8927200" lon="10.2883880">
	<ele>1708.00</ele>
	<time>2025-07-29T07:38:15.000Z</time>
</trkpt>
<trkpt lat="45.8927190" lon="10.2883830">
	<ele>1708.20</ele>
	<time>2025-07-29T07:38:16.000Z</time>
</trkpt>
<trkpt lat="45.8927160" lon="10.2883730">
	<ele>1708.40</ele>
	<time>2025-07-29T07:38:17.000Z</time>
</trkpt>
<trkpt lat="45.8927100" lon="10.2883640">
	<ele>1708.60</ele>
	<time>2025-07-29T07:38:18.000Z</time>
</trkpt>
<trkpt lat="45.8927050" lon="10.2883600">
	<ele>1708.80</ele>
	<time>2025-07-29T07:38:19.000Z</time>
</trkpt>
<trkpt lat="45.8926990" lon="10.2883520">
	<ele>1709.00</ele>
	<time>2025-07-29T07:38:20.000Z</time>
</trkpt>
<trkpt lat="45.8926940" lon="10.2883430">
	<ele>1709.20</ele>
	<time>2025-07-29T07:38:21.000Z</time>
</trkpt>
<trkpt lat="45.8926880" lon="10.2883350">
	<ele>1709.40</ele>
	<time>2025-07-29T07:38:22.000Z</time>
</trkpt>
<trkpt lat="45.8926800" lon="10.2883310">
	<ele>1709.60</ele>
	<time>2025-07-29T07:38:23.000Z</time>
</trkpt>
<trkpt lat="45.8926730" lon="10.2883260">
	<ele>1709.80</ele>
	<time>2025-07-29T07:38:24.000Z</time>
</trkpt>
<trkpt lat="45.8926690" lon="10.2883210">
	<ele>1709.80</ele>
	<time>2025-07-29T07:38:25.000Z</time>
</trkpt>
<trkpt lat="45.8926670" lon="10.2883040">
	<ele>1710.20</ele>
	<time>2025-07-29T07:38:26.000Z</time>
</trkpt>
<trkpt lat="45.8926610" lon="10.2882940">
	<ele>1710.20</ele>
	<time>2025-07-29T07:38:27.000Z</time>
</trkpt>
<trkpt lat="45.8926580" lon="10.2882910">
	<ele>1710.40</ele>
	<time>2025-07-29T07:38:28.000Z</time>
</trkpt>
<trkpt lat="45.8926550" lon="10.2882890">
	<ele>1710.60</ele>
	<time>2025-07-29T07:38:29.000Z</time>
</trkpt>
<trkpt lat="45.8926530" lon="10.2882890">
	<ele>1710.80</ele>
	<time>2025-07-29T07:38:30.000Z</time>
</trkpt>
<trkpt lat="45.8926460" lon="10.2882910">
	<ele>1711.00</ele>
	<time>2025-07-29T07:38:31.000Z</time>
</trkpt>
<trkpt lat="45.8926400" lon="10.2882990">
	<ele>1711.20</ele>
	<time>2025-07-29T07:38:32.000Z</time>
</trkpt>
<trkpt lat="45.8926330" lon="10.2883120">
	<ele>1711.40</ele>
	<time>2025-07-29T07:38:33.000Z</time>
</trkpt>
<trkpt lat="45.8926260" lon="10.2883080">
	<ele>1711.40</ele>
	<time>2025-07-29T07:38:34.000Z</time>
</trkpt>
<trkpt lat="45.8926150" lon="10.2883010">
	<ele>1711.60</ele>
	<time>2025-07-29T07:38:35.000Z</time>
</trkpt>
<trkpt lat="45.8926010" lon="10.2882960">
	<ele>1711.60</ele>
	<time>2025-07-29T07:38:36.000Z</time>
</trkpt>
<trkpt lat="45.8925910" lon="10.2882910">
	<ele>1711.60</ele>
	<time>2025-07-29T07:38:37.000Z</time>
</trkpt>
<trkpt lat="45.8925860" lon="10.2882840">
	<ele>1711.80</ele>
	<time>2025-07-29T07:38:38.000Z</time>
</trkpt>
<trkpt lat="45.8925850" lon="10.2882760">
	<ele>1711.80</ele>
	<time>2025-07-29T07:38:39.000Z</time>
</trkpt>
<trkpt lat="45.8925890" lon="10.2882680">
	<ele>1712.00</ele>
	<time>2025-07-29T07:38:40.000Z</time>
</trkpt>
<trkpt lat="45.8925900" lon="10.2882590">
	<ele>1712.00</ele>
	<time>2025-07-29T07:38:41.000Z</time>
</trkpt>
<trkpt lat="45.8925840" lon="10.2882570">
	<ele>1712.40</ele>
	<time>2025-07-29T07:38:42.000Z</time>
</trkpt>
<trkpt lat="45.8925800" lon="10.2882450">
	<ele>1712.60</ele>
	<time>2025-07-29T07:38:43.000Z</time>
</trkpt>
<trkpt lat="45.8925810" lon="10.2882380">
	<ele>1713.00</ele>
	<time>2025-07-29T07:38:44.000Z</time>
</trkpt>
<trkpt lat="45.8925810" lon="10.2882300">
	<ele>1713.20</ele>
	<time>2025-07-29T07:38:45.000Z</time>
</trkpt>
<trkpt lat="45.8925800" lon="10.2882220">
	<ele>1713.40</ele>
	<time>2025-07-29T07:38:46.000Z</time>
</trkpt>
<trkpt lat="45.8925800" lon="10.2882120">
	<ele>1713.60</ele>
	<time>2025-07-29T07:38:47.000Z</time>
</trkpt>
<trkpt lat="45.8925820" lon="10.2882010">
	<ele>1713.80</ele>
	<time>2025-07-29T07:38:48.000Z</time>
</trkpt>
<trkpt lat="45.8925790" lon="10.2881950">
	<ele>1713.80</ele>
	<time>2025-07-29T07:38:49.000Z</time>
</trkpt>
<trkpt lat="45.8925770" lon="10.2881850">
	<ele>1714.00</ele>
	<time>2025-07-29T07:38:50.000Z</time>
</trkpt>
<trkpt lat="45.8925750" lon="10.2881740">
	<ele>1714.00</ele>
	<time>2025-07-29T07:38:51.000Z</time>
</trkpt>
<trkpt lat="45.8925730" lon="10.2881630">
	<ele>1714.20</ele>
	<time>2025-07-29T07:38:52.000Z</time>
</trkpt>
<trkpt lat="45.8925700" lon="10.2881520">
	<ele>1714.60</ele>
	<time>2025-07-29T07:38:53.000Z</time>
</trkpt>
<trkpt lat="45.8925720" lon="10.2881420">
	<ele>1714.60</ele>
	<time>2025-07-29T07:38:54.000Z</time>
</trkpt>
<trkpt lat="45.8925780" lon="10.2881330">
	<ele>1714.80</ele>
	<time>2025-07-29T07:38:55.000Z</time>
</trkpt>
<trkpt lat="45.8925740" lon="10.2881290">
	<ele>1714.80</ele>
	<time>2025-07-29T07:38:56.000Z</time>
</trkpt>
<trkpt lat="45.8925690" lon="10.2881220">
	<ele>1715.20</ele>
	<time>2025-07-29T07:38:57.000Z</time>
</trkpt>
<trkpt lat="45.8925500" lon="10.2881180">
	<ele>1715.20</ele>
	<time>2025-07-29T07:38:58.000Z</time>
</trkpt>
<trkpt lat="45.8925450" lon="10.2881150">
	<ele>1715.40</ele>
	<time>2025-07-29T07:38:59.000Z</time>
</trkpt>
<trkpt lat="45.8925420" lon="10.2881140">
	<ele>1715.60</ele>
	<time>2025-07-29T07:39:00.000Z</time>
</trkpt>
<trkpt lat="45.8925400" lon="10.2881130">
	<ele>1715.80</ele>
	<time>2025-07-29T07:39:01.000Z</time>
</trkpt>
<trkpt lat="45.8925260" lon="10.2881090">
	<ele>1716.00</ele>
	<time>2025-07-29T07:39:02.000Z</time>
</trkpt>
<trkpt lat="45.8925220" lon="10.2881080">
	<ele>1716.20</ele>
	<time>2025-07-29T07:39:03.000Z</time>
</trkpt>
<trkpt lat="45.8925180" lon="10.2881060">
	<ele>1716.40</ele>
	<time>2025-07-29T07:39:04.000Z</time>
</trkpt>
<trkpt lat="45.8925130" lon="10.2880990">
	<ele>1716.60</ele>
	<time>2025-07-29T07:39:05.000Z</time>
</trkpt>
<trkpt lat="45.8925050" lon="10.2880940">
	<ele>1716.80</ele>
	<time>2025-07-29T07:39:06.000Z</time>
</trkpt>
<trkpt lat="45.8924930" lon="10.2880870">
	<ele>1716.80</ele>
	<time>2025-07-29T07:39:07.000Z</time>
</trkpt>
<trkpt lat="45.8924870" lon="10.2880770">
	<ele>1717.00</ele>
	<time>2025-07-29T07:39:08.000Z</time>
</trkpt>
<trkpt lat="45.8924810" lon="10.2880680">
	<ele>1717.20</ele>
	<time>2025-07-29T07:39:09.000Z</time>
</trkpt>
<trkpt lat="45.8924850" lon="10.2880660">
	<ele>1717.20</ele>
	<time>2025-07-29T07:39:10.000Z</time>
</trkpt>
<trkpt lat="45.8924850" lon="10.2880620">
	<ele>1717.20</ele>
	<time>2025-07-29T07:39:11.000Z</time>
</trkpt>
<trkpt lat="45.8924810" lon="10.2880540">
	<ele>1717.40</ele>
	<time>2025-07-29T07:39:12.000Z</time>
</trkpt>
<trkpt lat="45.8924860" lon="10.2880470">
	<ele>1717.60</ele>
	<time>2025-07-29T07:39:13.000Z</time>
</trkpt>
<trkpt lat="45.8924860" lon="10.2880420">
	<ele>1717.80</ele>
	<time>2025-07-29T07:39:14.000Z</time>
</trkpt>
<trkpt lat="45.8924850" lon="10.2880330">
	<ele>1718.00</ele>
	<time>2025-07-29T07:39:15.000Z</time>
</trkpt>
<trkpt lat="45.8924840" lon="10.2880180">
	<ele>1718.00</ele>
	<time>2025-07-29T07:39:16.000Z</time>
</trkpt>
<trkpt lat="45.8924800" lon="10.2880090">
	<ele>1718.20</ele>
	<time>2025-07-29T07:39:17.000Z</time>
</trkpt>
<trkpt lat="45.8924640" lon="10.2879980">
	<ele>1718.40</ele>
	<time>2025-07-29T07:39:18.000Z</time>
</trkpt>
<trkpt lat="45.8924580" lon="10.2879910">
	<ele>1718.60</ele>
	<time>2025-07-29T07:39:19.000Z</time>
</trkpt>
<trkpt lat="45.8924540" lon="10.2879860">
	<ele>1719.00</ele>
	<time>2025-07-29T07:39:20.000Z</time>
</trkpt>
<trkpt lat="45.8924520" lon="10.2879830">
	<ele>1719.20</ele>
	<time>2025-07-29T07:39:21.000Z</time>
</trkpt>
<trkpt lat="45.8924500" lon="10.2879840">
	<ele>1719.40</ele>
	<time>2025-07-29T07:39:22.000Z</time>
</trkpt>
<trkpt lat="45.8924470" lon="10.2879800">
	<ele>1719.60</ele>
	<time>2025-07-29T07:39:23.000Z</time>
</trkpt>
<trkpt lat="45.8924480" lon="10.2879750">
	<ele>1719.60</ele>
	<time>2025-07-29T07:39:24.000Z</time>
</trkpt>
<trkpt lat="45.8924490" lon="10.2879670">
	<ele>1719.60</ele>
	<time>2025-07-29T07:39:25.000Z</time>
</trkpt>
<trkpt lat="45.8924460" lon="10.2879610">
	<ele>1719.60</ele>
	<time>2025-07-29T07:39:26.000Z</time>
</trkpt>
<trkpt lat="45.8924390" lon="10.2879540">
	<ele>1719.80</ele>
	<time>2025-07-29T07:39:27.000Z</time>
</trkpt>
<trkpt lat="45.8924340" lon="10.2879440">
	<ele>1720.00</ele>
	<time>2025-07-29T07:39:28.000Z</time>
</trkpt>
<trkpt lat="45.8924250" lon="10.2879330">
	<ele>1720.20</ele>
	<time>2025-07-29T07:39:29.000Z</time>
</trkpt>
<trkpt lat="45.8924210" lon="10.2879250">
	<ele>1720.40</ele>
	<time>2025-07-29T07:39:30.000Z</time>
</trkpt>
<trkpt lat="45.8924160" lon="10.2879250">
	<ele>1720.60</ele>
	<time>2025-07-29T07:39:31.000Z</time>
</trkpt>
<trkpt lat="45.8924100" lon="10.2879190">
	<ele>1720.80</ele>
	<time>2025-07-29T07:39:32.000Z</time>
</trkpt>
<trkpt lat="45.8924010" lon="10.2879140">
	<ele>1720.80</ele>
	<time>2025-07-29T07:39:33.000Z</time>
</trkpt>
<trkpt lat="45.8923900" lon="10.2879070">
	<ele>1720.80</ele>
	<time>2025-07-29T07:39:34.000Z</time>
</trkpt>
<trkpt lat="45.8923820" lon="10.2878970">
	<ele>1721.00</ele>
	<time>2025-07-29T07:39:35.000Z</time>
</trkpt>
<trkpt lat="45.8923790" lon="10.2878960">
	<ele>1721.20</ele>
	<time>2025-07-29T07:39:36.000Z</time>
</trkpt>
<trkpt lat="45.8923750" lon="10.2878910">
	<ele>1721.40</ele>
	<time>2025-07-29T07:39:37.000Z</time>
</trkpt>
<trkpt lat="45.8923700" lon="10.2878840">
	<ele>1721.60</ele>
	<time>2025-07-29T07:39:38.000Z</time>
</trkpt>
<trkpt lat="45.8923670" lon="10.2878750">
	<ele>1721.60</ele>
	<time>2025-07-29T07:39:39.000Z</time>
</trkpt>
<trkpt lat="45.8923620" lon="10.2878660">
	<ele>1721.80</ele>
	<time>2025-07-29T07:39:40.000Z</time>
</trkpt>
<trkpt lat="45.8923550" lon="10.2878620">
	<ele>1721.80</ele>
	<time>2025-07-29T07:39:41.000Z</time>
</trkpt>
<trkpt lat="45.8923530" lon="10.2878590">
	<ele>1722.00</ele>
	<time>2025-07-29T07:39:42.000Z</time>
</trkpt>
<trkpt lat="45.8923440" lon="10.2878560">
	<ele>1722.00</ele>
	<time>2025-07-29T07:39:43.000Z</time>
</trkpt>
<trkpt lat="45.8923350" lon="10.2878530">
	<ele>1722.20</ele>
	<time>2025-07-29T07:39:44.000Z</time>
</trkpt>
<trkpt lat="45.8923250" lon="10.2878490">
	<ele>1722.20</ele>
	<time>2025-07-29T07:39:45.000Z</time>
</trkpt>
<trkpt lat="45.8923150" lon="10.2878460">
	<ele>1722.40</ele>
	<time>2025-07-29T07:39:46.000Z</time>
</trkpt>
<trkpt lat="45.8923080" lon="10.2878430">
	<ele>1722.60</ele>
	<time>2025-07-29T07:39:47.000Z</time>
</trkpt>
<trkpt lat="45.8922980" lon="10.2878340">
	<ele>1722.60</ele>
	<time>2025-07-29T07:39:48.000Z</time>
</trkpt>
<trkpt lat="45.8922960" lon="10.2878260">
	<ele>1722.60</ele>
	<time>2025-07-29T07:39:49.000Z</time>
</trkpt>
<trkpt lat="45.8922930" lon="10.2878170">
	<ele>1723.00</ele>
	<time>2025-07-29T07:39:50.000Z</time>
</trkpt>
<trkpt lat="45.8922900" lon="10.2878110">
	<ele>1723.00</ele>
	<time>2025-07-29T07:39:51.000Z</time>
</trkpt>
<trkpt lat="45.8922850" lon="10.2878030">
	<ele>1723.20</ele>
	<time>2025-07-29T07:39:52.000Z</time>
</trkpt>
<trkpt lat="45.8922790" lon="10.2877950">
	<ele>1723.40</ele>
	<time>2025-07-29T07:39:53.000Z</time>
</trkpt>
<trkpt lat="45.8922700" lon="10.2877880">
	<ele>1723.60</ele>
	<time>2025-07-29T07:39:54.000Z</time>
</trkpt>
<trkpt lat="45.8922650" lon="10.2877810">
	<ele>1723.80</ele>
	<time>2025-07-29T07:39:55.000Z</time>
</trkpt>
<trkpt lat="45.8922630" lon="10.2877730">
	<ele>1723.80</ele>
	<time>2025-07-29T07:39:56.000Z</time>
</trkpt>
<trkpt lat="45.8922560" lon="10.2877680">
	<ele>1724.00</ele>
	<time>2025-07-29T07:39:57.000Z</time>
</trkpt>
<trkpt lat="45.8922520" lon="10.2877640">
	<ele>1724.00</ele>
	<time>2025-07-29T07:39:58.000Z</time>
</trkpt>
<trkpt lat="45.8922480" lon="10.2877580">
	<ele>1724.20</ele>
	<time>2025-07-29T07:39:59.000Z</time>
</trkpt>
<trkpt lat="45.8922430" lon="10.2877550">
	<ele>1724.40</ele>
	<time>2025-07-29T07:40:00.000Z</time>
</trkpt>
<trkpt lat="45.8922420" lon="10.2877450">
	<ele>1724.60</ele>
	<time>2025-07-29T07:40:01.000Z</time>
</trkpt>
<trkpt lat="45.8922400" lon="10.2877450">
	<ele>1725.00</ele>
	<time>2025-07-29T07:40:02.000Z</time>
</trkpt>
<trkpt lat="45.8922390" lon="10.2877430">
	<ele>1725.00</ele>
	<time>2025-07-29T07:40:03.000Z</time>
</trkpt>
<trkpt lat="45.8922330" lon="10.2877430">
	<ele>1725.20</ele>
	<time>2025-07-29T07:40:04.000Z</time>
</trkpt>
<trkpt lat="45.8922240" lon="10.2877390">
	<ele>1725.40</ele>
	<time>2025-07-29T07:40:05.000Z</time>
</trkpt>
<trkpt lat="45.8922140" lon="10.2877320">
	<ele>1725.60</ele>
	<time>2025-07-29T07:40:06.000Z</time>
</trkpt>
<trkpt lat="45.8922070" lon="10.2877250">
	<ele>1725.60</ele>
	<time>2025-07-29T07:40:07.000Z</time>
</trkpt>
<trkpt lat="45.8922030" lon="10.2877200">
	<ele>1725.80</ele>
	<time>2025-07-29T07:40:08.000Z</time>
</trkpt>
<trkpt lat="45.8921950" lon="10.2877180">
	<ele>1725.80</ele>
	<time>2025-07-29T07:40:09.000Z</time>
</trkpt>
<trkpt lat="45.8921840" lon="10.2877140">
	<ele>1726.00</ele>
	<time>2025-07-29T07:40:10.000Z</time>
</trkpt>
<trkpt lat="45.8921780" lon="10.2877120">
	<ele>1726.00</ele>
	<time>2025-07-29T07:40:11.000Z</time>
</trkpt>
<trkpt lat="45.8921710" lon="10.2877090">
	<ele>1726.20</ele>
	<time>2025-07-29T07:40:12.000Z</time>
</trkpt>
<trkpt lat="45.8921660" lon="10.2876990">
	<ele>1726.40</ele>
	<time>2025-07-29T07:40:13.000Z</time>
</trkpt>
<trkpt lat="45.8921630" lon="10.2876920">
	<ele>1726.60</ele>
	<time>2025-07-29T07:40:14.000Z</time>
</trkpt>
<trkpt lat="45.8921600" lon="10.2876870">
	<ele>1726.80</ele>
	<time>2025-07-29T07:40:15.000Z</time>
</trkpt>
<trkpt lat="45.8921590" lon="10.2876810">
	<ele>1727.00</ele>
	<time>2025-07-29T07:40:16.000Z</time>
</trkpt>
<trkpt lat="45.8921520" lon="10.2876720">
	<ele>1727.20</ele>
	<time>2025-07-29T07:40:17.000Z</time>
</trkpt>
<trkpt lat="45.8921400" lon="10.2876660">
	<ele>1727.40</ele>
	<time>2025-07-29T07:40:18.000Z</time>
</trkpt>
<trkpt lat="45.8921310" lon="10.2876570">
	<ele>1727.60</ele>
	<time>2025-07-29T07:40:19.000Z</time>
</trkpt>
<trkpt lat="45.8921230" lon="10.2876510">
	<ele>1727.60</ele>
	<time>2025-07-29T07:40:20.000Z</time>
</trkpt>
<trkpt lat="45.8921160" lon="10.2876470">
	<ele>1727.80</ele>
	<time>2025-07-29T07:40:21.000Z</time>
</trkpt>
<trkpt lat="45.8921130" lon="10.2876420">
	<ele>1727.80</ele>
	<time>2025-07-29T07:40:22.000Z</time>
</trkpt>
<trkpt lat="45.8921060" lon="10.2876310">
	<ele>1728.00</ele>
	<time>2025-07-29T07:40:23.000Z</time>
</trkpt>
<trkpt lat="45.8921000" lon="10.2876270">
	<ele>1728.20</ele>
	<time>2025-07-29T07:40:24.000Z</time>
</trkpt>
<trkpt lat="45.8920970" lon="10.2876220">
	<ele>1728.20</ele>
	<time>2025-07-29T07:40:25.000Z</time>
</trkpt>
<trkpt lat="45.8920950" lon="10.2876180">
	<ele>1728.60</ele>
	<time>2025-07-29T07:40:26.000Z</time>
</trkpt>
<trkpt lat="45.8920920" lon="10.2876080">
	<ele>1728.80</ele>
	<time>2025-07-29T07:40:27.000Z</time>
</trkpt>
<trkpt lat="45.8920850" lon="10.2876020">
	<ele>1729.00</ele>
	<time>2025-07-29T07:40:28.000Z</time>
</trkpt>
<trkpt lat="45.8920780" lon="10.2875930">
	<ele>1729.20</ele>
	<time>2025-07-29T07:40:29.000Z</time>
</trkpt>
<trkpt lat="45.8920750" lon="10.2875840">
	<ele>1729.20</ele>
	<time>2025-07-29T07:40:30.000Z</time>
</trkpt>
<trkpt lat="45.8920720" lon="10.2875760">
	<ele>1729.20</ele>
	<time>2025-07-29T07:40:31.000Z</time>
</trkpt>
<trkpt lat="45.8920720" lon="10.2875690">
	<ele>1729.40</ele>
	<time>2025-07-29T07:40:32.000Z</time>
</trkpt>
<trkpt lat="45.8920710" lon="10.2875600">
	<ele>1729.60</ele>
	<time>2025-07-29T07:40:33.000Z</time>
</trkpt>
<trkpt lat="45.8920710" lon="10.2875510">
	<ele>1729.80</ele>
	<time>2025-07-29T07:40:34.000Z</time>
</trkpt>
<trkpt lat="45.8920710" lon="10.2875460">
	<ele>1730.20</ele>
	<time>2025-07-29T07:40:35.000Z</time>
</trkpt>
<trkpt lat="45.8920680" lon="10.2875400">
	<ele>1730.40</ele>
	<time>2025-07-29T07:40:36.000Z</time>
</trkpt>
<trkpt lat="45.8920640" lon="10.2875270">
	<ele>1730.60</ele>
	<time>2025-07-29T07:40:37.000Z</time>
</trkpt>
<trkpt lat="45.8920600" lon="10.2875210">
	<ele>1730.60</ele>
	<time>2025-07-29T07:40:38.000Z</time>
</trkpt>
<trkpt lat="45.8920570" lon="10.2875160">
	<ele>1730.80</ele>
	<time>2025-07-29T07:40:39.000Z</time>
</trkpt>
<trkpt lat="45.8920510" lon="10.2875120">
	<ele>1731.00</ele>
	<time>2025-07-29T07:40:40.000Z</time>
</trkpt>
<trkpt lat="45.8920450" lon="10.2875110">
	<ele>1731.20</ele>
	<time>2025-07-29T07:40:41.000Z</time>
</trkpt>
<trkpt lat="45.8920370" lon="10.2875070">
	<ele>1731.40</ele>
	<time>2025-07-29T07:40:42.000Z</time>
</trkpt>
<trkpt lat="45.8920310" lon="10.2875060">
	<ele>1731.40</ele>
	<time>2025-07-29T07:40:43.000Z</time>
</trkpt>
<trkpt lat="45.8920280" lon="10.2875020">
	<ele>1731.60</ele>
	<time>2025-07-29T07:40:44.000Z</time>
</trkpt>
<trkpt lat="45.8920230" lon="10.2874990">
	<ele>1731.60</ele>
	<time>2025-07-29T07:40:45.000Z</time>
</trkpt>
<trkpt lat="45.8920200" lon="10.2874950">
	<ele>1731.80</ele>
	<time>2025-07-29T07:40:46.000Z</time>
</trkpt>
<trkpt lat="45.8920170" lon="10.2874890">
	<ele>1732.00</ele>
	<time>2025-07-29T07:40:47.000Z</time>
</trkpt>
<trkpt lat="45.8920140" lon="10.2874820">
	<ele>1732.20</ele>
	<time>2025-07-29T07:40:48.000Z</time>
</trkpt>
<trkpt lat="45.8920120" lon="10.2874770">
	<ele>1732.20</ele>
	<time>2025-07-29T07:40:49.000Z</time>
</trkpt>
<trkpt lat="45.8920090" lon="10.2874700">
	<ele>1732.40</ele>
	<time>2025-07-29T07:40:50.000Z</time>
</trkpt>
<trkpt lat="45.8920050" lon="10.2874660">
	<ele>1732.80</ele>
	<time>2025-07-29T07:40:51.000Z</time>
</trkpt>
<trkpt lat="45.8920010" lon="10.2874650">
	<ele>1732.80</ele>
	<time>2025-07-29T07:40:52.000Z</time>
</trkpt>
<trkpt lat="45.8919970" lon="10.2874620">
	<ele>1733.20</ele>
	<time>2025-07-29T07:40:53.000Z</time>
</trkpt>
<trkpt lat="45.8919940" lon="10.2874610">
	<ele>1733.40</ele>
	<time>2025-07-29T07:40:54.000Z</time>
</trkpt>
<trkpt lat="45.8919880" lon="10.2874600">
	<ele>1733.60</ele>
	<time>2025-07-29T07:40:55.000Z</time>
</trkpt>
<trkpt lat="45.8919850" lon="10.2874540">
	<ele>1733.80</ele>
	<time>2025-07-29T07:40:56.000Z</time>
</trkpt>
<trkpt lat="45.8919810" lon="10.2874450">
	<ele>1734.00</ele>
	<time>2025-07-29T07:40:57.000Z</time>
</trkpt>
<trkpt lat="45.8919780" lon="10.2874360">
	<ele>1734.20</ele>
	<time>2025-07-29T07:40:58.000Z</time>
</trkpt>
<trkpt lat="45.8919750" lon="10.2874300">
	<ele>1734.20</ele>
	<time>2025-07-29T07:40:59.000Z</time>
</trkpt>
<trkpt lat="45.8919730" lon="10.2874250">
	<ele>1734.60</ele>
	<time>2025-07-29T07:41:00.000Z</time>
</trkpt>
<trkpt lat="45.8919700" lon="10.2874220">
	<ele>1734.60</ele>
	<time>2025-07-29T07:41:01.000Z</time>
</trkpt>
<trkpt lat="45.8919670" lon="10.2874160">
	<ele>1734.80</ele>
	<time>2025-07-29T07:41:02.000Z</time>
</trkpt>
<trkpt lat="45.8919670" lon="10.2874120">
	<ele>1734.80</ele>
	<time>2025-07-29T07:41:03.000Z</time>
</trkpt>
<trkpt lat="45.8919670" lon="10.2874030">
	<ele>1735.00</ele>
	<time>2025-07-29T07:41:04.000Z</time>
</trkpt>
<trkpt lat="45.8919630" lon="10.2873950">
	<ele>1735.20</ele>
	<time>2025-07-29T07:41:05.000Z</time>
</trkpt>
<trkpt lat="45.8919580" lon="10.2873900">
	<ele>1735.40</ele>
	<time>2025-07-29T07:41:06.000Z</time>
</trkpt>
<trkpt lat="45.8919550" lon="10.2873890">
	<ele>1735.80</ele>
	<time>2025-07-29T07:41:07.000Z</time>
</trkpt>
<trkpt lat="45.8919530" lon="10.2873870">
	<ele>1736.00</ele>
	<time>2025-07-29T07:41:08.000Z</time>
</trkpt>
<trkpt lat="45.8919490" lon="10.2873860">
	<ele>1736.20</ele>
	<time>2025-07-29T07:41:09.000Z</time>
</trkpt>
<trkpt lat="45.8919450" lon="10.2873820">
	<ele>1736.20</ele>
	<time>2025-07-29T07:41:10.000Z</time>
</trkpt>
<trkpt lat="45.8919430" lon="10.2873790">
	<ele>1736.40</ele>
	<time>2025-07-29T07:41:11.000Z</time>
</trkpt>
<trkpt lat="45.8919410" lon="10.2873750">
	<ele>1736.60</ele>
	<time>2025-07-29T07:41:12.000Z</time>
</trkpt>
<trkpt lat="45.8919430" lon="10.2873690">
	<ele>1736.60</ele>
	<time>2025-07-29T07:41:13.000Z</time>
</trkpt>
<trkpt lat="45.8919440" lon="10.2873610">
	<ele>1736.80</ele>
	<time>2025-07-29T07:41:14.000Z</time>
</trkpt>
<trkpt lat="45.8919470" lon="10.2873530">
	<ele>1737.00</ele>
	<time>2025-07-29T07:41:15.000Z</time>
</trkpt>
<trkpt lat="45.8919470" lon="10.2873470">
	<ele>1737.40</ele>
	<time>2025-07-29T07:41:16.000Z</time>
</trkpt>
<trkpt lat="45.8919460" lon="10.2873410">
	<ele>1737.60</ele>
	<time>2025-07-29T07:41:17.000Z</time>
</trkpt>
<trkpt lat="45.8919430" lon="10.2873340">
	<ele>1737.60</ele>
	<time>2025-07-29T07:41:18.000Z</time>
</trkpt>
<trkpt lat="45.8919400" lon="10.2873260">
	<ele>1737.80</ele>
	<time>2025-07-29T07:41:19.000Z</time>
</trkpt>
<trkpt lat="45.8919360" lon="10.2873160">
	<ele>1738.00</ele>
	<time>2025-07-29T07:41:20.000Z</time>
</trkpt>
<trkpt lat="45.8919320" lon="10.2873100">
	<ele>1738.20</ele>
	<time>2025-07-29T07:41:21.000Z</time>
</trkpt>
<trkpt lat="45.8919270" lon="10.2873060">
	<ele>1738.40</ele>
	<time>2025-07-29T07:41:22.000Z</time>
</trkpt>
<trkpt lat="45.8919270" lon="10.2873040">
	<ele>1738.60</ele>
	<time>2025-07-29T07:41:23.000Z</time>
</trkpt>
<trkpt lat="45.8919230" lon="10.2872990">
	<ele>1738.60</ele>
	<time>2025-07-29T07:41:24.000Z</time>
</trkpt>
<trkpt lat="45.8919190" lon="10.2872940">
	<ele>1738.80</ele>
	<time>2025-07-29T07:41:25.000Z</time>
</trkpt>
<trkpt lat="45.8919160" lon="10.2872890">
	<ele>1739.00</ele>
	<time>2025-07-29T07:41:26.000Z</time>
</trkpt>
<trkpt lat="45.8919140" lon="10.2872840">
	<ele>1739.20</ele>
	<time>2025-07-29T07:41:27.000Z</time>
</trkpt>
<trkpt lat="45.8919120" lon="10.2872810">
	<ele>1739.20</ele>
	<time>2025-07-29T07:41:28.000Z</time>
</trkpt>
<trkpt lat="45.8919080" lon="10.2872770">
	<ele>1739.60</ele>
	<time>2025-07-29T07:41:29.000Z</time>
</trkpt>
<trkpt lat="45.8919010" lon="10.2872700">
	<ele>1739.80</ele>
	<time>2025-07-29T07:41:30.000Z</time>
</trkpt>
<trkpt lat="45.8918960" lon="10.2872630">
	<ele>1739.80</ele>
	<time>2025-07-29T07:41:31.000Z</time>
</trkpt>
<trkpt lat="45.8918910" lon="10.2872590">
	<ele>1740.00</ele>
	<time>2025-07-29T07:41:32.000Z</time>
</trkpt>
<trkpt lat="45.8918880" lon="10.2872560">
	<ele>1740.20</ele>
	<time>2025-07-29T07:41:33.000Z</time>
</trkpt>
<trkpt lat="45.8918870" lon="10.2872500">
	<ele>1740.40</ele>
	<time>2025-07-29T07:41:34.000Z</time>
</trkpt>
<trkpt lat="45.8918860" lon="10.2872410">
	<ele>1740.60</ele>
	<time>2025-07-29T07:41:35.000Z</time>
</trkpt>
<trkpt lat="45.8918840" lon="10.2872320">
	<ele>1740.80</ele>
	<time>2025-07-29T07:41:36.000Z</time>
</trkpt>
<trkpt lat="45.8918800" lon="10.2872190">
	<ele>1741.00</ele>
	<time>2025-07-29T07:41:37.000Z</time>
</trkpt>
<trkpt lat="45.8918780" lon="10.2872150">
	<ele>1741.20</ele>
	<time>2025-07-29T07:41:38.000Z</time>
</trkpt>
<trkpt lat="45.8918760" lon="10.2872120">
	<ele>1741.40</ele>
	<time>2025-07-29T07:41:39.000Z</time>
</trkpt>
<trkpt lat="45.8918720" lon="10.2872100">
	<ele>1741.60</ele>
	<time>2025-07-29T07:41:40.000Z</time>
</trkpt>
<trkpt lat="45.8918670" lon="10.2872060">
	<ele>1741.80</ele>
	<time>2025-07-29T07:41:41.000Z</time>
</trkpt>
<trkpt lat="45.8918590" lon="10.2871990">
	<ele>1741.80</ele>
	<time>2025-07-29T07:41:42.000Z</time>
</trkpt>
<trkpt lat="45.8918540" lon="10.2871940">
	<ele>1742.00</ele>
	<time>2025-07-29T07:41:43.000Z</time>
</trkpt>
<trkpt lat="45.8918510" lon="10.2871900">
	<ele>1742.20</ele>
	<time>2025-07-29T07:41:44.000Z</time>
</trkpt>
<trkpt lat="45.8918490" lon="10.2871860">
	<ele>1742.40</ele>
	<time>2025-07-29T07:41:45.000Z</time>
</trkpt>
<trkpt lat="45.8918410" lon="10.2871820">
	<ele>1742.40</ele>
	<time>2025-07-29T07:41:46.000Z</time>
</trkpt>
<trkpt lat="45.8918370" lon="10.2871770">
	<ele>1742.40</ele>
	<time>2025-07-29T07:41:47.000Z</time>
</trkpt>
<trkpt lat="45.8918340" lon="10.2871730">
	<ele>1742.80</ele>
	<time>2025-07-29T07:41:48.000Z</time>
</trkpt>
<trkpt lat="45.8918290" lon="10.2871690">
	<ele>1742.80</ele>
	<time>2025-07-29T07:41:49.000Z</time>
</trkpt>
<trkpt lat="45.8918230" lon="10.2871670">
	<ele>1743.00</ele>
	<time>2025-07-29T07:41:50.000Z</time>
</trkpt>
<trkpt lat="45.8918190" lon="10.2871630">
	<ele>1743.20</ele>
	<time>2025-07-29T07:41:51.000Z</time>
</trkpt>
<trkpt lat="45.8918160" lon="10.2871600">
	<ele>1743.40</ele>
	<time>2025-07-29T07:41:52.000Z</time>
</trkpt>
<trkpt lat="45.8918110" lon="10.2871580">
	<ele>1743.60</ele>
	<time>2025-07-29T07:41:53.000Z</time>
</trkpt>
<trkpt lat="45.8918080" lon="10.2871540">
	<ele>1743.80</ele>
	<time>2025-07-29T07:41:54.000Z</time>
</trkpt>
<trkpt lat="45.8918040" lon="10.2871470">
	<ele>1743.80</ele>
	<time>2025-07-29T07:41:55.000Z</time>
</trkpt>
<trkpt lat="45.8918020" lon="10.2871420">
	<ele>1744.00</ele>
	<time>2025-07-29T07:41:56.000Z</time>
</trkpt>
<trkpt lat="45.8918040" lon="10.2871330">
	<ele>1744.20</ele>
	<time>2025-07-29T07:41:57.000Z</time>
</trkpt>
<trkpt lat="45.8918020" lon="10.2871270">
	<ele>1744.40</ele>
	<time>2025-07-29T07:41:58.000Z</time>
</trkpt>
<trkpt lat="45.8918010" lon="10.2871210">
	<ele>1744.60</ele>
	<time>2025-07-29T07:41:59.000Z</time>
</trkpt>
<trkpt lat="45.8917990" lon="10.2871150">
	<ele>1744.60</ele>
	<time>2025-07-29T07:42:00.000Z</time>
</trkpt>
<trkpt lat="45.8917960" lon="10.2871070">
	<ele>1744.80</ele>
	<time>2025-07-29T07:42:01.000Z</time>
</trkpt>
<trkpt lat="45.8917950" lon="10.2870980">
	<ele>1745.00</ele>
	<time>2025-07-29T07:42:02.000Z</time>
</trkpt>
<trkpt lat="45.8917960" lon="10.2870890">
	<ele>1745.20</ele>
	<time>2025-07-29T07:42:03.000Z</time>
</trkpt>
<trkpt lat="45.8917920" lon="10.2870820">
	<ele>1745.40</ele>
	<time>2025-07-29T07:42:04.000Z</time>
</trkpt>
<trkpt lat="45.8917870" lon="10.2870740">
	<ele>1745.40</ele>
	<time>2025-07-29T07:42:05.000Z</time>
</trkpt>
<trkpt lat="45.8917850" lon="10.2870660">
	<ele>1745.60</ele>
	<time>2025-07-29T07:42:06.000Z</time>
</trkpt>
<trkpt lat="45.8917820" lon="10.2870590">
	<ele>1745.80</ele>
	<time>2025-07-29T07:42:07.000Z</time>
</trkpt>
<trkpt lat="45.8917800" lon="10.2870520">
	<ele>1745.80</ele>
	<time>2025-07-29T07:42:08.000Z</time>
</trkpt>
<trkpt lat="45.8917760" lon="10.2870430">
	<ele>1746.00</ele>
	<time>2025-07-29T07:42:09.000Z</time>
</trkpt>
<trkpt lat="45.8917740" lon="10.2870330">
	<ele>1746.00</ele>
	<time>2025-07-29T07:42:10.000Z</time>
</trkpt>
<trkpt lat="45.8917730" lon="10.2870270">
	<ele>1746.20</ele>
	<time>2025-07-29T07:42:11.000Z</time>
</trkpt>
<trkpt lat="45.8917710" lon="10.2870220">
	<ele>1746.40</ele>
	<time>2025-07-29T07:42:12.000Z</time>
</trkpt>
<trkpt lat="45.8917700" lon="10.2870170">
	<ele>1746.60</ele>
	<time>2025-07-29T07:42:13.000Z</time>
</trkpt>
<trkpt lat="45.8917700" lon="10.2870110">
	<ele>1746.60</ele>
	<time>2025-07-29T07:42:14.000Z</time>
</trkpt>
<trkpt lat="45.8917720" lon="10.2870070">
	<ele>1746.80</ele>
	<time>2025-07-29T07:42:15.000Z</time>
</trkpt>
<trkpt lat="45.8917700" lon="10.2870030">
	<ele>1747.00</ele>
	<time>2025-07-29T07:42:16.000Z</time>
</trkpt>
<trkpt lat="45.8917630" lon="10.2869980">
	<ele>1747.20</ele>
	<time>2025-07-29T07:42:17.000Z</time>
</trkpt>
<trkpt lat="45.8917570" lon="10.2869920">
	<ele>1747.40</ele>
	<time>2025-07-29T07:42:18.000Z</time>
</trkpt>
<trkpt lat="45.8917540" lon="10.2869850">
	<ele>1747.40</ele>
	<time>2025-07-29T07:42:19.000Z</time>
</trkpt>
<trkpt lat="45.8917510" lon="10.2869800">
	<ele>1747.60</ele>
	<time>2025-07-29T07:42:20.000Z</time>
</trkpt>
<trkpt lat="45.8917480" lon="10.2869770">
	<ele>1747.80</ele>
	<time>2025-07-29T07:42:21.000Z</time>
</trkpt>
<trkpt lat="45.8917450" lon="10.2869750">
	<ele>1748.00</ele>
	<time>2025-07-29T07:42:22.000Z</time>
</trkpt>
<trkpt lat="45.8917430" lon="10.2869720">
	<ele>1748.20</ele>
	<time>2025-07-29T07:42:23.000Z</time>
</trkpt>
<trkpt lat="45.8917420" lon="10.2869660">
	<ele>1748.40</ele>
	<time>2025-07-29T07:42:24.000Z</time>
</trkpt>
<trkpt lat="45.8917410" lon="10.2869620">
	<ele>1748.40</ele>
	<time>2025-07-29T07:42:25.000Z</time>
</trkpt>
<trkpt lat="45.8917400" lon="10.2869590">
	<ele>1748.60</ele>
	<time>2025-07-29T07:42:26.000Z</time>
</trkpt>
<trkpt lat="45.8917370" lon="10.2869550">
	<ele>1748.80</ele>
	<time>2025-07-29T07:42:27.000Z</time>
</trkpt>
<trkpt lat="45.8917320" lon="10.2869510">
	<ele>1749.00</ele>
	<time>2025-07-29T07:42:28.000Z</time>
</trkpt>
<trkpt lat="45.8917300" lon="10.2869480">
	<ele>1749.20</ele>
	<time>2025-07-29T07:42:29.000Z</time>
</trkpt>
<trkpt lat="45.8917250" lon="10.2869460">
	<ele>1749.40</ele>
	<time>2025-07-29T07:42:30.000Z</time>
</trkpt>
<trkpt lat="45.8917160" lon="10.2869430">
	<ele>1749.40</ele>
	<time>2025-07-29T07:42:31.000Z</time>
</trkpt>
<trkpt lat="45.8917120" lon="10.2869400">
	<ele>1749.60</ele>
	<time>2025-07-29T07:42:32.000Z</time>
</trkpt>
<trkpt lat="45.8917090" lon="10.2869370">
	<ele>1749.80</ele>
	<time>2025-07-29T07:42:33.000Z</time>
</trkpt>
<trkpt lat="45.8917070" lon="10.2869340">
	<ele>1750.00</ele>
	<time>2025-07-29T07:42:34.000Z</time>
</trkpt>
<trkpt lat="45.8917070" lon="10.2869280">
	<ele>1750.20</ele>
	<time>2025-07-29T07:42:35.000Z</time>
</trkpt>
<trkpt lat="45.8917090" lon="10.2869220">
	<ele>1750.40</ele>
	<time>2025-07-29T07:42:36.000Z</time>
</trkpt>
<trkpt lat="45.8917090" lon="10.2869150">
	<ele>1750.40</ele>
	<time>2025-07-29T07:42:37.000Z</time>
</trkpt>
<trkpt lat="45.8917080" lon="10.2869050">
	<ele>1750.60</ele>
	<time>2025-07-29T07:42:38.000Z</time>
</trkpt>
<trkpt lat="45.8917070" lon="10.2868960">
	<ele>1750.60</ele>
	<time>2025-07-29T07:42:39.000Z</time>
</trkpt>
<trkpt lat="45.8917050" lon="10.2868890">
	<ele>1750.60</ele>
	<time>2025-07-29T07:42:40.000Z</time>
</trkpt>
<trkpt lat="45.8917030" lon="10.2868830">
	<ele>1750.80</ele>
	<time>2025-07-29T07:42:41.000Z</time>
</trkpt>
<trkpt lat="45.8916980" lon="10.2868750">
	<ele>1750.80</ele>
	<time>2025-07-29T07:42:42.000Z</time>
</trkpt>
<trkpt lat="45.8916930" lon="10.2868660">
	<ele>1751.00</ele>
	<time>2025-07-29T07:42:43.000Z</time>
</trkpt>
<trkpt lat="45.8916900" lon="10.2868570">
	<ele>1751.20</ele>
	<time>2025-07-29T07:42:44.000Z</time>
</trkpt>
<trkpt lat="45.8916880" lon="10.2868510">
	<ele>1751.20</ele>
	<time>2025-07-29T07:42:45.000Z</time>
</trkpt>
<trkpt lat="45.8916860" lon="10.2868460">
	<ele>1751.40</ele>
	<time>2025-07-29T07:42:46.000Z</time>
</trkpt>
<trkpt lat="45.8916860" lon="10.2868400">
	<ele>1751.60</ele>
	<time>2025-07-29T07:42:47.000Z</time>
</trkpt>
<trkpt lat="45.8916840" lon="10.2868340">
	<ele>1751.80</ele>
	<time>2025-07-29T07:42:48.000Z</time>
</trkpt>
<trkpt lat="45.8916810" lon="10.2868240">
	<ele>1752.00</ele>
	<time>2025-07-29T07:42:49.000Z</time>
</trkpt>
<trkpt lat="45.8916780" lon="10.2868180">
	<ele>1752.20</ele>
	<time>2025-07-29T07:42:50.000Z</time>
</trkpt>
<trkpt lat="45.8916790" lon="10.2868140">
	<ele>1752.40</ele>
	<time>2025-07-29T07:42:51.000Z</time>
</trkpt>
<trkpt lat="45.8916780" lon="10.2868110">
	<ele>1752.40</ele>
	<time>2025-07-29T07:42:52.000Z</time>
</trkpt>
<trkpt lat="45.8916760" lon="10.2868110">
	<ele>1752.60</ele>
	<time>2025-07-29T07:42:53.000Z</time>
</trkpt>
<trkpt lat="45.8916750" lon="10.2868080">
	<ele>1753.00</ele>
	<time>2025-07-29T07:42:54.000Z</time>
</trkpt>
<trkpt lat="45.8916740" lon="10.2868020">
	<ele>1753.20</ele>
	<time>2025-07-29T07:42:55.000Z</time>
</trkpt>
<trkpt lat="45.8916720" lon="10.2867980">
	<ele>1753.20</ele>
	<time>2025-07-29T07:42:56.000Z</time>
</trkpt>
<trkpt lat="45.8916710" lon="10.2867920">
	<ele>1753.40</ele>
	<time>2025-07-29T07:42:57.000Z</time>
</trkpt>
<trkpt lat="45.8916620" lon="10.2867850">
	<ele>1753.40</ele>
	<time>2025-07-29T07:42:58.000Z</time>
</trkpt>
<trkpt lat="45.8916520" lon="10.2867810">
	<ele>1753.60</ele>
	<time>2025-07-29T07:42:59.000Z</time>
</trkpt>
<trkpt lat="45.8916480" lon="10.2867790">
	<ele>1754.00</ele>
	<time>2025-07-29T07:43:00.000Z</time>
</trkpt>
<trkpt lat="45.8916450" lon="10.2867760">
	<ele>1754.00</ele>
	<time>2025-07-29T07:43:01.000Z</time>
</trkpt>
<trkpt lat="45.8916420" lon="10.2867730">
	<ele>1754.20</ele>
	<time>2025-07-29T07:43:02.000Z</time>
</trkpt>
<trkpt lat="45.8916370" lon="10.2867710">
	<ele>1754.40</ele>
	<time>2025-07-29T07:43:03.000Z</time>
</trkpt>
<trkpt lat="45.8916350" lon="10.2867690">
	<ele>1754.60</ele>
	<time>2025-07-29T07:43:04.000Z</time>
</trkpt>
<trkpt lat="45.8916330" lon="10.2867670">
	<ele>1754.80</ele>
	<time>2025-07-29T07:43:05.000Z</time>
</trkpt>
<trkpt lat="45.8916230" lon="10.2867610">
	<ele>1755.00</ele>
	<time>2025-07-29T07:43:06.000Z</time>
</trkpt>
<trkpt lat="45.8916160" lon="10.2867560">
	<ele>1755.20</ele>
	<time>2025-07-29T07:43:07.000Z</time>
</trkpt>
<trkpt lat="45.8916120" lon="10.2867560">
	<ele>1755.20</ele>
	<time>2025-07-29T07:43:08.000Z</time>
</trkpt>
<trkpt lat="45.8916070" lon="10.2867570">
	<ele>1755.40</ele>
	<time>2025-07-29T07:43:09.000Z</time>
</trkpt>
<trkpt lat="45.8915980" lon="10.2867560">
	<ele>1755.40</ele>
	<time>2025-07-29T07:43:10.000Z</time>
</trkpt>
<trkpt lat="45.8915900" lon="10.2867510">
	<ele>1755.60</ele>
	<time>2025-07-29T07:43:11.000Z</time>
</trkpt>
<trkpt lat="45.8915880" lon="10.2867480">
	<ele>1755.80</ele>
	<time>2025-07-29T07:43:12.000Z</time>
</trkpt>
<trkpt lat="45.8915870" lon="10.2867540">
	<ele>1756.00</ele>
	<time>2025-07-29T07:43:13.000Z</time>
</trkpt>
<trkpt lat="45.8915890" lon="10.2867530">
	<ele>1756.20</ele>
	<time>2025-07-29T07:43:14.000Z</time>
</trkpt>
<trkpt lat="45.8915850" lon="10.2867560">
	<ele>1756.40</ele>
	<time>2025-07-29T07:43:15.000Z</time>
</trkpt>
<trkpt lat="45.8915790" lon="10.2867610">
	<ele>1756.60</ele>
	<time>2025-07-29T07:43:16.000Z</time>
</trkpt>
<trkpt lat="45.8915770" lon="10.2867630">
	<ele>1756.80</ele>
	<time>2025-07-29T07:43:17.000Z</time>
</trkpt>
<trkpt lat="45.8915740" lon="10.2867640">
	<ele>1757.20</ele>
	<time>2025-07-29T07:43:18.000Z</time>
</trkpt>
<trkpt lat="45.8915670" lon="10.2867640">
	<ele>1757.40</ele>
	<time>2025-07-29T07:43:19.000Z</time>
</trkpt>
<trkpt lat="45.8915610" lon="10.2867670">
	<ele>1757.40</ele>
	<time>2025-07-29T07:43:20.000Z</time>
</trkpt>
<trkpt lat="45.8915600" lon="10.2867700">
	<ele>1757.60</ele>
	<time>2025-07-29T07:43:21.000Z</time>
</trkpt>
<trkpt lat="45.8915520" lon="10.2867620">
	<ele>1757.60</ele>
	<time>2025-07-29T07:43:22.000Z</time>
</trkpt>
<trkpt lat="45.8915490" lon="10.2867590">
	<ele>1757.80</ele>
	<time>2025-07-29T07:43:23.000Z</time>
</trkpt>
<trkpt lat="45.8915460" lon="10.2867550">
	<ele>1758.00</ele>
	<time>2025-07-29T07:43:24.000Z</time>
</trkpt>
<trkpt lat="45.8915440" lon="10.2867500">
	<ele>1758.00</ele>
	<time>2025-07-29T07:43:25.000Z</time>
</trkpt>
<trkpt lat="45.8915400" lon="10.2867440">
	<ele>1758.00</ele>
	<time>2025-07-29T07:43:26.000Z</time>
</trkpt>
<trkpt lat="45.8915380" lon="10.2867380">
	<ele>1758.20</ele>
	<time>2025-07-29T07:43:27.000Z</time>
</trkpt>
<trkpt lat="45.8915320" lon="10.2867320">
	<ele>1758.20</ele>
	<time>2025-07-29T07:43:28.000Z</time>
</trkpt>
<trkpt lat="45.8915250" lon="10.2867260">
	<ele>1758.20</ele>
	<time>2025-07-29T07:43:29.000Z</time>
</trkpt>
<trkpt lat="45.8915190" lon="10.2867200">
	<ele>1758.40</ele>
	<time>2025-07-29T07:43:30.000Z</time>
</trkpt>
<trkpt lat="45.8915150" lon="10.2867180">
	<ele>1758.60</ele>
	<time>2025-07-29T07:43:31.000Z</time>
</trkpt>
<trkpt lat="45.8915110" lon="10.2867160">
	<ele>1758.80</ele>
	<time>2025-07-29T07:43:32.000Z</time>
</trkpt>
<trkpt lat="45.8915070" lon="10.2867150">
	<ele>1758.80</ele>
	<time>2025-07-29T07:43:33.000Z</time>
</trkpt>
<trkpt lat="45.8915040" lon="10.2867100">
	<ele>1759.00</ele>
	<time>2025-07-29T07:43:34.000Z</time>
</trkpt>
<trkpt lat="45.8914990" lon="10.2867040">
	<ele>1759.00</ele>
	<time>2025-07-29T07:43:35.000Z</time>
</trkpt>
<trkpt lat="45.8914950" lon="10.2867030">
	<ele>1759.00</ele>
	<time>2025-07-29T07:43:36.000Z</time>
</trkpt>
<trkpt lat="45.8914940" lon="10.2866990">
	<ele>1759.20</ele>
	<time>2025-07-29T07:43:37.000Z</time>
</trkpt>
<trkpt lat="45.8914920" lon="10.2866940">
	<ele>1759.40</ele>
	<time>2025-07-29T07:43:38.000Z</time>
</trkpt>
<trkpt lat="45.8914880" lon="10.2866890">
	<ele>1759.60</ele>
	<time>2025-07-29T07:43:39.000Z</time>
</trkpt>
<trkpt lat="45.8914840" lon="10.2866850">
	<ele>1759.80</ele>
	<time>2025-07-29T07:43:40.000Z</time>
</trkpt>
<trkpt lat="45.8914820" lon="10.2866830">
	<ele>1759.80</ele>
	<time>2025-07-29T07:43:41.000Z</time>
</trkpt>
<trkpt lat="45.8914800" lon="10.2866800">
	<ele>1760.00</ele>
	<time>2025-07-29T07:43:42.000Z</time>
</trkpt>
<trkpt lat="45.8914770" lon="10.2866740">
	<ele>1760.20</ele>
	<time>2025-07-29T07:43:43.000Z</time>
</trkpt>
<trkpt lat="45.8914700" lon="10.2866700">
	<ele>1760.40</ele>
	<time>2025-07-29T07:43:44.000Z</time>
</trkpt>
<trkpt lat="45.8914680" lon="10.2866640">
	<ele>1760.40</ele>
	<time>2025-07-29T07:43:45.000Z</time>
</trkpt>
<trkpt lat="45.8914610" lon="10.2866590">
	<ele>1760.60</ele>
	<time>2025-07-29T07:43:46.000Z</time>
</trkpt>
<trkpt lat="45.8914530" lon="10.2866550">
	<ele>1760.80</ele>
	<time>2025-07-29T07:43:47.000Z</time>
</trkpt>
<trkpt lat="45.8914490" lon="10.2866510">
	<ele>1761.00</ele>
	<time>2025-07-29T07:43:48.000Z</time>
</trkpt>
<trkpt lat="45.8914440" lon="10.2866490">
	<ele>1761.20</ele>
	<time>2025-07-29T07:43:49.000Z</time>
</trkpt>
<trkpt lat="45.8914400" lon="10.2866440">
	<ele>1761.40</ele>
	<time>2025-07-29T07:43:50.000Z</time>
</trkpt>
<trkpt lat="45.8914370" lon="10.2866380">
	<ele>1761.60</ele>
	<time>2025-07-29T07:43:51.000Z</time>
</trkpt>
<trkpt lat="45.8914340" lon="10.2866340">
	<ele>1761.80</ele>
	<time>2025-07-29T07:43:52.000Z</time>
</trkpt>
<trkpt lat="45.8914310" lon="10.2866270">
	<ele>1762.00</ele>
	<time>2025-07-29T07:43:53.000Z</time>
</trkpt>
<trkpt lat="45.8914270" lon="10.2866220">
	<ele>1762.00</ele>
	<time>2025-07-29T07:43:54.000Z</time>
</trkpt>
<trkpt lat="45.8914210" lon="10.2866200">
	<ele>1762.20</ele>
	<time>2025-07-29T07:43:55.000Z</time>
</trkpt>
<trkpt lat="45.8914120" lon="10.2866180">
	<ele>1762.20</ele>
	<time>2025-07-29T07:43:56.000Z</time>
</trkpt>
<trkpt lat="45.8914070" lon="10.2866150">
	<ele>1762.40</ele>
	<time>2025-07-29T07:43:57.000Z</time>
</trkpt>
<trkpt lat="45.8914020" lon="10.2866130">
	<ele>1762.60</ele>
	<time>2025-07-29T07:43:58.000Z</time>
</trkpt>
<trkpt lat="45.8914010" lon="10.2866110">
	<ele>1762.80</ele>
	<time>2025-07-29T07:43:59.000Z</time>
</trkpt>
<trkpt lat="45.8914000" lon="10.2866060">
	<ele>1763.00</ele>
	<time>2025-07-29T07:44:00.000Z</time>
</trkpt>
<trkpt lat="45.8913990" lon="10.2865990">
	<ele>1763.20</ele>
	<time>2025-07-29T07:44:01.000Z</time>
</trkpt>
<trkpt lat="45.8913950" lon="10.2865880">
	<ele>1763.40</ele>
	<time>2025-07-29T07:44:02.000Z</time>
</trkpt>
<trkpt lat="45.8913910" lon="10.2865760">
	<ele>1763.60</ele>
	<time>2025-07-29T07:44:03.000Z</time>
</trkpt>
<trkpt lat="45.8913870" lon="10.2865710">
	<ele>1763.80</ele>
	<time>2025-07-29T07:44:04.000Z</time>
</trkpt>
<trkpt lat="45.8913830" lon="10.2865690">
	<ele>1764.00</ele>
	<time>2025-07-29T07:44:05.000Z</time>
</trkpt>
<trkpt lat="45.8913810" lon="10.2865670">
	<ele>1764.00</ele>
	<time>2025-07-29T07:44:06.000Z</time>
</trkpt>
<trkpt lat="45.8913800" lon="10.2865700">
	<ele>1764.20</ele>
	<time>2025-07-29T07:44:07.000Z</time>
</trkpt>
<trkpt lat="45.8913740" lon="10.2865720">
	<ele>1764.40</ele>
	<time>2025-07-29T07:44:08.000Z</time>
</trkpt>
<trkpt lat="45.8913650" lon="10.2865730">
	<ele>1764.60</ele>
	<time>2025-07-29T07:44:09.000Z</time>
</trkpt>
<trkpt lat="45.8913580" lon="10.2865670">
	<ele>1764.60</ele>
	<time>2025-07-29T07:44:10.000Z</time>
</trkpt>
<trkpt lat="45.8913550" lon="10.2865680">
	<ele>1764.80</ele>
	<time>2025-07-29T07:44:11.000Z</time>
</trkpt>
<trkpt lat="45.8913510" lon="10.2865690">
	<ele>1765.20</ele>
	<time>2025-07-29T07:44:12.000Z</time>
</trkpt>
<trkpt lat="45.8913470" lon="10.2865680">
	<ele>1765.20</ele>
	<time>2025-07-29T07:44:13.000Z</time>
</trkpt>
<trkpt lat="45.8913440" lon="10.2865680">
	<ele>1765.40</ele>
	<time>2025-07-29T07:44:14.000Z</time>
</trkpt>
<trkpt lat="45.8913370" lon="10.2865700">
	<ele>1765.80</ele>
	<time>2025-07-29T07:44:15.000Z</time>
</trkpt>
<trkpt lat="45.8913290" lon="10.2865700">
	<ele>1766.00</ele>
	<time>2025-07-29T07:44:16.000Z</time>
</trkpt>
<trkpt lat="45.8913240" lon="10.2865710">
	<ele>1766.00</ele>
	<time>2025-07-29T07:44:17.000Z</time>
</trkpt>
<trkpt lat="45.8913200" lon="10.2865720">
	<ele>1766.20</ele>
	<time>2025-07-29T07:44:18.000Z</time>
</trkpt>
<trkpt lat="45.8913130" lon="10.2865720">
	<ele>1766.40</ele>
	<time>2025-07-29T07:44:19.000Z</time>
</trkpt>
<trkpt lat="45.8913070" lon="10.2865700">
	<ele>1766.40</ele>
	<time>2025-07-29T07:44:20.000Z</time>
</trkpt>
<trkpt lat="45.8913010" lon="10.2865680">
	<ele>1766.80</ele>
	<time>2025-07-29T07:44:21.000Z</time>
</trkpt>
<trkpt lat="45.8912990" lon="10.2865610">
	<ele>1766.80</ele>
	<time>2025-07-29T07:44:22.000Z</time>
</trkpt>
<trkpt lat="45.8912970" lon="10.2865570">
	<ele>1767.00</ele>
	<time>2025-07-29T07:44:23.000Z</time>
</trkpt>
<trkpt lat="45.8912940" lon="10.2865530">
	<ele>1767.00</ele>
	<time>2025-07-29T07:44:24.000Z</time>
</trkpt>
<trkpt lat="45.8912910" lon="10.2865460">
	<ele>1767.40</ele>
	<time>2025-07-29T07:44:25.000Z</time>
</trkpt>
<trkpt lat="45.8912870" lon="10.2865430">
	<ele>1767.60</ele>
	<time>2025-07-29T07:44:26.000Z</time>
</trkpt>
<trkpt lat="45.8912800" lon="10.2865410">
	<ele>1767.60</ele>
	<time>2025-07-29T07:44:27.000Z</time>
</trkpt>
<trkpt lat="45.8912720" lon="10.2865360">
	<ele>1767.80</ele>
	<time>2025-07-29T07:44:28.000Z</time>
</trkpt>
<trkpt lat="45.8912620" lon="10.2865290">
	<ele>1767.80</ele>
	<time>2025-07-29T07:44:29.000Z</time>
</trkpt>
<trkpt lat="45.8912530" lon="10.2865240">
	<ele>1767.80</ele>
	<time>2025-07-29T07:44:30.000Z</time>
</trkpt>
<trkpt lat="45.8912470" lon="10.2865220">
	<ele>1768.00</ele>
	<time>2025-07-29T07:44:31.000Z</time>
</trkpt>
<trkpt lat="45.8912450" lon="10.2865220">
	<ele>1768.00</ele>
	<time>2025-07-29T07:44:32.000Z</time>
</trkpt>
<trkpt lat="45.8912440" lon="10.2865200">
	<ele>1768.20</ele>
	<time>2025-07-29T07:44:33.000Z</time>
</trkpt>
<trkpt lat="45.8912420" lon="10.2865190">
	<ele>1768.40</ele>
	<time>2025-07-29T07:44:34.000Z</time>
</trkpt>
<trkpt lat="45.8912340" lon="10.2865120">
	<ele>1768.60</ele>
	<time>2025-07-29T07:44:35.000Z</time>
</trkpt>
<trkpt lat="45.8912280" lon="10.2865040">
	<ele>1768.60</ele>
	<time>2025-07-29T07:44:36.000Z</time>
</trkpt>
<trkpt lat="45.8912270" lon="10.2864920">
	<ele>1768.60</ele>
	<time>2025-07-29T07:44:37.000Z</time>
</trkpt>
<trkpt lat="45.8912240" lon="10.2864850">
	<ele>1768.80</ele>
	<time>2025-07-29T07:44:38.000Z</time>
</trkpt>
<trkpt lat="45.8912230" lon="10.2864890">
	<ele>1769.00</ele>
	<time>2025-07-29T07:44:39.000Z</time>
</trkpt>
<trkpt lat="45.8912080" lon="10.2864930">
	<ele>1769.00</ele>
	<time>2025-07-29T07:44:40.000Z</time>
</trkpt>
<trkpt lat="45.8911880" lon="10.2864780">
	<ele>1769.20</ele>
	<time>2025-07-29T07:44:41.000Z</time>
</trkpt>
<trkpt lat="45.8911740" lon="10.2864680">
	<ele>1769.20</ele>
	<time>2025-07-29T07:44:42.000Z</time>
</trkpt>
<trkpt lat="45.8911680" lon="10.2864690">
	<ele>1769.40</ele>
	<time>2025-07-29T07:44:43.000Z</time>
</trkpt>
<trkpt lat="45.8911650" lon="10.2864710">
	<ele>1769.40</ele>
	<time>2025-07-29T07:44:44.000Z</time>
</trkpt>
<trkpt lat="45.8911630" lon="10.2864730">
	<ele>1769.80</ele>
	<time>2025-07-29T07:44:45.000Z</time>
</trkpt>
<trkpt lat="45.8911580" lon="10.2864770">
	<ele>1769.80</ele>
	<time>2025-07-29T07:44:46.000Z</time>
</trkpt>
<trkpt lat="45.8911550" lon="10.2864870">
	<ele>1770.00</ele>
	<time>2025-07-29T07:44:47.000Z</time>
</trkpt>
<trkpt lat="45.8911550" lon="10.2864880">
	<ele>1770.20</ele>
	<time>2025-07-29T07:44:48.000Z</time>
</trkpt>
<trkpt lat="45.8911550" lon="10.2864890">
	<ele>1770.20</ele>
	<time>2025-07-29T07:44:49.000Z</time>
</trkpt>
<trkpt lat="45.8911540" lon="10.2864880">
	<ele>1770.40</ele>
	<time>2025-07-29T07:44:50.000Z</time>
</trkpt>
<trkpt lat="45.8911530" lon="10.2864870">
	<ele>1770.60</ele>
	<time>2025-07-29T07:44:51.000Z</time>
</trkpt>
<trkpt lat="45.8911510" lon="10.2864860">
	<ele>1770.80</ele>
	<time>2025-07-29T07:44:52.000Z</time>
</trkpt>
<trkpt lat="45.8911500" lon="10.2864860">
	<ele>1770.80</ele>
	<time>2025-07-29T07:44:53.000Z</time>
</trkpt>
<trkpt lat="45.8911480" lon="10.2864860">
	<ele>1770.80</ele>
	<time>2025-07-29T07:44:54.000Z</time>
</trkpt>
<trkpt lat="45.8911470" lon="10.2864840">
	<ele>1771.00</ele>
	<time>2025-07-29T07:44:55.000Z</time>
</trkpt>
<trkpt lat="45.8911480" lon="10.2864850">
	<ele>1770.80</ele>
	<time>2025-07-29T07:44:56.000Z</time>
</trkpt>
<trkpt lat="45.8911480" lon="10.2864840">
	<ele>1770.60</ele>
	<time>2025-07-29T07:44:57.000Z</time>
</trkpt>
<trkpt lat="45.8911490" lon="10.2864820">
	<ele>1770.60</ele>
	<time>2025-07-29T07:44:58.000Z</time>
</trkpt>
<trkpt lat="45.8911480" lon="10.2864820">
	<ele>1770.60</ele>
	<time>2025-07-29T07:44:59.000Z</time>
</trkpt>
<trkpt lat="45.8911460" lon="10.2864820">
	<ele>1770.80</ele>
	<time>2025-07-29T07:45:00.000Z</time>
</trkpt>
<trkpt lat="45.8911450" lon="10.2864820">
	<ele>1770.80</ele>
	<time>2025-07-29T07:45:01.000Z</time>
</trkpt>
<trkpt lat="45.8911450" lon="10.2864820">
	<ele>1771.00</ele>
	<time>2025-07-29T07:45:02.000Z</time>
</trkpt>
<trkpt lat="45.8911450" lon="10.2864820">
	<ele>1771.20</ele>
	<time>2025-07-29T07:45:03.000Z</time>
</trkpt>
<trkpt lat="45.8911450" lon="10.2864820">
	<ele>1771.20</ele>
	<time>2025-07-29T07:45:04.000Z</time>
</trkpt>
<trkpt lat="45.8911450" lon="10.2864820">
	<ele>1771.20</ele>
	<time>2025-07-29T07:45:05.000Z</time>
</trkpt>
<trkpt lat="45.8911450" lon="10.2864820">
	<ele>1771.20</ele>
	<time>2025-07-29T07:45:06.000Z</time>
</trkpt>
<trkpt lat="45.8911450" lon="10.2864820">
	<ele>1771.20</ele>
	<time>2025-07-29T07:45:07.000Z</time>
</trkpt>
<trkpt lat="45.8911450" lon="10.2864820">
	<ele>1771.20</ele>
	<time>2025-07-29T07:45:08.000Z</time>
</trkpt>
<trkpt lat="45.8911450" lon="10.2864820">
	<ele>1771.00</ele>
	<time>2025-07-29T07:45:09.000Z</time>
</trkpt>
<trkpt lat="45.8911450" lon="10.2864820">
	<ele>1771.20</ele>
	<time>2025-07-29T07:45:10.000Z</time>
</trkpt>
<trkpt lat="45.8911450" lon="10.2864820">
	<ele>1771.20</ele>
	<time>2025-07-29T07:45:11.000Z</time>
</trkpt>
<trkpt lat="45.8911450" lon="10.2864820">
	<ele>1771.20</ele>
	<time>2025-07-29T07:45:12.000Z</time>
</trkpt>
<trkpt lat="45.8911450" lon="10.2864820">
	<ele>1771.20</ele>
	<time>2025-07-29T07:45:13.000Z</time>
</trkpt>
<trkpt lat="45.8911450" lon="10.2864820">
	<ele>1771.40</ele>
	<time>2025-07-29T07:45:14.000Z</time>
</trkpt>
<trkpt lat="45.8911450" lon="10.2864820">
	<ele>1771.40</ele>
	<time>2025-07-29T07:45:15.000Z</time>
</trkpt>
<trkpt lat="45.8911450" lon="10.2864820">
	<ele>1771.40</ele>
	<time>2025-07-29T07:45:16.000Z</time>
</trkpt>
<trkpt lat="45.8911450" lon="10.2864820">
	<ele>1771.60</ele>
	<time>2025-07-29T07:45:17.000Z</time>
</trkpt>
<trkpt lat="45.8911450" lon="10.2864820">
	<ele>1771.80</ele>
	<time>2025-07-29T07:45:18.000Z</time>
</trkpt>
<trkpt lat="45.8911440" lon="10.2864820">
	<ele>1772.00</ele>
	<time>2025-07-29T07:45:19.000Z</time>
</trkpt>
<trkpt lat="45.8911440" lon="10.2864810">
	<ele>1772.20</ele>
	<time>2025-07-29T07:45:20.000Z</time>
</trkpt>
<trkpt lat="45.8911400" lon="10.2864770">
	<ele>1772.20</ele>
	<time>2025-07-29T07:45:21.000Z</time>
</trkpt>
<trkpt lat="45.8911370" lon="10.2864750">
	<ele>1772.40</ele>
	<time>2025-07-29T07:45:22.000Z</time>
</trkpt>
<trkpt lat="45.8911310" lon="10.2864720">
	<ele>1772.80</ele>
	<time>2025-07-29T07:45:23.000Z</time>
</trkpt>
<trkpt lat="45.8911260" lon="10.2864710">
	<ele>1773.00</ele>
	<time>2025-07-29T07:45:24.000Z</time>
</trkpt>
<trkpt lat="45.8911220" lon="10.2864640">
	<ele>1773.20</ele>
	<time>2025-07-29T07:45:25.000Z</time>
</trkpt>
<trkpt lat="45.8911200" lon="10.2864620">
	<ele>1773.40</ele>
	<time>2025-07-29T07:45:26.000Z</time>
</trkpt>
<trkpt lat="45.8911180" lon="10.2864610">
	<ele>1773.60</ele>
	<time>2025-07-29T07:45:27.000Z</time>
</trkpt>
<trkpt lat="45.8911170" lon="10.2864590">
	<ele>1773.80</ele>
	<time>2025-07-29T07:45:28.000Z</time>
</trkpt>
<trkpt lat="45.8911160" lon="10.2864560">
	<ele>1774.20</ele>
	<time>2025-07-29T07:45:29.000Z</time>
</trkpt>
<trkpt lat="45.8911110" lon="10.2864530">
	<ele>1774.40</ele>
	<time>2025-07-29T07:45:30.000Z</time>
</trkpt>
<trkpt lat="45.8911070" lon="10.2864470">
	<ele>1774.60</ele>
	<time>2025-07-29T07:45:31.000Z</time>
</trkpt>
<trkpt lat="45.8911020" lon="10.2864390">
	<ele>1774.60</ele>
	<time>2025-07-29T07:45:32.000Z</time>
</trkpt>
<trkpt lat="45.8910950" lon="10.2864320">
	<ele>1774.80</ele>
	<time>2025-07-29T07:45:33.000Z</time>
</trkpt>
<trkpt lat="45.8910920" lon="10.2864280">
	<ele>1774.80</ele>
	<time>2025-07-29T07:45:34.000Z</time>
</trkpt>
<trkpt lat="45.8910900" lon="10.2864190">
	<ele>1775.00</ele>
	<time>2025-07-29T07:45:35.000Z</time>
</trkpt>
<trkpt lat="45.8910870" lon="10.2864090">
	<ele>1775.00</ele>
	<time>2025-07-29T07:45:36.000Z</time>
</trkpt>
<trkpt lat="45.8910850" lon="10.2863980">
	<ele>1775.00</ele>
	<time>2025-07-29T07:45:37.000Z</time>
</trkpt>
<trkpt lat="45.8910850" lon="10.2863920">
	<ele>1775.20</ele>
	<time>2025-07-29T07:45:38.000Z</time>
</trkpt>
<trkpt lat="45.8910830" lon="10.2863810">
	<ele>1775.40</ele>
	<time>2025-07-29T07:45:39.000Z</time>
</trkpt>
<trkpt lat="45.8910780" lon="10.2863700">
	<ele>1775.80</ele>
	<time>2025-07-29T07:45:40.000Z</time>
</trkpt>
<trkpt lat="45.8910670" lon="10.2863520">
	<ele>1776.00</ele>
	<time>2025-07-29T07:45:41.000Z</time>
</trkpt>
<trkpt lat="45.8910590" lon="10.2863290">
	<ele>1776.20</ele>
	<time>2025-07-29T07:45:42.000Z</time>
</trkpt>
<trkpt lat="45.8910510" lon="10.2863070">
	<ele>1776.20</ele>
	<time>2025-07-29T07:45:43.000Z</time>
</trkpt>
<trkpt lat="45.8910460" lon="10.2862850">
	<ele>1776.40</ele>
	<time>2025-07-29T07:45:44.000Z</time>
</trkpt>
<trkpt lat="45.8910400" lon="10.2862630">
	<ele>1776.40</ele>
	<time>2025-07-29T07:45:45.000Z</time>
</trkpt>
<trkpt lat="45.8910350" lon="10.2862390">
	<ele>1776.60</ele>
	<time>2025-07-29T07:45:46.000Z</time>
</trkpt>
<trkpt lat="45.8910290" lon="10.2862180">
	<ele>1776.60</ele>
	<time>2025-07-29T07:45:47.000Z</time>
</trkpt>
<trkpt lat="45.8910250" lon="10.2861950">
	<ele>1776.80</ele>
	<time>2025-07-29T07:45:48.000Z</time>
</trkpt>
<trkpt lat="45.8910190" lon="10.2861750">
	<ele>1777.00</ele>
	<time>2025-07-29T07:45:49.000Z</time>
</trkpt>
<trkpt lat="45.8910160" lon="10.2861680">
	<ele>1777.00</ele>
	<time>2025-07-29T07:45:50.000Z</time>
</trkpt>
<trkpt lat="45.8910140" lon="10.2861620">
	<ele>1777.20</ele>
	<time>2025-07-29T07:45:51.000Z</time>
</trkpt>
<trkpt lat="45.8910140" lon="10.2861520">
	<ele>1777.40</ele>
	<time>2025-07-29T07:45:52.000Z</time>
</trkpt>
<trkpt lat="45.8910150" lon="10.2861420">
	<ele>1777.60</ele>
	<time>2025-07-29T07:45:53.000Z</time>
</trkpt>
<trkpt lat="45.8910160" lon="10.2861340">
	<ele>1777.80</ele>
	<time>2025-07-29T07:45:54.000Z</time>
</trkpt>
<trkpt lat="45.8910160" lon="10.2861250">
	<ele>1777.80</ele>
	<time>2025-07-29T07:45:55.000Z</time>
</trkpt>
<trkpt lat="45.8910140" lon="10.2861170">
	<ele>1778.20</ele>
	<time>2025-07-29T07:45:56.000Z</time>
</trkpt>
<trkpt lat="45.8910100" lon="10.2861100">
	<ele>1778.40</ele>
	<time>2025-07-29T07:45:57.000Z</time>
</trkpt>
<trkpt lat="45.8910060" lon="10.2861010">
	<ele>1778.40</ele>
	<time>2025-07-29T07:45:58.000Z</time>
</trkpt>
<trkpt lat="45.8910030" lon="10.2860950">
	<ele>1778.60</ele>
	<time>2025-07-29T07:45:59.000Z</time>
</trkpt>
<trkpt lat="45.8909990" lon="10.2860890">
	<ele>1778.60</ele>
	<time>2025-07-29T07:46:00.000Z</time>
</trkpt>
<trkpt lat="45.8909970" lon="10.2860850">
	<ele>1779.00</ele>
	<time>2025-07-29T07:46:01.000Z</time>
</trkpt>
<trkpt lat="45.8909940" lon="10.2860800">
	<ele>1779.40</ele>
	<time>2025-07-29T07:46:02.000Z</time>
</trkpt>
<trkpt lat="45.8909860" lon="10.2860710">
	<ele>1779.60</ele>
	<time>2025-07-29T07:46:03.000Z</time>
</trkpt>
<trkpt lat="45.8909800" lon="10.2860640">
	<ele>1779.80</ele>
	<time>2025-07-29T07:46:04.000Z</time>
</trkpt>
<trkpt lat="45.8909780" lon="10.2860580">
	<ele>1780.00</ele>
	<time>2025-07-29T07:46:05.000Z</time>
</trkpt>
<trkpt lat="45.8909690" lon="10.2860560">
	<ele>1780.20</ele>
	<time>2025-07-29T07:46:06.000Z</time>
</trkpt>
<trkpt lat="45.8909650" lon="10.2860520">
	<ele>1780.20</ele>
	<time>2025-07-29T07:46:07.000Z</time>
</trkpt>
<trkpt lat="45.8909610" lon="10.2860450">
	<ele>1780.20</ele>
	<time>2025-07-29T07:46:08.000Z</time>
</trkpt>
<trkpt lat="45.8909560" lon="10.2860420">
	<ele>1780.40</ele>
	<time>2025-07-29T07:46:09.000Z</time>
</trkpt>
<trkpt lat="45.8909560" lon="10.2860360">
	<ele>1780.60</ele>
	<time>2025-07-29T07:46:10.000Z</time>
</trkpt>
<trkpt lat="45.8909510" lon="10.2860310">
	<ele>1780.80</ele>
	<time>2025-07-29T07:46:11.000Z</time>
</trkpt>
<trkpt lat="45.8909460" lon="10.2860290">
	<ele>1781.00</ele>
	<time>2025-07-29T07:46:12.000Z</time>
</trkpt>
<trkpt lat="45.8909430" lon="10.2860270">
	<ele>1781.20</ele>
	<time>2025-07-29T07:46:13.000Z</time>
</trkpt>
<trkpt lat="45.8909400" lon="10.2860210">
	<ele>1781.20</ele>
	<time>2025-07-29T07:46:14.000Z</time>
</trkpt>
<trkpt lat="45.8909370" lon="10.2860170">
	<ele>1781.40</ele>
	<time>2025-07-29T07:46:15.000Z</time>
</trkpt>
<trkpt lat="45.8909350" lon="10.2860110">
	<ele>1781.60</ele>
	<time>2025-07-29T07:46:16.000Z</time>
</trkpt>
<trkpt lat="45.8909330" lon="10.2860060">
	<ele>1781.60</ele>
	<time>2025-07-29T07:46:17.000Z</time>
</trkpt>
<trkpt lat="45.8909280" lon="10.2860010">
	<ele>1781.80</ele>
	<time>2025-07-29T07:46:18.000Z</time>
</trkpt>
<trkpt lat="45.8909230" lon="10.2859980">
	<ele>1782.00</ele>
	<time>2025-07-29T07:46:19.000Z</time>
</trkpt>
<trkpt lat="45.8909160" lon="10.2859940">
	<ele>1782.20</ele>
	<time>2025-07-29T07:46:20.000Z</time>
</trkpt>
<trkpt lat="45.8909130" lon="10.2859880">
	<ele>1782.40</ele>
	<time>2025-07-29T07:46:21.000Z</time>
</trkpt>
<trkpt lat="45.8909110" lon="10.2859790">
	<ele>1782.60</ele>
	<time>2025-07-29T07:46:22.000Z</time>
</trkpt>
<trkpt lat="45.8909100" lon="10.2859710">
	<ele>1783.00</ele>
	<time>2025-07-29T07:46:23.000Z</time>
</trkpt>
<trkpt lat="45.8909090" lon="10.2859670">
	<ele>1783.20</ele>
	<time>2025-07-29T07:46:24.000Z</time>
</trkpt>
<trkpt lat="45.8909070" lon="10.2859610">
	<ele>1783.20</ele>
	<time>2025-07-29T07:46:25.000Z</time>
</trkpt>
<trkpt lat="45.8909030" lon="10.2859560">
	<ele>1783.40</ele>
	<time>2025-07-29T07:46:26.000Z</time>
</trkpt>
<trkpt lat="45.8909020" lon="10.2859470">
	<ele>1783.60</ele>
	<time>2025-07-29T07:46:27.000Z</time>
</trkpt>
<trkpt lat="45.8909010" lon="10.2859390">
	<ele>1783.60</ele>
	<time>2025-07-29T07:46:28.000Z</time>
</trkpt>
<trkpt lat="45.8908990" lon="10.2859320">
	<ele>1783.80</ele>
	<time>2025-07-29T07:46:29.000Z</time>
</trkpt>
<trkpt lat="45.8908980" lon="10.2859220">
	<ele>1783.80</ele>
	<time>2025-07-29T07:46:30.000Z</time>
</trkpt>
<trkpt lat="45.8908920" lon="10.2859120">
	<ele>1784.00</ele>
	<time>2025-07-29T07:46:31.000Z</time>
</trkpt>
<trkpt lat="45.8908880" lon="10.2859030">
	<ele>1784.00</ele>
	<time>2025-07-29T07:46:32.000Z</time>
</trkpt>
<trkpt lat="45.8908840" lon="10.2858950">
	<ele>1784.20</ele>
	<time>2025-07-29T07:46:33.000Z</time>
</trkpt>
<trkpt lat="45.8908820" lon="10.2858850">
	<ele>1784.60</ele>
	<time>2025-07-29T07:46:34.000Z</time>
</trkpt>
<trkpt lat="45.8908770" lon="10.2858770">
	<ele>1785.00</ele>
	<time>2025-07-29T07:46:35.000Z</time>
</trkpt>
<trkpt lat="45.8908700" lon="10.2858690">
	<ele>1785.20</ele>
	<time>2025-07-29T07:46:36.000Z</time>
</trkpt>
<trkpt lat="45.8908660" lon="10.2858640">
	<ele>1785.20</ele>
	<time>2025-07-29T07:46:37.000Z</time>
</trkpt>
<trkpt lat="45.8908600" lon="10.2858600">
	<ele>1785.60</ele>
	<time>2025-07-29T07:46:38.000Z</time>
</trkpt>
<trkpt lat="45.8908540" lon="10.2858560">
	<ele>1785.80</ele>
	<time>2025-07-29T07:46:39.000Z</time>
</trkpt>
<trkpt lat="45.8908470" lon="10.2858480">
	<ele>1786.00</ele>
	<time>2025-07-29T07:46:40.000Z</time>
</trkpt>
<trkpt lat="45.8908380" lon="10.2858430">
	<ele>1786.00</ele>
	<time>2025-07-29T07:46:41.000Z</time>
</trkpt>
<trkpt lat="45.8908290" lon="10.2858400">
	<ele>1786.00</ele>
	<time>2025-07-29T07:46:42.000Z</time>
</trkpt>
<trkpt lat="45.8908220" lon="10.2858420">
	<ele>1786.20</ele>
	<time>2025-07-29T07:46:43.000Z</time>
</trkpt>
<trkpt lat="45.8908160" lon="10.2858390">
	<ele>1786.20</ele>
	<time>2025-07-29T07:46:44.000Z</time>
</trkpt>
<trkpt lat="45.8908120" lon="10.2858280">
	<ele>1786.40</ele>
	<time>2025-07-29T07:46:45.000Z</time>
</trkpt>
<trkpt lat="45.8908080" lon="10.2858160">
	<ele>1786.60</ele>
	<time>2025-07-29T07:46:46.000Z</time>
</trkpt>
<trkpt lat="45.8908030" lon="10.2858040">
	<ele>1786.80</ele>
	<time>2025-07-29T07:46:47.000Z</time>
</trkpt>
<trkpt lat="45.8907990" lon="10.2857920">
	<ele>1786.80</ele>
	<time>2025-07-29T07:46:48.000Z</time>
</trkpt>
<trkpt lat="45.8907910" lon="10.2857840">
	<ele>1787.00</ele>
	<time>2025-07-29T07:46:49.000Z</time>
</trkpt>
<trkpt lat="45.8907910" lon="10.2857810">
	<ele>1787.20</ele>
	<time>2025-07-29T07:46:50.000Z</time>
</trkpt>
<trkpt lat="45.8907910" lon="10.2857820">
	<ele>1787.40</ele>
	<time>2025-07-29T07:46:51.000Z</time>
</trkpt>
<trkpt lat="45.8907910" lon="10.2857820">
	<ele>1787.60</ele>
	<time>2025-07-29T07:46:52.000Z</time>
</trkpt>
<trkpt lat="45.8907890" lon="10.2857800">
	<ele>1787.60</ele>
	<time>2025-07-29T07:46:53.000Z</time>
</trkpt>
<trkpt lat="45.8907880" lon="10.2857790">
	<ele>1787.80</ele>
	<time>2025-07-29T07:46:54.000Z</time>
</trkpt>
<trkpt lat="45.8907890" lon="10.2857790">
	<ele>1787.80</ele>
	<time>2025-07-29T07:46:55.000Z</time>
</trkpt>
<trkpt lat="45.8907900" lon="10.2857730">
	<ele>1787.80</ele>
	<time>2025-07-29T07:46:56.000Z</time>
</trkpt>
<trkpt lat="45.8907900" lon="10.2857690">
	<ele>1787.60</ele>
	<time>2025-07-29T07:46:57.000Z</time>
</trkpt>
<trkpt lat="45.8907840" lon="10.2857690">
	<ele>1787.60</ele>
	<time>2025-07-29T07:46:58.000Z</time>
</trkpt>
<trkpt lat="45.8907730" lon="10.2857700">
	<ele>1787.60</ele>
	<time>2025-07-29T07:46:59.000Z</time>
</trkpt>
<trkpt lat="45.8907630" lon="10.2857660">
	<ele>1787.60</ele>
	<time>2025-07-29T07:47:00.000Z</time>
</trkpt>
<trkpt lat="45.8907600" lon="10.2857610">
	<ele>1787.60</ele>
	<time>2025-07-29T07:47:01.000Z</time>
</trkpt>
<trkpt lat="45.8907560" lon="10.2857510">
	<ele>1787.80</ele>
	<time>2025-07-29T07:47:02.000Z</time>
</trkpt>
<trkpt lat="45.8907520" lon="10.2857440">
	<ele>1788.00</ele>
	<time>2025-07-29T07:47:03.000Z</time>
</trkpt>
<trkpt lat="45.8907450" lon="10.2857340">
	<ele>1788.20</ele>
	<time>2025-07-29T07:47:04.000Z</time>
</trkpt>
<trkpt lat="45.8907390" lon="10.2857280">
	<ele>1788.60</ele>
	<time>2025-07-29T07:47:05.000Z</time>
</trkpt>
<trkpt lat="45.8907330" lon="10.2857200">
	<ele>1788.80</ele>
	<time>2025-07-29T07:47:06.000Z</time>
</trkpt>
<trkpt lat="45.8907290" lon="10.2857150">
	<ele>1788.80</ele>
	<time>2025-07-29T07:47:07.000Z</time>
</trkpt>
<trkpt lat="45.8907300" lon="10.2857110">
	<ele>1789.00</ele>
	<time>2025-07-29T07:47:08.000Z</time>
</trkpt>
<trkpt lat="45.8907250" lon="10.2857060">
	<ele>1789.00</ele>
	<time>2025-07-29T07:47:09.000Z</time>
</trkpt>
<trkpt lat="45.8907200" lon="10.2857000">
	<ele>1789.00</ele>
	<time>2025-07-29T07:47:10.000Z</time>
</trkpt>
<trkpt lat="45.8907190" lon="10.2856940">
	<ele>1789.20</ele>
	<time>2025-07-29T07:47:11.000Z</time>
</trkpt>
<trkpt lat="45.8907180" lon="10.2856860">
	<ele>1789.20</ele>
	<time>2025-07-29T07:47:12.000Z</time>
</trkpt>
<trkpt lat="45.8907110" lon="10.2856820">
	<ele>1789.40</ele>
	<time>2025-07-29T07:47:13.000Z</time>
</trkpt>
<trkpt lat="45.8907080" lon="10.2856710">
	<ele>1789.60</ele>
	<time>2025-07-29T07:47:14.000Z</time>
</trkpt>
<trkpt lat="45.8907010" lon="10.2856660">
	<ele>1789.80</ele>
	<time>2025-07-29T07:47:15.000Z</time>
</trkpt>
<trkpt lat="45.8906990" lon="10.2856600">
	<ele>1790.00</ele>
	<time>2025-07-29T07:47:16.000Z</time>
</trkpt>
<trkpt lat="45.8906960" lon="10.2856490">
	<ele>1790.20</ele>
	<time>2025-07-29T07:47:17.000Z</time>
</trkpt>
<trkpt lat="45.8906940" lon="10.2856400">
	<ele>1790.20</ele>
	<time>2025-07-29T07:47:18.000Z</time>
</trkpt>
<trkpt lat="45.8906940" lon="10.2856290">
	<ele>1790.40</ele>
	<time>2025-07-29T07:47:19.000Z</time>
</trkpt>
<trkpt lat="45.8906940" lon="10.2856160">
	<ele>1790.60</ele>
	<time>2025-07-29T07:47:20.000Z</time>
</trkpt>
<trkpt lat="45.8906900" lon="10.2856060">
	<ele>1790.60</ele>
	<time>2025-07-29T07:47:21.000Z</time>
</trkpt>
<trkpt lat="45.8906830" lon="10.2855990">
	<ele>1790.80</ele>
	<time>2025-07-29T07:47:22.000Z</time>
</trkpt>
<trkpt lat="45.8906800" lon="10.2855910">
	<ele>1791.00</ele>
	<time>2025-07-29T07:47:23.000Z</time>
</trkpt>
<trkpt lat="45.8906760" lon="10.2855810">
	<ele>1791.20</ele>
	<time>2025-07-29T07:47:24.000Z</time>
</trkpt>
<trkpt lat="45.8906770" lon="10.2855700">
	<ele>1791.20</ele>
	<time>2025-07-29T07:47:25.000Z</time>
</trkpt>
<trkpt lat="45.8906750" lon="10.2855580">
	<ele>1791.40</ele>
	<time>2025-07-29T07:47:26.000Z</time>
</trkpt>
<trkpt lat="45.8906750" lon="10.2855500">
	<ele>1791.60</ele>
	<time>2025-07-29T07:47:27.000Z</time>
</trkpt>
<trkpt lat="45.8906750" lon="10.2855400">
	<ele>1791.60</ele>
	<time>2025-07-29T07:47:28.000Z</time>
</trkpt>
<trkpt lat="45.8906720" lon="10.2855290">
	<ele>1791.80</ele>
	<time>2025-07-29T07:47:29.000Z</time>
</trkpt>
<trkpt lat="45.8906690" lon="10.2855200">
	<ele>1791.80</ele>
	<time>2025-07-29T07:47:30.000Z</time>
</trkpt>
<trkpt lat="45.8906660" lon="10.2855150">
	<ele>1792.00</ele>
	<time>2025-07-29T07:47:31.000Z</time>
</trkpt>
<trkpt lat="45.8906630" lon="10.2855110">
	<ele>1792.20</ele>
	<time>2025-07-29T07:47:32.000Z</time>
</trkpt>
<trkpt lat="45.8906610" lon="10.2855060">
	<ele>1792.20</ele>
	<time>2025-07-29T07:47:33.000Z</time>
</trkpt>
<trkpt lat="45.8906590" lon="10.2854980">
	<ele>1792.40</ele>
	<time>2025-07-29T07:47:34.000Z</time>
</trkpt>
<trkpt lat="45.8906570" lon="10.2854890">
	<ele>1792.60</ele>
	<time>2025-07-29T07:47:35.000Z</time>
</trkpt>
<trkpt lat="45.8906530" lon="10.2854810">
	<ele>1792.60</ele>
	<time>2025-07-29T07:47:36.000Z</time>
</trkpt>
<trkpt lat="45.8906520" lon="10.2854730">
	<ele>1792.80</ele>
	<time>2025-07-29T07:47:37.000Z</time>
</trkpt>
<trkpt lat="45.8906540" lon="10.2854650">
	<ele>1792.80</ele>
	<time>2025-07-29T07:47:38.000Z</time>
</trkpt>
<trkpt lat="45.8906550" lon="10.2854590">
	<ele>1793.00</ele>
	<time>2025-07-29T07:47:39.000Z</time>
</trkpt>
<trkpt lat="45.8906570" lon="10.2854470">
	<ele>1793.20</ele>
	<time>2025-07-29T07:47:40.000Z</time>
</trkpt>
<trkpt lat="45.8906550" lon="10.2854390">
	<ele>1793.40</ele>
	<time>2025-07-29T07:47:41.000Z</time>
</trkpt>
<trkpt lat="45.8906550" lon="10.2854330">
	<ele>1793.60</ele>
	<time>2025-07-29T07:47:42.000Z</time>
</trkpt>
<trkpt lat="45.8906510" lon="10.2854270">
	<ele>1794.00</ele>
	<time>2025-07-29T07:47:43.000Z</time>
</trkpt>
<trkpt lat="45.8906510" lon="10.2854200">
	<ele>1794.20</ele>
	<time>2025-07-29T07:47:44.000Z</time>
</trkpt>
<trkpt lat="45.8906530" lon="10.2854120">
	<ele>1794.20</ele>
	<time>2025-07-29T07:47:45.000Z</time>
</trkpt>
<trkpt lat="45.8906540" lon="10.2854050">
	<ele>1794.40</ele>
	<time>2025-07-29T07:47:46.000Z</time>
</trkpt>
<trkpt lat="45.8906520" lon="10.2853990">
	<ele>1794.60</ele>
	<time>2025-07-29T07:47:47.000Z</time>
</trkpt>
<trkpt lat="45.8906520" lon="10.2853910">
	<ele>1794.80</ele>
	<time>2025-07-29T07:47:48.000Z</time>
</trkpt>
<trkpt lat="45.8906500" lon="10.2853850">
	<ele>1794.80</ele>
	<time>2025-07-29T07:47:49.000Z</time>
</trkpt>
<trkpt lat="45.8906500" lon="10.2853780">
	<ele>1795.00</ele>
	<time>2025-07-29T07:47:50.000Z</time>
</trkpt>
<trkpt lat="45.8906500" lon="10.2853710">
	<ele>1795.20</ele>
	<time>2025-07-29T07:47:51.000Z</time>
</trkpt>
<trkpt lat="45.8906540" lon="10.2853610">
	<ele>1795.20</ele>
	<time>2025-07-29T07:47:52.000Z</time>
</trkpt>
<trkpt lat="45.8906550" lon="10.2853540">
	<ele>1795.60</ele>
	<time>2025-07-29T07:47:53.000Z</time>
</trkpt>
<trkpt lat="45.8906530" lon="10.2853460">
	<ele>1795.80</ele>
	<time>2025-07-29T07:47:54.000Z</time>
</trkpt>
<trkpt lat="45.8906480" lon="10.2853380">
	<ele>1796.00</ele>
	<time>2025-07-29T07:47:55.000Z</time>
</trkpt>
<trkpt lat="45.8906450" lon="10.2853350">
	<ele>1796.20</ele>
	<time>2025-07-29T07:47:56.000Z</time>
</trkpt>
<trkpt lat="45.8906430" lon="10.2853290">
	<ele>1796.40</ele>
	<time>2025-07-29T07:47:57.000Z</time>
</trkpt>
<trkpt lat="45.8906360" lon="10.2853230">
	<ele>1796.60</ele>
	<time>2025-07-29T07:47:58.000Z</time>
</trkpt>
<trkpt lat="45.8906310" lon="10.2853180">
	<ele>1796.80</ele>
	<time>2025-07-29T07:47:59.000Z</time>
</trkpt>
<trkpt lat="45.8906320" lon="10.2853130">
	<ele>1797.00</ele>
	<time>2025-07-29T07:48:00.000Z</time>
</trkpt>
<trkpt lat="45.8906320" lon="10.2853070">
	<ele>1797.20</ele>
	<time>2025-07-29T07:48:01.000Z</time>
</trkpt>
<trkpt lat="45.8906290" lon="10.2853030">
	<ele>1797.20</ele>
	<time>2025-07-29T07:48:02.000Z</time>
</trkpt>
<trkpt lat="45.8906240" lon="10.2852950">
	<ele>1797.40</ele>
	<time>2025-07-29T07:48:03.000Z</time>
</trkpt>
<trkpt lat="45.8906190" lon="10.2852830">
	<ele>1797.40</ele>
	<time>2025-07-29T07:48:04.000Z</time>
</trkpt>
<trkpt lat="45.8906120" lon="10.2852740">
	<ele>1797.60</ele>
	<time>2025-07-29T07:48:05.000Z</time>
</trkpt>
<trkpt lat="45.8906070" lon="10.2852720">
	<ele>1798.00</ele>
	<time>2025-07-29T07:48:06.000Z</time>
</trkpt>
<trkpt lat="45.8906030" lon="10.2852690">
	<ele>1798.20</ele>
	<time>2025-07-29T07:48:07.000Z</time>
</trkpt>
<trkpt lat="45.8905950" lon="10.2852590">
	<ele>1798.20</ele>
	<time>2025-07-29T07:48:08.000Z</time>
</trkpt>
<trkpt lat="45.8905880" lon="10.2852550">
	<ele>1798.40</ele>
	<time>2025-07-29T07:48:09.000Z</time>
</trkpt>
<trkpt lat="45.8905860" lon="10.2852510">
	<ele>1798.80</ele>
	<time>2025-07-29T07:48:10.000Z</time>
</trkpt>
<trkpt lat="45.8905840" lon="10.2852480">
	<ele>1799.20</ele>
	<time>2025-07-29T07:48:11.000Z</time>
</trkpt>
<trkpt lat="45.8905800" lon="10.2852400">
	<ele>1799.40</ele>
	<time>2025-07-29T07:48:12.000Z</time>
</trkpt>
<trkpt lat="45.8905750" lon="10.2852340">
	<ele>1799.60</ele>
	<time>2025-07-29T07:48:13.000Z</time>
</trkpt>
<trkpt lat="45.8905730" lon="10.2852290">
	<ele>1799.60</ele>
	<time>2025-07-29T07:48:14.000Z</time>
</trkpt>
<trkpt lat="45.8905720" lon="10.2852250">
	<ele>1799.80</ele>
	<time>2025-07-29T07:48:15.000Z</time>
</trkpt>
<trkpt lat="45.8905720" lon="10.2852190">
	<ele>1800.00</ele>
	<time>2025-07-29T07:48:16.000Z</time>
</trkpt>
<trkpt lat="45.8905750" lon="10.2852110">
	<ele>1800.20</ele>
	<time>2025-07-29T07:48:17.000Z</time>
</trkpt>
<trkpt lat="45.8905750" lon="10.2852050">
	<ele>1800.40</ele>
	<time>2025-07-29T07:48:18.000Z</time>
</trkpt>
<trkpt lat="45.8905750" lon="10.2851970">
	<ele>1800.60</ele>
	<time>2025-07-29T07:48:19.000Z</time>
</trkpt>
<trkpt lat="45.8905750" lon="10.2851860">
	<ele>1800.80</ele>
	<time>2025-07-29T07:48:20.000Z</time>
</trkpt>
<trkpt lat="45.8905760" lon="10.2851760">
	<ele>1801.00</ele>
	<time>2025-07-29T07:48:21.000Z</time>
</trkpt>
<trkpt lat="45.8905750" lon="10.2851690">
	<ele>1801.20</ele>
	<time>2025-07-29T07:48:22.000Z</time>
</trkpt>
<trkpt lat="45.8905740" lon="10.2851630">
	<ele>1801.20</ele>
	<time>2025-07-29T07:48:23.000Z</time>
</trkpt>
<trkpt lat="45.8905700" lon="10.2851580">
	<ele>1801.20</ele>
	<time>2025-07-29T07:48:24.000Z</time>
</trkpt>
<trkpt lat="45.8905660" lon="10.2851550">
	<ele>1801.40</ele>
	<time>2025-07-29T07:48:25.000Z</time>
</trkpt>
<trkpt lat="45.8905610" lon="10.2851520">
	<ele>1801.60</ele>
	<time>2025-07-29T07:48:26.000Z</time>
</trkpt>
<trkpt lat="45.8905570" lon="10.2851530">
	<ele>1801.80</ele>
	<time>2025-07-29T07:48:27.000Z</time>
</trkpt>
<trkpt lat="45.8905530" lon="10.2851540">
	<ele>1802.20</ele>
	<time>2025-07-29T07:48:28.000Z</time>
</trkpt>
<trkpt lat="45.8905470" lon="10.2851490">
	<ele>1802.20</ele>
	<time>2025-07-29T07:48:29.000Z</time>
</trkpt>
<trkpt lat="45.8905450" lon="10.2851420">
	<ele>1802.40</ele>
	<time>2025-07-29T07:48:30.000Z</time>
</trkpt>
<trkpt lat="45.8905460" lon="10.2851330">
	<ele>1802.60</ele>
	<time>2025-07-29T07:48:31.000Z</time>
</trkpt>
<trkpt lat="45.8905450" lon="10.2851250">
	<ele>1802.60</ele>
	<time>2025-07-29T07:48:32.000Z</time>
</trkpt>
<trkpt lat="45.8905440" lon="10.2851180">
	<ele>1802.80</ele>
	<time>2025-07-29T07:48:33.000Z</time>
</trkpt>
<trkpt lat="45.8905440" lon="10.2851130">
	<ele>1803.00</ele>
	<time>2025-07-29T07:48:34.000Z</time>
</trkpt>
<trkpt lat="45.8905450" lon="10.2851080">
	<ele>1803.00</ele>
	<time>2025-07-29T07:48:35.000Z</time>
</trkpt>
<trkpt lat="45.8905450" lon="10.2851010">
	<ele>1803.20</ele>
	<time>2025-07-29T07:48:36.000Z</time>
</trkpt>
<trkpt lat="45.8905450" lon="10.2850930">
	<ele>1803.20</ele>
	<time>2025-07-29T07:48:37.000Z</time>
</trkpt>
<trkpt lat="45.8905450" lon="10.2850850">
	<ele>1803.20</ele>
	<time>2025-07-29T07:48:38.000Z</time>
</trkpt>
<trkpt lat="45.8905430" lon="10.2850770">
	<ele>1803.20</ele>
	<time>2025-07-29T07:48:39.000Z</time>
</trkpt>
<trkpt lat="45.8905370" lon="10.2850680">
	<ele>1803.40</ele>
	<time>2025-07-29T07:48:40.000Z</time>
</trkpt>
<trkpt lat="45.8905340" lon="10.2850640">
	<ele>1803.60</ele>
	<time>2025-07-29T07:48:41.000Z</time>
</trkpt>
<trkpt lat="45.8905310" lon="10.2850590">
	<ele>1803.80</ele>
	<time>2025-07-29T07:48:42.000Z</time>
</trkpt>
<trkpt lat="45.8905320" lon="10.2850510">
	<ele>1803.80</ele>
	<time>2025-07-29T07:48:43.000Z</time>
</trkpt>
<trkpt lat="45.8905320" lon="10.2850470">
	<ele>1804.00</ele>
	<time>2025-07-29T07:48:44.000Z</time>
</trkpt>
<trkpt lat="45.8905310" lon="10.2850430">
	<ele>1804.00</ele>
	<time>2025-07-29T07:48:45.000Z</time>
</trkpt>
<trkpt lat="45.8905320" lon="10.2850360">
	<ele>1804.40</ele>
	<time>2025-07-29T07:48:46.000Z</time>
</trkpt>
<trkpt lat="45.8905320" lon="10.2850270">
	<ele>1804.40</ele>
	<time>2025-07-29T07:48:47.000Z</time>
</trkpt>
<trkpt lat="45.8905330" lon="10.2850180">
	<ele>1804.60</ele>
	<time>2025-07-29T07:48:48.000Z</time>
</trkpt>
<trkpt lat="45.8905300" lon="10.2850090">
	<ele>1804.80</ele>
	<time>2025-07-29T07:48:49.000Z</time>
</trkpt>
<trkpt lat="45.8905240" lon="10.2850010">
	<ele>1805.00</ele>
	<time>2025-07-29T07:48:50.000Z</time>
</trkpt>
<trkpt lat="45.8905220" lon="10.2849960">
	<ele>1805.40</ele>
	<time>2025-07-29T07:48:51.000Z</time>
</trkpt>
<trkpt lat="45.8905210" lon="10.2849940">
	<ele>1805.60</ele>
	<time>2025-07-29T07:48:52.000Z</time>
</trkpt>
<trkpt lat="45.8905200" lon="10.2849900">
	<ele>1806.00</ele>
	<time>2025-07-29T07:48:53.000Z</time>
</trkpt>
<trkpt lat="45.8905190" lon="10.2849840">
	<ele>1806.00</ele>
	<time>2025-07-29T07:48:54.000Z</time>
</trkpt>
<trkpt lat="45.8905170" lon="10.2849790">
	<ele>1806.20</ele>
	<time>2025-07-29T07:48:55.000Z</time>
</trkpt>
<trkpt lat="45.8905160" lon="10.2849750">
	<ele>1806.60</ele>
	<time>2025-07-29T07:48:56.000Z</time>
</trkpt>
<trkpt lat="45.8905150" lon="10.2849690">
	<ele>1806.80</ele>
	<time>2025-07-29T07:48:57.000Z</time>
</trkpt>
<trkpt lat="45.8905160" lon="10.2849590">
	<ele>1807.00</ele>
	<time>2025-07-29T07:48:58.000Z</time>
</trkpt>
<trkpt lat="45.8905180" lon="10.2849510">
	<ele>1807.00</ele>
	<time>2025-07-29T07:48:59.000Z</time>
</trkpt>
<trkpt lat="45.8905170" lon="10.2849400">
	<ele>1807.20</ele>
	<time>2025-07-29T07:49:00.000Z</time>
</trkpt>
<trkpt lat="45.8905150" lon="10.2849330">
	<ele>1807.40</ele>
	<time>2025-07-29T07:49:01.000Z</time>
</trkpt>
<trkpt lat="45.8905120" lon="10.2849260">
	<ele>1807.60</ele>
	<time>2025-07-29T07:49:02.000Z</time>
</trkpt>
<trkpt lat="45.8905070" lon="10.2849200">
	<ele>1807.80</ele>
	<time>2025-07-29T07:49:03.000Z</time>
</trkpt>
<trkpt lat="45.8905010" lon="10.2849140">
	<ele>1807.80</ele>
	<time>2025-07-29T07:49:04.000Z</time>
</trkpt>
<trkpt lat="45.8904980" lon="10.2849070">
	<ele>1807.80</ele>
	<time>2025-07-29T07:49:05.000Z</time>
</trkpt>
<trkpt lat="45.8904950" lon="10.2848970">
	<ele>1808.00</ele>
	<time>2025-07-29T07:49:06.000Z</time>
</trkpt>
<trkpt lat="45.8904920" lon="10.2848900">
	<ele>1808.20</ele>
	<time>2025-07-29T07:49:07.000Z</time>
</trkpt>
<trkpt lat="45.8904890" lon="10.2848820">
	<ele>1808.40</ele>
	<time>2025-07-29T07:49:08.000Z</time>
</trkpt>
<trkpt lat="45.8904840" lon="10.2848780">
	<ele>1808.80</ele>
	<time>2025-07-29T07:49:09.000Z</time>
</trkpt>
<trkpt lat="45.8904780" lon="10.2848710">
	<ele>1809.00</ele>
	<time>2025-07-29T07:49:10.000Z</time>
</trkpt>
<trkpt lat="45.8904730" lon="10.2848670">
	<ele>1809.20</ele>
	<time>2025-07-29T07:49:11.000Z</time>
</trkpt>
<trkpt lat="45.8904700" lon="10.2848640">
	<ele>1809.40</ele>
	<time>2025-07-29T07:49:12.000Z</time>
</trkpt>
<trkpt lat="45.8904670" lon="10.2848620">
	<ele>1809.60</ele>
	<time>2025-07-29T07:49:13.000Z</time>
</trkpt>
<trkpt lat="45.8904630" lon="10.2848570">
	<ele>1809.60</ele>
	<time>2025-07-29T07:49:14.000Z</time>
</trkpt>
<trkpt lat="45.8904570" lon="10.2848530">
	<ele>1809.80</ele>
	<time>2025-07-29T07:49:15.000Z</time>
</trkpt>
<trkpt lat="45.8904470" lon="10.2848510">
	<ele>1810.20</ele>
	<time>2025-07-29T07:49:16.000Z</time>
</trkpt>
<trkpt lat="45.8904410" lon="10.2848490">
	<ele>1810.20</ele>
	<time>2025-07-29T07:49:17.000Z</time>
</trkpt>
<trkpt lat="45.8904390" lon="10.2848440">
	<ele>1810.40</ele>
	<time>2025-07-29T07:49:18.000Z</time>
</trkpt>
<trkpt lat="45.8904340" lon="10.2848420">
	<ele>1810.40</ele>
	<time>2025-07-29T07:49:19.000Z</time>
</trkpt>
<trkpt lat="45.8904290" lon="10.2848400">
	<ele>1810.60</ele>
	<time>2025-07-29T07:49:20.000Z</time>
</trkpt>
<trkpt lat="45.8904250" lon="10.2848390">
	<ele>1810.80</ele>
	<time>2025-07-29T07:49:21.000Z</time>
</trkpt>
<trkpt lat="45.8904220" lon="10.2848380">
	<ele>1810.80</ele>
	<time>2025-07-29T07:49:22.000Z</time>
</trkpt>
<trkpt lat="45.8904190" lon="10.2848360">
	<ele>1811.00</ele>
	<time>2025-07-29T07:49:23.000Z</time>
</trkpt>
<trkpt lat="45.8904140" lon="10.2848360">
	<ele>1811.20</ele>
	<time>2025-07-29T07:49:24.000Z</time>
</trkpt>
<trkpt lat="45.8904090" lon="10.2848340">
	<ele>1811.20</ele>
	<time>2025-07-29T07:49:25.000Z</time>
</trkpt>
<trkpt lat="45.8904080" lon="10.2848310">
	<ele>1811.40</ele>
	<time>2025-07-29T07:49:26.000Z</time>
</trkpt>
<trkpt lat="45.8904040" lon="10.2848310">
	<ele>1811.40</ele>
	<time>2025-07-29T07:49:27.000Z</time>
</trkpt>
<trkpt lat="45.8904010" lon="10.2848280">
	<ele>1811.60</ele>
	<time>2025-07-29T07:49:28.000Z</time>
</trkpt>
<trkpt lat="45.8903970" lon="10.2848250">
	<ele>1811.60</ele>
	<time>2025-07-29T07:49:29.000Z</time>
</trkpt>
<trkpt lat="45.8903930" lon="10.2848150">
	<ele>1812.00</ele>
	<time>2025-07-29T07:49:30.000Z</time>
</trkpt>
<trkpt lat="45.8903890" lon="10.2848120">
	<ele>1812.20</ele>
	<time>2025-07-29T07:49:31.000Z</time>
</trkpt>
<trkpt lat="45.8903860" lon="10.2848090">
	<ele>1812.40</ele>
	<time>2025-07-29T07:49:32.000Z</time>
</trkpt>
<trkpt lat="45.8903830" lon="10.2848080">
	<ele>1812.60</ele>
	<time>2025-07-29T07:49:33.000Z</time>
</trkpt>
<trkpt lat="45.8903750" lon="10.2848050">
	<ele>1812.80</ele>
	<time>2025-07-29T07:49:34.000Z</time>
</trkpt>
<trkpt lat="45.8903720" lon="10.2848040">
	<ele>1813.00</ele>
	<time>2025-07-29T07:49:35.000Z</time>
</trkpt>
<trkpt lat="45.8903690" lon="10.2848040">
	<ele>1813.00</ele>
	<time>2025-07-29T07:49:36.000Z</time>
</trkpt>
<trkpt lat="45.8903650" lon="10.2848060">
	<ele>1813.00</ele>
	<time>2025-07-29T07:49:37.000Z</time>
</trkpt>
<trkpt lat="45.8903620" lon="10.2848090">
	<ele>1813.40</ele>
	<time>2025-07-29T07:49:38.000Z</time>
</trkpt>
<trkpt lat="45.8903610" lon="10.2848100">
	<ele>1813.40</ele>
	<time>2025-07-29T07:49:39.000Z</time>
</trkpt>
<trkpt lat="45.8903580" lon="10.2848110">
	<ele>1813.60</ele>
	<time>2025-07-29T07:49:40.000Z</time>
</trkpt>
<trkpt lat="45.8903530" lon="10.2848120">
	<ele>1813.60</ele>
	<time>2025-07-29T07:49:41.000Z</time>
</trkpt>
<trkpt lat="45.8903490" lon="10.2848120">
	<ele>1813.80</ele>
	<time>2025-07-29T07:49:42.000Z</time>
</trkpt>
<trkpt lat="45.8903410" lon="10.2848090">
	<ele>1813.80</ele>
	<time>2025-07-29T07:49:43.000Z</time>
</trkpt>
<trkpt lat="45.8903350" lon="10.2848050">
	<ele>1813.80</ele>
	<time>2025-07-29T07:49:44.000Z</time>
</trkpt>
<trkpt lat="45.8903280" lon="10.2847990">
	<ele>1814.00</ele>
	<time>2025-07-29T07:49:45.000Z</time>
</trkpt>
<trkpt lat="45.8903220" lon="10.2847950">
	<ele>1814.00</ele>
	<time>2025-07-29T07:49:46.000Z</time>
</trkpt>
<trkpt lat="45.8903140" lon="10.2847910">
	<ele>1814.40</ele>
	<time>2025-07-29T07:49:47.000Z</time>
</trkpt>
<trkpt lat="45.8903090" lon="10.2847900">
	<ele>1814.80</ele>
	<time>2025-07-29T07:49:48.000Z</time>
</trkpt>
<trkpt lat="45.8903020" lon="10.2847850">
	<ele>1815.00</ele>
	<time>2025-07-29T07:49:49.000Z</time>
</trkpt>
<trkpt lat="45.8902970" lon="10.2847820">
	<ele>1815.20</ele>
	<time>2025-07-29T07:49:50.000Z</time>
</trkpt>
<trkpt lat="45.8902940" lon="10.2847820">
	<ele>1815.20</ele>
	<time>2025-07-29T07:49:51.000Z</time>
</trkpt>
<trkpt lat="45.8902880" lon="10.2847820">
	<ele>1815.40</ele>
	<time>2025-07-29T07:49:52.000Z</time>
</trkpt>
<trkpt lat="45.8902850" lon="10.2847760">
	<ele>1815.60</ele>
	<time>2025-07-29T07:49:53.000Z</time>
</trkpt>
<trkpt lat="45.8902780" lon="10.2847700">
	<ele>1815.60</ele>
	<time>2025-07-29T07:49:54.000Z</time>
</trkpt>
<trkpt lat="45.8902680" lon="10.2847650">
	<ele>1815.80</ele>
	<time>2025-07-29T07:49:55.000Z</time>
</trkpt>
<trkpt lat="45.8902560" lon="10.2847610">
	<ele>1815.80</ele>
	<time>2025-07-29T07:49:56.000Z</time>
</trkpt>
<trkpt lat="45.8902510" lon="10.2847610">
	<ele>1815.80</ele>
	<time>2025-07-29T07:49:57.000Z</time>
</trkpt>
<trkpt lat="45.8902470" lon="10.2847560">
	<ele>1816.00</ele>
	<time>2025-07-29T07:49:58.000Z</time>
</trkpt>
<trkpt lat="45.8902440" lon="10.2847540">
	<ele>1816.20</ele>
	<time>2025-07-29T07:49:59.000Z</time>
</trkpt>
<trkpt lat="45.8902400" lon="10.2847530">
	<ele>1816.40</ele>
	<time>2025-07-29T07:50:00.000Z</time>
</trkpt>
<trkpt lat="45.8902370" lon="10.2847510">
	<ele>1816.40</ele>
	<time>2025-07-29T07:50:01.000Z</time>
</trkpt>
<trkpt lat="45.8902300" lon="10.2847450">
	<ele>1816.40</ele>
	<time>2025-07-29T07:50:02.000Z</time>
</trkpt>
<trkpt lat="45.8902220" lon="10.2847410">
	<ele>1816.40</ele>
	<time>2025-07-29T07:50:03.000Z</time>
</trkpt>
<trkpt lat="45.8902120" lon="10.2847370">
	<ele>1816.80</ele>
	<time>2025-07-29T07:50:04.000Z</time>
</trkpt>
<trkpt lat="45.8902050" lon="10.2847340">
	<ele>1817.00</ele>
	<time>2025-07-29T07:50:05.000Z</time>
</trkpt>
<trkpt lat="45.8902020" lon="10.2847340">
	<ele>1817.20</ele>
	<time>2025-07-29T07:50:06.000Z</time>
</trkpt>
<trkpt lat="45.8901930" lon="10.2847340">
	<ele>1817.60</ele>
	<time>2025-07-29T07:50:07.000Z</time>
</trkpt>
<trkpt lat="45.8901810" lon="10.2847290">
	<ele>1817.80</ele>
	<time>2025-07-29T07:50:08.000Z</time>
</trkpt>
<trkpt lat="45.8901730" lon="10.2847280">
	<ele>1818.00</ele>
	<time>2025-07-29T07:50:09.000Z</time>
</trkpt>
<trkpt lat="45.8901690" lon="10.2847280">
	<ele>1818.20</ele>
	<time>2025-07-29T07:50:10.000Z</time>
</trkpt>
<trkpt lat="45.8901630" lon="10.2847310">
	<ele>1818.40</ele>
	<time>2025-07-29T07:50:11.000Z</time>
</trkpt>
<trkpt lat="45.8901590" lon="10.2847350">
	<ele>1818.80</ele>
	<time>2025-07-29T07:50:12.000Z</time>
</trkpt>
<trkpt lat="45.8901520" lon="10.2847390">
	<ele>1818.80</ele>
	<time>2025-07-29T07:50:13.000Z</time>
</trkpt>
<trkpt lat="45.8901470" lon="10.2847390">
	<ele>1819.00</ele>
	<time>2025-07-29T07:50:14.000Z</time>
</trkpt>
<trkpt lat="45.8901410" lon="10.2847390">
	<ele>1819.00</ele>
	<time>2025-07-29T07:50:15.000Z</time>
</trkpt>
<trkpt lat="45.8901400" lon="10.2847330">
	<ele>1819.00</ele>
	<time>2025-07-29T07:50:16.000Z</time>
</trkpt>
<trkpt lat="45.8901360" lon="10.2847280">
	<ele>1819.00</ele>
	<time>2025-07-29T07:50:17.000Z</time>
</trkpt>
<trkpt lat="45.8901330" lon="10.2847260">
	<ele>1819.20</ele>
	<time>2025-07-29T07:50:18.000Z</time>
</trkpt>
<trkpt lat="45.8901280" lon="10.2847240">
	<ele>1819.20</ele>
	<time>2025-07-29T07:50:19.000Z</time>
</trkpt>
<trkpt lat="45.8901240" lon="10.2847190">
	<ele>1819.20</ele>
	<time>2025-07-29T07:50:20.000Z</time>
</trkpt>
<trkpt lat="45.8901170" lon="10.2847150">
	<ele>1819.40</ele>
	<time>2025-07-29T07:50:21.000Z</time>
</trkpt>
<trkpt lat="45.8901100" lon="10.2847140">
	<ele>1819.60</ele>
	<time>2025-07-29T07:50:22.000Z</time>
</trkpt>
<trkpt lat="45.8901030" lon="10.2847140">
	<ele>1820.00</ele>
	<time>2025-07-29T07:50:23.000Z</time>
</trkpt>
<trkpt lat="45.8900970" lon="10.2847140">
	<ele>1820.20</ele>
	<time>2025-07-29T07:50:24.000Z</time>
</trkpt>
<trkpt lat="45.8900910" lon="10.2847140">
	<ele>1820.20</ele>
	<time>2025-07-29T07:50:25.000Z</time>
</trkpt>
<trkpt lat="45.8900850" lon="10.2847140">
	<ele>1820.40</ele>
	<time>2025-07-29T07:50:26.000Z</time>
</trkpt>
<trkpt lat="45.8900780" lon="10.2847150">
	<ele>1820.40</ele>
	<time>2025-07-29T07:50:27.000Z</time>
</trkpt>
<trkpt lat="45.8900710" lon="10.2847160">
	<ele>1820.60</ele>
	<time>2025-07-29T07:50:28.000Z</time>
</trkpt>
<trkpt lat="45.8900660" lon="10.2847110">
	<ele>1820.60</ele>
	<time>2025-07-29T07:50:29.000Z</time>
</trkpt>
<trkpt lat="45.8900620" lon="10.2847110">
	<ele>1820.80</ele>
	<time>2025-07-29T07:50:30.000Z</time>
</trkpt>
<trkpt lat="45.8900590" lon="10.2847100">
	<ele>1821.00</ele>
	<time>2025-07-29T07:50:31.000Z</time>
</trkpt>
<trkpt lat="45.8900550" lon="10.2847100">
	<ele>1821.20</ele>
	<time>2025-07-29T07:50:32.000Z</time>
</trkpt>
<trkpt lat="45.8900510" lon="10.2847120">
	<ele>1821.20</ele>
	<time>2025-07-29T07:50:33.000Z</time>
</trkpt>
<trkpt lat="45.8900480" lon="10.2847140">
	<ele>1821.40</ele>
	<time>2025-07-29T07:50:34.000Z</time>
</trkpt>
<trkpt lat="45.8900450" lon="10.2847180">
	<ele>1821.60</ele>
	<time>2025-07-29T07:50:35.000Z</time>
</trkpt>
<trkpt lat="45.8900420" lon="10.2847190">
	<ele>1821.80</ele>
	<time>2025-07-29T07:50:36.000Z</time>
</trkpt>
<trkpt lat="45.8900400" lon="10.2847200">
	<ele>1822.00</ele>
	<time>2025-07-29T07:50:37.000Z</time>
</trkpt>
<trkpt lat="45.8900370" lon="10.2847190">
	<ele>1822.20</ele>
	<time>2025-07-29T07:50:38.000Z</time>
</trkpt>
<trkpt lat="45.8900350" lon="10.2847200">
	<ele>1822.40</ele>
	<time>2025-07-29T07:50:39.000Z</time>
</trkpt>
<trkpt lat="45.8900330" lon="10.2847190">
	<ele>1822.60</ele>
	<time>2025-07-29T07:50:40.000Z</time>
</trkpt>
<trkpt lat="45.8900330" lon="10.2847150">
	<ele>1822.80</ele>
	<time>2025-07-29T07:50:41.000Z</time>
</trkpt>
<trkpt lat="45.8900330" lon="10.2847100">
	<ele>1823.20</ele>
	<time>2025-07-29T07:50:42.000Z</time>
</trkpt>
<trkpt lat="45.8900280" lon="10.2847040">
	<ele>1823.40</ele>
	<time>2025-07-29T07:50:43.000Z</time>
</trkpt>
<trkpt lat="45.8900230" lon="10.2846950">
	<ele>1823.60</ele>
	<time>2025-07-29T07:50:44.000Z</time>
</trkpt>
<trkpt lat="45.8900200" lon="10.2846880">
	<ele>1823.80</ele>
	<time>2025-07-29T07:50:45.000Z</time>
</trkpt>
<trkpt lat="45.8900190" lon="10.2846800">
	<ele>1824.00</ele>
	<time>2025-07-29T07:50:46.000Z</time>
</trkpt>
<trkpt lat="45.8900150" lon="10.2846730">
	<ele>1824.00</ele>
	<time>2025-07-29T07:50:47.000Z</time>
</trkpt>
<trkpt lat="45.8900100" lon="10.2846700">
	<ele>1824.20</ele>
	<time>2025-07-29T07:50:48.000Z</time>
</trkpt>
<trkpt lat="45.8900040" lon="10.2846620">
	<ele>1824.20</ele>
	<time>2025-07-29T07:50:49.000Z</time>
</trkpt>
<trkpt lat="45.8900000" lon="10.2846590">
	<ele>1824.40</ele>
	<time>2025-07-29T07:50:50.000Z</time>
</trkpt>
<trkpt lat="45.8899950" lon="10.2846570">
	<ele>1824.60</ele>
	<time>2025-07-29T07:50:51.000Z</time>
</trkpt>
<trkpt lat="45.8899910" lon="10.2846570">
	<ele>1824.60</ele>
	<time>2025-07-29T07:50:52.000Z</time>
</trkpt>
<trkpt lat="45.8899870" lon="10.2846550">
	<ele>1824.80</ele>
	<time>2025-07-29T07:50:53.000Z</time>
</trkpt>
<trkpt lat="45.8899800" lon="10.2846530">
	<ele>1825.00</ele>
	<time>2025-07-29T07:50:54.000Z</time>
</trkpt>
<trkpt lat="45.8899720" lon="10.2846490">
	<ele>1825.20</ele>
	<time>2025-07-29T07:50:55.000Z</time>
</trkpt>
<trkpt lat="45.8899630" lon="10.2846440">
	<ele>1825.40</ele>
	<time>2025-07-29T07:50:56.000Z</time>
</trkpt>
<trkpt lat="45.8899570" lon="10.2846430">
	<ele>1825.60</ele>
	<time>2025-07-29T07:50:57.000Z</time>
</trkpt>
<trkpt lat="45.8899490" lon="10.2846400">
	<ele>1825.60</ele>
	<time>2025-07-29T07:50:58.000Z</time>
</trkpt>
<trkpt lat="45.8899450" lon="10.2846400">
	<ele>1825.60</ele>
	<time>2025-07-29T07:50:59.000Z</time>
</trkpt>
<trkpt lat="45.8899430" lon="10.2846420">
	<ele>1825.80</ele>
	<time>2025-07-29T07:51:00.000Z</time>
</trkpt>
<trkpt lat="45.8899330" lon="10.2846370">
	<ele>1825.80</ele>
	<time>2025-07-29T07:51:01.000Z</time>
</trkpt>
<trkpt lat="45.8899240" lon="10.2846330">
	<ele>1826.00</ele>
	<time>2025-07-29T07:51:02.000Z</time>
</trkpt>
<trkpt lat="45.8899140" lon="10.2846410">
	<ele>1826.00</ele>
	<time>2025-07-29T07:51:03.000Z</time>
</trkpt>
<trkpt lat="45.8899100" lon="10.2846390">
	<ele>1826.20</ele>
	<time>2025-07-29T07:51:04.000Z</time>
</trkpt>
<trkpt lat="45.8899060" lon="10.2846390">
	<ele>1826.20</ele>
	<time>2025-07-29T07:51:05.000Z</time>
</trkpt>
<trkpt lat="45.8899030" lon="10.2846380">
	<ele>1826.40</ele>
	<time>2025-07-29T07:51:06.000Z</time>
</trkpt>
<trkpt lat="45.8898950" lon="10.2846350">
	<ele>1826.60</ele>
	<time>2025-07-29T07:51:07.000Z</time>
</trkpt>
<trkpt lat="45.8898850" lon="10.2846360">
	<ele>1826.80</ele>
	<time>2025-07-29T07:51:08.000Z</time>
</trkpt>
<trkpt lat="45.8898800" lon="10.2846360">
	<ele>1826.80</ele>
	<time>2025-07-29T07:51:09.000Z</time>
</trkpt>
<trkpt lat="45.8898730" lon="10.2846370">
	<ele>1827.00</ele>
	<time>2025-07-29T07:51:10.000Z</time>
</trkpt>
<trkpt lat="45.8898670" lon="10.2846340">
	<ele>1827.20</ele>
	<time>2025-07-29T07:51:11.000Z</time>
</trkpt>
<trkpt lat="45.8898650" lon="10.2846350">
	<ele>1827.40</ele>
	<time>2025-07-29T07:51:12.000Z</time>
</trkpt>
<trkpt lat="45.8898620" lon="10.2846350">
	<ele>1827.60</ele>
	<time>2025-07-29T07:51:13.000Z</time>
</trkpt>
<trkpt lat="45.8898580" lon="10.2846340">
	<ele>1827.60</ele>
	<time>2025-07-29T07:51:14.000Z</time>
</trkpt>
<trkpt lat="45.8898520" lon="10.2846280">
	<ele>1827.80</ele>
	<time>2025-07-29T07:51:15.000Z</time>
</trkpt>
<trkpt lat="45.8898480" lon="10.2846240">
	<ele>1827.80</ele>
	<time>2025-07-29T07:51:16.000Z</time>
</trkpt>
<trkpt lat="45.8898430" lon="10.2846200">
	<ele>1827.80</ele>
	<time>2025-07-29T07:51:17.000Z</time>
</trkpt>
<trkpt lat="45.8898370" lon="10.2846190">
	<ele>1828.00</ele>
	<time>2025-07-29T07:51:18.000Z</time>
</trkpt>
<trkpt lat="45.8898290" lon="10.2846190">
	<ele>1828.00</ele>
	<time>2025-07-29T07:51:19.000Z</time>
</trkpt>
<trkpt lat="45.8898250" lon="10.2846180">
	<ele>1828.40</ele>
	<time>2025-07-29T07:51:20.000Z</time>
</trkpt>
<trkpt lat="45.8898210" lon="10.2846130">
	<ele>1828.60</ele>
	<time>2025-07-29T07:51:21.000Z</time>
</trkpt>
<trkpt lat="45.8898150" lon="10.2846090">
	<ele>1828.80</ele>
	<time>2025-07-29T07:51:22.000Z</time>
</trkpt>
<trkpt lat="45.8898110" lon="10.2846080">
	<ele>1829.00</ele>
	<time>2025-07-29T07:51:23.000Z</time>
</trkpt>
<trkpt lat="45.8898060" lon="10.2846080">
	<ele>1829.40</ele>
	<time>2025-07-29T07:51:24.000Z</time>
</trkpt>
<trkpt lat="45.8898040" lon="10.2846090">
	<ele>1829.60</ele>
	<time>2025-07-29T07:51:25.000Z</time>
</trkpt>
<trkpt lat="45.8898010" lon="10.2846110">
	<ele>1829.80</ele>
	<time>2025-07-29T07:51:26.000Z</time>
</trkpt>
<trkpt lat="45.8897980" lon="10.2846130">
	<ele>1829.80</ele>
	<time>2025-07-29T07:51:27.000Z</time>
</trkpt>
<trkpt lat="45.8897910" lon="10.2846100">
	<ele>1829.80</ele>
	<time>2025-07-29T07:51:28.000Z</time>
</trkpt>
<trkpt lat="45.8897840" lon="10.2846080">
	<ele>1830.00</ele>
	<time>2025-07-29T07:51:29.000Z</time>
</trkpt>
<trkpt lat="45.8897820" lon="10.2846100">
	<ele>1830.00</ele>
	<time>2025-07-29T07:51:30.000Z</time>
</trkpt>
<trkpt lat="45.8897830" lon="10.2846130">
	<ele>1830.20</ele>
	<time>2025-07-29T07:51:31.000Z</time>
</trkpt>
<trkpt lat="45.8897820" lon="10.2846160">
	<ele>1830.40</ele>
	<time>2025-07-29T07:51:32.000Z</time>
</trkpt>
<trkpt lat="45.8897820" lon="10.2846160">
	<ele>1830.40</ele>
	<time>2025-07-29T07:51:33.000Z</time>
</trkpt>
<trkpt lat="45.8897810" lon="10.2846140">
	<ele>1830.40</ele>
	<time>2025-07-29T07:51:34.000Z</time>
</trkpt>
<trkpt lat="45.8897810" lon="10.2846140">
	<ele>1830.40</ele>
	<time>2025-07-29T07:51:35.000Z</time>
</trkpt>
<trkpt lat="45.8897810" lon="10.2846170">
	<ele>1830.60</ele>
	<time>2025-07-29T07:51:36.000Z</time>
</trkpt>
<trkpt lat="45.8897840" lon="10.2846220">
	<ele>1830.60</ele>
	<time>2025-07-29T07:51:37.000Z</time>
</trkpt>
<trkpt lat="45.8897830" lon="10.2846220">
	<ele>1830.60</ele>
	<time>2025-07-29T07:51:38.000Z</time>
</trkpt>
<trkpt lat="45.8897690" lon="10.2846150">
	<ele>1830.80</ele>
	<time>2025-07-29T07:51:39.000Z</time>
</trkpt>
<trkpt lat="45.8897650" lon="10.2846140">
	<ele>1830.80</ele>
	<time>2025-07-29T07:51:40.000Z</time>
</trkpt>
<trkpt lat="45.8897570" lon="10.2846100">
	<ele>1830.80</ele>
	<time>2025-07-29T07:51:41.000Z</time>
</trkpt>
<trkpt lat="45.8897530" lon="10.2846070">
	<ele>1830.80</ele>
	<time>2025-07-29T07:51:42.000Z</time>
</trkpt>
<trkpt lat="45.8897490" lon="10.2846040">
	<ele>1830.80</ele>
	<time>2025-07-29T07:51:43.000Z</time>
</trkpt>
<trkpt lat="45.8897420" lon="10.2846020">
	<ele>1831.00</ele>
	<time>2025-07-29T07:51:44.000Z</time>
</trkpt>
<trkpt lat="45.8897380" lon="10.2846040">
	<ele>1831.20</ele>
	<time>2025-07-29T07:51:45.000Z</time>
</trkpt>
<trkpt lat="45.8897360" lon="10.2846060">
	<ele>1831.40</ele>
	<time>2025-07-29T07:51:46.000Z</time>
</trkpt>
<trkpt lat="45.8897330" lon="10.2846060">
	<ele>1831.60</ele>
	<time>2025-07-29T07:51:47.000Z</time>
</trkpt>
<trkpt lat="45.8897330" lon="10.2846050">
	<ele>1831.60</ele>
	<time>2025-07-29T07:51:48.000Z</time>
</trkpt>
<trkpt lat="45.8897320" lon="10.2846030">
	<ele>1831.60</ele>
	<time>2025-07-29T07:51:49.000Z</time>
</trkpt>
<trkpt lat="45.8897320" lon="10.2846040">
	<ele>1831.60</ele>
	<time>2025-07-29T07:51:50.000Z</time>
</trkpt>
<trkpt lat="45.8897380" lon="10.2846060">
	<ele>1831.80</ele>
	<time>2025-07-29T07:51:51.000Z</time>
</trkpt>
<trkpt lat="45.8897400" lon="10.2846070">
	<ele>1831.80</ele>
	<time>2025-07-29T07:51:52.000Z</time>
</trkpt>
<trkpt lat="45.8897410" lon="10.2846070">
	<ele>1831.60</ele>
	<time>2025-07-29T07:51:53.000Z</time>
</trkpt>
<trkpt lat="45.8897410" lon="10.2846070">
	<ele>1831.20</ele>
	<time>2025-07-29T07:51:54.000Z</time>
</trkpt>
<trkpt lat="45.8897410" lon="10.2846070">
	<ele>1831.00</ele>
	<time>2025-07-29T07:51:55.000Z</time>
</trkpt>
<trkpt lat="45.8897410" lon="10.2846070">
	<ele>1831.00</ele>
	<time>2025-07-29T07:51:56.000Z</time>
</trkpt>
<trkpt lat="45.8897410" lon="10.2846070">
	<ele>1830.80</ele>
	<time>2025-07-29T07:51:57.000Z</time>
</trkpt>
<trkpt lat="45.8897410" lon="10.2846070">
	<ele>1830.80</ele>
	<time>2025-07-29T07:51:58.000Z</time>
</trkpt>
<trkpt lat="45.8897410" lon="10.2846070">
	<ele>1830.60</ele>
	<time>2025-07-29T07:51:59.000Z</time>
</trkpt>
<trkpt lat="45.8897410" lon="10.2846070">
	<ele>1830.60</ele>
	<time>2025-07-29T07:52:00.000Z</time>
</trkpt>
<trkpt lat="45.8897410" lon="10.2846070">
	<ele>1830.60</ele>
	<time>2025-07-29T07:52:01.000Z</time>
</trkpt>
<trkpt lat="45.8897410" lon="10.2846060">
	<ele>1830.60</ele>
	<time>2025-07-29T07:52:02.000Z</time>
</trkpt>
<trkpt lat="45.8897410" lon="10.2846060">
	<ele>1830.60</ele>
	<time>2025-07-29T07:52:03.000Z</time>
</trkpt>
<trkpt lat="45.8897400" lon="10.2846060">
	<ele>1830.60</ele>
	<time>2025-07-29T07:52:04.000Z</time>
</trkpt>
<trkpt lat="45.8897400" lon="10.2846060">
	<ele>1830.60</ele>
	<time>2025-07-29T07:52:05.000Z</time>
</trkpt>
<trkpt lat="45.8897400" lon="10.2846060">
	<ele>1830.60</ele>
	<time>2025-07-29T07:52:06.000Z</time>
</trkpt>
<trkpt lat="45.8897400" lon="10.2846060">
	<ele>1830.60</ele>
	<time>2025-07-29T07:52:07.000Z</time>
</trkpt>
<trkpt lat="45.8897390" lon="10.2846050">
	<ele>1830.80</ele>
	<time>2025-07-29T07:52:08.000Z</time>
</trkpt>
<trkpt lat="45.8897380" lon="10.2846050">
	<ele>1830.80</ele>
	<time>2025-07-29T07:52:09.000Z</time>
</trkpt>
<trkpt lat="45.8897380" lon="10.2846040">
	<ele>1830.80</ele>
	<time>2025-07-29T07:52:10.000Z</time>
</trkpt>
<trkpt lat="45.8897370" lon="10.2846040">
	<ele>1830.80</ele>
	<time>2025-07-29T07:52:11.000Z</time>
</trkpt>
<trkpt lat="45.8897360" lon="10.2846040">
	<ele>1830.80</ele>
	<time>2025-07-29T07:52:12.000Z</time>
</trkpt>
<trkpt lat="45.8897360" lon="10.2846040">
	<ele>1830.80</ele>
	<time>2025-07-29T07:52:13.000Z</time>
</trkpt>
<trkpt lat="45.8897360" lon="10.2846040">
	<ele>1830.80</ele>
	<time>2025-07-29T07:52:14.000Z</time>
</trkpt>
<trkpt lat="45.8897360" lon="10.2846040">
	<ele>1830.80</ele>
	<time>2025-07-29T07:52:15.000Z</time>
</trkpt>
<trkpt lat="45.8897360" lon="10.2846030">
	<ele>1831.00</ele>
	<time>2025-07-29T07:52:16.000Z</time>
</trkpt>
<trkpt lat="45.8897360" lon="10.2846030">
	<ele>1831.00</ele>
	<time>2025-07-29T07:52:17.000Z</time>
</trkpt>
<trkpt lat="45.8897360" lon="10.2846030">
	<ele>1831.20</ele>
	<time>2025-07-29T07:52:18.000Z</time>
</trkpt>
<trkpt lat="45.8897360" lon="10.2846020">
	<ele>1831.40</ele>
	<time>2025-07-29T07:52:19.000Z</time>
</trkpt>
<trkpt lat="45.8897360" lon="10.2846020">
	<ele>1831.40</ele>
	<time>2025-07-29T07:52:20.000Z</time>
</trkpt>
<trkpt lat="45.8897350" lon="10.2846020">
	<ele>1831.60</ele>
	<time>2025-07-29T07:52:21.000Z</time>
</trkpt>
<trkpt lat="45.8897350" lon="10.2846020">
	<ele>1831.60</ele>
	<time>2025-07-29T07:52:22.000Z</time>
</trkpt>
<trkpt lat="45.8897350" lon="10.2846020">
	<ele>1831.80</ele>
	<time>2025-07-29T07:52:23.000Z</time>
</trkpt>
<trkpt lat="45.8897350" lon="10.2846020">
	<ele>1831.80</ele>
	<time>2025-07-29T07:52:24.000Z</time>
</trkpt>
<trkpt lat="45.8897350" lon="10.2846020">
	<ele>1831.80</ele>
	<time>2025-07-29T07:52:25.000Z</time>
</trkpt>
<trkpt lat="45.8897350" lon="10.2846020">
	<ele>1831.80</ele>
	<time>2025-07-29T07:52:26.000Z</time>
</trkpt>
<trkpt lat="45.8897350" lon="10.2846020">
	<ele>1831.80</ele>
	<time>2025-07-29T07:52:27.000Z</time>
</trkpt>
<trkpt lat="45.8897350" lon="10.2846020">
	<ele>1831.80</ele>
	<time>2025-07-29T07:52:28.000Z</time>
</trkpt>
<trkpt lat="45.8897350" lon="10.2846030">
	<ele>1832.00</ele>
	<time>2025-07-29T07:52:29.000Z</time>
</trkpt>
<trkpt lat="45.8897350" lon="10.2846040">
	<ele>1832.20</ele>
	<time>2025-07-29T07:52:30.000Z</time>
</trkpt>
<trkpt lat="45.8897350" lon="10.2846040">
	<ele>1832.20</ele>
	<time>2025-07-29T07:52:31.000Z</time>
</trkpt>
<trkpt lat="45.8897350" lon="10.2846040">
	<ele>1832.20</ele>
	<time>2025-07-29T07:52:32.000Z</time>
</trkpt>
<trkpt lat="45.8897350" lon="10.2846040">
	<ele>1832.20</ele>
	<time>2025-07-29T07:52:33.000Z</time>
</trkpt>
<trkpt lat="45.8897350" lon="10.2846070">
	<ele>1832.20</ele>
	<time>2025-07-29T07:52:34.000Z</time>
</trkpt>
<trkpt lat="45.8897340" lon="10.2846070">
	<ele>1832.20</ele>
	<time>2025-07-29T07:52:35.000Z</time>
</trkpt>
<trkpt lat="45.8897340" lon="10.2846070">
	<ele>1832.20</ele>
	<time>2025-07-29T07:52:36.000Z</time>
</trkpt>
<trkpt lat="45.8897330" lon="10.2846070">
	<ele>1832.00</ele>
	<time>2025-07-29T07:52:37.000Z</time>
</trkpt>
<trkpt lat="45.8897320" lon="10.2846070">
	<ele>1832.00</ele>
	<time>2025-07-29T07:52:38.000Z</time>
</trkpt>
<trkpt lat="45.8897300" lon="10.2846070">
	<ele>1832.00</ele>
	<time>2025-07-29T07:52:39.000Z</time>
</trkpt>
<trkpt lat="45.8897300" lon="10.2846070">
	<ele>1832.20</ele>
	<time>2025-07-29T07:52:40.000Z</time>
</trkpt>
<trkpt lat="45.8897290" lon="10.2846070">
	<ele>1832.20</ele>
	<time>2025-07-29T07:52:41.000Z</time>
</trkpt>
<trkpt lat="45.8897280" lon="10.2846070">
	<ele>1832.40</ele>
	<time>2025-07-29T07:52:42.000Z</time>
</trkpt>
<trkpt lat="45.8897270" lon="10.2846070">
	<ele>1832.60</ele>
	<time>2025-07-29T07:52:43.000Z</time>
</trkpt>
<trkpt lat="45.8897260" lon="10.2846070">
	<ele>1833.00</ele>
	<time>2025-07-29T07:52:44.000Z</time>
</trkpt>
<trkpt lat="45.8897250" lon="10.2846070">
	<ele>1833.20</ele>
	<time>2025-07-29T07:52:45.000Z</time>
</trkpt>
<trkpt lat="45.8897250" lon="10.2846070">
	<ele>1833.20</ele>
	<time>2025-07-29T07:52:46.000Z</time>
</trkpt>
<trkpt lat="45.8897240" lon="10.2846070">
	<ele>1833.40</ele>
	<time>2025-07-29T07:52:47.000Z</time>
</trkpt>
<trkpt lat="45.8897240" lon="10.2846070">
	<ele>1833.40</ele>
	<time>2025-07-29T07:52:48.000Z</time>
</trkpt>
<trkpt lat="45.8897240" lon="10.2846060">
	<ele>1833.60</ele>
	<time>2025-07-29T07:52:49.000Z</time>
</trkpt>
<trkpt lat="45.8897240" lon="10.2846040">
	<ele>1833.60</ele>
	<time>2025-07-29T07:52:50.000Z</time>
</trkpt>
<trkpt lat="45.8897240" lon="10.2846020">
	<ele>1833.80</ele>
	<time>2025-07-29T07:52:51.000Z</time>
</trkpt>
<trkpt lat="45.8897240" lon="10.2846010">
	<ele>1834.00</ele>
	<time>2025-07-29T07:52:52.000Z</time>
</trkpt>
<trkpt lat="45.8897210" lon="10.2845980">
	<ele>1834.20</ele>
	<time>2025-07-29T07:52:53.000Z</time>
</trkpt>
<trkpt lat="45.8897150" lon="10.2845950">
	<ele>1834.20</ele>
	<time>2025-07-29T07:52:54.000Z</time>
</trkpt>
<trkpt lat="45.8897100" lon="10.2845920">
	<ele>1834.40</ele>
	<time>2025-07-29T07:52:55.000Z</time>
</trkpt>
<trkpt lat="45.8897080" lon="10.2845860">
	<ele>1834.60</ele>
	<time>2025-07-29T07:52:56.000Z</time>
</trkpt>
<trkpt lat="45.8897070" lon="10.2845760">
	<ele>1834.80</ele>
	<time>2025-07-29T07:52:57.000Z</time>
</trkpt>
<trkpt lat="45.8897060" lon="10.2845670">
	<ele>1834.80</ele>
	<time>2025-07-29T07:52:58.000Z</time>
</trkpt>
<trkpt lat="45.8897050" lon="10.2845610">
	<ele>1835.20</ele>
	<time>2025-07-29T07:52:59.000Z</time>
</trkpt>
<trkpt lat="45.8897040" lon="10.2845530">
	<ele>1835.40</ele>
	<time>2025-07-29T07:53:00.000Z</time>
</trkpt>
<trkpt lat="45.8897010" lon="10.2845450">
	<ele>1835.60</ele>
	<time>2025-07-29T07:53:01.000Z</time>
</trkpt>
<trkpt lat="45.8896950" lon="10.2845380">
	<ele>1835.60</ele>
	<time>2025-07-29T07:53:02.000Z</time>
</trkpt>
<trkpt lat="45.8896910" lon="10.2845330">
	<ele>1836.00</ele>
	<time>2025-07-29T07:53:03.000Z</time>
</trkpt>
<trkpt lat="45.8896880" lon="10.2845290">
	<ele>1836.40</ele>
	<time>2025-07-29T07:53:04.000Z</time>
</trkpt>
<trkpt lat="45.8896850" lon="10.2845240">
	<ele>1836.60</ele>
	<time>2025-07-29T07:53:05.000Z</time>
</trkpt>
<trkpt lat="45.8896840" lon="10.2845190">
	<ele>1836.60</ele>
	<time>2025-07-29T07:53:06.000Z</time>
</trkpt>
<trkpt lat="45.8896810" lon="10.2845120">
	<ele>1837.00</ele>
	<time>2025-07-29T07:53:07.000Z</time>
</trkpt>
<trkpt lat="45.8896790" lon="10.2845060">
	<ele>1837.20</ele>
	<time>2025-07-29T07:53:08.000Z</time>
</trkpt>
<trkpt lat="45.8896730" lon="10.2844970">
	<ele>1837.40</ele>
	<time>2025-07-29T07:53:09.000Z</time>
</trkpt>
<trkpt lat="45.8896600" lon="10.2844790">
	<ele>1837.60</ele>
	<time>2025-07-29T07:53:10.000Z</time>
</trkpt>
<trkpt lat="45.8896500" lon="10.2844680">
	<ele>1837.80</ele>
	<time>2025-07-29T07:53:11.000Z</time>
</trkpt>
<trkpt lat="45.8896440" lon="10.2844550">
	<ele>1838.20</ele>
	<time>2025-07-29T07:53:12.000Z</time>
</trkpt>
<trkpt lat="45.8896360" lon="10.2844430">
	<ele>1838.40</ele>
	<time>2025-07-29T07:53:13.000Z</time>
</trkpt>
<trkpt lat="45.8896260" lon="10.2844310">
	<ele>1838.60</ele>
	<time>2025-07-29T07:53:14.000Z</time>
</trkpt>
<trkpt lat="45.8896170" lon="10.2844210">
	<ele>1838.80</ele>
	<time>2025-07-29T07:53:15.000Z</time>
</trkpt>
<trkpt lat="45.8896100" lon="10.2844070">
	<ele>1839.00</ele>
	<time>2025-07-29T07:53:16.000Z</time>
</trkpt>
<trkpt lat="45.8895990" lon="10.2843970">
	<ele>1839.20</ele>
	<time>2025-07-29T07:53:17.000Z</time>
</trkpt>
<trkpt lat="45.8895850" lon="10.2843870">
	<ele>1839.20</ele>
	<time>2025-07-29T07:53:18.000Z</time>
</trkpt>
<trkpt lat="45.8895790" lon="10.2843860">
	<ele>1839.40</ele>
	<time>2025-07-29T07:53:19.000Z</time>
</trkpt>
<trkpt lat="45.8895730" lon="10.2843850">
	<ele>1839.40</ele>
	<time>2025-07-29T07:53:20.000Z</time>
</trkpt>
<trkpt lat="45.8895670" lon="10.2843860">
	<ele>1839.60</ele>
	<time>2025-07-29T07:53:21.000Z</time>
</trkpt>
<trkpt lat="45.8895610" lon="10.2843820">
	<ele>1839.80</ele>
	<time>2025-07-29T07:53:22.000Z</time>
</trkpt>
<trkpt lat="45.8895540" lon="10.2843760">
	<ele>1839.80</ele>
	<time>2025-07-29T07:53:23.000Z</time>
</trkpt>
<trkpt lat="45.8895490" lon="10.2843710">
	<ele>1839.80</ele>
	<time>2025-07-29T07:53:24.000Z</time>
</trkpt>
<trkpt lat="45.8895450" lon="10.2843680">
	<ele>1840.00</ele>
	<time>2025-07-29T07:53:25.000Z</time>
</trkpt>
<trkpt lat="45.8895410" lon="10.2843660">
	<ele>1840.20</ele>
	<time>2025-07-29T07:53:26.000Z</time>
</trkpt>
<trkpt lat="45.8895360" lon="10.2843620">
	<ele>1840.40</ele>
	<time>2025-07-29T07:53:27.000Z</time>
</trkpt>
<trkpt lat="45.8895320" lon="10.2843610">
	<ele>1840.60</ele>
	<time>2025-07-29T07:53:28.000Z</time>
</trkpt>
<trkpt lat="45.8895290" lon="10.2843600">
	<ele>1840.60</ele>
	<time>2025-07-29T07:53:29.000Z</time>
</trkpt>
<trkpt lat="45.8895250" lon="10.2843580">
	<ele>1841.00</ele>
	<time>2025-07-29T07:53:30.000Z</time>
</trkpt>
<trkpt lat="45.8895200" lon="10.2843540">
	<ele>1841.40</ele>
	<time>2025-07-29T07:53:31.000Z</time>
</trkpt>
<trkpt lat="45.8895180" lon="10.2843490">
	<ele>1841.80</ele>
	<time>2025-07-29T07:53:32.000Z</time>
</trkpt>
<trkpt lat="45.8895140" lon="10.2843430">
	<ele>1842.00</ele>
	<time>2025-07-29T07:53:33.000Z</time>
</trkpt>
<trkpt lat="45.8895120" lon="10.2843360">
	<ele>1842.20</ele>
	<time>2025-07-29T07:53:34.000Z</time>
</trkpt>
<trkpt lat="45.8895080" lon="10.2843290">
	<ele>1842.40</ele>
	<time>2025-07-29T07:53:35.000Z</time>
</trkpt>
<trkpt lat="45.8895060" lon="10.2843250">
	<ele>1842.60</ele>
	<time>2025-07-29T07:53:36.000Z</time>
</trkpt>
<trkpt lat="45.8895070" lon="10.2843230">
	<ele>1842.80</ele>
	<time>2025-07-29T07:53:37.000Z</time>
</trkpt>
<trkpt lat="45.8895070" lon="10.2843140">
	<ele>1843.00</ele>
	<time>2025-07-29T07:53:38.000Z</time>
</trkpt>
<trkpt lat="45.8895090" lon="10.2843070">
	<ele>1843.00</ele>
	<time>2025-07-29T07:53:39.000Z</time>
</trkpt>
<trkpt lat="45.8895090" lon="10.2842980">
	<ele>1843.20</ele>
	<time>2025-07-29T07:53:40.000Z</time>
</trkpt>
<trkpt lat="45.8895100" lon="10.2842890">
	<ele>1843.20</ele>
	<time>2025-07-29T07:53:41.000Z</time>
</trkpt>
<trkpt lat="45.8895100" lon="10.2842840">
	<ele>1843.40</ele>
	<time>2025-07-29T07:53:42.000Z</time>
</trkpt>
<trkpt lat="45.8895070" lon="10.2842790">
	<ele>1843.40</ele>
	<time>2025-07-29T07:53:43.000Z</time>
</trkpt>
<trkpt lat="45.8895040" lon="10.2842770">
	<ele>1843.60</ele>
	<time>2025-07-29T07:53:44.000Z</time>
</trkpt>
<trkpt lat="45.8895010" lon="10.2842690">
	<ele>1843.60</ele>
	<time>2025-07-29T07:53:45.000Z</time>
</trkpt>
<trkpt lat="45.8894970" lon="10.2842650">
	<ele>1843.60</ele>
	<time>2025-07-29T07:53:46.000Z</time>
</trkpt>
<trkpt lat="45.8894940" lon="10.2842680">
	<ele>1843.80</ele>
	<time>2025-07-29T07:53:47.000Z</time>
</trkpt>
<trkpt lat="45.8894900" lon="10.2842650">
	<ele>1844.00</ele>
	<time>2025-07-29T07:53:48.000Z</time>
</trkpt>
<trkpt lat="45.8894850" lon="10.2842610">
	<ele>1844.20</ele>
	<time>2025-07-29T07:53:49.000Z</time>
</trkpt>
<trkpt lat="45.8894830" lon="10.2842550">
	<ele>1844.40</ele>
	<time>2025-07-29T07:53:50.000Z</time>
</trkpt>
<trkpt lat="45.8894820" lon="10.2842520">
	<ele>1844.60</ele>
	<time>2025-07-29T07:53:51.000Z</time>
</trkpt>
<trkpt lat="45.8894820" lon="10.2842510">
	<ele>1844.80</ele>
	<time>2025-07-29T07:53:52.000Z</time>
</trkpt>
<trkpt lat="45.8894720" lon="10.2842540">
	<ele>1845.00</ele>
	<time>2025-07-29T07:53:53.000Z</time>
</trkpt>
<trkpt lat="45.8894680" lon="10.2842530">
	<ele>1845.20</ele>
	<time>2025-07-29T07:53:54.000Z</time>
</trkpt>
<trkpt lat="45.8894640" lon="10.2842510">
	<ele>1845.20</ele>
	<time>2025-07-29T07:53:55.000Z</time>
</trkpt>
<trkpt lat="45.8894620" lon="10.2842480">
	<ele>1845.60</ele>
	<time>2025-07-29T07:53:56.000Z</time>
</trkpt>
<trkpt lat="45.8894580" lon="10.2842440">
	<ele>1845.60</ele>
	<time>2025-07-29T07:53:57.000Z</time>
</trkpt>
<trkpt lat="45.8894550" lon="10.2842390">
	<ele>1845.80</ele>
	<time>2025-07-29T07:53:58.000Z</time>
</trkpt>
<trkpt lat="45.8894530" lon="10.2842350">
	<ele>1846.00</ele>
	<time>2025-07-29T07:53:59.000Z</time>
</trkpt>
<trkpt lat="45.8894520" lon="10.2842280">
	<ele>1846.00</ele>
	<time>2025-07-29T07:54:00.000Z</time>
</trkpt>
<trkpt lat="45.8894480" lon="10.2842230">
	<ele>1846.20</ele>
	<time>2025-07-29T07:54:01.000Z</time>
</trkpt>
<trkpt lat="45.8894420" lon="10.2842200">
	<ele>1846.40</ele>
	<time>2025-07-29T07:54:02.000Z</time>
</trkpt>
<trkpt lat="45.8894380" lon="10.2842170">
	<ele>1846.40</ele>
	<time>2025-07-29T07:54:03.000Z</time>
</trkpt>
<trkpt lat="45.8894370" lon="10.2842070">
	<ele>1846.40</ele>
	<time>2025-07-29T07:54:04.000Z</time>
</trkpt>
<trkpt lat="45.8894320" lon="10.2842000">
	<ele>1846.60</ele>
	<time>2025-07-29T07:54:05.000Z</time>
</trkpt>
<trkpt lat="45.8894230" lon="10.2841970">
	<ele>1847.00</ele>
	<time>2025-07-29T07:54:06.000Z</time>
</trkpt>
<trkpt lat="45.8894160" lon="10.2841950">
	<ele>1847.00</ele>
	<time>2025-07-29T07:54:07.000Z</time>
</trkpt>
<trkpt lat="45.8894110" lon="10.2841940">
	<ele>1847.20</ele>
	<time>2025-07-29T07:54:08.000Z</time>
</trkpt>
<trkpt lat="45.8894080" lon="10.2841920">
	<ele>1847.40</ele>
	<time>2025-07-29T07:54:09.000Z</time>
</trkpt>
<trkpt lat="45.8894030" lon="10.2841900">
	<ele>1847.60</ele>
	<time>2025-07-29T07:54:10.000Z</time>
</trkpt>
<trkpt lat="45.8893970" lon="10.2841860">
	<ele>1847.80</ele>
	<time>2025-07-29T07:54:11.000Z</time>
</trkpt>
<trkpt lat="45.8893900" lon="10.2841790">
	<ele>1847.80</ele>
	<time>2025-07-29T07:54:12.000Z</time>
</trkpt>
<trkpt lat="45.8893840" lon="10.2841690">
	<ele>1848.00</ele>
	<time>2025-07-29T07:54:13.000Z</time>
</trkpt>
<trkpt lat="45.8893800" lon="10.2841640">
	<ele>1848.00</ele>
	<time>2025-07-29T07:54:14.000Z</time>
</trkpt>
<trkpt lat="45.8893770" lon="10.2841580">
	<ele>1848.40</ele>
	<time>2025-07-29T07:54:15.000Z</time>
</trkpt>
<trkpt lat="45.8893730" lon="10.2841550">
	<ele>1848.60</ele>
	<time>2025-07-29T07:54:16.000Z</time>
</trkpt>
<trkpt lat="45.8893700" lon="10.2841510">
	<ele>1848.80</ele>
	<time>2025-07-29T07:54:17.000Z</time>
</trkpt>
<trkpt lat="45.8893660" lon="10.2841490">
	<ele>1849.00</ele>
	<time>2025-07-29T07:54:18.000Z</time>
</trkpt>
<trkpt lat="45.8893640" lon="10.2841470">
	<ele>1849.20</ele>
	<time>2025-07-29T07:54:19.000Z</time>
</trkpt>
<trkpt lat="45.8893600" lon="10.2841450">
	<ele>1849.20</ele>
	<time>2025-07-29T07:54:20.000Z</time>
</trkpt>
<trkpt lat="45.8893570" lon="10.2841430">
	<ele>1849.20</ele>
	<time>2025-07-29T07:54:21.000Z</time>
</trkpt>
<trkpt lat="45.8893530" lon="10.2841380">
	<ele>1849.40</ele>
	<time>2025-07-29T07:54:22.000Z</time>
</trkpt>
<trkpt lat="45.8893490" lon="10.2841310">
	<ele>1849.60</ele>
	<time>2025-07-29T07:54:23.000Z</time>
</trkpt>
<trkpt lat="45.8893450" lon="10.2841280">
	<ele>1849.60</ele>
	<time>2025-07-29T07:54:24.000Z</time>
</trkpt>
<trkpt lat="45.8893400" lon="10.2841260">
	<ele>1849.80</ele>
	<time>2025-07-29T07:54:25.000Z</time>
</trkpt>
<trkpt lat="45.8893370" lon="10.2841240">
	<ele>1849.80</ele>
	<time>2025-07-29T07:54:26.000Z</time>
</trkpt>
<trkpt lat="45.8893330" lon="10.2841200">
	<ele>1850.20</ele>
	<time>2025-07-29T07:54:27.000Z</time>
</trkpt>
<trkpt lat="45.8893240" lon="10.2841160">
	<ele>1850.40</ele>
	<time>2025-07-29T07:54:28.000Z</time>
</trkpt>
<trkpt lat="45.8893170" lon="10.2841130">
	<ele>1850.40</ele>
	<time>2025-07-29T07:54:29.000Z</time>
</trkpt>
<trkpt lat="45.8893120" lon="10.2841130">
	<ele>1850.60</ele>
	<time>2025-07-29T07:54:30.000Z</time>
</trkpt>
<trkpt lat="45.8893060" lon="10.2841080">
	<ele>1851.00</ele>
	<time>2025-07-29T07:54:31.000Z</time>
</trkpt>
<trkpt lat="45.8893030" lon="10.2841040">
	<ele>1851.20</ele>
	<time>2025-07-29T07:54:32.000Z</time>
</trkpt>
<trkpt lat="45.8893000" lon="10.2841010">
	<ele>1851.80</ele>
	<time>2025-07-29T07:54:33.000Z</time>
</trkpt>
<trkpt lat="45.8892970" lon="10.2840980">
	<ele>1852.00</ele>
	<time>2025-07-29T07:54:34.000Z</time>
</trkpt>
<trkpt lat="45.8892960" lon="10.2840930">
	<ele>1852.00</ele>
	<time>2025-07-29T07:54:35.000Z</time>
</trkpt>
<trkpt lat="45.8892930" lon="10.2840880">
	<ele>1852.20</ele>
	<time>2025-07-29T07:54:36.000Z</time>
</trkpt>
<trkpt lat="45.8892870" lon="10.2840820">
	<ele>1852.20</ele>
	<time>2025-07-29T07:54:37.000Z</time>
</trkpt>
<trkpt lat="45.8892810" lon="10.2840820">
	<ele>1852.40</ele>
	<time>2025-07-29T07:54:38.000Z</time>
</trkpt>
<trkpt lat="45.8892770" lon="10.2840790">
	<ele>1852.60</ele>
	<time>2025-07-29T07:54:39.000Z</time>
</trkpt>
<trkpt lat="45.8892760" lon="10.2840740">
	<ele>1852.80</ele>
	<time>2025-07-29T07:54:40.000Z</time>
</trkpt>
<trkpt lat="45.8892730" lon="10.2840700">
	<ele>1853.00</ele>
	<time>2025-07-29T07:54:41.000Z</time>
</trkpt>
<trkpt lat="45.8892670" lon="10.2840680">
	<ele>1853.20</ele>
	<time>2025-07-29T07:54:42.000Z</time>
</trkpt>
<trkpt lat="45.8892600" lon="10.2840610">
	<ele>1853.20</ele>
	<time>2025-07-29T07:54:43.000Z</time>
</trkpt>
<trkpt lat="45.8892530" lon="10.2840540">
	<ele>1853.40</ele>
	<time>2025-07-29T07:54:44.000Z</time>
</trkpt>
<trkpt lat="45.8892480" lon="10.2840500">
	<ele>1853.40</ele>
	<time>2025-07-29T07:54:45.000Z</time>
</trkpt>
<trkpt lat="45.8892420" lon="10.2840450">
	<ele>1853.60</ele>
	<time>2025-07-29T07:54:46.000Z</time>
</trkpt>
<trkpt lat="45.8892370" lon="10.2840390">
	<ele>1853.80</ele>
	<time>2025-07-29T07:54:47.000Z</time>
</trkpt>
<trkpt lat="45.8892340" lon="10.2840370">
	<ele>1854.00</ele>
	<time>2025-07-29T07:54:48.000Z</time>
</trkpt>
<trkpt lat="45.8892310" lon="10.2840350">
	<ele>1854.20</ele>
	<time>2025-07-29T07:54:49.000Z</time>
</trkpt>
<trkpt lat="45.8892260" lon="10.2840350">
	<ele>1854.60</ele>
	<time>2025-07-29T07:54:50.000Z</time>
</trkpt>
<trkpt lat="45.8892220" lon="10.2840300">
	<ele>1854.80</ele>
	<time>2025-07-29T07:54:51.000Z</time>
</trkpt>
<trkpt lat="45.8892170" lon="10.2840260">
	<ele>1854.80</ele>
	<time>2025-07-29T07:54:52.000Z</time>
</trkpt>
<trkpt lat="45.8892150" lon="10.2840230">
	<ele>1855.00</ele>
	<time>2025-07-29T07:54:53.000Z</time>
</trkpt>
<trkpt lat="45.8892100" lon="10.2840220">
	<ele>1855.20</ele>
	<time>2025-07-29T07:54:54.000Z</time>
</trkpt>
<trkpt lat="45.8892010" lon="10.2840250">
	<ele>1855.40</ele>
	<time>2025-07-29T07:54:55.000Z</time>
</trkpt>
<trkpt lat="45.8891930" lon="10.2840270">
	<ele>1855.40</ele>
	<time>2025-07-29T07:54:56.000Z</time>
</trkpt>
<trkpt lat="45.8891890" lon="10.2840270">
	<ele>1855.60</ele>
	<time>2025-07-29T07:54:57.000Z</time>
</trkpt>
<trkpt lat="45.8891860" lon="10.2840270">
	<ele>1855.80</ele>
	<time>2025-07-29T07:54:58.000Z</time>
</trkpt>
<trkpt lat="45.8891850" lon="10.2840250">
	<ele>1856.00</ele>
	<time>2025-07-29T07:54:59.000Z</time>
</trkpt>
<trkpt lat="45.8891810" lon="10.2840210">
	<ele>1856.20</ele>
	<time>2025-07-29T07:55:00.000Z</time>
</trkpt>
<trkpt lat="45.8891760" lon="10.2840160">
	<ele>1856.20</ele>
	<time>2025-07-29T07:55:01.000Z</time>
</trkpt>
<trkpt lat="45.8891730" lon="10.2840150">
	<ele>1856.40</ele>
	<time>2025-07-29T07:55:02.000Z</time>
</trkpt>
<trkpt lat="45.8891650" lon="10.2840140">
	<ele>1856.40</ele>
	<time>2025-07-29T07:55:03.000Z</time>
</trkpt>
<trkpt lat="45.8891560" lon="10.2840140">
	<ele>1856.60</ele>
	<time>2025-07-29T07:55:04.000Z</time>
</trkpt>
<trkpt lat="45.8891490" lon="10.2840180">
	<ele>1856.60</ele>
	<time>2025-07-29T07:55:05.000Z</time>
</trkpt>
<trkpt lat="45.8891440" lon="10.2840200">
	<ele>1857.00</ele>
	<time>2025-07-29T07:55:06.000Z</time>
</trkpt>
<trkpt lat="45.8891390" lon="10.2840230">
	<ele>1857.20</ele>
	<time>2025-07-29T07:55:07.000Z</time>
</trkpt>
<trkpt lat="45.8891350" lon="10.2840250">
	<ele>1857.40</ele>
	<time>2025-07-29T07:55:08.000Z</time>
</trkpt>
<trkpt lat="45.8891300" lon="10.2840270">
	<ele>1857.40</ele>
	<time>2025-07-29T07:55:09.000Z</time>
</trkpt>
<trkpt lat="45.8891260" lon="10.2840320">
	<ele>1857.60</ele>
	<time>2025-07-29T07:55:10.000Z</time>
</trkpt>
<trkpt lat="45.8891200" lon="10.2840360">
	<ele>1857.60</ele>
	<time>2025-07-29T07:55:11.000Z</time>
</trkpt>
<trkpt lat="45.8891160" lon="10.2840400">
	<ele>1857.80</ele>
	<time>2025-07-29T07:55:12.000Z</time>
</trkpt>
<trkpt lat="45.8891120" lon="10.2840390">
	<ele>1857.80</ele>
	<time>2025-07-29T07:55:13.000Z</time>
</trkpt>
<trkpt lat="45.8891080" lon="10.2840400">
	<ele>1858.00</ele>
	<time>2025-07-29T07:55:14.000Z</time>
</trkpt>
<trkpt lat="45.8891030" lon="10.2840380">
	<ele>1858.00</ele>
	<time>2025-07-29T07:55:15.000Z</time>
</trkpt>
<trkpt lat="45.8890970" lon="10.2840320">
	<ele>1858.20</ele>
	<time>2025-07-29T07:55:16.000Z</time>
</trkpt>
<trkpt lat="45.8890930" lon="10.2840300">
	<ele>1858.20</ele>
	<time>2025-07-29T07:55:17.000Z</time>
</trkpt>
<trkpt lat="45.8890890" lon="10.2840260">
	<ele>1858.60</ele>
	<time>2025-07-29T07:55:18.000Z</time>
</trkpt>
<trkpt lat="45.8890860" lon="10.2840230">
	<ele>1858.80</ele>
	<time>2025-07-29T07:55:19.000Z</time>
</trkpt>
<trkpt lat="45.8890830" lon="10.2840150">
	<ele>1859.00</ele>
	<time>2025-07-29T07:55:20.000Z</time>
</trkpt>
<trkpt lat="45.8890770" lon="10.2840040">
	<ele>1859.00</ele>
	<time>2025-07-29T07:55:21.000Z</time>
</trkpt>
<trkpt lat="45.8890720" lon="10.2840020">
	<ele>1859.20</ele>
	<time>2025-07-29T07:55:22.000Z</time>
</trkpt>
<trkpt lat="45.8890690" lon="10.2840030">
	<ele>1859.20</ele>
	<time>2025-07-29T07:55:23.000Z</time>
</trkpt>
<trkpt lat="45.8890650" lon="10.2840030">
	<ele>1859.20</ele>
	<time>2025-07-29T07:55:24.000Z</time>
</trkpt>
<trkpt lat="45.8890640" lon="10.2840010">
	<ele>1859.20</ele>
	<time>2025-07-29T07:55:25.000Z</time>
</trkpt>
<trkpt lat="45.8890650" lon="10.2840000">
	<ele>1859.60</ele>
	<time>2025-07-29T07:55:26.000Z</time>
</trkpt>
<trkpt lat="45.8890670" lon="10.2839960">
	<ele>1859.60</ele>
	<time>2025-07-29T07:55:27.000Z</time>
</trkpt>
<trkpt lat="45.8890650" lon="10.2839920">
	<ele>1859.80</ele>
	<time>2025-07-29T07:55:28.000Z</time>
</trkpt>
<trkpt lat="45.8890620" lon="10.2839900">
	<ele>1859.80</ele>
	<time>2025-07-29T07:55:29.000Z</time>
</trkpt>
<trkpt lat="45.8890580" lon="10.2839890">
	<ele>1860.00</ele>
	<time>2025-07-29T07:55:30.000Z</time>
</trkpt>
<trkpt lat="45.8890550" lon="10.2839850">
	<ele>1860.00</ele>
	<time>2025-07-29T07:55:31.000Z</time>
</trkpt>
<trkpt lat="45.8890500" lon="10.2839830">
	<ele>1860.20</ele>
	<time>2025-07-29T07:55:32.000Z</time>
</trkpt>
<trkpt lat="45.8890460" lon="10.2839810">
	<ele>1860.40</ele>
	<time>2025-07-29T07:55:33.000Z</time>
</trkpt>
<trkpt lat="45.8890440" lon="10.2839790">
	<ele>1860.40</ele>
	<time>2025-07-29T07:55:34.000Z</time>
</trkpt>
<trkpt lat="45.8890390" lon="10.2839800">
	<ele>1860.60</ele>
	<time>2025-07-29T07:55:35.000Z</time>
</trkpt>
<trkpt lat="45.8890350" lon="10.2839780">
	<ele>1860.80</ele>
	<time>2025-07-29T07:55:36.000Z</time>
</trkpt>
<trkpt lat="45.8890290" lon="10.2839750">
	<ele>1861.00</ele>
	<time>2025-07-29T07:55:37.000Z</time>
</trkpt>
<trkpt lat="45.8890240" lon="10.2839710">
	<ele>1861.40</ele>
	<time>2025-07-29T07:55:38.000Z</time>
</trkpt>
<trkpt lat="45.8890210" lon="10.2839650">
	<ele>1861.60</ele>
	<time>2025-07-29T07:55:39.000Z</time>
</trkpt>
<trkpt lat="45.8890150" lon="10.2839590">
	<ele>1861.60</ele>
	<time>2025-07-29T07:55:40.000Z</time>
</trkpt>
<trkpt lat="45.8890120" lon="10.2839530">
	<ele>1861.80</ele>
	<time>2025-07-29T07:55:41.000Z</time>
</trkpt>
<trkpt lat="45.8890100" lon="10.2839470">
	<ele>1861.80</ele>
	<time>2025-07-29T07:55:42.000Z</time>
</trkpt>
<trkpt lat="45.8890040" lon="10.2839400">
	<ele>1862.00</ele>
	<time>2025-07-29T07:55:43.000Z</time>
</trkpt>
<trkpt lat="45.8889960" lon="10.2839370">
	<ele>1862.00</ele>
	<time>2025-07-29T07:55:44.000Z</time>
</trkpt>
<trkpt lat="45.8889880" lon="10.2839340">
	<ele>1862.20</ele>
	<time>2025-07-29T07:55:45.000Z</time>
</trkpt>
<trkpt lat="45.8889850" lon="10.2839350">
	<ele>1862.40</ele>
	<time>2025-07-29T07:55:46.000Z</time>
</trkpt>
<trkpt lat="45.8889810" lon="10.2839330">
	<ele>1862.40</ele>
	<time>2025-07-29T07:55:47.000Z</time>
</trkpt>
<trkpt lat="45.8889780" lon="10.2839320">
	<ele>1862.60</ele>
	<time>2025-07-29T07:55:48.000Z</time>
</trkpt>
<trkpt lat="45.8889750" lon="10.2839280">
	<ele>1862.80</ele>
	<time>2025-07-29T07:55:49.000Z</time>
</trkpt>
<trkpt lat="45.8889720" lon="10.2839280">
	<ele>1862.80</ele>
	<time>2025-07-29T07:55:50.000Z</time>
</trkpt>
<trkpt lat="45.8889700" lon="10.2839270">
	<ele>1863.00</ele>
	<time>2025-07-29T07:55:51.000Z</time>
</trkpt>
<trkpt lat="45.8889680" lon="10.2839280">
	<ele>1863.20</ele>
	<time>2025-07-29T07:55:52.000Z</time>
</trkpt>
<trkpt lat="45.8889670" lon="10.2839280">
	<ele>1863.40</ele>
	<time>2025-07-29T07:55:53.000Z</time>
</trkpt>
<trkpt lat="45.8889640" lon="10.2839290">
	<ele>1863.60</ele>
	<time>2025-07-29T07:55:54.000Z</time>
</trkpt>
<trkpt lat="45.8889570" lon="10.2839260">
	<ele>1863.80</ele>
	<time>2025-07-29T07:55:55.000Z</time>
</trkpt>
<trkpt lat="45.8889510" lon="10.2839220">
	<ele>1864.00</ele>
	<time>2025-07-29T07:55:56.000Z</time>
</trkpt>
<trkpt lat="45.8889460" lon="10.2839210">
	<ele>1864.00</ele>
	<time>2025-07-29T07:55:57.000Z</time>
</trkpt>
<trkpt lat="45.8889360" lon="10.2839170">
	<ele>1864.20</ele>
	<time>2025-07-29T07:55:58.000Z</time>
</trkpt>
<trkpt lat="45.8889240" lon="10.2839120">
	<ele>1864.40</ele>
	<time>2025-07-29T07:55:59.000Z</time>
</trkpt>
<trkpt lat="45.8889210" lon="10.2839120">
	<ele>1864.60</ele>
	<time>2025-07-29T07:56:00.000Z</time>
</trkpt>
<trkpt lat="45.8889190" lon="10.2839070">
	<ele>1864.80</ele>
	<time>2025-07-29T07:56:01.000Z</time>
</trkpt>
<trkpt lat="45.8889160" lon="10.2839040">
	<ele>1865.00</ele>
	<time>2025-07-29T07:56:02.000Z</time>
</trkpt>
<trkpt lat="45.8889120" lon="10.2839020">
	<ele>1865.00</ele>
	<time>2025-07-29T07:56:03.000Z</time>
</trkpt>
<trkpt lat="45.8889060" lon="10.2838970">
	<ele>1865.20</ele>
	<time>2025-07-29T07:56:04.000Z</time>
</trkpt>
<trkpt lat="45.8889030" lon="10.2838960">
	<ele>1865.40</ele>
	<time>2025-07-29T07:56:05.000Z</time>
</trkpt>
<trkpt lat="45.8889010" lon="10.2838940">
	<ele>1865.40</ele>
	<time>2025-07-29T07:56:06.000Z</time>
</trkpt>
<trkpt lat="45.8889030" lon="10.2838960">
	<ele>1865.60</ele>
	<time>2025-07-29T07:56:07.000Z</time>
</trkpt>
<trkpt lat="45.8889050" lon="10.2838970">
	<ele>1865.60</ele>
	<time>2025-07-29T07:56:08.000Z</time>
</trkpt>
<trkpt lat="45.8889040" lon="10.2838930">
	<ele>1865.80</ele>
	<time>2025-07-29T07:56:09.000Z</time>
</trkpt>
<trkpt lat="45.8889030" lon="10.2838890">
	<ele>1865.80</ele>
	<time>2025-07-29T07:56:10.000Z</time>
</trkpt>
<trkpt lat="45.8889010" lon="10.2838870">
	<ele>1866.00</ele>
	<time>2025-07-29T07:56:11.000Z</time>
</trkpt>
<trkpt lat="45.8888980" lon="10.2838820">
	<ele>1866.20</ele>
	<time>2025-07-29T07:56:12.000Z</time>
</trkpt>
<trkpt lat="45.8888940" lon="10.2838810">
	<ele>1866.20</ele>
	<time>2025-07-29T07:56:13.000Z</time>
</trkpt>
<trkpt lat="45.8888900" lon="10.2838780">
	<ele>1866.60</ele>
	<time>2025-07-29T07:56:14.000Z</time>
</trkpt>
<trkpt lat="45.8888850" lon="10.2838740">
	<ele>1866.60</ele>
	<time>2025-07-29T07:56:15.000Z</time>
</trkpt>
<trkpt lat="45.8888800" lon="10.2838730">
	<ele>1866.80</ele>
	<time>2025-07-29T07:56:16.000Z</time>
</trkpt>
<trkpt lat="45.8888740" lon="10.2838700">
	<ele>1867.00</ele>
	<time>2025-07-29T07:56:17.000Z</time>
</trkpt>
<trkpt lat="45.8888720" lon="10.2838640">
	<ele>1867.00</ele>
	<time>2025-07-29T07:56:18.000Z</time>
</trkpt>
<trkpt lat="45.8888660" lon="10.2838570">
	<ele>1867.40</ele>
	<time>2025-07-29T07:56:19.000Z</time>
</trkpt>
<trkpt lat="45.8888630" lon="10.2838510">
	<ele>1867.60</ele>
	<time>2025-07-29T07:56:20.000Z</time>
</trkpt>
<trkpt lat="45.8888560" lon="10.2838430">
	<ele>1867.80</ele>
	<time>2025-07-29T07:56:21.000Z</time>
</trkpt>
<trkpt lat="45.8888520" lon="10.2838400">
	<ele>1868.00</ele>
	<time>2025-07-29T07:56:22.000Z</time>
</trkpt>
<trkpt lat="45.8888490" lon="10.2838360">
	<ele>1868.20</ele>
	<time>2025-07-29T07:56:23.000Z</time>
</trkpt>
<trkpt lat="45.8888460" lon="10.2838300">
	<ele>1868.40</ele>
	<time>2025-07-29T07:56:24.000Z</time>
</trkpt>
<trkpt lat="45.8888430" lon="10.2838270">
	<ele>1868.60</ele>
	<time>2025-07-29T07:56:25.000Z</time>
</trkpt>
<trkpt lat="45.8888400" lon="10.2838240">
	<ele>1868.80</ele>
	<time>2025-07-29T07:56:26.000Z</time>
</trkpt>
<trkpt lat="45.8888370" lon="10.2838190">
	<ele>1869.20</ele>
	<time>2025-07-29T07:56:27.000Z</time>
</trkpt>
<trkpt lat="45.8888350" lon="10.2838160">
	<ele>1869.40</ele>
	<time>2025-07-29T07:56:28.000Z</time>
</trkpt>
<trkpt lat="45.8888330" lon="10.2838100">
	<ele>1869.60</ele>
	<time>2025-07-29T07:56:29.000Z</time>
</trkpt>
<trkpt lat="45.8888280" lon="10.2838040">
	<ele>1869.60</ele>
	<time>2025-07-29T07:56:30.000Z</time>
</trkpt>
<trkpt lat="45.8888240" lon="10.2837990">
	<ele>1869.80</ele>
	<time>2025-07-29T07:56:31.000Z</time>
</trkpt>
<trkpt lat="45.8888230" lon="10.2837960">
	<ele>1870.00</ele>
	<time>2025-07-29T07:56:32.000Z</time>
</trkpt>
<trkpt lat="45.8888200" lon="10.2837900">
	<ele>1870.00</ele>
	<time>2025-07-29T07:56:33.000Z</time>
</trkpt>
<trkpt lat="45.8888170" lon="10.2837850">
	<ele>1870.20</ele>
	<time>2025-07-29T07:56:34.000Z</time>
</trkpt>
<trkpt lat="45.8888130" lon="10.2837770">
	<ele>1870.20</ele>
	<time>2025-07-29T07:56:35.000Z</time>
</trkpt>
<trkpt lat="45.8888100" lon="10.2837730">
	<ele>1870.60</ele>
	<time>2025-07-29T07:56:36.000Z</time>
</trkpt>
<trkpt lat="45.8888070" lon="10.2837710">
	<ele>1871.00</ele>
	<time>2025-07-29T07:56:37.000Z</time>
</trkpt>
<trkpt lat="45.8887980" lon="10.2837680">
	<ele>1871.20</ele>
	<time>2025-07-29T07:56:38.000Z</time>
</trkpt>
<trkpt lat="45.8887910" lon="10.2837680">
	<ele>1871.40</ele>
	<time>2025-07-29T07:56:39.000Z</time>
</trkpt>
<trkpt lat="45.8887860" lon="10.2837670">
	<ele>1871.40</ele>
	<time>2025-07-29T07:56:40.000Z</time>
</trkpt>
<trkpt lat="45.8887820" lon="10.2837660">
	<ele>1871.60</ele>
	<time>2025-07-29T07:56:41.000Z</time>
</trkpt>
<trkpt lat="45.8887760" lon="10.2837640">
	<ele>1871.60</ele>
	<time>2025-07-29T07:56:42.000Z</time>
</trkpt>
<trkpt lat="45.8887740" lon="10.2837650">
	<ele>1871.80</ele>
	<time>2025-07-29T07:56:43.000Z</time>
</trkpt>
<trkpt lat="45.8887720" lon="10.2837640">
	<ele>1872.00</ele>
	<time>2025-07-29T07:56:44.000Z</time>
</trkpt>
<trkpt lat="45.8887700" lon="10.2837610">
	<ele>1872.20</ele>
	<time>2025-07-29T07:56:45.000Z</time>
</trkpt>
<trkpt lat="45.8887700" lon="10.2837580">
	<ele>1872.20</ele>
	<time>2025-07-29T07:56:46.000Z</time>
</trkpt>
<trkpt lat="45.8887690" lon="10.2837580">
	<ele>1872.20</ele>
	<time>2025-07-29T07:56:47.000Z</time>
</trkpt>
<trkpt lat="45.8887680" lon="10.2837500">
	<ele>1872.20</ele>
	<time>2025-07-29T07:56:48.000Z</time>
</trkpt>
<trkpt lat="45.8887640" lon="10.2837430">
	<ele>1872.40</ele>
	<time>2025-07-29T07:56:49.000Z</time>
</trkpt>
<trkpt lat="45.8887630" lon="10.2837410">
	<ele>1872.40</ele>
	<time>2025-07-29T07:56:50.000Z</time>
</trkpt>
<trkpt lat="45.8887620" lon="10.2837400">
	<ele>1872.40</ele>
	<time>2025-07-29T07:56:51.000Z</time>
</trkpt>
<trkpt lat="45.8887610" lon="10.2837390">
	<ele>1872.60</ele>
	<time>2025-07-29T07:56:52.000Z</time>
</trkpt>
<trkpt lat="45.8887610" lon="10.2837390">
	<ele>1872.80</ele>
	<time>2025-07-29T07:56:53.000Z</time>
</trkpt>
<trkpt lat="45.8887610" lon="10.2837390">
	<ele>1872.80</ele>
	<time>2025-07-29T07:56:54.000Z</time>
</trkpt>
<trkpt lat="45.8887610" lon="10.2837390">
	<ele>1872.80</ele>
	<time>2025-07-29T07:56:55.000Z</time>
</trkpt>
<trkpt lat="45.8887610" lon="10.2837390">
	<ele>1872.80</ele>
	<time>2025-07-29T07:56:56.000Z</time>
</trkpt>
<trkpt lat="45.8887610" lon="10.2837390">
	<ele>1872.80</ele>
	<time>2025-07-29T07:56:57.000Z</time>
</trkpt>
<trkpt lat="45.8887610" lon="10.2837390">
	<ele>1873.00</ele>
	<time>2025-07-29T07:56:58.000Z</time>
</trkpt>
<trkpt lat="45.8887610" lon="10.2837390">
	<ele>1873.00</ele>
	<time>2025-07-29T07:56:59.000Z</time>
</trkpt>
<trkpt lat="45.8887610" lon="10.2837390">
	<ele>1873.20</ele>
	<time>2025-07-29T07:57:00.000Z</time>
</trkpt>
<trkpt lat="45.8887580" lon="10.2837360">
	<ele>1873.40</ele>
	<time>2025-07-29T07:57:01.000Z</time>
</trkpt>
<trkpt lat="45.8887540" lon="10.2837270">
	<ele>1873.60</ele>
	<time>2025-07-29T07:57:02.000Z</time>
</trkpt>
<trkpt lat="45.8887490" lon="10.2837150">
	<ele>1873.80</ele>
	<time>2025-07-29T07:57:03.000Z</time>
</trkpt>
<trkpt lat="45.8887400" lon="10.2837050">
	<ele>1874.00</ele>
	<time>2025-07-29T07:57:04.000Z</time>
</trkpt>
<trkpt lat="45.8887320" lon="10.2836970">
	<ele>1874.20</ele>
	<time>2025-07-29T07:57:05.000Z</time>
</trkpt>
<trkpt lat="45.8887250" lon="10.2836900">
	<ele>1874.40</ele>
	<time>2025-07-29T07:57:06.000Z</time>
</trkpt>
<trkpt lat="45.8887130" lon="10.2836840">
	<ele>1874.40</ele>
	<time>2025-07-29T07:57:07.000Z</time>
</trkpt>
<trkpt lat="45.8887000" lon="10.2836730">
	<ele>1874.40</ele>
	<time>2025-07-29T07:57:08.000Z</time>
</trkpt>
<trkpt lat="45.8886920" lon="10.2836630">
	<ele>1874.60</ele>
	<time>2025-07-29T07:57:09.000Z</time>
</trkpt>
<trkpt lat="45.8886830" lon="10.2836560">
	<ele>1874.80</ele>
	<time>2025-07-29T07:57:10.000Z</time>
</trkpt>
<trkpt lat="45.8886770" lon="10.2836560">
	<ele>1874.80</ele>
	<time>2025-07-29T07:57:11.000Z</time>
</trkpt>
<trkpt lat="45.8886720" lon="10.2836540">
	<ele>1875.00</ele>
	<time>2025-07-29T07:57:12.000Z</time>
</trkpt>
<trkpt lat="45.8886690" lon="10.2836510">
	<ele>1875.20</ele>
	<time>2025-07-29T07:57:13.000Z</time>
</trkpt>
<trkpt lat="45.8886630" lon="10.2836530">
	<ele>1875.20</ele>
	<time>2025-07-29T07:57:14.000Z</time>
</trkpt>
<trkpt lat="45.8886560" lon="10.2836520">
	<ele>1875.20</ele>
	<time>2025-07-29T07:57:15.000Z</time>
</trkpt>
<trkpt lat="45.8886520" lon="10.2836530">
	<ele>1875.40</ele>
	<time>2025-07-29T07:57:16.000Z</time>
</trkpt>
<trkpt lat="45.8886480" lon="10.2836510">
	<ele>1875.40</ele>
	<time>2025-07-29T07:57:17.000Z</time>
</trkpt>
<trkpt lat="45.8886420" lon="10.2836490">
	<ele>1875.60</ele>
	<time>2025-07-29T07:57:18.000Z</time>
</trkpt>
<trkpt lat="45.8886390" lon="10.2836470">
	<ele>1875.80</ele>
	<time>2025-07-29T07:57:19.000Z</time>
</trkpt>
<trkpt lat="45.8886350" lon="10.2836450">
	<ele>1876.00</ele>
	<time>2025-07-29T07:57:20.000Z</time>
</trkpt>
<trkpt lat="45.8886290" lon="10.2836480">
	<ele>1876.20</ele>
	<time>2025-07-29T07:57:21.000Z</time>
</trkpt>
<trkpt lat="45.8886260" lon="10.2836490">
	<ele>1876.40</ele>
	<time>2025-07-29T07:57:22.000Z</time>
</trkpt>
<trkpt lat="45.8886210" lon="10.2836500">
	<ele>1876.60</ele>
	<time>2025-07-29T07:57:23.000Z</time>
</trkpt>
<trkpt lat="45.8886170" lon="10.2836510">
	<ele>1876.80</ele>
	<time>2025-07-29T07:57:24.000Z</time>
</trkpt>
<trkpt lat="45.8886140" lon="10.2836490">
	<ele>1876.80</ele>
	<time>2025-07-29T07:57:25.000Z</time>
</trkpt>
<trkpt lat="45.8886130" lon="10.2836490">
	<ele>1877.00</ele>
	<time>2025-07-29T07:57:26.000Z</time>
</trkpt>
<trkpt lat="45.8886110" lon="10.2836470">
	<ele>1877.00</ele>
	<time>2025-07-29T07:57:27.000Z</time>
</trkpt>
<trkpt lat="45.8886100" lon="10.2836450">
	<ele>1877.20</ele>
	<time>2025-07-29T07:57:28.000Z</time>
</trkpt>
<trkpt lat="45.8886060" lon="10.2836430">
	<ele>1877.20</ele>
	<time>2025-07-29T07:57:29.000Z</time>
</trkpt>
<trkpt lat="45.8886010" lon="10.2836380">
	<ele>1877.20</ele>
	<time>2025-07-29T07:57:30.000Z</time>
</trkpt>
<trkpt lat="45.8885970" lon="10.2836370">
	<ele>1877.40</ele>
	<time>2025-07-29T07:57:31.000Z</time>
</trkpt>
<trkpt lat="45.8885920" lon="10.2836350">
	<ele>1877.80</ele>
	<time>2025-07-29T07:57:32.000Z</time>
</trkpt>
<trkpt lat="45.8885880" lon="10.2836310">
	<ele>1878.00</ele>
	<time>2025-07-29T07:57:33.000Z</time>
</trkpt>
<trkpt lat="45.8885860" lon="10.2836280">
	<ele>1878.20</ele>
	<time>2025-07-29T07:57:34.000Z</time>
</trkpt>
<trkpt lat="45.8885840" lon="10.2836260">
	<ele>1878.40</ele>
	<time>2025-07-29T07:57:35.000Z</time>
</trkpt>
<trkpt lat="45.8885790" lon="10.2836210">
	<ele>1878.60</ele>
	<time>2025-07-29T07:57:36.000Z</time>
</trkpt>
<trkpt lat="45.8885730" lon="10.2836190">
	<ele>1878.80</ele>
	<time>2025-07-29T07:57:37.000Z</time>
</trkpt>
<trkpt lat="45.8885680" lon="10.2836180">
	<ele>1878.80</ele>
	<time>2025-07-29T07:57:38.000Z</time>
</trkpt>
<trkpt lat="45.8885670" lon="10.2836170">
	<ele>1879.20</ele>
	<time>2025-07-29T07:57:39.000Z</time>
</trkpt>
<trkpt lat="45.8885630" lon="10.2836160">
	<ele>1879.60</ele>
	<time>2025-07-29T07:57:40.000Z</time>
</trkpt>
<trkpt lat="45.8885600" lon="10.2836120">
	<ele>1879.80</ele>
	<time>2025-07-29T07:57:41.000Z</time>
</trkpt>
<trkpt lat="45.8885580" lon="10.2836130">
	<ele>1880.00</ele>
	<time>2025-07-29T07:57:42.000Z</time>
</trkpt>
<trkpt lat="45.8885530" lon="10.2836150">
	<ele>1880.20</ele>
	<time>2025-07-29T07:57:43.000Z</time>
</trkpt>
<trkpt lat="45.8885480" lon="10.2836160">
	<ele>1880.40</ele>
	<time>2025-07-29T07:57:44.000Z</time>
</trkpt>
<trkpt lat="45.8885390" lon="10.2836150">
	<ele>1880.60</ele>
	<time>2025-07-29T07:57:45.000Z</time>
</trkpt>
<trkpt lat="45.8885350" lon="10.2836140">
	<ele>1880.80</ele>
	<time>2025-07-29T07:57:46.000Z</time>
</trkpt>
<trkpt lat="45.8885280" lon="10.2836090">
	<ele>1881.00</ele>
	<time>2025-07-29T07:57:47.000Z</time>
</trkpt>
<trkpt lat="45.8885220" lon="10.2836040">
	<ele>1881.00</ele>
	<time>2025-07-29T07:57:48.000Z</time>
</trkpt>
<trkpt lat="45.8885180" lon="10.2836010">
	<ele>1881.00</ele>
	<time>2025-07-29T07:57:49.000Z</time>
</trkpt>
<trkpt lat="45.8885130" lon="10.2836000">
	<ele>1881.00</ele>
	<time>2025-07-29T07:57:50.000Z</time>
</trkpt>
<trkpt lat="45.8885090" lon="10.2835990">
	<ele>1881.20</ele>
	<time>2025-07-29T07:57:51.000Z</time>
</trkpt>
<trkpt lat="45.8885050" lon="10.2835970">
	<ele>1881.20</ele>
	<time>2025-07-29T07:57:52.000Z</time>
</trkpt>
<trkpt lat="45.8885020" lon="10.2835940">
	<ele>1881.60</ele>
	<time>2025-07-29T07:57:53.000Z</time>
</trkpt>
<trkpt lat="45.8884990" lon="10.2835880">
	<ele>1881.80</ele>
	<time>2025-07-29T07:57:54.000Z</time>
</trkpt>
<trkpt lat="45.8884910" lon="10.2835860">
	<ele>1881.80</ele>
	<time>2025-07-29T07:57:55.000Z</time>
</trkpt>
<trkpt lat="45.8884880" lon="10.2835830">
	<ele>1882.00</ele>
	<time>2025-07-29T07:57:56.000Z</time>
</trkpt>
<trkpt lat="45.8884870" lon="10.2835810">
	<ele>1882.00</ele>
	<time>2025-07-29T07:57:57.000Z</time>
</trkpt>
<trkpt lat="45.8884840" lon="10.2835770">
	<ele>1882.20</ele>
	<time>2025-07-29T07:57:58.000Z</time>
</trkpt>
<trkpt lat="45.8884800" lon="10.2835720">
	<ele>1882.40</ele>
	<time>2025-07-29T07:57:59.000Z</time>
</trkpt>
<trkpt lat="45.8884770" lon="10.2835710">
	<ele>1882.40</ele>
	<time>2025-07-29T07:58:00.000Z</time>
</trkpt>
<trkpt lat="45.8884760" lon="10.2835700">
	<ele>1882.80</ele>
	<time>2025-07-29T07:58:01.000Z</time>
</trkpt>
<trkpt lat="45.8884730" lon="10.2835670">
	<ele>1882.80</ele>
	<time>2025-07-29T07:58:02.000Z</time>
</trkpt>
<trkpt lat="45.8884670" lon="10.2835620">
	<ele>1883.00</ele>
	<time>2025-07-29T07:58:03.000Z</time>
</trkpt>
<trkpt lat="45.8884640" lon="10.2835580">
	<ele>1883.00</ele>
	<time>2025-07-29T07:58:04.000Z</time>
</trkpt>
<trkpt lat="45.8884610" lon="10.2835550">
	<ele>1883.20</ele>
	<time>2025-07-29T07:58:05.000Z</time>
</trkpt>
<trkpt lat="45.8884560" lon="10.2835510">
	<ele>1883.40</ele>
	<time>2025-07-29T07:58:06.000Z</time>
</trkpt>
<trkpt lat="45.8884510" lon="10.2835470">
	<ele>1883.60</ele>
	<time>2025-07-29T07:58:07.000Z</time>
</trkpt>
<trkpt lat="45.8884480" lon="10.2835440">
	<ele>1883.80</ele>
	<time>2025-07-29T07:58:08.000Z</time>
</trkpt>
<trkpt lat="45.8884430" lon="10.2835400">
	<ele>1884.00</ele>
	<time>2025-07-29T07:58:09.000Z</time>
</trkpt>
<trkpt lat="45.8884380" lon="10.2835370">
	<ele>1884.00</ele>
	<time>2025-07-29T07:58:10.000Z</time>
</trkpt>
<trkpt lat="45.8884300" lon="10.2835340">
	<ele>1884.20</ele>
	<time>2025-07-29T07:58:11.000Z</time>
</trkpt>
<trkpt lat="45.8884240" lon="10.2835320">
	<ele>1884.20</ele>
	<time>2025-07-29T07:58:12.000Z</time>
</trkpt>
<trkpt lat="45.8884170" lon="10.2835270">
	<ele>1884.40</ele>
	<time>2025-07-29T07:58:13.000Z</time>
</trkpt>
<trkpt lat="45.8884150" lon="10.2835240">
	<ele>1884.60</ele>
	<time>2025-07-29T07:58:14.000Z</time>
</trkpt>
<trkpt lat="45.8884130" lon="10.2835230">
	<ele>1884.80</ele>
	<time>2025-07-29T07:58:15.000Z</time>
</trkpt>
<trkpt lat="45.8884110" lon="10.2835180">
	<ele>1885.20</ele>
	<time>2025-07-29T07:58:16.000Z</time>
</trkpt>
<trkpt lat="45.8884110" lon="10.2835170">
	<ele>1885.40</ele>
	<time>2025-07-29T07:58:17.000Z</time>
</trkpt>
<trkpt lat="45.8884110" lon="10.2835130">
	<ele>1885.40</ele>
	<time>2025-07-29T07:58:18.000Z</time>
</trkpt>
<trkpt lat="45.8884090" lon="10.2835090">
	<ele>1885.60</ele>
	<time>2025-07-29T07:58:19.000Z</time>
</trkpt>
<trkpt lat="45.8884040" lon="10.2835030">
	<ele>1885.80</ele>
	<time>2025-07-29T07:58:20.000Z</time>
</trkpt>
<trkpt lat="45.8884020" lon="10.2834970">
	<ele>1886.00</ele>
	<time>2025-07-29T07:58:21.000Z</time>
</trkpt>
<trkpt lat="45.8884010" lon="10.2834920">
	<ele>1886.20</ele>
	<time>2025-07-29T07:58:22.000Z</time>
</trkpt>
<trkpt lat="45.8883960" lon="10.2834850">
	<ele>1886.40</ele>
	<time>2025-07-29T07:58:23.000Z</time>
</trkpt>
<trkpt lat="45.8883930" lon="10.2834790">
	<ele>1886.60</ele>
	<time>2025-07-29T07:58:24.000Z</time>
</trkpt>
<trkpt lat="45.8883850" lon="10.2834720">
	<ele>1886.60</ele>
	<time>2025-07-29T07:58:25.000Z</time>
</trkpt>
<trkpt lat="45.8883830" lon="10.2834700">
	<ele>1886.80</ele>
	<time>2025-07-29T07:58:26.000Z</time>
</trkpt>
<trkpt lat="45.8883800" lon="10.2834650">
	<ele>1887.00</ele>
	<time>2025-07-29T07:58:27.000Z</time>
</trkpt>
<trkpt lat="45.8883770" lon="10.2834620">
	<ele>1887.00</ele>
	<time>2025-07-29T07:58:28.000Z</time>
</trkpt>
<trkpt lat="45.8883700" lon="10.2834590">
	<ele>1887.20</ele>
	<time>2025-07-29T07:58:29.000Z</time>
</trkpt>
<trkpt lat="45.8883660" lon="10.2834560">
	<ele>1887.40</ele>
	<time>2025-07-29T07:58:30.000Z</time>
</trkpt>
<trkpt lat="45.8883620" lon="10.2834530">
	<ele>1887.60</ele>
	<time>2025-07-29T07:58:31.000Z</time>
</trkpt>
<trkpt lat="45.8883590" lon="10.2834490">
	<ele>1887.80</ele>
	<time>2025-07-29T07:58:32.000Z</time>
</trkpt>
<trkpt lat="45.8883560" lon="10.2834460">
	<ele>1887.80</ele>
	<time>2025-07-29T07:58:33.000Z</time>
</trkpt>
<trkpt lat="45.8883540" lon="10.2834410">
	<ele>1888.00</ele>
	<time>2025-07-29T07:58:34.000Z</time>
</trkpt>
<trkpt lat="45.8883510" lon="10.2834370">
	<ele>1888.00</ele>
	<time>2025-07-29T07:58:35.000Z</time>
</trkpt>
<trkpt lat="45.8883450" lon="10.2834330">
	<ele>1888.00</ele>
	<time>2025-07-29T07:58:36.000Z</time>
</trkpt>
<trkpt lat="45.8883400" lon="10.2834320">
	<ele>1888.20</ele>
	<time>2025-07-29T07:58:37.000Z</time>
</trkpt>
<trkpt lat="45.8883320" lon="10.2834330">
	<ele>1888.40</ele>
	<time>2025-07-29T07:58:38.000Z</time>
</trkpt>
<trkpt lat="45.8883230" lon="10.2834320">
	<ele>1888.40</ele>
	<time>2025-07-29T07:58:39.000Z</time>
</trkpt>
<trkpt lat="45.8883170" lon="10.2834310">
	<ele>1888.60</ele>
	<time>2025-07-29T07:58:40.000Z</time>
</trkpt>
<trkpt lat="45.8883170" lon="10.2834330">
	<ele>1888.80</ele>
	<time>2025-07-29T07:58:41.000Z</time>
</trkpt>
<trkpt lat="45.8883130" lon="10.2834330">
	<ele>1889.00</ele>
	<time>2025-07-29T07:58:42.000Z</time>
</trkpt>
<trkpt lat="45.8883070" lon="10.2834330">
	<ele>1889.20</ele>
	<time>2025-07-29T07:58:43.000Z</time>
</trkpt>
<trkpt lat="45.8883030" lon="10.2834340">
	<ele>1889.40</ele>
	<time>2025-07-29T07:58:44.000Z</time>
</trkpt>
<trkpt lat="45.8882990" lon="10.2834340">
	<ele>1889.40</ele>
	<time>2025-07-29T07:58:45.000Z</time>
</trkpt>
<trkpt lat="45.8882950" lon="10.2834390">
	<ele>1889.60</ele>
	<time>2025-07-29T07:58:46.000Z</time>
</trkpt>
<trkpt lat="45.8882890" lon="10.2834390">
	<ele>1889.80</ele>
	<time>2025-07-29T07:58:47.000Z</time>
</trkpt>
<trkpt lat="45.8882820" lon="10.2834410">
	<ele>1890.00</ele>
	<time>2025-07-29T07:58:48.000Z</time>
</trkpt>
<trkpt lat="45.8882780" lon="10.2834410">
	<ele>1890.20</ele>
	<time>2025-07-29T07:58:49.000Z</time>
</trkpt>
<trkpt lat="45.8882740" lon="10.2834410">
	<ele>1890.40</ele>
	<time>2025-07-29T07:58:50.000Z</time>
</trkpt>
<trkpt lat="45.8882700" lon="10.2834400">
	<ele>1890.60</ele>
	<time>2025-07-29T07:58:51.000Z</time>
</trkpt>
<trkpt lat="45.8882680" lon="10.2834400">
	<ele>1890.80</ele>
	<time>2025-07-29T07:58:52.000Z</time>
</trkpt>
<trkpt lat="45.8882640" lon="10.2834410">
	<ele>1891.00</ele>
	<time>2025-07-29T07:58:53.000Z</time>
</trkpt>
<trkpt lat="45.8882590" lon="10.2834420">
	<ele>1891.20</ele>
	<time>2025-07-29T07:58:54.000Z</time>
</trkpt>
<trkpt lat="45.8882540" lon="10.2834430">
	<ele>1891.40</ele>
	<time>2025-07-29T07:58:55.000Z</time>
</trkpt>
<trkpt lat="45.8882510" lon="10.2834440">
	<ele>1891.60</ele>
	<time>2025-07-29T07:58:56.000Z</time>
</trkpt>
<trkpt lat="45.8882470" lon="10.2834450">
	<ele>1891.80</ele>
	<time>2025-07-29T07:58:57.000Z</time>
</trkpt>
<trkpt lat="45.8882460" lon="10.2834450">
	<ele>1892.00</ele>
	<time>2025-07-29T07:58:58.000Z</time>
</trkpt>
<trkpt lat="45.8882450" lon="10.2834420">
	<ele>1892.20</ele>
	<time>2025-07-29T07:58:59.000Z</time>
</trkpt>
<trkpt lat="45.8882400" lon="10.2834360">
	<ele>1892.40</ele>
	<time>2025-07-29T07:59:00.000Z</time>
</trkpt>
<trkpt lat="45.8882380" lon="10.2834320">
	<ele>1892.40</ele>
	<time>2025-07-29T07:59:01.000Z</time>
</trkpt>
<trkpt lat="45.8882410" lon="10.2834320">
	<ele>1892.80</ele>
	<time>2025-07-29T07:59:02.000Z</time>
</trkpt>
<trkpt lat="45.8882350" lon="10.2834310">
	<ele>1893.00</ele>
	<time>2025-07-29T07:59:03.000Z</time>
</trkpt>
<trkpt lat="45.8882300" lon="10.2834200">
	<ele>1893.20</ele>
	<time>2025-07-29T07:59:04.000Z</time>
</trkpt>
<trkpt lat="45.8882270" lon="10.2834180">
	<ele>1893.40</ele>
	<time>2025-07-29T07:59:05.000Z</time>
</trkpt>
<trkpt lat="45.8882260" lon="10.2834150">
	<ele>1893.60</ele>
	<time>2025-07-29T07:59:06.000Z</time>
</trkpt>
<trkpt lat="45.8882250" lon="10.2834160">
	<ele>1893.60</ele>
	<time>2025-07-29T07:59:07.000Z</time>
</trkpt>
<trkpt lat="45.8882180" lon="10.2834140">
	<ele>1893.80</ele>
	<time>2025-07-29T07:59:08.000Z</time>
</trkpt>
<trkpt lat="45.8882120" lon="10.2834090">
	<ele>1893.80</ele>
	<time>2025-07-29T07:59:09.000Z</time>
</trkpt>
<trkpt lat="45.8882070" lon="10.2834040">
	<ele>1894.00</ele>
	<time>2025-07-29T07:59:10.000Z</time>
</trkpt>
<trkpt lat="45.8882030" lon="10.2833980">
	<ele>1894.00</ele>
	<time>2025-07-29T07:59:11.000Z</time>
</trkpt>
<trkpt lat="45.8881980" lon="10.2833920">
	<ele>1894.00</ele>
	<time>2025-07-29T07:59:12.000Z</time>
</trkpt>
<trkpt lat="45.8881960" lon="10.2833900">
	<ele>1894.20</ele>
	<time>2025-07-29T07:59:13.000Z</time>
</trkpt>
<trkpt lat="45.8881960" lon="10.2833810">
	<ele>1894.40</ele>
	<time>2025-07-29T07:59:14.000Z</time>
</trkpt>
<trkpt lat="45.8881990" lon="10.2833730">
	<ele>1894.80</ele>
	<time>2025-07-29T07:59:15.000Z</time>
</trkpt>
<trkpt lat="45.8882010" lon="10.2833680">
	<ele>1895.00</ele>
	<time>2025-07-29T07:59:16.000Z</time>
</trkpt>
<trkpt lat="45.8882040" lon="10.2833630">
	<ele>1895.20</ele>
	<time>2025-07-29T07:59:17.000Z</time>
</trkpt>
<trkpt lat="45.8882060" lon="10.2833610">
	<ele>1895.20</ele>
	<time>2025-07-29T07:59:18.000Z</time>
</trkpt>
<trkpt lat="45.8882100" lon="10.2833590">
	<ele>1895.40</ele>
	<time>2025-07-29T07:59:19.000Z</time>
</trkpt>
<trkpt lat="45.8882130" lon="10.2833590">
	<ele>1895.40</ele>
	<time>2025-07-29T07:59:20.000Z</time>
</trkpt>
<trkpt lat="45.8882140" lon="10.2833570">
	<ele>1895.60</ele>
	<time>2025-07-29T07:59:21.000Z</time>
</trkpt>
<trkpt lat="45.8882180" lon="10.2833560">
	<ele>1895.60</ele>
	<time>2025-07-29T07:59:22.000Z</time>
</trkpt>
<trkpt lat="45.8882210" lon="10.2833530">
	<ele>1895.80</ele>
	<time>2025-07-29T07:59:23.000Z</time>
</trkpt>
<trkpt lat="45.8882250" lon="10.2833510">
	<ele>1896.00</ele>
	<time>2025-07-29T07:59:24.000Z</time>
</trkpt>
<trkpt lat="45.8882260" lon="10.2833520">
	<ele>1896.00</ele>
	<time>2025-07-29T07:59:25.000Z</time>
</trkpt>
<trkpt lat="45.8882290" lon="10.2833480">
	<ele>1896.20</ele>
	<time>2025-07-29T07:59:26.000Z</time>
</trkpt>
<trkpt lat="45.8882330" lon="10.2833430">
	<ele>1896.40</ele>
	<time>2025-07-29T07:59:27.000Z</time>
</trkpt>
<trkpt lat="45.8882360" lon="10.2833360">
	<ele>1896.40</ele>
	<time>2025-07-29T07:59:28.000Z</time>
</trkpt>
<trkpt lat="45.8882380" lon="10.2833240">
	<ele>1896.60</ele>
	<time>2025-07-29T07:59:29.000Z</time>
</trkpt>
<trkpt lat="45.8882430" lon="10.2833140">
	<ele>1896.60</ele>
	<time>2025-07-29T07:59:30.000Z</time>
</trkpt>
<trkpt lat="45.8882500" lon="10.2833100">
	<ele>1896.80</ele>
	<time>2025-07-29T07:59:31.000Z</time>
</trkpt>
<trkpt lat="45.8882500" lon="10.2833070">
	<ele>1896.80</ele>
	<time>2025-07-29T07:59:32.000Z</time>
</trkpt>
<trkpt lat="45.8882490" lon="10.2833010">
	<ele>1897.00</ele>
	<time>2025-07-29T07:59:33.000Z</time>
</trkpt>
<trkpt lat="45.8882440" lon="10.2832950">
	<ele>1897.20</ele>
	<time>2025-07-29T07:59:34.000Z</time>
</trkpt>
<trkpt lat="45.8882390" lon="10.2832910">
	<ele>1897.40</ele>
	<time>2025-07-29T07:59:35.000Z</time>
</trkpt>
<trkpt lat="45.8882340" lon="10.2832830">
	<ele>1897.80</ele>
	<time>2025-07-29T07:59:36.000Z</time>
</trkpt>
<trkpt lat="45.8882310" lon="10.2832840">
	<ele>1898.20</ele>
	<time>2025-07-29T07:59:37.000Z</time>
</trkpt>
<trkpt lat="45.8882290" lon="10.2832850">
	<ele>1898.40</ele>
	<time>2025-07-29T07:59:38.000Z</time>
</trkpt>
<trkpt lat="45.8882280" lon="10.2832830">
	<ele>1898.60</ele>
	<time>2025-07-29T07:59:39.000Z</time>
</trkpt>
<trkpt lat="45.8882300" lon="10.2832840">
	<ele>1898.80</ele>
	<time>2025-07-29T07:59:40.000Z</time>
</trkpt>
<trkpt lat="45.8882300" lon="10.2832860">
	<ele>1898.80</ele>
	<time>2025-07-29T07:59:41.000Z</time>
</trkpt>
<trkpt lat="45.8882300" lon="10.2832870">
	<ele>1898.80</ele>
	<time>2025-07-29T07:59:42.000Z</time>
</trkpt>
<trkpt lat="45.8882270" lon="10.2832900">
	<ele>1899.00</ele>
	<time>2025-07-29T07:59:43.000Z</time>
</trkpt>
<trkpt lat="45.8882240" lon="10.2832930">
	<ele>1899.00</ele>
	<time>2025-07-29T07:59:44.000Z</time>
</trkpt>
<trkpt lat="45.8882230" lon="10.2832940">
	<ele>1899.00</ele>
	<time>2025-07-29T07:59:45.000Z</time>
</trkpt>
<trkpt lat="45.8882220" lon="10.2832960">
	<ele>1899.20</ele>
	<time>2025-07-29T07:59:46.000Z</time>
</trkpt>
<trkpt lat="45.8882220" lon="10.2833040">
	<ele>1899.20</ele>
	<time>2025-07-29T07:59:47.000Z</time>
</trkpt>
<trkpt lat="45.8882220" lon="10.2833080">
	<ele>1899.20</ele>
	<time>2025-07-29T07:59:48.000Z</time>
</trkpt>
<trkpt lat="45.8882200" lon="10.2833060">
	<ele>1899.40</ele>
	<time>2025-07-29T07:59:49.000Z</time>
</trkpt>
<trkpt lat="45.8882180" lon="10.2833070">
	<ele>1899.40</ele>
	<time>2025-07-29T07:59:50.000Z</time>
</trkpt>
<trkpt lat="45.8882180" lon="10.2833080">
	<ele>1899.60</ele>
	<time>2025-07-29T07:59:51.000Z</time>
</trkpt>
<trkpt lat="45.8882180" lon="10.2833080">
	<ele>1899.60</ele>
	<time>2025-07-29T07:59:52.000Z</time>
</trkpt>
<trkpt lat="45.8882180" lon="10.2833080">
	<ele>1899.60</ele>
	<time>2025-07-29T07:59:53.000Z</time>
</trkpt>
<trkpt lat="45.8882180" lon="10.2833080">
	<ele>1899.60</ele>
	<time>2025-07-29T07:59:54.000Z</time>
</trkpt>
<trkpt lat="45.8882180" lon="10.2833080">
	<ele>1899.60</ele>
	<time>2025-07-29T07:59:55.000Z</time>
</trkpt>
<trkpt lat="45.8882180" lon="10.2833080">
	<ele>1899.60</ele>
	<time>2025-07-29T07:59:56.000Z</time>
</trkpt>
<trkpt lat="45.8882180" lon="10.2833080">
	<ele>1899.60</ele>
	<time>2025-07-29T07:59:57.000Z</time>
</trkpt>
<trkpt lat="45.8882180" lon="10.2833080">
	<ele>1899.60</ele>
	<time>2025-07-29T07:59:58.000Z</time>
</trkpt>
<trkpt lat="45.8882180" lon="10.2833080">
	<ele>1899.40</ele>
	<time>2025-07-29T07:59:59.000Z</time>
</trkpt>
<trkpt lat="45.8882190" lon="10.2833080">
	<ele>1899.40</ele>
	<time>2025-07-29T08:00:00.000Z</time>
</trkpt>
<trkpt lat="45.8882200" lon="10.2833080">
	<ele>1899.40</ele>
	<time>2025-07-29T08:00:01.000Z</time>
</trkpt>
<trkpt lat="45.8882200" lon="10.2833070">
	<ele>1899.60</ele>
	<time>2025-07-29T08:00:02.000Z</time>
</trkpt>
<trkpt lat="45.8882210" lon="10.2833070">
	<ele>1899.60</ele>
	<time>2025-07-29T08:00:03.000Z</time>
</trkpt>
<trkpt lat="45.8882220" lon="10.2833060">
	<ele>1899.60</ele>
	<time>2025-07-29T08:00:04.000Z</time>
</trkpt>
<trkpt lat="45.8882220" lon="10.2833040">
	<ele>1899.80</ele>
	<time>2025-07-29T08:00:05.000Z</time>
</trkpt>
<trkpt lat="45.8882220" lon="10.2833000">
	<ele>1900.20</ele>
	<time>2025-07-29T08:00:06.000Z</time>
</trkpt>
<trkpt lat="45.8882230" lon="10.2832970">
	<ele>1900.60</ele>
	<time>2025-07-29T08:00:07.000Z</time>
</trkpt>
<trkpt lat="45.8882240" lon="10.2832940">
	<ele>1901.00</ele>
	<time>2025-07-29T08:00:08.000Z</time>
</trkpt>
<trkpt lat="45.8882250" lon="10.2832930">
	<ele>1901.20</ele>
	<time>2025-07-29T08:00:09.000Z</time>
</trkpt>
<trkpt lat="45.8882260" lon="10.2832920">
	<ele>1901.40</ele>
	<time>2025-07-29T08:00:10.000Z</time>
</trkpt>
<trkpt lat="45.8882270" lon="10.2832920">
	<ele>1901.60</ele>
	<time>2025-07-29T08:00:11.000Z</time>
</trkpt>
<trkpt lat="45.8882270" lon="10.2832900">
	<ele>1901.80</ele>
	<time>2025-07-29T08:00:12.000Z</time>
</trkpt>
<trkpt lat="45.8882360" lon="10.2832800">
	<ele>1901.80</ele>
	<time>2025-07-29T08:00:13.000Z</time>
</trkpt>
<trkpt lat="45.8882510" lon="10.2832600">
	<ele>1901.80</ele>
	<time>2025-07-29T08:00:14.000Z</time>
</trkpt>
<trkpt lat="45.8882670" lon="10.2832420">
	<ele>1902.20</ele>
	<time>2025-07-29T08:00:15.000Z</time>
</trkpt>
<trkpt lat="45.8882850" lon="10.2832300">
	<ele>1902.40</ele>
	<time>2025-07-29T08:00:16.000Z</time>
</trkpt>
<trkpt lat="45.8883040" lon="10.2832090">
	<ele>1902.60</ele>
	<time>2025-07-29T08:00:17.000Z</time>
</trkpt>
<trkpt lat="45.8883170" lon="10.2831900">
	<ele>1902.80</ele>
	<time>2025-07-29T08:00:18.000Z</time>
</trkpt>
<trkpt lat="45.8883240" lon="10.2831660">
	<ele>1902.80</ele>
	<time>2025-07-29T08:00:19.000Z</time>
</trkpt>
<trkpt lat="45.8883320" lon="10.2831460">
	<ele>1903.00</ele>
	<time>2025-07-29T08:00:20.000Z</time>
</trkpt>
<trkpt lat="45.8883470" lon="10.2831270">
	<ele>1903.00</ele>
	<time>2025-07-29T08:00:21.000Z</time>
</trkpt>
<trkpt lat="45.8883610" lon="10.2831090">
	<ele>1903.20</ele>
	<time>2025-07-29T08:00:22.000Z</time>
</trkpt>
<trkpt lat="45.8883650" lon="10.2830960">
	<ele>1903.20</ele>
	<time>2025-07-29T08:00:23.000Z</time>
</trkpt>
<trkpt lat="45.8883630" lon="10.2830850">
	<ele>1903.40</ele>
	<time>2025-07-29T08:00:24.000Z</time>
</trkpt>
<trkpt lat="45.8883650" lon="10.2830760">
	<ele>1903.60</ele>
	<time>2025-07-29T08:00:25.000Z</time>
</trkpt>
<trkpt lat="45.8883690" lon="10.2830670">
	<ele>1903.80</ele>
	<time>2025-07-29T08:00:26.000Z</time>
</trkpt>
<trkpt lat="45.8883750" lon="10.2830620">
	<ele>1904.00</ele>
	<time>2025-07-29T08:00:27.000Z</time>
</trkpt>
<trkpt lat="45.8883800" lon="10.2830560">
	<ele>1904.00</ele>
	<time>2025-07-29T08:00:28.000Z</time>
</trkpt>
<trkpt lat="45.8883860" lon="10.2830500">
	<ele>1904.20</ele>
	<time>2025-07-29T08:00:29.000Z</time>
</trkpt>
<trkpt lat="45.8883880" lon="10.2830420">
	<ele>1904.20</ele>
	<time>2025-07-29T08:00:30.000Z</time>
</trkpt>
<trkpt lat="45.8883920" lon="10.2830350">
	<ele>1904.40</ele>
	<time>2025-07-29T08:00:31.000Z</time>
</trkpt>
<trkpt lat="45.8884000" lon="10.2830290">
	<ele>1904.60</ele>
	<time>2025-07-29T08:00:32.000Z</time>
</trkpt>
<trkpt lat="45.8884030" lon="10.2830200">
	<ele>1904.80</ele>
	<time>2025-07-29T08:00:33.000Z</time>
</trkpt>
<trkpt lat="45.8884060" lon="10.2830120">
	<ele>1905.00</ele>
	<time>2025-07-29T08:00:34.000Z</time>
</trkpt>
<trkpt lat="45.8884080" lon="10.2830030">
	<ele>1905.20</ele>
	<time>2025-07-29T08:00:35.000Z</time>
</trkpt>
<trkpt lat="45.8884120" lon="10.2829930">
	<ele>1905.40</ele>
	<time>2025-07-29T08:00:36.000Z</time>
</trkpt>
<trkpt lat="45.8884190" lon="10.2829850">
	<ele>1905.40</ele>
	<time>2025-07-29T08:00:37.000Z</time>
</trkpt>
<trkpt lat="45.8884260" lon="10.2829750">
	<ele>1905.60</ele>
	<time>2025-07-29T08:00:38.000Z</time>
</trkpt>
<trkpt lat="45.8884290" lon="10.2829690">
	<ele>1905.80</ele>
	<time>2025-07-29T08:00:39.000Z</time>
</trkpt>
<trkpt lat="45.8884300" lon="10.2829650">
	<ele>1905.80</ele>
	<time>2025-07-29T08:00:40.000Z</time>
</trkpt>
<trkpt lat="45.8884330" lon="10.2829600">
	<ele>1906.00</ele>
	<time>2025-07-29T08:00:41.000Z</time>
</trkpt>
<trkpt lat="45.8884340" lon="10.2829550">
	<ele>1906.20</ele>
	<time>2025-07-29T08:00:42.000Z</time>
</trkpt>
<trkpt lat="45.8884360" lon="10.2829490">
	<ele>1906.40</ele>
	<time>2025-07-29T08:00:43.000Z</time>
</trkpt>
<trkpt lat="45.8884410" lon="10.2829410">
	<ele>1906.40</ele>
	<time>2025-07-29T08:00:44.000Z</time>
</trkpt>
<trkpt lat="45.8884460" lon="10.2829330">
	<ele>1906.60</ele>
	<time>2025-07-29T08:00:45.000Z</time>
</trkpt>
<trkpt lat="45.8884510" lon="10.2829250">
	<ele>1906.80</ele>
	<time>2025-07-29T08:00:46.000Z</time>
</trkpt>
<trkpt lat="45.8884560" lon="10.2829200">
	<ele>1906.80</ele>
	<time>2025-07-29T08:00:47.000Z</time>
</trkpt>
<trkpt lat="45.8884580" lon="10.2829150">
	<ele>1906.80</ele>
	<time>2025-07-29T08:00:48.000Z</time>
</trkpt>
<trkpt lat="45.8884620" lon="10.2829100">
	<ele>1906.80</ele>
	<time>2025-07-29T08:00:49.000Z</time>
</trkpt>
<trkpt lat="45.8884680" lon="10.2829020">
	<ele>1907.00</ele>
	<time>2025-07-29T08:00:50.000Z</time>
</trkpt>
<trkpt lat="45.8884720" lon="10.2828930">
	<ele>1907.00</ele>
	<time>2025-07-29T08:00:51.000Z</time>
</trkpt>
<trkpt lat="45.8884780" lon="10.2828870">
	<ele>1907.00</ele>
	<time>2025-07-29T08:00:52.000Z</time>
</trkpt>
<trkpt lat="45.8884880" lon="10.2828840">
	<ele>1907.40</ele>
	<time>2025-07-29T08:00:53.000Z</time>
</trkpt>
<trkpt lat="45.8884950" lon="10.2828780">
	<ele>1907.80</ele>
	<time>2025-07-29T08:00:54.000Z</time>
</trkpt>
<trkpt lat="45.8884990" lon="10.2828690">
	<ele>1908.20</ele>
	<time>2025-07-29T08:00:55.000Z</time>
</trkpt>
<trkpt lat="45.8885030" lon="10.2828590">
	<ele>1908.20</ele>
	<time>2025-07-29T08:00:56.000Z</time>
</trkpt>
<trkpt lat="45.8885040" lon="10.2828490">
	<ele>1908.20</ele>
	<time>2025-07-29T08:00:57.000Z</time>
</trkpt>
<trkpt lat="45.8885070" lon="10.2828410">
	<ele>1908.20</ele>
	<time>2025-07-29T08:00:58.000Z</time>
</trkpt>
<trkpt lat="45.8885080" lon="10.2828330">
	<ele>1908.20</ele>
	<time>2025-07-29T08:00:59.000Z</time>
</trkpt>
<trkpt lat="45.8885140" lon="10.2828250">
	<ele>1908.20</ele>
	<time>2025-07-29T08:01:00.000Z</time>
</trkpt>
<trkpt lat="45.8885190" lon="10.2828140">
	<ele>1908.20</ele>
	<time>2025-07-29T08:01:01.000Z</time>
</trkpt>
<trkpt lat="45.8885240" lon="10.2828050">
	<ele>1908.40</ele>
	<time>2025-07-29T08:01:02.000Z</time>
</trkpt>
<trkpt lat="45.8885290" lon="10.2827970">
	<ele>1908.80</ele>
	<time>2025-07-29T08:01:03.000Z</time>
</trkpt>
<trkpt lat="45.8885330" lon="10.2827900">
	<ele>1909.00</ele>
	<time>2025-07-29T08:01:04.000Z</time>
</trkpt>
<trkpt lat="45.8885420" lon="10.2827860">
	<ele>1909.20</ele>
	<time>2025-07-29T08:01:05.000Z</time>
</trkpt>
<trkpt lat="45.8885440" lon="10.2827770">
	<ele>1909.60</ele>
	<time>2025-07-29T08:01:06.000Z</time>
</trkpt>
<trkpt lat="45.8885500" lon="10.2827700">
	<ele>1909.80</ele>
	<time>2025-07-29T08:01:07.000Z</time>
</trkpt>
<trkpt lat="45.8885520" lon="10.2827630">
	<ele>1910.00</ele>
	<time>2025-07-29T08:01:08.000Z</time>
</trkpt>
<trkpt lat="45.8885580" lon="10.2827550">
	<ele>1910.20</ele>
	<time>2025-07-29T08:01:09.000Z</time>
</trkpt>
<trkpt lat="45.8885650" lon="10.2827490">
	<ele>1910.40</ele>
	<time>2025-07-29T08:01:10.000Z</time>
</trkpt>
<trkpt lat="45.8885710" lon="10.2827420">
	<ele>1910.40</ele>
	<time>2025-07-29T08:01:11.000Z</time>
</trkpt>
<trkpt lat="45.8885770" lon="10.2827340">
	<ele>1910.40</ele>
	<time>2025-07-29T08:01:12.000Z</time>
</trkpt>
<trkpt lat="45.8885800" lon="10.2827270">
	<ele>1910.40</ele>
	<time>2025-07-29T08:01:13.000Z</time>
</trkpt>
<trkpt lat="45.8885840" lon="10.2827170">
	<ele>1910.40</ele>
	<time>2025-07-29T08:01:14.000Z</time>
</trkpt>
<trkpt lat="45.8885880" lon="10.2827130">
	<ele>1911.20</ele>
	<time>2025-07-29T08:01:15.000Z</time>
</trkpt>
<trkpt lat="45.8885960" lon="10.2827070">
	<ele>1911.80</ele>
	<time>2025-07-29T08:01:16.000Z</time>
</trkpt>
<trkpt lat="45.8886030" lon="10.2827030">
	<ele>1912.20</ele>
	<time>2025-07-29T08:01:17.000Z</time>
</trkpt>
<trkpt lat="45.8886060" lon="10.2826950">
	<ele>1912.40</ele>
	<time>2025-07-29T08:01:18.000Z</time>
</trkpt>
<trkpt lat="45.8886080" lon="10.2826860">
	<ele>1912.80</ele>
	<time>2025-07-29T08:01:19.000Z</time>
</trkpt>
<trkpt lat="45.8886100" lon="10.2826790">
	<ele>1913.00</ele>
	<time>2025-07-29T08:01:20.000Z</time>
</trkpt>
<trkpt lat="45.8886110" lon="10.2826700">
	<ele>1913.00</ele>
	<time>2025-07-29T08:01:21.000Z</time>
</trkpt>
<trkpt lat="45.8886100" lon="10.2826670">
	<ele>1913.20</ele>
	<time>2025-07-29T08:01:22.000Z</time>
</trkpt>
<trkpt lat="45.8886100" lon="10.2826690">
	<ele>1913.20</ele>
	<time>2025-07-29T08:01:23.000Z</time>
</trkpt>
<trkpt lat="45.8886130" lon="10.2826680">
	<ele>1913.40</ele>
	<time>2025-07-29T08:01:24.000Z</time>
</trkpt>
<trkpt lat="45.8886190" lon="10.2826620">
	<ele>1913.60</ele>
	<time>2025-07-29T08:01:25.000Z</time>
</trkpt>
<trkpt lat="45.8886270" lon="10.2826530">
	<ele>1913.60</ele>
	<time>2025-07-29T08:01:26.000Z</time>
</trkpt>
<trkpt lat="45.8886320" lon="10.2826460">
	<ele>1913.60</ele>
	<time>2025-07-29T08:01:27.000Z</time>
</trkpt>
<trkpt lat="45.8886360" lon="10.2826380">
	<ele>1913.60</ele>
	<time>2025-07-29T08:01:28.000Z</time>
</trkpt>
<trkpt lat="45.8886410" lon="10.2826310">
	<ele>1913.80</ele>
	<time>2025-07-29T08:01:29.000Z</time>
</trkpt>
<trkpt lat="45.8886440" lon="10.2826210">
	<ele>1913.80</ele>
	<time>2025-07-29T08:01:30.000Z</time>
</trkpt>
<trkpt lat="45.8886490" lon="10.2826140">
	<ele>1913.80</ele>
	<time>2025-07-29T08:01:31.000Z</time>
</trkpt>
<trkpt lat="45.8886540" lon="10.2826070">
	<ele>1914.00</ele>
	<time>2025-07-29T08:01:32.000Z</time>
</trkpt>
<trkpt lat="45.8886580" lon="10.2825990">
	<ele>1914.20</ele>
	<time>2025-07-29T08:01:33.000Z</time>
</trkpt>
<trkpt lat="45.8886620" lon="10.2825910">
	<ele>1914.20</ele>
	<time>2025-07-29T08:01:34.000Z</time>
</trkpt>
<trkpt lat="45.8886650" lon="10.2825830">
	<ele>1914.20</ele>
	<time>2025-07-29T08:01:35.000Z</time>
</trkpt>
<trkpt lat="45.8886710" lon="10.2825730">
	<ele>1914.20</ele>
	<time>2025-07-29T08:01:36.000Z</time>
</trkpt>
<trkpt lat="45.8886780" lon="10.2825630">
	<ele>1914.20</ele>
	<time>2025-07-29T08:01:37.000Z</time>
</trkpt>
<trkpt lat="45.8886830" lon="10.2825550">
	<ele>1914.20</ele>
	<time>2025-07-29T08:01:38.000Z</time>
</trkpt>
<trkpt lat="45.8886920" lon="10.2825500">
	<ele>1914.40</ele>
	<time>2025-07-29T08:01:39.000Z</time>
</trkpt>
<trkpt lat="45.8887020" lon="10.2825420">
	<ele>1914.60</ele>
	<time>2025-07-29T08:01:40.000Z</time>
</trkpt>
<trkpt lat="45.8887090" lon="10.2825310">
	<ele>1914.80</ele>
	<time>2025-07-29T08:01:41.000Z</time>
</trkpt>
<trkpt lat="45.8887120" lon="10.2825170">
	<ele>1915.20</ele>
	<time>2025-07-29T08:01:42.000Z</time>
</trkpt>
<trkpt lat="45.8887140" lon="10.2825010">
	<ele>1915.40</ele>
	<time>2025-07-29T08:01:43.000Z</time>
</trkpt>
<trkpt lat="45.8887160" lon="10.2824880">
	<ele>1915.60</ele>
	<time>2025-07-29T08:01:44.000Z</time>
</trkpt>
<trkpt lat="45.8887160" lon="10.2824830">
	<ele>1915.80</ele>
	<time>2025-07-29T08:01:45.000Z</time>
</trkpt>
<trkpt lat="45.8887180" lon="10.2824800">
	<ele>1916.00</ele>
	<time>2025-07-29T08:01:46.000Z</time>
</trkpt>
<trkpt lat="45.8887180" lon="10.2824800">
	<ele>1916.00</ele>
	<time>2025-07-29T08:01:47.000Z</time>
</trkpt>
<trkpt lat="45.8887160" lon="10.2824790">
	<ele>1916.00</ele>
	<time>2025-07-29T08:01:48.000Z</time>
</trkpt>
<trkpt lat="45.8887140" lon="10.2824790">
	<ele>1916.00</ele>
	<time>2025-07-29T08:01:49.000Z</time>
</trkpt>
<trkpt lat="45.8887120" lon="10.2824790">
	<ele>1916.20</ele>
	<time>2025-07-29T08:01:50.000Z</time>
</trkpt>
<trkpt lat="45.8887010" lon="10.2824770">
	<ele>1916.00</ele>
	<time>2025-07-29T08:01:51.000Z</time>
</trkpt>
<trkpt lat="45.8886900" lon="10.2824750">
	<ele>1916.00</ele>
	<time>2025-07-29T08:01:52.000Z</time>
</trkpt>
<trkpt lat="45.8886790" lon="10.2824760">
	<ele>1916.00</ele>
	<time>2025-07-29T08:01:53.000Z</time>
</trkpt>
<trkpt lat="45.8886730" lon="10.2824780">
	<ele>1916.20</ele>
	<time>2025-07-29T08:01:54.000Z</time>
</trkpt>
<trkpt lat="45.8886650" lon="10.2824760">
	<ele>1916.20</ele>
	<time>2025-07-29T08:01:55.000Z</time>
</trkpt>
<trkpt lat="45.8886570" lon="10.2824650">
	<ele>1916.20</ele>
	<time>2025-07-29T08:01:56.000Z</time>
</trkpt>
<trkpt lat="45.8886470" lon="10.2824560">
	<ele>1916.20</ele>
	<time>2025-07-29T08:01:57.000Z</time>
</trkpt>
<trkpt lat="45.8886410" lon="10.2824470">
	<ele>1916.40</ele>
	<time>2025-07-29T08:01:58.000Z</time>
</trkpt>
<trkpt lat="45.8886380" lon="10.2824350">
	<ele>1916.40</ele>
	<time>2025-07-29T08:01:59.000Z</time>
</trkpt>
<trkpt lat="45.8886380" lon="10.2824240">
	<ele>1916.60</ele>
	<time>2025-07-29T08:02:00.000Z</time>
</trkpt>
<trkpt lat="45.8886330" lon="10.2824140">
	<ele>1916.80</ele>
	<time>2025-07-29T08:02:01.000Z</time>
</trkpt>
<trkpt lat="45.8886230" lon="10.2824040">
	<ele>1917.00</ele>
	<time>2025-07-29T08:02:02.000Z</time>
</trkpt>
<trkpt lat="45.8886210" lon="10.2824010">
	<ele>1917.00</ele>
	<time>2025-07-29T08:02:03.000Z</time>
</trkpt>
<trkpt lat="45.8886160" lon="10.2823930">
	<ele>1917.00</ele>
	<time>2025-07-29T08:02:04.000Z</time>
</trkpt>
<trkpt lat="45.8886100" lon="10.2823890">
	<ele>1917.20</ele>
	<time>2025-07-29T08:02:05.000Z</time>
</trkpt>
<trkpt lat="45.8886080" lon="10.2823800">
	<ele>1917.20</ele>
	<time>2025-07-29T08:02:06.000Z</time>
</trkpt>
<trkpt lat="45.8886070" lon="10.2823750">
	<ele>1917.40</ele>
	<time>2025-07-29T08:02:07.000Z</time>
</trkpt>
<trkpt lat="45.8886070" lon="10.2823720">
	<ele>1917.60</ele>
	<time>2025-07-29T08:02:08.000Z</time>
</trkpt>
<trkpt lat="45.8886050" lon="10.2823710">
	<ele>1917.80</ele>
	<time>2025-07-29T08:02:09.000Z</time>
</trkpt>
<trkpt lat="45.8886050" lon="10.2823730">
	<ele>1918.00</ele>
	<time>2025-07-29T08:02:10.000Z</time>
</trkpt>
<trkpt lat="45.8886070" lon="10.2823770">
	<ele>1918.20</ele>
	<time>2025-07-29T08:02:11.000Z</time>
</trkpt>
<trkpt lat="45.8886070" lon="10.2823780">
	<ele>1918.40</ele>
	<time>2025-07-29T08:02:12.000Z</time>
</trkpt>
<trkpt lat="45.8886110" lon="10.2823810">
	<ele>1918.40</ele>
	<time>2025-07-29T08:02:13.000Z</time>
</trkpt>
<trkpt lat="45.8886140" lon="10.2823810">
	<ele>1918.40</ele>
	<time>2025-07-29T08:02:14.000Z</time>
</trkpt>
<trkpt lat="45.8886180" lon="10.2823790">
	<ele>1918.40</ele>
	<time>2025-07-29T08:02:15.000Z</time>
</trkpt>
<trkpt lat="45.8886230" lon="10.2823780">
	<ele>1918.40</ele>
	<time>2025-07-29T08:02:16.000Z</time>
</trkpt>
<trkpt lat="45.8886250" lon="10.2823750">
	<ele>1918.40</ele>
	<time>2025-07-29T08:02:17.000Z</time>
</trkpt>
<trkpt lat="45.8886290" lon="10.2823720">
	<ele>1918.20</ele>
	<time>2025-07-29T08:02:18.000Z</time>
</trkpt>
<trkpt lat="45.8886310" lon="10.2823740">
	<ele>1917.60</ele>
	<time>2025-07-29T08:02:19.000Z</time>
</trkpt>
<trkpt lat="45.8886350" lon="10.2823730">
	<ele>1917.40</ele>
	<time>2025-07-29T08:02:20.000Z</time>
</trkpt>
<trkpt lat="45.8886380" lon="10.2823690">
	<ele>1917.20</ele>
	<time>2025-07-29T08:02:21.000Z</time>
</trkpt>
<trkpt lat="45.8886390" lon="10.2823660">
	<ele>1917.40</ele>
	<time>2025-07-29T08:02:22.000Z</time>
</trkpt>
<trkpt lat="45.8886410" lon="10.2823640">
	<ele>1917.40</ele>
	<time>2025-07-29T08:02:23.000Z</time>
</trkpt>
<trkpt lat="45.8886370" lon="10.2823580">
	<ele>1917.20</ele>
	<time>2025-07-29T08:02:24.000Z</time>
</trkpt>
<trkpt lat="45.8886420" lon="10.2823540">
	<ele>1917.20</ele>
	<time>2025-07-29T08:02:25.000Z</time>
</trkpt>
<trkpt lat="45.8886460" lon="10.2823450">
	<ele>1917.20</ele>
	<time>2025-07-29T08:02:26.000Z</time>
</trkpt>
<trkpt lat="45.8886500" lon="10.2823340">
	<ele>1917.20</ele>
	<time>2025-07-29T08:02:27.000Z</time>
</trkpt>
<trkpt lat="45.8886560" lon="10.2823270">
	<ele>1917.20</ele>
	<time>2025-07-29T08:02:28.000Z</time>
</trkpt>
<trkpt lat="45.8886600" lon="10.2823180">
	<ele>1917.20</ele>
	<time>2025-07-29T08:02:29.000Z</time>
</trkpt>
<trkpt lat="45.8886630" lon="10.2823110">
	<ele>1917.20</ele>
	<time>2025-07-29T08:02:30.000Z</time>
</trkpt>
<trkpt lat="45.8886650" lon="10.2823060">
	<ele>1917.20</ele>
	<time>2025-07-29T08:02:31.000Z</time>
</trkpt>
<trkpt lat="45.8886620" lon="10.2822970">
	<ele>1917.60</ele>
	<time>2025-07-29T08:02:32.000Z</time>
</trkpt>
<trkpt lat="45.8886610" lon="10.2822860">
	<ele>1917.80</ele>
	<time>2025-07-29T08:02:33.000Z</time>
</trkpt>
<trkpt lat="45.8886590" lon="10.2822750">
	<ele>1917.80</ele>
	<time>2025-07-29T08:02:34.000Z</time>
</trkpt>
<trkpt lat="45.8886590" lon="10.2822700">
	<ele>1918.00</ele>
	<time>2025-07-29T08:02:35.000Z</time>
</trkpt>
<trkpt lat="45.8886540" lon="10.2822620">
	<ele>1918.00</ele>
	<time>2025-07-29T08:02:36.000Z</time>
</trkpt>
<trkpt lat="45.8886480" lon="10.2822540">
	<ele>1918.00</ele>
	<time>2025-07-29T08:02:37.000Z</time>
</trkpt>
<trkpt lat="45.8886480" lon="10.2822550">
	<ele>1918.00</ele>
	<time>2025-07-29T08:02:38.000Z</time>
</trkpt>
<trkpt lat="45.8886500" lon="10.2822540">
	<ele>1918.20</ele>
	<time>2025-07-29T08:02:39.000Z</time>
</trkpt>
<trkpt lat="45.8886520" lon="10.2822530">
	<ele>1918.40</ele>
	<time>2025-07-29T08:02:40.000Z</time>
</trkpt>
<trkpt lat="45.8886530" lon="10.2822530">
	<ele>1918.40</ele>
	<time>2025-07-29T08:02:41.000Z</time>
</trkpt>
<trkpt lat="45.8886540" lon="10.2822530">
	<ele>1918.60</ele>
	<time>2025-07-29T08:02:42.000Z</time>
</trkpt>
<trkpt lat="45.8886530" lon="10.2822540">
	<ele>1918.60</ele>
	<time>2025-07-29T08:02:43.000Z</time>
</trkpt>
<trkpt lat="45.8886530" lon="10.2822540">
	<ele>1918.60</ele>
	<time>2025-07-29T08:02:44.000Z</time>
</trkpt>
<trkpt lat="45.8886550" lon="10.2822560">
	<ele>1918.60</ele>
	<time>2025-07-29T08:02:45.000Z</time>
</trkpt>
<trkpt lat="45.8886550" lon="10.2822580">
	<ele>1918.60</ele>
	<time>2025-07-29T08:02:46.000Z</time>
</trkpt>
<trkpt lat="45.8886540" lon="10.2822590">
	<ele>1918.60</ele>
	<time>2025-07-29T08:02:47.000Z</time>
</trkpt>
<trkpt lat="45.8886550" lon="10.2822600">
	<ele>1918.60</ele>
	<time>2025-07-29T08:02:48.000Z</time>
</trkpt>
<trkpt lat="45.8886560" lon="10.2822600">
	<ele>1918.60</ele>
	<time>2025-07-29T08:02:49.000Z</time>
</trkpt>
<trkpt lat="45.8886560" lon="10.2822600">
	<ele>1918.60</ele>
	<time>2025-07-29T08:02:50.000Z</time>
</trkpt>
<trkpt lat="45.8886560" lon="10.2822600">
	<ele>1918.40</ele>
	<time>2025-07-29T08:02:51.000Z</time>
</trkpt>
<trkpt lat="45.8886560" lon="10.2822600">
	<ele>1918.40</ele>
	<time>2025-07-29T08:02:52.000Z</time>
</trkpt>
<trkpt lat="45.8886560" lon="10.2822600">
	<ele>1918.40</ele>
	<time>2025-07-29T08:02:53.000Z</time>
</trkpt>
<trkpt lat="45.8886560" lon="10.2822600">
	<ele>1918.40</ele>
	<time>2025-07-29T08:02:54.000Z</time>
</trkpt>
<trkpt lat="45.8886560" lon="10.2822600">
	<ele>1918.40</ele>
	<time>2025-07-29T08:02:55.000Z</time>
</trkpt>
<trkpt lat="45.8886560" lon="10.2822600">
	<ele>1918.40</ele>
	<time>2025-07-29T08:02:56.000Z</time>
</trkpt>
<trkpt lat="45.8886560" lon="10.2822600">
	<ele>1918.40</ele>
	<time>2025-07-29T08:02:57.000Z</time>
</trkpt>
<trkpt lat="45.8886560" lon="10.2822600">
	<ele>1918.40</ele>
	<time>2025-07-29T08:02:58.000Z</time>
</trkpt>
<trkpt lat="45.8886560" lon="10.2822600">
	<ele>1918.20</ele>
	<time>2025-07-29T08:02:59.000Z</time>
</trkpt>
<trkpt lat="45.8886560" lon="10.2822600">
	<ele>1918.20</ele>
	<time>2025-07-29T08:03:00.000Z</time>
</trkpt>
<trkpt lat="45.8886560" lon="10.2822600">
	<ele>1918.20</ele>
	<time>2025-07-29T08:03:01.000Z</time>
</trkpt>
<trkpt lat="45.8886560" lon="10.2822600">
	<ele>1917.80</ele>
	<time>2025-07-29T08:03:02.000Z</time>
</trkpt>
<trkpt lat="45.8886560" lon="10.2822600">
	<ele>1917.80</ele>
	<time>2025-07-29T08:03:03.000Z</time>
</trkpt>
<trkpt lat="45.8886560" lon="10.2822600">
	<ele>1917.60</ele>
	<time>2025-07-29T08:03:04.000Z</time>
</trkpt>
<trkpt lat="45.8886560" lon="10.2822600">
	<ele>1917.60</ele>
	<time>2025-07-29T08:03:05.000Z</time>
</trkpt>
<trkpt lat="45.8886560" lon="10.2822600">
	<ele>1917.80</ele>
	<time>2025-07-29T08:03:06.000Z</time>
</trkpt>
<trkpt lat="45.8886560" lon="10.2822600">
	<ele>1917.80</ele>
	<time>2025-07-29T08:03:07.000Z</time>
</trkpt>
<trkpt lat="45.8886560" lon="10.2822600">
	<ele>1917.80</ele>
	<time>2025-07-29T08:03:08.000Z</time>
</trkpt>
<trkpt lat="45.8886560" lon="10.2822590">
	<ele>1917.60</ele>
	<time>2025-07-29T08:03:09.000Z</time>
</trkpt>
<trkpt lat="45.8886560" lon="10.2822580">
	<ele>1917.60</ele>
	<time>2025-07-29T08:03:10.000Z</time>
</trkpt>
<trkpt lat="45.8886570" lon="10.2822580">
	<ele>1917.60</ele>
	<time>2025-07-29T08:03:11.000Z</time>
</trkpt>
<trkpt lat="45.8886580" lon="10.2822570">
	<ele>1917.40</ele>
	<time>2025-07-29T08:03:12.000Z</time>
</trkpt>
<trkpt lat="45.8886580" lon="10.2822560">
	<ele>1917.20</ele>
	<time>2025-07-29T08:03:13.000Z</time>
</trkpt>
<trkpt lat="45.8886590" lon="10.2822560">
	<ele>1917.00</ele>
	<time>2025-07-29T08:03:14.000Z</time>
</trkpt>
<trkpt lat="45.8886630" lon="10.2822510">
	<ele>1916.80</ele>
	<time>2025-07-29T08:03:15.000Z</time>
</trkpt>
<trkpt lat="45.8886740" lon="10.2822360">
	<ele>1916.80</ele>
	<time>2025-07-29T08:03:16.000Z</time>
</trkpt>
<trkpt lat="45.8886840" lon="10.2822190">
	<ele>1916.80</ele>
	<time>2025-07-29T08:03:17.000Z</time>
</trkpt>
<trkpt lat="45.8886950" lon="10.2822020">
	<ele>1916.80</ele>
	<time>2025-07-29T08:03:18.000Z</time>
</trkpt>
<trkpt lat="45.8887050" lon="10.2821890">
	<ele>1916.60</ele>
	<time>2025-07-29T08:03:19.000Z</time>
</trkpt>
<trkpt lat="45.8887160" lon="10.2821800">
	<ele>1916.60</ele>
	<time>2025-07-29T08:03:20.000Z</time>
</trkpt>
<trkpt lat="45.8887270" lon="10.2821710">
	<ele>1916.80</ele>
	<time>2025-07-29T08:03:21.000Z</time>
</trkpt>
<trkpt lat="45.8887390" lon="10.2821600">
	<ele>1916.80</ele>
	<time>2025-07-29T08:03:22.000Z</time>
</trkpt>
<trkpt lat="45.8887510" lon="10.2821470">
	<ele>1916.80</ele>
	<time>2025-07-29T08:03:23.000Z</time>
</trkpt>
<trkpt lat="45.8887610" lon="10.2821330">
	<ele>1917.00</ele>
	<time>2025-07-29T08:03:24.000Z</time>
</trkpt>
<trkpt lat="45.8887700" lon="10.2821270">
	<ele>1917.00</ele>
	<time>2025-07-29T08:03:25.000Z</time>
</trkpt>
<trkpt lat="45.8887800" lon="10.2821250">
	<ele>1917.00</ele>
	<time>2025-07-29T08:03:26.000Z</time>
</trkpt>
<trkpt lat="45.8887910" lon="10.2821200">
	<ele>1917.20</ele>
	<time>2025-07-29T08:03:27.000Z</time>
</trkpt>
<trkpt lat="45.8888010" lon="10.2821130">
	<ele>1917.20</ele>
	<time>2025-07-29T08:03:28.000Z</time>
</trkpt>
<trkpt lat="45.8888080" lon="10.2821090">
	<ele>1917.20</ele>
	<time>2025-07-29T08:03:29.000Z</time>
</trkpt>
<trkpt lat="45.8888160" lon="10.2821080">
	<ele>1917.20</ele>
	<time>2025-07-29T08:03:30.000Z</time>
</trkpt>
<trkpt lat="45.8888260" lon="10.2821070">
	<ele>1917.20</ele>
	<time>2025-07-29T08:03:31.000Z</time>
</trkpt>
<trkpt lat="45.8888400" lon="10.2821130">
	<ele>1917.40</ele>
	<time>2025-07-29T08:03:32.000Z</time>
</trkpt>
<trkpt lat="45.8888460" lon="10.2821150">
	<ele>1917.40</ele>
	<time>2025-07-29T08:03:33.000Z</time>
</trkpt>
<trkpt lat="45.8888530" lon="10.2821190">
	<ele>1917.60</ele>
	<time>2025-07-29T08:03:34.000Z</time>
</trkpt>
<trkpt lat="45.8888550" lon="10.2821190">
	<ele>1917.60</ele>
	<time>2025-07-29T08:03:35.000Z</time>
</trkpt>
<trkpt lat="45.8888560" lon="10.2821190">
	<ele>1917.80</ele>
	<time>2025-07-29T08:03:36.000Z</time>
</trkpt>
<trkpt lat="45.8888570" lon="10.2821180">
	<ele>1917.80</ele>
	<time>2025-07-29T08:03:37.000Z</time>
</trkpt>
<trkpt lat="45.8888580" lon="10.2821180">
	<ele>1917.80</ele>
	<time>2025-07-29T08:03:38.000Z</time>
</trkpt>
<trkpt lat="45.8888580" lon="10.2821170">
	<ele>1918.00</ele>
	<time>2025-07-29T08:03:39.000Z</time>
</trkpt>
<trkpt lat="45.8888580" lon="10.2821160">
	<ele>1918.00</ele>
	<time>2025-07-29T08:03:40.000Z</time>
</trkpt>
<trkpt lat="45.8888590" lon="10.2821170">
	<ele>1918.00</ele>
	<time>2025-07-29T08:03:41.000Z</time>
</trkpt>
<trkpt lat="45.8888600" lon="10.2821190">
	<ele>1918.00</ele>
	<time>2025-07-29T08:03:42.000Z</time>
</trkpt>
<trkpt lat="45.8888610" lon="10.2821220">
	<ele>1918.00</ele>
	<time>2025-07-29T08:03:43.000Z</time>
</trkpt>
<trkpt lat="45.8888610" lon="10.2821240">
	<ele>1917.80</ele>
	<time>2025-07-29T08:03:44.000Z</time>
</trkpt>
<trkpt lat="45.8888640" lon="10.2821220">
	<ele>1917.80</ele>
	<time>2025-07-29T08:03:45.000Z</time>
</trkpt>
<trkpt lat="45.8888720" lon="10.2821160">
	<ele>1917.80</ele>
	<time>2025-07-29T08:03:46.000Z</time>
</trkpt>
<trkpt lat="45.8888820" lon="10.2821110">
	<ele>1917.60</ele>
	<time>2025-07-29T08:03:47.000Z</time>
</trkpt>
<trkpt lat="45.8888880" lon="10.2820980">
	<ele>1917.60</ele>
	<time>2025-07-29T08:03:48.000Z</time>
</trkpt>
<trkpt lat="45.8888900" lon="10.2820890">
	<ele>1917.60</ele>
	<time>2025-07-29T08:03:49.000Z</time>
</trkpt>
<trkpt lat="45.8888950" lon="10.2820820">
	<ele>1917.60</ele>
	<time>2025-07-29T08:03:50.000Z</time>
</trkpt>
<trkpt lat="45.8889060" lon="10.2820800">
	<ele>1917.40</ele>
	<time>2025-07-29T08:03:51.000Z</time>
</trkpt>
<trkpt lat="45.8889170" lon="10.2820770">
	<ele>1917.40</ele>
	<time>2025-07-29T08:03:52.000Z</time>
</trkpt>
<trkpt lat="45.8889240" lon="10.2820770">
	<ele>1917.40</ele>
	<time>2025-07-29T08:03:53.000Z</time>
</trkpt>
<trkpt lat="45.8889280" lon="10.2820820">
	<ele>1917.20</ele>
	<time>2025-07-29T08:03:54.000Z</time>
</trkpt>
<trkpt lat="45.8889310" lon="10.2820920">
	<ele>1917.00</ele>
	<time>2025-07-29T08:03:55.000Z</time>
</trkpt>
<trkpt lat="45.8889350" lon="10.2821030">
	<ele>1916.40</ele>
	<time>2025-07-29T08:03:56.000Z</time>
</trkpt>
<trkpt lat="45.8889390" lon="10.2821050">
	<ele>1916.20</ele>
	<time>2025-07-29T08:03:57.000Z</time>
</trkpt>
<trkpt lat="45.8889420" lon="10.2821060">
	<ele>1916.00</ele>
	<time>2025-07-29T08:03:58.000Z</time>
</trkpt>
<trkpt lat="45.8889440" lon="10.2821070">
	<ele>1915.80</ele>
	<time>2025-07-29T08:03:59.000Z</time>
</trkpt>
<trkpt lat="45.8889400" lon="10.2821090">
	<ele>1915.80</ele>
	<time>2025-07-29T08:04:00.000Z</time>
</trkpt>
<trkpt lat="45.8889390" lon="10.2821090">
	<ele>1915.60</ele>
	<time>2025-07-29T08:04:01.000Z</time>
</trkpt>
<trkpt lat="45.8889360" lon="10.2821090">
	<ele>1915.60</ele>
	<time>2025-07-29T08:04:02.000Z</time>
</trkpt>
<trkpt lat="45.8889330" lon="10.2821100">
	<ele>1915.60</ele>
	<time>2025-07-29T08:04:03.000Z</time>
</trkpt>
<trkpt lat="45.8889320" lon="10.2821130">
	<ele>1915.60</ele>
	<time>2025-07-29T08:04:04.000Z</time>
</trkpt>
<trkpt lat="45.8889330" lon="10.2821150">
	<ele>1915.60</ele>
	<time>2025-07-29T08:04:05.000Z</time>
</trkpt>
<trkpt lat="45.8889320" lon="10.2821150">
	<ele>1915.60</ele>
	<time>2025-07-29T08:04:06.000Z</time>
</trkpt>
<trkpt lat="45.8889310" lon="10.2821170">
	<ele>1915.60</ele>
	<time>2025-07-29T08:04:07.000Z</time>
</trkpt>
<trkpt lat="45.8889310" lon="10.2821180">
	<ele>1915.60</ele>
	<time>2025-07-29T08:04:08.000Z</time>
</trkpt>
<trkpt lat="45.8889310" lon="10.2821180">
	<ele>1915.60</ele>
	<time>2025-07-29T08:04:09.000Z</time>
</trkpt>
<trkpt lat="45.8889310" lon="10.2821180">
	<ele>1915.60</ele>
	<time>2025-07-29T08:04:10.000Z</time>
</trkpt>
<trkpt lat="45.8889310" lon="10.2821180">
	<ele>1915.60</ele>
	<time>2025-07-29T08:04:11.000Z</time>
</trkpt>
<trkpt lat="45.8889310" lon="10.2821180">
	<ele>1915.60</ele>
	<time>2025-07-29T08:04:12.000Z</time>
</trkpt>
<trkpt lat="45.8889310" lon="10.2821180">
	<ele>1915.60</ele>
	<time>2025-07-29T08:04:13.000Z</time>
</trkpt>
<trkpt lat="45.8889310" lon="10.2821180">
	<ele>1916.00</ele>
	<time>2025-07-29T08:04:14.000Z</time>
</trkpt>
<trkpt lat="45.8889310" lon="10.2821180">
	<ele>1916.20</ele>
	<time>2025-07-29T08:04:15.000Z</time>
</trkpt>
<trkpt lat="45.8889310" lon="10.2821180">
	<ele>1916.20</ele>
	<time>2025-07-29T08:04:16.000Z</time>
</trkpt>
<trkpt lat="45.8889310" lon="10.2821180">
	<ele>1916.20</ele>
	<time>2025-07-29T08:04:17.000Z</time>
</trkpt>
<trkpt lat="45.8889320" lon="10.2821180">
	<ele>1916.40</ele>
	<time>2025-07-29T08:04:18.000Z</time>
</trkpt>
<trkpt lat="45.8889320" lon="10.2821180">
	<ele>1916.40</ele>
	<time>2025-07-29T08:04:19.000Z</time>
</trkpt>
<trkpt lat="45.8889320" lon="10.2821180">
	<ele>1916.40</ele>
	<time>2025-07-29T08:04:20.000Z</time>
</trkpt>
<trkpt lat="45.8889320" lon="10.2821180">
	<ele>1916.20</ele>
	<time>2025-07-29T08:04:21.000Z</time>
</trkpt>
<trkpt lat="45.8889320" lon="10.2821170">
	<ele>1916.20</ele>
	<time>2025-07-29T08:04:22.000Z</time>
</trkpt>
<trkpt lat="45.8889320" lon="10.2821170">
	<ele>1916.20</ele>
	<time>2025-07-29T08:04:23.000Z</time>
</trkpt>
<trkpt lat="45.8889310" lon="10.2821120">
	<ele>1916.20</ele>
	<time>2025-07-29T08:04:24.000Z</time>
</trkpt>
<trkpt lat="45.8889280" lon="10.2821000">
	<ele>1916.40</ele>
	<time>2025-07-29T08:04:25.000Z</time>
</trkpt>
<trkpt lat="45.8889270" lon="10.2820940">
	<ele>1916.60</ele>
	<time>2025-07-29T08:04:26.000Z</time>
</trkpt>
<trkpt lat="45.8889280" lon="10.2820910">
	<ele>1916.80</ele>
	<time>2025-07-29T08:04:27.000Z</time>
</trkpt>
<trkpt lat="45.8889270" lon="10.2820870">
	<ele>1916.80</ele>
	<time>2025-07-29T08:04:28.000Z</time>
</trkpt>
<trkpt lat="45.8889270" lon="10.2820830">
	<ele>1917.00</ele>
	<time>2025-07-29T08:04:29.000Z</time>
</trkpt>
<trkpt lat="45.8889270" lon="10.2820800">
	<ele>1917.00</ele>
	<time>2025-07-29T08:04:30.000Z</time>
</trkpt>
<trkpt lat="45.8889260" lon="10.2820740">
	<ele>1917.00</ele>
	<time>2025-07-29T08:04:31.000Z</time>
</trkpt>
<trkpt lat="45.8889240" lon="10.2820690">
	<ele>1917.00</ele>
	<time>2025-07-29T08:04:32.000Z</time>
</trkpt>
<trkpt lat="45.8889230" lon="10.2820640">
	<ele>1917.00</ele>
	<time>2025-07-29T08:04:33.000Z</time>
</trkpt>
<trkpt lat="45.8889230" lon="10.2820640">
	<ele>1916.80</ele>
	<time>2025-07-29T08:04:34.000Z</time>
</trkpt>
<trkpt lat="45.8889230" lon="10.2820640">
	<ele>1916.80</ele>
	<time>2025-07-29T08:04:35.000Z</time>
</trkpt>
<trkpt lat="45.8889230" lon="10.2820640">
	<ele>1916.80</ele>
	<time>2025-07-29T08:04:36.000Z</time>
</trkpt>
<trkpt lat="45.8889230" lon="10.2820640">
	<ele>1916.60</ele>
	<time>2025-07-29T08:04:37.000Z</time>
</trkpt>
<trkpt lat="45.8889230" lon="10.2820640">
	<ele>1916.60</ele>
	<time>2025-07-29T08:04:38.000Z</time>
</trkpt>
<trkpt lat="45.8889230" lon="10.2820640">
	<ele>1916.60</ele>
	<time>2025-07-29T08:04:39.000Z</time>
</trkpt>
<trkpt lat="45.8889230" lon="10.2820640">
	<ele>1916.60</ele>
	<time>2025-07-29T08:04:40.000Z</time>
</trkpt>
<trkpt lat="45.8889230" lon="10.2820640">
	<ele>1916.40</ele>
	<time>2025-07-29T08:04:41.000Z</time>
</trkpt>
<trkpt lat="45.8889230" lon="10.2820640">
	<ele>1916.40</ele>
	<time>2025-07-29T08:04:42.000Z</time>
</trkpt>
<trkpt lat="45.8889230" lon="10.2820640">
	<ele>1916.20</ele>
	<time>2025-07-29T08:04:43.000Z</time>
</trkpt>
<trkpt lat="45.8889230" lon="10.2820640">
	<ele>1916.00</ele>
	<time>2025-07-29T08:04:44.000Z</time>
</trkpt>
<trkpt lat="45.8889230" lon="10.2820640">
	<ele>1915.80</ele>
	<time>2025-07-29T08:04:45.000Z</time>
</trkpt>
<trkpt lat="45.8889220" lon="10.2820640">
	<ele>1915.80</ele>
	<time>2025-07-29T08:04:46.000Z</time>
</trkpt>
<trkpt lat="45.8889220" lon="10.2820640">
	<ele>1915.80</ele>
	<time>2025-07-29T08:04:47.000Z</time>
</trkpt>
<trkpt lat="45.8889220" lon="10.2820650">
	<ele>1915.80</ele>
	<time>2025-07-29T08:04:48.000Z</time>
</trkpt>
<trkpt lat="45.8889210" lon="10.2820650">
	<ele>1916.00</ele>
	<time>2025-07-29T08:04:49.000Z</time>
</trkpt>
<trkpt lat="45.8889200" lon="10.2820650">
	<ele>1916.00</ele>
	<time>2025-07-29T08:04:50.000Z</time>
</trkpt>
<trkpt lat="45.8889190" lon="10.2820660">
	<ele>1916.00</ele>
	<time>2025-07-29T08:04:51.000Z</time>
</trkpt>
<trkpt lat="45.8889180" lon="10.2820670">
	<ele>1916.20</ele>
	<time>2025-07-29T08:04:52.000Z</time>
</trkpt>
<trkpt lat="45.8889150" lon="10.2820670">
	<ele>1916.20</ele>
	<time>2025-07-29T08:04:53.000Z</time>
</trkpt>
<trkpt lat="45.8889140" lon="10.2820670">
	<ele>1917.00</ele>
	<time>2025-07-29T08:04:54.000Z</time>
</trkpt>
<trkpt lat="45.8889140" lon="10.2820680">
	<ele>1917.00</ele>
	<time>2025-07-29T08:04:55.000Z</time>
</trkpt>
<trkpt lat="45.8889140" lon="10.2820680">
	<ele>1917.00</ele>
	<time>2025-07-29T08:04:56.000Z</time>
</trkpt>
<trkpt lat="45.8889130" lon="10.2820680">
	<ele>1917.00</ele>
	<time>2025-07-29T08:04:57.000Z</time>
</trkpt>
<trkpt lat="45.8889130" lon="10.2820690">
	<ele>1917.00</ele>
	<time>2025-07-29T08:04:58.000Z</time>
</trkpt>
<trkpt lat="45.8889130" lon="10.2820690">
	<ele>1917.00</ele>
	<time>2025-07-29T08:04:59.000Z</time>
</trkpt>
<trkpt lat="45.8889130" lon="10.2820690">
	<ele>1917.00</ele>
	<time>2025-07-29T08:05:00.000Z</time>
</trkpt>
<trkpt lat="45.8889130" lon="10.2820690">
	<ele>1917.00</ele>
	<time>2025-07-29T08:05:01.000Z</time>
</trkpt>
<trkpt lat="45.8889120" lon="10.2820700">
	<ele>1917.00</ele>
	<time>2025-07-29T08:05:02.000Z</time>
</trkpt>
<trkpt lat="45.8889120" lon="10.2820700">
	<ele>1917.00</ele>
	<time>2025-07-29T08:05:03.000Z</time>
</trkpt>
<trkpt lat="45.8889120" lon="10.2820700">
	<ele>1917.00</ele>
	<time>2025-07-29T08:05:04.000Z</time>
</trkpt>
<trkpt lat="45.8889120" lon="10.2820710">
	<ele>1917.00</ele>
	<time>2025-07-29T08:05:05.000Z</time>
</trkpt>
<trkpt lat="45.8889120" lon="10.2820730">
	<ele>1917.00</ele>
	<time>2025-07-29T08:05:06.000Z</time>
</trkpt>
<trkpt lat="45.8889120" lon="10.2820760">
	<ele>1917.00</ele>
	<time>2025-07-29T08:05:07.000Z</time>
</trkpt>
<trkpt lat="45.8889120" lon="10.2820760">
	<ele>1917.00</ele>
	<time>2025-07-29T08:05:08.000Z</time>
</trkpt>
<trkpt lat="45.8889120" lon="10.2820780">
	<ele>1917.00</ele>
	<time>2025-07-29T08:05:09.000Z</time>
</trkpt>
<trkpt lat="45.8889110" lon="10.2820810">
	<ele>1917.00</ele>
	<time>2025-07-29T08:05:10.000Z</time>
</trkpt>
<trkpt lat="45.8889110" lon="10.2820900">
	<ele>1917.00</ele>
	<time>2025-07-29T08:05:11.000Z</time>
</trkpt>
<trkpt lat="45.8889110" lon="10.2821000">
	<ele>1917.00</ele>
	<time>2025-07-29T08:05:12.000Z</time>
</trkpt>
<trkpt lat="45.8889110" lon="10.2821110">
	<ele>1917.00</ele>
	<time>2025-07-29T08:05:13.000Z</time>
</trkpt>
<trkpt lat="45.8889110" lon="10.2821220">
	<ele>1917.00</ele>
	<time>2025-07-29T08:05:14.000Z</time>
</trkpt>
<trkpt lat="45.8889100" lon="10.2821320">
	<ele>1917.00</ele>
	<time>2025-07-29T08:05:15.000Z</time>
</trkpt>
<trkpt lat="45.8889070" lon="10.2821390">
	<ele>1917.00</ele>
	<time>2025-07-29T08:05:16.000Z</time>
</trkpt>
<trkpt lat="45.8889060" lon="10.2821440">
	<ele>1917.00</ele>
	<time>2025-07-29T08:05:17.000Z</time>
</trkpt>
<trkpt lat="45.8889050" lon="10.2821490">
	<ele>1917.00</ele>
	<time>2025-07-29T08:05:18.000Z</time>
</trkpt>
<trkpt lat="45.8889040" lon="10.2821520">
	<ele>1917.00</ele>
	<time>2025-07-29T08:05:19.000Z</time>
</trkpt>
<trkpt lat="45.8889030" lon="10.2821540">
	<ele>1917.00</ele>
	<time>2025-07-29T08:05:20.000Z</time>
</trkpt>
<trkpt lat="45.8889030" lon="10.2821550">
	<ele>1917.00</ele>
	<time>2025-07-29T08:05:21.000Z</time>
</trkpt>
<trkpt lat="45.8889010" lon="10.2821600">
	<ele>1917.00</ele>
	<time>2025-07-29T08:05:22.000Z</time>
</trkpt>
<trkpt lat="45.8889000" lon="10.2821650">
	<ele>1917.00</ele>
	<time>2025-07-29T08:05:23.000Z</time>
</trkpt>
<trkpt lat="45.8888960" lon="10.2821680">
	<ele>1917.00</ele>
	<time>2025-07-29T08:05:24.000Z</time>
</trkpt>
<trkpt lat="45.8888920" lon="10.2821690">
	<ele>1917.00</ele>
	<time>2025-07-29T08:05:25.000Z</time>
</trkpt>
<trkpt lat="45.8888910" lon="10.2821700">
	<ele>1917.00</ele>
	<time>2025-07-29T08:05:26.000Z</time>
</trkpt>
<trkpt lat="45.8888910" lon="10.2821700">
	<ele>1917.00</ele>
	<time>2025-07-29T08:05:27.000Z</time>
</trkpt>
<trkpt lat="45.8888910" lon="10.2821700">
	<ele>1917.00</ele>
	<time>2025-07-29T08:05:28.000Z</time>
</trkpt>
<trkpt lat="45.8888910" lon="10.2821710">
	<ele>1917.00</ele>
	<time>2025-07-29T08:05:29.000Z</time>
</trkpt>
<trkpt lat="45.8888910" lon="10.2821710">
	<ele>1917.00</ele>
	<time>2025-07-29T08:05:30.000Z</time>
</trkpt>
<trkpt lat="45.8888910" lon="10.2821710">
	<ele>1917.00</ele>
	<time>2025-07-29T08:05:31.000Z</time>
</trkpt>
<trkpt lat="45.8888910" lon="10.2821710">
	<ele>1917.00</ele>
	<time>2025-07-29T08:05:32.000Z</time>
</trkpt>
<trkpt lat="45.8888910" lon="10.2821710">
	<ele>1917.00</ele>
	<time>2025-07-29T08:05:33.000Z</time>
</trkpt>
<trkpt lat="45.8888910" lon="10.2821710">
	<ele>1917.00</ele>
	<time>2025-07-29T08:05:34.000Z</time>
</trkpt>
<trkpt lat="45.8888910" lon="10.2821720">
	<ele>1917.00</ele>
	<time>2025-07-29T08:05:35.000Z</time>
</trkpt>
<trkpt lat="45.8888910" lon="10.2821720">
	<ele>1917.00</ele>
	<time>2025-07-29T08:05:36.000Z</time>
</trkpt>
<trkpt lat="45.8888910" lon="10.2821720">
	<ele>1917.00</ele>
	<time>2025-07-29T08:05:37.000Z</time>
</trkpt>
<trkpt lat="45.8888910" lon="10.2821720">
	<ele>1917.00</ele>
	<time>2025-07-29T08:05:38.000Z</time>
</trkpt>
<trkpt lat="45.8888910" lon="10.2821720">
	<ele>1917.00</ele>
	<time>2025-07-29T08:05:39.000Z</time>
</trkpt>
<trkpt lat="45.8888910" lon="10.2821720">
	<ele>1917.00</ele>
	<time>2025-07-29T08:05:40.000Z</time>
</trkpt>
<trkpt lat="45.8888910" lon="10.2821720">
	<ele>1917.00</ele>
	<time>2025-07-29T08:05:41.000Z</time>
</trkpt>
<trkpt lat="45.8888910" lon="10.2821710">
	<ele>1917.00</ele>
	<time>2025-07-29T08:05:42.000Z</time>
</trkpt>
<trkpt lat="45.8888910" lon="10.2821710">
	<ele>1917.00</ele>
	<time>2025-07-29T08:05:43.000Z</time>
</trkpt>
<trkpt lat="45.8888920" lon="10.2821710">
	<ele>1917.00</ele>
	<time>2025-07-29T08:05:44.000Z</time>
</trkpt>
<trkpt lat="45.8888940" lon="10.2821710">
	<ele>1917.00</ele>
	<time>2025-07-29T08:05:45.000Z</time>
</trkpt>
<trkpt lat="45.8888950" lon="10.2821710">
	<ele>1917.00</ele>
	<time>2025-07-29T08:05:46.000Z</time>
</trkpt>
<trkpt lat="45.8888950" lon="10.2821710">
	<ele>1917.00</ele>
	<time>2025-07-29T08:05:47.000Z</time>
</trkpt>
<trkpt lat="45.8888960" lon="10.2821710">
	<ele>1917.00</ele>
	<time>2025-07-29T08:05:48.000Z</time>
</trkpt>
<trkpt lat="45.8888960" lon="10.2821710">
	<ele>1917.00</ele>
	<time>2025-07-29T08:05:49.000Z</time>
</trkpt>
<trkpt lat="45.8888960" lon="10.2821710">
	<ele>1917.00</ele>
	<time>2025-07-29T08:05:50.000Z</time>
</trkpt>
<trkpt lat="45.8888970" lon="10.2821710">
	<ele>1917.00</ele>
	<time>2025-07-29T08:05:51.000Z</time>
</trkpt>
<trkpt lat="45.8888980" lon="10.2821710">
	<ele>1917.00</ele>
	<time>2025-07-29T08:05:52.000Z</time>
</trkpt>
<trkpt lat="45.8888980" lon="10.2821710">
	<ele>1917.00</ele>
	<time>2025-07-29T08:05:53.000Z</time>
</trkpt>
<trkpt lat="45.8888980" lon="10.2821710">
	<ele>1917.00</ele>
	<time>2025-07-29T08:05:54.000Z</time>
</trkpt>
<trkpt lat="45.8888980" lon="10.2821710">
	<ele>1917.00</ele>
	<time>2025-07-29T08:05:55.000Z</time>
</trkpt>
<trkpt lat="45.8888980" lon="10.2821710">
	<ele>1917.00</ele>
	<time>2025-07-29T08:05:56.000Z</time>
</trkpt>
<trkpt lat="45.8888980" lon="10.2821720">
	<ele>1917.00</ele>
	<time>2025-07-29T08:05:57.000Z</time>
</trkpt>
<trkpt lat="45.8888980" lon="10.2821720">
	<ele>1917.00</ele>
	<time>2025-07-29T08:05:58.000Z</time>
</trkpt>
<trkpt lat="45.8888980" lon="10.2821720">
	<ele>1917.00</ele>
	<time>2025-07-29T08:05:59.000Z</time>
</trkpt>
<trkpt lat="45.8888980" lon="10.2821720">
	<ele>1917.00</ele>
	<time>2025-07-29T08:06:00.000Z</time>
</trkpt>
<trkpt lat="45.8888980" lon="10.2821720">
	<ele>1917.00</ele>
	<time>2025-07-29T08:06:01.000Z</time>
</trkpt>
<trkpt lat="45.8888960" lon="10.2821790">
	<ele>1917.00</ele>
	<time>2025-07-29T08:06:02.000Z</time>
</trkpt>
<trkpt lat="45.8888070" lon="10.2821020">
	<ele>1917.00</ele>
	<time>2025-07-29T08:12:23.000Z</time>
</trkpt>
<trkpt lat="45.8889390" lon="10.2821370">
	<ele>1917.00</ele>
	<time>2025-07-29T08:12:43.000Z</time>
</trkpt>
<trkpt lat="45.8889600" lon="10.2821200">
	<ele>1917.00</ele>
	<time>2025-07-29T08:12:44.000Z</time>
</trkpt>
<trkpt lat="45.8889270" lon="10.2820910">
	<ele>1917.00</ele>
	<time>2025-07-29T08:12:45.000Z</time>
</trkpt>
<trkpt lat="45.8888890" lon="10.2821000">
	<ele>1917.00</ele>
	<time>2025-07-29T08:12:46.000Z</time>
</trkpt>
<trkpt lat="45.8888930" lon="10.2821190">
	<ele>1917.00</ele>
	<time>2025-07-29T08:12:47.000Z</time>
</trkpt>
<trkpt lat="45.8888980" lon="10.2821310">
	<ele>1917.00</ele>
	<time>2025-07-29T08:12:48.000Z</time>
</trkpt>
<trkpt lat="45.8889040" lon="10.2821420">
	<ele>1917.00</ele>
	<time>2025-07-29T08:12:49.000Z</time>
</trkpt>
<trkpt lat="45.8889010" lon="10.2821530">
	<ele>1917.00</ele>
	<time>2025-07-29T08:12:50.000Z</time>
</trkpt>
<trkpt lat="45.8889070" lon="10.2821570">
	<ele>1917.00</ele>
	<time>2025-07-29T08:12:51.000Z</time>
</trkpt>
<trkpt lat="45.8889090" lon="10.2821530">
	<ele>1917.00</ele>
	<time>2025-07-29T08:12:52.000Z</time>
</trkpt>
<trkpt lat="45.8889040" lon="10.2821530">
	<ele>1917.00</ele>
	<time>2025-07-29T08:12:53.000Z</time>
</trkpt>
<trkpt lat="45.8889050" lon="10.2821520">
	<ele>1917.00</ele>
	<time>2025-07-29T08:12:54.000Z</time>
</trkpt>
<trkpt lat="45.8889130" lon="10.2821550">
	<ele>1917.00</ele>
	<time>2025-07-29T08:12:55.000Z</time>
</trkpt>
<trkpt lat="45.8889190" lon="10.2821630">
	<ele>1917.00</ele>
	<time>2025-07-29T08:12:56.000Z</time>
</trkpt>
<trkpt lat="45.8889300" lon="10.2821700">
	<ele>1917.00</ele>
	<time>2025-07-29T08:12:57.000Z</time>
</trkpt>
<trkpt lat="45.8889380" lon="10.2821780">
	<ele>1917.00</ele>
	<time>2025-07-29T08:12:58.000Z</time>
</trkpt>
<trkpt lat="45.8889450" lon="10.2821840">
	<ele>1917.00</ele>
	<time>2025-07-29T08:12:59.000Z</time>
</trkpt>
<trkpt lat="45.8889530" lon="10.2821920">
	<ele>1917.00</ele>
	<time>2025-07-29T08:13:00.000Z</time>
</trkpt>
<trkpt lat="45.8889610" lon="10.2822020">
	<ele>1917.00</ele>
	<time>2025-07-29T08:13:01.000Z</time>
</trkpt>
<trkpt lat="45.8889650" lon="10.2822030">
	<ele>1917.00</ele>
	<time>2025-07-29T08:13:02.000Z</time>
</trkpt>
<trkpt lat="45.8889760" lon="10.2822050">
	<ele>1917.00</ele>
	<time>2025-07-29T08:13:03.000Z</time>
</trkpt>
<trkpt lat="45.8889850" lon="10.2822120">
	<ele>1917.00</ele>
	<time>2025-07-29T08:13:04.000Z</time>
</trkpt>
<trkpt lat="45.8889970" lon="10.2822180">
	<ele>1917.00</ele>
	<time>2025-07-29T08:13:05.000Z</time>
</trkpt>
<trkpt lat="45.8890000" lon="10.2822190">
	<ele>1917.00</ele>
	<time>2025-07-29T08:13:06.000Z</time>
</trkpt>
<trkpt lat="45.8889950" lon="10.2822160">
	<ele>1917.00</ele>
	<time>2025-07-29T08:13:07.000Z</time>
</trkpt>
<trkpt lat="45.8889910" lon="10.2822170">
	<ele>1917.00</ele>
	<time>2025-07-29T08:13:08.000Z</time>
</trkpt>
<trkpt lat="45.8889880" lon="10.2822190">
	<ele>1917.00</ele>
	<time>2025-07-29T08:13:09.000Z</time>
</trkpt>
<trkpt lat="45.8889850" lon="10.2822190">
	<ele>1917.00</ele>
	<time>2025-07-29T08:13:10.000Z</time>
</trkpt>
<trkpt lat="45.8889850" lon="10.2822210">
	<ele>1917.00</ele>
	<time>2025-07-29T08:13:11.000Z</time>
</trkpt>
<trkpt lat="45.8889690" lon="10.2822190">
	<ele>1917.00</ele>
	<time>2025-07-29T08:13:12.000Z</time>
</trkpt>
<trkpt lat="45.8889650" lon="10.2822160">
	<ele>1917.00</ele>
	<time>2025-07-29T08:13:13.000Z</time>
</trkpt>
<trkpt lat="45.8889590" lon="10.2822160">
	<ele>1917.00</ele>
	<time>2025-07-29T08:13:14.000Z</time>
</trkpt>
<trkpt lat="45.8889550" lon="10.2822200">
	<ele>1917.00</ele>
	<time>2025-07-29T08:13:15.000Z</time>
</trkpt>
<trkpt lat="45.8889550" lon="10.2822200">
	<ele>1917.00</ele>
	<time>2025-07-29T08:13:16.000Z</time>
</trkpt>
<trkpt lat="45.8889550" lon="10.2822200">
	<ele>1917.00</ele>
	<time>2025-07-29T08:13:17.000Z</time>
</trkpt>
<trkpt lat="45.8889550" lon="10.2822200">
	<ele>1917.00</ele>
	<time>2025-07-29T08:13:18.000Z</time>
</trkpt>
<trkpt lat="45.8889550" lon="10.2822200">
	<ele>1917.00</ele>
	<time>2025-07-29T08:13:19.000Z</time>
</trkpt>
<trkpt lat="45.8889550" lon="10.2822200">
	<ele>1917.00</ele>
	<time>2025-07-29T08:13:20.000Z</time>
</trkpt>
<trkpt lat="45.8889550" lon="10.2822200">
	<ele>1917.00</ele>
	<time>2025-07-29T08:13:21.000Z</time>
</trkpt>
<trkpt lat="45.8889550" lon="10.2822200">
	<ele>1917.00</ele>
	<time>2025-07-29T08:13:22.000Z</time>
</trkpt>
<trkpt lat="45.8889550" lon="10.2822200">
	<ele>1917.00</ele>
	<time>2025-07-29T08:13:23.000Z</time>
</trkpt>
<trkpt lat="45.8889550" lon="10.2822200">
	<ele>1917.00</ele>
	<time>2025-07-29T08:13:24.000Z</time>
</trkpt>
<trkpt lat="45.8889550" lon="10.2822190">
	<ele>1917.00</ele>
	<time>2025-07-29T08:13:25.000Z</time>
</trkpt>
<trkpt lat="45.8889550" lon="10.2822190">
	<ele>1917.00</ele>
	<time>2025-07-29T08:13:26.000Z</time>
</trkpt>
<trkpt lat="45.8889550" lon="10.2822190">
	<ele>1917.00</ele>
	<time>2025-07-29T08:13:27.000Z</time>
</trkpt>
<trkpt lat="45.8889550" lon="10.2822190">
	<ele>1917.00</ele>
	<time>2025-07-29T08:13:28.000Z</time>
</trkpt>
<trkpt lat="45.8889550" lon="10.2822180">
	<ele>1917.00</ele>
	<time>2025-07-29T08:13:29.000Z</time>
</trkpt>
<trkpt lat="45.8889550" lon="10.2822170">
	<ele>1917.00</ele>
	<time>2025-07-29T08:13:30.000Z</time>
</trkpt>
<trkpt lat="45.8889530" lon="10.2822170">
	<ele>1917.00</ele>
	<time>2025-07-29T08:13:31.000Z</time>
</trkpt>
<trkpt lat="45.8889520" lon="10.2822170">
	<ele>1917.00</ele>
	<time>2025-07-29T08:13:32.000Z</time>
</trkpt>
<trkpt lat="45.8889500" lon="10.2822160">
	<ele>1917.00</ele>
	<time>2025-07-29T08:13:33.000Z</time>
</trkpt>
<trkpt lat="45.8889480" lon="10.2822160">
	<ele>1917.00</ele>
	<time>2025-07-29T08:13:34.000Z</time>
</trkpt>
<trkpt lat="45.8889420" lon="10.2822160">
	<ele>1917.00</ele>
	<time>2025-07-29T08:13:35.000Z</time>
</trkpt>
<trkpt lat="45.8889380" lon="10.2822160">
	<ele>1917.00</ele>
	<time>2025-07-29T08:13:36.000Z</time>
</trkpt>
<trkpt lat="45.8889340" lon="10.2822130">
	<ele>1917.00</ele>
	<time>2025-07-29T08:13:37.000Z</time>
</trkpt>
<trkpt lat="45.8889310" lon="10.2822100">
	<ele>1917.00</ele>
	<time>2025-07-29T08:13:38.000Z</time>
</trkpt>
<trkpt lat="45.8889250" lon="10.2822080">
	<ele>1917.00</ele>
	<time>2025-07-29T08:13:39.000Z</time>
</trkpt>
<trkpt lat="45.8889180" lon="10.2822050">
	<ele>1917.00</ele>
	<time>2025-07-29T08:13:40.000Z</time>
</trkpt>
<trkpt lat="45.8889120" lon="10.2822040">
	<ele>1917.00</ele>
	<time>2025-07-29T08:13:41.000Z</time>
</trkpt>
<trkpt lat="45.8889090" lon="10.2822020">
	<ele>1917.00</ele>
	<time>2025-07-29T08:13:42.000Z</time>
</trkpt>
<trkpt lat="45.8889050" lon="10.2822020">
	<ele>1917.00</ele>
	<time>2025-07-29T08:13:43.000Z</time>
</trkpt>
<trkpt lat="45.8889020" lon="10.2822000">
	<ele>1917.00</ele>
	<time>2025-07-29T08:13:44.000Z</time>
</trkpt>
<trkpt lat="45.8888980" lon="10.2821970">
	<ele>1917.00</ele>
	<time>2025-07-29T08:13:45.000Z</time>
</trkpt>
<trkpt lat="45.8888920" lon="10.2821950">
	<ele>1917.00</ele>
	<time>2025-07-29T08:13:46.000Z</time>
</trkpt>
<trkpt lat="45.8888880" lon="10.2821950">
	<ele>1917.00</ele>
	<time>2025-07-29T08:13:47.000Z</time>
</trkpt>
<trkpt lat="45.8888870" lon="10.2821940">
	<ele>1917.00</ele>
	<time>2025-07-29T08:13:48.000Z</time>
</trkpt>
<trkpt lat="45.8888850" lon="10.2821940">
	<ele>1917.00</ele>
	<time>2025-07-29T08:13:49.000Z</time>
</trkpt>
<trkpt lat="45.8888830" lon="10.2821940">
	<ele>1917.00</ele>
	<time>2025-07-29T08:13:50.000Z</time>
</trkpt>
<trkpt lat="45.8888820" lon="10.2821910">
	<ele>1917.00</ele>
	<time>2025-07-29T08:13:51.000Z</time>
</trkpt>
<trkpt lat="45.8888820" lon="10.2821890">
	<ele>1917.00</ele>
	<time>2025-07-29T08:13:52.000Z</time>
</trkpt>
<trkpt lat="45.8888810" lon="10.2821850">
	<ele>1917.00</ele>
	<time>2025-07-29T08:13:53.000Z</time>
</trkpt>
<trkpt lat="45.8888810" lon="10.2821820">
	<ele>1917.00</ele>
	<time>2025-07-29T08:13:54.000Z</time>
</trkpt>
<trkpt lat="45.8888810" lon="10.2821790">
	<ele>1917.00</ele>
	<time>2025-07-29T08:13:55.000Z</time>
</trkpt>
<trkpt lat="45.8888810" lon="10.2821740">
	<ele>1917.00</ele>
	<time>2025-07-29T08:13:56.000Z</time>
</trkpt>
<trkpt lat="45.8888800" lon="10.2821720">
	<ele>1917.00</ele>
	<time>2025-07-29T08:13:57.000Z</time>
</trkpt>
<trkpt lat="45.8888800" lon="10.2821720">
	<ele>1917.00</ele>
	<time>2025-07-29T08:13:58.000Z</time>
</trkpt>
<trkpt lat="45.8888790" lon="10.2821700">
	<ele>1917.00</ele>
	<time>2025-07-29T08:13:59.000Z</time>
</trkpt>
<trkpt lat="45.8888780" lon="10.2821690">
	<ele>1917.00</ele>
	<time>2025-07-29T08:14:00.000Z</time>
</trkpt>
<trkpt lat="45.8888780" lon="10.2821690">
	<ele>1917.00</ele>
	<time>2025-07-29T08:14:01.000Z</time>
</trkpt>
<trkpt lat="45.8888770" lon="10.2821680">
	<ele>1917.00</ele>
	<time>2025-07-29T08:14:02.000Z</time>
</trkpt>
<trkpt lat="45.8888770" lon="10.2821670">
	<ele>1917.00</ele>
	<time>2025-07-29T08:14:03.000Z</time>
</trkpt>
<trkpt lat="45.8888760" lon="10.2821670">
	<ele>1917.00</ele>
	<time>2025-07-29T08:14:04.000Z</time>
</trkpt>
<trkpt lat="45.8888760" lon="10.2821670">
	<ele>1917.00</ele>
	<time>2025-07-29T08:14:05.000Z</time>
</trkpt>
<trkpt lat="45.8888760" lon="10.2821670">
	<ele>1917.00</ele>
	<time>2025-07-29T08:14:06.000Z</time>
</trkpt>
<trkpt lat="45.8888760" lon="10.2821670">
	<ele>1917.00</ele>
	<time>2025-07-29T08:14:07.000Z</time>
</trkpt>
<trkpt lat="45.8888750" lon="10.2821670">
	<ele>1917.00</ele>
	<time>2025-07-29T08:14:08.000Z</time>
</trkpt>
<trkpt lat="45.8888750" lon="10.2821670">
	<ele>1917.00</ele>
	<time>2025-07-29T08:14:09.000Z</time>
</trkpt>
<trkpt lat="45.8888750" lon="10.2821670">
	<ele>1917.00</ele>
	<time>2025-07-29T08:14:10.000Z</time>
</trkpt>
<trkpt lat="45.8888740" lon="10.2821670">
	<ele>1917.00</ele>
	<time>2025-07-29T08:14:11.000Z</time>
</trkpt>
<trkpt lat="45.8888740" lon="10.2821670">
	<ele>1917.00</ele>
	<time>2025-07-29T08:14:12.000Z</time>
</trkpt>
<trkpt lat="45.8888740" lon="10.2821670">
	<ele>1917.00</ele>
	<time>2025-07-29T08:14:13.000Z</time>
</trkpt>
<trkpt lat="45.8888740" lon="10.2821670">
	<ele>1917.00</ele>
	<time>2025-07-29T08:14:14.000Z</time>
</trkpt>
<trkpt lat="45.8888740" lon="10.2821670">
	<ele>1917.00</ele>
	<time>2025-07-29T08:14:15.000Z</time>
</trkpt>
<trkpt lat="45.8888740" lon="10.2821670">
	<ele>1917.00</ele>
	<time>2025-07-29T08:14:16.000Z</time>
</trkpt>
<trkpt lat="45.8888750" lon="10.2821670">
	<ele>1917.00</ele>
	<time>2025-07-29T08:14:17.000Z</time>
</trkpt>
<trkpt lat="45.8888750" lon="10.2821680">
	<ele>1917.00</ele>
	<time>2025-07-29T08:14:18.000Z</time>
</trkpt>
<trkpt lat="45.8888770" lon="10.2821670">
	<ele>1917.00</ele>
	<time>2025-07-29T08:14:19.000Z</time>
</trkpt>
<trkpt lat="45.8888790" lon="10.2821570">
	<ele>1917.00</ele>
	<time>2025-07-29T08:14:20.000Z</time>
</trkpt>
<trkpt lat="45.8888790" lon="10.2821470">
	<ele>1917.00</ele>
	<time>2025-07-29T08:14:21.000Z</time>
</trkpt>
<trkpt lat="45.8888800" lon="10.2821370">
	<ele>1917.00</ele>
	<time>2025-07-29T08:14:22.000Z</time>
</trkpt>
<trkpt lat="45.8888810" lon="10.2821270">
	<ele>1917.00</ele>
	<time>2025-07-29T08:14:23.000Z</time>
</trkpt>
<trkpt lat="45.8888810" lon="10.2821130">
	<ele>1917.00</ele>
	<time>2025-07-29T08:14:24.000Z</time>
</trkpt>
<trkpt lat="45.8888830" lon="10.2820980">
	<ele>1917.00</ele>
	<time>2025-07-29T08:14:25.000Z</time>
</trkpt>
<trkpt lat="45.8888840" lon="10.2820870">
	<ele>1917.00</ele>
	<time>2025-07-29T08:14:26.000Z</time>
</trkpt>
<trkpt lat="45.8888830" lon="10.2820750">
	<ele>1917.00</ele>
	<time>2025-07-29T08:14:27.000Z</time>
</trkpt>
<trkpt lat="45.8888790" lon="10.2820690">
	<ele>1917.00</ele>
	<time>2025-07-29T08:14:28.000Z</time>
</trkpt>
<trkpt lat="45.8888710" lon="10.2820690">
	<ele>1917.00</ele>
	<time>2025-07-29T08:14:29.000Z</time>
</trkpt>
<trkpt lat="45.8888630" lon="10.2820710">
	<ele>1917.00</ele>
	<time>2025-07-29T08:14:30.000Z</time>
</trkpt>
<trkpt lat="45.8888550" lon="10.2820770">
	<ele>1917.00</ele>
	<time>2025-07-29T08:14:31.000Z</time>
</trkpt>
<trkpt lat="45.8888460" lon="10.2820830">
	<ele>1917.00</ele>
	<time>2025-07-29T08:14:32.000Z</time>
</trkpt>
<trkpt lat="45.8888400" lon="10.2820870">
	<ele>1917.00</ele>
	<time>2025-07-29T08:14:33.000Z</time>
</trkpt>
<trkpt lat="45.8888310" lon="10.2820900">
	<ele>1917.00</ele>
	<time>2025-07-29T08:14:34.000Z</time>
</trkpt>
<trkpt lat="45.8888220" lon="10.2820940">
	<ele>1917.00</ele>
	<time>2025-07-29T08:14:35.000Z</time>
</trkpt>
<trkpt lat="45.8888150" lon="10.2821000">
	<ele>1917.00</ele>
	<time>2025-07-29T08:14:36.000Z</time>
</trkpt>
<trkpt lat="45.8888030" lon="10.2821040">
	<ele>1917.00</ele>
	<time>2025-07-29T08:14:37.000Z</time>
</trkpt>
<trkpt lat="45.8887930" lon="10.2821120">
	<ele>1917.00</ele>
	<time>2025-07-29T08:14:38.000Z</time>
</trkpt>
<trkpt lat="45.8887860" lon="10.2821170">
	<ele>1917.00</ele>
	<time>2025-07-29T08:14:39.000Z</time>
</trkpt>
<trkpt lat="45.8887790" lon="10.2821220">
	<ele>1917.00</ele>
	<time>2025-07-29T08:14:40.000Z</time>
</trkpt>
<trkpt lat="45.8887730" lon="10.2821280">
	<ele>1917.00</ele>
	<time>2025-07-29T08:14:41.000Z</time>
</trkpt>
<trkpt lat="45.8887650" lon="10.2821320">
	<ele>1917.00</ele>
	<time>2025-07-29T08:14:42.000Z</time>
</trkpt>
<trkpt lat="45.8887560" lon="10.2821380">
	<ele>1917.00</ele>
	<time>2025-07-29T08:14:43.000Z</time>
</trkpt>
<trkpt lat="45.8887460" lon="10.2821470">
	<ele>1917.00</ele>
	<time>2025-07-29T08:14:44.000Z</time>
</trkpt>
<trkpt lat="45.8887360" lon="10.2821520">
	<ele>1917.00</ele>
	<time>2025-07-29T08:14:45.000Z</time>
</trkpt>
<trkpt lat="45.8887270" lon="10.2821580">
	<ele>1917.00</ele>
	<time>2025-07-29T08:14:46.000Z</time>
</trkpt>
<trkpt lat="45.8887180" lon="10.2821630">
	<ele>1916.80</ele>
	<time>2025-07-29T08:14:47.000Z</time>
</trkpt>
<trkpt lat="45.8887090" lon="10.2821700">
	<ele>1916.80</ele>
	<time>2025-07-29T08:14:48.000Z</time>
</trkpt>
<trkpt lat="45.8886990" lon="10.2821810">
	<ele>1916.80</ele>
	<time>2025-07-29T08:14:49.000Z</time>
</trkpt>
<trkpt lat="45.8886880" lon="10.2821960">
	<ele>1916.60</ele>
	<time>2025-07-29T08:14:50.000Z</time>
</trkpt>
<trkpt lat="45.8886800" lon="10.2822070">
	<ele>1916.60</ele>
	<time>2025-07-29T08:14:51.000Z</time>
</trkpt>
<trkpt lat="45.8886760" lon="10.2822160">
	<ele>1916.60</ele>
	<time>2025-07-29T08:14:52.000Z</time>
</trkpt>
<trkpt lat="45.8886720" lon="10.2822240">
	<ele>1916.60</ele>
	<time>2025-07-29T08:14:53.000Z</time>
</trkpt>
<trkpt lat="45.8886680" lon="10.2822310">
	<ele>1916.60</ele>
	<time>2025-07-29T08:14:54.000Z</time>
</trkpt>
<trkpt lat="45.8886650" lon="10.2822400">
	<ele>1916.60</ele>
	<time>2025-07-29T08:14:55.000Z</time>
</trkpt>
<trkpt lat="45.8886590" lon="10.2822510">
	<ele>1916.60</ele>
	<time>2025-07-29T08:14:56.000Z</time>
</trkpt>
<trkpt lat="45.8886540" lon="10.2822600">
	<ele>1916.80</ele>
	<time>2025-07-29T08:14:57.000Z</time>
</trkpt>
<trkpt lat="45.8886460" lon="10.2822690">
	<ele>1917.00</ele>
	<time>2025-07-29T08:14:58.000Z</time>
</trkpt>
<trkpt lat="45.8886410" lon="10.2822720">
	<ele>1917.00</ele>
	<time>2025-07-29T08:14:59.000Z</time>
</trkpt>
<trkpt lat="45.8886390" lon="10.2822770">
	<ele>1917.20</ele>
	<time>2025-07-29T08:15:00.000Z</time>
</trkpt>
<trkpt lat="45.8886360" lon="10.2822810">
	<ele>1917.40</ele>
	<time>2025-07-29T08:15:01.000Z</time>
</trkpt>
<trkpt lat="45.8886380" lon="10.2822860">
	<ele>1917.40</ele>
	<time>2025-07-29T08:15:02.000Z</time>
</trkpt>
<trkpt lat="45.8886400" lon="10.2822930">
	<ele>1917.40</ele>
	<time>2025-07-29T08:15:03.000Z</time>
</trkpt>
<trkpt lat="45.8886430" lon="10.2822990">
	<ele>1917.40</ele>
	<time>2025-07-29T08:15:04.000Z</time>
</trkpt>
<trkpt lat="45.8886450" lon="10.2823070">
	<ele>1917.60</ele>
	<time>2025-07-29T08:15:05.000Z</time>
</trkpt>
<trkpt lat="45.8886470" lon="10.2823120">
	<ele>1917.60</ele>
	<time>2025-07-29T08:15:06.000Z</time>
</trkpt>
<trkpt lat="45.8886470" lon="10.2823170">
	<ele>1917.60</ele>
	<time>2025-07-29T08:15:07.000Z</time>
</trkpt>
<trkpt lat="45.8886520" lon="10.2823210">
	<ele>1917.60</ele>
	<time>2025-07-29T08:15:08.000Z</time>
</trkpt>
<trkpt lat="45.8886560" lon="10.2823220">
	<ele>1917.40</ele>
	<time>2025-07-29T08:15:09.000Z</time>
</trkpt>
<trkpt lat="45.8886570" lon="10.2823200">
	<ele>1917.40</ele>
	<time>2025-07-29T08:15:10.000Z</time>
</trkpt>
<trkpt lat="45.8886560" lon="10.2823160">
	<ele>1917.40</ele>
	<time>2025-07-29T08:15:11.000Z</time>
</trkpt>
<trkpt lat="45.8886530" lon="10.2823170">
	<ele>1917.20</ele>
	<time>2025-07-29T08:15:12.000Z</time>
</trkpt>
<trkpt lat="45.8886510" lon="10.2823180">
	<ele>1917.20</ele>
	<time>2025-07-29T08:15:13.000Z</time>
</trkpt>
<trkpt lat="45.8886510" lon="10.2823180">
	<ele>1917.20</ele>
	<time>2025-07-29T08:15:14.000Z</time>
</trkpt>
<trkpt lat="45.8886510" lon="10.2823180">
	<ele>1917.20</ele>
	<time>2025-07-29T08:15:15.000Z</time>
</trkpt>
<trkpt lat="45.8886510" lon="10.2823180">
	<ele>1917.20</ele>
	<time>2025-07-29T08:15:16.000Z</time>
</trkpt>
<trkpt lat="45.8886510" lon="10.2823180">
	<ele>1917.20</ele>
	<time>2025-07-29T08:15:17.000Z</time>
</trkpt>
<trkpt lat="45.8886510" lon="10.2823180">
	<ele>1917.00</ele>
	<time>2025-07-29T08:15:18.000Z</time>
</trkpt>
<trkpt lat="45.8886510" lon="10.2823180">
	<ele>1917.00</ele>
	<time>2025-07-29T08:15:19.000Z</time>
</trkpt>
<trkpt lat="45.8886510" lon="10.2823180">
	<ele>1917.00</ele>
	<time>2025-07-29T08:15:20.000Z</time>
</trkpt>
<trkpt lat="45.8886510" lon="10.2823180">
	<ele>1917.00</ele>
	<time>2025-07-29T08:15:21.000Z</time>
</trkpt>
<trkpt lat="45.8886510" lon="10.2823180">
	<ele>1917.00</ele>
	<time>2025-07-29T08:15:22.000Z</time>
</trkpt>
<trkpt lat="45.8886510" lon="10.2823180">
	<ele>1917.00</ele>
	<time>2025-07-29T08:15:23.000Z</time>
</trkpt>
<trkpt lat="45.8886510" lon="10.2823170">
	<ele>1917.20</ele>
	<time>2025-07-29T08:15:24.000Z</time>
</trkpt>
<trkpt lat="45.8886510" lon="10.2823170">
	<ele>1917.20</ele>
	<time>2025-07-29T08:15:25.000Z</time>
</trkpt>
<trkpt lat="45.8886490" lon="10.2823160">
	<ele>1917.20</ele>
	<time>2025-07-29T08:15:26.000Z</time>
</trkpt>
<trkpt lat="45.8886480" lon="10.2823140">
	<ele>1917.20</ele>
	<time>2025-07-29T08:15:27.000Z</time>
</trkpt>
<trkpt lat="45.8886470" lon="10.2823120">
	<ele>1917.40</ele>
	<time>2025-07-29T08:15:28.000Z</time>
</trkpt>
<trkpt lat="45.8886460" lon="10.2823100">
	<ele>1917.20</ele>
	<time>2025-07-29T08:15:29.000Z</time>
</trkpt>
<trkpt lat="45.8886460" lon="10.2823070">
	<ele>1917.20</ele>
	<time>2025-07-29T08:15:30.000Z</time>
</trkpt>
<trkpt lat="45.8886450" lon="10.2823050">
	<ele>1917.20</ele>
	<time>2025-07-29T08:15:31.000Z</time>
</trkpt>
<trkpt lat="45.8886450" lon="10.2823030">
	<ele>1917.20</ele>
	<time>2025-07-29T08:15:32.000Z</time>
</trkpt>
<trkpt lat="45.8886440" lon="10.2823000">
	<ele>1917.20</ele>
	<time>2025-07-29T08:15:33.000Z</time>
</trkpt>
<trkpt lat="45.8886430" lon="10.2823000">
	<ele>1917.20</ele>
	<time>2025-07-29T08:15:34.000Z</time>
</trkpt>
<trkpt lat="45.8886430" lon="10.2823000">
	<ele>1917.20</ele>
	<time>2025-07-29T08:15:35.000Z</time>
</trkpt>
<trkpt lat="45.8886430" lon="10.2823000">
	<ele>1917.20</ele>
	<time>2025-07-29T08:15:36.000Z</time>
</trkpt>
<trkpt lat="45.8886430" lon="10.2823000">
	<ele>1917.20</ele>
	<time>2025-07-29T08:15:37.000Z</time>
</trkpt>
<trkpt lat="45.8886430" lon="10.2823000">
	<ele>1917.20</ele>
	<time>2025-07-29T08:15:38.000Z</time>
</trkpt>
<trkpt lat="45.8886430" lon="10.2823000">
	<ele>1917.20</ele>
	<time>2025-07-29T08:15:39.000Z</time>
</trkpt>
<trkpt lat="45.8886420" lon="10.2823000">
	<ele>1917.20</ele>
	<time>2025-07-29T08:15:40.000Z</time>
</trkpt>
<trkpt lat="45.8886420" lon="10.2823000">
	<ele>1917.20</ele>
	<time>2025-07-29T08:15:41.000Z</time>
</trkpt>
<trkpt lat="45.8886420" lon="10.2823000">
	<ele>1917.20</ele>
	<time>2025-07-29T08:15:42.000Z</time>
</trkpt>
<trkpt lat="45.8886420" lon="10.2823000">
	<ele>1917.20</ele>
	<time>2025-07-29T08:15:43.000Z</time>
</trkpt>
<trkpt lat="45.8886420" lon="10.2822990">
	<ele>1917.20</ele>
	<time>2025-07-29T08:15:44.000Z</time>
</trkpt>
<trkpt lat="45.8886420" lon="10.2822980">
	<ele>1917.20</ele>
	<time>2025-07-29T08:15:45.000Z</time>
</trkpt>
<trkpt lat="45.8886420" lon="10.2822970">
	<ele>1917.20</ele>
	<time>2025-07-29T08:15:46.000Z</time>
</trkpt>
<trkpt lat="45.8886430" lon="10.2822970">
	<ele>1917.20</ele>
	<time>2025-07-29T08:15:47.000Z</time>
</trkpt>
<trkpt lat="45.8886430" lon="10.2822960">
	<ele>1917.20</ele>
	<time>2025-07-29T08:15:48.000Z</time>
</trkpt>
<trkpt lat="45.8886430" lon="10.2822970">
	<ele>1917.20</ele>
	<time>2025-07-29T08:15:49.000Z</time>
</trkpt>
<trkpt lat="45.8886430" lon="10.2822970">
	<ele>1917.20</ele>
	<time>2025-07-29T08:15:50.000Z</time>
</trkpt>
<trkpt lat="45.8886420" lon="10.2822970">
	<ele>1917.00</ele>
	<time>2025-07-29T08:15:51.000Z</time>
</trkpt>
<trkpt lat="45.8886420" lon="10.2822970">
	<ele>1917.00</ele>
	<time>2025-07-29T08:15:52.000Z</time>
</trkpt>
<trkpt lat="45.8886420" lon="10.2822970">
	<ele>1917.00</ele>
	<time>2025-07-29T08:15:53.000Z</time>
</trkpt>
<trkpt lat="45.8886420" lon="10.2822970">
	<ele>1917.00</ele>
	<time>2025-07-29T08:15:54.000Z</time>
</trkpt>
<trkpt lat="45.8886410" lon="10.2822970">
	<ele>1917.00</ele>
	<time>2025-07-29T08:15:55.000Z</time>
</trkpt>
<trkpt lat="45.8886410" lon="10.2822980">
	<ele>1917.00</ele>
	<time>2025-07-29T08:15:56.000Z</time>
</trkpt>
<trkpt lat="45.8886400" lon="10.2822980">
	<ele>1917.00</ele>
	<time>2025-07-29T08:15:57.000Z</time>
</trkpt>
<trkpt lat="45.8886400" lon="10.2822990">
	<ele>1917.00</ele>
	<time>2025-07-29T08:15:58.000Z</time>
</trkpt>
<trkpt lat="45.8886400" lon="10.2823000">
	<ele>1917.00</ele>
	<time>2025-07-29T08:15:59.000Z</time>
</trkpt>
<trkpt lat="45.8886400" lon="10.2823020">
	<ele>1917.00</ele>
	<time>2025-07-29T08:16:00.000Z</time>
</trkpt>
<trkpt lat="45.8886400" lon="10.2823030">
	<ele>1917.00</ele>
	<time>2025-07-29T08:16:01.000Z</time>
</trkpt>
<trkpt lat="45.8886400" lon="10.2823030">
	<ele>1917.20</ele>
	<time>2025-07-29T08:16:02.000Z</time>
</trkpt>
<trkpt lat="45.8886400" lon="10.2823050">
	<ele>1917.20</ele>
	<time>2025-07-29T08:16:03.000Z</time>
</trkpt>
<trkpt lat="45.8886390" lon="10.2823060">
	<ele>1917.20</ele>
	<time>2025-07-29T08:16:04.000Z</time>
</trkpt>
<trkpt lat="45.8886380" lon="10.2823070">
	<ele>1917.00</ele>
	<time>2025-07-29T08:16:05.000Z</time>
</trkpt>
<trkpt lat="45.8886380" lon="10.2823070">
	<ele>1916.80</ele>
	<time>2025-07-29T08:16:06.000Z</time>
</trkpt>
<trkpt lat="45.8886370" lon="10.2823070">
	<ele>1916.80</ele>
	<time>2025-07-29T08:16:07.000Z</time>
</trkpt>
<trkpt lat="45.8886370" lon="10.2823080">
	<ele>1916.80</ele>
	<time>2025-07-29T08:16:08.000Z</time>
</trkpt>
<trkpt lat="45.8886370" lon="10.2823100">
	<ele>1916.80</ele>
	<time>2025-07-29T08:16:09.000Z</time>
</trkpt>
<trkpt lat="45.8886350" lon="10.2823110">
	<ele>1916.60</ele>
	<time>2025-07-29T08:16:10.000Z</time>
</trkpt>
<trkpt lat="45.8886340" lon="10.2823120">
	<ele>1916.60</ele>
	<time>2025-07-29T08:16:11.000Z</time>
</trkpt>
<trkpt lat="45.8886310" lon="10.2823150">
	<ele>1916.60</ele>
	<time>2025-07-29T08:16:12.000Z</time>
</trkpt>
<trkpt lat="45.8886270" lon="10.2823160">
	<ele>1916.80</ele>
	<time>2025-07-29T08:16:13.000Z</time>
</trkpt>
<trkpt lat="45.8886230" lon="10.2823160">
	<ele>1916.80</ele>
	<time>2025-07-29T08:16:14.000Z</time>
</trkpt>
<trkpt lat="45.8886210" lon="10.2823170">
	<ele>1916.80</ele>
	<time>2025-07-29T08:16:15.000Z</time>
</trkpt>
<trkpt lat="45.8886170" lon="10.2823170">
	<ele>1916.80</ele>
	<time>2025-07-29T08:16:16.000Z</time>
</trkpt>
<trkpt lat="45.8886150" lon="10.2823170">
	<ele>1916.80</ele>
	<time>2025-07-29T08:16:17.000Z</time>
</trkpt>
<trkpt lat="45.8886130" lon="10.2823190">
	<ele>1916.80</ele>
	<time>2025-07-29T08:16:18.000Z</time>
</trkpt>
<trkpt lat="45.8886100" lon="10.2823240">
	<ele>1916.80</ele>
	<time>2025-07-29T08:16:19.000Z</time>
</trkpt>
<trkpt lat="45.8886090" lon="10.2823300">
	<ele>1916.80</ele>
	<time>2025-07-29T08:16:20.000Z</time>
</trkpt>
<trkpt lat="45.8886070" lon="10.2823380">
	<ele>1916.80</ele>
	<time>2025-07-29T08:16:21.000Z</time>
</trkpt>
<trkpt lat="45.8886060" lon="10.2823440">
	<ele>1916.80</ele>
	<time>2025-07-29T08:16:22.000Z</time>
</trkpt>
<trkpt lat="45.8886060" lon="10.2823480">
	<ele>1917.00</ele>
	<time>2025-07-29T08:16:23.000Z</time>
</trkpt>
<trkpt lat="45.8886060" lon="10.2823520">
	<ele>1917.00</ele>
	<time>2025-07-29T08:16:24.000Z</time>
</trkpt>
<trkpt lat="45.8886060" lon="10.2823550">
	<ele>1917.00</ele>
	<time>2025-07-29T08:16:25.000Z</time>
</trkpt>
<trkpt lat="45.8886060" lon="10.2823560">
	<ele>1917.00</ele>
	<time>2025-07-29T08:16:26.000Z</time>
</trkpt>
<trkpt lat="45.8886060" lon="10.2823570">
	<ele>1917.20</ele>
	<time>2025-07-29T08:16:27.000Z</time>
</trkpt>
<trkpt lat="45.8886060" lon="10.2823570">
	<ele>1917.20</ele>
	<time>2025-07-29T08:16:28.000Z</time>
</trkpt>
<trkpt lat="45.8886060" lon="10.2823570">
	<ele>1917.40</ele>
	<time>2025-07-29T08:16:29.000Z</time>
</trkpt>
<trkpt lat="45.8886060" lon="10.2823570">
	<ele>1917.40</ele>
	<time>2025-07-29T08:16:30.000Z</time>
</trkpt>
<trkpt lat="45.8886060" lon="10.2823570">
	<ele>1917.40</ele>
	<time>2025-07-29T08:16:31.000Z</time>
</trkpt>
<trkpt lat="45.8886060" lon="10.2823570">
	<ele>1917.40</ele>
	<time>2025-07-29T08:16:32.000Z</time>
</trkpt>
<trkpt lat="45.8886060" lon="10.2823570">
	<ele>1917.40</ele>
	<time>2025-07-29T08:16:33.000Z</time>
</trkpt>
<trkpt lat="45.8886060" lon="10.2823570">
	<ele>1917.20</ele>
	<time>2025-07-29T08:16:34.000Z</time>
</trkpt>
<trkpt lat="45.8886060" lon="10.2823570">
	<ele>1917.20</ele>
	<time>2025-07-29T08:16:35.000Z</time>
</trkpt>
<trkpt lat="45.8886060" lon="10.2823570">
	<ele>1917.20</ele>
	<time>2025-07-29T08:16:36.000Z</time>
</trkpt>
<trkpt lat="45.8886060" lon="10.2823570">
	<ele>1917.20</ele>
	<time>2025-07-29T08:16:37.000Z</time>
</trkpt>
<trkpt lat="45.8886060" lon="10.2823570">
	<ele>1917.20</ele>
	<time>2025-07-29T08:16:38.000Z</time>
</trkpt>
<trkpt lat="45.8886070" lon="10.2823570">
	<ele>1917.20</ele>
	<time>2025-07-29T08:16:39.000Z</time>
</trkpt>
<trkpt lat="45.8886070" lon="10.2823540">
	<ele>1917.20</ele>
	<time>2025-07-29T08:16:40.000Z</time>
</trkpt>
<trkpt lat="45.8886090" lon="10.2823480">
	<ele>1917.20</ele>
	<time>2025-07-29T08:16:41.000Z</time>
</trkpt>
<trkpt lat="45.8886100" lon="10.2823440">
	<ele>1917.20</ele>
	<time>2025-07-29T08:16:42.000Z</time>
</trkpt>
<trkpt lat="45.8886130" lon="10.2823400">
	<ele>1917.20</ele>
	<time>2025-07-29T08:16:43.000Z</time>
</trkpt>
<trkpt lat="45.8886140" lon="10.2823370">
	<ele>1917.20</ele>
	<time>2025-07-29T08:16:44.000Z</time>
</trkpt>
<trkpt lat="45.8886150" lon="10.2823360">
	<ele>1917.20</ele>
	<time>2025-07-29T08:16:45.000Z</time>
</trkpt>
<trkpt lat="45.8886150" lon="10.2823350">
	<ele>1917.20</ele>
	<time>2025-07-29T08:16:46.000Z</time>
</trkpt>
<trkpt lat="45.8886160" lon="10.2823350">
	<ele>1917.20</ele>
	<time>2025-07-29T08:16:47.000Z</time>
</trkpt>
<trkpt lat="45.8886160" lon="10.2823340">
	<ele>1917.20</ele>
	<time>2025-07-29T08:16:48.000Z</time>
</trkpt>
<trkpt lat="45.8886170" lon="10.2823340">
	<ele>1917.40</ele>
	<time>2025-07-29T08:16:49.000Z</time>
</trkpt>
<trkpt lat="45.8886170" lon="10.2823330">
	<ele>1917.60</ele>
	<time>2025-07-29T08:16:50.000Z</time>
</trkpt>
<trkpt lat="45.8886170" lon="10.2823330">
	<ele>1917.60</ele>
	<time>2025-07-29T08:16:51.000Z</time>
</trkpt>
<trkpt lat="45.8886180" lon="10.2823330">
	<ele>1917.60</ele>
	<time>2025-07-29T08:16:52.000Z</time>
</trkpt>
<trkpt lat="45.8886180" lon="10.2823320">
	<ele>1917.60</ele>
	<time>2025-07-29T08:16:53.000Z</time>
</trkpt>
<trkpt lat="45.8886180" lon="10.2823320">
	<ele>1917.60</ele>
	<time>2025-07-29T08:16:54.000Z</time>
</trkpt>
<trkpt lat="45.8886180" lon="10.2823320">
	<ele>1917.60</ele>
	<time>2025-07-29T08:16:55.000Z</time>
</trkpt>
<trkpt lat="45.8886180" lon="10.2823310">
	<ele>1917.60</ele>
	<time>2025-07-29T08:16:56.000Z</time>
</trkpt>
<trkpt lat="45.8886180" lon="10.2823310">
	<ele>1917.60</ele>
	<time>2025-07-29T08:16:57.000Z</time>
</trkpt>
<trkpt lat="45.8886180" lon="10.2823310">
	<ele>1917.60</ele>
	<time>2025-07-29T08:16:58.000Z</time>
</trkpt>
<trkpt lat="45.8886180" lon="10.2823310">
	<ele>1917.60</ele>
	<time>2025-07-29T08:16:59.000Z</time>
</trkpt>
<trkpt lat="45.8886180" lon="10.2823310">
	<ele>1917.40</ele>
	<time>2025-07-29T08:17:00.000Z</time>
</trkpt>
<trkpt lat="45.8886180" lon="10.2823310">
	<ele>1917.40</ele>
	<time>2025-07-29T08:17:01.000Z</time>
</trkpt>
<trkpt lat="45.8886190" lon="10.2823310">
	<ele>1917.40</ele>
	<time>2025-07-29T08:17:02.000Z</time>
</trkpt>
<trkpt lat="45.8886190" lon="10.2823310">
	<ele>1917.40</ele>
	<time>2025-07-29T08:17:03.000Z</time>
</trkpt>
<trkpt lat="45.8886190" lon="10.2823310">
	<ele>1917.40</ele>
	<time>2025-07-29T08:17:04.000Z</time>
</trkpt>
<trkpt lat="45.8886190" lon="10.2823310">
	<ele>1917.60</ele>
	<time>2025-07-29T08:17:05.000Z</time>
</trkpt>
<trkpt lat="45.8886190" lon="10.2823310">
	<ele>1917.60</ele>
	<time>2025-07-29T08:17:06.000Z</time>
</trkpt>
<trkpt lat="45.8886190" lon="10.2823310">
	<ele>1917.60</ele>
	<time>2025-07-29T08:17:07.000Z</time>
</trkpt>
<trkpt lat="45.8886190" lon="10.2823310">
	<ele>1917.60</ele>
	<time>2025-07-29T08:17:08.000Z</time>
</trkpt>
<trkpt lat="45.8886190" lon="10.2823310">
	<ele>1917.60</ele>
	<time>2025-07-29T08:17:09.000Z</time>
</trkpt>
<trkpt lat="45.8886190" lon="10.2823310">
	<ele>1917.60</ele>
	<time>2025-07-29T08:17:10.000Z</time>
</trkpt>
<trkpt lat="45.8886190" lon="10.2823310">
	<ele>1917.60</ele>
	<time>2025-07-29T08:17:11.000Z</time>
</trkpt>
<trkpt lat="45.8886190" lon="10.2823310">
	<ele>1917.80</ele>
	<time>2025-07-29T08:17:12.000Z</time>
</trkpt>
<trkpt lat="45.8886190" lon="10.2823310">
	<ele>1917.80</ele>
	<time>2025-07-29T08:17:13.000Z</time>
</trkpt>
<trkpt lat="45.8886190" lon="10.2823310">
	<ele>1917.80</ele>
	<time>2025-07-29T08:17:14.000Z</time>
</trkpt>
<trkpt lat="45.8886190" lon="10.2823310">
	<ele>1917.80</ele>
	<time>2025-07-29T08:17:15.000Z</time>
</trkpt>
<trkpt lat="45.8886190" lon="10.2823320">
	<ele>1917.80</ele>
	<time>2025-07-29T08:17:16.000Z</time>
</trkpt>
<trkpt lat="45.8886190" lon="10.2823320">
	<ele>1917.80</ele>
	<time>2025-07-29T08:17:17.000Z</time>
</trkpt>
<trkpt lat="45.8886190" lon="10.2823320">
	<ele>1917.80</ele>
	<time>2025-07-29T08:17:18.000Z</time>
</trkpt>
<trkpt lat="45.8886190" lon="10.2823330">
	<ele>1917.60</ele>
	<time>2025-07-29T08:17:19.000Z</time>
</trkpt>
<trkpt lat="45.8886170" lon="10.2823330">
	<ele>1917.60</ele>
	<time>2025-07-29T08:17:20.000Z</time>
</trkpt>
<trkpt lat="45.8886150" lon="10.2823340">
	<ele>1917.60</ele>
	<time>2025-07-29T08:17:21.000Z</time>
</trkpt>
<trkpt lat="45.8886130" lon="10.2823340">
	<ele>1917.40</ele>
	<time>2025-07-29T08:17:22.000Z</time>
</trkpt>
<trkpt lat="45.8886110" lon="10.2823360">
	<ele>1917.40</ele>
	<time>2025-07-29T08:17:23.000Z</time>
</trkpt>
<trkpt lat="45.8886100" lon="10.2823380">
	<ele>1917.40</ele>
	<time>2025-07-29T08:17:24.000Z</time>
</trkpt>
<trkpt lat="45.8886070" lon="10.2823400">
	<ele>1917.60</ele>
	<time>2025-07-29T08:17:25.000Z</time>
</trkpt>
<trkpt lat="45.8886060" lon="10.2823420">
	<ele>1917.60</ele>
	<time>2025-07-29T08:17:26.000Z</time>
</trkpt>
<trkpt lat="45.8886050" lon="10.2823420">
	<ele>1917.60</ele>
	<time>2025-07-29T08:17:27.000Z</time>
</trkpt>
<trkpt lat="45.8886040" lon="10.2823430">
	<ele>1917.60</ele>
	<time>2025-07-29T08:17:28.000Z</time>
</trkpt>
<trkpt lat="45.8886030" lon="10.2823440">
	<ele>1917.60</ele>
	<time>2025-07-29T08:17:29.000Z</time>
</trkpt>
<trkpt lat="45.8886030" lon="10.2823440">
	<ele>1917.40</ele>
	<time>2025-07-29T08:17:30.000Z</time>
</trkpt>
<trkpt lat="45.8886020" lon="10.2823450">
	<ele>1917.40</ele>
	<time>2025-07-29T08:17:31.000Z</time>
</trkpt>
<trkpt lat="45.8886020" lon="10.2823450">
	<ele>1917.20</ele>
	<time>2025-07-29T08:17:32.000Z</time>
</trkpt>
<trkpt lat="45.8886020" lon="10.2823450">
	<ele>1917.20</ele>
	<time>2025-07-29T08:17:33.000Z</time>
</trkpt>
<trkpt lat="45.8886010" lon="10.2823460">
	<ele>1917.20</ele>
	<time>2025-07-29T08:17:34.000Z</time>
</trkpt>
<trkpt lat="45.8886010" lon="10.2823460">
	<ele>1917.20</ele>
	<time>2025-07-29T08:17:35.000Z</time>
</trkpt>
<trkpt lat="45.8886010" lon="10.2823460">
	<ele>1917.40</ele>
	<time>2025-07-29T08:17:36.000Z</time>
</trkpt>
<trkpt lat="45.8886010" lon="10.2823460">
	<ele>1917.40</ele>
	<time>2025-07-29T08:17:37.000Z</time>
</trkpt>
<trkpt lat="45.8886000" lon="10.2823460">
	<ele>1917.40</ele>
	<time>2025-07-29T08:17:38.000Z</time>
</trkpt>
<trkpt lat="45.8886000" lon="10.2823470">
	<ele>1917.20</ele>
	<time>2025-07-29T08:17:39.000Z</time>
</trkpt>
<trkpt lat="45.8886000" lon="10.2823470">
	<ele>1917.20</ele>
	<time>2025-07-29T08:17:40.000Z</time>
</trkpt>
<trkpt lat="45.8886000" lon="10.2823470">
	<ele>1917.00</ele>
	<time>2025-07-29T08:17:41.000Z</time>
</trkpt>
<trkpt lat="45.8886000" lon="10.2823470">
	<ele>1917.00</ele>
	<time>2025-07-29T08:17:42.000Z</time>
</trkpt>
<trkpt lat="45.8886000" lon="10.2823470">
	<ele>1917.00</ele>
	<time>2025-07-29T08:17:43.000Z</time>
</trkpt>
<trkpt lat="45.8886000" lon="10.2823470">
	<ele>1917.00</ele>
	<time>2025-07-29T08:17:44.000Z</time>
</trkpt>
<trkpt lat="45.8886000" lon="10.2823470">
	<ele>1917.00</ele>
	<time>2025-07-29T08:17:45.000Z</time>
</trkpt>
<trkpt lat="45.8886000" lon="10.2823470">
	<ele>1917.00</ele>
	<time>2025-07-29T08:17:46.000Z</time>
</trkpt>
<trkpt lat="45.8886000" lon="10.2823470">
	<ele>1917.00</ele>
	<time>2025-07-29T08:17:47.000Z</time>
</trkpt>
<trkpt lat="45.8886010" lon="10.2823470">
	<ele>1917.00</ele>
	<time>2025-07-29T08:17:48.000Z</time>
</trkpt>
<trkpt lat="45.8886010" lon="10.2823470">
	<ele>1917.00</ele>
	<time>2025-07-29T08:17:49.000Z</time>
</trkpt>
<trkpt lat="45.8886010" lon="10.2823470">
	<ele>1917.00</ele>
	<time>2025-07-29T08:17:50.000Z</time>
</trkpt>
<trkpt lat="45.8886010" lon="10.2823480">
	<ele>1917.00</ele>
	<time>2025-07-29T08:17:51.000Z</time>
</trkpt>
<trkpt lat="45.8886010" lon="10.2823480">
	<ele>1917.00</ele>
	<time>2025-07-29T08:17:52.000Z</time>
</trkpt>
<trkpt lat="45.8886010" lon="10.2823480">
	<ele>1917.00</ele>
	<time>2025-07-29T08:17:53.000Z</time>
</trkpt>
<trkpt lat="45.8886010" lon="10.2823480">
	<ele>1917.00</ele>
	<time>2025-07-29T08:17:54.000Z</time>
</trkpt>
<trkpt lat="45.8886010" lon="10.2823480">
	<ele>1917.20</ele>
	<time>2025-07-29T08:17:55.000Z</time>
</trkpt>
<trkpt lat="45.8886020" lon="10.2823490">
	<ele>1917.20</ele>
	<time>2025-07-29T08:17:56.000Z</time>
</trkpt>
<trkpt lat="45.8886020" lon="10.2823490">
	<ele>1917.20</ele>
	<time>2025-07-29T08:17:57.000Z</time>
</trkpt>
<trkpt lat="45.8886020" lon="10.2823490">
	<ele>1917.20</ele>
	<time>2025-07-29T08:17:58.000Z</time>
</trkpt>
<trkpt lat="45.8886030" lon="10.2823490">
	<ele>1917.40</ele>
	<time>2025-07-29T08:17:59.000Z</time>
</trkpt>
<trkpt lat="45.8886030" lon="10.2823500">
	<ele>1917.40</ele>
	<time>2025-07-29T08:18:00.000Z</time>
</trkpt>
<trkpt lat="45.8886030" lon="10.2823500">
	<ele>1917.40</ele>
	<time>2025-07-29T08:18:01.000Z</time>
</trkpt>
<trkpt lat="45.8886040" lon="10.2823510">
	<ele>1917.40</ele>
	<time>2025-07-29T08:18:02.000Z</time>
</trkpt>
<trkpt lat="45.8886040" lon="10.2823510">
	<ele>1917.40</ele>
	<time>2025-07-29T08:18:03.000Z</time>
</trkpt>
<trkpt lat="45.8886040" lon="10.2823520">
	<ele>1917.40</ele>
	<time>2025-07-29T08:18:04.000Z</time>
</trkpt>
<trkpt lat="45.8886040" lon="10.2823520">
	<ele>1917.40</ele>
	<time>2025-07-29T08:18:05.000Z</time>
</trkpt>
<trkpt lat="45.8886050" lon="10.2823530">
	<ele>1917.40</ele>
	<time>2025-07-29T08:18:06.000Z</time>
</trkpt>
<trkpt lat="45.8886050" lon="10.2823540">
	<ele>1917.40</ele>
	<time>2025-07-29T08:18:07.000Z</time>
</trkpt>
<trkpt lat="45.8886050" lon="10.2823550">
	<ele>1917.40</ele>
	<time>2025-07-29T08:18:08.000Z</time>
</trkpt>
<trkpt lat="45.8886060" lon="10.2823550">
	<ele>1917.40</ele>
	<time>2025-07-29T08:18:09.000Z</time>
</trkpt>
<trkpt lat="45.8886060" lon="10.2823560">
	<ele>1917.40</ele>
	<time>2025-07-29T08:18:10.000Z</time>
</trkpt>
<trkpt lat="45.8886060" lon="10.2823560">
	<ele>1917.40</ele>
	<time>2025-07-29T08:18:11.000Z</time>
</trkpt>
<trkpt lat="45.8886060" lon="10.2823570">
	<ele>1917.40</ele>
	<time>2025-07-29T08:18:12.000Z</time>
</trkpt>
<trkpt lat="45.8886060" lon="10.2823570">
	<ele>1917.40</ele>
	<time>2025-07-29T08:18:13.000Z</time>
</trkpt>
<trkpt lat="45.8886070" lon="10.2823570">
	<ele>1917.40</ele>
	<time>2025-07-29T08:18:14.000Z</time>
</trkpt>
<trkpt lat="45.8886070" lon="10.2823570">
	<ele>1917.20</ele>
	<time>2025-07-29T08:18:15.000Z</time>
</trkpt>
<trkpt lat="45.8886070" lon="10.2823580">
	<ele>1917.20</ele>
	<time>2025-07-29T08:18:16.000Z</time>
</trkpt>
<trkpt lat="45.8886070" lon="10.2823580">
	<ele>1917.40</ele>
	<time>2025-07-29T08:18:17.000Z</time>
</trkpt>
<trkpt lat="45.8886070" lon="10.2823580">
	<ele>1917.40</ele>
	<time>2025-07-29T08:18:18.000Z</time>
</trkpt>
<trkpt lat="45.8886070" lon="10.2823580">
	<ele>1917.40</ele>
	<time>2025-07-29T08:18:19.000Z</time>
</trkpt>
<trkpt lat="45.8886070" lon="10.2823580">
	<ele>1917.40</ele>
	<time>2025-07-29T08:18:20.000Z</time>
</trkpt>
<trkpt lat="45.8886070" lon="10.2823580">
	<ele>1917.60</ele>
	<time>2025-07-29T08:18:21.000Z</time>
</trkpt>
<trkpt lat="45.8886070" lon="10.2823580">
	<ele>1917.60</ele>
	<time>2025-07-29T08:18:22.000Z</time>
</trkpt>
<trkpt lat="45.8886070" lon="10.2823580">
	<ele>1917.40</ele>
	<time>2025-07-29T08:18:23.000Z</time>
</trkpt>
<trkpt lat="45.8886070" lon="10.2823580">
	<ele>1917.40</ele>
	<time>2025-07-29T08:18:24.000Z</time>
</trkpt>
<trkpt lat="45.8886060" lon="10.2823580">
	<ele>1917.40</ele>
	<time>2025-07-29T08:18:25.000Z</time>
</trkpt>
<trkpt lat="45.8886060" lon="10.2823580">
	<ele>1917.20</ele>
	<time>2025-07-29T08:18:26.000Z</time>
</trkpt>
<trkpt lat="45.8886050" lon="10.2823580">
	<ele>1917.20</ele>
	<time>2025-07-29T08:18:27.000Z</time>
</trkpt>
<trkpt lat="45.8886040" lon="10.2823570">
	<ele>1917.20</ele>
	<time>2025-07-29T08:18:28.000Z</time>
</trkpt>
<trkpt lat="45.8886040" lon="10.2823560">
	<ele>1917.20</ele>
	<time>2025-07-29T08:18:29.000Z</time>
</trkpt>
<trkpt lat="45.8886040" lon="10.2823560">
	<ele>1917.40</ele>
	<time>2025-07-29T08:18:30.000Z</time>
</trkpt>
<trkpt lat="45.8886030" lon="10.2823550">
	<ele>1917.40</ele>
	<time>2025-07-29T08:18:31.000Z</time>
</trkpt>
<trkpt lat="45.8886030" lon="10.2823550">
	<ele>1917.40</ele>
	<time>2025-07-29T08:18:32.000Z</time>
</trkpt>
<trkpt lat="45.8886030" lon="10.2823550">
	<ele>1917.60</ele>
	<time>2025-07-29T08:18:33.000Z</time>
</trkpt>
<trkpt lat="45.8886030" lon="10.2823550">
	<ele>1917.60</ele>
	<time>2025-07-29T08:18:34.000Z</time>
</trkpt>
<trkpt lat="45.8886030" lon="10.2823550">
	<ele>1917.60</ele>
	<time>2025-07-29T08:18:35.000Z</time>
</trkpt>
<trkpt lat="45.8886030" lon="10.2823550">
	<ele>1917.60</ele>
	<time>2025-07-29T08:18:36.000Z</time>
</trkpt>
<trkpt lat="45.8886030" lon="10.2823550">
	<ele>1917.40</ele>
	<time>2025-07-29T08:18:37.000Z</time>
</trkpt>
<trkpt lat="45.8886030" lon="10.2823550">
	<ele>1917.40</ele>
	<time>2025-07-29T08:18:38.000Z</time>
</trkpt>
<trkpt lat="45.8886030" lon="10.2823550">
	<ele>1917.40</ele>
	<time>2025-07-29T08:18:39.000Z</time>
</trkpt>
<trkpt lat="45.8886030" lon="10.2823550">
	<ele>1917.20</ele>
	<time>2025-07-29T08:18:40.000Z</time>
</trkpt>
<trkpt lat="45.8886030" lon="10.2823550">
	<ele>1917.20</ele>
	<time>2025-07-29T08:18:41.000Z</time>
</trkpt>
<trkpt lat="45.8886030" lon="10.2823550">
	<ele>1917.20</ele>
	<time>2025-07-29T08:18:42.000Z</time>
</trkpt>
<trkpt lat="45.8886030" lon="10.2823550">
	<ele>1917.20</ele>
	<time>2025-07-29T08:18:43.000Z</time>
</trkpt>
<trkpt lat="45.8886030" lon="10.2823550">
	<ele>1917.20</ele>
	<time>2025-07-29T08:18:44.000Z</time>
</trkpt>
<trkpt lat="45.8886030" lon="10.2823550">
	<ele>1917.20</ele>
	<time>2025-07-29T08:18:45.000Z</time>
</trkpt>
<trkpt lat="45.8886030" lon="10.2823550">
	<ele>1917.20</ele>
	<time>2025-07-29T08:18:46.000Z</time>
</trkpt>
<trkpt lat="45.8886030" lon="10.2823540">
	<ele>1917.20</ele>
	<time>2025-07-29T08:18:47.000Z</time>
</trkpt>
<trkpt lat="45.8886030" lon="10.2823540">
	<ele>1917.20</ele>
	<time>2025-07-29T08:18:48.000Z</time>
</trkpt>
<trkpt lat="45.8886020" lon="10.2823540">
	<ele>1917.20</ele>
	<time>2025-07-29T08:18:49.000Z</time>
</trkpt>
<trkpt lat="45.8886020" lon="10.2823540">
	<ele>1917.20</ele>
	<time>2025-07-29T08:18:50.000Z</time>
</trkpt>
<trkpt lat="45.8886020" lon="10.2823540">
	<ele>1917.20</ele>
	<time>2025-07-29T08:18:51.000Z</time>
</trkpt>
<trkpt lat="45.8886030" lon="10.2823540">
	<ele>1917.20</ele>
	<time>2025-07-29T08:18:52.000Z</time>
</trkpt>
<trkpt lat="45.8886030" lon="10.2823540">
	<ele>1917.20</ele>
	<time>2025-07-29T08:18:53.000Z</time>
</trkpt>
<trkpt lat="45.8886030" lon="10.2823540">
	<ele>1917.40</ele>
	<time>2025-07-29T08:18:54.000Z</time>
</trkpt>
<trkpt lat="45.8886030" lon="10.2823540">
	<ele>1917.40</ele>
	<time>2025-07-29T08:18:55.000Z</time>
</trkpt>
<trkpt lat="45.8886030" lon="10.2823540">
	<ele>1917.40</ele>
	<time>2025-07-29T08:18:56.000Z</time>
</trkpt>
<trkpt lat="45.8886030" lon="10.2823540">
	<ele>1917.40</ele>
	<time>2025-07-29T08:18:57.000Z</time>
</trkpt>
<trkpt lat="45.8886030" lon="10.2823540">
	<ele>1917.40</ele>
	<time>2025-07-29T08:18:58.000Z</time>
</trkpt>
<trkpt lat="45.8886030" lon="10.2823540">
	<ele>1917.40</ele>
	<time>2025-07-29T08:18:59.000Z</time>
</trkpt>
<trkpt lat="45.8886030" lon="10.2823540">
	<ele>1917.40</ele>
	<time>2025-07-29T08:19:00.000Z</time>
</trkpt>
<trkpt lat="45.8886030" lon="10.2823540">
	<ele>1917.40</ele>
	<time>2025-07-29T08:19:01.000Z</time>
</trkpt>
<trkpt lat="45.8886030" lon="10.2823530">
	<ele>1917.60</ele>
	<time>2025-07-29T08:19:02.000Z</time>
</trkpt>
<trkpt lat="45.8886030" lon="10.2823530">
	<ele>1917.60</ele>
	<time>2025-07-29T08:19:03.000Z</time>
</trkpt>
<trkpt lat="45.8886030" lon="10.2823530">
	<ele>1917.60</ele>
	<time>2025-07-29T08:19:04.000Z</time>
</trkpt>
<trkpt lat="45.8886030" lon="10.2823530">
	<ele>1917.40</ele>
	<time>2025-07-29T08:19:05.000Z</time>
</trkpt>
<trkpt lat="45.8886030" lon="10.2823530">
	<ele>1917.40</ele>
	<time>2025-07-29T08:19:06.000Z</time>
</trkpt>
<trkpt lat="45.8886030" lon="10.2823530">
	<ele>1917.40</ele>
	<time>2025-07-29T08:19:07.000Z</time>
</trkpt>
<trkpt lat="45.8886030" lon="10.2823530">
	<ele>1917.40</ele>
	<time>2025-07-29T08:19:08.000Z</time>
</trkpt>
<trkpt lat="45.8886030" lon="10.2823530">
	<ele>1917.40</ele>
	<time>2025-07-29T08:19:09.000Z</time>
</trkpt>
<trkpt lat="45.8886030" lon="10.2823530">
	<ele>1917.40</ele>
	<time>2025-07-29T08:19:10.000Z</time>
</trkpt>
<trkpt lat="45.8886030" lon="10.2823530">
	<ele>1917.40</ele>
	<time>2025-07-29T08:19:11.000Z</time>
</trkpt>
<trkpt lat="45.8886030" lon="10.2823530">
	<ele>1917.40</ele>
	<time>2025-07-29T08:19:12.000Z</time>
</trkpt>
<trkpt lat="45.8886030" lon="10.2823530">
	<ele>1917.40</ele>
	<time>2025-07-29T08:19:13.000Z</time>
</trkpt>
<trkpt lat="45.8886030" lon="10.2823530">
	<ele>1917.40</ele>
	<time>2025-07-29T08:19:14.000Z</time>
</trkpt>
<trkpt lat="45.8886030" lon="10.2823520">
	<ele>1917.40</ele>
	<time>2025-07-29T08:19:15.000Z</time>
</trkpt>
<trkpt lat="45.8886030" lon="10.2823520">
	<ele>1917.40</ele>
	<time>2025-07-29T08:19:16.000Z</time>
</trkpt>
<trkpt lat="45.8886030" lon="10.2823520">
	<ele>1917.40</ele>
	<time>2025-07-29T08:19:17.000Z</time>
</trkpt>
<trkpt lat="45.8886030" lon="10.2823520">
	<ele>1917.40</ele>
	<time>2025-07-29T08:19:18.000Z</time>
</trkpt>
<trkpt lat="45.8886030" lon="10.2823520">
	<ele>1917.40</ele>
	<time>2025-07-29T08:19:19.000Z</time>
</trkpt>
<trkpt lat="45.8886030" lon="10.2823520">
	<ele>1917.40</ele>
	<time>2025-07-29T08:19:20.000Z</time>
</trkpt>
<trkpt lat="45.8886030" lon="10.2823520">
	<ele>1917.40</ele>
	<time>2025-07-29T08:19:21.000Z</time>
</trkpt>
<trkpt lat="45.8886030" lon="10.2823520">
	<ele>1917.20</ele>
	<time>2025-07-29T08:19:22.000Z</time>
</trkpt>
<trkpt lat="45.8886030" lon="10.2823520">
	<ele>1917.20</ele>
	<time>2025-07-29T08:19:23.000Z</time>
</trkpt>
<trkpt lat="45.8886030" lon="10.2823520">
	<ele>1917.40</ele>
	<time>2025-07-29T08:19:24.000Z</time>
</trkpt>
<trkpt lat="45.8886030" lon="10.2823520">
	<ele>1917.40</ele>
	<time>2025-07-29T08:19:25.000Z</time>
</trkpt>
<trkpt lat="45.8886030" lon="10.2823520">
	<ele>1917.20</ele>
	<time>2025-07-29T08:19:26.000Z</time>
</trkpt>
<trkpt lat="45.8886030" lon="10.2823520">
	<ele>1917.20</ele>
	<time>2025-07-29T08:19:27.000Z</time>
</trkpt>
<trkpt lat="45.8886030" lon="10.2823510">
	<ele>1917.20</ele>
	<time>2025-07-29T08:19:28.000Z</time>
</trkpt>
<trkpt lat="45.8886030" lon="10.2823510">
	<ele>1917.20</ele>
	<time>2025-07-29T08:19:29.000Z</time>
</trkpt>
<trkpt lat="45.8886030" lon="10.2823510">
	<ele>1917.20</ele>
	<time>2025-07-29T08:19:30.000Z</time>
</trkpt>
<trkpt lat="45.8886030" lon="10.2823510">
	<ele>1917.20</ele>
	<time>2025-07-29T08:19:31.000Z</time>
</trkpt>
<trkpt lat="45.8886030" lon="10.2823510">
	<ele>1917.20</ele>
	<time>2025-07-29T08:19:32.000Z</time>
</trkpt>
<trkpt lat="45.8886030" lon="10.2823510">
	<ele>1917.20</ele>
	<time>2025-07-29T08:19:33.000Z</time>
</trkpt>
<trkpt lat="45.8886030" lon="10.2823510">
	<ele>1917.20</ele>
	<time>2025-07-29T08:19:34.000Z</time>
</trkpt>
<trkpt lat="45.8886030" lon="10.2823510">
	<ele>1917.20</ele>
	<time>2025-07-29T08:19:35.000Z</time>
</trkpt>
<trkpt lat="45.8886030" lon="10.2823510">
	<ele>1917.20</ele>
	<time>2025-07-29T08:19:36.000Z</time>
</trkpt>
<trkpt lat="45.8886030" lon="10.2823510">
	<ele>1917.20</ele>
	<time>2025-07-29T08:19:37.000Z</time>
</trkpt>
<trkpt lat="45.8886030" lon="10.2823510">
	<ele>1917.20</ele>
	<time>2025-07-29T08:19:38.000Z</time>
</trkpt>
<trkpt lat="45.8886030" lon="10.2823510">
	<ele>1917.20</ele>
	<time>2025-07-29T08:19:39.000Z</time>
</trkpt>
<trkpt lat="45.8886030" lon="10.2823510">
	<ele>1917.20</ele>
	<time>2025-07-29T08:19:40.000Z</time>
</trkpt>
<trkpt lat="45.8886030" lon="10.2823510">
	<ele>1917.20</ele>
	<time>2025-07-29T08:19:41.000Z</time>
</trkpt>
<trkpt lat="45.8886030" lon="10.2823510">
	<ele>1917.20</ele>
	<time>2025-07-29T08:19:42.000Z</time>
</trkpt>
<trkpt lat="45.8886030" lon="10.2823500">
	<ele>1917.20</ele>
	<time>2025-07-29T08:19:43.000Z</time>
</trkpt>
<trkpt lat="45.8886030" lon="10.2823500">
	<ele>1917.20</ele>
	<time>2025-07-29T08:19:44.000Z</time>
</trkpt>
<trkpt lat="45.8886030" lon="10.2823500">
	<ele>1917.20</ele>
	<time>2025-07-29T08:19:45.000Z</time>
</trkpt>
<trkpt lat="45.8886040" lon="10.2823500">
	<ele>1917.20</ele>
	<time>2025-07-29T08:19:46.000Z</time>
</trkpt>
<trkpt lat="45.8886040" lon="10.2823500">
	<ele>1917.20</ele>
	<time>2025-07-29T08:19:47.000Z</time>
</trkpt>
<trkpt lat="45.8886040" lon="10.2823500">
	<ele>1917.20</ele>
	<time>2025-07-29T08:19:48.000Z</time>
</trkpt>
<trkpt lat="45.8886040" lon="10.2823500">
	<ele>1917.20</ele>
	<time>2025-07-29T08:19:49.000Z</time>
</trkpt>
<trkpt lat="45.8886040" lon="10.2823490">
	<ele>1917.20</ele>
	<time>2025-07-29T08:19:50.000Z</time>
</trkpt>
<trkpt lat="45.8886040" lon="10.2823490">
	<ele>1917.20</ele>
	<time>2025-07-29T08:19:51.000Z</time>
</trkpt>
<trkpt lat="45.8886040" lon="10.2823490">
	<ele>1917.20</ele>
	<time>2025-07-29T08:19:52.000Z</time>
</trkpt>
<trkpt lat="45.8886040" lon="10.2823490">
	<ele>1917.20</ele>
	<time>2025-07-29T08:19:53.000Z</time>
</trkpt>
<trkpt lat="45.8886040" lon="10.2823490">
	<ele>1917.20</ele>
	<time>2025-07-29T08:19:54.000Z</time>
</trkpt>
<trkpt lat="45.8886040" lon="10.2823490">
	<ele>1917.20</ele>
	<time>2025-07-29T08:19:55.000Z</time>
</trkpt>
<trkpt lat="45.8886040" lon="10.2823490">
	<ele>1917.20</ele>
	<time>2025-07-29T08:19:56.000Z</time>
</trkpt>
<trkpt lat="45.8886040" lon="10.2823490">
	<ele>1917.20</ele>
	<time>2025-07-29T08:19:57.000Z</time>
</trkpt>
<trkpt lat="45.8886040" lon="10.2823490">
	<ele>1917.20</ele>
	<time>2025-07-29T08:19:58.000Z</time>
</trkpt>
<trkpt lat="45.8886040" lon="10.2823490">
	<ele>1917.20</ele>
	<time>2025-07-29T08:19:59.000Z</time>
</trkpt>
<trkpt lat="45.8886040" lon="10.2823490">
	<ele>1917.20</ele>
	<time>2025-07-29T08:20:00.000Z</time>
</trkpt>
<trkpt lat="45.8886040" lon="10.2823490">
	<ele>1917.20</ele>
	<time>2025-07-29T08:20:01.000Z</time>
</trkpt>
<trkpt lat="45.8886040" lon="10.2823490">
	<ele>1917.20</ele>
	<time>2025-07-29T08:20:02.000Z</time>
</trkpt>
<trkpt lat="45.8886040" lon="10.2823490">
	<ele>1917.20</ele>
	<time>2025-07-29T08:20:03.000Z</time>
</trkpt>
<trkpt lat="45.8886040" lon="10.2823490">
	<ele>1917.20</ele>
	<time>2025-07-29T08:20:04.000Z</time>
</trkpt>
<trkpt lat="45.8886040" lon="10.2823490">
	<ele>1917.20</ele>
	<time>2025-07-29T08:20:05.000Z</time>
</trkpt>
<trkpt lat="45.8886040" lon="10.2823480">
	<ele>1917.20</ele>
	<time>2025-07-29T08:20:06.000Z</time>
</trkpt>
<trkpt lat="45.8886040" lon="10.2823480">
	<ele>1917.20</ele>
	<time>2025-07-29T08:20:07.000Z</time>
</trkpt>
<trkpt lat="45.8886040" lon="10.2823480">
	<ele>1917.20</ele>
	<time>2025-07-29T08:20:08.000Z</time>
</trkpt>
<trkpt lat="45.8886040" lon="10.2823480">
	<ele>1917.20</ele>
	<time>2025-07-29T08:20:09.000Z</time>
</trkpt>
<trkpt lat="45.8886040" lon="10.2823480">
	<ele>1917.20</ele>
	<time>2025-07-29T08:20:10.000Z</time>
</trkpt>
<trkpt lat="45.8886040" lon="10.2823480">
	<ele>1917.20</ele>
	<time>2025-07-29T08:20:11.000Z</time>
</trkpt>
<trkpt lat="45.8886040" lon="10.2823480">
	<ele>1917.20</ele>
	<time>2025-07-29T08:20:12.000Z</time>
</trkpt>
<trkpt lat="45.8886040" lon="10.2823480">
	<ele>1917.20</ele>
	<time>2025-07-29T08:20:13.000Z</time>
</trkpt>
<trkpt lat="45.8886040" lon="10.2823480">
	<ele>1917.20</ele>
	<time>2025-07-29T08:20:14.000Z</time>
</trkpt>
<trkpt lat="45.8886040" lon="10.2823480">
	<ele>1917.20</ele>
	<time>2025-07-29T08:20:15.000Z</time>
</trkpt>
<trkpt lat="45.8886040" lon="10.2823480">
	<ele>1917.20</ele>
	<time>2025-07-29T08:20:16.000Z</time>
</trkpt>
<trkpt lat="45.8886040" lon="10.2823480">
	<ele>1917.20</ele>
	<time>2025-07-29T08:20:17.000Z</time>
</trkpt>
<trkpt lat="45.8886040" lon="10.2823480">
	<ele>1917.20</ele>
	<time>2025-07-29T08:20:18.000Z</time>
</trkpt>
<trkpt lat="45.8886040" lon="10.2823480">
	<ele>1917.20</ele>
	<time>2025-07-29T08:20:19.000Z</time>
</trkpt>
<trkpt lat="45.8886040" lon="10.2823480">
	<ele>1917.20</ele>
	<time>2025-07-29T08:20:20.000Z</time>
</trkpt>
<trkpt lat="45.8886040" lon="10.2823480">
	<ele>1917.20</ele>
	<time>2025-07-29T08:20:21.000Z</time>
</trkpt>
<trkpt lat="45.8886040" lon="10.2823480">
	<ele>1917.20</ele>
	<time>2025-07-29T08:20:22.000Z</time>
</trkpt>
<trkpt lat="45.8886040" lon="10.2823480">
	<ele>1917.20</ele>
	<time>2025-07-29T08:20:23.000Z</time>
</trkpt>
<trkpt lat="45.8886040" lon="10.2823480">
	<ele>1917.20</ele>
	<time>2025-07-29T08:20:24.000Z</time>
</trkpt>
<trkpt lat="45.8886040" lon="10.2823480">
	<ele>1917.20</ele>
	<time>2025-07-29T08:20:25.000Z</time>
</trkpt>
<trkpt lat="45.8886040" lon="10.2823480">
	<ele>1917.20</ele>
	<time>2025-07-29T08:20:26.000Z</time>
</trkpt>
<trkpt lat="45.8886040" lon="10.2823480">
	<ele>1917.20</ele>
	<time>2025-07-29T08:20:27.000Z</time>
</trkpt>
<trkpt lat="45.8886040" lon="10.2823480">
	<ele>1917.20</ele>
	<time>2025-07-29T08:20:28.000Z</time>
</trkpt>
<trkpt lat="45.8886040" lon="10.2823480">
	<ele>1917.20</ele>
	<time>2025-07-29T08:20:29.000Z</time>
</trkpt>
<trkpt lat="45.8886040" lon="10.2823480">
	<ele>1917.20</ele>
	<time>2025-07-29T08:20:30.000Z</time>
</trkpt>
<trkpt lat="45.8886050" lon="10.2823480">
	<ele>1917.20</ele>
	<time>2025-07-29T08:20:31.000Z</time>
</trkpt>
<trkpt lat="45.8886050" lon="10.2823480">
	<ele>1917.20</ele>
	<time>2025-07-29T08:20:32.000Z</time>
</trkpt>
<trkpt lat="45.8886040" lon="10.2823480">
	<ele>1917.20</ele>
	<time>2025-07-29T08:20:33.000Z</time>
</trkpt>
<trkpt lat="45.8886050" lon="10.2823480">
	<ele>1917.20</ele>
	<time>2025-07-29T08:20:34.000Z</time>
</trkpt>
<trkpt lat="45.8886040" lon="10.2823480">
	<ele>1917.20</ele>
	<time>2025-07-29T08:20:35.000Z</time>
</trkpt>
<trkpt lat="45.8886040" lon="10.2823480">
	<ele>1917.20</ele>
	<time>2025-07-29T08:20:36.000Z</time>
</trkpt>
<trkpt lat="45.8886040" lon="10.2823480">
	<ele>1917.20</ele>
	<time>2025-07-29T08:20:37.000Z</time>
</trkpt>
<trkpt lat="45.8886040" lon="10.2823480">
	<ele>1917.20</ele>
	<time>2025-07-29T08:20:38.000Z</time>
</trkpt>
<trkpt lat="45.8886040" lon="10.2823480">
	<ele>1917.20</ele>
	<time>2025-07-29T08:20:39.000Z</time>
</trkpt>
<trkpt lat="45.8886000" lon="10.2823510">
	<ele>1917.20</ele>
	<time>2025-07-29T08:20:40.000Z</time>
</trkpt>
<trkpt lat="45.8885910" lon="10.2823540">
	<ele>1917.20</ele>
	<time>2025-07-29T08:20:41.000Z</time>
</trkpt>
<trkpt lat="45.8885800" lon="10.2823610">
	<ele>1917.20</ele>
	<time>2025-07-29T08:20:42.000Z</time>
</trkpt>
<trkpt lat="45.8885660" lon="10.2823700">
	<ele>1917.20</ele>
	<time>2025-07-29T08:20:43.000Z</time>
</trkpt>
<trkpt lat="45.8885500" lon="10.2823790">
	<ele>1917.20</ele>
	<time>2025-07-29T08:20:44.000Z</time>
</trkpt>
<trkpt lat="45.8885350" lon="10.2823880">
	<ele>1917.20</ele>
	<time>2025-07-29T08:20:45.000Z</time>
</trkpt>
<trkpt lat="45.8885220" lon="10.2823980">
	<ele>1917.20</ele>
	<time>2025-07-29T08:20:46.000Z</time>
</trkpt>
<trkpt lat="45.8885070" lon="10.2824040">
	<ele>1917.20</ele>
	<time>2025-07-29T08:20:47.000Z</time>
</trkpt>
<trkpt lat="45.8884950" lon="10.2824110">
	<ele>1917.20</ele>
	<time>2025-07-29T08:20:48.000Z</time>
</trkpt>
<trkpt lat="45.8884840" lon="10.2824180">
	<ele>1917.20</ele>
	<time>2025-07-29T08:20:49.000Z</time>
</trkpt>
<trkpt lat="45.8884770" lon="10.2824190">
	<ele>1917.20</ele>
	<time>2025-07-29T08:20:50.000Z</time>
</trkpt>
<trkpt lat="45.8884680" lon="10.2824160">
	<ele>1917.20</ele>
	<time>2025-07-29T08:20:51.000Z</time>
</trkpt>
<trkpt lat="45.8884580" lon="10.2824170">
	<ele>1917.60</ele>
	<time>2025-07-29T08:20:52.000Z</time>
</trkpt>
<trkpt lat="45.8884450" lon="10.2824200">
	<ele>1917.80</ele>
	<time>2025-07-29T08:20:53.000Z</time>
</trkpt>
<trkpt lat="45.8884330" lon="10.2824270">
	<ele>1918.40</ele>
	<time>2025-07-29T08:20:54.000Z</time>
</trkpt>
<trkpt lat="45.8884210" lon="10.2824330">
	<ele>1918.60</ele>
	<time>2025-07-29T08:20:55.000Z</time>
</trkpt>
<trkpt lat="45.8884080" lon="10.2824370">
	<ele>1918.80</ele>
	<time>2025-07-29T08:20:56.000Z</time>
</trkpt>
<trkpt lat="45.8883940" lon="10.2824400">
	<ele>1918.80</ele>
	<time>2025-07-29T08:20:57.000Z</time>
</trkpt>
<trkpt lat="45.8883840" lon="10.2824440">
	<ele>1918.80</ele>
	<time>2025-07-29T08:20:58.000Z</time>
</trkpt>
<trkpt lat="45.8883730" lon="10.2824440">
	<ele>1918.80</ele>
	<time>2025-07-29T08:20:59.000Z</time>
</trkpt>
<trkpt lat="45.8883610" lon="10.2824470">
	<ele>1918.80</ele>
	<time>2025-07-29T08:21:00.000Z</time>
</trkpt>
<trkpt lat="45.8883500" lon="10.2824490">
	<ele>1918.80</ele>
	<time>2025-07-29T08:21:01.000Z</time>
</trkpt>
<trkpt lat="45.8883380" lon="10.2824540">
	<ele>1918.60</ele>
	<time>2025-07-29T08:21:02.000Z</time>
</trkpt>
<trkpt lat="45.8883280" lon="10.2824590">
	<ele>1918.40</ele>
	<time>2025-07-29T08:21:03.000Z</time>
</trkpt>
<trkpt lat="45.8883170" lon="10.2824650">
	<ele>1918.40</ele>
	<time>2025-07-29T08:21:04.000Z</time>
</trkpt>
<trkpt lat="45.8883060" lon="10.2824680">
	<ele>1918.20</ele>
	<time>2025-07-29T08:21:05.000Z</time>
</trkpt>
<trkpt lat="45.8882960" lon="10.2824730">
	<ele>1918.20</ele>
	<time>2025-07-29T08:21:06.000Z</time>
</trkpt>
<trkpt lat="45.8882860" lon="10.2824790">
	<ele>1918.20</ele>
	<time>2025-07-29T08:21:07.000Z</time>
</trkpt>
<trkpt lat="45.8882780" lon="10.2824840">
	<ele>1918.20</ele>
	<time>2025-07-29T08:21:08.000Z</time>
</trkpt>
<trkpt lat="45.8882690" lon="10.2824900">
	<ele>1918.20</ele>
	<time>2025-07-29T08:21:09.000Z</time>
</trkpt>
<trkpt lat="45.8882560" lon="10.2824940">
	<ele>1918.20</ele>
	<time>2025-07-29T08:21:10.000Z</time>
</trkpt>
<trkpt lat="45.8882420" lon="10.2824940">
	<ele>1918.20</ele>
	<time>2025-07-29T08:21:11.000Z</time>
</trkpt>
<trkpt lat="45.8882280" lon="10.2824950">
	<ele>1918.20</ele>
	<time>2025-07-29T08:21:12.000Z</time>
</trkpt>
<trkpt lat="45.8882170" lon="10.2824980">
	<ele>1918.20</ele>
	<time>2025-07-29T08:21:13.000Z</time>
</trkpt>
<trkpt lat="45.8882110" lon="10.2825020">
	<ele>1918.20</ele>
	<time>2025-07-29T08:21:14.000Z</time>
</trkpt>
<trkpt lat="45.8882110" lon="10.2825050">
	<ele>1918.20</ele>
	<time>2025-07-29T08:21:15.000Z</time>
</trkpt>
<trkpt lat="45.8882140" lon="10.2825090">
	<ele>1918.20</ele>
	<time>2025-07-29T08:21:16.000Z</time>
</trkpt>
<trkpt lat="45.8882170" lon="10.2825110">
	<ele>1918.20</ele>
	<time>2025-07-29T08:21:17.000Z</time>
</trkpt>
<trkpt lat="45.8882190" lon="10.2825100">
	<ele>1918.20</ele>
	<time>2025-07-29T08:21:18.000Z</time>
</trkpt>
<trkpt lat="45.8882210" lon="10.2825130">
	<ele>1918.20</ele>
	<time>2025-07-29T08:21:19.000Z</time>
</trkpt>
<trkpt lat="45.8882170" lon="10.2825190">
	<ele>1918.20</ele>
	<time>2025-07-29T08:21:20.000Z</time>
</trkpt>
<trkpt lat="45.8882100" lon="10.2825220">
	<ele>1918.20</ele>
	<time>2025-07-29T08:21:21.000Z</time>
</trkpt>
<trkpt lat="45.8882030" lon="10.2825270">
	<ele>1918.00</ele>
	<time>2025-07-29T08:21:22.000Z</time>
</trkpt>
<trkpt lat="45.8881930" lon="10.2825330">
	<ele>1918.00</ele>
	<time>2025-07-29T08:21:23.000Z</time>
</trkpt>
<trkpt lat="45.8881810" lon="10.2825350">
	<ele>1918.00</ele>
	<time>2025-07-29T08:21:24.000Z</time>
</trkpt>
<trkpt lat="45.8881680" lon="10.2825340">
	<ele>1918.00</ele>
	<time>2025-07-29T08:21:25.000Z</time>
</trkpt>
<trkpt lat="45.8881540" lon="10.2825330">
	<ele>1918.00</ele>
	<time>2025-07-29T08:21:26.000Z</time>
</trkpt>
<trkpt lat="45.8881420" lon="10.2825350">
	<ele>1918.20</ele>
	<time>2025-07-29T08:21:27.000Z</time>
</trkpt>
<trkpt lat="45.8881310" lon="10.2825360">
	<ele>1918.20</ele>
	<time>2025-07-29T08:21:28.000Z</time>
</trkpt>
<trkpt lat="45.8881230" lon="10.2825480">
	<ele>1918.20</ele>
	<time>2025-07-29T08:21:29.000Z</time>
</trkpt>
<trkpt lat="45.8881130" lon="10.2825600">
	<ele>1918.40</ele>
	<time>2025-07-29T08:21:30.000Z</time>
</trkpt>
<trkpt lat="45.8881020" lon="10.2825660">
	<ele>1918.60</ele>
	<time>2025-07-29T08:21:31.000Z</time>
</trkpt>
<trkpt lat="45.8880920" lon="10.2825660">
	<ele>1918.60</ele>
	<time>2025-07-29T08:21:32.000Z</time>
</trkpt>
<trkpt lat="45.8880820" lon="10.2825680">
	<ele>1918.80</ele>
	<time>2025-07-29T08:21:33.000Z</time>
</trkpt>
<trkpt lat="45.8880690" lon="10.2825720">
	<ele>1918.80</ele>
	<time>2025-07-29T08:21:34.000Z</time>
</trkpt>
<trkpt lat="45.8880610" lon="10.2825750">
	<ele>1918.80</ele>
	<time>2025-07-29T08:21:35.000Z</time>
</trkpt>
<trkpt lat="45.8880530" lon="10.2825810">
	<ele>1919.00</ele>
	<time>2025-07-29T08:21:36.000Z</time>
</trkpt>
<trkpt lat="45.8880440" lon="10.2825870">
	<ele>1919.00</ele>
	<time>2025-07-29T08:21:37.000Z</time>
</trkpt>
<trkpt lat="45.8880320" lon="10.2825910">
	<ele>1919.20</ele>
	<time>2025-07-29T08:21:38.000Z</time>
</trkpt>
<trkpt lat="45.8880240" lon="10.2825970">
	<ele>1919.40</ele>
	<time>2025-07-29T08:21:39.000Z</time>
</trkpt>
<trkpt lat="45.8880140" lon="10.2826050">
	<ele>1919.60</ele>
	<time>2025-07-29T08:21:40.000Z</time>
</trkpt>
<trkpt lat="45.8880050" lon="10.2826120">
	<ele>1919.60</ele>
	<time>2025-07-29T08:21:41.000Z</time>
</trkpt>
<trkpt lat="45.8879990" lon="10.2826170">
	<ele>1919.80</ele>
	<time>2025-07-29T08:21:42.000Z</time>
</trkpt>
<trkpt lat="45.8879900" lon="10.2826200">
	<ele>1920.00</ele>
	<time>2025-07-29T08:21:43.000Z</time>
</trkpt>
<trkpt lat="45.8879820" lon="10.2826240">
	<ele>1920.00</ele>
	<time>2025-07-29T08:21:44.000Z</time>
</trkpt>
<trkpt lat="45.8879730" lon="10.2826250">
	<ele>1920.40</ele>
	<time>2025-07-29T08:21:45.000Z</time>
</trkpt>
<trkpt lat="45.8879640" lon="10.2826250">
	<ele>1920.40</ele>
	<time>2025-07-29T08:21:46.000Z</time>
</trkpt>
<trkpt lat="45.8879550" lon="10.2826290">
	<ele>1920.60</ele>
	<time>2025-07-29T08:21:47.000Z</time>
</trkpt>
<trkpt lat="45.8879450" lon="10.2826340">
	<ele>1920.60</ele>
	<time>2025-07-29T08:21:48.000Z</time>
</trkpt>
<trkpt lat="45.8879350" lon="10.2826390">
	<ele>1920.60</ele>
	<time>2025-07-29T08:21:49.000Z</time>
</trkpt>
<trkpt lat="45.8879270" lon="10.2826410">
	<ele>1920.80</ele>
	<time>2025-07-29T08:21:50.000Z</time>
</trkpt>
<trkpt lat="45.8879200" lon="10.2826430">
	<ele>1920.80</ele>
	<time>2025-07-29T08:21:51.000Z</time>
</trkpt>
<trkpt lat="45.8879140" lon="10.2826480">
	<ele>1920.80</ele>
	<time>2025-07-29T08:21:52.000Z</time>
</trkpt>
<trkpt lat="45.8879070" lon="10.2826510">
	<ele>1921.20</ele>
	<time>2025-07-29T08:21:53.000Z</time>
</trkpt>
<trkpt lat="45.8878990" lon="10.2826530">
	<ele>1921.60</ele>
	<time>2025-07-29T08:21:54.000Z</time>
</trkpt>
<trkpt lat="45.8878900" lon="10.2826530">
	<ele>1921.80</ele>
	<time>2025-07-29T08:21:55.000Z</time>
</trkpt>
<trkpt lat="45.8878810" lon="10.2826510">
	<ele>1922.00</ele>
	<time>2025-07-29T08:21:56.000Z</time>
</trkpt>
<trkpt lat="45.8878720" lon="10.2826500">
	<ele>1922.00</ele>
	<time>2025-07-29T08:21:57.000Z</time>
</trkpt>
<trkpt lat="45.8878660" lon="10.2826490">
	<ele>1922.40</ele>
	<time>2025-07-29T08:21:58.000Z</time>
</trkpt>
<trkpt lat="45.8878620" lon="10.2826500">
	<ele>1922.60</ele>
	<time>2025-07-29T08:21:59.000Z</time>
</trkpt>
<trkpt lat="45.8878580" lon="10.2826480">
	<ele>1922.80</ele>
	<time>2025-07-29T08:22:00.000Z</time>
</trkpt>
<trkpt lat="45.8878500" lon="10.2826510">
	<ele>1922.80</ele>
	<time>2025-07-29T08:22:01.000Z</time>
</trkpt>
<trkpt lat="45.8878380" lon="10.2826510">
	<ele>1923.00</ele>
	<time>2025-07-29T08:22:02.000Z</time>
</trkpt>
<trkpt lat="45.8878290" lon="10.2826530">
	<ele>1923.00</ele>
	<time>2025-07-29T08:22:03.000Z</time>
</trkpt>
<trkpt lat="45.8878250" lon="10.2826540">
	<ele>1923.20</ele>
	<time>2025-07-29T08:22:04.000Z</time>
</trkpt>
<trkpt lat="45.8878170" lon="10.2826560">
	<ele>1923.20</ele>
	<time>2025-07-29T08:22:05.000Z</time>
</trkpt>
<trkpt lat="45.8878110" lon="10.2826590">
	<ele>1923.40</ele>
	<time>2025-07-29T08:22:06.000Z</time>
</trkpt>
<trkpt lat="45.8878050" lon="10.2826580">
	<ele>1923.60</ele>
	<time>2025-07-29T08:22:07.000Z</time>
</trkpt>
<trkpt lat="45.8877990" lon="10.2826550">
	<ele>1923.80</ele>
	<time>2025-07-29T08:22:08.000Z</time>
</trkpt>
<trkpt lat="45.8877920" lon="10.2826530">
	<ele>1924.00</ele>
	<time>2025-07-29T08:22:09.000Z</time>
</trkpt>
<trkpt lat="45.8877860" lon="10.2826530">
	<ele>1924.20</ele>
	<time>2025-07-29T08:22:10.000Z</time>
</trkpt>
<trkpt lat="45.8877800" lon="10.2826530">
	<ele>1924.40</ele>
	<time>2025-07-29T08:22:11.000Z</time>
</trkpt>
<trkpt lat="45.8877720" lon="10.2826510">
	<ele>1924.40</ele>
	<time>2025-07-29T08:22:12.000Z</time>
</trkpt>
<trkpt lat="45.8877660" lon="10.2826470">
	<ele>1924.60</ele>
	<time>2025-07-29T08:22:13.000Z</time>
</trkpt>
<trkpt lat="45.8877620" lon="10.2826430">
	<ele>1924.80</ele>
	<time>2025-07-29T08:22:14.000Z</time>
</trkpt>
<trkpt lat="45.8877560" lon="10.2826400">
	<ele>1925.00</ele>
	<time>2025-07-29T08:22:15.000Z</time>
</trkpt>
<trkpt lat="45.8877490" lon="10.2826380">
	<ele>1925.00</ele>
	<time>2025-07-29T08:22:16.000Z</time>
</trkpt>
<trkpt lat="45.8877440" lon="10.2826410">
	<ele>1925.40</ele>
	<time>2025-07-29T08:22:17.000Z</time>
</trkpt>
<trkpt lat="45.8877380" lon="10.2826430">
	<ele>1925.60</ele>
	<time>2025-07-29T08:22:18.000Z</time>
</trkpt>
<trkpt lat="45.8877310" lon="10.2826390">
	<ele>1925.80</ele>
	<time>2025-07-29T08:22:19.000Z</time>
</trkpt>
<trkpt lat="45.8877240" lon="10.2826360">
	<ele>1926.00</ele>
	<time>2025-07-29T08:22:20.000Z</time>
</trkpt>
<trkpt lat="45.8877170" lon="10.2826340">
	<ele>1926.20</ele>
	<time>2025-07-29T08:22:21.000Z</time>
</trkpt>
<trkpt lat="45.8877130" lon="10.2826290">
	<ele>1926.40</ele>
	<time>2025-07-29T08:22:22.000Z</time>
</trkpt>
<trkpt lat="45.8877080" lon="10.2826240">
	<ele>1926.60</ele>
	<time>2025-07-29T08:22:23.000Z</time>
</trkpt>
<trkpt lat="45.8877030" lon="10.2826210">
	<ele>1926.80</ele>
	<time>2025-07-29T08:22:24.000Z</time>
</trkpt>
<trkpt lat="45.8876990" lon="10.2826230">
	<ele>1927.00</ele>
	<time>2025-07-29T08:22:25.000Z</time>
</trkpt>
<trkpt lat="45.8876960" lon="10.2826210">
	<ele>1927.00</ele>
	<time>2025-07-29T08:22:26.000Z</time>
</trkpt>
<trkpt lat="45.8876900" lon="10.2826210">
	<ele>1927.20</ele>
	<time>2025-07-29T08:22:27.000Z</time>
</trkpt>
<trkpt lat="45.8876850" lon="10.2826200">
	<ele>1927.20</ele>
	<time>2025-07-29T08:22:28.000Z</time>
</trkpt>
<trkpt lat="45.8876780" lon="10.2826200">
	<ele>1927.40</ele>
	<time>2025-07-29T08:22:29.000Z</time>
</trkpt>
<trkpt lat="45.8876690" lon="10.2826190">
	<ele>1927.60</ele>
	<time>2025-07-29T08:22:30.000Z</time>
</trkpt>
<trkpt lat="45.8876620" lon="10.2826170">
	<ele>1928.00</ele>
	<time>2025-07-29T08:22:31.000Z</time>
</trkpt>
<trkpt lat="45.8876540" lon="10.2826110">
	<ele>1928.00</ele>
	<time>2025-07-29T08:22:32.000Z</time>
</trkpt>
<trkpt lat="45.8876430" lon="10.2826060">
	<ele>1928.20</ele>
	<time>2025-07-29T08:22:33.000Z</time>
</trkpt>
<trkpt lat="45.8876330" lon="10.2826010">
	<ele>1928.40</ele>
	<time>2025-07-29T08:22:34.000Z</time>
</trkpt>
<trkpt lat="45.8876240" lon="10.2825940">
	<ele>1928.60</ele>
	<time>2025-07-29T08:22:35.000Z</time>
</trkpt>
<trkpt lat="45.8876150" lon="10.2825870">
	<ele>1928.80</ele>
	<time>2025-07-29T08:22:36.000Z</time>
</trkpt>
<trkpt lat="45.8876090" lon="10.2825830">
	<ele>1929.00</ele>
	<time>2025-07-29T08:22:37.000Z</time>
</trkpt>
<trkpt lat="45.8876040" lon="10.2825820">
	<ele>1929.00</ele>
	<time>2025-07-29T08:22:38.000Z</time>
</trkpt>
<trkpt lat="45.8875990" lon="10.2825790">
	<ele>1929.20</ele>
	<time>2025-07-29T08:22:39.000Z</time>
</trkpt>
<trkpt lat="45.8875930" lon="10.2825730">
	<ele>1929.20</ele>
	<time>2025-07-29T08:22:40.000Z</time>
</trkpt>
<trkpt lat="45.8875890" lon="10.2825690">
	<ele>1929.40</ele>
	<time>2025-07-29T08:22:41.000Z</time>
</trkpt>
<trkpt lat="45.8875840" lon="10.2825640">
	<ele>1929.60</ele>
	<time>2025-07-29T08:22:42.000Z</time>
</trkpt>
<trkpt lat="45.8875780" lon="10.2825590">
	<ele>1929.80</ele>
	<time>2025-07-29T08:22:43.000Z</time>
</trkpt>
<trkpt lat="45.8875740" lon="10.2825560">
	<ele>1930.20</ele>
	<time>2025-07-29T08:22:44.000Z</time>
</trkpt>
<trkpt lat="45.8875700" lon="10.2825550">
	<ele>1930.40</ele>
	<time>2025-07-29T08:22:45.000Z</time>
</trkpt>
<trkpt lat="45.8875640" lon="10.2825530">
	<ele>1930.60</ele>
	<time>2025-07-29T08:22:46.000Z</time>
</trkpt>
<trkpt lat="45.8875580" lon="10.2825540">
	<ele>1930.80</ele>
	<time>2025-07-29T08:22:47.000Z</time>
</trkpt>
<trkpt lat="45.8875500" lon="10.2825520">
	<ele>1931.00</ele>
	<time>2025-07-29T08:22:48.000Z</time>
</trkpt>
<trkpt lat="45.8875420" lon="10.2825510">
	<ele>1931.20</ele>
	<time>2025-07-29T08:22:49.000Z</time>
</trkpt>
<trkpt lat="45.8875340" lon="10.2825510">
	<ele>1931.20</ele>
	<time>2025-07-29T08:22:50.000Z</time>
</trkpt>
<trkpt lat="45.8875250" lon="10.2825500">
	<ele>1931.40</ele>
	<time>2025-07-29T08:22:51.000Z</time>
</trkpt>
<trkpt lat="45.8875160" lon="10.2825500">
	<ele>1931.60</ele>
	<time>2025-07-29T08:22:52.000Z</time>
</trkpt>
<trkpt lat="45.8875090" lon="10.2825540">
	<ele>1931.80</ele>
	<time>2025-07-29T08:22:53.000Z</time>
</trkpt>
<trkpt lat="45.8875030" lon="10.2825580">
	<ele>1931.80</ele>
	<time>2025-07-29T08:22:54.000Z</time>
</trkpt>
<trkpt lat="45.8874950" lon="10.2825620">
	<ele>1932.00</ele>
	<time>2025-07-29T08:22:55.000Z</time>
</trkpt>
<trkpt lat="45.8874880" lon="10.2825640">
	<ele>1932.20</ele>
	<time>2025-07-29T08:22:56.000Z</time>
</trkpt>
<trkpt lat="45.8874790" lon="10.2825680">
	<ele>1932.20</ele>
	<time>2025-07-29T08:22:57.000Z</time>
</trkpt>
<trkpt lat="45.8874710" lon="10.2825670">
	<ele>1932.40</ele>
	<time>2025-07-29T08:22:58.000Z</time>
</trkpt>
<trkpt lat="45.8874590" lon="10.2825650">
	<ele>1932.60</ele>
	<time>2025-07-29T08:22:59.000Z</time>
</trkpt>
<trkpt lat="45.8874500" lon="10.2825620">
	<ele>1932.60</ele>
	<time>2025-07-29T08:23:00.000Z</time>
</trkpt>
<trkpt lat="45.8874450" lon="10.2825620">
	<ele>1933.00</ele>
	<time>2025-07-29T08:23:01.000Z</time>
</trkpt>
<trkpt lat="45.8874430" lon="10.2825600">
	<ele>1933.20</ele>
	<time>2025-07-29T08:23:02.000Z</time>
</trkpt>
<trkpt lat="45.8874390" lon="10.2825560">
	<ele>1933.40</ele>
	<time>2025-07-29T08:23:03.000Z</time>
</trkpt>
<trkpt lat="45.8874350" lon="10.2825540">
	<ele>1933.60</ele>
	<time>2025-07-29T08:23:04.000Z</time>
</trkpt>
<trkpt lat="45.8874290" lon="10.2825520">
	<ele>1933.80</ele>
	<time>2025-07-29T08:23:05.000Z</time>
</trkpt>
<trkpt lat="45.8874200" lon="10.2825510">
	<ele>1934.00</ele>
	<time>2025-07-29T08:23:06.000Z</time>
</trkpt>
<trkpt lat="45.8874160" lon="10.2825510">
	<ele>1934.20</ele>
	<time>2025-07-29T08:23:07.000Z</time>
</trkpt>
<trkpt lat="45.8874090" lon="10.2825520">
	<ele>1934.20</ele>
	<time>2025-07-29T08:23:08.000Z</time>
</trkpt>
<trkpt lat="45.8874040" lon="10.2825490">
	<ele>1934.20</ele>
	<time>2025-07-29T08:23:09.000Z</time>
</trkpt>
<trkpt lat="45.8873990" lon="10.2825480">
	<ele>1934.20</ele>
	<time>2025-07-29T08:23:10.000Z</time>
</trkpt>
<trkpt lat="45.8873960" lon="10.2825460">
	<ele>1934.60</ele>
	<time>2025-07-29T08:23:11.000Z</time>
</trkpt>
<trkpt lat="45.8873920" lon="10.2825460">
	<ele>1935.00</ele>
	<time>2025-07-29T08:23:12.000Z</time>
</trkpt>
<trkpt lat="45.8873880" lon="10.2825480">
	<ele>1935.20</ele>
	<time>2025-07-29T08:23:13.000Z</time>
</trkpt>
<trkpt lat="45.8873830" lon="10.2825540">
	<ele>1935.40</ele>
	<time>2025-07-29T08:23:14.000Z</time>
</trkpt>
<trkpt lat="45.8873800" lon="10.2825620">
	<ele>1935.40</ele>
	<time>2025-07-29T08:23:15.000Z</time>
</trkpt>
<trkpt lat="45.8873750" lon="10.2825650">
	<ele>1935.60</ele>
	<time>2025-07-29T08:23:16.000Z</time>
</trkpt>
<trkpt lat="45.8873710" lon="10.2825670">
	<ele>1935.60</ele>
	<time>2025-07-29T08:23:17.000Z</time>
</trkpt>
<trkpt lat="45.8873660" lon="10.2825690">
	<ele>1935.60</ele>
	<time>2025-07-29T08:23:18.000Z</time>
</trkpt>
<trkpt lat="45.8873650" lon="10.2825680">
	<ele>1935.80</ele>
	<time>2025-07-29T08:23:19.000Z</time>
</trkpt>
<trkpt lat="45.8873580" lon="10.2825700">
	<ele>1936.00</ele>
	<time>2025-07-29T08:23:20.000Z</time>
</trkpt>
<trkpt lat="45.8873530" lon="10.2825750">
	<ele>1936.20</ele>
	<time>2025-07-29T08:23:21.000Z</time>
</trkpt>
<trkpt lat="45.8873500" lon="10.2825800">
	<ele>1936.40</ele>
	<time>2025-07-29T08:23:22.000Z</time>
</trkpt>
<trkpt lat="45.8873480" lon="10.2825810">
	<ele>1936.60</ele>
	<time>2025-07-29T08:23:23.000Z</time>
</trkpt>
<trkpt lat="45.8873440" lon="10.2825850">
	<ele>1936.80</ele>
	<time>2025-07-29T08:23:24.000Z</time>
</trkpt>
<trkpt lat="45.8873400" lon="10.2825870">
	<ele>1937.00</ele>
	<time>2025-07-29T08:23:25.000Z</time>
</trkpt>
<trkpt lat="45.8873370" lon="10.2825850">
	<ele>1937.20</ele>
	<time>2025-07-29T08:23:26.000Z</time>
</trkpt>
<trkpt lat="45.8873300" lon="10.2825820">
	<ele>1937.20</ele>
	<time>2025-07-29T08:23:27.000Z</time>
</trkpt>
<trkpt lat="45.8873260" lon="10.2825790">
	<ele>1937.40</ele>
	<time>2025-07-29T08:23:28.000Z</time>
</trkpt>
<trkpt lat="45.8873210" lon="10.2825760">
	<ele>1937.40</ele>
	<time>2025-07-29T08:23:29.000Z</time>
</trkpt>
<trkpt lat="45.8873150" lon="10.2825760">
	<ele>1937.60</ele>
	<time>2025-07-29T08:23:30.000Z</time>
</trkpt>
<trkpt lat="45.8873120" lon="10.2825790">
	<ele>1937.80</ele>
	<time>2025-07-29T08:23:31.000Z</time>
</trkpt>
<trkpt lat="45.8873090" lon="10.2825850">
	<ele>1938.00</ele>
	<time>2025-07-29T08:23:32.000Z</time>
</trkpt>
<trkpt lat="45.8873050" lon="10.2825870">
	<ele>1938.20</ele>
	<time>2025-07-29T08:23:33.000Z</time>
</trkpt>
<trkpt lat="45.8873000" lon="10.2825860">
	<ele>1938.40</ele>
	<time>2025-07-29T08:23:34.000Z</time>
</trkpt>
<trkpt lat="45.8872950" lon="10.2825870">
	<ele>1938.60</ele>
	<time>2025-07-29T08:23:35.000Z</time>
</trkpt>
<trkpt lat="45.8872940" lon="10.2825910">
	<ele>1938.60</ele>
	<time>2025-07-29T08:23:36.000Z</time>
</trkpt>
<trkpt lat="45.8872930" lon="10.2825940">
	<ele>1939.00</ele>
	<time>2025-07-29T08:23:37.000Z</time>
</trkpt>
<trkpt lat="45.8872910" lon="10.2825940">
	<ele>1939.00</ele>
	<time>2025-07-29T08:23:38.000Z</time>
</trkpt>
<trkpt lat="45.8872870" lon="10.2825940">
	<ele>1939.20</ele>
	<time>2025-07-29T08:23:39.000Z</time>
</trkpt>
<trkpt lat="45.8872830" lon="10.2825930">
	<ele>1939.20</ele>
	<time>2025-07-29T08:23:40.000Z</time>
</trkpt>
<trkpt lat="45.8872790" lon="10.2825910">
	<ele>1939.40</ele>
	<time>2025-07-29T08:23:41.000Z</time>
</trkpt>
<trkpt lat="45.8872730" lon="10.2825890">
	<ele>1939.60</ele>
	<time>2025-07-29T08:23:42.000Z</time>
</trkpt>
<trkpt lat="45.8872680" lon="10.2825890">
	<ele>1939.80</ele>
	<time>2025-07-29T08:23:43.000Z</time>
</trkpt>
<trkpt lat="45.8872630" lon="10.2825900">
	<ele>1940.00</ele>
	<time>2025-07-29T08:23:44.000Z</time>
</trkpt>
<trkpt lat="45.8872570" lon="10.2825870">
	<ele>1940.20</ele>
	<time>2025-07-29T08:23:45.000Z</time>
</trkpt>
<trkpt lat="45.8872510" lon="10.2825860">
	<ele>1940.40</ele>
	<time>2025-07-29T08:23:46.000Z</time>
</trkpt>
<trkpt lat="45.8872480" lon="10.2825860">
	<ele>1940.80</ele>
	<time>2025-07-29T08:23:47.000Z</time>
</trkpt>
<trkpt lat="45.8872450" lon="10.2825890">
	<ele>1941.00</ele>
	<time>2025-07-29T08:23:48.000Z</time>
</trkpt>
<trkpt lat="45.8872420" lon="10.2825910">
	<ele>1941.20</ele>
	<time>2025-07-29T08:23:49.000Z</time>
</trkpt>
<trkpt lat="45.8872370" lon="10.2825910">
	<ele>1941.20</ele>
	<time>2025-07-29T08:23:50.000Z</time>
</trkpt>
<trkpt lat="45.8872310" lon="10.2825920">
	<ele>1941.40</ele>
	<time>2025-07-29T08:23:51.000Z</time>
</trkpt>
<trkpt lat="45.8872260" lon="10.2825960">
	<ele>1941.60</ele>
	<time>2025-07-29T08:23:52.000Z</time>
</trkpt>
<trkpt lat="45.8872210" lon="10.2825990">
	<ele>1941.80</ele>
	<time>2025-07-29T08:23:53.000Z</time>
</trkpt>
<trkpt lat="45.8872180" lon="10.2826020">
	<ele>1941.80</ele>
	<time>2025-07-29T08:23:54.000Z</time>
</trkpt>
<trkpt lat="45.8872140" lon="10.2826020">
	<ele>1942.00</ele>
	<time>2025-07-29T08:23:55.000Z</time>
</trkpt>
<trkpt lat="45.8872110" lon="10.2826010">
	<ele>1942.00</ele>
	<time>2025-07-29T08:23:56.000Z</time>
</trkpt>
<trkpt lat="45.8872080" lon="10.2825970">
	<ele>1942.20</ele>
	<time>2025-07-29T08:23:57.000Z</time>
</trkpt>
<trkpt lat="45.8872060" lon="10.2825920">
	<ele>1942.40</ele>
	<time>2025-07-29T08:23:58.000Z</time>
</trkpt>
<trkpt lat="45.8872020" lon="10.2825900">
	<ele>1942.60</ele>
	<time>2025-07-29T08:23:59.000Z</time>
</trkpt>
<trkpt lat="45.8871990" lon="10.2825900">
	<ele>1942.80</ele>
	<time>2025-07-29T08:24:00.000Z</time>
</trkpt>
<trkpt lat="45.8871960" lon="10.2825890">
	<ele>1943.00</ele>
	<time>2025-07-29T08:24:01.000Z</time>
</trkpt>
<trkpt lat="45.8871920" lon="10.2825900">
	<ele>1943.00</ele>
	<time>2025-07-29T08:24:02.000Z</time>
</trkpt>
<trkpt lat="45.8871880" lon="10.2825900">
	<ele>1943.20</ele>
	<time>2025-07-29T08:24:03.000Z</time>
</trkpt>
<trkpt lat="45.8871810" lon="10.2825910">
	<ele>1943.40</ele>
	<time>2025-07-29T08:24:04.000Z</time>
</trkpt>
<trkpt lat="45.8871760" lon="10.2825890">
	<ele>1943.40</ele>
	<time>2025-07-29T08:24:05.000Z</time>
</trkpt>
<trkpt lat="45.8871710" lon="10.2825890">
	<ele>1943.60</ele>
	<time>2025-07-29T08:24:06.000Z</time>
</trkpt>
<trkpt lat="45.8871660" lon="10.2825870">
	<ele>1943.60</ele>
	<time>2025-07-29T08:24:07.000Z</time>
</trkpt>
<trkpt lat="45.8871570" lon="10.2825880">
	<ele>1944.00</ele>
	<time>2025-07-29T08:24:08.000Z</time>
</trkpt>
<trkpt lat="45.8871500" lon="10.2825880">
	<ele>1944.20</ele>
	<time>2025-07-29T08:24:09.000Z</time>
</trkpt>
<trkpt lat="45.8871460" lon="10.2825920">
	<ele>1944.40</ele>
	<time>2025-07-29T08:24:10.000Z</time>
</trkpt>
<trkpt lat="45.8871430" lon="10.2825930">
	<ele>1944.60</ele>
	<time>2025-07-29T08:24:11.000Z</time>
</trkpt>
<trkpt lat="45.8871370" lon="10.2825910">
	<ele>1944.80</ele>
	<time>2025-07-29T08:24:12.000Z</time>
</trkpt>
<trkpt lat="45.8871310" lon="10.2825890">
	<ele>1945.00</ele>
	<time>2025-07-29T08:24:13.000Z</time>
</trkpt>
<trkpt lat="45.8871270" lon="10.2825900">
	<ele>1945.20</ele>
	<time>2025-07-29T08:24:14.000Z</time>
</trkpt>
<trkpt lat="45.8871240" lon="10.2825880">
	<ele>1945.40</ele>
	<time>2025-07-29T08:24:15.000Z</time>
</trkpt>
<trkpt lat="45.8871200" lon="10.2825890">
	<ele>1945.60</ele>
	<time>2025-07-29T08:24:16.000Z</time>
</trkpt>
<trkpt lat="45.8871170" lon="10.2825900">
	<ele>1945.80</ele>
	<time>2025-07-29T08:24:17.000Z</time>
</trkpt>
<trkpt lat="45.8871130" lon="10.2825890">
	<ele>1946.00</ele>
	<time>2025-07-29T08:24:18.000Z</time>
</trkpt>
<trkpt lat="45.8871050" lon="10.2825890">
	<ele>1946.20</ele>
	<time>2025-07-29T08:24:19.000Z</time>
</trkpt>
<trkpt lat="45.8870970" lon="10.2825860">
	<ele>1946.20</ele>
	<time>2025-07-29T08:24:20.000Z</time>
</trkpt>
<trkpt lat="45.8870920" lon="10.2825790">
	<ele>1946.40</ele>
	<time>2025-07-29T08:24:21.000Z</time>
</trkpt>
<trkpt lat="45.8870840" lon="10.2825730">
	<ele>1946.60</ele>
	<time>2025-07-29T08:24:22.000Z</time>
</trkpt>
<trkpt lat="45.8870760" lon="10.2825680">
	<ele>1946.80</ele>
	<time>2025-07-29T08:24:23.000Z</time>
</trkpt>
<trkpt lat="45.8870730" lon="10.2825650">
	<ele>1947.00</ele>
	<time>2025-07-29T08:24:24.000Z</time>
</trkpt>
<trkpt lat="45.8870700" lon="10.2825620">
	<ele>1947.20</ele>
	<time>2025-07-29T08:24:25.000Z</time>
</trkpt>
<trkpt lat="45.8870640" lon="10.2825610">
	<ele>1947.20</ele>
	<time>2025-07-29T08:24:26.000Z</time>
</trkpt>
<trkpt lat="45.8870580" lon="10.2825610">
	<ele>1947.40</ele>
	<time>2025-07-29T08:24:27.000Z</time>
</trkpt>
<trkpt lat="45.8870500" lon="10.2825630">
	<ele>1947.60</ele>
	<time>2025-07-29T08:24:28.000Z</time>
</trkpt>
<trkpt lat="45.8870420" lon="10.2825640">
	<ele>1947.60</ele>
	<time>2025-07-29T08:24:29.000Z</time>
</trkpt>
<trkpt lat="45.8870340" lon="10.2825670">
	<ele>1947.80</ele>
	<time>2025-07-29T08:24:30.000Z</time>
</trkpt>
<trkpt lat="45.8870240" lon="10.2825690">
	<ele>1948.00</ele>
	<time>2025-07-29T08:24:31.000Z</time>
</trkpt>
<trkpt lat="45.8870160" lon="10.2825650">
	<ele>1948.00</ele>
	<time>2025-07-29T08:24:32.000Z</time>
</trkpt>
<trkpt lat="45.8870090" lon="10.2825650">
	<ele>1948.20</ele>
	<time>2025-07-29T08:24:33.000Z</time>
</trkpt>
<trkpt lat="45.8870050" lon="10.2825670">
	<ele>1948.40</ele>
	<time>2025-07-29T08:24:34.000Z</time>
</trkpt>
<trkpt lat="45.8869970" lon="10.2825620">
	<ele>1948.60</ele>
	<time>2025-07-29T08:24:35.000Z</time>
</trkpt>
<trkpt lat="45.8869900" lon="10.2825600">
	<ele>1948.60</ele>
	<time>2025-07-29T08:24:36.000Z</time>
</trkpt>
<trkpt lat="45.8869830" lon="10.2825580">
	<ele>1948.80</ele>
	<time>2025-07-29T08:24:37.000Z</time>
</trkpt>
<trkpt lat="45.8869780" lon="10.2825600">
	<ele>1949.00</ele>
	<time>2025-07-29T08:24:38.000Z</time>
</trkpt>
<trkpt lat="45.8869710" lon="10.2825610">
	<ele>1949.00</ele>
	<time>2025-07-29T08:24:39.000Z</time>
</trkpt>
<trkpt lat="45.8869640" lon="10.2825640">
	<ele>1949.20</ele>
	<time>2025-07-29T08:24:40.000Z</time>
</trkpt>
<trkpt lat="45.8869550" lon="10.2825610">
	<ele>1949.40</ele>
	<time>2025-07-29T08:24:41.000Z</time>
</trkpt>
<trkpt lat="45.8869470" lon="10.2825600">
	<ele>1949.60</ele>
	<time>2025-07-29T08:24:42.000Z</time>
</trkpt>
<trkpt lat="45.8869400" lon="10.2825610">
	<ele>1949.80</ele>
	<time>2025-07-29T08:24:43.000Z</time>
</trkpt>
<trkpt lat="45.8869360" lon="10.2825580">
	<ele>1949.80</ele>
	<time>2025-07-29T08:24:44.000Z</time>
</trkpt>
<trkpt lat="45.8869330" lon="10.2825630">
	<ele>1950.00</ele>
	<time>2025-07-29T08:24:45.000Z</time>
</trkpt>
<trkpt lat="45.8869300" lon="10.2825640">
	<ele>1950.00</ele>
	<time>2025-07-29T08:24:46.000Z</time>
</trkpt>
<trkpt lat="45.8869270" lon="10.2825650">
	<ele>1950.20</ele>
	<time>2025-07-29T08:24:47.000Z</time>
</trkpt>
<trkpt lat="45.8869240" lon="10.2825620">
	<ele>1950.40</ele>
	<time>2025-07-29T08:24:48.000Z</time>
</trkpt>
<trkpt lat="45.8869210" lon="10.2825570">
	<ele>1950.60</ele>
	<time>2025-07-29T08:24:49.000Z</time>
</trkpt>
<trkpt lat="45.8869180" lon="10.2825570">
	<ele>1950.60</ele>
	<time>2025-07-29T08:24:50.000Z</time>
</trkpt>
<trkpt lat="45.8869130" lon="10.2825610">
	<ele>1950.60</ele>
	<time>2025-07-29T08:24:51.000Z</time>
</trkpt>
<trkpt lat="45.8869110" lon="10.2825630">
	<ele>1950.80</ele>
	<time>2025-07-29T08:24:52.000Z</time>
</trkpt>
<trkpt lat="45.8869080" lon="10.2825640">
	<ele>1950.80</ele>
	<time>2025-07-29T08:24:53.000Z</time>
</trkpt>
<trkpt lat="45.8869050" lon="10.2825620">
	<ele>1950.80</ele>
	<time>2025-07-29T08:24:54.000Z</time>
</trkpt>
<trkpt lat="45.8868970" lon="10.2825610">
	<ele>1950.80</ele>
	<time>2025-07-29T08:24:55.000Z</time>
</trkpt>
<trkpt lat="45.8868920" lon="10.2825610">
	<ele>1950.80</ele>
	<time>2025-07-29T08:24:56.000Z</time>
</trkpt>
<trkpt lat="45.8868870" lon="10.2825590">
	<ele>1951.00</ele>
	<time>2025-07-29T08:24:57.000Z</time>
</trkpt>
<trkpt lat="45.8868830" lon="10.2825580">
	<ele>1951.00</ele>
	<time>2025-07-29T08:24:58.000Z</time>
</trkpt>
<trkpt lat="45.8868750" lon="10.2825590">
	<ele>1951.00</ele>
	<time>2025-07-29T08:24:59.000Z</time>
</trkpt>
<trkpt lat="45.8868670" lon="10.2825600">
	<ele>1951.00</ele>
	<time>2025-07-29T08:25:00.000Z</time>
</trkpt>
<trkpt lat="45.8868600" lon="10.2825630">
	<ele>1951.20</ele>
	<time>2025-07-29T08:25:01.000Z</time>
</trkpt>
<trkpt lat="45.8868540" lon="10.2825650">
	<ele>1951.20</ele>
	<time>2025-07-29T08:25:02.000Z</time>
</trkpt>
<trkpt lat="45.8868470" lon="10.2825650">
	<ele>1951.20</ele>
	<time>2025-07-29T08:25:03.000Z</time>
</trkpt>
<trkpt lat="45.8868370" lon="10.2825630">
	<ele>1951.60</ele>
	<time>2025-07-29T08:25:04.000Z</time>
</trkpt>
<trkpt lat="45.8868300" lon="10.2825630">
	<ele>1951.80</ele>
	<time>2025-07-29T08:25:05.000Z</time>
</trkpt>
<trkpt lat="45.8868230" lon="10.2825640">
	<ele>1951.80</ele>
	<time>2025-07-29T08:25:06.000Z</time>
</trkpt>
<trkpt lat="45.8868130" lon="10.2825640">
	<ele>1952.00</ele>
	<time>2025-07-29T08:25:07.000Z</time>
</trkpt>
<trkpt lat="45.8868070" lon="10.2825650">
	<ele>1952.20</ele>
	<time>2025-07-29T08:25:08.000Z</time>
</trkpt>
<trkpt lat="45.8867990" lon="10.2825680">
	<ele>1952.20</ele>
	<time>2025-07-29T08:25:09.000Z</time>
</trkpt>
<trkpt lat="45.8867890" lon="10.2825690">
	<ele>1952.40</ele>
	<time>2025-07-29T08:25:10.000Z</time>
</trkpt>
<trkpt lat="45.8867800" lon="10.2825700">
	<ele>1952.40</ele>
	<time>2025-07-29T08:25:11.000Z</time>
</trkpt>
<trkpt lat="45.8867730" lon="10.2825720">
	<ele>1952.40</ele>
	<time>2025-07-29T08:25:12.000Z</time>
</trkpt>
<trkpt lat="45.8867670" lon="10.2825730">
	<ele>1952.60</ele>
	<time>2025-07-29T08:25:13.000Z</time>
</trkpt>
<trkpt lat="45.8867600" lon="10.2825720">
	<ele>1952.60</ele>
	<time>2025-07-29T08:25:14.000Z</time>
</trkpt>
<trkpt lat="45.8867530" lon="10.2825730">
	<ele>1952.80</ele>
	<time>2025-07-29T08:25:15.000Z</time>
</trkpt>
<trkpt lat="45.8867460" lon="10.2825760">
	<ele>1953.00</ele>
	<time>2025-07-29T08:25:16.000Z</time>
</trkpt>
<trkpt lat="45.8867370" lon="10.2825740">
	<ele>1953.00</ele>
	<time>2025-07-29T08:25:17.000Z</time>
</trkpt>
<trkpt lat="45.8867290" lon="10.2825720">
	<ele>1953.20</ele>
	<time>2025-07-29T08:25:18.000Z</time>
</trkpt>
<trkpt lat="45.8867250" lon="10.2825690">
	<ele>1953.40</ele>
	<time>2025-07-29T08:25:19.000Z</time>
</trkpt>
<trkpt lat="45.8867170" lon="10.2825700">
	<ele>1953.60</ele>
	<time>2025-07-29T08:25:20.000Z</time>
</trkpt>
<trkpt lat="45.8867090" lon="10.2825690">
	<ele>1953.80</ele>
	<time>2025-07-29T08:25:21.000Z</time>
</trkpt>
<trkpt lat="45.8867020" lon="10.2825680">
	<ele>1954.00</ele>
	<time>2025-07-29T08:25:22.000Z</time>
</trkpt>
<trkpt lat="45.8866940" lon="10.2825680">
	<ele>1954.20</ele>
	<time>2025-07-29T08:25:23.000Z</time>
</trkpt>
<trkpt lat="45.8866850" lon="10.2825690">
	<ele>1954.40</ele>
	<time>2025-07-29T08:25:24.000Z</time>
</trkpt>
<trkpt lat="45.8866770" lon="10.2825700">
	<ele>1954.40</ele>
	<time>2025-07-29T08:25:25.000Z</time>
</trkpt>
<trkpt lat="45.8866700" lon="10.2825730">
	<ele>1954.60</ele>
	<time>2025-07-29T08:25:26.000Z</time>
</trkpt>
<trkpt lat="45.8866630" lon="10.2825730">
	<ele>1954.80</ele>
	<time>2025-07-29T08:25:27.000Z</time>
</trkpt>
<trkpt lat="45.8866540" lon="10.2825730">
	<ele>1955.00</ele>
	<time>2025-07-29T08:25:28.000Z</time>
</trkpt>
<trkpt lat="45.8866440" lon="10.2825730">
	<ele>1955.00</ele>
	<time>2025-07-29T08:25:29.000Z</time>
</trkpt>
<trkpt lat="45.8866360" lon="10.2825760">
	<ele>1955.20</ele>
	<time>2025-07-29T08:25:30.000Z</time>
</trkpt>
<trkpt lat="45.8866280" lon="10.2825750">
	<ele>1955.20</ele>
	<time>2025-07-29T08:25:31.000Z</time>
</trkpt>
<trkpt lat="45.8866200" lon="10.2825750">
	<ele>1955.40</ele>
	<time>2025-07-29T08:25:32.000Z</time>
</trkpt>
<trkpt lat="45.8866130" lon="10.2825770">
	<ele>1955.60</ele>
	<time>2025-07-29T08:25:33.000Z</time>
</trkpt>
<trkpt lat="45.8866060" lon="10.2825780">
	<ele>1955.60</ele>
	<time>2025-07-29T08:25:34.000Z</time>
</trkpt>
<trkpt lat="45.8865980" lon="10.2825810">
	<ele>1955.80</ele>
	<time>2025-07-29T08:25:35.000Z</time>
</trkpt>
<trkpt lat="45.8865890" lon="10.2825830">
	<ele>1956.00</ele>
	<time>2025-07-29T08:25:36.000Z</time>
</trkpt>
<trkpt lat="45.8865820" lon="10.2825850">
	<ele>1956.20</ele>
	<time>2025-07-29T08:25:37.000Z</time>
</trkpt>
<trkpt lat="45.8865720" lon="10.2825860">
	<ele>1956.40</ele>
	<time>2025-07-29T08:25:38.000Z</time>
</trkpt>
<trkpt lat="45.8865650" lon="10.2825860">
	<ele>1956.40</ele>
	<time>2025-07-29T08:25:39.000Z</time>
</trkpt>
<trkpt lat="45.8865590" lon="10.2825890">
	<ele>1956.60</ele>
	<time>2025-07-29T08:25:40.000Z</time>
</trkpt>
<trkpt lat="45.8865520" lon="10.2825930">
	<ele>1956.80</ele>
	<time>2025-07-29T08:25:41.000Z</time>
</trkpt>
<trkpt lat="45.8865480" lon="10.2826000">
	<ele>1957.00</ele>
	<time>2025-07-29T08:25:42.000Z</time>
</trkpt>
<trkpt lat="45.8865430" lon="10.2826040">
	<ele>1957.00</ele>
	<time>2025-07-29T08:25:43.000Z</time>
</trkpt>
<trkpt lat="45.8865400" lon="10.2826050">
	<ele>1957.20</ele>
	<time>2025-07-29T08:25:44.000Z</time>
</trkpt>
<trkpt lat="45.8865350" lon="10.2826020">
	<ele>1957.40</ele>
	<time>2025-07-29T08:25:45.000Z</time>
</trkpt>
<trkpt lat="45.8865290" lon="10.2826000">
	<ele>1957.40</ele>
	<time>2025-07-29T08:25:46.000Z</time>
</trkpt>
<trkpt lat="45.8865200" lon="10.2826020">
	<ele>1957.80</ele>
	<time>2025-07-29T08:25:47.000Z</time>
</trkpt>
<trkpt lat="45.8865150" lon="10.2826030">
	<ele>1958.00</ele>
	<time>2025-07-29T08:25:48.000Z</time>
</trkpt>
<trkpt lat="45.8865050" lon="10.2826040">
	<ele>1958.20</ele>
	<time>2025-07-29T08:25:49.000Z</time>
</trkpt>
<trkpt lat="45.8864990" lon="10.2826040">
	<ele>1958.20</ele>
	<time>2025-07-29T08:25:50.000Z</time>
</trkpt>
<trkpt lat="45.8864920" lon="10.2826040">
	<ele>1958.40</ele>
	<time>2025-07-29T08:25:51.000Z</time>
</trkpt>
<trkpt lat="45.8864840" lon="10.2826030">
	<ele>1958.40</ele>
	<time>2025-07-29T08:25:52.000Z</time>
</trkpt>
<trkpt lat="45.8864760" lon="10.2826010">
	<ele>1958.60</ele>
	<time>2025-07-29T08:25:53.000Z</time>
</trkpt>
<trkpt lat="45.8864700" lon="10.2826010">
	<ele>1958.60</ele>
	<time>2025-07-29T08:25:54.000Z</time>
</trkpt>
<trkpt lat="45.8864620" lon="10.2825980">
	<ele>1958.80</ele>
	<time>2025-07-29T08:25:55.000Z</time>
</trkpt>
<trkpt lat="45.8864540" lon="10.2825980">
	<ele>1959.00</ele>
	<time>2025-07-29T08:25:56.000Z</time>
</trkpt>
<trkpt lat="45.8864470" lon="10.2825980">
	<ele>1959.00</ele>
	<time>2025-07-29T08:25:57.000Z</time>
</trkpt>
<trkpt lat="45.8864410" lon="10.2825970">
	<ele>1959.20</ele>
	<time>2025-07-29T08:25:58.000Z</time>
</trkpt>
<trkpt lat="45.8864340" lon="10.2825960">
	<ele>1959.40</ele>
	<time>2025-07-29T08:25:59.000Z</time>
</trkpt>
<trkpt lat="45.8864250" lon="10.2825960">
	<ele>1959.60</ele>
	<time>2025-07-29T08:26:00.000Z</time>
</trkpt>
<trkpt lat="45.8864170" lon="10.2825960">
	<ele>1959.60</ele>
	<time>2025-07-29T08:26:01.000Z</time>
</trkpt>
<trkpt lat="45.8864080" lon="10.2825930">
	<ele>1959.80</ele>
	<time>2025-07-29T08:26:02.000Z</time>
</trkpt>
<trkpt lat="45.8864000" lon="10.2825920">
	<ele>1959.80</ele>
	<time>2025-07-29T08:26:03.000Z</time>
</trkpt>
<trkpt lat="45.8863910" lon="10.2825900">
	<ele>1960.00</ele>
	<time>2025-07-29T08:26:04.000Z</time>
</trkpt>
<trkpt lat="45.8863820" lon="10.2825880">
	<ele>1960.20</ele>
	<time>2025-07-29T08:26:05.000Z</time>
</trkpt>
<trkpt lat="45.8863730" lon="10.2825850">
	<ele>1960.20</ele>
	<time>2025-07-29T08:26:06.000Z</time>
</trkpt>
<trkpt lat="45.8863670" lon="10.2825860">
	<ele>1960.40</ele>
	<time>2025-07-29T08:26:07.000Z</time>
</trkpt>
<trkpt lat="45.8863610" lon="10.2825830">
	<ele>1960.60</ele>
	<time>2025-07-29T08:26:08.000Z</time>
</trkpt>
<trkpt lat="45.8863510" lon="10.2825790">
	<ele>1960.60</ele>
	<time>2025-07-29T08:26:09.000Z</time>
</trkpt>
<trkpt lat="45.8863440" lon="10.2825760">
	<ele>1960.80</ele>
	<time>2025-07-29T08:26:10.000Z</time>
</trkpt>
<trkpt lat="45.8863350" lon="10.2825740">
	<ele>1960.80</ele>
	<time>2025-07-29T08:26:11.000Z</time>
</trkpt>
<trkpt lat="45.8863260" lon="10.2825730">
	<ele>1961.00</ele>
	<time>2025-07-29T08:26:12.000Z</time>
</trkpt>
<trkpt lat="45.8863190" lon="10.2825700">
	<ele>1961.20</ele>
	<time>2025-07-29T08:26:13.000Z</time>
</trkpt>
<trkpt lat="45.8863120" lon="10.2825700">
	<ele>1961.40</ele>
	<time>2025-07-29T08:26:14.000Z</time>
</trkpt>
<trkpt lat="45.8863050" lon="10.2825690">
	<ele>1961.60</ele>
	<time>2025-07-29T08:26:15.000Z</time>
</trkpt>
<trkpt lat="45.8862990" lon="10.2825700">
	<ele>1961.60</ele>
	<time>2025-07-29T08:26:16.000Z</time>
</trkpt>
<trkpt lat="45.8862920" lon="10.2825710">
	<ele>1961.60</ele>
	<time>2025-07-29T08:26:17.000Z</time>
</trkpt>
<trkpt lat="45.8862830" lon="10.2825720">
	<ele>1961.60</ele>
	<time>2025-07-29T08:26:18.000Z</time>
</trkpt>
<trkpt lat="45.8862730" lon="10.2825730">
	<ele>1961.80</ele>
	<time>2025-07-29T08:26:19.000Z</time>
</trkpt>
<trkpt lat="45.8862640" lon="10.2825740">
	<ele>1962.00</ele>
	<time>2025-07-29T08:26:20.000Z</time>
</trkpt>
<trkpt lat="45.8862560" lon="10.2825740">
	<ele>1962.20</ele>
	<time>2025-07-29T08:26:21.000Z</time>
</trkpt>
<trkpt lat="45.8862470" lon="10.2825730">
	<ele>1962.40</ele>
	<time>2025-07-29T08:26:22.000Z</time>
</trkpt>
<trkpt lat="45.8862380" lon="10.2825720">
	<ele>1962.60</ele>
	<time>2025-07-29T08:26:23.000Z</time>
</trkpt>
<trkpt lat="45.8862290" lon="10.2825780">
	<ele>1962.80</ele>
	<time>2025-07-29T08:26:24.000Z</time>
</trkpt>
<trkpt lat="45.8862220" lon="10.2825810">
	<ele>1962.80</ele>
	<time>2025-07-29T08:26:25.000Z</time>
</trkpt>
<trkpt lat="45.8862150" lon="10.2825840">
	<ele>1963.20</ele>
	<time>2025-07-29T08:26:26.000Z</time>
</trkpt>
<trkpt lat="45.8862060" lon="10.2825830">
	<ele>1963.40</ele>
	<time>2025-07-29T08:26:27.000Z</time>
</trkpt>
<trkpt lat="45.8861970" lon="10.2825840">
	<ele>1963.40</ele>
	<time>2025-07-29T08:26:28.000Z</time>
</trkpt>
<trkpt lat="45.8861880" lon="10.2825860">
	<ele>1963.60</ele>
	<time>2025-07-29T08:26:29.000Z</time>
</trkpt>
<trkpt lat="45.8861800" lon="10.2825890">
	<ele>1963.80</ele>
	<time>2025-07-29T08:26:30.000Z</time>
</trkpt>
<trkpt lat="45.8861720" lon="10.2825890">
	<ele>1963.80</ele>
	<time>2025-07-29T08:26:31.000Z</time>
</trkpt>
<trkpt lat="45.8861630" lon="10.2825870">
	<ele>1964.00</ele>
	<time>2025-07-29T08:26:32.000Z</time>
</trkpt>
<trkpt lat="45.8861560" lon="10.2825900">
	<ele>1964.00</ele>
	<time>2025-07-29T08:26:33.000Z</time>
</trkpt>
<trkpt lat="45.8861490" lon="10.2825920">
	<ele>1964.20</ele>
	<time>2025-07-29T08:26:34.000Z</time>
</trkpt>
<trkpt lat="45.8861420" lon="10.2825910">
	<ele>1964.20</ele>
	<time>2025-07-29T08:26:35.000Z</time>
</trkpt>
<trkpt lat="45.8861360" lon="10.2825920">
	<ele>1964.40</ele>
	<time>2025-07-29T08:26:36.000Z</time>
</trkpt>
<trkpt lat="45.8861280" lon="10.2825940">
	<ele>1964.60</ele>
	<time>2025-07-29T08:26:37.000Z</time>
</trkpt>
<trkpt lat="45.8861200" lon="10.2825940">
	<ele>1964.80</ele>
	<time>2025-07-29T08:26:38.000Z</time>
</trkpt>
<trkpt lat="45.8861130" lon="10.2825940">
	<ele>1964.80</ele>
	<time>2025-07-29T08:26:39.000Z</time>
</trkpt>
<trkpt lat="45.8861040" lon="10.2825920">
	<ele>1964.80</ele>
	<time>2025-07-29T08:26:40.000Z</time>
</trkpt>
<trkpt lat="45.8860970" lon="10.2825930">
	<ele>1965.20</ele>
	<time>2025-07-29T08:26:41.000Z</time>
</trkpt>
<trkpt lat="45.8860880" lon="10.2825940">
	<ele>1965.40</ele>
	<time>2025-07-29T08:26:42.000Z</time>
</trkpt>
<trkpt lat="45.8860810" lon="10.2825950">
	<ele>1965.40</ele>
	<time>2025-07-29T08:26:43.000Z</time>
</trkpt>
<trkpt lat="45.8860740" lon="10.2825940">
	<ele>1965.60</ele>
	<time>2025-07-29T08:26:44.000Z</time>
</trkpt>
<trkpt lat="45.8860670" lon="10.2825900">
	<ele>1965.80</ele>
	<time>2025-07-29T08:26:45.000Z</time>
</trkpt>
<trkpt lat="45.8860610" lon="10.2825850">
	<ele>1965.80</ele>
	<time>2025-07-29T08:26:46.000Z</time>
</trkpt>
<trkpt lat="45.8860570" lon="10.2825830">
	<ele>1966.20</ele>
	<time>2025-07-29T08:26:47.000Z</time>
</trkpt>
<trkpt lat="45.8860500" lon="10.2825840">
	<ele>1966.20</ele>
	<time>2025-07-29T08:26:48.000Z</time>
</trkpt>
<trkpt lat="45.8860430" lon="10.2825880">
	<ele>1966.60</ele>
	<time>2025-07-29T08:26:49.000Z</time>
</trkpt>
<trkpt lat="45.8860350" lon="10.2825900">
	<ele>1966.60</ele>
	<time>2025-07-29T08:26:50.000Z</time>
</trkpt>
<trkpt lat="45.8860270" lon="10.2825860">
	<ele>1966.80</ele>
	<time>2025-07-29T08:26:51.000Z</time>
</trkpt>
<trkpt lat="45.8860190" lon="10.2825830">
	<ele>1967.00</ele>
	<time>2025-07-29T08:26:52.000Z</time>
</trkpt>
<trkpt lat="45.8860110" lon="10.2825810">
	<ele>1967.20</ele>
	<time>2025-07-29T08:26:53.000Z</time>
</trkpt>
<trkpt lat="45.8860030" lon="10.2825790">
	<ele>1967.20</ele>
	<time>2025-07-29T08:26:54.000Z</time>
</trkpt>
<trkpt lat="45.8859940" lon="10.2825760">
	<ele>1967.40</ele>
	<time>2025-07-29T08:26:55.000Z</time>
</trkpt>
<trkpt lat="45.8859860" lon="10.2825740">
	<ele>1967.60</ele>
	<time>2025-07-29T08:26:56.000Z</time>
</trkpt>
<trkpt lat="45.8859790" lon="10.2825750">
	<ele>1967.60</ele>
	<time>2025-07-29T08:26:57.000Z</time>
</trkpt>
<trkpt lat="45.8859710" lon="10.2825750">
	<ele>1967.80</ele>
	<time>2025-07-29T08:26:58.000Z</time>
</trkpt>
<trkpt lat="45.8859630" lon="10.2825740">
	<ele>1968.00</ele>
	<time>2025-07-29T08:26:59.000Z</time>
</trkpt>
<trkpt lat="45.8859550" lon="10.2825730">
	<ele>1968.00</ele>
	<time>2025-07-29T08:27:00.000Z</time>
</trkpt>
<trkpt lat="45.8859470" lon="10.2825710">
	<ele>1968.40</ele>
	<time>2025-07-29T08:27:01.000Z</time>
</trkpt>
<trkpt lat="45.8859390" lon="10.2825690">
	<ele>1968.40</ele>
	<time>2025-07-29T08:27:02.000Z</time>
</trkpt>
<trkpt lat="45.8859340" lon="10.2825700">
	<ele>1968.60</ele>
	<time>2025-07-29T08:27:03.000Z</time>
</trkpt>
<trkpt lat="45.8859270" lon="10.2825700">
	<ele>1968.60</ele>
	<time>2025-07-29T08:27:04.000Z</time>
</trkpt>
<trkpt lat="45.8859200" lon="10.2825700">
	<ele>1968.80</ele>
	<time>2025-07-29T08:27:05.000Z</time>
</trkpt>
<trkpt lat="45.8859130" lon="10.2825720">
	<ele>1969.00</ele>
	<time>2025-07-29T08:27:06.000Z</time>
</trkpt>
<trkpt lat="45.8859060" lon="10.2825720">
	<ele>1969.00</ele>
	<time>2025-07-29T08:27:07.000Z</time>
</trkpt>
<trkpt lat="45.8859000" lon="10.2825710">
	<ele>1969.20</ele>
	<time>2025-07-29T08:27:08.000Z</time>
</trkpt>
<trkpt lat="45.8858930" lon="10.2825690">
	<ele>1969.40</ele>
	<time>2025-07-29T08:27:09.000Z</time>
</trkpt>
<trkpt lat="45.8858860" lon="10.2825700">
	<ele>1969.60</ele>
	<time>2025-07-29T08:27:10.000Z</time>
</trkpt>
<trkpt lat="45.8858810" lon="10.2825700">
	<ele>1969.80</ele>
	<time>2025-07-29T08:27:11.000Z</time>
</trkpt>
<trkpt lat="45.8858750" lon="10.2825730">
	<ele>1970.20</ele>
	<time>2025-07-29T08:27:12.000Z</time>
</trkpt>
<trkpt lat="45.8858690" lon="10.2825740">
	<ele>1970.40</ele>
	<time>2025-07-29T08:27:13.000Z</time>
</trkpt>
<trkpt lat="45.8858620" lon="10.2825760">
	<ele>1970.60</ele>
	<time>2025-07-29T08:27:14.000Z</time>
</trkpt>
<trkpt lat="45.8858560" lon="10.2825760">
	<ele>1970.60</ele>
	<time>2025-07-29T08:27:15.000Z</time>
</trkpt>
<trkpt lat="45.8858510" lon="10.2825780">
	<ele>1970.80</ele>
	<time>2025-07-29T08:27:16.000Z</time>
</trkpt>
<trkpt lat="45.8858450" lon="10.2825790">
	<ele>1971.00</ele>
	<time>2025-07-29T08:27:17.000Z</time>
</trkpt>
<trkpt lat="45.8858370" lon="10.2825790">
	<ele>1971.20</ele>
	<time>2025-07-29T08:27:18.000Z</time>
</trkpt>
<trkpt lat="45.8858290" lon="10.2825830">
	<ele>1971.40</ele>
	<time>2025-07-29T08:27:19.000Z</time>
</trkpt>
<trkpt lat="45.8858210" lon="10.2825860">
	<ele>1971.40</ele>
	<time>2025-07-29T08:27:20.000Z</time>
</trkpt>
<trkpt lat="45.8858130" lon="10.2825850">
	<ele>1971.80</ele>
	<time>2025-07-29T08:27:21.000Z</time>
</trkpt>
<trkpt lat="45.8858040" lon="10.2825850">
	<ele>1972.20</ele>
	<time>2025-07-29T08:27:22.000Z</time>
</trkpt>
<trkpt lat="45.8857970" lon="10.2825870">
	<ele>1972.40</ele>
	<time>2025-07-29T08:27:23.000Z</time>
</trkpt>
<trkpt lat="45.8857910" lon="10.2825890">
	<ele>1972.60</ele>
	<time>2025-07-29T08:27:24.000Z</time>
</trkpt>
<trkpt lat="45.8857870" lon="10.2825890">
	<ele>1972.60</ele>
	<time>2025-07-29T08:27:25.000Z</time>
</trkpt>
<trkpt lat="45.8857820" lon="10.2825890">
	<ele>1972.80</ele>
	<time>2025-07-29T08:27:26.000Z</time>
</trkpt>
<trkpt lat="45.8857780" lon="10.2825920">
	<ele>1973.00</ele>
	<time>2025-07-29T08:27:27.000Z</time>
</trkpt>
<trkpt lat="45.8857720" lon="10.2825940">
	<ele>1973.40</ele>
	<time>2025-07-29T08:27:28.000Z</time>
</trkpt>
<trkpt lat="45.8857640" lon="10.2825950">
	<ele>1973.40</ele>
	<time>2025-07-29T08:27:29.000Z</time>
</trkpt>
<trkpt lat="45.8857570" lon="10.2825970">
	<ele>1973.60</ele>
	<time>2025-07-29T08:27:30.000Z</time>
</trkpt>
<trkpt lat="45.8857490" lon="10.2825990">
	<ele>1973.80</ele>
	<time>2025-07-29T08:27:31.000Z</time>
</trkpt>
<trkpt lat="45.8857430" lon="10.2826030">
	<ele>1973.80</ele>
	<time>2025-07-29T08:27:32.000Z</time>
</trkpt>
<trkpt lat="45.8857370" lon="10.2826100">
	<ele>1974.00</ele>
	<time>2025-07-29T08:27:33.000Z</time>
</trkpt>
<trkpt lat="45.8857310" lon="10.2826150">
	<ele>1974.00</ele>
	<time>2025-07-29T08:27:34.000Z</time>
</trkpt>
<trkpt lat="45.8857250" lon="10.2826150">
	<ele>1974.20</ele>
	<time>2025-07-29T08:27:35.000Z</time>
</trkpt>
<trkpt lat="45.8857190" lon="10.2826170">
	<ele>1974.40</ele>
	<time>2025-07-29T08:27:36.000Z</time>
</trkpt>
<trkpt lat="45.8857110" lon="10.2826210">
	<ele>1974.60</ele>
	<time>2025-07-29T08:27:37.000Z</time>
</trkpt>
<trkpt lat="45.8857020" lon="10.2826230">
	<ele>1974.80</ele>
	<time>2025-07-29T08:27:38.000Z</time>
</trkpt>
<trkpt lat="45.8856950" lon="10.2826250">
	<ele>1975.00</ele>
	<time>2025-07-29T08:27:39.000Z</time>
</trkpt>
<trkpt lat="45.8856900" lon="10.2826270">
	<ele>1975.00</ele>
	<time>2025-07-29T08:27:40.000Z</time>
</trkpt>
<trkpt lat="45.8856830" lon="10.2826280">
	<ele>1975.40</ele>
	<time>2025-07-29T08:27:41.000Z</time>
</trkpt>
<trkpt lat="45.8856790" lon="10.2826290">
	<ele>1975.40</ele>
	<time>2025-07-29T08:27:42.000Z</time>
</trkpt>
<trkpt lat="45.8856720" lon="10.2826280">
	<ele>1975.60</ele>
	<time>2025-07-29T08:27:43.000Z</time>
</trkpt>
<trkpt lat="45.8856670" lon="10.2826270">
	<ele>1975.80</ele>
	<time>2025-07-29T08:27:44.000Z</time>
</trkpt>
<trkpt lat="45.8856610" lon="10.2826280">
	<ele>1976.00</ele>
	<time>2025-07-29T08:27:45.000Z</time>
</trkpt>
<trkpt lat="45.8856560" lon="10.2826280">
	<ele>1976.20</ele>
	<time>2025-07-29T08:27:46.000Z</time>
</trkpt>
<trkpt lat="45.8856520" lon="10.2826320">
	<ele>1976.40</ele>
	<time>2025-07-29T08:27:47.000Z</time>
</trkpt>
<trkpt lat="45.8856460" lon="10.2826330">
	<ele>1976.80</ele>
	<time>2025-07-29T08:27:48.000Z</time>
</trkpt>
<trkpt lat="45.8856410" lon="10.2826320">
	<ele>1977.00</ele>
	<time>2025-07-29T08:27:49.000Z</time>
</trkpt>
<trkpt lat="45.8856330" lon="10.2826300">
	<ele>1977.40</ele>
	<time>2025-07-29T08:27:50.000Z</time>
</trkpt>
<trkpt lat="45.8856260" lon="10.2826290">
	<ele>1977.60</ele>
	<time>2025-07-29T08:27:51.000Z</time>
</trkpt>
<trkpt lat="45.8856180" lon="10.2826280">
	<ele>1977.80</ele>
	<time>2025-07-29T08:27:52.000Z</time>
</trkpt>
<trkpt lat="45.8856100" lon="10.2826280">
	<ele>1978.00</ele>
	<time>2025-07-29T08:27:53.000Z</time>
</trkpt>
<trkpt lat="45.8856040" lon="10.2826280">
	<ele>1978.20</ele>
	<time>2025-07-29T08:27:54.000Z</time>
</trkpt>
<trkpt lat="45.8855970" lon="10.2826280">
	<ele>1978.20</ele>
	<time>2025-07-29T08:27:55.000Z</time>
</trkpt>
<trkpt lat="45.8855890" lon="10.2826280">
	<ele>1978.40</ele>
	<time>2025-07-29T08:27:56.000Z</time>
</trkpt>
<trkpt lat="45.8855820" lon="10.2826290">
	<ele>1978.40</ele>
	<time>2025-07-29T08:27:57.000Z</time>
</trkpt>
<trkpt lat="45.8855740" lon="10.2826290">
	<ele>1978.60</ele>
	<time>2025-07-29T08:27:58.000Z</time>
</trkpt>
<trkpt lat="45.8855680" lon="10.2826290">
	<ele>1978.80</ele>
	<time>2025-07-29T08:27:59.000Z</time>
</trkpt>
<trkpt lat="45.8855630" lon="10.2826310">
	<ele>1978.80</ele>
	<time>2025-07-29T08:28:00.000Z</time>
</trkpt>
<trkpt lat="45.8855580" lon="10.2826320">
	<ele>1979.00</ele>
	<time>2025-07-29T08:28:01.000Z</time>
</trkpt>
<trkpt lat="45.8855510" lon="10.2826340">
	<ele>1979.00</ele>
	<time>2025-07-29T08:28:02.000Z</time>
</trkpt>
<trkpt lat="45.8855450" lon="10.2826370">
	<ele>1979.20</ele>
	<time>2025-07-29T08:28:03.000Z</time>
</trkpt>
<trkpt lat="45.8855390" lon="10.2826390">
	<ele>1979.40</ele>
	<time>2025-07-29T08:28:04.000Z</time>
</trkpt>
<trkpt lat="45.8855320" lon="10.2826410">
	<ele>1979.60</ele>
	<time>2025-07-29T08:28:05.000Z</time>
</trkpt>
<trkpt lat="45.8855260" lon="10.2826360">
	<ele>1979.80</ele>
	<time>2025-07-29T08:28:06.000Z</time>
</trkpt>
<trkpt lat="45.8855170" lon="10.2826310">
	<ele>1980.00</ele>
	<time>2025-07-29T08:28:07.000Z</time>
</trkpt>
<trkpt lat="45.8855070" lon="10.2826290">
	<ele>1980.20</ele>
	<time>2025-07-29T08:28:08.000Z</time>
</trkpt>
<trkpt lat="45.8854970" lon="10.2826270">
	<ele>1980.40</ele>
	<time>2025-07-29T08:28:09.000Z</time>
</trkpt>
<trkpt lat="45.8854890" lon="10.2826280">
	<ele>1980.60</ele>
	<time>2025-07-29T08:28:10.000Z</time>
</trkpt>
<trkpt lat="45.8854810" lon="10.2826290">
	<ele>1980.80</ele>
	<time>2025-07-29T08:28:11.000Z</time>
</trkpt>
<trkpt lat="45.8854740" lon="10.2826320">
	<ele>1981.20</ele>
	<time>2025-07-29T08:28:12.000Z</time>
</trkpt>
<trkpt lat="45.8854660" lon="10.2826310">
	<ele>1981.20</ele>
	<time>2025-07-29T08:28:13.000Z</time>
</trkpt>
<trkpt lat="45.8854590" lon="10.2826290">
	<ele>1981.40</ele>
	<time>2025-07-29T08:28:14.000Z</time>
</trkpt>
<trkpt lat="45.8854520" lon="10.2826310">
	<ele>1981.40</ele>
	<time>2025-07-29T08:28:15.000Z</time>
</trkpt>
<trkpt lat="45.8854440" lon="10.2826290">
	<ele>1981.60</ele>
	<time>2025-07-29T08:28:16.000Z</time>
</trkpt>
<trkpt lat="45.8854370" lon="10.2826280">
	<ele>1981.80</ele>
	<time>2025-07-29T08:28:17.000Z</time>
</trkpt>
<trkpt lat="45.8854310" lon="10.2826260">
	<ele>1982.00</ele>
	<time>2025-07-29T08:28:18.000Z</time>
</trkpt>
<trkpt lat="45.8854240" lon="10.2826270">
	<ele>1982.20</ele>
	<time>2025-07-29T08:28:19.000Z</time>
</trkpt>
<trkpt lat="45.8854190" lon="10.2826280">
	<ele>1982.20</ele>
	<time>2025-07-29T08:28:20.000Z</time>
</trkpt>
<trkpt lat="45.8854130" lon="10.2826250">
	<ele>1982.20</ele>
	<time>2025-07-29T08:28:21.000Z</time>
</trkpt>
<trkpt lat="45.8854060" lon="10.2826240">
	<ele>1982.40</ele>
	<time>2025-07-29T08:28:22.000Z</time>
</trkpt>
<trkpt lat="45.8854000" lon="10.2826260">
	<ele>1982.60</ele>
	<time>2025-07-29T08:28:23.000Z</time>
</trkpt>
<trkpt lat="45.8853920" lon="10.2826280">
	<ele>1982.60</ele>
	<time>2025-07-29T08:28:24.000Z</time>
</trkpt>
<trkpt lat="45.8853860" lon="10.2826320">
	<ele>1982.80</ele>
	<time>2025-07-29T08:28:25.000Z</time>
</trkpt>
<trkpt lat="45.8853780" lon="10.2826320">
	<ele>1982.80</ele>
	<time>2025-07-29T08:28:26.000Z</time>
</trkpt>
<trkpt lat="45.8853700" lon="10.2826320">
	<ele>1982.80</ele>
	<time>2025-07-29T08:28:27.000Z</time>
</trkpt>
<trkpt lat="45.8853620" lon="10.2826350">
	<ele>1983.00</ele>
	<time>2025-07-29T08:28:28.000Z</time>
</trkpt>
<trkpt lat="45.8853550" lon="10.2826360">
	<ele>1983.20</ele>
	<time>2025-07-29T08:28:29.000Z</time>
</trkpt>
<trkpt lat="45.8853470" lon="10.2826340">
	<ele>1983.60</ele>
	<time>2025-07-29T08:28:30.000Z</time>
</trkpt>
<trkpt lat="45.8853410" lon="10.2826320">
	<ele>1983.60</ele>
	<time>2025-07-29T08:28:31.000Z</time>
</trkpt>
<trkpt lat="45.8853350" lon="10.2826320">
	<ele>1983.80</ele>
	<time>2025-07-29T08:28:32.000Z</time>
</trkpt>
<trkpt lat="45.8853290" lon="10.2826350">
	<ele>1983.80</ele>
	<time>2025-07-29T08:28:33.000Z</time>
</trkpt>
<trkpt lat="45.8853240" lon="10.2826400">
	<ele>1984.00</ele>
	<time>2025-07-29T08:28:34.000Z</time>
</trkpt>
<trkpt lat="45.8853170" lon="10.2826390">
	<ele>1984.20</ele>
	<time>2025-07-29T08:28:35.000Z</time>
</trkpt>
<trkpt lat="45.8853090" lon="10.2826380">
	<ele>1984.40</ele>
	<time>2025-07-29T08:28:36.000Z</time>
</trkpt>
<trkpt lat="45.8853020" lon="10.2826360">
	<ele>1984.60</ele>
	<time>2025-07-29T08:28:37.000Z</time>
</trkpt>
<trkpt lat="45.8852940" lon="10.2826350">
	<ele>1984.60</ele>
	<time>2025-07-29T08:28:38.000Z</time>
</trkpt>
<trkpt lat="45.8852850" lon="10.2826380">
	<ele>1984.80</ele>
	<time>2025-07-29T08:28:39.000Z</time>
</trkpt>
<trkpt lat="45.8852780" lon="10.2826390">
	<ele>1985.00</ele>
	<time>2025-07-29T08:28:40.000Z</time>
</trkpt>
<trkpt lat="45.8852720" lon="10.2826400">
	<ele>1985.20</ele>
	<time>2025-07-29T08:28:41.000Z</time>
</trkpt>
<trkpt lat="45.8852690" lon="10.2826410">
	<ele>1985.20</ele>
	<time>2025-07-29T08:28:42.000Z</time>
</trkpt>
<trkpt lat="45.8852640" lon="10.2826390">
	<ele>1985.40</ele>
	<time>2025-07-29T08:28:43.000Z</time>
</trkpt>
<trkpt lat="45.8852550" lon="10.2826390">
	<ele>1985.60</ele>
	<time>2025-07-29T08:28:44.000Z</time>
</trkpt>
<trkpt lat="45.8852480" lon="10.2826410">
	<ele>1985.80</ele>
	<time>2025-07-29T08:28:45.000Z</time>
</trkpt>
<trkpt lat="45.8852380" lon="10.2826380">
	<ele>1986.00</ele>
	<time>2025-07-29T08:28:46.000Z</time>
</trkpt>
<trkpt lat="45.8852280" lon="10.2826360">
	<ele>1986.20</ele>
	<time>2025-07-29T08:28:47.000Z</time>
</trkpt>
<trkpt lat="45.8852210" lon="10.2826370">
	<ele>1986.40</ele>
	<time>2025-07-29T08:28:48.000Z</time>
</trkpt>
<trkpt lat="45.8852130" lon="10.2826370">
	<ele>1986.40</ele>
	<time>2025-07-29T08:28:49.000Z</time>
</trkpt>
<trkpt lat="45.8852030" lon="10.2826340">
	<ele>1986.40</ele>
	<time>2025-07-29T08:28:50.000Z</time>
</trkpt>
<trkpt lat="45.8851960" lon="10.2826350">
	<ele>1986.60</ele>
	<time>2025-07-29T08:28:51.000Z</time>
</trkpt>
<trkpt lat="45.8851880" lon="10.2826360">
	<ele>1986.80</ele>
	<time>2025-07-29T08:28:52.000Z</time>
</trkpt>
<trkpt lat="45.8851800" lon="10.2826370">
	<ele>1986.80</ele>
	<time>2025-07-29T08:28:53.000Z</time>
</trkpt>
<trkpt lat="45.8851730" lon="10.2826380">
	<ele>1987.00</ele>
	<time>2025-07-29T08:28:54.000Z</time>
</trkpt>
<trkpt lat="45.8851680" lon="10.2826370">
	<ele>1987.20</ele>
	<time>2025-07-29T08:28:55.000Z</time>
</trkpt>
<trkpt lat="45.8851640" lon="10.2826390">
	<ele>1987.20</ele>
	<time>2025-07-29T08:28:56.000Z</time>
</trkpt>
<trkpt lat="45.8851610" lon="10.2826390">
	<ele>1987.40</ele>
	<time>2025-07-29T08:28:57.000Z</time>
</trkpt>
<trkpt lat="45.8851600" lon="10.2826390">
	<ele>1987.60</ele>
	<time>2025-07-29T08:28:58.000Z</time>
</trkpt>
<trkpt lat="45.8851580" lon="10.2826410">
	<ele>1987.80</ele>
	<time>2025-07-29T08:28:59.000Z</time>
</trkpt>
<trkpt lat="45.8851580" lon="10.2826430">
	<ele>1988.00</ele>
	<time>2025-07-29T08:29:00.000Z</time>
</trkpt>
<trkpt lat="45.8851590" lon="10.2826430">
	<ele>1988.20</ele>
	<time>2025-07-29T08:29:01.000Z</time>
</trkpt>
<trkpt lat="45.8851580" lon="10.2826440">
	<ele>1988.20</ele>
	<time>2025-07-29T08:29:02.000Z</time>
</trkpt>
<trkpt lat="45.8851580" lon="10.2826470">
	<ele>1988.20</ele>
	<time>2025-07-29T08:29:03.000Z</time>
</trkpt>
<trkpt lat="45.8851580" lon="10.2826490">
	<ele>1988.20</ele>
	<time>2025-07-29T08:29:04.000Z</time>
</trkpt>
<trkpt lat="45.8851580" lon="10.2826490">
	<ele>1988.20</ele>
	<time>2025-07-29T08:29:05.000Z</time>
</trkpt>
<trkpt lat="45.8851580" lon="10.2826450">
	<ele>1988.20</ele>
	<time>2025-07-29T08:29:06.000Z</time>
</trkpt>
<trkpt lat="45.8851580" lon="10.2826430">
	<ele>1988.20</ele>
	<time>2025-07-29T08:29:07.000Z</time>
</trkpt>
<trkpt lat="45.8851570" lon="10.2826420">
	<ele>1988.20</ele>
	<time>2025-07-29T08:29:08.000Z</time>
</trkpt>
<trkpt lat="45.8851560" lon="10.2826440">
	<ele>1988.20</ele>
	<time>2025-07-29T08:29:09.000Z</time>
</trkpt>
<trkpt lat="45.8851550" lon="10.2826490">
	<ele>1988.20</ele>
	<time>2025-07-29T08:29:10.000Z</time>
</trkpt>
<trkpt lat="45.8851550" lon="10.2826510">
	<ele>1988.20</ele>
	<time>2025-07-29T08:29:11.000Z</time>
</trkpt>
<trkpt lat="45.8851520" lon="10.2826510">
	<ele>1988.20</ele>
	<time>2025-07-29T08:29:12.000Z</time>
</trkpt>
<trkpt lat="45.8851490" lon="10.2826530">
	<ele>1988.20</ele>
	<time>2025-07-29T08:29:13.000Z</time>
</trkpt>
<trkpt lat="45.8851480" lon="10.2826550">
	<ele>1988.20</ele>
	<time>2025-07-29T08:29:14.000Z</time>
</trkpt>
<trkpt lat="45.8851450" lon="10.2826550">
	<ele>1988.00</ele>
	<time>2025-07-29T08:29:15.000Z</time>
</trkpt>
<trkpt lat="45.8851390" lon="10.2826570">
	<ele>1988.00</ele>
	<time>2025-07-29T08:29:16.000Z</time>
</trkpt>
<trkpt lat="45.8851350" lon="10.2826600">
	<ele>1988.00</ele>
	<time>2025-07-29T08:29:17.000Z</time>
</trkpt>
<trkpt lat="45.8851320" lon="10.2826630">
	<ele>1988.00</ele>
	<time>2025-07-29T08:29:18.000Z</time>
</trkpt>
<trkpt lat="45.8851310" lon="10.2826660">
	<ele>1988.20</ele>
	<time>2025-07-29T08:29:19.000Z</time>
</trkpt>
<trkpt lat="45.8851300" lon="10.2826660">
	<ele>1988.40</ele>
	<time>2025-07-29T08:29:20.000Z</time>
</trkpt>
<trkpt lat="45.8851300" lon="10.2826660">
	<ele>1988.40</ele>
	<time>2025-07-29T08:29:21.000Z</time>
</trkpt>
<trkpt lat="45.8851300" lon="10.2826660">
	<ele>1988.40</ele>
	<time>2025-07-29T08:29:22.000Z</time>
</trkpt>
<trkpt lat="45.8851300" lon="10.2826660">
	<ele>1988.60</ele>
	<time>2025-07-29T08:29:23.000Z</time>
</trkpt>
<trkpt lat="45.8851300" lon="10.2826660">
	<ele>1988.60</ele>
	<time>2025-07-29T08:29:24.000Z</time>
</trkpt>
<trkpt lat="45.8851300" lon="10.2826660">
	<ele>1988.60</ele>
	<time>2025-07-29T08:29:25.000Z</time>
</trkpt>
<trkpt lat="45.8851300" lon="10.2826660">
	<ele>1988.60</ele>
	<time>2025-07-29T08:29:26.000Z</time>
</trkpt>
<trkpt lat="45.8851260" lon="10.2826670">
	<ele>1988.80</ele>
	<time>2025-07-29T08:29:27.000Z</time>
</trkpt>
<trkpt lat="45.8851120" lon="10.2826690">
	<ele>1988.80</ele>
	<time>2025-07-29T08:29:28.000Z</time>
</trkpt>
<trkpt lat="45.8851010" lon="10.2826730">
	<ele>1989.00</ele>
	<time>2025-07-29T08:29:29.000Z</time>
</trkpt>
<trkpt lat="45.8850910" lon="10.2826770">
	<ele>1989.40</ele>
	<time>2025-07-29T08:29:30.000Z</time>
</trkpt>
<trkpt lat="45.8850780" lon="10.2826820">
	<ele>1989.80</ele>
	<time>2025-07-29T08:29:31.000Z</time>
</trkpt>
<trkpt lat="45.8850670" lon="10.2826880">
	<ele>1990.00</ele>
	<time>2025-07-29T08:29:32.000Z</time>
</trkpt>
<trkpt lat="45.8850550" lon="10.2826890">
	<ele>1990.20</ele>
	<time>2025-07-29T08:29:33.000Z</time>
</trkpt>
<trkpt lat="45.8850410" lon="10.2826890">
	<ele>1990.20</ele>
	<time>2025-07-29T08:29:34.000Z</time>
</trkpt>
<trkpt lat="45.8850280" lon="10.2826920">
	<ele>1990.40</ele>
	<time>2025-07-29T08:29:35.000Z</time>
</trkpt>
<trkpt lat="45.8850140" lon="10.2826960">
	<ele>1990.40</ele>
	<time>2025-07-29T08:29:36.000Z</time>
</trkpt>
<trkpt lat="45.8850050" lon="10.2826990">
	<ele>1990.60</ele>
	<time>2025-07-29T08:29:37.000Z</time>
</trkpt>
<trkpt lat="45.8849980" lon="10.2827000">
	<ele>1990.80</ele>
	<time>2025-07-29T08:29:38.000Z</time>
</trkpt>
<trkpt lat="45.8849890" lon="10.2827010">
	<ele>1991.00</ele>
	<time>2025-07-29T08:29:39.000Z</time>
</trkpt>
<trkpt lat="45.8849820" lon="10.2826970">
	<ele>1991.20</ele>
	<time>2025-07-29T08:29:40.000Z</time>
</trkpt>
<trkpt lat="45.8849750" lon="10.2826910">
	<ele>1991.20</ele>
	<time>2025-07-29T08:29:41.000Z</time>
</trkpt>
<trkpt lat="45.8849670" lon="10.2826880">
	<ele>1991.20</ele>
	<time>2025-07-29T08:29:42.000Z</time>
</trkpt>
<trkpt lat="45.8849570" lon="10.2826860">
	<ele>1991.20</ele>
	<time>2025-07-29T08:29:43.000Z</time>
</trkpt>
<trkpt lat="45.8849470" lon="10.2826850">
	<ele>1991.20</ele>
	<time>2025-07-29T08:29:44.000Z</time>
</trkpt>
<trkpt lat="45.8849360" lon="10.2826850">
	<ele>1991.20</ele>
	<time>2025-07-29T08:29:45.000Z</time>
</trkpt>
<trkpt lat="45.8849280" lon="10.2826900">
	<ele>1991.40</ele>
	<time>2025-07-29T08:29:46.000Z</time>
</trkpt>
<trkpt lat="45.8849210" lon="10.2826940">
	<ele>1991.40</ele>
	<time>2025-07-29T08:29:47.000Z</time>
</trkpt>
<trkpt lat="45.8849150" lon="10.2826970">
	<ele>1991.60</ele>
	<time>2025-07-29T08:29:48.000Z</time>
</trkpt>
<trkpt lat="45.8849080" lon="10.2827010">
	<ele>1991.80</ele>
	<time>2025-07-29T08:29:49.000Z</time>
</trkpt>
<trkpt lat="45.8848990" lon="10.2827020">
	<ele>1992.00</ele>
	<time>2025-07-29T08:29:50.000Z</time>
</trkpt>
<trkpt lat="45.8848900" lon="10.2827030">
	<ele>1992.00</ele>
	<time>2025-07-29T08:29:51.000Z</time>
</trkpt>
<trkpt lat="45.8848800" lon="10.2827040">
	<ele>1992.20</ele>
	<time>2025-07-29T08:29:52.000Z</time>
</trkpt>
<trkpt lat="45.8848700" lon="10.2827050">
	<ele>1992.40</ele>
	<time>2025-07-29T08:29:53.000Z</time>
</trkpt>
<trkpt lat="45.8848610" lon="10.2827040">
	<ele>1992.40</ele>
	<time>2025-07-29T08:29:54.000Z</time>
</trkpt>
<trkpt lat="45.8848530" lon="10.2827030">
	<ele>1992.80</ele>
	<time>2025-07-29T08:29:55.000Z</time>
</trkpt>
<trkpt lat="45.8848450" lon="10.2827010">
	<ele>1993.00</ele>
	<time>2025-07-29T08:29:56.000Z</time>
</trkpt>
<trkpt lat="45.8848370" lon="10.2827020">
	<ele>1993.20</ele>
	<time>2025-07-29T08:29:57.000Z</time>
</trkpt>
<trkpt lat="45.8848290" lon="10.2827030">
	<ele>1993.20</ele>
	<time>2025-07-29T08:29:58.000Z</time>
</trkpt>
<trkpt lat="45.8848200" lon="10.2827000">
	<ele>1993.40</ele>
	<time>2025-07-29T08:29:59.000Z</time>
</trkpt>
<trkpt lat="45.8848140" lon="10.2826990">
	<ele>1993.40</ele>
	<time>2025-07-29T08:30:00.000Z</time>
</trkpt>
<trkpt lat="45.8848070" lon="10.2826980">
	<ele>1993.60</ele>
	<time>2025-07-29T08:30:01.000Z</time>
</trkpt>
<trkpt lat="45.8847940" lon="10.2827010">
	<ele>1993.60</ele>
	<time>2025-07-29T08:30:02.000Z</time>
</trkpt>
<trkpt lat="45.8847810" lon="10.2827000">
	<ele>1993.80</ele>
	<time>2025-07-29T08:30:03.000Z</time>
</trkpt>
<trkpt lat="45.8847710" lon="10.2826990">
	<ele>1994.00</ele>
	<time>2025-07-29T08:30:04.000Z</time>
</trkpt>
<trkpt lat="45.8847650" lon="10.2826970">
	<ele>1994.20</ele>
	<time>2025-07-29T08:30:05.000Z</time>
</trkpt>
<trkpt lat="45.8847550" lon="10.2826960">
	<ele>1994.40</ele>
	<time>2025-07-29T08:30:06.000Z</time>
</trkpt>
<trkpt lat="45.8847470" lon="10.2826960">
	<ele>1994.40</ele>
	<time>2025-07-29T08:30:07.000Z</time>
</trkpt>
<trkpt lat="45.8847380" lon="10.2826930">
	<ele>1994.40</ele>
	<time>2025-07-29T08:30:08.000Z</time>
</trkpt>
<trkpt lat="45.8847270" lon="10.2826900">
	<ele>1994.60</ele>
	<time>2025-07-29T08:30:09.000Z</time>
</trkpt>
<trkpt lat="45.8847150" lon="10.2826880">
	<ele>1994.80</ele>
	<time>2025-07-29T08:30:10.000Z</time>
</trkpt>
<trkpt lat="45.8847050" lon="10.2826860">
	<ele>1994.80</ele>
	<time>2025-07-29T08:30:11.000Z</time>
</trkpt>
<trkpt lat="45.8846970" lon="10.2826840">
	<ele>1995.00</ele>
	<time>2025-07-29T08:30:12.000Z</time>
</trkpt>
<trkpt lat="45.8846860" lon="10.2826810">
	<ele>1995.00</ele>
	<time>2025-07-29T08:30:13.000Z</time>
</trkpt>
<trkpt lat="45.8846750" lon="10.2826760">
	<ele>1995.20</ele>
	<time>2025-07-29T08:30:14.000Z</time>
</trkpt>
<trkpt lat="45.8846670" lon="10.2826730">
	<ele>1995.20</ele>
	<time>2025-07-29T08:30:15.000Z</time>
</trkpt>
<trkpt lat="45.8846570" lon="10.2826700">
	<ele>1995.20</ele>
	<time>2025-07-29T08:30:16.000Z</time>
</trkpt>
<trkpt lat="45.8846480" lon="10.2826690">
	<ele>1995.20</ele>
	<time>2025-07-29T08:30:17.000Z</time>
</trkpt>
<trkpt lat="45.8846390" lon="10.2826690">
	<ele>1995.20</ele>
	<time>2025-07-29T08:30:18.000Z</time>
</trkpt>
<trkpt lat="45.8846310" lon="10.2826690">
	<ele>1995.40</ele>
	<time>2025-07-29T08:30:19.000Z</time>
</trkpt>
<trkpt lat="45.8846230" lon="10.2826710">
	<ele>1995.40</ele>
	<time>2025-07-29T08:30:20.000Z</time>
</trkpt>
<trkpt lat="45.8846140" lon="10.2826700">
	<ele>1995.40</ele>
	<time>2025-07-29T08:30:21.000Z</time>
</trkpt>
<trkpt lat="45.8846040" lon="10.2826710">
	<ele>1995.60</ele>
	<time>2025-07-29T08:30:22.000Z</time>
</trkpt>
<trkpt lat="45.8845940" lon="10.2826720">
	<ele>1995.60</ele>
	<time>2025-07-29T08:30:23.000Z</time>
</trkpt>
<trkpt lat="45.8845850" lon="10.2826710">
	<ele>1995.80</ele>
	<time>2025-07-29T08:30:24.000Z</time>
</trkpt>
<trkpt lat="45.8845760" lon="10.2826690">
	<ele>1996.00</ele>
	<time>2025-07-29T08:30:25.000Z</time>
</trkpt>
<trkpt lat="45.8845680" lon="10.2826690">
	<ele>1996.20</ele>
	<time>2025-07-29T08:30:26.000Z</time>
</trkpt>
<trkpt lat="45.8845590" lon="10.2826690">
	<ele>1996.40</ele>
	<time>2025-07-29T08:30:27.000Z</time>
</trkpt>
<trkpt lat="45.8845500" lon="10.2826700">
	<ele>1996.40</ele>
	<time>2025-07-29T08:30:28.000Z</time>
</trkpt>
<trkpt lat="45.8845410" lon="10.2826730">
	<ele>1996.40</ele>
	<time>2025-07-29T08:30:29.000Z</time>
</trkpt>
<trkpt lat="45.8845310" lon="10.2826780">
	<ele>1996.60</ele>
	<time>2025-07-29T08:30:30.000Z</time>
</trkpt>
<trkpt lat="45.8845220" lon="10.2826810">
	<ele>1996.60</ele>
	<time>2025-07-29T08:30:31.000Z</time>
</trkpt>
<trkpt lat="45.8845120" lon="10.2826830">
	<ele>1996.80</ele>
	<time>2025-07-29T08:30:32.000Z</time>
</trkpt>
<trkpt lat="45.8845020" lon="10.2826850">
	<ele>1996.80</ele>
	<time>2025-07-29T08:30:33.000Z</time>
</trkpt>
<trkpt lat="45.8844920" lon="10.2826860">
	<ele>1997.00</ele>
	<time>2025-07-29T08:30:34.000Z</time>
</trkpt>
<trkpt lat="45.8844810" lon="10.2826870">
	<ele>1997.00</ele>
	<time>2025-07-29T08:30:35.000Z</time>
</trkpt>
<trkpt lat="45.8844730" lon="10.2826910">
	<ele>1997.20</ele>
	<time>2025-07-29T08:30:36.000Z</time>
</trkpt>
<trkpt lat="45.8844660" lon="10.2826970">
	<ele>1997.20</ele>
	<time>2025-07-29T08:30:37.000Z</time>
</trkpt>
<trkpt lat="45.8844580" lon="10.2827000">
	<ele>1997.20</ele>
	<time>2025-07-29T08:30:38.000Z</time>
</trkpt>
<trkpt lat="45.8844500" lon="10.2827010">
	<ele>1997.60</ele>
	<time>2025-07-29T08:30:39.000Z</time>
</trkpt>
<trkpt lat="45.8844410" lon="10.2827000">
	<ele>1997.80</ele>
	<time>2025-07-29T08:30:40.000Z</time>
</trkpt>
<trkpt lat="45.8844320" lon="10.2826990">
	<ele>1998.00</ele>
	<time>2025-07-29T08:30:41.000Z</time>
</trkpt>
<trkpt lat="45.8844230" lon="10.2826960">
	<ele>1998.20</ele>
	<time>2025-07-29T08:30:42.000Z</time>
</trkpt>
<trkpt lat="45.8844120" lon="10.2826930">
	<ele>1998.20</ele>
	<time>2025-07-29T08:30:43.000Z</time>
</trkpt>
<trkpt lat="45.8844030" lon="10.2826930">
	<ele>1998.40</ele>
	<time>2025-07-29T08:30:44.000Z</time>
</trkpt>
<trkpt lat="45.8843920" lon="10.2826910">
	<ele>1998.40</ele>
	<time>2025-07-29T08:30:45.000Z</time>
</trkpt>
<trkpt lat="45.8843830" lon="10.2826910">
	<ele>1998.40</ele>
	<time>2025-07-29T08:30:46.000Z</time>
</trkpt>
<trkpt lat="45.8843750" lon="10.2826910">
	<ele>1998.40</ele>
	<time>2025-07-29T08:30:47.000Z</time>
</trkpt>
<trkpt lat="45.8843690" lon="10.2826970">
	<ele>1998.60</ele>
	<time>2025-07-29T08:30:48.000Z</time>
</trkpt>
<trkpt lat="45.8843660" lon="10.2826990">
	<ele>1998.60</ele>
	<time>2025-07-29T08:30:49.000Z</time>
</trkpt>
<trkpt lat="45.8843660" lon="10.2826990">
	<ele>1998.60</ele>
	<time>2025-07-29T08:30:50.000Z</time>
</trkpt>
<trkpt lat="45.8843680" lon="10.2826990">
	<ele>1998.80</ele>
	<time>2025-07-29T08:30:51.000Z</time>
</trkpt>
<trkpt lat="45.8843680" lon="10.2826990">
	<ele>1998.80</ele>
	<time>2025-07-29T08:30:52.000Z</time>
</trkpt>
<trkpt lat="45.8843680" lon="10.2827000">
	<ele>1999.00</ele>
	<time>2025-07-29T08:30:53.000Z</time>
</trkpt>
<trkpt lat="45.8843670" lon="10.2827000">
	<ele>1999.00</ele>
	<time>2025-07-29T08:30:54.000Z</time>
</trkpt>
<trkpt lat="45.8843660" lon="10.2827000">
	<ele>1999.00</ele>
	<time>2025-07-29T08:30:55.000Z</time>
</trkpt>
<trkpt lat="45.8843660" lon="10.2827010">
	<ele>1999.20</ele>
	<time>2025-07-29T08:30:56.000Z</time>
</trkpt>
<trkpt lat="45.8843670" lon="10.2827010">
	<ele>1999.20</ele>
	<time>2025-07-29T08:30:57.000Z</time>
</trkpt>
<trkpt lat="45.8843680" lon="10.2827010">
	<ele>1999.20</ele>
	<time>2025-07-29T08:30:58.000Z</time>
</trkpt>
<trkpt lat="45.8843680" lon="10.2827010">
	<ele>1999.20</ele>
	<time>2025-07-29T08:30:59.000Z</time>
</trkpt>
<trkpt lat="45.8843680" lon="10.2827010">
	<ele>1999.20</ele>
	<time>2025-07-29T08:31:00.000Z</time>
</trkpt>
<trkpt lat="45.8843680" lon="10.2827010">
	<ele>1999.00</ele>
	<time>2025-07-29T08:31:01.000Z</time>
</trkpt>
<trkpt lat="45.8843680" lon="10.2827010">
	<ele>1998.80</ele>
	<time>2025-07-29T08:31:02.000Z</time>
</trkpt>
<trkpt lat="45.8843680" lon="10.2827010">
	<ele>1998.80</ele>
	<time>2025-07-29T08:31:03.000Z</time>
</trkpt>
<trkpt lat="45.8843680" lon="10.2827010">
	<ele>1998.80</ele>
	<time>2025-07-29T08:31:04.000Z</time>
</trkpt>
<trkpt lat="45.8843680" lon="10.2827010">
	<ele>1998.60</ele>
	<time>2025-07-29T08:31:05.000Z</time>
</trkpt>
<trkpt lat="45.8843680" lon="10.2827010">
	<ele>1998.60</ele>
	<time>2025-07-29T08:31:06.000Z</time>
</trkpt>
<trkpt lat="45.8843680" lon="10.2827010">
	<ele>1998.60</ele>
	<time>2025-07-29T08:31:07.000Z</time>
</trkpt>
<trkpt lat="45.8843680" lon="10.2827010">
	<ele>1998.80</ele>
	<time>2025-07-29T08:31:08.000Z</time>
</trkpt>
<trkpt lat="45.8843680" lon="10.2827010">
	<ele>1998.80</ele>
	<time>2025-07-29T08:31:09.000Z</time>
</trkpt>
<trkpt lat="45.8843680" lon="10.2827010">
	<ele>1998.60</ele>
	<time>2025-07-29T08:31:10.000Z</time>
</trkpt>
<trkpt lat="45.8843680" lon="10.2827010">
	<ele>1998.60</ele>
	<time>2025-07-29T08:31:11.000Z</time>
</trkpt>
<trkpt lat="45.8843680" lon="10.2827010">
	<ele>1998.60</ele>
	<time>2025-07-29T08:31:12.000Z</time>
</trkpt>
<trkpt lat="45.8843680" lon="10.2827010">
	<ele>1998.60</ele>
	<time>2025-07-29T08:31:13.000Z</time>
</trkpt>
<trkpt lat="45.8843680" lon="10.2827010">
	<ele>1998.60</ele>
	<time>2025-07-29T08:31:14.000Z</time>
</trkpt>
<trkpt lat="45.8843690" lon="10.2827010">
	<ele>1998.60</ele>
	<time>2025-07-29T08:31:15.000Z</time>
</trkpt>
<trkpt lat="45.8843690" lon="10.2827010">
	<ele>1998.60</ele>
	<time>2025-07-29T08:31:16.000Z</time>
</trkpt>
<trkpt lat="45.8843690" lon="10.2827000">
	<ele>1998.80</ele>
	<time>2025-07-29T08:31:17.000Z</time>
</trkpt>
<trkpt lat="45.8843690" lon="10.2827000">
	<ele>1999.00</ele>
	<time>2025-07-29T08:31:18.000Z</time>
</trkpt>
<trkpt lat="45.8843690" lon="10.2827000">
	<ele>1999.20</ele>
	<time>2025-07-29T08:31:19.000Z</time>
</trkpt>
<trkpt lat="45.8843690" lon="10.2827000">
	<ele>1999.20</ele>
	<time>2025-07-29T08:31:20.000Z</time>
</trkpt>
<trkpt lat="45.8843690" lon="10.2827000">
	<ele>1999.20</ele>
	<time>2025-07-29T08:31:21.000Z</time>
</trkpt>
<trkpt lat="45.8843690" lon="10.2827000">
	<ele>1999.20</ele>
	<time>2025-07-29T08:31:22.000Z</time>
</trkpt>
<trkpt lat="45.8843690" lon="10.2827000">
	<ele>1999.20</ele>
	<time>2025-07-29T08:31:23.000Z</time>
</trkpt>
<trkpt lat="45.8843690" lon="10.2826990">
	<ele>1999.20</ele>
	<time>2025-07-29T08:31:24.000Z</time>
</trkpt>
<trkpt lat="45.8843690" lon="10.2826990">
	<ele>1999.20</ele>
	<time>2025-07-29T08:31:25.000Z</time>
</trkpt>
<trkpt lat="45.8843690" lon="10.2826990">
	<ele>1999.20</ele>
	<time>2025-07-29T08:31:26.000Z</time>
</trkpt>
<trkpt lat="45.8843690" lon="10.2826990">
	<ele>1999.20</ele>
	<time>2025-07-29T08:31:27.000Z</time>
</trkpt>
<trkpt lat="45.8843650" lon="10.2826960">
	<ele>1999.20</ele>
	<time>2025-07-29T08:31:28.000Z</time>
</trkpt>
<trkpt lat="45.8843500" lon="10.2826850">
	<ele>1999.20</ele>
	<time>2025-07-29T08:31:29.000Z</time>
</trkpt>
<trkpt lat="45.8843370" lon="10.2826770">
	<ele>1999.40</ele>
	<time>2025-07-29T08:31:30.000Z</time>
</trkpt>
<trkpt lat="45.8843260" lon="10.2826700">
	<ele>1999.40</ele>
	<time>2025-07-29T08:31:31.000Z</time>
</trkpt>
<trkpt lat="45.8843120" lon="10.2826610">
	<ele>1999.60</ele>
	<time>2025-07-29T08:31:32.000Z</time>
</trkpt>
<trkpt lat="45.8842970" lon="10.2826530">
	<ele>1999.60</ele>
	<time>2025-07-29T08:31:33.000Z</time>
</trkpt>
<trkpt lat="45.8842840" lon="10.2826440">
	<ele>1999.80</ele>
	<time>2025-07-29T08:31:34.000Z</time>
</trkpt>
<trkpt lat="45.8842690" lon="10.2826370">
	<ele>1999.80</ele>
	<time>2025-07-29T08:31:35.000Z</time>
</trkpt>
<trkpt lat="45.8842530" lon="10.2826240">
	<ele>2000.00</ele>
	<time>2025-07-29T08:31:36.000Z</time>
</trkpt>
<trkpt lat="45.8842380" lon="10.2826160">
	<ele>2000.20</ele>
	<time>2025-07-29T08:31:37.000Z</time>
</trkpt>
<trkpt lat="45.8842280" lon="10.2826080">
	<ele>2000.20</ele>
	<time>2025-07-29T08:31:38.000Z</time>
</trkpt>
<trkpt lat="45.8842190" lon="10.2826040">
	<ele>2000.20</ele>
	<time>2025-07-29T08:31:39.000Z</time>
</trkpt>
<trkpt lat="45.8842120" lon="10.2826000">
	<ele>2000.20</ele>
	<time>2025-07-29T08:31:40.000Z</time>
</trkpt>
<trkpt lat="45.8842040" lon="10.2825940">
	<ele>2000.20</ele>
	<time>2025-07-29T08:31:41.000Z</time>
</trkpt>
<trkpt lat="45.8841960" lon="10.2825880">
	<ele>2000.40</ele>
	<time>2025-07-29T08:31:42.000Z</time>
</trkpt>
<trkpt lat="45.8841860" lon="10.2825840">
	<ele>2000.40</ele>
	<time>2025-07-29T08:31:43.000Z</time>
</trkpt>
<trkpt lat="45.8841750" lon="10.2825830">
	<ele>2000.20</ele>
	<time>2025-07-29T08:31:44.000Z</time>
</trkpt>
<trkpt lat="45.8841660" lon="10.2825800">
	<ele>2000.20</ele>
	<time>2025-07-29T08:31:45.000Z</time>
</trkpt>
<trkpt lat="45.8841580" lon="10.2825740">
	<ele>2000.20</ele>
	<time>2025-07-29T08:31:46.000Z</time>
</trkpt>
<trkpt lat="45.8841500" lon="10.2825680">
	<ele>2000.40</ele>
	<time>2025-07-29T08:31:47.000Z</time>
</trkpt>
<trkpt lat="45.8841420" lon="10.2825630">
	<ele>2000.60</ele>
	<time>2025-07-29T08:31:48.000Z</time>
</trkpt>
<trkpt lat="45.8841340" lon="10.2825580">
	<ele>2000.60</ele>
	<time>2025-07-29T08:31:49.000Z</time>
</trkpt>
<trkpt lat="45.8841230" lon="10.2825550">
	<ele>2000.60</ele>
	<time>2025-07-29T08:31:50.000Z</time>
</trkpt>
<trkpt lat="45.8841130" lon="10.2825510">
	<ele>2000.80</ele>
	<time>2025-07-29T08:31:51.000Z</time>
</trkpt>
<trkpt lat="45.8841030" lon="10.2825470">
	<ele>2000.80</ele>
	<time>2025-07-29T08:31:52.000Z</time>
</trkpt>
<trkpt lat="45.8840940" lon="10.2825410">
	<ele>2001.00</ele>
	<time>2025-07-29T08:31:53.000Z</time>
</trkpt>
<trkpt lat="45.8840860" lon="10.2825340">
	<ele>2001.00</ele>
	<time>2025-07-29T08:31:54.000Z</time>
</trkpt>
<trkpt lat="45.8840790" lon="10.2825270">
	<ele>2001.20</ele>
	<time>2025-07-29T08:31:55.000Z</time>
</trkpt>
<trkpt lat="45.8840720" lon="10.2825170">
	<ele>2001.40</ele>
	<time>2025-07-29T08:31:56.000Z</time>
</trkpt>
<trkpt lat="45.8840620" lon="10.2825080">
	<ele>2001.60</ele>
	<time>2025-07-29T08:31:57.000Z</time>
</trkpt>
<trkpt lat="45.8840530" lon="10.2825010">
	<ele>2001.60</ele>
	<time>2025-07-29T08:31:58.000Z</time>
</trkpt>
<trkpt lat="45.8840440" lon="10.2824910">
	<ele>2001.80</ele>
	<time>2025-07-29T08:31:59.000Z</time>
</trkpt>
<trkpt lat="45.8840360" lon="10.2824830">
	<ele>2002.00</ele>
	<time>2025-07-29T08:32:00.000Z</time>
</trkpt>
<trkpt lat="45.8840260" lon="10.2824750">
	<ele>2002.20</ele>
	<time>2025-07-29T08:32:01.000Z</time>
</trkpt>
<trkpt lat="45.8840180" lon="10.2824690">
	<ele>2002.40</ele>
	<time>2025-07-29T08:32:02.000Z</time>
</trkpt>
<trkpt lat="45.8840080" lon="10.2824610">
	<ele>2002.40</ele>
	<time>2025-07-29T08:32:03.000Z</time>
</trkpt>
<trkpt lat="45.8840000" lon="10.2824530">
	<ele>2002.60</ele>
	<time>2025-07-29T08:32:04.000Z</time>
</trkpt>
<trkpt lat="45.8839900" lon="10.2824460">
	<ele>2002.80</ele>
	<time>2025-07-29T08:32:05.000Z</time>
</trkpt>
<trkpt lat="45.8839790" lon="10.2824400">
	<ele>2003.00</ele>
	<time>2025-07-29T08:32:06.000Z</time>
</trkpt>
<trkpt lat="45.8839700" lon="10.2824340">
	<ele>2003.00</ele>
	<time>2025-07-29T08:32:07.000Z</time>
</trkpt>
<trkpt lat="45.8839630" lon="10.2824290">
	<ele>2003.20</ele>
	<time>2025-07-29T08:32:08.000Z</time>
</trkpt>
<trkpt lat="45.8839550" lon="10.2824230">
	<ele>2003.20</ele>
	<time>2025-07-29T08:32:09.000Z</time>
</trkpt>
<trkpt lat="45.8839480" lon="10.2824200">
	<ele>2003.40</ele>
	<time>2025-07-29T08:32:10.000Z</time>
</trkpt>
<trkpt lat="45.8839400" lon="10.2824150">
	<ele>2003.60</ele>
	<time>2025-07-29T08:32:11.000Z</time>
</trkpt>
<trkpt lat="45.8839330" lon="10.2824130">
	<ele>2003.80</ele>
	<time>2025-07-29T08:32:12.000Z</time>
</trkpt>
<trkpt lat="45.8839250" lon="10.2824100">
	<ele>2003.80</ele>
	<time>2025-07-29T08:32:13.000Z</time>
</trkpt>
<trkpt lat="45.8839170" lon="10.2824060">
	<ele>2004.00</ele>
	<time>2025-07-29T08:32:14.000Z</time>
</trkpt>
<trkpt lat="45.8839100" lon="10.2824040">
	<ele>2004.00</ele>
	<time>2025-07-29T08:32:15.000Z</time>
</trkpt>
<trkpt lat="45.8839030" lon="10.2824020">
	<ele>2004.00</ele>
	<time>2025-07-29T08:32:16.000Z</time>
</trkpt>
<trkpt lat="45.8838940" lon="10.2823990">
	<ele>2004.20</ele>
	<time>2025-07-29T08:32:17.000Z</time>
</trkpt>
<trkpt lat="45.8838830" lon="10.2823940">
	<ele>2004.60</ele>
	<time>2025-07-29T08:32:18.000Z</time>
</trkpt>
<trkpt lat="45.8838740" lon="10.2823890">
	<ele>2004.80</ele>
	<time>2025-07-29T08:32:19.000Z</time>
</trkpt>
<trkpt lat="45.8838660" lon="10.2823850">
	<ele>2004.80</ele>
	<time>2025-07-29T08:32:20.000Z</time>
</trkpt>
<trkpt lat="45.8838590" lon="10.2823820">
	<ele>2005.00</ele>
	<time>2025-07-29T08:32:21.000Z</time>
</trkpt>
<trkpt lat="45.8838540" lon="10.2823780">
	<ele>2005.00</ele>
	<time>2025-07-29T08:32:22.000Z</time>
</trkpt>
<trkpt lat="45.8838490" lon="10.2823740">
	<ele>2005.20</ele>
	<time>2025-07-29T08:32:23.000Z</time>
</trkpt>
<trkpt lat="45.8838450" lon="10.2823710">
	<ele>2005.40</ele>
	<time>2025-07-29T08:32:24.000Z</time>
</trkpt>
<trkpt lat="45.8838370" lon="10.2823680">
	<ele>2005.60</ele>
	<time>2025-07-29T08:32:25.000Z</time>
</trkpt>
<trkpt lat="45.8838290" lon="10.2823670">
	<ele>2005.80</ele>
	<time>2025-07-29T08:32:26.000Z</time>
</trkpt>
<trkpt lat="45.8838200" lon="10.2823660">
	<ele>2005.80</ele>
	<time>2025-07-29T08:32:27.000Z</time>
</trkpt>
<trkpt lat="45.8838120" lon="10.2823640">
	<ele>2006.00</ele>
	<time>2025-07-29T08:32:28.000Z</time>
</trkpt>
<trkpt lat="45.8838070" lon="10.2823600">
	<ele>2006.20</ele>
	<time>2025-07-29T08:32:29.000Z</time>
</trkpt>
<trkpt lat="45.8838020" lon="10.2823530">
	<ele>2006.40</ele>
	<time>2025-07-29T08:32:30.000Z</time>
</trkpt>
<trkpt lat="45.8837960" lon="10.2823490">
	<ele>2006.60</ele>
	<time>2025-07-29T08:32:31.000Z</time>
</trkpt>
<trkpt lat="45.8837880" lon="10.2823460">
	<ele>2006.80</ele>
	<time>2025-07-29T08:32:32.000Z</time>
</trkpt>
<trkpt lat="45.8837820" lon="10.2823450">
	<ele>2006.80</ele>
	<time>2025-07-29T08:32:33.000Z</time>
</trkpt>
<trkpt lat="45.8837760" lon="10.2823420">
	<ele>2007.00</ele>
	<time>2025-07-29T08:32:34.000Z</time>
</trkpt>
<trkpt lat="45.8837700" lon="10.2823340">
	<ele>2007.00</ele>
	<time>2025-07-29T08:32:35.000Z</time>
</trkpt>
<trkpt lat="45.8837660" lon="10.2823280">
	<ele>2007.20</ele>
	<time>2025-07-29T08:32:36.000Z</time>
</trkpt>
<trkpt lat="45.8837650" lon="10.2823250">
	<ele>2007.40</ele>
	<time>2025-07-29T08:32:37.000Z</time>
</trkpt>
<trkpt lat="45.8837610" lon="10.2823260">
	<ele>2007.60</ele>
	<time>2025-07-29T08:32:38.000Z</time>
</trkpt>
<trkpt lat="45.8837550" lon="10.2823260">
	<ele>2007.80</ele>
	<time>2025-07-29T08:32:39.000Z</time>
</trkpt>
<trkpt lat="45.8837480" lon="10.2823250">
	<ele>2008.00</ele>
	<time>2025-07-29T08:32:40.000Z</time>
</trkpt>
<trkpt lat="45.8837380" lon="10.2823250">
	<ele>2008.00</ele>
	<time>2025-07-29T08:32:41.000Z</time>
</trkpt>
<trkpt lat="45.8837300" lon="10.2823240">
	<ele>2008.20</ele>
	<time>2025-07-29T08:32:42.000Z</time>
</trkpt>
<trkpt lat="45.8837220" lon="10.2823220">
	<ele>2008.40</ele>
	<time>2025-07-29T08:32:43.000Z</time>
</trkpt>
<trkpt lat="45.8837160" lon="10.2823220">
	<ele>2008.40</ele>
	<time>2025-07-29T08:32:44.000Z</time>
</trkpt>
<trkpt lat="45.8837090" lon="10.2823220">
	<ele>2008.60</ele>
	<time>2025-07-29T08:32:45.000Z</time>
</trkpt>
<trkpt lat="45.8837020" lon="10.2823210">
	<ele>2008.60</ele>
	<time>2025-07-29T08:32:46.000Z</time>
</trkpt>
<trkpt lat="45.8836970" lon="10.2823190">
	<ele>2008.80</ele>
	<time>2025-07-29T08:32:47.000Z</time>
</trkpt>
<trkpt lat="45.8836890" lon="10.2823160">
	<ele>2009.00</ele>
	<time>2025-07-29T08:32:48.000Z</time>
</trkpt>
<trkpt lat="45.8836810" lon="10.2823140">
	<ele>2009.20</ele>
	<time>2025-07-29T08:32:49.000Z</time>
</trkpt>
<trkpt lat="45.8836730" lon="10.2823140">
	<ele>2009.20</ele>
	<time>2025-07-29T08:32:50.000Z</time>
</trkpt>
<trkpt lat="45.8836680" lon="10.2823090">
	<ele>2009.40</ele>
	<time>2025-07-29T08:32:51.000Z</time>
</trkpt>
<trkpt lat="45.8836640" lon="10.2823030">
	<ele>2009.60</ele>
	<time>2025-07-29T08:32:52.000Z</time>
</trkpt>
<trkpt lat="45.8836600" lon="10.2822980">
	<ele>2009.60</ele>
	<time>2025-07-29T08:32:53.000Z</time>
</trkpt>
<trkpt lat="45.8836550" lon="10.2822950">
	<ele>2009.80</ele>
	<time>2025-07-29T08:32:54.000Z</time>
</trkpt>
<trkpt lat="45.8836480" lon="10.2822930">
	<ele>2010.00</ele>
	<time>2025-07-29T08:32:55.000Z</time>
</trkpt>
<trkpt lat="45.8836400" lon="10.2822890">
	<ele>2010.20</ele>
	<time>2025-07-29T08:32:56.000Z</time>
</trkpt>
<trkpt lat="45.8836350" lon="10.2822830">
	<ele>2010.40</ele>
	<time>2025-07-29T08:32:57.000Z</time>
</trkpt>
<trkpt lat="45.8836310" lon="10.2822770">
	<ele>2010.40</ele>
	<time>2025-07-29T08:32:58.000Z</time>
</trkpt>
<trkpt lat="45.8836280" lon="10.2822730">
	<ele>2010.40</ele>
	<time>2025-07-29T08:32:59.000Z</time>
</trkpt>
<trkpt lat="45.8836230" lon="10.2822680">
	<ele>2010.80</ele>
	<time>2025-07-29T08:33:00.000Z</time>
</trkpt>
<trkpt lat="45.8836190" lon="10.2822650">
	<ele>2011.00</ele>
	<time>2025-07-29T08:33:01.000Z</time>
</trkpt>
<trkpt lat="45.8836130" lon="10.2822620">
	<ele>2011.20</ele>
	<time>2025-07-29T08:33:02.000Z</time>
</trkpt>
<trkpt lat="45.8836050" lon="10.2822610">
	<ele>2011.40</ele>
	<time>2025-07-29T08:33:03.000Z</time>
</trkpt>
<trkpt lat="45.8835960" lon="10.2822570">
	<ele>2011.60</ele>
	<time>2025-07-29T08:33:04.000Z</time>
</trkpt>
<trkpt lat="45.8835890" lon="10.2822550">
	<ele>2011.60</ele>
	<time>2025-07-29T08:33:05.000Z</time>
</trkpt>
<trkpt lat="45.8835810" lon="10.2822580">
	<ele>2011.80</ele>
	<time>2025-07-29T08:33:06.000Z</time>
</trkpt>
<trkpt lat="45.8835720" lon="10.2822620">
	<ele>2012.00</ele>
	<time>2025-07-29T08:33:07.000Z</time>
</trkpt>
<trkpt lat="45.8835630" lon="10.2822680">
	<ele>2012.20</ele>
	<time>2025-07-29T08:33:08.000Z</time>
</trkpt>
<trkpt lat="45.8835560" lon="10.2822760">
	<ele>2012.40</ele>
	<time>2025-07-29T08:33:09.000Z</time>
</trkpt>
<trkpt lat="45.8835510" lon="10.2822810">
	<ele>2012.60</ele>
	<time>2025-07-29T08:33:10.000Z</time>
</trkpt>
<trkpt lat="45.8835440" lon="10.2822860">
	<ele>2012.80</ele>
	<time>2025-07-29T08:33:11.000Z</time>
</trkpt>
<trkpt lat="45.8835360" lon="10.2822900">
	<ele>2012.80</ele>
	<time>2025-07-29T08:33:12.000Z</time>
</trkpt>
<trkpt lat="45.8835280" lon="10.2822930">
	<ele>2013.00</ele>
	<time>2025-07-29T08:33:13.000Z</time>
</trkpt>
<trkpt lat="45.8835210" lon="10.2822970">
	<ele>2013.40</ele>
	<time>2025-07-29T08:33:14.000Z</time>
</trkpt>
<trkpt lat="45.8835170" lon="10.2823000">
	<ele>2013.40</ele>
	<time>2025-07-29T08:33:15.000Z</time>
</trkpt>
<trkpt lat="45.8835110" lon="10.2823030">
	<ele>2013.60</ele>
	<time>2025-07-29T08:33:16.000Z</time>
</trkpt>
<trkpt lat="45.8835010" lon="10.2823060">
	<ele>2013.80</ele>
	<time>2025-07-29T08:33:17.000Z</time>
</trkpt>
<trkpt lat="45.8834930" lon="10.2823050">
	<ele>2013.80</ele>
	<time>2025-07-29T08:33:18.000Z</time>
</trkpt>
<trkpt lat="45.8834830" lon="10.2823050">
	<ele>2013.80</ele>
	<time>2025-07-29T08:33:19.000Z</time>
</trkpt>
<trkpt lat="45.8834740" lon="10.2823070">
	<ele>2013.80</ele>
	<time>2025-07-29T08:33:20.000Z</time>
</trkpt>
<trkpt lat="45.8834640" lon="10.2823080">
	<ele>2013.80</ele>
	<time>2025-07-29T08:33:21.000Z</time>
</trkpt>
<trkpt lat="45.8834570" lon="10.2823100">
	<ele>2014.00</ele>
	<time>2025-07-29T08:33:22.000Z</time>
</trkpt>
<trkpt lat="45.8834500" lon="10.2823100">
	<ele>2014.20</ele>
	<time>2025-07-29T08:33:23.000Z</time>
</trkpt>
<trkpt lat="45.8834430" lon="10.2823100">
	<ele>2014.20</ele>
	<time>2025-07-29T08:33:24.000Z</time>
</trkpt>
<trkpt lat="45.8834360" lon="10.2823080">
	<ele>2014.40</ele>
	<time>2025-07-29T08:33:25.000Z</time>
</trkpt>
<trkpt lat="45.8834270" lon="10.2823070">
	<ele>2014.60</ele>
	<time>2025-07-29T08:33:26.000Z</time>
</trkpt>
<trkpt lat="45.8834180" lon="10.2823040">
	<ele>2014.80</ele>
	<time>2025-07-29T08:33:27.000Z</time>
</trkpt>
<trkpt lat="45.8834090" lon="10.2823040">
	<ele>2015.00</ele>
	<time>2025-07-29T08:33:28.000Z</time>
</trkpt>
<trkpt lat="45.8834010" lon="10.2823030">
	<ele>2015.00</ele>
	<time>2025-07-29T08:33:29.000Z</time>
</trkpt>
<trkpt lat="45.8833920" lon="10.2823030">
	<ele>2015.00</ele>
	<time>2025-07-29T08:33:30.000Z</time>
</trkpt>
<trkpt lat="45.8833840" lon="10.2823030">
	<ele>2015.20</ele>
	<time>2025-07-29T08:33:31.000Z</time>
</trkpt>
<trkpt lat="45.8833740" lon="10.2823030">
	<ele>2015.20</ele>
	<time>2025-07-29T08:33:32.000Z</time>
</trkpt>
<trkpt lat="45.8833700" lon="10.2823000">
	<ele>2015.20</ele>
	<time>2025-07-29T08:33:33.000Z</time>
</trkpt>
<trkpt lat="45.8833650" lon="10.2822960">
	<ele>2015.60</ele>
	<time>2025-07-29T08:33:34.000Z</time>
</trkpt>
<trkpt lat="45.8833570" lon="10.2822880">
	<ele>2015.80</ele>
	<time>2025-07-29T08:33:35.000Z</time>
</trkpt>
<trkpt lat="45.8833490" lon="10.2822840">
	<ele>2016.00</ele>
	<time>2025-07-29T08:33:36.000Z</time>
</trkpt>
<trkpt lat="45.8833410" lon="10.2822810">
	<ele>2016.00</ele>
	<time>2025-07-29T08:33:37.000Z</time>
</trkpt>
<trkpt lat="45.8833330" lon="10.2822790">
	<ele>2016.00</ele>
	<time>2025-07-29T08:33:38.000Z</time>
</trkpt>
<trkpt lat="45.8833250" lon="10.2822770">
	<ele>2016.00</ele>
	<time>2025-07-29T08:33:39.000Z</time>
</trkpt>
<trkpt lat="45.8833150" lon="10.2822730">
	<ele>2016.40</ele>
	<time>2025-07-29T08:33:40.000Z</time>
</trkpt>
<trkpt lat="45.8833030" lon="10.2822690">
	<ele>2016.60</ele>
	<time>2025-07-29T08:33:41.000Z</time>
</trkpt>
<trkpt lat="45.8832920" lon="10.2822690">
	<ele>2016.80</ele>
	<time>2025-07-29T08:33:42.000Z</time>
</trkpt>
<trkpt lat="45.8832820" lon="10.2822690">
	<ele>2017.00</ele>
	<time>2025-07-29T08:33:43.000Z</time>
</trkpt>
<trkpt lat="45.8832730" lon="10.2822700">
	<ele>2017.20</ele>
	<time>2025-07-29T08:33:44.000Z</time>
</trkpt>
<trkpt lat="45.8832620" lon="10.2822710">
	<ele>2017.20</ele>
	<time>2025-07-29T08:33:45.000Z</time>
</trkpt>
<trkpt lat="45.8832510" lon="10.2822730">
	<ele>2017.20</ele>
	<time>2025-07-29T08:33:46.000Z</time>
</trkpt>
<trkpt lat="45.8832410" lon="10.2822760">
	<ele>2017.40</ele>
	<time>2025-07-29T08:33:47.000Z</time>
</trkpt>
<trkpt lat="45.8832310" lon="10.2822780">
	<ele>2017.60</ele>
	<time>2025-07-29T08:33:48.000Z</time>
</trkpt>
<trkpt lat="45.8832230" lon="10.2822750">
	<ele>2017.80</ele>
	<time>2025-07-29T08:33:49.000Z</time>
</trkpt>
<trkpt lat="45.8832140" lon="10.2822720">
	<ele>2018.00</ele>
	<time>2025-07-29T08:33:50.000Z</time>
</trkpt>
<trkpt lat="45.8832030" lon="10.2822700">
	<ele>2018.20</ele>
	<time>2025-07-29T08:33:51.000Z</time>
</trkpt>
<trkpt lat="45.8831930" lon="10.2822690">
	<ele>2018.20</ele>
	<time>2025-07-29T08:33:52.000Z</time>
</trkpt>
<trkpt lat="45.8831880" lon="10.2822680">
	<ele>2018.40</ele>
	<time>2025-07-29T08:33:53.000Z</time>
</trkpt>
<trkpt lat="45.8831820" lon="10.2822650">
	<ele>2018.40</ele>
	<time>2025-07-29T08:33:54.000Z</time>
</trkpt>
<trkpt lat="45.8831740" lon="10.2822620">
	<ele>2018.40</ele>
	<time>2025-07-29T08:33:55.000Z</time>
</trkpt>
<trkpt lat="45.8831630" lon="10.2822580">
	<ele>2018.60</ele>
	<time>2025-07-29T08:33:56.000Z</time>
</trkpt>
<trkpt lat="45.8831560" lon="10.2822590">
	<ele>2018.60</ele>
	<time>2025-07-29T08:33:57.000Z</time>
</trkpt>
<trkpt lat="45.8831460" lon="10.2822580">
	<ele>2018.60</ele>
	<time>2025-07-29T08:33:58.000Z</time>
</trkpt>
<trkpt lat="45.8831370" lon="10.2822580">
	<ele>2018.80</ele>
	<time>2025-07-29T08:33:59.000Z</time>
</trkpt>
<trkpt lat="45.8831290" lon="10.2822630">
	<ele>2018.80</ele>
	<time>2025-07-29T08:34:00.000Z</time>
</trkpt>
<trkpt lat="45.8831210" lon="10.2822710">
	<ele>2019.00</ele>
	<time>2025-07-29T08:34:01.000Z</time>
</trkpt>
<trkpt lat="45.8831140" lon="10.2822780">
	<ele>2019.20</ele>
	<time>2025-07-29T08:34:02.000Z</time>
</trkpt>
<trkpt lat="45.8831050" lon="10.2822810">
	<ele>2019.40</ele>
	<time>2025-07-29T08:34:03.000Z</time>
</trkpt>
<trkpt lat="45.8830970" lon="10.2822850">
	<ele>2019.40</ele>
	<time>2025-07-29T08:34:04.000Z</time>
</trkpt>
<trkpt lat="45.8830890" lon="10.2822910">
	<ele>2019.40</ele>
	<time>2025-07-29T08:34:05.000Z</time>
</trkpt>
<trkpt lat="45.8830810" lon="10.2822960">
	<ele>2019.60</ele>
	<time>2025-07-29T08:34:06.000Z</time>
</trkpt>
<trkpt lat="45.8830720" lon="10.2823000">
	<ele>2019.60</ele>
	<time>2025-07-29T08:34:07.000Z</time>
</trkpt>
<trkpt lat="45.8830640" lon="10.2823030">
	<ele>2019.60</ele>
	<time>2025-07-29T08:34:08.000Z</time>
</trkpt>
<trkpt lat="45.8830540" lon="10.2823040">
	<ele>2019.80</ele>
	<time>2025-07-29T08:34:09.000Z</time>
</trkpt>
<trkpt lat="45.8830450" lon="10.2823050">
	<ele>2019.80</ele>
	<time>2025-07-29T08:34:10.000Z</time>
</trkpt>
<trkpt lat="45.8830350" lon="10.2823060">
	<ele>2020.00</ele>
	<time>2025-07-29T08:34:11.000Z</time>
</trkpt>
<trkpt lat="45.8830260" lon="10.2823090">
	<ele>2020.20</ele>
	<time>2025-07-29T08:34:12.000Z</time>
</trkpt>
<trkpt lat="45.8830190" lon="10.2823130">
	<ele>2020.40</ele>
	<time>2025-07-29T08:34:13.000Z</time>
</trkpt>
<trkpt lat="45.8830100" lon="10.2823140">
	<ele>2020.60</ele>
	<time>2025-07-29T08:34:14.000Z</time>
</trkpt>
<trkpt lat="45.8830000" lon="10.2823150">
	<ele>2020.80</ele>
	<time>2025-07-29T08:34:15.000Z</time>
</trkpt>
<trkpt lat="45.8829910" lon="10.2823150">
	<ele>2020.80</ele>
	<time>2025-07-29T08:34:16.000Z</time>
</trkpt>
<trkpt lat="45.8829830" lon="10.2823150">
	<ele>2021.00</ele>
	<time>2025-07-29T08:34:17.000Z</time>
</trkpt>
<trkpt lat="45.8829760" lon="10.2823180">
	<ele>2021.20</ele>
	<time>2025-07-29T08:34:18.000Z</time>
</trkpt>
<trkpt lat="45.8829680" lon="10.2823200">
	<ele>2021.20</ele>
	<time>2025-07-29T08:34:19.000Z</time>
</trkpt>
<trkpt lat="45.8829590" lon="10.2823200">
	<ele>2021.40</ele>
	<time>2025-07-29T08:34:20.000Z</time>
</trkpt>
<trkpt lat="45.8829500" lon="10.2823200">
	<ele>2021.40</ele>
	<time>2025-07-29T08:34:21.000Z</time>
</trkpt>
<trkpt lat="45.8829430" lon="10.2823220">
	<ele>2021.40</ele>
	<time>2025-07-29T08:34:22.000Z</time>
</trkpt>
<trkpt lat="45.8829350" lon="10.2823250">
	<ele>2021.60</ele>
	<time>2025-07-29T08:34:23.000Z</time>
</trkpt>
<trkpt lat="45.8829290" lon="10.2823260">
	<ele>2021.80</ele>
	<time>2025-07-29T08:34:24.000Z</time>
</trkpt>
<trkpt lat="45.8829230" lon="10.2823300">
	<ele>2021.80</ele>
	<time>2025-07-29T08:34:25.000Z</time>
</trkpt>
<trkpt lat="45.8829160" lon="10.2823310">
	<ele>2022.00</ele>
	<time>2025-07-29T08:34:26.000Z</time>
</trkpt>
<trkpt lat="45.8829090" lon="10.2823290">
	<ele>2022.20</ele>
	<time>2025-07-29T08:34:27.000Z</time>
</trkpt>
<trkpt lat="45.8829010" lon="10.2823260">
	<ele>2022.40</ele>
	<time>2025-07-29T08:34:28.000Z</time>
</trkpt>
<trkpt lat="45.8828940" lon="10.2823260">
	<ele>2022.60</ele>
	<time>2025-07-29T08:34:29.000Z</time>
</trkpt>
<trkpt lat="45.8828870" lon="10.2823250">
	<ele>2022.60</ele>
	<time>2025-07-29T08:34:30.000Z</time>
</trkpt>
<trkpt lat="45.8828800" lon="10.2823250">
	<ele>2022.80</ele>
	<time>2025-07-29T08:34:31.000Z</time>
</trkpt>
<trkpt lat="45.8828740" lon="10.2823240">
	<ele>2022.80</ele>
	<time>2025-07-29T08:34:32.000Z</time>
</trkpt>
<trkpt lat="45.8828660" lon="10.2823210">
	<ele>2023.00</ele>
	<time>2025-07-29T08:34:33.000Z</time>
</trkpt>
<trkpt lat="45.8828590" lon="10.2823180">
	<ele>2023.20</ele>
	<time>2025-07-29T08:34:34.000Z</time>
</trkpt>
<trkpt lat="45.8828520" lon="10.2823170">
	<ele>2023.40</ele>
	<time>2025-07-29T08:34:35.000Z</time>
</trkpt>
<trkpt lat="45.8828470" lon="10.2823160">
	<ele>2023.60</ele>
	<time>2025-07-29T08:34:36.000Z</time>
</trkpt>
<trkpt lat="45.8828400" lon="10.2823140">
	<ele>2023.80</ele>
	<time>2025-07-29T08:34:37.000Z</time>
</trkpt>
<trkpt lat="45.8828300" lon="10.2823100">
	<ele>2024.00</ele>
	<time>2025-07-29T08:34:38.000Z</time>
</trkpt>
<trkpt lat="45.8828210" lon="10.2823060">
	<ele>2024.20</ele>
	<time>2025-07-29T08:34:39.000Z</time>
</trkpt>
<trkpt lat="45.8828120" lon="10.2823040">
	<ele>2024.40</ele>
	<time>2025-07-29T08:34:40.000Z</time>
</trkpt>
<trkpt lat="45.8828030" lon="10.2823040">
	<ele>2024.40</ele>
	<time>2025-07-29T08:34:41.000Z</time>
</trkpt>
<trkpt lat="45.8827950" lon="10.2823040">
	<ele>2024.60</ele>
	<time>2025-07-29T08:34:42.000Z</time>
</trkpt>
<trkpt lat="45.8827880" lon="10.2823070">
	<ele>2024.80</ele>
	<time>2025-07-29T08:34:43.000Z</time>
</trkpt>
<trkpt lat="45.8827800" lon="10.2823110">
	<ele>2025.00</ele>
	<time>2025-07-29T08:34:44.000Z</time>
</trkpt>
<trkpt lat="45.8827710" lon="10.2823140">
	<ele>2025.20</ele>
	<time>2025-07-29T08:34:45.000Z</time>
</trkpt>
<trkpt lat="45.8827630" lon="10.2823200">
	<ele>2025.20</ele>
	<time>2025-07-29T08:34:46.000Z</time>
</trkpt>
<trkpt lat="45.8827610" lon="10.2823310">
	<ele>2025.20</ele>
	<time>2025-07-29T08:34:47.000Z</time>
</trkpt>
<trkpt lat="45.8827550" lon="10.2823400">
	<ele>2025.40</ele>
	<time>2025-07-29T08:34:48.000Z</time>
</trkpt>
<trkpt lat="45.8827470" lon="10.2823470">
	<ele>2025.40</ele>
	<time>2025-07-29T08:34:49.000Z</time>
</trkpt>
<trkpt lat="45.8827390" lon="10.2823530">
	<ele>2025.40</ele>
	<time>2025-07-29T08:34:50.000Z</time>
</trkpt>
<trkpt lat="45.8827310" lon="10.2823590">
	<ele>2025.60</ele>
	<time>2025-07-29T08:34:51.000Z</time>
</trkpt>
<trkpt lat="45.8827240" lon="10.2823620">
	<ele>2025.80</ele>
	<time>2025-07-29T08:34:52.000Z</time>
</trkpt>
<trkpt lat="45.8827180" lon="10.2823680">
	<ele>2025.80</ele>
	<time>2025-07-29T08:34:53.000Z</time>
</trkpt>
<trkpt lat="45.8827120" lon="10.2823730">
	<ele>2026.00</ele>
	<time>2025-07-29T08:34:54.000Z</time>
</trkpt>
<trkpt lat="45.8827060" lon="10.2823730">
	<ele>2026.00</ele>
	<time>2025-07-29T08:34:55.000Z</time>
</trkpt>
<trkpt lat="45.8826990" lon="10.2823710">
	<ele>2026.20</ele>
	<time>2025-07-29T08:34:56.000Z</time>
</trkpt>
<trkpt lat="45.8826940" lon="10.2823660">
	<ele>2026.40</ele>
	<time>2025-07-29T08:34:57.000Z</time>
</trkpt>
<trkpt lat="45.8826890" lon="10.2823630">
	<ele>2026.40</ele>
	<time>2025-07-29T08:34:58.000Z</time>
</trkpt>
<trkpt lat="45.8826840" lon="10.2823610">
	<ele>2026.60</ele>
	<time>2025-07-29T08:34:59.000Z</time>
</trkpt>
<trkpt lat="45.8826780" lon="10.2823600">
	<ele>2026.80</ele>
	<time>2025-07-29T08:35:00.000Z</time>
</trkpt>
<trkpt lat="45.8826710" lon="10.2823610">
	<ele>2026.80</ele>
	<time>2025-07-29T08:35:01.000Z</time>
</trkpt>
<trkpt lat="45.8826660" lon="10.2823650">
	<ele>2027.00</ele>
	<time>2025-07-29T08:35:02.000Z</time>
</trkpt>
<trkpt lat="45.8826620" lon="10.2823660">
	<ele>2027.00</ele>
	<time>2025-07-29T08:35:03.000Z</time>
</trkpt>
<trkpt lat="45.8826570" lon="10.2823690">
	<ele>2027.20</ele>
	<time>2025-07-29T08:35:04.000Z</time>
</trkpt>
<trkpt lat="45.8826500" lon="10.2823700">
	<ele>2027.20</ele>
	<time>2025-07-29T08:35:05.000Z</time>
</trkpt>
<trkpt lat="45.8826410" lon="10.2823720">
	<ele>2027.40</ele>
	<time>2025-07-29T08:35:06.000Z</time>
</trkpt>
<trkpt lat="45.8826320" lon="10.2823710">
	<ele>2027.60</ele>
	<time>2025-07-29T08:35:07.000Z</time>
</trkpt>
<trkpt lat="45.8826250" lon="10.2823740">
	<ele>2027.80</ele>
	<time>2025-07-29T08:35:08.000Z</time>
</trkpt>
<trkpt lat="45.8826180" lon="10.2823750">
	<ele>2027.80</ele>
	<time>2025-07-29T08:35:09.000Z</time>
</trkpt>
<trkpt lat="45.8826100" lon="10.2823780">
	<ele>2028.00</ele>
	<time>2025-07-29T08:35:10.000Z</time>
</trkpt>
<trkpt lat="45.8826020" lon="10.2823850">
	<ele>2028.00</ele>
	<time>2025-07-29T08:35:11.000Z</time>
</trkpt>
<trkpt lat="45.8825960" lon="10.2823900">
	<ele>2028.20</ele>
	<time>2025-07-29T08:35:12.000Z</time>
</trkpt>
<trkpt lat="45.8825890" lon="10.2823940">
	<ele>2028.40</ele>
	<time>2025-07-29T08:35:13.000Z</time>
</trkpt>
<trkpt lat="45.8825820" lon="10.2823990">
	<ele>2028.60</ele>
	<time>2025-07-29T08:35:14.000Z</time>
</trkpt>
<trkpt lat="45.8825730" lon="10.2824030">
	<ele>2028.80</ele>
	<time>2025-07-29T08:35:15.000Z</time>
</trkpt>
<trkpt lat="45.8825670" lon="10.2824060">
	<ele>2028.80</ele>
	<time>2025-07-29T08:35:16.000Z</time>
</trkpt>
<trkpt lat="45.8825620" lon="10.2824090">
	<ele>2029.20</ele>
	<time>2025-07-29T08:35:17.000Z</time>
</trkpt>
<trkpt lat="45.8825550" lon="10.2824080">
	<ele>2029.20</ele>
	<time>2025-07-29T08:35:18.000Z</time>
</trkpt>
<trkpt lat="45.8825490" lon="10.2824070">
	<ele>2029.40</ele>
	<time>2025-07-29T08:35:19.000Z</time>
</trkpt>
<trkpt lat="45.8825410" lon="10.2824050">
	<ele>2029.60</ele>
	<time>2025-07-29T08:35:20.000Z</time>
</trkpt>
<trkpt lat="45.8825350" lon="10.2824040">
	<ele>2029.60</ele>
	<time>2025-07-29T08:35:21.000Z</time>
</trkpt>
<trkpt lat="45.8825280" lon="10.2824020">
	<ele>2029.80</ele>
	<time>2025-07-29T08:35:22.000Z</time>
</trkpt>
<trkpt lat="45.8825210" lon="10.2824000">
	<ele>2029.80</ele>
	<time>2025-07-29T08:35:23.000Z</time>
</trkpt>
<trkpt lat="45.8825140" lon="10.2823980">
	<ele>2029.80</ele>
	<time>2025-07-29T08:35:24.000Z</time>
</trkpt>
<trkpt lat="45.8825080" lon="10.2823980">
	<ele>2029.80</ele>
	<time>2025-07-29T08:35:25.000Z</time>
</trkpt>
<trkpt lat="45.8825010" lon="10.2823970">
	<ele>2030.00</ele>
	<time>2025-07-29T08:35:26.000Z</time>
</trkpt>
<trkpt lat="45.8824950" lon="10.2823960">
	<ele>2030.20</ele>
	<time>2025-07-29T08:35:27.000Z</time>
</trkpt>
<trkpt lat="45.8824880" lon="10.2823960">
	<ele>2030.40</ele>
	<time>2025-07-29T08:35:28.000Z</time>
</trkpt>
<trkpt lat="45.8824810" lon="10.2823960">
	<ele>2030.40</ele>
	<time>2025-07-29T08:35:29.000Z</time>
</trkpt>
<trkpt lat="45.8824740" lon="10.2823970">
	<ele>2030.60</ele>
	<time>2025-07-29T08:35:30.000Z</time>
</trkpt>
<trkpt lat="45.8824660" lon="10.2823980">
	<ele>2030.60</ele>
	<time>2025-07-29T08:35:31.000Z</time>
</trkpt>
<trkpt lat="45.8824580" lon="10.2823990">
	<ele>2030.60</ele>
	<time>2025-07-29T08:35:32.000Z</time>
</trkpt>
<trkpt lat="45.8824510" lon="10.2823990">
	<ele>2030.80</ele>
	<time>2025-07-29T08:35:33.000Z</time>
</trkpt>
<trkpt lat="45.8824430" lon="10.2823960">
	<ele>2031.00</ele>
	<time>2025-07-29T08:35:34.000Z</time>
</trkpt>
<trkpt lat="45.8824340" lon="10.2823930">
	<ele>2031.20</ele>
	<time>2025-07-29T08:35:35.000Z</time>
</trkpt>
<trkpt lat="45.8824270" lon="10.2823920">
	<ele>2031.40</ele>
	<time>2025-07-29T08:35:36.000Z</time>
</trkpt>
<trkpt lat="45.8824180" lon="10.2823920">
	<ele>2031.60</ele>
	<time>2025-07-29T08:35:37.000Z</time>
</trkpt>
<trkpt lat="45.8824090" lon="10.2823890">
	<ele>2031.80</ele>
	<time>2025-07-29T08:35:38.000Z</time>
</trkpt>
<trkpt lat="45.8824000" lon="10.2823890">
	<ele>2031.80</ele>
	<time>2025-07-29T08:35:39.000Z</time>
</trkpt>
<trkpt lat="45.8823910" lon="10.2823930">
	<ele>2032.00</ele>
	<time>2025-07-29T08:35:40.000Z</time>
</trkpt>
<trkpt lat="45.8823850" lon="10.2823960">
	<ele>2032.20</ele>
	<time>2025-07-29T08:35:41.000Z</time>
</trkpt>
<trkpt lat="45.8823790" lon="10.2823970">
	<ele>2032.40</ele>
	<time>2025-07-29T08:35:42.000Z</time>
</trkpt>
<trkpt lat="45.8823710" lon="10.2823990">
	<ele>2032.60</ele>
	<time>2025-07-29T08:35:43.000Z</time>
</trkpt>
<trkpt lat="45.8823620" lon="10.2824050">
	<ele>2032.80</ele>
	<time>2025-07-29T08:35:44.000Z</time>
</trkpt>
<trkpt lat="45.8823560" lon="10.2824110">
	<ele>2033.00</ele>
	<time>2025-07-29T08:35:45.000Z</time>
</trkpt>
<trkpt lat="45.8823500" lon="10.2824190">
	<ele>2033.00</ele>
	<time>2025-07-29T08:35:46.000Z</time>
</trkpt>
<trkpt lat="45.8823450" lon="10.2824260">
	<ele>2033.20</ele>
	<time>2025-07-29T08:35:47.000Z</time>
</trkpt>
<trkpt lat="45.8823420" lon="10.2824310">
	<ele>2033.40</ele>
	<time>2025-07-29T08:35:48.000Z</time>
</trkpt>
<trkpt lat="45.8823390" lon="10.2824380">
	<ele>2033.40</ele>
	<time>2025-07-29T08:35:49.000Z</time>
</trkpt>
<trkpt lat="45.8823320" lon="10.2824430">
	<ele>2033.60</ele>
	<time>2025-07-29T08:35:50.000Z</time>
</trkpt>
<trkpt lat="45.8823260" lon="10.2824440">
	<ele>2033.80</ele>
	<time>2025-07-29T08:35:51.000Z</time>
</trkpt>
<trkpt lat="45.8823190" lon="10.2824410">
	<ele>2034.00</ele>
	<time>2025-07-29T08:35:52.000Z</time>
</trkpt>
<trkpt lat="45.8823110" lon="10.2824400">
	<ele>2034.00</ele>
	<time>2025-07-29T08:35:53.000Z</time>
</trkpt>
<trkpt lat="45.8823020" lon="10.2824420">
	<ele>2034.20</ele>
	<time>2025-07-29T08:35:54.000Z</time>
</trkpt>
<trkpt lat="45.8822920" lon="10.2824420">
	<ele>2034.20</ele>
	<time>2025-07-29T08:35:55.000Z</time>
</trkpt>
<trkpt lat="45.8822840" lon="10.2824440">
	<ele>2034.40</ele>
	<time>2025-07-29T08:35:56.000Z</time>
</trkpt>
<trkpt lat="45.8822780" lon="10.2824440">
	<ele>2034.60</ele>
	<time>2025-07-29T08:35:57.000Z</time>
</trkpt>
<trkpt lat="45.8822710" lon="10.2824430">
	<ele>2034.60</ele>
	<time>2025-07-29T08:35:58.000Z</time>
</trkpt>
<trkpt lat="45.8822640" lon="10.2824410">
	<ele>2034.80</ele>
	<time>2025-07-29T08:35:59.000Z</time>
</trkpt>
<trkpt lat="45.8822580" lon="10.2824390">
	<ele>2034.80</ele>
	<time>2025-07-29T08:36:00.000Z</time>
</trkpt>
<trkpt lat="45.8822490" lon="10.2824390">
	<ele>2035.00</ele>
	<time>2025-07-29T08:36:01.000Z</time>
</trkpt>
<trkpt lat="45.8822410" lon="10.2824400">
	<ele>2035.00</ele>
	<time>2025-07-29T08:36:02.000Z</time>
</trkpt>
<trkpt lat="45.8822320" lon="10.2824370">
	<ele>2035.00</ele>
	<time>2025-07-29T08:36:03.000Z</time>
</trkpt>
<trkpt lat="45.8822240" lon="10.2824380">
	<ele>2035.00</ele>
	<time>2025-07-29T08:36:04.000Z</time>
</trkpt>
<trkpt lat="45.8822180" lon="10.2824380">
	<ele>2035.00</ele>
	<time>2025-07-29T08:36:05.000Z</time>
</trkpt>
<trkpt lat="45.8822130" lon="10.2824370">
	<ele>2035.20</ele>
	<time>2025-07-29T08:36:06.000Z</time>
</trkpt>
<trkpt lat="45.8822060" lon="10.2824360">
	<ele>2035.40</ele>
	<time>2025-07-29T08:36:07.000Z</time>
</trkpt>
<trkpt lat="45.8821940" lon="10.2824350">
	<ele>2035.60</ele>
	<time>2025-07-29T08:36:08.000Z</time>
</trkpt>
<trkpt lat="45.8821840" lon="10.2824350">
	<ele>2035.60</ele>
	<time>2025-07-29T08:36:09.000Z</time>
</trkpt>
<trkpt lat="45.8821750" lon="10.2824410">
	<ele>2035.80</ele>
	<time>2025-07-29T08:36:10.000Z</time>
</trkpt>
<trkpt lat="45.8821690" lon="10.2824490">
	<ele>2035.80</ele>
	<time>2025-07-29T08:36:11.000Z</time>
</trkpt>
<trkpt lat="45.8821650" lon="10.2824600">
	<ele>2036.00</ele>
	<time>2025-07-29T08:36:12.000Z</time>
</trkpt>
<trkpt lat="45.8821610" lon="10.2824680">
	<ele>2036.00</ele>
	<time>2025-07-29T08:36:13.000Z</time>
</trkpt>
<trkpt lat="45.8821560" lon="10.2824790">
	<ele>2036.20</ele>
	<time>2025-07-29T08:36:14.000Z</time>
</trkpt>
<trkpt lat="45.8821500" lon="10.2824860">
	<ele>2036.40</ele>
	<time>2025-07-29T08:36:15.000Z</time>
</trkpt>
<trkpt lat="45.8821420" lon="10.2824910">
	<ele>2036.40</ele>
	<time>2025-07-29T08:36:16.000Z</time>
</trkpt>
<trkpt lat="45.8821320" lon="10.2824960">
	<ele>2036.80</ele>
	<time>2025-07-29T08:36:17.000Z</time>
</trkpt>
<trkpt lat="45.8821250" lon="10.2825050">
	<ele>2036.80</ele>
	<time>2025-07-29T08:36:18.000Z</time>
</trkpt>
<trkpt lat="45.8821180" lon="10.2825100">
	<ele>2037.00</ele>
	<time>2025-07-29T08:36:19.000Z</time>
</trkpt>
<trkpt lat="45.8821100" lon="10.2825150">
	<ele>2037.00</ele>
	<time>2025-07-29T08:36:20.000Z</time>
</trkpt>
<trkpt lat="45.8821030" lon="10.2825220">
	<ele>2037.20</ele>
	<time>2025-07-29T08:36:21.000Z</time>
</trkpt>
<trkpt lat="45.8820970" lon="10.2825260">
	<ele>2037.40</ele>
	<time>2025-07-29T08:36:22.000Z</time>
</trkpt>
<trkpt lat="45.8820930" lon="10.2825290">
	<ele>2038.00</ele>
	<time>2025-07-29T08:36:23.000Z</time>
</trkpt>
<trkpt lat="45.8820920" lon="10.2825310">
	<ele>2038.20</ele>
	<time>2025-07-29T08:36:24.000Z</time>
</trkpt>
<trkpt lat="45.8820890" lon="10.2825330">
	<ele>2038.20</ele>
	<time>2025-07-29T08:36:25.000Z</time>
</trkpt>
<trkpt lat="45.8820840" lon="10.2825370">
	<ele>2038.40</ele>
	<time>2025-07-29T08:36:26.000Z</time>
</trkpt>
<trkpt lat="45.8820800" lon="10.2825430">
	<ele>2038.40</ele>
	<time>2025-07-29T08:36:27.000Z</time>
</trkpt>
<trkpt lat="45.8820740" lon="10.2825510">
	<ele>2038.20</ele>
	<time>2025-07-29T08:36:28.000Z</time>
</trkpt>
<trkpt lat="45.8820690" lon="10.2825570">
	<ele>2038.20</ele>
	<time>2025-07-29T08:36:29.000Z</time>
</trkpt>
<trkpt lat="45.8820640" lon="10.2825650">
	<ele>2038.20</ele>
	<time>2025-07-29T08:36:30.000Z</time>
</trkpt>
<trkpt lat="45.8820560" lon="10.2825710">
	<ele>2038.20</ele>
	<time>2025-07-29T08:36:31.000Z</time>
</trkpt>
<trkpt lat="45.8820470" lon="10.2825760">
	<ele>2038.20</ele>
	<time>2025-07-29T08:36:32.000Z</time>
</trkpt>
<trkpt lat="45.8820390" lon="10.2825780">
	<ele>2038.20</ele>
	<time>2025-07-29T08:36:33.000Z</time>
</trkpt>
<trkpt lat="45.8820330" lon="10.2825840">
	<ele>2038.40</ele>
	<time>2025-07-29T08:36:34.000Z</time>
</trkpt>
<trkpt lat="45.8820280" lon="10.2825900">
	<ele>2038.40</ele>
	<time>2025-07-29T08:36:35.000Z</time>
</trkpt>
<trkpt lat="45.8820220" lon="10.2825960">
	<ele>2038.60</ele>
	<time>2025-07-29T08:36:36.000Z</time>
</trkpt>
<trkpt lat="45.8820140" lon="10.2825980">
	<ele>2038.80</ele>
	<time>2025-07-29T08:36:37.000Z</time>
</trkpt>
<trkpt lat="45.8820050" lon="10.2826000">
	<ele>2038.80</ele>
	<time>2025-07-29T08:36:38.000Z</time>
</trkpt>
<trkpt lat="45.8819960" lon="10.2826000">
	<ele>2039.00</ele>
	<time>2025-07-29T08:36:39.000Z</time>
</trkpt>
<trkpt lat="45.8819880" lon="10.2826020">
	<ele>2039.20</ele>
	<time>2025-07-29T08:36:40.000Z</time>
</trkpt>
<trkpt lat="45.8819800" lon="10.2826040">
	<ele>2039.40</ele>
	<time>2025-07-29T08:36:41.000Z</time>
</trkpt>
<trkpt lat="45.8819750" lon="10.2826050">
	<ele>2039.40</ele>
	<time>2025-07-29T08:36:42.000Z</time>
</trkpt>
<trkpt lat="45.8819710" lon="10.2826080">
	<ele>2039.40</ele>
	<time>2025-07-29T08:36:43.000Z</time>
</trkpt>
<trkpt lat="45.8819640" lon="10.2826080">
	<ele>2039.60</ele>
	<time>2025-07-29T08:36:44.000Z</time>
</trkpt>
<trkpt lat="45.8819540" lon="10.2826050">
	<ele>2039.60</ele>
	<time>2025-07-29T08:36:45.000Z</time>
</trkpt>
<trkpt lat="45.8819450" lon="10.2826060">
	<ele>2039.80</ele>
	<time>2025-07-29T08:36:46.000Z</time>
</trkpt>
<trkpt lat="45.8819370" lon="10.2826060">
	<ele>2039.80</ele>
	<time>2025-07-29T08:36:47.000Z</time>
</trkpt>
<trkpt lat="45.8819300" lon="10.2826030">
	<ele>2040.00</ele>
	<time>2025-07-29T08:36:48.000Z</time>
</trkpt>
<trkpt lat="45.8819230" lon="10.2825990">
	<ele>2040.00</ele>
	<time>2025-07-29T08:36:49.000Z</time>
</trkpt>
<trkpt lat="45.8819170" lon="10.2826020">
	<ele>2040.00</ele>
	<time>2025-07-29T08:36:50.000Z</time>
</trkpt>
<trkpt lat="45.8819110" lon="10.2826050">
	<ele>2040.00</ele>
	<time>2025-07-29T08:36:51.000Z</time>
</trkpt>
<trkpt lat="45.8819050" lon="10.2826070">
	<ele>2040.20</ele>
	<time>2025-07-29T08:36:52.000Z</time>
</trkpt>
<trkpt lat="45.8818990" lon="10.2826090">
	<ele>2040.40</ele>
	<time>2025-07-29T08:36:53.000Z</time>
</trkpt>
<trkpt lat="45.8818920" lon="10.2826150">
	<ele>2040.60</ele>
	<time>2025-07-29T08:36:54.000Z</time>
</trkpt>
<trkpt lat="45.8818820" lon="10.2826090">
	<ele>2040.60</ele>
	<time>2025-07-29T08:36:55.000Z</time>
</trkpt>
<trkpt lat="45.8818800" lon="10.2826170">
	<ele>2040.80</ele>
	<time>2025-07-29T08:36:56.000Z</time>
</trkpt>
<trkpt lat="45.8818750" lon="10.2826190">
	<ele>2041.00</ele>
	<time>2025-07-29T08:36:57.000Z</time>
</trkpt>
<trkpt lat="45.8818670" lon="10.2826210">
	<ele>2041.00</ele>
	<time>2025-07-29T08:36:58.000Z</time>
</trkpt>
<trkpt lat="45.8818590" lon="10.2826180">
	<ele>2041.20</ele>
	<time>2025-07-29T08:36:59.000Z</time>
</trkpt>
<trkpt lat="45.8818500" lon="10.2826190">
	<ele>2041.20</ele>
	<time>2025-07-29T08:37:00.000Z</time>
</trkpt>
<trkpt lat="45.8818420" lon="10.2826190">
	<ele>2041.40</ele>
	<time>2025-07-29T08:37:01.000Z</time>
</trkpt>
<trkpt lat="45.8818340" lon="10.2826200">
	<ele>2041.60</ele>
	<time>2025-07-29T08:37:02.000Z</time>
</trkpt>
<trkpt lat="45.8818260" lon="10.2826230">
	<ele>2042.00</ele>
	<time>2025-07-29T08:37:03.000Z</time>
</trkpt>
<trkpt lat="45.8818180" lon="10.2826230">
	<ele>2042.00</ele>
	<time>2025-07-29T08:37:04.000Z</time>
</trkpt>
<trkpt lat="45.8818090" lon="10.2826240">
	<ele>2042.20</ele>
	<time>2025-07-29T08:37:05.000Z</time>
</trkpt>
<trkpt lat="45.8818010" lon="10.2826240">
	<ele>2042.40</ele>
	<time>2025-07-29T08:37:06.000Z</time>
</trkpt>
<trkpt lat="45.8817930" lon="10.2826200">
	<ele>2042.60</ele>
	<time>2025-07-29T08:37:07.000Z</time>
</trkpt>
<trkpt lat="45.8817840" lon="10.2826160">
	<ele>2043.00</ele>
	<time>2025-07-29T08:37:08.000Z</time>
</trkpt>
<trkpt lat="45.8817740" lon="10.2826110">
	<ele>2043.20</ele>
	<time>2025-07-29T08:37:09.000Z</time>
</trkpt>
<trkpt lat="45.8817650" lon="10.2826070">
	<ele>2043.20</ele>
	<time>2025-07-29T08:37:10.000Z</time>
</trkpt>
<trkpt lat="45.8817560" lon="10.2826050">
	<ele>2043.40</ele>
	<time>2025-07-29T08:37:11.000Z</time>
</trkpt>
<trkpt lat="45.8817500" lon="10.2826030">
	<ele>2043.40</ele>
	<time>2025-07-29T08:37:12.000Z</time>
</trkpt>
<trkpt lat="45.8817440" lon="10.2826040">
	<ele>2043.40</ele>
	<time>2025-07-29T08:37:13.000Z</time>
</trkpt>
<trkpt lat="45.8817370" lon="10.2826030">
	<ele>2043.40</ele>
	<time>2025-07-29T08:37:14.000Z</time>
</trkpt>
<trkpt lat="45.8817280" lon="10.2826020">
	<ele>2043.60</ele>
	<time>2025-07-29T08:37:15.000Z</time>
</trkpt>
<trkpt lat="45.8817180" lon="10.2826030">
	<ele>2043.80</ele>
	<time>2025-07-29T08:37:16.000Z</time>
</trkpt>
<trkpt lat="45.8817090" lon="10.2826030">
	<ele>2044.00</ele>
	<time>2025-07-29T08:37:17.000Z</time>
</trkpt>
<trkpt lat="45.8817010" lon="10.2826070">
	<ele>2044.00</ele>
	<time>2025-07-29T08:37:18.000Z</time>
</trkpt>
<trkpt lat="45.8816930" lon="10.2826070">
	<ele>2044.20</ele>
	<time>2025-07-29T08:37:19.000Z</time>
</trkpt>
<trkpt lat="45.8816830" lon="10.2826040">
	<ele>2044.20</ele>
	<time>2025-07-29T08:37:20.000Z</time>
</trkpt>
<trkpt lat="45.8816730" lon="10.2826040">
	<ele>2044.40</ele>
	<time>2025-07-29T08:37:21.000Z</time>
</trkpt>
<trkpt lat="45.8816620" lon="10.2826060">
	<ele>2044.40</ele>
	<time>2025-07-29T08:37:22.000Z</time>
</trkpt>
<trkpt lat="45.8816510" lon="10.2826080">
	<ele>2044.60</ele>
	<time>2025-07-29T08:37:23.000Z</time>
</trkpt>
<trkpt lat="45.8816440" lon="10.2826110">
	<ele>2044.80</ele>
	<time>2025-07-29T08:37:24.000Z</time>
</trkpt>
<trkpt lat="45.8816360" lon="10.2826160">
	<ele>2045.00</ele>
	<time>2025-07-29T08:37:25.000Z</time>
</trkpt>
<trkpt lat="45.8816260" lon="10.2826200">
	<ele>2045.20</ele>
	<time>2025-07-29T08:37:26.000Z</time>
</trkpt>
<trkpt lat="45.8816170" lon="10.2826260">
	<ele>2045.40</ele>
	<time>2025-07-29T08:37:27.000Z</time>
</trkpt>
<trkpt lat="45.8816100" lon="10.2826320">
	<ele>2045.60</ele>
	<time>2025-07-29T08:37:28.000Z</time>
</trkpt>
<trkpt lat="45.8816060" lon="10.2826390">
	<ele>2045.60</ele>
	<time>2025-07-29T08:37:29.000Z</time>
</trkpt>
<trkpt lat="45.8816020" lon="10.2826430">
	<ele>2045.80</ele>
	<time>2025-07-29T08:37:30.000Z</time>
</trkpt>
<trkpt lat="45.8815960" lon="10.2826500">
	<ele>2045.80</ele>
	<time>2025-07-29T08:37:31.000Z</time>
</trkpt>
<trkpt lat="45.8815880" lon="10.2826560">
	<ele>2045.80</ele>
	<time>2025-07-29T08:37:32.000Z</time>
</trkpt>
<trkpt lat="45.8815790" lon="10.2826590">
	<ele>2045.80</ele>
	<time>2025-07-29T08:37:33.000Z</time>
</trkpt>
<trkpt lat="45.8815700" lon="10.2826600">
	<ele>2046.00</ele>
	<time>2025-07-29T08:37:34.000Z</time>
</trkpt>
<trkpt lat="45.8815580" lon="10.2826600">
	<ele>2046.20</ele>
	<time>2025-07-29T08:37:35.000Z</time>
</trkpt>
<trkpt lat="45.8815470" lon="10.2826630">
	<ele>2046.20</ele>
	<time>2025-07-29T08:37:36.000Z</time>
</trkpt>
<trkpt lat="45.8815380" lon="10.2826670">
	<ele>2046.40</ele>
	<time>2025-07-29T08:37:37.000Z</time>
</trkpt>
<trkpt lat="45.8815290" lon="10.2826710">
	<ele>2046.40</ele>
	<time>2025-07-29T08:37:38.000Z</time>
</trkpt>
<trkpt lat="45.8815200" lon="10.2826750">
	<ele>2046.60</ele>
	<time>2025-07-29T08:37:39.000Z</time>
</trkpt>
<trkpt lat="45.8815110" lon="10.2826770">
	<ele>2046.60</ele>
	<time>2025-07-29T08:37:40.000Z</time>
</trkpt>
<trkpt lat="45.8815030" lon="10.2826790">
	<ele>2046.60</ele>
	<time>2025-07-29T08:37:41.000Z</time>
</trkpt>
<trkpt lat="45.8814930" lon="10.2826840">
	<ele>2046.80</ele>
	<time>2025-07-29T08:37:42.000Z</time>
</trkpt>
<trkpt lat="45.8814820" lon="10.2826860">
	<ele>2046.80</ele>
	<time>2025-07-29T08:37:43.000Z</time>
</trkpt>
<trkpt lat="45.8814710" lon="10.2826870">
	<ele>2047.00</ele>
	<time>2025-07-29T08:37:44.000Z</time>
</trkpt>
<trkpt lat="45.8814610" lon="10.2826870">
	<ele>2047.20</ele>
	<time>2025-07-29T08:37:45.000Z</time>
</trkpt>
<trkpt lat="45.8814510" lon="10.2826900">
	<ele>2047.20</ele>
	<time>2025-07-29T08:37:46.000Z</time>
</trkpt>
<trkpt lat="45.8814440" lon="10.2826960">
	<ele>2047.40</ele>
	<time>2025-07-29T08:37:47.000Z</time>
</trkpt>
<trkpt lat="45.8814360" lon="10.2827000">
	<ele>2047.60</ele>
	<time>2025-07-29T08:37:48.000Z</time>
</trkpt>
<trkpt lat="45.8814270" lon="10.2827040">
	<ele>2047.80</ele>
	<time>2025-07-29T08:37:49.000Z</time>
</trkpt>
<trkpt lat="45.8814180" lon="10.2827090">
	<ele>2047.80</ele>
	<time>2025-07-29T08:37:50.000Z</time>
</trkpt>
<trkpt lat="45.8814080" lon="10.2827110">
	<ele>2048.00</ele>
	<time>2025-07-29T08:37:51.000Z</time>
</trkpt>
<trkpt lat="45.8814000" lon="10.2827100">
	<ele>2048.00</ele>
	<time>2025-07-29T08:37:52.000Z</time>
</trkpt>
<trkpt lat="45.8813910" lon="10.2827120">
	<ele>2048.20</ele>
	<time>2025-07-29T08:37:53.000Z</time>
</trkpt>
<trkpt lat="45.8813810" lon="10.2827150">
	<ele>2048.20</ele>
	<time>2025-07-29T08:37:54.000Z</time>
</trkpt>
<trkpt lat="45.8813730" lon="10.2827150">
	<ele>2048.40</ele>
	<time>2025-07-29T08:37:55.000Z</time>
</trkpt>
<trkpt lat="45.8813630" lon="10.2827190">
	<ele>2048.60</ele>
	<time>2025-07-29T08:37:56.000Z</time>
</trkpt>
<trkpt lat="45.8813540" lon="10.2827220">
	<ele>2048.60</ele>
	<time>2025-07-29T08:37:57.000Z</time>
</trkpt>
<trkpt lat="45.8813450" lon="10.2827240">
	<ele>2048.80</ele>
	<time>2025-07-29T08:37:58.000Z</time>
</trkpt>
<trkpt lat="45.8813380" lon="10.2827300">
	<ele>2048.80</ele>
	<time>2025-07-29T08:37:59.000Z</time>
</trkpt>
<trkpt lat="45.8813300" lon="10.2827350">
	<ele>2049.00</ele>
	<time>2025-07-29T08:38:00.000Z</time>
</trkpt>
<trkpt lat="45.8813220" lon="10.2827400">
	<ele>2049.20</ele>
	<time>2025-07-29T08:38:01.000Z</time>
</trkpt>
<trkpt lat="45.8813140" lon="10.2827430">
	<ele>2049.20</ele>
	<time>2025-07-29T08:38:02.000Z</time>
</trkpt>
<trkpt lat="45.8813040" lon="10.2827450">
	<ele>2049.40</ele>
	<time>2025-07-29T08:38:03.000Z</time>
</trkpt>
<trkpt lat="45.8812940" lon="10.2827460">
	<ele>2049.40</ele>
	<time>2025-07-29T08:38:04.000Z</time>
</trkpt>
<trkpt lat="45.8812820" lon="10.2827480">
	<ele>2049.40</ele>
	<time>2025-07-29T08:38:05.000Z</time>
</trkpt>
<trkpt lat="45.8812720" lon="10.2827510">
	<ele>2049.40</ele>
	<time>2025-07-29T08:38:06.000Z</time>
</trkpt>
<trkpt lat="45.8812610" lon="10.2827530">
	<ele>2049.60</ele>
	<time>2025-07-29T08:38:07.000Z</time>
</trkpt>
<trkpt lat="45.8812530" lon="10.2827540">
	<ele>2049.60</ele>
	<time>2025-07-29T08:38:08.000Z</time>
</trkpt>
<trkpt lat="45.8812420" lon="10.2827560">
	<ele>2049.60</ele>
	<time>2025-07-29T08:38:09.000Z</time>
</trkpt>
<trkpt lat="45.8812270" lon="10.2827550">
	<ele>2049.60</ele>
	<time>2025-07-29T08:38:10.000Z</time>
</trkpt>
<trkpt lat="45.8812150" lon="10.2827600">
	<ele>2049.80</ele>
	<time>2025-07-29T08:38:11.000Z</time>
</trkpt>
<trkpt lat="45.8812070" lon="10.2827640">
	<ele>2049.80</ele>
	<time>2025-07-29T08:38:12.000Z</time>
</trkpt>
<trkpt lat="45.8811960" lon="10.2827680">
	<ele>2049.80</ele>
	<time>2025-07-29T08:38:13.000Z</time>
</trkpt>
<trkpt lat="45.8811850" lon="10.2827700">
	<ele>2050.00</ele>
	<time>2025-07-29T08:38:14.000Z</time>
</trkpt>
<trkpt lat="45.8811770" lon="10.2827760">
	<ele>2050.00</ele>
	<time>2025-07-29T08:38:15.000Z</time>
</trkpt>
<trkpt lat="45.8811700" lon="10.2827800">
	<ele>2050.00</ele>
	<time>2025-07-29T08:38:16.000Z</time>
</trkpt>
<trkpt lat="45.8811620" lon="10.2827840">
	<ele>2050.20</ele>
	<time>2025-07-29T08:38:17.000Z</time>
</trkpt>
<trkpt lat="45.8811530" lon="10.2827920">
	<ele>2050.20</ele>
	<time>2025-07-29T08:38:18.000Z</time>
</trkpt>
<trkpt lat="45.8811470" lon="10.2828020">
	<ele>2050.20</ele>
	<time>2025-07-29T08:38:19.000Z</time>
</trkpt>
<trkpt lat="45.8811410" lon="10.2828100">
	<ele>2050.40</ele>
	<time>2025-07-29T08:38:20.000Z</time>
</trkpt>
<trkpt lat="45.8811350" lon="10.2828170">
	<ele>2050.60</ele>
	<time>2025-07-29T08:38:21.000Z</time>
</trkpt>
<trkpt lat="45.8811280" lon="10.2828230">
	<ele>2050.80</ele>
	<time>2025-07-29T08:38:22.000Z</time>
</trkpt>
<trkpt lat="45.8811210" lon="10.2828230">
	<ele>2050.80</ele>
	<time>2025-07-29T08:38:23.000Z</time>
</trkpt>
<trkpt lat="45.8811110" lon="10.2828240">
	<ele>2051.00</ele>
	<time>2025-07-29T08:38:24.000Z</time>
</trkpt>
<trkpt lat="45.8811020" lon="10.2828220">
	<ele>2051.00</ele>
	<time>2025-07-29T08:38:25.000Z</time>
</trkpt>
<trkpt lat="45.8810920" lon="10.2828230">
	<ele>2051.20</ele>
	<time>2025-07-29T08:38:26.000Z</time>
</trkpt>
<trkpt lat="45.8810820" lon="10.2828260">
	<ele>2051.20</ele>
	<time>2025-07-29T08:38:27.000Z</time>
</trkpt>
<trkpt lat="45.8810740" lon="10.2828290">
	<ele>2051.20</ele>
	<time>2025-07-29T08:38:28.000Z</time>
</trkpt>
<trkpt lat="45.8810660" lon="10.2828360">
	<ele>2051.20</ele>
	<time>2025-07-29T08:38:29.000Z</time>
</trkpt>
<trkpt lat="45.8810590" lon="10.2828420">
	<ele>2051.20</ele>
	<time>2025-07-29T08:38:30.000Z</time>
</trkpt>
<trkpt lat="45.8810510" lon="10.2828440">
	<ele>2051.60</ele>
	<time>2025-07-29T08:38:31.000Z</time>
</trkpt>
<trkpt lat="45.8810440" lon="10.2828480">
	<ele>2051.80</ele>
	<time>2025-07-29T08:38:32.000Z</time>
</trkpt>
<trkpt lat="45.8810350" lon="10.2828500">
	<ele>2051.80</ele>
	<time>2025-07-29T08:38:33.000Z</time>
</trkpt>
<trkpt lat="45.8810280" lon="10.2828550">
	<ele>2051.80</ele>
	<time>2025-07-29T08:38:34.000Z</time>
</trkpt>
<trkpt lat="45.8810210" lon="10.2828630">
	<ele>2052.00</ele>
	<time>2025-07-29T08:38:35.000Z</time>
</trkpt>
<trkpt lat="45.8810160" lon="10.2828700">
	<ele>2052.00</ele>
	<time>2025-07-29T08:38:36.000Z</time>
</trkpt>
<trkpt lat="45.8810080" lon="10.2828790">
	<ele>2052.00</ele>
	<time>2025-07-29T08:38:37.000Z</time>
</trkpt>
<trkpt lat="45.8810000" lon="10.2828830">
	<ele>2052.00</ele>
	<time>2025-07-29T08:38:38.000Z</time>
</trkpt>
<trkpt lat="45.8809870" lon="10.2828820">
	<ele>2052.20</ele>
	<time>2025-07-29T08:38:39.000Z</time>
</trkpt>
<trkpt lat="45.8809770" lon="10.2828820">
	<ele>2052.40</ele>
	<time>2025-07-29T08:38:40.000Z</time>
</trkpt>
<trkpt lat="45.8809690" lon="10.2828830">
	<ele>2052.60</ele>
	<time>2025-07-29T08:38:41.000Z</time>
</trkpt>
<trkpt lat="45.8809620" lon="10.2828860">
	<ele>2052.80</ele>
	<time>2025-07-29T08:38:42.000Z</time>
</trkpt>
<trkpt lat="45.8809530" lon="10.2828870">
	<ele>2052.80</ele>
	<time>2025-07-29T08:38:43.000Z</time>
</trkpt>
<trkpt lat="45.8809460" lon="10.2828940">
	<ele>2052.80</ele>
	<time>2025-07-29T08:38:44.000Z</time>
</trkpt>
<trkpt lat="45.8809380" lon="10.2828990">
	<ele>2053.00</ele>
	<time>2025-07-29T08:38:45.000Z</time>
</trkpt>
<trkpt lat="45.8809280" lon="10.2829020">
	<ele>2053.00</ele>
	<time>2025-07-29T08:38:46.000Z</time>
</trkpt>
<trkpt lat="45.8809220" lon="10.2829080">
	<ele>2053.20</ele>
	<time>2025-07-29T08:38:47.000Z</time>
</trkpt>
<trkpt lat="45.8809150" lon="10.2829120">
	<ele>2053.20</ele>
	<time>2025-07-29T08:38:48.000Z</time>
</trkpt>
<trkpt lat="45.8809050" lon="10.2829140">
	<ele>2053.40</ele>
	<time>2025-07-29T08:38:49.000Z</time>
</trkpt>
<trkpt lat="45.8808970" lon="10.2829180">
	<ele>2053.60</ele>
	<time>2025-07-29T08:38:50.000Z</time>
</trkpt>
<trkpt lat="45.8808880" lon="10.2829230">
	<ele>2053.80</ele>
	<time>2025-07-29T08:38:51.000Z</time>
</trkpt>
<trkpt lat="45.8808800" lon="10.2829280">
	<ele>2054.00</ele>
	<time>2025-07-29T08:38:52.000Z</time>
</trkpt>
<trkpt lat="45.8808720" lon="10.2829320">
	<ele>2054.00</ele>
	<time>2025-07-29T08:38:53.000Z</time>
</trkpt>
<trkpt lat="45.8808650" lon="10.2829380">
	<ele>2054.20</ele>
	<time>2025-07-29T08:38:54.000Z</time>
</trkpt>
<trkpt lat="45.8808560" lon="10.2829430">
	<ele>2054.40</ele>
	<time>2025-07-29T08:38:55.000Z</time>
</trkpt>
<trkpt lat="45.8808500" lon="10.2829530">
	<ele>2054.60</ele>
	<time>2025-07-29T08:38:56.000Z</time>
</trkpt>
<trkpt lat="45.8808430" lon="10.2829590">
	<ele>2054.80</ele>
	<time>2025-07-29T08:38:57.000Z</time>
</trkpt>
<trkpt lat="45.8808370" lon="10.2829650">
	<ele>2054.80</ele>
	<time>2025-07-29T08:38:58.000Z</time>
</trkpt>
<trkpt lat="45.8808280" lon="10.2829690">
	<ele>2055.00</ele>
	<time>2025-07-29T08:38:59.000Z</time>
</trkpt>
<trkpt lat="45.8808190" lon="10.2829720">
	<ele>2055.20</ele>
	<time>2025-07-29T08:39:00.000Z</time>
</trkpt>
<trkpt lat="45.8808110" lon="10.2829770">
	<ele>2055.20</ele>
	<time>2025-07-29T08:39:01.000Z</time>
</trkpt>
<trkpt lat="45.8808010" lon="10.2829800">
	<ele>2055.20</ele>
	<time>2025-07-29T08:39:02.000Z</time>
</trkpt>
<trkpt lat="45.8807930" lon="10.2829850">
	<ele>2055.40</ele>
	<time>2025-07-29T08:39:03.000Z</time>
</trkpt>
<trkpt lat="45.8807850" lon="10.2829900">
	<ele>2055.60</ele>
	<time>2025-07-29T08:39:04.000Z</time>
</trkpt>
<trkpt lat="45.8807770" lon="10.2829980">
	<ele>2055.60</ele>
	<time>2025-07-29T08:39:05.000Z</time>
</trkpt>
<trkpt lat="45.8807680" lon="10.2830070">
	<ele>2055.80</ele>
	<time>2025-07-29T08:39:06.000Z</time>
</trkpt>
<trkpt lat="45.8807620" lon="10.2830130">
	<ele>2055.80</ele>
	<time>2025-07-29T08:39:07.000Z</time>
</trkpt>
<trkpt lat="45.8807550" lon="10.2830200">
	<ele>2056.00</ele>
	<time>2025-07-29T08:39:08.000Z</time>
</trkpt>
<trkpt lat="45.8807480" lon="10.2830260">
	<ele>2056.00</ele>
	<time>2025-07-29T08:39:09.000Z</time>
</trkpt>
<trkpt lat="45.8807410" lon="10.2830350">
	<ele>2056.20</ele>
	<time>2025-07-29T08:39:10.000Z</time>
</trkpt>
<trkpt lat="45.8807340" lon="10.2830430">
	<ele>2056.40</ele>
	<time>2025-07-29T08:39:11.000Z</time>
</trkpt>
<trkpt lat="45.8807280" lon="10.2830510">
	<ele>2056.40</ele>
	<time>2025-07-29T08:39:12.000Z</time>
</trkpt>
<trkpt lat="45.8807210" lon="10.2830580">
	<ele>2056.60</ele>
	<time>2025-07-29T08:39:13.000Z</time>
</trkpt>
<trkpt lat="45.8807140" lon="10.2830690">
	<ele>2056.60</ele>
	<time>2025-07-29T08:39:14.000Z</time>
</trkpt>
<trkpt lat="45.8807080" lon="10.2830790">
	<ele>2057.00</ele>
	<time>2025-07-29T08:39:15.000Z</time>
</trkpt>
<trkpt lat="45.8807010" lon="10.2830860">
	<ele>2057.20</ele>
	<time>2025-07-29T08:39:16.000Z</time>
</trkpt>
<trkpt lat="45.8806930" lon="10.2830930">
	<ele>2057.40</ele>
	<time>2025-07-29T08:39:17.000Z</time>
</trkpt>
<trkpt lat="45.8806850" lon="10.2830990">
	<ele>2057.60</ele>
	<time>2025-07-29T08:39:18.000Z</time>
</trkpt>
<trkpt lat="45.8806760" lon="10.2831050">
	<ele>2057.60</ele>
	<time>2025-07-29T08:39:19.000Z</time>
</trkpt>
<trkpt lat="45.8806690" lon="10.2831100">
	<ele>2057.80</ele>
	<time>2025-07-29T08:39:20.000Z</time>
</trkpt>
<trkpt lat="45.8806630" lon="10.2831150">
	<ele>2058.00</ele>
	<time>2025-07-29T08:39:21.000Z</time>
</trkpt>
<trkpt lat="45.8806580" lon="10.2831200">
	<ele>2058.00</ele>
	<time>2025-07-29T08:39:22.000Z</time>
</trkpt>
<trkpt lat="45.8806540" lon="10.2831250">
	<ele>2058.20</ele>
	<time>2025-07-29T08:39:23.000Z</time>
</trkpt>
<trkpt lat="45.8806500" lon="10.2831290">
	<ele>2058.20</ele>
	<time>2025-07-29T08:39:24.000Z</time>
</trkpt>
<trkpt lat="45.8806440" lon="10.2831320">
	<ele>2058.40</ele>
	<time>2025-07-29T08:39:25.000Z</time>
</trkpt>
<trkpt lat="45.8806370" lon="10.2831390">
	<ele>2058.60</ele>
	<time>2025-07-29T08:39:26.000Z</time>
</trkpt>
<trkpt lat="45.8806300" lon="10.2831440">
	<ele>2058.60</ele>
	<time>2025-07-29T08:39:27.000Z</time>
</trkpt>
<trkpt lat="45.8806240" lon="10.2831510">
	<ele>2058.80</ele>
	<time>2025-07-29T08:39:28.000Z</time>
</trkpt>
<trkpt lat="45.8806170" lon="10.2831580">
	<ele>2058.80</ele>
	<time>2025-07-29T08:39:29.000Z</time>
</trkpt>
<trkpt lat="45.8806080" lon="10.2831640">
	<ele>2058.80</ele>
	<time>2025-07-29T08:39:30.000Z</time>
</trkpt>
<trkpt lat="45.8805970" lon="10.2831670">
	<ele>2058.80</ele>
	<time>2025-07-29T08:39:31.000Z</time>
</trkpt>
<trkpt lat="45.8805880" lon="10.2831690">
	<ele>2059.00</ele>
	<time>2025-07-29T08:39:32.000Z</time>
</trkpt>
<trkpt lat="45.8805800" lon="10.2831750">
	<ele>2059.00</ele>
	<time>2025-07-29T08:39:33.000Z</time>
</trkpt>
<trkpt lat="45.8805720" lon="10.2831830">
	<ele>2059.20</ele>
	<time>2025-07-29T08:39:34.000Z</time>
</trkpt>
<trkpt lat="45.8805680" lon="10.2831870">
	<ele>2059.20</ele>
	<time>2025-07-29T08:39:35.000Z</time>
</trkpt>
<trkpt lat="45.8805660" lon="10.2831880">
	<ele>2059.60</ele>
	<time>2025-07-29T08:39:36.000Z</time>
</trkpt>
<trkpt lat="45.8805640" lon="10.2831890">
	<ele>2059.80</ele>
	<time>2025-07-29T08:39:37.000Z</time>
</trkpt>
<trkpt lat="45.8805640" lon="10.2831890">
	<ele>2060.00</ele>
	<time>2025-07-29T08:39:38.000Z</time>
</trkpt>
<trkpt lat="45.8805630" lon="10.2831890">
	<ele>2060.00</ele>
	<time>2025-07-29T08:39:39.000Z</time>
</trkpt>
<trkpt lat="45.8805630" lon="10.2831900">
	<ele>2060.00</ele>
	<time>2025-07-29T08:39:40.000Z</time>
</trkpt>
<trkpt lat="45.8805650" lon="10.2831910">
	<ele>2060.00</ele>
	<time>2025-07-29T08:39:41.000Z</time>
</trkpt>
<trkpt lat="45.8805650" lon="10.2831920">
	<ele>2060.00</ele>
	<time>2025-07-29T08:39:42.000Z</time>
</trkpt>
<trkpt lat="45.8805650" lon="10.2831940">
	<ele>2060.20</ele>
	<time>2025-07-29T08:39:43.000Z</time>
</trkpt>
<trkpt lat="45.8805650" lon="10.2831960">
	<ele>2060.20</ele>
	<time>2025-07-29T08:39:44.000Z</time>
</trkpt>
<trkpt lat="45.8805650" lon="10.2831970">
	<ele>2060.00</ele>
	<time>2025-07-29T08:39:45.000Z</time>
</trkpt>
<trkpt lat="45.8805660" lon="10.2831970">
	<ele>2059.80</ele>
	<time>2025-07-29T08:39:46.000Z</time>
</trkpt>
<trkpt lat="45.8805660" lon="10.2831970">
	<ele>2059.80</ele>
	<time>2025-07-29T08:39:47.000Z</time>
</trkpt>
<trkpt lat="45.8805660" lon="10.2831970">
	<ele>2059.80</ele>
	<time>2025-07-29T08:39:48.000Z</time>
</trkpt>
<trkpt lat="45.8805660" lon="10.2831970">
	<ele>2059.60</ele>
	<time>2025-07-29T08:39:49.000Z</time>
</trkpt>
<trkpt lat="45.8805660" lon="10.2831970">
	<ele>2059.60</ele>
	<time>2025-07-29T08:39:50.000Z</time>
</trkpt>
<trkpt lat="45.8805660" lon="10.2831970">
	<ele>2059.60</ele>
	<time>2025-07-29T08:39:51.000Z</time>
</trkpt>
<trkpt lat="45.8805660" lon="10.2831970">
	<ele>2059.60</ele>
	<time>2025-07-29T08:39:52.000Z</time>
</trkpt>
<trkpt lat="45.8805660" lon="10.2831970">
	<ele>2059.60</ele>
	<time>2025-07-29T08:39:53.000Z</time>
</trkpt>
<trkpt lat="45.8805660" lon="10.2831970">
	<ele>2059.60</ele>
	<time>2025-07-29T08:39:54.000Z</time>
</trkpt>
<trkpt lat="45.8805660" lon="10.2831970">
	<ele>2059.60</ele>
	<time>2025-07-29T08:39:55.000Z</time>
</trkpt>
<trkpt lat="45.8805660" lon="10.2831970">
	<ele>2059.60</ele>
	<time>2025-07-29T08:39:56.000Z</time>
</trkpt>
<trkpt lat="45.8805660" lon="10.2831970">
	<ele>2059.40</ele>
	<time>2025-07-29T08:39:57.000Z</time>
</trkpt>
<trkpt lat="45.8805660" lon="10.2831970">
	<ele>2059.20</ele>
	<time>2025-07-29T08:39:58.000Z</time>
</trkpt>
<trkpt lat="45.8805660" lon="10.2831970">
	<ele>2059.20</ele>
	<time>2025-07-29T08:39:59.000Z</time>
</trkpt>
<trkpt lat="45.8805660" lon="10.2831970">
	<ele>2059.20</ele>
	<time>2025-07-29T08:40:00.000Z</time>
</trkpt>
<trkpt lat="45.8805620" lon="10.2832010">
	<ele>2059.20</ele>
	<time>2025-07-29T08:40:01.000Z</time>
</trkpt>
<trkpt lat="45.8805470" lon="10.2832100">
	<ele>2059.20</ele>
	<time>2025-07-29T08:40:02.000Z</time>
</trkpt>
<trkpt lat="45.8805320" lon="10.2832190">
	<ele>2059.40</ele>
	<time>2025-07-29T08:40:03.000Z</time>
</trkpt>
<trkpt lat="45.8805200" lon="10.2832330">
	<ele>2059.40</ele>
	<time>2025-07-29T08:40:04.000Z</time>
</trkpt>
<trkpt lat="45.8805070" lon="10.2832450">
	<ele>2059.40</ele>
	<time>2025-07-29T08:40:05.000Z</time>
</trkpt>
<trkpt lat="45.8804950" lon="10.2832610">
	<ele>2059.60</ele>
	<time>2025-07-29T08:40:06.000Z</time>
</trkpt>
<trkpt lat="45.8804840" lon="10.2832770">
	<ele>2059.80</ele>
	<time>2025-07-29T08:40:07.000Z</time>
</trkpt>
<trkpt lat="45.8804720" lon="10.2832930">
	<ele>2059.80</ele>
	<time>2025-07-29T08:40:08.000Z</time>
</trkpt>
<trkpt lat="45.8804580" lon="10.2833060">
	<ele>2060.00</ele>
	<time>2025-07-29T08:40:09.000Z</time>
</trkpt>
<trkpt lat="45.8804430" lon="10.2833160">
	<ele>2060.00</ele>
	<time>2025-07-29T08:40:10.000Z</time>
</trkpt>
<trkpt lat="45.8804340" lon="10.2833180">
	<ele>2060.00</ele>
	<time>2025-07-29T08:40:11.000Z</time>
</trkpt>
<trkpt lat="45.8804280" lon="10.2833230">
	<ele>2060.00</ele>
	<time>2025-07-29T08:40:12.000Z</time>
</trkpt>
<trkpt lat="45.8804260" lon="10.2833270">
	<ele>2060.00</ele>
	<time>2025-07-29T08:40:13.000Z</time>
</trkpt>
<trkpt lat="45.8804250" lon="10.2833300">
	<ele>2060.00</ele>
	<time>2025-07-29T08:40:14.000Z</time>
</trkpt>
<trkpt lat="45.8804240" lon="10.2833300">
	<ele>2060.00</ele>
	<time>2025-07-29T08:40:15.000Z</time>
</trkpt>
<trkpt lat="45.8804240" lon="10.2833300">
	<ele>2060.20</ele>
	<time>2025-07-29T08:40:16.000Z</time>
</trkpt>
<trkpt lat="45.8804250" lon="10.2833310">
	<ele>2060.20</ele>
	<time>2025-07-29T08:40:17.000Z</time>
</trkpt>
<trkpt lat="45.8804240" lon="10.2833340">
	<ele>2060.20</ele>
	<time>2025-07-29T08:40:18.000Z</time>
</trkpt>
<trkpt lat="45.8804230" lon="10.2833360">
	<ele>2060.20</ele>
	<time>2025-07-29T08:40:19.000Z</time>
</trkpt>
<trkpt lat="45.8804220" lon="10.2833360">
	<ele>2060.20</ele>
	<time>2025-07-29T08:40:20.000Z</time>
</trkpt>
<trkpt lat="45.8804220" lon="10.2833370">
	<ele>2060.20</ele>
	<time>2025-07-29T08:40:21.000Z</time>
</trkpt>
<trkpt lat="45.8804210" lon="10.2833390">
	<ele>2060.20</ele>
	<time>2025-07-29T08:40:22.000Z</time>
</trkpt>
<trkpt lat="45.8804210" lon="10.2833390">
	<ele>2060.20</ele>
	<time>2025-07-29T08:40:23.000Z</time>
</trkpt>
<trkpt lat="45.8804210" lon="10.2833390">
	<ele>2060.20</ele>
	<time>2025-07-29T08:40:24.000Z</time>
</trkpt>
<trkpt lat="45.8804210" lon="10.2833390">
	<ele>2060.20</ele>
	<time>2025-07-29T08:40:25.000Z</time>
</trkpt>
<trkpt lat="45.8804210" lon="10.2833390">
	<ele>2060.00</ele>
	<time>2025-07-29T08:40:26.000Z</time>
</trkpt>
<trkpt lat="45.8804210" lon="10.2833390">
	<ele>2060.00</ele>
	<time>2025-07-29T08:40:27.000Z</time>
</trkpt>
<trkpt lat="45.8804190" lon="10.2833420">
	<ele>2060.00</ele>
	<time>2025-07-29T08:40:28.000Z</time>
</trkpt>
<trkpt lat="45.8804090" lon="10.2833530">
	<ele>2060.00</ele>
	<time>2025-07-29T08:40:29.000Z</time>
</trkpt>
<trkpt lat="45.8804000" lon="10.2833660">
	<ele>2060.00</ele>
	<time>2025-07-29T08:40:30.000Z</time>
</trkpt>
<trkpt lat="45.8803880" lon="10.2833780">
	<ele>2060.00</ele>
	<time>2025-07-29T08:40:31.000Z</time>
</trkpt>
<trkpt lat="45.8803760" lon="10.2833910">
	<ele>2060.00</ele>
	<time>2025-07-29T08:40:32.000Z</time>
</trkpt>
<trkpt lat="45.8803630" lon="10.2834040">
	<ele>2060.00</ele>
	<time>2025-07-29T08:40:33.000Z</time>
</trkpt>
<trkpt lat="45.8803510" lon="10.2834160">
	<ele>2060.00</ele>
	<time>2025-07-29T08:40:34.000Z</time>
</trkpt>
<trkpt lat="45.8803410" lon="10.2834330">
	<ele>2060.00</ele>
	<time>2025-07-29T08:40:35.000Z</time>
</trkpt>
<trkpt lat="45.8803300" lon="10.2834420">
	<ele>2060.20</ele>
	<time>2025-07-29T08:40:36.000Z</time>
</trkpt>
<trkpt lat="45.8803190" lon="10.2834570">
	<ele>2060.20</ele>
	<time>2025-07-29T08:40:37.000Z</time>
</trkpt>
<trkpt lat="45.8803100" lon="10.2834670">
	<ele>2060.20</ele>
	<time>2025-07-29T08:40:38.000Z</time>
</trkpt>
<trkpt lat="45.8803010" lon="10.2834810">
	<ele>2060.20</ele>
	<time>2025-07-29T08:40:39.000Z</time>
</trkpt>
<trkpt lat="45.8802940" lon="10.2834910">
	<ele>2060.20</ele>
	<time>2025-07-29T08:40:40.000Z</time>
</trkpt>
<trkpt lat="45.8802890" lon="10.2835020">
	<ele>2060.00</ele>
	<time>2025-07-29T08:40:41.000Z</time>
</trkpt>
<trkpt lat="45.8802820" lon="10.2835130">
	<ele>2060.00</ele>
	<time>2025-07-29T08:40:42.000Z</time>
</trkpt>
<trkpt lat="45.8802720" lon="10.2835200">
	<ele>2060.00</ele>
	<time>2025-07-29T08:40:43.000Z</time>
</trkpt>
<trkpt lat="45.8802650" lon="10.2835300">
	<ele>2060.00</ele>
	<time>2025-07-29T08:40:44.000Z</time>
</trkpt>
<trkpt lat="45.8802580" lon="10.2835420">
	<ele>2060.20</ele>
	<time>2025-07-29T08:40:45.000Z</time>
</trkpt>
<trkpt lat="45.8802510" lon="10.2835570">
	<ele>2060.20</ele>
	<time>2025-07-29T08:40:46.000Z</time>
</trkpt>
<trkpt lat="45.8802440" lon="10.2835680">
	<ele>2060.40</ele>
	<time>2025-07-29T08:40:47.000Z</time>
</trkpt>
<trkpt lat="45.8802360" lon="10.2835810">
	<ele>2060.40</ele>
	<time>2025-07-29T08:40:48.000Z</time>
</trkpt>
<trkpt lat="45.8802270" lon="10.2835930">
	<ele>2060.40</ele>
	<time>2025-07-29T08:40:49.000Z</time>
</trkpt>
<trkpt lat="45.8802190" lon="10.2836060">
	<ele>2060.60</ele>
	<time>2025-07-29T08:40:50.000Z</time>
</trkpt>
<trkpt lat="45.8802130" lon="10.2836210">
	<ele>2060.60</ele>
	<time>2025-07-29T08:40:51.000Z</time>
</trkpt>
<trkpt lat="45.8802060" lon="10.2836400">
	<ele>2060.60</ele>
	<time>2025-07-29T08:40:52.000Z</time>
</trkpt>
<trkpt lat="45.8802000" lon="10.2836590">
	<ele>2060.60</ele>
	<time>2025-07-29T08:40:53.000Z</time>
</trkpt>
<trkpt lat="45.8801930" lon="10.2836740">
	<ele>2060.60</ele>
	<time>2025-07-29T08:40:54.000Z</time>
</trkpt>
<trkpt lat="45.8801870" lon="10.2836860">
	<ele>2060.60</ele>
	<time>2025-07-29T08:40:55.000Z</time>
</trkpt>
<trkpt lat="45.8801810" lon="10.2836980">
	<ele>2060.60</ele>
	<time>2025-07-29T08:40:56.000Z</time>
</trkpt>
<trkpt lat="45.8801730" lon="10.2837110">
	<ele>2060.60</ele>
	<time>2025-07-29T08:40:57.000Z</time>
</trkpt>
<trkpt lat="45.8801660" lon="10.2837210">
	<ele>2060.60</ele>
	<time>2025-07-29T08:40:58.000Z</time>
</trkpt>
<trkpt lat="45.8801590" lon="10.2837310">
	<ele>2060.80</ele>
	<time>2025-07-29T08:40:59.000Z</time>
</trkpt>
<trkpt lat="45.8801510" lon="10.2837390">
	<ele>2060.80</ele>
	<time>2025-07-29T08:41:00.000Z</time>
</trkpt>
<trkpt lat="45.8801440" lon="10.2837480">
	<ele>2060.80</ele>
	<time>2025-07-29T08:41:01.000Z</time>
</trkpt>
<trkpt lat="45.8801350" lon="10.2837560">
	<ele>2060.80</ele>
	<time>2025-07-29T08:41:02.000Z</time>
</trkpt>
<trkpt lat="45.8801250" lon="10.2837660">
	<ele>2060.80</ele>
	<time>2025-07-29T08:41:03.000Z</time>
</trkpt>
<trkpt lat="45.8801170" lon="10.2837770">
	<ele>2060.80</ele>
	<time>2025-07-29T08:41:04.000Z</time>
</trkpt>
<trkpt lat="45.8801100" lon="10.2837860">
	<ele>2060.80</ele>
	<time>2025-07-29T08:41:05.000Z</time>
</trkpt>
<trkpt lat="45.8801010" lon="10.2837910">
	<ele>2060.80</ele>
	<time>2025-07-29T08:41:06.000Z</time>
</trkpt>
<trkpt lat="45.8800910" lon="10.2837900">
	<ele>2060.80</ele>
	<time>2025-07-29T08:41:07.000Z</time>
</trkpt>
<trkpt lat="45.8800800" lon="10.2837910">
	<ele>2060.80</ele>
	<time>2025-07-29T08:41:08.000Z</time>
</trkpt>
<trkpt lat="45.8800710" lon="10.2837970">
	<ele>2060.80</ele>
	<time>2025-07-29T08:41:09.000Z</time>
</trkpt>
<trkpt lat="45.8800630" lon="10.2838100">
	<ele>2061.00</ele>
	<time>2025-07-29T08:41:10.000Z</time>
</trkpt>
<trkpt lat="45.8800560" lon="10.2838220">
	<ele>2061.20</ele>
	<time>2025-07-29T08:41:11.000Z</time>
</trkpt>
<trkpt lat="45.8800460" lon="10.2838320">
	<ele>2061.40</ele>
	<time>2025-07-29T08:41:12.000Z</time>
</trkpt>
<trkpt lat="45.8800370" lon="10.2838420">
	<ele>2061.60</ele>
	<time>2025-07-29T08:41:13.000Z</time>
</trkpt>
<trkpt lat="45.8800280" lon="10.2838510">
	<ele>2061.60</ele>
	<time>2025-07-29T08:41:14.000Z</time>
</trkpt>
<trkpt lat="45.8800200" lon="10.2838570">
	<ele>2061.80</ele>
	<time>2025-07-29T08:41:15.000Z</time>
</trkpt>
<trkpt lat="45.8800120" lon="10.2838610">
	<ele>2061.80</ele>
	<time>2025-07-29T08:41:16.000Z</time>
</trkpt>
<trkpt lat="45.8800040" lon="10.2838590">
	<ele>2061.80</ele>
	<time>2025-07-29T08:41:17.000Z</time>
</trkpt>
<trkpt lat="45.8799970" lon="10.2838580">
	<ele>2062.00</ele>
	<time>2025-07-29T08:41:18.000Z</time>
</trkpt>
<trkpt lat="45.8799910" lon="10.2838610">
	<ele>2062.20</ele>
	<time>2025-07-29T08:41:19.000Z</time>
</trkpt>
<trkpt lat="45.8799840" lon="10.2838650">
	<ele>2062.20</ele>
	<time>2025-07-29T08:41:20.000Z</time>
</trkpt>
<trkpt lat="45.8799760" lon="10.2838710">
	<ele>2062.40</ele>
	<time>2025-07-29T08:41:21.000Z</time>
</trkpt>
<trkpt lat="45.8799680" lon="10.2838800">
	<ele>2062.40</ele>
	<time>2025-07-29T08:41:22.000Z</time>
</trkpt>
<trkpt lat="45.8799600" lon="10.2838880">
	<ele>2062.60</ele>
	<time>2025-07-29T08:41:23.000Z</time>
</trkpt>
<trkpt lat="45.8799530" lon="10.2838980">
	<ele>2062.60</ele>
	<time>2025-07-29T08:41:24.000Z</time>
</trkpt>
<trkpt lat="45.8799460" lon="10.2839060">
	<ele>2062.80</ele>
	<time>2025-07-29T08:41:25.000Z</time>
</trkpt>
<trkpt lat="45.8799390" lon="10.2839140">
	<ele>2062.80</ele>
	<time>2025-07-29T08:41:26.000Z</time>
</trkpt>
<trkpt lat="45.8799310" lon="10.2839210">
	<ele>2063.00</ele>
	<time>2025-07-29T08:41:27.000Z</time>
</trkpt>
<trkpt lat="45.8799220" lon="10.2839280">
	<ele>2063.00</ele>
	<time>2025-07-29T08:41:28.000Z</time>
</trkpt>
<trkpt lat="45.8799120" lon="10.2839360">
	<ele>2063.20</ele>
	<time>2025-07-29T08:41:29.000Z</time>
</trkpt>
<trkpt lat="45.8799010" lon="10.2839420">
	<ele>2063.20</ele>
	<time>2025-07-29T08:41:30.000Z</time>
</trkpt>
<trkpt lat="45.8798950" lon="10.2839530">
	<ele>2063.20</ele>
	<time>2025-07-29T08:41:31.000Z</time>
</trkpt>
<trkpt lat="45.8798880" lon="10.2839670">
	<ele>2063.20</ele>
	<time>2025-07-29T08:41:32.000Z</time>
</trkpt>
<trkpt lat="45.8798820" lon="10.2839760">
	<ele>2063.20</ele>
	<time>2025-07-29T08:41:33.000Z</time>
</trkpt>
<trkpt lat="45.8798760" lon="10.2839850">
	<ele>2063.40</ele>
	<time>2025-07-29T08:41:34.000Z</time>
</trkpt>
<trkpt lat="45.8798680" lon="10.2839930">
	<ele>2063.40</ele>
	<time>2025-07-29T08:41:35.000Z</time>
</trkpt>
<trkpt lat="45.8798600" lon="10.2840030">
	<ele>2063.60</ele>
	<time>2025-07-29T08:41:36.000Z</time>
</trkpt>
<trkpt lat="45.8798520" lon="10.2840120">
	<ele>2063.80</ele>
	<time>2025-07-29T08:41:37.000Z</time>
</trkpt>
<trkpt lat="45.8798440" lon="10.2840220">
	<ele>2063.80</ele>
	<time>2025-07-29T08:41:38.000Z</time>
</trkpt>
<trkpt lat="45.8798350" lon="10.2840310">
	<ele>2064.00</ele>
	<time>2025-07-29T08:41:39.000Z</time>
</trkpt>
<trkpt lat="45.8798270" lon="10.2840400">
	<ele>2064.00</ele>
	<time>2025-07-29T08:41:40.000Z</time>
</trkpt>
<trkpt lat="45.8798190" lon="10.2840500">
	<ele>2064.00</ele>
	<time>2025-07-29T08:41:41.000Z</time>
</trkpt>
<trkpt lat="45.8798100" lon="10.2840610">
	<ele>2064.00</ele>
	<time>2025-07-29T08:41:42.000Z</time>
</trkpt>
<trkpt lat="45.8798010" lon="10.2840680">
	<ele>2064.20</ele>
	<time>2025-07-29T08:41:43.000Z</time>
</trkpt>
<trkpt lat="45.8797920" lon="10.2840780">
	<ele>2064.20</ele>
	<time>2025-07-29T08:41:44.000Z</time>
</trkpt>
<trkpt lat="45.8797850" lon="10.2840890">
	<ele>2064.20</ele>
	<time>2025-07-29T08:41:45.000Z</time>
</trkpt>
<trkpt lat="45.8797760" lon="10.2841000">
	<ele>2064.20</ele>
	<time>2025-07-29T08:41:46.000Z</time>
</trkpt>
<trkpt lat="45.8797680" lon="10.2841110">
	<ele>2064.40</ele>
	<time>2025-07-29T08:41:47.000Z</time>
</trkpt>
<trkpt lat="45.8797590" lon="10.2841190">
	<ele>2064.40</ele>
	<time>2025-07-29T08:41:48.000Z</time>
</trkpt>
<trkpt lat="45.8797490" lon="10.2841290">
	<ele>2064.60</ele>
	<time>2025-07-29T08:41:49.000Z</time>
</trkpt>
<trkpt lat="45.8797380" lon="10.2841370">
	<ele>2064.60</ele>
	<time>2025-07-29T08:41:50.000Z</time>
</trkpt>
<trkpt lat="45.8797290" lon="10.2841490">
	<ele>2064.60</ele>
	<time>2025-07-29T08:41:51.000Z</time>
</trkpt>
<trkpt lat="45.8797240" lon="10.2841610">
	<ele>2064.60</ele>
	<time>2025-07-29T08:41:52.000Z</time>
</trkpt>
<trkpt lat="45.8797160" lon="10.2841720">
	<ele>2064.80</ele>
	<time>2025-07-29T08:41:53.000Z</time>
</trkpt>
<trkpt lat="45.8797080" lon="10.2841810">
	<ele>2064.80</ele>
	<time>2025-07-29T08:41:54.000Z</time>
</trkpt>
<trkpt lat="45.8797000" lon="10.2841910">
	<ele>2064.80</ele>
	<time>2025-07-29T08:41:55.000Z</time>
</trkpt>
<trkpt lat="45.8796920" lon="10.2842060">
	<ele>2064.80</ele>
	<time>2025-07-29T08:41:56.000Z</time>
</trkpt>
<trkpt lat="45.8796850" lon="10.2842170">
	<ele>2065.00</ele>
	<time>2025-07-29T08:41:57.000Z</time>
</trkpt>
<trkpt lat="45.8796760" lon="10.2842280">
	<ele>2065.20</ele>
	<time>2025-07-29T08:41:58.000Z</time>
</trkpt>
<trkpt lat="45.8796690" lon="10.2842380">
	<ele>2065.20</ele>
	<time>2025-07-29T08:41:59.000Z</time>
</trkpt>
<trkpt lat="45.8796630" lon="10.2842490">
	<ele>2065.20</ele>
	<time>2025-07-29T08:42:00.000Z</time>
</trkpt>
<trkpt lat="45.8796570" lon="10.2842600">
	<ele>2065.40</ele>
	<time>2025-07-29T08:42:01.000Z</time>
</trkpt>
<trkpt lat="45.8796500" lon="10.2842740">
	<ele>2065.40</ele>
	<time>2025-07-29T08:42:02.000Z</time>
</trkpt>
<trkpt lat="45.8796420" lon="10.2842880">
	<ele>2065.60</ele>
	<time>2025-07-29T08:42:03.000Z</time>
</trkpt>
<trkpt lat="45.8796350" lon="10.2843020">
	<ele>2065.80</ele>
	<time>2025-07-29T08:42:04.000Z</time>
</trkpt>
<trkpt lat="45.8796290" lon="10.2843170">
	<ele>2065.80</ele>
	<time>2025-07-29T08:42:05.000Z</time>
</trkpt>
<trkpt lat="45.8796250" lon="10.2843320">
	<ele>2066.00</ele>
	<time>2025-07-29T08:42:06.000Z</time>
</trkpt>
<trkpt lat="45.8796180" lon="10.2843450">
	<ele>2066.00</ele>
	<time>2025-07-29T08:42:07.000Z</time>
</trkpt>
<trkpt lat="45.8796090" lon="10.2843580">
	<ele>2066.00</ele>
	<time>2025-07-29T08:42:08.000Z</time>
</trkpt>
<trkpt lat="45.8796020" lon="10.2843720">
	<ele>2066.40</ele>
	<time>2025-07-29T08:42:09.000Z</time>
</trkpt>
<trkpt lat="45.8795950" lon="10.2843840">
	<ele>2066.60</ele>
	<time>2025-07-29T08:42:10.000Z</time>
</trkpt>
<trkpt lat="45.8795880" lon="10.2843920">
	<ele>2066.80</ele>
	<time>2025-07-29T08:42:11.000Z</time>
</trkpt>
<trkpt lat="45.8795780" lon="10.2844010">
	<ele>2067.00</ele>
	<time>2025-07-29T08:42:12.000Z</time>
</trkpt>
<trkpt lat="45.8795690" lon="10.2844100">
	<ele>2067.40</ele>
	<time>2025-07-29T08:42:13.000Z</time>
</trkpt>
<trkpt lat="45.8795610" lon="10.2844180">
	<ele>2067.40</ele>
	<time>2025-07-29T08:42:14.000Z</time>
</trkpt>
<trkpt lat="45.8795520" lon="10.2844270">
	<ele>2067.40</ele>
	<time>2025-07-29T08:42:15.000Z</time>
</trkpt>
<trkpt lat="45.8795450" lon="10.2844350">
	<ele>2067.60</ele>
	<time>2025-07-29T08:42:16.000Z</time>
</trkpt>
<trkpt lat="45.8795340" lon="10.2844420">
	<ele>2067.40</ele>
	<time>2025-07-29T08:42:17.000Z</time>
</trkpt>
<trkpt lat="45.8795250" lon="10.2844470">
	<ele>2067.40</ele>
	<time>2025-07-29T08:42:18.000Z</time>
</trkpt>
<trkpt lat="45.8795160" lon="10.2844540">
	<ele>2067.60</ele>
	<time>2025-07-29T08:42:19.000Z</time>
</trkpt>
<trkpt lat="45.8795060" lon="10.2844610">
	<ele>2067.60</ele>
	<time>2025-07-29T08:42:20.000Z</time>
</trkpt>
<trkpt lat="45.8794980" lon="10.2844680">
	<ele>2067.60</ele>
	<time>2025-07-29T08:42:21.000Z</time>
</trkpt>
<trkpt lat="45.8794890" lon="10.2844790">
	<ele>2067.60</ele>
	<time>2025-07-29T08:42:22.000Z</time>
</trkpt>
<trkpt lat="45.8794790" lon="10.2844930">
	<ele>2067.60</ele>
	<time>2025-07-29T08:42:23.000Z</time>
</trkpt>
<trkpt lat="45.8794700" lon="10.2845040">
	<ele>2067.60</ele>
	<time>2025-07-29T08:42:24.000Z</time>
</trkpt>
<trkpt lat="45.8794600" lon="10.2845160">
	<ele>2067.80</ele>
	<time>2025-07-29T08:42:25.000Z</time>
</trkpt>
<trkpt lat="45.8794500" lon="10.2845250">
	<ele>2067.80</ele>
	<time>2025-07-29T08:42:26.000Z</time>
</trkpt>
<trkpt lat="45.8794420" lon="10.2845360">
	<ele>2068.00</ele>
	<time>2025-07-29T08:42:27.000Z</time>
</trkpt>
<trkpt lat="45.8794320" lon="10.2845460">
	<ele>2068.00</ele>
	<time>2025-07-29T08:42:28.000Z</time>
</trkpt>
<trkpt lat="45.8794220" lon="10.2845550">
	<ele>2068.00</ele>
	<time>2025-07-29T08:42:29.000Z</time>
</trkpt>
<trkpt lat="45.8794120" lon="10.2845630">
	<ele>2068.20</ele>
	<time>2025-07-29T08:42:30.000Z</time>
</trkpt>
<trkpt lat="45.8794040" lon="10.2845710">
	<ele>2068.20</ele>
	<time>2025-07-29T08:42:31.000Z</time>
</trkpt>
<trkpt lat="45.8793950" lon="10.2845800">
	<ele>2068.20</ele>
	<time>2025-07-29T08:42:32.000Z</time>
</trkpt>
<trkpt lat="45.8793860" lon="10.2845900">
	<ele>2068.20</ele>
	<time>2025-07-29T08:42:33.000Z</time>
</trkpt>
<trkpt lat="45.8793770" lon="10.2846030">
	<ele>2068.00</ele>
	<time>2025-07-29T08:42:34.000Z</time>
</trkpt>
<trkpt lat="45.8793700" lon="10.2846130">
	<ele>2068.00</ele>
	<time>2025-07-29T08:42:35.000Z</time>
</trkpt>
<trkpt lat="45.8793580" lon="10.2846220">
	<ele>2068.20</ele>
	<time>2025-07-29T08:42:36.000Z</time>
</trkpt>
<trkpt lat="45.8793470" lon="10.2846260">
	<ele>2068.20</ele>
	<time>2025-07-29T08:42:37.000Z</time>
</trkpt>
<trkpt lat="45.8793380" lon="10.2846320">
	<ele>2068.20</ele>
	<time>2025-07-29T08:42:38.000Z</time>
</trkpt>
<trkpt lat="45.8793280" lon="10.2846390">
	<ele>2068.40</ele>
	<time>2025-07-29T08:42:39.000Z</time>
</trkpt>
<trkpt lat="45.8793180" lon="10.2846500">
	<ele>2068.40</ele>
	<time>2025-07-29T08:42:40.000Z</time>
</trkpt>
<trkpt lat="45.8793100" lon="10.2846580">
	<ele>2068.40</ele>
	<time>2025-07-29T08:42:41.000Z</time>
</trkpt>
<trkpt lat="45.8793000" lon="10.2846660">
	<ele>2068.40</ele>
	<time>2025-07-29T08:42:42.000Z</time>
</trkpt>
<trkpt lat="45.8792900" lon="10.2846740">
	<ele>2068.40</ele>
	<time>2025-07-29T08:42:43.000Z</time>
</trkpt>
<trkpt lat="45.8792820" lon="10.2846830">
	<ele>2068.60</ele>
	<time>2025-07-29T08:42:44.000Z</time>
</trkpt>
<trkpt lat="45.8792710" lon="10.2846910">
	<ele>2068.60</ele>
	<time>2025-07-29T08:42:45.000Z</time>
</trkpt>
<trkpt lat="45.8792600" lon="10.2846980">
	<ele>2068.60</ele>
	<time>2025-07-29T08:42:46.000Z</time>
</trkpt>
<trkpt lat="45.8792480" lon="10.2847050">
	<ele>2068.60</ele>
	<time>2025-07-29T08:42:47.000Z</time>
</trkpt>
<trkpt lat="45.8792360" lon="10.2847130">
	<ele>2068.60</ele>
	<time>2025-07-29T08:42:48.000Z</time>
</trkpt>
<trkpt lat="45.8792250" lon="10.2847200">
	<ele>2068.80</ele>
	<time>2025-07-29T08:42:49.000Z</time>
</trkpt>
<trkpt lat="45.8792150" lon="10.2847280">
	<ele>2068.80</ele>
	<time>2025-07-29T08:42:50.000Z</time>
</trkpt>
<trkpt lat="45.8792050" lon="10.2847360">
	<ele>2069.00</ele>
	<time>2025-07-29T08:42:51.000Z</time>
</trkpt>
<trkpt lat="45.8791950" lon="10.2847380">
	<ele>2069.20</ele>
	<time>2025-07-29T08:42:52.000Z</time>
</trkpt>
<trkpt lat="45.8791830" lon="10.2847410">
	<ele>2069.20</ele>
	<time>2025-07-29T08:42:53.000Z</time>
</trkpt>
<trkpt lat="45.8791720" lon="10.2847470">
	<ele>2069.40</ele>
	<time>2025-07-29T08:42:54.000Z</time>
</trkpt>
<trkpt lat="45.8791610" lon="10.2847540">
	<ele>2069.60</ele>
	<time>2025-07-29T08:42:55.000Z</time>
</trkpt>
<trkpt lat="45.8791520" lon="10.2847630">
	<ele>2070.00</ele>
	<time>2025-07-29T08:42:56.000Z</time>
</trkpt>
<trkpt lat="45.8791430" lon="10.2847710">
	<ele>2070.20</ele>
	<time>2025-07-29T08:42:57.000Z</time>
</trkpt>
<trkpt lat="45.8791360" lon="10.2847810">
	<ele>2070.20</ele>
	<time>2025-07-29T08:42:58.000Z</time>
</trkpt>
<trkpt lat="45.8791290" lon="10.2847890">
	<ele>2070.40</ele>
	<time>2025-07-29T08:42:59.000Z</time>
</trkpt>
<trkpt lat="45.8791210" lon="10.2847980">
	<ele>2070.40</ele>
	<time>2025-07-29T08:43:00.000Z</time>
</trkpt>
<trkpt lat="45.8791150" lon="10.2848090">
	<ele>2070.60</ele>
	<time>2025-07-29T08:43:01.000Z</time>
</trkpt>
<trkpt lat="45.8791090" lon="10.2848210">
	<ele>2070.60</ele>
	<time>2025-07-29T08:43:02.000Z</time>
</trkpt>
<trkpt lat="45.8791030" lon="10.2848340">
	<ele>2070.60</ele>
	<time>2025-07-29T08:43:03.000Z</time>
</trkpt>
<trkpt lat="45.8790970" lon="10.2848440">
	<ele>2071.00</ele>
	<time>2025-07-29T08:43:04.000Z</time>
</trkpt>
<trkpt lat="45.8790890" lon="10.2848530">
	<ele>2071.00</ele>
	<time>2025-07-29T08:43:05.000Z</time>
</trkpt>
<trkpt lat="45.8790820" lon="10.2848630">
	<ele>2071.20</ele>
	<time>2025-07-29T08:43:06.000Z</time>
</trkpt>
<trkpt lat="45.8790770" lon="10.2848730">
	<ele>2071.40</ele>
	<time>2025-07-29T08:43:07.000Z</time>
</trkpt>
<trkpt lat="45.8790700" lon="10.2848820">
	<ele>2071.60</ele>
	<time>2025-07-29T08:43:08.000Z</time>
</trkpt>
<trkpt lat="45.8790630" lon="10.2848880">
	<ele>2071.60</ele>
	<time>2025-07-29T08:43:09.000Z</time>
</trkpt>
<trkpt lat="45.8790560" lon="10.2848980">
	<ele>2072.00</ele>
	<time>2025-07-29T08:43:10.000Z</time>
</trkpt>
<trkpt lat="45.8790510" lon="10.2849060">
	<ele>2072.20</ele>
	<time>2025-07-29T08:43:11.000Z</time>
</trkpt>
<trkpt lat="45.8790440" lon="10.2849140">
	<ele>2072.60</ele>
	<time>2025-07-29T08:43:12.000Z</time>
</trkpt>
<trkpt lat="45.8790390" lon="10.2849250">
	<ele>2072.80</ele>
	<time>2025-07-29T08:43:13.000Z</time>
</trkpt>
<trkpt lat="45.8790340" lon="10.2849360">
	<ele>2073.00</ele>
	<time>2025-07-29T08:43:14.000Z</time>
</trkpt>
<trkpt lat="45.8790310" lon="10.2849470">
	<ele>2073.60</ele>
	<time>2025-07-29T08:43:15.000Z</time>
</trkpt>
<trkpt lat="45.8790260" lon="10.2849580">
	<ele>2073.80</ele>
	<time>2025-07-29T08:43:16.000Z</time>
</trkpt>
<trkpt lat="45.8790210" lon="10.2849700">
	<ele>2073.80</ele>
	<time>2025-07-29T08:43:17.000Z</time>
</trkpt>
<trkpt lat="45.8790140" lon="10.2849780">
	<ele>2074.00</ele>
	<time>2025-07-29T08:43:18.000Z</time>
</trkpt>
<trkpt lat="45.8790050" lon="10.2849870">
	<ele>2074.20</ele>
	<time>2025-07-29T08:43:19.000Z</time>
</trkpt>
<trkpt lat="45.8789970" lon="10.2849960">
	<ele>2074.20</ele>
	<time>2025-07-29T08:43:20.000Z</time>
</trkpt>
<trkpt lat="45.8789900" lon="10.2850060">
	<ele>2074.20</ele>
	<time>2025-07-29T08:43:21.000Z</time>
</trkpt>
<trkpt lat="45.8789810" lon="10.2850160">
	<ele>2074.20</ele>
	<time>2025-07-29T08:43:22.000Z</time>
</trkpt>
<trkpt lat="45.8789730" lon="10.2850270">
	<ele>2074.20</ele>
	<time>2025-07-29T08:43:23.000Z</time>
</trkpt>
<trkpt lat="45.8789620" lon="10.2850300">
	<ele>2074.20</ele>
	<time>2025-07-29T08:43:24.000Z</time>
</trkpt>
<trkpt lat="45.8789530" lon="10.2850340">
	<ele>2074.40</ele>
	<time>2025-07-29T08:43:25.000Z</time>
</trkpt>
<trkpt lat="45.8789440" lon="10.2850420">
	<ele>2074.40</ele>
	<time>2025-07-29T08:43:26.000Z</time>
</trkpt>
<trkpt lat="45.8789350" lon="10.2850510">
	<ele>2074.60</ele>
	<time>2025-07-29T08:43:27.000Z</time>
</trkpt>
<trkpt lat="45.8789270" lon="10.2850600">
	<ele>2074.60</ele>
	<time>2025-07-29T08:43:28.000Z</time>
</trkpt>
<trkpt lat="45.8789180" lon="10.2850690">
	<ele>2074.60</ele>
	<time>2025-07-29T08:43:29.000Z</time>
</trkpt>
<trkpt lat="45.8789100" lon="10.2850740">
	<ele>2074.60</ele>
	<time>2025-07-29T08:43:30.000Z</time>
</trkpt>
<trkpt lat="45.8788990" lon="10.2850810">
	<ele>2074.60</ele>
	<time>2025-07-29T08:43:31.000Z</time>
</trkpt>
<trkpt lat="45.8788880" lon="10.2850860">
	<ele>2074.60</ele>
	<time>2025-07-29T08:43:32.000Z</time>
</trkpt>
<trkpt lat="45.8788770" lon="10.2850920">
	<ele>2074.60</ele>
	<time>2025-07-29T08:43:33.000Z</time>
</trkpt>
<trkpt lat="45.8788680" lon="10.2850940">
	<ele>2075.00</ele>
	<time>2025-07-29T08:43:34.000Z</time>
</trkpt>
<trkpt lat="45.8788580" lon="10.2850970">
	<ele>2075.00</ele>
	<time>2025-07-29T08:43:35.000Z</time>
</trkpt>
<trkpt lat="45.8788470" lon="10.2851000">
	<ele>2075.20</ele>
	<time>2025-07-29T08:43:36.000Z</time>
</trkpt>
<trkpt lat="45.8788360" lon="10.2851000">
	<ele>2075.20</ele>
	<time>2025-07-29T08:43:37.000Z</time>
</trkpt>
<trkpt lat="45.8788260" lon="10.2851010">
	<ele>2075.40</ele>
	<time>2025-07-29T08:43:38.000Z</time>
</trkpt>
<trkpt lat="45.8788170" lon="10.2851090">
	<ele>2075.60</ele>
	<time>2025-07-29T08:43:39.000Z</time>
</trkpt>
<trkpt lat="45.8788090" lon="10.2851180">
	<ele>2075.80</ele>
	<time>2025-07-29T08:43:40.000Z</time>
</trkpt>
<trkpt lat="45.8788030" lon="10.2851210">
	<ele>2076.00</ele>
	<time>2025-07-29T08:43:41.000Z</time>
</trkpt>
<trkpt lat="45.8787970" lon="10.2851260">
	<ele>2076.20</ele>
	<time>2025-07-29T08:43:42.000Z</time>
</trkpt>
<trkpt lat="45.8787880" lon="10.2851310">
	<ele>2076.40</ele>
	<time>2025-07-29T08:43:43.000Z</time>
</trkpt>
<trkpt lat="45.8787800" lon="10.2851370">
	<ele>2076.40</ele>
	<time>2025-07-29T08:43:44.000Z</time>
</trkpt>
<trkpt lat="45.8787720" lon="10.2851460">
	<ele>2076.60</ele>
	<time>2025-07-29T08:43:45.000Z</time>
</trkpt>
<trkpt lat="45.8787650" lon="10.2851540">
	<ele>2076.80</ele>
	<time>2025-07-29T08:43:46.000Z</time>
</trkpt>
<trkpt lat="45.8787570" lon="10.2851620">
	<ele>2077.00</ele>
	<time>2025-07-29T08:43:47.000Z</time>
</trkpt>
<trkpt lat="45.8787490" lon="10.2851700">
	<ele>2077.00</ele>
	<time>2025-07-29T08:43:48.000Z</time>
</trkpt>
<trkpt lat="45.8787430" lon="10.2851800">
	<ele>2077.20</ele>
	<time>2025-07-29T08:43:49.000Z</time>
</trkpt>
<trkpt lat="45.8787380" lon="10.2851880">
	<ele>2077.40</ele>
	<time>2025-07-29T08:43:50.000Z</time>
</trkpt>
<trkpt lat="45.8787300" lon="10.2851950">
	<ele>2077.60</ele>
	<time>2025-07-29T08:43:51.000Z</time>
</trkpt>
<trkpt lat="45.8787230" lon="10.2852000">
	<ele>2077.80</ele>
	<time>2025-07-29T08:43:52.000Z</time>
</trkpt>
<trkpt lat="45.8787160" lon="10.2852050">
	<ele>2078.00</ele>
	<time>2025-07-29T08:43:53.000Z</time>
</trkpt>
<trkpt lat="45.8787070" lon="10.2852100">
	<ele>2078.20</ele>
	<time>2025-07-29T08:43:54.000Z</time>
</trkpt>
<trkpt lat="45.8786990" lon="10.2852180">
	<ele>2078.40</ele>
	<time>2025-07-29T08:43:55.000Z</time>
</trkpt>
<trkpt lat="45.8786910" lon="10.2852230">
	<ele>2078.60</ele>
	<time>2025-07-29T08:43:56.000Z</time>
</trkpt>
<trkpt lat="45.8786840" lon="10.2852280">
	<ele>2078.60</ele>
	<time>2025-07-29T08:43:57.000Z</time>
</trkpt>
<trkpt lat="45.8786780" lon="10.2852330">
	<ele>2078.60</ele>
	<time>2025-07-29T08:43:58.000Z</time>
</trkpt>
<trkpt lat="45.8786690" lon="10.2852370">
	<ele>2078.80</ele>
	<time>2025-07-29T08:43:59.000Z</time>
</trkpt>
<trkpt lat="45.8786630" lon="10.2852380">
	<ele>2078.80</ele>
	<time>2025-07-29T08:44:00.000Z</time>
</trkpt>
<trkpt lat="45.8786530" lon="10.2852410">
	<ele>2079.00</ele>
	<time>2025-07-29T08:44:01.000Z</time>
</trkpt>
<trkpt lat="45.8786450" lon="10.2852480">
	<ele>2079.20</ele>
	<time>2025-07-29T08:44:02.000Z</time>
</trkpt>
<trkpt lat="45.8786380" lon="10.2852560">
	<ele>2079.20</ele>
	<time>2025-07-29T08:44:03.000Z</time>
</trkpt>
<trkpt lat="45.8786300" lon="10.2852630">
	<ele>2079.40</ele>
	<time>2025-07-29T08:44:04.000Z</time>
</trkpt>
<trkpt lat="45.8786210" lon="10.2852700">
	<ele>2079.60</ele>
	<time>2025-07-29T08:44:05.000Z</time>
</trkpt>
<trkpt lat="45.8786130" lon="10.2852770">
	<ele>2079.80</ele>
	<time>2025-07-29T08:44:06.000Z</time>
</trkpt>
<trkpt lat="45.8786070" lon="10.2852820">
	<ele>2080.00</ele>
	<time>2025-07-29T08:44:07.000Z</time>
</trkpt>
<trkpt lat="45.8785990" lon="10.2852870">
	<ele>2080.20</ele>
	<time>2025-07-29T08:44:08.000Z</time>
</trkpt>
<trkpt lat="45.8785910" lon="10.2852930">
	<ele>2080.20</ele>
	<time>2025-07-29T08:44:09.000Z</time>
</trkpt>
<trkpt lat="45.8785810" lon="10.2852940">
	<ele>2080.40</ele>
	<time>2025-07-29T08:44:10.000Z</time>
</trkpt>
<trkpt lat="45.8785720" lon="10.2852950">
	<ele>2080.60</ele>
	<time>2025-07-29T08:44:11.000Z</time>
</trkpt>
<trkpt lat="45.8785620" lon="10.2852990">
	<ele>2080.80</ele>
	<time>2025-07-29T08:44:12.000Z</time>
</trkpt>
<trkpt lat="45.8785520" lon="10.2853000">
	<ele>2080.80</ele>
	<time>2025-07-29T08:44:13.000Z</time>
</trkpt>
<trkpt lat="45.8785440" lon="10.2853030">
	<ele>2081.00</ele>
	<time>2025-07-29T08:44:14.000Z</time>
</trkpt>
<trkpt lat="45.8785340" lon="10.2853060">
	<ele>2081.00</ele>
	<time>2025-07-29T08:44:15.000Z</time>
</trkpt>
<trkpt lat="45.8785230" lon="10.2853100">
	<ele>2081.00</ele>
	<time>2025-07-29T08:44:16.000Z</time>
</trkpt>
<trkpt lat="45.8785120" lon="10.2853140">
	<ele>2081.00</ele>
	<time>2025-07-29T08:44:17.000Z</time>
</trkpt>
<trkpt lat="45.8785010" lon="10.2853200">
	<ele>2081.00</ele>
	<time>2025-07-29T08:44:18.000Z</time>
</trkpt>
<trkpt lat="45.8784920" lon="10.2853280">
	<ele>2081.00</ele>
	<time>2025-07-29T08:44:19.000Z</time>
</trkpt>
<trkpt lat="45.8784840" lon="10.2853320">
	<ele>2081.20</ele>
	<time>2025-07-29T08:44:20.000Z</time>
</trkpt>
<trkpt lat="45.8784730" lon="10.2853370">
	<ele>2081.20</ele>
	<time>2025-07-29T08:44:21.000Z</time>
</trkpt>
<trkpt lat="45.8784640" lon="10.2853400">
	<ele>2081.20</ele>
	<time>2025-07-29T08:44:22.000Z</time>
</trkpt>
<trkpt lat="45.8784540" lon="10.2853400">
	<ele>2081.20</ele>
	<time>2025-07-29T08:44:23.000Z</time>
</trkpt>
<trkpt lat="45.8784420" lon="10.2853420">
	<ele>2081.40</ele>
	<time>2025-07-29T08:44:24.000Z</time>
</trkpt>
<trkpt lat="45.8784310" lon="10.2853470">
	<ele>2081.40</ele>
	<time>2025-07-29T08:44:25.000Z</time>
</trkpt>
<trkpt lat="45.8784220" lon="10.2853520">
	<ele>2081.40</ele>
	<time>2025-07-29T08:44:26.000Z</time>
</trkpt>
<trkpt lat="45.8784150" lon="10.2853560">
	<ele>2081.40</ele>
	<time>2025-07-29T08:44:27.000Z</time>
</trkpt>
<trkpt lat="45.8784070" lon="10.2853610">
	<ele>2081.60</ele>
	<time>2025-07-29T08:44:28.000Z</time>
</trkpt>
<trkpt lat="45.8783980" lon="10.2853660">
	<ele>2081.80</ele>
	<time>2025-07-29T08:44:29.000Z</time>
</trkpt>
<trkpt lat="45.8783920" lon="10.2853730">
	<ele>2081.80</ele>
	<time>2025-07-29T08:44:30.000Z</time>
</trkpt>
<trkpt lat="45.8783860" lon="10.2853760">
	<ele>2081.80</ele>
	<time>2025-07-29T08:44:31.000Z</time>
</trkpt>
<trkpt lat="45.8783800" lon="10.2853820">
	<ele>2081.80</ele>
	<time>2025-07-29T08:44:32.000Z</time>
</trkpt>
<trkpt lat="45.8783720" lon="10.2853880">
	<ele>2081.80</ele>
	<time>2025-07-29T08:44:33.000Z</time>
</trkpt>
<trkpt lat="45.8783630" lon="10.2853930">
	<ele>2082.00</ele>
	<time>2025-07-29T08:44:34.000Z</time>
</trkpt>
<trkpt lat="45.8783520" lon="10.2854020">
	<ele>2082.00</ele>
	<time>2025-07-29T08:44:35.000Z</time>
</trkpt>
<trkpt lat="45.8783420" lon="10.2854100">
	<ele>2082.00</ele>
	<time>2025-07-29T08:44:36.000Z</time>
</trkpt>
<trkpt lat="45.8783330" lon="10.2854170">
	<ele>2082.00</ele>
	<time>2025-07-29T08:44:37.000Z</time>
</trkpt>
<trkpt lat="45.8783230" lon="10.2854260">
	<ele>2082.00</ele>
	<time>2025-07-29T08:44:38.000Z</time>
</trkpt>
<trkpt lat="45.8783130" lon="10.2854370">
	<ele>2082.00</ele>
	<time>2025-07-29T08:44:39.000Z</time>
</trkpt>
<trkpt lat="45.8783030" lon="10.2854460">
	<ele>2082.00</ele>
	<time>2025-07-29T08:44:40.000Z</time>
</trkpt>
<trkpt lat="45.8782930" lon="10.2854550">
	<ele>2082.00</ele>
	<time>2025-07-29T08:44:41.000Z</time>
</trkpt>
<trkpt lat="45.8782820" lon="10.2854640">
	<ele>2082.20</ele>
	<time>2025-07-29T08:44:42.000Z</time>
</trkpt>
<trkpt lat="45.8782740" lon="10.2854750">
	<ele>2082.20</ele>
	<time>2025-07-29T08:44:43.000Z</time>
</trkpt>
<trkpt lat="45.8782660" lon="10.2854870">
	<ele>2082.20</ele>
	<time>2025-07-29T08:44:44.000Z</time>
</trkpt>
<trkpt lat="45.8782560" lon="10.2854970">
	<ele>2082.20</ele>
	<time>2025-07-29T08:44:45.000Z</time>
</trkpt>
<trkpt lat="45.8782470" lon="10.2855070">
	<ele>2082.20</ele>
	<time>2025-07-29T08:44:46.000Z</time>
</trkpt>
<trkpt lat="45.8782360" lon="10.2855170">
	<ele>2082.40</ele>
	<time>2025-07-29T08:44:47.000Z</time>
</trkpt>
<trkpt lat="45.8782240" lon="10.2855250">
	<ele>2082.40</ele>
	<time>2025-07-29T08:44:48.000Z</time>
</trkpt>
<trkpt lat="45.8782120" lon="10.2855340">
	<ele>2082.40</ele>
	<time>2025-07-29T08:44:49.000Z</time>
</trkpt>
<trkpt lat="45.8782050" lon="10.2855480">
	<ele>2082.40</ele>
	<time>2025-07-29T08:44:50.000Z</time>
</trkpt>
<trkpt lat="45.8782020" lon="10.2855650">
	<ele>2082.40</ele>
	<time>2025-07-29T08:44:51.000Z</time>
</trkpt>
<trkpt lat="45.8781980" lon="10.2855810">
	<ele>2082.40</ele>
	<time>2025-07-29T08:44:52.000Z</time>
</trkpt>
<trkpt lat="45.8781860" lon="10.2855890">
	<ele>2082.60</ele>
	<time>2025-07-29T08:44:53.000Z</time>
</trkpt>
<trkpt lat="45.8781780" lon="10.2855950">
	<ele>2082.60</ele>
	<time>2025-07-29T08:44:54.000Z</time>
</trkpt>
<trkpt lat="45.8781700" lon="10.2856060">
	<ele>2082.60</ele>
	<time>2025-07-29T08:44:55.000Z</time>
</trkpt>
<trkpt lat="45.8781630" lon="10.2856170">
	<ele>2082.80</ele>
	<time>2025-07-29T08:44:56.000Z</time>
</trkpt>
<trkpt lat="45.8781550" lon="10.2856290">
	<ele>2082.80</ele>
	<time>2025-07-29T08:44:57.000Z</time>
</trkpt>
<trkpt lat="45.8781480" lon="10.2856400">
	<ele>2082.80</ele>
	<time>2025-07-29T08:44:58.000Z</time>
</trkpt>
<trkpt lat="45.8781410" lon="10.2856510">
	<ele>2083.00</ele>
	<time>2025-07-29T08:44:59.000Z</time>
</trkpt>
<trkpt lat="45.8781340" lon="10.2856590">
	<ele>2083.00</ele>
	<time>2025-07-29T08:45:00.000Z</time>
</trkpt>
<trkpt lat="45.8781250" lon="10.2856650">
	<ele>2083.00</ele>
	<time>2025-07-29T08:45:01.000Z</time>
</trkpt>
<trkpt lat="45.8781150" lon="10.2856680">
	<ele>2083.20</ele>
	<time>2025-07-29T08:45:02.000Z</time>
</trkpt>
<trkpt lat="45.8781070" lon="10.2856740">
	<ele>2083.20</ele>
	<time>2025-07-29T08:45:03.000Z</time>
</trkpt>
<trkpt lat="45.8780980" lon="10.2856840">
	<ele>2083.20</ele>
	<time>2025-07-29T08:45:04.000Z</time>
</trkpt>
<trkpt lat="45.8780880" lon="10.2856940">
	<ele>2083.40</ele>
	<time>2025-07-29T08:45:05.000Z</time>
</trkpt>
<trkpt lat="45.8780800" lon="10.2857030">
	<ele>2083.40</ele>
	<time>2025-07-29T08:45:06.000Z</time>
</trkpt>
<trkpt lat="45.8780720" lon="10.2857090">
	<ele>2083.60</ele>
	<time>2025-07-29T08:45:07.000Z</time>
</trkpt>
<trkpt lat="45.8780640" lon="10.2857160">
	<ele>2083.60</ele>
	<time>2025-07-29T08:45:08.000Z</time>
</trkpt>
<trkpt lat="45.8780550" lon="10.2857240">
	<ele>2083.80</ele>
	<time>2025-07-29T08:45:09.000Z</time>
</trkpt>
<trkpt lat="45.8780450" lon="10.2857280">
	<ele>2083.80</ele>
	<time>2025-07-29T08:45:10.000Z</time>
</trkpt>
<trkpt lat="45.8780340" lon="10.2857340">
	<ele>2083.80</ele>
	<time>2025-07-29T08:45:11.000Z</time>
</trkpt>
<trkpt lat="45.8780230" lon="10.2857380">
	<ele>2083.80</ele>
	<time>2025-07-29T08:45:12.000Z</time>
</trkpt>
<trkpt lat="45.8780140" lon="10.2857430">
	<ele>2084.00</ele>
	<time>2025-07-29T08:45:13.000Z</time>
</trkpt>
<trkpt lat="45.8780040" lon="10.2857470">
	<ele>2084.00</ele>
	<time>2025-07-29T08:45:14.000Z</time>
</trkpt>
<trkpt lat="45.8779940" lon="10.2857510">
	<ele>2084.20</ele>
	<time>2025-07-29T08:45:15.000Z</time>
</trkpt>
<trkpt lat="45.8779840" lon="10.2857550">
	<ele>2084.20</ele>
	<time>2025-07-29T08:45:16.000Z</time>
</trkpt>
<trkpt lat="45.8779750" lon="10.2857590">
	<ele>2084.20</ele>
	<time>2025-07-29T08:45:17.000Z</time>
</trkpt>
<trkpt lat="45.8779650" lon="10.2857640">
	<ele>2084.20</ele>
	<time>2025-07-29T08:45:18.000Z</time>
</trkpt>
<trkpt lat="45.8779540" lon="10.2857680">
	<ele>2084.20</ele>
	<time>2025-07-29T08:45:19.000Z</time>
</trkpt>
<trkpt lat="45.8779420" lon="10.2857650">
	<ele>2084.20</ele>
	<time>2025-07-29T08:45:20.000Z</time>
</trkpt>
<trkpt lat="45.8779300" lon="10.2857640">
	<ele>2084.20</ele>
	<time>2025-07-29T08:45:21.000Z</time>
</trkpt>
<trkpt lat="45.8779170" lon="10.2857650">
	<ele>2084.60</ele>
	<time>2025-07-29T08:45:22.000Z</time>
</trkpt>
<trkpt lat="45.8779070" lon="10.2857680">
	<ele>2085.00</ele>
	<time>2025-07-29T08:45:23.000Z</time>
</trkpt>
<trkpt lat="45.8778970" lon="10.2857650">
	<ele>2085.20</ele>
	<time>2025-07-29T08:45:24.000Z</time>
</trkpt>
<trkpt lat="45.8778900" lon="10.2857650">
	<ele>2085.40</ele>
	<time>2025-07-29T08:45:25.000Z</time>
</trkpt>
<trkpt lat="45.8778840" lon="10.2857620">
	<ele>2085.60</ele>
	<time>2025-07-29T08:45:26.000Z</time>
</trkpt>
<trkpt lat="45.8778770" lon="10.2857600">
	<ele>2085.60</ele>
	<time>2025-07-29T08:45:27.000Z</time>
</trkpt>
<trkpt lat="45.8778700" lon="10.2857600">
	<ele>2085.60</ele>
	<time>2025-07-29T08:45:28.000Z</time>
</trkpt>
<trkpt lat="45.8778620" lon="10.2857600">
	<ele>2085.80</ele>
	<time>2025-07-29T08:45:29.000Z</time>
</trkpt>
<trkpt lat="45.8778520" lon="10.2857620">
	<ele>2085.80</ele>
	<time>2025-07-29T08:45:30.000Z</time>
</trkpt>
<trkpt lat="45.8778450" lon="10.2857590">
	<ele>2086.00</ele>
	<time>2025-07-29T08:45:31.000Z</time>
</trkpt>
<trkpt lat="45.8778350" lon="10.2857510">
	<ele>2086.20</ele>
	<time>2025-07-29T08:45:32.000Z</time>
</trkpt>
<trkpt lat="45.8778260" lon="10.2857460">
	<ele>2086.20</ele>
	<time>2025-07-29T08:45:33.000Z</time>
</trkpt>
<trkpt lat="45.8778210" lon="10.2857450">
	<ele>2086.40</ele>
	<time>2025-07-29T08:45:34.000Z</time>
</trkpt>
<trkpt lat="45.8778150" lon="10.2857410">
	<ele>2086.80</ele>
	<time>2025-07-29T08:45:35.000Z</time>
</trkpt>
<trkpt lat="45.8778100" lon="10.2857400">
	<ele>2087.20</ele>
	<time>2025-07-29T08:45:36.000Z</time>
</trkpt>
<trkpt lat="45.8778050" lon="10.2857340">
	<ele>2087.40</ele>
	<time>2025-07-29T08:45:37.000Z</time>
</trkpt>
<trkpt lat="45.8777970" lon="10.2857280">
	<ele>2087.60</ele>
	<time>2025-07-29T08:45:38.000Z</time>
</trkpt>
<trkpt lat="45.8777860" lon="10.2857250">
	<ele>2087.60</ele>
	<time>2025-07-29T08:45:39.000Z</time>
</trkpt>
<trkpt lat="45.8777770" lon="10.2857220">
	<ele>2087.80</ele>
	<time>2025-07-29T08:45:40.000Z</time>
</trkpt>
<trkpt lat="45.8777680" lon="10.2857200">
	<ele>2088.00</ele>
	<time>2025-07-29T08:45:41.000Z</time>
</trkpt>
<trkpt lat="45.8777600" lon="10.2857190">
	<ele>2088.20</ele>
	<time>2025-07-29T08:45:42.000Z</time>
</trkpt>
<trkpt lat="45.8777510" lon="10.2857180">
	<ele>2088.20</ele>
	<time>2025-07-29T08:45:43.000Z</time>
</trkpt>
<trkpt lat="45.8777440" lon="10.2857190">
	<ele>2088.40</ele>
	<time>2025-07-29T08:45:44.000Z</time>
</trkpt>
<trkpt lat="45.8777340" lon="10.2857200">
	<ele>2088.60</ele>
	<time>2025-07-29T08:45:45.000Z</time>
</trkpt>
<trkpt lat="45.8777260" lon="10.2857200">
	<ele>2088.80</ele>
	<time>2025-07-29T08:45:46.000Z</time>
</trkpt>
<trkpt lat="45.8777180" lon="10.2857200">
	<ele>2089.00</ele>
	<time>2025-07-29T08:45:47.000Z</time>
</trkpt>
<trkpt lat="45.8777110" lon="10.2857180">
	<ele>2089.40</ele>
	<time>2025-07-29T08:45:48.000Z</time>
</trkpt>
<trkpt lat="45.8777070" lon="10.2857170">
	<ele>2089.80</ele>
	<time>2025-07-29T08:45:49.000Z</time>
</trkpt>
<trkpt lat="45.8776990" lon="10.2857150">
	<ele>2090.00</ele>
	<time>2025-07-29T08:45:50.000Z</time>
</trkpt>
<trkpt lat="45.8776900" lon="10.2857130">
	<ele>2090.20</ele>
	<time>2025-07-29T08:45:51.000Z</time>
</trkpt>
<trkpt lat="45.8776810" lon="10.2857110">
	<ele>2090.40</ele>
	<time>2025-07-29T08:45:52.000Z</time>
</trkpt>
<trkpt lat="45.8776720" lon="10.2857080">
	<ele>2090.60</ele>
	<time>2025-07-29T08:45:53.000Z</time>
</trkpt>
<trkpt lat="45.8776650" lon="10.2857040">
	<ele>2090.60</ele>
	<time>2025-07-29T08:45:54.000Z</time>
</trkpt>
<trkpt lat="45.8776570" lon="10.2857020">
	<ele>2090.60</ele>
	<time>2025-07-29T08:45:55.000Z</time>
</trkpt>
<trkpt lat="45.8776470" lon="10.2856980">
	<ele>2090.80</ele>
	<time>2025-07-29T08:45:56.000Z</time>
</trkpt>
<trkpt lat="45.8776400" lon="10.2856940">
	<ele>2091.00</ele>
	<time>2025-07-29T08:45:57.000Z</time>
</trkpt>
<trkpt lat="45.8776310" lon="10.2856930">
	<ele>2091.40</ele>
	<time>2025-07-29T08:45:58.000Z</time>
</trkpt>
<trkpt lat="45.8776200" lon="10.2856910">
	<ele>2091.40</ele>
	<time>2025-07-29T08:45:59.000Z</time>
</trkpt>
<trkpt lat="45.8776110" lon="10.2856920">
	<ele>2091.60</ele>
	<time>2025-07-29T08:46:00.000Z</time>
</trkpt>
<trkpt lat="45.8776060" lon="10.2856880">
	<ele>2091.80</ele>
	<time>2025-07-29T08:46:01.000Z</time>
</trkpt>
<trkpt lat="45.8775990" lon="10.2856830">
	<ele>2092.00</ele>
	<time>2025-07-29T08:46:02.000Z</time>
</trkpt>
<trkpt lat="45.8775910" lon="10.2856810">
	<ele>2092.40</ele>
	<time>2025-07-29T08:46:03.000Z</time>
</trkpt>
<trkpt lat="45.8775830" lon="10.2856780">
	<ele>2092.60</ele>
	<time>2025-07-29T08:46:04.000Z</time>
</trkpt>
<trkpt lat="45.8775750" lon="10.2856740">
	<ele>2092.60</ele>
	<time>2025-07-29T08:46:05.000Z</time>
</trkpt>
<trkpt lat="45.8775690" lon="10.2856710">
	<ele>2092.80</ele>
	<time>2025-07-29T08:46:06.000Z</time>
</trkpt>
<trkpt lat="45.8775590" lon="10.2856680">
	<ele>2093.00</ele>
	<time>2025-07-29T08:46:07.000Z</time>
</trkpt>
<trkpt lat="45.8775480" lon="10.2856640">
	<ele>2093.00</ele>
	<time>2025-07-29T08:46:08.000Z</time>
</trkpt>
<trkpt lat="45.8775390" lon="10.2856650">
	<ele>2093.20</ele>
	<time>2025-07-29T08:46:09.000Z</time>
</trkpt>
<trkpt lat="45.8775300" lon="10.2856670">
	<ele>2093.40</ele>
	<time>2025-07-29T08:46:10.000Z</time>
</trkpt>
<trkpt lat="45.8775210" lon="10.2856680">
	<ele>2093.60</ele>
	<time>2025-07-29T08:46:11.000Z</time>
</trkpt>
<trkpt lat="45.8775130" lon="10.2856680">
	<ele>2093.80</ele>
	<time>2025-07-29T08:46:12.000Z</time>
</trkpt>
<trkpt lat="45.8775040" lon="10.2856670">
	<ele>2094.20</ele>
	<time>2025-07-29T08:46:13.000Z</time>
</trkpt>
<trkpt lat="45.8774940" lon="10.2856660">
	<ele>2094.40</ele>
	<time>2025-07-29T08:46:14.000Z</time>
</trkpt>
<trkpt lat="45.8774840" lon="10.2856650">
	<ele>2094.60</ele>
	<time>2025-07-29T08:46:15.000Z</time>
</trkpt>
<trkpt lat="45.8774750" lon="10.2856630">
	<ele>2094.80</ele>
	<time>2025-07-29T08:46:16.000Z</time>
</trkpt>
<trkpt lat="45.8774660" lon="10.2856630">
	<ele>2095.00</ele>
	<time>2025-07-29T08:46:17.000Z</time>
</trkpt>
<trkpt lat="45.8774550" lon="10.2856630">
	<ele>2095.20</ele>
	<time>2025-07-29T08:46:18.000Z</time>
</trkpt>
<trkpt lat="45.8774440" lon="10.2856610">
	<ele>2095.40</ele>
	<time>2025-07-29T08:46:19.000Z</time>
</trkpt>
<trkpt lat="45.8774350" lon="10.2856610">
	<ele>2095.60</ele>
	<time>2025-07-29T08:46:20.000Z</time>
</trkpt>
<trkpt lat="45.8774260" lon="10.2856640">
	<ele>2095.80</ele>
	<time>2025-07-29T08:46:21.000Z</time>
</trkpt>
<trkpt lat="45.8774170" lon="10.2856700">
	<ele>2095.80</ele>
	<time>2025-07-29T08:46:22.000Z</time>
</trkpt>
<trkpt lat="45.8774070" lon="10.2856760">
	<ele>2096.00</ele>
	<time>2025-07-29T08:46:23.000Z</time>
</trkpt>
<trkpt lat="45.8773990" lon="10.2856810">
	<ele>2096.00</ele>
	<time>2025-07-29T08:46:24.000Z</time>
</trkpt>
<trkpt lat="45.8773880" lon="10.2856850">
	<ele>2096.20</ele>
	<time>2025-07-29T08:46:25.000Z</time>
</trkpt>
<trkpt lat="45.8773810" lon="10.2856860">
	<ele>2096.40</ele>
	<time>2025-07-29T08:46:26.000Z</time>
</trkpt>
<trkpt lat="45.8773720" lon="10.2856870">
	<ele>2096.40</ele>
	<time>2025-07-29T08:46:27.000Z</time>
</trkpt>
<trkpt lat="45.8773640" lon="10.2856880">
	<ele>2096.60</ele>
	<time>2025-07-29T08:46:28.000Z</time>
</trkpt>
<trkpt lat="45.8773570" lon="10.2856900">
	<ele>2096.60</ele>
	<time>2025-07-29T08:46:29.000Z</time>
</trkpt>
<trkpt lat="45.8773460" lon="10.2856920">
	<ele>2097.00</ele>
	<time>2025-07-29T08:46:30.000Z</time>
</trkpt>
<trkpt lat="45.8773360" lon="10.2856920">
	<ele>2097.20</ele>
	<time>2025-07-29T08:46:31.000Z</time>
</trkpt>
<trkpt lat="45.8773260" lon="10.2856930">
	<ele>2097.20</ele>
	<time>2025-07-29T08:46:32.000Z</time>
</trkpt>
<trkpt lat="45.8773170" lon="10.2856950">
	<ele>2097.40</ele>
	<time>2025-07-29T08:46:33.000Z</time>
</trkpt>
<trkpt lat="45.8773050" lon="10.2856990">
	<ele>2097.40</ele>
	<time>2025-07-29T08:46:34.000Z</time>
</trkpt>
<trkpt lat="45.8772940" lon="10.2857000">
	<ele>2097.60</ele>
	<time>2025-07-29T08:46:35.000Z</time>
</trkpt>
<trkpt lat="45.8772860" lon="10.2857020">
	<ele>2097.60</ele>
	<time>2025-07-29T08:46:36.000Z</time>
</trkpt>
<trkpt lat="45.8772770" lon="10.2857040">
	<ele>2097.80</ele>
	<time>2025-07-29T08:46:37.000Z</time>
</trkpt>
<trkpt lat="45.8772690" lon="10.2857080">
	<ele>2097.80</ele>
	<time>2025-07-29T08:46:38.000Z</time>
</trkpt>
<trkpt lat="45.8772580" lon="10.2857100">
	<ele>2098.00</ele>
	<time>2025-07-29T08:46:39.000Z</time>
</trkpt>
<trkpt lat="45.8772490" lon="10.2857140">
	<ele>2098.00</ele>
	<time>2025-07-29T08:46:40.000Z</time>
</trkpt>
<trkpt lat="45.8772390" lon="10.2857170">
	<ele>2098.00</ele>
	<time>2025-07-29T08:46:41.000Z</time>
</trkpt>
<trkpt lat="45.8772300" lon="10.2857210">
	<ele>2098.20</ele>
	<time>2025-07-29T08:46:42.000Z</time>
</trkpt>
<trkpt lat="45.8772200" lon="10.2857230">
	<ele>2098.40</ele>
	<time>2025-07-29T08:46:43.000Z</time>
</trkpt>
<trkpt lat="45.8772110" lon="10.2857240">
	<ele>2098.40</ele>
	<time>2025-07-29T08:46:44.000Z</time>
</trkpt>
<trkpt lat="45.8772020" lon="10.2857240">
	<ele>2098.60</ele>
	<time>2025-07-29T08:46:45.000Z</time>
</trkpt>
<trkpt lat="45.8771950" lon="10.2857260">
	<ele>2098.60</ele>
	<time>2025-07-29T08:46:46.000Z</time>
</trkpt>
<trkpt lat="45.8771890" lon="10.2857270">
	<ele>2098.80</ele>
	<time>2025-07-29T08:46:47.000Z</time>
</trkpt>
<trkpt lat="45.8771850" lon="10.2857290">
	<ele>2099.00</ele>
	<time>2025-07-29T08:46:48.000Z</time>
</trkpt>
<trkpt lat="45.8771820" lon="10.2857300">
	<ele>2099.00</ele>
	<time>2025-07-29T08:46:49.000Z</time>
</trkpt>
<trkpt lat="45.8771790" lon="10.2857300">
	<ele>2099.20</ele>
	<time>2025-07-29T08:46:50.000Z</time>
</trkpt>
<trkpt lat="45.8771730" lon="10.2857310">
	<ele>2099.40</ele>
	<time>2025-07-29T08:46:51.000Z</time>
</trkpt>
<trkpt lat="45.8771650" lon="10.2857300">
	<ele>2099.40</ele>
	<time>2025-07-29T08:46:52.000Z</time>
</trkpt>
<trkpt lat="45.8771550" lon="10.2857290">
	<ele>2099.40</ele>
	<time>2025-07-29T08:46:53.000Z</time>
</trkpt>
<trkpt lat="45.8771460" lon="10.2857340">
	<ele>2099.40</ele>
	<time>2025-07-29T08:46:54.000Z</time>
</trkpt>
<trkpt lat="45.8771370" lon="10.2857370">
	<ele>2099.60</ele>
	<time>2025-07-29T08:46:55.000Z</time>
</trkpt>
<trkpt lat="45.8771270" lon="10.2857370">
	<ele>2099.80</ele>
	<time>2025-07-29T08:46:56.000Z</time>
</trkpt>
<trkpt lat="45.8771170" lon="10.2857370">
	<ele>2099.80</ele>
	<time>2025-07-29T08:46:57.000Z</time>
</trkpt>
<trkpt lat="45.8771060" lon="10.2857380">
	<ele>2099.80</ele>
	<time>2025-07-29T08:46:58.000Z</time>
</trkpt>
<trkpt lat="45.8770990" lon="10.2857420">
	<ele>2100.00</ele>
	<time>2025-07-29T08:46:59.000Z</time>
</trkpt>
<trkpt lat="45.8770890" lon="10.2857440">
	<ele>2100.40</ele>
	<time>2025-07-29T08:47:00.000Z</time>
</trkpt>
<trkpt lat="45.8770780" lon="10.2857440">
	<ele>2100.60</ele>
	<time>2025-07-29T08:47:01.000Z</time>
</trkpt>
<trkpt lat="45.8770700" lon="10.2857440">
	<ele>2100.80</ele>
	<time>2025-07-29T08:47:02.000Z</time>
</trkpt>
<trkpt lat="45.8770610" lon="10.2857460">
	<ele>2100.80</ele>
	<time>2025-07-29T08:47:03.000Z</time>
</trkpt>
<trkpt lat="45.8770500" lon="10.2857480">
	<ele>2101.00</ele>
	<time>2025-07-29T08:47:04.000Z</time>
</trkpt>
<trkpt lat="45.8770380" lon="10.2857480">
	<ele>2101.20</ele>
	<time>2025-07-29T08:47:05.000Z</time>
</trkpt>
<trkpt lat="45.8770270" lon="10.2857470">
	<ele>2101.20</ele>
	<time>2025-07-29T08:47:06.000Z</time>
</trkpt>
<trkpt lat="45.8770170" lon="10.2857470">
	<ele>2101.40</ele>
	<time>2025-07-29T08:47:07.000Z</time>
</trkpt>
<trkpt lat="45.8770070" lon="10.2857480">
	<ele>2101.40</ele>
	<time>2025-07-29T08:47:08.000Z</time>
</trkpt>
<trkpt lat="45.8769980" lon="10.2857530">
	<ele>2101.40</ele>
	<time>2025-07-29T08:47:09.000Z</time>
</trkpt>
<trkpt lat="45.8769890" lon="10.2857580">
	<ele>2101.60</ele>
	<time>2025-07-29T08:47:10.000Z</time>
</trkpt>
<trkpt lat="45.8769810" lon="10.2857640">
	<ele>2101.60</ele>
	<time>2025-07-29T08:47:11.000Z</time>
</trkpt>
<trkpt lat="45.8769710" lon="10.2857670">
	<ele>2101.60</ele>
	<time>2025-07-29T08:47:12.000Z</time>
</trkpt>
<trkpt lat="45.8769610" lon="10.2857690">
	<ele>2101.80</ele>
	<time>2025-07-29T08:47:13.000Z</time>
</trkpt>
<trkpt lat="45.8769480" lon="10.2857680">
	<ele>2101.80</ele>
	<time>2025-07-29T08:47:14.000Z</time>
</trkpt>
<trkpt lat="45.8769380" lon="10.2857680">
	<ele>2101.80</ele>
	<time>2025-07-29T08:47:15.000Z</time>
</trkpt>
<trkpt lat="45.8769270" lon="10.2857700">
	<ele>2102.00</ele>
	<time>2025-07-29T08:47:16.000Z</time>
</trkpt>
<trkpt lat="45.8769180" lon="10.2857730">
	<ele>2102.00</ele>
	<time>2025-07-29T08:47:17.000Z</time>
</trkpt>
<trkpt lat="45.8769110" lon="10.2857790">
	<ele>2102.20</ele>
	<time>2025-07-29T08:47:18.000Z</time>
</trkpt>
<trkpt lat="45.8769050" lon="10.2857860">
	<ele>2102.40</ele>
	<time>2025-07-29T08:47:19.000Z</time>
</trkpt>
<trkpt lat="45.8768960" lon="10.2857910">
	<ele>2102.60</ele>
	<time>2025-07-29T08:47:20.000Z</time>
</trkpt>
<trkpt lat="45.8768870" lon="10.2857950">
	<ele>2102.80</ele>
	<time>2025-07-29T08:47:21.000Z</time>
</trkpt>
<trkpt lat="45.8768770" lon="10.2858000">
	<ele>2102.80</ele>
	<time>2025-07-29T08:47:22.000Z</time>
</trkpt>
<trkpt lat="45.8768650" lon="10.2858020">
	<ele>2103.00</ele>
	<time>2025-07-29T08:47:23.000Z</time>
</trkpt>
<trkpt lat="45.8768530" lon="10.2858010">
	<ele>2103.00</ele>
	<time>2025-07-29T08:47:24.000Z</time>
</trkpt>
<trkpt lat="45.8768410" lon="10.2858020">
	<ele>2103.00</ele>
	<time>2025-07-29T08:47:25.000Z</time>
</trkpt>
<trkpt lat="45.8768280" lon="10.2858020">
	<ele>2103.00</ele>
	<time>2025-07-29T08:47:26.000Z</time>
</trkpt>
<trkpt lat="45.8768150" lon="10.2857970">
	<ele>2103.00</ele>
	<time>2025-07-29T08:47:27.000Z</time>
</trkpt>
<trkpt lat="45.8768020" lon="10.2857930">
	<ele>2102.80</ele>
	<time>2025-07-29T08:47:28.000Z</time>
</trkpt>
<trkpt lat="45.8767910" lon="10.2857950">
	<ele>2102.80</ele>
	<time>2025-07-29T08:47:29.000Z</time>
</trkpt>
<trkpt lat="45.8767790" lon="10.2857980">
	<ele>2103.00</ele>
	<time>2025-07-29T08:47:30.000Z</time>
</trkpt>
<trkpt lat="45.8767710" lon="10.2858010">
	<ele>2103.00</ele>
	<time>2025-07-29T08:47:31.000Z</time>
</trkpt>
<trkpt lat="45.8767610" lon="10.2858040">
	<ele>2103.00</ele>
	<time>2025-07-29T08:47:32.000Z</time>
</trkpt>
<trkpt lat="45.8767510" lon="10.2858100">
	<ele>2103.20</ele>
	<time>2025-07-29T08:47:33.000Z</time>
</trkpt>
<trkpt lat="45.8767410" lon="10.2858110">
	<ele>2103.20</ele>
	<time>2025-07-29T08:47:34.000Z</time>
</trkpt>
<trkpt lat="45.8767300" lon="10.2858090">
	<ele>2103.20</ele>
	<time>2025-07-29T08:47:35.000Z</time>
</trkpt>
<trkpt lat="45.8767160" lon="10.2858070">
	<ele>2103.20</ele>
	<time>2025-07-29T08:47:36.000Z</time>
</trkpt>
<trkpt lat="45.8767030" lon="10.2858060">
	<ele>2103.20</ele>
	<time>2025-07-29T08:47:37.000Z</time>
</trkpt>
<trkpt lat="45.8766910" lon="10.2858080">
	<ele>2103.20</ele>
	<time>2025-07-29T08:47:38.000Z</time>
</trkpt>
<trkpt lat="45.8766830" lon="10.2858080">
	<ele>2103.20</ele>
	<time>2025-07-29T08:47:39.000Z</time>
</trkpt>
<trkpt lat="45.8766740" lon="10.2858080">
	<ele>2103.40</ele>
	<time>2025-07-29T08:47:40.000Z</time>
</trkpt>
<trkpt lat="45.8766630" lon="10.2858030">
	<ele>2103.60</ele>
	<time>2025-07-29T08:47:41.000Z</time>
</trkpt>
<trkpt lat="45.8766550" lon="10.2858010">
	<ele>2103.60</ele>
	<time>2025-07-29T08:47:42.000Z</time>
</trkpt>
<trkpt lat="45.8766500" lon="10.2858040">
	<ele>2103.80</ele>
	<time>2025-07-29T08:47:43.000Z</time>
</trkpt>
<trkpt lat="45.8766420" lon="10.2858070">
	<ele>2103.80</ele>
	<time>2025-07-29T08:47:44.000Z</time>
</trkpt>
<trkpt lat="45.8766330" lon="10.2858100">
	<ele>2103.80</ele>
	<time>2025-07-29T08:47:45.000Z</time>
</trkpt>
<trkpt lat="45.8766200" lon="10.2858060">
	<ele>2104.00</ele>
	<time>2025-07-29T08:47:46.000Z</time>
</trkpt>
<trkpt lat="45.8766120" lon="10.2858070">
	<ele>2104.00</ele>
	<time>2025-07-29T08:47:47.000Z</time>
</trkpt>
<trkpt lat="45.8766020" lon="10.2858080">
	<ele>2104.20</ele>
	<time>2025-07-29T08:47:48.000Z</time>
</trkpt>
<trkpt lat="45.8765950" lon="10.2858110">
	<ele>2104.20</ele>
	<time>2025-07-29T08:47:49.000Z</time>
</trkpt>
<trkpt lat="45.8765910" lon="10.2858140">
	<ele>2104.20</ele>
	<time>2025-07-29T08:47:50.000Z</time>
</trkpt>
<trkpt lat="45.8765820" lon="10.2858130">
	<ele>2104.40</ele>
	<time>2025-07-29T08:47:51.000Z</time>
</trkpt>
<trkpt lat="45.8765760" lon="10.2858170">
	<ele>2104.40</ele>
	<time>2025-07-29T08:47:52.000Z</time>
</trkpt>
<trkpt lat="45.8765650" lon="10.2858160">
	<ele>2104.40</ele>
	<time>2025-07-29T08:47:53.000Z</time>
</trkpt>
<trkpt lat="45.8765570" lon="10.2858170">
	<ele>2104.40</ele>
	<time>2025-07-29T08:47:54.000Z</time>
</trkpt>
<trkpt lat="45.8765480" lon="10.2858170">
	<ele>2104.40</ele>
	<time>2025-07-29T08:47:55.000Z</time>
</trkpt>
<trkpt lat="45.8765410" lon="10.2858180">
	<ele>2104.40</ele>
	<time>2025-07-29T08:47:56.000Z</time>
</trkpt>
<trkpt lat="45.8765330" lon="10.2858190">
	<ele>2104.40</ele>
	<time>2025-07-29T08:47:57.000Z</time>
</trkpt>
<trkpt lat="45.8765270" lon="10.2858240">
	<ele>2104.60</ele>
	<time>2025-07-29T08:47:58.000Z</time>
</trkpt>
<trkpt lat="45.8765200" lon="10.2858250">
	<ele>2104.60</ele>
	<time>2025-07-29T08:47:59.000Z</time>
</trkpt>
<trkpt lat="45.8765120" lon="10.2858250">
	<ele>2104.80</ele>
	<time>2025-07-29T08:48:00.000Z</time>
</trkpt>
<trkpt lat="45.8765000" lon="10.2858200">
	<ele>2105.00</ele>
	<time>2025-07-29T08:48:01.000Z</time>
</trkpt>
<trkpt lat="45.8764880" lon="10.2858190">
	<ele>2105.20</ele>
	<time>2025-07-29T08:48:02.000Z</time>
</trkpt>
<trkpt lat="45.8764740" lon="10.2858190">
	<ele>2105.20</ele>
	<time>2025-07-29T08:48:03.000Z</time>
</trkpt>
<trkpt lat="45.8764620" lon="10.2858180">
	<ele>2105.20</ele>
	<time>2025-07-29T08:48:04.000Z</time>
</trkpt>
<trkpt lat="45.8764490" lon="10.2858160">
	<ele>2105.20</ele>
	<time>2025-07-29T08:48:05.000Z</time>
</trkpt>
<trkpt lat="45.8764380" lon="10.2858200">
	<ele>2105.20</ele>
	<time>2025-07-29T08:48:06.000Z</time>
</trkpt>
<trkpt lat="45.8764280" lon="10.2858230">
	<ele>2105.20</ele>
	<time>2025-07-29T08:48:07.000Z</time>
</trkpt>
<trkpt lat="45.8764160" lon="10.2858240">
	<ele>2105.20</ele>
	<time>2025-07-29T08:48:08.000Z</time>
</trkpt>
<trkpt lat="45.8764050" lon="10.2858230">
	<ele>2105.20</ele>
	<time>2025-07-29T08:48:09.000Z</time>
</trkpt>
<trkpt lat="45.8763910" lon="10.2858180">
	<ele>2105.20</ele>
	<time>2025-07-29T08:48:10.000Z</time>
</trkpt>
<trkpt lat="45.8763790" lon="10.2858150">
	<ele>2105.20</ele>
	<time>2025-07-29T08:48:11.000Z</time>
</trkpt>
<trkpt lat="45.8763660" lon="10.2858130">
	<ele>2105.40</ele>
	<time>2025-07-29T08:48:12.000Z</time>
</trkpt>
<trkpt lat="45.8763560" lon="10.2858140">
	<ele>2105.40</ele>
	<time>2025-07-29T08:48:13.000Z</time>
</trkpt>
<trkpt lat="45.8763500" lon="10.2858140">
	<ele>2105.60</ele>
	<time>2025-07-29T08:48:14.000Z</time>
</trkpt>
<trkpt lat="45.8763450" lon="10.2858200">
	<ele>2105.60</ele>
	<time>2025-07-29T08:48:15.000Z</time>
</trkpt>
<trkpt lat="45.8763400" lon="10.2858180">
	<ele>2105.60</ele>
	<time>2025-07-29T08:48:16.000Z</time>
</trkpt>
<trkpt lat="45.8763280" lon="10.2858150">
	<ele>2105.80</ele>
	<time>2025-07-29T08:48:17.000Z</time>
</trkpt>
<trkpt lat="45.8763180" lon="10.2858130">
	<ele>2105.80</ele>
	<time>2025-07-29T08:48:18.000Z</time>
</trkpt>
<trkpt lat="45.8763110" lon="10.2858130">
	<ele>2105.80</ele>
	<time>2025-07-29T08:48:19.000Z</time>
</trkpt>
<trkpt lat="45.8762990" lon="10.2858130">
	<ele>2105.80</ele>
	<time>2025-07-29T08:48:20.000Z</time>
</trkpt>
<trkpt lat="45.8762860" lon="10.2858160">
	<ele>2105.80</ele>
	<time>2025-07-29T08:48:21.000Z</time>
</trkpt>
<trkpt lat="45.8762730" lon="10.2858210">
	<ele>2105.80</ele>
	<time>2025-07-29T08:48:22.000Z</time>
</trkpt>
<trkpt lat="45.8762650" lon="10.2858270">
	<ele>2105.80</ele>
	<time>2025-07-29T08:48:23.000Z</time>
</trkpt>
<trkpt lat="45.8762540" lon="10.2858320">
	<ele>2106.00</ele>
	<time>2025-07-29T08:48:24.000Z</time>
</trkpt>
<trkpt lat="45.8762460" lon="10.2858330">
	<ele>2106.00</ele>
	<time>2025-07-29T08:48:25.000Z</time>
</trkpt>
<trkpt lat="45.8762340" lon="10.2858310">
	<ele>2106.20</ele>
	<time>2025-07-29T08:48:26.000Z</time>
</trkpt>
<trkpt lat="45.8762230" lon="10.2858260">
	<ele>2106.40</ele>
	<time>2025-07-29T08:48:27.000Z</time>
</trkpt>
<trkpt lat="45.8762130" lon="10.2858250">
	<ele>2106.40</ele>
	<time>2025-07-29T08:48:28.000Z</time>
</trkpt>
<trkpt lat="45.8762020" lon="10.2858210">
	<ele>2106.40</ele>
	<time>2025-07-29T08:48:29.000Z</time>
</trkpt>
<trkpt lat="45.8761900" lon="10.2858150">
	<ele>2106.40</ele>
	<time>2025-07-29T08:48:30.000Z</time>
</trkpt>
<trkpt lat="45.8761800" lon="10.2858150">
	<ele>2106.40</ele>
	<time>2025-07-29T08:48:31.000Z</time>
</trkpt>
<trkpt lat="45.8761710" lon="10.2858190">
	<ele>2106.40</ele>
	<time>2025-07-29T08:48:32.000Z</time>
</trkpt>
<trkpt lat="45.8761610" lon="10.2858140">
	<ele>2106.40</ele>
	<time>2025-07-29T08:48:33.000Z</time>
</trkpt>
<trkpt lat="45.8761500" lon="10.2858140">
	<ele>2106.40</ele>
	<time>2025-07-29T08:48:34.000Z</time>
</trkpt>
<trkpt lat="45.8761390" lon="10.2858140">
	<ele>2106.40</ele>
	<time>2025-07-29T08:48:35.000Z</time>
</trkpt>
<trkpt lat="45.8761270" lon="10.2858140">
	<ele>2106.40</ele>
	<time>2025-07-29T08:48:36.000Z</time>
</trkpt>
<trkpt lat="45.8761180" lon="10.2858170">
	<ele>2106.40</ele>
	<time>2025-07-29T08:48:37.000Z</time>
</trkpt>
<trkpt lat="45.8761070" lon="10.2858170">
	<ele>2106.40</ele>
	<time>2025-07-29T08:48:38.000Z</time>
</trkpt>
<trkpt lat="45.8760960" lon="10.2858160">
	<ele>2106.40</ele>
	<time>2025-07-29T08:48:39.000Z</time>
</trkpt>
<trkpt lat="45.8760860" lon="10.2858160">
	<ele>2106.40</ele>
	<time>2025-07-29T08:48:40.000Z</time>
</trkpt>
<trkpt lat="45.8760750" lon="10.2858170">
	<ele>2106.40</ele>
	<time>2025-07-29T08:48:41.000Z</time>
</trkpt>
<trkpt lat="45.8760630" lon="10.2858170">
	<ele>2106.40</ele>
	<time>2025-07-29T08:48:42.000Z</time>
</trkpt>
<trkpt lat="45.8760510" lon="10.2858160">
	<ele>2106.40</ele>
	<time>2025-07-29T08:48:43.000Z</time>
</trkpt>
<trkpt lat="45.8760370" lon="10.2858120">
	<ele>2106.60</ele>
	<time>2025-07-29T08:48:44.000Z</time>
</trkpt>
<trkpt lat="45.8760230" lon="10.2858080">
	<ele>2106.60</ele>
	<time>2025-07-29T08:48:45.000Z</time>
</trkpt>
<trkpt lat="45.8760080" lon="10.2858020">
	<ele>2106.60</ele>
	<time>2025-07-29T08:48:46.000Z</time>
</trkpt>
<trkpt lat="45.8759970" lon="10.2858000">
	<ele>2106.80</ele>
	<time>2025-07-29T08:48:47.000Z</time>
</trkpt>
<trkpt lat="45.8759870" lon="10.2858000">
	<ele>2106.80</ele>
	<time>2025-07-29T08:48:48.000Z</time>
</trkpt>
<trkpt lat="45.8759750" lon="10.2857990">
	<ele>2106.80</ele>
	<time>2025-07-29T08:48:49.000Z</time>
</trkpt>
<trkpt lat="45.8759670" lon="10.2858040">
	<ele>2106.80</ele>
	<time>2025-07-29T08:48:50.000Z</time>
</trkpt>
<trkpt lat="45.8759590" lon="10.2858060">
	<ele>2106.80</ele>
	<time>2025-07-29T08:48:51.000Z</time>
</trkpt>
<trkpt lat="45.8759510" lon="10.2858090">
	<ele>2106.80</ele>
	<time>2025-07-29T08:48:52.000Z</time>
</trkpt>
<trkpt lat="45.8759440" lon="10.2858110">
	<ele>2106.80</ele>
	<time>2025-07-29T08:48:53.000Z</time>
</trkpt>
<trkpt lat="45.8759410" lon="10.2858070">
	<ele>2106.80</ele>
	<time>2025-07-29T08:48:54.000Z</time>
</trkpt>
<trkpt lat="45.8759390" lon="10.2858050">
	<ele>2107.00</ele>
	<time>2025-07-29T08:48:55.000Z</time>
</trkpt>
<trkpt lat="45.8759380" lon="10.2858030">
	<ele>2107.00</ele>
	<time>2025-07-29T08:48:56.000Z</time>
</trkpt>
<trkpt lat="45.8759390" lon="10.2858020">
	<ele>2107.00</ele>
	<time>2025-07-29T08:48:57.000Z</time>
</trkpt>
<trkpt lat="45.8759390" lon="10.2858010">
	<ele>2107.20</ele>
	<time>2025-07-29T08:48:58.000Z</time>
</trkpt>
<trkpt lat="45.8759390" lon="10.2858000">
	<ele>2107.20</ele>
	<time>2025-07-29T08:48:59.000Z</time>
</trkpt>
<trkpt lat="45.8759400" lon="10.2858000">
	<ele>2107.20</ele>
	<time>2025-07-29T08:49:00.000Z</time>
</trkpt>
<trkpt lat="45.8759390" lon="10.2858020">
	<ele>2107.00</ele>
	<time>2025-07-29T08:49:01.000Z</time>
</trkpt>
<trkpt lat="45.8759360" lon="10.2858070">
	<ele>2107.00</ele>
	<time>2025-07-29T08:49:02.000Z</time>
</trkpt>
<trkpt lat="45.8759300" lon="10.2858160">
	<ele>2107.00</ele>
	<time>2025-07-29T08:49:03.000Z</time>
</trkpt>
<trkpt lat="45.8759240" lon="10.2858250">
	<ele>2107.00</ele>
	<time>2025-07-29T08:49:04.000Z</time>
</trkpt>
<trkpt lat="45.8759200" lon="10.2858350">
	<ele>2106.80</ele>
	<time>2025-07-29T08:49:05.000Z</time>
</trkpt>
<trkpt lat="45.8759170" lon="10.2858410">
	<ele>2107.00</ele>
	<time>2025-07-29T08:49:06.000Z</time>
</trkpt>
<trkpt lat="45.8759150" lon="10.2858520">
	<ele>2107.20</ele>
	<time>2025-07-29T08:49:07.000Z</time>
</trkpt>
<trkpt lat="45.8759150" lon="10.2858550">
	<ele>2107.40</ele>
	<time>2025-07-29T08:49:08.000Z</time>
</trkpt>
<trkpt lat="45.8759150" lon="10.2858560">
	<ele>2107.40</ele>
	<time>2025-07-29T08:49:09.000Z</time>
</trkpt>
<trkpt lat="45.8759140" lon="10.2858580">
	<ele>2107.40</ele>
	<time>2025-07-29T08:49:10.000Z</time>
</trkpt>
<trkpt lat="45.8759140" lon="10.2858580">
	<ele>2107.40</ele>
	<time>2025-07-29T08:49:11.000Z</time>
</trkpt>
<trkpt lat="45.8759150" lon="10.2858570">
	<ele>2107.40</ele>
	<time>2025-07-29T08:49:12.000Z</time>
</trkpt>
<trkpt lat="45.8759170" lon="10.2858550">
	<ele>2107.40</ele>
	<time>2025-07-29T08:49:13.000Z</time>
</trkpt>
<trkpt lat="45.8759170" lon="10.2858550">
	<ele>2107.40</ele>
	<time>2025-07-29T08:49:14.000Z</time>
</trkpt>
<trkpt lat="45.8759160" lon="10.2858550">
	<ele>2107.40</ele>
	<time>2025-07-29T08:49:15.000Z</time>
</trkpt>
<trkpt lat="45.8759170" lon="10.2858550">
	<ele>2107.40</ele>
	<time>2025-07-29T08:49:16.000Z</time>
</trkpt>
<trkpt lat="45.8759170" lon="10.2858540">
	<ele>2107.40</ele>
	<time>2025-07-29T08:49:17.000Z</time>
</trkpt>
<trkpt lat="45.8759180" lon="10.2858540">
	<ele>2107.40</ele>
	<time>2025-07-29T08:49:18.000Z</time>
</trkpt>
<trkpt lat="45.8759180" lon="10.2858550">
	<ele>2107.40</ele>
	<time>2025-07-29T08:49:19.000Z</time>
</trkpt>
<trkpt lat="45.8759180" lon="10.2858550">
	<ele>2107.40</ele>
	<time>2025-07-29T08:49:20.000Z</time>
</trkpt>
<trkpt lat="45.8759180" lon="10.2858550">
	<ele>2107.40</ele>
	<time>2025-07-29T08:49:21.000Z</time>
</trkpt>
<trkpt lat="45.8759180" lon="10.2858550">
	<ele>2107.40</ele>
	<time>2025-07-29T08:49:22.000Z</time>
</trkpt>
<trkpt lat="45.8759180" lon="10.2858550">
	<ele>2107.40</ele>
	<time>2025-07-29T08:49:23.000Z</time>
</trkpt>
<trkpt lat="45.8759180" lon="10.2858550">
	<ele>2107.60</ele>
	<time>2025-07-29T08:49:24.000Z</time>
</trkpt>
<trkpt lat="45.8759180" lon="10.2858550">
	<ele>2107.40</ele>
	<time>2025-07-29T08:49:25.000Z</time>
</trkpt>
<trkpt lat="45.8759180" lon="10.2858550">
	<ele>2107.40</ele>
	<time>2025-07-29T08:49:26.000Z</time>
</trkpt>
<trkpt lat="45.8759180" lon="10.2858550">
	<ele>2107.60</ele>
	<time>2025-07-29T08:49:27.000Z</time>
</trkpt>
<trkpt lat="45.8759180" lon="10.2858550">
	<ele>2107.60</ele>
	<time>2025-07-29T08:49:28.000Z</time>
</trkpt>
<trkpt lat="45.8759180" lon="10.2858550">
	<ele>2107.60</ele>
	<time>2025-07-29T08:49:29.000Z</time>
</trkpt>
<trkpt lat="45.8759180" lon="10.2858550">
	<ele>2107.60</ele>
	<time>2025-07-29T08:49:30.000Z</time>
</trkpt>
<trkpt lat="45.8759180" lon="10.2858550">
	<ele>2107.60</ele>
	<time>2025-07-29T08:49:31.000Z</time>
</trkpt>
<trkpt lat="45.8759180" lon="10.2858550">
	<ele>2107.60</ele>
	<time>2025-07-29T08:49:32.000Z</time>
</trkpt>
<trkpt lat="45.8759180" lon="10.2858550">
	<ele>2107.60</ele>
	<time>2025-07-29T08:49:33.000Z</time>
</trkpt>
<trkpt lat="45.8759180" lon="10.2858550">
	<ele>2107.60</ele>
	<time>2025-07-29T08:49:34.000Z</time>
</trkpt>
<trkpt lat="45.8759180" lon="10.2858550">
	<ele>2107.60</ele>
	<time>2025-07-29T08:49:35.000Z</time>
</trkpt>
<trkpt lat="45.8759180" lon="10.2858550">
	<ele>2107.60</ele>
	<time>2025-07-29T08:49:36.000Z</time>
</trkpt>
<trkpt lat="45.8759180" lon="10.2858550">
	<ele>2107.60</ele>
	<time>2025-07-29T08:49:37.000Z</time>
</trkpt>
<trkpt lat="45.8759180" lon="10.2858540">
	<ele>2107.60</ele>
	<time>2025-07-29T08:49:38.000Z</time>
</trkpt>
<trkpt lat="45.8759180" lon="10.2858540">
	<ele>2107.60</ele>
	<time>2025-07-29T08:49:39.000Z</time>
</trkpt>
<trkpt lat="45.8759180" lon="10.2858540">
	<ele>2107.60</ele>
	<time>2025-07-29T08:49:40.000Z</time>
</trkpt>
<trkpt lat="45.8759180" lon="10.2858530">
	<ele>2107.60</ele>
	<time>2025-07-29T08:49:41.000Z</time>
</trkpt>
<trkpt lat="45.8759180" lon="10.2858530">
	<ele>2107.60</ele>
	<time>2025-07-29T08:49:42.000Z</time>
</trkpt>
<trkpt lat="45.8759180" lon="10.2858510">
	<ele>2107.60</ele>
	<time>2025-07-29T08:49:43.000Z</time>
</trkpt>
<trkpt lat="45.8759200" lon="10.2858510">
	<ele>2107.80</ele>
	<time>2025-07-29T08:49:44.000Z</time>
</trkpt>
<trkpt lat="45.8759210" lon="10.2858510">
	<ele>2107.80</ele>
	<time>2025-07-29T08:49:45.000Z</time>
</trkpt>
<trkpt lat="45.8759210" lon="10.2858510">
	<ele>2107.80</ele>
	<time>2025-07-29T08:49:46.000Z</time>
</trkpt>
<trkpt lat="45.8759210" lon="10.2858510">
	<ele>2108.20</ele>
	<time>2025-07-29T08:49:47.000Z</time>
</trkpt>
<trkpt lat="45.8759220" lon="10.2858510">
	<ele>2108.20</ele>
	<time>2025-07-29T08:49:48.000Z</time>
</trkpt>
<trkpt lat="45.8759220" lon="10.2858510">
	<ele>2108.20</ele>
	<time>2025-07-29T08:49:49.000Z</time>
</trkpt>
<trkpt lat="45.8759220" lon="10.2858510">
	<ele>2108.20</ele>
	<time>2025-07-29T08:49:50.000Z</time>
</trkpt>
<trkpt lat="45.8759220" lon="10.2858510">
	<ele>2108.20</ele>
	<time>2025-07-29T08:49:51.000Z</time>
</trkpt>
<trkpt lat="45.8759220" lon="10.2858510">
	<ele>2108.20</ele>
	<time>2025-07-29T08:49:52.000Z</time>
</trkpt>
<trkpt lat="45.8759220" lon="10.2858510">
	<ele>2108.00</ele>
	<time>2025-07-29T08:49:53.000Z</time>
</trkpt>
<trkpt lat="45.8759220" lon="10.2858510">
	<ele>2108.00</ele>
	<time>2025-07-29T08:49:54.000Z</time>
</trkpt>
<trkpt lat="45.8759220" lon="10.2858510">
	<ele>2108.00</ele>
	<time>2025-07-29T08:49:55.000Z</time>
</trkpt>
<trkpt lat="45.8759220" lon="10.2858500">
	<ele>2108.00</ele>
	<time>2025-07-29T08:49:56.000Z</time>
</trkpt>
<trkpt lat="45.8759220" lon="10.2858500">
	<ele>2107.80</ele>
	<time>2025-07-29T08:49:57.000Z</time>
</trkpt>
<trkpt lat="45.8759230" lon="10.2858500">
	<ele>2107.80</ele>
	<time>2025-07-29T08:49:58.000Z</time>
</trkpt>
<trkpt lat="45.8759230" lon="10.2858500">
	<ele>2107.80</ele>
	<time>2025-07-29T08:49:59.000Z</time>
</trkpt>
<trkpt lat="45.8759230" lon="10.2858500">
	<ele>2108.00</ele>
	<time>2025-07-29T08:50:00.000Z</time>
</trkpt>
<trkpt lat="45.8759230" lon="10.2858500">
	<ele>2108.00</ele>
	<time>2025-07-29T08:50:01.000Z</time>
</trkpt>
<trkpt lat="45.8759230" lon="10.2858500">
	<ele>2108.20</ele>
	<time>2025-07-29T08:50:02.000Z</time>
</trkpt>
<trkpt lat="45.8759230" lon="10.2858500">
	<ele>2108.20</ele>
	<time>2025-07-29T08:50:03.000Z</time>
</trkpt>
<trkpt lat="45.8759230" lon="10.2858500">
	<ele>2108.20</ele>
	<time>2025-07-29T08:50:04.000Z</time>
</trkpt>
<trkpt lat="45.8759240" lon="10.2858500">
	<ele>2108.00</ele>
	<time>2025-07-29T08:50:05.000Z</time>
</trkpt>
<trkpt lat="45.8759240" lon="10.2858500">
	<ele>2108.00</ele>
	<time>2025-07-29T08:50:06.000Z</time>
</trkpt>
<trkpt lat="45.8759240" lon="10.2858510">
	<ele>2108.00</ele>
	<time>2025-07-29T08:50:07.000Z</time>
</trkpt>
<trkpt lat="45.8759240" lon="10.2858510">
	<ele>2108.00</ele>
	<time>2025-07-29T08:50:08.000Z</time>
</trkpt>
<trkpt lat="45.8759240" lon="10.2858520">
	<ele>2108.00</ele>
	<time>2025-07-29T08:50:09.000Z</time>
</trkpt>
<trkpt lat="45.8759240" lon="10.2858520">
	<ele>2108.00</ele>
	<time>2025-07-29T08:50:10.000Z</time>
</trkpt>
<trkpt lat="45.8759240" lon="10.2858530">
	<ele>2108.00</ele>
	<time>2025-07-29T08:50:11.000Z</time>
</trkpt>
<trkpt lat="45.8759250" lon="10.2858530">
	<ele>2108.00</ele>
	<time>2025-07-29T08:50:12.000Z</time>
</trkpt>
<trkpt lat="45.8759250" lon="10.2858530">
	<ele>2108.00</ele>
	<time>2025-07-29T08:50:13.000Z</time>
</trkpt>
<trkpt lat="45.8759250" lon="10.2858530">
	<ele>2108.00</ele>
	<time>2025-07-29T08:50:14.000Z</time>
</trkpt>
<trkpt lat="45.8759250" lon="10.2858520">
	<ele>2108.00</ele>
	<time>2025-07-29T08:50:15.000Z</time>
</trkpt>
<trkpt lat="45.8759260" lon="10.2858500">
	<ele>2108.00</ele>
	<time>2025-07-29T08:50:16.000Z</time>
</trkpt>
<trkpt lat="45.8759260" lon="10.2858480">
	<ele>2108.00</ele>
	<time>2025-07-29T08:50:17.000Z</time>
</trkpt>
<trkpt lat="45.8759260" lon="10.2858470">
	<ele>2108.00</ele>
	<time>2025-07-29T08:50:18.000Z</time>
</trkpt>
<trkpt lat="45.8759260" lon="10.2858440">
	<ele>2108.00</ele>
	<time>2025-07-29T08:50:19.000Z</time>
</trkpt>
<trkpt lat="45.8759260" lon="10.2858420">
	<ele>2108.00</ele>
	<time>2025-07-29T08:50:20.000Z</time>
</trkpt>
<trkpt lat="45.8759260" lon="10.2858400">
	<ele>2108.00</ele>
	<time>2025-07-29T08:50:21.000Z</time>
</trkpt>
<trkpt lat="45.8759270" lon="10.2858380">
	<ele>2108.00</ele>
	<time>2025-07-29T08:50:22.000Z</time>
</trkpt>
<trkpt lat="45.8759280" lon="10.2858370">
	<ele>2108.00</ele>
	<time>2025-07-29T08:50:23.000Z</time>
</trkpt>
<trkpt lat="45.8759280" lon="10.2858360">
	<ele>2108.00</ele>
	<time>2025-07-29T08:50:24.000Z</time>
</trkpt>
<trkpt lat="45.8759290" lon="10.2858360">
	<ele>2108.00</ele>
	<time>2025-07-29T08:50:25.000Z</time>
</trkpt>
<trkpt lat="45.8759310" lon="10.2858350">
	<ele>2108.00</ele>
	<time>2025-07-29T08:50:26.000Z</time>
</trkpt>
<trkpt lat="45.8759340" lon="10.2858350">
	<ele>2108.00</ele>
	<time>2025-07-29T08:50:27.000Z</time>
</trkpt>
<trkpt lat="45.8759360" lon="10.2858350">
	<ele>2108.00</ele>
	<time>2025-07-29T08:50:28.000Z</time>
</trkpt>
<trkpt lat="45.8759390" lon="10.2858320">
	<ele>2108.00</ele>
	<time>2025-07-29T08:50:29.000Z</time>
</trkpt>
<trkpt lat="45.8759410" lon="10.2858290">
	<ele>2108.00</ele>
	<time>2025-07-29T08:50:30.000Z</time>
</trkpt>
<trkpt lat="45.8759420" lon="10.2858280">
	<ele>2108.00</ele>
	<time>2025-07-29T08:50:31.000Z</time>
</trkpt>
<trkpt lat="45.8759420" lon="10.2858270">
	<ele>2108.00</ele>
	<time>2025-07-29T08:50:32.000Z</time>
</trkpt>
<trkpt lat="45.8759390" lon="10.2858290">
	<ele>2108.00</ele>
	<time>2025-07-29T08:50:33.000Z</time>
</trkpt>
<trkpt lat="45.8759260" lon="10.2858350">
	<ele>2108.00</ele>
	<time>2025-07-29T08:50:34.000Z</time>
</trkpt>
<trkpt lat="45.8759130" lon="10.2858420">
	<ele>2108.00</ele>
	<time>2025-07-29T08:50:35.000Z</time>
</trkpt>
<trkpt lat="45.8759000" lon="10.2858500">
	<ele>2108.00</ele>
	<time>2025-07-29T08:50:36.000Z</time>
</trkpt>
<trkpt lat="45.8758910" lon="10.2858590">
	<ele>2108.00</ele>
	<time>2025-07-29T08:50:37.000Z</time>
</trkpt>
<trkpt lat="45.8758830" lon="10.2858710">
	<ele>2108.00</ele>
	<time>2025-07-29T08:50:38.000Z</time>
</trkpt>
<trkpt lat="45.8758760" lon="10.2858870">
	<ele>2108.00</ele>
	<time>2025-07-29T08:50:39.000Z</time>
</trkpt>
<trkpt lat="45.8758670" lon="10.2859000">
	<ele>2108.00</ele>
	<time>2025-07-29T08:50:40.000Z</time>
</trkpt>
<trkpt lat="45.8758560" lon="10.2859110">
	<ele>2108.00</ele>
	<time>2025-07-29T08:50:41.000Z</time>
</trkpt>
<trkpt lat="45.8758440" lon="10.2859250">
	<ele>2108.00</ele>
	<time>2025-07-29T08:50:42.000Z</time>
</trkpt>
<trkpt lat="45.8758370" lon="10.2859370">
	<ele>2108.00</ele>
	<time>2025-07-29T08:50:43.000Z</time>
</trkpt>
<trkpt lat="45.8758300" lon="10.2859510">
	<ele>2108.00</ele>
	<time>2025-07-29T08:50:44.000Z</time>
</trkpt>
<trkpt lat="45.8758240" lon="10.2859640">
	<ele>2107.80</ele>
	<time>2025-07-29T08:50:45.000Z</time>
</trkpt>
<trkpt lat="45.8758140" lon="10.2859730">
	<ele>2107.60</ele>
	<time>2025-07-29T08:50:46.000Z</time>
</trkpt>
<trkpt lat="45.8758030" lon="10.2859860">
	<ele>2107.60</ele>
	<time>2025-07-29T08:50:47.000Z</time>
</trkpt>
<trkpt lat="45.8757950" lon="10.2860020">
	<ele>2107.60</ele>
	<time>2025-07-29T08:50:48.000Z</time>
</trkpt>
<trkpt lat="45.8757860" lon="10.2860130">
	<ele>2107.60</ele>
	<time>2025-07-29T08:50:49.000Z</time>
</trkpt>
<trkpt lat="45.8757760" lon="10.2860250">
	<ele>2107.60</ele>
	<time>2025-07-29T08:50:50.000Z</time>
</trkpt>
<trkpt lat="45.8757660" lon="10.2860380">
	<ele>2107.60</ele>
	<time>2025-07-29T08:50:51.000Z</time>
</trkpt>
<trkpt lat="45.8757560" lon="10.2860530">
	<ele>2107.60</ele>
	<time>2025-07-29T08:50:52.000Z</time>
</trkpt>
<trkpt lat="45.8757470" lon="10.2860670">
	<ele>2107.60</ele>
	<time>2025-07-29T08:50:53.000Z</time>
</trkpt>
<trkpt lat="45.8757410" lon="10.2860770">
	<ele>2107.60</ele>
	<time>2025-07-29T08:50:54.000Z</time>
</trkpt>
<trkpt lat="45.8757380" lon="10.2860830">
	<ele>2107.60</ele>
	<time>2025-07-29T08:50:55.000Z</time>
</trkpt>
<trkpt lat="45.8757330" lon="10.2860900">
	<ele>2107.80</ele>
	<time>2025-07-29T08:50:56.000Z</time>
</trkpt>
<trkpt lat="45.8757260" lon="10.2861040">
	<ele>2108.00</ele>
	<time>2025-07-29T08:50:57.000Z</time>
</trkpt>
<trkpt lat="45.8757190" lon="10.2861200">
	<ele>2108.20</ele>
	<time>2025-07-29T08:50:58.000Z</time>
</trkpt>
<trkpt lat="45.8757130" lon="10.2861370">
	<ele>2108.20</ele>
	<time>2025-07-29T08:50:59.000Z</time>
</trkpt>
<trkpt lat="45.8757040" lon="10.2861470">
	<ele>2108.20</ele>
	<time>2025-07-29T08:51:00.000Z</time>
</trkpt>
<trkpt lat="45.8756930" lon="10.2861590">
	<ele>2108.00</ele>
	<time>2025-07-29T08:51:01.000Z</time>
</trkpt>
<trkpt lat="45.8756840" lon="10.2861730">
	<ele>2108.00</ele>
	<time>2025-07-29T08:51:02.000Z</time>
</trkpt>
<trkpt lat="45.8756760" lon="10.2861850">
	<ele>2107.80</ele>
	<time>2025-07-29T08:51:03.000Z</time>
</trkpt>
<trkpt lat="45.8756700" lon="10.2861960">
	<ele>2107.60</ele>
	<time>2025-07-29T08:51:04.000Z</time>
</trkpt>
<trkpt lat="45.8756640" lon="10.2862120">
	<ele>2107.40</ele>
	<time>2025-07-29T08:51:05.000Z</time>
</trkpt>
<trkpt lat="45.8756580" lon="10.2862270">
	<ele>2107.20</ele>
	<time>2025-07-29T08:51:06.000Z</time>
</trkpt>
<trkpt lat="45.8756500" lon="10.2862400">
	<ele>2106.80</ele>
	<time>2025-07-29T08:51:07.000Z</time>
</trkpt>
<trkpt lat="45.8756420" lon="10.2862570">
	<ele>2106.80</ele>
	<time>2025-07-29T08:51:08.000Z</time>
</trkpt>
<trkpt lat="45.8756350" lon="10.2862730">
	<ele>2106.80</ele>
	<time>2025-07-29T08:51:09.000Z</time>
</trkpt>
<trkpt lat="45.8756290" lon="10.2862910">
	<ele>2106.60</ele>
	<time>2025-07-29T08:51:10.000Z</time>
</trkpt>
<trkpt lat="45.8756240" lon="10.2863080">
	<ele>2106.40</ele>
	<time>2025-07-29T08:51:11.000Z</time>
</trkpt>
<trkpt lat="45.8756180" lon="10.2863260">
	<ele>2106.20</ele>
	<time>2025-07-29T08:51:12.000Z</time>
</trkpt>
<trkpt lat="45.8756100" lon="10.2863440">
	<ele>2106.20</ele>
	<time>2025-07-29T08:51:13.000Z</time>
</trkpt>
<trkpt lat="45.8756020" lon="10.2863580">
	<ele>2106.00</ele>
	<time>2025-07-29T08:51:14.000Z</time>
</trkpt>
<trkpt lat="45.8755950" lon="10.2863750">
	<ele>2105.60</ele>
	<time>2025-07-29T08:51:15.000Z</time>
</trkpt>
<trkpt lat="45.8755860" lon="10.2863900">
	<ele>2105.60</ele>
	<time>2025-07-29T08:51:16.000Z</time>
</trkpt>
<trkpt lat="45.8755780" lon="10.2864060">
	<ele>2105.20</ele>
	<time>2025-07-29T08:51:17.000Z</time>
</trkpt>
<trkpt lat="45.8755710" lon="10.2864220">
	<ele>2105.00</ele>
	<time>2025-07-29T08:51:18.000Z</time>
</trkpt>
<trkpt lat="45.8755650" lon="10.2864360">
	<ele>2104.80</ele>
	<time>2025-07-29T08:51:19.000Z</time>
</trkpt>
<trkpt lat="45.8755610" lon="10.2864470">
	<ele>2104.40</ele>
	<time>2025-07-29T08:51:20.000Z</time>
</trkpt>
<trkpt lat="45.8755560" lon="10.2864520">
	<ele>2104.20</ele>
	<time>2025-07-29T08:51:21.000Z</time>
</trkpt>
<trkpt lat="45.8755480" lon="10.2864610">
	<ele>2104.20</ele>
	<time>2025-07-29T08:51:22.000Z</time>
</trkpt>
<trkpt lat="45.8755390" lon="10.2864720">
	<ele>2104.00</ele>
	<time>2025-07-29T08:51:23.000Z</time>
</trkpt>
<trkpt lat="45.8755330" lon="10.2864860">
	<ele>2103.80</ele>
	<time>2025-07-29T08:51:24.000Z</time>
</trkpt>
<trkpt lat="45.8755250" lon="10.2864990">
	<ele>2103.60</ele>
	<time>2025-07-29T08:51:25.000Z</time>
</trkpt>
<trkpt lat="45.8755180" lon="10.2865150">
	<ele>2103.40</ele>
	<time>2025-07-29T08:51:26.000Z</time>
</trkpt>
<trkpt lat="45.8755110" lon="10.2865310">
	<ele>2103.20</ele>
	<time>2025-07-29T08:51:27.000Z</time>
</trkpt>
<trkpt lat="45.8755040" lon="10.2865470">
	<ele>2103.20</ele>
	<time>2025-07-29T08:51:28.000Z</time>
</trkpt>
<trkpt lat="45.8755000" lon="10.2865640">
	<ele>2103.00</ele>
	<time>2025-07-29T08:51:29.000Z</time>
</trkpt>
<trkpt lat="45.8754930" lon="10.2865770">
	<ele>2102.80</ele>
	<time>2025-07-29T08:51:30.000Z</time>
</trkpt>
<trkpt lat="45.8754850" lon="10.2865900">
	<ele>2102.60</ele>
	<time>2025-07-29T08:51:31.000Z</time>
</trkpt>
<trkpt lat="45.8754750" lon="10.2866000">
	<ele>2102.60</ele>
	<time>2025-07-29T08:51:32.000Z</time>
</trkpt>
<trkpt lat="45.8754660" lon="10.2866140">
	<ele>2102.40</ele>
	<time>2025-07-29T08:51:33.000Z</time>
</trkpt>
<trkpt lat="45.8754590" lon="10.2866280">
	<ele>2102.40</ele>
	<time>2025-07-29T08:51:34.000Z</time>
</trkpt>
<trkpt lat="45.8754520" lon="10.2866440">
	<ele>2102.20</ele>
	<time>2025-07-29T08:51:35.000Z</time>
</trkpt>
<trkpt lat="45.8754460" lon="10.2866590">
	<ele>2101.80</ele>
	<time>2025-07-29T08:51:36.000Z</time>
</trkpt>
<trkpt lat="45.8754370" lon="10.2866710">
	<ele>2101.60</ele>
	<time>2025-07-29T08:51:37.000Z</time>
</trkpt>
<trkpt lat="45.8754290" lon="10.2866810">
	<ele>2101.20</ele>
	<time>2025-07-29T08:51:38.000Z</time>
</trkpt>
<trkpt lat="45.8754210" lon="10.2866890">
	<ele>2100.80</ele>
	<time>2025-07-29T08:51:39.000Z</time>
</trkpt>
<trkpt lat="45.8754120" lon="10.2867010">
	<ele>2100.60</ele>
	<time>2025-07-29T08:51:40.000Z</time>
</trkpt>
<trkpt lat="45.8754020" lon="10.2867150">
	<ele>2100.20</ele>
	<time>2025-07-29T08:51:41.000Z</time>
</trkpt>
<trkpt lat="45.8753930" lon="10.2867300">
	<ele>2100.00</ele>
	<time>2025-07-29T08:51:42.000Z</time>
</trkpt>
<trkpt lat="45.8753850" lon="10.2867460">
	<ele>2099.80</ele>
	<time>2025-07-29T08:51:43.000Z</time>
</trkpt>
<trkpt lat="45.8753780" lon="10.2867620">
	<ele>2099.60</ele>
	<time>2025-07-29T08:51:44.000Z</time>
</trkpt>
<trkpt lat="45.8753710" lon="10.2867810">
	<ele>2099.40</ele>
	<time>2025-07-29T08:51:45.000Z</time>
</trkpt>
<trkpt lat="45.8753620" lon="10.2867990">
	<ele>2099.00</ele>
	<time>2025-07-29T08:51:46.000Z</time>
</trkpt>
<trkpt lat="45.8753530" lon="10.2868160">
	<ele>2098.80</ele>
	<time>2025-07-29T08:51:47.000Z</time>
</trkpt>
<trkpt lat="45.8753440" lon="10.2868330">
	<ele>2098.40</ele>
	<time>2025-07-29T08:51:48.000Z</time>
</trkpt>
<trkpt lat="45.8753350" lon="10.2868500">
	<ele>2098.20</ele>
	<time>2025-07-29T08:51:49.000Z</time>
</trkpt>
<trkpt lat="45.8753270" lon="10.2868640">
	<ele>2098.00</ele>
	<time>2025-07-29T08:51:50.000Z</time>
</trkpt>
<trkpt lat="45.8753210" lon="10.2868770">
	<ele>2097.80</ele>
	<time>2025-07-29T08:51:51.000Z</time>
</trkpt>
<trkpt lat="45.8753150" lon="10.2868920">
	<ele>2097.60</ele>
	<time>2025-07-29T08:51:52.000Z</time>
</trkpt>
<trkpt lat="45.8753090" lon="10.2869080">
	<ele>2097.40</ele>
	<time>2025-07-29T08:51:53.000Z</time>
</trkpt>
<trkpt lat="45.8753030" lon="10.2869230">
	<ele>2097.20</ele>
	<time>2025-07-29T08:51:54.000Z</time>
</trkpt>
<trkpt lat="45.8752970" lon="10.2869380">
	<ele>2097.20</ele>
	<time>2025-07-29T08:51:55.000Z</time>
</trkpt>
<trkpt lat="45.8752910" lon="10.2869540">
	<ele>2097.20</ele>
	<time>2025-07-29T08:51:56.000Z</time>
</trkpt>
<trkpt lat="45.8752850" lon="10.2869730">
	<ele>2097.00</ele>
	<time>2025-07-29T08:51:57.000Z</time>
</trkpt>
<trkpt lat="45.8752790" lon="10.2869900">
	<ele>2097.00</ele>
	<time>2025-07-29T08:51:58.000Z</time>
</trkpt>
<trkpt lat="45.8752730" lon="10.2870070">
	<ele>2096.80</ele>
	<time>2025-07-29T08:51:59.000Z</time>
</trkpt>
<trkpt lat="45.8752660" lon="10.2870220">
	<ele>2096.80</ele>
	<time>2025-07-29T08:52:00.000Z</time>
</trkpt>
<trkpt lat="45.8752590" lon="10.2870400">
	<ele>2096.80</ele>
	<time>2025-07-29T08:52:01.000Z</time>
</trkpt>
<trkpt lat="45.8752520" lon="10.2870570">
	<ele>2096.80</ele>
	<time>2025-07-29T08:52:02.000Z</time>
</trkpt>
<trkpt lat="45.8752470" lon="10.2870740">
	<ele>2096.80</ele>
	<time>2025-07-29T08:52:03.000Z</time>
</trkpt>
<trkpt lat="45.8752430" lon="10.2870890">
	<ele>2096.80</ele>
	<time>2025-07-29T08:52:04.000Z</time>
</trkpt>
<trkpt lat="45.8752370" lon="10.2871010">
	<ele>2097.00</ele>
	<time>2025-07-29T08:52:05.000Z</time>
</trkpt>
<trkpt lat="45.8752320" lon="10.2871150">
	<ele>2097.00</ele>
	<time>2025-07-29T08:52:06.000Z</time>
</trkpt>
<trkpt lat="45.8752260" lon="10.2871300">
	<ele>2097.00</ele>
	<time>2025-07-29T08:52:07.000Z</time>
</trkpt>
<trkpt lat="45.8752190" lon="10.2871450">
	<ele>2097.20</ele>
	<time>2025-07-29T08:52:08.000Z</time>
</trkpt>
<trkpt lat="45.8752150" lon="10.2871590">
	<ele>2097.40</ele>
	<time>2025-07-29T08:52:09.000Z</time>
</trkpt>
<trkpt lat="45.8752090" lon="10.2871740">
	<ele>2097.40</ele>
	<time>2025-07-29T08:52:10.000Z</time>
</trkpt>
<trkpt lat="45.8752040" lon="10.2871880">
	<ele>2097.60</ele>
	<time>2025-07-29T08:52:11.000Z</time>
</trkpt>
<trkpt lat="45.8751990" lon="10.2872060">
	<ele>2097.60</ele>
	<time>2025-07-29T08:52:12.000Z</time>
</trkpt>
<trkpt lat="45.8751930" lon="10.2872220">
	<ele>2097.80</ele>
	<time>2025-07-29T08:52:13.000Z</time>
</trkpt>
<trkpt lat="45.8751880" lon="10.2872360">
	<ele>2097.80</ele>
	<time>2025-07-29T08:52:14.000Z</time>
</trkpt>
<trkpt lat="45.8751840" lon="10.2872510">
	<ele>2097.80</ele>
	<time>2025-07-29T08:52:15.000Z</time>
</trkpt>
<trkpt lat="45.8751780" lon="10.2872680">
	<ele>2097.80</ele>
	<time>2025-07-29T08:52:16.000Z</time>
</trkpt>
<trkpt lat="45.8751750" lon="10.2872840">
	<ele>2097.80</ele>
	<time>2025-07-29T08:52:17.000Z</time>
</trkpt>
<trkpt lat="45.8751710" lon="10.2872990">
	<ele>2097.80</ele>
	<time>2025-07-29T08:52:18.000Z</time>
</trkpt>
<trkpt lat="45.8751650" lon="10.2873160">
	<ele>2097.80</ele>
	<time>2025-07-29T08:52:19.000Z</time>
</trkpt>
<trkpt lat="45.8751590" lon="10.2873310">
	<ele>2098.00</ele>
	<time>2025-07-29T08:52:20.000Z</time>
</trkpt>
<trkpt lat="45.8751530" lon="10.2873450">
	<ele>2098.00</ele>
	<time>2025-07-29T08:52:21.000Z</time>
</trkpt>
<trkpt lat="45.8751480" lon="10.2873620">
	<ele>2098.00</ele>
	<time>2025-07-29T08:52:22.000Z</time>
</trkpt>
<trkpt lat="45.8751450" lon="10.2873760">
	<ele>2098.00</ele>
	<time>2025-07-29T08:52:23.000Z</time>
</trkpt>
<trkpt lat="45.8751430" lon="10.2873910">
	<ele>2098.20</ele>
	<time>2025-07-29T08:52:24.000Z</time>
</trkpt>
<trkpt lat="45.8751390" lon="10.2874060">
	<ele>2098.20</ele>
	<time>2025-07-29T08:52:25.000Z</time>
</trkpt>
<trkpt lat="45.8751350" lon="10.2874230">
	<ele>2098.40</ele>
	<time>2025-07-29T08:52:26.000Z</time>
</trkpt>
<trkpt lat="45.8751320" lon="10.2874410">
	<ele>2098.40</ele>
	<time>2025-07-29T08:52:27.000Z</time>
</trkpt>
<trkpt lat="45.8751290" lon="10.2874560">
	<ele>2098.60</ele>
	<time>2025-07-29T08:52:28.000Z</time>
</trkpt>
<trkpt lat="45.8751270" lon="10.2874680">
	<ele>2098.80</ele>
	<time>2025-07-29T08:52:29.000Z</time>
</trkpt>
<trkpt lat="45.8751250" lon="10.2874790">
	<ele>2098.80</ele>
	<time>2025-07-29T08:52:30.000Z</time>
</trkpt>
<trkpt lat="45.8751220" lon="10.2874950">
	<ele>2099.00</ele>
	<time>2025-07-29T08:52:31.000Z</time>
</trkpt>
<trkpt lat="45.8751190" lon="10.2875110">
	<ele>2099.00</ele>
	<time>2025-07-29T08:52:32.000Z</time>
</trkpt>
<trkpt lat="45.8751150" lon="10.2875270">
	<ele>2099.20</ele>
	<time>2025-07-29T08:52:33.000Z</time>
</trkpt>
<trkpt lat="45.8751140" lon="10.2875400">
	<ele>2099.20</ele>
	<time>2025-07-29T08:52:34.000Z</time>
</trkpt>
<trkpt lat="45.8751120" lon="10.2875540">
	<ele>2099.20</ele>
	<time>2025-07-29T08:52:35.000Z</time>
</trkpt>
<trkpt lat="45.8751110" lon="10.2875690">
	<ele>2099.40</ele>
	<time>2025-07-29T08:52:36.000Z</time>
</trkpt>
<trkpt lat="45.8751060" lon="10.2875840">
	<ele>2099.40</ele>
	<time>2025-07-29T08:52:37.000Z</time>
</trkpt>
<trkpt lat="45.8751010" lon="10.2876020">
	<ele>2099.40</ele>
	<time>2025-07-29T08:52:38.000Z</time>
</trkpt>
<trkpt lat="45.8750970" lon="10.2876200">
	<ele>2099.60</ele>
	<time>2025-07-29T08:52:39.000Z</time>
</trkpt>
<trkpt lat="45.8750940" lon="10.2876350">
	<ele>2099.60</ele>
	<time>2025-07-29T08:52:40.000Z</time>
</trkpt>
<trkpt lat="45.8750930" lon="10.2876530">
	<ele>2099.60</ele>
	<time>2025-07-29T08:52:41.000Z</time>
</trkpt>
<trkpt lat="45.8750910" lon="10.2876720">
	<ele>2099.60</ele>
	<time>2025-07-29T08:52:42.000Z</time>
</trkpt>
<trkpt lat="45.8750880" lon="10.2876880">
	<ele>2099.60</ele>
	<time>2025-07-29T08:52:43.000Z</time>
</trkpt>
<trkpt lat="45.8750880" lon="10.2877020">
	<ele>2099.60</ele>
	<time>2025-07-29T08:52:44.000Z</time>
</trkpt>
<trkpt lat="45.8750860" lon="10.2877200">
	<ele>2099.60</ele>
	<time>2025-07-29T08:52:45.000Z</time>
</trkpt>
<trkpt lat="45.8750820" lon="10.2877380">
	<ele>2099.60</ele>
	<time>2025-07-29T08:52:46.000Z</time>
</trkpt>
<trkpt lat="45.8750790" lon="10.2877560">
	<ele>2099.60</ele>
	<time>2025-07-29T08:52:47.000Z</time>
</trkpt>
<trkpt lat="45.8750750" lon="10.2877740">
	<ele>2099.60</ele>
	<time>2025-07-29T08:52:48.000Z</time>
</trkpt>
<trkpt lat="45.8750740" lon="10.2877910">
	<ele>2099.60</ele>
	<time>2025-07-29T08:52:49.000Z</time>
</trkpt>
<trkpt lat="45.8750720" lon="10.2878070">
	<ele>2099.60</ele>
	<time>2025-07-29T08:52:50.000Z</time>
</trkpt>
<trkpt lat="45.8750710" lon="10.2878220">
	<ele>2099.60</ele>
	<time>2025-07-29T08:52:51.000Z</time>
</trkpt>
<trkpt lat="45.8750680" lon="10.2878400">
	<ele>2099.40</ele>
	<time>2025-07-29T08:52:52.000Z</time>
</trkpt>
<trkpt lat="45.8750660" lon="10.2878560">
	<ele>2099.40</ele>
	<time>2025-07-29T08:52:53.000Z</time>
</trkpt>
<trkpt lat="45.8750610" lon="10.2878710">
	<ele>2099.40</ele>
	<time>2025-07-29T08:52:54.000Z</time>
</trkpt>
<trkpt lat="45.8750560" lon="10.2878860">
	<ele>2099.40</ele>
	<time>2025-07-29T08:52:55.000Z</time>
</trkpt>
<trkpt lat="45.8750510" lon="10.2879030">
	<ele>2099.40</ele>
	<time>2025-07-29T08:52:56.000Z</time>
</trkpt>
<trkpt lat="45.8750480" lon="10.2879200">
	<ele>2099.40</ele>
	<time>2025-07-29T08:52:57.000Z</time>
</trkpt>
<trkpt lat="45.8750460" lon="10.2879360">
	<ele>2099.40</ele>
	<time>2025-07-29T08:52:58.000Z</time>
</trkpt>
<trkpt lat="45.8750400" lon="10.2879490">
	<ele>2099.40</ele>
	<time>2025-07-29T08:52:59.000Z</time>
</trkpt>
<trkpt lat="45.8750350" lon="10.2879680">
	<ele>2099.40</ele>
	<time>2025-07-29T08:53:00.000Z</time>
</trkpt>
<trkpt lat="45.8750310" lon="10.2879860">
	<ele>2099.20</ele>
	<time>2025-07-29T08:53:01.000Z</time>
</trkpt>
<trkpt lat="45.8750260" lon="10.2880060">
	<ele>2099.20</ele>
	<time>2025-07-29T08:53:02.000Z</time>
</trkpt>
<trkpt lat="45.8750210" lon="10.2880270">
	<ele>2099.20</ele>
	<time>2025-07-29T08:53:03.000Z</time>
</trkpt>
<trkpt lat="45.8750180" lon="10.2880430">
	<ele>2099.20</ele>
	<time>2025-07-29T08:53:04.000Z</time>
</trkpt>
<trkpt lat="45.8750140" lon="10.2880580">
	<ele>2099.20</ele>
	<time>2025-07-29T08:53:05.000Z</time>
</trkpt>
<trkpt lat="45.8750130" lon="10.2880740">
	<ele>2099.20</ele>
	<time>2025-07-29T08:53:06.000Z</time>
</trkpt>
<trkpt lat="45.8750110" lon="10.2880930">
	<ele>2099.20</ele>
	<time>2025-07-29T08:53:07.000Z</time>
</trkpt>
<trkpt lat="45.8750100" lon="10.2881100">
	<ele>2099.20</ele>
	<time>2025-07-29T08:53:08.000Z</time>
</trkpt>
<trkpt lat="45.8750080" lon="10.2881260">
	<ele>2099.20</ele>
	<time>2025-07-29T08:53:09.000Z</time>
</trkpt>
<trkpt lat="45.8750050" lon="10.2881420">
	<ele>2099.00</ele>
	<time>2025-07-29T08:53:10.000Z</time>
</trkpt>
<trkpt lat="45.8750020" lon="10.2881580">
	<ele>2099.00</ele>
	<time>2025-07-29T08:53:11.000Z</time>
</trkpt>
<trkpt lat="45.8750010" lon="10.2881730">
	<ele>2099.00</ele>
	<time>2025-07-29T08:53:12.000Z</time>
</trkpt>
<trkpt lat="45.8750000" lon="10.2881880">
	<ele>2099.00</ele>
	<time>2025-07-29T08:53:13.000Z</time>
</trkpt>
<trkpt lat="45.8749970" lon="10.2882050">
	<ele>2099.00</ele>
	<time>2025-07-29T08:53:14.000Z</time>
</trkpt>
<trkpt lat="45.8749920" lon="10.2882210">
	<ele>2099.00</ele>
	<time>2025-07-29T08:53:15.000Z</time>
</trkpt>
<trkpt lat="45.8749870" lon="10.2882390">
	<ele>2099.00</ele>
	<time>2025-07-29T08:53:16.000Z</time>
</trkpt>
<trkpt lat="45.8749820" lon="10.2882580">
	<ele>2099.00</ele>
	<time>2025-07-29T08:53:17.000Z</time>
</trkpt>
<trkpt lat="45.8749770" lon="10.2882740">
	<ele>2098.80</ele>
	<time>2025-07-29T08:53:18.000Z</time>
</trkpt>
<trkpt lat="45.8749750" lon="10.2882910">
	<ele>2098.80</ele>
	<time>2025-07-29T08:53:19.000Z</time>
</trkpt>
<trkpt lat="45.8749720" lon="10.2883110">
	<ele>2098.60</ele>
	<time>2025-07-29T08:53:20.000Z</time>
</trkpt>
<trkpt lat="45.8749700" lon="10.2883290">
	<ele>2098.60</ele>
	<time>2025-07-29T08:53:21.000Z</time>
</trkpt>
<trkpt lat="45.8749680" lon="10.2883470">
	<ele>2098.40</ele>
	<time>2025-07-29T08:53:22.000Z</time>
</trkpt>
<trkpt lat="45.8749650" lon="10.2883640">
	<ele>2098.40</ele>
	<time>2025-07-29T08:53:23.000Z</time>
</trkpt>
<trkpt lat="45.8749600" lon="10.2883820">
	<ele>2098.40</ele>
	<time>2025-07-29T08:53:24.000Z</time>
</trkpt>
<trkpt lat="45.8749560" lon="10.2883990">
	<ele>2098.20</ele>
	<time>2025-07-29T08:53:25.000Z</time>
</trkpt>
<trkpt lat="45.8749510" lon="10.2884140">
	<ele>2098.20</ele>
	<time>2025-07-29T08:53:26.000Z</time>
</trkpt>
<trkpt lat="45.8749490" lon="10.2884280">
	<ele>2098.20</ele>
	<time>2025-07-29T08:53:27.000Z</time>
</trkpt>
<trkpt lat="45.8749450" lon="10.2884450">
	<ele>2098.00</ele>
	<time>2025-07-29T08:53:28.000Z</time>
</trkpt>
<trkpt lat="45.8749400" lon="10.2884610">
	<ele>2098.00</ele>
	<time>2025-07-29T08:53:29.000Z</time>
</trkpt>
<trkpt lat="45.8749330" lon="10.2884780">
	<ele>2097.80</ele>
	<time>2025-07-29T08:53:30.000Z</time>
</trkpt>
<trkpt lat="45.8749260" lon="10.2884940">
	<ele>2097.80</ele>
	<time>2025-07-29T08:53:31.000Z</time>
</trkpt>
<trkpt lat="45.8749220" lon="10.2885120">
	<ele>2097.80</ele>
	<time>2025-07-29T08:53:32.000Z</time>
</trkpt>
<trkpt lat="45.8749180" lon="10.2885290">
	<ele>2097.60</ele>
	<time>2025-07-29T08:53:33.000Z</time>
</trkpt>
<trkpt lat="45.8749120" lon="10.2885500">
	<ele>2097.60</ele>
	<time>2025-07-29T08:53:34.000Z</time>
</trkpt>
<trkpt lat="45.8749060" lon="10.2885710">
	<ele>2097.60</ele>
	<time>2025-07-29T08:53:35.000Z</time>
</trkpt>
<trkpt lat="45.8749000" lon="10.2885900">
	<ele>2097.60</ele>
	<time>2025-07-29T08:53:36.000Z</time>
</trkpt>
<trkpt lat="45.8748940" lon="10.2886100">
	<ele>2097.60</ele>
	<time>2025-07-29T08:53:37.000Z</time>
</trkpt>
<trkpt lat="45.8748890" lon="10.2886260">
	<ele>2097.60</ele>
	<time>2025-07-29T08:53:38.000Z</time>
</trkpt>
<trkpt lat="45.8748840" lon="10.2886420">
	<ele>2097.60</ele>
	<time>2025-07-29T08:53:39.000Z</time>
</trkpt>
<trkpt lat="45.8748800" lon="10.2886590">
	<ele>2097.40</ele>
	<time>2025-07-29T08:53:40.000Z</time>
</trkpt>
<trkpt lat="45.8748770" lon="10.2886740">
	<ele>2097.40</ele>
	<time>2025-07-29T08:53:41.000Z</time>
</trkpt>
<trkpt lat="45.8748730" lon="10.2886900">
	<ele>2097.20</ele>
	<time>2025-07-29T08:53:42.000Z</time>
</trkpt>
<trkpt lat="45.8748680" lon="10.2887070">
	<ele>2097.20</ele>
	<time>2025-07-29T08:53:43.000Z</time>
</trkpt>
<trkpt lat="45.8748610" lon="10.2887190">
	<ele>2097.00</ele>
	<time>2025-07-29T08:53:44.000Z</time>
</trkpt>
<trkpt lat="45.8748540" lon="10.2887330">
	<ele>2097.00</ele>
	<time>2025-07-29T08:53:45.000Z</time>
</trkpt>
<trkpt lat="45.8748480" lon="10.2887440">
	<ele>2096.80</ele>
	<time>2025-07-29T08:53:46.000Z</time>
</trkpt>
<trkpt lat="45.8748400" lon="10.2887610">
	<ele>2096.80</ele>
	<time>2025-07-29T08:53:47.000Z</time>
</trkpt>
<trkpt lat="45.8748320" lon="10.2887790">
	<ele>2096.60</ele>
	<time>2025-07-29T08:53:48.000Z</time>
</trkpt>
<trkpt lat="45.8748240" lon="10.2887950">
	<ele>2096.60</ele>
	<time>2025-07-29T08:53:49.000Z</time>
</trkpt>
<trkpt lat="45.8748160" lon="10.2888090">
	<ele>2096.40</ele>
	<time>2025-07-29T08:53:50.000Z</time>
</trkpt>
<trkpt lat="45.8748100" lon="10.2888240">
	<ele>2096.40</ele>
	<time>2025-07-29T08:53:51.000Z</time>
</trkpt>
<trkpt lat="45.8748040" lon="10.2888390">
	<ele>2096.40</ele>
	<time>2025-07-29T08:53:52.000Z</time>
</trkpt>
<trkpt lat="45.8747950" lon="10.2888520">
	<ele>2096.20</ele>
	<time>2025-07-29T08:53:53.000Z</time>
</trkpt>
<trkpt lat="45.8747840" lon="10.2888660">
	<ele>2096.20</ele>
	<time>2025-07-29T08:53:54.000Z</time>
</trkpt>
<trkpt lat="45.8747770" lon="10.2888780">
	<ele>2096.20</ele>
	<time>2025-07-29T08:53:55.000Z</time>
</trkpt>
<trkpt lat="45.8747730" lon="10.2888900">
	<ele>2096.20</ele>
	<time>2025-07-29T08:53:56.000Z</time>
</trkpt>
<trkpt lat="45.8747680" lon="10.2889030">
	<ele>2096.00</ele>
	<time>2025-07-29T08:53:57.000Z</time>
</trkpt>
<trkpt lat="45.8747590" lon="10.2889160">
	<ele>2096.00</ele>
	<time>2025-07-29T08:53:58.000Z</time>
</trkpt>
<trkpt lat="45.8747510" lon="10.2889280">
	<ele>2096.00</ele>
	<time>2025-07-29T08:53:59.000Z</time>
</trkpt>
<trkpt lat="45.8747420" lon="10.2889380">
	<ele>2095.80</ele>
	<time>2025-07-29T08:54:00.000Z</time>
</trkpt>
<trkpt lat="45.8747360" lon="10.2889450">
	<ele>2095.80</ele>
	<time>2025-07-29T08:54:01.000Z</time>
</trkpt>
<trkpt lat="45.8747330" lon="10.2889500">
	<ele>2096.00</ele>
	<time>2025-07-29T08:54:02.000Z</time>
</trkpt>
<trkpt lat="45.8747300" lon="10.2889540">
	<ele>2095.80</ele>
	<time>2025-07-29T08:54:03.000Z</time>
</trkpt>
<trkpt lat="45.8747260" lon="10.2889620">
	<ele>2095.60</ele>
	<time>2025-07-29T08:54:04.000Z</time>
</trkpt>
<trkpt lat="45.8747200" lon="10.2889730">
	<ele>2095.60</ele>
	<time>2025-07-29T08:54:05.000Z</time>
</trkpt>
<trkpt lat="45.8747140" lon="10.2889840">
	<ele>2095.60</ele>
	<time>2025-07-29T08:54:06.000Z</time>
</trkpt>
<trkpt lat="45.8747050" lon="10.2889950">
	<ele>2095.60</ele>
	<time>2025-07-29T08:54:07.000Z</time>
</trkpt>
<trkpt lat="45.8746950" lon="10.2890080">
	<ele>2095.60</ele>
	<time>2025-07-29T08:54:08.000Z</time>
</trkpt>
<trkpt lat="45.8746880" lon="10.2890190">
	<ele>2095.40</ele>
	<time>2025-07-29T08:54:09.000Z</time>
</trkpt>
<trkpt lat="45.8746820" lon="10.2890290">
	<ele>2095.40</ele>
	<time>2025-07-29T08:54:10.000Z</time>
</trkpt>
<trkpt lat="45.8746790" lon="10.2890340">
	<ele>2095.40</ele>
	<time>2025-07-29T08:54:11.000Z</time>
</trkpt>
<trkpt lat="45.8746770" lon="10.2890380">
	<ele>2095.40</ele>
	<time>2025-07-29T08:54:12.000Z</time>
</trkpt>
<trkpt lat="45.8746780" lon="10.2890400">
	<ele>2095.40</ele>
	<time>2025-07-29T08:54:13.000Z</time>
</trkpt>
<trkpt lat="45.8746780" lon="10.2890390">
	<ele>2095.40</ele>
	<time>2025-07-29T08:54:14.000Z</time>
</trkpt>
<trkpt lat="45.8746790" lon="10.2890380">
	<ele>2095.40</ele>
	<time>2025-07-29T08:54:15.000Z</time>
</trkpt>
<trkpt lat="45.8746800" lon="10.2890370">
	<ele>2095.40</ele>
	<time>2025-07-29T08:54:16.000Z</time>
</trkpt>
<trkpt lat="45.8746800" lon="10.2890370">
	<ele>2095.40</ele>
	<time>2025-07-29T08:54:17.000Z</time>
</trkpt>
<trkpt lat="45.8746770" lon="10.2890410">
	<ele>2095.40</ele>
	<time>2025-07-29T08:54:18.000Z</time>
</trkpt>
<trkpt lat="45.8746740" lon="10.2890480">
	<ele>2095.40</ele>
	<time>2025-07-29T08:54:19.000Z</time>
</trkpt>
<trkpt lat="45.8746680" lon="10.2890590">
	<ele>2095.40</ele>
	<time>2025-07-29T08:54:20.000Z</time>
</trkpt>
<trkpt lat="45.8746630" lon="10.2890720">
	<ele>2095.40</ele>
	<time>2025-07-29T08:54:21.000Z</time>
</trkpt>
<trkpt lat="45.8746580" lon="10.2890850">
	<ele>2095.40</ele>
	<time>2025-07-29T08:54:22.000Z</time>
</trkpt>
<trkpt lat="45.8746470" lon="10.2891010">
	<ele>2095.40</ele>
	<time>2025-07-29T08:54:23.000Z</time>
</trkpt>
<trkpt lat="45.8746360" lon="10.2891160">
	<ele>2095.20</ele>
	<time>2025-07-29T08:54:24.000Z</time>
</trkpt>
<trkpt lat="45.8746300" lon="10.2891290">
	<ele>2095.20</ele>
	<time>2025-07-29T08:54:25.000Z</time>
</trkpt>
<trkpt lat="45.8746250" lon="10.2891400">
	<ele>2095.00</ele>
	<time>2025-07-29T08:54:26.000Z</time>
</trkpt>
<trkpt lat="45.8746200" lon="10.2891550">
	<ele>2095.00</ele>
	<time>2025-07-29T08:54:27.000Z</time>
</trkpt>
<trkpt lat="45.8746130" lon="10.2891700">
	<ele>2095.00</ele>
	<time>2025-07-29T08:54:28.000Z</time>
</trkpt>
<trkpt lat="45.8746070" lon="10.2891860">
	<ele>2095.00</ele>
	<time>2025-07-29T08:54:29.000Z</time>
</trkpt>
<trkpt lat="45.8746000" lon="10.2892020">
	<ele>2095.00</ele>
	<time>2025-07-29T08:54:30.000Z</time>
</trkpt>
<trkpt lat="45.8745950" lon="10.2892180">
	<ele>2095.00</ele>
	<time>2025-07-29T08:54:31.000Z</time>
</trkpt>
<trkpt lat="45.8745920" lon="10.2892330">
	<ele>2094.80</ele>
	<time>2025-07-29T08:54:32.000Z</time>
</trkpt>
<trkpt lat="45.8745870" lon="10.2892490">
	<ele>2094.60</ele>
	<time>2025-07-29T08:54:33.000Z</time>
</trkpt>
<trkpt lat="45.8745820" lon="10.2892630">
	<ele>2094.60</ele>
	<time>2025-07-29T08:54:34.000Z</time>
</trkpt>
<trkpt lat="45.8745790" lon="10.2892760">
	<ele>2094.20</ele>
	<time>2025-07-29T08:54:35.000Z</time>
</trkpt>
<trkpt lat="45.8745730" lon="10.2892870">
	<ele>2094.00</ele>
	<time>2025-07-29T08:54:36.000Z</time>
</trkpt>
<trkpt lat="45.8745620" lon="10.2892990">
	<ele>2093.80</ele>
	<time>2025-07-29T08:54:37.000Z</time>
</trkpt>
<trkpt lat="45.8745520" lon="10.2893140">
	<ele>2093.60</ele>
	<time>2025-07-29T08:54:38.000Z</time>
</trkpt>
<trkpt lat="45.8745390" lon="10.2893290">
	<ele>2093.40</ele>
	<time>2025-07-29T08:54:39.000Z</time>
</trkpt>
<trkpt lat="45.8745270" lon="10.2893410">
	<ele>2093.20</ele>
	<time>2025-07-29T08:54:40.000Z</time>
</trkpt>
<trkpt lat="45.8745170" lon="10.2893530">
	<ele>2093.00</ele>
	<time>2025-07-29T08:54:41.000Z</time>
</trkpt>
<trkpt lat="45.8745050" lon="10.2893630">
	<ele>2093.00</ele>
	<time>2025-07-29T08:54:42.000Z</time>
</trkpt>
<trkpt lat="45.8744930" lon="10.2893730">
	<ele>2093.00</ele>
	<time>2025-07-29T08:54:43.000Z</time>
</trkpt>
<trkpt lat="45.8744810" lon="10.2893810">
	<ele>2093.00</ele>
	<time>2025-07-29T08:54:44.000Z</time>
</trkpt>
<trkpt lat="45.8744700" lon="10.2893910">
	<ele>2093.20</ele>
	<time>2025-07-29T08:54:45.000Z</time>
</trkpt>
<trkpt lat="45.8744610" lon="10.2893990">
	<ele>2093.20</ele>
	<time>2025-07-29T08:54:46.000Z</time>
</trkpt>
<trkpt lat="45.8744510" lon="10.2894100">
	<ele>2093.40</ele>
	<time>2025-07-29T08:54:47.000Z</time>
</trkpt>
<trkpt lat="45.8744430" lon="10.2894180">
	<ele>2093.40</ele>
	<time>2025-07-29T08:54:48.000Z</time>
</trkpt>
<trkpt lat="45.8744340" lon="10.2894270">
	<ele>2093.60</ele>
	<time>2025-07-29T08:54:49.000Z</time>
</trkpt>
<trkpt lat="45.8744240" lon="10.2894380">
	<ele>2093.60</ele>
	<time>2025-07-29T08:54:50.000Z</time>
</trkpt>
<trkpt lat="45.8744140" lon="10.2894450">
	<ele>2093.60</ele>
	<time>2025-07-29T08:54:51.000Z</time>
</trkpt>
<trkpt lat="45.8744040" lon="10.2894520">
	<ele>2093.60</ele>
	<time>2025-07-29T08:54:52.000Z</time>
</trkpt>
<trkpt lat="45.8743950" lon="10.2894620">
	<ele>2093.60</ele>
	<time>2025-07-29T08:54:53.000Z</time>
</trkpt>
<trkpt lat="45.8743860" lon="10.2894720">
	<ele>2093.60</ele>
	<time>2025-07-29T08:54:54.000Z</time>
</trkpt>
<trkpt lat="45.8743760" lon="10.2894860">
	<ele>2093.60</ele>
	<time>2025-07-29T08:54:55.000Z</time>
</trkpt>
<trkpt lat="45.8743660" lon="10.2895010">
	<ele>2093.60</ele>
	<time>2025-07-29T08:54:56.000Z</time>
</trkpt>
<trkpt lat="45.8743560" lon="10.2895160">
	<ele>2093.60</ele>
	<time>2025-07-29T08:54:57.000Z</time>
</trkpt>
<trkpt lat="45.8743460" lon="10.2895290">
	<ele>2093.60</ele>
	<time>2025-07-29T08:54:58.000Z</time>
</trkpt>
<trkpt lat="45.8743370" lon="10.2895420">
	<ele>2093.60</ele>
	<time>2025-07-29T08:54:59.000Z</time>
</trkpt>
<trkpt lat="45.8743270" lon="10.2895540">
	<ele>2093.60</ele>
	<time>2025-07-29T08:55:00.000Z</time>
</trkpt>
<trkpt lat="45.8743160" lon="10.2895670">
	<ele>2093.80</ele>
	<time>2025-07-29T08:55:01.000Z</time>
</trkpt>
<trkpt lat="45.8743060" lon="10.2895810">
	<ele>2093.80</ele>
	<time>2025-07-29T08:55:02.000Z</time>
</trkpt>
<trkpt lat="45.8742970" lon="10.2895950">
	<ele>2093.80</ele>
	<time>2025-07-29T08:55:03.000Z</time>
</trkpt>
<trkpt lat="45.8742880" lon="10.2896050">
	<ele>2093.80</ele>
	<time>2025-07-29T08:55:04.000Z</time>
</trkpt>
<trkpt lat="45.8742760" lon="10.2896130">
	<ele>2093.80</ele>
	<time>2025-07-29T08:55:05.000Z</time>
</trkpt>
<trkpt lat="45.8742650" lon="10.2896240">
	<ele>2093.80</ele>
	<time>2025-07-29T08:55:06.000Z</time>
</trkpt>
<trkpt lat="45.8742540" lon="10.2896380">
	<ele>2094.00</ele>
	<time>2025-07-29T08:55:07.000Z</time>
</trkpt>
<trkpt lat="45.8742430" lon="10.2896510">
	<ele>2094.00</ele>
	<time>2025-07-29T08:55:08.000Z</time>
</trkpt>
<trkpt lat="45.8742300" lon="10.2896620">
	<ele>2094.00</ele>
	<time>2025-07-29T08:55:09.000Z</time>
</trkpt>
<trkpt lat="45.8742210" lon="10.2896770">
	<ele>2094.00</ele>
	<time>2025-07-29T08:55:10.000Z</time>
</trkpt>
<trkpt lat="45.8742100" lon="10.2896900">
	<ele>2093.80</ele>
	<time>2025-07-29T08:55:11.000Z</time>
</trkpt>
<trkpt lat="45.8742000" lon="10.2896980">
	<ele>2093.80</ele>
	<time>2025-07-29T08:55:12.000Z</time>
</trkpt>
<trkpt lat="45.8741900" lon="10.2897060">
	<ele>2093.80</ele>
	<time>2025-07-29T08:55:13.000Z</time>
</trkpt>
<trkpt lat="45.8741790" lon="10.2897140">
	<ele>2093.80</ele>
	<time>2025-07-29T08:55:14.000Z</time>
</trkpt>
<trkpt lat="45.8741670" lon="10.2897180">
	<ele>2093.60</ele>
	<time>2025-07-29T08:55:15.000Z</time>
</trkpt>
<trkpt lat="45.8741570" lon="10.2897200">
	<ele>2093.60</ele>
	<time>2025-07-29T08:55:16.000Z</time>
</trkpt>
<trkpt lat="45.8741460" lon="10.2897250">
	<ele>2093.60</ele>
	<time>2025-07-29T08:55:17.000Z</time>
</trkpt>
<trkpt lat="45.8741380" lon="10.2897330">
	<ele>2093.40</ele>
	<time>2025-07-29T08:55:18.000Z</time>
</trkpt>
<trkpt lat="45.8741280" lon="10.2897390">
	<ele>2093.20</ele>
	<time>2025-07-29T08:55:19.000Z</time>
</trkpt>
<trkpt lat="45.8741180" lon="10.2897490">
	<ele>2093.00</ele>
	<time>2025-07-29T08:55:20.000Z</time>
</trkpt>
<trkpt lat="45.8741090" lon="10.2897580">
	<ele>2092.80</ele>
	<time>2025-07-29T08:55:21.000Z</time>
</trkpt>
<trkpt lat="45.8740990" lon="10.2897660">
	<ele>2092.80</ele>
	<time>2025-07-29T08:55:22.000Z</time>
</trkpt>
<trkpt lat="45.8740900" lon="10.2897760">
	<ele>2092.80</ele>
	<time>2025-07-29T08:55:23.000Z</time>
</trkpt>
<trkpt lat="45.8740800" lon="10.2897870">
	<ele>2092.80</ele>
	<time>2025-07-29T08:55:24.000Z</time>
</trkpt>
<trkpt lat="45.8740710" lon="10.2898000">
	<ele>2092.80</ele>
	<time>2025-07-29T08:55:25.000Z</time>
</trkpt>
<trkpt lat="45.8740620" lon="10.2898080">
	<ele>2092.60</ele>
	<time>2025-07-29T08:55:26.000Z</time>
</trkpt>
<trkpt lat="45.8740550" lon="10.2898180">
	<ele>2092.60</ele>
	<time>2025-07-29T08:55:27.000Z</time>
</trkpt>
<trkpt lat="45.8740450" lon="10.2898290">
	<ele>2092.40</ele>
	<time>2025-07-29T08:55:28.000Z</time>
</trkpt>
<trkpt lat="45.8740350" lon="10.2898430">
	<ele>2092.20</ele>
	<time>2025-07-29T08:55:29.000Z</time>
</trkpt>
<trkpt lat="45.8740250" lon="10.2898570">
	<ele>2092.20</ele>
	<time>2025-07-29T08:55:30.000Z</time>
</trkpt>
<trkpt lat="45.8740150" lon="10.2898680">
	<ele>2092.00</ele>
	<time>2025-07-29T08:55:31.000Z</time>
</trkpt>
<trkpt lat="45.8740060" lon="10.2898820">
	<ele>2092.00</ele>
	<time>2025-07-29T08:55:32.000Z</time>
</trkpt>
<trkpt lat="45.8739970" lon="10.2898950">
	<ele>2091.80</ele>
	<time>2025-07-29T08:55:33.000Z</time>
</trkpt>
<trkpt lat="45.8739880" lon="10.2899060">
	<ele>2091.80</ele>
	<time>2025-07-29T08:55:34.000Z</time>
</trkpt>
<trkpt lat="45.8739810" lon="10.2899130">
	<ele>2091.80</ele>
	<time>2025-07-29T08:55:35.000Z</time>
</trkpt>
<trkpt lat="45.8739720" lon="10.2899250">
	<ele>2091.60</ele>
	<time>2025-07-29T08:55:36.000Z</time>
</trkpt>
<trkpt lat="45.8739650" lon="10.2899350">
	<ele>2091.60</ele>
	<time>2025-07-29T08:55:37.000Z</time>
</trkpt>
<trkpt lat="45.8739570" lon="10.2899470">
	<ele>2091.60</ele>
	<time>2025-07-29T08:55:38.000Z</time>
</trkpt>
<trkpt lat="45.8739480" lon="10.2899570">
	<ele>2091.60</ele>
	<time>2025-07-29T08:55:39.000Z</time>
</trkpt>
<trkpt lat="45.8739420" lon="10.2899660">
	<ele>2091.60</ele>
	<time>2025-07-29T08:55:40.000Z</time>
</trkpt>
<trkpt lat="45.8739330" lon="10.2899770">
	<ele>2091.60</ele>
	<time>2025-07-29T08:55:41.000Z</time>
</trkpt>
<trkpt lat="45.8739240" lon="10.2899870">
	<ele>2091.40</ele>
	<time>2025-07-29T08:55:42.000Z</time>
</trkpt>
<trkpt lat="45.8739140" lon="10.2899950">
	<ele>2091.20</ele>
	<time>2025-07-29T08:55:43.000Z</time>
</trkpt>
<trkpt lat="45.8739050" lon="10.2900000">
	<ele>2091.00</ele>
	<time>2025-07-29T08:55:44.000Z</time>
</trkpt>
<trkpt lat="45.8738970" lon="10.2900110">
	<ele>2090.80</ele>
	<time>2025-07-29T08:55:45.000Z</time>
</trkpt>
<trkpt lat="45.8738880" lon="10.2900230">
	<ele>2090.80</ele>
	<time>2025-07-29T08:55:46.000Z</time>
</trkpt>
<trkpt lat="45.8738790" lon="10.2900320">
	<ele>2090.60</ele>
	<time>2025-07-29T08:55:47.000Z</time>
</trkpt>
<trkpt lat="45.8738690" lon="10.2900390">
	<ele>2090.40</ele>
	<time>2025-07-29T08:55:48.000Z</time>
</trkpt>
<trkpt lat="45.8738600" lon="10.2900480">
	<ele>2090.20</ele>
	<time>2025-07-29T08:55:49.000Z</time>
</trkpt>
<trkpt lat="45.8738510" lon="10.2900600">
	<ele>2090.20</ele>
	<time>2025-07-29T08:55:50.000Z</time>
</trkpt>
<trkpt lat="45.8738420" lon="10.2900730">
	<ele>2090.00</ele>
	<time>2025-07-29T08:55:51.000Z</time>
</trkpt>
<trkpt lat="45.8738330" lon="10.2900870">
	<ele>2090.00</ele>
	<time>2025-07-29T08:55:52.000Z</time>
</trkpt>
<trkpt lat="45.8738270" lon="10.2901050">
	<ele>2090.00</ele>
	<time>2025-07-29T08:55:53.000Z</time>
</trkpt>
<trkpt lat="45.8738210" lon="10.2901210">
	<ele>2090.00</ele>
	<time>2025-07-29T08:55:54.000Z</time>
</trkpt>
<trkpt lat="45.8738170" lon="10.2901360">
	<ele>2090.00</ele>
	<time>2025-07-29T08:55:55.000Z</time>
</trkpt>
<trkpt lat="45.8738110" lon="10.2901550">
	<ele>2090.00</ele>
	<time>2025-07-29T08:55:56.000Z</time>
</trkpt>
<trkpt lat="45.8738080" lon="10.2901690">
	<ele>2090.00</ele>
	<time>2025-07-29T08:55:57.000Z</time>
</trkpt>
<trkpt lat="45.8738020" lon="10.2901820">
	<ele>2090.00</ele>
	<time>2025-07-29T08:55:58.000Z</time>
</trkpt>
<trkpt lat="45.8737930" lon="10.2901940">
	<ele>2090.00</ele>
	<time>2025-07-29T08:55:59.000Z</time>
</trkpt>
<trkpt lat="45.8737880" lon="10.2902060">
	<ele>2090.00</ele>
	<time>2025-07-29T08:56:00.000Z</time>
</trkpt>
<trkpt lat="45.8737830" lon="10.2902160">
	<ele>2090.00</ele>
	<time>2025-07-29T08:56:01.000Z</time>
</trkpt>
<trkpt lat="45.8737770" lon="10.2902250">
	<ele>2090.00</ele>
	<time>2025-07-29T08:56:02.000Z</time>
</trkpt>
<trkpt lat="45.8737690" lon="10.2902390">
	<ele>2090.00</ele>
	<time>2025-07-29T08:56:03.000Z</time>
</trkpt>
<trkpt lat="45.8737600" lon="10.2902560">
	<ele>2090.00</ele>
	<time>2025-07-29T08:56:04.000Z</time>
</trkpt>
<trkpt lat="45.8737540" lon="10.2902670">
	<ele>2090.00</ele>
	<time>2025-07-29T08:56:05.000Z</time>
</trkpt>
<trkpt lat="45.8737460" lon="10.2902760">
	<ele>2090.00</ele>
	<time>2025-07-29T08:56:06.000Z</time>
</trkpt>
<trkpt lat="45.8737360" lon="10.2902880">
	<ele>2090.00</ele>
	<time>2025-07-29T08:56:07.000Z</time>
</trkpt>
<trkpt lat="45.8737300" lon="10.2902990">
	<ele>2089.80</ele>
	<time>2025-07-29T08:56:08.000Z</time>
</trkpt>
<trkpt lat="45.8737220" lon="10.2903110">
	<ele>2089.80</ele>
	<time>2025-07-29T08:56:09.000Z</time>
</trkpt>
<trkpt lat="45.8737150" lon="10.2903190">
	<ele>2089.60</ele>
	<time>2025-07-29T08:56:10.000Z</time>
</trkpt>
<trkpt lat="45.8737080" lon="10.2903300">
	<ele>2089.60</ele>
	<time>2025-07-29T08:56:11.000Z</time>
</trkpt>
<trkpt lat="45.8737010" lon="10.2903450">
	<ele>2089.60</ele>
	<time>2025-07-29T08:56:12.000Z</time>
</trkpt>
<trkpt lat="45.8736940" lon="10.2903560">
	<ele>2089.40</ele>
	<time>2025-07-29T08:56:13.000Z</time>
</trkpt>
<trkpt lat="45.8736830" lon="10.2903680">
	<ele>2089.40</ele>
	<time>2025-07-29T08:56:14.000Z</time>
</trkpt>
<trkpt lat="45.8736740" lon="10.2903790">
	<ele>2089.40</ele>
	<time>2025-07-29T08:56:15.000Z</time>
</trkpt>
<trkpt lat="45.8736640" lon="10.2903920">
	<ele>2089.40</ele>
	<time>2025-07-29T08:56:16.000Z</time>
</trkpt>
<trkpt lat="45.8736560" lon="10.2904030">
	<ele>2089.20</ele>
	<time>2025-07-29T08:56:17.000Z</time>
</trkpt>
<trkpt lat="45.8736460" lon="10.2904160">
	<ele>2089.20</ele>
	<time>2025-07-29T08:56:18.000Z</time>
</trkpt>
<trkpt lat="45.8736360" lon="10.2904300">
	<ele>2089.20</ele>
	<time>2025-07-29T08:56:19.000Z</time>
</trkpt>
<trkpt lat="45.8736250" lon="10.2904440">
	<ele>2089.20</ele>
	<time>2025-07-29T08:56:20.000Z</time>
</trkpt>
<trkpt lat="45.8736160" lon="10.2904540">
	<ele>2089.00</ele>
	<time>2025-07-29T08:56:21.000Z</time>
</trkpt>
<trkpt lat="45.8736080" lon="10.2904660">
	<ele>2089.00</ele>
	<time>2025-07-29T08:56:22.000Z</time>
</trkpt>
<trkpt lat="45.8736010" lon="10.2904820">
	<ele>2089.00</ele>
	<time>2025-07-29T08:56:23.000Z</time>
</trkpt>
<trkpt lat="45.8735940" lon="10.2904940">
	<ele>2089.00</ele>
	<time>2025-07-29T08:56:24.000Z</time>
</trkpt>
<trkpt lat="45.8735870" lon="10.2905100">
	<ele>2089.00</ele>
	<time>2025-07-29T08:56:25.000Z</time>
</trkpt>
<trkpt lat="45.8735800" lon="10.2905260">
	<ele>2089.00</ele>
	<time>2025-07-29T08:56:26.000Z</time>
</trkpt>
<trkpt lat="45.8735730" lon="10.2905370">
	<ele>2089.00</ele>
	<time>2025-07-29T08:56:27.000Z</time>
</trkpt>
<trkpt lat="45.8735650" lon="10.2905460">
	<ele>2089.20</ele>
	<time>2025-07-29T08:56:28.000Z</time>
</trkpt>
<trkpt lat="45.8735600" lon="10.2905580">
	<ele>2089.20</ele>
	<time>2025-07-29T08:56:29.000Z</time>
</trkpt>
<trkpt lat="45.8735560" lon="10.2905680">
	<ele>2089.20</ele>
	<time>2025-07-29T08:56:30.000Z</time>
</trkpt>
<trkpt lat="45.8735510" lon="10.2905800">
	<ele>2089.20</ele>
	<time>2025-07-29T08:56:31.000Z</time>
</trkpt>
<trkpt lat="45.8735430" lon="10.2905930">
	<ele>2089.20</ele>
	<time>2025-07-29T08:56:32.000Z</time>
</trkpt>
<trkpt lat="45.8735340" lon="10.2906030">
	<ele>2089.20</ele>
	<time>2025-07-29T08:56:33.000Z</time>
</trkpt>
<trkpt lat="45.8735240" lon="10.2906150">
	<ele>2089.00</ele>
	<time>2025-07-29T08:56:34.000Z</time>
</trkpt>
<trkpt lat="45.8735130" lon="10.2906260">
	<ele>2088.80</ele>
	<time>2025-07-29T08:56:35.000Z</time>
</trkpt>
<trkpt lat="45.8735040" lon="10.2906370">
	<ele>2088.60</ele>
	<time>2025-07-29T08:56:36.000Z</time>
</trkpt>
<trkpt lat="45.8734960" lon="10.2906450">
	<ele>2088.40</ele>
	<time>2025-07-29T08:56:37.000Z</time>
</trkpt>
<trkpt lat="45.8734870" lon="10.2906550">
	<ele>2088.40</ele>
	<time>2025-07-29T08:56:38.000Z</time>
</trkpt>
<trkpt lat="45.8734800" lon="10.2906660">
	<ele>2088.40</ele>
	<time>2025-07-29T08:56:39.000Z</time>
</trkpt>
<trkpt lat="45.8734720" lon="10.2906760">
	<ele>2088.20</ele>
	<time>2025-07-29T08:56:40.000Z</time>
</trkpt>
<trkpt lat="45.8734640" lon="10.2906840">
	<ele>2088.20</ele>
	<time>2025-07-29T08:56:41.000Z</time>
</trkpt>
<trkpt lat="45.8734570" lon="10.2906950">
	<ele>2088.20</ele>
	<time>2025-07-29T08:56:42.000Z</time>
</trkpt>
<trkpt lat="45.8734490" lon="10.2907050">
	<ele>2088.00</ele>
	<time>2025-07-29T08:56:43.000Z</time>
</trkpt>
<trkpt lat="45.8734420" lon="10.2907150">
	<ele>2088.00</ele>
	<time>2025-07-29T08:56:44.000Z</time>
</trkpt>
<trkpt lat="45.8734360" lon="10.2907270">
	<ele>2087.80</ele>
	<time>2025-07-29T08:56:45.000Z</time>
</trkpt>
<trkpt lat="45.8734290" lon="10.2907400">
	<ele>2087.80</ele>
	<time>2025-07-29T08:56:46.000Z</time>
</trkpt>
<trkpt lat="45.8734210" lon="10.2907520">
	<ele>2087.60</ele>
	<time>2025-07-29T08:56:47.000Z</time>
</trkpt>
<trkpt lat="45.8734120" lon="10.2907620">
	<ele>2087.60</ele>
	<time>2025-07-29T08:56:48.000Z</time>
</trkpt>
<trkpt lat="45.8734010" lon="10.2907710">
	<ele>2087.40</ele>
	<time>2025-07-29T08:56:49.000Z</time>
</trkpt>
<trkpt lat="45.8733940" lon="10.2907830">
	<ele>2087.40</ele>
	<time>2025-07-29T08:56:50.000Z</time>
</trkpt>
<trkpt lat="45.8733880" lon="10.2907930">
	<ele>2087.40</ele>
	<time>2025-07-29T08:56:51.000Z</time>
</trkpt>
<trkpt lat="45.8733800" lon="10.2908020">
	<ele>2087.40</ele>
	<time>2025-07-29T08:56:52.000Z</time>
</trkpt>
<trkpt lat="45.8733720" lon="10.2908080">
	<ele>2087.20</ele>
	<time>2025-07-29T08:56:53.000Z</time>
</trkpt>
<trkpt lat="45.8733630" lon="10.2908180">
	<ele>2087.20</ele>
	<time>2025-07-29T08:56:54.000Z</time>
</trkpt>
<trkpt lat="45.8733540" lon="10.2908300">
	<ele>2087.00</ele>
	<time>2025-07-29T08:56:55.000Z</time>
</trkpt>
<trkpt lat="45.8733430" lon="10.2908430">
	<ele>2086.80</ele>
	<time>2025-07-29T08:56:56.000Z</time>
</trkpt>
<trkpt lat="45.8733330" lon="10.2908570">
	<ele>2086.60</ele>
	<time>2025-07-29T08:56:57.000Z</time>
</trkpt>
<trkpt lat="45.8733240" lon="10.2908720">
	<ele>2086.60</ele>
	<time>2025-07-29T08:56:58.000Z</time>
</trkpt>
<trkpt lat="45.8733160" lon="10.2908870">
	<ele>2086.60</ele>
	<time>2025-07-29T08:56:59.000Z</time>
</trkpt>
<trkpt lat="45.8733100" lon="10.2909040">
	<ele>2086.40</ele>
	<time>2025-07-29T08:57:00.000Z</time>
</trkpt>
<trkpt lat="45.8733010" lon="10.2909180">
	<ele>2086.40</ele>
	<time>2025-07-29T08:57:01.000Z</time>
</trkpt>
<trkpt lat="45.8732950" lon="10.2909320">
	<ele>2086.40</ele>
	<time>2025-07-29T08:57:02.000Z</time>
</trkpt>
<trkpt lat="45.8732870" lon="10.2909460">
	<ele>2086.40</ele>
	<time>2025-07-29T08:57:03.000Z</time>
</trkpt>
<trkpt lat="45.8732800" lon="10.2909620">
	<ele>2086.40</ele>
	<time>2025-07-29T08:57:04.000Z</time>
</trkpt>
<trkpt lat="45.8732730" lon="10.2909800">
	<ele>2086.40</ele>
	<time>2025-07-29T08:57:05.000Z</time>
</trkpt>
<trkpt lat="45.8732680" lon="10.2909940">
	<ele>2086.40</ele>
	<time>2025-07-29T08:57:06.000Z</time>
</trkpt>
<trkpt lat="45.8732650" lon="10.2910090">
	<ele>2086.40</ele>
	<time>2025-07-29T08:57:07.000Z</time>
</trkpt>
<trkpt lat="45.8732610" lon="10.2910250">
	<ele>2086.40</ele>
	<time>2025-07-29T08:57:08.000Z</time>
</trkpt>
<trkpt lat="45.8732590" lon="10.2910360">
	<ele>2086.60</ele>
	<time>2025-07-29T08:57:09.000Z</time>
</trkpt>
<trkpt lat="45.8732560" lon="10.2910490">
	<ele>2086.60</ele>
	<time>2025-07-29T08:57:10.000Z</time>
</trkpt>
<trkpt lat="45.8732510" lon="10.2910650">
	<ele>2086.60</ele>
	<time>2025-07-29T08:57:11.000Z</time>
</trkpt>
<trkpt lat="45.8732460" lon="10.2910820">
	<ele>2086.60</ele>
	<time>2025-07-29T08:57:12.000Z</time>
</trkpt>
<trkpt lat="45.8732430" lon="10.2911010">
	<ele>2086.80</ele>
	<time>2025-07-29T08:57:13.000Z</time>
</trkpt>
<trkpt lat="45.8732390" lon="10.2911180">
	<ele>2086.80</ele>
	<time>2025-07-29T08:57:14.000Z</time>
</trkpt>
<trkpt lat="45.8732320" lon="10.2911310">
	<ele>2086.80</ele>
	<time>2025-07-29T08:57:15.000Z</time>
</trkpt>
<trkpt lat="45.8732240" lon="10.2911470">
	<ele>2086.80</ele>
	<time>2025-07-29T08:57:16.000Z</time>
</trkpt>
<trkpt lat="45.8732190" lon="10.2911630">
	<ele>2086.80</ele>
	<time>2025-07-29T08:57:17.000Z</time>
</trkpt>
<trkpt lat="45.8732120" lon="10.2911770">
	<ele>2086.80</ele>
	<time>2025-07-29T08:57:18.000Z</time>
</trkpt>
<trkpt lat="45.8732040" lon="10.2911880">
	<ele>2086.80</ele>
	<time>2025-07-29T08:57:19.000Z</time>
</trkpt>
<trkpt lat="45.8731970" lon="10.2911930">
	<ele>2086.60</ele>
	<time>2025-07-29T08:57:20.000Z</time>
</trkpt>
<trkpt lat="45.8731870" lon="10.2912000">
	<ele>2086.60</ele>
	<time>2025-07-29T08:57:21.000Z</time>
</trkpt>
<trkpt lat="45.8731740" lon="10.2912020">
	<ele>2086.60</ele>
	<time>2025-07-29T08:57:22.000Z</time>
</trkpt>
<trkpt lat="45.8731620" lon="10.2912050">
	<ele>2086.60</ele>
	<time>2025-07-29T08:57:23.000Z</time>
</trkpt>
<trkpt lat="45.8731490" lon="10.2912140">
	<ele>2086.40</ele>
	<time>2025-07-29T08:57:24.000Z</time>
</trkpt>
<trkpt lat="45.8731400" lon="10.2912240">
	<ele>2086.40</ele>
	<time>2025-07-29T08:57:25.000Z</time>
</trkpt>
<trkpt lat="45.8731320" lon="10.2912340">
	<ele>2086.40</ele>
	<time>2025-07-29T08:57:26.000Z</time>
</trkpt>
<trkpt lat="45.8731260" lon="10.2912450">
	<ele>2086.40</ele>
	<time>2025-07-29T08:57:27.000Z</time>
</trkpt>
<trkpt lat="45.8731180" lon="10.2912560">
	<ele>2086.40</ele>
	<time>2025-07-29T08:57:28.000Z</time>
</trkpt>
<trkpt lat="45.8731120" lon="10.2912700">
	<ele>2086.40</ele>
	<time>2025-07-29T08:57:29.000Z</time>
</trkpt>
<trkpt lat="45.8731080" lon="10.2912830">
	<ele>2086.20</ele>
	<time>2025-07-29T08:57:30.000Z</time>
</trkpt>
<trkpt lat="45.8731010" lon="10.2912980">
	<ele>2086.00</ele>
	<time>2025-07-29T08:57:31.000Z</time>
</trkpt>
<trkpt lat="45.8730970" lon="10.2913100">
	<ele>2086.00</ele>
	<time>2025-07-29T08:57:32.000Z</time>
</trkpt>
<trkpt lat="45.8730910" lon="10.2913190">
	<ele>2085.80</ele>
	<time>2025-07-29T08:57:33.000Z</time>
</trkpt>
<trkpt lat="45.8730840" lon="10.2913290">
	<ele>2085.60</ele>
	<time>2025-07-29T08:57:34.000Z</time>
</trkpt>
<trkpt lat="45.8730770" lon="10.2913430">
	<ele>2085.40</ele>
	<time>2025-07-29T08:57:35.000Z</time>
</trkpt>
<trkpt lat="45.8730680" lon="10.2913520">
	<ele>2085.40</ele>
	<time>2025-07-29T08:57:36.000Z</time>
</trkpt>
<trkpt lat="45.8730600" lon="10.2913580">
	<ele>2085.20</ele>
	<time>2025-07-29T08:57:37.000Z</time>
</trkpt>
<trkpt lat="45.8730600" lon="10.2913600">
	<ele>2085.20</ele>
	<time>2025-07-29T08:57:38.000Z</time>
</trkpt>
<trkpt lat="45.8730590" lon="10.2913600">
	<ele>2085.20</ele>
	<time>2025-07-29T08:57:39.000Z</time>
</trkpt>
<trkpt lat="45.8730580" lon="10.2913590">
	<ele>2085.20</ele>
	<time>2025-07-29T08:57:40.000Z</time>
</trkpt>
<trkpt lat="45.8730580" lon="10.2913590">
	<ele>2085.20</ele>
	<time>2025-07-29T08:57:41.000Z</time>
</trkpt>
<trkpt lat="45.8730580" lon="10.2913580">
	<ele>2085.20</ele>
	<time>2025-07-29T08:57:42.000Z</time>
</trkpt>
<trkpt lat="45.8730570" lon="10.2913590">
	<ele>2085.20</ele>
	<time>2025-07-29T08:57:43.000Z</time>
</trkpt>
<trkpt lat="45.8730540" lon="10.2913630">
	<ele>2085.20</ele>
	<time>2025-07-29T08:57:44.000Z</time>
</trkpt>
<trkpt lat="45.8730510" lon="10.2913710">
	<ele>2085.00</ele>
	<time>2025-07-29T08:57:45.000Z</time>
</trkpt>
<trkpt lat="45.8730420" lon="10.2913800">
	<ele>2085.00</ele>
	<time>2025-07-29T08:57:46.000Z</time>
</trkpt>
<trkpt lat="45.8730380" lon="10.2913900">
	<ele>2084.80</ele>
	<time>2025-07-29T08:57:47.000Z</time>
</trkpt>
<trkpt lat="45.8730340" lon="10.2914000">
	<ele>2084.60</ele>
	<time>2025-07-29T08:57:48.000Z</time>
</trkpt>
<trkpt lat="45.8730290" lon="10.2914050">
	<ele>2084.40</ele>
	<time>2025-07-29T08:57:49.000Z</time>
</trkpt>
<trkpt lat="45.8730230" lon="10.2914140">
	<ele>2084.20</ele>
	<time>2025-07-29T08:57:50.000Z</time>
</trkpt>
<trkpt lat="45.8730160" lon="10.2914180">
	<ele>2084.20</ele>
	<time>2025-07-29T08:57:51.000Z</time>
</trkpt>
<trkpt lat="45.8730090" lon="10.2914260">
	<ele>2084.00</ele>
	<time>2025-07-29T08:57:52.000Z</time>
</trkpt>
<trkpt lat="45.8730030" lon="10.2914420">
	<ele>2083.80</ele>
	<time>2025-07-29T08:57:53.000Z</time>
</trkpt>
<trkpt lat="45.8729950" lon="10.2914610">
	<ele>2083.80</ele>
	<time>2025-07-29T08:57:54.000Z</time>
</trkpt>
<trkpt lat="45.8729910" lon="10.2914730">
	<ele>2083.60</ele>
	<time>2025-07-29T08:57:55.000Z</time>
</trkpt>
<trkpt lat="45.8729880" lon="10.2914820">
	<ele>2083.40</ele>
	<time>2025-07-29T08:57:56.000Z</time>
</trkpt>
<trkpt lat="45.8729840" lon="10.2914910">
	<ele>2083.20</ele>
	<time>2025-07-29T08:57:57.000Z</time>
</trkpt>
<trkpt lat="45.8729810" lon="10.2914990">
	<ele>2083.00</ele>
	<time>2025-07-29T08:57:58.000Z</time>
</trkpt>
<trkpt lat="45.8729750" lon="10.2915100">
	<ele>2082.80</ele>
	<time>2025-07-29T08:57:59.000Z</time>
</trkpt>
<trkpt lat="45.8729670" lon="10.2915190">
	<ele>2082.60</ele>
	<time>2025-07-29T08:58:00.000Z</time>
</trkpt>
<trkpt lat="45.8729600" lon="10.2915320">
	<ele>2082.40</ele>
	<time>2025-07-29T08:58:01.000Z</time>
</trkpt>
<trkpt lat="45.8729540" lon="10.2915490">
	<ele>2082.20</ele>
	<time>2025-07-29T08:58:02.000Z</time>
</trkpt>
<trkpt lat="45.8729480" lon="10.2915580">
	<ele>2082.00</ele>
	<time>2025-07-29T08:58:03.000Z</time>
</trkpt>
<trkpt lat="45.8729390" lon="10.2915670">
	<ele>2082.00</ele>
	<time>2025-07-29T08:58:04.000Z</time>
</trkpt>
<trkpt lat="45.8729310" lon="10.2915790">
	<ele>2081.80</ele>
	<time>2025-07-29T08:58:05.000Z</time>
</trkpt>
<trkpt lat="45.8729230" lon="10.2915950">
	<ele>2081.60</ele>
	<time>2025-07-29T08:58:06.000Z</time>
</trkpt>
<trkpt lat="45.8729190" lon="10.2916040">
	<ele>2081.40</ele>
	<time>2025-07-29T08:58:07.000Z</time>
</trkpt>
<trkpt lat="45.8729140" lon="10.2916160">
	<ele>2081.20</ele>
	<time>2025-07-29T08:58:08.000Z</time>
</trkpt>
<trkpt lat="45.8729060" lon="10.2916310">
	<ele>2081.00</ele>
	<time>2025-07-29T08:58:09.000Z</time>
</trkpt>
<trkpt lat="45.8729020" lon="10.2916400">
	<ele>2080.80</ele>
	<time>2025-07-29T08:58:10.000Z</time>
</trkpt>
<trkpt lat="45.8728960" lon="10.2916550">
	<ele>2080.60</ele>
	<time>2025-07-29T08:58:11.000Z</time>
</trkpt>
<trkpt lat="45.8728860" lon="10.2916670">
	<ele>2080.40</ele>
	<time>2025-07-29T08:58:12.000Z</time>
</trkpt>
<trkpt lat="45.8728790" lon="10.2916780">
	<ele>2080.40</ele>
	<time>2025-07-29T08:58:13.000Z</time>
</trkpt>
<trkpt lat="45.8728730" lon="10.2916920">
	<ele>2080.20</ele>
	<time>2025-07-29T08:58:14.000Z</time>
</trkpt>
<trkpt lat="45.8728680" lon="10.2917030">
	<ele>2080.20</ele>
	<time>2025-07-29T08:58:15.000Z</time>
</trkpt>
<trkpt lat="45.8728640" lon="10.2917090">
	<ele>2080.20</ele>
	<time>2025-07-29T08:58:16.000Z</time>
</trkpt>
<trkpt lat="45.8728580" lon="10.2917110">
	<ele>2080.00</ele>
	<time>2025-07-29T08:58:17.000Z</time>
</trkpt>
<trkpt lat="45.8728530" lon="10.2917170">
	<ele>2080.00</ele>
	<time>2025-07-29T08:58:18.000Z</time>
</trkpt>
<trkpt lat="45.8728440" lon="10.2917290">
	<ele>2079.60</ele>
	<time>2025-07-29T08:58:19.000Z</time>
</trkpt>
<trkpt lat="45.8728370" lon="10.2917380">
	<ele>2079.20</ele>
	<time>2025-07-29T08:58:20.000Z</time>
</trkpt>
<trkpt lat="45.8728300" lon="10.2917510">
	<ele>2079.00</ele>
	<time>2025-07-29T08:58:21.000Z</time>
</trkpt>
<trkpt lat="45.8728240" lon="10.2917600">
	<ele>2079.00</ele>
	<time>2025-07-29T08:58:22.000Z</time>
</trkpt>
<trkpt lat="45.8728170" lon="10.2917670">
	<ele>2078.80</ele>
	<time>2025-07-29T08:58:23.000Z</time>
</trkpt>
<trkpt lat="45.8728110" lon="10.2917760">
	<ele>2078.60</ele>
	<time>2025-07-29T08:58:24.000Z</time>
</trkpt>
<trkpt lat="45.8728040" lon="10.2917900">
	<ele>2078.40</ele>
	<time>2025-07-29T08:58:25.000Z</time>
</trkpt>
<trkpt lat="45.8727990" lon="10.2918010">
	<ele>2078.20</ele>
	<time>2025-07-29T08:58:26.000Z</time>
</trkpt>
<trkpt lat="45.8727990" lon="10.2918050">
	<ele>2078.00</ele>
	<time>2025-07-29T08:58:27.000Z</time>
</trkpt>
<trkpt lat="45.8727930" lon="10.2918070">
	<ele>2077.80</ele>
	<time>2025-07-29T08:58:28.000Z</time>
</trkpt>
<trkpt lat="45.8727830" lon="10.2918120">
	<ele>2077.80</ele>
	<time>2025-07-29T08:58:29.000Z</time>
</trkpt>
<trkpt lat="45.8727750" lon="10.2918190">
	<ele>2077.60</ele>
	<time>2025-07-29T08:58:30.000Z</time>
</trkpt>
<trkpt lat="45.8727650" lon="10.2918290">
	<ele>2077.60</ele>
	<time>2025-07-29T08:58:31.000Z</time>
</trkpt>
<trkpt lat="45.8727560" lon="10.2918430">
	<ele>2077.40</ele>
	<time>2025-07-29T08:58:32.000Z</time>
</trkpt>
<trkpt lat="45.8727500" lon="10.2918520">
	<ele>2077.20</ele>
	<time>2025-07-29T08:58:33.000Z</time>
</trkpt>
<trkpt lat="45.8727450" lon="10.2918610">
	<ele>2076.80</ele>
	<time>2025-07-29T08:58:34.000Z</time>
</trkpt>
<trkpt lat="45.8727380" lon="10.2918770">
	<ele>2076.60</ele>
	<time>2025-07-29T08:58:35.000Z</time>
</trkpt>
<trkpt lat="45.8727350" lon="10.2918930">
	<ele>2076.40</ele>
	<time>2025-07-29T08:58:36.000Z</time>
</trkpt>
<trkpt lat="45.8727290" lon="10.2919120">
	<ele>2076.20</ele>
	<time>2025-07-29T08:58:37.000Z</time>
</trkpt>
<trkpt lat="45.8727200" lon="10.2919310">
	<ele>2076.00</ele>
	<time>2025-07-29T08:58:38.000Z</time>
</trkpt>
<trkpt lat="45.8727140" lon="10.2919400">
	<ele>2076.00</ele>
	<time>2025-07-29T08:58:39.000Z</time>
</trkpt>
<trkpt lat="45.8727090" lon="10.2919480">
	<ele>2075.80</ele>
	<time>2025-07-29T08:58:40.000Z</time>
</trkpt>
<trkpt lat="45.8726970" lon="10.2919620">
	<ele>2075.60</ele>
	<time>2025-07-29T08:58:41.000Z</time>
</trkpt>
<trkpt lat="45.8726900" lon="10.2919750">
	<ele>2075.40</ele>
	<time>2025-07-29T08:58:42.000Z</time>
</trkpt>
<trkpt lat="45.8726870" lon="10.2919870">
	<ele>2075.20</ele>
	<time>2025-07-29T08:58:43.000Z</time>
</trkpt>
<trkpt lat="45.8726840" lon="10.2919940">
	<ele>2075.00</ele>
	<time>2025-07-29T08:58:44.000Z</time>
</trkpt>
<trkpt lat="45.8726760" lon="10.2920040">
	<ele>2074.80</ele>
	<time>2025-07-29T08:58:45.000Z</time>
</trkpt>
<trkpt lat="45.8726670" lon="10.2920100">
	<ele>2074.60</ele>
	<time>2025-07-29T08:58:46.000Z</time>
</trkpt>
<trkpt lat="45.8726580" lon="10.2920270">
	<ele>2074.40</ele>
	<time>2025-07-29T08:58:47.000Z</time>
</trkpt>
<trkpt lat="45.8726490" lon="10.2920490">
	<ele>2074.20</ele>
	<time>2025-07-29T08:58:48.000Z</time>
</trkpt>
<trkpt lat="45.8726420" lon="10.2920620">
	<ele>2074.00</ele>
	<time>2025-07-29T08:58:49.000Z</time>
</trkpt>
<trkpt lat="45.8726340" lon="10.2920710">
	<ele>2073.80</ele>
	<time>2025-07-29T08:58:50.000Z</time>
</trkpt>
<trkpt lat="45.8726230" lon="10.2920810">
	<ele>2073.60</ele>
	<time>2025-07-29T08:58:51.000Z</time>
</trkpt>
<trkpt lat="45.8726190" lon="10.2920780">
	<ele>2073.40</ele>
	<time>2025-07-29T08:58:52.000Z</time>
</trkpt>
<trkpt lat="45.8726160" lon="10.2920880">
	<ele>2073.20</ele>
	<time>2025-07-29T08:58:53.000Z</time>
</trkpt>
<trkpt lat="45.8726080" lon="10.2920940">
	<ele>2073.00</ele>
	<time>2025-07-29T08:58:54.000Z</time>
</trkpt>
<trkpt lat="45.8726030" lon="10.2921020">
	<ele>2072.80</ele>
	<time>2025-07-29T08:58:55.000Z</time>
</trkpt>
<trkpt lat="45.8725920" lon="10.2921080">
	<ele>2072.60</ele>
	<time>2025-07-29T08:58:56.000Z</time>
</trkpt>
<trkpt lat="45.8725840" lon="10.2921170">
	<ele>2072.20</ele>
	<time>2025-07-29T08:58:57.000Z</time>
</trkpt>
<trkpt lat="45.8725780" lon="10.2921270">
	<ele>2072.20</ele>
	<time>2025-07-29T08:58:58.000Z</time>
</trkpt>
<trkpt lat="45.8725700" lon="10.2921420">
	<ele>2072.00</ele>
	<time>2025-07-29T08:58:59.000Z</time>
</trkpt>
<trkpt lat="45.8725600" lon="10.2921550">
	<ele>2072.00</ele>
	<time>2025-07-29T08:59:00.000Z</time>
</trkpt>
<trkpt lat="45.8725530" lon="10.2921670">
	<ele>2072.00</ele>
	<time>2025-07-29T08:59:01.000Z</time>
</trkpt>
<trkpt lat="45.8725450" lon="10.2921790">
	<ele>2071.80</ele>
	<time>2025-07-29T08:59:02.000Z</time>
</trkpt>
<trkpt lat="45.8725340" lon="10.2921880">
	<ele>2071.80</ele>
	<time>2025-07-29T08:59:03.000Z</time>
</trkpt>
<trkpt lat="45.8725250" lon="10.2921990">
	<ele>2071.80</ele>
	<time>2025-07-29T08:59:04.000Z</time>
</trkpt>
<trkpt lat="45.8725140" lon="10.2922070">
	<ele>2071.60</ele>
	<time>2025-07-29T08:59:05.000Z</time>
</trkpt>
<trkpt lat="45.8725060" lon="10.2922160">
	<ele>2071.60</ele>
	<time>2025-07-29T08:59:06.000Z</time>
</trkpt>
<trkpt lat="45.8724980" lon="10.2922320">
	<ele>2071.40</ele>
	<time>2025-07-29T08:59:07.000Z</time>
</trkpt>
<trkpt lat="45.8724940" lon="10.2922430">
	<ele>2071.20</ele>
	<time>2025-07-29T08:59:08.000Z</time>
</trkpt>
<trkpt lat="45.8724870" lon="10.2922570">
	<ele>2071.20</ele>
	<time>2025-07-29T08:59:09.000Z</time>
</trkpt>
<trkpt lat="45.8724800" lon="10.2922720">
	<ele>2071.00</ele>
	<time>2025-07-29T08:59:10.000Z</time>
</trkpt>
<trkpt lat="45.8724730" lon="10.2922830">
	<ele>2070.80</ele>
	<time>2025-07-29T08:59:11.000Z</time>
</trkpt>
<trkpt lat="45.8724650" lon="10.2922960">
	<ele>2070.80</ele>
	<time>2025-07-29T08:59:12.000Z</time>
</trkpt>
<trkpt lat="45.8724540" lon="10.2923110">
	<ele>2070.60</ele>
	<time>2025-07-29T08:59:13.000Z</time>
</trkpt>
<trkpt lat="45.8724470" lon="10.2923240">
	<ele>2070.60</ele>
	<time>2025-07-29T08:59:14.000Z</time>
</trkpt>
<trkpt lat="45.8724400" lon="10.2923350">
	<ele>2070.40</ele>
	<time>2025-07-29T08:59:15.000Z</time>
</trkpt>
<trkpt lat="45.8724340" lon="10.2923440">
	<ele>2070.20</ele>
	<time>2025-07-29T08:59:16.000Z</time>
</trkpt>
<trkpt lat="45.8724270" lon="10.2923580">
	<ele>2070.00</ele>
	<time>2025-07-29T08:59:17.000Z</time>
</trkpt>
<trkpt lat="45.8724200" lon="10.2923710">
	<ele>2069.60</ele>
	<time>2025-07-29T08:59:18.000Z</time>
</trkpt>
<trkpt lat="45.8724130" lon="10.2923830">
	<ele>2069.40</ele>
	<time>2025-07-29T08:59:19.000Z</time>
</trkpt>
<trkpt lat="45.8724030" lon="10.2923980">
	<ele>2069.20</ele>
	<time>2025-07-29T08:59:20.000Z</time>
</trkpt>
<trkpt lat="45.8723950" lon="10.2924100">
	<ele>2069.00</ele>
	<time>2025-07-29T08:59:21.000Z</time>
</trkpt>
<trkpt lat="45.8723870" lon="10.2924220">
	<ele>2069.00</ele>
	<time>2025-07-29T08:59:22.000Z</time>
</trkpt>
<trkpt lat="45.8723750" lon="10.2924380">
	<ele>2068.80</ele>
	<time>2025-07-29T08:59:23.000Z</time>
</trkpt>
<trkpt lat="45.8723650" lon="10.2924520">
	<ele>2068.60</ele>
	<time>2025-07-29T08:59:24.000Z</time>
</trkpt>
<trkpt lat="45.8723550" lon="10.2924630">
	<ele>2068.60</ele>
	<time>2025-07-29T08:59:25.000Z</time>
</trkpt>
<trkpt lat="45.8723430" lon="10.2924750">
	<ele>2068.40</ele>
	<time>2025-07-29T08:59:26.000Z</time>
</trkpt>
<trkpt lat="45.8723320" lon="10.2924860">
	<ele>2068.20</ele>
	<time>2025-07-29T08:59:27.000Z</time>
</trkpt>
<trkpt lat="45.8723240" lon="10.2924950">
	<ele>2068.00</ele>
	<time>2025-07-29T08:59:28.000Z</time>
</trkpt>
<trkpt lat="45.8723130" lon="10.2925060">
	<ele>2067.80</ele>
	<time>2025-07-29T08:59:29.000Z</time>
</trkpt>
<trkpt lat="45.8723040" lon="10.2925190">
	<ele>2067.60</ele>
	<time>2025-07-29T08:59:30.000Z</time>
</trkpt>
<trkpt lat="45.8722930" lon="10.2925330">
	<ele>2067.40</ele>
	<time>2025-07-29T08:59:31.000Z</time>
</trkpt>
<trkpt lat="45.8722830" lon="10.2925450">
	<ele>2067.20</ele>
	<time>2025-07-29T08:59:32.000Z</time>
</trkpt>
<trkpt lat="45.8722750" lon="10.2925550">
	<ele>2067.20</ele>
	<time>2025-07-29T08:59:33.000Z</time>
</trkpt>
<trkpt lat="45.8722670" lon="10.2925630">
	<ele>2067.00</ele>
	<time>2025-07-29T08:59:34.000Z</time>
</trkpt>
<trkpt lat="45.8722620" lon="10.2925710">
	<ele>2067.00</ele>
	<time>2025-07-29T08:59:35.000Z</time>
</trkpt>
<trkpt lat="45.8722620" lon="10.2925770">
	<ele>2067.00</ele>
	<time>2025-07-29T08:59:36.000Z</time>
</trkpt>
<trkpt lat="45.8722590" lon="10.2925900">
	<ele>2066.80</ele>
	<time>2025-07-29T08:59:37.000Z</time>
</trkpt>
<trkpt lat="45.8722480" lon="10.2925950">
	<ele>2066.60</ele>
	<time>2025-07-29T08:59:38.000Z</time>
</trkpt>
<trkpt lat="45.8722370" lon="10.2925990">
	<ele>2066.40</ele>
	<time>2025-07-29T08:59:39.000Z</time>
</trkpt>
<trkpt lat="45.8722270" lon="10.2926060">
	<ele>2066.20</ele>
	<time>2025-07-29T08:59:40.000Z</time>
</trkpt>
<trkpt lat="45.8722160" lon="10.2926160">
	<ele>2066.20</ele>
	<time>2025-07-29T08:59:41.000Z</time>
</trkpt>
<trkpt lat="45.8722080" lon="10.2926230">
	<ele>2066.00</ele>
	<time>2025-07-29T08:59:42.000Z</time>
</trkpt>
<trkpt lat="45.8721980" lon="10.2926330">
	<ele>2066.00</ele>
	<time>2025-07-29T08:59:43.000Z</time>
</trkpt>
<trkpt lat="45.8721900" lon="10.2926520">
	<ele>2065.80</ele>
	<time>2025-07-29T08:59:44.000Z</time>
</trkpt>
<trkpt lat="45.8721910" lon="10.2926610">
	<ele>2065.60</ele>
	<time>2025-07-29T08:59:45.000Z</time>
</trkpt>
<trkpt lat="45.8721780" lon="10.2926650">
	<ele>2065.40</ele>
	<time>2025-07-29T08:59:46.000Z</time>
</trkpt>
<trkpt lat="45.8721650" lon="10.2926680">
	<ele>2065.20</ele>
	<time>2025-07-29T08:59:47.000Z</time>
</trkpt>
<trkpt lat="45.8721510" lon="10.2926740">
	<ele>2065.00</ele>
	<time>2025-07-29T08:59:48.000Z</time>
</trkpt>
<trkpt lat="45.8721350" lon="10.2926790">
	<ele>2065.00</ele>
	<time>2025-07-29T08:59:49.000Z</time>
</trkpt>
<trkpt lat="45.8721230" lon="10.2926820">
	<ele>2064.80</ele>
	<time>2025-07-29T08:59:50.000Z</time>
</trkpt>
<trkpt lat="45.8721130" lon="10.2926850">
	<ele>2064.60</ele>
	<time>2025-07-29T08:59:51.000Z</time>
</trkpt>
<trkpt lat="45.8721000" lon="10.2926940">
	<ele>2064.40</ele>
	<time>2025-07-29T08:59:52.000Z</time>
</trkpt>
<trkpt lat="45.8720930" lon="10.2927000">
	<ele>2064.20</ele>
	<time>2025-07-29T08:59:53.000Z</time>
</trkpt>
<trkpt lat="45.8720860" lon="10.2927090">
	<ele>2064.00</ele>
	<time>2025-07-29T08:59:54.000Z</time>
</trkpt>
<trkpt lat="45.8720790" lon="10.2927200">
	<ele>2064.00</ele>
	<time>2025-07-29T08:59:55.000Z</time>
</trkpt>
<trkpt lat="45.8720700" lon="10.2927310">
	<ele>2063.80</ele>
	<time>2025-07-29T08:59:56.000Z</time>
</trkpt>
<trkpt lat="45.8720600" lon="10.2927430">
	<ele>2063.60</ele>
	<time>2025-07-29T08:59:57.000Z</time>
</trkpt>
<trkpt lat="45.8720560" lon="10.2927520">
	<ele>2063.40</ele>
	<time>2025-07-29T08:59:58.000Z</time>
</trkpt>
<trkpt lat="45.8720510" lon="10.2927620">
	<ele>2063.20</ele>
	<time>2025-07-29T08:59:59.000Z</time>
</trkpt>
<trkpt lat="45.8720410" lon="10.2927710">
	<ele>2063.20</ele>
	<time>2025-07-29T09:00:00.000Z</time>
</trkpt>
<trkpt lat="45.8720330" lon="10.2927710">
	<ele>2063.00</ele>
	<time>2025-07-29T09:00:01.000Z</time>
</trkpt>
<trkpt lat="45.8720240" lon="10.2927730">
	<ele>2062.80</ele>
	<time>2025-07-29T09:00:02.000Z</time>
</trkpt>
<trkpt lat="45.8720130" lon="10.2927790">
	<ele>2062.60</ele>
	<time>2025-07-29T09:00:03.000Z</time>
</trkpt>
<trkpt lat="45.8720030" lon="10.2927860">
	<ele>2062.40</ele>
	<time>2025-07-29T09:00:04.000Z</time>
</trkpt>
<trkpt lat="45.8719980" lon="10.2927900">
	<ele>2062.40</ele>
	<time>2025-07-29T09:00:05.000Z</time>
</trkpt>
<trkpt lat="45.8719930" lon="10.2927930">
	<ele>2062.20</ele>
	<time>2025-07-29T09:00:06.000Z</time>
</trkpt>
<trkpt lat="45.8719870" lon="10.2927960">
	<ele>2062.20</ele>
	<time>2025-07-29T09:00:07.000Z</time>
</trkpt>
<trkpt lat="45.8719800" lon="10.2928090">
	<ele>2062.00</ele>
	<time>2025-07-29T09:00:08.000Z</time>
</trkpt>
<trkpt lat="45.8719710" lon="10.2928210">
	<ele>2062.00</ele>
	<time>2025-07-29T09:00:09.000Z</time>
</trkpt>
<trkpt lat="45.8719600" lon="10.2928340">
	<ele>2062.00</ele>
	<time>2025-07-29T09:00:10.000Z</time>
</trkpt>
<trkpt lat="45.8719520" lon="10.2928370">
	<ele>2061.80</ele>
	<time>2025-07-29T09:00:11.000Z</time>
</trkpt>
<trkpt lat="45.8719420" lon="10.2928470">
	<ele>2061.80</ele>
	<time>2025-07-29T09:00:12.000Z</time>
</trkpt>
<trkpt lat="45.8719340" lon="10.2928590">
	<ele>2061.80</ele>
	<time>2025-07-29T09:00:13.000Z</time>
</trkpt>
<trkpt lat="45.8719280" lon="10.2928690">
	<ele>2061.80</ele>
	<time>2025-07-29T09:00:14.000Z</time>
</trkpt>
<trkpt lat="45.8719220" lon="10.2928810">
	<ele>2061.80</ele>
	<time>2025-07-29T09:00:15.000Z</time>
</trkpt>
<trkpt lat="45.8719170" lon="10.2928900">
	<ele>2061.80</ele>
	<time>2025-07-29T09:00:16.000Z</time>
</trkpt>
<trkpt lat="45.8719120" lon="10.2928980">
	<ele>2061.60</ele>
	<time>2025-07-29T09:00:17.000Z</time>
</trkpt>
<trkpt lat="45.8719080" lon="10.2929020">
	<ele>2061.60</ele>
	<time>2025-07-29T09:00:18.000Z</time>
</trkpt>
<trkpt lat="45.8719040" lon="10.2929050">
	<ele>2061.60</ele>
	<time>2025-07-29T09:00:19.000Z</time>
</trkpt>
<trkpt lat="45.8719010" lon="10.2929100">
	<ele>2061.60</ele>
	<time>2025-07-29T09:00:20.000Z</time>
</trkpt>
<trkpt lat="45.8718980" lon="10.2929190">
	<ele>2061.60</ele>
	<time>2025-07-29T09:00:21.000Z</time>
</trkpt>
<trkpt lat="45.8718970" lon="10.2929230">
	<ele>2061.60</ele>
	<time>2025-07-29T09:00:22.000Z</time>
</trkpt>
<trkpt lat="45.8718970" lon="10.2929250">
	<ele>2061.40</ele>
	<time>2025-07-29T09:00:23.000Z</time>
</trkpt>
<trkpt lat="45.8718950" lon="10.2929270">
	<ele>2061.20</ele>
	<time>2025-07-29T09:00:24.000Z</time>
</trkpt>
<trkpt lat="45.8718930" lon="10.2929250">
	<ele>2061.20</ele>
	<time>2025-07-29T09:00:25.000Z</time>
</trkpt>
<trkpt lat="45.8718880" lon="10.2929240">
	<ele>2061.00</ele>
	<time>2025-07-29T09:00:26.000Z</time>
</trkpt>
<trkpt lat="45.8718850" lon="10.2929240">
	<ele>2060.80</ele>
	<time>2025-07-29T09:00:27.000Z</time>
</trkpt>
<trkpt lat="45.8718810" lon="10.2929220">
	<ele>2060.60</ele>
	<time>2025-07-29T09:00:28.000Z</time>
</trkpt>
<trkpt lat="45.8718800" lon="10.2929210">
	<ele>2060.60</ele>
	<time>2025-07-29T09:00:29.000Z</time>
</trkpt>
<trkpt lat="45.8718790" lon="10.2929230">
	<ele>2060.40</ele>
	<time>2025-07-29T09:00:30.000Z</time>
</trkpt>
<trkpt lat="45.8718750" lon="10.2929230">
	<ele>2060.40</ele>
	<time>2025-07-29T09:00:31.000Z</time>
</trkpt>
<trkpt lat="45.8718710" lon="10.2929250">
	<ele>2060.20</ele>
	<time>2025-07-29T09:00:32.000Z</time>
</trkpt>
<trkpt lat="45.8718660" lon="10.2929230">
	<ele>2060.00</ele>
	<time>2025-07-29T09:00:33.000Z</time>
</trkpt>
<trkpt lat="45.8718570" lon="10.2929210">
	<ele>2060.00</ele>
	<time>2025-07-29T09:00:34.000Z</time>
</trkpt>
<trkpt lat="45.8718500" lon="10.2929240">
	<ele>2060.00</ele>
	<time>2025-07-29T09:00:35.000Z</time>
</trkpt>
<trkpt lat="45.8718440" lon="10.2929280">
	<ele>2059.80</ele>
	<time>2025-07-29T09:00:36.000Z</time>
</trkpt>
<trkpt lat="45.8718400" lon="10.2929320">
	<ele>2059.80</ele>
	<time>2025-07-29T09:00:37.000Z</time>
</trkpt>
<trkpt lat="45.8718360" lon="10.2929340">
	<ele>2059.60</ele>
	<time>2025-07-29T09:00:38.000Z</time>
</trkpt>
<trkpt lat="45.8718300" lon="10.2929400">
	<ele>2059.40</ele>
	<time>2025-07-29T09:00:39.000Z</time>
</trkpt>
<trkpt lat="45.8718290" lon="10.2929430">
	<ele>2059.20</ele>
	<time>2025-07-29T09:00:40.000Z</time>
</trkpt>
<trkpt lat="45.8718220" lon="10.2929500">
	<ele>2059.00</ele>
	<time>2025-07-29T09:00:41.000Z</time>
</trkpt>
<trkpt lat="45.8718150" lon="10.2929580">
	<ele>2058.80</ele>
	<time>2025-07-29T09:00:42.000Z</time>
</trkpt>
<trkpt lat="45.8718080" lon="10.2929690">
	<ele>2058.60</ele>
	<time>2025-07-29T09:00:43.000Z</time>
</trkpt>
<trkpt lat="45.8717990" lon="10.2929790">
	<ele>2058.60</ele>
	<time>2025-07-29T09:00:44.000Z</time>
</trkpt>
<trkpt lat="45.8717910" lon="10.2929810">
	<ele>2058.40</ele>
	<time>2025-07-29T09:00:45.000Z</time>
</trkpt>
<trkpt lat="45.8717780" lon="10.2929850">
	<ele>2058.40</ele>
	<time>2025-07-29T09:00:46.000Z</time>
</trkpt>
<trkpt lat="45.8717690" lon="10.2929870">
	<ele>2058.40</ele>
	<time>2025-07-29T09:00:47.000Z</time>
</trkpt>
<trkpt lat="45.8717610" lon="10.2929920">
	<ele>2058.40</ele>
	<time>2025-07-29T09:00:48.000Z</time>
</trkpt>
<trkpt lat="45.8717550" lon="10.2929970">
	<ele>2058.20</ele>
	<time>2025-07-29T09:00:49.000Z</time>
</trkpt>
<trkpt lat="45.8717470" lon="10.2930050">
	<ele>2058.20</ele>
	<time>2025-07-29T09:00:50.000Z</time>
</trkpt>
<trkpt lat="45.8717420" lon="10.2930040">
	<ele>2058.00</ele>
	<time>2025-07-29T09:00:51.000Z</time>
</trkpt>
<trkpt lat="45.8717370" lon="10.2930050">
	<ele>2057.80</ele>
	<time>2025-07-29T09:00:52.000Z</time>
</trkpt>
<trkpt lat="45.8717360" lon="10.2930060">
	<ele>2057.60</ele>
	<time>2025-07-29T09:00:53.000Z</time>
</trkpt>
<trkpt lat="45.8717350" lon="10.2930140">
	<ele>2057.60</ele>
	<time>2025-07-29T09:00:54.000Z</time>
</trkpt>
<trkpt lat="45.8717320" lon="10.2930160">
	<ele>2057.40</ele>
	<time>2025-07-29T09:00:55.000Z</time>
</trkpt>
<trkpt lat="45.8717250" lon="10.2930200">
	<ele>2057.20</ele>
	<time>2025-07-29T09:00:56.000Z</time>
</trkpt>
<trkpt lat="45.8717180" lon="10.2930260">
	<ele>2056.80</ele>
	<time>2025-07-29T09:00:57.000Z</time>
</trkpt>
<trkpt lat="45.8717100" lon="10.2930340">
	<ele>2056.40</ele>
	<time>2025-07-29T09:00:58.000Z</time>
</trkpt>
<trkpt lat="45.8717050" lon="10.2930410">
	<ele>2056.20</ele>
	<time>2025-07-29T09:00:59.000Z</time>
</trkpt>
<trkpt lat="45.8717010" lon="10.2930450">
	<ele>2056.00</ele>
	<time>2025-07-29T09:01:00.000Z</time>
</trkpt>
<trkpt lat="45.8716980" lon="10.2930500">
	<ele>2056.00</ele>
	<time>2025-07-29T09:01:01.000Z</time>
</trkpt>
<trkpt lat="45.8716960" lon="10.2930520">
	<ele>2055.60</ele>
	<time>2025-07-29T09:01:02.000Z</time>
</trkpt>
<trkpt lat="45.8716960" lon="10.2930540">
	<ele>2055.40</ele>
	<time>2025-07-29T09:01:03.000Z</time>
</trkpt>
<trkpt lat="45.8716950" lon="10.2930570">
	<ele>2055.40</ele>
	<time>2025-07-29T09:01:04.000Z</time>
</trkpt>
<trkpt lat="45.8716970" lon="10.2930600">
	<ele>2055.40</ele>
	<time>2025-07-29T09:01:05.000Z</time>
</trkpt>
<trkpt lat="45.8716980" lon="10.2930630">
	<ele>2055.40</ele>
	<time>2025-07-29T09:01:06.000Z</time>
</trkpt>
<trkpt lat="45.8716980" lon="10.2930630">
	<ele>2055.40</ele>
	<time>2025-07-29T09:01:07.000Z</time>
</trkpt>
<trkpt lat="45.8717000" lon="10.2930650">
	<ele>2055.40</ele>
	<time>2025-07-29T09:01:08.000Z</time>
</trkpt>
<trkpt lat="45.8717010" lon="10.2930660">
	<ele>2055.40</ele>
	<time>2025-07-29T09:01:09.000Z</time>
</trkpt>
<trkpt lat="45.8717020" lon="10.2930660">
	<ele>2055.60</ele>
	<time>2025-07-29T09:01:10.000Z</time>
</trkpt>
<trkpt lat="45.8717020" lon="10.2930690">
	<ele>2055.60</ele>
	<time>2025-07-29T09:01:11.000Z</time>
</trkpt>
<trkpt lat="45.8717010" lon="10.2930700">
	<ele>2055.60</ele>
	<time>2025-07-29T09:01:12.000Z</time>
</trkpt>
<trkpt lat="45.8717000" lon="10.2930710">
	<ele>2055.60</ele>
	<time>2025-07-29T09:01:13.000Z</time>
</trkpt>
<trkpt lat="45.8716970" lon="10.2930760">
	<ele>2055.60</ele>
	<time>2025-07-29T09:01:14.000Z</time>
</trkpt>
<trkpt lat="45.8716910" lon="10.2930780">
	<ele>2055.60</ele>
	<time>2025-07-29T09:01:15.000Z</time>
</trkpt>
<trkpt lat="45.8716830" lon="10.2930750">
	<ele>2055.40</ele>
	<time>2025-07-29T09:01:16.000Z</time>
</trkpt>
<trkpt lat="45.8716790" lon="10.2930770">
	<ele>2055.20</ele>
	<time>2025-07-29T09:01:17.000Z</time>
</trkpt>
<trkpt lat="45.8716690" lon="10.2930800">
	<ele>2055.20</ele>
	<time>2025-07-29T09:01:18.000Z</time>
</trkpt>
<trkpt lat="45.8716600" lon="10.2930860">
	<ele>2055.00</ele>
	<time>2025-07-29T09:01:19.000Z</time>
</trkpt>
<trkpt lat="45.8716510" lon="10.2930960">
	<ele>2055.00</ele>
	<time>2025-07-29T09:01:20.000Z</time>
</trkpt>
<trkpt lat="45.8716410" lon="10.2931030">
	<ele>2054.80</ele>
	<time>2025-07-29T09:01:21.000Z</time>
</trkpt>
<trkpt lat="45.8716320" lon="10.2931080">
	<ele>2054.60</ele>
	<time>2025-07-29T09:01:22.000Z</time>
</trkpt>
<trkpt lat="45.8716260" lon="10.2931140">
	<ele>2054.40</ele>
	<time>2025-07-29T09:01:23.000Z</time>
</trkpt>
<trkpt lat="45.8716210" lon="10.2931250">
	<ele>2054.20</ele>
	<time>2025-07-29T09:01:24.000Z</time>
</trkpt>
<trkpt lat="45.8716190" lon="10.2931360">
	<ele>2054.00</ele>
	<time>2025-07-29T09:01:25.000Z</time>
</trkpt>
<trkpt lat="45.8716120" lon="10.2931420">
	<ele>2054.00</ele>
	<time>2025-07-29T09:01:26.000Z</time>
</trkpt>
<trkpt lat="45.8716030" lon="10.2931470">
	<ele>2053.60</ele>
	<time>2025-07-29T09:01:27.000Z</time>
</trkpt>
<trkpt lat="45.8715950" lon="10.2931490">
	<ele>2053.40</ele>
	<time>2025-07-29T09:01:28.000Z</time>
</trkpt>
<trkpt lat="45.8715860" lon="10.2931480">
	<ele>2053.00</ele>
	<time>2025-07-29T09:01:29.000Z</time>
</trkpt>
<trkpt lat="45.8715770" lon="10.2931520">
	<ele>2052.80</ele>
	<time>2025-07-29T09:01:30.000Z</time>
</trkpt>
<trkpt lat="45.8715650" lon="10.2931550">
	<ele>2052.80</ele>
	<time>2025-07-29T09:01:31.000Z</time>
</trkpt>
<trkpt lat="45.8715570" lon="10.2931580">
	<ele>2052.60</ele>
	<time>2025-07-29T09:01:32.000Z</time>
</trkpt>
<trkpt lat="45.8715410" lon="10.2931610">
	<ele>2052.40</ele>
	<time>2025-07-29T09:01:33.000Z</time>
</trkpt>
<trkpt lat="45.8715280" lon="10.2931610">
	<ele>2052.20</ele>
	<time>2025-07-29T09:01:34.000Z</time>
</trkpt>
<trkpt lat="45.8715170" lon="10.2931650">
	<ele>2052.00</ele>
	<time>2025-07-29T09:01:35.000Z</time>
</trkpt>
<trkpt lat="45.8715060" lon="10.2931690">
	<ele>2051.60</ele>
	<time>2025-07-29T09:01:36.000Z</time>
</trkpt>
<trkpt lat="45.8714940" lon="10.2931740">
	<ele>2051.40</ele>
	<time>2025-07-29T09:01:37.000Z</time>
</trkpt>
<trkpt lat="45.8714860" lon="10.2931780">
	<ele>2051.20</ele>
	<time>2025-07-29T09:01:38.000Z</time>
</trkpt>
<trkpt lat="45.8714760" lon="10.2931840">
	<ele>2051.20</ele>
	<time>2025-07-29T09:01:39.000Z</time>
</trkpt>
<trkpt lat="45.8714690" lon="10.2931890">
	<ele>2051.00</ele>
	<time>2025-07-29T09:01:40.000Z</time>
</trkpt>
<trkpt lat="45.8714600" lon="10.2931970">
	<ele>2051.00</ele>
	<time>2025-07-29T09:01:41.000Z</time>
</trkpt>
<trkpt lat="45.8714480" lon="10.2932040">
	<ele>2050.80</ele>
	<time>2025-07-29T09:01:42.000Z</time>
</trkpt>
<trkpt lat="45.8714380" lon="10.2932050">
	<ele>2050.60</ele>
	<time>2025-07-29T09:01:43.000Z</time>
</trkpt>
<trkpt lat="45.8714290" lon="10.2932060">
	<ele>2050.40</ele>
	<time>2025-07-29T09:01:44.000Z</time>
</trkpt>
<trkpt lat="45.8714190" lon="10.2932070">
	<ele>2050.20</ele>
	<time>2025-07-29T09:01:45.000Z</time>
</trkpt>
<trkpt lat="45.8714130" lon="10.2932100">
	<ele>2050.00</ele>
	<time>2025-07-29T09:01:46.000Z</time>
</trkpt>
<trkpt lat="45.8714040" lon="10.2932160">
	<ele>2050.00</ele>
	<time>2025-07-29T09:01:47.000Z</time>
</trkpt>
<trkpt lat="45.8714000" lon="10.2932240">
	<ele>2050.00</ele>
	<time>2025-07-29T09:01:48.000Z</time>
</trkpt>
<trkpt lat="45.8713950" lon="10.2932260">
	<ele>2049.60</ele>
	<time>2025-07-29T09:01:49.000Z</time>
</trkpt>
<trkpt lat="45.8713930" lon="10.2932270">
	<ele>2049.60</ele>
	<time>2025-07-29T09:01:50.000Z</time>
</trkpt>
<trkpt lat="45.8713930" lon="10.2932250">
	<ele>2049.40</ele>
	<time>2025-07-29T09:01:51.000Z</time>
</trkpt>
<trkpt lat="45.8713940" lon="10.2932260">
	<ele>2049.40</ele>
	<time>2025-07-29T09:01:52.000Z</time>
</trkpt>
<trkpt lat="45.8713940" lon="10.2932260">
	<ele>2049.20</ele>
	<time>2025-07-29T09:01:53.000Z</time>
</trkpt>
<trkpt lat="45.8713940" lon="10.2932240">
	<ele>2049.20</ele>
	<time>2025-07-29T09:01:54.000Z</time>
</trkpt>
<trkpt lat="45.8713940" lon="10.2932240">
	<ele>2049.20</ele>
	<time>2025-07-29T09:01:55.000Z</time>
</trkpt>
<trkpt lat="45.8713940" lon="10.2932220">
	<ele>2049.20</ele>
	<time>2025-07-29T09:01:56.000Z</time>
</trkpt>
<trkpt lat="45.8713950" lon="10.2932200">
	<ele>2049.20</ele>
	<time>2025-07-29T09:01:57.000Z</time>
</trkpt>
<trkpt lat="45.8713950" lon="10.2932210">
	<ele>2049.20</ele>
	<time>2025-07-29T09:01:58.000Z</time>
</trkpt>
<trkpt lat="45.8713940" lon="10.2932210">
	<ele>2049.20</ele>
	<time>2025-07-29T09:01:59.000Z</time>
</trkpt>
<trkpt lat="45.8713920" lon="10.2932240">
	<ele>2049.20</ele>
	<time>2025-07-29T09:02:00.000Z</time>
</trkpt>
<trkpt lat="45.8713930" lon="10.2932260">
	<ele>2049.20</ele>
	<time>2025-07-29T09:02:01.000Z</time>
</trkpt>
<trkpt lat="45.8713920" lon="10.2932250">
	<ele>2049.20</ele>
	<time>2025-07-29T09:02:02.000Z</time>
</trkpt>
<trkpt lat="45.8713900" lon="10.2932250">
	<ele>2049.20</ele>
	<time>2025-07-29T09:02:03.000Z</time>
</trkpt>
<trkpt lat="45.8713870" lon="10.2932260">
	<ele>2049.20</ele>
	<time>2025-07-29T09:02:04.000Z</time>
</trkpt>
<trkpt lat="45.8713820" lon="10.2932310">
	<ele>2049.00</ele>
	<time>2025-07-29T09:02:05.000Z</time>
</trkpt>
<trkpt lat="45.8713770" lon="10.2932400">
	<ele>2049.00</ele>
	<time>2025-07-29T09:02:06.000Z</time>
</trkpt>
<trkpt lat="45.8713740" lon="10.2932520">
	<ele>2049.00</ele>
	<time>2025-07-29T09:02:07.000Z</time>
</trkpt>
<trkpt lat="45.8713630" lon="10.2932580">
	<ele>2048.80</ele>
	<time>2025-07-29T09:02:08.000Z</time>
</trkpt>
<trkpt lat="45.8713540" lon="10.2932650">
	<ele>2048.80</ele>
	<time>2025-07-29T09:02:09.000Z</time>
</trkpt>
<trkpt lat="45.8713420" lon="10.2932740">
	<ele>2048.80</ele>
	<time>2025-07-29T09:02:10.000Z</time>
</trkpt>
<trkpt lat="45.8713310" lon="10.2932830">
	<ele>2048.60</ele>
	<time>2025-07-29T09:02:11.000Z</time>
</trkpt>
<trkpt lat="45.8713210" lon="10.2932910">
	<ele>2048.60</ele>
	<time>2025-07-29T09:02:12.000Z</time>
</trkpt>
<trkpt lat="45.8713120" lon="10.2932980">
	<ele>2048.60</ele>
	<time>2025-07-29T09:02:13.000Z</time>
</trkpt>
<trkpt lat="45.8713000" lon="10.2933070">
	<ele>2048.40</ele>
	<time>2025-07-29T09:02:14.000Z</time>
</trkpt>
<trkpt lat="45.8712910" lon="10.2933160">
	<ele>2048.40</ele>
	<time>2025-07-29T09:02:15.000Z</time>
</trkpt>
<trkpt lat="45.8712860" lon="10.2933280">
	<ele>2048.20</ele>
	<time>2025-07-29T09:02:16.000Z</time>
</trkpt>
<trkpt lat="45.8712790" lon="10.2933380">
	<ele>2048.00</ele>
	<time>2025-07-29T09:02:17.000Z</time>
</trkpt>
<trkpt lat="45.8712670" lon="10.2933340">
	<ele>2048.00</ele>
	<time>2025-07-29T09:02:18.000Z</time>
</trkpt>
<trkpt lat="45.8712590" lon="10.2933310">
	<ele>2048.00</ele>
	<time>2025-07-29T09:02:19.000Z</time>
</trkpt>
<trkpt lat="45.8712510" lon="10.2933340">
	<ele>2047.80</ele>
	<time>2025-07-29T09:02:20.000Z</time>
</trkpt>
<trkpt lat="45.8712400" lon="10.2933360">
	<ele>2047.40</ele>
	<time>2025-07-29T09:02:21.000Z</time>
</trkpt>
<trkpt lat="45.8712280" lon="10.2933340">
	<ele>2047.20</ele>
	<time>2025-07-29T09:02:22.000Z</time>
</trkpt>
<trkpt lat="45.8712170" lon="10.2933380">
	<ele>2047.00</ele>
	<time>2025-07-29T09:02:23.000Z</time>
</trkpt>
<trkpt lat="45.8712050" lon="10.2933430">
	<ele>2046.60</ele>
	<time>2025-07-29T09:02:24.000Z</time>
</trkpt>
<trkpt lat="45.8711920" lon="10.2933490">
	<ele>2046.40</ele>
	<time>2025-07-29T09:02:25.000Z</time>
</trkpt>
<trkpt lat="45.8711830" lon="10.2933550">
	<ele>2046.20</ele>
	<time>2025-07-29T09:02:26.000Z</time>
</trkpt>
<trkpt lat="45.8711730" lon="10.2933630">
	<ele>2046.00</ele>
	<time>2025-07-29T09:02:27.000Z</time>
</trkpt>
<trkpt lat="45.8711640" lon="10.2933730">
	<ele>2046.00</ele>
	<time>2025-07-29T09:02:28.000Z</time>
</trkpt>
<trkpt lat="45.8711530" lon="10.2933830">
	<ele>2046.00</ele>
	<time>2025-07-29T09:02:29.000Z</time>
</trkpt>
<trkpt lat="45.8711440" lon="10.2933940">
	<ele>2046.00</ele>
	<time>2025-07-29T09:02:30.000Z</time>
</trkpt>
<trkpt lat="45.8711380" lon="10.2934080">
	<ele>2046.00</ele>
	<time>2025-07-29T09:02:31.000Z</time>
</trkpt>
<trkpt lat="45.8711300" lon="10.2934180">
	<ele>2046.00</ele>
	<time>2025-07-29T09:02:32.000Z</time>
</trkpt>
<trkpt lat="45.8711230" lon="10.2934290">
	<ele>2046.00</ele>
	<time>2025-07-29T09:02:33.000Z</time>
</trkpt>
<trkpt lat="45.8711150" lon="10.2934390">
	<ele>2046.00</ele>
	<time>2025-07-29T09:02:34.000Z</time>
</trkpt>
<trkpt lat="45.8711060" lon="10.2934490">
	<ele>2046.20</ele>
	<time>2025-07-29T09:02:35.000Z</time>
</trkpt>
<trkpt lat="45.8710960" lon="10.2934590">
	<ele>2046.20</ele>
	<time>2025-07-29T09:02:36.000Z</time>
</trkpt>
<trkpt lat="45.8710880" lon="10.2934670">
	<ele>2046.20</ele>
	<time>2025-07-29T09:02:37.000Z</time>
</trkpt>
<trkpt lat="45.8710780" lon="10.2934720">
	<ele>2046.20</ele>
	<time>2025-07-29T09:02:38.000Z</time>
</trkpt>
<trkpt lat="45.8710690" lon="10.2934760">
	<ele>2046.40</ele>
	<time>2025-07-29T09:02:39.000Z</time>
</trkpt>
<trkpt lat="45.8710560" lon="10.2934840">
	<ele>2046.40</ele>
	<time>2025-07-29T09:02:40.000Z</time>
</trkpt>
<trkpt lat="45.8710470" lon="10.2934930">
	<ele>2046.40</ele>
	<time>2025-07-29T09:02:41.000Z</time>
</trkpt>
<trkpt lat="45.8710380" lon="10.2935060">
	<ele>2046.60</ele>
	<time>2025-07-29T09:02:42.000Z</time>
</trkpt>
<trkpt lat="45.8710280" lon="10.2935250">
	<ele>2046.60</ele>
	<time>2025-07-29T09:02:43.000Z</time>
</trkpt>
<trkpt lat="45.8710210" lon="10.2935350">
	<ele>2046.60</ele>
	<time>2025-07-29T09:02:44.000Z</time>
</trkpt>
<trkpt lat="45.8710130" lon="10.2935420">
	<ele>2046.80</ele>
	<time>2025-07-29T09:02:45.000Z</time>
</trkpt>
<trkpt lat="45.8709990" lon="10.2935470">
	<ele>2046.80</ele>
	<time>2025-07-29T09:02:46.000Z</time>
</trkpt>
<trkpt lat="45.8709880" lon="10.2935540">
	<ele>2046.80</ele>
	<time>2025-07-29T09:02:47.000Z</time>
</trkpt>
<trkpt lat="45.8709780" lon="10.2935660">
	<ele>2046.80</ele>
	<time>2025-07-29T09:02:48.000Z</time>
</trkpt>
<trkpt lat="45.8709680" lon="10.2935730">
	<ele>2046.80</ele>
	<time>2025-07-29T09:02:49.000Z</time>
</trkpt>
<trkpt lat="45.8709570" lon="10.2935800">
	<ele>2047.00</ele>
	<time>2025-07-29T09:02:50.000Z</time>
</trkpt>
<trkpt lat="45.8709470" lon="10.2935860">
	<ele>2047.00</ele>
	<time>2025-07-29T09:02:51.000Z</time>
</trkpt>
<trkpt lat="45.8709380" lon="10.2935910">
	<ele>2047.00</ele>
	<time>2025-07-29T09:02:52.000Z</time>
</trkpt>
<trkpt lat="45.8709270" lon="10.2935970">
	<ele>2047.00</ele>
	<time>2025-07-29T09:02:53.000Z</time>
</trkpt>
<trkpt lat="45.8709160" lon="10.2936050">
	<ele>2047.20</ele>
	<time>2025-07-29T09:02:54.000Z</time>
</trkpt>
<trkpt lat="45.8709060" lon="10.2936120">
	<ele>2047.20</ele>
	<time>2025-07-29T09:02:55.000Z</time>
</trkpt>
<trkpt lat="45.8708970" lon="10.2936180">
	<ele>2047.40</ele>
	<time>2025-07-29T09:02:56.000Z</time>
</trkpt>
<trkpt lat="45.8708890" lon="10.2936250">
	<ele>2047.40</ele>
	<time>2025-07-29T09:02:57.000Z</time>
</trkpt>
<trkpt lat="45.8708780" lon="10.2936360">
	<ele>2047.40</ele>
	<time>2025-07-29T09:02:58.000Z</time>
</trkpt>
<trkpt lat="45.8708700" lon="10.2936400">
	<ele>2047.40</ele>
	<time>2025-07-29T09:02:59.000Z</time>
</trkpt>
<trkpt lat="45.8708590" lon="10.2936450">
	<ele>2047.40</ele>
	<time>2025-07-29T09:03:00.000Z</time>
</trkpt>
<trkpt lat="45.8708490" lon="10.2936480">
	<ele>2047.60</ele>
	<time>2025-07-29T09:03:01.000Z</time>
</trkpt>
<trkpt lat="45.8708380" lon="10.2936540">
	<ele>2047.60</ele>
	<time>2025-07-29T09:03:02.000Z</time>
</trkpt>
<trkpt lat="45.8708260" lon="10.2936560">
	<ele>2047.80</ele>
	<time>2025-07-29T09:03:03.000Z</time>
</trkpt>
<trkpt lat="45.8708150" lon="10.2936660">
	<ele>2047.80</ele>
	<time>2025-07-29T09:03:04.000Z</time>
</trkpt>
<trkpt lat="45.8708050" lon="10.2936760">
	<ele>2047.80</ele>
	<time>2025-07-29T09:03:05.000Z</time>
</trkpt>
<trkpt lat="45.8707970" lon="10.2936870">
	<ele>2047.80</ele>
	<time>2025-07-29T09:03:06.000Z</time>
</trkpt>
<trkpt lat="45.8707880" lon="10.2936960">
	<ele>2047.80</ele>
	<time>2025-07-29T09:03:07.000Z</time>
</trkpt>
<trkpt lat="45.8707800" lon="10.2937040">
	<ele>2047.80</ele>
	<time>2025-07-29T09:03:08.000Z</time>
</trkpt>
<trkpt lat="45.8707700" lon="10.2937110">
	<ele>2048.00</ele>
	<time>2025-07-29T09:03:09.000Z</time>
</trkpt>
<trkpt lat="45.8707590" lon="10.2937210">
	<ele>2048.00</ele>
	<time>2025-07-29T09:03:10.000Z</time>
</trkpt>
<trkpt lat="45.8707480" lon="10.2937290">
	<ele>2048.00</ele>
	<time>2025-07-29T09:03:11.000Z</time>
</trkpt>
<trkpt lat="45.8707390" lon="10.2937390">
	<ele>2048.00</ele>
	<time>2025-07-29T09:03:12.000Z</time>
</trkpt>
<trkpt lat="45.8707300" lon="10.2937470">
	<ele>2048.00</ele>
	<time>2025-07-29T09:03:13.000Z</time>
</trkpt>
<trkpt lat="45.8707200" lon="10.2937570">
	<ele>2048.20</ele>
	<time>2025-07-29T09:03:14.000Z</time>
</trkpt>
<trkpt lat="45.8707140" lon="10.2937650">
	<ele>2048.20</ele>
	<time>2025-07-29T09:03:15.000Z</time>
</trkpt>
<trkpt lat="45.8707080" lon="10.2937710">
	<ele>2048.20</ele>
	<time>2025-07-29T09:03:16.000Z</time>
</trkpt>
<trkpt lat="45.8706990" lon="10.2937770">
	<ele>2048.20</ele>
	<time>2025-07-29T09:03:17.000Z</time>
</trkpt>
<trkpt lat="45.8706900" lon="10.2937840">
	<ele>2048.20</ele>
	<time>2025-07-29T09:03:18.000Z</time>
</trkpt>
<trkpt lat="45.8706800" lon="10.2937900">
	<ele>2048.40</ele>
	<time>2025-07-29T09:03:19.000Z</time>
</trkpt>
<trkpt lat="45.8706700" lon="10.2937940">
	<ele>2048.40</ele>
	<time>2025-07-29T09:03:20.000Z</time>
</trkpt>
<trkpt lat="45.8706610" lon="10.2938020">
	<ele>2048.40</ele>
	<time>2025-07-29T09:03:21.000Z</time>
</trkpt>
<trkpt lat="45.8706540" lon="10.2938110">
	<ele>2048.40</ele>
	<time>2025-07-29T09:03:22.000Z</time>
</trkpt>
<trkpt lat="45.8706420" lon="10.2938180">
	<ele>2048.40</ele>
	<time>2025-07-29T09:03:23.000Z</time>
</trkpt>
<trkpt lat="45.8706310" lon="10.2938330">
	<ele>2048.40</ele>
	<time>2025-07-29T09:03:24.000Z</time>
</trkpt>
<trkpt lat="45.8706250" lon="10.2938440">
	<ele>2048.60</ele>
	<time>2025-07-29T09:03:25.000Z</time>
</trkpt>
<trkpt lat="45.8706160" lon="10.2938490">
	<ele>2048.60</ele>
	<time>2025-07-29T09:03:26.000Z</time>
</trkpt>
<trkpt lat="45.8706090" lon="10.2938550">
	<ele>2048.80</ele>
	<time>2025-07-29T09:03:27.000Z</time>
</trkpt>
<trkpt lat="45.8705990" lon="10.2938640">
	<ele>2048.80</ele>
	<time>2025-07-29T09:03:28.000Z</time>
</trkpt>
<trkpt lat="45.8705900" lon="10.2938730">
	<ele>2048.80</ele>
	<time>2025-07-29T09:03:29.000Z</time>
</trkpt>
<trkpt lat="45.8705820" lon="10.2938800">
	<ele>2049.00</ele>
	<time>2025-07-29T09:03:30.000Z</time>
</trkpt>
<trkpt lat="45.8705770" lon="10.2938840">
	<ele>2049.00</ele>
	<time>2025-07-29T09:03:31.000Z</time>
</trkpt>
<trkpt lat="45.8705710" lon="10.2938940">
	<ele>2049.00</ele>
	<time>2025-07-29T09:03:32.000Z</time>
</trkpt>
<trkpt lat="45.8705650" lon="10.2939000">
	<ele>2049.20</ele>
	<time>2025-07-29T09:03:33.000Z</time>
</trkpt>
<trkpt lat="45.8705560" lon="10.2939100">
	<ele>2049.20</ele>
	<time>2025-07-29T09:03:34.000Z</time>
</trkpt>
<trkpt lat="45.8705500" lon="10.2939170">
	<ele>2049.40</ele>
	<time>2025-07-29T09:03:35.000Z</time>
</trkpt>
<trkpt lat="45.8705410" lon="10.2939210">
	<ele>2049.60</ele>
	<time>2025-07-29T09:03:36.000Z</time>
</trkpt>
<trkpt lat="45.8705330" lon="10.2939210">
	<ele>2049.80</ele>
	<time>2025-07-29T09:03:37.000Z</time>
</trkpt>
<trkpt lat="45.8705270" lon="10.2939200">
	<ele>2049.80</ele>
	<time>2025-07-29T09:03:38.000Z</time>
</trkpt>
<trkpt lat="45.8705200" lon="10.2939230">
	<ele>2050.00</ele>
	<time>2025-07-29T09:03:39.000Z</time>
</trkpt>
<trkpt lat="45.8705120" lon="10.2939310">
	<ele>2050.20</ele>
	<time>2025-07-29T09:03:40.000Z</time>
</trkpt>
<trkpt lat="45.8705060" lon="10.2939380">
	<ele>2050.40</ele>
	<time>2025-07-29T09:03:41.000Z</time>
</trkpt>
<trkpt lat="45.8704970" lon="10.2939510">
	<ele>2050.60</ele>
	<time>2025-07-29T09:03:42.000Z</time>
</trkpt>
<trkpt lat="45.8704900" lon="10.2939560">
	<ele>2050.80</ele>
	<time>2025-07-29T09:03:43.000Z</time>
</trkpt>
<trkpt lat="45.8704840" lon="10.2939600">
	<ele>2051.00</ele>
	<time>2025-07-29T09:03:44.000Z</time>
</trkpt>
<trkpt lat="45.8704730" lon="10.2939640">
	<ele>2051.20</ele>
	<time>2025-07-29T09:03:45.000Z</time>
</trkpt>
<trkpt lat="45.8704710" lon="10.2939690">
	<ele>2051.20</ele>
	<time>2025-07-29T09:03:46.000Z</time>
</trkpt>
<trkpt lat="45.8704740" lon="10.2939720">
	<ele>2051.20</ele>
	<time>2025-07-29T09:03:47.000Z</time>
</trkpt>
<trkpt lat="45.8704740" lon="10.2939750">
	<ele>2051.40</ele>
	<time>2025-07-29T09:03:48.000Z</time>
</trkpt>
<trkpt lat="45.8704730" lon="10.2939800">
	<ele>2051.40</ele>
	<time>2025-07-29T09:03:49.000Z</time>
</trkpt>
<trkpt lat="45.8704670" lon="10.2939900">
	<ele>2051.60</ele>
	<time>2025-07-29T09:03:50.000Z</time>
</trkpt>
<trkpt lat="45.8704650" lon="10.2939930">
	<ele>2051.60</ele>
	<time>2025-07-29T09:03:51.000Z</time>
</trkpt>
<trkpt lat="45.8704590" lon="10.2939960">
	<ele>2051.80</ele>
	<time>2025-07-29T09:03:52.000Z</time>
</trkpt>
<trkpt lat="45.8704550" lon="10.2940000">
	<ele>2051.80</ele>
	<time>2025-07-29T09:03:53.000Z</time>
</trkpt>
<trkpt lat="45.8704470" lon="10.2940050">
	<ele>2052.20</ele>
	<time>2025-07-29T09:03:54.000Z</time>
</trkpt>
<trkpt lat="45.8704420" lon="10.2940100">
	<ele>2052.20</ele>
	<time>2025-07-29T09:03:55.000Z</time>
</trkpt>
<trkpt lat="45.8704430" lon="10.2940110">
	<ele>2052.40</ele>
	<time>2025-07-29T09:03:56.000Z</time>
</trkpt>
<trkpt lat="45.8704430" lon="10.2940100">
	<ele>2052.60</ele>
	<time>2025-07-29T09:03:57.000Z</time>
</trkpt>
<trkpt lat="45.8704440" lon="10.2940100">
	<ele>2052.60</ele>
	<time>2025-07-29T09:03:58.000Z</time>
</trkpt>
<trkpt lat="45.8704450" lon="10.2940100">
	<ele>2052.80</ele>
	<time>2025-07-29T09:03:59.000Z</time>
</trkpt>
<trkpt lat="45.8704460" lon="10.2940130">
	<ele>2053.00</ele>
	<time>2025-07-29T09:04:00.000Z</time>
</trkpt>
<trkpt lat="45.8704470" lon="10.2940120">
	<ele>2053.00</ele>
	<time>2025-07-29T09:04:01.000Z</time>
</trkpt>
<trkpt lat="45.8704480" lon="10.2940110">
	<ele>2053.00</ele>
	<time>2025-07-29T09:04:02.000Z</time>
</trkpt>
<trkpt lat="45.8704480" lon="10.2940090">
	<ele>2053.00</ele>
	<time>2025-07-29T09:04:03.000Z</time>
</trkpt>
<trkpt lat="45.8704490" lon="10.2940090">
	<ele>2053.00</ele>
	<time>2025-07-29T09:04:04.000Z</time>
</trkpt>
<trkpt lat="45.8704490" lon="10.2940080">
	<ele>2053.00</ele>
	<time>2025-07-29T09:04:05.000Z</time>
</trkpt>
<trkpt lat="45.8704490" lon="10.2940070">
	<ele>2053.00</ele>
	<time>2025-07-29T09:04:06.000Z</time>
</trkpt>
<trkpt lat="45.8704490" lon="10.2940070">
	<ele>2053.00</ele>
	<time>2025-07-29T09:04:07.000Z</time>
</trkpt>
<trkpt lat="45.8704490" lon="10.2940070">
	<ele>2053.00</ele>
	<time>2025-07-29T09:04:08.000Z</time>
</trkpt>
<trkpt lat="45.8704490" lon="10.2940070">
	<ele>2053.00</ele>
	<time>2025-07-29T09:04:09.000Z</time>
</trkpt>
<trkpt lat="45.8704490" lon="10.2940070">
	<ele>2053.00</ele>
	<time>2025-07-29T09:04:10.000Z</time>
</trkpt>
<trkpt lat="45.8704490" lon="10.2940070">
	<ele>2052.80</ele>
	<time>2025-07-29T09:04:11.000Z</time>
</trkpt>
<trkpt lat="45.8704490" lon="10.2940070">
	<ele>2052.80</ele>
	<time>2025-07-29T09:04:12.000Z</time>
</trkpt>
<trkpt lat="45.8704490" lon="10.2940070">
	<ele>2052.80</ele>
	<time>2025-07-29T09:04:13.000Z</time>
</trkpt>
<trkpt lat="45.8704490" lon="10.2940080">
	<ele>2053.00</ele>
	<time>2025-07-29T09:04:14.000Z</time>
</trkpt>
<trkpt lat="45.8704490" lon="10.2940080">
	<ele>2053.00</ele>
	<time>2025-07-29T09:04:15.000Z</time>
</trkpt>
<trkpt lat="45.8704490" lon="10.2940090">
	<ele>2053.20</ele>
	<time>2025-07-29T09:04:16.000Z</time>
</trkpt>
<trkpt lat="45.8704450" lon="10.2940150">
	<ele>2053.40</ele>
	<time>2025-07-29T09:04:17.000Z</time>
</trkpt>
<trkpt lat="45.8704320" lon="10.2940260">
	<ele>2053.40</ele>
	<time>2025-07-29T09:04:18.000Z</time>
</trkpt>
<trkpt lat="45.8704190" lon="10.2940380">
	<ele>2053.60</ele>
	<time>2025-07-29T09:04:19.000Z</time>
</trkpt>
<trkpt lat="45.8704070" lon="10.2940510">
	<ele>2053.60</ele>
	<time>2025-07-29T09:04:20.000Z</time>
</trkpt>
<trkpt lat="45.8703890" lon="10.2940680">
	<ele>2053.60</ele>
	<time>2025-07-29T09:04:21.000Z</time>
</trkpt>
<trkpt lat="45.8703740" lon="10.2940800">
	<ele>2053.60</ele>
	<time>2025-07-29T09:04:22.000Z</time>
</trkpt>
<trkpt lat="45.8703550" lon="10.2940920">
	<ele>2053.60</ele>
	<time>2025-07-29T09:04:23.000Z</time>
</trkpt>
<trkpt lat="45.8703430" lon="10.2941080">
	<ele>2053.40</ele>
	<time>2025-07-29T09:04:24.000Z</time>
</trkpt>
<trkpt lat="45.8703260" lon="10.2941230">
	<ele>2053.40</ele>
	<time>2025-07-29T09:04:25.000Z</time>
</trkpt>
<trkpt lat="45.8703130" lon="10.2941340">
	<ele>2053.40</ele>
	<time>2025-07-29T09:04:26.000Z</time>
</trkpt>
<trkpt lat="45.8703050" lon="10.2941440">
	<ele>2053.40</ele>
	<time>2025-07-29T09:04:27.000Z</time>
</trkpt>
<trkpt lat="45.8702960" lon="10.2941490">
	<ele>2053.60</ele>
	<time>2025-07-29T09:04:28.000Z</time>
</trkpt>
<trkpt lat="45.8702920" lon="10.2941550">
	<ele>2053.60</ele>
	<time>2025-07-29T09:04:29.000Z</time>
</trkpt>
<trkpt lat="45.8702830" lon="10.2941610">
	<ele>2053.80</ele>
	<time>2025-07-29T09:04:30.000Z</time>
</trkpt>
<trkpt lat="45.8702740" lon="10.2941670">
	<ele>2054.00</ele>
	<time>2025-07-29T09:04:31.000Z</time>
</trkpt>
<trkpt lat="45.8702700" lon="10.2941740">
	<ele>2054.00</ele>
	<time>2025-07-29T09:04:32.000Z</time>
</trkpt>
<trkpt lat="45.8702660" lon="10.2941780">
	<ele>2054.40</ele>
	<time>2025-07-29T09:04:33.000Z</time>
</trkpt>
<trkpt lat="45.8702620" lon="10.2941830">
	<ele>2054.60</ele>
	<time>2025-07-29T09:04:34.000Z</time>
</trkpt>
<trkpt lat="45.8702550" lon="10.2941900">
	<ele>2054.60</ele>
	<time>2025-07-29T09:04:35.000Z</time>
</trkpt>
<trkpt lat="45.8702450" lon="10.2941960">
	<ele>2055.00</ele>
	<time>2025-07-29T09:04:36.000Z</time>
</trkpt>
<trkpt lat="45.8702380" lon="10.2942000">
	<ele>2055.20</ele>
	<time>2025-07-29T09:04:37.000Z</time>
</trkpt>
<trkpt lat="45.8702320" lon="10.2942050">
	<ele>2055.20</ele>
	<time>2025-07-29T09:04:38.000Z</time>
</trkpt>
<trkpt lat="45.8702250" lon="10.2942130">
	<ele>2055.40</ele>
	<time>2025-07-29T09:04:39.000Z</time>
</trkpt>
<trkpt lat="45.8702180" lon="10.2942180">
	<ele>2055.80</ele>
	<time>2025-07-29T09:04:40.000Z</time>
</trkpt>
<trkpt lat="45.8702110" lon="10.2942210">
	<ele>2056.00</ele>
	<time>2025-07-29T09:04:41.000Z</time>
</trkpt>
<trkpt lat="45.8702060" lon="10.2942200">
	<ele>2056.20</ele>
	<time>2025-07-29T09:04:42.000Z</time>
</trkpt>
<trkpt lat="45.8702030" lon="10.2942230">
	<ele>2056.40</ele>
	<time>2025-07-29T09:04:43.000Z</time>
</trkpt>
<trkpt lat="45.8701990" lon="10.2942260">
	<ele>2056.60</ele>
	<time>2025-07-29T09:04:44.000Z</time>
</trkpt>
<trkpt lat="45.8701950" lon="10.2942280">
	<ele>2056.60</ele>
	<time>2025-07-29T09:04:45.000Z</time>
</trkpt>
<trkpt lat="45.8701880" lon="10.2942330">
	<ele>2056.80</ele>
	<time>2025-07-29T09:04:46.000Z</time>
</trkpt>
<trkpt lat="45.8701830" lon="10.2942380">
	<ele>2057.00</ele>
	<time>2025-07-29T09:04:47.000Z</time>
</trkpt>
<trkpt lat="45.8701790" lon="10.2942460">
	<ele>2057.20</ele>
	<time>2025-07-29T09:04:48.000Z</time>
</trkpt>
<trkpt lat="45.8701750" lon="10.2942490">
	<ele>2057.20</ele>
	<time>2025-07-29T09:04:49.000Z</time>
</trkpt>
<trkpt lat="45.8701720" lon="10.2942510">
	<ele>2057.40</ele>
	<time>2025-07-29T09:04:50.000Z</time>
</trkpt>
<trkpt lat="45.8701700" lon="10.2942550">
	<ele>2057.80</ele>
	<time>2025-07-29T09:04:51.000Z</time>
</trkpt>
<trkpt lat="45.8701660" lon="10.2942600">
	<ele>2058.00</ele>
	<time>2025-07-29T09:04:52.000Z</time>
</trkpt>
<trkpt lat="45.8701580" lon="10.2942660">
	<ele>2058.20</ele>
	<time>2025-07-29T09:04:53.000Z</time>
</trkpt>
<trkpt lat="45.8701530" lon="10.2942680">
	<ele>2058.20</ele>
	<time>2025-07-29T09:04:54.000Z</time>
</trkpt>
<trkpt lat="45.8701500" lon="10.2942700">
	<ele>2058.40</ele>
	<time>2025-07-29T09:04:55.000Z</time>
</trkpt>
<trkpt lat="45.8701450" lon="10.2942710">
	<ele>2058.60</ele>
	<time>2025-07-29T09:04:56.000Z</time>
</trkpt>
<trkpt lat="45.8701420" lon="10.2942780">
	<ele>2058.80</ele>
	<time>2025-07-29T09:04:57.000Z</time>
</trkpt>
<trkpt lat="45.8701420" lon="10.2942840">
	<ele>2059.00</ele>
	<time>2025-07-29T09:04:58.000Z</time>
</trkpt>
<trkpt lat="45.8701420" lon="10.2942900">
	<ele>2059.40</ele>
	<time>2025-07-29T09:04:59.000Z</time>
</trkpt>
<trkpt lat="45.8701420" lon="10.2942990">
	<ele>2059.60</ele>
	<time>2025-07-29T09:05:00.000Z</time>
</trkpt>
<trkpt lat="45.8701380" lon="10.2943040">
	<ele>2059.60</ele>
	<time>2025-07-29T09:05:01.000Z</time>
</trkpt>
<trkpt lat="45.8701340" lon="10.2943050">
	<ele>2059.80</ele>
	<time>2025-07-29T09:05:02.000Z</time>
</trkpt>
<trkpt lat="45.8701300" lon="10.2943070">
	<ele>2059.80</ele>
	<time>2025-07-29T09:05:03.000Z</time>
</trkpt>
<trkpt lat="45.8701280" lon="10.2943080">
	<ele>2060.00</ele>
	<time>2025-07-29T09:05:04.000Z</time>
</trkpt>
<trkpt lat="45.8701210" lon="10.2943110">
	<ele>2060.20</ele>
	<time>2025-07-29T09:05:05.000Z</time>
</trkpt>
<trkpt lat="45.8701150" lon="10.2943110">
	<ele>2060.40</ele>
	<time>2025-07-29T09:05:06.000Z</time>
</trkpt>
<trkpt lat="45.8701100" lon="10.2943170">
	<ele>2060.60</ele>
	<time>2025-07-29T09:05:07.000Z</time>
</trkpt>
<trkpt lat="45.8701090" lon="10.2943290">
	<ele>2060.80</ele>
	<time>2025-07-29T09:05:08.000Z</time>
</trkpt>
<trkpt lat="45.8701060" lon="10.2943350">
	<ele>2061.20</ele>
	<time>2025-07-29T09:05:09.000Z</time>
</trkpt>
<trkpt lat="45.8701020" lon="10.2943400">
	<ele>2061.40</ele>
	<time>2025-07-29T09:05:10.000Z</time>
</trkpt>
<trkpt lat="45.8700990" lon="10.2943450">
	<ele>2061.60</ele>
	<time>2025-07-29T09:05:11.000Z</time>
</trkpt>
<trkpt lat="45.8700960" lon="10.2943530">
	<ele>2061.80</ele>
	<time>2025-07-29T09:05:12.000Z</time>
</trkpt>
<trkpt lat="45.8700910" lon="10.2943640">
	<ele>2062.00</ele>
	<time>2025-07-29T09:05:13.000Z</time>
</trkpt>
<trkpt lat="45.8700900" lon="10.2943750">
	<ele>2062.00</ele>
	<time>2025-07-29T09:05:14.000Z</time>
</trkpt>
<trkpt lat="45.8700830" lon="10.2943840">
	<ele>2062.20</ele>
	<time>2025-07-29T09:05:15.000Z</time>
</trkpt>
<trkpt lat="45.8700790" lon="10.2943870">
	<ele>2062.20</ele>
	<time>2025-07-29T09:05:16.000Z</time>
</trkpt>
<trkpt lat="45.8700760" lon="10.2943870">
	<ele>2062.40</ele>
	<time>2025-07-29T09:05:17.000Z</time>
</trkpt>
<trkpt lat="45.8700730" lon="10.2943880">
	<ele>2062.60</ele>
	<time>2025-07-29T09:05:18.000Z</time>
</trkpt>
<trkpt lat="45.8700700" lon="10.2943920">
	<ele>2063.00</ele>
	<time>2025-07-29T09:05:19.000Z</time>
</trkpt>
<trkpt lat="45.8700630" lon="10.2943950">
	<ele>2063.20</ele>
	<time>2025-07-29T09:05:20.000Z</time>
</trkpt>
<trkpt lat="45.8700580" lon="10.2944040">
	<ele>2063.40</ele>
	<time>2025-07-29T09:05:21.000Z</time>
</trkpt>
<trkpt lat="45.8700530" lon="10.2944130">
	<ele>2063.80</ele>
	<time>2025-07-29T09:05:22.000Z</time>
</trkpt>
<trkpt lat="45.8700490" lon="10.2944230">
	<ele>2064.00</ele>
	<time>2025-07-29T09:05:23.000Z</time>
</trkpt>
<trkpt lat="45.8700420" lon="10.2944310">
	<ele>2064.20</ele>
	<time>2025-07-29T09:05:24.000Z</time>
</trkpt>
<trkpt lat="45.8700390" lon="10.2944360">
	<ele>2064.20</ele>
	<time>2025-07-29T09:05:25.000Z</time>
</trkpt>
<trkpt lat="45.8700320" lon="10.2944420">
	<ele>2064.40</ele>
	<time>2025-07-29T09:05:26.000Z</time>
</trkpt>
<trkpt lat="45.8700260" lon="10.2944450">
	<ele>2064.60</ele>
	<time>2025-07-29T09:05:27.000Z</time>
</trkpt>
<trkpt lat="45.8700210" lon="10.2944520">
	<ele>2064.80</ele>
	<time>2025-07-29T09:05:28.000Z</time>
</trkpt>
<trkpt lat="45.8700140" lon="10.2944570">
	<ele>2064.80</ele>
	<time>2025-07-29T09:05:29.000Z</time>
</trkpt>
<trkpt lat="45.8700080" lon="10.2944620">
	<ele>2065.00</ele>
	<time>2025-07-29T09:05:30.000Z</time>
</trkpt>
<trkpt lat="45.8700040" lon="10.2944640">
	<ele>2065.00</ele>
	<time>2025-07-29T09:05:31.000Z</time>
</trkpt>
<trkpt lat="45.8699950" lon="10.2944660">
	<ele>2065.00</ele>
	<time>2025-07-29T09:05:32.000Z</time>
</trkpt>
<trkpt lat="45.8699870" lon="10.2944720">
	<ele>2065.20</ele>
	<time>2025-07-29T09:05:33.000Z</time>
</trkpt>
<trkpt lat="45.8699810" lon="10.2944730">
	<ele>2065.40</ele>
	<time>2025-07-29T09:05:34.000Z</time>
</trkpt>
<trkpt lat="45.8699740" lon="10.2944780">
	<ele>2065.40</ele>
	<time>2025-07-29T09:05:35.000Z</time>
</trkpt>
<trkpt lat="45.8699680" lon="10.2944820">
	<ele>2065.60</ele>
	<time>2025-07-29T09:05:36.000Z</time>
</trkpt>
<trkpt lat="45.8699630" lon="10.2944840">
	<ele>2065.60</ele>
	<time>2025-07-29T09:05:37.000Z</time>
</trkpt>
<trkpt lat="45.8699560" lon="10.2944910">
	<ele>2065.60</ele>
	<time>2025-07-29T09:05:38.000Z</time>
</trkpt>
<trkpt lat="45.8699500" lon="10.2944990">
	<ele>2065.80</ele>
	<time>2025-07-29T09:05:39.000Z</time>
</trkpt>
<trkpt lat="45.8699430" lon="10.2945080">
	<ele>2065.80</ele>
	<time>2025-07-29T09:05:40.000Z</time>
</trkpt>
<trkpt lat="45.8699360" lon="10.2945160">
	<ele>2065.80</ele>
	<time>2025-07-29T09:05:41.000Z</time>
</trkpt>
<trkpt lat="45.8699280" lon="10.2945220">
	<ele>2065.80</ele>
	<time>2025-07-29T09:05:42.000Z</time>
</trkpt>
<trkpt lat="45.8699200" lon="10.2945250">
	<ele>2066.00</ele>
	<time>2025-07-29T09:05:43.000Z</time>
</trkpt>
<trkpt lat="45.8699140" lon="10.2945310">
	<ele>2066.00</ele>
	<time>2025-07-29T09:05:44.000Z</time>
</trkpt>
<trkpt lat="45.8699060" lon="10.2945420">
	<ele>2066.00</ele>
	<time>2025-07-29T09:05:45.000Z</time>
</trkpt>
<trkpt lat="45.8698990" lon="10.2945470">
	<ele>2066.20</ele>
	<time>2025-07-29T09:05:46.000Z</time>
</trkpt>
<trkpt lat="45.8698930" lon="10.2945480">
	<ele>2066.40</ele>
	<time>2025-07-29T09:05:47.000Z</time>
</trkpt>
<trkpt lat="45.8698820" lon="10.2945530">
	<ele>2066.40</ele>
	<time>2025-07-29T09:05:48.000Z</time>
</trkpt>
<trkpt lat="45.8698750" lon="10.2945620">
	<ele>2066.60</ele>
	<time>2025-07-29T09:05:49.000Z</time>
</trkpt>
<trkpt lat="45.8698690" lon="10.2945690">
	<ele>2066.60</ele>
	<time>2025-07-29T09:05:50.000Z</time>
</trkpt>
<trkpt lat="45.8698610" lon="10.2945740">
	<ele>2066.80</ele>
	<time>2025-07-29T09:05:51.000Z</time>
</trkpt>
<trkpt lat="45.8698520" lon="10.2945790">
	<ele>2066.80</ele>
	<time>2025-07-29T09:05:52.000Z</time>
</trkpt>
<trkpt lat="45.8698420" lon="10.2945840">
	<ele>2066.80</ele>
	<time>2025-07-29T09:05:53.000Z</time>
</trkpt>
<trkpt lat="45.8698350" lon="10.2945900">
	<ele>2066.80</ele>
	<time>2025-07-29T09:05:54.000Z</time>
</trkpt>
<trkpt lat="45.8698310" lon="10.2945930">
	<ele>2066.80</ele>
	<time>2025-07-29T09:05:55.000Z</time>
</trkpt>
<trkpt lat="45.8698210" lon="10.2945950">
	<ele>2067.00</ele>
	<time>2025-07-29T09:05:56.000Z</time>
</trkpt>
<trkpt lat="45.8698140" lon="10.2945950">
	<ele>2067.00</ele>
	<time>2025-07-29T09:05:57.000Z</time>
</trkpt>
<trkpt lat="45.8698040" lon="10.2946030">
	<ele>2067.00</ele>
	<time>2025-07-29T09:05:58.000Z</time>
</trkpt>
<trkpt lat="45.8697970" lon="10.2946080">
	<ele>2067.00</ele>
	<time>2025-07-29T09:05:59.000Z</time>
</trkpt>
<trkpt lat="45.8697890" lon="10.2946140">
	<ele>2067.00</ele>
	<time>2025-07-29T09:06:00.000Z</time>
</trkpt>
<trkpt lat="45.8697800" lon="10.2946220">
	<ele>2067.20</ele>
	<time>2025-07-29T09:06:01.000Z</time>
</trkpt>
<trkpt lat="45.8697710" lon="10.2946270">
	<ele>2067.40</ele>
	<time>2025-07-29T09:06:02.000Z</time>
</trkpt>
<trkpt lat="45.8697620" lon="10.2946330">
	<ele>2067.60</ele>
	<time>2025-07-29T09:06:03.000Z</time>
</trkpt>
<trkpt lat="45.8697530" lon="10.2946380">
	<ele>2067.60</ele>
	<time>2025-07-29T09:06:04.000Z</time>
</trkpt>
<trkpt lat="45.8697430" lon="10.2946410">
	<ele>2067.80</ele>
	<time>2025-07-29T09:06:05.000Z</time>
</trkpt>
<trkpt lat="45.8697350" lon="10.2946430">
	<ele>2068.00</ele>
	<time>2025-07-29T09:06:06.000Z</time>
</trkpt>
<trkpt lat="45.8697280" lon="10.2946440">
	<ele>2068.20</ele>
	<time>2025-07-29T09:06:07.000Z</time>
</trkpt>
<trkpt lat="45.8697220" lon="10.2946450">
	<ele>2068.20</ele>
	<time>2025-07-29T09:06:08.000Z</time>
</trkpt>
<trkpt lat="45.8697150" lon="10.2946480">
	<ele>2068.20</ele>
	<time>2025-07-29T09:06:09.000Z</time>
</trkpt>
<trkpt lat="45.8697090" lon="10.2946520">
	<ele>2068.40</ele>
	<time>2025-07-29T09:06:10.000Z</time>
</trkpt>
<trkpt lat="45.8697040" lon="10.2946590">
	<ele>2068.40</ele>
	<time>2025-07-29T09:06:11.000Z</time>
</trkpt>
<trkpt lat="45.8697010" lon="10.2946660">
	<ele>2068.40</ele>
	<time>2025-07-29T09:06:12.000Z</time>
</trkpt>
<trkpt lat="45.8696980" lon="10.2946750">
	<ele>2068.60</ele>
	<time>2025-07-29T09:06:13.000Z</time>
</trkpt>
<trkpt lat="45.8696920" lon="10.2946850">
	<ele>2068.60</ele>
	<time>2025-07-29T09:06:14.000Z</time>
</trkpt>
<trkpt lat="45.8696880" lon="10.2946850">
	<ele>2068.80</ele>
	<time>2025-07-29T09:06:15.000Z</time>
</trkpt>
<trkpt lat="45.8696790" lon="10.2946870">
	<ele>2069.00</ele>
	<time>2025-07-29T09:06:16.000Z</time>
</trkpt>
<trkpt lat="45.8696720" lon="10.2946890">
	<ele>2069.00</ele>
	<time>2025-07-29T09:06:17.000Z</time>
</trkpt>
<trkpt lat="45.8696620" lon="10.2946900">
	<ele>2069.00</ele>
	<time>2025-07-29T09:06:18.000Z</time>
</trkpt>
<trkpt lat="45.8696530" lon="10.2946890">
	<ele>2069.00</ele>
	<time>2025-07-29T09:06:19.000Z</time>
</trkpt>
<trkpt lat="45.8696450" lon="10.2946890">
	<ele>2069.20</ele>
	<time>2025-07-29T09:06:20.000Z</time>
</trkpt>
<trkpt lat="45.8696390" lon="10.2946920">
	<ele>2069.40</ele>
	<time>2025-07-29T09:06:21.000Z</time>
</trkpt>
<trkpt lat="45.8696310" lon="10.2946970">
	<ele>2069.60</ele>
	<time>2025-07-29T09:06:22.000Z</time>
</trkpt>
<trkpt lat="45.8696250" lon="10.2946990">
	<ele>2069.80</ele>
	<time>2025-07-29T09:06:23.000Z</time>
</trkpt>
<trkpt lat="45.8696170" lon="10.2947050">
	<ele>2070.00</ele>
	<time>2025-07-29T09:06:24.000Z</time>
</trkpt>
<trkpt lat="45.8696090" lon="10.2947110">
	<ele>2070.20</ele>
	<time>2025-07-29T09:06:25.000Z</time>
</trkpt>
<trkpt lat="45.8695980" lon="10.2947120">
	<ele>2070.60</ele>
	<time>2025-07-29T09:06:26.000Z</time>
</trkpt>
<trkpt lat="45.8695920" lon="10.2947100">
	<ele>2070.80</ele>
	<time>2025-07-29T09:06:27.000Z</time>
</trkpt>
<trkpt lat="45.8695880" lon="10.2947110">
	<ele>2071.00</ele>
	<time>2025-07-29T09:06:28.000Z</time>
</trkpt>
<trkpt lat="45.8695840" lon="10.2947130">
	<ele>2071.20</ele>
	<time>2025-07-29T09:06:29.000Z</time>
</trkpt>
<trkpt lat="45.8695800" lon="10.2947190">
	<ele>2071.40</ele>
	<time>2025-07-29T09:06:30.000Z</time>
</trkpt>
<trkpt lat="45.8695730" lon="10.2947220">
	<ele>2071.60</ele>
	<time>2025-07-29T09:06:31.000Z</time>
</trkpt>
<trkpt lat="45.8695660" lon="10.2947260">
	<ele>2071.80</ele>
	<time>2025-07-29T09:06:32.000Z</time>
</trkpt>
<trkpt lat="45.8695600" lon="10.2947270">
	<ele>2072.00</ele>
	<time>2025-07-29T09:06:33.000Z</time>
</trkpt>
<trkpt lat="45.8695510" lon="10.2947280">
	<ele>2072.00</ele>
	<time>2025-07-29T09:06:34.000Z</time>
</trkpt>
<trkpt lat="45.8695430" lon="10.2947300">
	<ele>2072.20</ele>
	<time>2025-07-29T09:06:35.000Z</time>
</trkpt>
<trkpt lat="45.8695360" lon="10.2947310">
	<ele>2072.40</ele>
	<time>2025-07-29T09:06:36.000Z</time>
</trkpt>
<trkpt lat="45.8695320" lon="10.2947310">
	<ele>2072.60</ele>
	<time>2025-07-29T09:06:37.000Z</time>
</trkpt>
<trkpt lat="45.8695280" lon="10.2947320">
	<ele>2072.80</ele>
	<time>2025-07-29T09:06:38.000Z</time>
</trkpt>
<trkpt lat="45.8695220" lon="10.2947330">
	<ele>2072.80</ele>
	<time>2025-07-29T09:06:39.000Z</time>
</trkpt>
<trkpt lat="45.8695140" lon="10.2947330">
	<ele>2073.00</ele>
	<time>2025-07-29T09:06:40.000Z</time>
</trkpt>
<trkpt lat="45.8695090" lon="10.2947310">
	<ele>2073.00</ele>
	<time>2025-07-29T09:06:41.000Z</time>
</trkpt>
<trkpt lat="45.8695010" lon="10.2947310">
	<ele>2073.20</ele>
	<time>2025-07-29T09:06:42.000Z</time>
</trkpt>
<trkpt lat="45.8694980" lon="10.2947270">
	<ele>2073.60</ele>
	<time>2025-07-29T09:06:43.000Z</time>
</trkpt>
<trkpt lat="45.8694930" lon="10.2947280">
	<ele>2073.80</ele>
	<time>2025-07-29T09:06:44.000Z</time>
</trkpt>
<trkpt lat="45.8694860" lon="10.2947350">
	<ele>2074.00</ele>
	<time>2025-07-29T09:06:45.000Z</time>
</trkpt>
<trkpt lat="45.8694820" lon="10.2947410">
	<ele>2074.00</ele>
	<time>2025-07-29T09:06:46.000Z</time>
</trkpt>
<trkpt lat="45.8694790" lon="10.2947440">
	<ele>2074.40</ele>
	<time>2025-07-29T09:06:47.000Z</time>
</trkpt>
<trkpt lat="45.8694730" lon="10.2947500">
	<ele>2074.40</ele>
	<time>2025-07-29T09:06:48.000Z</time>
</trkpt>
<trkpt lat="45.8694680" lon="10.2947540">
	<ele>2074.60</ele>
	<time>2025-07-29T09:06:49.000Z</time>
</trkpt>
<trkpt lat="45.8694630" lon="10.2947560">
	<ele>2074.80</ele>
	<time>2025-07-29T09:06:50.000Z</time>
</trkpt>
<trkpt lat="45.8694580" lon="10.2947580">
	<ele>2075.00</ele>
	<time>2025-07-29T09:06:51.000Z</time>
</trkpt>
<trkpt lat="45.8694540" lon="10.2947560">
	<ele>2075.20</ele>
	<time>2025-07-29T09:06:52.000Z</time>
</trkpt>
<trkpt lat="45.8694480" lon="10.2947550">
	<ele>2075.40</ele>
	<time>2025-07-29T09:06:53.000Z</time>
</trkpt>
<trkpt lat="45.8694440" lon="10.2947560">
	<ele>2075.40</ele>
	<time>2025-07-29T09:06:54.000Z</time>
</trkpt>
<trkpt lat="45.8694410" lon="10.2947510">
	<ele>2075.60</ele>
	<time>2025-07-29T09:06:55.000Z</time>
</trkpt>
<trkpt lat="45.8694330" lon="10.2947630">
	<ele>2075.80</ele>
	<time>2025-07-29T09:06:56.000Z</time>
</trkpt>
<trkpt lat="45.8694330" lon="10.2947680">
	<ele>2076.00</ele>
	<time>2025-07-29T09:06:57.000Z</time>
</trkpt>
<trkpt lat="45.8694310" lon="10.2947750">
	<ele>2076.20</ele>
	<time>2025-07-29T09:06:58.000Z</time>
</trkpt>
<trkpt lat="45.8694260" lon="10.2947840">
	<ele>2076.40</ele>
	<time>2025-07-29T09:06:59.000Z</time>
</trkpt>
<trkpt lat="45.8694210" lon="10.2947900">
	<ele>2076.80</ele>
	<time>2025-07-29T09:07:00.000Z</time>
</trkpt>
<trkpt lat="45.8694170" lon="10.2948020">
	<ele>2076.80</ele>
	<time>2025-07-29T09:07:01.000Z</time>
</trkpt>
<trkpt lat="45.8694130" lon="10.2948110">
	<ele>2077.00</ele>
	<time>2025-07-29T09:07:02.000Z</time>
</trkpt>
<trkpt lat="45.8694120" lon="10.2948190">
	<ele>2077.00</ele>
	<time>2025-07-29T09:07:03.000Z</time>
</trkpt>
<trkpt lat="45.8694100" lon="10.2948310">
	<ele>2077.20</ele>
	<time>2025-07-29T09:07:04.000Z</time>
</trkpt>
<trkpt lat="45.8694090" lon="10.2948410">
	<ele>2077.40</ele>
	<time>2025-07-29T09:07:05.000Z</time>
</trkpt>
<trkpt lat="45.8694100" lon="10.2948490">
	<ele>2077.60</ele>
	<time>2025-07-29T09:07:06.000Z</time>
</trkpt>
<trkpt lat="45.8694090" lon="10.2948530">
	<ele>2077.80</ele>
	<time>2025-07-29T09:07:07.000Z</time>
</trkpt>
<trkpt lat="45.8694090" lon="10.2948600">
	<ele>2078.00</ele>
	<time>2025-07-29T09:07:08.000Z</time>
</trkpt>
<trkpt lat="45.8694100" lon="10.2948650">
	<ele>2078.40</ele>
	<time>2025-07-29T09:07:09.000Z</time>
</trkpt>
<trkpt lat="45.8694140" lon="10.2948720">
	<ele>2078.60</ele>
	<time>2025-07-29T09:07:10.000Z</time>
</trkpt>
<trkpt lat="45.8694170" lon="10.2948740">
	<ele>2078.80</ele>
	<time>2025-07-29T09:07:11.000Z</time>
</trkpt>
<trkpt lat="45.8694190" lon="10.2948780">
	<ele>2079.00</ele>
	<time>2025-07-29T09:07:12.000Z</time>
</trkpt>
<trkpt lat="45.8694190" lon="10.2948850">
	<ele>2079.00</ele>
	<time>2025-07-29T09:07:13.000Z</time>
</trkpt>
<trkpt lat="45.8694150" lon="10.2948860">
	<ele>2079.20</ele>
	<time>2025-07-29T09:07:14.000Z</time>
</trkpt>
<trkpt lat="45.8694100" lon="10.2948870">
	<ele>2079.20</ele>
	<time>2025-07-29T09:07:15.000Z</time>
</trkpt>
<trkpt lat="45.8694060" lon="10.2948950">
	<ele>2079.40</ele>
	<time>2025-07-29T09:07:16.000Z</time>
</trkpt>
<trkpt lat="45.8694040" lon="10.2949020">
	<ele>2079.80</ele>
	<time>2025-07-29T09:07:17.000Z</time>
</trkpt>
<trkpt lat="45.8693990" lon="10.2949060">
	<ele>2080.00</ele>
	<time>2025-07-29T09:07:18.000Z</time>
</trkpt>
<trkpt lat="45.8693940" lon="10.2949170">
	<ele>2080.20</ele>
	<time>2025-07-29T09:07:19.000Z</time>
</trkpt>
<trkpt lat="45.8693910" lon="10.2949250">
	<ele>2080.40</ele>
	<time>2025-07-29T09:07:20.000Z</time>
</trkpt>
<trkpt lat="45.8693910" lon="10.2949300">
	<ele>2080.60</ele>
	<time>2025-07-29T09:07:21.000Z</time>
</trkpt>
<trkpt lat="45.8693870" lon="10.2949350">
	<ele>2080.80</ele>
	<time>2025-07-29T09:07:22.000Z</time>
</trkpt>
<trkpt lat="45.8693830" lon="10.2949390">
	<ele>2081.00</ele>
	<time>2025-07-29T09:07:23.000Z</time>
</trkpt>
<trkpt lat="45.8693790" lon="10.2949390">
	<ele>2081.00</ele>
	<time>2025-07-29T09:07:24.000Z</time>
</trkpt>
<trkpt lat="45.8693720" lon="10.2949410">
	<ele>2081.20</ele>
	<time>2025-07-29T09:07:25.000Z</time>
</trkpt>
<trkpt lat="45.8693650" lon="10.2949410">
	<ele>2081.40</ele>
	<time>2025-07-29T09:07:26.000Z</time>
</trkpt>
<trkpt lat="45.8693570" lon="10.2949420">
	<ele>2081.60</ele>
	<time>2025-07-29T09:07:27.000Z</time>
</trkpt>
<trkpt lat="45.8693520" lon="10.2949430">
	<ele>2081.80</ele>
	<time>2025-07-29T09:07:28.000Z</time>
</trkpt>
<trkpt lat="45.8693500" lon="10.2949440">
	<ele>2081.80</ele>
	<time>2025-07-29T09:07:29.000Z</time>
</trkpt>
<trkpt lat="45.8693480" lon="10.2949480">
	<ele>2082.00</ele>
	<time>2025-07-29T09:07:30.000Z</time>
</trkpt>
<trkpt lat="45.8693440" lon="10.2949570">
	<ele>2082.00</ele>
	<time>2025-07-29T09:07:31.000Z</time>
</trkpt>
<trkpt lat="45.8693410" lon="10.2949620">
	<ele>2082.00</ele>
	<time>2025-07-29T09:07:32.000Z</time>
</trkpt>
<trkpt lat="45.8693420" lon="10.2949700">
	<ele>2082.20</ele>
	<time>2025-07-29T09:07:33.000Z</time>
</trkpt>
<trkpt lat="45.8693450" lon="10.2949760">
	<ele>2082.60</ele>
	<time>2025-07-29T09:07:34.000Z</time>
</trkpt>
<trkpt lat="45.8693450" lon="10.2949790">
	<ele>2082.80</ele>
	<time>2025-07-29T09:07:35.000Z</time>
</trkpt>
<trkpt lat="45.8693470" lon="10.2949830">
	<ele>2083.00</ele>
	<time>2025-07-29T09:07:36.000Z</time>
</trkpt>
<trkpt lat="45.8693450" lon="10.2949880">
	<ele>2083.20</ele>
	<time>2025-07-29T09:07:37.000Z</time>
</trkpt>
<trkpt lat="45.8693450" lon="10.2949930">
	<ele>2083.40</ele>
	<time>2025-07-29T09:07:38.000Z</time>
</trkpt>
<trkpt lat="45.8693440" lon="10.2949990">
	<ele>2083.60</ele>
	<time>2025-07-29T09:07:39.000Z</time>
</trkpt>
<trkpt lat="45.8693420" lon="10.2950050">
	<ele>2083.80</ele>
	<time>2025-07-29T09:07:40.000Z</time>
</trkpt>
<trkpt lat="45.8693390" lon="10.2950090">
	<ele>2083.80</ele>
	<time>2025-07-29T09:07:41.000Z</time>
</trkpt>
<trkpt lat="45.8693390" lon="10.2950140">
	<ele>2084.00</ele>
	<time>2025-07-29T09:07:42.000Z</time>
</trkpt>
<trkpt lat="45.8693360" lon="10.2950210">
	<ele>2084.20</ele>
	<time>2025-07-29T09:07:43.000Z</time>
</trkpt>
<trkpt lat="45.8693350" lon="10.2950220">
	<ele>2084.40</ele>
	<time>2025-07-29T09:07:44.000Z</time>
</trkpt>
<trkpt lat="45.8693340" lon="10.2950250">
	<ele>2084.60</ele>
	<time>2025-07-29T09:07:45.000Z</time>
</trkpt>
<trkpt lat="45.8693310" lon="10.2950310">
	<ele>2084.60</ele>
	<time>2025-07-29T09:07:46.000Z</time>
</trkpt>
<trkpt lat="45.8693310" lon="10.2950310">
	<ele>2085.00</ele>
	<time>2025-07-29T09:07:47.000Z</time>
</trkpt>
<trkpt lat="45.8693300" lon="10.2950330">
	<ele>2085.20</ele>
	<time>2025-07-29T09:07:48.000Z</time>
</trkpt>
<trkpt lat="45.8693300" lon="10.2950340">
	<ele>2085.40</ele>
	<time>2025-07-29T09:07:49.000Z</time>
</trkpt>
<trkpt lat="45.8693310" lon="10.2950350">
	<ele>2085.60</ele>
	<time>2025-07-29T09:07:50.000Z</time>
</trkpt>
<trkpt lat="45.8693310" lon="10.2950350">
	<ele>2085.60</ele>
	<time>2025-07-29T09:07:51.000Z</time>
</trkpt>
<trkpt lat="45.8693310" lon="10.2950350">
	<ele>2085.60</ele>
	<time>2025-07-29T09:07:52.000Z</time>
</trkpt>
<trkpt lat="45.8693310" lon="10.2950350">
	<ele>2085.60</ele>
	<time>2025-07-29T09:07:53.000Z</time>
</trkpt>
<trkpt lat="45.8693310" lon="10.2950350">
	<ele>2085.60</ele>
	<time>2025-07-29T09:07:54.000Z</time>
</trkpt>
<trkpt lat="45.8693310" lon="10.2950350">
	<ele>2085.60</ele>
	<time>2025-07-29T09:07:55.000Z</time>
</trkpt>
<trkpt lat="45.8693310" lon="10.2950350">
	<ele>2085.60</ele>
	<time>2025-07-29T09:07:56.000Z</time>
</trkpt>
<trkpt lat="45.8693310" lon="10.2950350">
	<ele>2085.60</ele>
	<time>2025-07-29T09:07:57.000Z</time>
</trkpt>
<trkpt lat="45.8693310" lon="10.2950350">
	<ele>2085.40</ele>
	<time>2025-07-29T09:07:58.000Z</time>
</trkpt>
<trkpt lat="45.8693310" lon="10.2950340">
	<ele>2085.40</ele>
	<time>2025-07-29T09:07:59.000Z</time>
</trkpt>
<trkpt lat="45.8693310" lon="10.2950340">
	<ele>2085.40</ele>
	<time>2025-07-29T09:08:00.000Z</time>
</trkpt>
<trkpt lat="45.8693310" lon="10.2950340">
	<ele>2085.40</ele>
	<time>2025-07-29T09:08:01.000Z</time>
</trkpt>
<trkpt lat="45.8693310" lon="10.2950340">
	<ele>2085.40</ele>
	<time>2025-07-29T09:08:02.000Z</time>
</trkpt>
<trkpt lat="45.8693310" lon="10.2950330">
	<ele>2085.40</ele>
	<time>2025-07-29T09:08:03.000Z</time>
</trkpt>
<trkpt lat="45.8693310" lon="10.2950330">
	<ele>2085.60</ele>
	<time>2025-07-29T09:08:04.000Z</time>
</trkpt>
<trkpt lat="45.8693310" lon="10.2950330">
	<ele>2085.60</ele>
	<time>2025-07-29T09:08:05.000Z</time>
</trkpt>
<trkpt lat="45.8693310" lon="10.2950330">
	<ele>2086.00</ele>
	<time>2025-07-29T09:08:06.000Z</time>
</trkpt>
<trkpt lat="45.8693310" lon="10.2950330">
	<ele>2086.20</ele>
	<time>2025-07-29T09:08:07.000Z</time>
</trkpt>
<trkpt lat="45.8693260" lon="10.2950310">
	<ele>2086.40</ele>
	<time>2025-07-29T09:08:08.000Z</time>
</trkpt>
<trkpt lat="45.8693120" lon="10.2950270">
	<ele>2086.40</ele>
	<time>2025-07-29T09:08:09.000Z</time>
</trkpt>
<trkpt lat="45.8692940" lon="10.2950210">
	<ele>2086.60</ele>
	<time>2025-07-29T09:08:10.000Z</time>
</trkpt>
<trkpt lat="45.8692770" lon="10.2950200">
	<ele>2086.60</ele>
	<time>2025-07-29T09:08:11.000Z</time>
</trkpt>
<trkpt lat="45.8692600" lon="10.2950250">
	<ele>2086.60</ele>
	<time>2025-07-29T09:08:12.000Z</time>
</trkpt>
<trkpt lat="45.8692460" lon="10.2950260">
	<ele>2086.40</ele>
	<time>2025-07-29T09:08:13.000Z</time>
</trkpt>
<trkpt lat="45.8692300" lon="10.2950310">
	<ele>2086.40</ele>
	<time>2025-07-29T09:08:14.000Z</time>
</trkpt>
<trkpt lat="45.8692180" lon="10.2950350">
	<ele>2086.40</ele>
	<time>2025-07-29T09:08:15.000Z</time>
</trkpt>
<trkpt lat="45.8692060" lon="10.2950370">
	<ele>2086.20</ele>
	<time>2025-07-29T09:08:16.000Z</time>
</trkpt>
<trkpt lat="45.8691900" lon="10.2950400">
	<ele>2086.40</ele>
	<time>2025-07-29T09:08:17.000Z</time>
</trkpt>
<trkpt lat="45.8691820" lon="10.2950450">
	<ele>2086.20</ele>
	<time>2025-07-29T09:08:18.000Z</time>
</trkpt>
<trkpt lat="45.8691720" lon="10.2950550">
	<ele>2086.20</ele>
	<time>2025-07-29T09:08:19.000Z</time>
</trkpt>
<trkpt lat="45.8691640" lon="10.2950660">
	<ele>2086.20</ele>
	<time>2025-07-29T09:08:20.000Z</time>
</trkpt>
<trkpt lat="45.8691560" lon="10.2950750">
	<ele>2086.20</ele>
	<time>2025-07-29T09:08:21.000Z</time>
</trkpt>
<trkpt lat="45.8691440" lon="10.2950760">
	<ele>2086.20</ele>
	<time>2025-07-29T09:08:22.000Z</time>
</trkpt>
<trkpt lat="45.8691290" lon="10.2950770">
	<ele>2086.00</ele>
	<time>2025-07-29T09:08:23.000Z</time>
</trkpt>
<trkpt lat="45.8691180" lon="10.2950800">
	<ele>2086.00</ele>
	<time>2025-07-29T09:08:24.000Z</time>
</trkpt>
<trkpt lat="45.8691100" lon="10.2950780">
	<ele>2086.00</ele>
	<time>2025-07-29T09:08:25.000Z</time>
</trkpt>
<trkpt lat="45.8690990" lon="10.2950880">
	<ele>2086.00</ele>
	<time>2025-07-29T09:08:26.000Z</time>
</trkpt>
<trkpt lat="45.8690900" lon="10.2951000">
	<ele>2085.80</ele>
	<time>2025-07-29T09:08:27.000Z</time>
</trkpt>
<trkpt lat="45.8690790" lon="10.2951050">
	<ele>2085.80</ele>
	<time>2025-07-29T09:08:28.000Z</time>
</trkpt>
<trkpt lat="45.8690680" lon="10.2951090">
	<ele>2085.80</ele>
	<time>2025-07-29T09:08:29.000Z</time>
</trkpt>
<trkpt lat="45.8690560" lon="10.2951090">
	<ele>2085.80</ele>
	<time>2025-07-29T09:08:30.000Z</time>
</trkpt>
<trkpt lat="45.8690470" lon="10.2951150">
	<ele>2085.80</ele>
	<time>2025-07-29T09:08:31.000Z</time>
</trkpt>
<trkpt lat="45.8690350" lon="10.2951170">
	<ele>2085.80</ele>
	<time>2025-07-29T09:08:32.000Z</time>
</trkpt>
<trkpt lat="45.8690280" lon="10.2951180">
	<ele>2085.80</ele>
	<time>2025-07-29T09:08:33.000Z</time>
</trkpt>
<trkpt lat="45.8690240" lon="10.2951190">
	<ele>2085.80</ele>
	<time>2025-07-29T09:08:34.000Z</time>
</trkpt>
<trkpt lat="45.8690190" lon="10.2951190">
	<ele>2085.80</ele>
	<time>2025-07-29T09:08:35.000Z</time>
</trkpt>
<trkpt lat="45.8690120" lon="10.2951240">
	<ele>2085.80</ele>
	<time>2025-07-29T09:08:36.000Z</time>
</trkpt>
<trkpt lat="45.8690020" lon="10.2951270">
	<ele>2085.80</ele>
	<time>2025-07-29T09:08:37.000Z</time>
</trkpt>
<trkpt lat="45.8689920" lon="10.2951310">
	<ele>2085.80</ele>
	<time>2025-07-29T09:08:38.000Z</time>
</trkpt>
<trkpt lat="45.8689820" lon="10.2951350">
	<ele>2085.80</ele>
	<time>2025-07-29T09:08:39.000Z</time>
</trkpt>
<trkpt lat="45.8689750" lon="10.2951410">
	<ele>2085.80</ele>
	<time>2025-07-29T09:08:40.000Z</time>
</trkpt>
<trkpt lat="45.8689650" lon="10.2951530">
	<ele>2085.80</ele>
	<time>2025-07-29T09:08:41.000Z</time>
</trkpt>
<trkpt lat="45.8689580" lon="10.2951630">
	<ele>2085.80</ele>
	<time>2025-07-29T09:08:42.000Z</time>
</trkpt>
<trkpt lat="45.8689450" lon="10.2951700">
	<ele>2085.80</ele>
	<time>2025-07-29T09:08:43.000Z</time>
</trkpt>
<trkpt lat="45.8689340" lon="10.2951760">
	<ele>2085.80</ele>
	<time>2025-07-29T09:08:44.000Z</time>
</trkpt>
<trkpt lat="45.8689240" lon="10.2951780">
	<ele>2086.00</ele>
	<time>2025-07-29T09:08:45.000Z</time>
</trkpt>
<trkpt lat="45.8689130" lon="10.2951800">
	<ele>2086.20</ele>
	<time>2025-07-29T09:08:46.000Z</time>
</trkpt>
<trkpt lat="45.8689020" lon="10.2951870">
	<ele>2086.20</ele>
	<time>2025-07-29T09:08:47.000Z</time>
</trkpt>
<trkpt lat="45.8688950" lon="10.2951920">
	<ele>2086.20</ele>
	<time>2025-07-29T09:08:48.000Z</time>
</trkpt>
<trkpt lat="45.8688810" lon="10.2951970">
	<ele>2086.40</ele>
	<time>2025-07-29T09:08:49.000Z</time>
</trkpt>
<trkpt lat="45.8688670" lon="10.2952030">
	<ele>2086.40</ele>
	<time>2025-07-29T09:08:50.000Z</time>
</trkpt>
<trkpt lat="45.8688580" lon="10.2952100">
	<ele>2086.20</ele>
	<time>2025-07-29T09:08:51.000Z</time>
</trkpt>
<trkpt lat="45.8688470" lon="10.2952160">
	<ele>2086.20</ele>
	<time>2025-07-29T09:08:52.000Z</time>
</trkpt>
<trkpt lat="45.8688370" lon="10.2952230">
	<ele>2086.20</ele>
	<time>2025-07-29T09:08:53.000Z</time>
</trkpt>
<trkpt lat="45.8688290" lon="10.2952270">
	<ele>2086.20</ele>
	<time>2025-07-29T09:08:54.000Z</time>
</trkpt>
<trkpt lat="45.8688200" lon="10.2952310">
	<ele>2086.20</ele>
	<time>2025-07-29T09:08:55.000Z</time>
</trkpt>
<trkpt lat="45.8688110" lon="10.2952370">
	<ele>2086.20</ele>
	<time>2025-07-29T09:08:56.000Z</time>
</trkpt>
<trkpt lat="45.8688020" lon="10.2952430">
	<ele>2086.20</ele>
	<time>2025-07-29T09:08:57.000Z</time>
</trkpt>
<trkpt lat="45.8687950" lon="10.2952420">
	<ele>2086.40</ele>
	<time>2025-07-29T09:08:58.000Z</time>
</trkpt>
<trkpt lat="45.8687950" lon="10.2952420">
	<ele>2086.40</ele>
	<time>2025-07-29T09:08:59.000Z</time>
</trkpt>
<trkpt lat="45.8687940" lon="10.2952430">
	<ele>2086.40</ele>
	<time>2025-07-29T09:09:00.000Z</time>
</trkpt>
<trkpt lat="45.8687940" lon="10.2952440">
	<ele>2086.40</ele>
	<time>2025-07-29T09:09:01.000Z</time>
</trkpt>
<trkpt lat="45.8687900" lon="10.2952430">
	<ele>2086.40</ele>
	<time>2025-07-29T09:09:02.000Z</time>
</trkpt>
<trkpt lat="45.8687900" lon="10.2952410">
	<ele>2086.40</ele>
	<time>2025-07-29T09:09:03.000Z</time>
</trkpt>
<trkpt lat="45.8687920" lon="10.2952370">
	<ele>2086.40</ele>
	<time>2025-07-29T09:09:04.000Z</time>
</trkpt>
<trkpt lat="45.8687960" lon="10.2952270">
	<ele>2086.40</ele>
	<time>2025-07-29T09:09:05.000Z</time>
</trkpt>
<trkpt lat="45.8688000" lon="10.2952190">
	<ele>2086.60</ele>
	<time>2025-07-29T09:09:06.000Z</time>
</trkpt>
<trkpt lat="45.8687990" lon="10.2952100">
	<ele>2086.80</ele>
	<time>2025-07-29T09:09:07.000Z</time>
</trkpt>
<trkpt lat="45.8687990" lon="10.2952020">
	<ele>2087.00</ele>
	<time>2025-07-29T09:09:08.000Z</time>
</trkpt>
<trkpt lat="45.8687990" lon="10.2951960">
	<ele>2087.20</ele>
	<time>2025-07-29T09:09:09.000Z</time>
</trkpt>
<trkpt lat="45.8687980" lon="10.2951910">
	<ele>2087.60</ele>
	<time>2025-07-29T09:09:10.000Z</time>
</trkpt>
<trkpt lat="45.8687950" lon="10.2951850">
	<ele>2087.80</ele>
	<time>2025-07-29T09:09:11.000Z</time>
</trkpt>
<trkpt lat="45.8687920" lon="10.2951780">
	<ele>2087.80</ele>
	<time>2025-07-29T09:09:12.000Z</time>
</trkpt>
<trkpt lat="45.8687920" lon="10.2951710">
	<ele>2088.00</ele>
	<time>2025-07-29T09:09:13.000Z</time>
</trkpt>
<trkpt lat="45.8687910" lon="10.2951640">
	<ele>2088.40</ele>
	<time>2025-07-29T09:09:14.000Z</time>
</trkpt>
<trkpt lat="45.8687890" lon="10.2951600">
	<ele>2088.40</ele>
	<time>2025-07-29T09:09:15.000Z</time>
</trkpt>
<trkpt lat="45.8687880" lon="10.2951530">
	<ele>2088.80</ele>
	<time>2025-07-29T09:09:16.000Z</time>
</trkpt>
<trkpt lat="45.8687890" lon="10.2951470">
	<ele>2089.00</ele>
	<time>2025-07-29T09:09:17.000Z</time>
</trkpt>
<trkpt lat="45.8687930" lon="10.2951400">
	<ele>2089.20</ele>
	<time>2025-07-29T09:09:18.000Z</time>
</trkpt>
<trkpt lat="45.8687970" lon="10.2951350">
	<ele>2089.40</ele>
	<time>2025-07-29T09:09:19.000Z</time>
</trkpt>
<trkpt lat="45.8688000" lon="10.2951330">
	<ele>2089.40</ele>
	<time>2025-07-29T09:09:20.000Z</time>
</trkpt>
<trkpt lat="45.8688020" lon="10.2951280">
	<ele>2089.80</ele>
	<time>2025-07-29T09:09:21.000Z</time>
</trkpt>
<trkpt lat="45.8688000" lon="10.2951240">
	<ele>2090.00</ele>
	<time>2025-07-29T09:09:22.000Z</time>
</trkpt>
<trkpt lat="45.8687980" lon="10.2951180">
	<ele>2090.20</ele>
	<time>2025-07-29T09:09:23.000Z</time>
</trkpt>
<trkpt lat="45.8687920" lon="10.2951120">
	<ele>2090.40</ele>
	<time>2025-07-29T09:09:24.000Z</time>
</trkpt>
<trkpt lat="45.8687900" lon="10.2951080">
	<ele>2090.60</ele>
	<time>2025-07-29T09:09:25.000Z</time>
</trkpt>
<trkpt lat="45.8687930" lon="10.2951030">
	<ele>2090.80</ele>
	<time>2025-07-29T09:09:26.000Z</time>
</trkpt>
<trkpt lat="45.8687950" lon="10.2950990">
	<ele>2091.00</ele>
	<time>2025-07-29T09:09:27.000Z</time>
</trkpt>
<trkpt lat="45.8688000" lon="10.2950940">
	<ele>2091.00</ele>
	<time>2025-07-29T09:09:28.000Z</time>
</trkpt>
<trkpt lat="45.8688060" lon="10.2950870">
	<ele>2091.20</ele>
	<time>2025-07-29T09:09:29.000Z</time>
</trkpt>
<trkpt lat="45.8688040" lon="10.2950850">
	<ele>2091.60</ele>
	<time>2025-07-29T09:09:30.000Z</time>
</trkpt>
<trkpt lat="45.8687990" lon="10.2950770">
	<ele>2091.80</ele>
	<time>2025-07-29T09:09:31.000Z</time>
</trkpt>
<trkpt lat="45.8687920" lon="10.2950700">
	<ele>2092.00</ele>
	<time>2025-07-29T09:09:32.000Z</time>
</trkpt>
<trkpt lat="45.8687860" lon="10.2950640">
	<ele>2092.20</ele>
	<time>2025-07-29T09:09:33.000Z</time>
</trkpt>
<trkpt lat="45.8687810" lon="10.2950640">
	<ele>2092.40</ele>
	<time>2025-07-29T09:09:34.000Z</time>
</trkpt>
<trkpt lat="45.8687760" lon="10.2950590">
	<ele>2092.60</ele>
	<time>2025-07-29T09:09:35.000Z</time>
</trkpt>
<trkpt lat="45.8687760" lon="10.2950560">
	<ele>2092.80</ele>
	<time>2025-07-29T09:09:36.000Z</time>
</trkpt>
<trkpt lat="45.8687760" lon="10.2950530">
	<ele>2092.80</ele>
	<time>2025-07-29T09:09:37.000Z</time>
</trkpt>
<trkpt lat="45.8687770" lon="10.2950530">
	<ele>2092.80</ele>
	<time>2025-07-29T09:09:38.000Z</time>
</trkpt>
<trkpt lat="45.8687780" lon="10.2950450">
	<ele>2092.80</ele>
	<time>2025-07-29T09:09:39.000Z</time>
</trkpt>
<trkpt lat="45.8687770" lon="10.2950360">
	<ele>2093.00</ele>
	<time>2025-07-29T09:09:40.000Z</time>
</trkpt>
<trkpt lat="45.8687780" lon="10.2950300">
	<ele>2093.40</ele>
	<time>2025-07-29T09:09:41.000Z</time>
</trkpt>
<trkpt lat="45.8687810" lon="10.2950190">
	<ele>2093.60</ele>
	<time>2025-07-29T09:09:42.000Z</time>
</trkpt>
<trkpt lat="45.8687810" lon="10.2950140">
	<ele>2093.60</ele>
	<time>2025-07-29T09:09:43.000Z</time>
</trkpt>
<trkpt lat="45.8687790" lon="10.2950070">
	<ele>2094.00</ele>
	<time>2025-07-29T09:09:44.000Z</time>
</trkpt>
<trkpt lat="45.8687750" lon="10.2950010">
	<ele>2094.40</ele>
	<time>2025-07-29T09:09:45.000Z</time>
</trkpt>
<trkpt lat="45.8687700" lon="10.2949930">
	<ele>2094.40</ele>
	<time>2025-07-29T09:09:46.000Z</time>
</trkpt>
<trkpt lat="45.8687670" lon="10.2949880">
	<ele>2094.60</ele>
	<time>2025-07-29T09:09:47.000Z</time>
</trkpt>
<trkpt lat="45.8687670" lon="10.2949840">
	<ele>2094.80</ele>
	<time>2025-07-29T09:09:48.000Z</time>
</trkpt>
<trkpt lat="45.8687660" lon="10.2949780">
	<ele>2095.00</ele>
	<time>2025-07-29T09:09:49.000Z</time>
</trkpt>
<trkpt lat="45.8687670" lon="10.2949710">
	<ele>2095.00</ele>
	<time>2025-07-29T09:09:50.000Z</time>
</trkpt>
<trkpt lat="45.8687680" lon="10.2949630">
	<ele>2095.20</ele>
	<time>2025-07-29T09:09:51.000Z</time>
</trkpt>
<trkpt lat="45.8687670" lon="10.2949510">
	<ele>2095.40</ele>
	<time>2025-07-29T09:09:52.000Z</time>
</trkpt>
<trkpt lat="45.8687640" lon="10.2949440">
	<ele>2095.60</ele>
	<time>2025-07-29T09:09:53.000Z</time>
</trkpt>
<trkpt lat="45.8687680" lon="10.2949370">
	<ele>2096.00</ele>
	<time>2025-07-29T09:09:54.000Z</time>
</trkpt>
<trkpt lat="45.8687720" lon="10.2949310">
	<ele>2096.20</ele>
	<time>2025-07-29T09:09:55.000Z</time>
</trkpt>
<trkpt lat="45.8687730" lon="10.2949280">
	<ele>2096.40</ele>
	<time>2025-07-29T09:09:56.000Z</time>
</trkpt>
<trkpt lat="45.8687740" lon="10.2949250">
	<ele>2096.60</ele>
	<time>2025-07-29T09:09:57.000Z</time>
</trkpt>
<trkpt lat="45.8687770" lon="10.2949200">
	<ele>2096.60</ele>
	<time>2025-07-29T09:09:58.000Z</time>
</trkpt>
<trkpt lat="45.8687810" lon="10.2949120">
	<ele>2096.60</ele>
	<time>2025-07-29T09:09:59.000Z</time>
</trkpt>
<trkpt lat="45.8687850" lon="10.2949060">
	<ele>2096.80</ele>
	<time>2025-07-29T09:10:00.000Z</time>
</trkpt>
<trkpt lat="45.8687860" lon="10.2949000">
	<ele>2097.00</ele>
	<time>2025-07-29T09:10:01.000Z</time>
</trkpt>
<trkpt lat="45.8687870" lon="10.2948960">
	<ele>2097.00</ele>
	<time>2025-07-29T09:10:02.000Z</time>
</trkpt>
<trkpt lat="45.8687880" lon="10.2948910">
	<ele>2097.20</ele>
	<time>2025-07-29T09:10:03.000Z</time>
</trkpt>
<trkpt lat="45.8687890" lon="10.2948830">
	<ele>2097.40</ele>
	<time>2025-07-29T09:10:04.000Z</time>
</trkpt>
<trkpt lat="45.8687920" lon="10.2948780">
	<ele>2097.80</ele>
	<time>2025-07-29T09:10:05.000Z</time>
</trkpt>
<trkpt lat="45.8687950" lon="10.2948760">
	<ele>2098.00</ele>
	<time>2025-07-29T09:10:06.000Z</time>
</trkpt>
<trkpt lat="45.8687950" lon="10.2948690">
	<ele>2098.20</ele>
	<time>2025-07-29T09:10:07.000Z</time>
</trkpt>
<trkpt lat="45.8687930" lon="10.2948610">
	<ele>2098.40</ele>
	<time>2025-07-29T09:10:08.000Z</time>
</trkpt>
<trkpt lat="45.8687920" lon="10.2948560">
	<ele>2098.60</ele>
	<time>2025-07-29T09:10:09.000Z</time>
</trkpt>
<trkpt lat="45.8687930" lon="10.2948480">
	<ele>2098.60</ele>
	<time>2025-07-29T09:10:10.000Z</time>
</trkpt>
<trkpt lat="45.8687900" lon="10.2948400">
	<ele>2098.80</ele>
	<time>2025-07-29T09:10:11.000Z</time>
</trkpt>
<trkpt lat="45.8687890" lon="10.2948340">
	<ele>2099.00</ele>
	<time>2025-07-29T09:10:12.000Z</time>
</trkpt>
<trkpt lat="45.8687880" lon="10.2948280">
	<ele>2099.40</ele>
	<time>2025-07-29T09:10:13.000Z</time>
</trkpt>
<trkpt lat="45.8687900" lon="10.2948230">
	<ele>2099.40</ele>
	<time>2025-07-29T09:10:14.000Z</time>
</trkpt>
<trkpt lat="45.8687910" lon="10.2948170">
	<ele>2099.80</ele>
	<time>2025-07-29T09:10:15.000Z</time>
</trkpt>
<trkpt lat="45.8687920" lon="10.2948120">
	<ele>2100.00</ele>
	<time>2025-07-29T09:10:16.000Z</time>
</trkpt>
<trkpt lat="45.8687910" lon="10.2948050">
	<ele>2100.00</ele>
	<time>2025-07-29T09:10:17.000Z</time>
</trkpt>
<trkpt lat="45.8687910" lon="10.2947980">
	<ele>2100.40</ele>
	<time>2025-07-29T09:10:18.000Z</time>
</trkpt>
<trkpt lat="45.8687900" lon="10.2947910">
	<ele>2100.80</ele>
	<time>2025-07-29T09:10:19.000Z</time>
</trkpt>
<trkpt lat="45.8687880" lon="10.2947850">
	<ele>2101.00</ele>
	<time>2025-07-29T09:10:20.000Z</time>
</trkpt>
<trkpt lat="45.8687850" lon="10.2947800">
	<ele>2101.00</ele>
	<time>2025-07-29T09:10:21.000Z</time>
</trkpt>
<trkpt lat="45.8687830" lon="10.2947760">
	<ele>2101.20</ele>
	<time>2025-07-29T09:10:22.000Z</time>
</trkpt>
<trkpt lat="45.8687820" lon="10.2947710">
	<ele>2101.40</ele>
	<time>2025-07-29T09:10:23.000Z</time>
</trkpt>
<trkpt lat="45.8687810" lon="10.2947680">
	<ele>2101.60</ele>
	<time>2025-07-29T09:10:24.000Z</time>
</trkpt>
<trkpt lat="45.8687800" lon="10.2947630">
	<ele>2101.60</ele>
	<time>2025-07-29T09:10:25.000Z</time>
</trkpt>
<trkpt lat="45.8687790" lon="10.2947590">
	<ele>2101.80</ele>
	<time>2025-07-29T09:10:26.000Z</time>
</trkpt>
<trkpt lat="45.8687780" lon="10.2947550">
	<ele>2101.80</ele>
	<time>2025-07-29T09:10:27.000Z</time>
</trkpt>
<trkpt lat="45.8687760" lon="10.2947490">
	<ele>2101.80</ele>
	<time>2025-07-29T09:10:28.000Z</time>
</trkpt>
<trkpt lat="45.8687730" lon="10.2947420">
	<ele>2102.00</ele>
	<time>2025-07-29T09:10:29.000Z</time>
</trkpt>
<trkpt lat="45.8687710" lon="10.2947340">
	<ele>2102.00</ele>
	<time>2025-07-29T09:10:30.000Z</time>
</trkpt>
<trkpt lat="45.8687700" lon="10.2947250">
	<ele>2102.20</ele>
	<time>2025-07-29T09:10:31.000Z</time>
</trkpt>
<trkpt lat="45.8687700" lon="10.2947170">
	<ele>2102.40</ele>
	<time>2025-07-29T09:10:32.000Z</time>
</trkpt>
<trkpt lat="45.8687640" lon="10.2947070">
	<ele>2102.60</ele>
	<time>2025-07-29T09:10:33.000Z</time>
</trkpt>
<trkpt lat="45.8687570" lon="10.2947010">
	<ele>2102.80</ele>
	<time>2025-07-29T09:10:34.000Z</time>
</trkpt>
<trkpt lat="45.8687560" lon="10.2946940">
	<ele>2103.00</ele>
	<time>2025-07-29T09:10:35.000Z</time>
</trkpt>
<trkpt lat="45.8687540" lon="10.2946900">
	<ele>2103.00</ele>
	<time>2025-07-29T09:10:36.000Z</time>
</trkpt>
<trkpt lat="45.8687540" lon="10.2946850">
	<ele>2103.20</ele>
	<time>2025-07-29T09:10:37.000Z</time>
</trkpt>
<trkpt lat="45.8687520" lon="10.2946820">
	<ele>2103.20</ele>
	<time>2025-07-29T09:10:38.000Z</time>
</trkpt>
<trkpt lat="45.8687510" lon="10.2946760">
	<ele>2103.40</ele>
	<time>2025-07-29T09:10:39.000Z</time>
</trkpt>
<trkpt lat="45.8687500" lon="10.2946710">
	<ele>2103.60</ele>
	<time>2025-07-29T09:10:40.000Z</time>
</trkpt>
<trkpt lat="45.8687490" lon="10.2946640">
	<ele>2103.80</ele>
	<time>2025-07-29T09:10:41.000Z</time>
</trkpt>
<trkpt lat="45.8687490" lon="10.2946560">
	<ele>2104.00</ele>
	<time>2025-07-29T09:10:42.000Z</time>
</trkpt>
<trkpt lat="45.8687470" lon="10.2946450">
	<ele>2104.20</ele>
	<time>2025-07-29T09:10:43.000Z</time>
</trkpt>
<trkpt lat="45.8687450" lon="10.2946370">
	<ele>2104.40</ele>
	<time>2025-07-29T09:10:44.000Z</time>
</trkpt>
<trkpt lat="45.8687440" lon="10.2946310">
	<ele>2104.40</ele>
	<time>2025-07-29T09:10:45.000Z</time>
</trkpt>
<trkpt lat="45.8687410" lon="10.2946240">
	<ele>2104.60</ele>
	<time>2025-07-29T09:10:46.000Z</time>
</trkpt>
<trkpt lat="45.8687400" lon="10.2946190">
	<ele>2104.60</ele>
	<time>2025-07-29T09:10:47.000Z</time>
</trkpt>
<trkpt lat="45.8687400" lon="10.2946130">
	<ele>2104.80</ele>
	<time>2025-07-29T09:10:48.000Z</time>
</trkpt>
<trkpt lat="45.8687410" lon="10.2946050">
	<ele>2104.80</ele>
	<time>2025-07-29T09:10:49.000Z</time>
</trkpt>
<trkpt lat="45.8687410" lon="10.2945980">
	<ele>2105.20</ele>
	<time>2025-07-29T09:10:50.000Z</time>
</trkpt>
<trkpt lat="45.8687430" lon="10.2945890">
	<ele>2105.40</ele>
	<time>2025-07-29T09:10:51.000Z</time>
</trkpt>
<trkpt lat="45.8687430" lon="10.2945810">
	<ele>2105.60</ele>
	<time>2025-07-29T09:10:52.000Z</time>
</trkpt>
<trkpt lat="45.8687450" lon="10.2945710">
	<ele>2105.60</ele>
	<time>2025-07-29T09:10:53.000Z</time>
</trkpt>
<trkpt lat="45.8687450" lon="10.2945600">
	<ele>2105.80</ele>
	<time>2025-07-29T09:10:54.000Z</time>
</trkpt>
<trkpt lat="45.8687500" lon="10.2945510">
	<ele>2106.00</ele>
	<time>2025-07-29T09:10:55.000Z</time>
</trkpt>
<trkpt lat="45.8687560" lon="10.2945400">
	<ele>2106.00</ele>
	<time>2025-07-29T09:10:56.000Z</time>
</trkpt>
<trkpt lat="45.8687630" lon="10.2945290">
	<ele>2106.00</ele>
	<time>2025-07-29T09:10:57.000Z</time>
</trkpt>
<trkpt lat="45.8687670" lon="10.2945170">
	<ele>2106.20</ele>
	<time>2025-07-29T09:10:58.000Z</time>
</trkpt>
<trkpt lat="45.8687690" lon="10.2945070">
	<ele>2106.20</ele>
	<time>2025-07-29T09:10:59.000Z</time>
</trkpt>
<trkpt lat="45.8687700" lon="10.2944950">
	<ele>2106.40</ele>
	<time>2025-07-29T09:11:00.000Z</time>
</trkpt>
<trkpt lat="45.8687690" lon="10.2944840">
	<ele>2106.40</ele>
	<time>2025-07-29T09:11:01.000Z</time>
</trkpt>
<trkpt lat="45.8687650" lon="10.2944740">
	<ele>2106.60</ele>
	<time>2025-07-29T09:11:02.000Z</time>
</trkpt>
<trkpt lat="45.8687630" lon="10.2944680">
	<ele>2106.80</ele>
	<time>2025-07-29T09:11:03.000Z</time>
</trkpt>
<trkpt lat="45.8687610" lon="10.2944650">
	<ele>2107.00</ele>
	<time>2025-07-29T09:11:04.000Z</time>
</trkpt>
<trkpt lat="45.8687550" lon="10.2944600">
	<ele>2107.20</ele>
	<time>2025-07-29T09:11:05.000Z</time>
</trkpt>
<trkpt lat="45.8687490" lon="10.2944520">
	<ele>2107.60</ele>
	<time>2025-07-29T09:11:06.000Z</time>
</trkpt>
<trkpt lat="45.8687420" lon="10.2944450">
	<ele>2107.60</ele>
	<time>2025-07-29T09:11:07.000Z</time>
</trkpt>
<trkpt lat="45.8687390" lon="10.2944370">
	<ele>2107.80</ele>
	<time>2025-07-29T09:11:08.000Z</time>
</trkpt>
<trkpt lat="45.8687380" lon="10.2944310">
	<ele>2108.00</ele>
	<time>2025-07-29T09:11:09.000Z</time>
</trkpt>
<trkpt lat="45.8687360" lon="10.2944240">
	<ele>2108.00</ele>
	<time>2025-07-29T09:11:10.000Z</time>
</trkpt>
<trkpt lat="45.8687330" lon="10.2944180">
	<ele>2108.40</ele>
	<time>2025-07-29T09:11:11.000Z</time>
</trkpt>
<trkpt lat="45.8687300" lon="10.2944120">
	<ele>2108.60</ele>
	<time>2025-07-29T09:11:12.000Z</time>
</trkpt>
<trkpt lat="45.8687270" lon="10.2944040">
	<ele>2108.60</ele>
	<time>2025-07-29T09:11:13.000Z</time>
</trkpt>
<trkpt lat="45.8687250" lon="10.2943960">
	<ele>2108.80</ele>
	<time>2025-07-29T09:11:14.000Z</time>
</trkpt>
<trkpt lat="45.8687230" lon="10.2943850">
	<ele>2108.80</ele>
	<time>2025-07-29T09:11:15.000Z</time>
</trkpt>
<trkpt lat="45.8687210" lon="10.2943770">
	<ele>2109.00</ele>
	<time>2025-07-29T09:11:16.000Z</time>
</trkpt>
<trkpt lat="45.8687160" lon="10.2943720">
	<ele>2109.20</ele>
	<time>2025-07-29T09:11:17.000Z</time>
</trkpt>
<trkpt lat="45.8687100" lon="10.2943690">
	<ele>2109.40</ele>
	<time>2025-07-29T09:11:18.000Z</time>
</trkpt>
<trkpt lat="45.8687060" lon="10.2943650">
	<ele>2109.60</ele>
	<time>2025-07-29T09:11:19.000Z</time>
</trkpt>
<trkpt lat="45.8687000" lon="10.2943640">
	<ele>2109.60</ele>
	<time>2025-07-29T09:11:20.000Z</time>
</trkpt>
<trkpt lat="45.8686940" lon="10.2943570">
	<ele>2109.80</ele>
	<time>2025-07-29T09:11:21.000Z</time>
</trkpt>
<trkpt lat="45.8686860" lon="10.2943510">
	<ele>2109.80</ele>
	<time>2025-07-29T09:11:22.000Z</time>
</trkpt>
<trkpt lat="45.8686810" lon="10.2943480">
	<ele>2110.00</ele>
	<time>2025-07-29T09:11:23.000Z</time>
</trkpt>
<trkpt lat="45.8686790" lon="10.2943380">
	<ele>2110.20</ele>
	<time>2025-07-29T09:11:24.000Z</time>
</trkpt>
<trkpt lat="45.8686750" lon="10.2943320">
	<ele>2110.20</ele>
	<time>2025-07-29T09:11:25.000Z</time>
</trkpt>
<trkpt lat="45.8686720" lon="10.2943260">
	<ele>2110.40</ele>
	<time>2025-07-29T09:11:26.000Z</time>
</trkpt>
<trkpt lat="45.8686690" lon="10.2943210">
	<ele>2110.40</ele>
	<time>2025-07-29T09:11:27.000Z</time>
</trkpt>
<trkpt lat="45.8686620" lon="10.2943120">
	<ele>2110.40</ele>
	<time>2025-07-29T09:11:28.000Z</time>
</trkpt>
<trkpt lat="45.8686600" lon="10.2943060">
	<ele>2110.60</ele>
	<time>2025-07-29T09:11:29.000Z</time>
</trkpt>
<trkpt lat="45.8686570" lon="10.2943010">
	<ele>2110.80</ele>
	<time>2025-07-29T09:11:30.000Z</time>
</trkpt>
<trkpt lat="45.8686530" lon="10.2942960">
	<ele>2111.00</ele>
	<time>2025-07-29T09:11:31.000Z</time>
</trkpt>
<trkpt lat="45.8686480" lon="10.2942930">
	<ele>2111.00</ele>
	<time>2025-07-29T09:11:32.000Z</time>
</trkpt>
<trkpt lat="45.8686390" lon="10.2942890">
	<ele>2111.20</ele>
	<time>2025-07-29T09:11:33.000Z</time>
</trkpt>
<trkpt lat="45.8686330" lon="10.2942850">
	<ele>2111.40</ele>
	<time>2025-07-29T09:11:34.000Z</time>
</trkpt>
<trkpt lat="45.8686240" lon="10.2942790">
	<ele>2111.60</ele>
	<time>2025-07-29T09:11:35.000Z</time>
</trkpt>
<trkpt lat="45.8686210" lon="10.2942750">
	<ele>2111.60</ele>
	<time>2025-07-29T09:11:36.000Z</time>
</trkpt>
<trkpt lat="45.8686180" lon="10.2942710">
	<ele>2111.60</ele>
	<time>2025-07-29T09:11:37.000Z</time>
</trkpt>
<trkpt lat="45.8686140" lon="10.2942740">
	<ele>2111.80</ele>
	<time>2025-07-29T09:11:38.000Z</time>
</trkpt>
<trkpt lat="45.8686120" lon="10.2942770">
	<ele>2111.80</ele>
	<time>2025-07-29T09:11:39.000Z</time>
</trkpt>
<trkpt lat="45.8686110" lon="10.2942780">
	<ele>2111.80</ele>
	<time>2025-07-29T09:11:40.000Z</time>
</trkpt>
<trkpt lat="45.8686110" lon="10.2942780">
	<ele>2111.80</ele>
	<time>2025-07-29T09:11:41.000Z</time>
</trkpt>
<trkpt lat="45.8686100" lon="10.2942770">
	<ele>2111.80</ele>
	<time>2025-07-29T09:11:42.000Z</time>
</trkpt>
<trkpt lat="45.8686090" lon="10.2942770">
	<ele>2111.80</ele>
	<time>2025-07-29T09:11:43.000Z</time>
</trkpt>
<trkpt lat="45.8686070" lon="10.2942780">
	<ele>2111.80</ele>
	<time>2025-07-29T09:11:44.000Z</time>
</trkpt>
<trkpt lat="45.8686010" lon="10.2942830">
	<ele>2111.60</ele>
	<time>2025-07-29T09:11:45.000Z</time>
</trkpt>
<trkpt lat="45.8685970" lon="10.2942920">
	<ele>2111.60</ele>
	<time>2025-07-29T09:11:46.000Z</time>
</trkpt>
<trkpt lat="45.8685880" lon="10.2942990">
	<ele>2111.80</ele>
	<time>2025-07-29T09:11:47.000Z</time>
</trkpt>
<trkpt lat="45.8685790" lon="10.2943060">
	<ele>2111.80</ele>
	<time>2025-07-29T09:11:48.000Z</time>
</trkpt>
<trkpt lat="45.8685700" lon="10.2943140">
	<ele>2111.60</ele>
	<time>2025-07-29T09:11:49.000Z</time>
</trkpt>
<trkpt lat="45.8685580" lon="10.2943170">
	<ele>2111.80</ele>
	<time>2025-07-29T09:11:50.000Z</time>
</trkpt>
<trkpt lat="45.8685450" lon="10.2943150">
	<ele>2111.80</ele>
	<time>2025-07-29T09:11:51.000Z</time>
</trkpt>
<trkpt lat="45.8685360" lon="10.2943160">
	<ele>2112.00</ele>
	<time>2025-07-29T09:11:52.000Z</time>
</trkpt>
<trkpt lat="45.8685260" lon="10.2943210">
	<ele>2112.00</ele>
	<time>2025-07-29T09:11:53.000Z</time>
</trkpt>
<trkpt lat="45.8685160" lon="10.2943290">
	<ele>2112.00</ele>
	<time>2025-07-29T09:11:54.000Z</time>
</trkpt>
<trkpt lat="45.8685050" lon="10.2943360">
	<ele>2112.00</ele>
	<time>2025-07-29T09:11:55.000Z</time>
</trkpt>
<trkpt lat="45.8684960" lon="10.2943440">
	<ele>2112.00</ele>
	<time>2025-07-29T09:11:56.000Z</time>
</trkpt>
<trkpt lat="45.8684870" lon="10.2943500">
	<ele>2112.20</ele>
	<time>2025-07-29T09:11:57.000Z</time>
</trkpt>
<trkpt lat="45.8684800" lon="10.2943520">
	<ele>2112.00</ele>
	<time>2025-07-29T09:11:58.000Z</time>
</trkpt>
<trkpt lat="45.8684710" lon="10.2943500">
	<ele>2111.80</ele>
	<time>2025-07-29T09:11:59.000Z</time>
</trkpt>
<trkpt lat="45.8684600" lon="10.2943440">
	<ele>2111.60</ele>
	<time>2025-07-29T09:12:00.000Z</time>
</trkpt>
<trkpt lat="45.8684500" lon="10.2943440">
	<ele>2111.40</ele>
	<time>2025-07-29T09:12:01.000Z</time>
</trkpt>
<trkpt lat="45.8684410" lon="10.2943480">
	<ele>2111.40</ele>
	<time>2025-07-29T09:12:02.000Z</time>
</trkpt>
<trkpt lat="45.8684340" lon="10.2943560">
	<ele>2111.40</ele>
	<time>2025-07-29T09:12:03.000Z</time>
</trkpt>
<trkpt lat="45.8684270" lon="10.2943630">
	<ele>2111.20</ele>
	<time>2025-07-29T09:12:04.000Z</time>
</trkpt>
<trkpt lat="45.8684180" lon="10.2943650">
	<ele>2111.20</ele>
	<time>2025-07-29T09:12:05.000Z</time>
</trkpt>
<trkpt lat="45.8684100" lon="10.2943610">
	<ele>2111.20</ele>
	<time>2025-07-29T09:12:06.000Z</time>
</trkpt>
<trkpt lat="45.8683990" lon="10.2943740">
	<ele>2111.20</ele>
	<time>2025-07-29T09:12:07.000Z</time>
</trkpt>
<trkpt lat="45.8683890" lon="10.2943890">
	<ele>2111.20</ele>
	<time>2025-07-29T09:12:08.000Z</time>
</trkpt>
<trkpt lat="45.8683800" lon="10.2944020">
	<ele>2111.20</ele>
	<time>2025-07-29T09:12:09.000Z</time>
</trkpt>
<trkpt lat="45.8683710" lon="10.2944090">
	<ele>2111.20</ele>
	<time>2025-07-29T09:12:10.000Z</time>
</trkpt>
<trkpt lat="45.8683640" lon="10.2944180">
	<ele>2111.20</ele>
	<time>2025-07-29T09:12:11.000Z</time>
</trkpt>
<trkpt lat="45.8683550" lon="10.2944210">
	<ele>2111.20</ele>
	<time>2025-07-29T09:12:12.000Z</time>
</trkpt>
<trkpt lat="45.8683440" lon="10.2944180">
	<ele>2111.20</ele>
	<time>2025-07-29T09:12:13.000Z</time>
</trkpt>
<trkpt lat="45.8683350" lon="10.2944230">
	<ele>2111.20</ele>
	<time>2025-07-29T09:12:14.000Z</time>
</trkpt>
<trkpt lat="45.8683260" lon="10.2944320">
	<ele>2111.20</ele>
	<time>2025-07-29T09:12:15.000Z</time>
</trkpt>
<trkpt lat="45.8683170" lon="10.2944430">
	<ele>2111.20</ele>
	<time>2025-07-29T09:12:16.000Z</time>
</trkpt>
<trkpt lat="45.8683070" lon="10.2944520">
	<ele>2111.00</ele>
	<time>2025-07-29T09:12:17.000Z</time>
</trkpt>
<trkpt lat="45.8682970" lon="10.2944600">
	<ele>2111.00</ele>
	<time>2025-07-29T09:12:18.000Z</time>
</trkpt>
<trkpt lat="45.8682850" lon="10.2944670">
	<ele>2111.00</ele>
	<time>2025-07-29T09:12:19.000Z</time>
</trkpt>
<trkpt lat="45.8682750" lon="10.2944700">
	<ele>2111.00</ele>
	<time>2025-07-29T09:12:20.000Z</time>
</trkpt>
<trkpt lat="45.8682670" lon="10.2944770">
	<ele>2111.00</ele>
	<time>2025-07-29T09:12:21.000Z</time>
</trkpt>
<trkpt lat="45.8682610" lon="10.2944830">
	<ele>2111.00</ele>
	<time>2025-07-29T09:12:22.000Z</time>
</trkpt>
<trkpt lat="45.8682560" lon="10.2944880">
	<ele>2111.00</ele>
	<time>2025-07-29T09:12:23.000Z</time>
</trkpt>
<trkpt lat="45.8682490" lon="10.2944920">
	<ele>2111.00</ele>
	<time>2025-07-29T09:12:24.000Z</time>
</trkpt>
<trkpt lat="45.8682400" lon="10.2944920">
	<ele>2111.00</ele>
	<time>2025-07-29T09:12:25.000Z</time>
</trkpt>
<trkpt lat="45.8682300" lon="10.2944910">
	<ele>2111.00</ele>
	<time>2025-07-29T09:12:26.000Z</time>
</trkpt>
<trkpt lat="45.8682200" lon="10.2944940">
	<ele>2111.00</ele>
	<time>2025-07-29T09:12:27.000Z</time>
</trkpt>
<trkpt lat="45.8682110" lon="10.2944980">
	<ele>2111.20</ele>
	<time>2025-07-29T09:12:28.000Z</time>
</trkpt>
<trkpt lat="45.8682010" lon="10.2945030">
	<ele>2111.20</ele>
	<time>2025-07-29T09:12:29.000Z</time>
</trkpt>
<trkpt lat="45.8681920" lon="10.2945090">
	<ele>2111.20</ele>
	<time>2025-07-29T09:12:30.000Z</time>
</trkpt>
<trkpt lat="45.8681840" lon="10.2945140">
	<ele>2111.20</ele>
	<time>2025-07-29T09:12:31.000Z</time>
</trkpt>
<trkpt lat="45.8681720" lon="10.2945210">
	<ele>2111.40</ele>
	<time>2025-07-29T09:12:32.000Z</time>
</trkpt>
<trkpt lat="45.8681600" lon="10.2945280">
	<ele>2111.40</ele>
	<time>2025-07-29T09:12:33.000Z</time>
</trkpt>
<trkpt lat="45.8681500" lon="10.2945330">
	<ele>2111.40</ele>
	<time>2025-07-29T09:12:34.000Z</time>
</trkpt>
<trkpt lat="45.8681390" lon="10.2945360">
	<ele>2111.60</ele>
	<time>2025-07-29T09:12:35.000Z</time>
</trkpt>
<trkpt lat="45.8681290" lon="10.2945380">
	<ele>2111.80</ele>
	<time>2025-07-29T09:12:36.000Z</time>
</trkpt>
<trkpt lat="45.8681170" lon="10.2945420">
	<ele>2111.80</ele>
	<time>2025-07-29T09:12:37.000Z</time>
</trkpt>
<trkpt lat="45.8681050" lon="10.2945480">
	<ele>2111.80</ele>
	<time>2025-07-29T09:12:38.000Z</time>
</trkpt>
<trkpt lat="45.8680930" lon="10.2945520">
	<ele>2111.80</ele>
	<time>2025-07-29T09:12:39.000Z</time>
</trkpt>
<trkpt lat="45.8680860" lon="10.2945590">
	<ele>2111.80</ele>
	<time>2025-07-29T09:12:40.000Z</time>
</trkpt>
<trkpt lat="45.8680790" lon="10.2945670">
	<ele>2112.00</ele>
	<time>2025-07-29T09:12:41.000Z</time>
</trkpt>
<trkpt lat="45.8680730" lon="10.2945750">
	<ele>2112.00</ele>
	<time>2025-07-29T09:12:42.000Z</time>
</trkpt>
<trkpt lat="45.8680660" lon="10.2945810">
	<ele>2112.00</ele>
	<time>2025-07-29T09:12:43.000Z</time>
</trkpt>
<trkpt lat="45.8680580" lon="10.2945850">
	<ele>2112.00</ele>
	<time>2025-07-29T09:12:44.000Z</time>
</trkpt>
<trkpt lat="45.8680490" lon="10.2945900">
	<ele>2112.00</ele>
	<time>2025-07-29T09:12:45.000Z</time>
</trkpt>
<trkpt lat="45.8680400" lon="10.2945960">
	<ele>2112.20</ele>
	<time>2025-07-29T09:12:46.000Z</time>
</trkpt>
<trkpt lat="45.8680310" lon="10.2946010">
	<ele>2112.20</ele>
	<time>2025-07-29T09:12:47.000Z</time>
</trkpt>
<trkpt lat="45.8680240" lon="10.2946110">
	<ele>2112.20</ele>
	<time>2025-07-29T09:12:48.000Z</time>
</trkpt>
<trkpt lat="45.8680160" lon="10.2946220">
	<ele>2112.20</ele>
	<time>2025-07-29T09:12:49.000Z</time>
</trkpt>
<trkpt lat="45.8680090" lon="10.2946320">
	<ele>2112.20</ele>
	<time>2025-07-29T09:12:50.000Z</time>
</trkpt>
<trkpt lat="45.8680030" lon="10.2946410">
	<ele>2112.20</ele>
	<time>2025-07-29T09:12:51.000Z</time>
</trkpt>
<trkpt lat="45.8679980" lon="10.2946480">
	<ele>2112.40</ele>
	<time>2025-07-29T09:12:52.000Z</time>
</trkpt>
<trkpt lat="45.8679950" lon="10.2946510">
	<ele>2112.40</ele>
	<time>2025-07-29T09:12:53.000Z</time>
</trkpt>
<trkpt lat="45.8679930" lon="10.2946510">
	<ele>2112.60</ele>
	<time>2025-07-29T09:12:54.000Z</time>
</trkpt>
<trkpt lat="45.8679880" lon="10.2946530">
	<ele>2112.60</ele>
	<time>2025-07-29T09:12:55.000Z</time>
</trkpt>
<trkpt lat="45.8679830" lon="10.2946580">
	<ele>2112.60</ele>
	<time>2025-07-29T09:12:56.000Z</time>
</trkpt>
<trkpt lat="45.8679770" lon="10.2946640">
	<ele>2112.40</ele>
	<time>2025-07-29T09:12:57.000Z</time>
</trkpt>
<trkpt lat="45.8679720" lon="10.2946680">
	<ele>2112.40</ele>
	<time>2025-07-29T09:12:58.000Z</time>
</trkpt>
<trkpt lat="45.8679690" lon="10.2946710">
	<ele>2112.40</ele>
	<time>2025-07-29T09:12:59.000Z</time>
</trkpt>
<trkpt lat="45.8679680" lon="10.2946730">
	<ele>2112.40</ele>
	<time>2025-07-29T09:13:00.000Z</time>
</trkpt>
<trkpt lat="45.8679680" lon="10.2946730">
	<ele>2112.20</ele>
	<time>2025-07-29T09:13:01.000Z</time>
</trkpt>
<trkpt lat="45.8679660" lon="10.2946720">
	<ele>2112.20</ele>
	<time>2025-07-29T09:13:02.000Z</time>
</trkpt>
<trkpt lat="45.8679620" lon="10.2946750">
	<ele>2112.20</ele>
	<time>2025-07-29T09:13:03.000Z</time>
</trkpt>
<trkpt lat="45.8679560" lon="10.2946810">
	<ele>2112.20</ele>
	<time>2025-07-29T09:13:04.000Z</time>
</trkpt>
<trkpt lat="45.8679500" lon="10.2946880">
	<ele>2112.20</ele>
	<time>2025-07-29T09:13:05.000Z</time>
</trkpt>
<trkpt lat="45.8679450" lon="10.2946910">
	<ele>2112.20</ele>
	<time>2025-07-29T09:13:06.000Z</time>
</trkpt>
<trkpt lat="45.8679410" lon="10.2946930">
	<ele>2112.20</ele>
	<time>2025-07-29T09:13:07.000Z</time>
</trkpt>
<trkpt lat="45.8679360" lon="10.2946920">
	<ele>2112.20</ele>
	<time>2025-07-29T09:13:08.000Z</time>
</trkpt>
<trkpt lat="45.8679310" lon="10.2946930">
	<ele>2112.00</ele>
	<time>2025-07-29T09:13:09.000Z</time>
</trkpt>
<trkpt lat="45.8679270" lon="10.2946960">
	<ele>2112.00</ele>
	<time>2025-07-29T09:13:10.000Z</time>
</trkpt>
<trkpt lat="45.8679230" lon="10.2946980">
	<ele>2112.00</ele>
	<time>2025-07-29T09:13:11.000Z</time>
</trkpt>
<trkpt lat="45.8679200" lon="10.2946990">
	<ele>2112.00</ele>
	<time>2025-07-29T09:13:12.000Z</time>
</trkpt>
<trkpt lat="45.8679160" lon="10.2947060">
	<ele>2112.00</ele>
	<time>2025-07-29T09:13:13.000Z</time>
</trkpt>
<trkpt lat="45.8679130" lon="10.2947180">
	<ele>2112.00</ele>
	<time>2025-07-29T09:13:14.000Z</time>
</trkpt>
<trkpt lat="45.8679080" lon="10.2947270">
	<ele>2112.00</ele>
	<time>2025-07-29T09:13:15.000Z</time>
</trkpt>
<trkpt lat="45.8679030" lon="10.2947330">
	<ele>2111.80</ele>
	<time>2025-07-29T09:13:16.000Z</time>
</trkpt>
<trkpt lat="45.8678970" lon="10.2947390">
	<ele>2111.80</ele>
	<time>2025-07-29T09:13:17.000Z</time>
</trkpt>
<trkpt lat="45.8678910" lon="10.2947490">
	<ele>2111.60</ele>
	<time>2025-07-29T09:13:18.000Z</time>
</trkpt>
<trkpt lat="45.8678850" lon="10.2947680">
	<ele>2111.60</ele>
	<time>2025-07-29T09:13:19.000Z</time>
</trkpt>
<trkpt lat="45.8678770" lon="10.2947810">
	<ele>2111.60</ele>
	<time>2025-07-29T09:13:20.000Z</time>
</trkpt>
<trkpt lat="45.8678730" lon="10.2947940">
	<ele>2111.40</ele>
	<time>2025-07-29T09:13:21.000Z</time>
</trkpt>
<trkpt lat="45.8678700" lon="10.2948040">
	<ele>2111.20</ele>
	<time>2025-07-29T09:13:22.000Z</time>
</trkpt>
<trkpt lat="45.8678690" lon="10.2948140">
	<ele>2111.20</ele>
	<time>2025-07-29T09:13:23.000Z</time>
</trkpt>
<trkpt lat="45.8678640" lon="10.2948180">
	<ele>2111.20</ele>
	<time>2025-07-29T09:13:24.000Z</time>
</trkpt>
<trkpt lat="45.8678620" lon="10.2948260">
	<ele>2111.20</ele>
	<time>2025-07-29T09:13:25.000Z</time>
</trkpt>
<trkpt lat="45.8678570" lon="10.2948290">
	<ele>2111.20</ele>
	<time>2025-07-29T09:13:26.000Z</time>
</trkpt>
<trkpt lat="45.8678510" lon="10.2948360">
	<ele>2111.00</ele>
	<time>2025-07-29T09:13:27.000Z</time>
</trkpt>
<trkpt lat="45.8678440" lon="10.2948400">
	<ele>2111.00</ele>
	<time>2025-07-29T09:13:28.000Z</time>
</trkpt>
<trkpt lat="45.8678350" lon="10.2948500">
	<ele>2111.00</ele>
	<time>2025-07-29T09:13:29.000Z</time>
</trkpt>
<trkpt lat="45.8678270" lon="10.2948610">
	<ele>2111.00</ele>
	<time>2025-07-29T09:13:30.000Z</time>
</trkpt>
<trkpt lat="45.8678220" lon="10.2948690">
	<ele>2111.00</ele>
	<time>2025-07-29T09:13:31.000Z</time>
</trkpt>
<trkpt lat="45.8678150" lon="10.2948800">
	<ele>2111.00</ele>
	<time>2025-07-29T09:13:32.000Z</time>
</trkpt>
<trkpt lat="45.8678100" lon="10.2948950">
	<ele>2111.00</ele>
	<time>2025-07-29T09:13:33.000Z</time>
</trkpt>
<trkpt lat="45.8678030" lon="10.2949100">
	<ele>2111.00</ele>
	<time>2025-07-29T09:13:34.000Z</time>
</trkpt>
<trkpt lat="45.8677950" lon="10.2949210">
	<ele>2111.00</ele>
	<time>2025-07-29T09:13:35.000Z</time>
</trkpt>
<trkpt lat="45.8677820" lon="10.2949300">
	<ele>2111.00</ele>
	<time>2025-07-29T09:13:36.000Z</time>
</trkpt>
<trkpt lat="45.8677710" lon="10.2949420">
	<ele>2110.80</ele>
	<time>2025-07-29T09:13:37.000Z</time>
</trkpt>
<trkpt lat="45.8677620" lon="10.2949550">
	<ele>2110.80</ele>
	<time>2025-07-29T09:13:38.000Z</time>
</trkpt>
<trkpt lat="45.8677540" lon="10.2949650">
	<ele>2110.80</ele>
	<time>2025-07-29T09:13:39.000Z</time>
</trkpt>
<trkpt lat="45.8677470" lon="10.2949750">
	<ele>2110.60</ele>
	<time>2025-07-29T09:13:40.000Z</time>
</trkpt>
<trkpt lat="45.8677390" lon="10.2949860">
	<ele>2110.40</ele>
	<time>2025-07-29T09:13:41.000Z</time>
</trkpt>
<trkpt lat="45.8677280" lon="10.2949970">
	<ele>2110.40</ele>
	<time>2025-07-29T09:13:42.000Z</time>
</trkpt>
<trkpt lat="45.8677180" lon="10.2950030">
	<ele>2110.40</ele>
	<time>2025-07-29T09:13:43.000Z</time>
</trkpt>
<trkpt lat="45.8677060" lon="10.2950120">
	<ele>2110.40</ele>
	<time>2025-07-29T09:13:44.000Z</time>
</trkpt>
<trkpt lat="45.8676930" lon="10.2950190">
	<ele>2110.20</ele>
	<time>2025-07-29T09:13:45.000Z</time>
</trkpt>
<trkpt lat="45.8676830" lon="10.2950300">
	<ele>2110.20</ele>
	<time>2025-07-29T09:13:46.000Z</time>
</trkpt>
<trkpt lat="45.8676770" lon="10.2950410">
	<ele>2110.20</ele>
	<time>2025-07-29T09:13:47.000Z</time>
</trkpt>
<trkpt lat="45.8676700" lon="10.2950540">
	<ele>2110.20</ele>
	<time>2025-07-29T09:13:48.000Z</time>
</trkpt>
<trkpt lat="45.8676610" lon="10.2950650">
	<ele>2110.20</ele>
	<time>2025-07-29T09:13:49.000Z</time>
</trkpt>
<trkpt lat="45.8676530" lon="10.2950780">
	<ele>2110.00</ele>
	<time>2025-07-29T09:13:50.000Z</time>
</trkpt>
<trkpt lat="45.8676430" lon="10.2950930">
	<ele>2110.00</ele>
	<time>2025-07-29T09:13:51.000Z</time>
</trkpt>
<trkpt lat="45.8676330" lon="10.2951050">
	<ele>2109.80</ele>
	<time>2025-07-29T09:13:52.000Z</time>
</trkpt>
<trkpt lat="45.8676250" lon="10.2951140">
	<ele>2109.60</ele>
	<time>2025-07-29T09:13:53.000Z</time>
</trkpt>
<trkpt lat="45.8676180" lon="10.2951230">
	<ele>2109.40</ele>
	<time>2025-07-29T09:13:54.000Z</time>
</trkpt>
<trkpt lat="45.8676120" lon="10.2951330">
	<ele>2109.40</ele>
	<time>2025-07-29T09:13:55.000Z</time>
</trkpt>
<trkpt lat="45.8676040" lon="10.2951430">
	<ele>2109.20</ele>
	<time>2025-07-29T09:13:56.000Z</time>
</trkpt>
<trkpt lat="45.8675960" lon="10.2951580">
	<ele>2109.20</ele>
	<time>2025-07-29T09:13:57.000Z</time>
</trkpt>
<trkpt lat="45.8675870" lon="10.2951730">
	<ele>2109.00</ele>
	<time>2025-07-29T09:13:58.000Z</time>
</trkpt>
<trkpt lat="45.8675790" lon="10.2951880">
	<ele>2108.80</ele>
	<time>2025-07-29T09:13:59.000Z</time>
</trkpt>
<trkpt lat="45.8675720" lon="10.2952020">
	<ele>2108.80</ele>
	<time>2025-07-29T09:14:00.000Z</time>
</trkpt>
<trkpt lat="45.8675700" lon="10.2952180">
	<ele>2108.60</ele>
	<time>2025-07-29T09:14:01.000Z</time>
</trkpt>
<trkpt lat="45.8675670" lon="10.2952320">
	<ele>2108.40</ele>
	<time>2025-07-29T09:14:02.000Z</time>
</trkpt>
<trkpt lat="45.8675620" lon="10.2952460">
	<ele>2108.40</ele>
	<time>2025-07-29T09:14:03.000Z</time>
</trkpt>
<trkpt lat="45.8675540" lon="10.2952580">
	<ele>2108.00</ele>
	<time>2025-07-29T09:14:04.000Z</time>
</trkpt>
<trkpt lat="45.8675480" lon="10.2952710">
	<ele>2107.80</ele>
	<time>2025-07-29T09:14:05.000Z</time>
</trkpt>
<trkpt lat="45.8675430" lon="10.2952850">
	<ele>2107.80</ele>
	<time>2025-07-29T09:14:06.000Z</time>
</trkpt>
<trkpt lat="45.8675360" lon="10.2952960">
	<ele>2107.60</ele>
	<time>2025-07-29T09:14:07.000Z</time>
</trkpt>
<trkpt lat="45.8675320" lon="10.2953070">
	<ele>2107.40</ele>
	<time>2025-07-29T09:14:08.000Z</time>
</trkpt>
<trkpt lat="45.8675270" lon="10.2953150">
	<ele>2107.20</ele>
	<time>2025-07-29T09:14:09.000Z</time>
</trkpt>
<trkpt lat="45.8675210" lon="10.2953230">
	<ele>2107.00</ele>
	<time>2025-07-29T09:14:10.000Z</time>
</trkpt>
<trkpt lat="45.8675150" lon="10.2953290">
	<ele>2107.00</ele>
	<time>2025-07-29T09:14:11.000Z</time>
</trkpt>
<trkpt lat="45.8675080" lon="10.2953380">
	<ele>2106.60</ele>
	<time>2025-07-29T09:14:12.000Z</time>
</trkpt>
<trkpt lat="45.8675020" lon="10.2953500">
	<ele>2106.40</ele>
	<time>2025-07-29T09:14:13.000Z</time>
</trkpt>
<trkpt lat="45.8674970" lon="10.2953630">
	<ele>2106.20</ele>
	<time>2025-07-29T09:14:14.000Z</time>
</trkpt>
<trkpt lat="45.8674910" lon="10.2953760">
	<ele>2106.00</ele>
	<time>2025-07-29T09:14:15.000Z</time>
</trkpt>
<trkpt lat="45.8674820" lon="10.2953820">
	<ele>2105.80</ele>
	<time>2025-07-29T09:14:16.000Z</time>
</trkpt>
<trkpt lat="45.8674730" lon="10.2953890">
	<ele>2105.60</ele>
	<time>2025-07-29T09:14:17.000Z</time>
</trkpt>
<trkpt lat="45.8674640" lon="10.2953930">
	<ele>2105.40</ele>
	<time>2025-07-29T09:14:18.000Z</time>
</trkpt>
<trkpt lat="45.8674540" lon="10.2954000">
	<ele>2105.40</ele>
	<time>2025-07-29T09:14:19.000Z</time>
</trkpt>
<trkpt lat="45.8674450" lon="10.2954080">
	<ele>2105.20</ele>
	<time>2025-07-29T09:14:20.000Z</time>
</trkpt>
<trkpt lat="45.8674370" lon="10.2954140">
	<ele>2105.00</ele>
	<time>2025-07-29T09:14:21.000Z</time>
</trkpt>
<trkpt lat="45.8674290" lon="10.2954230">
	<ele>2104.80</ele>
	<time>2025-07-29T09:14:22.000Z</time>
</trkpt>
<trkpt lat="45.8674150" lon="10.2954270">
	<ele>2104.40</ele>
	<time>2025-07-29T09:14:23.000Z</time>
</trkpt>
<trkpt lat="45.8674050" lon="10.2954330">
	<ele>2104.20</ele>
	<time>2025-07-29T09:14:24.000Z</time>
</trkpt>
<trkpt lat="45.8673970" lon="10.2954420">
	<ele>2104.20</ele>
	<time>2025-07-29T09:14:25.000Z</time>
</trkpt>
<trkpt lat="45.8673870" lon="10.2954490">
	<ele>2103.80</ele>
	<time>2025-07-29T09:14:26.000Z</time>
</trkpt>
<trkpt lat="45.8673810" lon="10.2954590">
	<ele>2103.60</ele>
	<time>2025-07-29T09:14:27.000Z</time>
</trkpt>
<trkpt lat="45.8673750" lon="10.2954740">
	<ele>2103.40</ele>
	<time>2025-07-29T09:14:28.000Z</time>
</trkpt>
<trkpt lat="45.8673680" lon="10.2954850">
	<ele>2103.20</ele>
	<time>2025-07-29T09:14:29.000Z</time>
</trkpt>
<trkpt lat="45.8673590" lon="10.2954980">
	<ele>2103.00</ele>
	<time>2025-07-29T09:14:30.000Z</time>
</trkpt>
<trkpt lat="45.8673500" lon="10.2955090">
	<ele>2102.80</ele>
	<time>2025-07-29T09:14:31.000Z</time>
</trkpt>
<trkpt lat="45.8673410" lon="10.2955180">
	<ele>2102.60</ele>
	<time>2025-07-29T09:14:32.000Z</time>
</trkpt>
<trkpt lat="45.8673340" lon="10.2955280">
	<ele>2102.40</ele>
	<time>2025-07-29T09:14:33.000Z</time>
</trkpt>
<trkpt lat="45.8673280" lon="10.2955380">
	<ele>2102.00</ele>
	<time>2025-07-29T09:14:34.000Z</time>
</trkpt>
<trkpt lat="45.8673240" lon="10.2955500">
	<ele>2101.80</ele>
	<time>2025-07-29T09:14:35.000Z</time>
</trkpt>
<trkpt lat="45.8673190" lon="10.2955620">
	<ele>2101.80</ele>
	<time>2025-07-29T09:14:36.000Z</time>
</trkpt>
<trkpt lat="45.8673150" lon="10.2955730">
	<ele>2101.60</ele>
	<time>2025-07-29T09:14:37.000Z</time>
</trkpt>
<trkpt lat="45.8673090" lon="10.2955810">
	<ele>2101.40</ele>
	<time>2025-07-29T09:14:38.000Z</time>
</trkpt>
<trkpt lat="45.8672990" lon="10.2955870">
	<ele>2101.40</ele>
	<time>2025-07-29T09:14:39.000Z</time>
</trkpt>
<trkpt lat="45.8672880" lon="10.2955930">
	<ele>2101.40</ele>
	<time>2025-07-29T09:14:40.000Z</time>
</trkpt>
<trkpt lat="45.8672780" lon="10.2955990">
	<ele>2101.00</ele>
	<time>2025-07-29T09:14:41.000Z</time>
</trkpt>
<trkpt lat="45.8672690" lon="10.2956050">
	<ele>2101.00</ele>
	<time>2025-07-29T09:14:42.000Z</time>
</trkpt>
<trkpt lat="45.8672620" lon="10.2956100">
	<ele>2100.80</ele>
	<time>2025-07-29T09:14:43.000Z</time>
</trkpt>
<trkpt lat="45.8672490" lon="10.2956150">
	<ele>2101.00</ele>
	<time>2025-07-29T09:14:44.000Z</time>
</trkpt>
<trkpt lat="45.8672370" lon="10.2956210">
	<ele>2101.00</ele>
	<time>2025-07-29T09:14:45.000Z</time>
</trkpt>
<trkpt lat="45.8672300" lon="10.2956310">
	<ele>2101.00</ele>
	<time>2025-07-29T09:14:46.000Z</time>
</trkpt>
<trkpt lat="45.8672220" lon="10.2956400">
	<ele>2100.80</ele>
	<time>2025-07-29T09:14:47.000Z</time>
</trkpt>
<trkpt lat="45.8672140" lon="10.2956470">
	<ele>2100.80</ele>
	<time>2025-07-29T09:14:48.000Z</time>
</trkpt>
<trkpt lat="45.8672090" lon="10.2956580">
	<ele>2100.80</ele>
	<time>2025-07-29T09:14:49.000Z</time>
</trkpt>
<trkpt lat="45.8672040" lon="10.2956720">
	<ele>2100.60</ele>
	<time>2025-07-29T09:14:50.000Z</time>
</trkpt>
<trkpt lat="45.8672000" lon="10.2956820">
	<ele>2100.40</ele>
	<time>2025-07-29T09:14:51.000Z</time>
</trkpt>
<trkpt lat="45.8671950" lon="10.2956900">
	<ele>2100.40</ele>
	<time>2025-07-29T09:14:52.000Z</time>
</trkpt>
<trkpt lat="45.8671930" lon="10.2956930">
	<ele>2100.40</ele>
	<time>2025-07-29T09:14:53.000Z</time>
</trkpt>
<trkpt lat="45.8671910" lon="10.2956940">
	<ele>2100.40</ele>
	<time>2025-07-29T09:14:54.000Z</time>
</trkpt>
<trkpt lat="45.8671910" lon="10.2956940">
	<ele>2100.40</ele>
	<time>2025-07-29T09:14:55.000Z</time>
</trkpt>
<trkpt lat="45.8671920" lon="10.2956950">
	<ele>2100.40</ele>
	<time>2025-07-29T09:14:56.000Z</time>
</trkpt>
<trkpt lat="45.8671940" lon="10.2956950">
	<ele>2100.40</ele>
	<time>2025-07-29T09:14:57.000Z</time>
</trkpt>
<trkpt lat="45.8671940" lon="10.2956950">
	<ele>2100.40</ele>
	<time>2025-07-29T09:14:58.000Z</time>
</trkpt>
<trkpt lat="45.8671920" lon="10.2956940">
	<ele>2100.40</ele>
	<time>2025-07-29T09:14:59.000Z</time>
</trkpt>
<trkpt lat="45.8671920" lon="10.2956930">
	<ele>2100.40</ele>
	<time>2025-07-29T09:15:00.000Z</time>
</trkpt>
<trkpt lat="45.8671910" lon="10.2956950">
	<ele>2100.20</ele>
	<time>2025-07-29T09:15:01.000Z</time>
</trkpt>
<trkpt lat="45.8671880" lon="10.2957000">
	<ele>2100.20</ele>
	<time>2025-07-29T09:15:02.000Z</time>
</trkpt>
<trkpt lat="45.8671850" lon="10.2957060">
	<ele>2100.20</ele>
	<time>2025-07-29T09:15:03.000Z</time>
</trkpt>
<trkpt lat="45.8671790" lon="10.2957170">
	<ele>2100.20</ele>
	<time>2025-07-29T09:15:04.000Z</time>
</trkpt>
<trkpt lat="45.8671710" lon="10.2957280">
	<ele>2100.20</ele>
	<time>2025-07-29T09:15:05.000Z</time>
</trkpt>
<trkpt lat="45.8671640" lon="10.2957390">
	<ele>2100.20</ele>
	<time>2025-07-29T09:15:06.000Z</time>
</trkpt>
<trkpt lat="45.8671590" lon="10.2957550">
	<ele>2100.20</ele>
	<time>2025-07-29T09:15:07.000Z</time>
</trkpt>
<trkpt lat="45.8671520" lon="10.2957700">
	<ele>2100.00</ele>
	<time>2025-07-29T09:15:08.000Z</time>
</trkpt>
<trkpt lat="45.8671450" lon="10.2957820">
	<ele>2099.80</ele>
	<time>2025-07-29T09:15:09.000Z</time>
</trkpt>
<trkpt lat="45.8671390" lon="10.2957950">
	<ele>2099.80</ele>
	<time>2025-07-29T09:15:10.000Z</time>
</trkpt>
<trkpt lat="45.8671290" lon="10.2958070">
	<ele>2099.80</ele>
	<time>2025-07-29T09:15:11.000Z</time>
</trkpt>
<trkpt lat="45.8671210" lon="10.2958140">
	<ele>2099.80</ele>
	<time>2025-07-29T09:15:12.000Z</time>
</trkpt>
<trkpt lat="45.8671130" lon="10.2958240">
	<ele>2099.60</ele>
	<time>2025-07-29T09:15:13.000Z</time>
</trkpt>
<trkpt lat="45.8671080" lon="10.2958260">
	<ele>2099.60</ele>
	<time>2025-07-29T09:15:14.000Z</time>
</trkpt>
<trkpt lat="45.8671010" lon="10.2958320">
	<ele>2099.40</ele>
	<time>2025-07-29T09:15:15.000Z</time>
</trkpt>
<trkpt lat="45.8670980" lon="10.2958370">
	<ele>2099.40</ele>
	<time>2025-07-29T09:15:16.000Z</time>
</trkpt>
<trkpt lat="45.8670940" lon="10.2958410">
	<ele>2099.20</ele>
	<time>2025-07-29T09:15:17.000Z</time>
</trkpt>
<trkpt lat="45.8670910" lon="10.2958440">
	<ele>2099.00</ele>
	<time>2025-07-29T09:15:18.000Z</time>
</trkpt>
<trkpt lat="45.8670870" lon="10.2958520">
	<ele>2098.60</ele>
	<time>2025-07-29T09:15:19.000Z</time>
</trkpt>
<trkpt lat="45.8670830" lon="10.2958620">
	<ele>2098.40</ele>
	<time>2025-07-29T09:15:20.000Z</time>
</trkpt>
<trkpt lat="45.8670770" lon="10.2958720">
	<ele>2098.20</ele>
	<time>2025-07-29T09:15:21.000Z</time>
</trkpt>
<trkpt lat="45.8670720" lon="10.2958830">
	<ele>2097.80</ele>
	<time>2025-07-29T09:15:22.000Z</time>
</trkpt>
<trkpt lat="45.8670670" lon="10.2958940">
	<ele>2097.40</ele>
	<time>2025-07-29T09:15:23.000Z</time>
</trkpt>
<trkpt lat="45.8670600" lon="10.2959050">
	<ele>2097.20</ele>
	<time>2025-07-29T09:15:24.000Z</time>
</trkpt>
<trkpt lat="45.8670540" lon="10.2959110">
	<ele>2097.00</ele>
	<time>2025-07-29T09:15:25.000Z</time>
</trkpt>
<trkpt lat="45.8670480" lon="10.2959170">
	<ele>2097.00</ele>
	<time>2025-07-29T09:15:26.000Z</time>
</trkpt>
<trkpt lat="45.8670420" lon="10.2959220">
	<ele>2096.80</ele>
	<time>2025-07-29T09:15:27.000Z</time>
</trkpt>
<trkpt lat="45.8670360" lon="10.2959280">
	<ele>2096.60</ele>
	<time>2025-07-29T09:15:28.000Z</time>
</trkpt>
<trkpt lat="45.8670290" lon="10.2959340">
	<ele>2096.60</ele>
	<time>2025-07-29T09:15:29.000Z</time>
</trkpt>
<trkpt lat="45.8670250" lon="10.2959450">
	<ele>2096.40</ele>
	<time>2025-07-29T09:15:30.000Z</time>
</trkpt>
<trkpt lat="45.8670220" lon="10.2959590">
	<ele>2096.20</ele>
	<time>2025-07-29T09:15:31.000Z</time>
</trkpt>
<trkpt lat="45.8670190" lon="10.2959720">
	<ele>2095.80</ele>
	<time>2025-07-29T09:15:32.000Z</time>
</trkpt>
<trkpt lat="45.8670140" lon="10.2959840">
	<ele>2095.60</ele>
	<time>2025-07-29T09:15:33.000Z</time>
</trkpt>
<trkpt lat="45.8670090" lon="10.2959930">
	<ele>2095.40</ele>
	<time>2025-07-29T09:15:34.000Z</time>
</trkpt>
<trkpt lat="45.8670050" lon="10.2960010">
	<ele>2095.40</ele>
	<time>2025-07-29T09:15:35.000Z</time>
</trkpt>
<trkpt lat="45.8669970" lon="10.2960100">
	<ele>2095.20</ele>
	<time>2025-07-29T09:15:36.000Z</time>
</trkpt>
<trkpt lat="45.8669890" lon="10.2960180">
	<ele>2095.20</ele>
	<time>2025-07-29T09:15:37.000Z</time>
</trkpt>
<trkpt lat="45.8669840" lon="10.2960250">
	<ele>2095.00</ele>
	<time>2025-07-29T09:15:38.000Z</time>
</trkpt>
<trkpt lat="45.8669780" lon="10.2960330">
	<ele>2094.80</ele>
	<time>2025-07-29T09:15:39.000Z</time>
</trkpt>
<trkpt lat="45.8669740" lon="10.2960430">
	<ele>2094.60</ele>
	<time>2025-07-29T09:15:40.000Z</time>
</trkpt>
<trkpt lat="45.8669670" lon="10.2960540">
	<ele>2094.20</ele>
	<time>2025-07-29T09:15:41.000Z</time>
</trkpt>
<trkpt lat="45.8669620" lon="10.2960630">
	<ele>2094.00</ele>
	<time>2025-07-29T09:15:42.000Z</time>
</trkpt>
<trkpt lat="45.8669560" lon="10.2960780">
	<ele>2094.00</ele>
	<time>2025-07-29T09:15:43.000Z</time>
</trkpt>
<trkpt lat="45.8669520" lon="10.2960890">
	<ele>2093.80</ele>
	<time>2025-07-29T09:15:44.000Z</time>
</trkpt>
<trkpt lat="45.8669500" lon="10.2961020">
	<ele>2093.80</ele>
	<time>2025-07-29T09:15:45.000Z</time>
</trkpt>
<trkpt lat="45.8669480" lon="10.2961150">
	<ele>2093.60</ele>
	<time>2025-07-29T09:15:46.000Z</time>
</trkpt>
<trkpt lat="45.8669450" lon="10.2961290">
	<ele>2093.40</ele>
	<time>2025-07-29T09:15:47.000Z</time>
</trkpt>
<trkpt lat="45.8669430" lon="10.2961400">
	<ele>2093.20</ele>
	<time>2025-07-29T09:15:48.000Z</time>
</trkpt>
<trkpt lat="45.8669400" lon="10.2961520">
	<ele>2093.00</ele>
	<time>2025-07-29T09:15:49.000Z</time>
</trkpt>
<trkpt lat="45.8669370" lon="10.2961650">
	<ele>2092.80</ele>
	<time>2025-07-29T09:15:50.000Z</time>
</trkpt>
<trkpt lat="45.8669320" lon="10.2961790">
	<ele>2092.60</ele>
	<time>2025-07-29T09:15:51.000Z</time>
</trkpt>
<trkpt lat="45.8669260" lon="10.2961950">
	<ele>2092.40</ele>
	<time>2025-07-29T09:15:52.000Z</time>
</trkpt>
<trkpt lat="45.8669210" lon="10.2962090">
	<ele>2092.40</ele>
	<time>2025-07-29T09:15:53.000Z</time>
</trkpt>
<trkpt lat="45.8669180" lon="10.2962180">
	<ele>2092.00</ele>
	<time>2025-07-29T09:15:54.000Z</time>
</trkpt>
<trkpt lat="45.8669160" lon="10.2962260">
	<ele>2091.80</ele>
	<time>2025-07-29T09:15:55.000Z</time>
</trkpt>
<trkpt lat="45.8669160" lon="10.2962340">
	<ele>2091.80</ele>
	<time>2025-07-29T09:15:56.000Z</time>
</trkpt>
<trkpt lat="45.8669130" lon="10.2962450">
	<ele>2091.60</ele>
	<time>2025-07-29T09:15:57.000Z</time>
</trkpt>
<trkpt lat="45.8669100" lon="10.2962550">
	<ele>2091.40</ele>
	<time>2025-07-29T09:15:58.000Z</time>
</trkpt>
<trkpt lat="45.8669060" lon="10.2962610">
	<ele>2091.20</ele>
	<time>2025-07-29T09:15:59.000Z</time>
</trkpt>
<trkpt lat="45.8669010" lon="10.2962700">
	<ele>2091.00</ele>
	<time>2025-07-29T09:16:00.000Z</time>
</trkpt>
<trkpt lat="45.8668930" lon="10.2962780">
	<ele>2091.00</ele>
	<time>2025-07-29T09:16:01.000Z</time>
</trkpt>
<trkpt lat="45.8668860" lon="10.2962830">
	<ele>2090.60</ele>
	<time>2025-07-29T09:16:02.000Z</time>
</trkpt>
<trkpt lat="45.8668780" lon="10.2962940">
	<ele>2090.40</ele>
	<time>2025-07-29T09:16:03.000Z</time>
</trkpt>
<trkpt lat="45.8668700" lon="10.2963040">
	<ele>2090.00</ele>
	<time>2025-07-29T09:16:04.000Z</time>
</trkpt>
<trkpt lat="45.8668660" lon="10.2963120">
	<ele>2089.80</ele>
	<time>2025-07-29T09:16:05.000Z</time>
</trkpt>
<trkpt lat="45.8668620" lon="10.2963160">
	<ele>2089.60</ele>
	<time>2025-07-29T09:16:06.000Z</time>
</trkpt>
<trkpt lat="45.8668590" lon="10.2963200">
	<ele>2089.60</ele>
	<time>2025-07-29T09:16:07.000Z</time>
</trkpt>
<trkpt lat="45.8668550" lon="10.2963230">
	<ele>2089.40</ele>
	<time>2025-07-29T09:16:08.000Z</time>
</trkpt>
<trkpt lat="45.8668500" lon="10.2963330">
	<ele>2089.20</ele>
	<time>2025-07-29T09:16:09.000Z</time>
</trkpt>
<trkpt lat="45.8668480" lon="10.2963410">
	<ele>2089.20</ele>
	<time>2025-07-29T09:16:10.000Z</time>
</trkpt>
<trkpt lat="45.8668470" lon="10.2963510">
	<ele>2089.00</ele>
	<time>2025-07-29T09:16:11.000Z</time>
</trkpt>
<trkpt lat="45.8668430" lon="10.2963610">
	<ele>2088.80</ele>
	<time>2025-07-29T09:16:12.000Z</time>
</trkpt>
<trkpt lat="45.8668380" lon="10.2963720">
	<ele>2088.60</ele>
	<time>2025-07-29T09:16:13.000Z</time>
</trkpt>
<trkpt lat="45.8668330" lon="10.2963790">
	<ele>2088.40</ele>
	<time>2025-07-29T09:16:14.000Z</time>
</trkpt>
<trkpt lat="45.8668320" lon="10.2963870">
	<ele>2088.20</ele>
	<time>2025-07-29T09:16:15.000Z</time>
</trkpt>
<trkpt lat="45.8668310" lon="10.2964000">
	<ele>2087.80</ele>
	<time>2025-07-29T09:16:16.000Z</time>
</trkpt>
<trkpt lat="45.8668300" lon="10.2964110">
	<ele>2087.60</ele>
	<time>2025-07-29T09:16:17.000Z</time>
</trkpt>
<trkpt lat="45.8668290" lon="10.2964210">
	<ele>2087.40</ele>
	<time>2025-07-29T09:16:18.000Z</time>
</trkpt>
<trkpt lat="45.8668270" lon="10.2964290">
	<ele>2087.20</ele>
	<time>2025-07-29T09:16:19.000Z</time>
</trkpt>
<trkpt lat="45.8668250" lon="10.2964360">
	<ele>2087.20</ele>
	<time>2025-07-29T09:16:20.000Z</time>
</trkpt>
<trkpt lat="45.8668240" lon="10.2964430">
	<ele>2087.00</ele>
	<time>2025-07-29T09:16:21.000Z</time>
</trkpt>
<trkpt lat="45.8668240" lon="10.2964490">
	<ele>2086.80</ele>
	<time>2025-07-29T09:16:22.000Z</time>
</trkpt>
<trkpt lat="45.8668220" lon="10.2964600">
	<ele>2086.60</ele>
	<time>2025-07-29T09:16:23.000Z</time>
</trkpt>
<trkpt lat="45.8668200" lon="10.2964670">
	<ele>2086.40</ele>
	<time>2025-07-29T09:16:24.000Z</time>
</trkpt>
<trkpt lat="45.8668180" lon="10.2964700">
	<ele>2086.20</ele>
	<time>2025-07-29T09:16:25.000Z</time>
</trkpt>
<trkpt lat="45.8668180" lon="10.2964660">
	<ele>2086.00</ele>
	<time>2025-07-29T09:16:26.000Z</time>
</trkpt>
<trkpt lat="45.8668190" lon="10.2964680">
	<ele>2086.00</ele>
	<time>2025-07-29T09:16:27.000Z</time>
</trkpt>
<trkpt lat="45.8668180" lon="10.2964770">
	<ele>2085.80</ele>
	<time>2025-07-29T09:16:28.000Z</time>
</trkpt>
<trkpt lat="45.8668180" lon="10.2964870">
	<ele>2085.60</ele>
	<time>2025-07-29T09:16:29.000Z</time>
</trkpt>
<trkpt lat="45.8668160" lon="10.2964960">
	<ele>2085.60</ele>
	<time>2025-07-29T09:16:30.000Z</time>
</trkpt>
<trkpt lat="45.8668150" lon="10.2965020">
	<ele>2085.60</ele>
	<time>2025-07-29T09:16:31.000Z</time>
</trkpt>
<trkpt lat="45.8668160" lon="10.2965020">
	<ele>2085.60</ele>
	<time>2025-07-29T09:16:32.000Z</time>
</trkpt>
<trkpt lat="45.8668170" lon="10.2965000">
	<ele>2085.60</ele>
	<time>2025-07-29T09:16:33.000Z</time>
</trkpt>
<trkpt lat="45.8668160" lon="10.2965060">
	<ele>2085.60</ele>
	<time>2025-07-29T09:16:34.000Z</time>
</trkpt>
<trkpt lat="45.8668160" lon="10.2965110">
	<ele>2085.60</ele>
	<time>2025-07-29T09:16:35.000Z</time>
</trkpt>
<trkpt lat="45.8668160" lon="10.2965170">
	<ele>2085.40</ele>
	<time>2025-07-29T09:16:36.000Z</time>
</trkpt>
<trkpt lat="45.8668120" lon="10.2965230">
	<ele>2085.20</ele>
	<time>2025-07-29T09:16:37.000Z</time>
</trkpt>
<trkpt lat="45.8668030" lon="10.2965260">
	<ele>2085.00</ele>
	<time>2025-07-29T09:16:38.000Z</time>
</trkpt>
<trkpt lat="45.8667940" lon="10.2965270">
	<ele>2084.80</ele>
	<time>2025-07-29T09:16:39.000Z</time>
</trkpt>
<trkpt lat="45.8667830" lon="10.2965260">
	<ele>2084.60</ele>
	<time>2025-07-29T09:16:40.000Z</time>
</trkpt>
<trkpt lat="45.8667730" lon="10.2965220">
	<ele>2084.60</ele>
	<time>2025-07-29T09:16:41.000Z</time>
</trkpt>
<trkpt lat="45.8667640" lon="10.2965240">
	<ele>2084.40</ele>
	<time>2025-07-29T09:16:42.000Z</time>
</trkpt>
<trkpt lat="45.8667550" lon="10.2965270">
	<ele>2084.20</ele>
	<time>2025-07-29T09:16:43.000Z</time>
</trkpt>
<trkpt lat="45.8667450" lon="10.2965320">
	<ele>2084.00</ele>
	<time>2025-07-29T09:16:44.000Z</time>
</trkpt>
<trkpt lat="45.8667370" lon="10.2965400">
	<ele>2083.60</ele>
	<time>2025-07-29T09:16:45.000Z</time>
</trkpt>
<trkpt lat="45.8667350" lon="10.2965470">
	<ele>2083.40</ele>
	<time>2025-07-29T09:16:46.000Z</time>
</trkpt>
<trkpt lat="45.8667350" lon="10.2965560">
	<ele>2083.20</ele>
	<time>2025-07-29T09:16:47.000Z</time>
</trkpt>
<trkpt lat="45.8667320" lon="10.2965630">
	<ele>2083.00</ele>
	<time>2025-07-29T09:16:48.000Z</time>
</trkpt>
<trkpt lat="45.8667230" lon="10.2965670">
	<ele>2082.80</ele>
	<time>2025-07-29T09:16:49.000Z</time>
</trkpt>
<trkpt lat="45.8667150" lon="10.2965670">
	<ele>2082.60</ele>
	<time>2025-07-29T09:16:50.000Z</time>
</trkpt>
<trkpt lat="45.8667080" lon="10.2965720">
	<ele>2082.40</ele>
	<time>2025-07-29T09:16:51.000Z</time>
</trkpt>
<trkpt lat="45.8667030" lon="10.2965770">
	<ele>2082.00</ele>
	<time>2025-07-29T09:16:52.000Z</time>
</trkpt>
<trkpt lat="45.8666980" lon="10.2965780">
	<ele>2081.60</ele>
	<time>2025-07-29T09:16:53.000Z</time>
</trkpt>
<trkpt lat="45.8666940" lon="10.2965830">
	<ele>2081.20</ele>
	<time>2025-07-29T09:16:54.000Z</time>
</trkpt>
<trkpt lat="45.8666880" lon="10.2965890">
	<ele>2081.00</ele>
	<time>2025-07-29T09:16:55.000Z</time>
</trkpt>
<trkpt lat="45.8666780" lon="10.2965950">
	<ele>2080.80</ele>
	<time>2025-07-29T09:16:56.000Z</time>
</trkpt>
<trkpt lat="45.8666710" lon="10.2966060">
	<ele>2080.60</ele>
	<time>2025-07-29T09:16:57.000Z</time>
</trkpt>
<trkpt lat="45.8666670" lon="10.2966160">
	<ele>2080.20</ele>
	<time>2025-07-29T09:16:58.000Z</time>
</trkpt>
<trkpt lat="45.8666640" lon="10.2966240">
	<ele>2079.80</ele>
	<time>2025-07-29T09:16:59.000Z</time>
</trkpt>
<trkpt lat="45.8666590" lon="10.2966290">
	<ele>2079.60</ele>
	<time>2025-07-29T09:17:00.000Z</time>
</trkpt>
<trkpt lat="45.8666540" lon="10.2966360">
	<ele>2079.40</ele>
	<time>2025-07-29T09:17:01.000Z</time>
</trkpt>
<trkpt lat="45.8666480" lon="10.2966450">
	<ele>2079.40</ele>
	<time>2025-07-29T09:17:02.000Z</time>
</trkpt>
<trkpt lat="45.8666430" lon="10.2966570">
	<ele>2079.00</ele>
	<time>2025-07-29T09:17:03.000Z</time>
</trkpt>
<trkpt lat="45.8666370" lon="10.2966720">
	<ele>2078.60</ele>
	<time>2025-07-29T09:17:04.000Z</time>
</trkpt>
<trkpt lat="45.8666310" lon="10.2966840">
	<ele>2078.40</ele>
	<time>2025-07-29T09:17:05.000Z</time>
</trkpt>
<trkpt lat="45.8666260" lon="10.2966930">
	<ele>2078.20</ele>
	<time>2025-07-29T09:17:06.000Z</time>
</trkpt>
<trkpt lat="45.8666210" lon="10.2967030">
	<ele>2078.00</ele>
	<time>2025-07-29T09:17:07.000Z</time>
</trkpt>
<trkpt lat="45.8666150" lon="10.2967080">
	<ele>2078.00</ele>
	<time>2025-07-29T09:17:08.000Z</time>
</trkpt>
<trkpt lat="45.8666060" lon="10.2967110">
	<ele>2077.80</ele>
	<time>2025-07-29T09:17:09.000Z</time>
</trkpt>
<trkpt lat="45.8665960" lon="10.2967120">
	<ele>2077.60</ele>
	<time>2025-07-29T09:17:10.000Z</time>
</trkpt>
<trkpt lat="45.8665870" lon="10.2967200">
	<ele>2077.20</ele>
	<time>2025-07-29T09:17:11.000Z</time>
</trkpt>
<trkpt lat="45.8665780" lon="10.2967270">
	<ele>2077.00</ele>
	<time>2025-07-29T09:17:12.000Z</time>
</trkpt>
<trkpt lat="45.8665680" lon="10.2967360">
	<ele>2076.60</ele>
	<time>2025-07-29T09:17:13.000Z</time>
</trkpt>
<trkpt lat="45.8665590" lon="10.2967420">
	<ele>2076.40</ele>
	<time>2025-07-29T09:17:14.000Z</time>
</trkpt>
<trkpt lat="45.8665520" lon="10.2967470">
	<ele>2076.00</ele>
	<time>2025-07-29T09:17:15.000Z</time>
</trkpt>
<trkpt lat="45.8665450" lon="10.2967590">
	<ele>2075.80</ele>
	<time>2025-07-29T09:17:16.000Z</time>
</trkpt>
<trkpt lat="45.8665400" lon="10.2967710">
	<ele>2075.80</ele>
	<time>2025-07-29T09:17:17.000Z</time>
</trkpt>
<trkpt lat="45.8665320" lon="10.2967750">
	<ele>2075.60</ele>
	<time>2025-07-29T09:17:18.000Z</time>
</trkpt>
<trkpt lat="45.8665220" lon="10.2967790">
	<ele>2075.20</ele>
	<time>2025-07-29T09:17:19.000Z</time>
</trkpt>
<trkpt lat="45.8665120" lon="10.2967890">
	<ele>2075.00</ele>
	<time>2025-07-29T09:17:20.000Z</time>
</trkpt>
<trkpt lat="45.8665020" lon="10.2967960">
	<ele>2074.80</ele>
	<time>2025-07-29T09:17:21.000Z</time>
</trkpt>
<trkpt lat="45.8664950" lon="10.2968000">
	<ele>2074.60</ele>
	<time>2025-07-29T09:17:22.000Z</time>
</trkpt>
<trkpt lat="45.8664850" lon="10.2968090">
	<ele>2074.40</ele>
	<time>2025-07-29T09:17:23.000Z</time>
</trkpt>
<trkpt lat="45.8664820" lon="10.2968180">
	<ele>2074.20</ele>
	<time>2025-07-29T09:17:24.000Z</time>
</trkpt>
<trkpt lat="45.8664770" lon="10.2968280">
	<ele>2074.00</ele>
	<time>2025-07-29T09:17:25.000Z</time>
</trkpt>
<trkpt lat="45.8664710" lon="10.2968340">
	<ele>2073.80</ele>
	<time>2025-07-29T09:17:26.000Z</time>
</trkpt>
<trkpt lat="45.8664640" lon="10.2968410">
	<ele>2073.80</ele>
	<time>2025-07-29T09:17:27.000Z</time>
</trkpt>
<trkpt lat="45.8664540" lon="10.2968480">
	<ele>2073.40</ele>
	<time>2025-07-29T09:17:28.000Z</time>
</trkpt>
<trkpt lat="45.8664480" lon="10.2968540">
	<ele>2073.00</ele>
	<time>2025-07-29T09:17:29.000Z</time>
</trkpt>
<trkpt lat="45.8664420" lon="10.2968600">
	<ele>2072.80</ele>
	<time>2025-07-29T09:17:30.000Z</time>
</trkpt>
<trkpt lat="45.8664340" lon="10.2968580">
	<ele>2072.80</ele>
	<time>2025-07-29T09:17:31.000Z</time>
</trkpt>
<trkpt lat="45.8664270" lon="10.2968550">
	<ele>2072.60</ele>
	<time>2025-07-29T09:17:32.000Z</time>
</trkpt>
<trkpt lat="45.8664210" lon="10.2968520">
	<ele>2072.40</ele>
	<time>2025-07-29T09:17:33.000Z</time>
</trkpt>
<trkpt lat="45.8664190" lon="10.2968560">
	<ele>2072.40</ele>
	<time>2025-07-29T09:17:34.000Z</time>
</trkpt>
<trkpt lat="45.8664180" lon="10.2968610">
	<ele>2072.00</ele>
	<time>2025-07-29T09:17:35.000Z</time>
</trkpt>
<trkpt lat="45.8664160" lon="10.2968680">
	<ele>2071.80</ele>
	<time>2025-07-29T09:17:36.000Z</time>
</trkpt>
<trkpt lat="45.8664140" lon="10.2968740">
	<ele>2071.60</ele>
	<time>2025-07-29T09:17:37.000Z</time>
</trkpt>
<trkpt lat="45.8664130" lon="10.2968760">
	<ele>2071.40</ele>
	<time>2025-07-29T09:17:38.000Z</time>
</trkpt>
<trkpt lat="45.8664110" lon="10.2968780">
	<ele>2071.40</ele>
	<time>2025-07-29T09:17:39.000Z</time>
</trkpt>
<trkpt lat="45.8664110" lon="10.2968770">
	<ele>2071.20</ele>
	<time>2025-07-29T09:17:40.000Z</time>
</trkpt>
<trkpt lat="45.8664110" lon="10.2968750">
	<ele>2071.20</ele>
	<time>2025-07-29T09:17:41.000Z</time>
</trkpt>
<trkpt lat="45.8664120" lon="10.2968760">
	<ele>2071.20</ele>
	<time>2025-07-29T09:17:42.000Z</time>
</trkpt>
<trkpt lat="45.8664120" lon="10.2968770">
	<ele>2071.20</ele>
	<time>2025-07-29T09:17:43.000Z</time>
</trkpt>
<trkpt lat="45.8664140" lon="10.2968770">
	<ele>2071.20</ele>
	<time>2025-07-29T09:17:44.000Z</time>
</trkpt>
<trkpt lat="45.8664140" lon="10.2968750">
	<ele>2071.20</ele>
	<time>2025-07-29T09:17:45.000Z</time>
</trkpt>
<trkpt lat="45.8664110" lon="10.2968730">
	<ele>2071.20</ele>
	<time>2025-07-29T09:17:46.000Z</time>
</trkpt>
<trkpt lat="45.8664070" lon="10.2968780">
	<ele>2071.20</ele>
	<time>2025-07-29T09:17:47.000Z</time>
</trkpt>
<trkpt lat="45.8664030" lon="10.2968810">
	<ele>2071.00</ele>
	<time>2025-07-29T09:17:48.000Z</time>
</trkpt>
<trkpt lat="45.8664000" lon="10.2968850">
	<ele>2071.00</ele>
	<time>2025-07-29T09:17:49.000Z</time>
</trkpt>
<trkpt lat="45.8663970" lon="10.2968890">
	<ele>2070.60</ele>
	<time>2025-07-29T09:17:50.000Z</time>
</trkpt>
<trkpt lat="45.8663920" lon="10.2968930">
	<ele>2070.40</ele>
	<time>2025-07-29T09:17:51.000Z</time>
</trkpt>
<trkpt lat="45.8663880" lon="10.2968960">
	<ele>2070.20</ele>
	<time>2025-07-29T09:17:52.000Z</time>
</trkpt>
<trkpt lat="45.8663860" lon="10.2968940">
	<ele>2070.00</ele>
	<time>2025-07-29T09:17:53.000Z</time>
</trkpt>
<trkpt lat="45.8663850" lon="10.2968920">
	<ele>2070.00</ele>
	<time>2025-07-29T09:17:54.000Z</time>
</trkpt>
<trkpt lat="45.8663850" lon="10.2968910">
	<ele>2069.80</ele>
	<time>2025-07-29T09:17:55.000Z</time>
</trkpt>
<trkpt lat="45.8663840" lon="10.2968880">
	<ele>2069.80</ele>
	<time>2025-07-29T09:17:56.000Z</time>
</trkpt>
<trkpt lat="45.8663840" lon="10.2968870">
	<ele>2069.80</ele>
	<time>2025-07-29T09:17:57.000Z</time>
</trkpt>
<trkpt lat="45.8663840" lon="10.2968870">
	<ele>2069.80</ele>
	<time>2025-07-29T09:17:58.000Z</time>
</trkpt>
<trkpt lat="45.8663840" lon="10.2968870">
	<ele>2069.60</ele>
	<time>2025-07-29T09:17:59.000Z</time>
</trkpt>
<trkpt lat="45.8663840" lon="10.2968870">
	<ele>2069.60</ele>
	<time>2025-07-29T09:18:00.000Z</time>
</trkpt>
<trkpt lat="45.8663840" lon="10.2968870">
	<ele>2069.60</ele>
	<time>2025-07-29T09:18:01.000Z</time>
</trkpt>
<trkpt lat="45.8663840" lon="10.2968870">
	<ele>2069.60</ele>
	<time>2025-07-29T09:18:02.000Z</time>
</trkpt>
<trkpt lat="45.8663840" lon="10.2968870">
	<ele>2069.60</ele>
	<time>2025-07-29T09:18:03.000Z</time>
</trkpt>
<trkpt lat="45.8663840" lon="10.2968870">
	<ele>2069.40</ele>
	<time>2025-07-29T09:18:04.000Z</time>
</trkpt>
<trkpt lat="45.8663790" lon="10.2968890">
	<ele>2069.20</ele>
	<time>2025-07-29T09:18:05.000Z</time>
</trkpt>
<trkpt lat="45.8663630" lon="10.2969030">
	<ele>2069.20</ele>
	<time>2025-07-29T09:18:06.000Z</time>
</trkpt>
<trkpt lat="45.8663470" lon="10.2969160">
	<ele>2069.00</ele>
	<time>2025-07-29T09:18:07.000Z</time>
</trkpt>
<trkpt lat="45.8663340" lon="10.2969280">
	<ele>2069.00</ele>
	<time>2025-07-29T09:18:08.000Z</time>
</trkpt>
<trkpt lat="45.8663170" lon="10.2969370">
	<ele>2068.80</ele>
	<time>2025-07-29T09:18:09.000Z</time>
</trkpt>
<trkpt lat="45.8663010" lon="10.2969500">
	<ele>2068.60</ele>
	<time>2025-07-29T09:18:10.000Z</time>
</trkpt>
<trkpt lat="45.8662880" lon="10.2969650">
	<ele>2068.40</ele>
	<time>2025-07-29T09:18:11.000Z</time>
</trkpt>
<trkpt lat="45.8662770" lon="10.2969790">
	<ele>2068.20</ele>
	<time>2025-07-29T09:18:12.000Z</time>
</trkpt>
<trkpt lat="45.8662670" lon="10.2969880">
	<ele>2068.00</ele>
	<time>2025-07-29T09:18:13.000Z</time>
</trkpt>
<trkpt lat="45.8662560" lon="10.2969980">
	<ele>2067.80</ele>
	<time>2025-07-29T09:18:14.000Z</time>
</trkpt>
<trkpt lat="45.8662500" lon="10.2970090">
	<ele>2067.40</ele>
	<time>2025-07-29T09:18:15.000Z</time>
</trkpt>
<trkpt lat="45.8662460" lon="10.2970190">
	<ele>2067.40</ele>
	<time>2025-07-29T09:18:16.000Z</time>
</trkpt>
<trkpt lat="45.8662410" lon="10.2970270">
	<ele>2067.20</ele>
	<time>2025-07-29T09:18:17.000Z</time>
</trkpt>
<trkpt lat="45.8662310" lon="10.2970380">
	<ele>2067.00</ele>
	<time>2025-07-29T09:18:18.000Z</time>
</trkpt>
<trkpt lat="45.8662190" lon="10.2970410">
	<ele>2066.80</ele>
	<time>2025-07-29T09:18:19.000Z</time>
</trkpt>
<trkpt lat="45.8662110" lon="10.2970460">
	<ele>2066.80</ele>
	<time>2025-07-29T09:18:20.000Z</time>
</trkpt>
<trkpt lat="45.8662040" lon="10.2970530">
	<ele>2066.80</ele>
	<time>2025-07-29T09:18:21.000Z</time>
</trkpt>
<trkpt lat="45.8662000" lon="10.2970630">
	<ele>2066.60</ele>
	<time>2025-07-29T09:18:22.000Z</time>
</trkpt>
<trkpt lat="45.8662000" lon="10.2970700">
	<ele>2066.20</ele>
	<time>2025-07-29T09:18:23.000Z</time>
</trkpt>
<trkpt lat="45.8662010" lon="10.2970770">
	<ele>2065.80</ele>
	<time>2025-07-29T09:18:24.000Z</time>
</trkpt>
<trkpt lat="45.8662010" lon="10.2970820">
	<ele>2065.80</ele>
	<time>2025-07-29T09:18:25.000Z</time>
</trkpt>
<trkpt lat="45.8662000" lon="10.2970840">
	<ele>2065.40</ele>
	<time>2025-07-29T09:18:26.000Z</time>
</trkpt>
<trkpt lat="45.8662000" lon="10.2970850">
	<ele>2065.20</ele>
	<time>2025-07-29T09:18:27.000Z</time>
</trkpt>
<trkpt lat="45.8661990" lon="10.2970860">
	<ele>2065.00</ele>
	<time>2025-07-29T09:18:28.000Z</time>
</trkpt>
<trkpt lat="45.8661990" lon="10.2970850">
	<ele>2065.00</ele>
	<time>2025-07-29T09:18:29.000Z</time>
</trkpt>
<trkpt lat="45.8661990" lon="10.2970850">
	<ele>2065.00</ele>
	<time>2025-07-29T09:18:30.000Z</time>
</trkpt>
<trkpt lat="45.8662010" lon="10.2970850">
	<ele>2065.00</ele>
	<time>2025-07-29T09:18:31.000Z</time>
</trkpt>
<trkpt lat="45.8662010" lon="10.2970840">
	<ele>2065.00</ele>
	<time>2025-07-29T09:18:32.000Z</time>
</trkpt>
<trkpt lat="45.8662020" lon="10.2970830">
	<ele>2065.20</ele>
	<time>2025-07-29T09:18:33.000Z</time>
</trkpt>
<trkpt lat="45.8662020" lon="10.2970830">
	<ele>2065.40</ele>
	<time>2025-07-29T09:18:34.000Z</time>
</trkpt>
<trkpt lat="45.8662020" lon="10.2970830">
	<ele>2065.40</ele>
	<time>2025-07-29T09:18:35.000Z</time>
</trkpt>
<trkpt lat="45.8662020" lon="10.2970830">
	<ele>2065.40</ele>
	<time>2025-07-29T09:18:36.000Z</time>
</trkpt>
<trkpt lat="45.8662020" lon="10.2970830">
	<ele>2065.40</ele>
	<time>2025-07-29T09:18:37.000Z</time>
</trkpt>
<trkpt lat="45.8662020" lon="10.2970830">
	<ele>2065.40</ele>
	<time>2025-07-29T09:18:38.000Z</time>
</trkpt>
<trkpt lat="45.8662020" lon="10.2970830">
	<ele>2065.40</ele>
	<time>2025-07-29T09:18:39.000Z</time>
</trkpt>
<trkpt lat="45.8662020" lon="10.2970830">
	<ele>2065.40</ele>
	<time>2025-07-29T09:18:40.000Z</time>
</trkpt>
<trkpt lat="45.8662020" lon="10.2970830">
	<ele>2065.40</ele>
	<time>2025-07-29T09:18:41.000Z</time>
</trkpt>
<trkpt lat="45.8662020" lon="10.2970830">
	<ele>2065.40</ele>
	<time>2025-07-29T09:18:42.000Z</time>
</trkpt>
<trkpt lat="45.8662020" lon="10.2970830">
	<ele>2065.40</ele>
	<time>2025-07-29T09:18:43.000Z</time>
</trkpt>
<trkpt lat="45.8662020" lon="10.2970830">
	<ele>2065.40</ele>
	<time>2025-07-29T09:18:44.000Z</time>
</trkpt>
<trkpt lat="45.8662020" lon="10.2970830">
	<ele>2065.40</ele>
	<time>2025-07-29T09:18:45.000Z</time>
</trkpt>
<trkpt lat="45.8662020" lon="10.2970830">
	<ele>2065.20</ele>
	<time>2025-07-29T09:18:46.000Z</time>
</trkpt>
<trkpt lat="45.8662010" lon="10.2970830">
	<ele>2065.20</ele>
	<time>2025-07-29T09:18:47.000Z</time>
</trkpt>
<trkpt lat="45.8662010" lon="10.2970830">
	<ele>2065.00</ele>
	<time>2025-07-29T09:18:48.000Z</time>
</trkpt>
<trkpt lat="45.8661990" lon="10.2970880">
	<ele>2064.80</ele>
	<time>2025-07-29T09:18:49.000Z</time>
</trkpt>
<trkpt lat="45.8661920" lon="10.2971050">
	<ele>2064.60</ele>
	<time>2025-07-29T09:18:50.000Z</time>
</trkpt>
<trkpt lat="45.8661850" lon="10.2971230">
	<ele>2064.60</ele>
	<time>2025-07-29T09:18:51.000Z</time>
</trkpt>
<trkpt lat="45.8661800" lon="10.2971400">
	<ele>2064.40</ele>
	<time>2025-07-29T09:18:52.000Z</time>
</trkpt>
<trkpt lat="45.8661750" lon="10.2971550">
	<ele>2064.20</ele>
	<time>2025-07-29T09:18:53.000Z</time>
</trkpt>
<trkpt lat="45.8661670" lon="10.2971690">
	<ele>2064.00</ele>
	<time>2025-07-29T09:18:54.000Z</time>
</trkpt>
<trkpt lat="45.8661560" lon="10.2971820">
	<ele>2063.60</ele>
	<time>2025-07-29T09:18:55.000Z</time>
</trkpt>
<trkpt lat="45.8661450" lon="10.2971980">
	<ele>2063.60</ele>
	<time>2025-07-29T09:18:56.000Z</time>
</trkpt>
<trkpt lat="45.8661380" lon="10.2972170">
	<ele>2063.40</ele>
	<time>2025-07-29T09:18:57.000Z</time>
</trkpt>
<trkpt lat="45.8661330" lon="10.2972370">
	<ele>2063.20</ele>
	<time>2025-07-29T09:18:58.000Z</time>
</trkpt>
<trkpt lat="45.8661300" lon="10.2972520">
	<ele>2062.80</ele>
	<time>2025-07-29T09:18:59.000Z</time>
</trkpt>
<trkpt lat="45.8661240" lon="10.2972630">
	<ele>2062.60</ele>
	<time>2025-07-29T09:19:00.000Z</time>
</trkpt>
<trkpt lat="45.8661150" lon="10.2972700">
	<ele>2062.40</ele>
	<time>2025-07-29T09:19:01.000Z</time>
</trkpt>
<trkpt lat="45.8661070" lon="10.2972790">
	<ele>2062.00</ele>
	<time>2025-07-29T09:19:02.000Z</time>
</trkpt>
<trkpt lat="45.8660980" lon="10.2972880">
	<ele>2061.80</ele>
	<time>2025-07-29T09:19:03.000Z</time>
</trkpt>
<trkpt lat="45.8660920" lon="10.2972970">
	<ele>2061.60</ele>
	<time>2025-07-29T09:19:04.000Z</time>
</trkpt>
<trkpt lat="45.8660880" lon="10.2973090">
	<ele>2061.40</ele>
	<time>2025-07-29T09:19:05.000Z</time>
</trkpt>
<trkpt lat="45.8660870" lon="10.2973220">
	<ele>2061.20</ele>
	<time>2025-07-29T09:19:06.000Z</time>
</trkpt>
<trkpt lat="45.8660810" lon="10.2973290">
	<ele>2061.00</ele>
	<time>2025-07-29T09:19:07.000Z</time>
</trkpt>
<trkpt lat="45.8660750" lon="10.2973340">
	<ele>2060.80</ele>
	<time>2025-07-29T09:19:08.000Z</time>
</trkpt>
<trkpt lat="45.8660660" lon="10.2973350">
	<ele>2060.60</ele>
	<time>2025-07-29T09:19:09.000Z</time>
</trkpt>
<trkpt lat="45.8660560" lon="10.2973380">
	<ele>2060.20</ele>
	<time>2025-07-29T09:19:10.000Z</time>
</trkpt>
<trkpt lat="45.8660440" lon="10.2973390">
	<ele>2060.20</ele>
	<time>2025-07-29T09:19:11.000Z</time>
</trkpt>
<trkpt lat="45.8660340" lon="10.2973450">
	<ele>2060.00</ele>
	<time>2025-07-29T09:19:12.000Z</time>
</trkpt>
<trkpt lat="45.8660290" lon="10.2973550">
	<ele>2059.80</ele>
	<time>2025-07-29T09:19:13.000Z</time>
</trkpt>
<trkpt lat="45.8660260" lon="10.2973640">
	<ele>2059.80</ele>
	<time>2025-07-29T09:19:14.000Z</time>
</trkpt>
<trkpt lat="45.8660180" lon="10.2973730">
	<ele>2059.60</ele>
	<time>2025-07-29T09:19:15.000Z</time>
</trkpt>
<trkpt lat="45.8660090" lon="10.2973810">
	<ele>2059.60</ele>
	<time>2025-07-29T09:19:16.000Z</time>
</trkpt>
<trkpt lat="45.8659990" lon="10.2973910">
	<ele>2059.40</ele>
	<time>2025-07-29T09:19:17.000Z</time>
</trkpt>
<trkpt lat="45.8659940" lon="10.2974030">
	<ele>2059.40</ele>
	<time>2025-07-29T09:19:18.000Z</time>
</trkpt>
<trkpt lat="45.8659900" lon="10.2974120">
	<ele>2059.20</ele>
	<time>2025-07-29T09:19:19.000Z</time>
</trkpt>
<trkpt lat="45.8659890" lon="10.2974220">
	<ele>2059.00</ele>
	<time>2025-07-29T09:19:20.000Z</time>
</trkpt>
<trkpt lat="45.8659860" lon="10.2974330">
	<ele>2058.80</ele>
	<time>2025-07-29T09:19:21.000Z</time>
</trkpt>
<trkpt lat="45.8659810" lon="10.2974410">
	<ele>2058.40</ele>
	<time>2025-07-29T09:19:22.000Z</time>
</trkpt>
<trkpt lat="45.8659760" lon="10.2974480">
	<ele>2058.20</ele>
	<time>2025-07-29T09:19:23.000Z</time>
</trkpt>
<trkpt lat="45.8659720" lon="10.2974580">
	<ele>2058.20</ele>
	<time>2025-07-29T09:19:24.000Z</time>
</trkpt>
<trkpt lat="45.8659670" lon="10.2974690">
	<ele>2057.80</ele>
	<time>2025-07-29T09:19:25.000Z</time>
</trkpt>
<trkpt lat="45.8659630" lon="10.2974740">
	<ele>2057.60</ele>
	<time>2025-07-29T09:19:26.000Z</time>
</trkpt>
<trkpt lat="45.8659590" lon="10.2974800">
	<ele>2057.40</ele>
	<time>2025-07-29T09:19:27.000Z</time>
</trkpt>
<trkpt lat="45.8659530" lon="10.2974850">
	<ele>2057.20</ele>
	<time>2025-07-29T09:19:28.000Z</time>
</trkpt>
<trkpt lat="45.8659470" lon="10.2974890">
	<ele>2057.00</ele>
	<time>2025-07-29T09:19:29.000Z</time>
</trkpt>
<trkpt lat="45.8659420" lon="10.2974910">
	<ele>2056.80</ele>
	<time>2025-07-29T09:19:30.000Z</time>
</trkpt>
<trkpt lat="45.8659360" lon="10.2974930">
	<ele>2056.60</ele>
	<time>2025-07-29T09:19:31.000Z</time>
</trkpt>
<trkpt lat="45.8659330" lon="10.2974980">
	<ele>2056.40</ele>
	<time>2025-07-29T09:19:32.000Z</time>
</trkpt>
<trkpt lat="45.8659280" lon="10.2975020">
	<ele>2056.20</ele>
	<time>2025-07-29T09:19:33.000Z</time>
</trkpt>
<trkpt lat="45.8659210" lon="10.2975030">
	<ele>2056.00</ele>
	<time>2025-07-29T09:19:34.000Z</time>
</trkpt>
<trkpt lat="45.8659140" lon="10.2975040">
	<ele>2055.60</ele>
	<time>2025-07-29T09:19:35.000Z</time>
</trkpt>
<trkpt lat="45.8659060" lon="10.2975110">
	<ele>2055.40</ele>
	<time>2025-07-29T09:19:36.000Z</time>
</trkpt>
<trkpt lat="45.8659010" lon="10.2975230">
	<ele>2055.20</ele>
	<time>2025-07-29T09:19:37.000Z</time>
</trkpt>
<trkpt lat="45.8658970" lon="10.2975360">
	<ele>2055.00</ele>
	<time>2025-07-29T09:19:38.000Z</time>
</trkpt>
<trkpt lat="45.8658930" lon="10.2975470">
	<ele>2054.80</ele>
	<time>2025-07-29T09:19:39.000Z</time>
</trkpt>
<trkpt lat="45.8658880" lon="10.2975610">
	<ele>2054.40</ele>
	<time>2025-07-29T09:19:40.000Z</time>
</trkpt>
<trkpt lat="45.8658830" lon="10.2975740">
	<ele>2054.20</ele>
	<time>2025-07-29T09:19:41.000Z</time>
</trkpt>
<trkpt lat="45.8658770" lon="10.2975850">
	<ele>2054.00</ele>
	<time>2025-07-29T09:19:42.000Z</time>
</trkpt>
<trkpt lat="45.8658740" lon="10.2975960">
	<ele>2054.00</ele>
	<time>2025-07-29T09:19:43.000Z</time>
</trkpt>
<trkpt lat="45.8658720" lon="10.2976070">
	<ele>2053.60</ele>
	<time>2025-07-29T09:19:44.000Z</time>
</trkpt>
<trkpt lat="45.8658680" lon="10.2976150">
	<ele>2053.40</ele>
	<time>2025-07-29T09:19:45.000Z</time>
</trkpt>
<trkpt lat="45.8658630" lon="10.2976260">
	<ele>2053.40</ele>
	<time>2025-07-29T09:19:46.000Z</time>
</trkpt>
<trkpt lat="45.8658620" lon="10.2976360">
	<ele>2053.20</ele>
	<time>2025-07-29T09:19:47.000Z</time>
</trkpt>
<trkpt lat="45.8658600" lon="10.2976460">
	<ele>2053.00</ele>
	<time>2025-07-29T09:19:48.000Z</time>
</trkpt>
<trkpt lat="45.8658570" lon="10.2976560">
	<ele>2052.80</ele>
	<time>2025-07-29T09:19:49.000Z</time>
</trkpt>
<trkpt lat="45.8658530" lon="10.2976640">
	<ele>2052.60</ele>
	<time>2025-07-29T09:19:50.000Z</time>
</trkpt>
<trkpt lat="45.8658520" lon="10.2976720">
	<ele>2052.40</ele>
	<time>2025-07-29T09:19:51.000Z</time>
</trkpt>
<trkpt lat="45.8658520" lon="10.2976810">
	<ele>2052.40</ele>
	<time>2025-07-29T09:19:52.000Z</time>
</trkpt>
<trkpt lat="45.8658530" lon="10.2976860">
	<ele>2052.00</ele>
	<time>2025-07-29T09:19:53.000Z</time>
</trkpt>
<trkpt lat="45.8658570" lon="10.2976880">
	<ele>2051.80</ele>
	<time>2025-07-29T09:19:54.000Z</time>
</trkpt>
<trkpt lat="45.8658610" lon="10.2976900">
	<ele>2051.60</ele>
	<time>2025-07-29T09:19:55.000Z</time>
</trkpt>
<trkpt lat="45.8658640" lon="10.2976960">
	<ele>2051.40</ele>
	<time>2025-07-29T09:19:56.000Z</time>
</trkpt>
<trkpt lat="45.8658640" lon="10.2977010">
	<ele>2051.20</ele>
	<time>2025-07-29T09:19:57.000Z</time>
</trkpt>
<trkpt lat="45.8658630" lon="10.2977030">
	<ele>2051.00</ele>
	<time>2025-07-29T09:19:58.000Z</time>
</trkpt>
<trkpt lat="45.8658620" lon="10.2977060">
	<ele>2051.00</ele>
	<time>2025-07-29T09:19:59.000Z</time>
</trkpt>
<trkpt lat="45.8658580" lon="10.2977110">
	<ele>2050.80</ele>
	<time>2025-07-29T09:20:00.000Z</time>
</trkpt>
<trkpt lat="45.8658540" lon="10.2977180">
	<ele>2050.80</ele>
	<time>2025-07-29T09:20:01.000Z</time>
</trkpt>
<trkpt lat="45.8658520" lon="10.2977230">
	<ele>2050.60</ele>
	<time>2025-07-29T09:20:02.000Z</time>
</trkpt>
<trkpt lat="45.8658480" lon="10.2977320">
	<ele>2050.60</ele>
	<time>2025-07-29T09:20:03.000Z</time>
</trkpt>
<trkpt lat="45.8658400" lon="10.2977400">
	<ele>2050.40</ele>
	<time>2025-07-29T09:20:04.000Z</time>
</trkpt>
<trkpt lat="45.8658340" lon="10.2977420">
	<ele>2050.20</ele>
	<time>2025-07-29T09:20:05.000Z</time>
</trkpt>
<trkpt lat="45.8658260" lon="10.2977450">
	<ele>2049.60</ele>
	<time>2025-07-29T09:20:06.000Z</time>
</trkpt>
<trkpt lat="45.8658180" lon="10.2977500">
	<ele>2049.20</ele>
	<time>2025-07-29T09:20:07.000Z</time>
</trkpt>
<trkpt lat="45.8658130" lon="10.2977570">
	<ele>2049.00</ele>
	<time>2025-07-29T09:20:08.000Z</time>
</trkpt>
<trkpt lat="45.8658110" lon="10.2977630">
	<ele>2048.80</ele>
	<time>2025-07-29T09:20:09.000Z</time>
</trkpt>
<trkpt lat="45.8658110" lon="10.2977670">
	<ele>2048.80</ele>
	<time>2025-07-29T09:20:10.000Z</time>
</trkpt>
<trkpt lat="45.8658120" lon="10.2977690">
	<ele>2048.60</ele>
	<time>2025-07-29T09:20:11.000Z</time>
</trkpt>
<trkpt lat="45.8658140" lon="10.2977670">
	<ele>2048.40</ele>
	<time>2025-07-29T09:20:12.000Z</time>
</trkpt>
<trkpt lat="45.8658140" lon="10.2977630">
	<ele>2048.40</ele>
	<time>2025-07-29T09:20:13.000Z</time>
</trkpt>
<trkpt lat="45.8658140" lon="10.2977590">
	<ele>2048.40</ele>
	<time>2025-07-29T09:20:14.000Z</time>
</trkpt>
<trkpt lat="45.8658140" lon="10.2977550">
	<ele>2048.20</ele>
	<time>2025-07-29T09:20:15.000Z</time>
</trkpt>
<trkpt lat="45.8658140" lon="10.2977520">
	<ele>2048.20</ele>
	<time>2025-07-29T09:20:16.000Z</time>
</trkpt>
<trkpt lat="45.8658150" lon="10.2977490">
	<ele>2048.40</ele>
	<time>2025-07-29T09:20:17.000Z</time>
</trkpt>
<trkpt lat="45.8658150" lon="10.2977460">
	<ele>2048.40</ele>
	<time>2025-07-29T09:20:18.000Z</time>
</trkpt>
<trkpt lat="45.8658150" lon="10.2977450">
	<ele>2048.40</ele>
	<time>2025-07-29T09:20:19.000Z</time>
</trkpt>
<trkpt lat="45.8658150" lon="10.2977450">
	<ele>2048.60</ele>
	<time>2025-07-29T09:20:20.000Z</time>
</trkpt>
<trkpt lat="45.8658150" lon="10.2977450">
	<ele>2048.60</ele>
	<time>2025-07-29T09:20:21.000Z</time>
</trkpt>
<trkpt lat="45.8658150" lon="10.2977450">
	<ele>2048.60</ele>
	<time>2025-07-29T09:20:22.000Z</time>
</trkpt>
<trkpt lat="45.8658150" lon="10.2977450">
	<ele>2048.60</ele>
	<time>2025-07-29T09:20:23.000Z</time>
</trkpt>
<trkpt lat="45.8658150" lon="10.2977450">
	<ele>2048.60</ele>
	<time>2025-07-29T09:20:24.000Z</time>
</trkpt>
<trkpt lat="45.8658150" lon="10.2977450">
	<ele>2048.60</ele>
	<time>2025-07-29T09:20:25.000Z</time>
</trkpt>
<trkpt lat="45.8658150" lon="10.2977450">
	<ele>2048.80</ele>
	<time>2025-07-29T09:20:26.000Z</time>
</trkpt>
<trkpt lat="45.8658150" lon="10.2977450">
	<ele>2048.80</ele>
	<time>2025-07-29T09:20:27.000Z</time>
</trkpt>
<trkpt lat="45.8658150" lon="10.2977450">
	<ele>2048.80</ele>
	<time>2025-07-29T09:20:28.000Z</time>
</trkpt>
<trkpt lat="45.8658150" lon="10.2977450">
	<ele>2048.80</ele>
	<time>2025-07-29T09:20:29.000Z</time>
</trkpt>
<trkpt lat="45.8658150" lon="10.2977450">
	<ele>2049.00</ele>
	<time>2025-07-29T09:20:30.000Z</time>
</trkpt>
<trkpt lat="45.8658150" lon="10.2977450">
	<ele>2049.00</ele>
	<time>2025-07-29T09:20:31.000Z</time>
</trkpt>
<trkpt lat="45.8658140" lon="10.2977460">
	<ele>2049.00</ele>
	<time>2025-07-29T09:20:32.000Z</time>
</trkpt>
<trkpt lat="45.8658140" lon="10.2977470">
	<ele>2049.00</ele>
	<time>2025-07-29T09:20:33.000Z</time>
</trkpt>
<trkpt lat="45.8658140" lon="10.2977480">
	<ele>2049.00</ele>
	<time>2025-07-29T09:20:34.000Z</time>
</trkpt>
<trkpt lat="45.8658140" lon="10.2977490">
	<ele>2049.00</ele>
	<time>2025-07-29T09:20:35.000Z</time>
</trkpt>
<trkpt lat="45.8658140" lon="10.2977500">
	<ele>2048.60</ele>
	<time>2025-07-29T09:20:36.000Z</time>
</trkpt>
<trkpt lat="45.8658140" lon="10.2977520">
	<ele>2048.40</ele>
	<time>2025-07-29T09:20:37.000Z</time>
</trkpt>
<trkpt lat="45.8658140" lon="10.2977530">
	<ele>2048.40</ele>
	<time>2025-07-29T09:20:38.000Z</time>
</trkpt>
<trkpt lat="45.8658130" lon="10.2977550">
	<ele>2048.20</ele>
	<time>2025-07-29T09:20:39.000Z</time>
</trkpt>
<trkpt lat="45.8658130" lon="10.2977550">
	<ele>2048.20</ele>
	<time>2025-07-29T09:20:40.000Z</time>
</trkpt>
<trkpt lat="45.8658130" lon="10.2977550">
	<ele>2048.00</ele>
	<time>2025-07-29T09:20:41.000Z</time>
</trkpt>
<trkpt lat="45.8658130" lon="10.2977550">
	<ele>2048.00</ele>
	<time>2025-07-29T09:20:42.000Z</time>
</trkpt>
<trkpt lat="45.8658120" lon="10.2977550">
	<ele>2047.60</ele>
	<time>2025-07-29T09:20:43.000Z</time>
</trkpt>
<trkpt lat="45.8658120" lon="10.2977550">
	<ele>2047.60</ele>
	<time>2025-07-29T09:20:44.000Z</time>
</trkpt>
<trkpt lat="45.8658120" lon="10.2977570">
	<ele>2047.40</ele>
	<time>2025-07-29T09:20:45.000Z</time>
</trkpt>
<trkpt lat="45.8658110" lon="10.2977580">
	<ele>2047.20</ele>
	<time>2025-07-29T09:20:46.000Z</time>
</trkpt>
<trkpt lat="45.8658110" lon="10.2977600">
	<ele>2047.00</ele>
	<time>2025-07-29T09:20:47.000Z</time>
</trkpt>
<trkpt lat="45.8658100" lon="10.2977610">
	<ele>2047.00</ele>
	<time>2025-07-29T09:20:48.000Z</time>
</trkpt>
<trkpt lat="45.8658080" lon="10.2977610">
	<ele>2046.80</ele>
	<time>2025-07-29T09:20:49.000Z</time>
</trkpt>
<trkpt lat="45.8658070" lon="10.2977620">
	<ele>2046.60</ele>
	<time>2025-07-29T09:20:50.000Z</time>
</trkpt>
<trkpt lat="45.8658050" lon="10.2977630">
	<ele>2046.60</ele>
	<time>2025-07-29T09:20:51.000Z</time>
</trkpt>
<trkpt lat="45.8658020" lon="10.2977650">
	<ele>2046.40</ele>
	<time>2025-07-29T09:20:52.000Z</time>
</trkpt>
<trkpt lat="45.8657980" lon="10.2977700">
	<ele>2046.40</ele>
	<time>2025-07-29T09:20:53.000Z</time>
</trkpt>
<trkpt lat="45.8657950" lon="10.2977730">
	<ele>2046.00</ele>
	<time>2025-07-29T09:20:54.000Z</time>
</trkpt>
<trkpt lat="45.8657920" lon="10.2977810">
	<ele>2045.60</ele>
	<time>2025-07-29T09:20:55.000Z</time>
</trkpt>
<trkpt lat="45.8657870" lon="10.2977880">
	<ele>2045.60</ele>
	<time>2025-07-29T09:20:56.000Z</time>
</trkpt>
<trkpt lat="45.8657820" lon="10.2977960">
	<ele>2045.40</ele>
	<time>2025-07-29T09:20:57.000Z</time>
</trkpt>
<trkpt lat="45.8657730" lon="10.2978040">
	<ele>2045.20</ele>
	<time>2025-07-29T09:20:58.000Z</time>
</trkpt>
<trkpt lat="45.8657550" lon="10.2978200">
	<ele>2045.00</ele>
	<time>2025-07-29T09:20:59.000Z</time>
</trkpt>
<trkpt lat="45.8657360" lon="10.2978320">
	<ele>2045.00</ele>
	<time>2025-07-29T09:21:00.000Z</time>
</trkpt>
<trkpt lat="45.8657190" lon="10.2978460">
	<ele>2044.40</ele>
	<time>2025-07-29T09:21:01.000Z</time>
</trkpt>
<trkpt lat="45.8657040" lon="10.2978610">
	<ele>2044.20</ele>
	<time>2025-07-29T09:21:02.000Z</time>
</trkpt>
<trkpt lat="45.8656880" lon="10.2978780">
	<ele>2043.80</ele>
	<time>2025-07-29T09:21:03.000Z</time>
</trkpt>
<trkpt lat="45.8656690" lon="10.2978920">
	<ele>2043.80</ele>
	<time>2025-07-29T09:21:04.000Z</time>
</trkpt>
<trkpt lat="45.8656500" lon="10.2979070">
	<ele>2043.40</ele>
	<time>2025-07-29T09:21:05.000Z</time>
</trkpt>
<trkpt lat="45.8656320" lon="10.2979190">
	<ele>2043.20</ele>
	<time>2025-07-29T09:21:06.000Z</time>
</trkpt>
<trkpt lat="45.8656160" lon="10.2979330">
	<ele>2043.00</ele>
	<time>2025-07-29T09:21:07.000Z</time>
</trkpt>
<trkpt lat="45.8656120" lon="10.2979430">
	<ele>2042.60</ele>
	<time>2025-07-29T09:21:08.000Z</time>
</trkpt>
<trkpt lat="45.8656060" lon="10.2979510">
	<ele>2042.40</ele>
	<time>2025-07-29T09:21:09.000Z</time>
</trkpt>
<trkpt lat="45.8655960" lon="10.2979600">
	<ele>2042.20</ele>
	<time>2025-07-29T09:21:10.000Z</time>
</trkpt>
<trkpt lat="45.8655850" lon="10.2979660">
	<ele>2042.00</ele>
	<time>2025-07-29T09:21:11.000Z</time>
</trkpt>
<trkpt lat="45.8655730" lon="10.2979700">
	<ele>2041.80</ele>
	<time>2025-07-29T09:21:12.000Z</time>
</trkpt>
<trkpt lat="45.8655600" lon="10.2979740">
	<ele>2041.80</ele>
	<time>2025-07-29T09:21:13.000Z</time>
</trkpt>
<trkpt lat="45.8655490" lon="10.2979830">
	<ele>2041.60</ele>
	<time>2025-07-29T09:21:14.000Z</time>
</trkpt>
<trkpt lat="45.8655410" lon="10.2979950">
	<ele>2041.60</ele>
	<time>2025-07-29T09:21:15.000Z</time>
</trkpt>
<trkpt lat="45.8655330" lon="10.2980070">
	<ele>2041.40</ele>
	<time>2025-07-29T09:21:16.000Z</time>
</trkpt>
<trkpt lat="45.8655220" lon="10.2980120">
	<ele>2041.20</ele>
	<time>2025-07-29T09:21:17.000Z</time>
</trkpt>
<trkpt lat="45.8655120" lon="10.2980150">
	<ele>2041.20</ele>
	<time>2025-07-29T09:21:18.000Z</time>
</trkpt>
<trkpt lat="45.8654990" lon="10.2980140">
	<ele>2041.00</ele>
	<time>2025-07-29T09:21:19.000Z</time>
</trkpt>
<trkpt lat="45.8654850" lon="10.2980130">
	<ele>2041.00</ele>
	<time>2025-07-29T09:21:20.000Z</time>
</trkpt>
<trkpt lat="45.8654740" lon="10.2980180">
	<ele>2040.80</ele>
	<time>2025-07-29T09:21:21.000Z</time>
</trkpt>
<trkpt lat="45.8654670" lon="10.2980250">
	<ele>2040.60</ele>
	<time>2025-07-29T09:21:22.000Z</time>
</trkpt>
<trkpt lat="45.8654620" lon="10.2980320">
	<ele>2040.60</ele>
	<time>2025-07-29T09:21:23.000Z</time>
</trkpt>
<trkpt lat="45.8654560" lon="10.2980430">
	<ele>2040.40</ele>
	<time>2025-07-29T09:21:24.000Z</time>
</trkpt>
<trkpt lat="45.8654480" lon="10.2980510">
	<ele>2040.20</ele>
	<time>2025-07-29T09:21:25.000Z</time>
</trkpt>
<trkpt lat="45.8654430" lon="10.2980640">
	<ele>2040.20</ele>
	<time>2025-07-29T09:21:26.000Z</time>
</trkpt>
<trkpt lat="45.8654380" lon="10.2980770">
	<ele>2040.00</ele>
	<time>2025-07-29T09:21:27.000Z</time>
</trkpt>
<trkpt lat="45.8654310" lon="10.2980900">
	<ele>2039.80</ele>
	<time>2025-07-29T09:21:28.000Z</time>
</trkpt>
<trkpt lat="45.8654190" lon="10.2981030">
	<ele>2039.40</ele>
	<time>2025-07-29T09:21:29.000Z</time>
</trkpt>
<trkpt lat="45.8654100" lon="10.2981150">
	<ele>2039.00</ele>
	<time>2025-07-29T09:21:30.000Z</time>
</trkpt>
<trkpt lat="45.8654040" lon="10.2981270">
	<ele>2038.80</ele>
	<time>2025-07-29T09:21:31.000Z</time>
</trkpt>
<trkpt lat="45.8653960" lon="10.2981390">
	<ele>2038.40</ele>
	<time>2025-07-29T09:21:32.000Z</time>
</trkpt>
<trkpt lat="45.8653870" lon="10.2981490">
	<ele>2038.40</ele>
	<time>2025-07-29T09:21:33.000Z</time>
</trkpt>
<trkpt lat="45.8653780" lon="10.2981620">
	<ele>2038.20</ele>
	<time>2025-07-29T09:21:34.000Z</time>
</trkpt>
<trkpt lat="45.8653730" lon="10.2981760">
	<ele>2038.20</ele>
	<time>2025-07-29T09:21:35.000Z</time>
</trkpt>
<trkpt lat="45.8653720" lon="10.2981900">
	<ele>2037.80</ele>
	<time>2025-07-29T09:21:36.000Z</time>
</trkpt>
<trkpt lat="45.8653700" lon="10.2982040">
	<ele>2037.80</ele>
	<time>2025-07-29T09:21:37.000Z</time>
</trkpt>
<trkpt lat="45.8653670" lon="10.2982180">
	<ele>2037.60</ele>
	<time>2025-07-29T09:21:38.000Z</time>
</trkpt>
<trkpt lat="45.8653620" lon="10.2982300">
	<ele>2037.40</ele>
	<time>2025-07-29T09:21:39.000Z</time>
</trkpt>
<trkpt lat="45.8653510" lon="10.2982380">
	<ele>2037.20</ele>
	<time>2025-07-29T09:21:40.000Z</time>
</trkpt>
<trkpt lat="45.8653390" lon="10.2982430">
	<ele>2037.20</ele>
	<time>2025-07-29T09:21:41.000Z</time>
</trkpt>
<trkpt lat="45.8653270" lon="10.2982440">
	<ele>2037.20</ele>
	<time>2025-07-29T09:21:42.000Z</time>
</trkpt>
<trkpt lat="45.8653170" lon="10.2982500">
	<ele>2036.80</ele>
	<time>2025-07-29T09:21:43.000Z</time>
</trkpt>
<trkpt lat="45.8653070" lon="10.2982550">
	<ele>2036.80</ele>
	<time>2025-07-29T09:21:44.000Z</time>
</trkpt>
<trkpt lat="45.8652990" lon="10.2982620">
	<ele>2036.60</ele>
	<time>2025-07-29T09:21:45.000Z</time>
</trkpt>
<trkpt lat="45.8652930" lon="10.2982650">
	<ele>2036.60</ele>
	<time>2025-07-29T09:21:46.000Z</time>
</trkpt>
<trkpt lat="45.8652900" lon="10.2982680">
	<ele>2036.40</ele>
	<time>2025-07-29T09:21:47.000Z</time>
</trkpt>
<trkpt lat="45.8652890" lon="10.2982700">
	<ele>2036.20</ele>
	<time>2025-07-29T09:21:48.000Z</time>
</trkpt>
<trkpt lat="45.8652880" lon="10.2982710">
	<ele>2036.20</ele>
	<time>2025-07-29T09:21:49.000Z</time>
</trkpt>
<trkpt lat="45.8652880" lon="10.2982710">
	<ele>2036.00</ele>
	<time>2025-07-29T09:21:50.000Z</time>
</trkpt>
<trkpt lat="45.8652830" lon="10.2982760">
	<ele>2036.00</ele>
	<time>2025-07-29T09:21:51.000Z</time>
</trkpt>
<trkpt lat="45.8652780" lon="10.2982820">
	<ele>2035.80</ele>
	<time>2025-07-29T09:21:52.000Z</time>
</trkpt>
<trkpt lat="45.8652730" lon="10.2982940">
	<ele>2035.80</ele>
	<time>2025-07-29T09:21:53.000Z</time>
</trkpt>
<trkpt lat="45.8652700" lon="10.2983010">
	<ele>2035.80</ele>
	<time>2025-07-29T09:21:54.000Z</time>
</trkpt>
<trkpt lat="45.8652680" lon="10.2983070">
	<ele>2035.80</ele>
	<time>2025-07-29T09:21:55.000Z</time>
</trkpt>
<trkpt lat="45.8652660" lon="10.2983120">
	<ele>2035.60</ele>
	<time>2025-07-29T09:21:56.000Z</time>
</trkpt>
<trkpt lat="45.8652620" lon="10.2983190">
	<ele>2035.60</ele>
	<time>2025-07-29T09:21:57.000Z</time>
</trkpt>
<trkpt lat="45.8652550" lon="10.2983260">
	<ele>2035.40</ele>
	<time>2025-07-29T09:21:58.000Z</time>
</trkpt>
<trkpt lat="45.8652490" lon="10.2983380">
	<ele>2035.20</ele>
	<time>2025-07-29T09:21:59.000Z</time>
</trkpt>
<trkpt lat="45.8652420" lon="10.2983490">
	<ele>2035.00</ele>
	<time>2025-07-29T09:22:00.000Z</time>
</trkpt>
<trkpt lat="45.8652380" lon="10.2983580">
	<ele>2034.60</ele>
	<time>2025-07-29T09:22:01.000Z</time>
</trkpt>
<trkpt lat="45.8652350" lon="10.2983650">
	<ele>2034.60</ele>
	<time>2025-07-29T09:22:02.000Z</time>
</trkpt>
<trkpt lat="45.8652300" lon="10.2983740">
	<ele>2034.40</ele>
	<time>2025-07-29T09:22:03.000Z</time>
</trkpt>
<trkpt lat="45.8652270" lon="10.2983870">
	<ele>2034.00</ele>
	<time>2025-07-29T09:22:04.000Z</time>
</trkpt>
<trkpt lat="45.8652230" lon="10.2983980">
	<ele>2033.80</ele>
	<time>2025-07-29T09:22:05.000Z</time>
</trkpt>
<trkpt lat="45.8652170" lon="10.2984090">
	<ele>2033.60</ele>
	<time>2025-07-29T09:22:06.000Z</time>
</trkpt>
<trkpt lat="45.8652140" lon="10.2984210">
	<ele>2033.20</ele>
	<time>2025-07-29T09:22:07.000Z</time>
</trkpt>
<trkpt lat="45.8652080" lon="10.2984370">
	<ele>2033.00</ele>
	<time>2025-07-29T09:22:08.000Z</time>
</trkpt>
<trkpt lat="45.8651990" lon="10.2984520">
	<ele>2032.60</ele>
	<time>2025-07-29T09:22:09.000Z</time>
</trkpt>
<trkpt lat="45.8651900" lon="10.2984640">
	<ele>2032.60</ele>
	<time>2025-07-29T09:22:10.000Z</time>
</trkpt>
<trkpt lat="45.8651810" lon="10.2984750">
	<ele>2032.40</ele>
	<time>2025-07-29T09:22:11.000Z</time>
</trkpt>
<trkpt lat="45.8651710" lon="10.2984830">
	<ele>2032.20</ele>
	<time>2025-07-29T09:22:12.000Z</time>
</trkpt>
<trkpt lat="45.8651610" lon="10.2984940">
	<ele>2032.00</ele>
	<time>2025-07-29T09:22:13.000Z</time>
</trkpt>
<trkpt lat="45.8651520" lon="10.2985090">
	<ele>2031.80</ele>
	<time>2025-07-29T09:22:14.000Z</time>
</trkpt>
<trkpt lat="45.8651490" lon="10.2985240">
	<ele>2031.80</ele>
	<time>2025-07-29T09:22:15.000Z</time>
</trkpt>
<trkpt lat="45.8651500" lon="10.2985390">
	<ele>2031.60</ele>
	<time>2025-07-29T09:22:16.000Z</time>
</trkpt>
<trkpt lat="45.8651510" lon="10.2985510">
	<ele>2031.40</ele>
	<time>2025-07-29T09:22:17.000Z</time>
</trkpt>
<trkpt lat="45.8651530" lon="10.2985640">
	<ele>2031.20</ele>
	<time>2025-07-29T09:22:18.000Z</time>
</trkpt>
<trkpt lat="45.8651540" lon="10.2985780">
	<ele>2031.00</ele>
	<time>2025-07-29T09:22:19.000Z</time>
</trkpt>
<trkpt lat="45.8651500" lon="10.2985900">
	<ele>2030.80</ele>
	<time>2025-07-29T09:22:20.000Z</time>
</trkpt>
<trkpt lat="45.8651420" lon="10.2986030">
	<ele>2030.60</ele>
	<time>2025-07-29T09:22:21.000Z</time>
</trkpt>
<trkpt lat="45.8651350" lon="10.2986140">
	<ele>2030.40</ele>
	<time>2025-07-29T09:22:22.000Z</time>
</trkpt>
<trkpt lat="45.8651280" lon="10.2986240">
	<ele>2030.40</ele>
	<time>2025-07-29T09:22:23.000Z</time>
</trkpt>
<trkpt lat="45.8651220" lon="10.2986340">
	<ele>2030.00</ele>
	<time>2025-07-29T09:22:24.000Z</time>
</trkpt>
<trkpt lat="45.8651140" lon="10.2986470">
	<ele>2029.80</ele>
	<time>2025-07-29T09:22:25.000Z</time>
</trkpt>
<trkpt lat="45.8651060" lon="10.2986620">
	<ele>2029.60</ele>
	<time>2025-07-29T09:22:26.000Z</time>
</trkpt>
<trkpt lat="45.8650960" lon="10.2986780">
	<ele>2029.40</ele>
	<time>2025-07-29T09:22:27.000Z</time>
</trkpt>
<trkpt lat="45.8650910" lon="10.2986930">
	<ele>2029.20</ele>
	<time>2025-07-29T09:22:28.000Z</time>
</trkpt>
<trkpt lat="45.8650850" lon="10.2987130">
	<ele>2029.00</ele>
	<time>2025-07-29T09:22:29.000Z</time>
</trkpt>
<trkpt lat="45.8650800" lon="10.2987290">
	<ele>2029.00</ele>
	<time>2025-07-29T09:22:30.000Z</time>
</trkpt>
<trkpt lat="45.8650680" lon="10.2987410">
	<ele>2029.00</ele>
	<time>2025-07-29T09:22:31.000Z</time>
</trkpt>
<trkpt lat="45.8650590" lon="10.2987530">
	<ele>2029.00</ele>
	<time>2025-07-29T09:22:32.000Z</time>
</trkpt>
<trkpt lat="45.8650530" lon="10.2987660">
	<ele>2029.00</ele>
	<time>2025-07-29T09:22:33.000Z</time>
</trkpt>
<trkpt lat="45.8650460" lon="10.2987790">
	<ele>2028.80</ele>
	<time>2025-07-29T09:22:34.000Z</time>
</trkpt>
<trkpt lat="45.8650390" lon="10.2987940">
	<ele>2028.80</ele>
	<time>2025-07-29T09:22:35.000Z</time>
</trkpt>
<trkpt lat="45.8650290" lon="10.2988120">
	<ele>2028.60</ele>
	<time>2025-07-29T09:22:36.000Z</time>
</trkpt>
<trkpt lat="45.8650190" lon="10.2988250">
	<ele>2028.60</ele>
	<time>2025-07-29T09:22:37.000Z</time>
</trkpt>
<trkpt lat="45.8650080" lon="10.2988400">
	<ele>2028.40</ele>
	<time>2025-07-29T09:22:38.000Z</time>
</trkpt>
<trkpt lat="45.8649970" lon="10.2988540">
	<ele>2028.40</ele>
	<time>2025-07-29T09:22:39.000Z</time>
</trkpt>
<trkpt lat="45.8649860" lon="10.2988670">
	<ele>2028.20</ele>
	<time>2025-07-29T09:22:40.000Z</time>
</trkpt>
<trkpt lat="45.8649770" lon="10.2988800">
	<ele>2028.20</ele>
	<time>2025-07-29T09:22:41.000Z</time>
</trkpt>
<trkpt lat="45.8649670" lon="10.2988920">
	<ele>2028.20</ele>
	<time>2025-07-29T09:22:42.000Z</time>
</trkpt>
<trkpt lat="45.8649590" lon="10.2989080">
	<ele>2028.20</ele>
	<time>2025-07-29T09:22:43.000Z</time>
</trkpt>
<trkpt lat="45.8649520" lon="10.2989210">
	<ele>2028.20</ele>
	<time>2025-07-29T09:22:44.000Z</time>
</trkpt>
<trkpt lat="45.8649440" lon="10.2989310">
	<ele>2028.20</ele>
	<time>2025-07-29T09:22:45.000Z</time>
</trkpt>
<trkpt lat="45.8649360" lon="10.2989420">
	<ele>2028.20</ele>
	<time>2025-07-29T09:22:46.000Z</time>
</trkpt>
<trkpt lat="45.8649310" lon="10.2989560">
	<ele>2028.20</ele>
	<time>2025-07-29T09:22:47.000Z</time>
</trkpt>
<trkpt lat="45.8649220" lon="10.2989680">
	<ele>2028.20</ele>
	<time>2025-07-29T09:22:48.000Z</time>
</trkpt>
<trkpt lat="45.8649140" lon="10.2989780">
	<ele>2028.20</ele>
	<time>2025-07-29T09:22:49.000Z</time>
</trkpt>
<trkpt lat="45.8649040" lon="10.2989850">
	<ele>2028.00</ele>
	<time>2025-07-29T09:22:50.000Z</time>
</trkpt>
<trkpt lat="45.8648960" lon="10.2989980">
	<ele>2028.00</ele>
	<time>2025-07-29T09:22:51.000Z</time>
</trkpt>
<trkpt lat="45.8648860" lon="10.2990100">
	<ele>2028.00</ele>
	<time>2025-07-29T09:22:52.000Z</time>
</trkpt>
<trkpt lat="45.8648750" lon="10.2990220">
	<ele>2028.00</ele>
	<time>2025-07-29T09:22:53.000Z</time>
</trkpt>
<trkpt lat="45.8648650" lon="10.2990390">
	<ele>2028.00</ele>
	<time>2025-07-29T09:22:54.000Z</time>
</trkpt>
<trkpt lat="45.8648580" lon="10.2990530">
	<ele>2028.00</ele>
	<time>2025-07-29T09:22:55.000Z</time>
</trkpt>
<trkpt lat="45.8648510" lon="10.2990660">
	<ele>2028.00</ele>
	<time>2025-07-29T09:22:56.000Z</time>
</trkpt>
<trkpt lat="45.8648440" lon="10.2990790">
	<ele>2028.20</ele>
	<time>2025-07-29T09:22:57.000Z</time>
</trkpt>
<trkpt lat="45.8648380" lon="10.2990930">
	<ele>2028.20</ele>
	<time>2025-07-29T09:22:58.000Z</time>
</trkpt>
<trkpt lat="45.8648310" lon="10.2991050">
	<ele>2028.20</ele>
	<time>2025-07-29T09:22:59.000Z</time>
</trkpt>
<trkpt lat="45.8648220" lon="10.2991140">
	<ele>2028.40</ele>
	<time>2025-07-29T09:23:00.000Z</time>
</trkpt>
<trkpt lat="45.8648160" lon="10.2991280">
	<ele>2028.40</ele>
	<time>2025-07-29T09:23:01.000Z</time>
</trkpt>
<trkpt lat="45.8648090" lon="10.2991380">
	<ele>2028.60</ele>
	<time>2025-07-29T09:23:02.000Z</time>
</trkpt>
<trkpt lat="45.8648030" lon="10.2991510">
	<ele>2028.80</ele>
	<time>2025-07-29T09:23:03.000Z</time>
</trkpt>
<trkpt lat="45.8647960" lon="10.2991630">
	<ele>2028.80</ele>
	<time>2025-07-29T09:23:04.000Z</time>
</trkpt>
<trkpt lat="45.8647890" lon="10.2991760">
	<ele>2028.80</ele>
	<time>2025-07-29T09:23:05.000Z</time>
</trkpt>
<trkpt lat="45.8647850" lon="10.2991910">
	<ele>2029.00</ele>
	<time>2025-07-29T09:23:06.000Z</time>
</trkpt>
<trkpt lat="45.8647800" lon="10.2992020">
	<ele>2029.00</ele>
	<time>2025-07-29T09:23:07.000Z</time>
</trkpt>
<trkpt lat="45.8647730" lon="10.2992080">
	<ele>2029.00</ele>
	<time>2025-07-29T09:23:08.000Z</time>
</trkpt>
<trkpt lat="45.8647630" lon="10.2992150">
	<ele>2029.00</ele>
	<time>2025-07-29T09:23:09.000Z</time>
</trkpt>
<trkpt lat="45.8647570" lon="10.2992190">
	<ele>2028.80</ele>
	<time>2025-07-29T09:23:10.000Z</time>
</trkpt>
<trkpt lat="45.8647540" lon="10.2992260">
	<ele>2028.80</ele>
	<time>2025-07-29T09:23:11.000Z</time>
</trkpt>
<trkpt lat="45.8647530" lon="10.2992380">
	<ele>2028.80</ele>
	<time>2025-07-29T09:23:12.000Z</time>
</trkpt>
<trkpt lat="45.8647510" lon="10.2992540">
	<ele>2028.60</ele>
	<time>2025-07-29T09:23:13.000Z</time>
</trkpt>
<trkpt lat="45.8647450" lon="10.2992660">
	<ele>2028.40</ele>
	<time>2025-07-29T09:23:14.000Z</time>
</trkpt>
<trkpt lat="45.8647380" lon="10.2992800">
	<ele>2028.20</ele>
	<time>2025-07-29T09:23:15.000Z</time>
</trkpt>
<trkpt lat="45.8647300" lon="10.2992930">
	<ele>2028.20</ele>
	<time>2025-07-29T09:23:16.000Z</time>
</trkpt>
<trkpt lat="45.8647220" lon="10.2993040">
	<ele>2028.00</ele>
	<time>2025-07-29T09:23:17.000Z</time>
</trkpt>
<trkpt lat="45.8647140" lon="10.2993120">
	<ele>2028.00</ele>
	<time>2025-07-29T09:23:18.000Z</time>
</trkpt>
<trkpt lat="45.8647060" lon="10.2993190">
	<ele>2028.00</ele>
	<time>2025-07-29T09:23:19.000Z</time>
</trkpt>
<trkpt lat="45.8646950" lon="10.2993270">
	<ele>2027.80</ele>
	<time>2025-07-29T09:23:20.000Z</time>
</trkpt>
<trkpt lat="45.8646860" lon="10.2993390">
	<ele>2027.80</ele>
	<time>2025-07-29T09:23:21.000Z</time>
</trkpt>
<trkpt lat="45.8646800" lon="10.2993550">
	<ele>2027.80</ele>
	<time>2025-07-29T09:23:22.000Z</time>
</trkpt>
<trkpt lat="45.8646740" lon="10.2993720">
	<ele>2027.80</ele>
	<time>2025-07-29T09:23:23.000Z</time>
</trkpt>
<trkpt lat="45.8646700" lon="10.2993850">
	<ele>2027.80</ele>
	<time>2025-07-29T09:23:24.000Z</time>
</trkpt>
<trkpt lat="45.8646650" lon="10.2993980">
	<ele>2028.00</ele>
	<time>2025-07-29T09:23:25.000Z</time>
</trkpt>
<trkpt lat="45.8646590" lon="10.2994090">
	<ele>2028.20</ele>
	<time>2025-07-29T09:23:26.000Z</time>
</trkpt>
<trkpt lat="45.8646530" lon="10.2994230">
	<ele>2028.20</ele>
	<time>2025-07-29T09:23:27.000Z</time>
</trkpt>
<trkpt lat="45.8646480" lon="10.2994390">
	<ele>2028.40</ele>
	<time>2025-07-29T09:23:28.000Z</time>
</trkpt>
<trkpt lat="45.8646420" lon="10.2994530">
	<ele>2028.40</ele>
	<time>2025-07-29T09:23:29.000Z</time>
</trkpt>
<trkpt lat="45.8646340" lon="10.2994680">
	<ele>2028.40</ele>
	<time>2025-07-29T09:23:30.000Z</time>
</trkpt>
<trkpt lat="45.8646270" lon="10.2994850">
	<ele>2028.40</ele>
	<time>2025-07-29T09:23:31.000Z</time>
</trkpt>
<trkpt lat="45.8646180" lon="10.2994990">
	<ele>2028.40</ele>
	<time>2025-07-29T09:23:32.000Z</time>
</trkpt>
<trkpt lat="45.8646110" lon="10.2995130">
	<ele>2028.40</ele>
	<time>2025-07-29T09:23:33.000Z</time>
</trkpt>
<trkpt lat="45.8646030" lon="10.2995240">
	<ele>2028.40</ele>
	<time>2025-07-29T09:23:34.000Z</time>
</trkpt>
<trkpt lat="45.8645940" lon="10.2995310">
	<ele>2028.40</ele>
	<time>2025-07-29T09:23:35.000Z</time>
</trkpt>
<trkpt lat="45.8645830" lon="10.2995430">
	<ele>2028.40</ele>
	<time>2025-07-29T09:23:36.000Z</time>
</trkpt>
<trkpt lat="45.8645740" lon="10.2995570">
	<ele>2028.40</ele>
	<time>2025-07-29T09:23:37.000Z</time>
</trkpt>
<trkpt lat="45.8645660" lon="10.2995730">
	<ele>2028.40</ele>
	<time>2025-07-29T09:23:38.000Z</time>
</trkpt>
<trkpt lat="45.8645610" lon="10.2995910">
	<ele>2028.40</ele>
	<time>2025-07-29T09:23:39.000Z</time>
</trkpt>
<trkpt lat="45.8645570" lon="10.2996080">
	<ele>2028.40</ele>
	<time>2025-07-29T09:23:40.000Z</time>
</trkpt>
<trkpt lat="45.8645520" lon="10.2996230">
	<ele>2028.40</ele>
	<time>2025-07-29T09:23:41.000Z</time>
</trkpt>
<trkpt lat="45.8645460" lon="10.2996360">
	<ele>2028.40</ele>
	<time>2025-07-29T09:23:42.000Z</time>
</trkpt>
<trkpt lat="45.8645400" lon="10.2996470">
	<ele>2028.40</ele>
	<time>2025-07-29T09:23:43.000Z</time>
</trkpt>
<trkpt lat="45.8645350" lon="10.2996600">
	<ele>2028.40</ele>
	<time>2025-07-29T09:23:44.000Z</time>
</trkpt>
<trkpt lat="45.8645260" lon="10.2996720">
	<ele>2028.40</ele>
	<time>2025-07-29T09:23:45.000Z</time>
</trkpt>
<trkpt lat="45.8645190" lon="10.2996870">
	<ele>2028.60</ele>
	<time>2025-07-29T09:23:46.000Z</time>
</trkpt>
<trkpt lat="45.8645110" lon="10.2997010">
	<ele>2028.60</ele>
	<time>2025-07-29T09:23:47.000Z</time>
</trkpt>
<trkpt lat="45.8645040" lon="10.2997130">
	<ele>2028.80</ele>
	<time>2025-07-29T09:23:48.000Z</time>
</trkpt>
<trkpt lat="45.8644990" lon="10.2997270">
	<ele>2028.80</ele>
	<time>2025-07-29T09:23:49.000Z</time>
</trkpt>
<trkpt lat="45.8644940" lon="10.2997420">
	<ele>2029.00</ele>
	<time>2025-07-29T09:23:50.000Z</time>
</trkpt>
<trkpt lat="45.8644890" lon="10.2997560">
	<ele>2029.00</ele>
	<time>2025-07-29T09:23:51.000Z</time>
</trkpt>
<trkpt lat="45.8644860" lon="10.2997710">
	<ele>2029.20</ele>
	<time>2025-07-29T09:23:52.000Z</time>
</trkpt>
<trkpt lat="45.8644840" lon="10.2997850">
	<ele>2029.40</ele>
	<time>2025-07-29T09:23:53.000Z</time>
</trkpt>
<trkpt lat="45.8644850" lon="10.2997990">
	<ele>2029.60</ele>
	<time>2025-07-29T09:23:54.000Z</time>
</trkpt>
<trkpt lat="45.8644860" lon="10.2998160">
	<ele>2029.80</ele>
	<time>2025-07-29T09:23:55.000Z</time>
</trkpt>
<trkpt lat="45.8644880" lon="10.2998300">
	<ele>2030.00</ele>
	<time>2025-07-29T09:23:56.000Z</time>
</trkpt>
<trkpt lat="45.8644870" lon="10.2998430">
	<ele>2030.00</ele>
	<time>2025-07-29T09:23:57.000Z</time>
</trkpt>
<trkpt lat="45.8644830" lon="10.2998520">
	<ele>2030.40</ele>
	<time>2025-07-29T09:23:58.000Z</time>
</trkpt>
<trkpt lat="45.8644790" lon="10.2998580">
	<ele>2030.80</ele>
	<time>2025-07-29T09:23:59.000Z</time>
</trkpt>
<trkpt lat="45.8644770" lon="10.2998670">
	<ele>2031.00</ele>
	<time>2025-07-29T09:24:00.000Z</time>
</trkpt>
<trkpt lat="45.8644730" lon="10.2998790">
	<ele>2031.40</ele>
	<time>2025-07-29T09:24:01.000Z</time>
</trkpt>
<trkpt lat="45.8644710" lon="10.2998880">
	<ele>2031.60</ele>
	<time>2025-07-29T09:24:02.000Z</time>
</trkpt>
<trkpt lat="45.8644690" lon="10.2998980">
	<ele>2031.60</ele>
	<time>2025-07-29T09:24:03.000Z</time>
</trkpt>
<trkpt lat="45.8644670" lon="10.2999070">
	<ele>2032.00</ele>
	<time>2025-07-29T09:24:04.000Z</time>
</trkpt>
<trkpt lat="45.8644660" lon="10.2999190">
	<ele>2032.00</ele>
	<time>2025-07-29T09:24:05.000Z</time>
</trkpt>
<trkpt lat="45.8644650" lon="10.2999310">
	<ele>2032.20</ele>
	<time>2025-07-29T09:24:06.000Z</time>
</trkpt>
<trkpt lat="45.8644620" lon="10.2999420">
	<ele>2032.40</ele>
	<time>2025-07-29T09:24:07.000Z</time>
</trkpt>
<trkpt lat="45.8644590" lon="10.2999530">
	<ele>2032.60</ele>
	<time>2025-07-29T09:24:08.000Z</time>
</trkpt>
<trkpt lat="45.8644560" lon="10.2999590">
	<ele>2032.80</ele>
	<time>2025-07-29T09:24:09.000Z</time>
</trkpt>
<trkpt lat="45.8644520" lon="10.2999640">
	<ele>2032.80</ele>
	<time>2025-07-29T09:24:10.000Z</time>
</trkpt>
<trkpt lat="45.8644490" lon="10.2999730">
	<ele>2033.00</ele>
	<time>2025-07-29T09:24:11.000Z</time>
</trkpt>
<trkpt lat="45.8644440" lon="10.2999830">
	<ele>2033.20</ele>
	<time>2025-07-29T09:24:12.000Z</time>
</trkpt>
<trkpt lat="45.8644390" lon="10.2999900">
	<ele>2033.60</ele>
	<time>2025-07-29T09:24:13.000Z</time>
</trkpt>
<trkpt lat="45.8644360" lon="10.3000010">
	<ele>2033.80</ele>
	<time>2025-07-29T09:24:14.000Z</time>
</trkpt>
<trkpt lat="45.8644340" lon="10.3000070">
	<ele>2034.00</ele>
	<time>2025-07-29T09:24:15.000Z</time>
</trkpt>
<trkpt lat="45.8644320" lon="10.3000180">
	<ele>2034.20</ele>
	<time>2025-07-29T09:24:16.000Z</time>
</trkpt>
<trkpt lat="45.8644290" lon="10.3000220">
	<ele>2034.40</ele>
	<time>2025-07-29T09:24:17.000Z</time>
</trkpt>
<trkpt lat="45.8644270" lon="10.3000260">
	<ele>2034.60</ele>
	<time>2025-07-29T09:24:18.000Z</time>
</trkpt>
<trkpt lat="45.8644230" lon="10.3000340">
	<ele>2035.00</ele>
	<time>2025-07-29T09:24:19.000Z</time>
</trkpt>
<trkpt lat="45.8644200" lon="10.3000420">
	<ele>2035.20</ele>
	<time>2025-07-29T09:24:20.000Z</time>
</trkpt>
<trkpt lat="45.8644190" lon="10.3000560">
	<ele>2035.20</ele>
	<time>2025-07-29T09:24:21.000Z</time>
</trkpt>
<trkpt lat="45.8644190" lon="10.3000670">
	<ele>2035.40</ele>
	<time>2025-07-29T09:24:22.000Z</time>
</trkpt>
<trkpt lat="45.8644180" lon="10.3000770">
	<ele>2035.40</ele>
	<time>2025-07-29T09:24:23.000Z</time>
</trkpt>
<trkpt lat="45.8644160" lon="10.3000860">
	<ele>2035.60</ele>
	<time>2025-07-29T09:24:24.000Z</time>
</trkpt>
<trkpt lat="45.8644160" lon="10.3000980">
	<ele>2035.80</ele>
	<time>2025-07-29T09:24:25.000Z</time>
</trkpt>
<trkpt lat="45.8644140" lon="10.3001140">
	<ele>2035.80</ele>
	<time>2025-07-29T09:24:26.000Z</time>
</trkpt>
<trkpt lat="45.8644130" lon="10.3001300">
	<ele>2036.00</ele>
	<time>2025-07-29T09:24:27.000Z</time>
</trkpt>
<trkpt lat="45.8644080" lon="10.3001430">
	<ele>2036.20</ele>
	<time>2025-07-29T09:24:28.000Z</time>
</trkpt>
<trkpt lat="45.8644030" lon="10.3001560">
	<ele>2036.20</ele>
	<time>2025-07-29T09:24:29.000Z</time>
</trkpt>
<trkpt lat="45.8643980" lon="10.3001690">
	<ele>2036.40</ele>
	<time>2025-07-29T09:24:30.000Z</time>
</trkpt>
<trkpt lat="45.8643930" lon="10.3001790">
	<ele>2036.40</ele>
	<time>2025-07-29T09:24:31.000Z</time>
</trkpt>
<trkpt lat="45.8643850" lon="10.3001880">
	<ele>2036.40</ele>
	<time>2025-07-29T09:24:32.000Z</time>
</trkpt>
<trkpt lat="45.8643820" lon="10.3001990">
	<ele>2036.40</ele>
	<time>2025-07-29T09:24:33.000Z</time>
</trkpt>
<trkpt lat="45.8643780" lon="10.3002080">
	<ele>2036.60</ele>
	<time>2025-07-29T09:24:34.000Z</time>
</trkpt>
<trkpt lat="45.8643750" lon="10.3002180">
	<ele>2036.60</ele>
	<time>2025-07-29T09:24:35.000Z</time>
</trkpt>
<trkpt lat="45.8643700" lon="10.3002300">
	<ele>2036.60</ele>
	<time>2025-07-29T09:24:36.000Z</time>
</trkpt>
<trkpt lat="45.8643670" lon="10.3002410">
	<ele>2036.80</ele>
	<time>2025-07-29T09:24:37.000Z</time>
</trkpt>
<trkpt lat="45.8643660" lon="10.3002530">
	<ele>2037.00</ele>
	<time>2025-07-29T09:24:38.000Z</time>
</trkpt>
<trkpt lat="45.8643630" lon="10.3002650">
	<ele>2037.40</ele>
	<time>2025-07-29T09:24:39.000Z</time>
</trkpt>
<trkpt lat="45.8643590" lon="10.3002760">
	<ele>2037.60</ele>
	<time>2025-07-29T09:24:40.000Z</time>
</trkpt>
<trkpt lat="45.8643550" lon="10.3002870">
	<ele>2037.60</ele>
	<time>2025-07-29T09:24:41.000Z</time>
</trkpt>
<trkpt lat="45.8643510" lon="10.3002990">
	<ele>2037.80</ele>
	<time>2025-07-29T09:24:42.000Z</time>
</trkpt>
<trkpt lat="45.8643470" lon="10.3003110">
	<ele>2037.80</ele>
	<time>2025-07-29T09:24:43.000Z</time>
</trkpt>
<trkpt lat="45.8643420" lon="10.3003220">
	<ele>2038.00</ele>
	<time>2025-07-29T09:24:44.000Z</time>
</trkpt>
<trkpt lat="45.8643390" lon="10.3003290">
	<ele>2038.00</ele>
	<time>2025-07-29T09:24:45.000Z</time>
</trkpt>
<trkpt lat="45.8643310" lon="10.3003320">
	<ele>2038.20</ele>
	<time>2025-07-29T09:24:46.000Z</time>
</trkpt>
<trkpt lat="45.8643250" lon="10.3003380">
	<ele>2038.60</ele>
	<time>2025-07-29T09:24:47.000Z</time>
</trkpt>
<trkpt lat="45.8643210" lon="10.3003460">
	<ele>2038.80</ele>
	<time>2025-07-29T09:24:48.000Z</time>
</trkpt>
<trkpt lat="45.8643160" lon="10.3003550">
	<ele>2039.00</ele>
	<time>2025-07-29T09:24:49.000Z</time>
</trkpt>
<trkpt lat="45.8643080" lon="10.3003670">
	<ele>2039.20</ele>
	<time>2025-07-29T09:24:50.000Z</time>
</trkpt>
<trkpt lat="45.8643030" lon="10.3003800">
	<ele>2039.60</ele>
	<time>2025-07-29T09:24:51.000Z</time>
</trkpt>
<trkpt lat="45.8642990" lon="10.3003950">
	<ele>2039.80</ele>
	<time>2025-07-29T09:24:52.000Z</time>
</trkpt>
<trkpt lat="45.8642940" lon="10.3004080">
	<ele>2040.00</ele>
	<time>2025-07-29T09:24:53.000Z</time>
</trkpt>
<trkpt lat="45.8642890" lon="10.3004230">
	<ele>2040.20</ele>
	<time>2025-07-29T09:24:54.000Z</time>
</trkpt>
<trkpt lat="45.8642840" lon="10.3004360">
	<ele>2040.20</ele>
	<time>2025-07-29T09:24:55.000Z</time>
</trkpt>
<trkpt lat="45.8642770" lon="10.3004460">
	<ele>2040.40</ele>
	<time>2025-07-29T09:24:56.000Z</time>
</trkpt>
<trkpt lat="45.8642690" lon="10.3004590">
	<ele>2040.40</ele>
	<time>2025-07-29T09:24:57.000Z</time>
</trkpt>
<trkpt lat="45.8642610" lon="10.3004730">
	<ele>2040.60</ele>
	<time>2025-07-29T09:24:58.000Z</time>
</trkpt>
<trkpt lat="45.8642560" lon="10.3004850">
	<ele>2040.60</ele>
	<time>2025-07-29T09:24:59.000Z</time>
</trkpt>
<trkpt lat="45.8642520" lon="10.3004950">
	<ele>2040.60</ele>
	<time>2025-07-29T09:25:00.000Z</time>
</trkpt>
<trkpt lat="45.8642470" lon="10.3005050">
	<ele>2040.60</ele>
	<time>2025-07-29T09:25:01.000Z</time>
</trkpt>
<trkpt lat="45.8642420" lon="10.3005160">
	<ele>2040.80</ele>
	<time>2025-07-29T09:25:02.000Z</time>
</trkpt>
<trkpt lat="45.8642360" lon="10.3005310">
	<ele>2040.80</ele>
	<time>2025-07-29T09:25:03.000Z</time>
</trkpt>
<trkpt lat="45.8642290" lon="10.3005470">
	<ele>2040.80</ele>
	<time>2025-07-29T09:25:04.000Z</time>
</trkpt>
<trkpt lat="45.8642200" lon="10.3005600">
	<ele>2040.80</ele>
	<time>2025-07-29T09:25:05.000Z</time>
</trkpt>
<trkpt lat="45.8642110" lon="10.3005720">
	<ele>2041.00</ele>
	<time>2025-07-29T09:25:06.000Z</time>
</trkpt>
<trkpt lat="45.8642030" lon="10.3005800">
	<ele>2041.00</ele>
	<time>2025-07-29T09:25:07.000Z</time>
</trkpt>
<trkpt lat="45.8641930" lon="10.3005910">
	<ele>2041.00</ele>
	<time>2025-07-29T09:25:08.000Z</time>
</trkpt>
<trkpt lat="45.8641840" lon="10.3006040">
	<ele>2041.00</ele>
	<time>2025-07-29T09:25:09.000Z</time>
</trkpt>
<trkpt lat="45.8641790" lon="10.3006220">
	<ele>2041.20</ele>
	<time>2025-07-29T09:25:10.000Z</time>
</trkpt>
<trkpt lat="45.8641760" lon="10.3006390">
	<ele>2041.20</ele>
	<time>2025-07-29T09:25:11.000Z</time>
</trkpt>
<trkpt lat="45.8641760" lon="10.3006560">
	<ele>2041.40</ele>
	<time>2025-07-29T09:25:12.000Z</time>
</trkpt>
<trkpt lat="45.8641750" lon="10.3006740">
	<ele>2041.40</ele>
	<time>2025-07-29T09:25:13.000Z</time>
</trkpt>
<trkpt lat="45.8641700" lon="10.3006890">
	<ele>2041.40</ele>
	<time>2025-07-29T09:25:14.000Z</time>
</trkpt>
<trkpt lat="45.8641660" lon="10.3007040">
	<ele>2041.40</ele>
	<time>2025-07-29T09:25:15.000Z</time>
</trkpt>
<trkpt lat="45.8641600" lon="10.3007200">
	<ele>2041.60</ele>
	<time>2025-07-29T09:25:16.000Z</time>
</trkpt>
<trkpt lat="45.8641570" lon="10.3007360">
	<ele>2041.60</ele>
	<time>2025-07-29T09:25:17.000Z</time>
</trkpt>
<trkpt lat="45.8641550" lon="10.3007530">
	<ele>2041.60</ele>
	<time>2025-07-29T09:25:18.000Z</time>
</trkpt>
<trkpt lat="45.8641500" lon="10.3007650">
	<ele>2041.60</ele>
	<time>2025-07-29T09:25:19.000Z</time>
</trkpt>
<trkpt lat="45.8641470" lon="10.3007770">
	<ele>2041.80</ele>
	<time>2025-07-29T09:25:20.000Z</time>
</trkpt>
<trkpt lat="45.8641430" lon="10.3007860">
	<ele>2041.80</ele>
	<time>2025-07-29T09:25:21.000Z</time>
</trkpt>
<trkpt lat="45.8641380" lon="10.3007950">
	<ele>2042.00</ele>
	<time>2025-07-29T09:25:22.000Z</time>
</trkpt>
<trkpt lat="45.8641320" lon="10.3008060">
	<ele>2042.00</ele>
	<time>2025-07-29T09:25:23.000Z</time>
</trkpt>
<trkpt lat="45.8641270" lon="10.3008170">
	<ele>2042.00</ele>
	<time>2025-07-29T09:25:24.000Z</time>
</trkpt>
<trkpt lat="45.8641210" lon="10.3008290">
	<ele>2042.20</ele>
	<time>2025-07-29T09:25:25.000Z</time>
</trkpt>
<trkpt lat="45.8641130" lon="10.3008420">
	<ele>2042.20</ele>
	<time>2025-07-29T09:25:26.000Z</time>
</trkpt>
<trkpt lat="45.8641060" lon="10.3008540">
	<ele>2042.20</ele>
	<time>2025-07-29T09:25:27.000Z</time>
</trkpt>
<trkpt lat="45.8641010" lon="10.3008650">
	<ele>2042.20</ele>
	<time>2025-07-29T09:25:28.000Z</time>
</trkpt>
<trkpt lat="45.8640940" lon="10.3008720">
	<ele>2042.20</ele>
	<time>2025-07-29T09:25:29.000Z</time>
</trkpt>
<trkpt lat="45.8640880" lon="10.3008740">
	<ele>2042.20</ele>
	<time>2025-07-29T09:25:30.000Z</time>
</trkpt>
<trkpt lat="45.8640800" lon="10.3008740">
	<ele>2042.20</ele>
	<time>2025-07-29T09:25:31.000Z</time>
</trkpt>
<trkpt lat="45.8640690" lon="10.3008770">
	<ele>2042.20</ele>
	<time>2025-07-29T09:25:32.000Z</time>
</trkpt>
<trkpt lat="45.8640590" lon="10.3008840">
	<ele>2042.00</ele>
	<time>2025-07-29T09:25:33.000Z</time>
</trkpt>
<trkpt lat="45.8640500" lon="10.3008960">
	<ele>2042.00</ele>
	<time>2025-07-29T09:25:34.000Z</time>
</trkpt>
<trkpt lat="45.8640440" lon="10.3009050">
	<ele>2041.80</ele>
	<time>2025-07-29T09:25:35.000Z</time>
</trkpt>
<trkpt lat="45.8640360" lon="10.3009110">
	<ele>2041.80</ele>
	<time>2025-07-29T09:25:36.000Z</time>
</trkpt>
<trkpt lat="45.8640240" lon="10.3009150">
	<ele>2041.40</ele>
	<time>2025-07-29T09:25:37.000Z</time>
</trkpt>
<trkpt lat="45.8640120" lon="10.3009220">
	<ele>2041.40</ele>
	<time>2025-07-29T09:25:38.000Z</time>
</trkpt>
<trkpt lat="45.8640000" lon="10.3009280">
	<ele>2041.20</ele>
	<time>2025-07-29T09:25:39.000Z</time>
</trkpt>
<trkpt lat="45.8639900" lon="10.3009340">
	<ele>2041.20</ele>
	<time>2025-07-29T09:25:40.000Z</time>
</trkpt>
<trkpt lat="45.8639830" lon="10.3009410">
	<ele>2041.00</ele>
	<time>2025-07-29T09:25:41.000Z</time>
</trkpt>
<trkpt lat="45.8639790" lon="10.3009510">
	<ele>2041.00</ele>
	<time>2025-07-29T09:25:42.000Z</time>
</trkpt>
<trkpt lat="45.8639690" lon="10.3009620">
	<ele>2040.80</ele>
	<time>2025-07-29T09:25:43.000Z</time>
</trkpt>
<trkpt lat="45.8639610" lon="10.3009750">
	<ele>2040.40</ele>
	<time>2025-07-29T09:25:44.000Z</time>
</trkpt>
<trkpt lat="45.8639510" lon="10.3009860">
	<ele>2040.40</ele>
	<time>2025-07-29T09:25:45.000Z</time>
</trkpt>
<trkpt lat="45.8639430" lon="10.3009980">
	<ele>2040.00</ele>
	<time>2025-07-29T09:25:46.000Z</time>
</trkpt>
<trkpt lat="45.8639350" lon="10.3010110">
	<ele>2039.80</ele>
	<time>2025-07-29T09:25:47.000Z</time>
</trkpt>
<trkpt lat="45.8639270" lon="10.3010230">
	<ele>2039.80</ele>
	<time>2025-07-29T09:25:48.000Z</time>
</trkpt>
<trkpt lat="45.8639180" lon="10.3010340">
	<ele>2039.60</ele>
	<time>2025-07-29T09:25:49.000Z</time>
</trkpt>
<trkpt lat="45.8639100" lon="10.3010440">
	<ele>2039.60</ele>
	<time>2025-07-29T09:25:50.000Z</time>
</trkpt>
<trkpt lat="45.8638990" lon="10.3010560">
	<ele>2039.60</ele>
	<time>2025-07-29T09:25:51.000Z</time>
</trkpt>
<trkpt lat="45.8638920" lon="10.3010720">
	<ele>2039.40</ele>
	<time>2025-07-29T09:25:52.000Z</time>
</trkpt>
<trkpt lat="45.8638850" lon="10.3010890">
	<ele>2039.20</ele>
	<time>2025-07-29T09:25:53.000Z</time>
</trkpt>
<trkpt lat="45.8638770" lon="10.3011020">
	<ele>2039.00</ele>
	<time>2025-07-29T09:25:54.000Z</time>
</trkpt>
<trkpt lat="45.8638710" lon="10.3011090">
	<ele>2039.00</ele>
	<time>2025-07-29T09:25:55.000Z</time>
</trkpt>
<trkpt lat="45.8638620" lon="10.3011240">
	<ele>2039.00</ele>
	<time>2025-07-29T09:25:56.000Z</time>
</trkpt>
<trkpt lat="45.8638550" lon="10.3011400">
	<ele>2038.80</ele>
	<time>2025-07-29T09:25:57.000Z</time>
</trkpt>
<trkpt lat="45.8638500" lon="10.3011560">
	<ele>2038.60</ele>
	<time>2025-07-29T09:25:58.000Z</time>
</trkpt>
<trkpt lat="45.8638470" lon="10.3011700">
	<ele>2038.60</ele>
	<time>2025-07-29T09:25:59.000Z</time>
</trkpt>
<trkpt lat="45.8638420" lon="10.3011820">
	<ele>2038.40</ele>
	<time>2025-07-29T09:26:00.000Z</time>
</trkpt>
<trkpt lat="45.8638400" lon="10.3011890">
	<ele>2038.40</ele>
	<time>2025-07-29T09:26:01.000Z</time>
</trkpt>
<trkpt lat="45.8638450" lon="10.3011910">
	<ele>2038.40</ele>
	<time>2025-07-29T09:26:02.000Z</time>
</trkpt>
<trkpt lat="45.8638490" lon="10.3011900">
	<ele>2038.20</ele>
	<time>2025-07-29T09:26:03.000Z</time>
</trkpt>
<trkpt lat="45.8638520" lon="10.3011920">
	<ele>2038.20</ele>
	<time>2025-07-29T09:26:04.000Z</time>
</trkpt>
<trkpt lat="45.8638520" lon="10.3012000">
	<ele>2038.00</ele>
	<time>2025-07-29T09:26:05.000Z</time>
</trkpt>
<trkpt lat="45.8638510" lon="10.3012080">
	<ele>2038.00</ele>
	<time>2025-07-29T09:26:06.000Z</time>
</trkpt>
<trkpt lat="45.8638510" lon="10.3012160">
	<ele>2037.80</ele>
	<time>2025-07-29T09:26:07.000Z</time>
</trkpt>
<trkpt lat="45.8638500" lon="10.3012230">
	<ele>2037.80</ele>
	<time>2025-07-29T09:26:08.000Z</time>
</trkpt>
<trkpt lat="45.8638490" lon="10.3012290">
	<ele>2037.60</ele>
	<time>2025-07-29T09:26:09.000Z</time>
</trkpt>
<trkpt lat="45.8638470" lon="10.3012320">
	<ele>2037.60</ele>
	<time>2025-07-29T09:26:10.000Z</time>
</trkpt>
<trkpt lat="45.8638450" lon="10.3012360">
	<ele>2037.40</ele>
	<time>2025-07-29T09:26:11.000Z</time>
</trkpt>
<trkpt lat="45.8638430" lon="10.3012430">
	<ele>2037.20</ele>
	<time>2025-07-29T09:26:12.000Z</time>
</trkpt>
<trkpt lat="45.8638440" lon="10.3012510">
	<ele>2037.20</ele>
	<time>2025-07-29T09:26:13.000Z</time>
</trkpt>
<trkpt lat="45.8638430" lon="10.3012590">
	<ele>2037.00</ele>
	<time>2025-07-29T09:26:14.000Z</time>
</trkpt>
<trkpt lat="45.8638410" lon="10.3012660">
	<ele>2037.00</ele>
	<time>2025-07-29T09:26:15.000Z</time>
</trkpt>
<trkpt lat="45.8638410" lon="10.3012720">
	<ele>2037.00</ele>
	<time>2025-07-29T09:26:16.000Z</time>
</trkpt>
<trkpt lat="45.8638410" lon="10.3012780">
	<ele>2036.80</ele>
	<time>2025-07-29T09:26:17.000Z</time>
</trkpt>
<trkpt lat="45.8638390" lon="10.3012820">
	<ele>2036.80</ele>
	<time>2025-07-29T09:26:18.000Z</time>
</trkpt>
<trkpt lat="45.8638350" lon="10.3012890">
	<ele>2036.60</ele>
	<time>2025-07-29T09:26:19.000Z</time>
</trkpt>
<trkpt lat="45.8638300" lon="10.3012960">
	<ele>2036.60</ele>
	<time>2025-07-29T09:26:20.000Z</time>
</trkpt>
<trkpt lat="45.8638260" lon="10.3013000">
	<ele>2036.60</ele>
	<time>2025-07-29T09:26:21.000Z</time>
</trkpt>
<trkpt lat="45.8638230" lon="10.3013050">
	<ele>2036.40</ele>
	<time>2025-07-29T09:26:22.000Z</time>
</trkpt>
<trkpt lat="45.8638240" lon="10.3013050">
	<ele>2036.20</ele>
	<time>2025-07-29T09:26:23.000Z</time>
</trkpt>
<trkpt lat="45.8638240" lon="10.3013070">
	<ele>2036.20</ele>
	<time>2025-07-29T09:26:24.000Z</time>
</trkpt>
<trkpt lat="45.8638230" lon="10.3013100">
	<ele>2036.40</ele>
	<time>2025-07-29T09:26:25.000Z</time>
</trkpt>
<trkpt lat="45.8638210" lon="10.3013130">
	<ele>2036.40</ele>
	<time>2025-07-29T09:26:26.000Z</time>
</trkpt>
<trkpt lat="45.8638210" lon="10.3013110">
	<ele>2036.20</ele>
	<time>2025-07-29T09:26:27.000Z</time>
</trkpt>
<trkpt lat="45.8638150" lon="10.3013190">
	<ele>2036.20</ele>
	<time>2025-07-29T09:26:28.000Z</time>
</trkpt>
<trkpt lat="45.8638100" lon="10.3013280">
	<ele>2036.20</ele>
	<time>2025-07-29T09:26:29.000Z</time>
</trkpt>
<trkpt lat="45.8638070" lon="10.3013340">
	<ele>2036.00</ele>
	<time>2025-07-29T09:26:30.000Z</time>
</trkpt>
<trkpt lat="45.8638060" lon="10.3013400">
	<ele>2036.00</ele>
	<time>2025-07-29T09:26:31.000Z</time>
</trkpt>
<trkpt lat="45.8638060" lon="10.3013430">
	<ele>2035.60</ele>
	<time>2025-07-29T09:26:32.000Z</time>
</trkpt>
<trkpt lat="45.8638060" lon="10.3013480">
	<ele>2035.40</ele>
	<time>2025-07-29T09:26:33.000Z</time>
</trkpt>
<trkpt lat="45.8638050" lon="10.3013520">
	<ele>2035.20</ele>
	<time>2025-07-29T09:26:34.000Z</time>
</trkpt>
<trkpt lat="45.8638010" lon="10.3013560">
	<ele>2034.80</ele>
	<time>2025-07-29T09:26:35.000Z</time>
</trkpt>
<trkpt lat="45.8637970" lon="10.3013620">
	<ele>2034.40</ele>
	<time>2025-07-29T09:26:36.000Z</time>
</trkpt>
<trkpt lat="45.8637930" lon="10.3013670">
	<ele>2034.20</ele>
	<time>2025-07-29T09:26:37.000Z</time>
</trkpt>
<trkpt lat="45.8637890" lon="10.3013740">
	<ele>2034.00</ele>
	<time>2025-07-29T09:26:38.000Z</time>
</trkpt>
<trkpt lat="45.8637810" lon="10.3013800">
	<ele>2033.40</ele>
	<time>2025-07-29T09:26:39.000Z</time>
</trkpt>
<trkpt lat="45.8637730" lon="10.3013860">
	<ele>2033.20</ele>
	<time>2025-07-29T09:26:40.000Z</time>
</trkpt>
<trkpt lat="45.8637670" lon="10.3013920">
	<ele>2032.80</ele>
	<time>2025-07-29T09:26:41.000Z</time>
</trkpt>
<trkpt lat="45.8637600" lon="10.3013970">
	<ele>2032.40</ele>
	<time>2025-07-29T09:26:42.000Z</time>
</trkpt>
<trkpt lat="45.8637500" lon="10.3014010">
	<ele>2032.20</ele>
	<time>2025-07-29T09:26:43.000Z</time>
</trkpt>
<trkpt lat="45.8637410" lon="10.3014050">
	<ele>2032.00</ele>
	<time>2025-07-29T09:26:44.000Z</time>
</trkpt>
<trkpt lat="45.8637320" lon="10.3014050">
	<ele>2032.00</ele>
	<time>2025-07-29T09:26:45.000Z</time>
</trkpt>
<trkpt lat="45.8637240" lon="10.3014030">
	<ele>2031.80</ele>
	<time>2025-07-29T09:26:46.000Z</time>
</trkpt>
<trkpt lat="45.8637200" lon="10.3014010">
	<ele>2031.60</ele>
	<time>2025-07-29T09:26:47.000Z</time>
</trkpt>
<trkpt lat="45.8637170" lon="10.3014060">
	<ele>2031.60</ele>
	<time>2025-07-29T09:26:48.000Z</time>
</trkpt>
<trkpt lat="45.8637120" lon="10.3014090">
	<ele>2031.40</ele>
	<time>2025-07-29T09:26:49.000Z</time>
</trkpt>
<trkpt lat="45.8637060" lon="10.3014120">
	<ele>2031.20</ele>
	<time>2025-07-29T09:26:50.000Z</time>
</trkpt>
<trkpt lat="45.8637010" lon="10.3014160">
	<ele>2031.00</ele>
	<time>2025-07-29T09:26:51.000Z</time>
</trkpt>
<trkpt lat="45.8636970" lon="10.3014200">
	<ele>2031.00</ele>
	<time>2025-07-29T09:26:52.000Z</time>
</trkpt>
<trkpt lat="45.8636960" lon="10.3014240">
	<ele>2030.80</ele>
	<time>2025-07-29T09:26:53.000Z</time>
</trkpt>
<trkpt lat="45.8636930" lon="10.3014270">
	<ele>2030.60</ele>
	<time>2025-07-29T09:26:54.000Z</time>
</trkpt>
<trkpt lat="45.8636870" lon="10.3014260">
	<ele>2030.40</ele>
	<time>2025-07-29T09:26:55.000Z</time>
</trkpt>
<trkpt lat="45.8636830" lon="10.3014260">
	<ele>2029.80</ele>
	<time>2025-07-29T09:26:56.000Z</time>
</trkpt>
<trkpt lat="45.8636780" lon="10.3014260">
	<ele>2029.60</ele>
	<time>2025-07-29T09:26:57.000Z</time>
</trkpt>
<trkpt lat="45.8636730" lon="10.3014310">
	<ele>2029.40</ele>
	<time>2025-07-29T09:26:58.000Z</time>
</trkpt>
<trkpt lat="45.8636670" lon="10.3014380">
	<ele>2029.00</ele>
	<time>2025-07-29T09:26:59.000Z</time>
</trkpt>
<trkpt lat="45.8636600" lon="10.3014490">
	<ele>2028.60</ele>
	<time>2025-07-29T09:27:00.000Z</time>
</trkpt>
<trkpt lat="45.8636550" lon="10.3014610">
	<ele>2028.40</ele>
	<time>2025-07-29T09:27:01.000Z</time>
</trkpt>
<trkpt lat="45.8636480" lon="10.3014690">
	<ele>2028.00</ele>
	<time>2025-07-29T09:27:02.000Z</time>
</trkpt>
<trkpt lat="45.8636420" lon="10.3014760">
	<ele>2027.80</ele>
	<time>2025-07-29T09:27:03.000Z</time>
</trkpt>
<trkpt lat="45.8636370" lon="10.3014870">
	<ele>2027.80</ele>
	<time>2025-07-29T09:27:04.000Z</time>
</trkpt>
<trkpt lat="45.8636300" lon="10.3014940">
	<ele>2027.60</ele>
	<time>2025-07-29T09:27:05.000Z</time>
</trkpt>
<trkpt lat="45.8636250" lon="10.3015030">
	<ele>2027.40</ele>
	<time>2025-07-29T09:27:06.000Z</time>
</trkpt>
<trkpt lat="45.8636200" lon="10.3015100">
	<ele>2027.20</ele>
	<time>2025-07-29T09:27:07.000Z</time>
</trkpt>
<trkpt lat="45.8636150" lon="10.3015140">
	<ele>2027.00</ele>
	<time>2025-07-29T09:27:08.000Z</time>
</trkpt>
<trkpt lat="45.8636100" lon="10.3015190">
	<ele>2026.80</ele>
	<time>2025-07-29T09:27:09.000Z</time>
</trkpt>
<trkpt lat="45.8636030" lon="10.3015200">
	<ele>2026.40</ele>
	<time>2025-07-29T09:27:10.000Z</time>
</trkpt>
<trkpt lat="45.8635990" lon="10.3015210">
	<ele>2026.20</ele>
	<time>2025-07-29T09:27:11.000Z</time>
</trkpt>
<trkpt lat="45.8635960" lon="10.3015270">
	<ele>2026.20</ele>
	<time>2025-07-29T09:27:12.000Z</time>
</trkpt>
<trkpt lat="45.8635930" lon="10.3015340">
	<ele>2025.80</ele>
	<time>2025-07-29T09:27:13.000Z</time>
</trkpt>
<trkpt lat="45.8635890" lon="10.3015420">
	<ele>2025.60</ele>
	<time>2025-07-29T09:27:14.000Z</time>
</trkpt>
<trkpt lat="45.8635850" lon="10.3015530">
	<ele>2025.40</ele>
	<time>2025-07-29T09:27:15.000Z</time>
</trkpt>
<trkpt lat="45.8635780" lon="10.3015590">
	<ele>2025.20</ele>
	<time>2025-07-29T09:27:16.000Z</time>
</trkpt>
<trkpt lat="45.8635730" lon="10.3015670">
	<ele>2025.00</ele>
	<time>2025-07-29T09:27:17.000Z</time>
</trkpt>
<trkpt lat="45.8635690" lon="10.3015760">
	<ele>2024.80</ele>
	<time>2025-07-29T09:27:18.000Z</time>
</trkpt>
<trkpt lat="45.8635650" lon="10.3015870">
	<ele>2024.60</ele>
	<time>2025-07-29T09:27:19.000Z</time>
</trkpt>
<trkpt lat="45.8635590" lon="10.3015960">
	<ele>2024.60</ele>
	<time>2025-07-29T09:27:20.000Z</time>
</trkpt>
<trkpt lat="45.8635520" lon="10.3016040">
	<ele>2024.20</ele>
	<time>2025-07-29T09:27:21.000Z</time>
</trkpt>
<trkpt lat="45.8635470" lon="10.3016130">
	<ele>2024.00</ele>
	<time>2025-07-29T09:27:22.000Z</time>
</trkpt>
<trkpt lat="45.8635430" lon="10.3016240">
	<ele>2023.80</ele>
	<time>2025-07-29T09:27:23.000Z</time>
</trkpt>
<trkpt lat="45.8635370" lon="10.3016330">
	<ele>2023.60</ele>
	<time>2025-07-29T09:27:24.000Z</time>
</trkpt>
<trkpt lat="45.8635320" lon="10.3016390">
	<ele>2023.20</ele>
	<time>2025-07-29T09:27:25.000Z</time>
</trkpt>
<trkpt lat="45.8635270" lon="10.3016460">
	<ele>2023.00</ele>
	<time>2025-07-29T09:27:26.000Z</time>
</trkpt>
<trkpt lat="45.8635220" lon="10.3016520">
	<ele>2022.60</ele>
	<time>2025-07-29T09:27:27.000Z</time>
</trkpt>
<trkpt lat="45.8635180" lon="10.3016590">
	<ele>2022.60</ele>
	<time>2025-07-29T09:27:28.000Z</time>
</trkpt>
<trkpt lat="45.8635140" lon="10.3016650">
	<ele>2022.40</ele>
	<time>2025-07-29T09:27:29.000Z</time>
</trkpt>
<trkpt lat="45.8635090" lon="10.3016740">
	<ele>2022.00</ele>
	<time>2025-07-29T09:27:30.000Z</time>
</trkpt>
<trkpt lat="45.8635010" lon="10.3016780">
	<ele>2021.80</ele>
	<time>2025-07-29T09:27:31.000Z</time>
</trkpt>
<trkpt lat="45.8634910" lon="10.3016820">
	<ele>2021.60</ele>
	<time>2025-07-29T09:27:32.000Z</time>
</trkpt>
<trkpt lat="45.8634810" lon="10.3016840">
	<ele>2021.40</ele>
	<time>2025-07-29T09:27:33.000Z</time>
</trkpt>
<trkpt lat="45.8634710" lon="10.3016890">
	<ele>2021.20</ele>
	<time>2025-07-29T09:27:34.000Z</time>
</trkpt>
<trkpt lat="45.8634660" lon="10.3016920">
	<ele>2021.20</ele>
	<time>2025-07-29T09:27:35.000Z</time>
</trkpt>
<trkpt lat="45.8634600" lon="10.3016950">
	<ele>2021.00</ele>
	<time>2025-07-29T09:27:36.000Z</time>
</trkpt>
<trkpt lat="45.8634520" lon="10.3016950">
	<ele>2020.80</ele>
	<time>2025-07-29T09:27:37.000Z</time>
</trkpt>
<trkpt lat="45.8634450" lon="10.3016980">
	<ele>2020.60</ele>
	<time>2025-07-29T09:27:38.000Z</time>
</trkpt>
<trkpt lat="45.8634360" lon="10.3017050">
	<ele>2020.20</ele>
	<time>2025-07-29T09:27:39.000Z</time>
</trkpt>
<trkpt lat="45.8634280" lon="10.3017140">
	<ele>2019.80</ele>
	<time>2025-07-29T09:27:40.000Z</time>
</trkpt>
<trkpt lat="45.8634210" lon="10.3017160">
	<ele>2019.40</ele>
	<time>2025-07-29T09:27:41.000Z</time>
</trkpt>
<trkpt lat="45.8634150" lon="10.3017180">
	<ele>2019.00</ele>
	<time>2025-07-29T09:27:42.000Z</time>
</trkpt>
<trkpt lat="45.8634100" lon="10.3017190">
	<ele>2018.80</ele>
	<time>2025-07-29T09:27:43.000Z</time>
</trkpt>
<trkpt lat="45.8634060" lon="10.3017230">
	<ele>2018.60</ele>
	<time>2025-07-29T09:27:44.000Z</time>
</trkpt>
<trkpt lat="45.8634020" lon="10.3017280">
	<ele>2018.20</ele>
	<time>2025-07-29T09:27:45.000Z</time>
</trkpt>
<trkpt lat="45.8633960" lon="10.3017390">
	<ele>2018.20</ele>
	<time>2025-07-29T09:27:46.000Z</time>
</trkpt>
<trkpt lat="45.8633930" lon="10.3017420">
	<ele>2018.00</ele>
	<time>2025-07-29T09:27:47.000Z</time>
</trkpt>
<trkpt lat="45.8633910" lon="10.3017450">
	<ele>2018.00</ele>
	<time>2025-07-29T09:27:48.000Z</time>
</trkpt>
<trkpt lat="45.8633890" lon="10.3017480">
	<ele>2017.60</ele>
	<time>2025-07-29T09:27:49.000Z</time>
</trkpt>
<trkpt lat="45.8633850" lon="10.3017540">
	<ele>2017.60</ele>
	<time>2025-07-29T09:27:50.000Z</time>
</trkpt>
<trkpt lat="45.8633830" lon="10.3017640">
	<ele>2017.40</ele>
	<time>2025-07-29T09:27:51.000Z</time>
</trkpt>
<trkpt lat="45.8633810" lon="10.3017730">
	<ele>2017.20</ele>
	<time>2025-07-29T09:27:52.000Z</time>
</trkpt>
<trkpt lat="45.8633790" lon="10.3017820">
	<ele>2017.20</ele>
	<time>2025-07-29T09:27:53.000Z</time>
</trkpt>
<trkpt lat="45.8633770" lon="10.3017900">
	<ele>2016.80</ele>
	<time>2025-07-29T09:27:54.000Z</time>
</trkpt>
<trkpt lat="45.8633740" lon="10.3017940">
	<ele>2016.80</ele>
	<time>2025-07-29T09:27:55.000Z</time>
</trkpt>
<trkpt lat="45.8633680" lon="10.3017940">
	<ele>2016.40</ele>
	<time>2025-07-29T09:27:56.000Z</time>
</trkpt>
<trkpt lat="45.8633610" lon="10.3017920">
	<ele>2016.20</ele>
	<time>2025-07-29T09:27:57.000Z</time>
</trkpt>
<trkpt lat="45.8633590" lon="10.3017950">
	<ele>2016.00</ele>
	<time>2025-07-29T09:27:58.000Z</time>
</trkpt>
<trkpt lat="45.8633550" lon="10.3017980">
	<ele>2016.00</ele>
	<time>2025-07-29T09:27:59.000Z</time>
</trkpt>
<trkpt lat="45.8633520" lon="10.3018000">
	<ele>2015.80</ele>
	<time>2025-07-29T09:28:00.000Z</time>
</trkpt>
<trkpt lat="45.8633490" lon="10.3018010">
	<ele>2015.40</ele>
	<time>2025-07-29T09:28:01.000Z</time>
</trkpt>
<trkpt lat="45.8633450" lon="10.3018040">
	<ele>2015.00</ele>
	<time>2025-07-29T09:28:02.000Z</time>
</trkpt>
<trkpt lat="45.8633400" lon="10.3018050">
	<ele>2014.80</ele>
	<time>2025-07-29T09:28:03.000Z</time>
</trkpt>
<trkpt lat="45.8633350" lon="10.3018040">
	<ele>2014.60</ele>
	<time>2025-07-29T09:28:04.000Z</time>
</trkpt>
<trkpt lat="45.8633260" lon="10.3017990">
	<ele>2014.40</ele>
	<time>2025-07-29T09:28:05.000Z</time>
</trkpt>
<trkpt lat="45.8633180" lon="10.3017980">
	<ele>2014.00</ele>
	<time>2025-07-29T09:28:06.000Z</time>
</trkpt>
<trkpt lat="45.8633140" lon="10.3017980">
	<ele>2013.80</ele>
	<time>2025-07-29T09:28:07.000Z</time>
</trkpt>
<trkpt lat="45.8633090" lon="10.3017960">
	<ele>2013.60</ele>
	<time>2025-07-29T09:28:08.000Z</time>
</trkpt>
<trkpt lat="45.8633010" lon="10.3017970">
	<ele>2013.40</ele>
	<time>2025-07-29T09:28:09.000Z</time>
</trkpt>
<trkpt lat="45.8632920" lon="10.3018030">
	<ele>2013.20</ele>
	<time>2025-07-29T09:28:10.000Z</time>
</trkpt>
<trkpt lat="45.8632890" lon="10.3018130">
	<ele>2013.00</ele>
	<time>2025-07-29T09:28:11.000Z</time>
</trkpt>
<trkpt lat="45.8632900" lon="10.3018230">
	<ele>2013.00</ele>
	<time>2025-07-29T09:28:12.000Z</time>
</trkpt>
<trkpt lat="45.8632900" lon="10.3018300">
	<ele>2012.80</ele>
	<time>2025-07-29T09:28:13.000Z</time>
</trkpt>
<trkpt lat="45.8632900" lon="10.3018360">
	<ele>2012.60</ele>
	<time>2025-07-29T09:28:14.000Z</time>
</trkpt>
<trkpt lat="45.8632900" lon="10.3018380">
	<ele>2012.40</ele>
	<time>2025-07-29T09:28:15.000Z</time>
</trkpt>
<trkpt lat="45.8632880" lon="10.3018390">
	<ele>2012.20</ele>
	<time>2025-07-29T09:28:16.000Z</time>
</trkpt>
<trkpt lat="45.8632860" lon="10.3018390">
	<ele>2012.20</ele>
	<time>2025-07-29T09:28:17.000Z</time>
</trkpt>
<trkpt lat="45.8632820" lon="10.3018380">
	<ele>2012.00</ele>
	<time>2025-07-29T09:28:18.000Z</time>
</trkpt>
<trkpt lat="45.8632800" lon="10.3018390">
	<ele>2011.80</ele>
	<time>2025-07-29T09:28:19.000Z</time>
</trkpt>
<trkpt lat="45.8632750" lon="10.3018430">
	<ele>2011.80</ele>
	<time>2025-07-29T09:28:20.000Z</time>
</trkpt>
<trkpt lat="45.8632700" lon="10.3018510">
	<ele>2011.60</ele>
	<time>2025-07-29T09:28:21.000Z</time>
</trkpt>
<trkpt lat="45.8632670" lon="10.3018570">
	<ele>2011.40</ele>
	<time>2025-07-29T09:28:22.000Z</time>
</trkpt>
<trkpt lat="45.8632660" lon="10.3018630">
	<ele>2011.20</ele>
	<time>2025-07-29T09:28:23.000Z</time>
</trkpt>
<trkpt lat="45.8632630" lon="10.3018670">
	<ele>2010.80</ele>
	<time>2025-07-29T09:28:24.000Z</time>
</trkpt>
<trkpt lat="45.8632610" lon="10.3018740">
	<ele>2010.20</ele>
	<time>2025-07-29T09:28:25.000Z</time>
</trkpt>
<trkpt lat="45.8632570" lon="10.3018780">
	<ele>2010.00</ele>
	<time>2025-07-29T09:28:26.000Z</time>
</trkpt>
<trkpt lat="45.8632520" lon="10.3018780">
	<ele>2009.60</ele>
	<time>2025-07-29T09:28:27.000Z</time>
</trkpt>
<trkpt lat="45.8632480" lon="10.3018820">
	<ele>2009.40</ele>
	<time>2025-07-29T09:28:28.000Z</time>
</trkpt>
<trkpt lat="45.8632430" lon="10.3018850">
	<ele>2009.00</ele>
	<time>2025-07-29T09:28:29.000Z</time>
</trkpt>
<trkpt lat="45.8632410" lon="10.3018890">
	<ele>2009.00</ele>
	<time>2025-07-29T09:28:30.000Z</time>
</trkpt>
<trkpt lat="45.8632360" lon="10.3018940">
	<ele>2008.80</ele>
	<time>2025-07-29T09:28:31.000Z</time>
</trkpt>
<trkpt lat="45.8632300" lon="10.3018960">
	<ele>2008.60</ele>
	<time>2025-07-29T09:28:32.000Z</time>
</trkpt>
<trkpt lat="45.8632270" lon="10.3019020">
	<ele>2008.40</ele>
	<time>2025-07-29T09:28:33.000Z</time>
</trkpt>
<trkpt lat="45.8632220" lon="10.3019040">
	<ele>2008.20</ele>
	<time>2025-07-29T09:28:34.000Z</time>
</trkpt>
<trkpt lat="45.8632200" lon="10.3019120">
	<ele>2008.00</ele>
	<time>2025-07-29T09:28:35.000Z</time>
</trkpt>
<trkpt lat="45.8632160" lon="10.3019210">
	<ele>2007.60</ele>
	<time>2025-07-29T09:28:36.000Z</time>
</trkpt>
<trkpt lat="45.8632110" lon="10.3019240">
	<ele>2007.20</ele>
	<time>2025-07-29T09:28:37.000Z</time>
</trkpt>
<trkpt lat="45.8632040" lon="10.3019260">
	<ele>2006.80</ele>
	<time>2025-07-29T09:28:38.000Z</time>
</trkpt>
<trkpt lat="45.8631970" lon="10.3019300">
	<ele>2006.20</ele>
	<time>2025-07-29T09:28:39.000Z</time>
</trkpt>
<trkpt lat="45.8631900" lon="10.3019370">
	<ele>2006.00</ele>
	<time>2025-07-29T09:28:40.000Z</time>
</trkpt>
<trkpt lat="45.8631850" lon="10.3019480">
	<ele>2005.80</ele>
	<time>2025-07-29T09:28:41.000Z</time>
</trkpt>
<trkpt lat="45.8631810" lon="10.3019590">
	<ele>2005.60</ele>
	<time>2025-07-29T09:28:42.000Z</time>
</trkpt>
<trkpt lat="45.8631780" lon="10.3019670">
	<ele>2005.40</ele>
	<time>2025-07-29T09:28:43.000Z</time>
</trkpt>
<trkpt lat="45.8631750" lon="10.3019680">
	<ele>2005.40</ele>
	<time>2025-07-29T09:28:44.000Z</time>
</trkpt>
<trkpt lat="45.8631700" lon="10.3019710">
	<ele>2005.20</ele>
	<time>2025-07-29T09:28:45.000Z</time>
</trkpt>
<trkpt lat="45.8631640" lon="10.3019750">
	<ele>2005.00</ele>
	<time>2025-07-29T09:28:46.000Z</time>
</trkpt>
<trkpt lat="45.8631570" lon="10.3019810">
	<ele>2004.40</ele>
	<time>2025-07-29T09:28:47.000Z</time>
</trkpt>
<trkpt lat="45.8631490" lon="10.3019870">
	<ele>2004.20</ele>
	<time>2025-07-29T09:28:48.000Z</time>
</trkpt>
<trkpt lat="45.8631440" lon="10.3019970">
	<ele>2004.00</ele>
	<time>2025-07-29T09:28:49.000Z</time>
</trkpt>
<trkpt lat="45.8631390" lon="10.3020010">
	<ele>2004.00</ele>
	<time>2025-07-29T09:28:50.000Z</time>
</trkpt>
<trkpt lat="45.8631360" lon="10.3020070">
	<ele>2003.80</ele>
	<time>2025-07-29T09:28:51.000Z</time>
</trkpt>
<trkpt lat="45.8631310" lon="10.3020130">
	<ele>2003.60</ele>
	<time>2025-07-29T09:28:52.000Z</time>
</trkpt>
<trkpt lat="45.8631270" lon="10.3020160">
	<ele>2003.40</ele>
	<time>2025-07-29T09:28:53.000Z</time>
</trkpt>
<trkpt lat="45.8631190" lon="10.3020170">
	<ele>2003.00</ele>
	<time>2025-07-29T09:28:54.000Z</time>
</trkpt>
<trkpt lat="45.8631160" lon="10.3020180">
	<ele>2002.60</ele>
	<time>2025-07-29T09:28:55.000Z</time>
</trkpt>
<trkpt lat="45.8631130" lon="10.3020270">
	<ele>2002.40</ele>
	<time>2025-07-29T09:28:56.000Z</time>
</trkpt>
<trkpt lat="45.8631120" lon="10.3020400">
	<ele>2002.20</ele>
	<time>2025-07-29T09:28:57.000Z</time>
</trkpt>
<trkpt lat="45.8631090" lon="10.3020450">
	<ele>2002.20</ele>
	<time>2025-07-29T09:28:58.000Z</time>
</trkpt>
<trkpt lat="45.8631080" lon="10.3020520">
	<ele>2002.00</ele>
	<time>2025-07-29T09:28:59.000Z</time>
</trkpt>
<trkpt lat="45.8631060" lon="10.3020590">
	<ele>2001.80</ele>
	<time>2025-07-29T09:29:00.000Z</time>
</trkpt>
<trkpt lat="45.8631040" lon="10.3020650">
	<ele>2001.40</ele>
	<time>2025-07-29T09:29:01.000Z</time>
</trkpt>
<trkpt lat="45.8631000" lon="10.3020690">
	<ele>2001.20</ele>
	<time>2025-07-29T09:29:02.000Z</time>
</trkpt>
<trkpt lat="45.8630920" lon="10.3020720">
	<ele>2000.80</ele>
	<time>2025-07-29T09:29:03.000Z</time>
</trkpt>
<trkpt lat="45.8630840" lon="10.3020770">
	<ele>2000.60</ele>
	<time>2025-07-29T09:29:04.000Z</time>
</trkpt>
<trkpt lat="45.8630790" lon="10.3020780">
	<ele>2000.40</ele>
	<time>2025-07-29T09:29:05.000Z</time>
</trkpt>
<trkpt lat="45.8630740" lon="10.3020750">
	<ele>2000.20</ele>
	<time>2025-07-29T09:29:06.000Z</time>
</trkpt>
<trkpt lat="45.8630670" lon="10.3020800">
	<ele>2000.00</ele>
	<time>2025-07-29T09:29:07.000Z</time>
</trkpt>
<trkpt lat="45.8630630" lon="10.3020870">
	<ele>1999.60</ele>
	<time>2025-07-29T09:29:08.000Z</time>
</trkpt>
<trkpt lat="45.8630600" lon="10.3020930">
	<ele>1999.40</ele>
	<time>2025-07-29T09:29:09.000Z</time>
</trkpt>
<trkpt lat="45.8630590" lon="10.3020970">
	<ele>1999.20</ele>
	<time>2025-07-29T09:29:10.000Z</time>
</trkpt>
<trkpt lat="45.8630580" lon="10.3020990">
	<ele>1999.20</ele>
	<time>2025-07-29T09:29:11.000Z</time>
</trkpt>
<trkpt lat="45.8630560" lon="10.3021010">
	<ele>1999.00</ele>
	<time>2025-07-29T09:29:12.000Z</time>
</trkpt>
<trkpt lat="45.8630540" lon="10.3021100">
	<ele>1998.80</ele>
	<time>2025-07-29T09:29:13.000Z</time>
</trkpt>
<trkpt lat="45.8630570" lon="10.3021190">
	<ele>1998.60</ele>
	<time>2025-07-29T09:29:14.000Z</time>
</trkpt>
<trkpt lat="45.8630570" lon="10.3021210">
	<ele>1998.60</ele>
	<time>2025-07-29T09:29:15.000Z</time>
</trkpt>
<trkpt lat="45.8630540" lon="10.3021230">
	<ele>1998.00</ele>
	<time>2025-07-29T09:29:16.000Z</time>
</trkpt>
<trkpt lat="45.8630480" lon="10.3021200">
	<ele>1997.60</ele>
	<time>2025-07-29T09:29:17.000Z</time>
</trkpt>
<trkpt lat="45.8630400" lon="10.3021130">
	<ele>1997.40</ele>
	<time>2025-07-29T09:29:18.000Z</time>
</trkpt>
<trkpt lat="45.8630300" lon="10.3021100">
	<ele>1997.20</ele>
	<time>2025-07-29T09:29:19.000Z</time>
</trkpt>
<trkpt lat="45.8630210" lon="10.3021110">
	<ele>1997.00</ele>
	<time>2025-07-29T09:29:20.000Z</time>
</trkpt>
<trkpt lat="45.8630120" lon="10.3021120">
	<ele>1996.80</ele>
	<time>2025-07-29T09:29:21.000Z</time>
</trkpt>
<trkpt lat="45.8630040" lon="10.3021170">
	<ele>1996.60</ele>
	<time>2025-07-29T09:29:22.000Z</time>
</trkpt>
<trkpt lat="45.8630010" lon="10.3021240">
	<ele>1996.40</ele>
	<time>2025-07-29T09:29:23.000Z</time>
</trkpt>
<trkpt lat="45.8630020" lon="10.3021290">
	<ele>1996.20</ele>
	<time>2025-07-29T09:29:24.000Z</time>
</trkpt>
<trkpt lat="45.8630040" lon="10.3021370">
	<ele>1996.00</ele>
	<time>2025-07-29T09:29:25.000Z</time>
</trkpt>
<trkpt lat="45.8630060" lon="10.3021450">
	<ele>1996.00</ele>
	<time>2025-07-29T09:29:26.000Z</time>
</trkpt>
<trkpt lat="45.8630090" lon="10.3021540">
	<ele>1995.80</ele>
	<time>2025-07-29T09:29:27.000Z</time>
</trkpt>
<trkpt lat="45.8630100" lon="10.3021590">
	<ele>1995.40</ele>
	<time>2025-07-29T09:29:28.000Z</time>
</trkpt>
<trkpt lat="45.8630110" lon="10.3021600">
	<ele>1995.00</ele>
	<time>2025-07-29T09:29:29.000Z</time>
</trkpt>
<trkpt lat="45.8630110" lon="10.3021610">
	<ele>1994.80</ele>
	<time>2025-07-29T09:29:30.000Z</time>
</trkpt>
<trkpt lat="45.8630090" lon="10.3021610">
	<ele>1994.80</ele>
	<time>2025-07-29T09:29:31.000Z</time>
</trkpt>
<trkpt lat="45.8630040" lon="10.3021610">
	<ele>1994.60</ele>
	<time>2025-07-29T09:29:32.000Z</time>
</trkpt>
<trkpt lat="45.8629960" lon="10.3021620">
	<ele>1994.60</ele>
	<time>2025-07-29T09:29:33.000Z</time>
</trkpt>
<trkpt lat="45.8629900" lon="10.3021580">
	<ele>1994.20</ele>
	<time>2025-07-29T09:29:34.000Z</time>
</trkpt>
<trkpt lat="45.8629840" lon="10.3021570">
	<ele>1994.00</ele>
	<time>2025-07-29T09:29:35.000Z</time>
</trkpt>
<trkpt lat="45.8629780" lon="10.3021590">
	<ele>1993.80</ele>
	<time>2025-07-29T09:29:36.000Z</time>
</trkpt>
<trkpt lat="45.8629710" lon="10.3021620">
	<ele>1993.40</ele>
	<time>2025-07-29T09:29:37.000Z</time>
</trkpt>
<trkpt lat="45.8629640" lon="10.3021630">
	<ele>1993.20</ele>
	<time>2025-07-29T09:29:38.000Z</time>
</trkpt>
<trkpt lat="45.8629580" lon="10.3021630">
	<ele>1993.00</ele>
	<time>2025-07-29T09:29:39.000Z</time>
</trkpt>
<trkpt lat="45.8629530" lon="10.3021630">
	<ele>1992.80</ele>
	<time>2025-07-29T09:29:40.000Z</time>
</trkpt>
<trkpt lat="45.8629500" lon="10.3021630">
	<ele>1992.60</ele>
	<time>2025-07-29T09:29:41.000Z</time>
</trkpt>
<trkpt lat="45.8629440" lon="10.3021670">
	<ele>1992.40</ele>
	<time>2025-07-29T09:29:42.000Z</time>
</trkpt>
<trkpt lat="45.8629390" lon="10.3021760">
	<ele>1992.20</ele>
	<time>2025-07-29T09:29:43.000Z</time>
</trkpt>
<trkpt lat="45.8629360" lon="10.3021850">
	<ele>1992.00</ele>
	<time>2025-07-29T09:29:44.000Z</time>
</trkpt>
<trkpt lat="45.8629400" lon="10.3021950">
	<ele>1991.80</ele>
	<time>2025-07-29T09:29:45.000Z</time>
</trkpt>
<trkpt lat="45.8629450" lon="10.3021980">
	<ele>1991.60</ele>
	<time>2025-07-29T09:29:46.000Z</time>
</trkpt>
<trkpt lat="45.8629510" lon="10.3021940">
	<ele>1991.20</ele>
	<time>2025-07-29T09:29:47.000Z</time>
</trkpt>
<trkpt lat="45.8629560" lon="10.3021950">
	<ele>1991.00</ele>
	<time>2025-07-29T09:29:48.000Z</time>
</trkpt>
<trkpt lat="45.8629570" lon="10.3021980">
	<ele>1991.00</ele>
	<time>2025-07-29T09:29:49.000Z</time>
</trkpt>
<trkpt lat="45.8629570" lon="10.3022000">
	<ele>1990.80</ele>
	<time>2025-07-29T09:29:50.000Z</time>
</trkpt>
<trkpt lat="45.8629580" lon="10.3022010">
	<ele>1990.80</ele>
	<time>2025-07-29T09:29:51.000Z</time>
</trkpt>
<trkpt lat="45.8629560" lon="10.3022050">
	<ele>1990.80</ele>
	<time>2025-07-29T09:29:52.000Z</time>
</trkpt>
<trkpt lat="45.8629530" lon="10.3022110">
	<ele>1990.80</ele>
	<time>2025-07-29T09:29:53.000Z</time>
</trkpt>
<trkpt lat="45.8629510" lon="10.3022170">
	<ele>1990.60</ele>
	<time>2025-07-29T09:29:54.000Z</time>
</trkpt>
<trkpt lat="45.8629510" lon="10.3022260">
	<ele>1990.40</ele>
	<time>2025-07-29T09:29:55.000Z</time>
</trkpt>
<trkpt lat="45.8629520" lon="10.3022350">
	<ele>1990.20</ele>
	<time>2025-07-29T09:29:56.000Z</time>
</trkpt>
<trkpt lat="45.8629520" lon="10.3022410">
	<ele>1989.80</ele>
	<time>2025-07-29T09:29:57.000Z</time>
</trkpt>
<trkpt lat="45.8629500" lon="10.3022450">
	<ele>1989.60</ele>
	<time>2025-07-29T09:29:58.000Z</time>
</trkpt>
<trkpt lat="45.8629440" lon="10.3022520">
	<ele>1989.20</ele>
	<time>2025-07-29T09:29:59.000Z</time>
</trkpt>
<trkpt lat="45.8629390" lon="10.3022550">
	<ele>1988.80</ele>
	<time>2025-07-29T09:30:00.000Z</time>
</trkpt>
<trkpt lat="45.8629270" lon="10.3022610">
	<ele>1988.60</ele>
	<time>2025-07-29T09:30:01.000Z</time>
</trkpt>
<trkpt lat="45.8629180" lon="10.3022590">
	<ele>1988.20</ele>
	<time>2025-07-29T09:30:02.000Z</time>
</trkpt>
<trkpt lat="45.8629120" lon="10.3022600">
	<ele>1988.00</ele>
	<time>2025-07-29T09:30:03.000Z</time>
</trkpt>
<trkpt lat="45.8629080" lon="10.3022580">
	<ele>1987.80</ele>
	<time>2025-07-29T09:30:04.000Z</time>
</trkpt>
<trkpt lat="45.8629010" lon="10.3022630">
	<ele>1987.40</ele>
	<time>2025-07-29T09:30:05.000Z</time>
</trkpt>
<trkpt lat="45.8628930" lon="10.3022660">
	<ele>1987.20</ele>
	<time>2025-07-29T09:30:06.000Z</time>
</trkpt>
<trkpt lat="45.8628890" lon="10.3022690">
	<ele>1987.00</ele>
	<time>2025-07-29T09:30:07.000Z</time>
</trkpt>
<trkpt lat="45.8628860" lon="10.3022680">
	<ele>1986.80</ele>
	<time>2025-07-29T09:30:08.000Z</time>
</trkpt>
<trkpt lat="45.8628840" lon="10.3022700">
	<ele>1986.80</ele>
	<time>2025-07-29T09:30:09.000Z</time>
</trkpt>
<trkpt lat="45.8628820" lon="10.3022730">
	<ele>1986.60</ele>
	<time>2025-07-29T09:30:10.000Z</time>
</trkpt>
<trkpt lat="45.8628800" lon="10.3022770">
	<ele>1986.60</ele>
	<time>2025-07-29T09:30:11.000Z</time>
</trkpt>
<trkpt lat="45.8628770" lon="10.3022840">
	<ele>1986.20</ele>
	<time>2025-07-29T09:30:12.000Z</time>
</trkpt>
<trkpt lat="45.8628740" lon="10.3022840">
	<ele>1985.80</ele>
	<time>2025-07-29T09:30:13.000Z</time>
</trkpt>
<trkpt lat="45.8628710" lon="10.3022880">
	<ele>1985.60</ele>
	<time>2025-07-29T09:30:14.000Z</time>
</trkpt>
<trkpt lat="45.8628680" lon="10.3022870">
	<ele>1985.20</ele>
	<time>2025-07-29T09:30:15.000Z</time>
</trkpt>
<trkpt lat="45.8628640" lon="10.3022860">
	<ele>1985.00</ele>
	<time>2025-07-29T09:30:16.000Z</time>
</trkpt>
<trkpt lat="45.8628570" lon="10.3022930">
	<ele>1984.80</ele>
	<time>2025-07-29T09:30:17.000Z</time>
</trkpt>
<trkpt lat="45.8628500" lon="10.3022990">
	<ele>1984.80</ele>
	<time>2025-07-29T09:30:18.000Z</time>
</trkpt>
<trkpt lat="45.8628450" lon="10.3023070">
	<ele>1984.40</ele>
	<time>2025-07-29T09:30:19.000Z</time>
</trkpt>
<trkpt lat="45.8628360" lon="10.3023150">
	<ele>1984.20</ele>
	<time>2025-07-29T09:30:20.000Z</time>
</trkpt>
<trkpt lat="45.8628300" lon="10.3023170">
	<ele>1984.00</ele>
	<time>2025-07-29T09:30:21.000Z</time>
</trkpt>
<trkpt lat="45.8628180" lon="10.3023210">
	<ele>1983.60</ele>
	<time>2025-07-29T09:30:22.000Z</time>
</trkpt>
<trkpt lat="45.8628060" lon="10.3023250">
	<ele>1983.40</ele>
	<time>2025-07-29T09:30:23.000Z</time>
</trkpt>
<trkpt lat="45.8627980" lon="10.3023260">
	<ele>1983.20</ele>
	<time>2025-07-29T09:30:24.000Z</time>
</trkpt>
<trkpt lat="45.8627910" lon="10.3023240">
	<ele>1983.00</ele>
	<time>2025-07-29T09:30:25.000Z</time>
</trkpt>
<trkpt lat="45.8627840" lon="10.3023140">
	<ele>1983.00</ele>
	<time>2025-07-29T09:30:26.000Z</time>
</trkpt>
<trkpt lat="45.8627780" lon="10.3023060">
	<ele>1982.80</ele>
	<time>2025-07-29T09:30:27.000Z</time>
</trkpt>
<trkpt lat="45.8627750" lon="10.3023020">
	<ele>1982.60</ele>
	<time>2025-07-29T09:30:28.000Z</time>
</trkpt>
<trkpt lat="45.8627710" lon="10.3023000">
	<ele>1982.40</ele>
	<time>2025-07-29T09:30:29.000Z</time>
</trkpt>
<trkpt lat="45.8627630" lon="10.3022970">
	<ele>1982.20</ele>
	<time>2025-07-29T09:30:30.000Z</time>
</trkpt>
<trkpt lat="45.8627580" lon="10.3022960">
	<ele>1982.00</ele>
	<time>2025-07-29T09:30:31.000Z</time>
</trkpt>
<trkpt lat="45.8627520" lon="10.3022980">
	<ele>1981.80</ele>
	<time>2025-07-29T09:30:32.000Z</time>
</trkpt>
<trkpt lat="45.8627480" lon="10.3023070">
	<ele>1981.40</ele>
	<time>2025-07-29T09:30:33.000Z</time>
</trkpt>
<trkpt lat="45.8627470" lon="10.3023140">
	<ele>1981.20</ele>
	<time>2025-07-29T09:30:34.000Z</time>
</trkpt>
<trkpt lat="45.8627450" lon="10.3023180">
	<ele>1981.00</ele>
	<time>2025-07-29T09:30:35.000Z</time>
</trkpt>
<trkpt lat="45.8627440" lon="10.3023220">
	<ele>1980.60</ele>
	<time>2025-07-29T09:30:36.000Z</time>
</trkpt>
<trkpt lat="45.8627420" lon="10.3023280">
	<ele>1980.40</ele>
	<time>2025-07-29T09:30:37.000Z</time>
</trkpt>
<trkpt lat="45.8627390" lon="10.3023300">
	<ele>1980.40</ele>
	<time>2025-07-29T09:30:38.000Z</time>
</trkpt>
<trkpt lat="45.8627320" lon="10.3023280">
	<ele>1980.40</ele>
	<time>2025-07-29T09:30:39.000Z</time>
</trkpt>
<trkpt lat="45.8627250" lon="10.3023290">
	<ele>1980.00</ele>
	<time>2025-07-29T09:30:40.000Z</time>
</trkpt>
<trkpt lat="45.8627200" lon="10.3023360">
	<ele>1979.80</ele>
	<time>2025-07-29T09:30:41.000Z</time>
</trkpt>
<trkpt lat="45.8627160" lon="10.3023390">
	<ele>1979.40</ele>
	<time>2025-07-29T09:30:42.000Z</time>
</trkpt>
<trkpt lat="45.8627100" lon="10.3023410">
	<ele>1979.20</ele>
	<time>2025-07-29T09:30:43.000Z</time>
</trkpt>
<trkpt lat="45.8627060" lon="10.3023430">
	<ele>1978.80</ele>
	<time>2025-07-29T09:30:44.000Z</time>
</trkpt>
<trkpt lat="45.8627040" lon="10.3023470">
	<ele>1978.80</ele>
	<time>2025-07-29T09:30:45.000Z</time>
</trkpt>
<trkpt lat="45.8627020" lon="10.3023500">
	<ele>1978.60</ele>
	<time>2025-07-29T09:30:46.000Z</time>
</trkpt>
<trkpt lat="45.8626990" lon="10.3023540">
	<ele>1978.40</ele>
	<time>2025-07-29T09:30:47.000Z</time>
</trkpt>
<trkpt lat="45.8627020" lon="10.3023580">
	<ele>1978.20</ele>
	<time>2025-07-29T09:30:48.000Z</time>
</trkpt>
<trkpt lat="45.8627030" lon="10.3023630">
	<ele>1978.20</ele>
	<time>2025-07-29T09:30:49.000Z</time>
</trkpt>
<trkpt lat="45.8627020" lon="10.3023660">
	<ele>1978.00</ele>
	<time>2025-07-29T09:30:50.000Z</time>
</trkpt>
<trkpt lat="45.8627020" lon="10.3023690">
	<ele>1978.00</ele>
	<time>2025-07-29T09:30:51.000Z</time>
</trkpt>
<trkpt lat="45.8627010" lon="10.3023720">
	<ele>1977.80</ele>
	<time>2025-07-29T09:30:52.000Z</time>
</trkpt>
<trkpt lat="45.8627010" lon="10.3023740">
	<ele>1977.40</ele>
	<time>2025-07-29T09:30:53.000Z</time>
</trkpt>
<trkpt lat="45.8627030" lon="10.3023780">
	<ele>1977.20</ele>
	<time>2025-07-29T09:30:54.000Z</time>
</trkpt>
<trkpt lat="45.8627050" lon="10.3023810">
	<ele>1977.00</ele>
	<time>2025-07-29T09:30:55.000Z</time>
</trkpt>
<trkpt lat="45.8627070" lon="10.3023850">
	<ele>1976.80</ele>
	<time>2025-07-29T09:30:56.000Z</time>
</trkpt>
<trkpt lat="45.8627070" lon="10.3023890">
	<ele>1976.80</ele>
	<time>2025-07-29T09:30:57.000Z</time>
</trkpt>
<trkpt lat="45.8627080" lon="10.3023930">
	<ele>1976.60</ele>
	<time>2025-07-29T09:30:58.000Z</time>
</trkpt>
<trkpt lat="45.8627060" lon="10.3023990">
	<ele>1976.60</ele>
	<time>2025-07-29T09:30:59.000Z</time>
</trkpt>
<trkpt lat="45.8627050" lon="10.3024020">
	<ele>1976.60</ele>
	<time>2025-07-29T09:31:00.000Z</time>
</trkpt>
<trkpt lat="45.8627060" lon="10.3024040">
	<ele>1976.40</ele>
	<time>2025-07-29T09:31:01.000Z</time>
</trkpt>
<trkpt lat="45.8627100" lon="10.3024000">
	<ele>1976.40</ele>
	<time>2025-07-29T09:31:02.000Z</time>
</trkpt>
<trkpt lat="45.8627110" lon="10.3024010">
	<ele>1976.40</ele>
	<time>2025-07-29T09:31:03.000Z</time>
</trkpt>
<trkpt lat="45.8627120" lon="10.3023990">
	<ele>1976.40</ele>
	<time>2025-07-29T09:31:04.000Z</time>
</trkpt>
<trkpt lat="45.8627120" lon="10.3024000">
	<ele>1976.40</ele>
	<time>2025-07-29T09:31:05.000Z</time>
</trkpt>
<trkpt lat="45.8627120" lon="10.3024000">
	<ele>1976.40</ele>
	<time>2025-07-29T09:31:06.000Z</time>
</trkpt>
<trkpt lat="45.8627120" lon="10.3024000">
	<ele>1976.20</ele>
	<time>2025-07-29T09:31:07.000Z</time>
</trkpt>
<trkpt lat="45.8627120" lon="10.3024000">
	<ele>1976.00</ele>
	<time>2025-07-29T09:31:08.000Z</time>
</trkpt>
<trkpt lat="45.8627120" lon="10.3024000">
	<ele>1975.80</ele>
	<time>2025-07-29T09:31:09.000Z</time>
</trkpt>
<trkpt lat="45.8627120" lon="10.3024000">
	<ele>1975.60</ele>
	<time>2025-07-29T09:31:10.000Z</time>
</trkpt>
<trkpt lat="45.8627120" lon="10.3024000">
	<ele>1975.40</ele>
	<time>2025-07-29T09:31:11.000Z</time>
</trkpt>
<trkpt lat="45.8627120" lon="10.3024000">
	<ele>1975.20</ele>
	<time>2025-07-29T09:31:12.000Z</time>
</trkpt>
<trkpt lat="45.8627120" lon="10.3024000">
	<ele>1975.20</ele>
	<time>2025-07-29T09:31:13.000Z</time>
</trkpt>
<trkpt lat="45.8627120" lon="10.3024000">
	<ele>1974.80</ele>
	<time>2025-07-29T09:31:14.000Z</time>
</trkpt>
<trkpt lat="45.8627120" lon="10.3024000">
	<ele>1974.60</ele>
	<time>2025-07-29T09:31:15.000Z</time>
</trkpt>
<trkpt lat="45.8627120" lon="10.3024000">
	<ele>1974.20</ele>
	<time>2025-07-29T09:31:16.000Z</time>
</trkpt>
<trkpt lat="45.8627100" lon="10.3024040">
	<ele>1974.20</ele>
	<time>2025-07-29T09:31:17.000Z</time>
</trkpt>
<trkpt lat="45.8627030" lon="10.3024060">
	<ele>1973.80</ele>
	<time>2025-07-29T09:31:18.000Z</time>
</trkpt>
<trkpt lat="45.8626950" lon="10.3024080">
	<ele>1973.40</ele>
	<time>2025-07-29T09:31:19.000Z</time>
</trkpt>
<trkpt lat="45.8626880" lon="10.3024120">
	<ele>1973.20</ele>
	<time>2025-07-29T09:31:20.000Z</time>
</trkpt>
<trkpt lat="45.8626820" lon="10.3024140">
	<ele>1973.00</ele>
	<time>2025-07-29T09:31:21.000Z</time>
</trkpt>
<trkpt lat="45.8626690" lon="10.3024130">
	<ele>1972.80</ele>
	<time>2025-07-29T09:31:22.000Z</time>
</trkpt>
<trkpt lat="45.8626590" lon="10.3024090">
	<ele>1972.80</ele>
	<time>2025-07-29T09:31:23.000Z</time>
</trkpt>
<trkpt lat="45.8626460" lon="10.3024070">
	<ele>1972.40</ele>
	<time>2025-07-29T09:31:24.000Z</time>
</trkpt>
<trkpt lat="45.8626360" lon="10.3024040">
	<ele>1972.20</ele>
	<time>2025-07-29T09:31:25.000Z</time>
</trkpt>
<trkpt lat="45.8626290" lon="10.3024050">
	<ele>1972.00</ele>
	<time>2025-07-29T09:31:26.000Z</time>
</trkpt>
<trkpt lat="45.8626250" lon="10.3024030">
	<ele>1972.00</ele>
	<time>2025-07-29T09:31:27.000Z</time>
</trkpt>
<trkpt lat="45.8626210" lon="10.3024010">
	<ele>1971.80</ele>
	<time>2025-07-29T09:31:28.000Z</time>
</trkpt>
<trkpt lat="45.8626160" lon="10.3023970">
	<ele>1971.60</ele>
	<time>2025-07-29T09:31:29.000Z</time>
</trkpt>
<trkpt lat="45.8626110" lon="10.3023980">
	<ele>1971.40</ele>
	<time>2025-07-29T09:31:30.000Z</time>
</trkpt>
<trkpt lat="45.8626070" lon="10.3024050">
	<ele>1971.20</ele>
	<time>2025-07-29T09:31:31.000Z</time>
</trkpt>
<trkpt lat="45.8626060" lon="10.3024140">
	<ele>1970.80</ele>
	<time>2025-07-29T09:31:32.000Z</time>
</trkpt>
<trkpt lat="45.8626060" lon="10.3024220">
	<ele>1970.60</ele>
	<time>2025-07-29T09:31:33.000Z</time>
</trkpt>
<trkpt lat="45.8626060" lon="10.3024280">
	<ele>1970.40</ele>
	<time>2025-07-29T09:31:34.000Z</time>
</trkpt>
<trkpt lat="45.8626060" lon="10.3024330">
	<ele>1970.40</ele>
	<time>2025-07-29T09:31:35.000Z</time>
</trkpt>
<trkpt lat="45.8626040" lon="10.3024330">
	<ele>1970.20</ele>
	<time>2025-07-29T09:31:36.000Z</time>
</trkpt>
<trkpt lat="45.8625990" lon="10.3024320">
	<ele>1970.00</ele>
	<time>2025-07-29T09:31:37.000Z</time>
</trkpt>
<trkpt lat="45.8625950" lon="10.3024290">
	<ele>1969.80</ele>
	<time>2025-07-29T09:31:38.000Z</time>
</trkpt>
<trkpt lat="45.8625920" lon="10.3024290">
	<ele>1969.60</ele>
	<time>2025-07-29T09:31:39.000Z</time>
</trkpt>
<trkpt lat="45.8625860" lon="10.3024260">
	<ele>1969.40</ele>
	<time>2025-07-29T09:31:40.000Z</time>
</trkpt>
<trkpt lat="45.8625820" lon="10.3024230">
	<ele>1969.00</ele>
	<time>2025-07-29T09:31:41.000Z</time>
</trkpt>
<trkpt lat="45.8625760" lon="10.3024220">
	<ele>1968.60</ele>
	<time>2025-07-29T09:31:42.000Z</time>
</trkpt>
<trkpt lat="45.8625690" lon="10.3024260">
	<ele>1968.40</ele>
	<time>2025-07-29T09:31:43.000Z</time>
</trkpt>
<trkpt lat="45.8625650" lon="10.3024310">
	<ele>1968.00</ele>
	<time>2025-07-29T09:31:44.000Z</time>
</trkpt>
<trkpt lat="45.8625630" lon="10.3024360">
	<ele>1967.80</ele>
	<time>2025-07-29T09:31:45.000Z</time>
</trkpt>
<trkpt lat="45.8625610" lon="10.3024420">
	<ele>1967.60</ele>
	<time>2025-07-29T09:31:46.000Z</time>
</trkpt>
<trkpt lat="45.8625600" lon="10.3024460">
	<ele>1967.60</ele>
	<time>2025-07-29T09:31:47.000Z</time>
</trkpt>
<trkpt lat="45.8625570" lon="10.3024520">
	<ele>1967.60</ele>
	<time>2025-07-29T09:31:48.000Z</time>
</trkpt>
<trkpt lat="45.8625550" lon="10.3024620">
	<ele>1967.20</ele>
	<time>2025-07-29T09:31:49.000Z</time>
</trkpt>
<trkpt lat="45.8625560" lon="10.3024690">
	<ele>1966.80</ele>
	<time>2025-07-29T09:31:50.000Z</time>
</trkpt>
<trkpt lat="45.8625570" lon="10.3024740">
	<ele>1966.60</ele>
	<time>2025-07-29T09:31:51.000Z</time>
</trkpt>
<trkpt lat="45.8625570" lon="10.3024780">
	<ele>1966.40</ele>
	<time>2025-07-29T09:31:52.000Z</time>
</trkpt>
<trkpt lat="45.8625560" lon="10.3024840">
	<ele>1966.20</ele>
	<time>2025-07-29T09:31:53.000Z</time>
</trkpt>
<trkpt lat="45.8625530" lon="10.3024890">
	<ele>1966.00</ele>
	<time>2025-07-29T09:31:54.000Z</time>
</trkpt>
<trkpt lat="45.8625500" lon="10.3024910">
	<ele>1965.80</ele>
	<time>2025-07-29T09:31:55.000Z</time>
</trkpt>
<trkpt lat="45.8625450" lon="10.3024900">
	<ele>1965.60</ele>
	<time>2025-07-29T09:31:56.000Z</time>
</trkpt>
<trkpt lat="45.8625400" lon="10.3024900">
	<ele>1965.40</ele>
	<time>2025-07-29T09:31:57.000Z</time>
</trkpt>
<trkpt lat="45.8625340" lon="10.3024890">
	<ele>1965.20</ele>
	<time>2025-07-29T09:31:58.000Z</time>
</trkpt>
<trkpt lat="45.8625270" lon="10.3024910">
	<ele>1965.00</ele>
	<time>2025-07-29T09:31:59.000Z</time>
</trkpt>
<trkpt lat="45.8625190" lon="10.3024940">
	<ele>1964.80</ele>
	<time>2025-07-29T09:32:00.000Z</time>
</trkpt>
<trkpt lat="45.8625140" lon="10.3024960">
	<ele>1964.60</ele>
	<time>2025-07-29T09:32:01.000Z</time>
</trkpt>
<trkpt lat="45.8625100" lon="10.3024980">
	<ele>1964.20</ele>
	<time>2025-07-29T09:32:02.000Z</time>
</trkpt>
<trkpt lat="45.8625070" lon="10.3024990">
	<ele>1964.00</ele>
	<time>2025-07-29T09:32:03.000Z</time>
</trkpt>
<trkpt lat="45.8625030" lon="10.3024980">
	<ele>1963.80</ele>
	<time>2025-07-29T09:32:04.000Z</time>
</trkpt>
<trkpt lat="45.8625010" lon="10.3024930">
	<ele>1963.60</ele>
	<time>2025-07-29T09:32:05.000Z</time>
</trkpt>
<trkpt lat="45.8624980" lon="10.3024860">
	<ele>1963.40</ele>
	<time>2025-07-29T09:32:06.000Z</time>
</trkpt>
<trkpt lat="45.8624910" lon="10.3024810">
	<ele>1963.20</ele>
	<time>2025-07-29T09:32:07.000Z</time>
</trkpt>
<trkpt lat="45.8624850" lon="10.3024840">
	<ele>1963.00</ele>
	<time>2025-07-29T09:32:08.000Z</time>
</trkpt>
<trkpt lat="45.8624810" lon="10.3024900">
	<ele>1962.60</ele>
	<time>2025-07-29T09:32:09.000Z</time>
</trkpt>
<trkpt lat="45.8624780" lon="10.3024960">
	<ele>1962.40</ele>
	<time>2025-07-29T09:32:10.000Z</time>
</trkpt>
<trkpt lat="45.8624790" lon="10.3024970">
	<ele>1962.20</ele>
	<time>2025-07-29T09:32:11.000Z</time>
</trkpt>
<trkpt lat="45.8624790" lon="10.3024980">
	<ele>1962.00</ele>
	<time>2025-07-29T09:32:12.000Z</time>
</trkpt>
<trkpt lat="45.8624790" lon="10.3025000">
	<ele>1961.80</ele>
	<time>2025-07-29T09:32:13.000Z</time>
</trkpt>
<trkpt lat="45.8624730" lon="10.3024960">
	<ele>1961.80</ele>
	<time>2025-07-29T09:32:14.000Z</time>
</trkpt>
<trkpt lat="45.8624730" lon="10.3024960">
	<ele>1961.80</ele>
	<time>2025-07-29T09:32:15.000Z</time>
</trkpt>
<trkpt lat="45.8624710" lon="10.3024940">
	<ele>1961.80</ele>
	<time>2025-07-29T09:32:16.000Z</time>
</trkpt>
<trkpt lat="45.8624700" lon="10.3024930">
	<ele>1961.80</ele>
	<time>2025-07-29T09:32:17.000Z</time>
</trkpt>
<trkpt lat="45.8624680" lon="10.3024950">
	<ele>1961.80</ele>
	<time>2025-07-29T09:32:18.000Z</time>
</trkpt>
<trkpt lat="45.8624660" lon="10.3024980">
	<ele>1961.80</ele>
	<time>2025-07-29T09:32:19.000Z</time>
</trkpt>
<trkpt lat="45.8624620" lon="10.3025010">
	<ele>1961.80</ele>
	<time>2025-07-29T09:32:20.000Z</time>
</trkpt>
<trkpt lat="45.8624590" lon="10.3025040">
	<ele>1961.80</ele>
	<time>2025-07-29T09:32:21.000Z</time>
</trkpt>
<trkpt lat="45.8624560" lon="10.3025080">
	<ele>1961.80</ele>
	<time>2025-07-29T09:32:22.000Z</time>
</trkpt>
<trkpt lat="45.8624520" lon="10.3025110">
	<ele>1961.60</ele>
	<time>2025-07-29T09:32:23.000Z</time>
</trkpt>
<trkpt lat="45.8624480" lon="10.3025130">
	<ele>1961.60</ele>
	<time>2025-07-29T09:32:24.000Z</time>
</trkpt>
<trkpt lat="45.8624420" lon="10.3025150">
	<ele>1961.60</ele>
	<time>2025-07-29T09:32:25.000Z</time>
</trkpt>
<trkpt lat="45.8624360" lon="10.3025140">
	<ele>1961.20</ele>
	<time>2025-07-29T09:32:26.000Z</time>
</trkpt>
<trkpt lat="45.8624300" lon="10.3025150">
	<ele>1961.00</ele>
	<time>2025-07-29T09:32:27.000Z</time>
</trkpt>
<trkpt lat="45.8624220" lon="10.3025160">
	<ele>1960.80</ele>
	<time>2025-07-29T09:32:28.000Z</time>
</trkpt>
<trkpt lat="45.8624160" lon="10.3025250">
	<ele>1960.60</ele>
	<time>2025-07-29T09:32:29.000Z</time>
</trkpt>
<trkpt lat="45.8624110" lon="10.3025350">
	<ele>1960.60</ele>
	<time>2025-07-29T09:32:30.000Z</time>
</trkpt>
<trkpt lat="45.8624080" lon="10.3025430">
	<ele>1960.20</ele>
	<time>2025-07-29T09:32:31.000Z</time>
</trkpt>
<trkpt lat="45.8624060" lon="10.3025520">
	<ele>1960.00</ele>
	<time>2025-07-29T09:32:32.000Z</time>
</trkpt>
<trkpt lat="45.8624050" lon="10.3025590">
	<ele>1959.80</ele>
	<time>2025-07-29T09:32:33.000Z</time>
</trkpt>
<trkpt lat="45.8624020" lon="10.3025620">
	<ele>1959.60</ele>
	<time>2025-07-29T09:32:34.000Z</time>
</trkpt>
<trkpt lat="45.8623980" lon="10.3025600">
	<ele>1959.40</ele>
	<time>2025-07-29T09:32:35.000Z</time>
</trkpt>
<trkpt lat="45.8623940" lon="10.3025580">
	<ele>1959.20</ele>
	<time>2025-07-29T09:32:36.000Z</time>
</trkpt>
<trkpt lat="45.8623880" lon="10.3025580">
	<ele>1959.00</ele>
	<time>2025-07-29T09:32:37.000Z</time>
</trkpt>
<trkpt lat="45.8623830" lon="10.3025590">
	<ele>1958.60</ele>
	<time>2025-07-29T09:32:38.000Z</time>
</trkpt>
<trkpt lat="45.8623770" lon="10.3025600">
	<ele>1958.40</ele>
	<time>2025-07-29T09:32:39.000Z</time>
</trkpt>
<trkpt lat="45.8623730" lon="10.3025640">
	<ele>1958.00</ele>
	<time>2025-07-29T09:32:40.000Z</time>
</trkpt>
<trkpt lat="45.8623660" lon="10.3025660">
	<ele>1957.80</ele>
	<time>2025-07-29T09:32:41.000Z</time>
</trkpt>
<trkpt lat="45.8623580" lon="10.3025650">
	<ele>1957.40</ele>
	<time>2025-07-29T09:32:42.000Z</time>
</trkpt>
<trkpt lat="45.8623500" lon="10.3025630">
	<ele>1957.20</ele>
	<time>2025-07-29T09:32:43.000Z</time>
</trkpt>
<trkpt lat="45.8623420" lon="10.3025620">
	<ele>1957.00</ele>
	<time>2025-07-29T09:32:44.000Z</time>
</trkpt>
<trkpt lat="45.8623340" lon="10.3025680">
	<ele>1956.80</ele>
	<time>2025-07-29T09:32:45.000Z</time>
</trkpt>
<trkpt lat="45.8623300" lon="10.3025770">
	<ele>1956.60</ele>
	<time>2025-07-29T09:32:46.000Z</time>
</trkpt>
<trkpt lat="45.8623210" lon="10.3025850">
	<ele>1956.40</ele>
	<time>2025-07-29T09:32:47.000Z</time>
</trkpt>
<trkpt lat="45.8623160" lon="10.3025870">
	<ele>1956.40</ele>
	<time>2025-07-29T09:32:48.000Z</time>
</trkpt>
<trkpt lat="45.8623120" lon="10.3025910">
	<ele>1956.20</ele>
	<time>2025-07-29T09:32:49.000Z</time>
</trkpt>
<trkpt lat="45.8623090" lon="10.3025950">
	<ele>1956.20</ele>
	<time>2025-07-29T09:32:50.000Z</time>
</trkpt>
<trkpt lat="45.8623080" lon="10.3025950">
	<ele>1956.20</ele>
	<time>2025-07-29T09:32:51.000Z</time>
</trkpt>
<trkpt lat="45.8623080" lon="10.3025950">
	<ele>1956.20</ele>
	<time>2025-07-29T09:32:52.000Z</time>
</trkpt>
<trkpt lat="45.8623090" lon="10.3025960">
	<ele>1956.20</ele>
	<time>2025-07-29T09:32:53.000Z</time>
</trkpt>
<trkpt lat="45.8623100" lon="10.3025980">
	<ele>1956.20</ele>
	<time>2025-07-29T09:32:54.000Z</time>
</trkpt>
<trkpt lat="45.8623110" lon="10.3026000">
	<ele>1956.20</ele>
	<time>2025-07-29T09:32:55.000Z</time>
</trkpt>
<trkpt lat="45.8623140" lon="10.3026020">
	<ele>1956.20</ele>
	<time>2025-07-29T09:32:56.000Z</time>
</trkpt>
<trkpt lat="45.8623170" lon="10.3026040">
	<ele>1956.20</ele>
	<time>2025-07-29T09:32:57.000Z</time>
</trkpt>
<trkpt lat="45.8623220" lon="10.3026080">
	<ele>1956.20</ele>
	<time>2025-07-29T09:32:58.000Z</time>
</trkpt>
<trkpt lat="45.8623260" lon="10.3026150">
	<ele>1956.20</ele>
	<time>2025-07-29T09:32:59.000Z</time>
</trkpt>
<trkpt lat="45.8623310" lon="10.3026190">
	<ele>1956.00</ele>
	<time>2025-07-29T09:33:00.000Z</time>
</trkpt>
<trkpt lat="45.8623350" lon="10.3026230">
	<ele>1956.00</ele>
	<time>2025-07-29T09:33:01.000Z</time>
</trkpt>
<trkpt lat="45.8623380" lon="10.3026250">
	<ele>1956.00</ele>
	<time>2025-07-29T09:33:02.000Z</time>
</trkpt>
<trkpt lat="45.8623410" lon="10.3026260">
	<ele>1955.80</ele>
	<time>2025-07-29T09:33:03.000Z</time>
</trkpt>
<trkpt lat="45.8623430" lon="10.3026300">
	<ele>1955.80</ele>
	<time>2025-07-29T09:33:04.000Z</time>
</trkpt>
<trkpt lat="45.8623440" lon="10.3026360">
	<ele>1955.80</ele>
	<time>2025-07-29T09:33:05.000Z</time>
</trkpt>
<trkpt lat="45.8623440" lon="10.3026430">
	<ele>1955.60</ele>
	<time>2025-07-29T09:33:06.000Z</time>
</trkpt>
<trkpt lat="45.8623430" lon="10.3026480">
	<ele>1955.40</ele>
	<time>2025-07-29T09:33:07.000Z</time>
</trkpt>
<trkpt lat="45.8623440" lon="10.3026550">
	<ele>1955.20</ele>
	<time>2025-07-29T09:33:08.000Z</time>
</trkpt>
<trkpt lat="45.8623500" lon="10.3026640">
	<ele>1955.00</ele>
	<time>2025-07-29T09:33:09.000Z</time>
</trkpt>
<trkpt lat="45.8623570" lon="10.3026670">
	<ele>1954.60</ele>
	<time>2025-07-29T09:33:10.000Z</time>
</trkpt>
<trkpt lat="45.8623630" lon="10.3026750">
	<ele>1954.40</ele>
	<time>2025-07-29T09:33:11.000Z</time>
</trkpt>
<trkpt lat="45.8623670" lon="10.3026840">
	<ele>1954.00</ele>
	<time>2025-07-29T09:33:12.000Z</time>
</trkpt>
<trkpt lat="45.8623690" lon="10.3026910">
	<ele>1953.60</ele>
	<time>2025-07-29T09:33:13.000Z</time>
</trkpt>
<trkpt lat="45.8623700" lon="10.3026960">
	<ele>1953.40</ele>
	<time>2025-07-29T09:33:14.000Z</time>
</trkpt>
<trkpt lat="45.8623680" lon="10.3026980">
	<ele>1953.20</ele>
	<time>2025-07-29T09:33:15.000Z</time>
</trkpt>
<trkpt lat="45.8623670" lon="10.3026990">
	<ele>1953.00</ele>
	<time>2025-07-29T09:33:16.000Z</time>
</trkpt>
<trkpt lat="45.8623650" lon="10.3027040">
	<ele>1952.80</ele>
	<time>2025-07-29T09:33:17.000Z</time>
</trkpt>
<trkpt lat="45.8623650" lon="10.3027130">
	<ele>1952.60</ele>
	<time>2025-07-29T09:33:18.000Z</time>
</trkpt>
<trkpt lat="45.8623700" lon="10.3027170">
	<ele>1952.40</ele>
	<time>2025-07-29T09:33:19.000Z</time>
</trkpt>
<trkpt lat="45.8623730" lon="10.3027160">
	<ele>1952.20</ele>
	<time>2025-07-29T09:33:20.000Z</time>
</trkpt>
<trkpt lat="45.8623750" lon="10.3027150">
	<ele>1952.00</ele>
	<time>2025-07-29T09:33:21.000Z</time>
</trkpt>
<trkpt lat="45.8623750" lon="10.3027160">
	<ele>1952.00</ele>
	<time>2025-07-29T09:33:22.000Z</time>
</trkpt>
<trkpt lat="45.8623770" lon="10.3027160">
	<ele>1951.80</ele>
	<time>2025-07-29T09:33:23.000Z</time>
</trkpt>
<trkpt lat="45.8623770" lon="10.3027150">
	<ele>1951.80</ele>
	<time>2025-07-29T09:33:24.000Z</time>
</trkpt>
<trkpt lat="45.8623760" lon="10.3027150">
	<ele>1951.80</ele>
	<time>2025-07-29T09:33:25.000Z</time>
</trkpt>
<trkpt lat="45.8623770" lon="10.3027120">
	<ele>1951.60</ele>
	<time>2025-07-29T09:33:26.000Z</time>
</trkpt>
<trkpt lat="45.8623770" lon="10.3027110">
	<ele>1951.40</ele>
	<time>2025-07-29T09:33:27.000Z</time>
</trkpt>
<trkpt lat="45.8623780" lon="10.3027110">
	<ele>1951.40</ele>
	<time>2025-07-29T09:33:28.000Z</time>
</trkpt>
<trkpt lat="45.8623780" lon="10.3027110">
	<ele>1951.40</ele>
	<time>2025-07-29T09:33:29.000Z</time>
</trkpt>
<trkpt lat="45.8623780" lon="10.3027110">
	<ele>1951.40</ele>
	<time>2025-07-29T09:33:30.000Z</time>
</trkpt>
<trkpt lat="45.8623780" lon="10.3027110">
	<ele>1951.40</ele>
	<time>2025-07-29T09:33:31.000Z</time>
</trkpt>
<trkpt lat="45.8623780" lon="10.3027110">
	<ele>1951.40</ele>
	<time>2025-07-29T09:33:32.000Z</time>
</trkpt>
<trkpt lat="45.8623780" lon="10.3027110">
	<ele>1951.40</ele>
	<time>2025-07-29T09:33:33.000Z</time>
</trkpt>
<trkpt lat="45.8623780" lon="10.3027110">
	<ele>1951.40</ele>
	<time>2025-07-29T09:33:34.000Z</time>
</trkpt>
<trkpt lat="45.8623780" lon="10.3027110">
	<ele>1951.20</ele>
	<time>2025-07-29T09:33:35.000Z</time>
</trkpt>
<trkpt lat="45.8623780" lon="10.3027110">
	<ele>1951.20</ele>
	<time>2025-07-29T09:33:36.000Z</time>
</trkpt>
<trkpt lat="45.8623780" lon="10.3027110">
	<ele>1951.20</ele>
	<time>2025-07-29T09:33:37.000Z</time>
</trkpt>
<trkpt lat="45.8623780" lon="10.3027110">
	<ele>1951.40</ele>
	<time>2025-07-29T09:33:38.000Z</time>
</trkpt>
<trkpt lat="45.8623780" lon="10.3027110">
	<ele>1951.40</ele>
	<time>2025-07-29T09:33:39.000Z</time>
</trkpt>
<trkpt lat="45.8623780" lon="10.3027110">
	<ele>1951.40</ele>
	<time>2025-07-29T09:33:40.000Z</time>
</trkpt>
<trkpt lat="45.8623780" lon="10.3027110">
	<ele>1951.40</ele>
	<time>2025-07-29T09:33:41.000Z</time>
</trkpt>
<trkpt lat="45.8623780" lon="10.3027110">
	<ele>1951.40</ele>
	<time>2025-07-29T09:33:42.000Z</time>
</trkpt>
<trkpt lat="45.8623780" lon="10.3027110">
	<ele>1951.40</ele>
	<time>2025-07-29T09:33:43.000Z</time>
</trkpt>
<trkpt lat="45.8623780" lon="10.3027110">
	<ele>1951.60</ele>
	<time>2025-07-29T09:33:44.000Z</time>
</trkpt>
<trkpt lat="45.8623780" lon="10.3027110">
	<ele>1951.60</ele>
	<time>2025-07-29T09:33:45.000Z</time>
</trkpt>
<trkpt lat="45.8623790" lon="10.3027110">
	<ele>1951.40</ele>
	<time>2025-07-29T09:33:46.000Z</time>
</trkpt>
<trkpt lat="45.8623800" lon="10.3027110">
	<ele>1951.40</ele>
	<time>2025-07-29T09:33:47.000Z</time>
</trkpt>
<trkpt lat="45.8623800" lon="10.3027110">
	<ele>1951.40</ele>
	<time>2025-07-29T09:33:48.000Z</time>
</trkpt>
<trkpt lat="45.8623800" lon="10.3027120">
	<ele>1951.00</ele>
	<time>2025-07-29T09:33:49.000Z</time>
</trkpt>
<trkpt lat="45.8623810" lon="10.3027120">
	<ele>1950.80</ele>
	<time>2025-07-29T09:33:50.000Z</time>
</trkpt>
<trkpt lat="45.8623810" lon="10.3027120">
	<ele>1950.60</ele>
	<time>2025-07-29T09:33:51.000Z</time>
</trkpt>
<trkpt lat="45.8623810" lon="10.3027120">
	<ele>1950.20</ele>
	<time>2025-07-29T09:33:52.000Z</time>
</trkpt>
<trkpt lat="45.8623810" lon="10.3027120">
	<ele>1949.80</ele>
	<time>2025-07-29T09:33:53.000Z</time>
</trkpt>
<trkpt lat="45.8623810" lon="10.3027120">
	<ele>1949.40</ele>
	<time>2025-07-29T09:33:54.000Z</time>
</trkpt>
<trkpt lat="45.8623810" lon="10.3027120">
	<ele>1949.20</ele>
	<time>2025-07-29T09:33:55.000Z</time>
</trkpt>
<trkpt lat="45.8623810" lon="10.3027160">
	<ele>1949.00</ele>
	<time>2025-07-29T09:33:56.000Z</time>
</trkpt>
<trkpt lat="45.8623810" lon="10.3027170">
	<ele>1948.60</ele>
	<time>2025-07-29T09:33:57.000Z</time>
</trkpt>
<trkpt lat="45.8623780" lon="10.3027250">
	<ele>1948.40</ele>
	<time>2025-07-29T09:33:58.000Z</time>
</trkpt>
<trkpt lat="45.8623730" lon="10.3027420">
	<ele>1948.20</ele>
	<time>2025-07-29T09:33:59.000Z</time>
</trkpt>
<trkpt lat="45.8623690" lon="10.3027590">
	<ele>1948.00</ele>
	<time>2025-07-29T09:34:00.000Z</time>
</trkpt>
<trkpt lat="45.8623630" lon="10.3027830">
	<ele>1947.60</ele>
	<time>2025-07-29T09:34:01.000Z</time>
</trkpt>
<trkpt lat="45.8623550" lon="10.3028070">
	<ele>1947.40</ele>
	<time>2025-07-29T09:34:02.000Z</time>
</trkpt>
<trkpt lat="45.8623490" lon="10.3028290">
	<ele>1947.00</ele>
	<time>2025-07-29T09:34:03.000Z</time>
</trkpt>
<trkpt lat="45.8623450" lon="10.3028440">
	<ele>1946.80</ele>
	<time>2025-07-29T09:34:04.000Z</time>
</trkpt>
<trkpt lat="45.8623370" lon="10.3028620">
	<ele>1946.60</ele>
	<time>2025-07-29T09:34:05.000Z</time>
</trkpt>
<trkpt lat="45.8623290" lon="10.3028860">
	<ele>1946.20</ele>
	<time>2025-07-29T09:34:06.000Z</time>
</trkpt>
<trkpt lat="45.8623200" lon="10.3029040">
	<ele>1946.00</ele>
	<time>2025-07-29T09:34:07.000Z</time>
</trkpt>
<trkpt lat="45.8623140" lon="10.3029000">
	<ele>1945.80</ele>
	<time>2025-07-29T09:34:08.000Z</time>
</trkpt>
<trkpt lat="45.8623100" lon="10.3029040">
	<ele>1945.60</ele>
	<time>2025-07-29T09:34:09.000Z</time>
</trkpt>
<trkpt lat="45.8623040" lon="10.3029120">
	<ele>1945.60</ele>
	<time>2025-07-29T09:34:10.000Z</time>
</trkpt>
<trkpt lat="45.8622960" lon="10.3029250">
	<ele>1945.40</ele>
	<time>2025-07-29T09:34:11.000Z</time>
</trkpt>
<trkpt lat="45.8622860" lon="10.3029400">
	<ele>1945.40</ele>
	<time>2025-07-29T09:34:12.000Z</time>
</trkpt>
<trkpt lat="45.8622800" lon="10.3029520">
	<ele>1945.20</ele>
	<time>2025-07-29T09:34:13.000Z</time>
</trkpt>
<trkpt lat="45.8622740" lon="10.3029660">
	<ele>1945.00</ele>
	<time>2025-07-29T09:34:14.000Z</time>
</trkpt>
<trkpt lat="45.8622690" lon="10.3029800">
	<ele>1945.00</ele>
	<time>2025-07-29T09:34:15.000Z</time>
</trkpt>
<trkpt lat="45.8622650" lon="10.3029890">
	<ele>1944.80</ele>
	<time>2025-07-29T09:34:16.000Z</time>
</trkpt>
<trkpt lat="45.8622580" lon="10.3029960">
	<ele>1944.60</ele>
	<time>2025-07-29T09:34:17.000Z</time>
</trkpt>
<trkpt lat="45.8622520" lon="10.3030010">
	<ele>1944.60</ele>
	<time>2025-07-29T09:34:18.000Z</time>
</trkpt>
<trkpt lat="45.8622420" lon="10.3030050">
	<ele>1944.40</ele>
	<time>2025-07-29T09:34:19.000Z</time>
</trkpt>
<trkpt lat="45.8622340" lon="10.3030080">
	<ele>1944.40</ele>
	<time>2025-07-29T09:34:20.000Z</time>
</trkpt>
<trkpt lat="45.8622280" lon="10.3030070">
	<ele>1944.40</ele>
	<time>2025-07-29T09:34:21.000Z</time>
</trkpt>
<trkpt lat="45.8622230" lon="10.3030070">
	<ele>1944.40</ele>
	<time>2025-07-29T09:34:22.000Z</time>
</trkpt>
<trkpt lat="45.8622210" lon="10.3030060">
	<ele>1944.40</ele>
	<time>2025-07-29T09:34:23.000Z</time>
</trkpt>
<trkpt lat="45.8622150" lon="10.3030010">
	<ele>1944.20</ele>
	<time>2025-07-29T09:34:24.000Z</time>
</trkpt>
<trkpt lat="45.8622080" lon="10.3029940">
	<ele>1944.20</ele>
	<time>2025-07-29T09:34:25.000Z</time>
</trkpt>
<trkpt lat="45.8622080" lon="10.3029800">
	<ele>1944.20</ele>
	<time>2025-07-29T09:34:26.000Z</time>
</trkpt>
<trkpt lat="45.8622080" lon="10.3029750">
	<ele>1944.20</ele>
	<time>2025-07-29T09:34:27.000Z</time>
</trkpt>
<trkpt lat="45.8622080" lon="10.3029740">
	<ele>1944.20</ele>
	<time>2025-07-29T09:34:28.000Z</time>
</trkpt>
<trkpt lat="45.8622090" lon="10.3029720">
	<ele>1944.20</ele>
	<time>2025-07-29T09:34:29.000Z</time>
</trkpt>
<trkpt lat="45.8622160" lon="10.3029740">
	<ele>1944.20</ele>
	<time>2025-07-29T09:34:30.000Z</time>
</trkpt>
<trkpt lat="45.8622260" lon="10.3029800">
	<ele>1944.40</ele>
	<time>2025-07-29T09:34:31.000Z</time>
</trkpt>
<trkpt lat="45.8622300" lon="10.3029800">
	<ele>1944.40</ele>
	<time>2025-07-29T09:34:32.000Z</time>
</trkpt>
<trkpt lat="45.8622310" lon="10.3029800">
	<ele>1944.60</ele>
	<time>2025-07-29T09:34:33.000Z</time>
</trkpt>
<trkpt lat="45.8622310" lon="10.3029800">
	<ele>1944.60</ele>
	<time>2025-07-29T09:34:34.000Z</time>
</trkpt>
<trkpt lat="45.8622320" lon="10.3029810">
	<ele>1944.60</ele>
	<time>2025-07-29T09:34:35.000Z</time>
</trkpt>
<trkpt lat="45.8622340" lon="10.3029830">
	<ele>1944.60</ele>
	<time>2025-07-29T09:34:36.000Z</time>
</trkpt>
<trkpt lat="45.8622340" lon="10.3029850">
	<ele>1944.60</ele>
	<time>2025-07-29T09:34:37.000Z</time>
</trkpt>
<trkpt lat="45.8622360" lon="10.3029910">
	<ele>1944.60</ele>
	<time>2025-07-29T09:34:38.000Z</time>
</trkpt>
<trkpt lat="45.8622380" lon="10.3030030">
	<ele>1944.60</ele>
	<time>2025-07-29T09:34:39.000Z</time>
</trkpt>
<trkpt lat="45.8622410" lon="10.3030150">
	<ele>1944.40</ele>
	<time>2025-07-29T09:34:40.000Z</time>
</trkpt>
<trkpt lat="45.8622390" lon="10.3030250">
	<ele>1944.40</ele>
	<time>2025-07-29T09:34:41.000Z</time>
</trkpt>
<trkpt lat="45.8622390" lon="10.3030350">
	<ele>1944.40</ele>
	<time>2025-07-29T09:34:42.000Z</time>
</trkpt>
<trkpt lat="45.8622380" lon="10.3030460">
	<ele>1944.20</ele>
	<time>2025-07-29T09:34:43.000Z</time>
</trkpt>
<trkpt lat="45.8622410" lon="10.3030560">
	<ele>1944.20</ele>
	<time>2025-07-29T09:34:44.000Z</time>
</trkpt>
<trkpt lat="45.8622420" lon="10.3030640">
	<ele>1944.20</ele>
	<time>2025-07-29T09:34:45.000Z</time>
</trkpt>
<trkpt lat="45.8622360" lon="10.3030720">
	<ele>1944.00</ele>
	<time>2025-07-29T09:34:46.000Z</time>
</trkpt>
<trkpt lat="45.8622310" lon="10.3030820">
	<ele>1944.00</ele>
	<time>2025-07-29T09:34:47.000Z</time>
</trkpt>
<trkpt lat="45.8622250" lon="10.3030890">
	<ele>1944.00</ele>
	<time>2025-07-29T09:34:48.000Z</time>
</trkpt>
<trkpt lat="45.8622180" lon="10.3030940">
	<ele>1943.80</ele>
	<time>2025-07-29T09:34:49.000Z</time>
</trkpt>
<trkpt lat="45.8622140" lon="10.3030950">
	<ele>1943.60</ele>
	<time>2025-07-29T09:34:50.000Z</time>
</trkpt>
<trkpt lat="45.8622050" lon="10.3031030">
	<ele>1943.40</ele>
	<time>2025-07-29T09:34:51.000Z</time>
</trkpt>
<trkpt lat="45.8621960" lon="10.3031180">
	<ele>1943.20</ele>
	<time>2025-07-29T09:34:52.000Z</time>
</trkpt>
<trkpt lat="45.8621870" lon="10.3031360">
	<ele>1943.00</ele>
	<time>2025-07-29T09:34:53.000Z</time>
</trkpt>
<trkpt lat="45.8621850" lon="10.3031440">
	<ele>1942.80</ele>
	<time>2025-07-29T09:34:54.000Z</time>
</trkpt>
<trkpt lat="45.8621820" lon="10.3031530">
	<ele>1942.80</ele>
	<time>2025-07-29T09:34:55.000Z</time>
</trkpt>
<trkpt lat="45.8621790" lon="10.3031610">
	<ele>1942.60</ele>
	<time>2025-07-29T09:34:56.000Z</time>
</trkpt>
<trkpt lat="45.8621790" lon="10.3031640">
	<ele>1942.60</ele>
	<time>2025-07-29T09:34:57.000Z</time>
</trkpt>
<trkpt lat="45.8621790" lon="10.3031680">
	<ele>1942.60</ele>
	<time>2025-07-29T09:34:58.000Z</time>
</trkpt>
<trkpt lat="45.8621810" lon="10.3031720">
	<ele>1942.60</ele>
	<time>2025-07-29T09:34:59.000Z</time>
</trkpt>
<trkpt lat="45.8621820" lon="10.3031750">
	<ele>1942.60</ele>
	<time>2025-07-29T09:35:00.000Z</time>
</trkpt>
<trkpt lat="45.8621830" lon="10.3031760">
	<ele>1942.60</ele>
	<time>2025-07-29T09:35:01.000Z</time>
</trkpt>
<trkpt lat="45.8621840" lon="10.3031770">
	<ele>1942.60</ele>
	<time>2025-07-29T09:35:02.000Z</time>
</trkpt>
<trkpt lat="45.8621850" lon="10.3031770">
	<ele>1942.60</ele>
	<time>2025-07-29T09:35:03.000Z</time>
</trkpt>
<trkpt lat="45.8621850" lon="10.3031770">
	<ele>1942.60</ele>
	<time>2025-07-29T09:35:04.000Z</time>
</trkpt>
<trkpt lat="45.8621840" lon="10.3031780">
	<ele>1942.60</ele>
	<time>2025-07-29T09:35:05.000Z</time>
</trkpt>
<trkpt lat="45.8621820" lon="10.3031730">
	<ele>1942.60</ele>
	<time>2025-07-29T09:35:06.000Z</time>
</trkpt>
<trkpt lat="45.8621820" lon="10.3031740">
	<ele>1942.60</ele>
	<time>2025-07-29T09:35:07.000Z</time>
</trkpt>
<trkpt lat="45.8621820" lon="10.3031750">
	<ele>1942.40</ele>
	<time>2025-07-29T09:35:08.000Z</time>
</trkpt>
<trkpt lat="45.8621820" lon="10.3031750">
	<ele>1942.40</ele>
	<time>2025-07-29T09:35:09.000Z</time>
</trkpt>
<trkpt lat="45.8621820" lon="10.3031750">
	<ele>1942.20</ele>
	<time>2025-07-29T09:35:10.000Z</time>
</trkpt>
<trkpt lat="45.8621820" lon="10.3031750">
	<ele>1942.20</ele>
	<time>2025-07-29T09:35:11.000Z</time>
</trkpt>
<trkpt lat="45.8621820" lon="10.3031750">
	<ele>1942.20</ele>
	<time>2025-07-29T09:35:12.000Z</time>
</trkpt>
<trkpt lat="45.8621820" lon="10.3031750">
	<ele>1942.20</ele>
	<time>2025-07-29T09:35:13.000Z</time>
</trkpt>
<trkpt lat="45.8621820" lon="10.3031750">
	<ele>1942.20</ele>
	<time>2025-07-29T09:35:14.000Z</time>
</trkpt>
<trkpt lat="45.8621820" lon="10.3031750">
	<ele>1942.20</ele>
	<time>2025-07-29T09:35:15.000Z</time>
</trkpt>
<trkpt lat="45.8621820" lon="10.3031750">
	<ele>1942.20</ele>
	<time>2025-07-29T09:35:16.000Z</time>
</trkpt>
<trkpt lat="45.8621820" lon="10.3031750">
	<ele>1942.20</ele>
	<time>2025-07-29T09:35:17.000Z</time>
</trkpt>
<trkpt lat="45.8621820" lon="10.3031750">
	<ele>1942.20</ele>
	<time>2025-07-29T09:35:18.000Z</time>
</trkpt>
<trkpt lat="45.8621820" lon="10.3031760">
	<ele>1942.20</ele>
	<time>2025-07-29T09:35:19.000Z</time>
</trkpt>
<trkpt lat="45.8621820" lon="10.3031770">
	<ele>1942.20</ele>
	<time>2025-07-29T09:35:20.000Z</time>
</trkpt>
<trkpt lat="45.8621820" lon="10.3031770">
	<ele>1942.20</ele>
	<time>2025-07-29T09:35:21.000Z</time>
</trkpt>
<trkpt lat="45.8621820" lon="10.3031770">
	<ele>1942.20</ele>
	<time>2025-07-29T09:35:22.000Z</time>
</trkpt>
<trkpt lat="45.8621820" lon="10.3031770">
	<ele>1942.20</ele>
	<time>2025-07-29T09:35:23.000Z</time>
</trkpt>
<trkpt lat="45.8621820" lon="10.3031780">
	<ele>1942.20</ele>
	<time>2025-07-29T09:35:24.000Z</time>
</trkpt>
<trkpt lat="45.8621820" lon="10.3031780">
	<ele>1942.20</ele>
	<time>2025-07-29T09:35:25.000Z</time>
</trkpt>
<trkpt lat="45.8621820" lon="10.3031790">
	<ele>1942.20</ele>
	<time>2025-07-29T09:35:26.000Z</time>
</trkpt>
<trkpt lat="45.8621820" lon="10.3031800">
	<ele>1942.40</ele>
	<time>2025-07-29T09:35:27.000Z</time>
</trkpt>
<trkpt lat="45.8621820" lon="10.3031800">
	<ele>1942.40</ele>
	<time>2025-07-29T09:35:28.000Z</time>
</trkpt>
<trkpt lat="45.8621820" lon="10.3031800">
	<ele>1942.40</ele>
	<time>2025-07-29T09:35:29.000Z</time>
</trkpt>
<trkpt lat="45.8621820" lon="10.3031800">
	<ele>1942.60</ele>
	<time>2025-07-29T09:35:30.000Z</time>
</trkpt>
<trkpt lat="45.8621820" lon="10.3031800">
	<ele>1942.60</ele>
	<time>2025-07-29T09:35:31.000Z</time>
</trkpt>
<trkpt lat="45.8621820" lon="10.3031800">
	<ele>1942.60</ele>
	<time>2025-07-29T09:35:32.000Z</time>
</trkpt>
<trkpt lat="45.8621820" lon="10.3031800">
	<ele>1942.60</ele>
	<time>2025-07-29T09:35:33.000Z</time>
</trkpt>
<trkpt lat="45.8621810" lon="10.3031800">
	<ele>1942.40</ele>
	<time>2025-07-29T09:35:34.000Z</time>
</trkpt>
<trkpt lat="45.8621810" lon="10.3031810">
	<ele>1942.40</ele>
	<time>2025-07-29T09:35:35.000Z</time>
</trkpt>
<trkpt lat="45.8621810" lon="10.3031810">
	<ele>1942.40</ele>
	<time>2025-07-29T09:35:36.000Z</time>
</trkpt>
<trkpt lat="45.8621810" lon="10.3031810">
	<ele>1942.40</ele>
	<time>2025-07-29T09:35:37.000Z</time>
</trkpt>
<trkpt lat="45.8621810" lon="10.3031810">
	<ele>1942.20</ele>
	<time>2025-07-29T09:35:38.000Z</time>
</trkpt>
<trkpt lat="45.8621810" lon="10.3031810">
	<ele>1942.20</ele>
	<time>2025-07-29T09:35:39.000Z</time>
</trkpt>
<trkpt lat="45.8621810" lon="10.3031820">
	<ele>1942.20</ele>
	<time>2025-07-29T09:35:40.000Z</time>
</trkpt>
<trkpt lat="45.8621810" lon="10.3031830">
	<ele>1942.20</ele>
	<time>2025-07-29T09:35:41.000Z</time>
</trkpt>
<trkpt lat="45.8621820" lon="10.3031830">
	<ele>1942.20</ele>
	<time>2025-07-29T09:35:42.000Z</time>
</trkpt>
<trkpt lat="45.8621820" lon="10.3031830">
	<ele>1942.00</ele>
	<time>2025-07-29T09:35:43.000Z</time>
</trkpt>
<trkpt lat="45.8621820" lon="10.3031830">
	<ele>1942.00</ele>
	<time>2025-07-29T09:35:44.000Z</time>
</trkpt>
<trkpt lat="45.8621820" lon="10.3031830">
	<ele>1942.20</ele>
	<time>2025-07-29T09:35:45.000Z</time>
</trkpt>
<trkpt lat="45.8621810" lon="10.3031840">
	<ele>1942.20</ele>
	<time>2025-07-29T09:35:46.000Z</time>
</trkpt>
<trkpt lat="45.8621810" lon="10.3031840">
	<ele>1942.20</ele>
	<time>2025-07-29T09:35:47.000Z</time>
</trkpt>
<trkpt lat="45.8621800" lon="10.3031870">
	<ele>1942.20</ele>
	<time>2025-07-29T09:35:48.000Z</time>
</trkpt>
<trkpt lat="45.8621800" lon="10.3031900">
	<ele>1942.20</ele>
	<time>2025-07-29T09:35:49.000Z</time>
</trkpt>
<trkpt lat="45.8621800" lon="10.3031900">
	<ele>1942.20</ele>
	<time>2025-07-29T09:35:50.000Z</time>
</trkpt>
<trkpt lat="45.8621800" lon="10.3031900">
	<ele>1942.00</ele>
	<time>2025-07-29T09:35:51.000Z</time>
</trkpt>
<trkpt lat="45.8621800" lon="10.3031900">
	<ele>1942.00</ele>
	<time>2025-07-29T09:35:52.000Z</time>
</trkpt>
<trkpt lat="45.8621800" lon="10.3031900">
	<ele>1942.00</ele>
	<time>2025-07-29T09:35:53.000Z</time>
</trkpt>
<trkpt lat="45.8621820" lon="10.3031900">
	<ele>1942.00</ele>
	<time>2025-07-29T09:35:54.000Z</time>
</trkpt>
<trkpt lat="45.8621820" lon="10.3031900">
	<ele>1942.00</ele>
	<time>2025-07-29T09:35:55.000Z</time>
</trkpt>
<trkpt lat="45.8621830" lon="10.3031900">
	<ele>1942.00</ele>
	<time>2025-07-29T09:35:56.000Z</time>
</trkpt>
<trkpt lat="45.8621840" lon="10.3031900">
	<ele>1942.00</ele>
	<time>2025-07-29T09:35:57.000Z</time>
</trkpt>
<trkpt lat="45.8621840" lon="10.3031900">
	<ele>1942.00</ele>
	<time>2025-07-29T09:35:58.000Z</time>
</trkpt>
<trkpt lat="45.8621850" lon="10.3031900">
	<ele>1942.20</ele>
	<time>2025-07-29T09:35:59.000Z</time>
</trkpt>
<trkpt lat="45.8621850" lon="10.3031900">
	<ele>1942.20</ele>
	<time>2025-07-29T09:36:00.000Z</time>
</trkpt>
<trkpt lat="45.8621850" lon="10.3031900">
	<ele>1942.20</ele>
	<time>2025-07-29T09:36:01.000Z</time>
</trkpt>
<trkpt lat="45.8621850" lon="10.3031900">
	<ele>1942.00</ele>
	<time>2025-07-29T09:36:02.000Z</time>
</trkpt>
<trkpt lat="45.8621850" lon="10.3031900">
	<ele>1942.00</ele>
	<time>2025-07-29T09:36:03.000Z</time>
</trkpt>
<trkpt lat="45.8621860" lon="10.3031880">
	<ele>1942.00</ele>
	<time>2025-07-29T09:36:04.000Z</time>
</trkpt>
<trkpt lat="45.8621860" lon="10.3031880">
	<ele>1942.00</ele>
	<time>2025-07-29T09:36:05.000Z</time>
</trkpt>
<trkpt lat="45.8621860" lon="10.3031870">
	<ele>1941.80</ele>
	<time>2025-07-29T09:36:06.000Z</time>
</trkpt>
<trkpt lat="45.8621860" lon="10.3031860">
	<ele>1941.80</ele>
	<time>2025-07-29T09:36:07.000Z</time>
</trkpt>
<trkpt lat="45.8621860" lon="10.3031860">
	<ele>1941.80</ele>
	<time>2025-07-29T09:36:08.000Z</time>
</trkpt>
<trkpt lat="45.8621910" lon="10.3031830">
	<ele>1942.00</ele>
	<time>2025-07-29T09:36:09.000Z</time>
</trkpt>
<trkpt lat="45.8622060" lon="10.3031770">
	<ele>1942.00</ele>
	<time>2025-07-29T09:36:10.000Z</time>
</trkpt>
<trkpt lat="45.8622240" lon="10.3031700">
	<ele>1942.00</ele>
	<time>2025-07-29T09:36:11.000Z</time>
</trkpt>
<trkpt lat="45.8622420" lon="10.3031630">
	<ele>1942.00</ele>
	<time>2025-07-29T09:36:12.000Z</time>
</trkpt>
<trkpt lat="45.8622600" lon="10.3031580">
	<ele>1942.20</ele>
	<time>2025-07-29T09:36:13.000Z</time>
</trkpt>
<trkpt lat="45.8622770" lon="10.3031510">
	<ele>1942.20</ele>
	<time>2025-07-29T09:36:14.000Z</time>
</trkpt>
<trkpt lat="45.8622950" lon="10.3031440">
	<ele>1942.40</ele>
	<time>2025-07-29T09:36:15.000Z</time>
</trkpt>
<trkpt lat="45.8623110" lon="10.3031360">
	<ele>1942.40</ele>
	<time>2025-07-29T09:36:16.000Z</time>
</trkpt>
<trkpt lat="45.8623260" lon="10.3031320">
	<ele>1942.40</ele>
	<time>2025-07-29T09:36:17.000Z</time>
</trkpt>
<trkpt lat="45.8623420" lon="10.3031250">
	<ele>1942.40</ele>
	<time>2025-07-29T09:36:18.000Z</time>
</trkpt>
<trkpt lat="45.8623520" lon="10.3031230">
	<ele>1942.40</ele>
	<time>2025-07-29T09:36:19.000Z</time>
</trkpt>
<trkpt lat="45.8623600" lon="10.3031210">
	<ele>1942.40</ele>
	<time>2025-07-29T09:36:20.000Z</time>
</trkpt>
<trkpt lat="45.8623720" lon="10.3031170">
	<ele>1942.40</ele>
	<time>2025-07-29T09:36:21.000Z</time>
</trkpt>
<trkpt lat="45.8623850" lon="10.3031160">
	<ele>1942.20</ele>
	<time>2025-07-29T09:36:22.000Z</time>
</trkpt>
<trkpt lat="45.8623990" lon="10.3031130">
	<ele>1942.20</ele>
	<time>2025-07-29T09:36:23.000Z</time>
</trkpt>
<trkpt lat="45.8624120" lon="10.3031050">
	<ele>1942.20</ele>
	<time>2025-07-29T09:36:24.000Z</time>
</trkpt>
<trkpt lat="45.8624200" lon="10.3031030">
	<ele>1942.00</ele>
	<time>2025-07-29T09:36:25.000Z</time>
</trkpt>
<trkpt lat="45.8624310" lon="10.3031040">
	<ele>1942.00</ele>
	<time>2025-07-29T09:36:26.000Z</time>
</trkpt>
<trkpt lat="45.8624420" lon="10.3031020">
	<ele>1941.80</ele>
	<time>2025-07-29T09:36:27.000Z</time>
</trkpt>
<trkpt lat="45.8624490" lon="10.3030940">
	<ele>1941.60</ele>
	<time>2025-07-29T09:36:28.000Z</time>
</trkpt>
<trkpt lat="45.8624580" lon="10.3030910">
	<ele>1941.60</ele>
	<time>2025-07-29T09:36:29.000Z</time>
</trkpt>
<trkpt lat="45.8624680" lon="10.3030900">
	<ele>1941.40</ele>
	<time>2025-07-29T09:36:30.000Z</time>
</trkpt>
<trkpt lat="45.8624740" lon="10.3031020">
	<ele>1941.20</ele>
	<time>2025-07-29T09:36:31.000Z</time>
</trkpt>
<trkpt lat="45.8624870" lon="10.3031080">
	<ele>1941.00</ele>
	<time>2025-07-29T09:36:32.000Z</time>
</trkpt>
<trkpt lat="45.8625030" lon="10.3031100">
	<ele>1940.80</ele>
	<time>2025-07-29T09:36:33.000Z</time>
</trkpt>
<trkpt lat="45.8625150" lon="10.3031130">
	<ele>1940.60</ele>
	<time>2025-07-29T09:36:34.000Z</time>
</trkpt>
<trkpt lat="45.8625300" lon="10.3031160">
	<ele>1940.60</ele>
	<time>2025-07-29T09:36:35.000Z</time>
</trkpt>
<trkpt lat="45.8625410" lon="10.3031180">
	<ele>1940.40</ele>
	<time>2025-07-29T09:36:36.000Z</time>
</trkpt>
<trkpt lat="45.8625530" lon="10.3031160">
	<ele>1940.20</ele>
	<time>2025-07-29T09:36:37.000Z</time>
</trkpt>
<trkpt lat="45.8625660" lon="10.3031150">
	<ele>1940.00</ele>
	<time>2025-07-29T09:36:38.000Z</time>
</trkpt>
<trkpt lat="45.8625800" lon="10.3031180">
	<ele>1939.80</ele>
	<time>2025-07-29T09:36:39.000Z</time>
</trkpt>
<trkpt lat="45.8625950" lon="10.3031190">
	<ele>1939.40</ele>
	<time>2025-07-29T09:36:40.000Z</time>
</trkpt>
<trkpt lat="45.8626090" lon="10.3031150">
	<ele>1939.20</ele>
	<time>2025-07-29T09:36:41.000Z</time>
</trkpt>
<trkpt lat="45.8626230" lon="10.3031130">
	<ele>1939.00</ele>
	<time>2025-07-29T09:36:42.000Z</time>
</trkpt>
<trkpt lat="45.8626360" lon="10.3031070">
	<ele>1938.80</ele>
	<time>2025-07-29T09:36:43.000Z</time>
</trkpt>
<trkpt lat="45.8626490" lon="10.3031040">
	<ele>1938.60</ele>
	<time>2025-07-29T09:36:44.000Z</time>
</trkpt>
<trkpt lat="45.8626610" lon="10.3031110">
	<ele>1938.60</ele>
	<time>2025-07-29T09:36:45.000Z</time>
</trkpt>
<trkpt lat="45.8626750" lon="10.3031160">
	<ele>1938.20</ele>
	<time>2025-07-29T09:36:46.000Z</time>
</trkpt>
<trkpt lat="45.8626890" lon="10.3031200">
	<ele>1938.00</ele>
	<time>2025-07-29T09:36:47.000Z</time>
</trkpt>
<trkpt lat="45.8627040" lon="10.3031210">
	<ele>1937.80</ele>
	<time>2025-07-29T09:36:48.000Z</time>
</trkpt>
<trkpt lat="45.8627170" lon="10.3031250">
	<ele>1937.60</ele>
	<time>2025-07-29T09:36:49.000Z</time>
</trkpt>
<trkpt lat="45.8627330" lon="10.3031300">
	<ele>1937.40</ele>
	<time>2025-07-29T09:36:50.000Z</time>
</trkpt>
<trkpt lat="45.8627460" lon="10.3031270">
	<ele>1937.20</ele>
	<time>2025-07-29T09:36:51.000Z</time>
</trkpt>
<trkpt lat="45.8627570" lon="10.3031410">
	<ele>1937.00</ele>
	<time>2025-07-29T09:36:52.000Z</time>
</trkpt>
<trkpt lat="45.8627700" lon="10.3031470">
	<ele>1936.80</ele>
	<time>2025-07-29T09:36:53.000Z</time>
</trkpt>
<trkpt lat="45.8627850" lon="10.3031550">
	<ele>1936.60</ele>
	<time>2025-07-29T09:36:54.000Z</time>
</trkpt>
<trkpt lat="45.8628000" lon="10.3031580">
	<ele>1936.40</ele>
	<time>2025-07-29T09:36:55.000Z</time>
</trkpt>
<trkpt lat="45.8628130" lon="10.3031620">
	<ele>1936.40</ele>
	<time>2025-07-29T09:36:56.000Z</time>
</trkpt>
<trkpt lat="45.8628260" lon="10.3031680">
	<ele>1936.20</ele>
	<time>2025-07-29T09:36:57.000Z</time>
</trkpt>
<trkpt lat="45.8628400" lon="10.3031730">
	<ele>1936.20</ele>
	<time>2025-07-29T09:36:58.000Z</time>
</trkpt>
<trkpt lat="45.8628550" lon="10.3031750">
	<ele>1936.00</ele>
	<time>2025-07-29T09:36:59.000Z</time>
</trkpt>
<trkpt lat="45.8628700" lon="10.3031740">
	<ele>1935.80</ele>
	<time>2025-07-29T09:37:00.000Z</time>
</trkpt>
<trkpt lat="45.8628820" lon="10.3031820">
	<ele>1935.80</ele>
	<time>2025-07-29T09:37:01.000Z</time>
</trkpt>
<trkpt lat="45.8628930" lon="10.3031890">
	<ele>1935.60</ele>
	<time>2025-07-29T09:37:02.000Z</time>
</trkpt>
<trkpt lat="45.8629060" lon="10.3031920">
	<ele>1935.60</ele>
	<time>2025-07-29T09:37:03.000Z</time>
</trkpt>
<trkpt lat="45.8629200" lon="10.3031910">
	<ele>1935.60</ele>
	<time>2025-07-29T09:37:04.000Z</time>
</trkpt>
<trkpt lat="45.8629300" lon="10.3031900">
	<ele>1935.60</ele>
	<time>2025-07-29T09:37:05.000Z</time>
</trkpt>
<trkpt lat="45.8629400" lon="10.3031910">
	<ele>1935.40</ele>
	<time>2025-07-29T09:37:06.000Z</time>
</trkpt>
<trkpt lat="45.8629510" lon="10.3031900">
	<ele>1935.40</ele>
	<time>2025-07-29T09:37:07.000Z</time>
</trkpt>
<trkpt lat="45.8629630" lon="10.3031900">
	<ele>1935.20</ele>
	<time>2025-07-29T09:37:08.000Z</time>
</trkpt>
<trkpt lat="45.8629790" lon="10.3031840">
	<ele>1935.00</ele>
	<time>2025-07-29T09:37:09.000Z</time>
</trkpt>
<trkpt lat="45.8629880" lon="10.3031890">
	<ele>1935.00</ele>
	<time>2025-07-29T09:37:10.000Z</time>
</trkpt>
<trkpt lat="45.8629960" lon="10.3031980">
	<ele>1934.60</ele>
	<time>2025-07-29T09:37:11.000Z</time>
</trkpt>
<trkpt lat="45.8630040" lon="10.3032070">
	<ele>1934.40</ele>
	<time>2025-07-29T09:37:12.000Z</time>
</trkpt>
<trkpt lat="45.8630110" lon="10.3032150">
	<ele>1934.20</ele>
	<time>2025-07-29T09:37:13.000Z</time>
</trkpt>
<trkpt lat="45.8630220" lon="10.3032110">
	<ele>1934.00</ele>
	<time>2025-07-29T09:37:14.000Z</time>
</trkpt>
<trkpt lat="45.8630360" lon="10.3032080">
	<ele>1933.80</ele>
	<time>2025-07-29T09:37:15.000Z</time>
</trkpt>
<trkpt lat="45.8630480" lon="10.3032080">
	<ele>1933.80</ele>
	<time>2025-07-29T09:37:16.000Z</time>
</trkpt>
<trkpt lat="45.8630530" lon="10.3032060">
	<ele>1933.60</ele>
	<time>2025-07-29T09:37:17.000Z</time>
</trkpt>
<trkpt lat="45.8630590" lon="10.3032080">
	<ele>1933.40</ele>
	<time>2025-07-29T09:37:18.000Z</time>
</trkpt>
<trkpt lat="45.8630610" lon="10.3032150">
	<ele>1933.40</ele>
	<time>2025-07-29T09:37:19.000Z</time>
</trkpt>
<trkpt lat="45.8630690" lon="10.3032220">
	<ele>1933.20</ele>
	<time>2025-07-29T09:37:20.000Z</time>
</trkpt>
<trkpt lat="45.8630750" lon="10.3032270">
	<ele>1933.00</ele>
	<time>2025-07-29T09:37:21.000Z</time>
</trkpt>
<trkpt lat="45.8630850" lon="10.3032260">
	<ele>1933.00</ele>
	<time>2025-07-29T09:37:22.000Z</time>
</trkpt>
<trkpt lat="45.8630940" lon="10.3032270">
	<ele>1933.00</ele>
	<time>2025-07-29T09:37:23.000Z</time>
</trkpt>
<trkpt lat="45.8631020" lon="10.3032340">
	<ele>1932.80</ele>
	<time>2025-07-29T09:37:24.000Z</time>
</trkpt>
<trkpt lat="45.8631140" lon="10.3032400">
	<ele>1932.80</ele>
	<time>2025-07-29T09:37:25.000Z</time>
</trkpt>
<trkpt lat="45.8631250" lon="10.3032470">
	<ele>1932.60</ele>
	<time>2025-07-29T09:37:26.000Z</time>
</trkpt>
<trkpt lat="45.8631340" lon="10.3032520">
	<ele>1932.40</ele>
	<time>2025-07-29T09:37:27.000Z</time>
</trkpt>
<trkpt lat="45.8631420" lon="10.3032540">
	<ele>1932.00</ele>
	<time>2025-07-29T09:37:28.000Z</time>
</trkpt>
<trkpt lat="45.8631490" lon="10.3032580">
	<ele>1931.80</ele>
	<time>2025-07-29T09:37:29.000Z</time>
</trkpt>
<trkpt lat="45.8631550" lon="10.3032660">
	<ele>1931.60</ele>
	<time>2025-07-29T09:37:30.000Z</time>
</trkpt>
<trkpt lat="45.8631610" lon="10.3032760">
	<ele>1931.60</ele>
	<time>2025-07-29T09:37:31.000Z</time>
</trkpt>
<trkpt lat="45.8631680" lon="10.3032860">
	<ele>1931.20</ele>
	<time>2025-07-29T09:37:32.000Z</time>
</trkpt>
<trkpt lat="45.8631760" lon="10.3032920">
	<ele>1930.80</ele>
	<time>2025-07-29T09:37:33.000Z</time>
</trkpt>
<trkpt lat="45.8631850" lon="10.3032980">
	<ele>1930.60</ele>
	<time>2025-07-29T09:37:34.000Z</time>
</trkpt>
<trkpt lat="45.8631930" lon="10.3033040">
	<ele>1930.40</ele>
	<time>2025-07-29T09:37:35.000Z</time>
</trkpt>
<trkpt lat="45.8631990" lon="10.3033090">
	<ele>1930.20</ele>
	<time>2025-07-29T09:37:36.000Z</time>
</trkpt>
<trkpt lat="45.8632050" lon="10.3033150">
	<ele>1930.20</ele>
	<time>2025-07-29T09:37:37.000Z</time>
</trkpt>
<trkpt lat="45.8632120" lon="10.3033170">
	<ele>1930.00</ele>
	<time>2025-07-29T09:37:38.000Z</time>
</trkpt>
<trkpt lat="45.8632190" lon="10.3033200">
	<ele>1929.80</ele>
	<time>2025-07-29T09:37:39.000Z</time>
</trkpt>
<trkpt lat="45.8632260" lon="10.3033210">
	<ele>1929.40</ele>
	<time>2025-07-29T09:37:40.000Z</time>
</trkpt>
<trkpt lat="45.8632330" lon="10.3033250">
	<ele>1929.00</ele>
	<time>2025-07-29T09:37:41.000Z</time>
</trkpt>
<trkpt lat="45.8632410" lon="10.3033290">
	<ele>1928.60</ele>
	<time>2025-07-29T09:37:42.000Z</time>
</trkpt>
<trkpt lat="45.8632500" lon="10.3033300">
	<ele>1928.20</ele>
	<time>2025-07-29T09:37:43.000Z</time>
</trkpt>
<trkpt lat="45.8632620" lon="10.3033320">
	<ele>1928.00</ele>
	<time>2025-07-29T09:37:44.000Z</time>
</trkpt>
<trkpt lat="45.8632730" lon="10.3033300">
	<ele>1927.80</ele>
	<time>2025-07-29T09:37:45.000Z</time>
</trkpt>
<trkpt lat="45.8632840" lon="10.3033250">
	<ele>1927.60</ele>
	<time>2025-07-29T09:37:46.000Z</time>
</trkpt>
<trkpt lat="45.8632940" lon="10.3033220">
	<ele>1927.60</ele>
	<time>2025-07-29T09:37:47.000Z</time>
</trkpt>
<trkpt lat="45.8633030" lon="10.3033200">
	<ele>1927.40</ele>
	<time>2025-07-29T09:37:48.000Z</time>
</trkpt>
<trkpt lat="45.8633140" lon="10.3033190">
	<ele>1927.40</ele>
	<time>2025-07-29T09:37:49.000Z</time>
</trkpt>
<trkpt lat="45.8633260" lon="10.3033190">
	<ele>1927.00</ele>
	<time>2025-07-29T09:37:50.000Z</time>
</trkpt>
<trkpt lat="45.8633370" lon="10.3033180">
	<ele>1926.80</ele>
	<time>2025-07-29T09:37:51.000Z</time>
</trkpt>
<trkpt lat="45.8633460" lon="10.3033170">
	<ele>1926.60</ele>
	<time>2025-07-29T09:37:52.000Z</time>
</trkpt>
<trkpt lat="45.8633540" lon="10.3033130">
	<ele>1926.40</ele>
	<time>2025-07-29T09:37:53.000Z</time>
</trkpt>
<trkpt lat="45.8633650" lon="10.3033130">
	<ele>1926.20</ele>
	<time>2025-07-29T09:37:54.000Z</time>
</trkpt>
<trkpt lat="45.8633750" lon="10.3033180">
	<ele>1926.00</ele>
	<time>2025-07-29T09:37:55.000Z</time>
</trkpt>
<trkpt lat="45.8633850" lon="10.3033220">
	<ele>1926.00</ele>
	<time>2025-07-29T09:37:56.000Z</time>
</trkpt>
<trkpt lat="45.8633960" lon="10.3033270">
	<ele>1925.60</ele>
	<time>2025-07-29T09:37:57.000Z</time>
</trkpt>
<trkpt lat="45.8634070" lon="10.3033260">
	<ele>1925.40</ele>
	<time>2025-07-29T09:37:58.000Z</time>
</trkpt>
<trkpt lat="45.8634170" lon="10.3033180">
	<ele>1925.20</ele>
	<time>2025-07-29T09:37:59.000Z</time>
</trkpt>
<trkpt lat="45.8634270" lon="10.3033100">
	<ele>1925.00</ele>
	<time>2025-07-29T09:38:00.000Z</time>
</trkpt>
<trkpt lat="45.8634380" lon="10.3033020">
	<ele>1924.80</ele>
	<time>2025-07-29T09:38:01.000Z</time>
</trkpt>
<trkpt lat="45.8634520" lon="10.3032920">
	<ele>1924.60</ele>
	<time>2025-07-29T09:38:02.000Z</time>
</trkpt>
<trkpt lat="45.8634680" lon="10.3032840">
	<ele>1924.40</ele>
	<time>2025-07-29T09:38:03.000Z</time>
</trkpt>
<trkpt lat="45.8634830" lon="10.3032790">
	<ele>1924.40</ele>
	<time>2025-07-29T09:38:04.000Z</time>
</trkpt>
<trkpt lat="45.8634970" lon="10.3032720">
	<ele>1924.20</ele>
	<time>2025-07-29T09:38:05.000Z</time>
</trkpt>
<trkpt lat="45.8635110" lon="10.3032610">
	<ele>1924.20</ele>
	<time>2025-07-29T09:38:06.000Z</time>
</trkpt>
<trkpt lat="45.8635230" lon="10.3032480">
	<ele>1924.00</ele>
	<time>2025-07-29T09:38:07.000Z</time>
</trkpt>
<trkpt lat="45.8635330" lon="10.3032370">
	<ele>1924.00</ele>
	<time>2025-07-29T09:38:08.000Z</time>
</trkpt>
<trkpt lat="45.8635420" lon="10.3032250">
	<ele>1923.80</ele>
	<time>2025-07-29T09:38:09.000Z</time>
</trkpt>
<trkpt lat="45.8635510" lon="10.3032130">
	<ele>1923.80</ele>
	<time>2025-07-29T09:38:10.000Z</time>
</trkpt>
<trkpt lat="45.8635610" lon="10.3032010">
	<ele>1923.60</ele>
	<time>2025-07-29T09:38:11.000Z</time>
</trkpt>
<trkpt lat="45.8635720" lon="10.3031870">
	<ele>1923.40</ele>
	<time>2025-07-29T09:38:12.000Z</time>
</trkpt>
<trkpt lat="45.8635800" lon="10.3031760">
	<ele>1923.40</ele>
	<time>2025-07-29T09:38:13.000Z</time>
</trkpt>
<trkpt lat="45.8635930" lon="10.3031630">
	<ele>1923.40</ele>
	<time>2025-07-29T09:38:14.000Z</time>
</trkpt>
<trkpt lat="45.8636030" lon="10.3031500">
	<ele>1923.20</ele>
	<time>2025-07-29T09:38:15.000Z</time>
</trkpt>
<trkpt lat="45.8636160" lon="10.3031360">
	<ele>1923.20</ele>
	<time>2025-07-29T09:38:16.000Z</time>
</trkpt>
<trkpt lat="45.8636270" lon="10.3031260">
	<ele>1923.20</ele>
	<time>2025-07-29T09:38:17.000Z</time>
</trkpt>
<trkpt lat="45.8636400" lon="10.3031170">
	<ele>1923.20</ele>
	<time>2025-07-29T09:38:18.000Z</time>
</trkpt>
<trkpt lat="45.8636500" lon="10.3031090">
	<ele>1923.20</ele>
	<time>2025-07-29T09:38:19.000Z</time>
</trkpt>
<trkpt lat="45.8636590" lon="10.3030950">
	<ele>1923.20</ele>
	<time>2025-07-29T09:38:20.000Z</time>
</trkpt>
<trkpt lat="45.8636650" lon="10.3030880">
	<ele>1923.20</ele>
	<time>2025-07-29T09:38:21.000Z</time>
</trkpt>
<trkpt lat="45.8636750" lon="10.3030810">
	<ele>1923.20</ele>
	<time>2025-07-29T09:38:22.000Z</time>
</trkpt>
<trkpt lat="45.8636880" lon="10.3030750">
	<ele>1923.20</ele>
	<time>2025-07-29T09:38:23.000Z</time>
</trkpt>
<trkpt lat="45.8636990" lon="10.3030730">
	<ele>1923.40</ele>
	<time>2025-07-29T09:38:24.000Z</time>
</trkpt>
<trkpt lat="45.8637110" lon="10.3030710">
	<ele>1923.60</ele>
	<time>2025-07-29T09:38:25.000Z</time>
</trkpt>
<trkpt lat="45.8637220" lon="10.3030670">
	<ele>1923.60</ele>
	<time>2025-07-29T09:38:26.000Z</time>
</trkpt>
<trkpt lat="45.8637370" lon="10.3030600">
	<ele>1923.60</ele>
	<time>2025-07-29T09:38:27.000Z</time>
</trkpt>
<trkpt lat="45.8637490" lon="10.3030590">
	<ele>1923.60</ele>
	<time>2025-07-29T09:38:28.000Z</time>
</trkpt>
<trkpt lat="45.8637620" lon="10.3030560">
	<ele>1923.60</ele>
	<time>2025-07-29T09:38:29.000Z</time>
</trkpt>
<trkpt lat="45.8637760" lon="10.3030540">
	<ele>1923.60</ele>
	<time>2025-07-29T09:38:30.000Z</time>
</trkpt>
<trkpt lat="45.8637900" lon="10.3030520">
	<ele>1923.60</ele>
	<time>2025-07-29T09:38:31.000Z</time>
</trkpt>
<trkpt lat="45.8638040" lon="10.3030490">
	<ele>1923.40</ele>
	<time>2025-07-29T09:38:32.000Z</time>
</trkpt>
<trkpt lat="45.8638180" lon="10.3030460">
	<ele>1923.20</ele>
	<time>2025-07-29T09:38:33.000Z</time>
</trkpt>
<trkpt lat="45.8638360" lon="10.3030370">
	<ele>1923.20</ele>
	<time>2025-07-29T09:38:34.000Z</time>
</trkpt>
<trkpt lat="45.8638460" lon="10.3030310">
	<ele>1923.00</ele>
	<time>2025-07-29T09:38:35.000Z</time>
</trkpt>
<trkpt lat="45.8638590" lon="10.3030240">
	<ele>1923.00</ele>
	<time>2025-07-29T09:38:36.000Z</time>
</trkpt>
<trkpt lat="45.8638750" lon="10.3030160">
	<ele>1922.80</ele>
	<time>2025-07-29T09:38:37.000Z</time>
</trkpt>
<trkpt lat="45.8638870" lon="10.3030080">
	<ele>1923.00</ele>
	<time>2025-07-29T09:38:38.000Z</time>
</trkpt>
<trkpt lat="45.8638970" lon="10.3030030">
	<ele>1922.80</ele>
	<time>2025-07-29T09:38:39.000Z</time>
</trkpt>
<trkpt lat="45.8639100" lon="10.3029950">
	<ele>1922.80</ele>
	<time>2025-07-29T09:38:40.000Z</time>
</trkpt>
<trkpt lat="45.8639210" lon="10.3029930">
	<ele>1922.80</ele>
	<time>2025-07-29T09:38:41.000Z</time>
</trkpt>
<trkpt lat="45.8639330" lon="10.3029910">
	<ele>1923.00</ele>
	<time>2025-07-29T09:38:42.000Z</time>
</trkpt>
<trkpt lat="45.8639460" lon="10.3029930">
	<ele>1923.00</ele>
	<time>2025-07-29T09:38:43.000Z</time>
</trkpt>
<trkpt lat="45.8639580" lon="10.3029990">
	<ele>1922.80</ele>
	<time>2025-07-29T09:38:44.000Z</time>
</trkpt>
<trkpt lat="45.8639750" lon="10.3030010">
	<ele>1922.80</ele>
	<time>2025-07-29T09:38:45.000Z</time>
</trkpt>
<trkpt lat="45.8639880" lon="10.3030060">
	<ele>1922.80</ele>
	<time>2025-07-29T09:38:46.000Z</time>
</trkpt>
<trkpt lat="45.8640010" lon="10.3030120">
	<ele>1922.80</ele>
	<time>2025-07-29T09:38:47.000Z</time>
</trkpt>
<trkpt lat="45.8640100" lon="10.3030150">
	<ele>1922.60</ele>
	<time>2025-07-29T09:38:48.000Z</time>
</trkpt>
<trkpt lat="45.8640260" lon="10.3030170">
	<ele>1922.60</ele>
	<time>2025-07-29T09:38:49.000Z</time>
</trkpt>
<trkpt lat="45.8640410" lon="10.3030210">
	<ele>1922.40</ele>
	<time>2025-07-29T09:38:50.000Z</time>
</trkpt>
<trkpt lat="45.8640570" lon="10.3030250">
	<ele>1922.20</ele>
	<time>2025-07-29T09:38:51.000Z</time>
</trkpt>
<trkpt lat="45.8640740" lon="10.3030220">
	<ele>1922.00</ele>
	<time>2025-07-29T09:38:52.000Z</time>
</trkpt>
<trkpt lat="45.8640840" lon="10.3030170">
	<ele>1922.00</ele>
	<time>2025-07-29T09:38:53.000Z</time>
</trkpt>
<trkpt lat="45.8640990" lon="10.3030090">
	<ele>1921.80</ele>
	<time>2025-07-29T09:38:54.000Z</time>
</trkpt>
<trkpt lat="45.8641100" lon="10.3030030">
	<ele>1921.80</ele>
	<time>2025-07-29T09:38:55.000Z</time>
</trkpt>
<trkpt lat="45.8641210" lon="10.3029980">
	<ele>1921.80</ele>
	<time>2025-07-29T09:38:56.000Z</time>
</trkpt>
<trkpt lat="45.8641330" lon="10.3029920">
	<ele>1921.80</ele>
	<time>2025-07-29T09:38:57.000Z</time>
</trkpt>
<trkpt lat="45.8641450" lon="10.3029870">
	<ele>1921.80</ele>
	<time>2025-07-29T09:38:58.000Z</time>
</trkpt>
<trkpt lat="45.8641570" lon="10.3029820">
	<ele>1921.60</ele>
	<time>2025-07-29T09:38:59.000Z</time>
</trkpt>
<trkpt lat="45.8641690" lon="10.3029760">
	<ele>1921.60</ele>
	<time>2025-07-29T09:39:00.000Z</time>
</trkpt>
<trkpt lat="45.8641830" lon="10.3029690">
	<ele>1921.60</ele>
	<time>2025-07-29T09:39:01.000Z</time>
</trkpt>
<trkpt lat="45.8641940" lon="10.3029660">
	<ele>1921.60</ele>
	<time>2025-07-29T09:39:02.000Z</time>
</trkpt>
<trkpt lat="45.8642070" lon="10.3029620">
	<ele>1921.40</ele>
	<time>2025-07-29T09:39:03.000Z</time>
</trkpt>
<trkpt lat="45.8642200" lon="10.3029580">
	<ele>1921.40</ele>
	<time>2025-07-29T09:39:04.000Z</time>
</trkpt>
<trkpt lat="45.8642360" lon="10.3029500">
	<ele>1921.40</ele>
	<time>2025-07-29T09:39:05.000Z</time>
</trkpt>
<trkpt lat="45.8642480" lon="10.3029430">
	<ele>1921.20</ele>
	<time>2025-07-29T09:39:06.000Z</time>
</trkpt>
<trkpt lat="45.8642610" lon="10.3029350">
	<ele>1921.20</ele>
	<time>2025-07-29T09:39:07.000Z</time>
</trkpt>
<trkpt lat="45.8642700" lon="10.3029280">
	<ele>1921.20</ele>
	<time>2025-07-29T09:39:08.000Z</time>
</trkpt>
<trkpt lat="45.8642800" lon="10.3029230">
	<ele>1921.00</ele>
	<time>2025-07-29T09:39:09.000Z</time>
</trkpt>
<trkpt lat="45.8642930" lon="10.3029180">
	<ele>1920.80</ele>
	<time>2025-07-29T09:39:10.000Z</time>
</trkpt>
<trkpt lat="45.8643070" lon="10.3029120">
	<ele>1920.60</ele>
	<time>2025-07-29T09:39:11.000Z</time>
</trkpt>
<trkpt lat="45.8643120" lon="10.3029040">
	<ele>1920.40</ele>
	<time>2025-07-29T09:39:12.000Z</time>
</trkpt>
<trkpt lat="45.8643210" lon="10.3028970">
	<ele>1920.20</ele>
	<time>2025-07-29T09:39:13.000Z</time>
</trkpt>
<trkpt lat="45.8643360" lon="10.3028910">
	<ele>1920.00</ele>
	<time>2025-07-29T09:39:14.000Z</time>
</trkpt>
<trkpt lat="45.8643450" lon="10.3028870">
	<ele>1920.00</ele>
	<time>2025-07-29T09:39:15.000Z</time>
</trkpt>
<trkpt lat="45.8643550" lon="10.3028820">
	<ele>1919.80</ele>
	<time>2025-07-29T09:39:16.000Z</time>
</trkpt>
<trkpt lat="45.8643630" lon="10.3028780">
	<ele>1919.60</ele>
	<time>2025-07-29T09:39:17.000Z</time>
</trkpt>
<trkpt lat="45.8643730" lon="10.3028740">
	<ele>1919.40</ele>
	<time>2025-07-29T09:39:18.000Z</time>
</trkpt>
<trkpt lat="45.8643760" lon="10.3028800">
	<ele>1919.00</ele>
	<time>2025-07-29T09:39:19.000Z</time>
</trkpt>
<trkpt lat="45.8643860" lon="10.3028860">
	<ele>1918.80</ele>
	<time>2025-07-29T09:39:20.000Z</time>
</trkpt>
<trkpt lat="45.8643960" lon="10.3028850">
	<ele>1918.40</ele>
	<time>2025-07-29T09:39:21.000Z</time>
</trkpt>
<trkpt lat="45.8644040" lon="10.3028780">
	<ele>1918.20</ele>
	<time>2025-07-29T09:39:22.000Z</time>
</trkpt>
<trkpt lat="45.8644110" lon="10.3028740">
	<ele>1918.00</ele>
	<time>2025-07-29T09:39:23.000Z</time>
</trkpt>
<trkpt lat="45.8644220" lon="10.3028680">
	<ele>1917.60</ele>
	<time>2025-07-29T09:39:24.000Z</time>
</trkpt>
<trkpt lat="45.8644290" lon="10.3028650">
	<ele>1917.20</ele>
	<time>2025-07-29T09:39:25.000Z</time>
</trkpt>
<trkpt lat="45.8644390" lon="10.3028650">
	<ele>1917.00</ele>
	<time>2025-07-29T09:39:26.000Z</time>
</trkpt>
<trkpt lat="45.8644460" lon="10.3028630">
	<ele>1916.80</ele>
	<time>2025-07-29T09:39:27.000Z</time>
</trkpt>
<trkpt lat="45.8644540" lon="10.3028580">
	<ele>1916.60</ele>
	<time>2025-07-29T09:39:28.000Z</time>
</trkpt>
<trkpt lat="45.8644680" lon="10.3028520">
	<ele>1916.40</ele>
	<time>2025-07-29T09:39:29.000Z</time>
</trkpt>
<trkpt lat="45.8644770" lon="10.3028490">
	<ele>1916.00</ele>
	<time>2025-07-29T09:39:30.000Z</time>
</trkpt>
<trkpt lat="45.8644880" lon="10.3028500">
	<ele>1915.80</ele>
	<time>2025-07-29T09:39:31.000Z</time>
</trkpt>
<trkpt lat="45.8644960" lon="10.3028480">
	<ele>1915.40</ele>
	<time>2025-07-29T09:39:32.000Z</time>
</trkpt>
<trkpt lat="45.8645060" lon="10.3028480">
	<ele>1915.20</ele>
	<time>2025-07-29T09:39:33.000Z</time>
</trkpt>
<trkpt lat="45.8645120" lon="10.3028450">
	<ele>1914.80</ele>
	<time>2025-07-29T09:39:34.000Z</time>
</trkpt>
<trkpt lat="45.8645190" lon="10.3028420">
	<ele>1914.60</ele>
	<time>2025-07-29T09:39:35.000Z</time>
</trkpt>
<trkpt lat="45.8645290" lon="10.3028390">
	<ele>1914.20</ele>
	<time>2025-07-29T09:39:36.000Z</time>
</trkpt>
<trkpt lat="45.8645420" lon="10.3028300">
	<ele>1914.00</ele>
	<time>2025-07-29T09:39:37.000Z</time>
</trkpt>
<trkpt lat="45.8645490" lon="10.3028270">
	<ele>1913.80</ele>
	<time>2025-07-29T09:39:38.000Z</time>
</trkpt>
<trkpt lat="45.8645570" lon="10.3028240">
	<ele>1913.60</ele>
	<time>2025-07-29T09:39:39.000Z</time>
</trkpt>
<trkpt lat="45.8645680" lon="10.3028230">
	<ele>1913.40</ele>
	<time>2025-07-29T09:39:40.000Z</time>
</trkpt>
<trkpt lat="45.8645820" lon="10.3028160">
	<ele>1913.20</ele>
	<time>2025-07-29T09:39:41.000Z</time>
</trkpt>
<trkpt lat="45.8645930" lon="10.3028110">
	<ele>1912.80</ele>
	<time>2025-07-29T09:39:42.000Z</time>
</trkpt>
<trkpt lat="45.8646040" lon="10.3028060">
	<ele>1912.40</ele>
	<time>2025-07-29T09:39:43.000Z</time>
</trkpt>
<trkpt lat="45.8646110" lon="10.3028060">
	<ele>1912.00</ele>
	<time>2025-07-29T09:39:44.000Z</time>
</trkpt>
<trkpt lat="45.8646220" lon="10.3028060">
	<ele>1911.80</ele>
	<time>2025-07-29T09:39:45.000Z</time>
</trkpt>
<trkpt lat="45.8646320" lon="10.3028050">
	<ele>1911.40</ele>
	<time>2025-07-29T09:39:46.000Z</time>
</trkpt>
<trkpt lat="45.8646430" lon="10.3028000">
	<ele>1911.20</ele>
	<time>2025-07-29T09:39:47.000Z</time>
</trkpt>
<trkpt lat="45.8646540" lon="10.3027930">
	<ele>1911.00</ele>
	<time>2025-07-29T09:39:48.000Z</time>
</trkpt>
<trkpt lat="45.8646630" lon="10.3027860">
	<ele>1910.60</ele>
	<time>2025-07-29T09:39:49.000Z</time>
</trkpt>
<trkpt lat="45.8646750" lon="10.3027790">
	<ele>1910.40</ele>
	<time>2025-07-29T09:39:50.000Z</time>
</trkpt>
<trkpt lat="45.8646910" lon="10.3027680">
	<ele>1910.20</ele>
	<time>2025-07-29T09:39:51.000Z</time>
</trkpt>
<trkpt lat="45.8647030" lon="10.3027610">
	<ele>1909.80</ele>
	<time>2025-07-29T09:39:52.000Z</time>
</trkpt>
<trkpt lat="45.8647150" lon="10.3027510">
	<ele>1909.80</ele>
	<time>2025-07-29T09:39:53.000Z</time>
</trkpt>
<trkpt lat="45.8647250" lon="10.3027440">
	<ele>1909.60</ele>
	<time>2025-07-29T09:39:54.000Z</time>
</trkpt>
<trkpt lat="45.8647330" lon="10.3027370">
	<ele>1909.40</ele>
	<time>2025-07-29T09:39:55.000Z</time>
</trkpt>
<trkpt lat="45.8647440" lon="10.3027290">
	<ele>1909.20</ele>
	<time>2025-07-29T09:39:56.000Z</time>
</trkpt>
<trkpt lat="45.8647540" lon="10.3027210">
	<ele>1909.20</ele>
	<time>2025-07-29T09:39:57.000Z</time>
</trkpt>
<trkpt lat="45.8647670" lon="10.3027150">
	<ele>1909.00</ele>
	<time>2025-07-29T09:39:58.000Z</time>
</trkpt>
<trkpt lat="45.8647790" lon="10.3027120">
	<ele>1908.80</ele>
	<time>2025-07-29T09:39:59.000Z</time>
</trkpt>
<trkpt lat="45.8647890" lon="10.3027090">
	<ele>1908.60</ele>
	<time>2025-07-29T09:40:00.000Z</time>
</trkpt>
<trkpt lat="45.8648000" lon="10.3027030">
	<ele>1908.60</ele>
	<time>2025-07-29T09:40:01.000Z</time>
</trkpt>
<trkpt lat="45.8648120" lon="10.3026950">
	<ele>1908.40</ele>
	<time>2025-07-29T09:40:02.000Z</time>
</trkpt>
<trkpt lat="45.8648220" lon="10.3026860">
	<ele>1908.00</ele>
	<time>2025-07-29T09:40:03.000Z</time>
</trkpt>
<trkpt lat="45.8648320" lon="10.3026770">
	<ele>1907.80</ele>
	<time>2025-07-29T09:40:04.000Z</time>
</trkpt>
<trkpt lat="45.8648410" lon="10.3026740">
	<ele>1907.60</ele>
	<time>2025-07-29T09:40:05.000Z</time>
</trkpt>
<trkpt lat="45.8648510" lon="10.3026760">
	<ele>1907.40</ele>
	<time>2025-07-29T09:40:06.000Z</time>
</trkpt>
<trkpt lat="45.8648620" lon="10.3026780">
	<ele>1907.20</ele>
	<time>2025-07-29T09:40:07.000Z</time>
</trkpt>
<trkpt lat="45.8648720" lon="10.3026870">
	<ele>1907.00</ele>
	<time>2025-07-29T09:40:08.000Z</time>
</trkpt>
<trkpt lat="45.8648800" lon="10.3026920">
	<ele>1906.80</ele>
	<time>2025-07-29T09:40:09.000Z</time>
</trkpt>
<trkpt lat="45.8648940" lon="10.3026940">
	<ele>1906.60</ele>
	<time>2025-07-29T09:40:10.000Z</time>
</trkpt>
<trkpt lat="45.8649060" lon="10.3026950">
	<ele>1906.20</ele>
	<time>2025-07-29T09:40:11.000Z</time>
</trkpt>
<trkpt lat="45.8649190" lon="10.3027000">
	<ele>1905.80</ele>
	<time>2025-07-29T09:40:12.000Z</time>
</trkpt>
<trkpt lat="45.8649330" lon="10.3026970">
	<ele>1905.60</ele>
	<time>2025-07-29T09:40:13.000Z</time>
</trkpt>
<trkpt lat="45.8649470" lon="10.3026960">
	<ele>1905.40</ele>
	<time>2025-07-29T09:40:14.000Z</time>
</trkpt>
<trkpt lat="45.8649550" lon="10.3026940">
	<ele>1905.00</ele>
	<time>2025-07-29T09:40:15.000Z</time>
</trkpt>
<trkpt lat="45.8649640" lon="10.3026910">
	<ele>1905.00</ele>
	<time>2025-07-29T09:40:16.000Z</time>
</trkpt>
<trkpt lat="45.8649740" lon="10.3026850">
	<ele>1904.80</ele>
	<time>2025-07-29T09:40:17.000Z</time>
</trkpt>
<trkpt lat="45.8649850" lon="10.3026740">
	<ele>1904.80</ele>
	<time>2025-07-29T09:40:18.000Z</time>
</trkpt>
<trkpt lat="45.8649940" lon="10.3026680">
	<ele>1904.60</ele>
	<time>2025-07-29T09:40:19.000Z</time>
</trkpt>
<trkpt lat="45.8649990" lon="10.3026630">
	<ele>1904.40</ele>
	<time>2025-07-29T09:40:20.000Z</time>
</trkpt>
<trkpt lat="45.8650050" lon="10.3026620">
	<ele>1904.00</ele>
	<time>2025-07-29T09:40:21.000Z</time>
</trkpt>
<trkpt lat="45.8650130" lon="10.3026630">
	<ele>1903.80</ele>
	<time>2025-07-29T09:40:22.000Z</time>
</trkpt>
<trkpt lat="45.8650210" lon="10.3026640">
	<ele>1903.60</ele>
	<time>2025-07-29T09:40:23.000Z</time>
</trkpt>
<trkpt lat="45.8650270" lon="10.3026640">
	<ele>1903.40</ele>
	<time>2025-07-29T09:40:24.000Z</time>
</trkpt>
<trkpt lat="45.8650350" lon="10.3026630">
	<ele>1903.20</ele>
	<time>2025-07-29T09:40:25.000Z</time>
</trkpt>
<trkpt lat="45.8650450" lon="10.3026640">
	<ele>1903.00</ele>
	<time>2025-07-29T09:40:26.000Z</time>
</trkpt>
<trkpt lat="45.8650500" lon="10.3026650">
	<ele>1902.80</ele>
	<time>2025-07-29T09:40:27.000Z</time>
</trkpt>
<trkpt lat="45.8650530" lon="10.3026690">
	<ele>1902.60</ele>
	<time>2025-07-29T09:40:28.000Z</time>
</trkpt>
<trkpt lat="45.8650580" lon="10.3026770">
	<ele>1902.20</ele>
	<time>2025-07-29T09:40:29.000Z</time>
</trkpt>
<trkpt lat="45.8650610" lon="10.3026840">
	<ele>1902.00</ele>
	<time>2025-07-29T09:40:30.000Z</time>
</trkpt>
<trkpt lat="45.8650690" lon="10.3026880">
	<ele>1901.80</ele>
	<time>2025-07-29T09:40:31.000Z</time>
</trkpt>
<trkpt lat="45.8650760" lon="10.3026970">
	<ele>1901.60</ele>
	<time>2025-07-29T09:40:32.000Z</time>
</trkpt>
<trkpt lat="45.8650830" lon="10.3027070">
	<ele>1901.20</ele>
	<time>2025-07-29T09:40:33.000Z</time>
</trkpt>
<trkpt lat="45.8650890" lon="10.3027130">
	<ele>1900.80</ele>
	<time>2025-07-29T09:40:34.000Z</time>
</trkpt>
<trkpt lat="45.8650920" lon="10.3027210">
	<ele>1900.60</ele>
	<time>2025-07-29T09:40:35.000Z</time>
</trkpt>
<trkpt lat="45.8650970" lon="10.3027370">
	<ele>1900.40</ele>
	<time>2025-07-29T09:40:36.000Z</time>
</trkpt>
<trkpt lat="45.8650970" lon="10.3027470">
	<ele>1900.20</ele>
	<time>2025-07-29T09:40:37.000Z</time>
</trkpt>
<trkpt lat="45.8650930" lon="10.3027650">
	<ele>1900.00</ele>
	<time>2025-07-29T09:40:38.000Z</time>
</trkpt>
<trkpt lat="45.8650870" lon="10.3027790">
	<ele>1900.00</ele>
	<time>2025-07-29T09:40:39.000Z</time>
</trkpt>
<trkpt lat="45.8650830" lon="10.3027910">
	<ele>1899.60</ele>
	<time>2025-07-29T09:40:40.000Z</time>
</trkpt>
<trkpt lat="45.8650760" lon="10.3028010">
	<ele>1899.40</ele>
	<time>2025-07-29T09:40:41.000Z</time>
</trkpt>
<trkpt lat="45.8650690" lon="10.3028100">
	<ele>1899.20</ele>
	<time>2025-07-29T09:40:42.000Z</time>
</trkpt>
<trkpt lat="45.8650610" lon="10.3028180">
	<ele>1898.80</ele>
	<time>2025-07-29T09:40:43.000Z</time>
</trkpt>
<trkpt lat="45.8650550" lon="10.3028350">
	<ele>1898.40</ele>
	<time>2025-07-29T09:40:44.000Z</time>
</trkpt>
<trkpt lat="45.8650510" lon="10.3028500">
	<ele>1898.20</ele>
	<time>2025-07-29T09:40:45.000Z</time>
</trkpt>
<trkpt lat="45.8650470" lon="10.3028630">
	<ele>1897.80</ele>
	<time>2025-07-29T09:40:46.000Z</time>
</trkpt>
<trkpt lat="45.8650460" lon="10.3028740">
	<ele>1897.60</ele>
	<time>2025-07-29T09:40:47.000Z</time>
</trkpt>
<trkpt lat="45.8650400" lon="10.3028820">
	<ele>1897.20</ele>
	<time>2025-07-29T09:40:48.000Z</time>
</trkpt>
<trkpt lat="45.8650350" lon="10.3028890">
	<ele>1897.00</ele>
	<time>2025-07-29T09:40:49.000Z</time>
</trkpt>
<trkpt lat="45.8650300" lon="10.3029010">
	<ele>1896.80</ele>
	<time>2025-07-29T09:40:50.000Z</time>
</trkpt>
<trkpt lat="45.8650270" lon="10.3029160">
	<ele>1896.60</ele>
	<time>2025-07-29T09:40:51.000Z</time>
</trkpt>
<trkpt lat="45.8650170" lon="10.3029310">
	<ele>1896.20</ele>
	<time>2025-07-29T09:40:52.000Z</time>
</trkpt>
<trkpt lat="45.8650120" lon="10.3029440">
	<ele>1896.00</ele>
	<time>2025-07-29T09:40:53.000Z</time>
</trkpt>
<trkpt lat="45.8650120" lon="10.3029510">
	<ele>1895.40</ele>
	<time>2025-07-29T09:40:54.000Z</time>
</trkpt>
<trkpt lat="45.8650100" lon="10.3029530">
	<ele>1895.20</ele>
	<time>2025-07-29T09:40:55.000Z</time>
</trkpt>
<trkpt lat="45.8650100" lon="10.3029550">
	<ele>1895.00</ele>
	<time>2025-07-29T09:40:56.000Z</time>
</trkpt>
<trkpt lat="45.8650090" lon="10.3029560">
	<ele>1895.00</ele>
	<time>2025-07-29T09:40:57.000Z</time>
</trkpt>
<trkpt lat="45.8650070" lon="10.3029580">
	<ele>1895.00</ele>
	<time>2025-07-29T09:40:58.000Z</time>
</trkpt>
<trkpt lat="45.8650060" lon="10.3029600">
	<ele>1895.00</ele>
	<time>2025-07-29T09:40:59.000Z</time>
</trkpt>
<trkpt lat="45.8650070" lon="10.3029600">
	<ele>1895.00</ele>
	<time>2025-07-29T09:41:00.000Z</time>
</trkpt>
<trkpt lat="45.8650070" lon="10.3029590">
	<ele>1895.00</ele>
	<time>2025-07-29T09:41:01.000Z</time>
</trkpt>
<trkpt lat="45.8650070" lon="10.3029590">
	<ele>1895.20</ele>
	<time>2025-07-29T09:41:02.000Z</time>
</trkpt>
<trkpt lat="45.8650060" lon="10.3029580">
	<ele>1895.20</ele>
	<time>2025-07-29T09:41:03.000Z</time>
</trkpt>
<trkpt lat="45.8650060" lon="10.3029560">
	<ele>1895.20</ele>
	<time>2025-07-29T09:41:04.000Z</time>
</trkpt>
<trkpt lat="45.8650010" lon="10.3029620">
	<ele>1895.20</ele>
	<time>2025-07-29T09:41:05.000Z</time>
</trkpt>
<trkpt lat="45.8649990" lon="10.3029710">
	<ele>1895.00</ele>
	<time>2025-07-29T09:41:06.000Z</time>
</trkpt>
<trkpt lat="45.8649960" lon="10.3029890">
	<ele>1894.80</ele>
	<time>2025-07-29T09:41:07.000Z</time>
</trkpt>
<trkpt lat="45.8649960" lon="10.3030050">
	<ele>1894.60</ele>
	<time>2025-07-29T09:41:08.000Z</time>
</trkpt>
<trkpt lat="45.8649950" lon="10.3030150">
	<ele>1894.60</ele>
	<time>2025-07-29T09:41:09.000Z</time>
</trkpt>
<trkpt lat="45.8649940" lon="10.3030250">
	<ele>1894.40</ele>
	<time>2025-07-29T09:41:10.000Z</time>
</trkpt>
<trkpt lat="45.8649930" lon="10.3030380">
	<ele>1894.20</ele>
	<time>2025-07-29T09:41:11.000Z</time>
</trkpt>
<trkpt lat="45.8649950" lon="10.3030530">
	<ele>1894.00</ele>
	<time>2025-07-29T09:41:12.000Z</time>
</trkpt>
<trkpt lat="45.8649980" lon="10.3030640">
	<ele>1893.80</ele>
	<time>2025-07-29T09:41:13.000Z</time>
</trkpt>
<trkpt lat="45.8650040" lon="10.3030740">
	<ele>1893.40</ele>
	<time>2025-07-29T09:41:14.000Z</time>
</trkpt>
<trkpt lat="45.8650110" lon="10.3030810">
	<ele>1893.20</ele>
	<time>2025-07-29T09:41:15.000Z</time>
</trkpt>
<trkpt lat="45.8650150" lon="10.3030890">
	<ele>1893.00</ele>
	<time>2025-07-29T09:41:16.000Z</time>
</trkpt>
<trkpt lat="45.8650180" lon="10.3030970">
	<ele>1892.80</ele>
	<time>2025-07-29T09:41:17.000Z</time>
</trkpt>
<trkpt lat="45.8650220" lon="10.3031090">
	<ele>1892.40</ele>
	<time>2025-07-29T09:41:18.000Z</time>
</trkpt>
<trkpt lat="45.8650260" lon="10.3031170">
	<ele>1892.00</ele>
	<time>2025-07-29T09:41:19.000Z</time>
</trkpt>
<trkpt lat="45.8650330" lon="10.3031240">
	<ele>1891.80</ele>
	<time>2025-07-29T09:41:20.000Z</time>
</trkpt>
<trkpt lat="45.8650410" lon="10.3031290">
	<ele>1891.80</ele>
	<time>2025-07-29T09:41:21.000Z</time>
</trkpt>
<trkpt lat="45.8650460" lon="10.3031370">
	<ele>1891.60</ele>
	<time>2025-07-29T09:41:22.000Z</time>
</trkpt>
<trkpt lat="45.8650540" lon="10.3031430">
	<ele>1891.20</ele>
	<time>2025-07-29T09:41:23.000Z</time>
</trkpt>
<trkpt lat="45.8650630" lon="10.3031430">
	<ele>1890.80</ele>
	<time>2025-07-29T09:41:24.000Z</time>
</trkpt>
<trkpt lat="45.8650740" lon="10.3031440">
	<ele>1890.60</ele>
	<time>2025-07-29T09:41:25.000Z</time>
</trkpt>
<trkpt lat="45.8650880" lon="10.3031440">
	<ele>1890.40</ele>
	<time>2025-07-29T09:41:26.000Z</time>
</trkpt>
<trkpt lat="45.8650980" lon="10.3031470">
	<ele>1890.20</ele>
	<time>2025-07-29T09:41:27.000Z</time>
</trkpt>
<trkpt lat="45.8651070" lon="10.3031490">
	<ele>1889.80</ele>
	<time>2025-07-29T09:41:28.000Z</time>
</trkpt>
<trkpt lat="45.8651160" lon="10.3031460">
	<ele>1889.60</ele>
	<time>2025-07-29T09:41:29.000Z</time>
</trkpt>
<trkpt lat="45.8651250" lon="10.3031470">
	<ele>1889.40</ele>
	<time>2025-07-29T09:41:30.000Z</time>
</trkpt>
<trkpt lat="45.8651340" lon="10.3031470">
	<ele>1889.20</ele>
	<time>2025-07-29T09:41:31.000Z</time>
</trkpt>
<trkpt lat="45.8651430" lon="10.3031420">
	<ele>1888.80</ele>
	<time>2025-07-29T09:41:32.000Z</time>
</trkpt>
<trkpt lat="45.8651480" lon="10.3031380">
	<ele>1888.60</ele>
	<time>2025-07-29T09:41:33.000Z</time>
</trkpt>
<trkpt lat="45.8651530" lon="10.3031330">
	<ele>1888.40</ele>
	<time>2025-07-29T09:41:34.000Z</time>
</trkpt>
<trkpt lat="45.8651630" lon="10.3031370">
	<ele>1888.20</ele>
	<time>2025-07-29T09:41:35.000Z</time>
</trkpt>
<trkpt lat="45.8651740" lon="10.3031380">
	<ele>1887.80</ele>
	<time>2025-07-29T09:41:36.000Z</time>
</trkpt>
<trkpt lat="45.8651830" lon="10.3031430">
	<ele>1887.60</ele>
	<time>2025-07-29T09:41:37.000Z</time>
</trkpt>
<trkpt lat="45.8651900" lon="10.3031410">
	<ele>1887.40</ele>
	<time>2025-07-29T09:41:38.000Z</time>
</trkpt>
<trkpt lat="45.8651940" lon="10.3031420">
	<ele>1887.00</ele>
	<time>2025-07-29T09:41:39.000Z</time>
</trkpt>
<trkpt lat="45.8652020" lon="10.3031380">
	<ele>1886.80</ele>
	<time>2025-07-29T09:41:40.000Z</time>
</trkpt>
<trkpt lat="45.8652090" lon="10.3031390">
	<ele>1886.60</ele>
	<time>2025-07-29T09:41:41.000Z</time>
</trkpt>
<trkpt lat="45.8652190" lon="10.3031420">
	<ele>1886.20</ele>
	<time>2025-07-29T09:41:42.000Z</time>
</trkpt>
<trkpt lat="45.8652250" lon="10.3031420">
	<ele>1886.00</ele>
	<time>2025-07-29T09:41:43.000Z</time>
</trkpt>
<trkpt lat="45.8652320" lon="10.3031410">
	<ele>1885.60</ele>
	<time>2025-07-29T09:41:44.000Z</time>
</trkpt>
<trkpt lat="45.8652390" lon="10.3031400">
	<ele>1885.40</ele>
	<time>2025-07-29T09:41:45.000Z</time>
</trkpt>
<trkpt lat="45.8652440" lon="10.3031400">
	<ele>1885.20</ele>
	<time>2025-07-29T09:41:46.000Z</time>
</trkpt>
<trkpt lat="45.8652490" lon="10.3031420">
	<ele>1885.20</ele>
	<time>2025-07-29T09:41:47.000Z</time>
</trkpt>
<trkpt lat="45.8652560" lon="10.3031380">
	<ele>1885.00</ele>
	<time>2025-07-29T09:41:48.000Z</time>
</trkpt>
<trkpt lat="45.8652620" lon="10.3031330">
	<ele>1884.60</ele>
	<time>2025-07-29T09:41:49.000Z</time>
</trkpt>
<trkpt lat="45.8652680" lon="10.3031330">
	<ele>1884.20</ele>
	<time>2025-07-29T09:41:50.000Z</time>
</trkpt>
<trkpt lat="45.8652720" lon="10.3031370">
	<ele>1883.80</ele>
	<time>2025-07-29T09:41:51.000Z</time>
</trkpt>
<trkpt lat="45.8652750" lon="10.3031410">
	<ele>1883.60</ele>
	<time>2025-07-29T09:41:52.000Z</time>
</trkpt>
<trkpt lat="45.8652810" lon="10.3031440">
	<ele>1883.60</ele>
	<time>2025-07-29T09:41:53.000Z</time>
</trkpt>
<trkpt lat="45.8652850" lon="10.3031510">
	<ele>1883.20</ele>
	<time>2025-07-29T09:41:54.000Z</time>
</trkpt>
<trkpt lat="45.8652870" lon="10.3031600">
	<ele>1883.00</ele>
	<time>2025-07-29T09:41:55.000Z</time>
</trkpt>
<trkpt lat="45.8652870" lon="10.3031650">
	<ele>1882.60</ele>
	<time>2025-07-29T09:41:56.000Z</time>
</trkpt>
<trkpt lat="45.8652860" lon="10.3031670">
	<ele>1882.60</ele>
	<time>2025-07-29T09:41:57.000Z</time>
</trkpt>
<trkpt lat="45.8652840" lon="10.3031700">
	<ele>1882.40</ele>
	<time>2025-07-29T09:41:58.000Z</time>
</trkpt>
<trkpt lat="45.8652850" lon="10.3031740">
	<ele>1882.40</ele>
	<time>2025-07-29T09:41:59.000Z</time>
</trkpt>
<trkpt lat="45.8652810" lon="10.3031790">
	<ele>1882.20</ele>
	<time>2025-07-29T09:42:00.000Z</time>
</trkpt>
<trkpt lat="45.8652780" lon="10.3031820">
	<ele>1881.80</ele>
	<time>2025-07-29T09:42:01.000Z</time>
</trkpt>
<trkpt lat="45.8652780" lon="10.3031860">
	<ele>1881.80</ele>
	<time>2025-07-29T09:42:02.000Z</time>
</trkpt>
<trkpt lat="45.8652760" lon="10.3031900">
	<ele>1881.40</ele>
	<time>2025-07-29T09:42:03.000Z</time>
</trkpt>
<trkpt lat="45.8652750" lon="10.3031960">
	<ele>1881.20</ele>
	<time>2025-07-29T09:42:04.000Z</time>
</trkpt>
<trkpt lat="45.8652720" lon="10.3032100">
	<ele>1881.00</ele>
	<time>2025-07-29T09:42:05.000Z</time>
</trkpt>
<trkpt lat="45.8652710" lon="10.3032240">
	<ele>1880.60</ele>
	<time>2025-07-29T09:42:06.000Z</time>
</trkpt>
<trkpt lat="45.8652710" lon="10.3032330">
	<ele>1880.20</ele>
	<time>2025-07-29T09:42:07.000Z</time>
</trkpt>
<trkpt lat="45.8652680" lon="10.3032430">
	<ele>1880.00</ele>
	<time>2025-07-29T09:42:08.000Z</time>
</trkpt>
<trkpt lat="45.8652630" lon="10.3032520">
	<ele>1879.80</ele>
	<time>2025-07-29T09:42:09.000Z</time>
</trkpt>
<trkpt lat="45.8652580" lon="10.3032580">
	<ele>1879.60</ele>
	<time>2025-07-29T09:42:10.000Z</time>
</trkpt>
<trkpt lat="45.8652510" lon="10.3032710">
	<ele>1879.40</ele>
	<time>2025-07-29T09:42:11.000Z</time>
</trkpt>
<trkpt lat="45.8652440" lon="10.3032820">
	<ele>1879.00</ele>
	<time>2025-07-29T09:42:12.000Z</time>
</trkpt>
<trkpt lat="45.8652410" lon="10.3032880">
	<ele>1878.60</ele>
	<time>2025-07-29T09:42:13.000Z</time>
</trkpt>
<trkpt lat="45.8652380" lon="10.3033000">
	<ele>1878.40</ele>
	<time>2025-07-29T09:42:14.000Z</time>
</trkpt>
<trkpt lat="45.8652370" lon="10.3033120">
	<ele>1878.00</ele>
	<time>2025-07-29T09:42:15.000Z</time>
</trkpt>
<trkpt lat="45.8652370" lon="10.3033220">
	<ele>1877.80</ele>
	<time>2025-07-29T09:42:16.000Z</time>
</trkpt>
<trkpt lat="45.8652330" lon="10.3033320">
	<ele>1877.60</ele>
	<time>2025-07-29T09:42:17.000Z</time>
</trkpt>
<trkpt lat="45.8652290" lon="10.3033440">
	<ele>1877.40</ele>
	<time>2025-07-29T09:42:18.000Z</time>
</trkpt>
<trkpt lat="45.8652240" lon="10.3033560">
	<ele>1877.00</ele>
	<time>2025-07-29T09:42:19.000Z</time>
</trkpt>
<trkpt lat="45.8652210" lon="10.3033650">
	<ele>1876.80</ele>
	<time>2025-07-29T09:42:20.000Z</time>
</trkpt>
<trkpt lat="45.8652170" lon="10.3033770">
	<ele>1876.40</ele>
	<time>2025-07-29T09:42:21.000Z</time>
</trkpt>
<trkpt lat="45.8652130" lon="10.3033880">
	<ele>1876.20</ele>
	<time>2025-07-29T09:42:22.000Z</time>
</trkpt>
<trkpt lat="45.8652120" lon="10.3034010">
	<ele>1876.00</ele>
	<time>2025-07-29T09:42:23.000Z</time>
</trkpt>
<trkpt lat="45.8652090" lon="10.3034140">
	<ele>1875.80</ele>
	<time>2025-07-29T09:42:24.000Z</time>
</trkpt>
<trkpt lat="45.8652060" lon="10.3034240">
	<ele>1875.60</ele>
	<time>2025-07-29T09:42:25.000Z</time>
</trkpt>
<trkpt lat="45.8652010" lon="10.3034350">
	<ele>1875.20</ele>
	<time>2025-07-29T09:42:26.000Z</time>
</trkpt>
<trkpt lat="45.8651940" lon="10.3034460">
	<ele>1875.00</ele>
	<time>2025-07-29T09:42:27.000Z</time>
</trkpt>
<trkpt lat="45.8651870" lon="10.3034590">
	<ele>1874.60</ele>
	<time>2025-07-29T09:42:28.000Z</time>
</trkpt>
<trkpt lat="45.8651810" lon="10.3034700">
	<ele>1874.40</ele>
	<time>2025-07-29T09:42:29.000Z</time>
</trkpt>
<trkpt lat="45.8651790" lon="10.3034770">
	<ele>1874.20</ele>
	<time>2025-07-29T09:42:30.000Z</time>
</trkpt>
<trkpt lat="45.8651760" lon="10.3034880">
	<ele>1873.80</ele>
	<time>2025-07-29T09:42:31.000Z</time>
</trkpt>
<trkpt lat="45.8651700" lon="10.3035000">
	<ele>1873.60</ele>
	<time>2025-07-29T09:42:32.000Z</time>
</trkpt>
<trkpt lat="45.8651640" lon="10.3035120">
	<ele>1873.20</ele>
	<time>2025-07-29T09:42:33.000Z</time>
</trkpt>
<trkpt lat="45.8651540" lon="10.3035250">
	<ele>1873.00</ele>
	<time>2025-07-29T09:42:34.000Z</time>
</trkpt>
<trkpt lat="45.8651450" lon="10.3035380">
	<ele>1872.80</ele>
	<time>2025-07-29T09:42:35.000Z</time>
</trkpt>
<trkpt lat="45.8651360" lon="10.3035450">
	<ele>1872.60</ele>
	<time>2025-07-29T09:42:36.000Z</time>
</trkpt>
<trkpt lat="45.8651280" lon="10.3035510">
	<ele>1872.40</ele>
	<time>2025-07-29T09:42:37.000Z</time>
</trkpt>
<trkpt lat="45.8651220" lon="10.3035640">
	<ele>1872.00</ele>
	<time>2025-07-29T09:42:38.000Z</time>
</trkpt>
<trkpt lat="45.8651130" lon="10.3035730">
	<ele>1871.80</ele>
	<time>2025-07-29T09:42:39.000Z</time>
</trkpt>
<trkpt lat="45.8651030" lon="10.3035840">
	<ele>1871.60</ele>
	<time>2025-07-29T09:42:40.000Z</time>
</trkpt>
<trkpt lat="45.8650960" lon="10.3035990">
	<ele>1871.40</ele>
	<time>2025-07-29T09:42:41.000Z</time>
</trkpt>
<trkpt lat="45.8650950" lon="10.3036160">
	<ele>1871.20</ele>
	<time>2025-07-29T09:42:42.000Z</time>
</trkpt>
<trkpt lat="45.8650880" lon="10.3036290">
	<ele>1871.00</ele>
	<time>2025-07-29T09:42:43.000Z</time>
</trkpt>
<trkpt lat="45.8650810" lon="10.3036370">
	<ele>1870.80</ele>
	<time>2025-07-29T09:42:44.000Z</time>
</trkpt>
<trkpt lat="45.8650730" lon="10.3036450">
	<ele>1870.60</ele>
	<time>2025-07-29T09:42:45.000Z</time>
</trkpt>
<trkpt lat="45.8650670" lon="10.3036530">
	<ele>1870.40</ele>
	<time>2025-07-29T09:42:46.000Z</time>
</trkpt>
<trkpt lat="45.8650600" lon="10.3036630">
	<ele>1870.20</ele>
	<time>2025-07-29T09:42:47.000Z</time>
</trkpt>
<trkpt lat="45.8650560" lon="10.3036740">
	<ele>1870.00</ele>
	<time>2025-07-29T09:42:48.000Z</time>
</trkpt>
<trkpt lat="45.8650500" lon="10.3036850">
	<ele>1869.80</ele>
	<time>2025-07-29T09:42:49.000Z</time>
</trkpt>
<trkpt lat="45.8650410" lon="10.3036980">
	<ele>1869.40</ele>
	<time>2025-07-29T09:42:50.000Z</time>
</trkpt>
<trkpt lat="45.8650320" lon="10.3037090">
	<ele>1869.20</ele>
	<time>2025-07-29T09:42:51.000Z</time>
</trkpt>
<trkpt lat="45.8650230" lon="10.3037130">
	<ele>1869.00</ele>
	<time>2025-07-29T09:42:52.000Z</time>
</trkpt>
<trkpt lat="45.8650100" lon="10.3037240">
	<ele>1868.80</ele>
	<time>2025-07-29T09:42:53.000Z</time>
</trkpt>
<trkpt lat="45.8649980" lon="10.3037310">
	<ele>1868.60</ele>
	<time>2025-07-29T09:42:54.000Z</time>
</trkpt>
<trkpt lat="45.8649890" lon="10.3037360">
	<ele>1868.40</ele>
	<time>2025-07-29T09:42:55.000Z</time>
</trkpt>
<trkpt lat="45.8649750" lon="10.3037480">
	<ele>1868.00</ele>
	<time>2025-07-29T09:42:56.000Z</time>
</trkpt>
<trkpt lat="45.8649660" lon="10.3037580">
	<ele>1867.80</ele>
	<time>2025-07-29T09:42:57.000Z</time>
</trkpt>
<trkpt lat="45.8649570" lon="10.3037660">
	<ele>1867.40</ele>
	<time>2025-07-29T09:42:58.000Z</time>
</trkpt>
<trkpt lat="45.8649460" lon="10.3037700">
	<ele>1867.20</ele>
	<time>2025-07-29T09:42:59.000Z</time>
</trkpt>
<trkpt lat="45.8649370" lon="10.3037740">
	<ele>1867.00</ele>
	<time>2025-07-29T09:43:00.000Z</time>
</trkpt>
<trkpt lat="45.8649250" lon="10.3037830">
	<ele>1866.80</ele>
	<time>2025-07-29T09:43:01.000Z</time>
</trkpt>
<trkpt lat="45.8649170" lon="10.3037900">
	<ele>1866.60</ele>
	<time>2025-07-29T09:43:02.000Z</time>
</trkpt>
<trkpt lat="45.8649070" lon="10.3037990">
	<ele>1866.40</ele>
	<time>2025-07-29T09:43:03.000Z</time>
</trkpt>
<trkpt lat="45.8648990" lon="10.3038050">
	<ele>1866.20</ele>
	<time>2025-07-29T09:43:04.000Z</time>
</trkpt>
<trkpt lat="45.8648920" lon="10.3038100">
	<ele>1866.20</ele>
	<time>2025-07-29T09:43:05.000Z</time>
</trkpt>
<trkpt lat="45.8648810" lon="10.3038140">
	<ele>1866.00</ele>
	<time>2025-07-29T09:43:06.000Z</time>
</trkpt>
<trkpt lat="45.8648700" lon="10.3038150">
	<ele>1865.80</ele>
	<time>2025-07-29T09:43:07.000Z</time>
</trkpt>
<trkpt lat="45.8648570" lon="10.3038220">
	<ele>1865.60</ele>
	<time>2025-07-29T09:43:08.000Z</time>
</trkpt>
<trkpt lat="45.8648460" lon="10.3038260">
	<ele>1865.20</ele>
	<time>2025-07-29T09:43:09.000Z</time>
</trkpt>
<trkpt lat="45.8648360" lon="10.3038290">
	<ele>1865.00</ele>
	<time>2025-07-29T09:43:10.000Z</time>
</trkpt>
<trkpt lat="45.8648240" lon="10.3038300">
	<ele>1864.80</ele>
	<time>2025-07-29T09:43:11.000Z</time>
</trkpt>
<trkpt lat="45.8648110" lon="10.3038310">
	<ele>1864.60</ele>
	<time>2025-07-29T09:43:12.000Z</time>
</trkpt>
<trkpt lat="45.8647960" lon="10.3038350">
	<ele>1864.40</ele>
	<time>2025-07-29T09:43:13.000Z</time>
</trkpt>
<trkpt lat="45.8647830" lon="10.3038380">
	<ele>1864.40</ele>
	<time>2025-07-29T09:43:14.000Z</time>
</trkpt>
<trkpt lat="45.8647720" lon="10.3038410">
	<ele>1864.20</ele>
	<time>2025-07-29T09:43:15.000Z</time>
</trkpt>
<trkpt lat="45.8647590" lon="10.3038460">
	<ele>1864.00</ele>
	<time>2025-07-29T09:43:16.000Z</time>
</trkpt>
<trkpt lat="45.8647450" lon="10.3038520">
	<ele>1864.00</ele>
	<time>2025-07-29T09:43:17.000Z</time>
</trkpt>
<trkpt lat="45.8647330" lon="10.3038590">
	<ele>1863.80</ele>
	<time>2025-07-29T09:43:18.000Z</time>
</trkpt>
<trkpt lat="45.8647220" lon="10.3038620">
	<ele>1863.80</ele>
	<time>2025-07-29T09:43:19.000Z</time>
</trkpt>
<trkpt lat="45.8647110" lon="10.3038640">
	<ele>1863.60</ele>
	<time>2025-07-29T09:43:20.000Z</time>
</trkpt>
<trkpt lat="45.8646980" lon="10.3038660">
	<ele>1863.40</ele>
	<time>2025-07-29T09:43:21.000Z</time>
</trkpt>
<trkpt lat="45.8646840" lon="10.3038710">
	<ele>1863.40</ele>
	<time>2025-07-29T09:43:22.000Z</time>
</trkpt>
<trkpt lat="45.8646720" lon="10.3038800">
	<ele>1863.20</ele>
	<time>2025-07-29T09:43:23.000Z</time>
</trkpt>
<trkpt lat="45.8646570" lon="10.3038880">
	<ele>1863.20</ele>
	<time>2025-07-29T09:43:24.000Z</time>
</trkpt>
<trkpt lat="45.8646430" lon="10.3038950">
	<ele>1863.00</ele>
	<time>2025-07-29T09:43:25.000Z</time>
</trkpt>
<trkpt lat="45.8646320" lon="10.3038980">
	<ele>1863.00</ele>
	<time>2025-07-29T09:43:26.000Z</time>
</trkpt>
<trkpt lat="45.8646200" lon="10.3039080">
	<ele>1863.00</ele>
	<time>2025-07-29T09:43:27.000Z</time>
</trkpt>
<trkpt lat="45.8646100" lon="10.3039210">
	<ele>1863.00</ele>
	<time>2025-07-29T09:43:28.000Z</time>
</trkpt>
<trkpt lat="45.8646010" lon="10.3039300">
	<ele>1862.80</ele>
	<time>2025-07-29T09:43:29.000Z</time>
</trkpt>
<trkpt lat="45.8645900" lon="10.3039370">
	<ele>1862.60</ele>
	<time>2025-07-29T09:43:30.000Z</time>
</trkpt>
<trkpt lat="45.8645760" lon="10.3039410">
	<ele>1862.40</ele>
	<time>2025-07-29T09:43:31.000Z</time>
</trkpt>
<trkpt lat="45.8645660" lon="10.3039460">
	<ele>1862.20</ele>
	<time>2025-07-29T09:43:32.000Z</time>
</trkpt>
<trkpt lat="45.8645530" lon="10.3039560">
	<ele>1862.20</ele>
	<time>2025-07-29T09:43:33.000Z</time>
</trkpt>
<trkpt lat="45.8645470" lon="10.3039660">
	<ele>1862.00</ele>
	<time>2025-07-29T09:43:34.000Z</time>
</trkpt>
<trkpt lat="45.8645440" lon="10.3039740">
	<ele>1862.00</ele>
	<time>2025-07-29T09:43:35.000Z</time>
</trkpt>
<trkpt lat="45.8645350" lon="10.3039780">
	<ele>1861.80</ele>
	<time>2025-07-29T09:43:36.000Z</time>
</trkpt>
<trkpt lat="45.8645240" lon="10.3039820">
	<ele>1861.60</ele>
	<time>2025-07-29T09:43:37.000Z</time>
</trkpt>
<trkpt lat="45.8645170" lon="10.3039860">
	<ele>1861.40</ele>
	<time>2025-07-29T09:43:38.000Z</time>
</trkpt>
<trkpt lat="45.8645050" lon="10.3039930">
	<ele>1861.00</ele>
	<time>2025-07-29T09:43:39.000Z</time>
</trkpt>
<trkpt lat="45.8644930" lon="10.3040000">
	<ele>1860.80</ele>
	<time>2025-07-29T09:43:40.000Z</time>
</trkpt>
<trkpt lat="45.8644820" lon="10.3040040">
	<ele>1860.60</ele>
	<time>2025-07-29T09:43:41.000Z</time>
</trkpt>
<trkpt lat="45.8644720" lon="10.3040100">
	<ele>1860.40</ele>
	<time>2025-07-29T09:43:42.000Z</time>
</trkpt>
<trkpt lat="45.8644630" lon="10.3040170">
	<ele>1860.40</ele>
	<time>2025-07-29T09:43:43.000Z</time>
</trkpt>
<trkpt lat="45.8644530" lon="10.3040230">
	<ele>1860.20</ele>
	<time>2025-07-29T09:43:44.000Z</time>
</trkpt>
<trkpt lat="45.8644390" lon="10.3040270">
	<ele>1860.00</ele>
	<time>2025-07-29T09:43:45.000Z</time>
</trkpt>
<trkpt lat="45.8644270" lon="10.3040300">
	<ele>1859.80</ele>
	<time>2025-07-29T09:43:46.000Z</time>
</trkpt>
<trkpt lat="45.8644170" lon="10.3040340">
	<ele>1859.60</ele>
	<time>2025-07-29T09:43:47.000Z</time>
</trkpt>
<trkpt lat="45.8644070" lon="10.3040430">
	<ele>1859.40</ele>
	<time>2025-07-29T09:43:48.000Z</time>
</trkpt>
<trkpt lat="45.8644000" lon="10.3040500">
	<ele>1859.20</ele>
	<time>2025-07-29T09:43:49.000Z</time>
</trkpt>
<trkpt lat="45.8643980" lon="10.3040620">
	<ele>1859.00</ele>
	<time>2025-07-29T09:43:50.000Z</time>
</trkpt>
<trkpt lat="45.8643900" lon="10.3040710">
	<ele>1858.60</ele>
	<time>2025-07-29T09:43:51.000Z</time>
</trkpt>
<trkpt lat="45.8643800" lon="10.3040800">
	<ele>1858.40</ele>
	<time>2025-07-29T09:43:52.000Z</time>
</trkpt>
<trkpt lat="45.8643740" lon="10.3040910">
	<ele>1858.00</ele>
	<time>2025-07-29T09:43:53.000Z</time>
</trkpt>
<trkpt lat="45.8643640" lon="10.3041030">
	<ele>1857.80</ele>
	<time>2025-07-29T09:43:54.000Z</time>
</trkpt>
<trkpt lat="45.8643590" lon="10.3041170">
	<ele>1857.60</ele>
	<time>2025-07-29T09:43:55.000Z</time>
</trkpt>
<trkpt lat="45.8643510" lon="10.3041280">
	<ele>1857.40</ele>
	<time>2025-07-29T09:43:56.000Z</time>
</trkpt>
<trkpt lat="45.8643420" lon="10.3041380">
	<ele>1857.40</ele>
	<time>2025-07-29T09:43:57.000Z</time>
</trkpt>
<trkpt lat="45.8643280" lon="10.3041480">
	<ele>1857.20</ele>
	<time>2025-07-29T09:43:58.000Z</time>
</trkpt>
<trkpt lat="45.8643170" lon="10.3041600">
	<ele>1857.00</ele>
	<time>2025-07-29T09:43:59.000Z</time>
</trkpt>
<trkpt lat="45.8643100" lon="10.3041760">
	<ele>1856.80</ele>
	<time>2025-07-29T09:44:00.000Z</time>
</trkpt>
<trkpt lat="45.8643070" lon="10.3041940">
	<ele>1856.60</ele>
	<time>2025-07-29T09:44:01.000Z</time>
</trkpt>
<trkpt lat="45.8643040" lon="10.3042110">
	<ele>1856.60</ele>
	<time>2025-07-29T09:44:02.000Z</time>
</trkpt>
<trkpt lat="45.8643060" lon="10.3042270">
	<ele>1856.40</ele>
	<time>2025-07-29T09:44:03.000Z</time>
</trkpt>
<trkpt lat="45.8643030" lon="10.3042430">
	<ele>1856.20</ele>
	<time>2025-07-29T09:44:04.000Z</time>
</trkpt>
<trkpt lat="45.8642980" lon="10.3042560">
	<ele>1856.00</ele>
	<time>2025-07-29T09:44:05.000Z</time>
</trkpt>
<trkpt lat="45.8642900" lon="10.3042660">
	<ele>1856.00</ele>
	<time>2025-07-29T09:44:06.000Z</time>
</trkpt>
<trkpt lat="45.8642820" lon="10.3042750">
	<ele>1855.80</ele>
	<time>2025-07-29T09:44:07.000Z</time>
</trkpt>
<trkpt lat="45.8642740" lon="10.3042810">
	<ele>1855.80</ele>
	<time>2025-07-29T09:44:08.000Z</time>
</trkpt>
<trkpt lat="45.8642680" lon="10.3042870">
	<ele>1855.40</ele>
	<time>2025-07-29T09:44:09.000Z</time>
</trkpt>
<trkpt lat="45.8642630" lon="10.3042960">
	<ele>1855.20</ele>
	<time>2025-07-29T09:44:10.000Z</time>
</trkpt>
<trkpt lat="45.8642550" lon="10.3043030">
	<ele>1855.00</ele>
	<time>2025-07-29T09:44:11.000Z</time>
</trkpt>
<trkpt lat="45.8642410" lon="10.3043060">
	<ele>1854.60</ele>
	<time>2025-07-29T09:44:12.000Z</time>
</trkpt>
<trkpt lat="45.8642280" lon="10.3043070">
	<ele>1854.40</ele>
	<time>2025-07-29T09:44:13.000Z</time>
</trkpt>
<trkpt lat="45.8642160" lon="10.3043110">
	<ele>1854.20</ele>
	<time>2025-07-29T09:44:14.000Z</time>
</trkpt>
<trkpt lat="45.8642030" lon="10.3043160">
	<ele>1854.00</ele>
	<time>2025-07-29T09:44:15.000Z</time>
</trkpt>
<trkpt lat="45.8641960" lon="10.3043220">
	<ele>1853.60</ele>
	<time>2025-07-29T09:44:16.000Z</time>
</trkpt>
<trkpt lat="45.8641880" lon="10.3043280">
	<ele>1853.40</ele>
	<time>2025-07-29T09:44:17.000Z</time>
</trkpt>
<trkpt lat="45.8641800" lon="10.3043320">
	<ele>1853.40</ele>
	<time>2025-07-29T09:44:18.000Z</time>
</trkpt>
<trkpt lat="45.8641740" lon="10.3043390">
	<ele>1853.20</ele>
	<time>2025-07-29T09:44:19.000Z</time>
</trkpt>
<trkpt lat="45.8641710" lon="10.3043490">
	<ele>1853.20</ele>
	<time>2025-07-29T09:44:20.000Z</time>
</trkpt>
<trkpt lat="45.8641650" lon="10.3043550">
	<ele>1853.00</ele>
	<time>2025-07-29T09:44:21.000Z</time>
</trkpt>
<trkpt lat="45.8641540" lon="10.3043600">
	<ele>1852.80</ele>
	<time>2025-07-29T09:44:22.000Z</time>
</trkpt>
<trkpt lat="45.8641500" lon="10.3043750">
	<ele>1852.80</ele>
	<time>2025-07-29T09:44:23.000Z</time>
</trkpt>
<trkpt lat="45.8641450" lon="10.3043860">
	<ele>1852.60</ele>
	<time>2025-07-29T09:44:24.000Z</time>
</trkpt>
<trkpt lat="45.8641400" lon="10.3044010">
	<ele>1852.40</ele>
	<time>2025-07-29T09:44:25.000Z</time>
</trkpt>
<trkpt lat="45.8641350" lon="10.3044150">
	<ele>1851.80</ele>
	<time>2025-07-29T09:44:26.000Z</time>
</trkpt>
<trkpt lat="45.8641330" lon="10.3044240">
	<ele>1851.60</ele>
	<time>2025-07-29T09:44:27.000Z</time>
</trkpt>
<trkpt lat="45.8641310" lon="10.3044350">
	<ele>1851.40</ele>
	<time>2025-07-29T09:44:28.000Z</time>
</trkpt>
<trkpt lat="45.8641270" lon="10.3044420">
	<ele>1851.40</ele>
	<time>2025-07-29T09:44:29.000Z</time>
</trkpt>
<trkpt lat="45.8641260" lon="10.3044470">
	<ele>1851.20</ele>
	<time>2025-07-29T09:44:30.000Z</time>
</trkpt>
<trkpt lat="45.8641250" lon="10.3044560">
	<ele>1850.80</ele>
	<time>2025-07-29T09:44:31.000Z</time>
</trkpt>
<trkpt lat="45.8641220" lon="10.3044680">
	<ele>1850.60</ele>
	<time>2025-07-29T09:44:32.000Z</time>
</trkpt>
<trkpt lat="45.8641190" lon="10.3044800">
	<ele>1850.40</ele>
	<time>2025-07-29T09:44:33.000Z</time>
</trkpt>
<trkpt lat="45.8641210" lon="10.3044920">
	<ele>1850.20</ele>
	<time>2025-07-29T09:44:34.000Z</time>
</trkpt>
<trkpt lat="45.8641230" lon="10.3044980">
	<ele>1849.80</ele>
	<time>2025-07-29T09:44:35.000Z</time>
</trkpt>
<trkpt lat="45.8641220" lon="10.3045060">
	<ele>1849.40</ele>
	<time>2025-07-29T09:44:36.000Z</time>
</trkpt>
<trkpt lat="45.8641200" lon="10.3045180">
	<ele>1849.20</ele>
	<time>2025-07-29T09:44:37.000Z</time>
</trkpt>
<trkpt lat="45.8641200" lon="10.3045290">
	<ele>1849.00</ele>
	<time>2025-07-29T09:44:38.000Z</time>
</trkpt>
<trkpt lat="45.8641210" lon="10.3045350">
	<ele>1848.60</ele>
	<time>2025-07-29T09:44:39.000Z</time>
</trkpt>
<trkpt lat="45.8641170" lon="10.3045440">
	<ele>1848.40</ele>
	<time>2025-07-29T09:44:40.000Z</time>
</trkpt>
<trkpt lat="45.8641120" lon="10.3045570">
	<ele>1848.40</ele>
	<time>2025-07-29T09:44:41.000Z</time>
</trkpt>
<trkpt lat="45.8641010" lon="10.3045670">
	<ele>1848.20</ele>
	<time>2025-07-29T09:44:42.000Z</time>
</trkpt>
<trkpt lat="45.8640950" lon="10.3045800">
	<ele>1848.00</ele>
	<time>2025-07-29T09:44:43.000Z</time>
</trkpt>
<trkpt lat="45.8640920" lon="10.3045950">
	<ele>1847.80</ele>
	<time>2025-07-29T09:44:44.000Z</time>
</trkpt>
<trkpt lat="45.8640860" lon="10.3046040">
	<ele>1847.60</ele>
	<time>2025-07-29T09:44:45.000Z</time>
</trkpt>
<trkpt lat="45.8640780" lon="10.3046150">
	<ele>1847.20</ele>
	<time>2025-07-29T09:44:46.000Z</time>
</trkpt>
<trkpt lat="45.8640710" lon="10.3046250">
	<ele>1847.20</ele>
	<time>2025-07-29T09:44:47.000Z</time>
</trkpt>
<trkpt lat="45.8640640" lon="10.3046320">
	<ele>1847.00</ele>
	<time>2025-07-29T09:44:48.000Z</time>
</trkpt>
<trkpt lat="45.8640570" lon="10.3046380">
	<ele>1846.80</ele>
	<time>2025-07-29T09:44:49.000Z</time>
</trkpt>
<trkpt lat="45.8640520" lon="10.3046500">
	<ele>1846.80</ele>
	<time>2025-07-29T09:44:50.000Z</time>
</trkpt>
<trkpt lat="45.8640500" lon="10.3046610">
	<ele>1846.60</ele>
	<time>2025-07-29T09:44:51.000Z</time>
</trkpt>
<trkpt lat="45.8640480" lon="10.3046740">
	<ele>1846.40</ele>
	<time>2025-07-29T09:44:52.000Z</time>
</trkpt>
<trkpt lat="45.8640450" lon="10.3046870">
	<ele>1846.00</ele>
	<time>2025-07-29T09:44:53.000Z</time>
</trkpt>
<trkpt lat="45.8640400" lon="10.3047000">
	<ele>1845.60</ele>
	<time>2025-07-29T09:44:54.000Z</time>
</trkpt>
<trkpt lat="45.8640360" lon="10.3047120">
	<ele>1845.40</ele>
	<time>2025-07-29T09:44:55.000Z</time>
</trkpt>
<trkpt lat="45.8640310" lon="10.3047310">
	<ele>1845.20</ele>
	<time>2025-07-29T09:44:56.000Z</time>
</trkpt>
<trkpt lat="45.8640270" lon="10.3047430">
	<ele>1845.00</ele>
	<time>2025-07-29T09:44:57.000Z</time>
</trkpt>
<trkpt lat="45.8640240" lon="10.3047570">
	<ele>1844.60</ele>
	<time>2025-07-29T09:44:58.000Z</time>
</trkpt>
<trkpt lat="45.8640230" lon="10.3047720">
	<ele>1844.40</ele>
	<time>2025-07-29T09:44:59.000Z</time>
</trkpt>
<trkpt lat="45.8640140" lon="10.3047860">
	<ele>1844.00</ele>
	<time>2025-07-29T09:45:00.000Z</time>
</trkpt>
<trkpt lat="45.8640030" lon="10.3048010">
	<ele>1843.80</ele>
	<time>2025-07-29T09:45:01.000Z</time>
</trkpt>
<trkpt lat="45.8639990" lon="10.3048160">
	<ele>1843.60</ele>
	<time>2025-07-29T09:45:02.000Z</time>
</trkpt>
<trkpt lat="45.8639940" lon="10.3048300">
	<ele>1843.40</ele>
	<time>2025-07-29T09:45:03.000Z</time>
</trkpt>
<trkpt lat="45.8639860" lon="10.3048460">
	<ele>1843.20</ele>
	<time>2025-07-29T09:45:04.000Z</time>
</trkpt>
<trkpt lat="45.8639840" lon="10.3048660">
	<ele>1843.00</ele>
	<time>2025-07-29T09:45:05.000Z</time>
</trkpt>
<trkpt lat="45.8639800" lon="10.3048810">
	<ele>1842.80</ele>
	<time>2025-07-29T09:45:06.000Z</time>
</trkpt>
<trkpt lat="45.8639740" lon="10.3048960">
	<ele>1842.60</ele>
	<time>2025-07-29T09:45:07.000Z</time>
</trkpt>
<trkpt lat="45.8639670" lon="10.3049080">
	<ele>1842.60</ele>
	<time>2025-07-29T09:45:08.000Z</time>
</trkpt>
<trkpt lat="45.8639570" lon="10.3049230">
	<ele>1842.40</ele>
	<time>2025-07-29T09:45:09.000Z</time>
</trkpt>
<trkpt lat="45.8639600" lon="10.3049480">
	<ele>1842.40</ele>
	<time>2025-07-29T09:45:10.000Z</time>
</trkpt>
<trkpt lat="45.8639610" lon="10.3049730">
	<ele>1842.40</ele>
	<time>2025-07-29T09:45:11.000Z</time>
</trkpt>
<trkpt lat="45.8639570" lon="10.3049940">
	<ele>1842.20</ele>
	<time>2025-07-29T09:45:12.000Z</time>
</trkpt>
<trkpt lat="45.8639590" lon="10.3050020">
	<ele>1842.20</ele>
	<time>2025-07-29T09:45:13.000Z</time>
</trkpt>
<trkpt lat="45.8639540" lon="10.3050150">
	<ele>1842.20</ele>
	<time>2025-07-29T09:45:14.000Z</time>
</trkpt>
<trkpt lat="45.8639500" lon="10.3050230">
	<ele>1842.20</ele>
	<time>2025-07-29T09:45:15.000Z</time>
</trkpt>
<trkpt lat="45.8639490" lon="10.3050450">
	<ele>1842.00</ele>
	<time>2025-07-29T09:45:16.000Z</time>
</trkpt>
<trkpt lat="45.8639530" lon="10.3050620">
	<ele>1842.00</ele>
	<time>2025-07-29T09:45:17.000Z</time>
</trkpt>
<trkpt lat="45.8639550" lon="10.3050780">
	<ele>1841.80</ele>
	<time>2025-07-29T09:45:18.000Z</time>
</trkpt>
<trkpt lat="45.8639550" lon="10.3050940">
	<ele>1841.80</ele>
	<time>2025-07-29T09:45:19.000Z</time>
</trkpt>
<trkpt lat="45.8639550" lon="10.3051110">
	<ele>1841.80</ele>
	<time>2025-07-29T09:45:20.000Z</time>
</trkpt>
<trkpt lat="45.8639530" lon="10.3051220">
	<ele>1841.80</ele>
	<time>2025-07-29T09:45:21.000Z</time>
</trkpt>
<trkpt lat="45.8639520" lon="10.3051380">
	<ele>1841.80</ele>
	<time>2025-07-29T09:45:22.000Z</time>
</trkpt>
<trkpt lat="45.8639540" lon="10.3051510">
	<ele>1841.80</ele>
	<time>2025-07-29T09:45:23.000Z</time>
</trkpt>
<trkpt lat="45.8639540" lon="10.3051650">
	<ele>1842.00</ele>
	<time>2025-07-29T09:45:24.000Z</time>
</trkpt>
<trkpt lat="45.8639530" lon="10.3051820">
	<ele>1842.00</ele>
	<time>2025-07-29T09:45:25.000Z</time>
</trkpt>
<trkpt lat="45.8639520" lon="10.3052000">
	<ele>1842.00</ele>
	<time>2025-07-29T09:45:26.000Z</time>
</trkpt>
<trkpt lat="45.8639530" lon="10.3052160">
	<ele>1842.00</ele>
	<time>2025-07-29T09:45:27.000Z</time>
</trkpt>
<trkpt lat="45.8639480" lon="10.3052300">
	<ele>1842.20</ele>
	<time>2025-07-29T09:45:28.000Z</time>
</trkpt>
<trkpt lat="45.8639470" lon="10.3052430">
	<ele>1842.20</ele>
	<time>2025-07-29T09:45:29.000Z</time>
</trkpt>
<trkpt lat="45.8639450" lon="10.3052630">
	<ele>1842.20</ele>
	<time>2025-07-29T09:45:30.000Z</time>
</trkpt>
<trkpt lat="45.8639430" lon="10.3052820">
	<ele>1842.00</ele>
	<time>2025-07-29T09:45:31.000Z</time>
</trkpt>
<trkpt lat="45.8639440" lon="10.3053010">
	<ele>1842.00</ele>
	<time>2025-07-29T09:45:32.000Z</time>
</trkpt>
<trkpt lat="45.8639450" lon="10.3053260">
	<ele>1842.00</ele>
	<time>2025-07-29T09:45:33.000Z</time>
</trkpt>
<trkpt lat="45.8639470" lon="10.3053520">
	<ele>1841.80</ele>
	<time>2025-07-29T09:45:34.000Z</time>
</trkpt>
<trkpt lat="45.8639490" lon="10.3053730">
	<ele>1841.80</ele>
	<time>2025-07-29T09:45:35.000Z</time>
</trkpt>
<trkpt lat="45.8639450" lon="10.3053980">
	<ele>1841.80</ele>
	<time>2025-07-29T09:45:36.000Z</time>
</trkpt>
<trkpt lat="45.8639440" lon="10.3054140">
	<ele>1841.80</ele>
	<time>2025-07-29T09:45:37.000Z</time>
</trkpt>
<trkpt lat="45.8639430" lon="10.3054350">
	<ele>1841.80</ele>
	<time>2025-07-29T09:45:38.000Z</time>
</trkpt>
<trkpt lat="45.8639390" lon="10.3054480">
	<ele>1841.80</ele>
	<time>2025-07-29T09:45:39.000Z</time>
</trkpt>
<trkpt lat="45.8639330" lon="10.3054650">
	<ele>1841.80</ele>
	<time>2025-07-29T09:45:40.000Z</time>
</trkpt>
<trkpt lat="45.8639260" lon="10.3054780">
	<ele>1841.80</ele>
	<time>2025-07-29T09:45:41.000Z</time>
</trkpt>
<trkpt lat="45.8639200" lon="10.3054920">
	<ele>1841.80</ele>
	<time>2025-07-29T09:45:42.000Z</time>
</trkpt>
<trkpt lat="45.8639060" lon="10.3055010">
	<ele>1841.80</ele>
	<time>2025-07-29T09:45:43.000Z</time>
</trkpt>
<trkpt lat="45.8638980" lon="10.3055060">
	<ele>1842.00</ele>
	<time>2025-07-29T09:45:44.000Z</time>
</trkpt>
<trkpt lat="45.8638910" lon="10.3055150">
	<ele>1842.00</ele>
	<time>2025-07-29T09:45:45.000Z</time>
</trkpt>
<trkpt lat="45.8638920" lon="10.3055310">
	<ele>1842.20</ele>
	<time>2025-07-29T09:45:46.000Z</time>
</trkpt>
<trkpt lat="45.8638910" lon="10.3055480">
	<ele>1842.40</ele>
	<time>2025-07-29T09:45:47.000Z</time>
</trkpt>
<trkpt lat="45.8638940" lon="10.3055640">
	<ele>1842.40</ele>
	<time>2025-07-29T09:45:48.000Z</time>
</trkpt>
<trkpt lat="45.8638980" lon="10.3055800">
	<ele>1842.40</ele>
	<time>2025-07-29T09:45:49.000Z</time>
</trkpt>
<trkpt lat="45.8639000" lon="10.3055980">
	<ele>1842.40</ele>
	<time>2025-07-29T09:45:50.000Z</time>
</trkpt>
<trkpt lat="45.8638950" lon="10.3056160">
	<ele>1842.40</ele>
	<time>2025-07-29T09:45:51.000Z</time>
</trkpt>
<trkpt lat="45.8638860" lon="10.3056360">
	<ele>1842.20</ele>
	<time>2025-07-29T09:45:52.000Z</time>
</trkpt>
<trkpt lat="45.8638750" lon="10.3056590">
	<ele>1842.00</ele>
	<time>2025-07-29T09:45:53.000Z</time>
</trkpt>
<trkpt lat="45.8638660" lon="10.3056790">
	<ele>1842.00</ele>
	<time>2025-07-29T09:45:54.000Z</time>
</trkpt>
<trkpt lat="45.8638570" lon="10.3056860">
	<ele>1842.00</ele>
	<time>2025-07-29T09:45:55.000Z</time>
</trkpt>
<trkpt lat="45.8638680" lon="10.3057030">
	<ele>1841.80</ele>
	<time>2025-07-29T09:45:56.000Z</time>
</trkpt>
<trkpt lat="45.8638690" lon="10.3057190">
	<ele>1841.80</ele>
	<time>2025-07-29T09:45:57.000Z</time>
</trkpt>
<trkpt lat="45.8638700" lon="10.3057390">
	<ele>1841.60</ele>
	<time>2025-07-29T09:45:58.000Z</time>
</trkpt>
<trkpt lat="45.8638770" lon="10.3057590">
	<ele>1841.40</ele>
	<time>2025-07-29T09:45:59.000Z</time>
</trkpt>
<trkpt lat="45.8638860" lon="10.3057830">
	<ele>1841.40</ele>
	<time>2025-07-29T09:46:00.000Z</time>
</trkpt>
<trkpt lat="45.8638890" lon="10.3057930">
	<ele>1841.20</ele>
	<time>2025-07-29T09:46:01.000Z</time>
</trkpt>
<trkpt lat="45.8638880" lon="10.3058110">
	<ele>1841.00</ele>
	<time>2025-07-29T09:46:02.000Z</time>
</trkpt>
<trkpt lat="45.8638800" lon="10.3058310">
	<ele>1840.80</ele>
	<time>2025-07-29T09:46:03.000Z</time>
</trkpt>
<trkpt lat="45.8638790" lon="10.3058480">
	<ele>1840.80</ele>
	<time>2025-07-29T09:46:04.000Z</time>
</trkpt>
<trkpt lat="45.8638810" lon="10.3058620">
	<ele>1840.40</ele>
	<time>2025-07-29T09:46:05.000Z</time>
</trkpt>
<trkpt lat="45.8638800" lon="10.3058740">
	<ele>1840.40</ele>
	<time>2025-07-29T09:46:06.000Z</time>
</trkpt>
<trkpt lat="45.8638830" lon="10.3058910">
	<ele>1840.20</ele>
	<time>2025-07-29T09:46:07.000Z</time>
</trkpt>
<trkpt lat="45.8638830" lon="10.3059100">
	<ele>1840.00</ele>
	<time>2025-07-29T09:46:08.000Z</time>
</trkpt>
<trkpt lat="45.8638760" lon="10.3059250">
	<ele>1839.80</ele>
	<time>2025-07-29T09:46:09.000Z</time>
</trkpt>
<trkpt lat="45.8638670" lon="10.3059370">
	<ele>1839.80</ele>
	<time>2025-07-29T09:46:10.000Z</time>
</trkpt>
<trkpt lat="45.8638640" lon="10.3059520">
	<ele>1839.60</ele>
	<time>2025-07-29T09:46:11.000Z</time>
</trkpt>
<trkpt lat="45.8638610" lon="10.3059680">
	<ele>1839.40</ele>
	<time>2025-07-29T09:46:12.000Z</time>
</trkpt>
<trkpt lat="45.8638560" lon="10.3059880">
	<ele>1839.20</ele>
	<time>2025-07-29T09:46:13.000Z</time>
</trkpt>
<trkpt lat="45.8638520" lon="10.3059980">
	<ele>1839.20</ele>
	<time>2025-07-29T09:46:14.000Z</time>
</trkpt>
<trkpt lat="45.8638490" lon="10.3060130">
	<ele>1838.80</ele>
	<time>2025-07-29T09:46:15.000Z</time>
</trkpt>
<trkpt lat="45.8638470" lon="10.3060270">
	<ele>1838.80</ele>
	<time>2025-07-29T09:46:16.000Z</time>
</trkpt>
<trkpt lat="45.8638480" lon="10.3060420">
	<ele>1838.60</ele>
	<time>2025-07-29T09:46:17.000Z</time>
</trkpt>
<trkpt lat="45.8638470" lon="10.3060580">
	<ele>1838.40</ele>
	<time>2025-07-29T09:46:18.000Z</time>
</trkpt>
<trkpt lat="45.8638480" lon="10.3060750">
	<ele>1838.20</ele>
	<time>2025-07-29T09:46:19.000Z</time>
</trkpt>
<trkpt lat="45.8638480" lon="10.3060890">
	<ele>1838.00</ele>
	<time>2025-07-29T09:46:20.000Z</time>
</trkpt>
<trkpt lat="45.8638440" lon="10.3060980">
	<ele>1837.80</ele>
	<time>2025-07-29T09:46:21.000Z</time>
</trkpt>
<trkpt lat="45.8638370" lon="10.3061090">
	<ele>1837.80</ele>
	<time>2025-07-29T09:46:22.000Z</time>
</trkpt>
<trkpt lat="45.8638290" lon="10.3061210">
	<ele>1837.60</ele>
	<time>2025-07-29T09:46:23.000Z</time>
</trkpt>
<trkpt lat="45.8638250" lon="10.3061320">
	<ele>1837.60</ele>
	<time>2025-07-29T09:46:24.000Z</time>
</trkpt>
<trkpt lat="45.8638230" lon="10.3061400">
	<ele>1837.60</ele>
	<time>2025-07-29T09:46:25.000Z</time>
</trkpt>
<trkpt lat="45.8638160" lon="10.3061490">
	<ele>1837.40</ele>
	<time>2025-07-29T09:46:26.000Z</time>
</trkpt>
<trkpt lat="45.8638080" lon="10.3061620">
	<ele>1837.40</ele>
	<time>2025-07-29T09:46:27.000Z</time>
</trkpt>
<trkpt lat="45.8638020" lon="10.3061780">
	<ele>1837.00</ele>
	<time>2025-07-29T09:46:28.000Z</time>
</trkpt>
<trkpt lat="45.8637980" lon="10.3061970">
	<ele>1837.00</ele>
	<time>2025-07-29T09:46:29.000Z</time>
</trkpt>
<trkpt lat="45.8637910" lon="10.3062170">
	<ele>1836.80</ele>
	<time>2025-07-29T09:46:30.000Z</time>
</trkpt>
<trkpt lat="45.8637860" lon="10.3062310">
	<ele>1836.60</ele>
	<time>2025-07-29T09:46:31.000Z</time>
</trkpt>
<trkpt lat="45.8637880" lon="10.3062360">
	<ele>1836.40</ele>
	<time>2025-07-29T09:46:32.000Z</time>
</trkpt>
<trkpt lat="45.8637910" lon="10.3062320">
	<ele>1836.40</ele>
	<time>2025-07-29T09:46:33.000Z</time>
</trkpt>
<trkpt lat="45.8637940" lon="10.3062330">
	<ele>1836.20</ele>
	<time>2025-07-29T09:46:34.000Z</time>
</trkpt>
<trkpt lat="45.8637950" lon="10.3062330">
	<ele>1836.40</ele>
	<time>2025-07-29T09:46:35.000Z</time>
</trkpt>
<trkpt lat="45.8638020" lon="10.3062330">
	<ele>1836.40</ele>
	<time>2025-07-29T09:46:36.000Z</time>
</trkpt>
<trkpt lat="45.8638040" lon="10.3062360">
	<ele>1836.60</ele>
	<time>2025-07-29T09:46:37.000Z</time>
</trkpt>
<trkpt lat="45.8638050" lon="10.3062370">
	<ele>1836.60</ele>
	<time>2025-07-29T09:46:38.000Z</time>
</trkpt>
<trkpt lat="45.8638030" lon="10.3062370">
	<ele>1836.80</ele>
	<time>2025-07-29T09:46:39.000Z</time>
</trkpt>
<trkpt lat="45.8638040" lon="10.3062380">
	<ele>1836.80</ele>
	<time>2025-07-29T09:46:40.000Z</time>
</trkpt>
<trkpt lat="45.8638050" lon="10.3062390">
	<ele>1836.80</ele>
	<time>2025-07-29T09:46:41.000Z</time>
</trkpt>
<trkpt lat="45.8638060" lon="10.3062390">
	<ele>1836.80</ele>
	<time>2025-07-29T09:46:42.000Z</time>
</trkpt>
<trkpt lat="45.8638060" lon="10.3062340">
	<ele>1836.80</ele>
	<time>2025-07-29T09:46:43.000Z</time>
</trkpt>
<trkpt lat="45.8638080" lon="10.3062360">
	<ele>1836.80</ele>
	<time>2025-07-29T09:46:44.000Z</time>
</trkpt>
<trkpt lat="45.8638090" lon="10.3062380">
	<ele>1836.80</ele>
	<time>2025-07-29T09:46:45.000Z</time>
</trkpt>
<trkpt lat="45.8638050" lon="10.3062380">
	<ele>1836.60</ele>
	<time>2025-07-29T09:46:46.000Z</time>
</trkpt>
<trkpt lat="45.8638000" lon="10.3062460">
	<ele>1836.60</ele>
	<time>2025-07-29T09:46:47.000Z</time>
</trkpt>
<trkpt lat="45.8637950" lon="10.3062560">
	<ele>1836.60</ele>
	<time>2025-07-29T09:46:48.000Z</time>
</trkpt>
<trkpt lat="45.8637880" lon="10.3062700">
	<ele>1836.40</ele>
	<time>2025-07-29T09:46:49.000Z</time>
</trkpt>
<trkpt lat="45.8637790" lon="10.3062820">
	<ele>1836.40</ele>
	<time>2025-07-29T09:46:50.000Z</time>
</trkpt>
<trkpt lat="45.8637740" lon="10.3062940">
	<ele>1836.40</ele>
	<time>2025-07-29T09:46:51.000Z</time>
</trkpt>
<trkpt lat="45.8637680" lon="10.3063050">
	<ele>1836.20</ele>
	<time>2025-07-29T09:46:52.000Z</time>
</trkpt>
<trkpt lat="45.8637620" lon="10.3063180">
	<ele>1836.20</ele>
	<time>2025-07-29T09:46:53.000Z</time>
</trkpt>
<trkpt lat="45.8637530" lon="10.3063310">
	<ele>1836.00</ele>
	<time>2025-07-29T09:46:54.000Z</time>
</trkpt>
<trkpt lat="45.8637430" lon="10.3063460">
	<ele>1836.00</ele>
	<time>2025-07-29T09:46:55.000Z</time>
</trkpt>
<trkpt lat="45.8637340" lon="10.3063620">
	<ele>1836.00</ele>
	<time>2025-07-29T09:46:56.000Z</time>
</trkpt>
<trkpt lat="45.8637230" lon="10.3063720">
	<ele>1836.00</ele>
	<time>2025-07-29T09:46:57.000Z</time>
</trkpt>
<trkpt lat="45.8637100" lon="10.3063900">
	<ele>1836.00</ele>
	<time>2025-07-29T09:46:58.000Z</time>
</trkpt>
<trkpt lat="45.8636990" lon="10.3064030">
	<ele>1836.00</ele>
	<time>2025-07-29T09:46:59.000Z</time>
</trkpt>
<trkpt lat="45.8636870" lon="10.3064150">
	<ele>1836.00</ele>
	<time>2025-07-29T09:47:00.000Z</time>
</trkpt>
<trkpt lat="45.8636800" lon="10.3064310">
	<ele>1836.00</ele>
	<time>2025-07-29T09:47:01.000Z</time>
</trkpt>
<trkpt lat="45.8636700" lon="10.3064480">
	<ele>1836.00</ele>
	<time>2025-07-29T09:47:02.000Z</time>
</trkpt>
<trkpt lat="45.8636620" lon="10.3064590">
	<ele>1836.00</ele>
	<time>2025-07-29T09:47:03.000Z</time>
</trkpt>
<trkpt lat="45.8636550" lon="10.3064700">
	<ele>1835.80</ele>
	<time>2025-07-29T09:47:04.000Z</time>
</trkpt>
<trkpt lat="45.8636510" lon="10.3064820">
	<ele>1835.80</ele>
	<time>2025-07-29T09:47:05.000Z</time>
</trkpt>
<trkpt lat="45.8636480" lon="10.3064940">
	<ele>1835.80</ele>
	<time>2025-07-29T09:47:06.000Z</time>
</trkpt>
<trkpt lat="45.8636450" lon="10.3065030">
	<ele>1835.80</ele>
	<time>2025-07-29T09:47:07.000Z</time>
</trkpt>
<trkpt lat="45.8636410" lon="10.3065160">
	<ele>1835.60</ele>
	<time>2025-07-29T09:47:08.000Z</time>
</trkpt>
<trkpt lat="45.8636360" lon="10.3065350">
	<ele>1835.60</ele>
	<time>2025-07-29T09:47:09.000Z</time>
</trkpt>
<trkpt lat="45.8636320" lon="10.3065510">
	<ele>1835.40</ele>
	<time>2025-07-29T09:47:10.000Z</time>
</trkpt>
<trkpt lat="45.8636300" lon="10.3065690">
	<ele>1835.40</ele>
	<time>2025-07-29T09:47:11.000Z</time>
</trkpt>
<trkpt lat="45.8636260" lon="10.3065860">
	<ele>1835.20</ele>
	<time>2025-07-29T09:47:12.000Z</time>
</trkpt>
<trkpt lat="45.8636190" lon="10.3066020">
	<ele>1835.20</ele>
	<time>2025-07-29T09:47:13.000Z</time>
</trkpt>
<trkpt lat="45.8636150" lon="10.3066180">
	<ele>1835.20</ele>
	<time>2025-07-29T09:47:14.000Z</time>
</trkpt>
<trkpt lat="45.8636100" lon="10.3066290">
	<ele>1835.00</ele>
	<time>2025-07-29T09:47:15.000Z</time>
</trkpt>
<trkpt lat="45.8636030" lon="10.3066460">
	<ele>1834.80</ele>
	<time>2025-07-29T09:47:16.000Z</time>
</trkpt>
<trkpt lat="45.8635990" lon="10.3066630">
	<ele>1834.80</ele>
	<time>2025-07-29T09:47:17.000Z</time>
</trkpt>
<trkpt lat="45.8635970" lon="10.3066860">
	<ele>1834.60</ele>
	<time>2025-07-29T09:47:18.000Z</time>
</trkpt>
<trkpt lat="45.8635970" lon="10.3067050">
	<ele>1834.40</ele>
	<time>2025-07-29T09:47:19.000Z</time>
</trkpt>
<trkpt lat="45.8636010" lon="10.3067170">
	<ele>1834.40</ele>
	<time>2025-07-29T09:47:20.000Z</time>
</trkpt>
<trkpt lat="45.8636040" lon="10.3067410">
	<ele>1834.20</ele>
	<time>2025-07-29T09:47:21.000Z</time>
</trkpt>
<trkpt lat="45.8636060" lon="10.3067590">
	<ele>1834.00</ele>
	<time>2025-07-29T09:47:22.000Z</time>
</trkpt>
<trkpt lat="45.8636080" lon="10.3067870">
	<ele>1834.00</ele>
	<time>2025-07-29T09:47:23.000Z</time>
</trkpt>
<trkpt lat="45.8636040" lon="10.3068090">
	<ele>1833.80</ele>
	<time>2025-07-29T09:47:24.000Z</time>
</trkpt>
<trkpt lat="45.8636040" lon="10.3068240">
	<ele>1833.80</ele>
	<time>2025-07-29T09:47:25.000Z</time>
</trkpt>
<trkpt lat="45.8636020" lon="10.3068400">
	<ele>1833.80</ele>
	<time>2025-07-29T09:47:26.000Z</time>
</trkpt>
<trkpt lat="45.8636000" lon="10.3068530">
	<ele>1833.80</ele>
	<time>2025-07-29T09:47:27.000Z</time>
</trkpt>
<trkpt lat="45.8635960" lon="10.3068700">
	<ele>1833.60</ele>
	<time>2025-07-29T09:47:28.000Z</time>
</trkpt>
<trkpt lat="45.8635960" lon="10.3068950">
	<ele>1833.60</ele>
	<time>2025-07-29T09:47:29.000Z</time>
</trkpt>
<trkpt lat="45.8635920" lon="10.3069160">
	<ele>1833.60</ele>
	<time>2025-07-29T09:47:30.000Z</time>
</trkpt>
<trkpt lat="45.8635900" lon="10.3069410">
	<ele>1833.40</ele>
	<time>2025-07-29T09:47:31.000Z</time>
</trkpt>
<trkpt lat="45.8635810" lon="10.3069580">
	<ele>1833.40</ele>
	<time>2025-07-29T09:47:32.000Z</time>
</trkpt>
<trkpt lat="45.8635720" lon="10.3069740">
	<ele>1833.20</ele>
	<time>2025-07-29T09:47:33.000Z</time>
</trkpt>
<trkpt lat="45.8635720" lon="10.3069930">
	<ele>1833.00</ele>
	<time>2025-07-29T09:47:34.000Z</time>
</trkpt>
<trkpt lat="45.8635720" lon="10.3070040">
	<ele>1832.80</ele>
	<time>2025-07-29T09:47:35.000Z</time>
</trkpt>
<trkpt lat="45.8635710" lon="10.3070190">
	<ele>1832.60</ele>
	<time>2025-07-29T09:47:36.000Z</time>
</trkpt>
<trkpt lat="45.8635690" lon="10.3070340">
	<ele>1832.40</ele>
	<time>2025-07-29T09:47:37.000Z</time>
</trkpt>
<trkpt lat="45.8635680" lon="10.3070480">
	<ele>1832.20</ele>
	<time>2025-07-29T09:47:38.000Z</time>
</trkpt>
<trkpt lat="45.8635620" lon="10.3070610">
	<ele>1832.00</ele>
	<time>2025-07-29T09:47:39.000Z</time>
</trkpt>
<trkpt lat="45.8635590" lon="10.3070650">
	<ele>1831.80</ele>
	<time>2025-07-29T09:47:40.000Z</time>
</trkpt>
<trkpt lat="45.8635510" lon="10.3070760">
	<ele>1831.80</ele>
	<time>2025-07-29T09:47:41.000Z</time>
</trkpt>
<trkpt lat="45.8635480" lon="10.3070920">
	<ele>1831.60</ele>
	<time>2025-07-29T09:47:42.000Z</time>
</trkpt>
<trkpt lat="45.8635560" lon="10.3071020">
	<ele>1831.60</ele>
	<time>2025-07-29T09:47:43.000Z</time>
</trkpt>
<trkpt lat="45.8635520" lon="10.3071170">
	<ele>1831.60</ele>
	<time>2025-07-29T09:47:44.000Z</time>
</trkpt>
<trkpt lat="45.8635540" lon="10.3071350">
	<ele>1831.60</ele>
	<time>2025-07-29T09:47:45.000Z</time>
</trkpt>
<trkpt lat="45.8635540" lon="10.3071470">
	<ele>1831.60</ele>
	<time>2025-07-29T09:47:46.000Z</time>
</trkpt>
<trkpt lat="45.8635480" lon="10.3071600">
	<ele>1831.40</ele>
	<time>2025-07-29T09:47:47.000Z</time>
</trkpt>
<trkpt lat="45.8635500" lon="10.3071690">
	<ele>1831.40</ele>
	<time>2025-07-29T09:47:48.000Z</time>
</trkpt>
<trkpt lat="45.8635590" lon="10.3071830">
	<ele>1831.40</ele>
	<time>2025-07-29T09:47:49.000Z</time>
</trkpt>
<trkpt lat="45.8635690" lon="10.3071910">
	<ele>1831.40</ele>
	<time>2025-07-29T09:47:50.000Z</time>
</trkpt>
<trkpt lat="45.8635760" lon="10.3071950">
	<ele>1831.40</ele>
	<time>2025-07-29T09:47:51.000Z</time>
</trkpt>
<trkpt lat="45.8635810" lon="10.3071970">
	<ele>1831.40</ele>
	<time>2025-07-29T09:47:52.000Z</time>
</trkpt>
<trkpt lat="45.8635880" lon="10.3071960">
	<ele>1831.40</ele>
	<time>2025-07-29T09:47:53.000Z</time>
</trkpt>
<trkpt lat="45.8636010" lon="10.3071960">
	<ele>1831.40</ele>
	<time>2025-07-29T09:47:54.000Z</time>
</trkpt>
<trkpt lat="45.8636150" lon="10.3072050">
	<ele>1831.40</ele>
	<time>2025-07-29T09:47:55.000Z</time>
</trkpt>
<trkpt lat="45.8636330" lon="10.3072080">
	<ele>1831.40</ele>
	<time>2025-07-29T09:47:56.000Z</time>
</trkpt>
<trkpt lat="45.8636440" lon="10.3072150">
	<ele>1831.20</ele>
	<time>2025-07-29T09:47:57.000Z</time>
</trkpt>
<trkpt lat="45.8636560" lon="10.3072190">
	<ele>1831.20</ele>
	<time>2025-07-29T09:47:58.000Z</time>
</trkpt>
<trkpt lat="45.8636640" lon="10.3072170">
	<ele>1831.20</ele>
	<time>2025-07-29T09:47:59.000Z</time>
</trkpt>
<trkpt lat="45.8636640" lon="10.3072190">
	<ele>1831.40</ele>
	<time>2025-07-29T09:48:00.000Z</time>
</trkpt>
<trkpt lat="45.8636650" lon="10.3072190">
	<ele>1831.20</ele>
	<time>2025-07-29T09:48:01.000Z</time>
</trkpt>
<trkpt lat="45.8636640" lon="10.3072190">
	<ele>1831.20</ele>
	<time>2025-07-29T09:48:02.000Z</time>
</trkpt>
<trkpt lat="45.8636640" lon="10.3072200">
	<ele>1831.20</ele>
	<time>2025-07-29T09:48:03.000Z</time>
</trkpt>
<trkpt lat="45.8636630" lon="10.3072190">
	<ele>1831.20</ele>
	<time>2025-07-29T09:48:04.000Z</time>
</trkpt>
<trkpt lat="45.8636610" lon="10.3072210">
	<ele>1831.20</ele>
	<time>2025-07-29T09:48:05.000Z</time>
</trkpt>
<trkpt lat="45.8636520" lon="10.3072190">
	<ele>1831.00</ele>
	<time>2025-07-29T09:48:06.000Z</time>
</trkpt>
<trkpt lat="45.8636450" lon="10.3072330">
	<ele>1831.20</ele>
	<time>2025-07-29T09:48:07.000Z</time>
</trkpt>
<trkpt lat="45.8636450" lon="10.3072430">
	<ele>1831.20</ele>
	<time>2025-07-29T09:48:08.000Z</time>
</trkpt>
<trkpt lat="45.8636460" lon="10.3072510">
	<ele>1831.20</ele>
	<time>2025-07-29T09:48:09.000Z</time>
</trkpt>
<trkpt lat="45.8636540" lon="10.3072600">
	<ele>1831.20</ele>
	<time>2025-07-29T09:48:10.000Z</time>
</trkpt>
<trkpt lat="45.8636600" lon="10.3072700">
	<ele>1831.20</ele>
	<time>2025-07-29T09:48:11.000Z</time>
</trkpt>
<trkpt lat="45.8636710" lon="10.3072820">
	<ele>1831.20</ele>
	<time>2025-07-29T09:48:12.000Z</time>
</trkpt>
<trkpt lat="45.8636790" lon="10.3072910">
	<ele>1831.00</ele>
	<time>2025-07-29T09:48:13.000Z</time>
</trkpt>
<trkpt lat="45.8636840" lon="10.3072950">
	<ele>1831.00</ele>
	<time>2025-07-29T09:48:14.000Z</time>
</trkpt>
<trkpt lat="45.8636880" lon="10.3073000">
	<ele>1831.00</ele>
	<time>2025-07-29T09:48:15.000Z</time>
</trkpt>
<trkpt lat="45.8636950" lon="10.3073100">
	<ele>1831.00</ele>
	<time>2025-07-29T09:48:16.000Z</time>
</trkpt>
<trkpt lat="45.8637000" lon="10.3073210">
	<ele>1830.80</ele>
	<time>2025-07-29T09:48:17.000Z</time>
</trkpt>
<trkpt lat="45.8637010" lon="10.3073240">
	<ele>1830.80</ele>
	<time>2025-07-29T09:48:18.000Z</time>
</trkpt>
<trkpt lat="45.8637050" lon="10.3073190">
	<ele>1830.60</ele>
	<time>2025-07-29T09:48:19.000Z</time>
</trkpt>
<trkpt lat="45.8637090" lon="10.3073200">
	<ele>1830.60</ele>
	<time>2025-07-29T09:48:20.000Z</time>
</trkpt>
<trkpt lat="45.8637060" lon="10.3073270">
	<ele>1830.60</ele>
	<time>2025-07-29T09:48:21.000Z</time>
</trkpt>
<trkpt lat="45.8637060" lon="10.3073500">
	<ele>1830.40</ele>
	<time>2025-07-29T09:48:22.000Z</time>
</trkpt>
<trkpt lat="45.8637160" lon="10.3073700">
	<ele>1830.40</ele>
	<time>2025-07-29T09:48:23.000Z</time>
</trkpt>
<trkpt lat="45.8637240" lon="10.3073790">
	<ele>1830.40</ele>
	<time>2025-07-29T09:48:24.000Z</time>
</trkpt>
<trkpt lat="45.8637320" lon="10.3073880">
	<ele>1830.40</ele>
	<time>2025-07-29T09:48:25.000Z</time>
</trkpt>
<trkpt lat="45.8637380" lon="10.3073950">
	<ele>1830.40</ele>
	<time>2025-07-29T09:48:26.000Z</time>
</trkpt>
<trkpt lat="45.8637470" lon="10.3074080">
	<ele>1830.40</ele>
	<time>2025-07-29T09:48:27.000Z</time>
</trkpt>
<trkpt lat="45.8637620" lon="10.3074180">
	<ele>1830.40</ele>
	<time>2025-07-29T09:48:28.000Z</time>
</trkpt>
<trkpt lat="45.8637740" lon="10.3074240">
	<ele>1830.40</ele>
	<time>2025-07-29T09:48:29.000Z</time>
</trkpt>
<trkpt lat="45.8637950" lon="10.3074250">
	<ele>1830.20</ele>
	<time>2025-07-29T09:48:30.000Z</time>
</trkpt>
<trkpt lat="45.8638060" lon="10.3074330">
	<ele>1830.20</ele>
	<time>2025-07-29T09:48:31.000Z</time>
</trkpt>
<trkpt lat="45.8638190" lon="10.3074380">
	<ele>1830.00</ele>
	<time>2025-07-29T09:48:32.000Z</time>
</trkpt>
<trkpt lat="45.8638330" lon="10.3074470">
	<ele>1829.80</ele>
	<time>2025-07-29T09:48:33.000Z</time>
</trkpt>
<trkpt lat="45.8638460" lon="10.3074610">
	<ele>1829.80</ele>
	<time>2025-07-29T09:48:34.000Z</time>
</trkpt>
<trkpt lat="45.8638550" lon="10.3074740">
	<ele>1829.60</ele>
	<time>2025-07-29T09:48:35.000Z</time>
</trkpt>
<trkpt lat="45.8638600" lon="10.3074850">
	<ele>1829.60</ele>
	<time>2025-07-29T09:48:36.000Z</time>
</trkpt>
<trkpt lat="45.8638700" lon="10.3074870">
	<ele>1829.40</ele>
	<time>2025-07-29T09:48:37.000Z</time>
</trkpt>
<trkpt lat="45.8638810" lon="10.3074890">
	<ele>1829.20</ele>
	<time>2025-07-29T09:48:38.000Z</time>
</trkpt>
<trkpt lat="45.8638790" lon="10.3075050">
	<ele>1829.20</ele>
	<time>2025-07-29T09:48:39.000Z</time>
</trkpt>
<trkpt lat="45.8638800" lon="10.3075110">
	<ele>1829.20</ele>
	<time>2025-07-29T09:48:40.000Z</time>
</trkpt>
<trkpt lat="45.8638840" lon="10.3075110">
	<ele>1829.00</ele>
	<time>2025-07-29T09:48:41.000Z</time>
</trkpt>
<trkpt lat="45.8638860" lon="10.3075110">
	<ele>1829.00</ele>
	<time>2025-07-29T09:48:42.000Z</time>
</trkpt>
<trkpt lat="45.8638850" lon="10.3075110">
	<ele>1829.00</ele>
	<time>2025-07-29T09:48:43.000Z</time>
</trkpt>
<trkpt lat="45.8638860" lon="10.3075110">
	<ele>1829.00</ele>
	<time>2025-07-29T09:48:44.000Z</time>
</trkpt>
<trkpt lat="45.8638860" lon="10.3075110">
	<ele>1829.00</ele>
	<time>2025-07-29T09:48:45.000Z</time>
</trkpt>
<trkpt lat="45.8638880" lon="10.3075120">
	<ele>1829.00</ele>
	<time>2025-07-29T09:48:46.000Z</time>
</trkpt>
<trkpt lat="45.8638880" lon="10.3075130">
	<ele>1829.20</ele>
	<time>2025-07-29T09:48:47.000Z</time>
</trkpt>
<trkpt lat="45.8638870" lon="10.3075150">
	<ele>1829.20</ele>
	<time>2025-07-29T09:48:48.000Z</time>
</trkpt>
<trkpt lat="45.8638890" lon="10.3075170">
	<ele>1829.20</ele>
	<time>2025-07-29T09:48:49.000Z</time>
</trkpt>
<trkpt lat="45.8638900" lon="10.3075190">
	<ele>1829.20</ele>
	<time>2025-07-29T09:48:50.000Z</time>
</trkpt>
<trkpt lat="45.8638890" lon="10.3075210">
	<ele>1829.20</ele>
	<time>2025-07-29T09:48:51.000Z</time>
</trkpt>
<trkpt lat="45.8638880" lon="10.3075220">
	<ele>1829.20</ele>
	<time>2025-07-29T09:48:52.000Z</time>
</trkpt>
<trkpt lat="45.8638880" lon="10.3075220">
	<ele>1829.20</ele>
	<time>2025-07-29T09:48:53.000Z</time>
</trkpt>
<trkpt lat="45.8638880" lon="10.3075220">
	<ele>1829.20</ele>
	<time>2025-07-29T09:48:54.000Z</time>
</trkpt>
<trkpt lat="45.8638880" lon="10.3075220">
	<ele>1829.20</ele>
	<time>2025-07-29T09:48:55.000Z</time>
</trkpt>
<trkpt lat="45.8638880" lon="10.3075220">
	<ele>1829.20</ele>
	<time>2025-07-29T09:48:56.000Z</time>
</trkpt>
<trkpt lat="45.8638880" lon="10.3075220">
	<ele>1829.20</ele>
	<time>2025-07-29T09:48:57.000Z</time>
</trkpt>
<trkpt lat="45.8638880" lon="10.3075220">
	<ele>1829.20</ele>
	<time>2025-07-29T09:48:58.000Z</time>
</trkpt>
<trkpt lat="45.8638880" lon="10.3075220">
	<ele>1829.20</ele>
	<time>2025-07-29T09:48:59.000Z</time>
</trkpt>
<trkpt lat="45.8638880" lon="10.3075220">
	<ele>1829.20</ele>
	<time>2025-07-29T09:49:00.000Z</time>
</trkpt>
<trkpt lat="45.8638880" lon="10.3075220">
	<ele>1829.20</ele>
	<time>2025-07-29T09:49:01.000Z</time>
</trkpt>
<trkpt lat="45.8638880" lon="10.3075220">
	<ele>1829.20</ele>
	<time>2025-07-29T09:49:02.000Z</time>
</trkpt>
<trkpt lat="45.8638880" lon="10.3075220">
	<ele>1829.20</ele>
	<time>2025-07-29T09:49:03.000Z</time>
</trkpt>
<trkpt lat="45.8638880" lon="10.3075220">
	<ele>1829.20</ele>
	<time>2025-07-29T09:49:04.000Z</time>
</trkpt>
<trkpt lat="45.8638880" lon="10.3075220">
	<ele>1829.20</ele>
	<time>2025-07-29T09:49:05.000Z</time>
</trkpt>
<trkpt lat="45.8638880" lon="10.3075220">
	<ele>1829.20</ele>
	<time>2025-07-29T09:49:06.000Z</time>
</trkpt>
<trkpt lat="45.8638880" lon="10.3075220">
	<ele>1829.00</ele>
	<time>2025-07-29T09:49:07.000Z</time>
</trkpt>
<trkpt lat="45.8638880" lon="10.3075210">
	<ele>1829.00</ele>
	<time>2025-07-29T09:49:08.000Z</time>
</trkpt>
<trkpt lat="45.8638880" lon="10.3075210">
	<ele>1829.00</ele>
	<time>2025-07-29T09:49:09.000Z</time>
</trkpt>
<trkpt lat="45.8638880" lon="10.3075210">
	<ele>1829.00</ele>
	<time>2025-07-29T09:49:10.000Z</time>
</trkpt>
<trkpt lat="45.8638880" lon="10.3075200">
	<ele>1829.00</ele>
	<time>2025-07-29T09:49:11.000Z</time>
</trkpt>
<trkpt lat="45.8638880" lon="10.3075200">
	<ele>1829.00</ele>
	<time>2025-07-29T09:49:12.000Z</time>
</trkpt>
<trkpt lat="45.8638890" lon="10.3075190">
	<ele>1829.00</ele>
	<time>2025-07-29T09:49:13.000Z</time>
</trkpt>
<trkpt lat="45.8638900" lon="10.3075190">
	<ele>1829.00</ele>
	<time>2025-07-29T09:49:14.000Z</time>
</trkpt>
<trkpt lat="45.8638900" lon="10.3075190">
	<ele>1829.00</ele>
	<time>2025-07-29T09:49:15.000Z</time>
</trkpt>
<trkpt lat="45.8638900" lon="10.3075190">
	<ele>1829.00</ele>
	<time>2025-07-29T09:49:16.000Z</time>
</trkpt>
<trkpt lat="45.8638910" lon="10.3075190">
	<ele>1829.00</ele>
	<time>2025-07-29T09:49:17.000Z</time>
</trkpt>
<trkpt lat="45.8638910" lon="10.3075200">
	<ele>1828.80</ele>
	<time>2025-07-29T09:49:18.000Z</time>
</trkpt>
<trkpt lat="45.8638910" lon="10.3075200">
	<ele>1828.60</ele>
	<time>2025-07-29T09:49:19.000Z</time>
</trkpt>
<trkpt lat="45.8638940" lon="10.3075200">
	<ele>1828.60</ele>
	<time>2025-07-29T09:49:20.000Z</time>
</trkpt>
<trkpt lat="45.8639020" lon="10.3075160">
	<ele>1828.40</ele>
	<time>2025-07-29T09:49:21.000Z</time>
</trkpt>
<trkpt lat="45.8639100" lon="10.3075100">
	<ele>1828.40</ele>
	<time>2025-07-29T09:49:22.000Z</time>
</trkpt>
<trkpt lat="45.8639150" lon="10.3075090">
	<ele>1828.20</ele>
	<time>2025-07-29T09:49:23.000Z</time>
</trkpt>
<trkpt lat="45.8639200" lon="10.3075080">
	<ele>1828.20</ele>
	<time>2025-07-29T09:49:24.000Z</time>
</trkpt>
<trkpt lat="45.8639180" lon="10.3075120">
	<ele>1828.20</ele>
	<time>2025-07-29T09:49:25.000Z</time>
</trkpt>
<trkpt lat="45.8639270" lon="10.3075180">
	<ele>1827.80</ele>
	<time>2025-07-29T09:49:26.000Z</time>
</trkpt>
<trkpt lat="45.8639390" lon="10.3075200">
	<ele>1827.80</ele>
	<time>2025-07-29T09:49:27.000Z</time>
</trkpt>
<trkpt lat="45.8639470" lon="10.3075250">
	<ele>1827.60</ele>
	<time>2025-07-29T09:49:28.000Z</time>
</trkpt>
<trkpt lat="45.8639610" lon="10.3075310">
	<ele>1827.60</ele>
	<time>2025-07-29T09:49:29.000Z</time>
</trkpt>
<trkpt lat="45.8639710" lon="10.3075370">
	<ele>1827.60</ele>
	<time>2025-07-29T09:49:30.000Z</time>
</trkpt>
<trkpt lat="45.8639780" lon="10.3075390">
	<ele>1827.40</ele>
	<time>2025-07-29T09:49:31.000Z</time>
</trkpt>
<trkpt lat="45.8639820" lon="10.3075440">
	<ele>1827.40</ele>
	<time>2025-07-29T09:49:32.000Z</time>
</trkpt>
<trkpt lat="45.8639870" lon="10.3075500">
	<ele>1827.20</ele>
	<time>2025-07-29T09:49:33.000Z</time>
</trkpt>
<trkpt lat="45.8639930" lon="10.3075630">
	<ele>1827.20</ele>
	<time>2025-07-29T09:49:34.000Z</time>
</trkpt>
<trkpt lat="45.8640030" lon="10.3075740">
	<ele>1827.00</ele>
	<time>2025-07-29T09:49:35.000Z</time>
</trkpt>
<trkpt lat="45.8640160" lon="10.3075730">
	<ele>1826.80</ele>
	<time>2025-07-29T09:49:36.000Z</time>
</trkpt>
<trkpt lat="45.8640290" lon="10.3075660">
	<ele>1826.80</ele>
	<time>2025-07-29T09:49:37.000Z</time>
</trkpt>
<trkpt lat="45.8640360" lon="10.3075550">
	<ele>1826.60</ele>
	<time>2025-07-29T09:49:38.000Z</time>
</trkpt>
<trkpt lat="45.8640390" lon="10.3075480">
	<ele>1826.60</ele>
	<time>2025-07-29T09:49:39.000Z</time>
</trkpt>
<trkpt lat="45.8640550" lon="10.3075450">
	<ele>1826.60</ele>
	<time>2025-07-29T09:49:40.000Z</time>
</trkpt>
<trkpt lat="45.8640570" lon="10.3075250">
	<ele>1826.60</ele>
	<time>2025-07-29T09:49:41.000Z</time>
</trkpt>
<trkpt lat="45.8640510" lon="10.3075170">
	<ele>1826.60</ele>
	<time>2025-07-29T09:49:42.000Z</time>
</trkpt>
<trkpt lat="45.8640470" lon="10.3075140">
	<ele>1826.80</ele>
	<time>2025-07-29T09:49:43.000Z</time>
</trkpt>
<trkpt lat="45.8640490" lon="10.3075090">
	<ele>1826.80</ele>
	<time>2025-07-29T09:49:44.000Z</time>
</trkpt>
<trkpt lat="45.8640480" lon="10.3075070">
	<ele>1826.80</ele>
	<time>2025-07-29T09:49:45.000Z</time>
</trkpt>
<trkpt lat="45.8640580" lon="10.3074960">
	<ele>1826.80</ele>
	<time>2025-07-29T09:49:46.000Z</time>
</trkpt>
<trkpt lat="45.8640620" lon="10.3074960">
	<ele>1826.80</ele>
	<time>2025-07-29T09:49:47.000Z</time>
</trkpt>
<trkpt lat="45.8640650" lon="10.3074980">
	<ele>1826.80</ele>
	<time>2025-07-29T09:49:48.000Z</time>
</trkpt>
<trkpt lat="45.8640650" lon="10.3075000">
	<ele>1826.80</ele>
	<time>2025-07-29T09:49:49.000Z</time>
</trkpt>
<trkpt lat="45.8640660" lon="10.3075020">
	<ele>1826.80</ele>
	<time>2025-07-29T09:49:50.000Z</time>
</trkpt>
<trkpt lat="45.8640660" lon="10.3075050">
	<ele>1826.80</ele>
	<time>2025-07-29T09:49:51.000Z</time>
</trkpt>
<trkpt lat="45.8640660" lon="10.3075040">
	<ele>1826.80</ele>
	<time>2025-07-29T09:49:52.000Z</time>
</trkpt>
<trkpt lat="45.8640660" lon="10.3075030">
	<ele>1826.80</ele>
	<time>2025-07-29T09:49:53.000Z</time>
</trkpt>
<trkpt lat="45.8640660" lon="10.3075040">
	<ele>1826.80</ele>
	<time>2025-07-29T09:49:54.000Z</time>
</trkpt>
<trkpt lat="45.8640660" lon="10.3075040">
	<ele>1826.80</ele>
	<time>2025-07-29T09:49:55.000Z</time>
</trkpt>
<trkpt lat="45.8640660" lon="10.3075040">
	<ele>1826.80</ele>
	<time>2025-07-29T09:49:56.000Z</time>
</trkpt>
<trkpt lat="45.8640660" lon="10.3075040">
	<ele>1826.80</ele>
	<time>2025-07-29T09:49:57.000Z</time>
</trkpt>
<trkpt lat="45.8640660" lon="10.3075040">
	<ele>1826.80</ele>
	<time>2025-07-29T09:49:58.000Z</time>
</trkpt>
<trkpt lat="45.8640660" lon="10.3075040">
	<ele>1826.80</ele>
	<time>2025-07-29T09:49:59.000Z</time>
</trkpt>
<trkpt lat="45.8640660" lon="10.3075040">
	<ele>1827.00</ele>
	<time>2025-07-29T09:50:00.000Z</time>
</trkpt>
<trkpt lat="45.8640660" lon="10.3075040">
	<ele>1827.00</ele>
	<time>2025-07-29T09:50:01.000Z</time>
</trkpt>
<trkpt lat="45.8640660" lon="10.3075040">
	<ele>1827.20</ele>
	<time>2025-07-29T09:50:02.000Z</time>
</trkpt>
<trkpt lat="45.8640660" lon="10.3075040">
	<ele>1827.40</ele>
	<time>2025-07-29T09:50:03.000Z</time>
</trkpt>
<trkpt lat="45.8640660" lon="10.3075040">
	<ele>1827.60</ele>
	<time>2025-07-29T09:50:04.000Z</time>
</trkpt>
<trkpt lat="45.8640660" lon="10.3075040">
	<ele>1827.60</ele>
	<time>2025-07-29T09:50:05.000Z</time>
</trkpt>
<trkpt lat="45.8640660" lon="10.3075030">
	<ele>1827.60</ele>
	<time>2025-07-29T09:50:06.000Z</time>
</trkpt>
<trkpt lat="45.8640660" lon="10.3075030">
	<ele>1827.60</ele>
	<time>2025-07-29T09:50:07.000Z</time>
</trkpt>
<trkpt lat="45.8640660" lon="10.3075020">
	<ele>1827.60</ele>
	<time>2025-07-29T09:50:08.000Z</time>
</trkpt>
<trkpt lat="45.8640660" lon="10.3075000">
	<ele>1827.60</ele>
	<time>2025-07-29T09:50:09.000Z</time>
</trkpt>
<trkpt lat="45.8640660" lon="10.3075000">
	<ele>1827.40</ele>
	<time>2025-07-29T09:50:10.000Z</time>
</trkpt>
<trkpt lat="45.8640660" lon="10.3075000">
	<ele>1827.40</ele>
	<time>2025-07-29T09:50:11.000Z</time>
</trkpt>
<trkpt lat="45.8640660" lon="10.3075000">
	<ele>1827.40</ele>
	<time>2025-07-29T09:50:12.000Z</time>
</trkpt>
<trkpt lat="45.8640660" lon="10.3075000">
	<ele>1827.20</ele>
	<time>2025-07-29T09:50:13.000Z</time>
</trkpt>
<trkpt lat="45.8640660" lon="10.3074990">
	<ele>1827.00</ele>
	<time>2025-07-29T09:50:14.000Z</time>
</trkpt>
<trkpt lat="45.8640660" lon="10.3074990">
	<ele>1826.80</ele>
	<time>2025-07-29T09:50:15.000Z</time>
</trkpt>
<trkpt lat="45.8640660" lon="10.3074990">
	<ele>1826.60</ele>
	<time>2025-07-29T09:50:16.000Z</time>
</trkpt>
<trkpt lat="45.8640660" lon="10.3074990">
	<ele>1826.60</ele>
	<time>2025-07-29T09:50:17.000Z</time>
</trkpt>
<trkpt lat="45.8640680" lon="10.3074990">
	<ele>1826.80</ele>
	<time>2025-07-29T09:50:18.000Z</time>
</trkpt>
<trkpt lat="45.8640680" lon="10.3074990">
	<ele>1826.80</ele>
	<time>2025-07-29T09:50:19.000Z</time>
</trkpt>
<trkpt lat="45.8640690" lon="10.3074990">
	<ele>1826.80</ele>
	<time>2025-07-29T09:50:20.000Z</time>
</trkpt>
<trkpt lat="45.8640690" lon="10.3074990">
	<ele>1826.80</ele>
	<time>2025-07-29T09:50:21.000Z</time>
</trkpt>
<trkpt lat="45.8640690" lon="10.3074990">
	<ele>1826.80</ele>
	<time>2025-07-29T09:50:22.000Z</time>
</trkpt>
<trkpt lat="45.8640690" lon="10.3074990">
	<ele>1826.80</ele>
	<time>2025-07-29T09:50:23.000Z</time>
</trkpt>
<trkpt lat="45.8640700" lon="10.3074980">
	<ele>1826.80</ele>
	<time>2025-07-29T09:50:24.000Z</time>
</trkpt>
<trkpt lat="45.8640710" lon="10.3074980">
	<ele>1826.80</ele>
	<time>2025-07-29T09:50:25.000Z</time>
</trkpt>
<trkpt lat="45.8640720" lon="10.3074980">
	<ele>1826.80</ele>
	<time>2025-07-29T09:50:26.000Z</time>
</trkpt>
<trkpt lat="45.8640720" lon="10.3074980">
	<ele>1826.80</ele>
	<time>2025-07-29T09:50:27.000Z</time>
</trkpt>
<trkpt lat="45.8640720" lon="10.3074980">
	<ele>1826.80</ele>
	<time>2025-07-29T09:50:28.000Z</time>
</trkpt>
<trkpt lat="45.8640720" lon="10.3074980">
	<ele>1826.80</ele>
	<time>2025-07-29T09:50:29.000Z</time>
</trkpt>
<trkpt lat="45.8640720" lon="10.3074980">
	<ele>1826.80</ele>
	<time>2025-07-29T09:50:30.000Z</time>
</trkpt>
<trkpt lat="45.8640720" lon="10.3074980">
	<ele>1826.80</ele>
	<time>2025-07-29T09:50:31.000Z</time>
</trkpt>
<trkpt lat="45.8640720" lon="10.3074980">
	<ele>1826.80</ele>
	<time>2025-07-29T09:50:32.000Z</time>
</trkpt>
<trkpt lat="45.8640720" lon="10.3074980">
	<ele>1826.80</ele>
	<time>2025-07-29T09:50:33.000Z</time>
</trkpt>
<trkpt lat="45.8640720" lon="10.3074970">
	<ele>1826.80</ele>
	<time>2025-07-29T09:50:34.000Z</time>
</trkpt>
<trkpt lat="45.8640720" lon="10.3074970">
	<ele>1826.80</ele>
	<time>2025-07-29T09:50:35.000Z</time>
</trkpt>
<trkpt lat="45.8640720" lon="10.3074970">
	<ele>1827.00</ele>
	<time>2025-07-29T09:50:36.000Z</time>
</trkpt>
<trkpt lat="45.8640720" lon="10.3074970">
	<ele>1827.00</ele>
	<time>2025-07-29T09:50:37.000Z</time>
</trkpt>
<trkpt lat="45.8640720" lon="10.3074970">
	<ele>1827.00</ele>
	<time>2025-07-29T09:50:38.000Z</time>
</trkpt>
<trkpt lat="45.8640720" lon="10.3074950">
	<ele>1827.00</ele>
	<time>2025-07-29T09:50:39.000Z</time>
</trkpt>
<trkpt lat="45.8640710" lon="10.3074930">
	<ele>1827.00</ele>
	<time>2025-07-29T09:50:40.000Z</time>
</trkpt>
<trkpt lat="45.8640690" lon="10.3074920">
	<ele>1827.00</ele>
	<time>2025-07-29T09:50:41.000Z</time>
</trkpt>
<trkpt lat="45.8640660" lon="10.3074920">
	<ele>1827.00</ele>
	<time>2025-07-29T09:50:42.000Z</time>
</trkpt>
<trkpt lat="45.8640640" lon="10.3074910">
	<ele>1827.00</ele>
	<time>2025-07-29T09:50:43.000Z</time>
</trkpt>
<trkpt lat="45.8640630" lon="10.3074910">
	<ele>1827.00</ele>
	<time>2025-07-29T09:50:44.000Z</time>
</trkpt>
<trkpt lat="45.8640620" lon="10.3074910">
	<ele>1827.00</ele>
	<time>2025-07-29T09:50:45.000Z</time>
</trkpt>
<trkpt lat="45.8640610" lon="10.3074910">
	<ele>1827.00</ele>
	<time>2025-07-29T09:50:46.000Z</time>
</trkpt>
<trkpt lat="45.8640580" lon="10.3074910">
	<ele>1826.80</ele>
	<time>2025-07-29T09:50:47.000Z</time>
</trkpt>
<trkpt lat="45.8640570" lon="10.3074910">
	<ele>1826.80</ele>
	<time>2025-07-29T09:50:48.000Z</time>
</trkpt>
<trkpt lat="45.8640550" lon="10.3074910">
	<ele>1826.80</ele>
	<time>2025-07-29T09:50:49.000Z</time>
</trkpt>
<trkpt lat="45.8640540" lon="10.3074910">
	<ele>1826.60</ele>
	<time>2025-07-29T09:50:50.000Z</time>
</trkpt>
<trkpt lat="45.8640530" lon="10.3074910">
	<ele>1826.60</ele>
	<time>2025-07-29T09:50:51.000Z</time>
</trkpt>
<trkpt lat="45.8640530" lon="10.3074910">
	<ele>1826.60</ele>
	<time>2025-07-29T09:50:52.000Z</time>
</trkpt>
<trkpt lat="45.8640530" lon="10.3074910">
	<ele>1826.40</ele>
	<time>2025-07-29T09:50:53.000Z</time>
</trkpt>
<trkpt lat="45.8640520" lon="10.3074910">
	<ele>1826.40</ele>
	<time>2025-07-29T09:50:54.000Z</time>
</trkpt>
<trkpt lat="45.8640510" lon="10.3074910">
	<ele>1826.60</ele>
	<time>2025-07-29T09:50:55.000Z</time>
</trkpt>
<trkpt lat="45.8640510" lon="10.3074910">
	<ele>1826.60</ele>
	<time>2025-07-29T09:50:56.000Z</time>
</trkpt>
<trkpt lat="45.8640510" lon="10.3074920">
	<ele>1826.40</ele>
	<time>2025-07-29T09:50:57.000Z</time>
</trkpt>
<trkpt lat="45.8640510" lon="10.3074920">
	<ele>1826.60</ele>
	<time>2025-07-29T09:50:58.000Z</time>
</trkpt>
<trkpt lat="45.8640500" lon="10.3074930">
	<ele>1826.60</ele>
	<time>2025-07-29T09:50:59.000Z</time>
</trkpt>
<trkpt lat="45.8640500" lon="10.3074950">
	<ele>1826.60</ele>
	<time>2025-07-29T09:51:00.000Z</time>
</trkpt>
<trkpt lat="45.8640490" lon="10.3075040">
	<ele>1826.60</ele>
	<time>2025-07-29T09:51:01.000Z</time>
</trkpt>
<trkpt lat="45.8640460" lon="10.3075130">
	<ele>1826.60</ele>
	<time>2025-07-29T09:51:02.000Z</time>
</trkpt>
<trkpt lat="45.8640440" lon="10.3075190">
	<ele>1826.40</ele>
	<time>2025-07-29T09:51:03.000Z</time>
</trkpt>
<trkpt lat="45.8640430" lon="10.3075220">
	<ele>1826.40</ele>
	<time>2025-07-29T09:51:04.000Z</time>
</trkpt>
<trkpt lat="45.8640420" lon="10.3075240">
	<ele>1826.40</ele>
	<time>2025-07-29T09:51:05.000Z</time>
</trkpt>
<trkpt lat="45.8640410" lon="10.3075240">
	<ele>1826.40</ele>
	<time>2025-07-29T09:51:06.000Z</time>
</trkpt>
<trkpt lat="45.8640410" lon="10.3075270">
	<ele>1826.40</ele>
	<time>2025-07-29T09:51:07.000Z</time>
</trkpt>
<trkpt lat="45.8640410" lon="10.3075290">
	<ele>1826.40</ele>
	<time>2025-07-29T09:51:08.000Z</time>
</trkpt>
<trkpt lat="45.8640410" lon="10.3075300">
	<ele>1826.40</ele>
	<time>2025-07-29T09:51:09.000Z</time>
</trkpt>
<trkpt lat="45.8640410" lon="10.3075310">
	<ele>1826.40</ele>
	<time>2025-07-29T09:51:10.000Z</time>
</trkpt>
<trkpt lat="45.8640410" lon="10.3075330">
	<ele>1826.60</ele>
	<time>2025-07-29T09:51:11.000Z</time>
</trkpt>
<trkpt lat="45.8640400" lon="10.3075340">
	<ele>1826.60</ele>
	<time>2025-07-29T09:51:12.000Z</time>
</trkpt>
<trkpt lat="45.8640400" lon="10.3075340">
	<ele>1826.80</ele>
	<time>2025-07-29T09:51:13.000Z</time>
</trkpt>
<trkpt lat="45.8640390" lon="10.3075340">
	<ele>1826.80</ele>
	<time>2025-07-29T09:51:14.000Z</time>
</trkpt>
<trkpt lat="45.8640390" lon="10.3075340">
	<ele>1826.80</ele>
	<time>2025-07-29T09:51:15.000Z</time>
</trkpt>
<trkpt lat="45.8640390" lon="10.3075340">
	<ele>1827.00</ele>
	<time>2025-07-29T09:51:16.000Z</time>
</trkpt>
<trkpt lat="45.8640380" lon="10.3075340">
	<ele>1827.00</ele>
	<time>2025-07-29T09:51:17.000Z</time>
</trkpt>
<trkpt lat="45.8640380" lon="10.3075340">
	<ele>1827.00</ele>
	<time>2025-07-29T09:51:18.000Z</time>
</trkpt>
<trkpt lat="45.8640390" lon="10.3075250">
	<ele>1827.20</ele>
	<time>2025-07-29T09:51:19.000Z</time>
</trkpt>
<trkpt lat="45.8640400" lon="10.3075060">
	<ele>1827.20</ele>
	<time>2025-07-29T09:51:20.000Z</time>
</trkpt>
<trkpt lat="45.8640440" lon="10.3074840">
	<ele>1827.20</ele>
	<time>2025-07-29T09:51:21.000Z</time>
</trkpt>
<trkpt lat="45.8640480" lon="10.3074670">
	<ele>1827.20</ele>
	<time>2025-07-29T09:51:22.000Z</time>
</trkpt>
<trkpt lat="45.8640560" lon="10.3074510">
	<ele>1827.20</ele>
	<time>2025-07-29T09:51:23.000Z</time>
</trkpt>
<trkpt lat="45.8640640" lon="10.3074350">
	<ele>1827.00</ele>
	<time>2025-07-29T09:51:24.000Z</time>
</trkpt>
<trkpt lat="45.8640680" lon="10.3074300">
	<ele>1827.00</ele>
	<time>2025-07-29T09:51:25.000Z</time>
</trkpt>
<trkpt lat="45.8640720" lon="10.3074310">
	<ele>1827.00</ele>
	<time>2025-07-29T09:51:26.000Z</time>
</trkpt>
<trkpt lat="45.8640780" lon="10.3074320">
	<ele>1827.00</ele>
	<time>2025-07-29T09:51:27.000Z</time>
</trkpt>
<trkpt lat="45.8640870" lon="10.3074270">
	<ele>1826.80</ele>
	<time>2025-07-29T09:51:28.000Z</time>
</trkpt>
<trkpt lat="45.8640940" lon="10.3074260">
	<ele>1826.80</ele>
	<time>2025-07-29T09:51:29.000Z</time>
</trkpt>
<trkpt lat="45.8640990" lon="10.3074260">
	<ele>1826.80</ele>
	<time>2025-07-29T09:51:30.000Z</time>
</trkpt>
<trkpt lat="45.8641020" lon="10.3074280">
	<ele>1826.60</ele>
	<time>2025-07-29T09:51:31.000Z</time>
</trkpt>
<trkpt lat="45.8641060" lon="10.3074380">
	<ele>1826.60</ele>
	<time>2025-07-29T09:51:32.000Z</time>
</trkpt>
<trkpt lat="45.8641130" lon="10.3074480">
	<ele>1826.60</ele>
	<time>2025-07-29T09:51:33.000Z</time>
</trkpt>
<trkpt lat="45.8641200" lon="10.3074540">
	<ele>1826.60</ele>
	<time>2025-07-29T09:51:34.000Z</time>
</trkpt>
<trkpt lat="45.8641280" lon="10.3074550">
	<ele>1826.40</ele>
	<time>2025-07-29T09:51:35.000Z</time>
</trkpt>
<trkpt lat="45.8641420" lon="10.3074520">
	<ele>1826.20</ele>
	<time>2025-07-29T09:51:36.000Z</time>
</trkpt>
<trkpt lat="45.8641570" lon="10.3074520">
	<ele>1826.20</ele>
	<time>2025-07-29T09:51:37.000Z</time>
</trkpt>
<trkpt lat="45.8641680" lon="10.3074530">
	<ele>1826.00</ele>
	<time>2025-07-29T09:51:38.000Z</time>
</trkpt>
<trkpt lat="45.8641740" lon="10.3074590">
	<ele>1825.80</ele>
	<time>2025-07-29T09:51:39.000Z</time>
</trkpt>
<trkpt lat="45.8641780" lon="10.3074630">
	<ele>1825.60</ele>
	<time>2025-07-29T09:51:40.000Z</time>
</trkpt>
<trkpt lat="45.8641800" lon="10.3074650">
	<ele>1825.60</ele>
	<time>2025-07-29T09:51:41.000Z</time>
</trkpt>
<trkpt lat="45.8641810" lon="10.3074660">
	<ele>1825.60</ele>
	<time>2025-07-29T09:51:42.000Z</time>
</trkpt>
<trkpt lat="45.8641810" lon="10.3074660">
	<ele>1825.40</ele>
	<time>2025-07-29T09:51:43.000Z</time>
</trkpt>
<trkpt lat="45.8641830" lon="10.3074680">
	<ele>1825.40</ele>
	<time>2025-07-29T09:51:44.000Z</time>
</trkpt>
<trkpt lat="45.8641820" lon="10.3074700">
	<ele>1825.40</ele>
	<time>2025-07-29T09:51:45.000Z</time>
</trkpt>
<trkpt lat="45.8641820" lon="10.3074740">
	<ele>1825.60</ele>
	<time>2025-07-29T09:51:46.000Z</time>
</trkpt>
<trkpt lat="45.8641830" lon="10.3074750">
	<ele>1825.60</ele>
	<time>2025-07-29T09:51:47.000Z</time>
</trkpt>
<trkpt lat="45.8641840" lon="10.3074760">
	<ele>1825.60</ele>
	<time>2025-07-29T09:51:48.000Z</time>
</trkpt>
<trkpt lat="45.8641860" lon="10.3074790">
	<ele>1825.60</ele>
	<time>2025-07-29T09:51:49.000Z</time>
</trkpt>
<trkpt lat="45.8641930" lon="10.3074780">
	<ele>1825.40</ele>
	<time>2025-07-29T09:51:50.000Z</time>
</trkpt>
<trkpt lat="45.8641980" lon="10.3074840">
	<ele>1825.40</ele>
	<time>2025-07-29T09:51:51.000Z</time>
</trkpt>
<trkpt lat="45.8642100" lon="10.3074840">
	<ele>1825.20</ele>
	<time>2025-07-29T09:51:52.000Z</time>
</trkpt>
<trkpt lat="45.8642200" lon="10.3074850">
	<ele>1825.00</ele>
	<time>2025-07-29T09:51:53.000Z</time>
</trkpt>
<trkpt lat="45.8642300" lon="10.3074910">
	<ele>1824.80</ele>
	<time>2025-07-29T09:51:54.000Z</time>
</trkpt>
<trkpt lat="45.8642380" lon="10.3074970">
	<ele>1824.80</ele>
	<time>2025-07-29T09:51:55.000Z</time>
</trkpt>
<trkpt lat="45.8642490" lon="10.3075080">
	<ele>1824.80</ele>
	<time>2025-07-29T09:51:56.000Z</time>
</trkpt>
<trkpt lat="45.8642590" lon="10.3075180">
	<ele>1824.60</ele>
	<time>2025-07-29T09:51:57.000Z</time>
</trkpt>
<trkpt lat="45.8642690" lon="10.3075270">
	<ele>1824.60</ele>
	<time>2025-07-29T09:51:58.000Z</time>
</trkpt>
<trkpt lat="45.8642790" lon="10.3075370">
	<ele>1824.40</ele>
	<time>2025-07-29T09:51:59.000Z</time>
</trkpt>
<trkpt lat="45.8642900" lon="10.3075490">
	<ele>1824.20</ele>
	<time>2025-07-29T09:52:00.000Z</time>
</trkpt>
<trkpt lat="45.8643020" lon="10.3075580">
	<ele>1824.20</ele>
	<time>2025-07-29T09:52:01.000Z</time>
</trkpt>
<trkpt lat="45.8643130" lon="10.3075660">
	<ele>1824.00</ele>
	<time>2025-07-29T09:52:02.000Z</time>
</trkpt>
<trkpt lat="45.8643240" lon="10.3075770">
	<ele>1823.80</ele>
	<time>2025-07-29T09:52:03.000Z</time>
</trkpt>
<trkpt lat="45.8643340" lon="10.3075890">
	<ele>1823.60</ele>
	<time>2025-07-29T09:52:04.000Z</time>
</trkpt>
<trkpt lat="45.8643440" lon="10.3075950">
	<ele>1823.60</ele>
	<time>2025-07-29T09:52:05.000Z</time>
</trkpt>
<trkpt lat="45.8643510" lon="10.3076000">
	<ele>1823.40</ele>
	<time>2025-07-29T09:52:06.000Z</time>
</trkpt>
<trkpt lat="45.8643600" lon="10.3076030">
	<ele>1823.20</ele>
	<time>2025-07-29T09:52:07.000Z</time>
</trkpt>
<trkpt lat="45.8643680" lon="10.3076060">
	<ele>1823.00</ele>
	<time>2025-07-29T09:52:08.000Z</time>
</trkpt>
<trkpt lat="45.8643710" lon="10.3076070">
	<ele>1823.00</ele>
	<time>2025-07-29T09:52:09.000Z</time>
</trkpt>
<trkpt lat="45.8643710" lon="10.3076070">
	<ele>1823.00</ele>
	<time>2025-07-29T09:52:10.000Z</time>
</trkpt>
<trkpt lat="45.8643720" lon="10.3076050">
	<ele>1822.80</ele>
	<time>2025-07-29T09:52:11.000Z</time>
</trkpt>
<trkpt lat="45.8643760" lon="10.3076000">
	<ele>1822.80</ele>
	<time>2025-07-29T09:52:12.000Z</time>
</trkpt>
<trkpt lat="45.8643840" lon="10.3075980">
	<ele>1822.80</ele>
	<time>2025-07-29T09:52:13.000Z</time>
</trkpt>
<trkpt lat="45.8643970" lon="10.3076000">
	<ele>1822.80</ele>
	<time>2025-07-29T09:52:14.000Z</time>
</trkpt>
<trkpt lat="45.8644070" lon="10.3076010">
	<ele>1822.60</ele>
	<time>2025-07-29T09:52:15.000Z</time>
</trkpt>
<trkpt lat="45.8644160" lon="10.3076000">
	<ele>1822.40</ele>
	<time>2025-07-29T09:52:16.000Z</time>
</trkpt>
<trkpt lat="45.8644230" lon="10.3075990">
	<ele>1822.40</ele>
	<time>2025-07-29T09:52:17.000Z</time>
</trkpt>
<trkpt lat="45.8644300" lon="10.3075960">
	<ele>1822.40</ele>
	<time>2025-07-29T09:52:18.000Z</time>
</trkpt>
<trkpt lat="45.8644360" lon="10.3075990">
	<ele>1822.20</ele>
	<time>2025-07-29T09:52:19.000Z</time>
</trkpt>
<trkpt lat="45.8644430" lon="10.3075980">
	<ele>1822.00</ele>
	<time>2025-07-29T09:52:20.000Z</time>
</trkpt>
<trkpt lat="45.8644440" lon="10.3076020">
	<ele>1822.00</ele>
	<time>2025-07-29T09:52:21.000Z</time>
</trkpt>
<trkpt lat="45.8644480" lon="10.3075990">
	<ele>1821.60</ele>
	<time>2025-07-29T09:52:22.000Z</time>
</trkpt>
<trkpt lat="45.8644540" lon="10.3075940">
	<ele>1821.40</ele>
	<time>2025-07-29T09:52:23.000Z</time>
</trkpt>
<trkpt lat="45.8644610" lon="10.3075940">
	<ele>1821.20</ele>
	<time>2025-07-29T09:52:24.000Z</time>
</trkpt>
<trkpt lat="45.8644680" lon="10.3075950">
	<ele>1821.00</ele>
	<time>2025-07-29T09:52:25.000Z</time>
</trkpt>
<trkpt lat="45.8644810" lon="10.3075930">
	<ele>1820.80</ele>
	<time>2025-07-29T09:52:26.000Z</time>
</trkpt>
<trkpt lat="45.8644950" lon="10.3075900">
	<ele>1820.60</ele>
	<time>2025-07-29T09:52:27.000Z</time>
</trkpt>
<trkpt lat="45.8645080" lon="10.3075840">
	<ele>1820.60</ele>
	<time>2025-07-29T09:52:28.000Z</time>
</trkpt>
<trkpt lat="45.8645240" lon="10.3075730">
	<ele>1820.20</ele>
	<time>2025-07-29T09:52:29.000Z</time>
</trkpt>
<trkpt lat="45.8645360" lon="10.3075650">
	<ele>1820.00</ele>
	<time>2025-07-29T09:52:30.000Z</time>
</trkpt>
<trkpt lat="45.8645500" lon="10.3075590">
	<ele>1819.80</ele>
	<time>2025-07-29T09:52:31.000Z</time>
</trkpt>
<trkpt lat="45.8645600" lon="10.3075510">
	<ele>1819.60</ele>
	<time>2025-07-29T09:52:32.000Z</time>
</trkpt>
<trkpt lat="45.8645740" lon="10.3075450">
	<ele>1819.40</ele>
	<time>2025-07-29T09:52:33.000Z</time>
</trkpt>
<trkpt lat="45.8645830" lon="10.3075380">
	<ele>1819.00</ele>
	<time>2025-07-29T09:52:34.000Z</time>
</trkpt>
<trkpt lat="45.8645910" lon="10.3075330">
	<ele>1819.00</ele>
	<time>2025-07-29T09:52:35.000Z</time>
</trkpt>
<trkpt lat="45.8646010" lon="10.3075270">
	<ele>1818.80</ele>
	<time>2025-07-29T09:52:36.000Z</time>
</trkpt>
<trkpt lat="45.8646100" lon="10.3075250">
	<ele>1818.80</ele>
	<time>2025-07-29T09:52:37.000Z</time>
</trkpt>
<trkpt lat="45.8646210" lon="10.3075220">
	<ele>1818.40</ele>
	<time>2025-07-29T09:52:38.000Z</time>
</trkpt>
<trkpt lat="45.8646320" lon="10.3075160">
	<ele>1818.00</ele>
	<time>2025-07-29T09:52:39.000Z</time>
</trkpt>
<trkpt lat="45.8646430" lon="10.3075140">
	<ele>1817.80</ele>
	<time>2025-07-29T09:52:40.000Z</time>
</trkpt>
<trkpt lat="45.8646570" lon="10.3075100">
	<ele>1817.60</ele>
	<time>2025-07-29T09:52:41.000Z</time>
</trkpt>
<trkpt lat="45.8646680" lon="10.3075050">
	<ele>1817.40</ele>
	<time>2025-07-29T09:52:42.000Z</time>
</trkpt>
<trkpt lat="45.8646790" lon="10.3075000">
	<ele>1817.40</ele>
	<time>2025-07-29T09:52:43.000Z</time>
</trkpt>
<trkpt lat="45.8646910" lon="10.3074960">
	<ele>1817.00</ele>
	<time>2025-07-29T09:52:44.000Z</time>
</trkpt>
<trkpt lat="45.8646990" lon="10.3074870">
	<ele>1817.00</ele>
	<time>2025-07-29T09:52:45.000Z</time>
</trkpt>
<trkpt lat="45.8647060" lon="10.3074810">
	<ele>1816.60</ele>
	<time>2025-07-29T09:52:46.000Z</time>
</trkpt>
<trkpt lat="45.8647160" lon="10.3074770">
	<ele>1816.40</ele>
	<time>2025-07-29T09:52:47.000Z</time>
</trkpt>
<trkpt lat="45.8647260" lon="10.3074750">
	<ele>1816.00</ele>
	<time>2025-07-29T09:52:48.000Z</time>
</trkpt>
<trkpt lat="45.8647320" lon="10.3074720">
	<ele>1816.00</ele>
	<time>2025-07-29T09:52:49.000Z</time>
</trkpt>
<trkpt lat="45.8647440" lon="10.3074530">
	<ele>1815.80</ele>
	<time>2025-07-29T09:52:50.000Z</time>
</trkpt>
<trkpt lat="45.8647570" lon="10.3074420">
	<ele>1815.60</ele>
	<time>2025-07-29T09:52:51.000Z</time>
</trkpt>
<trkpt lat="45.8647580" lon="10.3074340">
	<ele>1815.40</ele>
	<time>2025-07-29T09:52:52.000Z</time>
</trkpt>
<trkpt lat="45.8647640" lon="10.3074210">
	<ele>1815.00</ele>
	<time>2025-07-29T09:52:53.000Z</time>
</trkpt>
<trkpt lat="45.8647680" lon="10.3074040">
	<ele>1814.80</ele>
	<time>2025-07-29T09:52:54.000Z</time>
</trkpt>
<trkpt lat="45.8647770" lon="10.3073910">
	<ele>1814.80</ele>
	<time>2025-07-29T09:52:55.000Z</time>
</trkpt>
<trkpt lat="45.8647900" lon="10.3073830">
	<ele>1814.60</ele>
	<time>2025-07-29T09:52:56.000Z</time>
</trkpt>
<trkpt lat="45.8648000" lon="10.3073750">
	<ele>1814.20</ele>
	<time>2025-07-29T09:52:57.000Z</time>
</trkpt>
<trkpt lat="45.8648030" lon="10.3073660">
	<ele>1814.20</ele>
	<time>2025-07-29T09:52:58.000Z</time>
</trkpt>
<trkpt lat="45.8648090" lon="10.3073540">
	<ele>1814.00</ele>
	<time>2025-07-29T09:52:59.000Z</time>
</trkpt>
<trkpt lat="45.8648150" lon="10.3073400">
	<ele>1813.80</ele>
	<time>2025-07-29T09:53:00.000Z</time>
</trkpt>
<trkpt lat="45.8648220" lon="10.3073270">
	<ele>1813.40</ele>
	<time>2025-07-29T09:53:01.000Z</time>
</trkpt>
<trkpt lat="45.8648300" lon="10.3073170">
	<ele>1813.20</ele>
	<time>2025-07-29T09:53:02.000Z</time>
</trkpt>
<trkpt lat="45.8648400" lon="10.3073090">
	<ele>1813.00</ele>
	<time>2025-07-29T09:53:03.000Z</time>
</trkpt>
<trkpt lat="45.8648530" lon="10.3073070">
	<ele>1812.80</ele>
	<time>2025-07-29T09:53:04.000Z</time>
</trkpt>
<trkpt lat="45.8648660" lon="10.3073080">
	<ele>1812.60</ele>
	<time>2025-07-29T09:53:05.000Z</time>
</trkpt>
<trkpt lat="45.8648800" lon="10.3073110">
	<ele>1812.40</ele>
	<time>2025-07-29T09:53:06.000Z</time>
</trkpt>
<trkpt lat="45.8648910" lon="10.3073160">
	<ele>1812.20</ele>
	<time>2025-07-29T09:53:07.000Z</time>
</trkpt>
<trkpt lat="45.8649030" lon="10.3073190">
	<ele>1812.00</ele>
	<time>2025-07-29T09:53:08.000Z</time>
</trkpt>
<trkpt lat="45.8649150" lon="10.3073210">
	<ele>1811.80</ele>
	<time>2025-07-29T09:53:09.000Z</time>
</trkpt>
<trkpt lat="45.8649270" lon="10.3073200">
	<ele>1811.60</ele>
	<time>2025-07-29T09:53:10.000Z</time>
</trkpt>
<trkpt lat="45.8649380" lon="10.3073250">
	<ele>1811.40</ele>
	<time>2025-07-29T09:53:11.000Z</time>
</trkpt>
<trkpt lat="45.8649500" lon="10.3073250">
	<ele>1811.20</ele>
	<time>2025-07-29T09:53:12.000Z</time>
</trkpt>
<trkpt lat="45.8649620" lon="10.3073260">
	<ele>1810.80</ele>
	<time>2025-07-29T09:53:13.000Z</time>
</trkpt>
<trkpt lat="45.8649720" lon="10.3073250">
	<ele>1810.60</ele>
	<time>2025-07-29T09:53:14.000Z</time>
</trkpt>
<trkpt lat="45.8649830" lon="10.3073260">
	<ele>1810.40</ele>
	<time>2025-07-29T09:53:15.000Z</time>
</trkpt>
<trkpt lat="45.8649940" lon="10.3073330">
	<ele>1810.20</ele>
	<time>2025-07-29T09:53:16.000Z</time>
</trkpt>
<trkpt lat="45.8650030" lon="10.3073340">
	<ele>1810.00</ele>
	<time>2025-07-29T09:53:17.000Z</time>
</trkpt>
<trkpt lat="45.8650070" lon="10.3073320">
	<ele>1809.80</ele>
	<time>2025-07-29T09:53:18.000Z</time>
</trkpt>
<trkpt lat="45.8650170" lon="10.3073280">
	<ele>1809.80</ele>
	<time>2025-07-29T09:53:19.000Z</time>
</trkpt>
<trkpt lat="45.8650260" lon="10.3073270">
	<ele>1809.60</ele>
	<time>2025-07-29T09:53:20.000Z</time>
</trkpt>
<trkpt lat="45.8650380" lon="10.3073240">
	<ele>1809.20</ele>
	<time>2025-07-29T09:53:21.000Z</time>
</trkpt>
<trkpt lat="45.8650490" lon="10.3073170">
	<ele>1809.00</ele>
	<time>2025-07-29T09:53:22.000Z</time>
</trkpt>
<trkpt lat="45.8650600" lon="10.3073080">
	<ele>1808.80</ele>
	<time>2025-07-29T09:53:23.000Z</time>
</trkpt>
<trkpt lat="45.8650690" lon="10.3073060">
	<ele>1808.60</ele>
	<time>2025-07-29T09:53:24.000Z</time>
</trkpt>
<trkpt lat="45.8650770" lon="10.3073080">
	<ele>1808.20</ele>
	<time>2025-07-29T09:53:25.000Z</time>
</trkpt>
<trkpt lat="45.8650840" lon="10.3073100">
	<ele>1807.80</ele>
	<time>2025-07-29T09:53:26.000Z</time>
</trkpt>
<trkpt lat="45.8650910" lon="10.3073120">
	<ele>1807.60</ele>
	<time>2025-07-29T09:53:27.000Z</time>
</trkpt>
<trkpt lat="45.8650990" lon="10.3073140">
	<ele>1807.60</ele>
	<time>2025-07-29T09:53:28.000Z</time>
</trkpt>
<trkpt lat="45.8651090" lon="10.3073170">
	<ele>1807.40</ele>
	<time>2025-07-29T09:53:29.000Z</time>
</trkpt>
<trkpt lat="45.8651200" lon="10.3073180">
	<ele>1807.20</ele>
	<time>2025-07-29T09:53:30.000Z</time>
</trkpt>
<trkpt lat="45.8651300" lon="10.3073160">
	<ele>1807.00</ele>
	<time>2025-07-29T09:53:31.000Z</time>
</trkpt>
<trkpt lat="45.8651410" lon="10.3073080">
	<ele>1806.80</ele>
	<time>2025-07-29T09:53:32.000Z</time>
</trkpt>
<trkpt lat="45.8651510" lon="10.3073010">
	<ele>1806.60</ele>
	<time>2025-07-29T09:53:33.000Z</time>
</trkpt>
<trkpt lat="45.8651600" lon="10.3072900">
	<ele>1806.20</ele>
	<time>2025-07-29T09:53:34.000Z</time>
</trkpt>
<trkpt lat="45.8651680" lon="10.3072810">
	<ele>1806.00</ele>
	<time>2025-07-29T09:53:35.000Z</time>
</trkpt>
<trkpt lat="45.8651760" lon="10.3072690">
	<ele>1805.80</ele>
	<time>2025-07-29T09:53:36.000Z</time>
</trkpt>
<trkpt lat="45.8651820" lon="10.3072590">
	<ele>1805.80</ele>
	<time>2025-07-29T09:53:37.000Z</time>
</trkpt>
<trkpt lat="45.8651860" lon="10.3072460">
	<ele>1805.40</ele>
	<time>2025-07-29T09:53:38.000Z</time>
</trkpt>
<trkpt lat="45.8651940" lon="10.3072310">
	<ele>1805.20</ele>
	<time>2025-07-29T09:53:39.000Z</time>
</trkpt>
<trkpt lat="45.8652020" lon="10.3072180">
	<ele>1805.00</ele>
	<time>2025-07-29T09:53:40.000Z</time>
</trkpt>
<trkpt lat="45.8652120" lon="10.3072060">
	<ele>1804.80</ele>
	<time>2025-07-29T09:53:41.000Z</time>
</trkpt>
<trkpt lat="45.8652210" lon="10.3071970">
	<ele>1804.60</ele>
	<time>2025-07-29T09:53:42.000Z</time>
</trkpt>
<trkpt lat="45.8652260" lon="10.3071870">
	<ele>1804.40</ele>
	<time>2025-07-29T09:53:43.000Z</time>
</trkpt>
<trkpt lat="45.8652290" lon="10.3071770">
	<ele>1804.00</ele>
	<time>2025-07-29T09:53:44.000Z</time>
</trkpt>
<trkpt lat="45.8652350" lon="10.3071660">
	<ele>1803.80</ele>
	<time>2025-07-29T09:53:45.000Z</time>
</trkpt>
<trkpt lat="45.8652410" lon="10.3071510">
	<ele>1803.40</ele>
	<time>2025-07-29T09:53:46.000Z</time>
</trkpt>
<trkpt lat="45.8652480" lon="10.3071370">
	<ele>1803.40</ele>
	<time>2025-07-29T09:53:47.000Z</time>
</trkpt>
<trkpt lat="45.8652540" lon="10.3071260">
	<ele>1803.20</ele>
	<time>2025-07-29T09:53:48.000Z</time>
</trkpt>
<trkpt lat="45.8652590" lon="10.3071140">
	<ele>1803.00</ele>
	<time>2025-07-29T09:53:49.000Z</time>
</trkpt>
<trkpt lat="45.8652690" lon="10.3071060">
	<ele>1802.80</ele>
	<time>2025-07-29T09:53:50.000Z</time>
</trkpt>
<trkpt lat="45.8652730" lon="10.3071000">
	<ele>1802.60</ele>
	<time>2025-07-29T09:53:51.000Z</time>
</trkpt>
<trkpt lat="45.8652780" lon="10.3070870">
	<ele>1802.40</ele>
	<time>2025-07-29T09:53:52.000Z</time>
</trkpt>
<trkpt lat="45.8652820" lon="10.3070770">
	<ele>1802.20</ele>
	<time>2025-07-29T09:53:53.000Z</time>
</trkpt>
<trkpt lat="45.8652820" lon="10.3070700">
	<ele>1802.00</ele>
	<time>2025-07-29T09:53:54.000Z</time>
</trkpt>
<trkpt lat="45.8652890" lon="10.3070620">
	<ele>1801.60</ele>
	<time>2025-07-29T09:53:55.000Z</time>
</trkpt>
<trkpt lat="45.8653000" lon="10.3070730">
	<ele>1801.20</ele>
	<time>2025-07-29T09:53:56.000Z</time>
</trkpt>
<trkpt lat="45.8653130" lon="10.3070770">
	<ele>1801.00</ele>
	<time>2025-07-29T09:53:57.000Z</time>
</trkpt>
<trkpt lat="45.8653230" lon="10.3070840">
	<ele>1801.00</ele>
	<time>2025-07-29T09:53:58.000Z</time>
</trkpt>
<trkpt lat="45.8653350" lon="10.3070880">
	<ele>1800.60</ele>
	<time>2025-07-29T09:53:59.000Z</time>
</trkpt>
<trkpt lat="45.8653480" lon="10.3070970">
	<ele>1800.40</ele>
	<time>2025-07-29T09:54:00.000Z</time>
</trkpt>
<trkpt lat="45.8653600" lon="10.3070980">
	<ele>1800.20</ele>
	<time>2025-07-29T09:54:01.000Z</time>
</trkpt>
<trkpt lat="45.8653680" lon="10.3071000">
	<ele>1800.00</ele>
	<time>2025-07-29T09:54:02.000Z</time>
</trkpt>
<trkpt lat="45.8653740" lon="10.3071050">
	<ele>1799.80</ele>
	<time>2025-07-29T09:54:03.000Z</time>
</trkpt>
<trkpt lat="45.8653830" lon="10.3071040">
	<ele>1799.60</ele>
	<time>2025-07-29T09:54:04.000Z</time>
</trkpt>
<trkpt lat="45.8653940" lon="10.3071020">
	<ele>1799.40</ele>
	<time>2025-07-29T09:54:05.000Z</time>
</trkpt>
<trkpt lat="45.8654040" lon="10.3071040">
	<ele>1799.20</ele>
	<time>2025-07-29T09:54:06.000Z</time>
</trkpt>
<trkpt lat="45.8654110" lon="10.3071040">
	<ele>1799.00</ele>
	<time>2025-07-29T09:54:07.000Z</time>
</trkpt>
<trkpt lat="45.8654220" lon="10.3071030">
	<ele>1798.60</ele>
	<time>2025-07-29T09:54:08.000Z</time>
</trkpt>
<trkpt lat="45.8654320" lon="10.3071040">
	<ele>1798.40</ele>
	<time>2025-07-29T09:54:09.000Z</time>
</trkpt>
<trkpt lat="45.8654440" lon="10.3071050">
	<ele>1798.20</ele>
	<time>2025-07-29T09:54:10.000Z</time>
</trkpt>
<trkpt lat="45.8654540" lon="10.3071070">
	<ele>1798.00</ele>
	<time>2025-07-29T09:54:11.000Z</time>
</trkpt>
<trkpt lat="45.8654600" lon="10.3071080">
	<ele>1797.80</ele>
	<time>2025-07-29T09:54:12.000Z</time>
</trkpt>
<trkpt lat="45.8654680" lon="10.3071050">
	<ele>1797.60</ele>
	<time>2025-07-29T09:54:13.000Z</time>
</trkpt>
<trkpt lat="45.8654750" lon="10.3071140">
	<ele>1797.20</ele>
	<time>2025-07-29T09:54:14.000Z</time>
</trkpt>
<trkpt lat="45.8654820" lon="10.3071220">
	<ele>1797.00</ele>
	<time>2025-07-29T09:54:15.000Z</time>
</trkpt>
<trkpt lat="45.8654900" lon="10.3071270">
	<ele>1796.60</ele>
	<time>2025-07-29T09:54:16.000Z</time>
</trkpt>
<trkpt lat="45.8654950" lon="10.3071370">
	<ele>1796.40</ele>
	<time>2025-07-29T09:54:17.000Z</time>
</trkpt>
<trkpt lat="45.8655020" lon="10.3071470">
	<ele>1796.20</ele>
	<time>2025-07-29T09:54:18.000Z</time>
</trkpt>
<trkpt lat="45.8655080" lon="10.3071550">
	<ele>1796.00</ele>
	<time>2025-07-29T09:54:19.000Z</time>
</trkpt>
<trkpt lat="45.8655140" lon="10.3071600">
	<ele>1796.00</ele>
	<time>2025-07-29T09:54:20.000Z</time>
</trkpt>
<trkpt lat="45.8655170" lon="10.3071640">
	<ele>1796.00</ele>
	<time>2025-07-29T09:54:21.000Z</time>
</trkpt>
<trkpt lat="45.8655250" lon="10.3071610">
	<ele>1795.80</ele>
	<time>2025-07-29T09:54:22.000Z</time>
</trkpt>
<trkpt lat="45.8655320" lon="10.3071640">
	<ele>1795.80</ele>
	<time>2025-07-29T09:54:23.000Z</time>
</trkpt>
<trkpt lat="45.8655370" lon="10.3071650">
	<ele>1795.60</ele>
	<time>2025-07-29T09:54:24.000Z</time>
</trkpt>
<trkpt lat="45.8655400" lon="10.3071720">
	<ele>1795.40</ele>
	<time>2025-07-29T09:54:25.000Z</time>
</trkpt>
<trkpt lat="45.8655430" lon="10.3071750">
	<ele>1795.40</ele>
	<time>2025-07-29T09:54:26.000Z</time>
</trkpt>
<trkpt lat="45.8655510" lon="10.3071810">
	<ele>1795.20</ele>
	<time>2025-07-29T09:54:27.000Z</time>
</trkpt>
<trkpt lat="45.8655540" lon="10.3071890">
	<ele>1795.20</ele>
	<time>2025-07-29T09:54:28.000Z</time>
</trkpt>
<trkpt lat="45.8655580" lon="10.3071930">
	<ele>1795.20</ele>
	<time>2025-07-29T09:54:29.000Z</time>
</trkpt>
<trkpt lat="45.8655600" lon="10.3071920">
	<ele>1795.20</ele>
	<time>2025-07-29T09:54:30.000Z</time>
</trkpt>
<trkpt lat="45.8655630" lon="10.3071910">
	<ele>1795.00</ele>
	<time>2025-07-29T09:54:31.000Z</time>
</trkpt>
<trkpt lat="45.8655640" lon="10.3071890">
	<ele>1795.00</ele>
	<time>2025-07-29T09:54:32.000Z</time>
</trkpt>
<trkpt lat="45.8655670" lon="10.3071900">
	<ele>1795.00</ele>
	<time>2025-07-29T09:54:33.000Z</time>
</trkpt>
<trkpt lat="45.8655690" lon="10.3071930">
	<ele>1794.80</ele>
	<time>2025-07-29T09:54:34.000Z</time>
</trkpt>
<trkpt lat="45.8655730" lon="10.3071930">
	<ele>1794.80</ele>
	<time>2025-07-29T09:54:35.000Z</time>
</trkpt>
<trkpt lat="45.8655750" lon="10.3071930">
	<ele>1794.80</ele>
	<time>2025-07-29T09:54:36.000Z</time>
</trkpt>
<trkpt lat="45.8655820" lon="10.3071980">
	<ele>1794.80</ele>
	<time>2025-07-29T09:54:37.000Z</time>
</trkpt>
<trkpt lat="45.8655920" lon="10.3072000">
	<ele>1794.80</ele>
	<time>2025-07-29T09:54:38.000Z</time>
</trkpt>
<trkpt lat="45.8656010" lon="10.3071990">
	<ele>1794.80</ele>
	<time>2025-07-29T09:54:39.000Z</time>
</trkpt>
<trkpt lat="45.8656080" lon="10.3071970">
	<ele>1794.80</ele>
	<time>2025-07-29T09:54:40.000Z</time>
</trkpt>
<trkpt lat="45.8656170" lon="10.3071910">
	<ele>1794.80</ele>
	<time>2025-07-29T09:54:41.000Z</time>
</trkpt>
<trkpt lat="45.8656290" lon="10.3071850">
	<ele>1794.80</ele>
	<time>2025-07-29T09:54:42.000Z</time>
</trkpt>
<trkpt lat="45.8656420" lon="10.3071860">
	<ele>1794.80</ele>
	<time>2025-07-29T09:54:43.000Z</time>
</trkpt>
<trkpt lat="45.8656510" lon="10.3071850">
	<ele>1794.80</ele>
	<time>2025-07-29T09:54:44.000Z</time>
</trkpt>
<trkpt lat="45.8656620" lon="10.3071810">
	<ele>1794.80</ele>
	<time>2025-07-29T09:54:45.000Z</time>
</trkpt>
<trkpt lat="45.8656730" lon="10.3071730">
	<ele>1794.80</ele>
	<time>2025-07-29T09:54:46.000Z</time>
</trkpt>
<trkpt lat="45.8656860" lon="10.3071720">
	<ele>1794.80</ele>
	<time>2025-07-29T09:54:47.000Z</time>
</trkpt>
<trkpt lat="45.8656990" lon="10.3071710">
	<ele>1794.80</ele>
	<time>2025-07-29T09:54:48.000Z</time>
</trkpt>
<trkpt lat="45.8657110" lon="10.3071720">
	<ele>1794.60</ele>
	<time>2025-07-29T09:54:49.000Z</time>
</trkpt>
<trkpt lat="45.8657220" lon="10.3071740">
	<ele>1794.60</ele>
	<time>2025-07-29T09:54:50.000Z</time>
</trkpt>
<trkpt lat="45.8657320" lon="10.3071780">
	<ele>1794.40</ele>
	<time>2025-07-29T09:54:51.000Z</time>
</trkpt>
<trkpt lat="45.8657370" lon="10.3071780">
	<ele>1794.20</ele>
	<time>2025-07-29T09:54:52.000Z</time>
</trkpt>
<trkpt lat="45.8657500" lon="10.3071770">
	<ele>1794.20</ele>
	<time>2025-07-29T09:54:53.000Z</time>
</trkpt>
<trkpt lat="45.8657600" lon="10.3071770">
	<ele>1794.00</ele>
	<time>2025-07-29T09:54:54.000Z</time>
</trkpt>
<trkpt lat="45.8657710" lon="10.3071740">
	<ele>1793.80</ele>
	<time>2025-07-29T09:54:55.000Z</time>
</trkpt>
<trkpt lat="45.8657810" lon="10.3071590">
	<ele>1793.80</ele>
	<time>2025-07-29T09:54:56.000Z</time>
</trkpt>
<trkpt lat="45.8657900" lon="10.3071700">
	<ele>1793.60</ele>
	<time>2025-07-29T09:54:57.000Z</time>
</trkpt>
<trkpt lat="45.8657950" lon="10.3071830">
	<ele>1793.40</ele>
	<time>2025-07-29T09:54:58.000Z</time>
</trkpt>
<trkpt lat="45.8658110" lon="10.3071810">
	<ele>1793.40</ele>
	<time>2025-07-29T09:54:59.000Z</time>
</trkpt>
<trkpt lat="45.8658260" lon="10.3071760">
	<ele>1793.20</ele>
	<time>2025-07-29T09:55:00.000Z</time>
</trkpt>
<trkpt lat="45.8658380" lon="10.3071680">
	<ele>1793.00</ele>
	<time>2025-07-29T09:55:01.000Z</time>
</trkpt>
<trkpt lat="45.8658460" lon="10.3071560">
	<ele>1793.00</ele>
	<time>2025-07-29T09:55:02.000Z</time>
</trkpt>
<trkpt lat="45.8658560" lon="10.3071490">
	<ele>1792.60</ele>
	<time>2025-07-29T09:55:03.000Z</time>
</trkpt>
<trkpt lat="45.8658680" lon="10.3071420">
	<ele>1792.60</ele>
	<time>2025-07-29T09:55:04.000Z</time>
</trkpt>
<trkpt lat="45.8658790" lon="10.3071370">
	<ele>1792.40</ele>
	<time>2025-07-29T09:55:05.000Z</time>
</trkpt>
<trkpt lat="45.8658920" lon="10.3071350">
	<ele>1792.40</ele>
	<time>2025-07-29T09:55:06.000Z</time>
</trkpt>
<trkpt lat="45.8659010" lon="10.3071320">
	<ele>1792.20</ele>
	<time>2025-07-29T09:55:07.000Z</time>
</trkpt>
<trkpt lat="45.8659100" lon="10.3071310">
	<ele>1791.80</ele>
	<time>2025-07-29T09:55:08.000Z</time>
</trkpt>
<trkpt lat="45.8659170" lon="10.3071250">
	<ele>1791.60</ele>
	<time>2025-07-29T09:55:09.000Z</time>
</trkpt>
<trkpt lat="45.8659270" lon="10.3071170">
	<ele>1791.40</ele>
	<time>2025-07-29T09:55:10.000Z</time>
</trkpt>
<trkpt lat="45.8659380" lon="10.3071150">
	<ele>1791.20</ele>
	<time>2025-07-29T09:55:11.000Z</time>
</trkpt>
<trkpt lat="45.8659480" lon="10.3071140">
	<ele>1791.00</ele>
	<time>2025-07-29T09:55:12.000Z</time>
</trkpt>
<trkpt lat="45.8659580" lon="10.3071210">
	<ele>1791.00</ele>
	<time>2025-07-29T09:55:13.000Z</time>
</trkpt>
<trkpt lat="45.8659700" lon="10.3071290">
	<ele>1790.80</ele>
	<time>2025-07-29T09:55:14.000Z</time>
</trkpt>
<trkpt lat="45.8659800" lon="10.3071250">
	<ele>1790.80</ele>
	<time>2025-07-29T09:55:15.000Z</time>
</trkpt>
<trkpt lat="45.8659920" lon="10.3071140">
	<ele>1790.60</ele>
	<time>2025-07-29T09:55:16.000Z</time>
</trkpt>
<trkpt lat="45.8659940" lon="10.3070990">
	<ele>1790.60</ele>
	<time>2025-07-29T09:55:17.000Z</time>
</trkpt>
<trkpt lat="45.8660010" lon="10.3070920">
	<ele>1790.20</ele>
	<time>2025-07-29T09:55:18.000Z</time>
</trkpt>
<trkpt lat="45.8660090" lon="10.3070940">
	<ele>1789.80</ele>
	<time>2025-07-29T09:55:19.000Z</time>
</trkpt>
<trkpt lat="45.8660140" lon="10.3070950">
	<ele>1789.60</ele>
	<time>2025-07-29T09:55:20.000Z</time>
</trkpt>
<trkpt lat="45.8660230" lon="10.3070920">
	<ele>1789.60</ele>
	<time>2025-07-29T09:55:21.000Z</time>
</trkpt>
<trkpt lat="45.8660340" lon="10.3070870">
	<ele>1789.40</ele>
	<time>2025-07-29T09:55:22.000Z</time>
</trkpt>
<trkpt lat="45.8660470" lon="10.3070840">
	<ele>1789.20</ele>
	<time>2025-07-29T09:55:23.000Z</time>
</trkpt>
<trkpt lat="45.8660560" lon="10.3070890">
	<ele>1789.20</ele>
	<time>2025-07-29T09:55:24.000Z</time>
</trkpt>
<trkpt lat="45.8660660" lon="10.3070920">
	<ele>1789.00</ele>
	<time>2025-07-29T09:55:25.000Z</time>
</trkpt>
<trkpt lat="45.8660750" lon="10.3070940">
	<ele>1788.60</ele>
	<time>2025-07-29T09:55:26.000Z</time>
</trkpt>
<trkpt lat="45.8660830" lon="10.3070980">
	<ele>1788.40</ele>
	<time>2025-07-29T09:55:27.000Z</time>
</trkpt>
<trkpt lat="45.8660910" lon="10.3071070">
	<ele>1788.20</ele>
	<time>2025-07-29T09:55:28.000Z</time>
</trkpt>
<trkpt lat="45.8660990" lon="10.3071140">
	<ele>1788.20</ele>
	<time>2025-07-29T09:55:29.000Z</time>
</trkpt>
<trkpt lat="45.8661040" lon="10.3071230">
	<ele>1787.80</ele>
	<time>2025-07-29T09:55:30.000Z</time>
</trkpt>
<trkpt lat="45.8661070" lon="10.3071310">
	<ele>1787.80</ele>
	<time>2025-07-29T09:55:31.000Z</time>
</trkpt>
<trkpt lat="45.8661120" lon="10.3071360">
	<ele>1787.60</ele>
	<time>2025-07-29T09:55:32.000Z</time>
</trkpt>
<trkpt lat="45.8661200" lon="10.3071390">
	<ele>1787.60</ele>
	<time>2025-07-29T09:55:33.000Z</time>
</trkpt>
<trkpt lat="45.8661290" lon="10.3071440">
	<ele>1787.40</ele>
	<time>2025-07-29T09:55:34.000Z</time>
</trkpt>
<trkpt lat="45.8661350" lon="10.3071460">
	<ele>1787.00</ele>
	<time>2025-07-29T09:55:35.000Z</time>
</trkpt>
<trkpt lat="45.8661420" lon="10.3071470">
	<ele>1786.60</ele>
	<time>2025-07-29T09:55:36.000Z</time>
</trkpt>
<trkpt lat="45.8661490" lon="10.3071510">
	<ele>1786.40</ele>
	<time>2025-07-29T09:55:37.000Z</time>
</trkpt>
<trkpt lat="45.8661560" lon="10.3071550">
	<ele>1786.40</ele>
	<time>2025-07-29T09:55:38.000Z</time>
</trkpt>
<trkpt lat="45.8661620" lon="10.3071620">
	<ele>1786.20</ele>
	<time>2025-07-29T09:55:39.000Z</time>
</trkpt>
<trkpt lat="45.8661700" lon="10.3071650">
	<ele>1786.00</ele>
	<time>2025-07-29T09:55:40.000Z</time>
</trkpt>
<trkpt lat="45.8661760" lon="10.3071700">
	<ele>1785.80</ele>
	<time>2025-07-29T09:55:41.000Z</time>
</trkpt>
<trkpt lat="45.8661840" lon="10.3071700">
	<ele>1785.60</ele>
	<time>2025-07-29T09:55:42.000Z</time>
</trkpt>
<trkpt lat="45.8661910" lon="10.3071680">
	<ele>1785.40</ele>
	<time>2025-07-29T09:55:43.000Z</time>
</trkpt>
<trkpt lat="45.8661980" lon="10.3071680">
	<ele>1785.40</ele>
	<time>2025-07-29T09:55:44.000Z</time>
</trkpt>
<trkpt lat="45.8662060" lon="10.3071690">
	<ele>1785.20</ele>
	<time>2025-07-29T09:55:45.000Z</time>
</trkpt>
<trkpt lat="45.8662120" lon="10.3071740">
	<ele>1784.80</ele>
	<time>2025-07-29T09:55:46.000Z</time>
</trkpt>
<trkpt lat="45.8662170" lon="10.3071810">
	<ele>1784.60</ele>
	<time>2025-07-29T09:55:47.000Z</time>
</trkpt>
<trkpt lat="45.8662260" lon="10.3071770">
	<ele>1784.40</ele>
	<time>2025-07-29T09:55:48.000Z</time>
</trkpt>
<trkpt lat="45.8662380" lon="10.3071760">
	<ele>1784.20</ele>
	<time>2025-07-29T09:55:49.000Z</time>
</trkpt>
<trkpt lat="45.8662500" lon="10.3071770">
	<ele>1784.00</ele>
	<time>2025-07-29T09:55:50.000Z</time>
</trkpt>
<trkpt lat="45.8662570" lon="10.3071810">
	<ele>1783.80</ele>
	<time>2025-07-29T09:55:51.000Z</time>
</trkpt>
<trkpt lat="45.8662640" lon="10.3071900">
	<ele>1783.80</ele>
	<time>2025-07-29T09:55:52.000Z</time>
</trkpt>
<trkpt lat="45.8662730" lon="10.3071960">
	<ele>1783.60</ele>
	<time>2025-07-29T09:55:53.000Z</time>
</trkpt>
<trkpt lat="45.8662820" lon="10.3072020">
	<ele>1783.40</ele>
	<time>2025-07-29T09:55:54.000Z</time>
</trkpt>
<trkpt lat="45.8662900" lon="10.3072070">
	<ele>1783.20</ele>
	<time>2025-07-29T09:55:55.000Z</time>
</trkpt>
<trkpt lat="45.8662990" lon="10.3072120">
	<ele>1783.00</ele>
	<time>2025-07-29T09:55:56.000Z</time>
</trkpt>
<trkpt lat="45.8663070" lon="10.3072140">
	<ele>1782.60</ele>
	<time>2025-07-29T09:55:57.000Z</time>
</trkpt>
<trkpt lat="45.8663160" lon="10.3072180">
	<ele>1782.40</ele>
	<time>2025-07-29T09:55:58.000Z</time>
</trkpt>
<trkpt lat="45.8663230" lon="10.3072260">
	<ele>1782.20</ele>
	<time>2025-07-29T09:55:59.000Z</time>
</trkpt>
<trkpt lat="45.8663310" lon="10.3072350">
	<ele>1782.00</ele>
	<time>2025-07-29T09:56:00.000Z</time>
</trkpt>
<trkpt lat="45.8663430" lon="10.3072470">
	<ele>1781.60</ele>
	<time>2025-07-29T09:56:01.000Z</time>
</trkpt>
<trkpt lat="45.8663530" lon="10.3072580">
	<ele>1781.20</ele>
	<time>2025-07-29T09:56:02.000Z</time>
</trkpt>
<trkpt lat="45.8663630" lon="10.3072640">
	<ele>1781.00</ele>
	<time>2025-07-29T09:56:03.000Z</time>
</trkpt>
<trkpt lat="45.8663690" lon="10.3072660">
	<ele>1780.80</ele>
	<time>2025-07-29T09:56:04.000Z</time>
</trkpt>
<trkpt lat="45.8663760" lon="10.3072720">
	<ele>1780.60</ele>
	<time>2025-07-29T09:56:05.000Z</time>
</trkpt>
<trkpt lat="45.8663820" lon="10.3072840">
	<ele>1780.60</ele>
	<time>2025-07-29T09:56:06.000Z</time>
</trkpt>
<trkpt lat="45.8663890" lon="10.3072960">
	<ele>1780.40</ele>
	<time>2025-07-29T09:56:07.000Z</time>
</trkpt>
<trkpt lat="45.8663960" lon="10.3073040">
	<ele>1780.20</ele>
	<time>2025-07-29T09:56:08.000Z</time>
</trkpt>
<trkpt lat="45.8664020" lon="10.3073150">
	<ele>1780.00</ele>
	<time>2025-07-29T09:56:09.000Z</time>
</trkpt>
<trkpt lat="45.8664020" lon="10.3073170">
	<ele>1779.80</ele>
	<time>2025-07-29T09:56:10.000Z</time>
</trkpt>
<trkpt lat="45.8664090" lon="10.3073200">
	<ele>1779.80</ele>
	<time>2025-07-29T09:56:11.000Z</time>
</trkpt>
<trkpt lat="45.8664120" lon="10.3073230">
	<ele>1779.60</ele>
	<time>2025-07-29T09:56:12.000Z</time>
</trkpt>
<trkpt lat="45.8664190" lon="10.3073260">
	<ele>1779.40</ele>
	<time>2025-07-29T09:56:13.000Z</time>
</trkpt>
<trkpt lat="45.8664290" lon="10.3073260">
	<ele>1779.20</ele>
	<time>2025-07-29T09:56:14.000Z</time>
</trkpt>
<trkpt lat="45.8664340" lon="10.3073290">
	<ele>1779.20</ele>
	<time>2025-07-29T09:56:15.000Z</time>
</trkpt>
<trkpt lat="45.8664360" lon="10.3073330">
	<ele>1779.00</ele>
	<time>2025-07-29T09:56:16.000Z</time>
</trkpt>
<trkpt lat="45.8664400" lon="10.3073340">
	<ele>1778.80</ele>
	<time>2025-07-29T09:56:17.000Z</time>
</trkpt>
<trkpt lat="45.8664460" lon="10.3073310">
	<ele>1778.60</ele>
	<time>2025-07-29T09:56:18.000Z</time>
</trkpt>
<trkpt lat="45.8664520" lon="10.3073300">
	<ele>1778.00</ele>
	<time>2025-07-29T09:56:19.000Z</time>
</trkpt>
<trkpt lat="45.8664580" lon="10.3073300">
	<ele>1777.80</ele>
	<time>2025-07-29T09:56:20.000Z</time>
</trkpt>
<trkpt lat="45.8664630" lon="10.3073320">
	<ele>1777.40</ele>
	<time>2025-07-29T09:56:21.000Z</time>
</trkpt>
<trkpt lat="45.8664710" lon="10.3073380">
	<ele>1777.20</ele>
	<time>2025-07-29T09:56:22.000Z</time>
</trkpt>
<trkpt lat="45.8664820" lon="10.3073430">
	<ele>1776.80</ele>
	<time>2025-07-29T09:56:23.000Z</time>
</trkpt>
<trkpt lat="45.8664920" lon="10.3073490">
	<ele>1776.60</ele>
	<time>2025-07-29T09:56:24.000Z</time>
</trkpt>
<trkpt lat="45.8664990" lon="10.3073510">
	<ele>1776.40</ele>
	<time>2025-07-29T09:56:25.000Z</time>
</trkpt>
<trkpt lat="45.8665070" lon="10.3073510">
	<ele>1776.20</ele>
	<time>2025-07-29T09:56:26.000Z</time>
</trkpt>
<trkpt lat="45.8665120" lon="10.3073480">
	<ele>1775.80</ele>
	<time>2025-07-29T09:56:27.000Z</time>
</trkpt>
<trkpt lat="45.8665250" lon="10.3073470">
	<ele>1775.40</ele>
	<time>2025-07-29T09:56:28.000Z</time>
</trkpt>
<trkpt lat="45.8665290" lon="10.3073550">
	<ele>1775.20</ele>
	<time>2025-07-29T09:56:29.000Z</time>
</trkpt>
<trkpt lat="45.8665340" lon="10.3073620">
	<ele>1775.20</ele>
	<time>2025-07-29T09:56:30.000Z</time>
</trkpt>
<trkpt lat="45.8665380" lon="10.3073680">
	<ele>1775.00</ele>
	<time>2025-07-29T09:56:31.000Z</time>
</trkpt>
<trkpt lat="45.8665480" lon="10.3073720">
	<ele>1775.00</ele>
	<time>2025-07-29T09:56:32.000Z</time>
</trkpt>
<trkpt lat="45.8665550" lon="10.3073700">
	<ele>1774.80</ele>
	<time>2025-07-29T09:56:33.000Z</time>
</trkpt>
<trkpt lat="45.8665600" lon="10.3073740">
	<ele>1774.40</ele>
	<time>2025-07-29T09:56:34.000Z</time>
</trkpt>
<trkpt lat="45.8665630" lon="10.3073700">
	<ele>1774.20</ele>
	<time>2025-07-29T09:56:35.000Z</time>
</trkpt>
<trkpt lat="45.8665700" lon="10.3073720">
	<ele>1774.00</ele>
	<time>2025-07-29T09:56:36.000Z</time>
</trkpt>
<trkpt lat="45.8665780" lon="10.3073720">
	<ele>1773.80</ele>
	<time>2025-07-29T09:56:37.000Z</time>
</trkpt>
<trkpt lat="45.8665880" lon="10.3073730">
	<ele>1773.60</ele>
	<time>2025-07-29T09:56:38.000Z</time>
</trkpt>
<trkpt lat="45.8665970" lon="10.3073690">
	<ele>1773.40</ele>
	<time>2025-07-29T09:56:39.000Z</time>
</trkpt>
<trkpt lat="45.8666060" lon="10.3073650">
	<ele>1773.40</ele>
	<time>2025-07-29T09:56:40.000Z</time>
</trkpt>
<trkpt lat="45.8666160" lon="10.3073670">
	<ele>1773.20</ele>
	<time>2025-07-29T09:56:41.000Z</time>
</trkpt>
<trkpt lat="45.8666280" lon="10.3073720">
	<ele>1773.20</ele>
	<time>2025-07-29T09:56:42.000Z</time>
</trkpt>
<trkpt lat="45.8666360" lon="10.3073800">
	<ele>1773.00</ele>
	<time>2025-07-29T09:56:43.000Z</time>
</trkpt>
<trkpt lat="45.8666460" lon="10.3073920">
	<ele>1772.80</ele>
	<time>2025-07-29T09:56:44.000Z</time>
</trkpt>
<trkpt lat="45.8666560" lon="10.3074010">
	<ele>1772.80</ele>
	<time>2025-07-29T09:56:45.000Z</time>
</trkpt>
<trkpt lat="45.8666650" lon="10.3074040">
	<ele>1772.60</ele>
	<time>2025-07-29T09:56:46.000Z</time>
</trkpt>
<trkpt lat="45.8666740" lon="10.3074100">
	<ele>1772.60</ele>
	<time>2025-07-29T09:56:47.000Z</time>
</trkpt>
<trkpt lat="45.8666800" lon="10.3074110">
	<ele>1772.40</ele>
	<time>2025-07-29T09:56:48.000Z</time>
</trkpt>
<trkpt lat="45.8666850" lon="10.3074120">
	<ele>1772.20</ele>
	<time>2025-07-29T09:56:49.000Z</time>
</trkpt>
<trkpt lat="45.8666930" lon="10.3074130">
	<ele>1772.00</ele>
	<time>2025-07-29T09:56:50.000Z</time>
</trkpt>
<trkpt lat="45.8667030" lon="10.3074210">
	<ele>1771.80</ele>
	<time>2025-07-29T09:56:51.000Z</time>
</trkpt>
<trkpt lat="45.8667110" lon="10.3074280">
	<ele>1771.60</ele>
	<time>2025-07-29T09:56:52.000Z</time>
</trkpt>
<trkpt lat="45.8667210" lon="10.3074340">
	<ele>1771.40</ele>
	<time>2025-07-29T09:56:53.000Z</time>
</trkpt>
<trkpt lat="45.8667270" lon="10.3074440">
	<ele>1771.20</ele>
	<time>2025-07-29T09:56:54.000Z</time>
</trkpt>
<trkpt lat="45.8667320" lon="10.3074460">
	<ele>1771.00</ele>
	<time>2025-07-29T09:56:55.000Z</time>
</trkpt>
<trkpt lat="45.8667390" lon="10.3074500">
	<ele>1770.80</ele>
	<time>2025-07-29T09:56:56.000Z</time>
</trkpt>
<trkpt lat="45.8667470" lon="10.3074530">
	<ele>1770.40</ele>
	<time>2025-07-29T09:56:57.000Z</time>
</trkpt>
<trkpt lat="45.8667560" lon="10.3074600">
	<ele>1770.40</ele>
	<time>2025-07-29T09:56:58.000Z</time>
</trkpt>
<trkpt lat="45.8667650" lon="10.3074660">
	<ele>1770.20</ele>
	<time>2025-07-29T09:56:59.000Z</time>
</trkpt>
<trkpt lat="45.8667740" lon="10.3074710">
	<ele>1770.00</ele>
	<time>2025-07-29T09:57:00.000Z</time>
</trkpt>
<trkpt lat="45.8667820" lon="10.3074780">
	<ele>1769.80</ele>
	<time>2025-07-29T09:57:01.000Z</time>
</trkpt>
<trkpt lat="45.8667930" lon="10.3074910">
	<ele>1769.60</ele>
	<time>2025-07-29T09:57:02.000Z</time>
</trkpt>
<trkpt lat="45.8668040" lon="10.3075020">
	<ele>1769.20</ele>
	<time>2025-07-29T09:57:03.000Z</time>
</trkpt>
<trkpt lat="45.8668150" lon="10.3075070">
	<ele>1768.80</ele>
	<time>2025-07-29T09:57:04.000Z</time>
</trkpt>
<trkpt lat="45.8668300" lon="10.3075070">
	<ele>1768.40</ele>
	<time>2025-07-29T09:57:05.000Z</time>
</trkpt>
<trkpt lat="45.8668420" lon="10.3075020">
	<ele>1768.20</ele>
	<time>2025-07-29T09:57:06.000Z</time>
</trkpt>
<trkpt lat="45.8668530" lon="10.3075060">
	<ele>1768.00</ele>
	<time>2025-07-29T09:57:07.000Z</time>
</trkpt>
<trkpt lat="45.8668650" lon="10.3075070">
	<ele>1767.80</ele>
	<time>2025-07-29T09:57:08.000Z</time>
</trkpt>
<trkpt lat="45.8668780" lon="10.3075120">
	<ele>1767.60</ele>
	<time>2025-07-29T09:57:09.000Z</time>
</trkpt>
<trkpt lat="45.8668910" lon="10.3075150">
	<ele>1767.40</ele>
	<time>2025-07-29T09:57:10.000Z</time>
</trkpt>
<trkpt lat="45.8669040" lon="10.3075150">
	<ele>1767.40</ele>
	<time>2025-07-29T09:57:11.000Z</time>
</trkpt>
<trkpt lat="45.8669190" lon="10.3075220">
	<ele>1767.20</ele>
	<time>2025-07-29T09:57:12.000Z</time>
</trkpt>
<trkpt lat="45.8669330" lon="10.3075110">
	<ele>1767.20</ele>
	<time>2025-07-29T09:57:13.000Z</time>
</trkpt>
<trkpt lat="45.8669400" lon="10.3075020">
	<ele>1767.00</ele>
	<time>2025-07-29T09:57:14.000Z</time>
</trkpt>
<trkpt lat="45.8669550" lon="10.3075050">
	<ele>1766.80</ele>
	<time>2025-07-29T09:57:15.000Z</time>
</trkpt>
<trkpt lat="45.8669660" lon="10.3075020">
	<ele>1766.80</ele>
	<time>2025-07-29T09:57:16.000Z</time>
</trkpt>
<trkpt lat="45.8669800" lon="10.3075050">
	<ele>1766.60</ele>
	<time>2025-07-29T09:57:17.000Z</time>
</trkpt>
<trkpt lat="45.8669950" lon="10.3075070">
	<ele>1766.40</ele>
	<time>2025-07-29T09:57:18.000Z</time>
</trkpt>
<trkpt lat="45.8670070" lon="10.3075060">
	<ele>1766.20</ele>
	<time>2025-07-29T09:57:19.000Z</time>
</trkpt>
<trkpt lat="45.8670190" lon="10.3075100">
	<ele>1766.00</ele>
	<time>2025-07-29T09:57:20.000Z</time>
</trkpt>
<trkpt lat="45.8670330" lon="10.3075140">
	<ele>1765.80</ele>
	<time>2025-07-29T09:57:21.000Z</time>
</trkpt>
<trkpt lat="45.8670450" lon="10.3075130">
	<ele>1765.80</ele>
	<time>2025-07-29T09:57:22.000Z</time>
</trkpt>
<trkpt lat="45.8670580" lon="10.3075130">
	<ele>1765.80</ele>
	<time>2025-07-29T09:57:23.000Z</time>
</trkpt>
<trkpt lat="45.8670700" lon="10.3075110">
	<ele>1765.60</ele>
	<time>2025-07-29T09:57:24.000Z</time>
</trkpt>
<trkpt lat="45.8670830" lon="10.3075110">
	<ele>1765.40</ele>
	<time>2025-07-29T09:57:25.000Z</time>
</trkpt>
<trkpt lat="45.8670950" lon="10.3075150">
	<ele>1765.40</ele>
	<time>2025-07-29T09:57:26.000Z</time>
</trkpt>
<trkpt lat="45.8671080" lon="10.3075190">
	<ele>1765.20</ele>
	<time>2025-07-29T09:57:27.000Z</time>
</trkpt>
<trkpt lat="45.8671210" lon="10.3075200">
	<ele>1765.20</ele>
	<time>2025-07-29T09:57:28.000Z</time>
</trkpt>
<trkpt lat="45.8671350" lon="10.3075190">
	<ele>1765.00</ele>
	<time>2025-07-29T09:57:29.000Z</time>
</trkpt>
<trkpt lat="45.8671470" lon="10.3075170">
	<ele>1765.00</ele>
	<time>2025-07-29T09:57:30.000Z</time>
</trkpt>
<trkpt lat="45.8671610" lon="10.3075130">
	<ele>1764.80</ele>
	<time>2025-07-29T09:57:31.000Z</time>
</trkpt>
<trkpt lat="45.8671740" lon="10.3075110">
	<ele>1764.60</ele>
	<time>2025-07-29T09:57:32.000Z</time>
</trkpt>
<trkpt lat="45.8671860" lon="10.3075090">
	<ele>1764.40</ele>
	<time>2025-07-29T09:57:33.000Z</time>
</trkpt>
<trkpt lat="45.8671980" lon="10.3075070">
	<ele>1764.20</ele>
	<time>2025-07-29T09:57:34.000Z</time>
</trkpt>
<trkpt lat="45.8672100" lon="10.3075030">
	<ele>1764.00</ele>
	<time>2025-07-29T09:57:35.000Z</time>
</trkpt>
<trkpt lat="45.8672220" lon="10.3075040">
	<ele>1764.00</ele>
	<time>2025-07-29T09:57:36.000Z</time>
</trkpt>
<trkpt lat="45.8672340" lon="10.3075100">
	<ele>1763.60</ele>
	<time>2025-07-29T09:57:37.000Z</time>
</trkpt>
<trkpt lat="45.8672460" lon="10.3075170">
	<ele>1763.40</ele>
	<time>2025-07-29T09:57:38.000Z</time>
</trkpt>
<trkpt lat="45.8672570" lon="10.3075220">
	<ele>1763.20</ele>
	<time>2025-07-29T09:57:39.000Z</time>
</trkpt>
<trkpt lat="45.8672690" lon="10.3075310">
	<ele>1762.80</ele>
	<time>2025-07-29T09:57:40.000Z</time>
</trkpt>
<trkpt lat="45.8672790" lon="10.3075420">
	<ele>1762.60</ele>
	<time>2025-07-29T09:57:41.000Z</time>
</trkpt>
<trkpt lat="45.8672910" lon="10.3075500">
	<ele>1762.60</ele>
	<time>2025-07-29T09:57:42.000Z</time>
</trkpt>
<trkpt lat="45.8673030" lon="10.3075610">
	<ele>1762.40</ele>
	<time>2025-07-29T09:57:43.000Z</time>
</trkpt>
<trkpt lat="45.8673140" lon="10.3075710">
	<ele>1762.20</ele>
	<time>2025-07-29T09:57:44.000Z</time>
</trkpt>
<trkpt lat="45.8673230" lon="10.3075820">
	<ele>1762.00</ele>
	<time>2025-07-29T09:57:45.000Z</time>
</trkpt>
<trkpt lat="45.8673310" lon="10.3075840">
	<ele>1762.00</ele>
	<time>2025-07-29T09:57:46.000Z</time>
</trkpt>
<trkpt lat="45.8673380" lon="10.3075860">
	<ele>1761.60</ele>
	<time>2025-07-29T09:57:47.000Z</time>
</trkpt>
<trkpt lat="45.8673480" lon="10.3075890">
	<ele>1761.40</ele>
	<time>2025-07-29T09:57:48.000Z</time>
</trkpt>
<trkpt lat="45.8673550" lon="10.3075970">
	<ele>1761.20</ele>
	<time>2025-07-29T09:57:49.000Z</time>
</trkpt>
<trkpt lat="45.8673620" lon="10.3076060">
	<ele>1760.80</ele>
	<time>2025-07-29T09:57:50.000Z</time>
</trkpt>
<trkpt lat="45.8673690" lon="10.3076130">
	<ele>1760.60</ele>
	<time>2025-07-29T09:57:51.000Z</time>
</trkpt>
<trkpt lat="45.8673780" lon="10.3076210">
	<ele>1760.40</ele>
	<time>2025-07-29T09:57:52.000Z</time>
</trkpt>
<trkpt lat="45.8673870" lon="10.3076260">
	<ele>1760.20</ele>
	<time>2025-07-29T09:57:53.000Z</time>
</trkpt>
<trkpt lat="45.8673930" lon="10.3076370">
	<ele>1760.00</ele>
	<time>2025-07-29T09:57:54.000Z</time>
</trkpt>
<trkpt lat="45.8674020" lon="10.3076450">
	<ele>1760.00</ele>
	<time>2025-07-29T09:57:55.000Z</time>
</trkpt>
<trkpt lat="45.8674100" lon="10.3076500">
	<ele>1759.80</ele>
	<time>2025-07-29T09:57:56.000Z</time>
</trkpt>
<trkpt lat="45.8674160" lon="10.3076510">
	<ele>1759.60</ele>
	<time>2025-07-29T09:57:57.000Z</time>
</trkpt>
<trkpt lat="45.8674230" lon="10.3076490">
	<ele>1759.40</ele>
	<time>2025-07-29T09:57:58.000Z</time>
</trkpt>
<trkpt lat="45.8674320" lon="10.3076490">
	<ele>1759.40</ele>
	<time>2025-07-29T09:57:59.000Z</time>
</trkpt>
<trkpt lat="45.8674390" lon="10.3076540">
	<ele>1759.40</ele>
	<time>2025-07-29T09:58:00.000Z</time>
</trkpt>
<trkpt lat="45.8674460" lon="10.3076570">
	<ele>1759.20</ele>
	<time>2025-07-29T09:58:01.000Z</time>
</trkpt>
<trkpt lat="45.8674580" lon="10.3076570">
	<ele>1759.00</ele>
	<time>2025-07-29T09:58:02.000Z</time>
</trkpt>
<trkpt lat="45.8674690" lon="10.3076540">
	<ele>1758.80</ele>
	<time>2025-07-29T09:58:03.000Z</time>
</trkpt>
<trkpt lat="45.8674800" lon="10.3076540">
	<ele>1758.60</ele>
	<time>2025-07-29T09:58:04.000Z</time>
</trkpt>
<trkpt lat="45.8674920" lon="10.3076480">
	<ele>1758.40</ele>
	<time>2025-07-29T09:58:05.000Z</time>
</trkpt>
<trkpt lat="45.8675020" lon="10.3076500">
	<ele>1758.20</ele>
	<time>2025-07-29T09:58:06.000Z</time>
</trkpt>
<trkpt lat="45.8675130" lon="10.3076510">
	<ele>1757.80</ele>
	<time>2025-07-29T09:58:07.000Z</time>
</trkpt>
<trkpt lat="45.8675210" lon="10.3076590">
	<ele>1757.40</ele>
	<time>2025-07-29T09:58:08.000Z</time>
</trkpt>
<trkpt lat="45.8675300" lon="10.3076600">
	<ele>1757.40</ele>
	<time>2025-07-29T09:58:09.000Z</time>
</trkpt>
<trkpt lat="45.8675390" lon="10.3076590">
	<ele>1757.20</ele>
	<time>2025-07-29T09:58:10.000Z</time>
</trkpt>
<trkpt lat="45.8675520" lon="10.3076590">
	<ele>1757.00</ele>
	<time>2025-07-29T09:58:11.000Z</time>
</trkpt>
<trkpt lat="45.8675660" lon="10.3076600">
	<ele>1756.80</ele>
	<time>2025-07-29T09:58:12.000Z</time>
</trkpt>
<trkpt lat="45.8675780" lon="10.3076590">
	<ele>1756.60</ele>
	<time>2025-07-29T09:58:13.000Z</time>
</trkpt>
<trkpt lat="45.8675900" lon="10.3076580">
	<ele>1756.60</ele>
	<time>2025-07-29T09:58:14.000Z</time>
</trkpt>
<trkpt lat="45.8676000" lon="10.3076590">
	<ele>1756.40</ele>
	<time>2025-07-29T09:58:15.000Z</time>
</trkpt>
<trkpt lat="45.8676070" lon="10.3076590">
	<ele>1756.40</ele>
	<time>2025-07-29T09:58:16.000Z</time>
</trkpt>
<trkpt lat="45.8676130" lon="10.3076570">
	<ele>1756.40</ele>
	<time>2025-07-29T09:58:17.000Z</time>
</trkpt>
<trkpt lat="45.8676190" lon="10.3076540">
	<ele>1756.40</ele>
	<time>2025-07-29T09:58:18.000Z</time>
</trkpt>
<trkpt lat="45.8676280" lon="10.3076510">
	<ele>1756.40</ele>
	<time>2025-07-29T09:58:19.000Z</time>
</trkpt>
<trkpt lat="45.8676380" lon="10.3076530">
	<ele>1756.20</ele>
	<time>2025-07-29T09:58:20.000Z</time>
</trkpt>
<trkpt lat="45.8676470" lon="10.3076570">
	<ele>1756.00</ele>
	<time>2025-07-29T09:58:21.000Z</time>
</trkpt>
<trkpt lat="45.8676530" lon="10.3076600">
	<ele>1755.80</ele>
	<time>2025-07-29T09:58:22.000Z</time>
</trkpt>
<trkpt lat="45.8676610" lon="10.3076700">
	<ele>1755.80</ele>
	<time>2025-07-29T09:58:23.000Z</time>
</trkpt>
<trkpt lat="45.8676680" lon="10.3076840">
	<ele>1755.80</ele>
	<time>2025-07-29T09:58:24.000Z</time>
</trkpt>
<trkpt lat="45.8676760" lon="10.3077010">
	<ele>1755.80</ele>
	<time>2025-07-29T09:58:25.000Z</time>
</trkpt>
<trkpt lat="45.8676810" lon="10.3077180">
	<ele>1755.80</ele>
	<time>2025-07-29T09:58:26.000Z</time>
</trkpt>
<trkpt lat="45.8676880" lon="10.3077230">
	<ele>1755.80</ele>
	<time>2025-07-29T09:58:27.000Z</time>
</trkpt>
<trkpt lat="45.8676960" lon="10.3077320">
	<ele>1755.80</ele>
	<time>2025-07-29T09:58:28.000Z</time>
</trkpt>
<trkpt lat="45.8677060" lon="10.3077370">
	<ele>1755.80</ele>
	<time>2025-07-29T09:58:29.000Z</time>
</trkpt>
<trkpt lat="45.8677150" lon="10.3077460">
	<ele>1755.80</ele>
	<time>2025-07-29T09:58:30.000Z</time>
</trkpt>
<trkpt lat="45.8677300" lon="10.3077540">
	<ele>1755.80</ele>
	<time>2025-07-29T09:58:31.000Z</time>
</trkpt>
<trkpt lat="45.8677460" lon="10.3077610">
	<ele>1755.60</ele>
	<time>2025-07-29T09:58:32.000Z</time>
</trkpt>
<trkpt lat="45.8677600" lon="10.3077620">
	<ele>1755.40</ele>
	<time>2025-07-29T09:58:33.000Z</time>
</trkpt>
<trkpt lat="45.8677750" lon="10.3077590">
	<ele>1755.40</ele>
	<time>2025-07-29T09:58:34.000Z</time>
</trkpt>
<trkpt lat="45.8677890" lon="10.3077540">
	<ele>1755.20</ele>
	<time>2025-07-29T09:58:35.000Z</time>
</trkpt>
<trkpt lat="45.8678010" lon="10.3077610">
	<ele>1755.20</ele>
	<time>2025-07-29T09:58:36.000Z</time>
</trkpt>
<trkpt lat="45.8678250" lon="10.3077630">
	<ele>1755.00</ele>
	<time>2025-07-29T09:58:37.000Z</time>
</trkpt>
<trkpt lat="45.8678440" lon="10.3077660">
	<ele>1755.00</ele>
	<time>2025-07-29T09:58:38.000Z</time>
</trkpt>
<trkpt lat="45.8678660" lon="10.3077700">
	<ele>1755.00</ele>
	<time>2025-07-29T09:58:39.000Z</time>
</trkpt>
<trkpt lat="45.8678810" lon="10.3077710">
	<ele>1754.80</ele>
	<time>2025-07-29T09:58:40.000Z</time>
</trkpt>
<trkpt lat="45.8678920" lon="10.3077670">
	<ele>1754.60</ele>
	<time>2025-07-29T09:58:41.000Z</time>
</trkpt>
<trkpt lat="45.8679020" lon="10.3077670">
	<ele>1754.20</ele>
	<time>2025-07-29T09:58:42.000Z</time>
</trkpt>
<trkpt lat="45.8679140" lon="10.3077670">
	<ele>1754.00</ele>
	<time>2025-07-29T09:58:43.000Z</time>
</trkpt>
<trkpt lat="45.8679270" lon="10.3077620">
	<ele>1753.80</ele>
	<time>2025-07-29T09:58:44.000Z</time>
</trkpt>
<trkpt lat="45.8679260" lon="10.3077610">
	<ele>1753.60</ele>
	<time>2025-07-29T09:58:45.000Z</time>
</trkpt>
<trkpt lat="45.8679320" lon="10.3077710">
	<ele>1753.40</ele>
	<time>2025-07-29T09:58:46.000Z</time>
</trkpt>
<trkpt lat="45.8679390" lon="10.3077890">
	<ele>1753.40</ele>
	<time>2025-07-29T09:58:47.000Z</time>
</trkpt>
<trkpt lat="45.8679510" lon="10.3078050">
	<ele>1753.40</ele>
	<time>2025-07-29T09:58:48.000Z</time>
</trkpt>
<trkpt lat="45.8679550" lon="10.3078140">
	<ele>1753.20</ele>
	<time>2025-07-29T09:58:49.000Z</time>
</trkpt>
<trkpt lat="45.8679590" lon="10.3078160">
	<ele>1753.20</ele>
	<time>2025-07-29T09:58:50.000Z</time>
</trkpt>
<trkpt lat="45.8679650" lon="10.3078210">
	<ele>1753.00</ele>
	<time>2025-07-29T09:58:51.000Z</time>
</trkpt>
<trkpt lat="45.8679740" lon="10.3078210">
	<ele>1753.00</ele>
	<time>2025-07-29T09:58:52.000Z</time>
</trkpt>
<trkpt lat="45.8679850" lon="10.3078150">
	<ele>1752.80</ele>
	<time>2025-07-29T09:58:53.000Z</time>
</trkpt>
<trkpt lat="45.8680000" lon="10.3078160">
	<ele>1752.80</ele>
	<time>2025-07-29T09:58:54.000Z</time>
</trkpt>
<trkpt lat="45.8680150" lon="10.3078170">
	<ele>1752.60</ele>
	<time>2025-07-29T09:58:55.000Z</time>
</trkpt>
<trkpt lat="45.8680300" lon="10.3078200">
	<ele>1752.60</ele>
	<time>2025-07-29T09:58:56.000Z</time>
</trkpt>
<trkpt lat="45.8680430" lon="10.3078270">
	<ele>1752.40</ele>
	<time>2025-07-29T09:58:57.000Z</time>
</trkpt>
<trkpt lat="45.8680540" lon="10.3078340">
	<ele>1752.40</ele>
	<time>2025-07-29T09:58:58.000Z</time>
</trkpt>
<trkpt lat="45.8680640" lon="10.3078420">
	<ele>1752.40</ele>
	<time>2025-07-29T09:58:59.000Z</time>
</trkpt>
<trkpt lat="45.8680730" lon="10.3078540">
	<ele>1752.40</ele>
	<time>2025-07-29T09:59:00.000Z</time>
</trkpt>
<trkpt lat="45.8680830" lon="10.3078580">
	<ele>1752.40</ele>
	<time>2025-07-29T09:59:01.000Z</time>
</trkpt>
<trkpt lat="45.8680940" lon="10.3078630">
	<ele>1752.40</ele>
	<time>2025-07-29T09:59:02.000Z</time>
</trkpt>
<trkpt lat="45.8681040" lon="10.3078670">
	<ele>1752.40</ele>
	<time>2025-07-29T09:59:03.000Z</time>
</trkpt>
<trkpt lat="45.8681120" lon="10.3078640">
	<ele>1752.20</ele>
	<time>2025-07-29T09:59:04.000Z</time>
</trkpt>
<trkpt lat="45.8681210" lon="10.3078600">
	<ele>1752.20</ele>
	<time>2025-07-29T09:59:05.000Z</time>
</trkpt>
<trkpt lat="45.8681300" lon="10.3078540">
	<ele>1752.00</ele>
	<time>2025-07-29T09:59:06.000Z</time>
</trkpt>
<trkpt lat="45.8681440" lon="10.3078550">
	<ele>1752.00</ele>
	<time>2025-07-29T09:59:07.000Z</time>
</trkpt>
<trkpt lat="45.8681590" lon="10.3078590">
	<ele>1752.00</ele>
	<time>2025-07-29T09:59:08.000Z</time>
</trkpt>
<trkpt lat="45.8681750" lon="10.3078550">
	<ele>1751.80</ele>
	<time>2025-07-29T09:59:09.000Z</time>
</trkpt>
<trkpt lat="45.8681840" lon="10.3078520">
	<ele>1751.80</ele>
	<time>2025-07-29T09:59:10.000Z</time>
</trkpt>
<trkpt lat="45.8681910" lon="10.3078430">
	<ele>1751.80</ele>
	<time>2025-07-29T09:59:11.000Z</time>
</trkpt>
<trkpt lat="45.8681970" lon="10.3078400">
	<ele>1751.80</ele>
	<time>2025-07-29T09:59:12.000Z</time>
</trkpt>
<trkpt lat="45.8682030" lon="10.3078310">
	<ele>1751.80</ele>
	<time>2025-07-29T09:59:13.000Z</time>
</trkpt>
<trkpt lat="45.8682100" lon="10.3078210">
	<ele>1751.60</ele>
	<time>2025-07-29T09:59:14.000Z</time>
</trkpt>
<trkpt lat="45.8682180" lon="10.3078080">
	<ele>1751.60</ele>
	<time>2025-07-29T09:59:15.000Z</time>
</trkpt>
<trkpt lat="45.8682290" lon="10.3078020">
	<ele>1751.40</ele>
	<time>2025-07-29T09:59:16.000Z</time>
</trkpt>
<trkpt lat="45.8682370" lon="10.3078000">
	<ele>1751.40</ele>
	<time>2025-07-29T09:59:17.000Z</time>
</trkpt>
<trkpt lat="45.8682420" lon="10.3077950">
	<ele>1751.40</ele>
	<time>2025-07-29T09:59:18.000Z</time>
</trkpt>
<trkpt lat="45.8682430" lon="10.3077850">
	<ele>1751.40</ele>
	<time>2025-07-29T09:59:19.000Z</time>
</trkpt>
<trkpt lat="45.8682480" lon="10.3077800">
	<ele>1751.20</ele>
	<time>2025-07-29T09:59:20.000Z</time>
</trkpt>
<trkpt lat="45.8682570" lon="10.3077810">
	<ele>1751.20</ele>
	<time>2025-07-29T09:59:21.000Z</time>
</trkpt>
<trkpt lat="45.8682660" lon="10.3077790">
	<ele>1751.20</ele>
	<time>2025-07-29T09:59:22.000Z</time>
</trkpt>
<trkpt lat="45.8682750" lon="10.3077780">
	<ele>1751.20</ele>
	<time>2025-07-29T09:59:23.000Z</time>
</trkpt>
<trkpt lat="45.8682830" lon="10.3077770">
	<ele>1751.20</ele>
	<time>2025-07-29T09:59:24.000Z</time>
</trkpt>
<trkpt lat="45.8682930" lon="10.3077740">
	<ele>1751.20</ele>
	<time>2025-07-29T09:59:25.000Z</time>
</trkpt>
<trkpt lat="45.8683050" lon="10.3077760">
	<ele>1751.20</ele>
	<time>2025-07-29T09:59:26.000Z</time>
</trkpt>
<trkpt lat="45.8683150" lon="10.3077720">
	<ele>1751.20</ele>
	<time>2025-07-29T09:59:27.000Z</time>
</trkpt>
<trkpt lat="45.8683270" lon="10.3077700">
	<ele>1751.20</ele>
	<time>2025-07-29T09:59:28.000Z</time>
</trkpt>
<trkpt lat="45.8683390" lon="10.3077650">
	<ele>1751.20</ele>
	<time>2025-07-29T09:59:29.000Z</time>
</trkpt>
<trkpt lat="45.8683470" lon="10.3077570">
	<ele>1751.20</ele>
	<time>2025-07-29T09:59:30.000Z</time>
</trkpt>
<trkpt lat="45.8683580" lon="10.3077590">
	<ele>1751.20</ele>
	<time>2025-07-29T09:59:31.000Z</time>
</trkpt>
<trkpt lat="45.8683700" lon="10.3077570">
	<ele>1751.20</ele>
	<time>2025-07-29T09:59:32.000Z</time>
</trkpt>
<trkpt lat="45.8683800" lon="10.3077540">
	<ele>1751.00</ele>
	<time>2025-07-29T09:59:33.000Z</time>
</trkpt>
<trkpt lat="45.8683900" lon="10.3077510">
	<ele>1751.00</ele>
	<time>2025-07-29T09:59:34.000Z</time>
</trkpt>
<trkpt lat="45.8684000" lon="10.3077460">
	<ele>1751.00</ele>
	<time>2025-07-29T09:59:35.000Z</time>
</trkpt>
<trkpt lat="45.8684130" lon="10.3077400">
	<ele>1751.00</ele>
	<time>2025-07-29T09:59:36.000Z</time>
</trkpt>
<trkpt lat="45.8684240" lon="10.3077340">
	<ele>1751.00</ele>
	<time>2025-07-29T09:59:37.000Z</time>
</trkpt>
<trkpt lat="45.8684350" lon="10.3077310">
	<ele>1751.00</ele>
	<time>2025-07-29T09:59:38.000Z</time>
</trkpt>
<trkpt lat="45.8684440" lon="10.3077230">
	<ele>1751.00</ele>
	<time>2025-07-29T09:59:39.000Z</time>
</trkpt>
<trkpt lat="45.8684490" lon="10.3077070">
	<ele>1751.00</ele>
	<time>2025-07-29T09:59:40.000Z</time>
</trkpt>
<trkpt lat="45.8684560" lon="10.3076970">
	<ele>1751.20</ele>
	<time>2025-07-29T09:59:41.000Z</time>
</trkpt>
<trkpt lat="45.8684660" lon="10.3076900">
	<ele>1751.20</ele>
	<time>2025-07-29T09:59:42.000Z</time>
</trkpt>
<trkpt lat="45.8684730" lon="10.3076820">
	<ele>1751.20</ele>
	<time>2025-07-29T09:59:43.000Z</time>
</trkpt>
<trkpt lat="45.8684840" lon="10.3076770">
	<ele>1751.20</ele>
	<time>2025-07-29T09:59:44.000Z</time>
</trkpt>
<trkpt lat="45.8684920" lon="10.3076750">
	<ele>1751.20</ele>
	<time>2025-07-29T09:59:45.000Z</time>
</trkpt>
<trkpt lat="45.8685010" lon="10.3076670">
	<ele>1751.20</ele>
	<time>2025-07-29T09:59:46.000Z</time>
</trkpt>
<trkpt lat="45.8685090" lon="10.3076580">
	<ele>1751.20</ele>
	<time>2025-07-29T09:59:47.000Z</time>
</trkpt>
<trkpt lat="45.8685170" lon="10.3076540">
	<ele>1751.20</ele>
	<time>2025-07-29T09:59:48.000Z</time>
</trkpt>
<trkpt lat="45.8685290" lon="10.3076660">
	<ele>1751.20</ele>
	<time>2025-07-29T09:59:49.000Z</time>
</trkpt>
<trkpt lat="45.8685360" lon="10.3076660">
	<ele>1751.20</ele>
	<time>2025-07-29T09:59:50.000Z</time>
</trkpt>
<trkpt lat="45.8685420" lon="10.3076560">
	<ele>1751.40</ele>
	<time>2025-07-29T09:59:51.000Z</time>
</trkpt>
<trkpt lat="45.8685550" lon="10.3076490">
	<ele>1751.40</ele>
	<time>2025-07-29T09:59:52.000Z</time>
</trkpt>
<trkpt lat="45.8685650" lon="10.3076450">
	<ele>1751.20</ele>
	<time>2025-07-29T09:59:53.000Z</time>
</trkpt>
<trkpt lat="45.8685760" lon="10.3076370">
	<ele>1751.20</ele>
	<time>2025-07-29T09:59:54.000Z</time>
</trkpt>
<trkpt lat="45.8685860" lon="10.3076300">
	<ele>1751.40</ele>
	<time>2025-07-29T09:59:55.000Z</time>
</trkpt>
<trkpt lat="45.8685970" lon="10.3076300">
	<ele>1751.20</ele>
	<time>2025-07-29T09:59:56.000Z</time>
</trkpt>
<trkpt lat="45.8686080" lon="10.3076310">
	<ele>1751.20</ele>
	<time>2025-07-29T09:59:57.000Z</time>
</trkpt>
<trkpt lat="45.8686180" lon="10.3076280">
	<ele>1751.20</ele>
	<time>2025-07-29T09:59:58.000Z</time>
</trkpt>
<trkpt lat="45.8686290" lon="10.3076200">
	<ele>1751.20</ele>
	<time>2025-07-29T09:59:59.000Z</time>
</trkpt>
<trkpt lat="45.8686380" lon="10.3076120">
	<ele>1751.20</ele>
	<time>2025-07-29T10:00:00.000Z</time>
</trkpt>
<trkpt lat="45.8686490" lon="10.3076020">
	<ele>1751.20</ele>
	<time>2025-07-29T10:00:01.000Z</time>
</trkpt>
<trkpt lat="45.8686570" lon="10.3075890">
	<ele>1751.20</ele>
	<time>2025-07-29T10:00:02.000Z</time>
</trkpt>
<trkpt lat="45.8686650" lon="10.3075740">
	<ele>1751.00</ele>
	<time>2025-07-29T10:00:03.000Z</time>
</trkpt>
<trkpt lat="45.8686700" lon="10.3075550">
	<ele>1751.00</ele>
	<time>2025-07-29T10:00:04.000Z</time>
</trkpt>
<trkpt lat="45.8686730" lon="10.3075380">
	<ele>1750.80</ele>
	<time>2025-07-29T10:00:05.000Z</time>
</trkpt>
<trkpt lat="45.8686750" lon="10.3075200">
	<ele>1750.80</ele>
	<time>2025-07-29T10:00:06.000Z</time>
</trkpt>
<trkpt lat="45.8686790" lon="10.3075050">
	<ele>1750.80</ele>
	<time>2025-07-29T10:00:07.000Z</time>
</trkpt>
<trkpt lat="45.8686830" lon="10.3074890">
	<ele>1750.60</ele>
	<time>2025-07-29T10:00:08.000Z</time>
</trkpt>
<trkpt lat="45.8686880" lon="10.3074750">
	<ele>1750.60</ele>
	<time>2025-07-29T10:00:09.000Z</time>
</trkpt>
<trkpt lat="45.8686910" lon="10.3074620">
	<ele>1750.60</ele>
	<time>2025-07-29T10:00:10.000Z</time>
</trkpt>
<trkpt lat="45.8686970" lon="10.3074530">
	<ele>1750.40</ele>
	<time>2025-07-29T10:00:11.000Z</time>
</trkpt>
<trkpt lat="45.8687000" lon="10.3074440">
	<ele>1750.40</ele>
	<time>2025-07-29T10:00:12.000Z</time>
</trkpt>
<trkpt lat="45.8687080" lon="10.3074400">
	<ele>1750.20</ele>
	<time>2025-07-29T10:00:13.000Z</time>
</trkpt>
<trkpt lat="45.8687160" lon="10.3074350">
	<ele>1750.20</ele>
	<time>2025-07-29T10:00:14.000Z</time>
</trkpt>
<trkpt lat="45.8687240" lon="10.3074290">
	<ele>1750.00</ele>
	<time>2025-07-29T10:00:15.000Z</time>
</trkpt>
<trkpt lat="45.8687320" lon="10.3074200">
	<ele>1749.80</ele>
	<time>2025-07-29T10:00:16.000Z</time>
</trkpt>
<trkpt lat="45.8687410" lon="10.3074160">
	<ele>1749.80</ele>
	<time>2025-07-29T10:00:17.000Z</time>
</trkpt>
<trkpt lat="45.8687470" lon="10.3074110">
	<ele>1749.60</ele>
	<time>2025-07-29T10:00:18.000Z</time>
</trkpt>
<trkpt lat="45.8687490" lon="10.3074090">
	<ele>1749.60</ele>
	<time>2025-07-29T10:00:19.000Z</time>
</trkpt>
<trkpt lat="45.8687500" lon="10.3074090">
	<ele>1749.40</ele>
	<time>2025-07-29T10:00:20.000Z</time>
</trkpt>
<trkpt lat="45.8687490" lon="10.3074070">
	<ele>1749.60</ele>
	<time>2025-07-29T10:00:21.000Z</time>
</trkpt>
<trkpt lat="45.8687460" lon="10.3073970">
	<ele>1749.60</ele>
	<time>2025-07-29T10:00:22.000Z</time>
</trkpt>
<trkpt lat="45.8687430" lon="10.3073930">
	<ele>1749.60</ele>
	<time>2025-07-29T10:00:23.000Z</time>
</trkpt>
<trkpt lat="45.8687430" lon="10.3073930">
	<ele>1749.60</ele>
	<time>2025-07-29T10:00:24.000Z</time>
</trkpt>
<trkpt lat="45.8687480" lon="10.3073950">
	<ele>1749.60</ele>
	<time>2025-07-29T10:00:25.000Z</time>
</trkpt>
<trkpt lat="45.8687560" lon="10.3073970">
	<ele>1749.60</ele>
	<time>2025-07-29T10:00:26.000Z</time>
</trkpt>
<trkpt lat="45.8687600" lon="10.3073920">
	<ele>1749.60</ele>
	<time>2025-07-29T10:00:27.000Z</time>
</trkpt>
<trkpt lat="45.8687660" lon="10.3073920">
	<ele>1749.40</ele>
	<time>2025-07-29T10:00:28.000Z</time>
</trkpt>
<trkpt lat="45.8687740" lon="10.3073840">
	<ele>1749.20</ele>
	<time>2025-07-29T10:00:29.000Z</time>
</trkpt>
<trkpt lat="45.8687830" lon="10.3073790">
	<ele>1749.20</ele>
	<time>2025-07-29T10:00:30.000Z</time>
</trkpt>
<trkpt lat="45.8687930" lon="10.3073770">
	<ele>1749.00</ele>
	<time>2025-07-29T10:00:31.000Z</time>
</trkpt>
<trkpt lat="45.8688010" lon="10.3073690">
	<ele>1748.80</ele>
	<time>2025-07-29T10:00:32.000Z</time>
</trkpt>
<trkpt lat="45.8688120" lon="10.3073700">
	<ele>1748.60</ele>
	<time>2025-07-29T10:00:33.000Z</time>
</trkpt>
<trkpt lat="45.8688210" lon="10.3073660">
	<ele>1748.60</ele>
	<time>2025-07-29T10:00:34.000Z</time>
</trkpt>
<trkpt lat="45.8688320" lon="10.3073640">
	<ele>1748.40</ele>
	<time>2025-07-29T10:00:35.000Z</time>
</trkpt>
<trkpt lat="45.8688400" lon="10.3073600">
	<ele>1748.40</ele>
	<time>2025-07-29T10:00:36.000Z</time>
</trkpt>
<trkpt lat="45.8688460" lon="10.3073580">
	<ele>1748.40</ele>
	<time>2025-07-29T10:00:37.000Z</time>
</trkpt>
<trkpt lat="45.8688470" lon="10.3073450">
	<ele>1748.20</ele>
	<time>2025-07-29T10:00:38.000Z</time>
</trkpt>
<trkpt lat="45.8688470" lon="10.3073260">
	<ele>1748.20</ele>
	<time>2025-07-29T10:00:39.000Z</time>
</trkpt>
<trkpt lat="45.8688530" lon="10.3073200">
	<ele>1748.20</ele>
	<time>2025-07-29T10:00:40.000Z</time>
</trkpt>
<trkpt lat="45.8688560" lon="10.3073150">
	<ele>1748.20</ele>
	<time>2025-07-29T10:00:41.000Z</time>
</trkpt>
<trkpt lat="45.8688570" lon="10.3073100">
	<ele>1748.40</ele>
	<time>2025-07-29T10:00:42.000Z</time>
</trkpt>
<trkpt lat="45.8688610" lon="10.3073000">
	<ele>1748.40</ele>
	<time>2025-07-29T10:00:43.000Z</time>
</trkpt>
<trkpt lat="45.8688660" lon="10.3072890">
	<ele>1748.40</ele>
	<time>2025-07-29T10:00:44.000Z</time>
</trkpt>
<trkpt lat="45.8688730" lon="10.3072840">
	<ele>1748.40</ele>
	<time>2025-07-29T10:00:45.000Z</time>
</trkpt>
<trkpt lat="45.8688800" lon="10.3072750">
	<ele>1748.40</ele>
	<time>2025-07-29T10:00:46.000Z</time>
</trkpt>
<trkpt lat="45.8688850" lon="10.3072640">
	<ele>1748.40</ele>
	<time>2025-07-29T10:00:47.000Z</time>
</trkpt>
<trkpt lat="45.8688910" lon="10.3072530">
	<ele>1748.40</ele>
	<time>2025-07-29T10:00:48.000Z</time>
</trkpt>
<trkpt lat="45.8688970" lon="10.3072460">
	<ele>1748.60</ele>
	<time>2025-07-29T10:00:49.000Z</time>
</trkpt>
<trkpt lat="45.8689010" lon="10.3072410">
	<ele>1748.60</ele>
	<time>2025-07-29T10:00:50.000Z</time>
</trkpt>
<trkpt lat="45.8689020" lon="10.3072310">
	<ele>1748.60</ele>
	<time>2025-07-29T10:00:51.000Z</time>
</trkpt>
<trkpt lat="45.8689010" lon="10.3072190">
	<ele>1748.60</ele>
	<time>2025-07-29T10:00:52.000Z</time>
</trkpt>
<trkpt lat="45.8688990" lon="10.3072140">
	<ele>1748.80</ele>
	<time>2025-07-29T10:00:53.000Z</time>
</trkpt>
<trkpt lat="45.8688940" lon="10.3072070">
	<ele>1748.80</ele>
	<time>2025-07-29T10:00:54.000Z</time>
</trkpt>
<trkpt lat="45.8688910" lon="10.3072060">
	<ele>1748.80</ele>
	<time>2025-07-29T10:00:55.000Z</time>
</trkpt>
<trkpt lat="45.8688900" lon="10.3072060">
	<ele>1749.00</ele>
	<time>2025-07-29T10:00:56.000Z</time>
</trkpt>
<trkpt lat="45.8688900" lon="10.3072070">
	<ele>1749.00</ele>
	<time>2025-07-29T10:00:57.000Z</time>
</trkpt>
<trkpt lat="45.8688910" lon="10.3072090">
	<ele>1749.00</ele>
	<time>2025-07-29T10:00:58.000Z</time>
</trkpt>
<trkpt lat="45.8688900" lon="10.3072110">
	<ele>1749.20</ele>
	<time>2025-07-29T10:00:59.000Z</time>
</trkpt>
<trkpt lat="45.8688890" lon="10.3072110">
	<ele>1749.20</ele>
	<time>2025-07-29T10:01:00.000Z</time>
</trkpt>
<trkpt lat="45.8688870" lon="10.3072080">
	<ele>1749.20</ele>
	<time>2025-07-29T10:01:01.000Z</time>
</trkpt>
<trkpt lat="45.8688860" lon="10.3072050">
	<ele>1749.00</ele>
	<time>2025-07-29T10:01:02.000Z</time>
</trkpt>
<trkpt lat="45.8688860" lon="10.3072030">
	<ele>1749.20</ele>
	<time>2025-07-29T10:01:03.000Z</time>
</trkpt>
<trkpt lat="45.8688880" lon="10.3071990">
	<ele>1749.20</ele>
	<time>2025-07-29T10:01:04.000Z</time>
</trkpt>
<trkpt lat="45.8688890" lon="10.3071970">
	<ele>1749.20</ele>
	<time>2025-07-29T10:01:05.000Z</time>
</trkpt>
<trkpt lat="45.8688880" lon="10.3071950">
	<ele>1749.20</ele>
	<time>2025-07-29T10:01:06.000Z</time>
</trkpt>
<trkpt lat="45.8688890" lon="10.3071930">
	<ele>1749.20</ele>
	<time>2025-07-29T10:01:07.000Z</time>
</trkpt>
<trkpt lat="45.8688910" lon="10.3071900">
	<ele>1749.20</ele>
	<time>2025-07-29T10:01:08.000Z</time>
</trkpt>
<trkpt lat="45.8688900" lon="10.3071910">
	<ele>1749.20</ele>
	<time>2025-07-29T10:01:09.000Z</time>
</trkpt>
<trkpt lat="45.8688900" lon="10.3071910">
	<ele>1749.20</ele>
	<time>2025-07-29T10:01:10.000Z</time>
</trkpt>
<trkpt lat="45.8688900" lon="10.3071910">
	<ele>1749.00</ele>
	<time>2025-07-29T10:01:11.000Z</time>
</trkpt>
<trkpt lat="45.8688900" lon="10.3071910">
	<ele>1749.00</ele>
	<time>2025-07-29T10:01:12.000Z</time>
</trkpt>
<trkpt lat="45.8688900" lon="10.3071910">
	<ele>1749.00</ele>
	<time>2025-07-29T10:01:13.000Z</time>
</trkpt>
<trkpt lat="45.8688900" lon="10.3071910">
	<ele>1749.00</ele>
	<time>2025-07-29T10:01:14.000Z</time>
</trkpt>
<trkpt lat="45.8688900" lon="10.3071910">
	<ele>1749.00</ele>
	<time>2025-07-29T10:01:15.000Z</time>
</trkpt>
<trkpt lat="45.8688900" lon="10.3071910">
	<ele>1749.00</ele>
	<time>2025-07-29T10:01:16.000Z</time>
</trkpt>
<trkpt lat="45.8688900" lon="10.3071910">
	<ele>1749.00</ele>
	<time>2025-07-29T10:01:17.000Z</time>
</trkpt>
<trkpt lat="45.8688900" lon="10.3071910">
	<ele>1749.00</ele>
	<time>2025-07-29T10:01:18.000Z</time>
</trkpt>
<trkpt lat="45.8688900" lon="10.3071910">
	<ele>1749.00</ele>
	<time>2025-07-29T10:01:19.000Z</time>
</trkpt>
<trkpt lat="45.8688900" lon="10.3071910">
	<ele>1749.00</ele>
	<time>2025-07-29T10:01:20.000Z</time>
</trkpt>
<trkpt lat="45.8688900" lon="10.3071920">
	<ele>1749.00</ele>
	<time>2025-07-29T10:01:21.000Z</time>
</trkpt>
<trkpt lat="45.8688900" lon="10.3071930">
	<ele>1749.00</ele>
	<time>2025-07-29T10:01:22.000Z</time>
</trkpt>
<trkpt lat="45.8688900" lon="10.3071930">
	<ele>1749.00</ele>
	<time>2025-07-29T10:01:23.000Z</time>
</trkpt>
<trkpt lat="45.8688900" lon="10.3071940">
	<ele>1748.80</ele>
	<time>2025-07-29T10:01:24.000Z</time>
</trkpt>
<trkpt lat="45.8688900" lon="10.3071950">
	<ele>1748.80</ele>
	<time>2025-07-29T10:01:25.000Z</time>
</trkpt>
<trkpt lat="45.8688900" lon="10.3071960">
	<ele>1748.80</ele>
	<time>2025-07-29T10:01:26.000Z</time>
</trkpt>
<trkpt lat="45.8688890" lon="10.3071970">
	<ele>1748.80</ele>
	<time>2025-07-29T10:01:27.000Z</time>
</trkpt>
<trkpt lat="45.8688890" lon="10.3071970">
	<ele>1748.80</ele>
	<time>2025-07-29T10:01:28.000Z</time>
</trkpt>
<trkpt lat="45.8688890" lon="10.3071970">
	<ele>1748.80</ele>
	<time>2025-07-29T10:01:29.000Z</time>
</trkpt>
<trkpt lat="45.8688890" lon="10.3071980">
	<ele>1748.80</ele>
	<time>2025-07-29T10:01:30.000Z</time>
</trkpt>
<trkpt lat="45.8688890" lon="10.3071980">
	<ele>1748.80</ele>
	<time>2025-07-29T10:01:31.000Z</time>
</trkpt>
<trkpt lat="45.8688890" lon="10.3071980">
	<ele>1748.80</ele>
	<time>2025-07-29T10:01:32.000Z</time>
</trkpt>
<trkpt lat="45.8688890" lon="10.3071980">
	<ele>1748.80</ele>
	<time>2025-07-29T10:01:33.000Z</time>
</trkpt>
<trkpt lat="45.8688890" lon="10.3071980">
	<ele>1748.80</ele>
	<time>2025-07-29T10:01:34.000Z</time>
</trkpt>
<trkpt lat="45.8688890" lon="10.3071980">
	<ele>1748.60</ele>
	<time>2025-07-29T10:01:35.000Z</time>
</trkpt>
<trkpt lat="45.8688890" lon="10.3071980">
	<ele>1748.60</ele>
	<time>2025-07-29T10:01:36.000Z</time>
</trkpt>
<trkpt lat="45.8688900" lon="10.3071980">
	<ele>1748.60</ele>
	<time>2025-07-29T10:01:37.000Z</time>
</trkpt>
<trkpt lat="45.8688900" lon="10.3071980">
	<ele>1748.60</ele>
	<time>2025-07-29T10:01:38.000Z</time>
</trkpt>
<trkpt lat="45.8688900" lon="10.3071980">
	<ele>1748.60</ele>
	<time>2025-07-29T10:01:39.000Z</time>
</trkpt>
<trkpt lat="45.8688900" lon="10.3071980">
	<ele>1748.60</ele>
	<time>2025-07-29T10:01:40.000Z</time>
</trkpt>
<trkpt lat="45.8688900" lon="10.3071980">
	<ele>1748.60</ele>
	<time>2025-07-29T10:01:41.000Z</time>
</trkpt>
<trkpt lat="45.8688900" lon="10.3071980">
	<ele>1748.80</ele>
	<time>2025-07-29T10:01:42.000Z</time>
</trkpt>
<trkpt lat="45.8688900" lon="10.3071980">
	<ele>1748.80</ele>
	<time>2025-07-29T10:01:43.000Z</time>
</trkpt>
<trkpt lat="45.8688960" lon="10.3071940">
	<ele>1748.60</ele>
	<time>2025-07-29T10:01:44.000Z</time>
</trkpt>
<trkpt lat="45.8689120" lon="10.3071850">
	<ele>1748.60</ele>
	<time>2025-07-29T10:01:45.000Z</time>
</trkpt>
<trkpt lat="45.8689250" lon="10.3071730">
	<ele>1748.80</ele>
	<time>2025-07-29T10:01:46.000Z</time>
</trkpt>
<trkpt lat="45.8689370" lon="10.3071630">
	<ele>1748.80</ele>
	<time>2025-07-29T10:01:47.000Z</time>
</trkpt>
<trkpt lat="45.8689520" lon="10.3071540">
	<ele>1748.80</ele>
	<time>2025-07-29T10:01:48.000Z</time>
</trkpt>
<trkpt lat="45.8689650" lon="10.3071400">
	<ele>1748.80</ele>
	<time>2025-07-29T10:01:49.000Z</time>
</trkpt>
<trkpt lat="45.8689800" lon="10.3071330">
	<ele>1748.80</ele>
	<time>2025-07-29T10:01:50.000Z</time>
</trkpt>
<trkpt lat="45.8689990" lon="10.3071310">
	<ele>1748.80</ele>
	<time>2025-07-29T10:01:51.000Z</time>
</trkpt>
<trkpt lat="45.8690150" lon="10.3071220">
	<ele>1748.80</ele>
	<time>2025-07-29T10:01:52.000Z</time>
</trkpt>
<trkpt lat="45.8690270" lon="10.3071100">
	<ele>1748.80</ele>
	<time>2025-07-29T10:01:53.000Z</time>
</trkpt>
<trkpt lat="45.8690340" lon="10.3070940">
	<ele>1748.80</ele>
	<time>2025-07-29T10:01:54.000Z</time>
</trkpt>
<trkpt lat="45.8690410" lon="10.3070810">
	<ele>1749.00</ele>
	<time>2025-07-29T10:01:55.000Z</time>
</trkpt>
<trkpt lat="45.8690550" lon="10.3070740">
	<ele>1749.00</ele>
	<time>2025-07-29T10:01:56.000Z</time>
</trkpt>
<trkpt lat="45.8690630" lon="10.3070700">
	<ele>1749.20</ele>
	<time>2025-07-29T10:01:57.000Z</time>
</trkpt>
<trkpt lat="45.8690770" lon="10.3070680">
	<ele>1749.40</ele>
	<time>2025-07-29T10:01:58.000Z</time>
</trkpt>
<trkpt lat="45.8690910" lon="10.3070620">
	<ele>1749.60</ele>
	<time>2025-07-29T10:01:59.000Z</time>
</trkpt>
<trkpt lat="45.8691070" lon="10.3070560">
	<ele>1749.80</ele>
	<time>2025-07-29T10:02:00.000Z</time>
</trkpt>
<trkpt lat="45.8691220" lon="10.3070540">
	<ele>1749.80</ele>
	<time>2025-07-29T10:02:01.000Z</time>
</trkpt>
<trkpt lat="45.8691330" lon="10.3070560">
	<ele>1750.00</ele>
	<time>2025-07-29T10:02:02.000Z</time>
</trkpt>
<trkpt lat="45.8691440" lon="10.3070540">
	<ele>1750.20</ele>
	<time>2025-07-29T10:02:03.000Z</time>
</trkpt>
<trkpt lat="45.8691540" lon="10.3070510">
	<ele>1750.20</ele>
	<time>2025-07-29T10:02:04.000Z</time>
</trkpt>
<trkpt lat="45.8691670" lon="10.3070430">
	<ele>1750.20</ele>
	<time>2025-07-29T10:02:05.000Z</time>
</trkpt>
<trkpt lat="45.8691800" lon="10.3070370">
	<ele>1750.20</ele>
	<time>2025-07-29T10:02:06.000Z</time>
</trkpt>
<trkpt lat="45.8691920" lon="10.3070340">
	<ele>1750.40</ele>
	<time>2025-07-29T10:02:07.000Z</time>
</trkpt>
<trkpt lat="45.8692030" lon="10.3070310">
	<ele>1750.40</ele>
	<time>2025-07-29T10:02:08.000Z</time>
</trkpt>
<trkpt lat="45.8692200" lon="10.3070340">
	<ele>1750.40</ele>
	<time>2025-07-29T10:02:09.000Z</time>
</trkpt>
<trkpt lat="45.8692300" lon="10.3070310">
	<ele>1750.40</ele>
	<time>2025-07-29T10:02:10.000Z</time>
</trkpt>
<trkpt lat="45.8692360" lon="10.3070220">
	<ele>1750.20</ele>
	<time>2025-07-29T10:02:11.000Z</time>
</trkpt>
<trkpt lat="45.8692430" lon="10.3070170">
	<ele>1750.40</ele>
	<time>2025-07-29T10:02:12.000Z</time>
</trkpt>
<trkpt lat="45.8692550" lon="10.3070150">
	<ele>1750.40</ele>
	<time>2025-07-29T10:02:13.000Z</time>
</trkpt>
<trkpt lat="45.8692700" lon="10.3070180">
	<ele>1750.40</ele>
	<time>2025-07-29T10:02:14.000Z</time>
</trkpt>
<trkpt lat="45.8692790" lon="10.3070140">
	<ele>1750.20</ele>
	<time>2025-07-29T10:02:15.000Z</time>
</trkpt>
<trkpt lat="45.8692910" lon="10.3070030">
	<ele>1750.20</ele>
	<time>2025-07-29T10:02:16.000Z</time>
</trkpt>
<trkpt lat="45.8693040" lon="10.3069900">
	<ele>1750.20</ele>
	<time>2025-07-29T10:02:17.000Z</time>
</trkpt>
<trkpt lat="45.8693160" lon="10.3069810">
	<ele>1750.00</ele>
	<time>2025-07-29T10:02:18.000Z</time>
</trkpt>
<trkpt lat="45.8693260" lon="10.3069720">
	<ele>1750.00</ele>
	<time>2025-07-29T10:02:19.000Z</time>
</trkpt>
<trkpt lat="45.8693320" lon="10.3069600">
	<ele>1750.00</ele>
	<time>2025-07-29T10:02:20.000Z</time>
</trkpt>
<trkpt lat="45.8693360" lon="10.3069570">
	<ele>1750.00</ele>
	<time>2025-07-29T10:02:21.000Z</time>
</trkpt>
<trkpt lat="45.8693380" lon="10.3069580">
	<ele>1750.20</ele>
	<time>2025-07-29T10:02:22.000Z</time>
</trkpt>
<trkpt lat="45.8693400" lon="10.3069570">
	<ele>1750.20</ele>
	<time>2025-07-29T10:02:23.000Z</time>
</trkpt>
<trkpt lat="45.8693400" lon="10.3069570">
	<ele>1750.60</ele>
	<time>2025-07-29T10:02:24.000Z</time>
</trkpt>
<trkpt lat="45.8693400" lon="10.3069570">
	<ele>1750.80</ele>
	<time>2025-07-29T10:02:25.000Z</time>
</trkpt>
<trkpt lat="45.8693410" lon="10.3069570">
	<ele>1751.00</ele>
	<time>2025-07-29T10:02:26.000Z</time>
</trkpt>
<trkpt lat="45.8693410" lon="10.3069570">
	<ele>1751.20</ele>
	<time>2025-07-29T10:02:27.000Z</time>
</trkpt>
<trkpt lat="45.8693430" lon="10.3069580">
	<ele>1751.20</ele>
	<time>2025-07-29T10:02:28.000Z</time>
</trkpt>
<trkpt lat="45.8693450" lon="10.3069590">
	<ele>1751.20</ele>
	<time>2025-07-29T10:02:29.000Z</time>
</trkpt>
<trkpt lat="45.8693470" lon="10.3069620">
	<ele>1751.20</ele>
	<time>2025-07-29T10:02:30.000Z</time>
</trkpt>
<trkpt lat="45.8693500" lon="10.3069610">
	<ele>1751.00</ele>
	<time>2025-07-29T10:02:31.000Z</time>
</trkpt>
<trkpt lat="45.8693600" lon="10.3069600">
	<ele>1750.80</ele>
	<time>2025-07-29T10:02:32.000Z</time>
</trkpt>
<trkpt lat="45.8693720" lon="10.3069570">
	<ele>1750.60</ele>
	<time>2025-07-29T10:02:33.000Z</time>
</trkpt>
<trkpt lat="45.8693820" lon="10.3069550">
	<ele>1750.40</ele>
	<time>2025-07-29T10:02:34.000Z</time>
</trkpt>
<trkpt lat="45.8693900" lon="10.3069440">
	<ele>1750.20</ele>
	<time>2025-07-29T10:02:35.000Z</time>
</trkpt>
<trkpt lat="45.8693970" lon="10.3069320">
	<ele>1750.20</ele>
	<time>2025-07-29T10:02:36.000Z</time>
</trkpt>
<trkpt lat="45.8694110" lon="10.3069220">
	<ele>1750.20</ele>
	<time>2025-07-29T10:02:37.000Z</time>
</trkpt>
<trkpt lat="45.8694240" lon="10.3069190">
	<ele>1750.20</ele>
	<time>2025-07-29T10:02:38.000Z</time>
</trkpt>
<trkpt lat="45.8694330" lon="10.3069130">
	<ele>1750.20</ele>
	<time>2025-07-29T10:02:39.000Z</time>
</trkpt>
<trkpt lat="45.8694420" lon="10.3069070">
	<ele>1750.20</ele>
	<time>2025-07-29T10:02:40.000Z</time>
</trkpt>
<trkpt lat="45.8694530" lon="10.3069000">
	<ele>1750.20</ele>
	<time>2025-07-29T10:02:41.000Z</time>
</trkpt>
<trkpt lat="45.8694600" lon="10.3068930">
	<ele>1750.00</ele>
	<time>2025-07-29T10:02:42.000Z</time>
</trkpt>
<trkpt lat="45.8694680" lon="10.3068860">
	<ele>1750.00</ele>
	<time>2025-07-29T10:02:43.000Z</time>
</trkpt>
<trkpt lat="45.8694730" lon="10.3068770">
	<ele>1750.00</ele>
	<time>2025-07-29T10:02:44.000Z</time>
</trkpt>
<trkpt lat="45.8694820" lon="10.3068690">
	<ele>1750.00</ele>
	<time>2025-07-29T10:02:45.000Z</time>
</trkpt>
<trkpt lat="45.8694910" lon="10.3068620">
	<ele>1750.00</ele>
	<time>2025-07-29T10:02:46.000Z</time>
</trkpt>
<trkpt lat="45.8694950" lon="10.3068550">
	<ele>1750.00</ele>
	<time>2025-07-29T10:02:47.000Z</time>
</trkpt>
<trkpt lat="45.8694970" lon="10.3068540">
	<ele>1749.80</ele>
	<time>2025-07-29T10:02:48.000Z</time>
</trkpt>
<trkpt lat="45.8694950" lon="10.3068520">
	<ele>1749.80</ele>
	<time>2025-07-29T10:02:49.000Z</time>
</trkpt>
<trkpt lat="45.8694880" lon="10.3068480">
	<ele>1749.80</ele>
	<time>2025-07-29T10:02:50.000Z</time>
</trkpt>
<trkpt lat="45.8694860" lon="10.3068470">
	<ele>1749.80</ele>
	<time>2025-07-29T10:02:51.000Z</time>
</trkpt>
<trkpt lat="45.8694770" lon="10.3068430">
	<ele>1749.80</ele>
	<time>2025-07-29T10:02:52.000Z</time>
</trkpt>
<trkpt lat="45.8694740" lon="10.3068430">
	<ele>1749.80</ele>
	<time>2025-07-29T10:02:53.000Z</time>
</trkpt>
<trkpt lat="45.8694720" lon="10.3068410">
	<ele>1749.80</ele>
	<time>2025-07-29T10:02:54.000Z</time>
</trkpt>
<trkpt lat="45.8694750" lon="10.3068390">
	<ele>1749.80</ele>
	<time>2025-07-29T10:02:55.000Z</time>
</trkpt>
<trkpt lat="45.8694790" lon="10.3068330">
	<ele>1749.80</ele>
	<time>2025-07-29T10:02:56.000Z</time>
</trkpt>
<trkpt lat="45.8694860" lon="10.3068220">
	<ele>1749.60</ele>
	<time>2025-07-29T10:02:57.000Z</time>
</trkpt>
<trkpt lat="45.8694930" lon="10.3068070">
	<ele>1749.40</ele>
	<time>2025-07-29T10:02:58.000Z</time>
</trkpt>
<trkpt lat="45.8695000" lon="10.3067930">
	<ele>1749.40</ele>
	<time>2025-07-29T10:02:59.000Z</time>
</trkpt>
<trkpt lat="45.8695090" lon="10.3067800">
	<ele>1749.20</ele>
	<time>2025-07-29T10:03:00.000Z</time>
</trkpt>
<trkpt lat="45.8695200" lon="10.3067690">
	<ele>1749.20</ele>
	<time>2025-07-29T10:03:01.000Z</time>
</trkpt>
<trkpt lat="45.8695330" lon="10.3067600">
	<ele>1749.00</ele>
	<time>2025-07-29T10:03:02.000Z</time>
</trkpt>
<trkpt lat="45.8695430" lon="10.3067530">
	<ele>1749.00</ele>
	<time>2025-07-29T10:03:03.000Z</time>
</trkpt>
<trkpt lat="45.8695520" lon="10.3067470">
	<ele>1749.00</ele>
	<time>2025-07-29T10:03:04.000Z</time>
</trkpt>
<trkpt lat="45.8695620" lon="10.3067400">
	<ele>1749.00</ele>
	<time>2025-07-29T10:03:05.000Z</time>
</trkpt>
<trkpt lat="45.8695730" lon="10.3067340">
	<ele>1748.80</ele>
	<time>2025-07-29T10:03:06.000Z</time>
</trkpt>
<trkpt lat="45.8695800" lon="10.3067300">
	<ele>1748.80</ele>
	<time>2025-07-29T10:03:07.000Z</time>
</trkpt>
<trkpt lat="45.8695890" lon="10.3067330">
	<ele>1748.60</ele>
	<time>2025-07-29T10:03:08.000Z</time>
</trkpt>
<trkpt lat="45.8695960" lon="10.3067350">
	<ele>1748.40</ele>
	<time>2025-07-29T10:03:09.000Z</time>
</trkpt>
<trkpt lat="45.8696070" lon="10.3067420">
	<ele>1748.20</ele>
	<time>2025-07-29T10:03:10.000Z</time>
</trkpt>
<trkpt lat="45.8696190" lon="10.3067410">
	<ele>1748.20</ele>
	<time>2025-07-29T10:03:11.000Z</time>
</trkpt>
<trkpt lat="45.8696320" lon="10.3067380">
	<ele>1748.00</ele>
	<time>2025-07-29T10:03:12.000Z</time>
</trkpt>
<trkpt lat="45.8696460" lon="10.3067330">
	<ele>1747.60</ele>
	<time>2025-07-29T10:03:13.000Z</time>
</trkpt>
<trkpt lat="45.8696590" lon="10.3067330">
	<ele>1747.60</ele>
	<time>2025-07-29T10:03:14.000Z</time>
</trkpt>
<trkpt lat="45.8696730" lon="10.3067330">
	<ele>1747.40</ele>
	<time>2025-07-29T10:03:15.000Z</time>
</trkpt>
<trkpt lat="45.8696850" lon="10.3067320">
	<ele>1747.40</ele>
	<time>2025-07-29T10:03:16.000Z</time>
</trkpt>
<trkpt lat="45.8696980" lon="10.3067330">
	<ele>1747.20</ele>
	<time>2025-07-29T10:03:17.000Z</time>
</trkpt>
<trkpt lat="45.8697110" lon="10.3067370">
	<ele>1747.00</ele>
	<time>2025-07-29T10:03:18.000Z</time>
</trkpt>
<trkpt lat="45.8697230" lon="10.3067370">
	<ele>1746.80</ele>
	<time>2025-07-29T10:03:19.000Z</time>
</trkpt>
<trkpt lat="45.8697320" lon="10.3067360">
	<ele>1746.80</ele>
	<time>2025-07-29T10:03:20.000Z</time>
</trkpt>
<trkpt lat="45.8697400" lon="10.3067320">
	<ele>1746.80</ele>
	<time>2025-07-29T10:03:21.000Z</time>
</trkpt>
<trkpt lat="45.8697500" lon="10.3067210">
	<ele>1746.60</ele>
	<time>2025-07-29T10:03:22.000Z</time>
</trkpt>
<trkpt lat="45.8697600" lon="10.3067160">
	<ele>1746.60</ele>
	<time>2025-07-29T10:03:23.000Z</time>
</trkpt>
<trkpt lat="45.8697660" lon="10.3067130">
	<ele>1746.40</ele>
	<time>2025-07-29T10:03:24.000Z</time>
</trkpt>
<trkpt lat="45.8697720" lon="10.3067110">
	<ele>1746.20</ele>
	<time>2025-07-29T10:03:25.000Z</time>
</trkpt>
<trkpt lat="45.8697800" lon="10.3067090">
	<ele>1746.20</ele>
	<time>2025-07-29T10:03:26.000Z</time>
</trkpt>
<trkpt lat="45.8697900" lon="10.3067080">
	<ele>1746.00</ele>
	<time>2025-07-29T10:03:27.000Z</time>
</trkpt>
<trkpt lat="45.8697970" lon="10.3067050">
	<ele>1746.00</ele>
	<time>2025-07-29T10:03:28.000Z</time>
</trkpt>
<trkpt lat="45.8698050" lon="10.3067040">
	<ele>1746.00</ele>
	<time>2025-07-29T10:03:29.000Z</time>
</trkpt>
<trkpt lat="45.8698120" lon="10.3067050">
	<ele>1746.00</ele>
	<time>2025-07-29T10:03:30.000Z</time>
</trkpt>
<trkpt lat="45.8698180" lon="10.3067030">
	<ele>1745.80</ele>
	<time>2025-07-29T10:03:31.000Z</time>
</trkpt>
<trkpt lat="45.8698280" lon="10.3067060">
	<ele>1745.80</ele>
	<time>2025-07-29T10:03:32.000Z</time>
</trkpt>
<trkpt lat="45.8698370" lon="10.3067050">
	<ele>1745.80</ele>
	<time>2025-07-29T10:03:33.000Z</time>
</trkpt>
<trkpt lat="45.8698450" lon="10.3067040">
	<ele>1745.60</ele>
	<time>2025-07-29T10:03:34.000Z</time>
</trkpt>
<trkpt lat="45.8698530" lon="10.3067060">
	<ele>1745.60</ele>
	<time>2025-07-29T10:03:35.000Z</time>
</trkpt>
<trkpt lat="45.8698620" lon="10.3067110">
	<ele>1745.40</ele>
	<time>2025-07-29T10:03:36.000Z</time>
</trkpt>
<trkpt lat="45.8698710" lon="10.3067130">
	<ele>1745.20</ele>
	<time>2025-07-29T10:03:37.000Z</time>
</trkpt>
<trkpt lat="45.8698780" lon="10.3067180">
	<ele>1745.00</ele>
	<time>2025-07-29T10:03:38.000Z</time>
</trkpt>
<trkpt lat="45.8698900" lon="10.3067160">
	<ele>1745.00</ele>
	<time>2025-07-29T10:03:39.000Z</time>
</trkpt>
<trkpt lat="45.8698990" lon="10.3067080">
	<ele>1744.80</ele>
	<time>2025-07-29T10:03:40.000Z</time>
</trkpt>
<trkpt lat="45.8699090" lon="10.3067050">
	<ele>1744.60</ele>
	<time>2025-07-29T10:03:41.000Z</time>
</trkpt>
<trkpt lat="45.8699210" lon="10.3067020">
	<ele>1744.60</ele>
	<time>2025-07-29T10:03:42.000Z</time>
</trkpt>
<trkpt lat="45.8699370" lon="10.3067040">
	<ele>1744.60</ele>
	<time>2025-07-29T10:03:43.000Z</time>
</trkpt>
<trkpt lat="45.8699480" lon="10.3066990">
	<ele>1744.60</ele>
	<time>2025-07-29T10:03:44.000Z</time>
</trkpt>
<trkpt lat="45.8699570" lon="10.3066890">
	<ele>1744.60</ele>
	<time>2025-07-29T10:03:45.000Z</time>
</trkpt>
<trkpt lat="45.8699670" lon="10.3066840">
	<ele>1744.60</ele>
	<time>2025-07-29T10:03:46.000Z</time>
</trkpt>
<trkpt lat="45.8699790" lon="10.3066840">
	<ele>1744.60</ele>
	<time>2025-07-29T10:03:47.000Z</time>
</trkpt>
<trkpt lat="45.8699900" lon="10.3066870">
	<ele>1744.60</ele>
	<time>2025-07-29T10:03:48.000Z</time>
</trkpt>
<trkpt lat="45.8700020" lon="10.3066910">
	<ele>1744.60</ele>
	<time>2025-07-29T10:03:49.000Z</time>
</trkpt>
<trkpt lat="45.8700150" lon="10.3066910">
	<ele>1744.60</ele>
	<time>2025-07-29T10:03:50.000Z</time>
</trkpt>
<trkpt lat="45.8700280" lon="10.3066890">
	<ele>1744.60</ele>
	<time>2025-07-29T10:03:51.000Z</time>
</trkpt>
<trkpt lat="45.8700400" lon="10.3066850">
	<ele>1744.40</ele>
	<time>2025-07-29T10:03:52.000Z</time>
</trkpt>
<trkpt lat="45.8700500" lon="10.3066810">
	<ele>1744.40</ele>
	<time>2025-07-29T10:03:53.000Z</time>
</trkpt>
<trkpt lat="45.8700590" lon="10.3066760">
	<ele>1744.20</ele>
	<time>2025-07-29T10:03:54.000Z</time>
</trkpt>
<trkpt lat="45.8700650" lon="10.3066740">
	<ele>1744.20</ele>
	<time>2025-07-29T10:03:55.000Z</time>
</trkpt>
<trkpt lat="45.8700720" lon="10.3066690">
	<ele>1744.20</ele>
	<time>2025-07-29T10:03:56.000Z</time>
</trkpt>
<trkpt lat="45.8700780" lon="10.3066630">
	<ele>1744.00</ele>
	<time>2025-07-29T10:03:57.000Z</time>
</trkpt>
<trkpt lat="45.8700860" lon="10.3066600">
	<ele>1743.80</ele>
	<time>2025-07-29T10:03:58.000Z</time>
</trkpt>
<trkpt lat="45.8700950" lon="10.3066580">
	<ele>1743.60</ele>
	<time>2025-07-29T10:03:59.000Z</time>
</trkpt>
<trkpt lat="45.8701040" lon="10.3066540">
	<ele>1743.60</ele>
	<time>2025-07-29T10:04:00.000Z</time>
</trkpt>
<trkpt lat="45.8701130" lon="10.3066500">
	<ele>1743.40</ele>
	<time>2025-07-29T10:04:01.000Z</time>
</trkpt>
<trkpt lat="45.8701200" lon="10.3066450">
	<ele>1743.20</ele>
	<time>2025-07-29T10:04:02.000Z</time>
</trkpt>
<trkpt lat="45.8701260" lon="10.3066360">
	<ele>1743.00</ele>
	<time>2025-07-29T10:04:03.000Z</time>
</trkpt>
<trkpt lat="45.8701330" lon="10.3066250">
	<ele>1743.00</ele>
	<time>2025-07-29T10:04:04.000Z</time>
</trkpt>
<trkpt lat="45.8701400" lon="10.3066120">
	<ele>1742.80</ele>
	<time>2025-07-29T10:04:05.000Z</time>
</trkpt>
<trkpt lat="45.8701460" lon="10.3066030">
	<ele>1742.60</ele>
	<time>2025-07-29T10:04:06.000Z</time>
</trkpt>
<trkpt lat="45.8701570" lon="10.3065970">
	<ele>1742.40</ele>
	<time>2025-07-29T10:04:07.000Z</time>
</trkpt>
<trkpt lat="45.8701660" lon="10.3065910">
	<ele>1742.20</ele>
	<time>2025-07-29T10:04:08.000Z</time>
</trkpt>
<trkpt lat="45.8701690" lon="10.3065830">
	<ele>1742.00</ele>
	<time>2025-07-29T10:04:09.000Z</time>
</trkpt>
<trkpt lat="45.8701690" lon="10.3065730">
	<ele>1741.80</ele>
	<time>2025-07-29T10:04:10.000Z</time>
</trkpt>
<trkpt lat="45.8701710" lon="10.3065660">
	<ele>1741.60</ele>
	<time>2025-07-29T10:04:11.000Z</time>
</trkpt>
<trkpt lat="45.8701740" lon="10.3065640">
	<ele>1741.20</ele>
	<time>2025-07-29T10:04:12.000Z</time>
</trkpt>
<trkpt lat="45.8701770" lon="10.3065560">
	<ele>1741.00</ele>
	<time>2025-07-29T10:04:13.000Z</time>
</trkpt>
<trkpt lat="45.8701810" lon="10.3065410">
	<ele>1740.80</ele>
	<time>2025-07-29T10:04:14.000Z</time>
</trkpt>
<trkpt lat="45.8701850" lon="10.3065230">
	<ele>1740.60</ele>
	<time>2025-07-29T10:04:15.000Z</time>
</trkpt>
<trkpt lat="45.8701890" lon="10.3065110">
	<ele>1740.40</ele>
	<time>2025-07-29T10:04:16.000Z</time>
</trkpt>
<trkpt lat="45.8701840" lon="10.3064960">
	<ele>1740.20</ele>
	<time>2025-07-29T10:04:17.000Z</time>
</trkpt>
<trkpt lat="45.8701770" lon="10.3064810">
	<ele>1740.20</ele>
	<time>2025-07-29T10:04:18.000Z</time>
</trkpt>
<trkpt lat="45.8701720" lon="10.3064760">
	<ele>1740.00</ele>
	<time>2025-07-29T10:04:19.000Z</time>
</trkpt>
<trkpt lat="45.8701680" lon="10.3064720">
	<ele>1740.00</ele>
	<time>2025-07-29T10:04:20.000Z</time>
</trkpt>
<trkpt lat="45.8701630" lon="10.3064710">
	<ele>1740.00</ele>
	<time>2025-07-29T10:04:21.000Z</time>
</trkpt>
<trkpt lat="45.8701580" lon="10.3064690">
	<ele>1739.80</ele>
	<time>2025-07-29T10:04:22.000Z</time>
</trkpt>
<trkpt lat="45.8701560" lon="10.3064690">
	<ele>1739.80</ele>
	<time>2025-07-29T10:04:23.000Z</time>
</trkpt>
<trkpt lat="45.8701550" lon="10.3064700">
	<ele>1739.80</ele>
	<time>2025-07-29T10:04:24.000Z</time>
</trkpt>
<trkpt lat="45.8701560" lon="10.3064690">
	<ele>1739.80</ele>
	<time>2025-07-29T10:04:25.000Z</time>
</trkpt>
<trkpt lat="45.8701570" lon="10.3064660">
	<ele>1739.80</ele>
	<time>2025-07-29T10:04:26.000Z</time>
</trkpt>
<trkpt lat="45.8701570" lon="10.3064630">
	<ele>1739.80</ele>
	<time>2025-07-29T10:04:27.000Z</time>
</trkpt>
<trkpt lat="45.8701550" lon="10.3064610">
	<ele>1739.80</ele>
	<time>2025-07-29T10:04:28.000Z</time>
</trkpt>
<trkpt lat="45.8701590" lon="10.3064490">
	<ele>1739.80</ele>
	<time>2025-07-29T10:04:29.000Z</time>
</trkpt>
<trkpt lat="45.8701580" lon="10.3064500">
	<ele>1739.80</ele>
	<time>2025-07-29T10:04:30.000Z</time>
</trkpt>
<trkpt lat="45.8701590" lon="10.3064490">
	<ele>1739.60</ele>
	<time>2025-07-29T10:04:31.000Z</time>
</trkpt>
<trkpt lat="45.8701650" lon="10.3064420">
	<ele>1739.60</ele>
	<time>2025-07-29T10:04:32.000Z</time>
</trkpt>
<trkpt lat="45.8701750" lon="10.3064350">
	<ele>1739.60</ele>
	<time>2025-07-29T10:04:33.000Z</time>
</trkpt>
<trkpt lat="45.8701770" lon="10.3064240">
	<ele>1739.60</ele>
	<time>2025-07-29T10:04:34.000Z</time>
</trkpt>
<trkpt lat="45.8701780" lon="10.3064130">
	<ele>1739.60</ele>
	<time>2025-07-29T10:04:35.000Z</time>
</trkpt>
<trkpt lat="45.8701780" lon="10.3064010">
	<ele>1739.40</ele>
	<time>2025-07-29T10:04:36.000Z</time>
</trkpt>
<trkpt lat="45.8701810" lon="10.3063860">
	<ele>1739.60</ele>
	<time>2025-07-29T10:04:37.000Z</time>
</trkpt>
<trkpt lat="45.8701920" lon="10.3063790">
	<ele>1739.40</ele>
	<time>2025-07-29T10:04:38.000Z</time>
</trkpt>
<trkpt lat="45.8702000" lon="10.3063730">
	<ele>1739.40</ele>
	<time>2025-07-29T10:04:39.000Z</time>
</trkpt>
<trkpt lat="45.8702070" lon="10.3063680">
	<ele>1739.40</ele>
	<time>2025-07-29T10:04:40.000Z</time>
</trkpt>
<trkpt lat="45.8702150" lon="10.3063610">
	<ele>1739.20</ele>
	<time>2025-07-29T10:04:41.000Z</time>
</trkpt>
<trkpt lat="45.8702240" lon="10.3063560">
	<ele>1739.20</ele>
	<time>2025-07-29T10:04:42.000Z</time>
</trkpt>
<trkpt lat="45.8702330" lon="10.3063460">
	<ele>1739.20</ele>
	<time>2025-07-29T10:04:43.000Z</time>
</trkpt>
<trkpt lat="45.8702400" lon="10.3063400">
	<ele>1739.00</ele>
	<time>2025-07-29T10:04:44.000Z</time>
</trkpt>
<trkpt lat="45.8702510" lon="10.3063320">
	<ele>1739.00</ele>
	<time>2025-07-29T10:04:45.000Z</time>
</trkpt>
<trkpt lat="45.8702640" lon="10.3063250">
	<ele>1738.60</ele>
	<time>2025-07-29T10:04:46.000Z</time>
</trkpt>
<trkpt lat="45.8702660" lon="10.3063150">
	<ele>1738.60</ele>
	<time>2025-07-29T10:04:47.000Z</time>
</trkpt>
<trkpt lat="45.8702700" lon="10.3063030">
	<ele>1738.40</ele>
	<time>2025-07-29T10:04:48.000Z</time>
</trkpt>
<trkpt lat="45.8702740" lon="10.3062930">
	<ele>1738.40</ele>
	<time>2025-07-29T10:04:49.000Z</time>
</trkpt>
<trkpt lat="45.8702780" lon="10.3062830">
	<ele>1738.20</ele>
	<time>2025-07-29T10:04:50.000Z</time>
</trkpt>
<trkpt lat="45.8702770" lon="10.3062660">
	<ele>1738.00</ele>
	<time>2025-07-29T10:04:51.000Z</time>
</trkpt>
<trkpt lat="45.8702760" lon="10.3062480">
	<ele>1737.60</ele>
	<time>2025-07-29T10:04:52.000Z</time>
</trkpt>
<trkpt lat="45.8702830" lon="10.3062380">
	<ele>1737.40</ele>
	<time>2025-07-29T10:04:53.000Z</time>
</trkpt>
<trkpt lat="45.8702900" lon="10.3062270">
	<ele>1737.20</ele>
	<time>2025-07-29T10:04:54.000Z</time>
</trkpt>
<trkpt lat="45.8702930" lon="10.3062190">
	<ele>1737.00</ele>
	<time>2025-07-29T10:04:55.000Z</time>
</trkpt>
<trkpt lat="45.8702940" lon="10.3062080">
	<ele>1736.80</ele>
	<time>2025-07-29T10:04:56.000Z</time>
</trkpt>
<trkpt lat="45.8702980" lon="10.3061960">
	<ele>1736.60</ele>
	<time>2025-07-29T10:04:57.000Z</time>
</trkpt>
<trkpt lat="45.8703020" lon="10.3061790">
	<ele>1736.20</ele>
	<time>2025-07-29T10:04:58.000Z</time>
</trkpt>
<trkpt lat="45.8703070" lon="10.3061600">
	<ele>1736.00</ele>
	<time>2025-07-29T10:04:59.000Z</time>
</trkpt>
<trkpt lat="45.8703140" lon="10.3061470">
	<ele>1735.80</ele>
	<time>2025-07-29T10:05:00.000Z</time>
</trkpt>
<trkpt lat="45.8703210" lon="10.3061300">
	<ele>1735.60</ele>
	<time>2025-07-29T10:05:01.000Z</time>
</trkpt>
<trkpt lat="45.8703270" lon="10.3061100">
	<ele>1735.20</ele>
	<time>2025-07-29T10:05:02.000Z</time>
</trkpt>
<trkpt lat="45.8703340" lon="10.3060940">
	<ele>1735.00</ele>
	<time>2025-07-29T10:05:03.000Z</time>
</trkpt>
<trkpt lat="45.8703400" lon="10.3060790">
	<ele>1734.80</ele>
	<time>2025-07-29T10:05:04.000Z</time>
</trkpt>
<trkpt lat="45.8703470" lon="10.3060630">
	<ele>1734.60</ele>
	<time>2025-07-29T10:05:05.000Z</time>
</trkpt>
<trkpt lat="45.8703530" lon="10.3060480">
	<ele>1734.40</ele>
	<time>2025-07-29T10:05:06.000Z</time>
</trkpt>
<trkpt lat="45.8703580" lon="10.3060390">
	<ele>1734.20</ele>
	<time>2025-07-29T10:05:07.000Z</time>
</trkpt>
<trkpt lat="45.8703670" lon="10.3060340">
	<ele>1734.00</ele>
	<time>2025-07-29T10:05:08.000Z</time>
</trkpt>
<trkpt lat="45.8703750" lon="10.3060250">
	<ele>1733.80</ele>
	<time>2025-07-29T10:05:09.000Z</time>
</trkpt>
<trkpt lat="45.8703830" lon="10.3060180">
	<ele>1733.80</ele>
	<time>2025-07-29T10:05:10.000Z</time>
</trkpt>
<trkpt lat="45.8703900" lon="10.3060110">
	<ele>1733.60</ele>
	<time>2025-07-29T10:05:11.000Z</time>
</trkpt>
<trkpt lat="45.8703900" lon="10.3060070">
	<ele>1733.40</ele>
	<time>2025-07-29T10:05:12.000Z</time>
</trkpt>
<trkpt lat="45.8703900" lon="10.3060070">
	<ele>1733.40</ele>
	<time>2025-07-29T10:05:13.000Z</time>
</trkpt>
<trkpt lat="45.8703900" lon="10.3060090">
	<ele>1733.40</ele>
	<time>2025-07-29T10:05:14.000Z</time>
</trkpt>
<trkpt lat="45.8703900" lon="10.3060100">
	<ele>1733.40</ele>
	<time>2025-07-29T10:05:15.000Z</time>
</trkpt>
<trkpt lat="45.8703890" lon="10.3060110">
	<ele>1733.40</ele>
	<time>2025-07-29T10:05:16.000Z</time>
</trkpt>
<trkpt lat="45.8703880" lon="10.3060110">
	<ele>1733.60</ele>
	<time>2025-07-29T10:05:17.000Z</time>
</trkpt>
<trkpt lat="45.8703880" lon="10.3060110">
	<ele>1733.60</ele>
	<time>2025-07-29T10:05:18.000Z</time>
</trkpt>
<trkpt lat="45.8703890" lon="10.3060110">
	<ele>1733.60</ele>
	<time>2025-07-29T10:05:19.000Z</time>
</trkpt>
<trkpt lat="45.8703920" lon="10.3060140">
	<ele>1733.60</ele>
	<time>2025-07-29T10:05:20.000Z</time>
</trkpt>
<trkpt lat="45.8703950" lon="10.3060150">
	<ele>1733.60</ele>
	<time>2025-07-29T10:05:21.000Z</time>
</trkpt>
<trkpt lat="45.8703970" lon="10.3060160">
	<ele>1733.60</ele>
	<time>2025-07-29T10:05:22.000Z</time>
</trkpt>
<trkpt lat="45.8703990" lon="10.3060170">
	<ele>1733.60</ele>
	<time>2025-07-29T10:05:23.000Z</time>
</trkpt>
<trkpt lat="45.8704000" lon="10.3060170">
	<ele>1733.40</ele>
	<time>2025-07-29T10:05:24.000Z</time>
</trkpt>
<trkpt lat="45.8704020" lon="10.3060190">
	<ele>1733.60</ele>
	<time>2025-07-29T10:05:25.000Z</time>
</trkpt>
<trkpt lat="45.8704020" lon="10.3060190">
	<ele>1733.60</ele>
	<time>2025-07-29T10:05:26.000Z</time>
</trkpt>
<trkpt lat="45.8704030" lon="10.3060170">
	<ele>1733.60</ele>
	<time>2025-07-29T10:05:27.000Z</time>
</trkpt>
<trkpt lat="45.8704030" lon="10.3060170">
	<ele>1733.60</ele>
	<time>2025-07-29T10:05:28.000Z</time>
</trkpt>
<trkpt lat="45.8704030" lon="10.3060170">
	<ele>1733.60</ele>
	<time>2025-07-29T10:05:29.000Z</time>
</trkpt>
<trkpt lat="45.8704030" lon="10.3060170">
	<ele>1733.40</ele>
	<time>2025-07-29T10:05:30.000Z</time>
</trkpt>
<trkpt lat="45.8704030" lon="10.3060170">
	<ele>1733.20</ele>
	<time>2025-07-29T10:05:31.000Z</time>
</trkpt>
<trkpt lat="45.8704060" lon="10.3060170">
	<ele>1733.20</ele>
	<time>2025-07-29T10:05:32.000Z</time>
</trkpt>
<trkpt lat="45.8704170" lon="10.3060130">
	<ele>1733.00</ele>
	<time>2025-07-29T10:05:33.000Z</time>
</trkpt>
<trkpt lat="45.8704320" lon="10.3060030">
	<ele>1732.80</ele>
	<time>2025-07-29T10:05:34.000Z</time>
</trkpt>
<trkpt lat="45.8704460" lon="10.3059930">
	<ele>1732.80</ele>
	<time>2025-07-29T10:05:35.000Z</time>
</trkpt>
<trkpt lat="45.8704560" lon="10.3059860">
	<ele>1732.60</ele>
	<time>2025-07-29T10:05:36.000Z</time>
</trkpt>
<trkpt lat="45.8704680" lon="10.3059820">
	<ele>1732.40</ele>
	<time>2025-07-29T10:05:37.000Z</time>
</trkpt>
<trkpt lat="45.8704820" lon="10.3059740">
	<ele>1732.20</ele>
	<time>2025-07-29T10:05:38.000Z</time>
</trkpt>
<trkpt lat="45.8704990" lon="10.3059700">
	<ele>1732.00</ele>
	<time>2025-07-29T10:05:39.000Z</time>
</trkpt>
<trkpt lat="45.8705130" lon="10.3059630">
	<ele>1731.60</ele>
	<time>2025-07-29T10:05:40.000Z</time>
</trkpt>
<trkpt lat="45.8705250" lon="10.3059570">
	<ele>1731.60</ele>
	<time>2025-07-29T10:05:41.000Z</time>
</trkpt>
<trkpt lat="45.8705300" lon="10.3059510">
	<ele>1731.40</ele>
	<time>2025-07-29T10:05:42.000Z</time>
</trkpt>
<trkpt lat="45.8705370" lon="10.3059460">
	<ele>1731.20</ele>
	<time>2025-07-29T10:05:43.000Z</time>
</trkpt>
<trkpt lat="45.8705440" lon="10.3059380">
	<ele>1731.00</ele>
	<time>2025-07-29T10:05:44.000Z</time>
</trkpt>
<trkpt lat="45.8705500" lon="10.3059350">
	<ele>1730.80</ele>
	<time>2025-07-29T10:05:45.000Z</time>
</trkpt>
<trkpt lat="45.8705570" lon="10.3059310">
	<ele>1730.40</ele>
	<time>2025-07-29T10:05:46.000Z</time>
</trkpt>
<trkpt lat="45.8705640" lon="10.3059280">
	<ele>1730.40</ele>
	<time>2025-07-29T10:05:47.000Z</time>
</trkpt>
<trkpt lat="45.8705750" lon="10.3059250">
	<ele>1730.20</ele>
	<time>2025-07-29T10:05:48.000Z</time>
</trkpt>
<trkpt lat="45.8705850" lon="10.3059190">
	<ele>1730.00</ele>
	<time>2025-07-29T10:05:49.000Z</time>
</trkpt>
<trkpt lat="45.8705940" lon="10.3059110">
	<ele>1730.00</ele>
	<time>2025-07-29T10:05:50.000Z</time>
</trkpt>
<trkpt lat="45.8706040" lon="10.3059070">
	<ele>1729.80</ele>
	<time>2025-07-29T10:05:51.000Z</time>
</trkpt>
<trkpt lat="45.8706140" lon="10.3059060">
	<ele>1729.20</ele>
	<time>2025-07-29T10:05:52.000Z</time>
</trkpt>
<trkpt lat="45.8706240" lon="10.3059060">
	<ele>1729.00</ele>
	<time>2025-07-29T10:05:53.000Z</time>
</trkpt>
<trkpt lat="45.8706350" lon="10.3059050">
	<ele>1728.80</ele>
	<time>2025-07-29T10:05:54.000Z</time>
</trkpt>
<trkpt lat="45.8706430" lon="10.3059030">
	<ele>1728.60</ele>
	<time>2025-07-29T10:05:55.000Z</time>
</trkpt>
<trkpt lat="45.8706480" lon="10.3059020">
	<ele>1728.40</ele>
	<time>2025-07-29T10:05:56.000Z</time>
</trkpt>
<trkpt lat="45.8706490" lon="10.3059040">
	<ele>1728.20</ele>
	<time>2025-07-29T10:05:57.000Z</time>
</trkpt>
<trkpt lat="45.8706570" lon="10.3059010">
	<ele>1728.20</ele>
	<time>2025-07-29T10:05:58.000Z</time>
</trkpt>
<trkpt lat="45.8706660" lon="10.3058980">
	<ele>1728.00</ele>
	<time>2025-07-29T10:05:59.000Z</time>
</trkpt>
<trkpt lat="45.8706700" lon="10.3058990">
	<ele>1727.60</ele>
	<time>2025-07-29T10:06:00.000Z</time>
</trkpt>
<trkpt lat="45.8706760" lon="10.3058970">
	<ele>1727.40</ele>
	<time>2025-07-29T10:06:01.000Z</time>
</trkpt>
<trkpt lat="45.8706800" lon="10.3058970">
	<ele>1727.40</ele>
	<time>2025-07-29T10:06:02.000Z</time>
</trkpt>
<trkpt lat="45.8706840" lon="10.3058970">
	<ele>1727.20</ele>
	<time>2025-07-29T10:06:03.000Z</time>
</trkpt>
<trkpt lat="45.8706930" lon="10.3059010">
	<ele>1727.20</ele>
	<time>2025-07-29T10:06:04.000Z</time>
</trkpt>
<trkpt lat="45.8707000" lon="10.3059030">
	<ele>1727.00</ele>
	<time>2025-07-29T10:06:05.000Z</time>
</trkpt>
<trkpt lat="45.8707030" lon="10.3058980">
	<ele>1726.80</ele>
	<time>2025-07-29T10:06:06.000Z</time>
</trkpt>
<trkpt lat="45.8707030" lon="10.3058960">
	<ele>1726.60</ele>
	<time>2025-07-29T10:06:07.000Z</time>
</trkpt>
<trkpt lat="45.8707070" lon="10.3058940">
	<ele>1726.40</ele>
	<time>2025-07-29T10:06:08.000Z</time>
</trkpt>
<trkpt lat="45.8707100" lon="10.3058910">
	<ele>1726.40</ele>
	<time>2025-07-29T10:06:09.000Z</time>
</trkpt>
<trkpt lat="45.8707140" lon="10.3058890">
	<ele>1726.20</ele>
	<time>2025-07-29T10:06:10.000Z</time>
</trkpt>
<trkpt lat="45.8707170" lon="10.3058920">
	<ele>1726.00</ele>
	<time>2025-07-29T10:06:11.000Z</time>
</trkpt>
<trkpt lat="45.8707230" lon="10.3058970">
	<ele>1726.00</ele>
	<time>2025-07-29T10:06:12.000Z</time>
</trkpt>
<trkpt lat="45.8707310" lon="10.3059010">
	<ele>1725.80</ele>
	<time>2025-07-29T10:06:13.000Z</time>
</trkpt>
<trkpt lat="45.8707400" lon="10.3059050">
	<ele>1725.80</ele>
	<time>2025-07-29T10:06:14.000Z</time>
</trkpt>
<trkpt lat="45.8707470" lon="10.3059040">
	<ele>1725.80</ele>
	<time>2025-07-29T10:06:15.000Z</time>
</trkpt>
<trkpt lat="45.8707480" lon="10.3059050">
	<ele>1725.40</ele>
	<time>2025-07-29T10:06:16.000Z</time>
</trkpt>
<trkpt lat="45.8707550" lon="10.3059080">
	<ele>1725.20</ele>
	<time>2025-07-29T10:06:17.000Z</time>
</trkpt>
<trkpt lat="45.8707620" lon="10.3059060">
	<ele>1725.20</ele>
	<time>2025-07-29T10:06:18.000Z</time>
</trkpt>
<trkpt lat="45.8707680" lon="10.3059100">
	<ele>1725.00</ele>
	<time>2025-07-29T10:06:19.000Z</time>
</trkpt>
<trkpt lat="45.8707730" lon="10.3059130">
	<ele>1724.80</ele>
	<time>2025-07-29T10:06:20.000Z</time>
</trkpt>
<trkpt lat="45.8707780" lon="10.3059140">
	<ele>1724.80</ele>
	<time>2025-07-29T10:06:21.000Z</time>
</trkpt>
<trkpt lat="45.8707840" lon="10.3059160">
	<ele>1724.60</ele>
	<time>2025-07-29T10:06:22.000Z</time>
</trkpt>
<trkpt lat="45.8707880" lon="10.3059210">
	<ele>1724.60</ele>
	<time>2025-07-29T10:06:23.000Z</time>
</trkpt>
<trkpt lat="45.8707940" lon="10.3059220">
	<ele>1724.40</ele>
	<time>2025-07-29T10:06:24.000Z</time>
</trkpt>
<trkpt lat="45.8708000" lon="10.3059240">
	<ele>1724.20</ele>
	<time>2025-07-29T10:06:25.000Z</time>
</trkpt>
<trkpt lat="45.8708060" lon="10.3059220">
	<ele>1724.00</ele>
	<time>2025-07-29T10:06:26.000Z</time>
</trkpt>
<trkpt lat="45.8708140" lon="10.3059140">
	<ele>1723.80</ele>
	<time>2025-07-29T10:06:27.000Z</time>
</trkpt>
<trkpt lat="45.8708220" lon="10.3059080">
	<ele>1723.60</ele>
	<time>2025-07-29T10:06:28.000Z</time>
</trkpt>
<trkpt lat="45.8708290" lon="10.3059020">
	<ele>1723.60</ele>
	<time>2025-07-29T10:06:29.000Z</time>
</trkpt>
<trkpt lat="45.8708370" lon="10.3058950">
	<ele>1723.40</ele>
	<time>2025-07-29T10:06:30.000Z</time>
</trkpt>
<trkpt lat="45.8708490" lon="10.3058940">
	<ele>1723.40</ele>
	<time>2025-07-29T10:06:31.000Z</time>
</trkpt>
<trkpt lat="45.8708590" lon="10.3058910">
	<ele>1723.20</ele>
	<time>2025-07-29T10:06:32.000Z</time>
</trkpt>
<trkpt lat="45.8708690" lon="10.3058840">
	<ele>1723.00</ele>
	<time>2025-07-29T10:06:33.000Z</time>
</trkpt>
<trkpt lat="45.8708740" lon="10.3058860">
	<ele>1722.80</ele>
	<time>2025-07-29T10:06:34.000Z</time>
</trkpt>
<trkpt lat="45.8708780" lon="10.3058910">
	<ele>1722.80</ele>
	<time>2025-07-29T10:06:35.000Z</time>
</trkpt>
<trkpt lat="45.8708860" lon="10.3058920">
	<ele>1722.60</ele>
	<time>2025-07-29T10:06:36.000Z</time>
</trkpt>
<trkpt lat="45.8708940" lon="10.3058960">
	<ele>1722.40</ele>
	<time>2025-07-29T10:06:37.000Z</time>
</trkpt>
<trkpt lat="45.8709000" lon="10.3059030">
	<ele>1722.40</ele>
	<time>2025-07-29T10:06:38.000Z</time>
</trkpt>
<trkpt lat="45.8709040" lon="10.3059060">
	<ele>1722.20</ele>
	<time>2025-07-29T10:06:39.000Z</time>
</trkpt>
<trkpt lat="45.8709110" lon="10.3059020">
	<ele>1722.20</ele>
	<time>2025-07-29T10:06:40.000Z</time>
</trkpt>
<trkpt lat="45.8709190" lon="10.3058950">
	<ele>1722.00</ele>
	<time>2025-07-29T10:06:41.000Z</time>
</trkpt>
<trkpt lat="45.8709250" lon="10.3058940">
	<ele>1722.00</ele>
	<time>2025-07-29T10:06:42.000Z</time>
</trkpt>
<trkpt lat="45.8709330" lon="10.3058900">
	<ele>1721.80</ele>
	<time>2025-07-29T10:06:43.000Z</time>
</trkpt>
<trkpt lat="45.8709410" lon="10.3058910">
	<ele>1721.80</ele>
	<time>2025-07-29T10:06:44.000Z</time>
</trkpt>
<trkpt lat="45.8709490" lon="10.3058880">
	<ele>1721.60</ele>
	<time>2025-07-29T10:06:45.000Z</time>
</trkpt>
<trkpt lat="45.8709560" lon="10.3058780">
	<ele>1721.40</ele>
	<time>2025-07-29T10:06:46.000Z</time>
</trkpt>
<trkpt lat="45.8709610" lon="10.3058720">
	<ele>1721.40</ele>
	<time>2025-07-29T10:06:47.000Z</time>
</trkpt>
<trkpt lat="45.8709670" lon="10.3058650">
	<ele>1721.20</ele>
	<time>2025-07-29T10:06:48.000Z</time>
</trkpt>
<trkpt lat="45.8709750" lon="10.3058620">
	<ele>1721.00</ele>
	<time>2025-07-29T10:06:49.000Z</time>
</trkpt>
<trkpt lat="45.8709850" lon="10.3058610">
	<ele>1721.00</ele>
	<time>2025-07-29T10:06:50.000Z</time>
</trkpt>
<trkpt lat="45.8709930" lon="10.3058560">
	<ele>1720.80</ele>
	<time>2025-07-29T10:06:51.000Z</time>
</trkpt>
<trkpt lat="45.8710000" lon="10.3058490">
	<ele>1720.80</ele>
	<time>2025-07-29T10:06:52.000Z</time>
</trkpt>
<trkpt lat="45.8710080" lon="10.3058450">
	<ele>1720.60</ele>
	<time>2025-07-29T10:06:53.000Z</time>
</trkpt>
<trkpt lat="45.8710170" lon="10.3058430">
	<ele>1720.40</ele>
	<time>2025-07-29T10:06:54.000Z</time>
</trkpt>
<trkpt lat="45.8710230" lon="10.3058410">
	<ele>1720.40</ele>
	<time>2025-07-29T10:06:55.000Z</time>
</trkpt>
<trkpt lat="45.8710290" lon="10.3058430">
	<ele>1720.20</ele>
	<time>2025-07-29T10:06:56.000Z</time>
</trkpt>
<trkpt lat="45.8710370" lon="10.3058520">
	<ele>1720.00</ele>
	<time>2025-07-29T10:06:57.000Z</time>
</trkpt>
<trkpt lat="45.8710430" lon="10.3058610">
	<ele>1719.80</ele>
	<time>2025-07-29T10:06:58.000Z</time>
</trkpt>
<trkpt lat="45.8710500" lon="10.3058670">
	<ele>1719.80</ele>
	<time>2025-07-29T10:06:59.000Z</time>
</trkpt>
<trkpt lat="45.8710590" lon="10.3058730">
	<ele>1719.60</ele>
	<time>2025-07-29T10:07:00.000Z</time>
</trkpt>
<trkpt lat="45.8710660" lon="10.3058720">
	<ele>1719.40</ele>
	<time>2025-07-29T10:07:01.000Z</time>
</trkpt>
<trkpt lat="45.8710700" lon="10.3058700">
	<ele>1719.40</ele>
	<time>2025-07-29T10:07:02.000Z</time>
</trkpt>
<trkpt lat="45.8710770" lon="10.3058670">
	<ele>1719.20</ele>
	<time>2025-07-29T10:07:03.000Z</time>
</trkpt>
<trkpt lat="45.8710860" lon="10.3058660">
	<ele>1719.00</ele>
	<time>2025-07-29T10:07:04.000Z</time>
</trkpt>
<trkpt lat="45.8710920" lon="10.3058630">
	<ele>1719.00</ele>
	<time>2025-07-29T10:07:05.000Z</time>
</trkpt>
<trkpt lat="45.8711010" lon="10.3058630">
	<ele>1718.60</ele>
	<time>2025-07-29T10:07:06.000Z</time>
</trkpt>
<trkpt lat="45.8711080" lon="10.3058700">
	<ele>1718.20</ele>
	<time>2025-07-29T10:07:07.000Z</time>
</trkpt>
<trkpt lat="45.8711130" lon="10.3058760">
	<ele>1718.00</ele>
	<time>2025-07-29T10:07:08.000Z</time>
</trkpt>
<trkpt lat="45.8711200" lon="10.3058800">
	<ele>1717.80</ele>
	<time>2025-07-29T10:07:09.000Z</time>
</trkpt>
<trkpt lat="45.8711270" lon="10.3058870">
	<ele>1717.60</ele>
	<time>2025-07-29T10:07:10.000Z</time>
</trkpt>
<trkpt lat="45.8711320" lon="10.3058900">
	<ele>1717.60</ele>
	<time>2025-07-29T10:07:11.000Z</time>
</trkpt>
<trkpt lat="45.8711340" lon="10.3058910">
	<ele>1717.60</ele>
	<time>2025-07-29T10:07:12.000Z</time>
</trkpt>
<trkpt lat="45.8711370" lon="10.3058930">
	<ele>1717.40</ele>
	<time>2025-07-29T10:07:13.000Z</time>
</trkpt>
<trkpt lat="45.8711400" lon="10.3058920">
	<ele>1717.40</ele>
	<time>2025-07-29T10:07:14.000Z</time>
</trkpt>
<trkpt lat="45.8711420" lon="10.3058940">
	<ele>1717.20</ele>
	<time>2025-07-29T10:07:15.000Z</time>
</trkpt>
<trkpt lat="45.8711490" lon="10.3058920">
	<ele>1717.00</ele>
	<time>2025-07-29T10:07:16.000Z</time>
</trkpt>
<trkpt lat="45.8711560" lon="10.3058940">
	<ele>1717.00</ele>
	<time>2025-07-29T10:07:17.000Z</time>
</trkpt>
<trkpt lat="45.8711620" lon="10.3058910">
	<ele>1716.80</ele>
	<time>2025-07-29T10:07:18.000Z</time>
</trkpt>
<trkpt lat="45.8711660" lon="10.3058900">
	<ele>1716.80</ele>
	<time>2025-07-29T10:07:19.000Z</time>
</trkpt>
<trkpt lat="45.8711710" lon="10.3058900">
	<ele>1716.60</ele>
	<time>2025-07-29T10:07:20.000Z</time>
</trkpt>
<trkpt lat="45.8711780" lon="10.3058890">
	<ele>1716.60</ele>
	<time>2025-07-29T10:07:21.000Z</time>
</trkpt>
<trkpt lat="45.8711860" lon="10.3058870">
	<ele>1716.40</ele>
	<time>2025-07-29T10:07:22.000Z</time>
</trkpt>
<trkpt lat="45.8711930" lon="10.3058850">
	<ele>1716.20</ele>
	<time>2025-07-29T10:07:23.000Z</time>
</trkpt>
<trkpt lat="45.8711980" lon="10.3058830">
	<ele>1716.20</ele>
	<time>2025-07-29T10:07:24.000Z</time>
</trkpt>
<trkpt lat="45.8712050" lon="10.3058770">
	<ele>1716.20</ele>
	<time>2025-07-29T10:07:25.000Z</time>
</trkpt>
<trkpt lat="45.8712150" lon="10.3058750">
	<ele>1716.00</ele>
	<time>2025-07-29T10:07:26.000Z</time>
</trkpt>
<trkpt lat="45.8712270" lon="10.3058760">
	<ele>1716.00</ele>
	<time>2025-07-29T10:07:27.000Z</time>
</trkpt>
<trkpt lat="45.8712390" lon="10.3058820">
	<ele>1715.80</ele>
	<time>2025-07-29T10:07:28.000Z</time>
</trkpt>
<trkpt lat="45.8712490" lon="10.3058840">
	<ele>1715.80</ele>
	<time>2025-07-29T10:07:29.000Z</time>
</trkpt>
<trkpt lat="45.8712550" lon="10.3058850">
	<ele>1715.80</ele>
	<time>2025-07-29T10:07:30.000Z</time>
</trkpt>
<trkpt lat="45.8712610" lon="10.3058820">
	<ele>1715.60</ele>
	<time>2025-07-29T10:07:31.000Z</time>
</trkpt>
<trkpt lat="45.8712690" lon="10.3058810">
	<ele>1715.60</ele>
	<time>2025-07-29T10:07:32.000Z</time>
</trkpt>
<trkpt lat="45.8712760" lon="10.3058880">
	<ele>1715.40</ele>
	<time>2025-07-29T10:07:33.000Z</time>
</trkpt>
<trkpt lat="45.8712910" lon="10.3058920">
	<ele>1715.20</ele>
	<time>2025-07-29T10:07:34.000Z</time>
</trkpt>
<trkpt lat="45.8713040" lon="10.3058870">
	<ele>1715.00</ele>
	<time>2025-07-29T10:07:35.000Z</time>
</trkpt>
<trkpt lat="45.8713100" lon="10.3058810">
	<ele>1714.80</ele>
	<time>2025-07-29T10:07:36.000Z</time>
</trkpt>
<trkpt lat="45.8713190" lon="10.3058830">
	<ele>1714.60</ele>
	<time>2025-07-29T10:07:37.000Z</time>
</trkpt>
<trkpt lat="45.8713200" lon="10.3058780">
	<ele>1714.40</ele>
	<time>2025-07-29T10:07:38.000Z</time>
</trkpt>
<trkpt lat="45.8713240" lon="10.3058680">
	<ele>1714.20</ele>
	<time>2025-07-29T10:07:39.000Z</time>
</trkpt>
<trkpt lat="45.8713310" lon="10.3058680">
	<ele>1714.00</ele>
	<time>2025-07-29T10:07:40.000Z</time>
</trkpt>
<trkpt lat="45.8713410" lon="10.3058690">
	<ele>1713.80</ele>
	<time>2025-07-29T10:07:41.000Z</time>
</trkpt>
<trkpt lat="45.8713510" lon="10.3058640">
	<ele>1713.60</ele>
	<time>2025-07-29T10:07:42.000Z</time>
</trkpt>
<trkpt lat="45.8713630" lon="10.3058620">
	<ele>1713.60</ele>
	<time>2025-07-29T10:07:43.000Z</time>
</trkpt>
<trkpt lat="45.8713770" lon="10.3058620">
	<ele>1713.20</ele>
	<time>2025-07-29T10:07:44.000Z</time>
</trkpt>
<trkpt lat="45.8713810" lon="10.3058440">
	<ele>1713.00</ele>
	<time>2025-07-29T10:07:45.000Z</time>
</trkpt>
<trkpt lat="45.8713880" lon="10.3058350">
	<ele>1712.80</ele>
	<time>2025-07-29T10:07:46.000Z</time>
</trkpt>
<trkpt lat="45.8713920" lon="10.3058260">
	<ele>1712.60</ele>
	<time>2025-07-29T10:07:47.000Z</time>
</trkpt>
<trkpt lat="45.8713990" lon="10.3058190">
	<ele>1712.60</ele>
	<time>2025-07-29T10:07:48.000Z</time>
</trkpt>
<trkpt lat="45.8714080" lon="10.3058170">
	<ele>1712.40</ele>
	<time>2025-07-29T10:07:49.000Z</time>
</trkpt>
<trkpt lat="45.8714100" lon="10.3058130">
	<ele>1712.20</ele>
	<time>2025-07-29T10:07:50.000Z</time>
</trkpt>
<trkpt lat="45.8714140" lon="10.3058160">
	<ele>1712.00</ele>
	<time>2025-07-29T10:07:51.000Z</time>
</trkpt>
<trkpt lat="45.8714180" lon="10.3058190">
	<ele>1712.00</ele>
	<time>2025-07-29T10:07:52.000Z</time>
</trkpt>
<trkpt lat="45.8714270" lon="10.3058200">
	<ele>1711.60</ele>
	<time>2025-07-29T10:07:53.000Z</time>
</trkpt>
<trkpt lat="45.8714330" lon="10.3058150">
	<ele>1711.40</ele>
	<time>2025-07-29T10:07:54.000Z</time>
</trkpt>
<trkpt lat="45.8714370" lon="10.3058030">
	<ele>1711.20</ele>
	<time>2025-07-29T10:07:55.000Z</time>
</trkpt>
<trkpt lat="45.8714400" lon="10.3057910">
	<ele>1711.00</ele>
	<time>2025-07-29T10:07:56.000Z</time>
</trkpt>
<trkpt lat="45.8714420" lon="10.3057770">
	<ele>1711.00</ele>
	<time>2025-07-29T10:07:57.000Z</time>
</trkpt>
<trkpt lat="45.8714470" lon="10.3057660">
	<ele>1710.80</ele>
	<time>2025-07-29T10:07:58.000Z</time>
</trkpt>
<trkpt lat="45.8714510" lon="10.3057560">
	<ele>1710.60</ele>
	<time>2025-07-29T10:07:59.000Z</time>
</trkpt>
<trkpt lat="45.8714490" lon="10.3057490">
	<ele>1710.40</ele>
	<time>2025-07-29T10:08:00.000Z</time>
</trkpt>
<trkpt lat="45.8714520" lon="10.3057410">
	<ele>1710.40</ele>
	<time>2025-07-29T10:08:01.000Z</time>
</trkpt>
<trkpt lat="45.8714610" lon="10.3057370">
	<ele>1710.20</ele>
	<time>2025-07-29T10:08:02.000Z</time>
</trkpt>
<trkpt lat="45.8714700" lon="10.3057340">
	<ele>1710.00</ele>
	<time>2025-07-29T10:08:03.000Z</time>
</trkpt>
<trkpt lat="45.8714800" lon="10.3057280">
	<ele>1710.00</ele>
	<time>2025-07-29T10:08:04.000Z</time>
</trkpt>
<trkpt lat="45.8714850" lon="10.3057130">
	<ele>1709.80</ele>
	<time>2025-07-29T10:08:05.000Z</time>
</trkpt>
<trkpt lat="45.8714960" lon="10.3057110">
	<ele>1709.60</ele>
	<time>2025-07-29T10:08:06.000Z</time>
</trkpt>
<trkpt lat="45.8715010" lon="10.3057060">
	<ele>1709.40</ele>
	<time>2025-07-29T10:08:07.000Z</time>
</trkpt>
<trkpt lat="45.8715080" lon="10.3057060">
	<ele>1709.20</ele>
	<time>2025-07-29T10:08:08.000Z</time>
</trkpt>
<trkpt lat="45.8715100" lon="10.3057030">
	<ele>1709.20</ele>
	<time>2025-07-29T10:08:09.000Z</time>
</trkpt>
<trkpt lat="45.8715110" lon="10.3057030">
	<ele>1709.00</ele>
	<time>2025-07-29T10:08:10.000Z</time>
</trkpt>
<trkpt lat="45.8715200" lon="10.3057080">
	<ele>1708.80</ele>
	<time>2025-07-29T10:08:11.000Z</time>
</trkpt>
<trkpt lat="45.8715290" lon="10.3057080">
	<ele>1708.60</ele>
	<time>2025-07-29T10:08:12.000Z</time>
</trkpt>
<trkpt lat="45.8715380" lon="10.3057110">
	<ele>1708.40</ele>
	<time>2025-07-29T10:08:13.000Z</time>
</trkpt>
<trkpt lat="45.8715470" lon="10.3057150">
	<ele>1708.20</ele>
	<time>2025-07-29T10:08:14.000Z</time>
</trkpt>
<trkpt lat="45.8715530" lon="10.3057150">
	<ele>1708.00</ele>
	<time>2025-07-29T10:08:15.000Z</time>
</trkpt>
<trkpt lat="45.8715560" lon="10.3057070">
	<ele>1707.80</ele>
	<time>2025-07-29T10:08:16.000Z</time>
</trkpt>
<trkpt lat="45.8715690" lon="10.3057070">
	<ele>1707.80</ele>
	<time>2025-07-29T10:08:17.000Z</time>
</trkpt>
<trkpt lat="45.8715790" lon="10.3057080">
	<ele>1707.60</ele>
	<time>2025-07-29T10:08:18.000Z</time>
</trkpt>
<trkpt lat="45.8715860" lon="10.3057080">
	<ele>1707.60</ele>
	<time>2025-07-29T10:08:19.000Z</time>
</trkpt>
<trkpt lat="45.8715920" lon="10.3057070">
	<ele>1707.40</ele>
	<time>2025-07-29T10:08:20.000Z</time>
</trkpt>
<trkpt lat="45.8716020" lon="10.3057130">
	<ele>1707.20</ele>
	<time>2025-07-29T10:08:21.000Z</time>
</trkpt>
<trkpt lat="45.8716130" lon="10.3057210">
	<ele>1707.00</ele>
	<time>2025-07-29T10:08:22.000Z</time>
</trkpt>
<trkpt lat="45.8716200" lon="10.3057240">
	<ele>1707.00</ele>
	<time>2025-07-29T10:08:23.000Z</time>
</trkpt>
<trkpt lat="45.8716260" lon="10.3057220">
	<ele>1706.80</ele>
	<time>2025-07-29T10:08:24.000Z</time>
</trkpt>
<trkpt lat="45.8716330" lon="10.3057140">
	<ele>1706.80</ele>
	<time>2025-07-29T10:08:25.000Z</time>
</trkpt>
<trkpt lat="45.8716380" lon="10.3057040">
	<ele>1706.80</ele>
	<time>2025-07-29T10:08:26.000Z</time>
</trkpt>
<trkpt lat="45.8716460" lon="10.3056990">
	<ele>1706.60</ele>
	<time>2025-07-29T10:08:27.000Z</time>
</trkpt>
<trkpt lat="45.8716510" lon="10.3056920">
	<ele>1706.60</ele>
	<time>2025-07-29T10:08:28.000Z</time>
</trkpt>
<trkpt lat="45.8716550" lon="10.3056890">
	<ele>1706.60</ele>
	<time>2025-07-29T10:08:29.000Z</time>
</trkpt>
<trkpt lat="45.8716620" lon="10.3056850">
	<ele>1706.40</ele>
	<time>2025-07-29T10:08:30.000Z</time>
</trkpt>
<trkpt lat="45.8716710" lon="10.3056800">
	<ele>1706.40</ele>
	<time>2025-07-29T10:08:31.000Z</time>
</trkpt>
<trkpt lat="45.8716790" lon="10.3056770">
	<ele>1706.20</ele>
	<time>2025-07-29T10:08:32.000Z</time>
</trkpt>
<trkpt lat="45.8716870" lon="10.3056770">
	<ele>1706.20</ele>
	<time>2025-07-29T10:08:33.000Z</time>
</trkpt>
<trkpt lat="45.8716950" lon="10.3056760">
	<ele>1706.00</ele>
	<time>2025-07-29T10:08:34.000Z</time>
</trkpt>
<trkpt lat="45.8717040" lon="10.3056790">
	<ele>1706.00</ele>
	<time>2025-07-29T10:08:35.000Z</time>
</trkpt>
<trkpt lat="45.8717100" lon="10.3056850">
	<ele>1705.80</ele>
	<time>2025-07-29T10:08:36.000Z</time>
</trkpt>
<trkpt lat="45.8717160" lon="10.3056770">
	<ele>1705.80</ele>
	<time>2025-07-29T10:08:37.000Z</time>
</trkpt>
<trkpt lat="45.8717220" lon="10.3056690">
	<ele>1705.80</ele>
	<time>2025-07-29T10:08:38.000Z</time>
</trkpt>
<trkpt lat="45.8717340" lon="10.3056630">
	<ele>1705.60</ele>
	<time>2025-07-29T10:08:39.000Z</time>
</trkpt>
<trkpt lat="45.8717460" lon="10.3056600">
	<ele>1705.40</ele>
	<time>2025-07-29T10:08:40.000Z</time>
</trkpt>
<trkpt lat="45.8717540" lon="10.3056620">
	<ele>1705.40</ele>
	<time>2025-07-29T10:08:41.000Z</time>
</trkpt>
<trkpt lat="45.8717620" lon="10.3056660">
	<ele>1705.20</ele>
	<time>2025-07-29T10:08:42.000Z</time>
</trkpt>
<trkpt lat="45.8717700" lon="10.3056700">
	<ele>1705.20</ele>
	<time>2025-07-29T10:08:43.000Z</time>
</trkpt>
<trkpt lat="45.8717780" lon="10.3056680">
	<ele>1704.80</ele>
	<time>2025-07-29T10:08:44.000Z</time>
</trkpt>
<trkpt lat="45.8717850" lon="10.3056720">
	<ele>1704.60</ele>
	<time>2025-07-29T10:08:45.000Z</time>
</trkpt>
<trkpt lat="45.8717860" lon="10.3056810">
	<ele>1704.40</ele>
	<time>2025-07-29T10:08:46.000Z</time>
</trkpt>
<trkpt lat="45.8717880" lon="10.3056830">
	<ele>1704.20</ele>
	<time>2025-07-29T10:08:47.000Z</time>
</trkpt>
<trkpt lat="45.8717890" lon="10.3056850">
	<ele>1704.00</ele>
	<time>2025-07-29T10:08:48.000Z</time>
</trkpt>
<trkpt lat="45.8717890" lon="10.3056870">
	<ele>1704.00</ele>
	<time>2025-07-29T10:08:49.000Z</time>
</trkpt>
<trkpt lat="45.8717890" lon="10.3056900">
	<ele>1703.80</ele>
	<time>2025-07-29T10:08:50.000Z</time>
</trkpt>
<trkpt lat="45.8717880" lon="10.3056920">
	<ele>1703.80</ele>
	<time>2025-07-29T10:08:51.000Z</time>
</trkpt>
<trkpt lat="45.8717860" lon="10.3056920">
	<ele>1703.80</ele>
	<time>2025-07-29T10:08:52.000Z</time>
</trkpt>
<trkpt lat="45.8717870" lon="10.3056900">
	<ele>1703.80</ele>
	<time>2025-07-29T10:08:53.000Z</time>
</trkpt>
<trkpt lat="45.8717860" lon="10.3056890">
	<ele>1704.00</ele>
	<time>2025-07-29T10:08:54.000Z</time>
</trkpt>
<trkpt lat="45.8717870" lon="10.3056910">
	<ele>1704.00</ele>
	<time>2025-07-29T10:08:55.000Z</time>
</trkpt>
<trkpt lat="45.8717880" lon="10.3056910">
	<ele>1704.00</ele>
	<time>2025-07-29T10:08:56.000Z</time>
</trkpt>
<trkpt lat="45.8717880" lon="10.3056910">
	<ele>1704.00</ele>
	<time>2025-07-29T10:08:57.000Z</time>
</trkpt>
<trkpt lat="45.8717880" lon="10.3056910">
	<ele>1704.00</ele>
	<time>2025-07-29T10:08:58.000Z</time>
</trkpt>
<trkpt lat="45.8717880" lon="10.3056910">
	<ele>1704.00</ele>
	<time>2025-07-29T10:08:59.000Z</time>
</trkpt>
<trkpt lat="45.8717880" lon="10.3056910">
	<ele>1704.00</ele>
	<time>2025-07-29T10:09:00.000Z</time>
</trkpt>
<trkpt lat="45.8717880" lon="10.3056910">
	<ele>1704.00</ele>
	<time>2025-07-29T10:09:01.000Z</time>
</trkpt>
<trkpt lat="45.8717880" lon="10.3056910">
	<ele>1703.80</ele>
	<time>2025-07-29T10:09:02.000Z</time>
</trkpt>
<trkpt lat="45.8717880" lon="10.3056910">
	<ele>1703.60</ele>
	<time>2025-07-29T10:09:03.000Z</time>
</trkpt>
<trkpt lat="45.8717880" lon="10.3056910">
	<ele>1703.60</ele>
	<time>2025-07-29T10:09:04.000Z</time>
</trkpt>
<trkpt lat="45.8717880" lon="10.3056910">
	<ele>1703.60</ele>
	<time>2025-07-29T10:09:05.000Z</time>
</trkpt>
<trkpt lat="45.8717880" lon="10.3056910">
	<ele>1703.40</ele>
	<time>2025-07-29T10:09:06.000Z</time>
</trkpt>
<trkpt lat="45.8717910" lon="10.3056940">
	<ele>1703.20</ele>
	<time>2025-07-29T10:09:07.000Z</time>
</trkpt>
<trkpt lat="45.8717970" lon="10.3057010">
	<ele>1703.20</ele>
	<time>2025-07-29T10:09:08.000Z</time>
</trkpt>
<trkpt lat="45.8718050" lon="10.3057100">
	<ele>1703.00</ele>
	<time>2025-07-29T10:09:09.000Z</time>
</trkpt>
<trkpt lat="45.8718140" lon="10.3057110">
	<ele>1702.80</ele>
	<time>2025-07-29T10:09:10.000Z</time>
</trkpt>
<trkpt lat="45.8718220" lon="10.3057100">
	<ele>1702.80</ele>
	<time>2025-07-29T10:09:11.000Z</time>
</trkpt>
<trkpt lat="45.8718340" lon="10.3057110">
	<ele>1702.60</ele>
	<time>2025-07-29T10:09:12.000Z</time>
</trkpt>
<trkpt lat="45.8718470" lon="10.3057120">
	<ele>1702.40</ele>
	<time>2025-07-29T10:09:13.000Z</time>
</trkpt>
<trkpt lat="45.8718580" lon="10.3057150">
	<ele>1702.20</ele>
	<time>2025-07-29T10:09:14.000Z</time>
</trkpt>
<trkpt lat="45.8718690" lon="10.3057190">
	<ele>1702.20</ele>
	<time>2025-07-29T10:09:15.000Z</time>
</trkpt>
<trkpt lat="45.8718790" lon="10.3057210">
	<ele>1702.00</ele>
	<time>2025-07-29T10:09:16.000Z</time>
</trkpt>
<trkpt lat="45.8718860" lon="10.3057170">
	<ele>1702.00</ele>
	<time>2025-07-29T10:09:17.000Z</time>
</trkpt>
<trkpt lat="45.8718940" lon="10.3057150">
	<ele>1701.80</ele>
	<time>2025-07-29T10:09:18.000Z</time>
</trkpt>
<trkpt lat="45.8719000" lon="10.3057140">
	<ele>1701.80</ele>
	<time>2025-07-29T10:09:19.000Z</time>
</trkpt>
<trkpt lat="45.8719090" lon="10.3057090">
	<ele>1701.80</ele>
	<time>2025-07-29T10:09:20.000Z</time>
</trkpt>
<trkpt lat="45.8719170" lon="10.3057110">
	<ele>1701.60</ele>
	<time>2025-07-29T10:09:21.000Z</time>
</trkpt>
<trkpt lat="45.8719230" lon="10.3057240">
	<ele>1701.40</ele>
	<time>2025-07-29T10:09:22.000Z</time>
</trkpt>
<trkpt lat="45.8719270" lon="10.3057300">
	<ele>1701.20</ele>
	<time>2025-07-29T10:09:23.000Z</time>
</trkpt>
<trkpt lat="45.8719340" lon="10.3057320">
	<ele>1701.20</ele>
	<time>2025-07-29T10:09:24.000Z</time>
</trkpt>
<trkpt lat="45.8719340" lon="10.3057380">
	<ele>1701.00</ele>
	<time>2025-07-29T10:09:25.000Z</time>
</trkpt>
<trkpt lat="45.8719390" lon="10.3057430">
	<ele>1701.00</ele>
	<time>2025-07-29T10:09:26.000Z</time>
</trkpt>
<trkpt lat="45.8719490" lon="10.3057380">
	<ele>1700.80</ele>
	<time>2025-07-29T10:09:27.000Z</time>
</trkpt>
<trkpt lat="45.8719560" lon="10.3057390">
	<ele>1700.60</ele>
	<time>2025-07-29T10:09:28.000Z</time>
</trkpt>
<trkpt lat="45.8719590" lon="10.3057400">
	<ele>1700.60</ele>
	<time>2025-07-29T10:09:29.000Z</time>
</trkpt>
<trkpt lat="45.8719660" lon="10.3057460">
	<ele>1700.40</ele>
	<time>2025-07-29T10:09:30.000Z</time>
</trkpt>
<trkpt lat="45.8719730" lon="10.3057480">
	<ele>1700.20</ele>
	<time>2025-07-29T10:09:31.000Z</time>
</trkpt>
<trkpt lat="45.8719800" lon="10.3057530">
	<ele>1700.20</ele>
	<time>2025-07-29T10:09:32.000Z</time>
</trkpt>
<trkpt lat="45.8719880" lon="10.3057600">
	<ele>1699.80</ele>
	<time>2025-07-29T10:09:33.000Z</time>
</trkpt>
<trkpt lat="45.8719980" lon="10.3057690">
	<ele>1699.60</ele>
	<time>2025-07-29T10:09:34.000Z</time>
</trkpt>
<trkpt lat="45.8720090" lon="10.3057750">
	<ele>1699.20</ele>
	<time>2025-07-29T10:09:35.000Z</time>
</trkpt>
<trkpt lat="45.8720240" lon="10.3057680">
	<ele>1699.00</ele>
	<time>2025-07-29T10:09:36.000Z</time>
</trkpt>
<trkpt lat="45.8720340" lon="10.3057680">
	<ele>1698.80</ele>
	<time>2025-07-29T10:09:37.000Z</time>
</trkpt>
<trkpt lat="45.8720460" lon="10.3057630">
	<ele>1698.60</ele>
	<time>2025-07-29T10:09:38.000Z</time>
</trkpt>
<trkpt lat="45.8720560" lon="10.3057680">
	<ele>1698.60</ele>
	<time>2025-07-29T10:09:39.000Z</time>
</trkpt>
<trkpt lat="45.8720670" lon="10.3057780">
	<ele>1698.40</ele>
	<time>2025-07-29T10:09:40.000Z</time>
</trkpt>
<trkpt lat="45.8720790" lon="10.3057870">
	<ele>1698.40</ele>
	<time>2025-07-29T10:09:41.000Z</time>
</trkpt>
<trkpt lat="45.8720870" lon="10.3058010">
	<ele>1698.20</ele>
	<time>2025-07-29T10:09:42.000Z</time>
</trkpt>
<trkpt lat="45.8720920" lon="10.3058100">
	<ele>1697.80</ele>
	<time>2025-07-29T10:09:43.000Z</time>
</trkpt>
<trkpt lat="45.8721020" lon="10.3058130">
	<ele>1697.60</ele>
	<time>2025-07-29T10:09:44.000Z</time>
</trkpt>
<trkpt lat="45.8721100" lon="10.3058170">
	<ele>1697.40</ele>
	<time>2025-07-29T10:09:45.000Z</time>
</trkpt>
<trkpt lat="45.8721200" lon="10.3058150">
	<ele>1697.20</ele>
	<time>2025-07-29T10:09:46.000Z</time>
</trkpt>
<trkpt lat="45.8721310" lon="10.3058080">
	<ele>1696.80</ele>
	<time>2025-07-29T10:09:47.000Z</time>
</trkpt>
<trkpt lat="45.8721380" lon="10.3058040">
	<ele>1696.80</ele>
	<time>2025-07-29T10:09:48.000Z</time>
</trkpt>
<trkpt lat="45.8721490" lon="10.3058040">
	<ele>1696.60</ele>
	<time>2025-07-29T10:09:49.000Z</time>
</trkpt>
<trkpt lat="45.8721660" lon="10.3058010">
	<ele>1696.40</ele>
	<time>2025-07-29T10:09:50.000Z</time>
</trkpt>
<trkpt lat="45.8721800" lon="10.3058070">
	<ele>1696.20</ele>
	<time>2025-07-29T10:09:51.000Z</time>
</trkpt>
<trkpt lat="45.8721910" lon="10.3058130">
	<ele>1696.00</ele>
	<time>2025-07-29T10:09:52.000Z</time>
</trkpt>
<trkpt lat="45.8722050" lon="10.3058110">
	<ele>1695.80</ele>
	<time>2025-07-29T10:09:53.000Z</time>
</trkpt>
<trkpt lat="45.8722170" lon="10.3058090">
	<ele>1695.60</ele>
	<time>2025-07-29T10:09:54.000Z</time>
</trkpt>
<trkpt lat="45.8722300" lon="10.3058060">
	<ele>1695.40</ele>
	<time>2025-07-29T10:09:55.000Z</time>
</trkpt>
<trkpt lat="45.8722390" lon="10.3058070">
	<ele>1695.40</ele>
	<time>2025-07-29T10:09:56.000Z</time>
</trkpt>
<trkpt lat="45.8722500" lon="10.3058110">
	<ele>1695.20</ele>
	<time>2025-07-29T10:09:57.000Z</time>
</trkpt>
<trkpt lat="45.8722610" lon="10.3058120">
	<ele>1694.80</ele>
	<time>2025-07-29T10:09:58.000Z</time>
</trkpt>
<trkpt lat="45.8722710" lon="10.3058140">
	<ele>1694.80</ele>
	<time>2025-07-29T10:09:59.000Z</time>
</trkpt>
<trkpt lat="45.8722790" lon="10.3058150">
	<ele>1694.40</ele>
	<time>2025-07-29T10:10:00.000Z</time>
</trkpt>
<trkpt lat="45.8722890" lon="10.3058120">
	<ele>1694.20</ele>
	<time>2025-07-29T10:10:01.000Z</time>
</trkpt>
<trkpt lat="45.8722980" lon="10.3058080">
	<ele>1693.80</ele>
	<time>2025-07-29T10:10:02.000Z</time>
</trkpt>
<trkpt lat="45.8723110" lon="10.3058100">
	<ele>1693.80</ele>
	<time>2025-07-29T10:10:03.000Z</time>
</trkpt>
<trkpt lat="45.8723190" lon="10.3058140">
	<ele>1693.40</ele>
	<time>2025-07-29T10:10:04.000Z</time>
</trkpt>
<trkpt lat="45.8723300" lon="10.3058160">
	<ele>1693.40</ele>
	<time>2025-07-29T10:10:05.000Z</time>
</trkpt>
<trkpt lat="45.8723450" lon="10.3058160">
	<ele>1693.20</ele>
	<time>2025-07-29T10:10:06.000Z</time>
</trkpt>
<trkpt lat="45.8723610" lon="10.3058120">
	<ele>1693.00</ele>
	<time>2025-07-29T10:10:07.000Z</time>
</trkpt>
<trkpt lat="45.8723690" lon="10.3058080">
	<ele>1692.80</ele>
	<time>2025-07-29T10:10:08.000Z</time>
</trkpt>
<trkpt lat="45.8723760" lon="10.3058050">
	<ele>1692.60</ele>
	<time>2025-07-29T10:10:09.000Z</time>
</trkpt>
<trkpt lat="45.8723910" lon="10.3058040">
	<ele>1692.40</ele>
	<time>2025-07-29T10:10:10.000Z</time>
</trkpt>
<trkpt lat="45.8724080" lon="10.3057960">
	<ele>1692.20</ele>
	<time>2025-07-29T10:10:11.000Z</time>
</trkpt>
<trkpt lat="45.8724320" lon="10.3058010">
	<ele>1691.80</ele>
	<time>2025-07-29T10:10:12.000Z</time>
</trkpt>
<trkpt lat="45.8724420" lon="10.3058010">
	<ele>1691.80</ele>
	<time>2025-07-29T10:10:13.000Z</time>
</trkpt>
<trkpt lat="45.8724510" lon="10.3058090">
	<ele>1691.60</ele>
	<time>2025-07-29T10:10:14.000Z</time>
</trkpt>
<trkpt lat="45.8724590" lon="10.3058120">
	<ele>1691.40</ele>
	<time>2025-07-29T10:10:15.000Z</time>
</trkpt>
<trkpt lat="45.8724660" lon="10.3058160">
	<ele>1691.40</ele>
	<time>2025-07-29T10:10:16.000Z</time>
</trkpt>
<trkpt lat="45.8724780" lon="10.3058150">
	<ele>1691.00</ele>
	<time>2025-07-29T10:10:17.000Z</time>
</trkpt>
<trkpt lat="45.8724930" lon="10.3058170">
	<ele>1690.80</ele>
	<time>2025-07-29T10:10:18.000Z</time>
</trkpt>
<trkpt lat="45.8725030" lon="10.3058190">
	<ele>1690.80</ele>
	<time>2025-07-29T10:10:19.000Z</time>
</trkpt>
<trkpt lat="45.8725130" lon="10.3058310">
	<ele>1690.80</ele>
	<time>2025-07-29T10:10:20.000Z</time>
</trkpt>
<trkpt lat="45.8725180" lon="10.3058440">
	<ele>1690.40</ele>
	<time>2025-07-29T10:10:21.000Z</time>
</trkpt>
<trkpt lat="45.8725280" lon="10.3058530">
	<ele>1690.40</ele>
	<time>2025-07-29T10:10:22.000Z</time>
</trkpt>
<trkpt lat="45.8725410" lon="10.3058530">
	<ele>1690.20</ele>
	<time>2025-07-29T10:10:23.000Z</time>
</trkpt>
<trkpt lat="45.8725510" lon="10.3058510">
	<ele>1689.80</ele>
	<time>2025-07-29T10:10:24.000Z</time>
</trkpt>
<trkpt lat="45.8725670" lon="10.3058450">
	<ele>1689.60</ele>
	<time>2025-07-29T10:10:25.000Z</time>
</trkpt>
<trkpt lat="45.8725820" lon="10.3058460">
	<ele>1689.40</ele>
	<time>2025-07-29T10:10:26.000Z</time>
</trkpt>
<trkpt lat="45.8725910" lon="10.3058490">
	<ele>1689.20</ele>
	<time>2025-07-29T10:10:27.000Z</time>
</trkpt>
<trkpt lat="45.8726050" lon="10.3058560">
	<ele>1689.00</ele>
	<time>2025-07-29T10:10:28.000Z</time>
</trkpt>
<trkpt lat="45.8726190" lon="10.3058640">
	<ele>1688.80</ele>
	<time>2025-07-29T10:10:29.000Z</time>
</trkpt>
<trkpt lat="45.8726330" lon="10.3058710">
	<ele>1688.40</ele>
	<time>2025-07-29T10:10:30.000Z</time>
</trkpt>
<trkpt lat="45.8726460" lon="10.3058700">
	<ele>1688.20</ele>
	<time>2025-07-29T10:10:31.000Z</time>
</trkpt>
<trkpt lat="45.8726580" lon="10.3058580">
	<ele>1688.00</ele>
	<time>2025-07-29T10:10:32.000Z</time>
</trkpt>
<trkpt lat="45.8726690" lon="10.3058600">
	<ele>1687.80</ele>
	<time>2025-07-29T10:10:33.000Z</time>
</trkpt>
<trkpt lat="45.8726830" lon="10.3058590">
	<ele>1687.60</ele>
	<time>2025-07-29T10:10:34.000Z</time>
</trkpt>
<trkpt lat="45.8726950" lon="10.3058620">
	<ele>1687.60</ele>
	<time>2025-07-29T10:10:35.000Z</time>
</trkpt>
<trkpt lat="45.8727060" lon="10.3058600">
	<ele>1687.20</ele>
	<time>2025-07-29T10:10:36.000Z</time>
</trkpt>
<trkpt lat="45.8727230" lon="10.3058620">
	<ele>1687.20</ele>
	<time>2025-07-29T10:10:37.000Z</time>
</trkpt>
<trkpt lat="45.8727390" lon="10.3058570">
	<ele>1686.80</ele>
	<time>2025-07-29T10:10:38.000Z</time>
</trkpt>
<trkpt lat="45.8727530" lon="10.3058530">
	<ele>1686.60</ele>
	<time>2025-07-29T10:10:39.000Z</time>
</trkpt>
<trkpt lat="45.8727660" lon="10.3058510">
	<ele>1686.40</ele>
	<time>2025-07-29T10:10:40.000Z</time>
</trkpt>
<trkpt lat="45.8727790" lon="10.3058510">
	<ele>1686.20</ele>
	<time>2025-07-29T10:10:41.000Z</time>
</trkpt>
<trkpt lat="45.8727920" lon="10.3058470">
	<ele>1686.00</ele>
	<time>2025-07-29T10:10:42.000Z</time>
</trkpt>
<trkpt lat="45.8728060" lon="10.3058420">
	<ele>1685.80</ele>
	<time>2025-07-29T10:10:43.000Z</time>
</trkpt>
<trkpt lat="45.8728200" lon="10.3058380">
	<ele>1685.60</ele>
	<time>2025-07-29T10:10:44.000Z</time>
</trkpt>
<trkpt lat="45.8728320" lon="10.3058350">
	<ele>1685.20</ele>
	<time>2025-07-29T10:10:45.000Z</time>
</trkpt>
<trkpt lat="45.8728450" lon="10.3058340">
	<ele>1685.00</ele>
	<time>2025-07-29T10:10:46.000Z</time>
</trkpt>
<trkpt lat="45.8728570" lon="10.3058400">
	<ele>1684.80</ele>
	<time>2025-07-29T10:10:47.000Z</time>
</trkpt>
<trkpt lat="45.8728700" lon="10.3058450">
	<ele>1684.60</ele>
	<time>2025-07-29T10:10:48.000Z</time>
</trkpt>
<trkpt lat="45.8728840" lon="10.3058460">
	<ele>1684.60</ele>
	<time>2025-07-29T10:10:49.000Z</time>
</trkpt>
<trkpt lat="45.8728970" lon="10.3058450">
	<ele>1684.40</ele>
	<time>2025-07-29T10:10:50.000Z</time>
</trkpt>
<trkpt lat="45.8729100" lon="10.3058470">
	<ele>1684.20</ele>
	<time>2025-07-29T10:10:51.000Z</time>
</trkpt>
<trkpt lat="45.8729250" lon="10.3058460">
	<ele>1684.00</ele>
	<time>2025-07-29T10:10:52.000Z</time>
</trkpt>
<trkpt lat="45.8729410" lon="10.3058450">
	<ele>1683.80</ele>
	<time>2025-07-29T10:10:53.000Z</time>
</trkpt>
<trkpt lat="45.8729560" lon="10.3058420">
	<ele>1683.40</ele>
	<time>2025-07-29T10:10:54.000Z</time>
</trkpt>
<trkpt lat="45.8729670" lon="10.3058390">
	<ele>1683.20</ele>
	<time>2025-07-29T10:10:55.000Z</time>
</trkpt>
<trkpt lat="45.8729720" lon="10.3058330">
	<ele>1683.20</ele>
	<time>2025-07-29T10:10:56.000Z</time>
</trkpt>
<trkpt lat="45.8729730" lon="10.3058310">
	<ele>1683.00</ele>
	<time>2025-07-29T10:10:57.000Z</time>
</trkpt>
<trkpt lat="45.8729670" lon="10.3058260">
	<ele>1683.00</ele>
	<time>2025-07-29T10:10:58.000Z</time>
</trkpt>
<trkpt lat="45.8729610" lon="10.3058280">
	<ele>1683.00</ele>
	<time>2025-07-29T10:10:59.000Z</time>
</trkpt>
<trkpt lat="45.8729540" lon="10.3058150">
	<ele>1683.00</ele>
	<time>2025-07-29T10:11:00.000Z</time>
</trkpt>
<trkpt lat="45.8729510" lon="10.3058160">
	<ele>1683.00</ele>
	<time>2025-07-29T10:11:01.000Z</time>
</trkpt>
<trkpt lat="45.8729470" lon="10.3058100">
	<ele>1683.00</ele>
	<time>2025-07-29T10:11:02.000Z</time>
</trkpt>
<trkpt lat="45.8729430" lon="10.3058110">
	<ele>1683.20</ele>
	<time>2025-07-29T10:11:03.000Z</time>
</trkpt>
<trkpt lat="45.8729420" lon="10.3058120">
	<ele>1683.20</ele>
	<time>2025-07-29T10:11:04.000Z</time>
</trkpt>
<trkpt lat="45.8729390" lon="10.3058130">
	<ele>1683.20</ele>
	<time>2025-07-29T10:11:05.000Z</time>
</trkpt>
<trkpt lat="45.8729290" lon="10.3058240">
	<ele>1683.20</ele>
	<time>2025-07-29T10:11:06.000Z</time>
</trkpt>
<trkpt lat="45.8729140" lon="10.3058260">
	<ele>1683.20</ele>
	<time>2025-07-29T10:11:07.000Z</time>
</trkpt>
<trkpt lat="45.8729030" lon="10.3058300">
	<ele>1683.20</ele>
	<time>2025-07-29T10:11:08.000Z</time>
</trkpt>
<trkpt lat="45.8729130" lon="10.3058350">
	<ele>1683.20</ele>
	<time>2025-07-29T10:11:09.000Z</time>
</trkpt>
<trkpt lat="45.8729480" lon="10.3058440">
	<ele>1683.20</ele>
	<time>2025-07-29T10:11:10.000Z</time>
</trkpt>
<trkpt lat="45.8729720" lon="10.3058440">
	<ele>1683.00</ele>
	<time>2025-07-29T10:11:11.000Z</time>
</trkpt>
<trkpt lat="45.8729970" lon="10.3058390">
	<ele>1682.80</ele>
	<time>2025-07-29T10:11:12.000Z</time>
</trkpt>
<trkpt lat="45.8730100" lon="10.3058380">
	<ele>1682.80</ele>
	<time>2025-07-29T10:11:13.000Z</time>
</trkpt>
<trkpt lat="45.8730250" lon="10.3058370">
	<ele>1682.60</ele>
	<time>2025-07-29T10:11:14.000Z</time>
</trkpt>
<trkpt lat="45.8730350" lon="10.3058290">
	<ele>1682.40</ele>
	<time>2025-07-29T10:11:15.000Z</time>
</trkpt>
<trkpt lat="45.8730450" lon="10.3058150">
	<ele>1682.20</ele>
	<time>2025-07-29T10:11:16.000Z</time>
</trkpt>
<trkpt lat="45.8730550" lon="10.3058040">
	<ele>1682.20</ele>
	<time>2025-07-29T10:11:17.000Z</time>
</trkpt>
<trkpt lat="45.8730650" lon="10.3057950">
	<ele>1682.20</ele>
	<time>2025-07-29T10:11:18.000Z</time>
</trkpt>
<trkpt lat="45.8730770" lon="10.3057880">
	<ele>1682.20</ele>
	<time>2025-07-29T10:11:19.000Z</time>
</trkpt>
<trkpt lat="45.8730860" lon="10.3057770">
	<ele>1681.80</ele>
	<time>2025-07-29T10:11:20.000Z</time>
</trkpt>
<trkpt lat="45.8730930" lon="10.3057680">
	<ele>1681.60</ele>
	<time>2025-07-29T10:11:21.000Z</time>
</trkpt>
<trkpt lat="45.8731010" lon="10.3057560">
	<ele>1681.60</ele>
	<time>2025-07-29T10:11:22.000Z</time>
</trkpt>
<trkpt lat="45.8731060" lon="10.3057380">
	<ele>1681.40</ele>
	<time>2025-07-29T10:11:23.000Z</time>
</trkpt>
<trkpt lat="45.8731080" lon="10.3057230">
	<ele>1681.20</ele>
	<time>2025-07-29T10:11:24.000Z</time>
</trkpt>
<trkpt lat="45.8731120" lon="10.3057070">
	<ele>1681.00</ele>
	<time>2025-07-29T10:11:25.000Z</time>
</trkpt>
<trkpt lat="45.8731120" lon="10.3056920">
	<ele>1680.80</ele>
	<time>2025-07-29T10:11:26.000Z</time>
</trkpt>
<trkpt lat="45.8731140" lon="10.3056790">
	<ele>1680.60</ele>
	<time>2025-07-29T10:11:27.000Z</time>
</trkpt>
<trkpt lat="45.8731140" lon="10.3056660">
	<ele>1680.60</ele>
	<time>2025-07-29T10:11:28.000Z</time>
</trkpt>
<trkpt lat="45.8731180" lon="10.3056570">
	<ele>1680.40</ele>
	<time>2025-07-29T10:11:29.000Z</time>
</trkpt>
<trkpt lat="45.8731250" lon="10.3056460">
	<ele>1680.20</ele>
	<time>2025-07-29T10:11:30.000Z</time>
</trkpt>
<trkpt lat="45.8731340" lon="10.3056350">
	<ele>1679.80</ele>
	<time>2025-07-29T10:11:31.000Z</time>
</trkpt>
<trkpt lat="45.8731380" lon="10.3056240">
	<ele>1679.80</ele>
	<time>2025-07-29T10:11:32.000Z</time>
</trkpt>
<trkpt lat="45.8731440" lon="10.3056110">
	<ele>1679.60</ele>
	<time>2025-07-29T10:11:33.000Z</time>
</trkpt>
<trkpt lat="45.8731490" lon="10.3056010">
	<ele>1679.40</ele>
	<time>2025-07-29T10:11:34.000Z</time>
</trkpt>
<trkpt lat="45.8731550" lon="10.3055910">
	<ele>1679.00</ele>
	<time>2025-07-29T10:11:35.000Z</time>
</trkpt>
<trkpt lat="45.8731600" lon="10.3055740">
	<ele>1678.80</ele>
	<time>2025-07-29T10:11:36.000Z</time>
</trkpt>
<trkpt lat="45.8731650" lon="10.3055690">
	<ele>1678.60</ele>
	<time>2025-07-29T10:11:37.000Z</time>
</trkpt>
<trkpt lat="45.8731670" lon="10.3055590">
	<ele>1678.60</ele>
	<time>2025-07-29T10:11:38.000Z</time>
</trkpt>
<trkpt lat="45.8731740" lon="10.3055490">
	<ele>1678.40</ele>
	<time>2025-07-29T10:11:39.000Z</time>
</trkpt>
<trkpt lat="45.8731780" lon="10.3055320">
	<ele>1678.20</ele>
	<time>2025-07-29T10:11:40.000Z</time>
</trkpt>
<trkpt lat="45.8731830" lon="10.3055200">
	<ele>1677.80</ele>
	<time>2025-07-29T10:11:41.000Z</time>
</trkpt>
<trkpt lat="45.8731840" lon="10.3055090">
	<ele>1677.80</ele>
	<time>2025-07-29T10:11:42.000Z</time>
</trkpt>
<trkpt lat="45.8731890" lon="10.3054980">
	<ele>1677.60</ele>
	<time>2025-07-29T10:11:43.000Z</time>
</trkpt>
<trkpt lat="45.8731940" lon="10.3054910">
	<ele>1677.40</ele>
	<time>2025-07-29T10:11:44.000Z</time>
</trkpt>
<trkpt lat="45.8732040" lon="10.3054850">
	<ele>1677.40</ele>
	<time>2025-07-29T10:11:45.000Z</time>
</trkpt>
<trkpt lat="45.8732080" lon="10.3054810">
	<ele>1677.20</ele>
	<time>2025-07-29T10:11:46.000Z</time>
</trkpt>
<trkpt lat="45.8732140" lon="10.3054780">
	<ele>1677.20</ele>
	<time>2025-07-29T10:11:47.000Z</time>
</trkpt>
<trkpt lat="45.8732210" lon="10.3054750">
	<ele>1677.00</ele>
	<time>2025-07-29T10:11:48.000Z</time>
</trkpt>
<trkpt lat="45.8732320" lon="10.3054750">
	<ele>1676.80</ele>
	<time>2025-07-29T10:11:49.000Z</time>
</trkpt>
<trkpt lat="45.8732400" lon="10.3054730">
	<ele>1676.60</ele>
	<time>2025-07-29T10:11:50.000Z</time>
</trkpt>
<trkpt lat="45.8732470" lon="10.3054700">
	<ele>1676.40</ele>
	<time>2025-07-29T10:11:51.000Z</time>
</trkpt>
<trkpt lat="45.8732560" lon="10.3054720">
	<ele>1676.20</ele>
	<time>2025-07-29T10:11:52.000Z</time>
</trkpt>
<trkpt lat="45.8732650" lon="10.3054730">
	<ele>1676.20</ele>
	<time>2025-07-29T10:11:53.000Z</time>
</trkpt>
<trkpt lat="45.8732730" lon="10.3054700">
	<ele>1676.00</ele>
	<time>2025-07-29T10:11:54.000Z</time>
</trkpt>
<trkpt lat="45.8732840" lon="10.3054700">
	<ele>1675.60</ele>
	<time>2025-07-29T10:11:55.000Z</time>
</trkpt>
<trkpt lat="45.8732930" lon="10.3054710">
	<ele>1675.40</ele>
	<time>2025-07-29T10:11:56.000Z</time>
</trkpt>
<trkpt lat="45.8733030" lon="10.3054740">
	<ele>1675.20</ele>
	<time>2025-07-29T10:11:57.000Z</time>
</trkpt>
<trkpt lat="45.8733120" lon="10.3054730">
	<ele>1675.00</ele>
	<time>2025-07-29T10:11:58.000Z</time>
</trkpt>
<trkpt lat="45.8733210" lon="10.3054690">
	<ele>1674.80</ele>
	<time>2025-07-29T10:11:59.000Z</time>
</trkpt>
<trkpt lat="45.8733330" lon="10.3054760">
	<ele>1674.60</ele>
	<time>2025-07-29T10:12:00.000Z</time>
</trkpt>
<trkpt lat="45.8733440" lon="10.3054810">
	<ele>1674.20</ele>
	<time>2025-07-29T10:12:01.000Z</time>
</trkpt>
<trkpt lat="45.8733560" lon="10.3054780">
	<ele>1674.00</ele>
	<time>2025-07-29T10:12:02.000Z</time>
</trkpt>
<trkpt lat="45.8733680" lon="10.3054800">
	<ele>1674.00</ele>
	<time>2025-07-29T10:12:03.000Z</time>
</trkpt>
<trkpt lat="45.8733780" lon="10.3054830">
	<ele>1673.80</ele>
	<time>2025-07-29T10:12:04.000Z</time>
</trkpt>
<trkpt lat="45.8733850" lon="10.3054760">
	<ele>1673.60</ele>
	<time>2025-07-29T10:12:05.000Z</time>
</trkpt>
<trkpt lat="45.8733910" lon="10.3054730">
	<ele>1673.60</ele>
	<time>2025-07-29T10:12:06.000Z</time>
</trkpt>
<trkpt lat="45.8733940" lon="10.3054690">
	<ele>1673.40</ele>
	<time>2025-07-29T10:12:07.000Z</time>
</trkpt>
<trkpt lat="45.8734000" lon="10.3054700">
	<ele>1673.40</ele>
	<time>2025-07-29T10:12:08.000Z</time>
</trkpt>
<trkpt lat="45.8734040" lon="10.3054690">
	<ele>1673.20</ele>
	<time>2025-07-29T10:12:09.000Z</time>
</trkpt>
<trkpt lat="45.8734010" lon="10.3054720">
	<ele>1672.80</ele>
	<time>2025-07-29T10:12:10.000Z</time>
</trkpt>
<trkpt lat="45.8734090" lon="10.3054800">
	<ele>1672.60</ele>
	<time>2025-07-29T10:12:11.000Z</time>
</trkpt>
<trkpt lat="45.8734210" lon="10.3054830">
	<ele>1672.60</ele>
	<time>2025-07-29T10:12:12.000Z</time>
</trkpt>
<trkpt lat="45.8734300" lon="10.3054820">
	<ele>1672.40</ele>
	<time>2025-07-29T10:12:13.000Z</time>
</trkpt>
<trkpt lat="45.8734390" lon="10.3054740">
	<ele>1672.00</ele>
	<time>2025-07-29T10:12:14.000Z</time>
</trkpt>
<trkpt lat="45.8734470" lon="10.3054710">
	<ele>1671.80</ele>
	<time>2025-07-29T10:12:15.000Z</time>
</trkpt>
<trkpt lat="45.8734570" lon="10.3054690">
	<ele>1671.60</ele>
	<time>2025-07-29T10:12:16.000Z</time>
</trkpt>
<trkpt lat="45.8734670" lon="10.3054640">
	<ele>1671.60</ele>
	<time>2025-07-29T10:12:17.000Z</time>
</trkpt>
<trkpt lat="45.8734780" lon="10.3054620">
	<ele>1671.40</ele>
	<time>2025-07-29T10:12:18.000Z</time>
</trkpt>
<trkpt lat="45.8734850" lon="10.3054600">
	<ele>1671.20</ele>
	<time>2025-07-29T10:12:19.000Z</time>
</trkpt>
<trkpt lat="45.8734950" lon="10.3054570">
	<ele>1671.00</ele>
	<time>2025-07-29T10:12:20.000Z</time>
</trkpt>
<trkpt lat="45.8735030" lon="10.3054510">
	<ele>1670.80</ele>
	<time>2025-07-29T10:12:21.000Z</time>
</trkpt>
<trkpt lat="45.8735110" lon="10.3054440">
	<ele>1670.60</ele>
	<time>2025-07-29T10:12:22.000Z</time>
</trkpt>
<trkpt lat="45.8735190" lon="10.3054380">
	<ele>1670.20</ele>
	<time>2025-07-29T10:12:23.000Z</time>
</trkpt>
<trkpt lat="45.8735280" lon="10.3054340">
	<ele>1670.00</ele>
	<time>2025-07-29T10:12:24.000Z</time>
</trkpt>
<trkpt lat="45.8735360" lon="10.3054320">
	<ele>1669.80</ele>
	<time>2025-07-29T10:12:25.000Z</time>
</trkpt>
<trkpt lat="45.8735430" lon="10.3054260">
	<ele>1669.60</ele>
	<time>2025-07-29T10:12:26.000Z</time>
</trkpt>
<trkpt lat="45.8735510" lon="10.3054200">
	<ele>1669.60</ele>
	<time>2025-07-29T10:12:27.000Z</time>
</trkpt>
<trkpt lat="45.8735600" lon="10.3054130">
	<ele>1669.20</ele>
	<time>2025-07-29T10:12:28.000Z</time>
</trkpt>
<trkpt lat="45.8735680" lon="10.3054070">
	<ele>1669.00</ele>
	<time>2025-07-29T10:12:29.000Z</time>
</trkpt>
<trkpt lat="45.8735770" lon="10.3054040">
	<ele>1668.80</ele>
	<time>2025-07-29T10:12:30.000Z</time>
</trkpt>
<trkpt lat="45.8735870" lon="10.3053980">
	<ele>1668.40</ele>
	<time>2025-07-29T10:12:31.000Z</time>
</trkpt>
<trkpt lat="45.8735980" lon="10.3053970">
	<ele>1668.20</ele>
	<time>2025-07-29T10:12:32.000Z</time>
</trkpt>
<trkpt lat="45.8736120" lon="10.3053960">
	<ele>1668.00</ele>
	<time>2025-07-29T10:12:33.000Z</time>
</trkpt>
<trkpt lat="45.8736210" lon="10.3053970">
	<ele>1667.80</ele>
	<time>2025-07-29T10:12:34.000Z</time>
</trkpt>
<trkpt lat="45.8736330" lon="10.3054010">
	<ele>1667.40</ele>
	<time>2025-07-29T10:12:35.000Z</time>
</trkpt>
<trkpt lat="45.8736390" lon="10.3054040">
	<ele>1667.20</ele>
	<time>2025-07-29T10:12:36.000Z</time>
</trkpt>
<trkpt lat="45.8736410" lon="10.3054050">
	<ele>1667.00</ele>
	<time>2025-07-29T10:12:37.000Z</time>
</trkpt>
<trkpt lat="45.8736440" lon="10.3054060">
	<ele>1667.00</ele>
	<time>2025-07-29T10:12:38.000Z</time>
</trkpt>
<trkpt lat="45.8736460" lon="10.3054060">
	<ele>1666.80</ele>
	<time>2025-07-29T10:12:39.000Z</time>
</trkpt>
<trkpt lat="45.8736490" lon="10.3054060">
	<ele>1666.80</ele>
	<time>2025-07-29T10:12:40.000Z</time>
</trkpt>
<trkpt lat="45.8736490" lon="10.3054050">
	<ele>1666.80</ele>
	<time>2025-07-29T10:12:41.000Z</time>
</trkpt>
<trkpt lat="45.8736470" lon="10.3054050">
	<ele>1666.80</ele>
	<time>2025-07-29T10:12:42.000Z</time>
</trkpt>
<trkpt lat="45.8736570" lon="10.3054040">
	<ele>1666.80</ele>
	<time>2025-07-29T10:12:43.000Z</time>
</trkpt>
<trkpt lat="45.8736540" lon="10.3054040">
	<ele>1666.80</ele>
	<time>2025-07-29T10:12:44.000Z</time>
</trkpt>
<trkpt lat="45.8736520" lon="10.3054050">
	<ele>1666.80</ele>
	<time>2025-07-29T10:12:45.000Z</time>
</trkpt>
<trkpt lat="45.8736510" lon="10.3054060">
	<ele>1666.80</ele>
	<time>2025-07-29T10:12:46.000Z</time>
</trkpt>
<trkpt lat="45.8736500" lon="10.3054060">
	<ele>1666.80</ele>
	<time>2025-07-29T10:12:47.000Z</time>
</trkpt>
<trkpt lat="45.8736480" lon="10.3054060">
	<ele>1666.80</ele>
	<time>2025-07-29T10:12:48.000Z</time>
</trkpt>
<trkpt lat="45.8736470" lon="10.3054090">
	<ele>1666.80</ele>
	<time>2025-07-29T10:12:49.000Z</time>
</trkpt>
<trkpt lat="45.8736460" lon="10.3054090">
	<ele>1666.80</ele>
	<time>2025-07-29T10:12:50.000Z</time>
</trkpt>
<trkpt lat="45.8736440" lon="10.3054120">
	<ele>1666.80</ele>
	<time>2025-07-29T10:12:51.000Z</time>
</trkpt>
<trkpt lat="45.8736430" lon="10.3054140">
	<ele>1666.80</ele>
	<time>2025-07-29T10:12:52.000Z</time>
</trkpt>
<trkpt lat="45.8736430" lon="10.3054140">
	<ele>1666.80</ele>
	<time>2025-07-29T10:12:53.000Z</time>
</trkpt>
<trkpt lat="45.8736430" lon="10.3054140">
	<ele>1666.80</ele>
	<time>2025-07-29T10:12:54.000Z</time>
</trkpt>
<trkpt lat="45.8736430" lon="10.3054140">
	<ele>1666.80</ele>
	<time>2025-07-29T10:12:55.000Z</time>
</trkpt>
<trkpt lat="45.8736430" lon="10.3054140">
	<ele>1666.80</ele>
	<time>2025-07-29T10:12:56.000Z</time>
</trkpt>
<trkpt lat="45.8736430" lon="10.3054140">
	<ele>1666.80</ele>
	<time>2025-07-29T10:12:57.000Z</time>
</trkpt>
<trkpt lat="45.8736430" lon="10.3054140">
	<ele>1666.80</ele>
	<time>2025-07-29T10:12:58.000Z</time>
</trkpt>
<trkpt lat="45.8736430" lon="10.3054140">
	<ele>1666.80</ele>
	<time>2025-07-29T10:12:59.000Z</time>
</trkpt>
<trkpt lat="45.8736430" lon="10.3054140">
	<ele>1666.80</ele>
	<time>2025-07-29T10:13:00.000Z</time>
</trkpt>
<trkpt lat="45.8736430" lon="10.3054140">
	<ele>1666.80</ele>
	<time>2025-07-29T10:13:01.000Z</time>
</trkpt>
<trkpt lat="45.8736430" lon="10.3054140">
	<ele>1666.80</ele>
	<time>2025-07-29T10:13:02.000Z</time>
</trkpt>
<trkpt lat="45.8736430" lon="10.3054140">
	<ele>1666.60</ele>
	<time>2025-07-29T10:13:03.000Z</time>
</trkpt>
<trkpt lat="45.8736470" lon="10.3054150">
	<ele>1666.40</ele>
	<time>2025-07-29T10:13:04.000Z</time>
</trkpt>
<trkpt lat="45.8736630" lon="10.3054170">
	<ele>1666.20</ele>
	<time>2025-07-29T10:13:05.000Z</time>
</trkpt>
<trkpt lat="45.8736770" lon="10.3054160">
	<ele>1666.00</ele>
	<time>2025-07-29T10:13:06.000Z</time>
</trkpt>
<trkpt lat="45.8736940" lon="10.3054160">
	<ele>1665.80</ele>
	<time>2025-07-29T10:13:07.000Z</time>
</trkpt>
<trkpt lat="45.8737050" lon="10.3054130">
	<ele>1665.60</ele>
	<time>2025-07-29T10:13:08.000Z</time>
</trkpt>
<trkpt lat="45.8737160" lon="10.3054120">
	<ele>1665.40</ele>
	<time>2025-07-29T10:13:09.000Z</time>
</trkpt>
<trkpt lat="45.8737280" lon="10.3054090">
	<ele>1665.20</ele>
	<time>2025-07-29T10:13:10.000Z</time>
</trkpt>
<trkpt lat="45.8737390" lon="10.3054050">
	<ele>1665.20</ele>
	<time>2025-07-29T10:13:11.000Z</time>
</trkpt>
<trkpt lat="45.8737490" lon="10.3054060">
	<ele>1665.00</ele>
	<time>2025-07-29T10:13:12.000Z</time>
</trkpt>
<trkpt lat="45.8737590" lon="10.3054030">
	<ele>1664.80</ele>
	<time>2025-07-29T10:13:13.000Z</time>
</trkpt>
<trkpt lat="45.8737710" lon="10.3053980">
	<ele>1664.60</ele>
	<time>2025-07-29T10:13:14.000Z</time>
</trkpt>
<trkpt lat="45.8737830" lon="10.3053960">
	<ele>1664.40</ele>
	<time>2025-07-29T10:13:15.000Z</time>
</trkpt>
<trkpt lat="45.8737930" lon="10.3053880">
	<ele>1664.40</ele>
	<time>2025-07-29T10:13:16.000Z</time>
</trkpt>
<trkpt lat="45.8738010" lon="10.3053790">
	<ele>1664.00</ele>
	<time>2025-07-29T10:13:17.000Z</time>
</trkpt>
<trkpt lat="45.8738140" lon="10.3053720">
	<ele>1663.80</ele>
	<time>2025-07-29T10:13:18.000Z</time>
</trkpt>
<trkpt lat="45.8738200" lon="10.3053620">
	<ele>1663.60</ele>
	<time>2025-07-29T10:13:19.000Z</time>
</trkpt>
<trkpt lat="45.8738220" lon="10.3053510">
	<ele>1663.40</ele>
	<time>2025-07-29T10:13:20.000Z</time>
</trkpt>
<trkpt lat="45.8738300" lon="10.3053500">
	<ele>1663.20</ele>
	<time>2025-07-29T10:13:21.000Z</time>
</trkpt>
<trkpt lat="45.8738400" lon="10.3053520">
	<ele>1663.00</ele>
	<time>2025-07-29T10:13:22.000Z</time>
</trkpt>
<trkpt lat="45.8738470" lon="10.3053470">
	<ele>1662.80</ele>
	<time>2025-07-29T10:13:23.000Z</time>
</trkpt>
<trkpt lat="45.8738590" lon="10.3053420">
	<ele>1662.60</ele>
	<time>2025-07-29T10:13:24.000Z</time>
</trkpt>
<trkpt lat="45.8738720" lon="10.3053360">
	<ele>1662.20</ele>
	<time>2025-07-29T10:13:25.000Z</time>
</trkpt>
<trkpt lat="45.8738870" lon="10.3053350">
	<ele>1662.00</ele>
	<time>2025-07-29T10:13:26.000Z</time>
</trkpt>
<trkpt lat="45.8739000" lon="10.3053290">
	<ele>1662.00</ele>
	<time>2025-07-29T10:13:27.000Z</time>
</trkpt>
<trkpt lat="45.8739060" lon="10.3053270">
	<ele>1661.80</ele>
	<time>2025-07-29T10:13:28.000Z</time>
</trkpt>
<trkpt lat="45.8739120" lon="10.3053250">
	<ele>1661.40</ele>
	<time>2025-07-29T10:13:29.000Z</time>
</trkpt>
<trkpt lat="45.8739190" lon="10.3053230">
	<ele>1661.20</ele>
	<time>2025-07-29T10:13:30.000Z</time>
</trkpt>
<trkpt lat="45.8739290" lon="10.3053220">
	<ele>1661.00</ele>
	<time>2025-07-29T10:13:31.000Z</time>
</trkpt>
<trkpt lat="45.8739390" lon="10.3053220">
	<ele>1660.80</ele>
	<time>2025-07-29T10:13:32.000Z</time>
</trkpt>
<trkpt lat="45.8739490" lon="10.3053210">
	<ele>1660.60</ele>
	<time>2025-07-29T10:13:33.000Z</time>
</trkpt>
<trkpt lat="45.8739600" lon="10.3053210">
	<ele>1660.40</ele>
	<time>2025-07-29T10:13:34.000Z</time>
</trkpt>
<trkpt lat="45.8739700" lon="10.3053220">
	<ele>1660.20</ele>
	<time>2025-07-29T10:13:35.000Z</time>
</trkpt>
<trkpt lat="45.8739810" lon="10.3053260">
	<ele>1660.20</ele>
	<time>2025-07-29T10:13:36.000Z</time>
</trkpt>
<trkpt lat="45.8739890" lon="10.3053270">
	<ele>1660.00</ele>
	<time>2025-07-29T10:13:37.000Z</time>
</trkpt>
<trkpt lat="45.8739940" lon="10.3053220">
	<ele>1659.60</ele>
	<time>2025-07-29T10:13:38.000Z</time>
</trkpt>
<trkpt lat="45.8740000" lon="10.3053180">
	<ele>1659.40</ele>
	<time>2025-07-29T10:13:39.000Z</time>
</trkpt>
<trkpt lat="45.8740030" lon="10.3053100">
	<ele>1659.20</ele>
	<time>2025-07-29T10:13:40.000Z</time>
</trkpt>
<trkpt lat="45.8740060" lon="10.3053000">
	<ele>1659.00</ele>
	<time>2025-07-29T10:13:41.000Z</time>
</trkpt>
<trkpt lat="45.8740060" lon="10.3052910">
	<ele>1658.80</ele>
	<time>2025-07-29T10:13:42.000Z</time>
</trkpt>
<trkpt lat="45.8740100" lon="10.3052830">
	<ele>1658.60</ele>
	<time>2025-07-29T10:13:43.000Z</time>
</trkpt>
<trkpt lat="45.8740110" lon="10.3052750">
	<ele>1658.60</ele>
	<time>2025-07-29T10:13:44.000Z</time>
</trkpt>
<trkpt lat="45.8740110" lon="10.3052660">
	<ele>1658.40</ele>
	<time>2025-07-29T10:13:45.000Z</time>
</trkpt>
<trkpt lat="45.8740110" lon="10.3052610">
	<ele>1658.20</ele>
	<time>2025-07-29T10:13:46.000Z</time>
</trkpt>
<trkpt lat="45.8740140" lon="10.3052600">
	<ele>1658.00</ele>
	<time>2025-07-29T10:13:47.000Z</time>
</trkpt>
<trkpt lat="45.8740180" lon="10.3052580">
	<ele>1657.80</ele>
	<time>2025-07-29T10:13:48.000Z</time>
</trkpt>
<trkpt lat="45.8740240" lon="10.3052510">
	<ele>1657.60</ele>
	<time>2025-07-29T10:13:49.000Z</time>
</trkpt>
<trkpt lat="45.8740250" lon="10.3052460">
	<ele>1657.60</ele>
	<time>2025-07-29T10:13:50.000Z</time>
</trkpt>
<trkpt lat="45.8740280" lon="10.3052420">
	<ele>1657.40</ele>
	<time>2025-07-29T10:13:51.000Z</time>
</trkpt>
<trkpt lat="45.8740280" lon="10.3052310">
	<ele>1657.20</ele>
	<time>2025-07-29T10:13:52.000Z</time>
</trkpt>
<trkpt lat="45.8740290" lon="10.3052230">
	<ele>1657.20</ele>
	<time>2025-07-29T10:13:53.000Z</time>
</trkpt>
<trkpt lat="45.8740330" lon="10.3052120">
	<ele>1657.20</ele>
	<time>2025-07-29T10:13:54.000Z</time>
</trkpt>
<trkpt lat="45.8740370" lon="10.3052020">
	<ele>1657.20</ele>
	<time>2025-07-29T10:13:55.000Z</time>
</trkpt>
<trkpt lat="45.8740410" lon="10.3051930">
	<ele>1657.20</ele>
	<time>2025-07-29T10:13:56.000Z</time>
</trkpt>
<trkpt lat="45.8740480" lon="10.3051900">
	<ele>1657.20</ele>
	<time>2025-07-29T10:13:57.000Z</time>
</trkpt>
<trkpt lat="45.8740550" lon="10.3051870">
	<ele>1657.20</ele>
	<time>2025-07-29T10:13:58.000Z</time>
</trkpt>
<trkpt lat="45.8740600" lon="10.3051790">
	<ele>1657.20</ele>
	<time>2025-07-29T10:13:59.000Z</time>
</trkpt>
<trkpt lat="45.8740620" lon="10.3051680">
	<ele>1657.40</ele>
	<time>2025-07-29T10:14:00.000Z</time>
</trkpt>
<trkpt lat="45.8740630" lon="10.3051600">
	<ele>1657.40</ele>
	<time>2025-07-29T10:14:01.000Z</time>
</trkpt>
<trkpt lat="45.8740700" lon="10.3051530">
	<ele>1657.20</ele>
	<time>2025-07-29T10:14:02.000Z</time>
</trkpt>
<trkpt lat="45.8740780" lon="10.3051460">
	<ele>1657.20</ele>
	<time>2025-07-29T10:14:03.000Z</time>
</trkpt>
<trkpt lat="45.8740860" lon="10.3051430">
	<ele>1657.00</ele>
	<time>2025-07-29T10:14:04.000Z</time>
</trkpt>
<trkpt lat="45.8740920" lon="10.3051350">
	<ele>1657.00</ele>
	<time>2025-07-29T10:14:05.000Z</time>
</trkpt>
<trkpt lat="45.8740980" lon="10.3051230">
	<ele>1657.00</ele>
	<time>2025-07-29T10:14:06.000Z</time>
</trkpt>
<trkpt lat="45.8741050" lon="10.3051120">
	<ele>1656.80</ele>
	<time>2025-07-29T10:14:07.000Z</time>
</trkpt>
<trkpt lat="45.8741100" lon="10.3051010">
	<ele>1656.60</ele>
	<time>2025-07-29T10:14:08.000Z</time>
</trkpt>
<trkpt lat="45.8741200" lon="10.3050870">
	<ele>1656.60</ele>
	<time>2025-07-29T10:14:09.000Z</time>
</trkpt>
<trkpt lat="45.8741290" lon="10.3050760">
	<ele>1656.60</ele>
	<time>2025-07-29T10:14:10.000Z</time>
</trkpt>
<trkpt lat="45.8741360" lon="10.3050670">
	<ele>1656.40</ele>
	<time>2025-07-29T10:14:11.000Z</time>
</trkpt>
<trkpt lat="45.8741420" lon="10.3050610">
	<ele>1656.20</ele>
	<time>2025-07-29T10:14:12.000Z</time>
</trkpt>
<trkpt lat="45.8741520" lon="10.3050600">
	<ele>1656.00</ele>
	<time>2025-07-29T10:14:13.000Z</time>
</trkpt>
<trkpt lat="45.8741630" lon="10.3050600">
	<ele>1656.00</ele>
	<time>2025-07-29T10:14:14.000Z</time>
</trkpt>
<trkpt lat="45.8741760" lon="10.3050560">
	<ele>1655.80</ele>
	<time>2025-07-29T10:14:15.000Z</time>
</trkpt>
<trkpt lat="45.8741880" lon="10.3050580">
	<ele>1655.60</ele>
	<time>2025-07-29T10:14:16.000Z</time>
</trkpt>
<trkpt lat="45.8741990" lon="10.3050630">
	<ele>1655.40</ele>
	<time>2025-07-29T10:14:17.000Z</time>
</trkpt>
<trkpt lat="45.8742120" lon="10.3050680">
	<ele>1655.20</ele>
	<time>2025-07-29T10:14:18.000Z</time>
</trkpt>
<trkpt lat="45.8742250" lon="10.3050720">
	<ele>1654.80</ele>
	<time>2025-07-29T10:14:19.000Z</time>
</trkpt>
<trkpt lat="45.8742380" lon="10.3050700">
	<ele>1654.60</ele>
	<time>2025-07-29T10:14:20.000Z</time>
</trkpt>
<trkpt lat="45.8742520" lon="10.3050650">
	<ele>1654.40</ele>
	<time>2025-07-29T10:14:21.000Z</time>
</trkpt>
<trkpt lat="45.8742640" lon="10.3050640">
	<ele>1654.00</ele>
	<time>2025-07-29T10:14:22.000Z</time>
</trkpt>
<trkpt lat="45.8742740" lon="10.3050620">
	<ele>1653.80</ele>
	<time>2025-07-29T10:14:23.000Z</time>
</trkpt>
<trkpt lat="45.8742870" lon="10.3050600">
	<ele>1653.60</ele>
	<time>2025-07-29T10:14:24.000Z</time>
</trkpt>
<trkpt lat="45.8742970" lon="10.3050570">
	<ele>1653.40</ele>
	<time>2025-07-29T10:14:25.000Z</time>
</trkpt>
<trkpt lat="45.8743060" lon="10.3050490">
	<ele>1653.20</ele>
	<time>2025-07-29T10:14:26.000Z</time>
</trkpt>
<trkpt lat="45.8743160" lon="10.3050480">
	<ele>1653.20</ele>
	<time>2025-07-29T10:14:27.000Z</time>
</trkpt>
<trkpt lat="45.8743270" lon="10.3050480">
	<ele>1653.00</ele>
	<time>2025-07-29T10:14:28.000Z</time>
</trkpt>
<trkpt lat="45.8743390" lon="10.3050510">
	<ele>1652.80</ele>
	<time>2025-07-29T10:14:29.000Z</time>
</trkpt>
<trkpt lat="45.8743500" lon="10.3050490">
	<ele>1652.40</ele>
	<time>2025-07-29T10:14:30.000Z</time>
</trkpt>
<trkpt lat="45.8743620" lon="10.3050500">
	<ele>1652.20</ele>
	<time>2025-07-29T10:14:31.000Z</time>
</trkpt>
<trkpt lat="45.8743720" lon="10.3050540">
	<ele>1652.00</ele>
	<time>2025-07-29T10:14:32.000Z</time>
</trkpt>
<trkpt lat="45.8743850" lon="10.3050600">
	<ele>1651.80</ele>
	<time>2025-07-29T10:14:33.000Z</time>
</trkpt>
<trkpt lat="45.8743990" lon="10.3050610">
	<ele>1651.60</ele>
	<time>2025-07-29T10:14:34.000Z</time>
</trkpt>
<trkpt lat="45.8744140" lon="10.3050610">
	<ele>1651.40</ele>
	<time>2025-07-29T10:14:35.000Z</time>
</trkpt>
<trkpt lat="45.8744290" lon="10.3050620">
	<ele>1651.20</ele>
	<time>2025-07-29T10:14:36.000Z</time>
</trkpt>
<trkpt lat="45.8744440" lon="10.3050620">
	<ele>1651.00</ele>
	<time>2025-07-29T10:14:37.000Z</time>
</trkpt>
<trkpt lat="45.8744580" lon="10.3050650">
	<ele>1650.80</ele>
	<time>2025-07-29T10:14:38.000Z</time>
</trkpt>
<trkpt lat="45.8744710" lon="10.3050660">
	<ele>1650.60</ele>
	<time>2025-07-29T10:14:39.000Z</time>
</trkpt>
<trkpt lat="45.8744840" lon="10.3050670">
	<ele>1650.40</ele>
	<time>2025-07-29T10:14:40.000Z</time>
</trkpt>
<trkpt lat="45.8744950" lon="10.3050700">
	<ele>1650.00</ele>
	<time>2025-07-29T10:14:41.000Z</time>
</trkpt>
<trkpt lat="45.8745070" lon="10.3050700">
	<ele>1649.80</ele>
	<time>2025-07-29T10:14:42.000Z</time>
</trkpt>
<trkpt lat="45.8745160" lon="10.3050680">
	<ele>1649.60</ele>
	<time>2025-07-29T10:14:43.000Z</time>
</trkpt>
<trkpt lat="45.8745290" lon="10.3050680">
	<ele>1649.20</ele>
	<time>2025-07-29T10:14:44.000Z</time>
</trkpt>
<trkpt lat="45.8745420" lon="10.3050690">
	<ele>1649.00</ele>
	<time>2025-07-29T10:14:45.000Z</time>
</trkpt>
<trkpt lat="45.8745590" lon="10.3050710">
	<ele>1648.80</ele>
	<time>2025-07-29T10:14:46.000Z</time>
</trkpt>
<trkpt lat="45.8745740" lon="10.3050710">
	<ele>1648.60</ele>
	<time>2025-07-29T10:14:47.000Z</time>
</trkpt>
<trkpt lat="45.8745880" lon="10.3050740">
	<ele>1648.40</ele>
	<time>2025-07-29T10:14:48.000Z</time>
</trkpt>
<trkpt lat="45.8746030" lon="10.3050800">
	<ele>1648.20</ele>
	<time>2025-07-29T10:14:49.000Z</time>
</trkpt>
<trkpt lat="45.8746140" lon="10.3050840">
	<ele>1648.00</ele>
	<time>2025-07-29T10:14:50.000Z</time>
</trkpt>
<trkpt lat="45.8746240" lon="10.3050900">
	<ele>1647.80</ele>
	<time>2025-07-29T10:14:51.000Z</time>
</trkpt>
<trkpt lat="45.8746340" lon="10.3051050">
	<ele>1647.60</ele>
	<time>2025-07-29T10:14:52.000Z</time>
</trkpt>
<trkpt lat="45.8746450" lon="10.3051060">
	<ele>1647.60</ele>
	<time>2025-07-29T10:14:53.000Z</time>
</trkpt>
<trkpt lat="45.8746560" lon="10.3051090">
	<ele>1647.40</ele>
	<time>2025-07-29T10:14:54.000Z</time>
</trkpt>
<trkpt lat="45.8746690" lon="10.3051090">
	<ele>1647.20</ele>
	<time>2025-07-29T10:14:55.000Z</time>
</trkpt>
<trkpt lat="45.8746840" lon="10.3051110">
	<ele>1647.00</ele>
	<time>2025-07-29T10:14:56.000Z</time>
</trkpt>
<trkpt lat="45.8746950" lon="10.3051130">
	<ele>1646.80</ele>
	<time>2025-07-29T10:14:57.000Z</time>
</trkpt>
<trkpt lat="45.8747060" lon="10.3051140">
	<ele>1646.60</ele>
	<time>2025-07-29T10:14:58.000Z</time>
</trkpt>
<trkpt lat="45.8747130" lon="10.3051140">
	<ele>1646.40</ele>
	<time>2025-07-29T10:14:59.000Z</time>
</trkpt>
<trkpt lat="45.8747220" lon="10.3051140">
	<ele>1646.20</ele>
	<time>2025-07-29T10:15:00.000Z</time>
</trkpt>
<trkpt lat="45.8747330" lon="10.3051180">
	<ele>1646.20</ele>
	<time>2025-07-29T10:15:01.000Z</time>
</trkpt>
<trkpt lat="45.8747450" lon="10.3051200">
	<ele>1646.00</ele>
	<time>2025-07-29T10:15:02.000Z</time>
</trkpt>
<trkpt lat="45.8747580" lon="10.3051210">
	<ele>1645.80</ele>
	<time>2025-07-29T10:15:03.000Z</time>
</trkpt>
<trkpt lat="45.8747740" lon="10.3051220">
	<ele>1645.60</ele>
	<time>2025-07-29T10:15:04.000Z</time>
</trkpt>
<trkpt lat="45.8747830" lon="10.3051240">
	<ele>1645.40</ele>
	<time>2025-07-29T10:15:05.000Z</time>
</trkpt>
<trkpt lat="45.8747920" lon="10.3051290">
	<ele>1645.20</ele>
	<time>2025-07-29T10:15:06.000Z</time>
</trkpt>
<trkpt lat="45.8748050" lon="10.3051330">
	<ele>1645.00</ele>
	<time>2025-07-29T10:15:07.000Z</time>
</trkpt>
<trkpt lat="45.8748210" lon="10.3051360">
	<ele>1644.80</ele>
	<time>2025-07-29T10:15:08.000Z</time>
</trkpt>
<trkpt lat="45.8748320" lon="10.3051330">
	<ele>1644.80</ele>
	<time>2025-07-29T10:15:09.000Z</time>
</trkpt>
<trkpt lat="45.8748450" lon="10.3051220">
	<ele>1644.60</ele>
	<time>2025-07-29T10:15:10.000Z</time>
</trkpt>
<trkpt lat="45.8748570" lon="10.3051120">
	<ele>1644.60</ele>
	<time>2025-07-29T10:15:11.000Z</time>
</trkpt>
<trkpt lat="45.8748700" lon="10.3051050">
	<ele>1644.40</ele>
	<time>2025-07-29T10:15:12.000Z</time>
</trkpt>
<trkpt lat="45.8748840" lon="10.3050990">
	<ele>1644.40</ele>
	<time>2025-07-29T10:15:13.000Z</time>
</trkpt>
<trkpt lat="45.8748920" lon="10.3050960">
	<ele>1644.40</ele>
	<time>2025-07-29T10:15:14.000Z</time>
</trkpt>
<trkpt lat="45.8749020" lon="10.3051000">
	<ele>1644.20</ele>
	<time>2025-07-29T10:15:15.000Z</time>
</trkpt>
<trkpt lat="45.8749160" lon="10.3051050">
	<ele>1644.00</ele>
	<time>2025-07-29T10:15:16.000Z</time>
</trkpt>
<trkpt lat="45.8749210" lon="10.3051150">
	<ele>1643.60</ele>
	<time>2025-07-29T10:15:17.000Z</time>
</trkpt>
<trkpt lat="45.8749250" lon="10.3051230">
	<ele>1643.20</ele>
	<time>2025-07-29T10:15:18.000Z</time>
</trkpt>
<trkpt lat="45.8749300" lon="10.3051250">
	<ele>1643.00</ele>
	<time>2025-07-29T10:15:19.000Z</time>
</trkpt>
<trkpt lat="45.8749360" lon="10.3051330">
	<ele>1642.80</ele>
	<time>2025-07-29T10:15:20.000Z</time>
</trkpt>
<trkpt lat="45.8749540" lon="10.3051330">
	<ele>1642.60</ele>
	<time>2025-07-29T10:15:21.000Z</time>
</trkpt>
<trkpt lat="45.8749660" lon="10.3051300">
	<ele>1642.20</ele>
	<time>2025-07-29T10:15:22.000Z</time>
</trkpt>
<trkpt lat="45.8749740" lon="10.3051350">
	<ele>1641.80</ele>
	<time>2025-07-29T10:15:23.000Z</time>
</trkpt>
<trkpt lat="45.8749850" lon="10.3051330">
	<ele>1641.60</ele>
	<time>2025-07-29T10:15:24.000Z</time>
</trkpt>
<trkpt lat="45.8749940" lon="10.3051260">
	<ele>1641.40</ele>
	<time>2025-07-29T10:15:25.000Z</time>
</trkpt>
<trkpt lat="45.8750000" lon="10.3051210">
	<ele>1641.00</ele>
	<time>2025-07-29T10:15:26.000Z</time>
</trkpt>
<trkpt lat="45.8750100" lon="10.3051180">
	<ele>1640.80</ele>
	<time>2025-07-29T10:15:27.000Z</time>
</trkpt>
<trkpt lat="45.8750180" lon="10.3051100">
	<ele>1640.60</ele>
	<time>2025-07-29T10:15:28.000Z</time>
</trkpt>
<trkpt lat="45.8750290" lon="10.3051080">
	<ele>1640.40</ele>
	<time>2025-07-29T10:15:29.000Z</time>
</trkpt>
<trkpt lat="45.8750380" lon="10.3051060">
	<ele>1640.20</ele>
	<time>2025-07-29T10:15:30.000Z</time>
</trkpt>
<trkpt lat="45.8750470" lon="10.3051030">
	<ele>1640.00</ele>
	<time>2025-07-29T10:15:31.000Z</time>
</trkpt>
<trkpt lat="45.8750550" lon="10.3051030">
	<ele>1639.80</ele>
	<time>2025-07-29T10:15:32.000Z</time>
</trkpt>
<trkpt lat="45.8750620" lon="10.3050990">
	<ele>1639.80</ele>
	<time>2025-07-29T10:15:33.000Z</time>
</trkpt>
<trkpt lat="45.8750690" lon="10.3050960">
	<ele>1639.60</ele>
	<time>2025-07-29T10:15:34.000Z</time>
</trkpt>
<trkpt lat="45.8750760" lon="10.3050950">
	<ele>1639.40</ele>
	<time>2025-07-29T10:15:35.000Z</time>
</trkpt>
<trkpt lat="45.8750850" lon="10.3050950">
	<ele>1639.40</ele>
	<time>2025-07-29T10:15:36.000Z</time>
</trkpt>
<trkpt lat="45.8750930" lon="10.3050960">
	<ele>1639.40</ele>
	<time>2025-07-29T10:15:37.000Z</time>
</trkpt>
<trkpt lat="45.8750990" lon="10.3050990">
	<ele>1639.20</ele>
	<time>2025-07-29T10:15:38.000Z</time>
</trkpt>
<trkpt lat="45.8751050" lon="10.3051060">
	<ele>1639.20</ele>
	<time>2025-07-29T10:15:39.000Z</time>
</trkpt>
<trkpt lat="45.8751110" lon="10.3051160">
	<ele>1639.00</ele>
	<time>2025-07-29T10:15:40.000Z</time>
</trkpt>
<trkpt lat="45.8751160" lon="10.3051260">
	<ele>1638.80</ele>
	<time>2025-07-29T10:15:41.000Z</time>
</trkpt>
<trkpt lat="45.8751210" lon="10.3051360">
	<ele>1638.80</ele>
	<time>2025-07-29T10:15:42.000Z</time>
</trkpt>
<trkpt lat="45.8751280" lon="10.3051440">
	<ele>1638.60</ele>
	<time>2025-07-29T10:15:43.000Z</time>
</trkpt>
<trkpt lat="45.8751400" lon="10.3051520">
	<ele>1638.60</ele>
	<time>2025-07-29T10:15:44.000Z</time>
</trkpt>
<trkpt lat="45.8751450" lon="10.3051600">
	<ele>1638.40</ele>
	<time>2025-07-29T10:15:45.000Z</time>
</trkpt>
<trkpt lat="45.8751510" lon="10.3051660">
	<ele>1638.40</ele>
	<time>2025-07-29T10:15:46.000Z</time>
</trkpt>
<trkpt lat="45.8751560" lon="10.3051700">
	<ele>1638.40</ele>
	<time>2025-07-29T10:15:47.000Z</time>
</trkpt>
<trkpt lat="45.8751570" lon="10.3051740">
	<ele>1638.20</ele>
	<time>2025-07-29T10:15:48.000Z</time>
</trkpt>
<trkpt lat="45.8751570" lon="10.3051770">
	<ele>1638.20</ele>
	<time>2025-07-29T10:15:49.000Z</time>
</trkpt>
<trkpt lat="45.8751570" lon="10.3051790">
	<ele>1638.00</ele>
	<time>2025-07-29T10:15:50.000Z</time>
</trkpt>
<trkpt lat="45.8751560" lon="10.3051790">
	<ele>1638.00</ele>
	<time>2025-07-29T10:15:51.000Z</time>
</trkpt>
<trkpt lat="45.8751560" lon="10.3051780">
	<ele>1638.00</ele>
	<time>2025-07-29T10:15:52.000Z</time>
</trkpt>
<trkpt lat="45.8751560" lon="10.3051780">
	<ele>1637.80</ele>
	<time>2025-07-29T10:15:53.000Z</time>
</trkpt>
<trkpt lat="45.8751550" lon="10.3051790">
	<ele>1637.80</ele>
	<time>2025-07-29T10:15:54.000Z</time>
</trkpt>
<trkpt lat="45.8751540" lon="10.3051800">
	<ele>1637.80</ele>
	<time>2025-07-29T10:15:55.000Z</time>
</trkpt>
<trkpt lat="45.8751530" lon="10.3051800">
	<ele>1637.80</ele>
	<time>2025-07-29T10:15:56.000Z</time>
</trkpt>
<trkpt lat="45.8751470" lon="10.3051710">
	<ele>1637.80</ele>
	<time>2025-07-29T10:15:57.000Z</time>
</trkpt>
<trkpt lat="45.8751470" lon="10.3051670">
	<ele>1637.80</ele>
	<time>2025-07-29T10:15:58.000Z</time>
</trkpt>
<trkpt lat="45.8751540" lon="10.3051710">
	<ele>1637.80</ele>
	<time>2025-07-29T10:15:59.000Z</time>
</trkpt>
<trkpt lat="45.8751620" lon="10.3051770">
	<ele>1637.60</ele>
	<time>2025-07-29T10:16:00.000Z</time>
</trkpt>
<trkpt lat="45.8751690" lon="10.3051840">
	<ele>1637.60</ele>
	<time>2025-07-29T10:16:01.000Z</time>
</trkpt>
<trkpt lat="45.8751800" lon="10.3051900">
	<ele>1637.40</ele>
	<time>2025-07-29T10:16:02.000Z</time>
</trkpt>
<trkpt lat="45.8751870" lon="10.3051960">
	<ele>1637.40</ele>
	<time>2025-07-29T10:16:03.000Z</time>
</trkpt>
<trkpt lat="45.8751990" lon="10.3052110">
	<ele>1637.00</ele>
	<time>2025-07-29T10:16:04.000Z</time>
</trkpt>
<trkpt lat="45.8752120" lon="10.3052140">
	<ele>1636.80</ele>
	<time>2025-07-29T10:16:05.000Z</time>
</trkpt>
<trkpt lat="45.8752220" lon="10.3052200">
	<ele>1636.60</ele>
	<time>2025-07-29T10:16:06.000Z</time>
</trkpt>
<trkpt lat="45.8752340" lon="10.3052200">
	<ele>1636.60</ele>
	<time>2025-07-29T10:16:07.000Z</time>
</trkpt>
<trkpt lat="45.8752440" lon="10.3052280">
	<ele>1636.40</ele>
	<time>2025-07-29T10:16:08.000Z</time>
</trkpt>
<trkpt lat="45.8752570" lon="10.3052380">
	<ele>1636.40</ele>
	<time>2025-07-29T10:16:09.000Z</time>
</trkpt>
<trkpt lat="45.8752670" lon="10.3052460">
	<ele>1636.20</ele>
	<time>2025-07-29T10:16:10.000Z</time>
</trkpt>
<trkpt lat="45.8752790" lon="10.3052500">
	<ele>1636.20</ele>
	<time>2025-07-29T10:16:11.000Z</time>
</trkpt>
<trkpt lat="45.8752870" lon="10.3052530">
	<ele>1636.00</ele>
	<time>2025-07-29T10:16:12.000Z</time>
</trkpt>
<trkpt lat="45.8752950" lon="10.3052580">
	<ele>1636.00</ele>
	<time>2025-07-29T10:16:13.000Z</time>
</trkpt>
<trkpt lat="45.8752980" lon="10.3052620">
	<ele>1635.60</ele>
	<time>2025-07-29T10:16:14.000Z</time>
</trkpt>
<trkpt lat="45.8753070" lon="10.3052700">
	<ele>1635.40</ele>
	<time>2025-07-29T10:16:15.000Z</time>
</trkpt>
<trkpt lat="45.8753170" lon="10.3052740">
	<ele>1635.00</ele>
	<time>2025-07-29T10:16:16.000Z</time>
</trkpt>
<trkpt lat="45.8753250" lon="10.3052750">
	<ele>1634.80</ele>
	<time>2025-07-29T10:16:17.000Z</time>
</trkpt>
<trkpt lat="45.8753370" lon="10.3052760">
	<ele>1634.80</ele>
	<time>2025-07-29T10:16:18.000Z</time>
</trkpt>
<trkpt lat="45.8753460" lon="10.3052780">
	<ele>1634.60</ele>
	<time>2025-07-29T10:16:19.000Z</time>
</trkpt>
<trkpt lat="45.8753530" lon="10.3052830">
	<ele>1634.20</ele>
	<time>2025-07-29T10:16:20.000Z</time>
</trkpt>
<trkpt lat="45.8753600" lon="10.3052910">
	<ele>1634.00</ele>
	<time>2025-07-29T10:16:21.000Z</time>
</trkpt>
<trkpt lat="45.8753670" lon="10.3052910">
	<ele>1633.80</ele>
	<time>2025-07-29T10:16:22.000Z</time>
</trkpt>
<trkpt lat="45.8753750" lon="10.3052890">
	<ele>1633.60</ele>
	<time>2025-07-29T10:16:23.000Z</time>
</trkpt>
<trkpt lat="45.8753830" lon="10.3052890">
	<ele>1633.40</ele>
	<time>2025-07-29T10:16:24.000Z</time>
</trkpt>
<trkpt lat="45.8753910" lon="10.3052920">
	<ele>1633.20</ele>
	<time>2025-07-29T10:16:25.000Z</time>
</trkpt>
<trkpt lat="45.8753980" lon="10.3052950">
	<ele>1633.20</ele>
	<time>2025-07-29T10:16:26.000Z</time>
</trkpt>
<trkpt lat="45.8754080" lon="10.3052990">
	<ele>1632.80</ele>
	<time>2025-07-29T10:16:27.000Z</time>
</trkpt>
<trkpt lat="45.8754160" lon="10.3053080">
	<ele>1632.80</ele>
	<time>2025-07-29T10:16:28.000Z</time>
</trkpt>
<trkpt lat="45.8754230" lon="10.3053200">
	<ele>1632.40</ele>
	<time>2025-07-29T10:16:29.000Z</time>
</trkpt>
<trkpt lat="45.8754310" lon="10.3053320">
	<ele>1632.20</ele>
	<time>2025-07-29T10:16:30.000Z</time>
</trkpt>
<trkpt lat="45.8754410" lon="10.3053420">
	<ele>1632.00</ele>
	<time>2025-07-29T10:16:31.000Z</time>
</trkpt>
<trkpt lat="45.8754500" lon="10.3053500">
	<ele>1631.80</ele>
	<time>2025-07-29T10:16:32.000Z</time>
</trkpt>
<trkpt lat="45.8754590" lon="10.3053530">
	<ele>1631.60</ele>
	<time>2025-07-29T10:16:33.000Z</time>
</trkpt>
<trkpt lat="45.8754680" lon="10.3053550">
	<ele>1631.60</ele>
	<time>2025-07-29T10:16:34.000Z</time>
</trkpt>
<trkpt lat="45.8754800" lon="10.3053580">
	<ele>1631.60</ele>
	<time>2025-07-29T10:16:35.000Z</time>
</trkpt>
<trkpt lat="45.8754890" lon="10.3053600">
	<ele>1631.40</ele>
	<time>2025-07-29T10:16:36.000Z</time>
</trkpt>
<trkpt lat="45.8754990" lon="10.3053600">
	<ele>1631.40</ele>
	<time>2025-07-29T10:16:37.000Z</time>
</trkpt>
<trkpt lat="45.8755080" lon="10.3053620">
	<ele>1631.40</ele>
	<time>2025-07-29T10:16:38.000Z</time>
</trkpt>
<trkpt lat="45.8755170" lon="10.3053690">
	<ele>1631.40</ele>
	<time>2025-07-29T10:16:39.000Z</time>
</trkpt>
<trkpt lat="45.8755210" lon="10.3053710">
	<ele>1631.20</ele>
	<time>2025-07-29T10:16:40.000Z</time>
</trkpt>
<trkpt lat="45.8755280" lon="10.3053730">
	<ele>1631.00</ele>
	<time>2025-07-29T10:16:41.000Z</time>
</trkpt>
<trkpt lat="45.8755340" lon="10.3053730">
	<ele>1631.00</ele>
	<time>2025-07-29T10:16:42.000Z</time>
</trkpt>
<trkpt lat="45.8755390" lon="10.3053680">
	<ele>1630.80</ele>
	<time>2025-07-29T10:16:43.000Z</time>
</trkpt>
<trkpt lat="45.8755450" lon="10.3053660">
	<ele>1630.60</ele>
	<time>2025-07-29T10:16:44.000Z</time>
</trkpt>
<trkpt lat="45.8755480" lon="10.3053650">
	<ele>1630.40</ele>
	<time>2025-07-29T10:16:45.000Z</time>
</trkpt>
<trkpt lat="45.8755490" lon="10.3053650">
	<ele>1630.40</ele>
	<time>2025-07-29T10:16:46.000Z</time>
</trkpt>
<trkpt lat="45.8755500" lon="10.3053640">
	<ele>1630.40</ele>
	<time>2025-07-29T10:16:47.000Z</time>
</trkpt>
<trkpt lat="45.8755510" lon="10.3053630">
	<ele>1630.40</ele>
	<time>2025-07-29T10:16:48.000Z</time>
</trkpt>
<trkpt lat="45.8755510" lon="10.3053620">
	<ele>1630.40</ele>
	<time>2025-07-29T10:16:49.000Z</time>
</trkpt>
<trkpt lat="45.8755510" lon="10.3053630">
	<ele>1630.40</ele>
	<time>2025-07-29T10:16:50.000Z</time>
</trkpt>
<trkpt lat="45.8755520" lon="10.3053640">
	<ele>1630.40</ele>
	<time>2025-07-29T10:16:51.000Z</time>
</trkpt>
<trkpt lat="45.8755520" lon="10.3053640">
	<ele>1630.40</ele>
	<time>2025-07-29T10:16:52.000Z</time>
</trkpt>
<trkpt lat="45.8755540" lon="10.3053640">
	<ele>1630.60</ele>
	<time>2025-07-29T10:16:53.000Z</time>
</trkpt>
<trkpt lat="45.8755560" lon="10.3053660">
	<ele>1630.60</ele>
	<time>2025-07-29T10:16:54.000Z</time>
</trkpt>
<trkpt lat="45.8755570" lon="10.3053670">
	<ele>1630.80</ele>
	<time>2025-07-29T10:16:55.000Z</time>
</trkpt>
<trkpt lat="45.8755570" lon="10.3053690">
	<ele>1630.80</ele>
	<time>2025-07-29T10:16:56.000Z</time>
</trkpt>
<trkpt lat="45.8755570" lon="10.3053690">
	<ele>1630.60</ele>
	<time>2025-07-29T10:16:57.000Z</time>
</trkpt>
<trkpt lat="45.8755560" lon="10.3053690">
	<ele>1630.40</ele>
	<time>2025-07-29T10:16:58.000Z</time>
</trkpt>
<trkpt lat="45.8755560" lon="10.3053690">
	<ele>1630.40</ele>
	<time>2025-07-29T10:16:59.000Z</time>
</trkpt>
<trkpt lat="45.8755560" lon="10.3053690">
	<ele>1630.20</ele>
	<time>2025-07-29T10:17:00.000Z</time>
</trkpt>
<trkpt lat="45.8755560" lon="10.3053690">
	<ele>1630.40</ele>
	<time>2025-07-29T10:17:01.000Z</time>
</trkpt>
<trkpt lat="45.8755560" lon="10.3053690">
	<ele>1630.40</ele>
	<time>2025-07-29T10:17:02.000Z</time>
</trkpt>
<trkpt lat="45.8755560" lon="10.3053690">
	<ele>1630.40</ele>
	<time>2025-07-29T10:17:03.000Z</time>
</trkpt>
<trkpt lat="45.8755560" lon="10.3053690">
	<ele>1630.60</ele>
	<time>2025-07-29T10:17:04.000Z</time>
</trkpt>
<trkpt lat="45.8755560" lon="10.3053690">
	<ele>1630.60</ele>
	<time>2025-07-29T10:17:05.000Z</time>
</trkpt>
<trkpt lat="45.8755560" lon="10.3053690">
	<ele>1630.60</ele>
	<time>2025-07-29T10:17:06.000Z</time>
</trkpt>
<trkpt lat="45.8755560" lon="10.3053690">
	<ele>1630.60</ele>
	<time>2025-07-29T10:17:07.000Z</time>
</trkpt>
<trkpt lat="45.8755560" lon="10.3053690">
	<ele>1630.60</ele>
	<time>2025-07-29T10:17:08.000Z</time>
</trkpt>
<trkpt lat="45.8755560" lon="10.3053690">
	<ele>1630.60</ele>
	<time>2025-07-29T10:17:09.000Z</time>
</trkpt>
<trkpt lat="45.8755560" lon="10.3053690">
	<ele>1630.40</ele>
	<time>2025-07-29T10:17:10.000Z</time>
</trkpt>
<trkpt lat="45.8755560" lon="10.3053690">
	<ele>1630.40</ele>
	<time>2025-07-29T10:17:11.000Z</time>
</trkpt>
<trkpt lat="45.8755560" lon="10.3053690">
	<ele>1630.40</ele>
	<time>2025-07-29T10:17:12.000Z</time>
</trkpt>
<trkpt lat="45.8755570" lon="10.3053690">
	<ele>1630.40</ele>
	<time>2025-07-29T10:17:13.000Z</time>
</trkpt>
<trkpt lat="45.8755570" lon="10.3053690">
	<ele>1630.40</ele>
	<time>2025-07-29T10:17:14.000Z</time>
</trkpt>
<trkpt lat="45.8755570" lon="10.3053690">
	<ele>1630.40</ele>
	<time>2025-07-29T10:17:15.000Z</time>
</trkpt>
<trkpt lat="45.8755580" lon="10.3053690">
	<ele>1630.40</ele>
	<time>2025-07-29T10:17:16.000Z</time>
</trkpt>
<trkpt lat="45.8755590" lon="10.3053690">
	<ele>1630.20</ele>
	<time>2025-07-29T10:17:17.000Z</time>
</trkpt>
<trkpt lat="45.8755600" lon="10.3053690">
	<ele>1630.20</ele>
	<time>2025-07-29T10:17:18.000Z</time>
</trkpt>
<trkpt lat="45.8755610" lon="10.3053690">
	<ele>1630.20</ele>
	<time>2025-07-29T10:17:19.000Z</time>
</trkpt>
<trkpt lat="45.8755620" lon="10.3053700">
	<ele>1630.00</ele>
	<time>2025-07-29T10:17:20.000Z</time>
</trkpt>
<trkpt lat="45.8755620" lon="10.3053710">
	<ele>1630.00</ele>
	<time>2025-07-29T10:17:21.000Z</time>
</trkpt>
<trkpt lat="45.8755620" lon="10.3053710">
	<ele>1630.00</ele>
	<time>2025-07-29T10:17:22.000Z</time>
</trkpt>
<trkpt lat="45.8755620" lon="10.3053730">
	<ele>1630.00</ele>
	<time>2025-07-29T10:17:23.000Z</time>
</trkpt>
<trkpt lat="45.8755630" lon="10.3053740">
	<ele>1630.00</ele>
	<time>2025-07-29T10:17:24.000Z</time>
</trkpt>
<trkpt lat="45.8755650" lon="10.3053750">
	<ele>1629.80</ele>
	<time>2025-07-29T10:17:25.000Z</time>
</trkpt>
<trkpt lat="45.8755670" lon="10.3053760">
	<ele>1629.80</ele>
	<time>2025-07-29T10:17:26.000Z</time>
</trkpt>
<trkpt lat="45.8755710" lon="10.3053760">
	<ele>1629.80</ele>
	<time>2025-07-29T10:17:27.000Z</time>
</trkpt>
<trkpt lat="45.8755730" lon="10.3053760">
	<ele>1629.80</ele>
	<time>2025-07-29T10:17:28.000Z</time>
</trkpt>
<trkpt lat="45.8755790" lon="10.3053770">
	<ele>1629.80</ele>
	<time>2025-07-29T10:17:29.000Z</time>
</trkpt>
<trkpt lat="45.8755840" lon="10.3053770">
	<ele>1629.80</ele>
	<time>2025-07-29T10:17:30.000Z</time>
</trkpt>
<trkpt lat="45.8755880" lon="10.3053770">
	<ele>1629.80</ele>
	<time>2025-07-29T10:17:31.000Z</time>
</trkpt>
<trkpt lat="45.8755910" lon="10.3053770">
	<ele>1629.80</ele>
	<time>2025-07-29T10:17:32.000Z</time>
</trkpt>
<trkpt lat="45.8755940" lon="10.3053770">
	<ele>1629.80</ele>
	<time>2025-07-29T10:17:33.000Z</time>
</trkpt>
<trkpt lat="45.8755970" lon="10.3053770">
	<ele>1629.80</ele>
	<time>2025-07-29T10:17:34.000Z</time>
</trkpt>
<trkpt lat="45.8755990" lon="10.3053780">
	<ele>1629.80</ele>
	<time>2025-07-29T10:17:35.000Z</time>
</trkpt>
<trkpt lat="45.8756000" lon="10.3053800">
	<ele>1629.80</ele>
	<time>2025-07-29T10:17:36.000Z</time>
</trkpt>
<trkpt lat="45.8756010" lon="10.3053890">
	<ele>1629.80</ele>
	<time>2025-07-29T10:17:37.000Z</time>
</trkpt>
<trkpt lat="45.8756030" lon="10.3053930">
	<ele>1629.80</ele>
	<time>2025-07-29T10:17:38.000Z</time>
</trkpt>
<trkpt lat="45.8756060" lon="10.3054010">
	<ele>1629.80</ele>
	<time>2025-07-29T10:17:39.000Z</time>
</trkpt>
<trkpt lat="45.8756110" lon="10.3054060">
	<ele>1629.80</ele>
	<time>2025-07-29T10:17:40.000Z</time>
</trkpt>
<trkpt lat="45.8756140" lon="10.3054090">
	<ele>1629.80</ele>
	<time>2025-07-29T10:17:41.000Z</time>
</trkpt>
<trkpt lat="45.8756160" lon="10.3054100">
	<ele>1629.80</ele>
	<time>2025-07-29T10:17:42.000Z</time>
</trkpt>
<trkpt lat="45.8756180" lon="10.3054110">
	<ele>1629.60</ele>
	<time>2025-07-29T10:17:43.000Z</time>
</trkpt>
<trkpt lat="45.8756180" lon="10.3054120">
	<ele>1629.60</ele>
	<time>2025-07-29T10:17:44.000Z</time>
</trkpt>
<trkpt lat="45.8756190" lon="10.3054120">
	<ele>1629.60</ele>
	<time>2025-07-29T10:17:45.000Z</time>
</trkpt>
<trkpt lat="45.8756190" lon="10.3054120">
	<ele>1629.60</ele>
	<time>2025-07-29T10:17:46.000Z</time>
</trkpt>
<trkpt lat="45.8756190" lon="10.3054120">
	<ele>1629.40</ele>
	<time>2025-07-29T10:17:47.000Z</time>
</trkpt>
<trkpt lat="45.8756190" lon="10.3054120">
	<ele>1629.40</ele>
	<time>2025-07-29T10:17:48.000Z</time>
</trkpt>
<trkpt lat="45.8756190" lon="10.3054120">
	<ele>1629.40</ele>
	<time>2025-07-29T10:17:49.000Z</time>
</trkpt>
<trkpt lat="45.8756190" lon="10.3054120">
	<ele>1629.40</ele>
	<time>2025-07-29T10:17:50.000Z</time>
</trkpt>
<trkpt lat="45.8756200" lon="10.3054120">
	<ele>1629.40</ele>
	<time>2025-07-29T10:17:51.000Z</time>
</trkpt>
<trkpt lat="45.8756210" lon="10.3054120">
	<ele>1629.40</ele>
	<time>2025-07-29T10:17:52.000Z</time>
</trkpt>
<trkpt lat="45.8756230" lon="10.3054120">
	<ele>1629.40</ele>
	<time>2025-07-29T10:17:53.000Z</time>
</trkpt>
<trkpt lat="45.8756240" lon="10.3054120">
	<ele>1629.40</ele>
	<time>2025-07-29T10:17:54.000Z</time>
</trkpt>
<trkpt lat="45.8756250" lon="10.3054120">
	<ele>1629.40</ele>
	<time>2025-07-29T10:17:55.000Z</time>
</trkpt>
<trkpt lat="45.8756270" lon="10.3054120">
	<ele>1629.40</ele>
	<time>2025-07-29T10:17:56.000Z</time>
</trkpt>
<trkpt lat="45.8756280" lon="10.3054120">
	<ele>1629.40</ele>
	<time>2025-07-29T10:17:57.000Z</time>
</trkpt>
<trkpt lat="45.8756310" lon="10.3054120">
	<ele>1629.40</ele>
	<time>2025-07-29T10:17:58.000Z</time>
</trkpt>
<trkpt lat="45.8756330" lon="10.3054120">
	<ele>1629.40</ele>
	<time>2025-07-29T10:17:59.000Z</time>
</trkpt>
<trkpt lat="45.8756340" lon="10.3054120">
	<ele>1629.40</ele>
	<time>2025-07-29T10:18:00.000Z</time>
</trkpt>
<trkpt lat="45.8756340" lon="10.3054120">
	<ele>1629.40</ele>
	<time>2025-07-29T10:18:01.000Z</time>
</trkpt>
<trkpt lat="45.8756380" lon="10.3054110">
	<ele>1629.40</ele>
	<time>2025-07-29T10:18:02.000Z</time>
</trkpt>
<trkpt lat="45.8756500" lon="10.3054000">
	<ele>1629.40</ele>
	<time>2025-07-29T10:18:03.000Z</time>
</trkpt>
<trkpt lat="45.8756650" lon="10.3053910">
	<ele>1629.40</ele>
	<time>2025-07-29T10:18:04.000Z</time>
</trkpt>
<trkpt lat="45.8756800" lon="10.3053830">
	<ele>1629.40</ele>
	<time>2025-07-29T10:18:05.000Z</time>
</trkpt>
<trkpt lat="45.8756940" lon="10.3053810">
	<ele>1629.40</ele>
	<time>2025-07-29T10:18:06.000Z</time>
</trkpt>
<trkpt lat="45.8757070" lon="10.3053830">
	<ele>1629.40</ele>
	<time>2025-07-29T10:18:07.000Z</time>
</trkpt>
<trkpt lat="45.8757180" lon="10.3053800">
	<ele>1629.40</ele>
	<time>2025-07-29T10:18:08.000Z</time>
</trkpt>
<trkpt lat="45.8757310" lon="10.3053730">
	<ele>1629.40</ele>
	<time>2025-07-29T10:18:09.000Z</time>
</trkpt>
<trkpt lat="45.8757430" lon="10.3053610">
	<ele>1629.20</ele>
	<time>2025-07-29T10:18:10.000Z</time>
</trkpt>
<trkpt lat="45.8757510" lon="10.3053540">
	<ele>1629.20</ele>
	<time>2025-07-29T10:18:11.000Z</time>
</trkpt>
<trkpt lat="45.8757520" lon="10.3053500">
	<ele>1629.40</ele>
	<time>2025-07-29T10:18:12.000Z</time>
</trkpt>
<trkpt lat="45.8757530" lon="10.3053470">
	<ele>1629.40</ele>
	<time>2025-07-29T10:18:13.000Z</time>
</trkpt>
<trkpt lat="45.8757530" lon="10.3053470">
	<ele>1629.60</ele>
	<time>2025-07-29T10:18:14.000Z</time>
</trkpt>
<trkpt lat="45.8757560" lon="10.3053480">
	<ele>1629.60</ele>
	<time>2025-07-29T10:18:15.000Z</time>
</trkpt>
<trkpt lat="45.8757570" lon="10.3053500">
	<ele>1629.60</ele>
	<time>2025-07-29T10:18:16.000Z</time>
</trkpt>
<trkpt lat="45.8757590" lon="10.3053510">
	<ele>1629.60</ele>
	<time>2025-07-29T10:18:17.000Z</time>
</trkpt>
<trkpt lat="45.8757590" lon="10.3053500">
	<ele>1629.60</ele>
	<time>2025-07-29T10:18:18.000Z</time>
</trkpt>
<trkpt lat="45.8757630" lon="10.3053480">
	<ele>1629.60</ele>
	<time>2025-07-29T10:18:19.000Z</time>
</trkpt>
<trkpt lat="45.8757690" lon="10.3053430">
	<ele>1629.40</ele>
	<time>2025-07-29T10:18:20.000Z</time>
</trkpt>
<trkpt lat="45.8757770" lon="10.3053400">
	<ele>1629.40</ele>
	<time>2025-07-29T10:18:21.000Z</time>
</trkpt>
<trkpt lat="45.8757800" lon="10.3053400">
	<ele>1629.20</ele>
	<time>2025-07-29T10:18:22.000Z</time>
</trkpt>
<trkpt lat="45.8757870" lon="10.3053400">
	<ele>1629.20</ele>
	<time>2025-07-29T10:18:23.000Z</time>
</trkpt>
<trkpt lat="45.8757950" lon="10.3053430">
	<ele>1629.20</ele>
	<time>2025-07-29T10:18:24.000Z</time>
</trkpt>
<trkpt lat="45.8758030" lon="10.3053500">
	<ele>1629.00</ele>
	<time>2025-07-29T10:18:25.000Z</time>
</trkpt>
<trkpt lat="45.8758090" lon="10.3053610">
	<ele>1629.20</ele>
	<time>2025-07-29T10:18:26.000Z</time>
</trkpt>
<trkpt lat="45.8758150" lon="10.3053760">
	<ele>1629.20</ele>
	<time>2025-07-29T10:18:27.000Z</time>
</trkpt>
<trkpt lat="45.8758180" lon="10.3053820">
	<ele>1629.20</ele>
	<time>2025-07-29T10:18:28.000Z</time>
</trkpt>
<trkpt lat="45.8758230" lon="10.3053900">
	<ele>1629.40</ele>
	<time>2025-07-29T10:18:29.000Z</time>
</trkpt>
<trkpt lat="45.8758270" lon="10.3053990">
	<ele>1629.40</ele>
	<time>2025-07-29T10:18:30.000Z</time>
</trkpt>
<trkpt lat="45.8758280" lon="10.3054070">
	<ele>1629.40</ele>
	<time>2025-07-29T10:18:31.000Z</time>
</trkpt>
<trkpt lat="45.8758300" lon="10.3054100">
	<ele>1629.40</ele>
	<time>2025-07-29T10:18:32.000Z</time>
</trkpt>
<trkpt lat="45.8758330" lon="10.3054130">
	<ele>1629.40</ele>
	<time>2025-07-29T10:18:33.000Z</time>
</trkpt>
<trkpt lat="45.8758400" lon="10.3054190">
	<ele>1629.40</ele>
	<time>2025-07-29T10:18:34.000Z</time>
</trkpt>
<trkpt lat="45.8758380" lon="10.3054320">
	<ele>1629.40</ele>
	<time>2025-07-29T10:18:35.000Z</time>
</trkpt>
<trkpt lat="45.8758390" lon="10.3054460">
	<ele>1629.40</ele>
	<time>2025-07-29T10:18:36.000Z</time>
</trkpt>
<trkpt lat="45.8758410" lon="10.3054510">
	<ele>1629.60</ele>
	<time>2025-07-29T10:18:37.000Z</time>
</trkpt>
<trkpt lat="45.8758450" lon="10.3054560">
	<ele>1629.80</ele>
	<time>2025-07-29T10:18:38.000Z</time>
</trkpt>
<trkpt lat="45.8758480" lon="10.3054620">
	<ele>1629.80</ele>
	<time>2025-07-29T10:18:39.000Z</time>
</trkpt>
<trkpt lat="45.8758530" lon="10.3054680">
	<ele>1630.00</ele>
	<time>2025-07-29T10:18:40.000Z</time>
</trkpt>
<trkpt lat="45.8758610" lon="10.3054820">
	<ele>1630.20</ele>
	<time>2025-07-29T10:18:41.000Z</time>
</trkpt>
<trkpt lat="45.8758650" lon="10.3054870">
	<ele>1630.40</ele>
	<time>2025-07-29T10:18:42.000Z</time>
</trkpt>
<trkpt lat="45.8758710" lon="10.3054950">
	<ele>1630.40</ele>
	<time>2025-07-29T10:18:43.000Z</time>
</trkpt>
<trkpt lat="45.8758780" lon="10.3055040">
	<ele>1630.60</ele>
	<time>2025-07-29T10:18:44.000Z</time>
</trkpt>
<trkpt lat="45.8758850" lon="10.3055100">
	<ele>1630.80</ele>
	<time>2025-07-29T10:18:45.000Z</time>
</trkpt>
<trkpt lat="45.8758910" lon="10.3055160">
	<ele>1630.80</ele>
	<time>2025-07-29T10:18:46.000Z</time>
</trkpt>
<trkpt lat="45.8758980" lon="10.3055260">
	<ele>1631.00</ele>
	<time>2025-07-29T10:18:47.000Z</time>
</trkpt>
<trkpt lat="45.8759040" lon="10.3055310">
	<ele>1631.00</ele>
	<time>2025-07-29T10:18:48.000Z</time>
</trkpt>
<trkpt lat="45.8759040" lon="10.3055390">
	<ele>1631.20</ele>
	<time>2025-07-29T10:18:49.000Z</time>
</trkpt>
<trkpt lat="45.8758980" lon="10.3055480">
	<ele>1631.20</ele>
	<time>2025-07-29T10:18:50.000Z</time>
</trkpt>
<trkpt lat="45.8758910" lon="10.3055500">
	<ele>1631.20</ele>
	<time>2025-07-29T10:18:51.000Z</time>
</trkpt>
<trkpt lat="45.8758820" lon="10.3055530">
	<ele>1631.40</ele>
	<time>2025-07-29T10:18:52.000Z</time>
</trkpt>
<trkpt lat="45.8758730" lon="10.3055620">
	<ele>1631.60</ele>
	<time>2025-07-29T10:18:53.000Z</time>
</trkpt>
<trkpt lat="45.8758670" lon="10.3055730">
	<ele>1631.80</ele>
	<time>2025-07-29T10:18:54.000Z</time>
</trkpt>
<trkpt lat="45.8758640" lon="10.3055770">
	<ele>1631.80</ele>
	<time>2025-07-29T10:18:55.000Z</time>
</trkpt>
<trkpt lat="45.8758680" lon="10.3055940">
	<ele>1631.80</ele>
	<time>2025-07-29T10:18:56.000Z</time>
</trkpt>
<trkpt lat="45.8758730" lon="10.3056150">
	<ele>1631.80</ele>
	<time>2025-07-29T10:18:57.000Z</time>
</trkpt>
<trkpt lat="45.8758810" lon="10.3056300">
	<ele>1632.00</ele>
	<time>2025-07-29T10:18:58.000Z</time>
</trkpt>
<trkpt lat="45.8758880" lon="10.3056350">
	<ele>1632.00</ele>
	<time>2025-07-29T10:18:59.000Z</time>
</trkpt>
<trkpt lat="45.8758980" lon="10.3056380">
	<ele>1632.00</ele>
	<time>2025-07-29T10:19:00.000Z</time>
</trkpt>
<trkpt lat="45.8759100" lon="10.3056450">
	<ele>1632.20</ele>
	<time>2025-07-29T10:19:01.000Z</time>
</trkpt>
<trkpt lat="45.8759180" lon="10.3056620">
	<ele>1632.20</ele>
	<time>2025-07-29T10:19:02.000Z</time>
</trkpt>
<trkpt lat="45.8759200" lon="10.3056720">
	<ele>1632.20</ele>
	<time>2025-07-29T10:19:03.000Z</time>
</trkpt>
<trkpt lat="45.8759260" lon="10.3056870">
	<ele>1632.40</ele>
	<time>2025-07-29T10:19:04.000Z</time>
</trkpt>
<trkpt lat="45.8759370" lon="10.3056970">
	<ele>1632.40</ele>
	<time>2025-07-29T10:19:05.000Z</time>
</trkpt>
<trkpt lat="45.8759450" lon="10.3057060">
	<ele>1632.40</ele>
	<time>2025-07-29T10:19:06.000Z</time>
</trkpt>
<trkpt lat="45.8759560" lon="10.3057100">
	<ele>1632.60</ele>
	<time>2025-07-29T10:19:07.000Z</time>
</trkpt>
<trkpt lat="45.8759640" lon="10.3057200">
	<ele>1632.60</ele>
	<time>2025-07-29T10:19:08.000Z</time>
</trkpt>
<trkpt lat="45.8759750" lon="10.3057200">
	<ele>1632.60</ele>
	<time>2025-07-29T10:19:09.000Z</time>
</trkpt>
<trkpt lat="45.8759860" lon="10.3057230">
	<ele>1632.60</ele>
	<time>2025-07-29T10:19:10.000Z</time>
</trkpt>
<trkpt lat="45.8759920" lon="10.3057290">
	<ele>1632.60</ele>
	<time>2025-07-29T10:19:11.000Z</time>
</trkpt>
<trkpt lat="45.8759950" lon="10.3057340">
	<ele>1632.80</ele>
	<time>2025-07-29T10:19:12.000Z</time>
</trkpt>
<trkpt lat="45.8759950" lon="10.3057410">
	<ele>1632.80</ele>
	<time>2025-07-29T10:19:13.000Z</time>
</trkpt>
<trkpt lat="45.8760000" lon="10.3057520">
	<ele>1633.00</ele>
	<time>2025-07-29T10:19:14.000Z</time>
</trkpt>
<trkpt lat="45.8760060" lon="10.3057560">
	<ele>1633.00</ele>
	<time>2025-07-29T10:19:15.000Z</time>
</trkpt>
<trkpt lat="45.8760140" lon="10.3057570">
	<ele>1632.80</ele>
	<time>2025-07-29T10:19:16.000Z</time>
</trkpt>
<trkpt lat="45.8760210" lon="10.3057540">
	<ele>1632.80</ele>
	<time>2025-07-29T10:19:17.000Z</time>
</trkpt>
<trkpt lat="45.8760290" lon="10.3057510">
	<ele>1632.60</ele>
	<time>2025-07-29T10:19:18.000Z</time>
</trkpt>
<trkpt lat="45.8760340" lon="10.3057440">
	<ele>1632.60</ele>
	<time>2025-07-29T10:19:19.000Z</time>
</trkpt>
<trkpt lat="45.8760380" lon="10.3057370">
	<ele>1632.60</ele>
	<time>2025-07-29T10:19:20.000Z</time>
</trkpt>
<trkpt lat="45.8760380" lon="10.3057340">
	<ele>1632.60</ele>
	<time>2025-07-29T10:19:21.000Z</time>
</trkpt>
<trkpt lat="45.8760370" lon="10.3057330">
	<ele>1632.60</ele>
	<time>2025-07-29T10:19:22.000Z</time>
</trkpt>
<trkpt lat="45.8760370" lon="10.3057330">
	<ele>1632.60</ele>
	<time>2025-07-29T10:19:23.000Z</time>
</trkpt>
<trkpt lat="45.8760390" lon="10.3057400">
	<ele>1632.60</ele>
	<time>2025-07-29T10:19:24.000Z</time>
</trkpt>
<trkpt lat="45.8760420" lon="10.3057460">
	<ele>1632.60</ele>
	<time>2025-07-29T10:19:25.000Z</time>
</trkpt>
<trkpt lat="45.8760470" lon="10.3057560">
	<ele>1632.60</ele>
	<time>2025-07-29T10:19:26.000Z</time>
</trkpt>
<trkpt lat="45.8760580" lon="10.3057610">
	<ele>1632.60</ele>
	<time>2025-07-29T10:19:27.000Z</time>
</trkpt>
<trkpt lat="45.8760720" lon="10.3057670">
	<ele>1632.60</ele>
	<time>2025-07-29T10:19:28.000Z</time>
</trkpt>
<trkpt lat="45.8760850" lon="10.3057720">
	<ele>1632.60</ele>
	<time>2025-07-29T10:19:29.000Z</time>
</trkpt>
<trkpt lat="45.8760950" lon="10.3057680">
	<ele>1632.60</ele>
	<time>2025-07-29T10:19:30.000Z</time>
</trkpt>
<trkpt lat="45.8760990" lon="10.3057690">
	<ele>1632.60</ele>
	<time>2025-07-29T10:19:31.000Z</time>
</trkpt>
<trkpt lat="45.8760990" lon="10.3057690">
	<ele>1632.60</ele>
	<time>2025-07-29T10:19:32.000Z</time>
</trkpt>
<trkpt lat="45.8761010" lon="10.3057710">
	<ele>1632.60</ele>
	<time>2025-07-29T10:19:33.000Z</time>
</trkpt>
<trkpt lat="45.8761050" lon="10.3057760">
	<ele>1632.60</ele>
	<time>2025-07-29T10:19:34.000Z</time>
</trkpt>
<trkpt lat="45.8761100" lon="10.3057790">
	<ele>1632.60</ele>
	<time>2025-07-29T10:19:35.000Z</time>
</trkpt>
<trkpt lat="45.8761070" lon="10.3057760">
	<ele>1632.60</ele>
	<time>2025-07-29T10:19:36.000Z</time>
</trkpt>
<trkpt lat="45.8761090" lon="10.3057770">
	<ele>1632.60</ele>
	<time>2025-07-29T10:19:37.000Z</time>
</trkpt>
<trkpt lat="45.8761120" lon="10.3057770">
	<ele>1632.60</ele>
	<time>2025-07-29T10:19:38.000Z</time>
</trkpt>
<trkpt lat="45.8761130" lon="10.3057780">
	<ele>1632.60</ele>
	<time>2025-07-29T10:19:39.000Z</time>
</trkpt>
<trkpt lat="45.8761040" lon="10.3057670">
	<ele>1632.60</ele>
	<time>2025-07-29T10:19:40.000Z</time>
</trkpt>
<trkpt lat="45.8761000" lon="10.3057630">
	<ele>1632.40</ele>
	<time>2025-07-29T10:19:41.000Z</time>
</trkpt>
<trkpt lat="45.8760970" lon="10.3057620">
	<ele>1632.40</ele>
	<time>2025-07-29T10:19:42.000Z</time>
</trkpt>
<trkpt lat="45.8760940" lon="10.3057610">
	<ele>1632.40</ele>
	<time>2025-07-29T10:19:43.000Z</time>
</trkpt>
<trkpt lat="45.8760880" lon="10.3057530">
	<ele>1632.40</ele>
	<time>2025-07-29T10:19:44.000Z</time>
</trkpt>
<trkpt lat="45.8760810" lon="10.3057430">
	<ele>1632.40</ele>
	<time>2025-07-29T10:19:45.000Z</time>
</trkpt>
<trkpt lat="45.8760790" lon="10.3057390">
	<ele>1632.40</ele>
	<time>2025-07-29T10:19:46.000Z</time>
</trkpt>
<trkpt lat="45.8760780" lon="10.3057360">
	<ele>1632.60</ele>
	<time>2025-07-29T10:19:47.000Z</time>
</trkpt>
<trkpt lat="45.8760780" lon="10.3057330">
	<ele>1632.60</ele>
	<time>2025-07-29T10:19:48.000Z</time>
</trkpt>
<trkpt lat="45.8760770" lon="10.3057330">
	<ele>1632.60</ele>
	<time>2025-07-29T10:19:49.000Z</time>
</trkpt>
<trkpt lat="45.8760770" lon="10.3057330">
	<ele>1632.60</ele>
	<time>2025-07-29T10:19:50.000Z</time>
</trkpt>
<trkpt lat="45.8760770" lon="10.3057330">
	<ele>1632.60</ele>
	<time>2025-07-29T10:19:51.000Z</time>
</trkpt>
<trkpt lat="45.8760770" lon="10.3057330">
	<ele>1632.60</ele>
	<time>2025-07-29T10:19:52.000Z</time>
</trkpt>
<trkpt lat="45.8760770" lon="10.3057330">
	<ele>1632.60</ele>
	<time>2025-07-29T10:19:53.000Z</time>
</trkpt>
<trkpt lat="45.8760770" lon="10.3057330">
	<ele>1632.60</ele>
	<time>2025-07-29T10:19:54.000Z</time>
</trkpt>
<trkpt lat="45.8760770" lon="10.3057330">
	<ele>1632.60</ele>
	<time>2025-07-29T10:19:55.000Z</time>
</trkpt>
<trkpt lat="45.8760770" lon="10.3057330">
	<ele>1632.60</ele>
	<time>2025-07-29T10:19:56.000Z</time>
</trkpt>
<trkpt lat="45.8760780" lon="10.3057330">
	<ele>1632.60</ele>
	<time>2025-07-29T10:19:57.000Z</time>
</trkpt>
<trkpt lat="45.8760780" lon="10.3057340">
	<ele>1632.40</ele>
	<time>2025-07-29T10:19:58.000Z</time>
</trkpt>
<trkpt lat="45.8760790" lon="10.3057360">
	<ele>1632.40</ele>
	<time>2025-07-29T10:19:59.000Z</time>
</trkpt>
<trkpt lat="45.8760810" lon="10.3057360">
	<ele>1632.40</ele>
	<time>2025-07-29T10:20:00.000Z</time>
</trkpt>
<trkpt lat="45.8760830" lon="10.3057360">
	<ele>1632.40</ele>
	<time>2025-07-29T10:20:01.000Z</time>
</trkpt>
<trkpt lat="45.8760860" lon="10.3057360">
	<ele>1632.40</ele>
	<time>2025-07-29T10:20:02.000Z</time>
</trkpt>
<trkpt lat="45.8760860" lon="10.3057360">
	<ele>1632.40</ele>
	<time>2025-07-29T10:20:03.000Z</time>
</trkpt>
<trkpt lat="45.8760860" lon="10.3057360">
	<ele>1632.40</ele>
	<time>2025-07-29T10:20:04.000Z</time>
</trkpt>
<trkpt lat="45.8760860" lon="10.3057360">
	<ele>1632.40</ele>
	<time>2025-07-29T10:20:05.000Z</time>
</trkpt>
<trkpt lat="45.8760860" lon="10.3057360">
	<ele>1632.40</ele>
	<time>2025-07-29T10:20:06.000Z</time>
</trkpt>
<trkpt lat="45.8760860" lon="10.3057360">
	<ele>1632.40</ele>
	<time>2025-07-29T10:20:07.000Z</time>
</trkpt>
<trkpt lat="45.8760860" lon="10.3057360">
	<ele>1632.40</ele>
	<time>2025-07-29T10:20:08.000Z</time>
</trkpt>
<trkpt lat="45.8760860" lon="10.3057360">
	<ele>1632.40</ele>
	<time>2025-07-29T10:20:09.000Z</time>
</trkpt>
<trkpt lat="45.8760860" lon="10.3057360">
	<ele>1632.40</ele>
	<time>2025-07-29T10:20:10.000Z</time>
</trkpt>
<trkpt lat="45.8760830" lon="10.3057360">
	<ele>1632.40</ele>
	<time>2025-07-29T10:20:11.000Z</time>
</trkpt>
<trkpt lat="45.8760830" lon="10.3057360">
	<ele>1632.40</ele>
	<time>2025-07-29T10:20:12.000Z</time>
</trkpt>
<trkpt lat="45.8760810" lon="10.3057340">
	<ele>1632.40</ele>
	<time>2025-07-29T10:20:13.000Z</time>
</trkpt>
<trkpt lat="45.8760800" lon="10.3057330">
	<ele>1632.40</ele>
	<time>2025-07-29T10:20:14.000Z</time>
</trkpt>
<trkpt lat="45.8760790" lon="10.3057330">
	<ele>1632.40</ele>
	<time>2025-07-29T10:20:15.000Z</time>
</trkpt>
<trkpt lat="45.8760780" lon="10.3057330">
	<ele>1632.40</ele>
	<time>2025-07-29T10:20:16.000Z</time>
</trkpt>
<trkpt lat="45.8760790" lon="10.3057350">
	<ele>1632.40</ele>
	<time>2025-07-29T10:20:17.000Z</time>
</trkpt>
<trkpt lat="45.8760930" lon="10.3057370">
	<ele>1632.40</ele>
	<time>2025-07-29T10:20:18.000Z</time>
</trkpt>
<trkpt lat="45.8761000" lon="10.3057350">
	<ele>1632.40</ele>
	<time>2025-07-29T10:20:19.000Z</time>
</trkpt>
<trkpt lat="45.8761090" lon="10.3057360">
	<ele>1632.40</ele>
	<time>2025-07-29T10:20:20.000Z</time>
</trkpt>
<trkpt lat="45.8761140" lon="10.3057350">
	<ele>1632.40</ele>
	<time>2025-07-29T10:20:21.000Z</time>
</trkpt>
<trkpt lat="45.8761180" lon="10.3057340">
	<ele>1632.40</ele>
	<time>2025-07-29T10:20:22.000Z</time>
</trkpt>
<trkpt lat="45.8761190" lon="10.3057340">
	<ele>1632.40</ele>
	<time>2025-07-29T10:20:23.000Z</time>
</trkpt>
<trkpt lat="45.8761190" lon="10.3057340">
	<ele>1632.40</ele>
	<time>2025-07-29T10:20:24.000Z</time>
</trkpt>
<trkpt lat="45.8761190" lon="10.3057340">
	<ele>1632.40</ele>
	<time>2025-07-29T10:20:25.000Z</time>
</trkpt>
<trkpt lat="45.8761190" lon="10.3057340">
	<ele>1632.40</ele>
	<time>2025-07-29T10:20:26.000Z</time>
</trkpt>
<trkpt lat="45.8761190" lon="10.3057340">
	<ele>1632.40</ele>
	<time>2025-07-29T10:20:27.000Z</time>
</trkpt>
<trkpt lat="45.8761190" lon="10.3057340">
	<ele>1632.40</ele>
	<time>2025-07-29T10:20:28.000Z</time>
</trkpt>
<trkpt lat="45.8761190" lon="10.3057340">
	<ele>1632.40</ele>
	<time>2025-07-29T10:20:29.000Z</time>
</trkpt>
<trkpt lat="45.8761190" lon="10.3057380">
	<ele>1632.40</ele>
	<time>2025-07-29T10:20:30.000Z</time>
</trkpt>
<trkpt lat="45.8761190" lon="10.3057390">
	<ele>1632.40</ele>
	<time>2025-07-29T10:20:31.000Z</time>
</trkpt>
<trkpt lat="45.8761180" lon="10.3057390">
	<ele>1632.40</ele>
	<time>2025-07-29T10:20:32.000Z</time>
</trkpt>
<trkpt lat="45.8761180" lon="10.3057390">
	<ele>1632.40</ele>
	<time>2025-07-29T10:20:33.000Z</time>
</trkpt>
<trkpt lat="45.8761180" lon="10.3057390">
	<ele>1632.40</ele>
	<time>2025-07-29T10:20:34.000Z</time>
</trkpt>
<trkpt lat="45.8761180" lon="10.3057390">
	<ele>1632.40</ele>
	<time>2025-07-29T10:20:35.000Z</time>
</trkpt>
<trkpt lat="45.8761180" lon="10.3057390">
	<ele>1632.40</ele>
	<time>2025-07-29T10:20:36.000Z</time>
</trkpt>
<trkpt lat="45.8761210" lon="10.3057360">
	<ele>1632.40</ele>
	<time>2025-07-29T10:20:37.000Z</time>
</trkpt>
<trkpt lat="45.8761350" lon="10.3057250">
	<ele>1632.40</ele>
	<time>2025-07-29T10:20:38.000Z</time>
</trkpt>
<trkpt lat="45.8761520" lon="10.3057100">
	<ele>1632.40</ele>
	<time>2025-07-29T10:20:39.000Z</time>
</trkpt>
<trkpt lat="45.8761640" lon="10.3056920">
	<ele>1632.40</ele>
	<time>2025-07-29T10:20:40.000Z</time>
</trkpt>
<trkpt lat="45.8761740" lon="10.3056790">
	<ele>1632.40</ele>
	<time>2025-07-29T10:20:41.000Z</time>
</trkpt>
<trkpt lat="45.8761840" lon="10.3056610">
	<ele>1632.40</ele>
	<time>2025-07-29T10:20:42.000Z</time>
</trkpt>
<trkpt lat="45.8761970" lon="10.3056470">
	<ele>1632.40</ele>
	<time>2025-07-29T10:20:43.000Z</time>
</trkpt>
<trkpt lat="45.8762120" lon="10.3056380">
	<ele>1632.40</ele>
	<time>2025-07-29T10:20:44.000Z</time>
</trkpt>
<trkpt lat="45.8762290" lon="10.3056330">
	<ele>1632.40</ele>
	<time>2025-07-29T10:20:45.000Z</time>
</trkpt>
<trkpt lat="45.8762420" lon="10.3056300">
	<ele>1632.40</ele>
	<time>2025-07-29T10:20:46.000Z</time>
</trkpt>
<trkpt lat="45.8762530" lon="10.3056250">
	<ele>1631.80</ele>
	<time>2025-07-29T10:20:47.000Z</time>
</trkpt>
<trkpt lat="45.8762640" lon="10.3056190">
	<ele>1631.60</ele>
	<time>2025-07-29T10:20:48.000Z</time>
</trkpt>
<trkpt lat="45.8762740" lon="10.3056110">
	<ele>1631.40</ele>
	<time>2025-07-29T10:20:49.000Z</time>
</trkpt>
<trkpt lat="45.8762820" lon="10.3056030">
	<ele>1631.20</ele>
	<time>2025-07-29T10:20:50.000Z</time>
</trkpt>
<trkpt lat="45.8762900" lon="10.3055910">
	<ele>1631.20</ele>
	<time>2025-07-29T10:20:51.000Z</time>
</trkpt>
<trkpt lat="45.8762980" lon="10.3055810">
	<ele>1631.00</ele>
	<time>2025-07-29T10:20:52.000Z</time>
</trkpt>
<trkpt lat="45.8763070" lon="10.3055690">
	<ele>1631.00</ele>
	<time>2025-07-29T10:20:53.000Z</time>
</trkpt>
<trkpt lat="45.8763140" lon="10.3055610">
	<ele>1631.00</ele>
	<time>2025-07-29T10:20:54.000Z</time>
</trkpt>
<trkpt lat="45.8763220" lon="10.3055520">
	<ele>1630.80</ele>
	<time>2025-07-29T10:20:55.000Z</time>
</trkpt>
<trkpt lat="45.8763300" lon="10.3055450">
	<ele>1630.60</ele>
	<time>2025-07-29T10:20:56.000Z</time>
</trkpt>
<trkpt lat="45.8763390" lon="10.3055330">
	<ele>1630.60</ele>
	<time>2025-07-29T10:20:57.000Z</time>
</trkpt>
<trkpt lat="45.8763460" lon="10.3055200">
	<ele>1630.40</ele>
	<time>2025-07-29T10:20:58.000Z</time>
</trkpt>
<trkpt lat="45.8763550" lon="10.3055080">
	<ele>1630.20</ele>
	<time>2025-07-29T10:20:59.000Z</time>
</trkpt>
<trkpt lat="45.8763660" lon="10.3054970">
	<ele>1630.00</ele>
	<time>2025-07-29T10:21:00.000Z</time>
</trkpt>
<trkpt lat="45.8763740" lon="10.3054830">
	<ele>1630.00</ele>
	<time>2025-07-29T10:21:01.000Z</time>
</trkpt>
<trkpt lat="45.8763770" lon="10.3054710">
	<ele>1629.80</ele>
	<time>2025-07-29T10:21:02.000Z</time>
</trkpt>
<trkpt lat="45.8763740" lon="10.3054650">
	<ele>1629.80</ele>
	<time>2025-07-29T10:21:03.000Z</time>
</trkpt>
<trkpt lat="45.8763700" lon="10.3054570">
	<ele>1629.80</ele>
	<time>2025-07-29T10:21:04.000Z</time>
</trkpt>
<trkpt lat="45.8763690" lon="10.3054480">
	<ele>1629.80</ele>
	<time>2025-07-29T10:21:05.000Z</time>
</trkpt>
<trkpt lat="45.8763740" lon="10.3054380">
	<ele>1629.60</ele>
	<time>2025-07-29T10:21:06.000Z</time>
</trkpt>
<trkpt lat="45.8763820" lon="10.3054240">
	<ele>1629.60</ele>
	<time>2025-07-29T10:21:07.000Z</time>
</trkpt>
<trkpt lat="45.8763870" lon="10.3054110">
	<ele>1629.40</ele>
	<time>2025-07-29T10:21:08.000Z</time>
</trkpt>
<trkpt lat="45.8763910" lon="10.3053920">
	<ele>1629.20</ele>
	<time>2025-07-29T10:21:09.000Z</time>
</trkpt>
<trkpt lat="45.8763980" lon="10.3053810">
	<ele>1629.00</ele>
	<time>2025-07-29T10:21:10.000Z</time>
</trkpt>
<trkpt lat="45.8764060" lon="10.3053680">
	<ele>1629.00</ele>
	<time>2025-07-29T10:21:11.000Z</time>
</trkpt>
<trkpt lat="45.8764160" lon="10.3053570">
	<ele>1628.80</ele>
	<time>2025-07-29T10:21:12.000Z</time>
</trkpt>
<trkpt lat="45.8764250" lon="10.3053450">
	<ele>1628.60</ele>
	<time>2025-07-29T10:21:13.000Z</time>
</trkpt>
<trkpt lat="45.8764320" lon="10.3053350">
	<ele>1628.40</ele>
	<time>2025-07-29T10:21:14.000Z</time>
</trkpt>
<trkpt lat="45.8764390" lon="10.3053200">
	<ele>1628.20</ele>
	<time>2025-07-29T10:21:15.000Z</time>
</trkpt>
<trkpt lat="45.8764470" lon="10.3053110">
	<ele>1628.20</ele>
	<time>2025-07-29T10:21:16.000Z</time>
</trkpt>
<trkpt lat="45.8764630" lon="10.3053030">
	<ele>1628.00</ele>
	<time>2025-07-29T10:21:17.000Z</time>
</trkpt>
<trkpt lat="45.8764800" lon="10.3052910">
	<ele>1627.80</ele>
	<time>2025-07-29T10:21:18.000Z</time>
</trkpt>
<trkpt lat="45.8764930" lon="10.3052770">
	<ele>1627.80</ele>
	<time>2025-07-29T10:21:19.000Z</time>
</trkpt>
<trkpt lat="45.8765040" lon="10.3052670">
	<ele>1627.80</ele>
	<time>2025-07-29T10:21:20.000Z</time>
</trkpt>
<trkpt lat="45.8765160" lon="10.3052570">
	<ele>1627.80</ele>
	<time>2025-07-29T10:21:21.000Z</time>
</trkpt>
<trkpt lat="45.8765230" lon="10.3052400">
	<ele>1627.80</ele>
	<time>2025-07-29T10:21:22.000Z</time>
</trkpt>
<trkpt lat="45.8765240" lon="10.3052280">
	<ele>1627.60</ele>
	<time>2025-07-29T10:21:23.000Z</time>
</trkpt>
<trkpt lat="45.8765260" lon="10.3052130">
	<ele>1627.40</ele>
	<time>2025-07-29T10:21:24.000Z</time>
</trkpt>
<trkpt lat="45.8765300" lon="10.3052010">
	<ele>1627.20</ele>
	<time>2025-07-29T10:21:25.000Z</time>
</trkpt>
<trkpt lat="45.8765320" lon="10.3051860">
	<ele>1627.00</ele>
	<time>2025-07-29T10:21:26.000Z</time>
</trkpt>
<trkpt lat="45.8765460" lon="10.3051600">
	<ele>1626.80</ele>
	<time>2025-07-29T10:21:27.000Z</time>
</trkpt>
<trkpt lat="45.8765570" lon="10.3051480">
	<ele>1626.60</ele>
	<time>2025-07-29T10:21:28.000Z</time>
</trkpt>
<trkpt lat="45.8765680" lon="10.3051320">
	<ele>1626.40</ele>
	<time>2025-07-29T10:21:29.000Z</time>
</trkpt>
<trkpt lat="45.8765710" lon="10.3051180">
	<ele>1626.20</ele>
	<time>2025-07-29T10:21:30.000Z</time>
</trkpt>
<trkpt lat="45.8765920" lon="10.3051220">
	<ele>1626.00</ele>
	<time>2025-07-29T10:21:31.000Z</time>
</trkpt>
<trkpt lat="45.8766020" lon="10.3051270">
	<ele>1625.80</ele>
	<time>2025-07-29T10:21:32.000Z</time>
</trkpt>
<trkpt lat="45.8766120" lon="10.3051170">
	<ele>1625.60</ele>
	<time>2025-07-29T10:21:33.000Z</time>
</trkpt>
<trkpt lat="45.8766240" lon="10.3051100">
	<ele>1625.40</ele>
	<time>2025-07-29T10:21:34.000Z</time>
</trkpt>
<trkpt lat="45.8766330" lon="10.3051030">
	<ele>1625.40</ele>
	<time>2025-07-29T10:21:35.000Z</time>
</trkpt>
<trkpt lat="45.8766360" lon="10.3050910">
	<ele>1625.40</ele>
	<time>2025-07-29T10:21:36.000Z</time>
</trkpt>
<trkpt lat="45.8766440" lon="10.3050860">
	<ele>1625.20</ele>
	<time>2025-07-29T10:21:37.000Z</time>
</trkpt>
<trkpt lat="45.8766510" lon="10.3050780">
	<ele>1625.20</ele>
	<time>2025-07-29T10:21:38.000Z</time>
</trkpt>
<trkpt lat="45.8766570" lon="10.3050790">
	<ele>1625.00</ele>
	<time>2025-07-29T10:21:39.000Z</time>
</trkpt>
<trkpt lat="45.8766680" lon="10.3050770">
	<ele>1625.00</ele>
	<time>2025-07-29T10:21:40.000Z</time>
</trkpt>
<trkpt lat="45.8766750" lon="10.3050730">
	<ele>1625.00</ele>
	<time>2025-07-29T10:21:41.000Z</time>
</trkpt>
<trkpt lat="45.8766830" lon="10.3050680">
	<ele>1624.80</ele>
	<time>2025-07-29T10:21:42.000Z</time>
</trkpt>
<trkpt lat="45.8766920" lon="10.3050590">
	<ele>1624.80</ele>
	<time>2025-07-29T10:21:43.000Z</time>
</trkpt>
<trkpt lat="45.8767040" lon="10.3050530">
	<ele>1624.80</ele>
	<time>2025-07-29T10:21:44.000Z</time>
</trkpt>
<trkpt lat="45.8767140" lon="10.3050470">
	<ele>1624.60</ele>
	<time>2025-07-29T10:21:45.000Z</time>
</trkpt>
<trkpt lat="45.8767220" lon="10.3050420">
	<ele>1624.60</ele>
	<time>2025-07-29T10:21:46.000Z</time>
</trkpt>
<trkpt lat="45.8767300" lon="10.3050310">
	<ele>1624.40</ele>
	<time>2025-07-29T10:21:47.000Z</time>
</trkpt>
<trkpt lat="45.8767420" lon="10.3050230">
	<ele>1624.20</ele>
	<time>2025-07-29T10:21:48.000Z</time>
</trkpt>
<trkpt lat="45.8767500" lon="10.3050190">
	<ele>1624.00</ele>
	<time>2025-07-29T10:21:49.000Z</time>
</trkpt>
<trkpt lat="45.8767610" lon="10.3050190">
	<ele>1623.80</ele>
	<time>2025-07-29T10:21:50.000Z</time>
</trkpt>
<trkpt lat="45.8767710" lon="10.3050220">
	<ele>1623.80</ele>
	<time>2025-07-29T10:21:51.000Z</time>
</trkpt>
<trkpt lat="45.8767810" lon="10.3050300">
	<ele>1623.80</ele>
	<time>2025-07-29T10:21:52.000Z</time>
</trkpt>
<trkpt lat="45.8767900" lon="10.3050370">
	<ele>1623.60</ele>
	<time>2025-07-29T10:21:53.000Z</time>
</trkpt>
<trkpt lat="45.8767950" lon="10.3050450">
	<ele>1623.60</ele>
	<time>2025-07-29T10:21:54.000Z</time>
</trkpt>
<trkpt lat="45.8768020" lon="10.3050560">
	<ele>1623.60</ele>
	<time>2025-07-29T10:21:55.000Z</time>
</trkpt>
<trkpt lat="45.8768070" lon="10.3050630">
	<ele>1623.40</ele>
	<time>2025-07-29T10:21:56.000Z</time>
</trkpt>
<trkpt lat="45.8768130" lon="10.3050680">
	<ele>1623.40</ele>
	<time>2025-07-29T10:21:57.000Z</time>
</trkpt>
<trkpt lat="45.8768210" lon="10.3050660">
	<ele>1623.20</ele>
	<time>2025-07-29T10:21:58.000Z</time>
</trkpt>
<trkpt lat="45.8768350" lon="10.3050640">
	<ele>1623.20</ele>
	<time>2025-07-29T10:21:59.000Z</time>
</trkpt>
<trkpt lat="45.8768450" lon="10.3050670">
	<ele>1623.20</ele>
	<time>2025-07-29T10:22:00.000Z</time>
</trkpt>
<trkpt lat="45.8768550" lon="10.3050710">
	<ele>1623.40</ele>
	<time>2025-07-29T10:22:01.000Z</time>
</trkpt>
<trkpt lat="45.8768680" lon="10.3050780">
	<ele>1623.40</ele>
	<time>2025-07-29T10:22:02.000Z</time>
</trkpt>
<trkpt lat="45.8768810" lon="10.3050790">
	<ele>1623.60</ele>
	<time>2025-07-29T10:22:03.000Z</time>
</trkpt>
<trkpt lat="45.8768940" lon="10.3050770">
	<ele>1623.60</ele>
	<time>2025-07-29T10:22:04.000Z</time>
</trkpt>
<trkpt lat="45.8769020" lon="10.3050790">
	<ele>1623.60</ele>
	<time>2025-07-29T10:22:05.000Z</time>
</trkpt>
<trkpt lat="45.8769080" lon="10.3050810">
	<ele>1623.60</ele>
	<time>2025-07-29T10:22:06.000Z</time>
</trkpt>
<trkpt lat="45.8769180" lon="10.3050870">
	<ele>1623.80</ele>
	<time>2025-07-29T10:22:07.000Z</time>
</trkpt>
<trkpt lat="45.8769250" lon="10.3050960">
	<ele>1623.80</ele>
	<time>2025-07-29T10:22:08.000Z</time>
</trkpt>
<trkpt lat="45.8769310" lon="10.3051040">
	<ele>1623.80</ele>
	<time>2025-07-29T10:22:09.000Z</time>
</trkpt>
<trkpt lat="45.8769350" lon="10.3051180">
	<ele>1623.80</ele>
	<time>2025-07-29T10:22:10.000Z</time>
</trkpt>
<trkpt lat="45.8769400" lon="10.3051310">
	<ele>1624.00</ele>
	<time>2025-07-29T10:22:11.000Z</time>
</trkpt>
<trkpt lat="45.8769420" lon="10.3051410">
	<ele>1624.00</ele>
	<time>2025-07-29T10:22:12.000Z</time>
</trkpt>
<trkpt lat="45.8769480" lon="10.3051500">
	<ele>1624.00</ele>
	<time>2025-07-29T10:22:13.000Z</time>
</trkpt>
<trkpt lat="45.8769530" lon="10.3051580">
	<ele>1624.00</ele>
	<time>2025-07-29T10:22:14.000Z</time>
</trkpt>
<trkpt lat="45.8769620" lon="10.3051680">
	<ele>1624.00</ele>
	<time>2025-07-29T10:22:15.000Z</time>
</trkpt>
<trkpt lat="45.8769720" lon="10.3051680">
	<ele>1624.00</ele>
	<time>2025-07-29T10:22:16.000Z</time>
</trkpt>
<trkpt lat="45.8769840" lon="10.3051660">
	<ele>1624.00</ele>
	<time>2025-07-29T10:22:17.000Z</time>
</trkpt>
<trkpt lat="45.8769900" lon="10.3051650">
	<ele>1624.00</ele>
	<time>2025-07-29T10:22:18.000Z</time>
</trkpt>
<trkpt lat="45.8769930" lon="10.3051630">
	<ele>1624.00</ele>
	<time>2025-07-29T10:22:19.000Z</time>
</trkpt>
<trkpt lat="45.8769940" lon="10.3051610">
	<ele>1624.00</ele>
	<time>2025-07-29T10:22:20.000Z</time>
</trkpt>
<trkpt lat="45.8769960" lon="10.3051600">
	<ele>1624.00</ele>
	<time>2025-07-29T10:22:21.000Z</time>
</trkpt>
<trkpt lat="45.8769960" lon="10.3051580">
	<ele>1624.00</ele>
	<time>2025-07-29T10:22:22.000Z</time>
</trkpt>
<trkpt lat="45.8769950" lon="10.3051590">
	<ele>1624.20</ele>
	<time>2025-07-29T10:22:23.000Z</time>
</trkpt>
<trkpt lat="45.8769940" lon="10.3051580">
	<ele>1624.20</ele>
	<time>2025-07-29T10:22:24.000Z</time>
</trkpt>
<trkpt lat="45.8769960" lon="10.3051590">
	<ele>1624.20</ele>
	<time>2025-07-29T10:22:25.000Z</time>
</trkpt>
<trkpt lat="45.8769950" lon="10.3051570">
	<ele>1624.20</ele>
	<time>2025-07-29T10:22:26.000Z</time>
</trkpt>
<trkpt lat="45.8769950" lon="10.3051560">
	<ele>1624.20</ele>
	<time>2025-07-29T10:22:27.000Z</time>
</trkpt>
<trkpt lat="45.8769960" lon="10.3051560">
	<ele>1624.20</ele>
	<time>2025-07-29T10:22:28.000Z</time>
</trkpt>
<trkpt lat="45.8769960" lon="10.3051530">
	<ele>1624.20</ele>
	<time>2025-07-29T10:22:29.000Z</time>
</trkpt>
<trkpt lat="45.8769930" lon="10.3051500">
	<ele>1624.20</ele>
	<time>2025-07-29T10:22:30.000Z</time>
</trkpt>
<trkpt lat="45.8769930" lon="10.3051500">
	<ele>1624.20</ele>
	<time>2025-07-29T10:22:31.000Z</time>
</trkpt>
<trkpt lat="45.8769930" lon="10.3051490">
	<ele>1624.20</ele>
	<time>2025-07-29T10:22:32.000Z</time>
</trkpt>
<trkpt lat="45.8769930" lon="10.3051490">
	<ele>1624.00</ele>
	<time>2025-07-29T10:22:33.000Z</time>
</trkpt>
<trkpt lat="45.8769930" lon="10.3051490">
	<ele>1624.00</ele>
	<time>2025-07-29T10:22:34.000Z</time>
</trkpt>
<trkpt lat="45.8769930" lon="10.3051490">
	<ele>1623.80</ele>
	<time>2025-07-29T10:22:35.000Z</time>
</trkpt>
<trkpt lat="45.8769930" lon="10.3051490">
	<ele>1623.80</ele>
	<time>2025-07-29T10:22:36.000Z</time>
</trkpt>
<trkpt lat="45.8769930" lon="10.3051490">
	<ele>1623.80</ele>
	<time>2025-07-29T10:22:37.000Z</time>
</trkpt>
<trkpt lat="45.8769930" lon="10.3051490">
	<ele>1623.80</ele>
	<time>2025-07-29T10:22:38.000Z</time>
</trkpt>
<trkpt lat="45.8769930" lon="10.3051490">
	<ele>1623.80</ele>
	<time>2025-07-29T10:22:39.000Z</time>
</trkpt>
<trkpt lat="45.8769930" lon="10.3051490">
	<ele>1623.80</ele>
	<time>2025-07-29T10:22:40.000Z</time>
</trkpt>
<trkpt lat="45.8769930" lon="10.3051490">
	<ele>1623.80</ele>
	<time>2025-07-29T10:22:41.000Z</time>
</trkpt>
<trkpt lat="45.8769930" lon="10.3051490">
	<ele>1623.80</ele>
	<time>2025-07-29T10:22:42.000Z</time>
</trkpt>
<trkpt lat="45.8769930" lon="10.3051490">
	<ele>1623.80</ele>
	<time>2025-07-29T10:22:43.000Z</time>
</trkpt>
<trkpt lat="45.8769930" lon="10.3051490">
	<ele>1623.80</ele>
	<time>2025-07-29T10:22:44.000Z</time>
</trkpt>
<trkpt lat="45.8769960" lon="10.3051500">
	<ele>1623.80</ele>
	<time>2025-07-29T10:22:45.000Z</time>
</trkpt>
<trkpt lat="45.8770080" lon="10.3051580">
	<ele>1623.80</ele>
	<time>2025-07-29T10:22:46.000Z</time>
</trkpt>
<trkpt lat="45.8770190" lon="10.3051650">
	<ele>1623.80</ele>
	<time>2025-07-29T10:22:47.000Z</time>
</trkpt>
<trkpt lat="45.8770270" lon="10.3051730">
	<ele>1623.80</ele>
	<time>2025-07-29T10:22:48.000Z</time>
</trkpt>
<trkpt lat="45.8770370" lon="10.3051840">
	<ele>1623.80</ele>
	<time>2025-07-29T10:22:49.000Z</time>
</trkpt>
<trkpt lat="45.8770440" lon="10.3051950">
	<ele>1623.60</ele>
	<time>2025-07-29T10:22:50.000Z</time>
</trkpt>
<trkpt lat="45.8770540" lon="10.3052070">
	<ele>1623.60</ele>
	<time>2025-07-29T10:22:51.000Z</time>
</trkpt>
<trkpt lat="45.8770660" lon="10.3052230">
	<ele>1623.40</ele>
	<time>2025-07-29T10:22:52.000Z</time>
</trkpt>
<trkpt lat="45.8770780" lon="10.3052390">
	<ele>1623.20</ele>
	<time>2025-07-29T10:22:53.000Z</time>
</trkpt>
<trkpt lat="45.8770920" lon="10.3052470">
	<ele>1623.20</ele>
	<time>2025-07-29T10:22:54.000Z</time>
</trkpt>
<trkpt lat="45.8771060" lon="10.3052560">
	<ele>1623.20</ele>
	<time>2025-07-29T10:22:55.000Z</time>
</trkpt>
<trkpt lat="45.8771150" lon="10.3052560">
	<ele>1623.20</ele>
	<time>2025-07-29T10:22:56.000Z</time>
</trkpt>
<trkpt lat="45.8771270" lon="10.3052590">
	<ele>1623.00</ele>
	<time>2025-07-29T10:22:57.000Z</time>
</trkpt>
<trkpt lat="45.8771380" lon="10.3052640">
	<ele>1623.00</ele>
	<time>2025-07-29T10:22:58.000Z</time>
</trkpt>
<trkpt lat="45.8771490" lon="10.3052700">
	<ele>1623.00</ele>
	<time>2025-07-29T10:22:59.000Z</time>
</trkpt>
<trkpt lat="45.8771580" lon="10.3052750">
	<ele>1622.80</ele>
	<time>2025-07-29T10:23:00.000Z</time>
</trkpt>
<trkpt lat="45.8771670" lon="10.3052750">
	<ele>1622.60</ele>
	<time>2025-07-29T10:23:01.000Z</time>
</trkpt>
<trkpt lat="45.8771780" lon="10.3052760">
	<ele>1622.60</ele>
	<time>2025-07-29T10:23:02.000Z</time>
</trkpt>
<trkpt lat="45.8771910" lon="10.3052700">
	<ele>1622.40</ele>
	<time>2025-07-29T10:23:03.000Z</time>
</trkpt>
<trkpt lat="45.8772030" lon="10.3052670">
	<ele>1622.40</ele>
	<time>2025-07-29T10:23:04.000Z</time>
</trkpt>
<trkpt lat="45.8772150" lon="10.3052670">
	<ele>1622.20</ele>
	<time>2025-07-29T10:23:05.000Z</time>
</trkpt>
<trkpt lat="45.8772310" lon="10.3052680">
	<ele>1622.00</ele>
	<time>2025-07-29T10:23:06.000Z</time>
</trkpt>
<trkpt lat="45.8772400" lon="10.3052680">
	<ele>1621.80</ele>
	<time>2025-07-29T10:23:07.000Z</time>
</trkpt>
<trkpt lat="45.8772520" lon="10.3052660">
	<ele>1621.80</ele>
	<time>2025-07-29T10:23:08.000Z</time>
</trkpt>
<trkpt lat="45.8772620" lon="10.3052640">
	<ele>1621.60</ele>
	<time>2025-07-29T10:23:09.000Z</time>
</trkpt>
<trkpt lat="45.8772730" lon="10.3052670">
	<ele>1621.40</ele>
	<time>2025-07-29T10:23:10.000Z</time>
</trkpt>
<trkpt lat="45.8772830" lon="10.3052710">
	<ele>1621.40</ele>
	<time>2025-07-29T10:23:11.000Z</time>
</trkpt>
<trkpt lat="45.8772930" lon="10.3052750">
	<ele>1621.20</ele>
	<time>2025-07-29T10:23:12.000Z</time>
</trkpt>
<trkpt lat="45.8773040" lon="10.3052830">
	<ele>1621.00</ele>
	<time>2025-07-29T10:23:13.000Z</time>
</trkpt>
<trkpt lat="45.8773140" lon="10.3052920">
	<ele>1620.80</ele>
	<time>2025-07-29T10:23:14.000Z</time>
</trkpt>
<trkpt lat="45.8773250" lon="10.3052980">
	<ele>1620.80</ele>
	<time>2025-07-29T10:23:15.000Z</time>
</trkpt>
<trkpt lat="45.8773340" lon="10.3053010">
	<ele>1620.80</ele>
	<time>2025-07-29T10:23:16.000Z</time>
</trkpt>
<trkpt lat="45.8773460" lon="10.3053040">
	<ele>1620.60</ele>
	<time>2025-07-29T10:23:17.000Z</time>
</trkpt>
<trkpt lat="45.8773580" lon="10.3053080">
	<ele>1620.60</ele>
	<time>2025-07-29T10:23:18.000Z</time>
</trkpt>
<trkpt lat="45.8773670" lon="10.3053110">
	<ele>1620.60</ele>
	<time>2025-07-29T10:23:19.000Z</time>
</trkpt>
<trkpt lat="45.8773760" lon="10.3053170">
	<ele>1620.60</ele>
	<time>2025-07-29T10:23:20.000Z</time>
</trkpt>
<trkpt lat="45.8773930" lon="10.3053200">
	<ele>1620.60</ele>
	<time>2025-07-29T10:23:21.000Z</time>
</trkpt>
<trkpt lat="45.8774090" lon="10.3053230">
	<ele>1620.40</ele>
	<time>2025-07-29T10:23:22.000Z</time>
</trkpt>
<trkpt lat="45.8774220" lon="10.3053250">
	<ele>1620.40</ele>
	<time>2025-07-29T10:23:23.000Z</time>
</trkpt>
<trkpt lat="45.8774340" lon="10.3053300">
	<ele>1620.40</ele>
	<time>2025-07-29T10:23:24.000Z</time>
</trkpt>
<trkpt lat="45.8774460" lon="10.3053320">
	<ele>1620.40</ele>
	<time>2025-07-29T10:23:25.000Z</time>
</trkpt>
<trkpt lat="45.8774570" lon="10.3053320">
	<ele>1620.40</ele>
	<time>2025-07-29T10:23:26.000Z</time>
</trkpt>
<trkpt lat="45.8774670" lon="10.3053300">
	<ele>1620.40</ele>
	<time>2025-07-29T10:23:27.000Z</time>
</trkpt>
<trkpt lat="45.8774790" lon="10.3053250">
	<ele>1620.20</ele>
	<time>2025-07-29T10:23:28.000Z</time>
</trkpt>
<trkpt lat="45.8774880" lon="10.3053290">
	<ele>1620.20</ele>
	<time>2025-07-29T10:23:29.000Z</time>
</trkpt>
<trkpt lat="45.8775020" lon="10.3053320">
	<ele>1620.00</ele>
	<time>2025-07-29T10:23:30.000Z</time>
</trkpt>
<trkpt lat="45.8775190" lon="10.3053330">
	<ele>1620.00</ele>
	<time>2025-07-29T10:23:31.000Z</time>
</trkpt>
<trkpt lat="45.8775320" lon="10.3053290">
	<ele>1619.80</ele>
	<time>2025-07-29T10:23:32.000Z</time>
</trkpt>
<trkpt lat="45.8775470" lon="10.3053380">
	<ele>1619.40</ele>
	<time>2025-07-29T10:23:33.000Z</time>
</trkpt>
<trkpt lat="45.8775580" lon="10.3053430">
	<ele>1619.20</ele>
	<time>2025-07-29T10:23:34.000Z</time>
</trkpt>
<trkpt lat="45.8775710" lon="10.3053510">
	<ele>1619.20</ele>
	<time>2025-07-29T10:23:35.000Z</time>
</trkpt>
<trkpt lat="45.8775840" lon="10.3053750">
	<ele>1619.00</ele>
	<time>2025-07-29T10:23:36.000Z</time>
</trkpt>
<trkpt lat="45.8775960" lon="10.3053790">
	<ele>1618.80</ele>
	<time>2025-07-29T10:23:37.000Z</time>
</trkpt>
<trkpt lat="45.8776080" lon="10.3053810">
	<ele>1618.60</ele>
	<time>2025-07-29T10:23:38.000Z</time>
</trkpt>
<trkpt lat="45.8776210" lon="10.3053860">
	<ele>1618.40</ele>
	<time>2025-07-29T10:23:39.000Z</time>
</trkpt>
<trkpt lat="45.8776350" lon="10.3053910">
	<ele>1618.20</ele>
	<time>2025-07-29T10:23:40.000Z</time>
</trkpt>
<trkpt lat="45.8776460" lon="10.3053930">
	<ele>1618.00</ele>
	<time>2025-07-29T10:23:41.000Z</time>
</trkpt>
<trkpt lat="45.8776590" lon="10.3053960">
	<ele>1617.80</ele>
	<time>2025-07-29T10:23:42.000Z</time>
</trkpt>
<trkpt lat="45.8776710" lon="10.3053980">
	<ele>1617.60</ele>
	<time>2025-07-29T10:23:43.000Z</time>
</trkpt>
<trkpt lat="45.8776820" lon="10.3054000">
	<ele>1617.60</ele>
	<time>2025-07-29T10:23:44.000Z</time>
</trkpt>
<trkpt lat="45.8776920" lon="10.3054030">
	<ele>1617.40</ele>
	<time>2025-07-29T10:23:45.000Z</time>
</trkpt>
<trkpt lat="45.8777000" lon="10.3054080">
	<ele>1617.20</ele>
	<time>2025-07-29T10:23:46.000Z</time>
</trkpt>
<trkpt lat="45.8777100" lon="10.3054100">
	<ele>1617.00</ele>
	<time>2025-07-29T10:23:47.000Z</time>
</trkpt>
<trkpt lat="45.8777210" lon="10.3054160">
	<ele>1617.00</ele>
	<time>2025-07-29T10:23:48.000Z</time>
</trkpt>
<trkpt lat="45.8777310" lon="10.3054220">
	<ele>1616.80</ele>
	<time>2025-07-29T10:23:49.000Z</time>
</trkpt>
<trkpt lat="45.8777420" lon="10.3054320">
	<ele>1616.60</ele>
	<time>2025-07-29T10:23:50.000Z</time>
</trkpt>
<trkpt lat="45.8777530" lon="10.3054440">
	<ele>1616.60</ele>
	<time>2025-07-29T10:23:51.000Z</time>
</trkpt>
<trkpt lat="45.8777640" lon="10.3054520">
	<ele>1616.40</ele>
	<time>2025-07-29T10:23:52.000Z</time>
</trkpt>
<trkpt lat="45.8777770" lon="10.3054580">
	<ele>1616.20</ele>
	<time>2025-07-29T10:23:53.000Z</time>
</trkpt>
<trkpt lat="45.8777880" lon="10.3054680">
	<ele>1616.00</ele>
	<time>2025-07-29T10:23:54.000Z</time>
</trkpt>
<trkpt lat="45.8777990" lon="10.3054780">
	<ele>1616.00</ele>
	<time>2025-07-29T10:23:55.000Z</time>
</trkpt>
<trkpt lat="45.8778050" lon="10.3054860">
	<ele>1616.00</ele>
	<time>2025-07-29T10:23:56.000Z</time>
</trkpt>
<trkpt lat="45.8778130" lon="10.3054910">
	<ele>1616.00</ele>
	<time>2025-07-29T10:23:57.000Z</time>
</trkpt>
<trkpt lat="45.8778210" lon="10.3054950">
	<ele>1615.80</ele>
	<time>2025-07-29T10:23:58.000Z</time>
</trkpt>
<trkpt lat="45.8778330" lon="10.3054980">
	<ele>1615.80</ele>
	<time>2025-07-29T10:23:59.000Z</time>
</trkpt>
<trkpt lat="45.8778460" lon="10.3055040">
	<ele>1615.80</ele>
	<time>2025-07-29T10:24:00.000Z</time>
</trkpt>
<trkpt lat="45.8778590" lon="10.3055040">
	<ele>1615.60</ele>
	<time>2025-07-29T10:24:01.000Z</time>
</trkpt>
<trkpt lat="45.8778700" lon="10.3055060">
	<ele>1615.40</ele>
	<time>2025-07-29T10:24:02.000Z</time>
</trkpt>
<trkpt lat="45.8778790" lon="10.3055040">
	<ele>1615.40</ele>
	<time>2025-07-29T10:24:03.000Z</time>
</trkpt>
<trkpt lat="45.8778870" lon="10.3054970">
	<ele>1615.20</ele>
	<time>2025-07-29T10:24:04.000Z</time>
</trkpt>
<trkpt lat="45.8778940" lon="10.3054940">
	<ele>1615.20</ele>
	<time>2025-07-29T10:24:05.000Z</time>
</trkpt>
<trkpt lat="45.8779030" lon="10.3054930">
	<ele>1615.20</ele>
	<time>2025-07-29T10:24:06.000Z</time>
</trkpt>
<trkpt lat="45.8779130" lon="10.3054940">
	<ele>1615.00</ele>
	<time>2025-07-29T10:24:07.000Z</time>
</trkpt>
<trkpt lat="45.8779230" lon="10.3054960">
	<ele>1615.00</ele>
	<time>2025-07-29T10:24:08.000Z</time>
</trkpt>
<trkpt lat="45.8779350" lon="10.3054980">
	<ele>1615.00</ele>
	<time>2025-07-29T10:24:09.000Z</time>
</trkpt>
<trkpt lat="45.8779490" lon="10.3054890">
	<ele>1614.80</ele>
	<time>2025-07-29T10:24:10.000Z</time>
</trkpt>
<trkpt lat="45.8779630" lon="10.3054850">
	<ele>1614.60</ele>
	<time>2025-07-29T10:24:11.000Z</time>
</trkpt>
<trkpt lat="45.8779760" lon="10.3054830">
	<ele>1614.40</ele>
	<time>2025-07-29T10:24:12.000Z</time>
</trkpt>
<trkpt lat="45.8779890" lon="10.3054800">
	<ele>1614.20</ele>
	<time>2025-07-29T10:24:13.000Z</time>
</trkpt>
<trkpt lat="45.8780000" lon="10.3054800">
	<ele>1614.00</ele>
	<time>2025-07-29T10:24:14.000Z</time>
</trkpt>
<trkpt lat="45.8780170" lon="10.3054820">
	<ele>1613.80</ele>
	<time>2025-07-29T10:24:15.000Z</time>
</trkpt>
<trkpt lat="45.8780330" lon="10.3054710">
	<ele>1613.60</ele>
	<time>2025-07-29T10:24:16.000Z</time>
</trkpt>
<trkpt lat="45.8780420" lon="10.3054630">
	<ele>1613.40</ele>
	<time>2025-07-29T10:24:17.000Z</time>
</trkpt>
<trkpt lat="45.8780450" lon="10.3054510">
	<ele>1613.40</ele>
	<time>2025-07-29T10:24:18.000Z</time>
</trkpt>
<trkpt lat="45.8780560" lon="10.3054420">
	<ele>1613.20</ele>
	<time>2025-07-29T10:24:19.000Z</time>
</trkpt>
<trkpt lat="45.8780660" lon="10.3054430">
	<ele>1613.00</ele>
	<time>2025-07-29T10:24:20.000Z</time>
</trkpt>
<trkpt lat="45.8780770" lon="10.3054450">
	<ele>1613.00</ele>
	<time>2025-07-29T10:24:21.000Z</time>
</trkpt>
<trkpt lat="45.8780870" lon="10.3054480">
	<ele>1612.80</ele>
	<time>2025-07-29T10:24:22.000Z</time>
</trkpt>
<trkpt lat="45.8780990" lon="10.3054460">
	<ele>1612.80</ele>
	<time>2025-07-29T10:24:23.000Z</time>
</trkpt>
<trkpt lat="45.8781070" lon="10.3054480">
	<ele>1612.60</ele>
	<time>2025-07-29T10:24:24.000Z</time>
</trkpt>
<trkpt lat="45.8781170" lon="10.3054510">
	<ele>1612.40</ele>
	<time>2025-07-29T10:24:25.000Z</time>
</trkpt>
<trkpt lat="45.8781260" lon="10.3054510">
	<ele>1612.20</ele>
	<time>2025-07-29T10:24:26.000Z</time>
</trkpt>
<trkpt lat="45.8781370" lon="10.3054480">
	<ele>1612.00</ele>
	<time>2025-07-29T10:24:27.000Z</time>
</trkpt>
<trkpt lat="45.8781500" lon="10.3054420">
	<ele>1611.80</ele>
	<time>2025-07-29T10:24:28.000Z</time>
</trkpt>
<trkpt lat="45.8781640" lon="10.3054390">
	<ele>1611.60</ele>
	<time>2025-07-29T10:24:29.000Z</time>
</trkpt>
<trkpt lat="45.8781750" lon="10.3054390">
	<ele>1611.20</ele>
	<time>2025-07-29T10:24:30.000Z</time>
</trkpt>
<trkpt lat="45.8781860" lon="10.3054410">
	<ele>1611.20</ele>
	<time>2025-07-29T10:24:31.000Z</time>
</trkpt>
<trkpt lat="45.8781920" lon="10.3054500">
	<ele>1611.00</ele>
	<time>2025-07-29T10:24:32.000Z</time>
</trkpt>
<trkpt lat="45.8782010" lon="10.3054590">
	<ele>1611.00</ele>
	<time>2025-07-29T10:24:33.000Z</time>
</trkpt>
<trkpt lat="45.8782100" lon="10.3054650">
	<ele>1610.80</ele>
	<time>2025-07-29T10:24:34.000Z</time>
</trkpt>
<trkpt lat="45.8782240" lon="10.3054670">
	<ele>1610.60</ele>
	<time>2025-07-29T10:24:35.000Z</time>
</trkpt>
<trkpt lat="45.8782330" lon="10.3054720">
	<ele>1610.40</ele>
	<time>2025-07-29T10:24:36.000Z</time>
</trkpt>
<trkpt lat="45.8782410" lon="10.3054790">
	<ele>1610.20</ele>
	<time>2025-07-29T10:24:37.000Z</time>
</trkpt>
<trkpt lat="45.8782500" lon="10.3054900">
	<ele>1610.00</ele>
	<time>2025-07-29T10:24:38.000Z</time>
</trkpt>
<trkpt lat="45.8782570" lon="10.3055010">
	<ele>1609.80</ele>
	<time>2025-07-29T10:24:39.000Z</time>
</trkpt>
<trkpt lat="45.8782660" lon="10.3055140">
	<ele>1609.60</ele>
	<time>2025-07-29T10:24:40.000Z</time>
</trkpt>
<trkpt lat="45.8782710" lon="10.3055240">
	<ele>1609.20</ele>
	<time>2025-07-29T10:24:41.000Z</time>
</trkpt>
<trkpt lat="45.8782810" lon="10.3055410">
	<ele>1609.00</ele>
	<time>2025-07-29T10:24:42.000Z</time>
</trkpt>
<trkpt lat="45.8782850" lon="10.3055540">
	<ele>1608.80</ele>
	<time>2025-07-29T10:24:43.000Z</time>
</trkpt>
<trkpt lat="45.8782880" lon="10.3055630">
	<ele>1608.80</ele>
	<time>2025-07-29T10:24:44.000Z</time>
</trkpt>
<trkpt lat="45.8782950" lon="10.3055710">
	<ele>1608.60</ele>
	<time>2025-07-29T10:24:45.000Z</time>
</trkpt>
<trkpt lat="45.8783040" lon="10.3055800">
	<ele>1608.40</ele>
	<time>2025-07-29T10:24:46.000Z</time>
</trkpt>
<trkpt lat="45.8783120" lon="10.3055790">
	<ele>1608.20</ele>
	<time>2025-07-29T10:24:47.000Z</time>
</trkpt>
<trkpt lat="45.8783230" lon="10.3055760">
	<ele>1608.20</ele>
	<time>2025-07-29T10:24:48.000Z</time>
</trkpt>
<trkpt lat="45.8783350" lon="10.3055780">
	<ele>1607.80</ele>
	<time>2025-07-29T10:24:49.000Z</time>
</trkpt>
<trkpt lat="45.8783450" lon="10.3055820">
	<ele>1607.80</ele>
	<time>2025-07-29T10:24:50.000Z</time>
</trkpt>
<trkpt lat="45.8783540" lon="10.3055840">
	<ele>1607.60</ele>
	<time>2025-07-29T10:24:51.000Z</time>
</trkpt>
<trkpt lat="45.8783690" lon="10.3055850">
	<ele>1607.40</ele>
	<time>2025-07-29T10:24:52.000Z</time>
</trkpt>
<trkpt lat="45.8783790" lon="10.3055870">
	<ele>1607.20</ele>
	<time>2025-07-29T10:24:53.000Z</time>
</trkpt>
<trkpt lat="45.8783860" lon="10.3055880">
	<ele>1607.00</ele>
	<time>2025-07-29T10:24:54.000Z</time>
</trkpt>
<trkpt lat="45.8783910" lon="10.3055860">
	<ele>1606.80</ele>
	<time>2025-07-29T10:24:55.000Z</time>
</trkpt>
<trkpt lat="45.8783970" lon="10.3055900">
	<ele>1606.40</ele>
	<time>2025-07-29T10:24:56.000Z</time>
</trkpt>
<trkpt lat="45.8784050" lon="10.3056040">
	<ele>1606.20</ele>
	<time>2025-07-29T10:24:57.000Z</time>
</trkpt>
<trkpt lat="45.8784110" lon="10.3056160">
	<ele>1606.20</ele>
	<time>2025-07-29T10:24:58.000Z</time>
</trkpt>
<trkpt lat="45.8784170" lon="10.3056300">
	<ele>1605.80</ele>
	<time>2025-07-29T10:24:59.000Z</time>
</trkpt>
<trkpt lat="45.8784250" lon="10.3056460">
	<ele>1605.40</ele>
	<time>2025-07-29T10:25:00.000Z</time>
</trkpt>
<trkpt lat="45.8784320" lon="10.3056680">
	<ele>1605.20</ele>
	<time>2025-07-29T10:25:01.000Z</time>
</trkpt>
<trkpt lat="45.8784390" lon="10.3056850">
	<ele>1605.20</ele>
	<time>2025-07-29T10:25:02.000Z</time>
</trkpt>
<trkpt lat="45.8784460" lon="10.3056960">
	<ele>1605.00</ele>
	<time>2025-07-29T10:25:03.000Z</time>
</trkpt>
<trkpt lat="45.8784580" lon="10.3057020">
	<ele>1605.00</ele>
	<time>2025-07-29T10:25:04.000Z</time>
</trkpt>
<trkpt lat="45.8784700" lon="10.3057080">
	<ele>1604.80</ele>
	<time>2025-07-29T10:25:05.000Z</time>
</trkpt>
<trkpt lat="45.8784870" lon="10.3057130">
	<ele>1604.60</ele>
	<time>2025-07-29T10:25:06.000Z</time>
</trkpt>
<trkpt lat="45.8785010" lon="10.3057180">
	<ele>1604.40</ele>
	<time>2025-07-29T10:25:07.000Z</time>
</trkpt>
<trkpt lat="45.8785150" lon="10.3057230">
	<ele>1604.40</ele>
	<time>2025-07-29T10:25:08.000Z</time>
</trkpt>
<trkpt lat="45.8785280" lon="10.3057260">
	<ele>1604.20</ele>
	<time>2025-07-29T10:25:09.000Z</time>
</trkpt>
<trkpt lat="45.8785380" lon="10.3057290">
	<ele>1604.20</ele>
	<time>2025-07-29T10:25:10.000Z</time>
</trkpt>
<trkpt lat="45.8785430" lon="10.3057320">
	<ele>1604.00</ele>
	<time>2025-07-29T10:25:11.000Z</time>
</trkpt>
<trkpt lat="45.8785470" lon="10.3057330">
	<ele>1604.00</ele>
	<time>2025-07-29T10:25:12.000Z</time>
</trkpt>
<trkpt lat="45.8785530" lon="10.3057360">
	<ele>1603.80</ele>
	<time>2025-07-29T10:25:13.000Z</time>
</trkpt>
<trkpt lat="45.8785610" lon="10.3057390">
	<ele>1603.80</ele>
	<time>2025-07-29T10:25:14.000Z</time>
</trkpt>
<trkpt lat="45.8785670" lon="10.3057390">
	<ele>1603.60</ele>
	<time>2025-07-29T10:25:15.000Z</time>
</trkpt>
<trkpt lat="45.8785770" lon="10.3057380">
	<ele>1603.60</ele>
	<time>2025-07-29T10:25:16.000Z</time>
</trkpt>
<trkpt lat="45.8785900" lon="10.3057390">
	<ele>1603.40</ele>
	<time>2025-07-29T10:25:17.000Z</time>
</trkpt>
<trkpt lat="45.8785980" lon="10.3057450">
	<ele>1603.40</ele>
	<time>2025-07-29T10:25:18.000Z</time>
</trkpt>
<trkpt lat="45.8786050" lon="10.3057440">
	<ele>1603.20</ele>
	<time>2025-07-29T10:25:19.000Z</time>
</trkpt>
<trkpt lat="45.8786070" lon="10.3057470">
	<ele>1603.00</ele>
	<time>2025-07-29T10:25:20.000Z</time>
</trkpt>
<trkpt lat="45.8786130" lon="10.3057480">
	<ele>1603.00</ele>
	<time>2025-07-29T10:25:21.000Z</time>
</trkpt>
<trkpt lat="45.8786220" lon="10.3057530">
	<ele>1602.80</ele>
	<time>2025-07-29T10:25:22.000Z</time>
</trkpt>
<trkpt lat="45.8786280" lon="10.3057580">
	<ele>1602.80</ele>
	<time>2025-07-29T10:25:23.000Z</time>
</trkpt>
<trkpt lat="45.8786340" lon="10.3057590">
	<ele>1602.80</ele>
	<time>2025-07-29T10:25:24.000Z</time>
</trkpt>
<trkpt lat="45.8786410" lon="10.3057630">
	<ele>1602.80</ele>
	<time>2025-07-29T10:25:25.000Z</time>
</trkpt>
<trkpt lat="45.8786460" lon="10.3057730">
	<ele>1602.80</ele>
	<time>2025-07-29T10:25:26.000Z</time>
</trkpt>
<trkpt lat="45.8786500" lon="10.3057780">
	<ele>1602.60</ele>
	<time>2025-07-29T10:25:27.000Z</time>
</trkpt>
<trkpt lat="45.8786520" lon="10.3057860">
	<ele>1602.60</ele>
	<time>2025-07-29T10:25:28.000Z</time>
</trkpt>
<trkpt lat="45.8786580" lon="10.3057970">
	<ele>1602.40</ele>
	<time>2025-07-29T10:25:29.000Z</time>
</trkpt>
<trkpt lat="45.8786660" lon="10.3058130">
	<ele>1602.40</ele>
	<time>2025-07-29T10:25:30.000Z</time>
</trkpt>
<trkpt lat="45.8786700" lon="10.3058310">
	<ele>1602.20</ele>
	<time>2025-07-29T10:25:31.000Z</time>
</trkpt>
<trkpt lat="45.8786730" lon="10.3058450">
	<ele>1602.20</ele>
	<time>2025-07-29T10:25:32.000Z</time>
</trkpt>
<trkpt lat="45.8786710" lon="10.3058550">
	<ele>1602.20</ele>
	<time>2025-07-29T10:25:33.000Z</time>
</trkpt>
<trkpt lat="45.8786690" lon="10.3058710">
	<ele>1602.20</ele>
	<time>2025-07-29T10:25:34.000Z</time>
</trkpt>
<trkpt lat="45.8786720" lon="10.3058820">
	<ele>1602.00</ele>
	<time>2025-07-29T10:25:35.000Z</time>
</trkpt>
<trkpt lat="45.8786780" lon="10.3058930">
	<ele>1602.00</ele>
	<time>2025-07-29T10:25:36.000Z</time>
</trkpt>
<trkpt lat="45.8786810" lon="10.3058960">
	<ele>1602.00</ele>
	<time>2025-07-29T10:25:37.000Z</time>
</trkpt>
<trkpt lat="45.8786860" lon="10.3059020">
	<ele>1602.00</ele>
	<time>2025-07-29T10:25:38.000Z</time>
</trkpt>
<trkpt lat="45.8786960" lon="10.3059020">
	<ele>1602.00</ele>
	<time>2025-07-29T10:25:39.000Z</time>
</trkpt>
<trkpt lat="45.8787030" lon="10.3059140">
	<ele>1602.00</ele>
	<time>2025-07-29T10:25:40.000Z</time>
</trkpt>
<trkpt lat="45.8787090" lon="10.3059310">
	<ele>1601.80</ele>
	<time>2025-07-29T10:25:41.000Z</time>
</trkpt>
<trkpt lat="45.8787150" lon="10.3059430">
	<ele>1601.80</ele>
	<time>2025-07-29T10:25:42.000Z</time>
</trkpt>
<trkpt lat="45.8787210" lon="10.3059530">
	<ele>1601.80</ele>
	<time>2025-07-29T10:25:43.000Z</time>
</trkpt>
<trkpt lat="45.8787310" lon="10.3059570">
	<ele>1602.00</ele>
	<time>2025-07-29T10:25:44.000Z</time>
</trkpt>
<trkpt lat="45.8787440" lon="10.3059640">
	<ele>1602.00</ele>
	<time>2025-07-29T10:25:45.000Z</time>
</trkpt>
<trkpt lat="45.8787590" lon="10.3059670">
	<ele>1602.00</ele>
	<time>2025-07-29T10:25:46.000Z</time>
</trkpt>
<trkpt lat="45.8787700" lon="10.3059670">
	<ele>1602.00</ele>
	<time>2025-07-29T10:25:47.000Z</time>
</trkpt>
<trkpt lat="45.8787760" lon="10.3059700">
	<ele>1602.20</ele>
	<time>2025-07-29T10:25:48.000Z</time>
</trkpt>
<trkpt lat="45.8787860" lon="10.3059780">
	<ele>1602.20</ele>
	<time>2025-07-29T10:25:49.000Z</time>
</trkpt>
<trkpt lat="45.8787960" lon="10.3059830">
	<ele>1602.40</ele>
	<time>2025-07-29T10:25:50.000Z</time>
</trkpt>
<trkpt lat="45.8788070" lon="10.3059910">
	<ele>1602.40</ele>
	<time>2025-07-29T10:25:51.000Z</time>
</trkpt>
<trkpt lat="45.8788150" lon="10.3060000">
	<ele>1602.40</ele>
	<time>2025-07-29T10:25:52.000Z</time>
</trkpt>
<trkpt lat="45.8788200" lon="10.3060090">
	<ele>1602.40</ele>
	<time>2025-07-29T10:25:53.000Z</time>
</trkpt>
<trkpt lat="45.8788290" lon="10.3060180">
	<ele>1602.40</ele>
	<time>2025-07-29T10:25:54.000Z</time>
</trkpt>
<trkpt lat="45.8788380" lon="10.3060310">
	<ele>1602.40</ele>
	<time>2025-07-29T10:25:55.000Z</time>
</trkpt>
<trkpt lat="45.8788470" lon="10.3060450">
	<ele>1602.20</ele>
	<time>2025-07-29T10:25:56.000Z</time>
</trkpt>
<trkpt lat="45.8788570" lon="10.3060500">
	<ele>1602.20</ele>
	<time>2025-07-29T10:25:57.000Z</time>
</trkpt>
<trkpt lat="45.8788640" lon="10.3060440">
	<ele>1602.00</ele>
	<time>2025-07-29T10:25:58.000Z</time>
</trkpt>
<trkpt lat="45.8788710" lon="10.3060360">
	<ele>1601.80</ele>
	<time>2025-07-29T10:25:59.000Z</time>
</trkpt>
<trkpt lat="45.8788790" lon="10.3060350">
	<ele>1601.60</ele>
	<time>2025-07-29T10:26:00.000Z</time>
</trkpt>
<trkpt lat="45.8788820" lon="10.3060400">
	<ele>1601.20</ele>
	<time>2025-07-29T10:26:01.000Z</time>
</trkpt>
<trkpt lat="45.8788870" lon="10.3060450">
	<ele>1601.00</ele>
	<time>2025-07-29T10:26:02.000Z</time>
</trkpt>
<trkpt lat="45.8788950" lon="10.3060480">
	<ele>1600.80</ele>
	<time>2025-07-29T10:26:03.000Z</time>
</trkpt>
<trkpt lat="45.8789010" lon="10.3060530">
	<ele>1600.60</ele>
	<time>2025-07-29T10:26:04.000Z</time>
</trkpt>
<trkpt lat="45.8789090" lon="10.3060600">
	<ele>1600.20</ele>
	<time>2025-07-29T10:26:05.000Z</time>
</trkpt>
<trkpt lat="45.8789150" lon="10.3060760">
	<ele>1600.00</ele>
	<time>2025-07-29T10:26:06.000Z</time>
</trkpt>
<trkpt lat="45.8789200" lon="10.3060860">
	<ele>1599.80</ele>
	<time>2025-07-29T10:26:07.000Z</time>
</trkpt>
<trkpt lat="45.8789250" lon="10.3060980">
	<ele>1599.60</ele>
	<time>2025-07-29T10:26:08.000Z</time>
</trkpt>
<trkpt lat="45.8789330" lon="10.3061090">
	<ele>1599.40</ele>
	<time>2025-07-29T10:26:09.000Z</time>
</trkpt>
<trkpt lat="45.8789430" lon="10.3061270">
	<ele>1599.20</ele>
	<time>2025-07-29T10:26:10.000Z</time>
</trkpt>
<trkpt lat="45.8789520" lon="10.3061420">
	<ele>1599.20</ele>
	<time>2025-07-29T10:26:11.000Z</time>
</trkpt>
<trkpt lat="45.8789580" lon="10.3061550">
	<ele>1599.00</ele>
	<time>2025-07-29T10:26:12.000Z</time>
</trkpt>
<trkpt lat="45.8789630" lon="10.3061660">
	<ele>1599.00</ele>
	<time>2025-07-29T10:26:13.000Z</time>
</trkpt>
<trkpt lat="45.8789690" lon="10.3061770">
	<ele>1599.00</ele>
	<time>2025-07-29T10:26:14.000Z</time>
</trkpt>
<trkpt lat="45.8789780" lon="10.3061940">
	<ele>1598.80</ele>
	<time>2025-07-29T10:26:15.000Z</time>
</trkpt>
<trkpt lat="45.8789850" lon="10.3062030">
	<ele>1598.80</ele>
	<time>2025-07-29T10:26:16.000Z</time>
</trkpt>
<trkpt lat="45.8789880" lon="10.3062180">
	<ele>1598.80</ele>
	<time>2025-07-29T10:26:17.000Z</time>
</trkpt>
<trkpt lat="45.8789890" lon="10.3062260">
	<ele>1598.80</ele>
	<time>2025-07-29T10:26:18.000Z</time>
</trkpt>
<trkpt lat="45.8789920" lon="10.3062400">
	<ele>1598.60</ele>
	<time>2025-07-29T10:26:19.000Z</time>
</trkpt>
<trkpt lat="45.8789950" lon="10.3062510">
	<ele>1598.40</ele>
	<time>2025-07-29T10:26:20.000Z</time>
</trkpt>
<trkpt lat="45.8790020" lon="10.3062770">
	<ele>1598.20</ele>
	<time>2025-07-29T10:26:21.000Z</time>
</trkpt>
<trkpt lat="45.8790080" lon="10.3062910">
	<ele>1598.00</ele>
	<time>2025-07-29T10:26:22.000Z</time>
</trkpt>
<trkpt lat="45.8790170" lon="10.3063080">
	<ele>1597.80</ele>
	<time>2025-07-29T10:26:23.000Z</time>
</trkpt>
<trkpt lat="45.8790320" lon="10.3063300">
	<ele>1597.40</ele>
	<time>2025-07-29T10:26:24.000Z</time>
</trkpt>
<trkpt lat="45.8790400" lon="10.3063430">
	<ele>1597.20</ele>
	<time>2025-07-29T10:26:25.000Z</time>
</trkpt>
<trkpt lat="45.8790460" lon="10.3063500">
	<ele>1597.00</ele>
	<time>2025-07-29T10:26:26.000Z</time>
</trkpt>
<trkpt lat="45.8790480" lon="10.3063690">
	<ele>1596.80</ele>
	<time>2025-07-29T10:26:27.000Z</time>
</trkpt>
<trkpt lat="45.8790480" lon="10.3063780">
	<ele>1596.60</ele>
	<time>2025-07-29T10:26:28.000Z</time>
</trkpt>
<trkpt lat="45.8790520" lon="10.3063990">
	<ele>1596.40</ele>
	<time>2025-07-29T10:26:29.000Z</time>
</trkpt>
<trkpt lat="45.8790580" lon="10.3064130">
	<ele>1596.20</ele>
	<time>2025-07-29T10:26:30.000Z</time>
</trkpt>
<trkpt lat="45.8790580" lon="10.3064180">
	<ele>1596.00</ele>
	<time>2025-07-29T10:26:31.000Z</time>
</trkpt>
<trkpt lat="45.8790660" lon="10.3064230">
	<ele>1596.00</ele>
	<time>2025-07-29T10:26:32.000Z</time>
</trkpt>
<trkpt lat="45.8790780" lon="10.3064330">
	<ele>1595.80</ele>
	<time>2025-07-29T10:26:33.000Z</time>
</trkpt>
<trkpt lat="45.8790900" lon="10.3064330">
	<ele>1595.60</ele>
	<time>2025-07-29T10:26:34.000Z</time>
</trkpt>
<trkpt lat="45.8791030" lon="10.3064340">
	<ele>1595.40</ele>
	<time>2025-07-29T10:26:35.000Z</time>
</trkpt>
<trkpt lat="45.8791120" lon="10.3064350">
	<ele>1595.20</ele>
	<time>2025-07-29T10:26:36.000Z</time>
</trkpt>
<trkpt lat="45.8791230" lon="10.3064500">
	<ele>1595.00</ele>
	<time>2025-07-29T10:26:37.000Z</time>
</trkpt>
<trkpt lat="45.8791300" lon="10.3064580">
	<ele>1594.80</ele>
	<time>2025-07-29T10:26:38.000Z</time>
</trkpt>
<trkpt lat="45.8791410" lon="10.3064580">
	<ele>1594.60</ele>
	<time>2025-07-29T10:26:39.000Z</time>
</trkpt>
<trkpt lat="45.8791440" lon="10.3064560">
	<ele>1594.40</ele>
	<time>2025-07-29T10:26:40.000Z</time>
</trkpt>
<trkpt lat="45.8791490" lon="10.3064650">
	<ele>1594.20</ele>
	<time>2025-07-29T10:26:41.000Z</time>
</trkpt>
<trkpt lat="45.8791520" lon="10.3064820">
	<ele>1594.00</ele>
	<time>2025-07-29T10:26:42.000Z</time>
</trkpt>
<trkpt lat="45.8791560" lon="10.3064910">
	<ele>1593.60</ele>
	<time>2025-07-29T10:26:43.000Z</time>
</trkpt>
<trkpt lat="45.8791680" lon="10.3064950">
	<ele>1593.40</ele>
	<time>2025-07-29T10:26:44.000Z</time>
</trkpt>
<trkpt lat="45.8791780" lon="10.3064960">
	<ele>1593.20</ele>
	<time>2025-07-29T10:26:45.000Z</time>
</trkpt>
<trkpt lat="45.8791890" lon="10.3064970">
	<ele>1592.60</ele>
	<time>2025-07-29T10:26:46.000Z</time>
</trkpt>
<trkpt lat="45.8792000" lon="10.3065030">
	<ele>1592.40</ele>
	<time>2025-07-29T10:26:47.000Z</time>
</trkpt>
<trkpt lat="45.8792090" lon="10.3065090">
	<ele>1592.20</ele>
	<time>2025-07-29T10:26:48.000Z</time>
</trkpt>
<trkpt lat="45.8792120" lon="10.3065130">
	<ele>1592.00</ele>
	<time>2025-07-29T10:26:49.000Z</time>
</trkpt>
<trkpt lat="45.8792190" lon="10.3065150">
	<ele>1591.80</ele>
	<time>2025-07-29T10:26:50.000Z</time>
</trkpt>
<trkpt lat="45.8792270" lon="10.3065140">
	<ele>1591.60</ele>
	<time>2025-07-29T10:26:51.000Z</time>
</trkpt>
<trkpt lat="45.8792360" lon="10.3065340">
	<ele>1591.40</ele>
	<time>2025-07-29T10:26:52.000Z</time>
</trkpt>
<trkpt lat="45.8792380" lon="10.3065510">
	<ele>1591.20</ele>
	<time>2025-07-29T10:26:53.000Z</time>
</trkpt>
<trkpt lat="45.8792470" lon="10.3065710">
	<ele>1591.00</ele>
	<time>2025-07-29T10:26:54.000Z</time>
</trkpt>
<trkpt lat="45.8792590" lon="10.3065880">
	<ele>1591.00</ele>
	<time>2025-07-29T10:26:55.000Z</time>
</trkpt>
<trkpt lat="45.8792620" lon="10.3065930">
	<ele>1590.80</ele>
	<time>2025-07-29T10:26:56.000Z</time>
</trkpt>
<trkpt lat="45.8792730" lon="10.3066010">
	<ele>1590.60</ele>
	<time>2025-07-29T10:26:57.000Z</time>
</trkpt>
<trkpt lat="45.8792860" lon="10.3066040">
	<ele>1590.40</ele>
	<time>2025-07-29T10:26:58.000Z</time>
</trkpt>
<trkpt lat="45.8792970" lon="10.3066100">
	<ele>1590.40</ele>
	<time>2025-07-29T10:26:59.000Z</time>
</trkpt>
<trkpt lat="45.8793050" lon="10.3066210">
	<ele>1590.20</ele>
	<time>2025-07-29T10:27:00.000Z</time>
</trkpt>
<trkpt lat="45.8793080" lon="10.3066250">
	<ele>1590.20</ele>
	<time>2025-07-29T10:27:01.000Z</time>
</trkpt>
<trkpt lat="45.8793150" lon="10.3066280">
	<ele>1590.00</ele>
	<time>2025-07-29T10:27:02.000Z</time>
</trkpt>
<trkpt lat="45.8793190" lon="10.3066360">
	<ele>1590.00</ele>
	<time>2025-07-29T10:27:03.000Z</time>
</trkpt>
<trkpt lat="45.8793280" lon="10.3066480">
	<ele>1590.00</ele>
	<time>2025-07-29T10:27:04.000Z</time>
</trkpt>
<trkpt lat="45.8793380" lon="10.3066580">
	<ele>1589.80</ele>
	<time>2025-07-29T10:27:05.000Z</time>
</trkpt>
<trkpt lat="45.8793430" lon="10.3066600">
	<ele>1589.80</ele>
	<time>2025-07-29T10:27:06.000Z</time>
</trkpt>
<trkpt lat="45.8793470" lon="10.3066760">
	<ele>1589.60</ele>
	<time>2025-07-29T10:27:07.000Z</time>
</trkpt>
<trkpt lat="45.8793520" lon="10.3066870">
	<ele>1589.60</ele>
	<time>2025-07-29T10:27:08.000Z</time>
</trkpt>
<trkpt lat="45.8793580" lon="10.3066920">
	<ele>1589.40</ele>
	<time>2025-07-29T10:27:09.000Z</time>
</trkpt>
<trkpt lat="45.8793660" lon="10.3067000">
	<ele>1589.40</ele>
	<time>2025-07-29T10:27:10.000Z</time>
</trkpt>
<trkpt lat="45.8793720" lon="10.3067050">
	<ele>1589.40</ele>
	<time>2025-07-29T10:27:11.000Z</time>
</trkpt>
<trkpt lat="45.8793800" lon="10.3067140">
	<ele>1589.20</ele>
	<time>2025-07-29T10:27:12.000Z</time>
</trkpt>
<trkpt lat="45.8793860" lon="10.3067240">
	<ele>1589.20</ele>
	<time>2025-07-29T10:27:13.000Z</time>
</trkpt>
<trkpt lat="45.8793990" lon="10.3067380">
	<ele>1589.00</ele>
	<time>2025-07-29T10:27:14.000Z</time>
</trkpt>
<trkpt lat="45.8794030" lon="10.3067480">
	<ele>1589.00</ele>
	<time>2025-07-29T10:27:15.000Z</time>
</trkpt>
<trkpt lat="45.8794090" lon="10.3067690">
	<ele>1589.00</ele>
	<time>2025-07-29T10:27:16.000Z</time>
</trkpt>
<trkpt lat="45.8794110" lon="10.3067830">
	<ele>1588.80</ele>
	<time>2025-07-29T10:27:17.000Z</time>
</trkpt>
<trkpt lat="45.8794090" lon="10.3067980">
	<ele>1588.80</ele>
	<time>2025-07-29T10:27:18.000Z</time>
</trkpt>
<trkpt lat="45.8794050" lon="10.3068090">
	<ele>1588.60</ele>
	<time>2025-07-29T10:27:19.000Z</time>
</trkpt>
<trkpt lat="45.8794010" lon="10.3068190">
	<ele>1588.60</ele>
	<time>2025-07-29T10:27:20.000Z</time>
</trkpt>
<trkpt lat="45.8794000" lon="10.3068350">
	<ele>1588.40</ele>
	<time>2025-07-29T10:27:21.000Z</time>
</trkpt>
<trkpt lat="45.8794030" lon="10.3068430">
	<ele>1588.20</ele>
	<time>2025-07-29T10:27:22.000Z</time>
</trkpt>
<trkpt lat="45.8794080" lon="10.3068550">
	<ele>1588.00</ele>
	<time>2025-07-29T10:27:23.000Z</time>
</trkpt>
<trkpt lat="45.8794080" lon="10.3068710">
	<ele>1588.00</ele>
	<time>2025-07-29T10:27:24.000Z</time>
</trkpt>
<trkpt lat="45.8794160" lon="10.3068900">
	<ele>1587.80</ele>
	<time>2025-07-29T10:27:25.000Z</time>
</trkpt>
<trkpt lat="45.8794300" lon="10.3069070">
	<ele>1587.80</ele>
	<time>2025-07-29T10:27:26.000Z</time>
</trkpt>
<trkpt lat="45.8794450" lon="10.3069210">
	<ele>1587.60</ele>
	<time>2025-07-29T10:27:27.000Z</time>
</trkpt>
<trkpt lat="45.8794590" lon="10.3069280">
	<ele>1587.60</ele>
	<time>2025-07-29T10:27:28.000Z</time>
</trkpt>
<trkpt lat="45.8794680" lon="10.3069270">
	<ele>1587.60</ele>
	<time>2025-07-29T10:27:29.000Z</time>
</trkpt>
<trkpt lat="45.8794730" lon="10.3069210">
	<ele>1587.40</ele>
	<time>2025-07-29T10:27:30.000Z</time>
</trkpt>
<trkpt lat="45.8794780" lon="10.3069160">
	<ele>1587.40</ele>
	<time>2025-07-29T10:27:31.000Z</time>
</trkpt>
<trkpt lat="45.8794860" lon="10.3069120">
	<ele>1587.40</ele>
	<time>2025-07-29T10:27:32.000Z</time>
</trkpt>
<trkpt lat="45.8794940" lon="10.3069130">
	<ele>1587.40</ele>
	<time>2025-07-29T10:27:33.000Z</time>
</trkpt>
<trkpt lat="45.8795070" lon="10.3069060">
	<ele>1587.40</ele>
	<time>2025-07-29T10:27:34.000Z</time>
</trkpt>
<trkpt lat="45.8795190" lon="10.3068930">
	<ele>1587.40</ele>
	<time>2025-07-29T10:27:35.000Z</time>
</trkpt>
<trkpt lat="45.8795290" lon="10.3068800">
	<ele>1587.40</ele>
	<time>2025-07-29T10:27:36.000Z</time>
</trkpt>
<trkpt lat="45.8795420" lon="10.3068670">
	<ele>1587.20</ele>
	<time>2025-07-29T10:27:37.000Z</time>
</trkpt>
<trkpt lat="45.8795530" lon="10.3068580">
	<ele>1587.20</ele>
	<time>2025-07-29T10:27:38.000Z</time>
</trkpt>
<trkpt lat="45.8795680" lon="10.3068500">
	<ele>1587.00</ele>
	<time>2025-07-29T10:27:39.000Z</time>
</trkpt>
<trkpt lat="45.8795850" lon="10.3068520">
	<ele>1587.00</ele>
	<time>2025-07-29T10:27:40.000Z</time>
</trkpt>
<trkpt lat="45.8795980" lon="10.3068610">
	<ele>1587.00</ele>
	<time>2025-07-29T10:27:41.000Z</time>
</trkpt>
<trkpt lat="45.8796050" lon="10.3068680">
	<ele>1587.00</ele>
	<time>2025-07-29T10:27:42.000Z</time>
</trkpt>
<trkpt lat="45.8796140" lon="10.3068770">
	<ele>1586.80</ele>
	<time>2025-07-29T10:27:43.000Z</time>
</trkpt>
<trkpt lat="45.8796220" lon="10.3068860">
	<ele>1586.60</ele>
	<time>2025-07-29T10:27:44.000Z</time>
</trkpt>
<trkpt lat="45.8796300" lon="10.3068910">
	<ele>1586.60</ele>
	<time>2025-07-29T10:27:45.000Z</time>
</trkpt>
<trkpt lat="45.8796330" lon="10.3069030">
	<ele>1586.40</ele>
	<time>2025-07-29T10:27:46.000Z</time>
</trkpt>
<trkpt lat="45.8796430" lon="10.3069190">
	<ele>1586.40</ele>
	<time>2025-07-29T10:27:47.000Z</time>
</trkpt>
<trkpt lat="45.8796530" lon="10.3069310">
	<ele>1586.20</ele>
	<time>2025-07-29T10:27:48.000Z</time>
</trkpt>
<trkpt lat="45.8796660" lon="10.3069430">
	<ele>1586.20</ele>
	<time>2025-07-29T10:27:49.000Z</time>
</trkpt>
<trkpt lat="45.8796710" lon="10.3069460">
	<ele>1586.00</ele>
	<time>2025-07-29T10:27:50.000Z</time>
</trkpt>
<trkpt lat="45.8796810" lon="10.3069490">
	<ele>1586.00</ele>
	<time>2025-07-29T10:27:51.000Z</time>
</trkpt>
<trkpt lat="45.8796880" lon="10.3069530">
	<ele>1585.80</ele>
	<time>2025-07-29T10:27:52.000Z</time>
</trkpt>
<trkpt lat="45.8796950" lon="10.3069640">
	<ele>1585.60</ele>
	<time>2025-07-29T10:27:53.000Z</time>
</trkpt>
<trkpt lat="45.8797000" lon="10.3069820">
	<ele>1585.60</ele>
	<time>2025-07-29T10:27:54.000Z</time>
</trkpt>
<trkpt lat="45.8797030" lon="10.3070060">
	<ele>1585.60</ele>
	<time>2025-07-29T10:27:55.000Z</time>
</trkpt>
<trkpt lat="45.8797070" lon="10.3070240">
	<ele>1585.60</ele>
	<time>2025-07-29T10:27:56.000Z</time>
</trkpt>
<trkpt lat="45.8797080" lon="10.3070440">
	<ele>1585.40</ele>
	<time>2025-07-29T10:27:57.000Z</time>
</trkpt>
<trkpt lat="45.8797120" lon="10.3070540">
	<ele>1585.40</ele>
	<time>2025-07-29T10:27:58.000Z</time>
</trkpt>
<trkpt lat="45.8797130" lon="10.3070540">
	<ele>1585.20</ele>
	<time>2025-07-29T10:27:59.000Z</time>
</trkpt>
<trkpt lat="45.8797220" lon="10.3070520">
	<ele>1585.20</ele>
	<time>2025-07-29T10:28:00.000Z</time>
</trkpt>
<trkpt lat="45.8797360" lon="10.3070540">
	<ele>1585.00</ele>
	<time>2025-07-29T10:28:01.000Z</time>
</trkpt>
<trkpt lat="45.8797470" lon="10.3070510">
	<ele>1585.00</ele>
	<time>2025-07-29T10:28:02.000Z</time>
</trkpt>
<trkpt lat="45.8797710" lon="10.3070430">
	<ele>1584.80</ele>
	<time>2025-07-29T10:28:03.000Z</time>
</trkpt>
<trkpt lat="45.8797740" lon="10.3070420">
	<ele>1584.60</ele>
	<time>2025-07-29T10:28:04.000Z</time>
</trkpt>
<trkpt lat="45.8797820" lon="10.3070480">
	<ele>1584.60</ele>
	<time>2025-07-29T10:28:05.000Z</time>
</trkpt>
<trkpt lat="45.8797890" lon="10.3070550">
	<ele>1584.40</ele>
	<time>2025-07-29T10:28:06.000Z</time>
</trkpt>
<trkpt lat="45.8797830" lon="10.3070630">
	<ele>1584.40</ele>
	<time>2025-07-29T10:28:07.000Z</time>
</trkpt>
<trkpt lat="45.8797830" lon="10.3070710">
	<ele>1584.40</ele>
	<time>2025-07-29T10:28:08.000Z</time>
</trkpt>
<trkpt lat="45.8797880" lon="10.3070730">
	<ele>1584.40</ele>
	<time>2025-07-29T10:28:09.000Z</time>
</trkpt>
<trkpt lat="45.8798010" lon="10.3070800">
	<ele>1584.40</ele>
	<time>2025-07-29T10:28:10.000Z</time>
</trkpt>
<trkpt lat="45.8798130" lon="10.3070910">
	<ele>1584.20</ele>
	<time>2025-07-29T10:28:11.000Z</time>
</trkpt>
<trkpt lat="45.8798290" lon="10.3070930">
	<ele>1584.20</ele>
	<time>2025-07-29T10:28:12.000Z</time>
</trkpt>
<trkpt lat="45.8798390" lon="10.3070860">
	<ele>1584.20</ele>
	<time>2025-07-29T10:28:13.000Z</time>
</trkpt>
<trkpt lat="45.8798500" lon="10.3070890">
	<ele>1584.20</ele>
	<time>2025-07-29T10:28:14.000Z</time>
</trkpt>
<trkpt lat="45.8798680" lon="10.3070820">
	<ele>1584.00</ele>
	<time>2025-07-29T10:28:15.000Z</time>
</trkpt>
<trkpt lat="45.8798810" lon="10.3070800">
	<ele>1584.00</ele>
	<time>2025-07-29T10:28:16.000Z</time>
</trkpt>
<trkpt lat="45.8798950" lon="10.3070790">
	<ele>1584.00</ele>
	<time>2025-07-29T10:28:17.000Z</time>
</trkpt>
<trkpt lat="45.8799020" lon="10.3070890">
	<ele>1583.80</ele>
	<time>2025-07-29T10:28:18.000Z</time>
</trkpt>
<trkpt lat="45.8799110" lon="10.3071040">
	<ele>1583.60</ele>
	<time>2025-07-29T10:28:19.000Z</time>
</trkpt>
<trkpt lat="45.8799190" lon="10.3071200">
	<ele>1583.60</ele>
	<time>2025-07-29T10:28:20.000Z</time>
</trkpt>
<trkpt lat="45.8799250" lon="10.3071340">
	<ele>1583.60</ele>
	<time>2025-07-29T10:28:21.000Z</time>
</trkpt>
<trkpt lat="45.8799330" lon="10.3071490">
	<ele>1583.60</ele>
	<time>2025-07-29T10:28:22.000Z</time>
</trkpt>
<trkpt lat="45.8799380" lon="10.3071600">
	<ele>1583.60</ele>
	<time>2025-07-29T10:28:23.000Z</time>
</trkpt>
<trkpt lat="45.8799470" lon="10.3071740">
	<ele>1583.60</ele>
	<time>2025-07-29T10:28:24.000Z</time>
</trkpt>
<trkpt lat="45.8799550" lon="10.3071880">
	<ele>1583.60</ele>
	<time>2025-07-29T10:28:25.000Z</time>
</trkpt>
<trkpt lat="45.8799640" lon="10.3071990">
	<ele>1583.60</ele>
	<time>2025-07-29T10:28:26.000Z</time>
</trkpt>
<trkpt lat="45.8799740" lon="10.3072130">
	<ele>1583.60</ele>
	<time>2025-07-29T10:28:27.000Z</time>
</trkpt>
<trkpt lat="45.8799810" lon="10.3072180">
	<ele>1583.60</ele>
	<time>2025-07-29T10:28:28.000Z</time>
</trkpt>
<trkpt lat="45.8799910" lon="10.3072300">
	<ele>1583.60</ele>
	<time>2025-07-29T10:28:29.000Z</time>
</trkpt>
<trkpt lat="45.8800040" lon="10.3072480">
	<ele>1583.60</ele>
	<time>2025-07-29T10:28:30.000Z</time>
</trkpt>
<trkpt lat="45.8800160" lon="10.3072580">
	<ele>1583.60</ele>
	<time>2025-07-29T10:28:31.000Z</time>
</trkpt>
<trkpt lat="45.8800250" lon="10.3072750">
	<ele>1583.80</ele>
	<time>2025-07-29T10:28:32.000Z</time>
</trkpt>
<trkpt lat="45.8800330" lon="10.3072910">
	<ele>1583.80</ele>
	<time>2025-07-29T10:28:33.000Z</time>
</trkpt>
<trkpt lat="45.8800420" lon="10.3073020">
	<ele>1583.60</ele>
	<time>2025-07-29T10:28:34.000Z</time>
</trkpt>
<trkpt lat="45.8800520" lon="10.3073120">
	<ele>1583.60</ele>
	<time>2025-07-29T10:28:35.000Z</time>
</trkpt>
<trkpt lat="45.8800650" lon="10.3073190">
	<ele>1583.60</ele>
	<time>2025-07-29T10:28:36.000Z</time>
</trkpt>
<trkpt lat="45.8800790" lon="10.3073300">
	<ele>1583.60</ele>
	<time>2025-07-29T10:28:37.000Z</time>
</trkpt>
<trkpt lat="45.8800890" lon="10.3073420">
	<ele>1583.60</ele>
	<time>2025-07-29T10:28:38.000Z</time>
</trkpt>
<trkpt lat="45.8801000" lon="10.3073510">
	<ele>1583.40</ele>
	<time>2025-07-29T10:28:39.000Z</time>
</trkpt>
<trkpt lat="45.8801140" lon="10.3073610">
	<ele>1583.40</ele>
	<time>2025-07-29T10:28:40.000Z</time>
</trkpt>
<trkpt lat="45.8801250" lon="10.3073690">
	<ele>1583.40</ele>
	<time>2025-07-29T10:28:41.000Z</time>
</trkpt>
<trkpt lat="45.8801380" lon="10.3073770">
	<ele>1583.40</ele>
	<time>2025-07-29T10:28:42.000Z</time>
</trkpt>
<trkpt lat="45.8801420" lon="10.3073880">
	<ele>1583.20</ele>
	<time>2025-07-29T10:28:43.000Z</time>
</trkpt>
<trkpt lat="45.8801580" lon="10.3073990">
	<ele>1583.20</ele>
	<time>2025-07-29T10:28:44.000Z</time>
</trkpt>
<trkpt lat="45.8801670" lon="10.3074010">
	<ele>1583.20</ele>
	<time>2025-07-29T10:28:45.000Z</time>
</trkpt>
<trkpt lat="45.8801800" lon="10.3074050">
	<ele>1583.20</ele>
	<time>2025-07-29T10:28:46.000Z</time>
</trkpt>
<trkpt lat="45.8801900" lon="10.3074060">
	<ele>1583.20</ele>
	<time>2025-07-29T10:28:47.000Z</time>
</trkpt>
<trkpt lat="45.8802010" lon="10.3074110">
	<ele>1583.20</ele>
	<time>2025-07-29T10:28:48.000Z</time>
</trkpt>
<trkpt lat="45.8802100" lon="10.3074210">
	<ele>1583.20</ele>
	<time>2025-07-29T10:28:49.000Z</time>
</trkpt>
<trkpt lat="45.8802170" lon="10.3074330">
	<ele>1583.00</ele>
	<time>2025-07-29T10:28:50.000Z</time>
</trkpt>
<trkpt lat="45.8802240" lon="10.3074360">
	<ele>1583.20</ele>
	<time>2025-07-29T10:28:51.000Z</time>
</trkpt>
<trkpt lat="45.8802350" lon="10.3074450">
	<ele>1583.20</ele>
	<time>2025-07-29T10:28:52.000Z</time>
</trkpt>
<trkpt lat="45.8802480" lon="10.3074590">
	<ele>1583.20</ele>
	<time>2025-07-29T10:28:53.000Z</time>
</trkpt>
<trkpt lat="45.8802570" lon="10.3074690">
	<ele>1583.20</ele>
	<time>2025-07-29T10:28:54.000Z</time>
</trkpt>
<trkpt lat="45.8802630" lon="10.3074700">
	<ele>1583.20</ele>
	<time>2025-07-29T10:28:55.000Z</time>
</trkpt>
<trkpt lat="45.8802770" lon="10.3074750">
	<ele>1583.20</ele>
	<time>2025-07-29T10:28:56.000Z</time>
</trkpt>
<trkpt lat="45.8802880" lon="10.3074790">
	<ele>1583.20</ele>
	<time>2025-07-29T10:28:57.000Z</time>
</trkpt>
<trkpt lat="45.8803010" lon="10.3074830">
	<ele>1583.20</ele>
	<time>2025-07-29T10:28:58.000Z</time>
</trkpt>
<trkpt lat="45.8803140" lon="10.3074870">
	<ele>1583.20</ele>
	<time>2025-07-29T10:28:59.000Z</time>
</trkpt>
<trkpt lat="45.8803250" lon="10.3074880">
	<ele>1583.40</ele>
	<time>2025-07-29T10:29:00.000Z</time>
</trkpt>
<trkpt lat="45.8803380" lon="10.3074870">
	<ele>1583.40</ele>
	<time>2025-07-29T10:29:01.000Z</time>
</trkpt>
<trkpt lat="45.8803580" lon="10.3074840">
	<ele>1583.40</ele>
	<time>2025-07-29T10:29:02.000Z</time>
</trkpt>
<trkpt lat="45.8803680" lon="10.3074840">
	<ele>1583.60</ele>
	<time>2025-07-29T10:29:03.000Z</time>
</trkpt>
<trkpt lat="45.8803750" lon="10.3074810">
	<ele>1583.60</ele>
	<time>2025-07-29T10:29:04.000Z</time>
</trkpt>
<trkpt lat="45.8803800" lon="10.3074800">
	<ele>1583.60</ele>
	<time>2025-07-29T10:29:05.000Z</time>
</trkpt>
<trkpt lat="45.8803780" lon="10.3074810">
	<ele>1583.60</ele>
	<time>2025-07-29T10:29:06.000Z</time>
</trkpt>
<trkpt lat="45.8803780" lon="10.3074820">
	<ele>1583.60</ele>
	<time>2025-07-29T10:29:07.000Z</time>
</trkpt>
<trkpt lat="45.8803790" lon="10.3074780">
	<ele>1583.60</ele>
	<time>2025-07-29T10:29:08.000Z</time>
</trkpt>
<trkpt lat="45.8803820" lon="10.3074750">
	<ele>1583.60</ele>
	<time>2025-07-29T10:29:09.000Z</time>
</trkpt>
<trkpt lat="45.8803810" lon="10.3074750">
	<ele>1583.60</ele>
	<time>2025-07-29T10:29:10.000Z</time>
</trkpt>
<trkpt lat="45.8803790" lon="10.3074820">
	<ele>1583.60</ele>
	<time>2025-07-29T10:29:11.000Z</time>
</trkpt>
<trkpt lat="45.8803800" lon="10.3074900">
	<ele>1583.60</ele>
	<time>2025-07-29T10:29:12.000Z</time>
</trkpt>
<trkpt lat="45.8803800" lon="10.3074930">
	<ele>1583.60</ele>
	<time>2025-07-29T10:29:13.000Z</time>
</trkpt>
<trkpt lat="45.8803800" lon="10.3074930">
	<ele>1583.60</ele>
	<time>2025-07-29T10:29:14.000Z</time>
</trkpt>
<trkpt lat="45.8803800" lon="10.3074910">
	<ele>1583.60</ele>
	<time>2025-07-29T10:29:15.000Z</time>
</trkpt>
<trkpt lat="45.8803780" lon="10.3074900">
	<ele>1583.60</ele>
	<time>2025-07-29T10:29:16.000Z</time>
</trkpt>
<trkpt lat="45.8803770" lon="10.3074900">
	<ele>1583.60</ele>
	<time>2025-07-29T10:29:17.000Z</time>
</trkpt>
<trkpt lat="45.8803770" lon="10.3074920">
	<ele>1583.60</ele>
	<time>2025-07-29T10:29:18.000Z</time>
</trkpt>
<trkpt lat="45.8803770" lon="10.3074920">
	<ele>1583.60</ele>
	<time>2025-07-29T10:29:19.000Z</time>
</trkpt>
<trkpt lat="45.8803770" lon="10.3074920">
	<ele>1583.60</ele>
	<time>2025-07-29T10:29:20.000Z</time>
</trkpt>
<trkpt lat="45.8803770" lon="10.3074920">
	<ele>1583.60</ele>
	<time>2025-07-29T10:29:21.000Z</time>
</trkpt>
<trkpt lat="45.8803770" lon="10.3074920">
	<ele>1583.60</ele>
	<time>2025-07-29T10:29:22.000Z</time>
</trkpt>
<trkpt lat="45.8803770" lon="10.3074920">
	<ele>1583.60</ele>
	<time>2025-07-29T10:29:23.000Z</time>
</trkpt>
<trkpt lat="45.8803770" lon="10.3074920">
	<ele>1583.60</ele>
	<time>2025-07-29T10:29:24.000Z</time>
</trkpt>
<trkpt lat="45.8803770" lon="10.3074920">
	<ele>1583.60</ele>
	<time>2025-07-29T10:29:25.000Z</time>
</trkpt>
<trkpt lat="45.8803810" lon="10.3074910">
	<ele>1583.80</ele>
	<time>2025-07-29T10:29:26.000Z</time>
</trkpt>
<trkpt lat="45.8803970" lon="10.3074950">
	<ele>1583.80</ele>
	<time>2025-07-29T10:29:27.000Z</time>
</trkpt>
<trkpt lat="45.8804140" lon="10.3074990">
	<ele>1583.80</ele>
	<time>2025-07-29T10:29:28.000Z</time>
</trkpt>
<trkpt lat="45.8804310" lon="10.3075040">
	<ele>1583.80</ele>
	<time>2025-07-29T10:29:29.000Z</time>
</trkpt>
<trkpt lat="45.8804460" lon="10.3075080">
	<ele>1583.80</ele>
	<time>2025-07-29T10:29:30.000Z</time>
</trkpt>
<trkpt lat="45.8804590" lon="10.3075110">
	<ele>1583.80</ele>
	<time>2025-07-29T10:29:31.000Z</time>
</trkpt>
<trkpt lat="45.8804740" lon="10.3075180">
	<ele>1583.80</ele>
	<time>2025-07-29T10:29:32.000Z</time>
</trkpt>
<trkpt lat="45.8804840" lon="10.3075250">
	<ele>1583.60</ele>
	<time>2025-07-29T10:29:33.000Z</time>
</trkpt>
<trkpt lat="45.8804970" lon="10.3075320">
	<ele>1583.40</ele>
	<time>2025-07-29T10:29:34.000Z</time>
</trkpt>
<trkpt lat="45.8805150" lon="10.3075400">
	<ele>1583.40</ele>
	<time>2025-07-29T10:29:35.000Z</time>
</trkpt>
<trkpt lat="45.8805280" lon="10.3075550">
	<ele>1583.20</ele>
	<time>2025-07-29T10:29:36.000Z</time>
</trkpt>
<trkpt lat="45.8805440" lon="10.3075650">
	<ele>1583.00</ele>
	<time>2025-07-29T10:29:37.000Z</time>
</trkpt>
<trkpt lat="45.8805580" lon="10.3075780">
	<ele>1583.00</ele>
	<time>2025-07-29T10:29:38.000Z</time>
</trkpt>
<trkpt lat="45.8805680" lon="10.3075920">
	<ele>1582.80</ele>
	<time>2025-07-29T10:29:39.000Z</time>
</trkpt>
<trkpt lat="45.8805820" lon="10.3076030">
	<ele>1582.80</ele>
	<time>2025-07-29T10:29:40.000Z</time>
</trkpt>
<trkpt lat="45.8805950" lon="10.3076080">
	<ele>1582.60</ele>
	<time>2025-07-29T10:29:41.000Z</time>
</trkpt>
<trkpt lat="45.8806070" lon="10.3076090">
	<ele>1582.40</ele>
	<time>2025-07-29T10:29:42.000Z</time>
</trkpt>
<trkpt lat="45.8806190" lon="10.3076170">
	<ele>1582.20</ele>
	<time>2025-07-29T10:29:43.000Z</time>
</trkpt>
<trkpt lat="45.8806300" lon="10.3076160">
	<ele>1582.00</ele>
	<time>2025-07-29T10:29:44.000Z</time>
</trkpt>
<trkpt lat="45.8806420" lon="10.3076150">
	<ele>1581.80</ele>
	<time>2025-07-29T10:29:45.000Z</time>
</trkpt>
<trkpt lat="45.8806590" lon="10.3076080">
	<ele>1581.80</ele>
	<time>2025-07-29T10:29:46.000Z</time>
</trkpt>
<trkpt lat="45.8806710" lon="10.3076040">
	<ele>1581.80</ele>
	<time>2025-07-29T10:29:47.000Z</time>
</trkpt>
<trkpt lat="45.8806870" lon="10.3076070">
	<ele>1581.80</ele>
	<time>2025-07-29T10:29:48.000Z</time>
</trkpt>
<trkpt lat="45.8806990" lon="10.3076070">
	<ele>1581.60</ele>
	<time>2025-07-29T10:29:49.000Z</time>
</trkpt>
<trkpt lat="45.8807150" lon="10.3076100">
	<ele>1581.60</ele>
	<time>2025-07-29T10:29:50.000Z</time>
</trkpt>
<trkpt lat="45.8807280" lon="10.3076120">
	<ele>1581.40</ele>
	<time>2025-07-29T10:29:51.000Z</time>
</trkpt>
<trkpt lat="45.8807430" lon="10.3076200">
	<ele>1581.20</ele>
	<time>2025-07-29T10:29:52.000Z</time>
</trkpt>
<trkpt lat="45.8807530" lon="10.3076260">
	<ele>1581.20</ele>
	<time>2025-07-29T10:29:53.000Z</time>
</trkpt>
<trkpt lat="45.8807640" lon="10.3076300">
	<ele>1581.00</ele>
	<time>2025-07-29T10:29:54.000Z</time>
</trkpt>
<trkpt lat="45.8807730" lon="10.3076210">
	<ele>1580.80</ele>
	<time>2025-07-29T10:29:55.000Z</time>
</trkpt>
<trkpt lat="45.8807830" lon="10.3076140">
	<ele>1580.80</ele>
	<time>2025-07-29T10:29:56.000Z</time>
</trkpt>
<trkpt lat="45.8807950" lon="10.3076110">
	<ele>1580.60</ele>
	<time>2025-07-29T10:29:57.000Z</time>
</trkpt>
<trkpt lat="45.8808140" lon="10.3075940">
	<ele>1580.60</ele>
	<time>2025-07-29T10:29:58.000Z</time>
</trkpt>
<trkpt lat="45.8808240" lon="10.3075900">
	<ele>1580.60</ele>
	<time>2025-07-29T10:29:59.000Z</time>
</trkpt>
<trkpt lat="45.8808180" lon="10.3075700">
	<ele>1580.60</ele>
	<time>2025-07-29T10:30:00.000Z</time>
</trkpt>
<trkpt lat="45.8808130" lon="10.3075610">
	<ele>1580.40</ele>
	<time>2025-07-29T10:30:01.000Z</time>
</trkpt>
<trkpt lat="45.8808100" lon="10.3075610">
	<ele>1580.40</ele>
	<time>2025-07-29T10:30:02.000Z</time>
</trkpt>
<trkpt lat="45.8808150" lon="10.3075570">
	<ele>1580.40</ele>
	<time>2025-07-29T10:30:03.000Z</time>
</trkpt>
<trkpt lat="45.8808240" lon="10.3075610">
	<ele>1580.40</ele>
	<time>2025-07-29T10:30:04.000Z</time>
</trkpt>
<trkpt lat="45.8808360" lon="10.3075690">
	<ele>1580.40</ele>
	<time>2025-07-29T10:30:05.000Z</time>
</trkpt>
<trkpt lat="45.8808440" lon="10.3075780">
	<ele>1580.40</ele>
	<time>2025-07-29T10:30:06.000Z</time>
</trkpt>
<trkpt lat="45.8808520" lon="10.3075890">
	<ele>1580.40</ele>
	<time>2025-07-29T10:30:07.000Z</time>
</trkpt>
<trkpt lat="45.8808620" lon="10.3075950">
	<ele>1580.40</ele>
	<time>2025-07-29T10:30:08.000Z</time>
</trkpt>
<trkpt lat="45.8808700" lon="10.3075970">
	<ele>1580.40</ele>
	<time>2025-07-29T10:30:09.000Z</time>
</trkpt>
<trkpt lat="45.8808760" lon="10.3075960">
	<ele>1580.20</ele>
	<time>2025-07-29T10:30:10.000Z</time>
</trkpt>
<trkpt lat="45.8808860" lon="10.3075970">
	<ele>1580.20</ele>
	<time>2025-07-29T10:30:11.000Z</time>
</trkpt>
<trkpt lat="45.8808960" lon="10.3075980">
	<ele>1580.00</ele>
	<time>2025-07-29T10:30:12.000Z</time>
</trkpt>
<trkpt lat="45.8809040" lon="10.3075970">
	<ele>1580.00</ele>
	<time>2025-07-29T10:30:13.000Z</time>
</trkpt>
<trkpt lat="45.8809110" lon="10.3075980">
	<ele>1580.00</ele>
	<time>2025-07-29T10:30:14.000Z</time>
</trkpt>
<trkpt lat="45.8809210" lon="10.3075960">
	<ele>1580.00</ele>
	<time>2025-07-29T10:30:15.000Z</time>
</trkpt>
<trkpt lat="45.8809340" lon="10.3075930">
	<ele>1580.00</ele>
	<time>2025-07-29T10:30:16.000Z</time>
</trkpt>
<trkpt lat="45.8809500" lon="10.3075850">
	<ele>1580.00</ele>
	<time>2025-07-29T10:30:17.000Z</time>
</trkpt>
<trkpt lat="45.8809600" lon="10.3075740">
	<ele>1580.00</ele>
	<time>2025-07-29T10:30:18.000Z</time>
</trkpt>
<trkpt lat="45.8809680" lon="10.3075610">
	<ele>1580.00</ele>
	<time>2025-07-29T10:30:19.000Z</time>
</trkpt>
<trkpt lat="45.8809790" lon="10.3075500">
	<ele>1580.00</ele>
	<time>2025-07-29T10:30:20.000Z</time>
</trkpt>
<trkpt lat="45.8809890" lon="10.3075440">
	<ele>1580.00</ele>
	<time>2025-07-29T10:30:21.000Z</time>
</trkpt>
<trkpt lat="45.8809960" lon="10.3075400">
	<ele>1580.00</ele>
	<time>2025-07-29T10:30:22.000Z</time>
</trkpt>
<trkpt lat="45.8810030" lon="10.3075390">
	<ele>1580.00</ele>
	<time>2025-07-29T10:30:23.000Z</time>
</trkpt>
<trkpt lat="45.8810150" lon="10.3075390">
	<ele>1580.00</ele>
	<time>2025-07-29T10:30:24.000Z</time>
</trkpt>
<trkpt lat="45.8810260" lon="10.3075380">
	<ele>1580.20</ele>
	<time>2025-07-29T10:30:25.000Z</time>
</trkpt>
<trkpt lat="45.8810420" lon="10.3075330">
	<ele>1580.20</ele>
	<time>2025-07-29T10:30:26.000Z</time>
</trkpt>
<trkpt lat="45.8810500" lon="10.3075320">
	<ele>1580.40</ele>
	<time>2025-07-29T10:30:27.000Z</time>
</trkpt>
<trkpt lat="45.8810580" lon="10.3075310">
	<ele>1580.40</ele>
	<time>2025-07-29T10:30:28.000Z</time>
</trkpt>
<trkpt lat="45.8810670" lon="10.3075270">
	<ele>1580.40</ele>
	<time>2025-07-29T10:30:29.000Z</time>
</trkpt>
<trkpt lat="45.8810780" lon="10.3075200">
	<ele>1580.40</ele>
	<time>2025-07-29T10:30:30.000Z</time>
</trkpt>
<trkpt lat="45.8810900" lon="10.3075150">
	<ele>1580.40</ele>
	<time>2025-07-29T10:30:31.000Z</time>
</trkpt>
<trkpt lat="45.8811010" lon="10.3075140">
	<ele>1580.40</ele>
	<time>2025-07-29T10:30:32.000Z</time>
</trkpt>
<trkpt lat="45.8811220" lon="10.3075100">
	<ele>1580.40</ele>
	<time>2025-07-29T10:30:33.000Z</time>
</trkpt>
<trkpt lat="45.8811380" lon="10.3075010">
	<ele>1580.40</ele>
	<time>2025-07-29T10:30:34.000Z</time>
</trkpt>
<trkpt lat="45.8811530" lon="10.3074900">
	<ele>1580.20</ele>
	<time>2025-07-29T10:30:35.000Z</time>
</trkpt>
<trkpt lat="45.8811630" lon="10.3074840">
	<ele>1580.00</ele>
	<time>2025-07-29T10:30:36.000Z</time>
</trkpt>
<trkpt lat="45.8811750" lon="10.3074760">
	<ele>1580.00</ele>
	<time>2025-07-29T10:30:37.000Z</time>
</trkpt>
<trkpt lat="45.8811890" lon="10.3074720">
	<ele>1579.80</ele>
	<time>2025-07-29T10:30:38.000Z</time>
</trkpt>
<trkpt lat="45.8811980" lon="10.3074670">
	<ele>1579.80</ele>
	<time>2025-07-29T10:30:39.000Z</time>
</trkpt>
<trkpt lat="45.8811960" lon="10.3074440">
	<ele>1579.60</ele>
	<time>2025-07-29T10:30:40.000Z</time>
</trkpt>
<trkpt lat="45.8812110" lon="10.3074420">
	<ele>1579.60</ele>
	<time>2025-07-29T10:30:41.000Z</time>
</trkpt>
<trkpt lat="45.8812240" lon="10.3074440">
	<ele>1579.60</ele>
	<time>2025-07-29T10:30:42.000Z</time>
</trkpt>
<trkpt lat="45.8812290" lon="10.3074490">
	<ele>1579.60</ele>
	<time>2025-07-29T10:30:43.000Z</time>
</trkpt>
<trkpt lat="45.8812400" lon="10.3074460">
	<ele>1579.60</ele>
	<time>2025-07-29T10:30:44.000Z</time>
</trkpt>
<trkpt lat="45.8812520" lon="10.3074430">
	<ele>1579.60</ele>
	<time>2025-07-29T10:30:45.000Z</time>
</trkpt>
<trkpt lat="45.8812640" lon="10.3074470">
	<ele>1579.40</ele>
	<time>2025-07-29T10:30:46.000Z</time>
</trkpt>
<trkpt lat="45.8812790" lon="10.3074380">
	<ele>1579.40</ele>
	<time>2025-07-29T10:30:47.000Z</time>
</trkpt>
<trkpt lat="45.8812920" lon="10.3074290">
	<ele>1579.20</ele>
	<time>2025-07-29T10:30:48.000Z</time>
</trkpt>
<trkpt lat="45.8813070" lon="10.3074210">
	<ele>1579.20</ele>
	<time>2025-07-29T10:30:49.000Z</time>
</trkpt>
<trkpt lat="45.8813190" lon="10.3074200">
	<ele>1579.00</ele>
	<time>2025-07-29T10:30:50.000Z</time>
</trkpt>
<trkpt lat="45.8813290" lon="10.3074210">
	<ele>1579.00</ele>
	<time>2025-07-29T10:30:51.000Z</time>
</trkpt>
<trkpt lat="45.8813320" lon="10.3074180">
	<ele>1579.00</ele>
	<time>2025-07-29T10:30:52.000Z</time>
</trkpt>
<trkpt lat="45.8813400" lon="10.3074090">
	<ele>1579.00</ele>
	<time>2025-07-29T10:30:53.000Z</time>
</trkpt>
<trkpt lat="45.8813540" lon="10.3073990">
	<ele>1578.80</ele>
	<time>2025-07-29T10:30:54.000Z</time>
</trkpt>
<trkpt lat="45.8813680" lon="10.3073920">
	<ele>1578.80</ele>
	<time>2025-07-29T10:30:55.000Z</time>
</trkpt>
<trkpt lat="45.8813840" lon="10.3073860">
	<ele>1578.80</ele>
	<time>2025-07-29T10:30:56.000Z</time>
</trkpt>
<trkpt lat="45.8813990" lon="10.3073820">
	<ele>1578.60</ele>
	<time>2025-07-29T10:30:57.000Z</time>
</trkpt>
<trkpt lat="45.8814140" lon="10.3073800">
	<ele>1578.40</ele>
	<time>2025-07-29T10:30:58.000Z</time>
</trkpt>
<trkpt lat="45.8814300" lon="10.3073730">
	<ele>1578.40</ele>
	<time>2025-07-29T10:30:59.000Z</time>
</trkpt>
<trkpt lat="45.8814480" lon="10.3073680">
	<ele>1578.20</ele>
	<time>2025-07-29T10:31:00.000Z</time>
</trkpt>
<trkpt lat="45.8814650" lon="10.3073580">
	<ele>1578.20</ele>
	<time>2025-07-29T10:31:01.000Z</time>
</trkpt>
<trkpt lat="45.8814710" lon="10.3073530">
	<ele>1578.20</ele>
	<time>2025-07-29T10:31:02.000Z</time>
</trkpt>
<trkpt lat="45.8814820" lon="10.3073520">
	<ele>1578.20</ele>
	<time>2025-07-29T10:31:03.000Z</time>
</trkpt>
<trkpt lat="45.8814970" lon="10.3073510">
	<ele>1578.20</ele>
	<time>2025-07-29T10:31:04.000Z</time>
</trkpt>
<trkpt lat="45.8815060" lon="10.3073500">
	<ele>1578.20</ele>
	<time>2025-07-29T10:31:05.000Z</time>
</trkpt>
<trkpt lat="45.8815150" lon="10.3073550">
	<ele>1578.20</ele>
	<time>2025-07-29T10:31:06.000Z</time>
</trkpt>
<trkpt lat="45.8815210" lon="10.3073500">
	<ele>1578.20</ele>
	<time>2025-07-29T10:31:07.000Z</time>
</trkpt>
<trkpt lat="45.8815300" lon="10.3073440">
	<ele>1578.20</ele>
	<time>2025-07-29T10:31:08.000Z</time>
</trkpt>
<trkpt lat="45.8815410" lon="10.3073380">
	<ele>1578.00</ele>
	<time>2025-07-29T10:31:09.000Z</time>
</trkpt>
<trkpt lat="45.8815490" lon="10.3073350">
	<ele>1578.00</ele>
	<time>2025-07-29T10:31:10.000Z</time>
</trkpt>
<trkpt lat="45.8815600" lon="10.3073340">
	<ele>1577.80</ele>
	<time>2025-07-29T10:31:11.000Z</time>
</trkpt>
<trkpt lat="45.8815700" lon="10.3073330">
	<ele>1577.80</ele>
	<time>2025-07-29T10:31:12.000Z</time>
</trkpt>
<trkpt lat="45.8815800" lon="10.3073320">
	<ele>1577.80</ele>
	<time>2025-07-29T10:31:13.000Z</time>
</trkpt>
<trkpt lat="45.8815930" lon="10.3073280">
	<ele>1577.80</ele>
	<time>2025-07-29T10:31:14.000Z</time>
</trkpt>
<trkpt lat="45.8816030" lon="10.3073300">
	<ele>1577.80</ele>
	<time>2025-07-29T10:31:15.000Z</time>
</trkpt>
<trkpt lat="45.8816150" lon="10.3073320">
	<ele>1577.60</ele>
	<time>2025-07-29T10:31:16.000Z</time>
</trkpt>
<trkpt lat="45.8816260" lon="10.3073310">
	<ele>1577.60</ele>
	<time>2025-07-29T10:31:17.000Z</time>
</trkpt>
<trkpt lat="45.8816370" lon="10.3073310">
	<ele>1577.60</ele>
	<time>2025-07-29T10:31:18.000Z</time>
</trkpt>
<trkpt lat="45.8816470" lon="10.3073330">
	<ele>1577.40</ele>
	<time>2025-07-29T10:31:19.000Z</time>
</trkpt>
<trkpt lat="45.8816570" lon="10.3073360">
	<ele>1577.20</ele>
	<time>2025-07-29T10:31:20.000Z</time>
</trkpt>
<trkpt lat="45.8816690" lon="10.3073390">
	<ele>1577.20</ele>
	<time>2025-07-29T10:31:21.000Z</time>
</trkpt>
<trkpt lat="45.8816770" lon="10.3073450">
	<ele>1577.00</ele>
	<time>2025-07-29T10:31:22.000Z</time>
</trkpt>
<trkpt lat="45.8816840" lon="10.3073480">
	<ele>1576.80</ele>
	<time>2025-07-29T10:31:23.000Z</time>
</trkpt>
<trkpt lat="45.8816940" lon="10.3073480">
	<ele>1576.80</ele>
	<time>2025-07-29T10:31:24.000Z</time>
</trkpt>
<trkpt lat="45.8817050" lon="10.3073510">
	<ele>1576.80</ele>
	<time>2025-07-29T10:31:25.000Z</time>
</trkpt>
<trkpt lat="45.8817160" lon="10.3073520">
	<ele>1576.60</ele>
	<time>2025-07-29T10:31:26.000Z</time>
</trkpt>
<trkpt lat="45.8817290" lon="10.3073500">
	<ele>1576.60</ele>
	<time>2025-07-29T10:31:27.000Z</time>
</trkpt>
<trkpt lat="45.8817440" lon="10.3073490">
	<ele>1576.60</ele>
	<time>2025-07-29T10:31:28.000Z</time>
</trkpt>
<trkpt lat="45.8817580" lon="10.3073470">
	<ele>1576.40</ele>
	<time>2025-07-29T10:31:29.000Z</time>
</trkpt>
<trkpt lat="45.8817680" lon="10.3073450">
	<ele>1576.40</ele>
	<time>2025-07-29T10:31:30.000Z</time>
</trkpt>
<trkpt lat="45.8817830" lon="10.3073420">
	<ele>1576.40</ele>
	<time>2025-07-29T10:31:31.000Z</time>
</trkpt>
<trkpt lat="45.8817930" lon="10.3073430">
	<ele>1576.40</ele>
	<time>2025-07-29T10:31:32.000Z</time>
</trkpt>
<trkpt lat="45.8817990" lon="10.3073430">
	<ele>1576.40</ele>
	<time>2025-07-29T10:31:33.000Z</time>
</trkpt>
<trkpt lat="45.8818040" lon="10.3073460">
	<ele>1576.40</ele>
	<time>2025-07-29T10:31:34.000Z</time>
</trkpt>
<trkpt lat="45.8818100" lon="10.3073520">
	<ele>1576.20</ele>
	<time>2025-07-29T10:31:35.000Z</time>
</trkpt>
<trkpt lat="45.8818200" lon="10.3073560">
	<ele>1576.00</ele>
	<time>2025-07-29T10:31:36.000Z</time>
</trkpt>
<trkpt lat="45.8818330" lon="10.3073590">
	<ele>1576.00</ele>
	<time>2025-07-29T10:31:37.000Z</time>
</trkpt>
<trkpt lat="45.8818480" lon="10.3073640">
	<ele>1575.80</ele>
	<time>2025-07-29T10:31:38.000Z</time>
</trkpt>
<trkpt lat="45.8818630" lon="10.3073660">
	<ele>1575.80</ele>
	<time>2025-07-29T10:31:39.000Z</time>
</trkpt>
<trkpt lat="45.8818770" lon="10.3073740">
	<ele>1575.60</ele>
	<time>2025-07-29T10:31:40.000Z</time>
</trkpt>
<trkpt lat="45.8818880" lon="10.3073820">
	<ele>1575.60</ele>
	<time>2025-07-29T10:31:41.000Z</time>
</trkpt>
<trkpt lat="45.8818970" lon="10.3073970">
	<ele>1575.60</ele>
	<time>2025-07-29T10:31:42.000Z</time>
</trkpt>
<trkpt lat="45.8819080" lon="10.3074110">
	<ele>1575.60</ele>
	<time>2025-07-29T10:31:43.000Z</time>
</trkpt>
<trkpt lat="45.8819210" lon="10.3074150">
	<ele>1575.60</ele>
	<time>2025-07-29T10:31:44.000Z</time>
</trkpt>
<trkpt lat="45.8819320" lon="10.3074130">
	<ele>1575.40</ele>
	<time>2025-07-29T10:31:45.000Z</time>
</trkpt>
<trkpt lat="45.8819400" lon="10.3074100">
	<ele>1575.40</ele>
	<time>2025-07-29T10:31:46.000Z</time>
</trkpt>
<trkpt lat="45.8819410" lon="10.3074120">
	<ele>1575.40</ele>
	<time>2025-07-29T10:31:47.000Z</time>
</trkpt>
<trkpt lat="45.8819550" lon="10.3074150">
	<ele>1575.20</ele>
	<time>2025-07-29T10:31:48.000Z</time>
</trkpt>
<trkpt lat="45.8819780" lon="10.3074120">
	<ele>1575.20</ele>
	<time>2025-07-29T10:31:49.000Z</time>
</trkpt>
<trkpt lat="45.8819950" lon="10.3074100">
	<ele>1575.20</ele>
	<time>2025-07-29T10:31:50.000Z</time>
</trkpt>
<trkpt lat="45.8820110" lon="10.3074120">
	<ele>1575.00</ele>
	<time>2025-07-29T10:31:51.000Z</time>
</trkpt>
<trkpt lat="45.8820170" lon="10.3074160">
	<ele>1575.00</ele>
	<time>2025-07-29T10:31:52.000Z</time>
</trkpt>
<trkpt lat="45.8820220" lon="10.3074190">
	<ele>1575.00</ele>
	<time>2025-07-29T10:31:53.000Z</time>
</trkpt>
<trkpt lat="45.8820230" lon="10.3074200">
	<ele>1574.80</ele>
	<time>2025-07-29T10:31:54.000Z</time>
</trkpt>
<trkpt lat="45.8820230" lon="10.3074200">
	<ele>1574.80</ele>
	<time>2025-07-29T10:31:55.000Z</time>
</trkpt>
<trkpt lat="45.8820240" lon="10.3074200">
	<ele>1574.80</ele>
	<time>2025-07-29T10:31:56.000Z</time>
</trkpt>
<trkpt lat="45.8820260" lon="10.3074210">
	<ele>1575.00</ele>
	<time>2025-07-29T10:31:57.000Z</time>
</trkpt>
<trkpt lat="45.8820270" lon="10.3074220">
	<ele>1574.80</ele>
	<time>2025-07-29T10:31:58.000Z</time>
</trkpt>
<trkpt lat="45.8820280" lon="10.3074220">
	<ele>1574.80</ele>
	<time>2025-07-29T10:31:59.000Z</time>
</trkpt>
<trkpt lat="45.8820280" lon="10.3074210">
	<ele>1574.80</ele>
	<time>2025-07-29T10:32:00.000Z</time>
</trkpt>
<trkpt lat="45.8820280" lon="10.3074200">
	<ele>1574.80</ele>
	<time>2025-07-29T10:32:01.000Z</time>
</trkpt>
<trkpt lat="45.8820270" lon="10.3074200">
	<ele>1574.80</ele>
	<time>2025-07-29T10:32:02.000Z</time>
</trkpt>
<trkpt lat="45.8820270" lon="10.3074200">
	<ele>1574.80</ele>
	<time>2025-07-29T10:32:03.000Z</time>
</trkpt>
<trkpt lat="45.8820270" lon="10.3074200">
	<ele>1574.80</ele>
	<time>2025-07-29T10:32:04.000Z</time>
</trkpt>
<trkpt lat="45.8820330" lon="10.3074150">
	<ele>1574.80</ele>
	<time>2025-07-29T10:32:05.000Z</time>
</trkpt>
<trkpt lat="45.8820430" lon="10.3074130">
	<ele>1574.40</ele>
	<time>2025-07-29T10:32:06.000Z</time>
</trkpt>
<trkpt lat="45.8820510" lon="10.3074130">
	<ele>1574.40</ele>
	<time>2025-07-29T10:32:07.000Z</time>
</trkpt>
<trkpt lat="45.8820580" lon="10.3074150">
	<ele>1574.20</ele>
	<time>2025-07-29T10:32:08.000Z</time>
</trkpt>
<trkpt lat="45.8820590" lon="10.3074180">
	<ele>1574.00</ele>
	<time>2025-07-29T10:32:09.000Z</time>
</trkpt>
<trkpt lat="45.8820630" lon="10.3074160">
	<ele>1573.80</ele>
	<time>2025-07-29T10:32:10.000Z</time>
</trkpt>
<trkpt lat="45.8820740" lon="10.3074140">
	<ele>1573.60</ele>
	<time>2025-07-29T10:32:11.000Z</time>
</trkpt>
<trkpt lat="45.8820860" lon="10.3074130">
	<ele>1573.60</ele>
	<time>2025-07-29T10:32:12.000Z</time>
</trkpt>
<trkpt lat="45.8820930" lon="10.3074180">
	<ele>1573.60</ele>
	<time>2025-07-29T10:32:13.000Z</time>
</trkpt>
<trkpt lat="45.8821010" lon="10.3074170">
	<ele>1573.40</ele>
	<time>2025-07-29T10:32:14.000Z</time>
</trkpt>
<trkpt lat="45.8821080" lon="10.3074140">
	<ele>1573.20</ele>
	<time>2025-07-29T10:32:15.000Z</time>
</trkpt>
<trkpt lat="45.8821130" lon="10.3074140">
	<ele>1573.20</ele>
	<time>2025-07-29T10:32:16.000Z</time>
</trkpt>
<trkpt lat="45.8821180" lon="10.3074150">
	<ele>1573.20</ele>
	<time>2025-07-29T10:32:17.000Z</time>
</trkpt>
<trkpt lat="45.8821200" lon="10.3074140">
	<ele>1573.00</ele>
	<time>2025-07-29T10:32:18.000Z</time>
</trkpt>
<trkpt lat="45.8821180" lon="10.3074130">
	<ele>1573.00</ele>
	<time>2025-07-29T10:32:19.000Z</time>
</trkpt>
<trkpt lat="45.8821160" lon="10.3074110">
	<ele>1572.80</ele>
	<time>2025-07-29T10:32:20.000Z</time>
</trkpt>
<trkpt lat="45.8821100" lon="10.3074140">
	<ele>1572.80</ele>
	<time>2025-07-29T10:32:21.000Z</time>
</trkpt>
<trkpt lat="45.8821080" lon="10.3074140">
	<ele>1572.80</ele>
	<time>2025-07-29T10:32:22.000Z</time>
</trkpt>
<trkpt lat="45.8821080" lon="10.3074140">
	<ele>1572.80</ele>
	<time>2025-07-29T10:32:23.000Z</time>
</trkpt>
<trkpt lat="45.8820990" lon="10.3074180">
	<ele>1572.80</ele>
	<time>2025-07-29T10:32:24.000Z</time>
</trkpt>
<trkpt lat="45.8820990" lon="10.3074170">
	<ele>1573.00</ele>
	<time>2025-07-29T10:32:25.000Z</time>
</trkpt>
<trkpt lat="45.8820990" lon="10.3074150">
	<ele>1573.00</ele>
	<time>2025-07-29T10:32:26.000Z</time>
</trkpt>
<trkpt lat="45.8821000" lon="10.3074190">
	<ele>1573.00</ele>
	<time>2025-07-29T10:32:27.000Z</time>
</trkpt>
<trkpt lat="45.8821060" lon="10.3074180">
	<ele>1573.00</ele>
	<time>2025-07-29T10:32:28.000Z</time>
</trkpt>
<trkpt lat="45.8821170" lon="10.3074150">
	<ele>1573.00</ele>
	<time>2025-07-29T10:32:29.000Z</time>
</trkpt>
<trkpt lat="45.8821260" lon="10.3074150">
	<ele>1573.00</ele>
	<time>2025-07-29T10:32:30.000Z</time>
</trkpt>
<trkpt lat="45.8821370" lon="10.3074180">
	<ele>1572.80</ele>
	<time>2025-07-29T10:32:31.000Z</time>
</trkpt>
<trkpt lat="45.8821470" lon="10.3074150">
	<ele>1572.80</ele>
	<time>2025-07-29T10:32:32.000Z</time>
</trkpt>
<trkpt lat="45.8821560" lon="10.3074120">
	<ele>1572.80</ele>
	<time>2025-07-29T10:32:33.000Z</time>
</trkpt>
<trkpt lat="45.8821760" lon="10.3074150">
	<ele>1572.60</ele>
	<time>2025-07-29T10:32:34.000Z</time>
</trkpt>
<trkpt lat="45.8821960" lon="10.3074140">
	<ele>1572.60</ele>
	<time>2025-07-29T10:32:35.000Z</time>
</trkpt>
<trkpt lat="45.8822070" lon="10.3074110">
	<ele>1572.40</ele>
	<time>2025-07-29T10:32:36.000Z</time>
</trkpt>
<trkpt lat="45.8822160" lon="10.3074080">
	<ele>1572.20</ele>
	<time>2025-07-29T10:32:37.000Z</time>
</trkpt>
<trkpt lat="45.8822240" lon="10.3074020">
	<ele>1572.00</ele>
	<time>2025-07-29T10:32:38.000Z</time>
</trkpt>
<trkpt lat="45.8822260" lon="10.3074030">
	<ele>1571.80</ele>
	<time>2025-07-29T10:32:39.000Z</time>
</trkpt>
<trkpt lat="45.8822360" lon="10.3074060">
	<ele>1571.60</ele>
	<time>2025-07-29T10:32:40.000Z</time>
</trkpt>
<trkpt lat="45.8822430" lon="10.3074090">
	<ele>1571.40</ele>
	<time>2025-07-29T10:32:41.000Z</time>
</trkpt>
<trkpt lat="45.8822540" lon="10.3074070">
	<ele>1571.40</ele>
	<time>2025-07-29T10:32:42.000Z</time>
</trkpt>
<trkpt lat="45.8822640" lon="10.3074030">
	<ele>1571.20</ele>
	<time>2025-07-29T10:32:43.000Z</time>
</trkpt>
<trkpt lat="45.8822710" lon="10.3074060">
	<ele>1571.20</ele>
	<time>2025-07-29T10:32:44.000Z</time>
</trkpt>
<trkpt lat="45.8822800" lon="10.3074120">
	<ele>1571.00</ele>
	<time>2025-07-29T10:32:45.000Z</time>
</trkpt>
<trkpt lat="45.8822900" lon="10.3074210">
	<ele>1571.00</ele>
	<time>2025-07-29T10:32:46.000Z</time>
</trkpt>
<trkpt lat="45.8823010" lon="10.3074310">
	<ele>1571.00</ele>
	<time>2025-07-29T10:32:47.000Z</time>
</trkpt>
<trkpt lat="45.8823110" lon="10.3074400">
	<ele>1570.80</ele>
	<time>2025-07-29T10:32:48.000Z</time>
</trkpt>
<trkpt lat="45.8823240" lon="10.3074490">
	<ele>1570.80</ele>
	<time>2025-07-29T10:32:49.000Z</time>
</trkpt>
<trkpt lat="45.8823330" lon="10.3074600">
	<ele>1570.80</ele>
	<time>2025-07-29T10:32:50.000Z</time>
</trkpt>
<trkpt lat="45.8823420" lon="10.3074760">
	<ele>1570.80</ele>
	<time>2025-07-29T10:32:51.000Z</time>
</trkpt>
<trkpt lat="45.8823490" lon="10.3074830">
	<ele>1570.60</ele>
	<time>2025-07-29T10:32:52.000Z</time>
</trkpt>
<trkpt lat="45.8823620" lon="10.3074930">
	<ele>1570.60</ele>
	<time>2025-07-29T10:32:53.000Z</time>
</trkpt>
<trkpt lat="45.8823730" lon="10.3075010">
	<ele>1570.60</ele>
	<time>2025-07-29T10:32:54.000Z</time>
</trkpt>
<trkpt lat="45.8823850" lon="10.3075080">
	<ele>1570.60</ele>
	<time>2025-07-29T10:32:55.000Z</time>
</trkpt>
<trkpt lat="45.8823990" lon="10.3075140">
	<ele>1570.40</ele>
	<time>2025-07-29T10:32:56.000Z</time>
</trkpt>
<trkpt lat="45.8824100" lon="10.3075190">
	<ele>1570.40</ele>
	<time>2025-07-29T10:32:57.000Z</time>
</trkpt>
<trkpt lat="45.8824270" lon="10.3075270">
	<ele>1570.40</ele>
	<time>2025-07-29T10:32:58.000Z</time>
</trkpt>
<trkpt lat="45.8824390" lon="10.3075320">
	<ele>1570.40</ele>
	<time>2025-07-29T10:32:59.000Z</time>
</trkpt>
<trkpt lat="45.8824500" lon="10.3075330">
	<ele>1570.40</ele>
	<time>2025-07-29T10:33:00.000Z</time>
</trkpt>
<trkpt lat="45.8824580" lon="10.3075430">
	<ele>1570.20</ele>
	<time>2025-07-29T10:33:01.000Z</time>
</trkpt>
<trkpt lat="45.8824670" lon="10.3075550">
	<ele>1570.20</ele>
	<time>2025-07-29T10:33:02.000Z</time>
</trkpt>
<trkpt lat="45.8824750" lon="10.3075670">
	<ele>1570.20</ele>
	<time>2025-07-29T10:33:03.000Z</time>
</trkpt>
<trkpt lat="45.8824790" lon="10.3075760">
	<ele>1570.20</ele>
	<time>2025-07-29T10:33:04.000Z</time>
</trkpt>
<trkpt lat="45.8824880" lon="10.3075790">
	<ele>1570.20</ele>
	<time>2025-07-29T10:33:05.000Z</time>
</trkpt>
<trkpt lat="45.8825020" lon="10.3075820">
	<ele>1570.20</ele>
	<time>2025-07-29T10:33:06.000Z</time>
</trkpt>
<trkpt lat="45.8825170" lon="10.3075850">
	<ele>1570.20</ele>
	<time>2025-07-29T10:33:07.000Z</time>
</trkpt>
<trkpt lat="45.8825290" lon="10.3075890">
	<ele>1570.20</ele>
	<time>2025-07-29T10:33:08.000Z</time>
</trkpt>
<trkpt lat="45.8825400" lon="10.3075940">
	<ele>1570.20</ele>
	<time>2025-07-29T10:33:09.000Z</time>
</trkpt>
<trkpt lat="45.8825550" lon="10.3075970">
	<ele>1570.40</ele>
	<time>2025-07-29T10:33:10.000Z</time>
</trkpt>
<trkpt lat="45.8825640" lon="10.3075950">
	<ele>1570.40</ele>
	<time>2025-07-29T10:33:11.000Z</time>
</trkpt>
<trkpt lat="45.8825630" lon="10.3076020">
	<ele>1570.40</ele>
	<time>2025-07-29T10:33:12.000Z</time>
</trkpt>
<trkpt lat="45.8825580" lon="10.3076220">
	<ele>1570.40</ele>
	<time>2025-07-29T10:33:13.000Z</time>
</trkpt>
<trkpt lat="45.8825520" lon="10.3076430">
	<ele>1570.20</ele>
	<time>2025-07-29T10:33:14.000Z</time>
</trkpt>
<trkpt lat="45.8825460" lon="10.3076590">
	<ele>1570.20</ele>
	<time>2025-07-29T10:33:15.000Z</time>
</trkpt>
<trkpt lat="45.8825450" lon="10.3076800">
	<ele>1570.00</ele>
	<time>2025-07-29T10:33:16.000Z</time>
</trkpt>
<trkpt lat="45.8825460" lon="10.3077020">
	<ele>1570.00</ele>
	<time>2025-07-29T10:33:17.000Z</time>
</trkpt>
<trkpt lat="45.8825490" lon="10.3077200">
	<ele>1570.00</ele>
	<time>2025-07-29T10:33:18.000Z</time>
</trkpt>
<trkpt lat="45.8825540" lon="10.3077380">
	<ele>1569.80</ele>
	<time>2025-07-29T10:33:19.000Z</time>
</trkpt>
<trkpt lat="45.8825550" lon="10.3077580">
	<ele>1569.80</ele>
	<time>2025-07-29T10:33:20.000Z</time>
</trkpt>
<trkpt lat="45.8825590" lon="10.3077740">
	<ele>1569.80</ele>
	<time>2025-07-29T10:33:21.000Z</time>
</trkpt>
<trkpt lat="45.8825650" lon="10.3077910">
	<ele>1569.80</ele>
	<time>2025-07-29T10:33:22.000Z</time>
</trkpt>
<trkpt lat="45.8825720" lon="10.3078080">
	<ele>1569.80</ele>
	<time>2025-07-29T10:33:23.000Z</time>
</trkpt>
<trkpt lat="45.8825790" lon="10.3078240">
	<ele>1569.80</ele>
	<time>2025-07-29T10:33:24.000Z</time>
</trkpt>
<trkpt lat="45.8825880" lon="10.3078370">
	<ele>1569.80</ele>
	<time>2025-07-29T10:33:25.000Z</time>
</trkpt>
<trkpt lat="45.8825940" lon="10.3078490">
	<ele>1569.80</ele>
	<time>2025-07-29T10:33:26.000Z</time>
</trkpt>
<trkpt lat="45.8825990" lon="10.3078640">
	<ele>1569.80</ele>
	<time>2025-07-29T10:33:27.000Z</time>
</trkpt>
<trkpt lat="45.8826080" lon="10.3078760">
	<ele>1569.80</ele>
	<time>2025-07-29T10:33:28.000Z</time>
</trkpt>
<trkpt lat="45.8826210" lon="10.3078960">
	<ele>1569.80</ele>
	<time>2025-07-29T10:33:29.000Z</time>
</trkpt>
<trkpt lat="45.8826320" lon="10.3079080">
	<ele>1569.80</ele>
	<time>2025-07-29T10:33:30.000Z</time>
</trkpt>
<trkpt lat="45.8826400" lon="10.3079200">
	<ele>1569.60</ele>
	<time>2025-07-29T10:33:31.000Z</time>
</trkpt>
<trkpt lat="45.8826490" lon="10.3079340">
	<ele>1569.60</ele>
	<time>2025-07-29T10:33:32.000Z</time>
</trkpt>
<trkpt lat="45.8826580" lon="10.3079480">
	<ele>1569.60</ele>
	<time>2025-07-29T10:33:33.000Z</time>
</trkpt>
<trkpt lat="45.8826680" lon="10.3079580">
	<ele>1569.40</ele>
	<time>2025-07-29T10:33:34.000Z</time>
</trkpt>
<trkpt lat="45.8826800" lon="10.3079630">
	<ele>1569.40</ele>
	<time>2025-07-29T10:33:35.000Z</time>
</trkpt>
<trkpt lat="45.8826930" lon="10.3079620">
	<ele>1569.20</ele>
	<time>2025-07-29T10:33:36.000Z</time>
</trkpt>
<trkpt lat="45.8827100" lon="10.3079600">
	<ele>1569.20</ele>
	<time>2025-07-29T10:33:37.000Z</time>
</trkpt>
<trkpt lat="45.8827260" lon="10.3079590">
	<ele>1569.20</ele>
	<time>2025-07-29T10:33:38.000Z</time>
</trkpt>
<trkpt lat="45.8827440" lon="10.3079560">
	<ele>1569.20</ele>
	<time>2025-07-29T10:33:39.000Z</time>
</trkpt>
<trkpt lat="45.8827580" lon="10.3079410">
	<ele>1569.20</ele>
	<time>2025-07-29T10:33:40.000Z</time>
</trkpt>
<trkpt lat="45.8827720" lon="10.3079400">
	<ele>1569.20</ele>
	<time>2025-07-29T10:33:41.000Z</time>
</trkpt>
<trkpt lat="45.8827860" lon="10.3079410">
	<ele>1569.20</ele>
	<time>2025-07-29T10:33:42.000Z</time>
</trkpt>
<trkpt lat="45.8827960" lon="10.3079380">
	<ele>1569.20</ele>
	<time>2025-07-29T10:33:43.000Z</time>
</trkpt>
<trkpt lat="45.8828060" lon="10.3079340">
	<ele>1569.20</ele>
	<time>2025-07-29T10:33:44.000Z</time>
</trkpt>
<trkpt lat="45.8828120" lon="10.3079300">
	<ele>1569.20</ele>
	<time>2025-07-29T10:33:45.000Z</time>
</trkpt>
<trkpt lat="45.8828210" lon="10.3079280">
	<ele>1569.20</ele>
	<time>2025-07-29T10:33:46.000Z</time>
</trkpt>
<trkpt lat="45.8828330" lon="10.3079300">
	<ele>1569.20</ele>
	<time>2025-07-29T10:33:47.000Z</time>
</trkpt>
<trkpt lat="45.8828450" lon="10.3079290">
	<ele>1569.20</ele>
	<time>2025-07-29T10:33:48.000Z</time>
</trkpt>
<trkpt lat="45.8828590" lon="10.3079330">
	<ele>1569.40</ele>
	<time>2025-07-29T10:33:49.000Z</time>
</trkpt>
<trkpt lat="45.8828770" lon="10.3079230">
	<ele>1569.40</ele>
	<time>2025-07-29T10:33:50.000Z</time>
</trkpt>
<trkpt lat="45.8828900" lon="10.3079090">
	<ele>1569.40</ele>
	<time>2025-07-29T10:33:51.000Z</time>
</trkpt>
<trkpt lat="45.8829010" lon="10.3079050">
	<ele>1569.40</ele>
	<time>2025-07-29T10:33:52.000Z</time>
</trkpt>
<trkpt lat="45.8829120" lon="10.3079050">
	<ele>1569.40</ele>
	<time>2025-07-29T10:33:53.000Z</time>
</trkpt>
<trkpt lat="45.8829170" lon="10.3079000">
	<ele>1569.40</ele>
	<time>2025-07-29T10:33:54.000Z</time>
</trkpt>
<trkpt lat="45.8829190" lon="10.3078930">
	<ele>1569.40</ele>
	<time>2025-07-29T10:33:55.000Z</time>
</trkpt>
<trkpt lat="45.8829260" lon="10.3078880">
	<ele>1569.40</ele>
	<time>2025-07-29T10:33:56.000Z</time>
</trkpt>
<trkpt lat="45.8829290" lon="10.3078860">
	<ele>1569.40</ele>
	<time>2025-07-29T10:33:57.000Z</time>
</trkpt>
<trkpt lat="45.8829300" lon="10.3078840">
	<ele>1569.40</ele>
	<time>2025-07-29T10:33:58.000Z</time>
</trkpt>
<trkpt lat="45.8829300" lon="10.3078840">
	<ele>1569.40</ele>
	<time>2025-07-29T10:33:59.000Z</time>
</trkpt>
<trkpt lat="45.8829340" lon="10.3078910">
	<ele>1569.40</ele>
	<time>2025-07-29T10:34:00.000Z</time>
</trkpt>
<trkpt lat="45.8829380" lon="10.3079020">
	<ele>1569.40</ele>
	<time>2025-07-29T10:34:01.000Z</time>
</trkpt>
<trkpt lat="45.8829380" lon="10.3079030">
	<ele>1569.20</ele>
	<time>2025-07-29T10:34:02.000Z</time>
</trkpt>
<trkpt lat="45.8829360" lon="10.3079030">
	<ele>1569.20</ele>
	<time>2025-07-29T10:34:03.000Z</time>
</trkpt>
<trkpt lat="45.8829370" lon="10.3079010">
	<ele>1569.20</ele>
	<time>2025-07-29T10:34:04.000Z</time>
</trkpt>
<trkpt lat="45.8829440" lon="10.3078920">
	<ele>1569.20</ele>
	<time>2025-07-29T10:34:05.000Z</time>
</trkpt>
<trkpt lat="45.8829490" lon="10.3078790">
	<ele>1569.00</ele>
	<time>2025-07-29T10:34:06.000Z</time>
</trkpt>
<trkpt lat="45.8829560" lon="10.3078660">
	<ele>1569.00</ele>
	<time>2025-07-29T10:34:07.000Z</time>
</trkpt>
<trkpt lat="45.8829690" lon="10.3078570">
	<ele>1569.00</ele>
	<time>2025-07-29T10:34:08.000Z</time>
</trkpt>
<trkpt lat="45.8829800" lon="10.3078500">
	<ele>1569.00</ele>
	<time>2025-07-29T10:34:09.000Z</time>
</trkpt>
<trkpt lat="45.8829850" lon="10.3078440">
	<ele>1569.00</ele>
	<time>2025-07-29T10:34:10.000Z</time>
</trkpt>
<trkpt lat="45.8829960" lon="10.3078390">
	<ele>1569.00</ele>
	<time>2025-07-29T10:34:11.000Z</time>
</trkpt>
<trkpt lat="45.8830100" lon="10.3078390">
	<ele>1569.00</ele>
	<time>2025-07-29T10:34:12.000Z</time>
</trkpt>
<trkpt lat="45.8830220" lon="10.3078370">
	<ele>1568.80</ele>
	<time>2025-07-29T10:34:13.000Z</time>
</trkpt>
<trkpt lat="45.8830330" lon="10.3078360">
	<ele>1568.80</ele>
	<time>2025-07-29T10:34:14.000Z</time>
</trkpt>
<trkpt lat="45.8830480" lon="10.3078380">
	<ele>1568.60</ele>
	<time>2025-07-29T10:34:15.000Z</time>
</trkpt>
<trkpt lat="45.8830600" lon="10.3078410">
	<ele>1568.60</ele>
	<time>2025-07-29T10:34:16.000Z</time>
</trkpt>
<trkpt lat="45.8830710" lon="10.3078450">
	<ele>1568.40</ele>
	<time>2025-07-29T10:34:17.000Z</time>
</trkpt>
<trkpt lat="45.8830770" lon="10.3078560">
	<ele>1568.20</ele>
	<time>2025-07-29T10:34:18.000Z</time>
</trkpt>
<trkpt lat="45.8830860" lon="10.3078600">
	<ele>1568.00</ele>
	<time>2025-07-29T10:34:19.000Z</time>
</trkpt>
<trkpt lat="45.8831000" lon="10.3078640">
	<ele>1568.00</ele>
	<time>2025-07-29T10:34:20.000Z</time>
</trkpt>
<trkpt lat="45.8831140" lon="10.3078690">
	<ele>1567.80</ele>
	<time>2025-07-29T10:34:21.000Z</time>
</trkpt>
<trkpt lat="45.8831290" lon="10.3078680">
	<ele>1567.60</ele>
	<time>2025-07-29T10:34:22.000Z</time>
</trkpt>
<trkpt lat="45.8831390" lon="10.3078710">
	<ele>1567.60</ele>
	<time>2025-07-29T10:34:23.000Z</time>
</trkpt>
<trkpt lat="45.8831510" lon="10.3078770">
	<ele>1567.40</ele>
	<time>2025-07-29T10:34:24.000Z</time>
</trkpt>
<trkpt lat="45.8831610" lon="10.3078760">
	<ele>1567.40</ele>
	<time>2025-07-29T10:34:25.000Z</time>
</trkpt>
<trkpt lat="45.8831730" lon="10.3078720">
	<ele>1567.20</ele>
	<time>2025-07-29T10:34:26.000Z</time>
</trkpt>
<trkpt lat="45.8831860" lon="10.3078640">
	<ele>1567.20</ele>
	<time>2025-07-29T10:34:27.000Z</time>
</trkpt>
<trkpt lat="45.8832000" lon="10.3078560">
	<ele>1567.20</ele>
	<time>2025-07-29T10:34:28.000Z</time>
</trkpt>
<trkpt lat="45.8832040" lon="10.3078680">
	<ele>1567.00</ele>
	<time>2025-07-29T10:34:29.000Z</time>
</trkpt>
<trkpt lat="45.8832030" lon="10.3078730">
	<ele>1567.00</ele>
	<time>2025-07-29T10:34:30.000Z</time>
</trkpt>
<trkpt lat="45.8832030" lon="10.3078700">
	<ele>1567.00</ele>
	<time>2025-07-29T10:34:31.000Z</time>
</trkpt>
<trkpt lat="45.8832120" lon="10.3078680">
	<ele>1567.00</ele>
	<time>2025-07-29T10:34:32.000Z</time>
</trkpt>
<trkpt lat="45.8832190" lon="10.3078680">
	<ele>1566.80</ele>
	<time>2025-07-29T10:34:33.000Z</time>
</trkpt>
<trkpt lat="45.8832200" lon="10.3078700">
	<ele>1566.80</ele>
	<time>2025-07-29T10:34:34.000Z</time>
</trkpt>
<trkpt lat="45.8832230" lon="10.3078690">
	<ele>1566.80</ele>
	<time>2025-07-29T10:34:35.000Z</time>
</trkpt>
<trkpt lat="45.8832290" lon="10.3078700">
	<ele>1566.80</ele>
	<time>2025-07-29T10:34:36.000Z</time>
</trkpt>
<trkpt lat="45.8832330" lon="10.3078730">
	<ele>1566.80</ele>
	<time>2025-07-29T10:34:37.000Z</time>
</trkpt>
<trkpt lat="45.8832410" lon="10.3078790">
	<ele>1566.60</ele>
	<time>2025-07-29T10:34:38.000Z</time>
</trkpt>
<trkpt lat="45.8832480" lon="10.3078830">
	<ele>1566.60</ele>
	<time>2025-07-29T10:34:39.000Z</time>
</trkpt>
<trkpt lat="45.8832560" lon="10.3078900">
	<ele>1566.60</ele>
	<time>2025-07-29T10:34:40.000Z</time>
</trkpt>
<trkpt lat="45.8832640" lon="10.3079040">
	<ele>1566.40</ele>
	<time>2025-07-29T10:34:41.000Z</time>
</trkpt>
<trkpt lat="45.8832700" lon="10.3079110">
	<ele>1566.40</ele>
	<time>2025-07-29T10:34:42.000Z</time>
</trkpt>
<trkpt lat="45.8832720" lon="10.3079200">
	<ele>1566.40</ele>
	<time>2025-07-29T10:34:43.000Z</time>
</trkpt>
<trkpt lat="45.8832790" lon="10.3079290">
	<ele>1566.20</ele>
	<time>2025-07-29T10:34:44.000Z</time>
</trkpt>
<trkpt lat="45.8832900" lon="10.3079340">
	<ele>1566.20</ele>
	<time>2025-07-29T10:34:45.000Z</time>
</trkpt>
<trkpt lat="45.8833050" lon="10.3079410">
	<ele>1566.00</ele>
	<time>2025-07-29T10:34:46.000Z</time>
</trkpt>
<trkpt lat="45.8833220" lon="10.3079420">
	<ele>1566.00</ele>
	<time>2025-07-29T10:34:47.000Z</time>
</trkpt>
<trkpt lat="45.8833400" lon="10.3079380">
	<ele>1565.80</ele>
	<time>2025-07-29T10:34:48.000Z</time>
</trkpt>
<trkpt lat="45.8833580" lon="10.3079300">
	<ele>1565.80</ele>
	<time>2025-07-29T10:34:49.000Z</time>
</trkpt>
<trkpt lat="45.8833580" lon="10.3079400">
	<ele>1565.80</ele>
	<time>2025-07-29T10:34:50.000Z</time>
</trkpt>
<trkpt lat="45.8833620" lon="10.3079400">
	<ele>1565.80</ele>
	<time>2025-07-29T10:34:51.000Z</time>
</trkpt>
<trkpt lat="45.8833690" lon="10.3079510">
	<ele>1565.80</ele>
	<time>2025-07-29T10:34:52.000Z</time>
</trkpt>
<trkpt lat="45.8833760" lon="10.3079590">
	<ele>1565.60</ele>
	<time>2025-07-29T10:34:53.000Z</time>
</trkpt>
<trkpt lat="45.8833760" lon="10.3079540">
	<ele>1565.60</ele>
	<time>2025-07-29T10:34:54.000Z</time>
</trkpt>
<trkpt lat="45.8833850" lon="10.3079510">
	<ele>1565.40</ele>
	<time>2025-07-29T10:34:55.000Z</time>
</trkpt>
<trkpt lat="45.8834000" lon="10.3079460">
	<ele>1565.40</ele>
	<time>2025-07-29T10:34:56.000Z</time>
</trkpt>
<trkpt lat="45.8834130" lon="10.3079390">
	<ele>1565.40</ele>
	<time>2025-07-29T10:34:57.000Z</time>
</trkpt>
<trkpt lat="45.8834220" lon="10.3079410">
	<ele>1565.40</ele>
	<time>2025-07-29T10:34:58.000Z</time>
</trkpt>
<trkpt lat="45.8834290" lon="10.3079510">
	<ele>1565.40</ele>
	<time>2025-07-29T10:34:59.000Z</time>
</trkpt>
<trkpt lat="45.8834360" lon="10.3079570">
	<ele>1565.40</ele>
	<time>2025-07-29T10:35:00.000Z</time>
</trkpt>
<trkpt lat="45.8834380" lon="10.3079670">
	<ele>1565.40</ele>
	<time>2025-07-29T10:35:01.000Z</time>
</trkpt>
<trkpt lat="45.8834420" lon="10.3079870">
	<ele>1565.40</ele>
	<time>2025-07-29T10:35:02.000Z</time>
</trkpt>
<trkpt lat="45.8834480" lon="10.3080000">
	<ele>1565.40</ele>
	<time>2025-07-29T10:35:03.000Z</time>
</trkpt>
<trkpt lat="45.8834580" lon="10.3080090">
	<ele>1565.40</ele>
	<time>2025-07-29T10:35:04.000Z</time>
</trkpt>
<trkpt lat="45.8834660" lon="10.3080220">
	<ele>1565.40</ele>
	<time>2025-07-29T10:35:05.000Z</time>
</trkpt>
<trkpt lat="45.8834690" lon="10.3080340">
	<ele>1565.40</ele>
	<time>2025-07-29T10:35:06.000Z</time>
</trkpt>
<trkpt lat="45.8834680" lon="10.3080510">
	<ele>1565.40</ele>
	<time>2025-07-29T10:35:07.000Z</time>
</trkpt>
<trkpt lat="45.8834740" lon="10.3080520">
	<ele>1565.40</ele>
	<time>2025-07-29T10:35:08.000Z</time>
</trkpt>
<trkpt lat="45.8834830" lon="10.3080600">
	<ele>1565.40</ele>
	<time>2025-07-29T10:35:09.000Z</time>
</trkpt>
<trkpt lat="45.8834850" lon="10.3080670">
	<ele>1565.40</ele>
	<time>2025-07-29T10:35:10.000Z</time>
</trkpt>
<trkpt lat="45.8834900" lon="10.3080800">
	<ele>1565.20</ele>
	<time>2025-07-29T10:35:11.000Z</time>
</trkpt>
<trkpt lat="45.8834950" lon="10.3080910">
	<ele>1565.00</ele>
	<time>2025-07-29T10:35:12.000Z</time>
</trkpt>
<trkpt lat="45.8834990" lon="10.3081030">
	<ele>1564.80</ele>
	<time>2025-07-29T10:35:13.000Z</time>
</trkpt>
<trkpt lat="45.8835000" lon="10.3081150">
	<ele>1564.60</ele>
	<time>2025-07-29T10:35:14.000Z</time>
</trkpt>
<trkpt lat="45.8834970" lon="10.3081340">
	<ele>1564.60</ele>
	<time>2025-07-29T10:35:15.000Z</time>
</trkpt>
<trkpt lat="45.8834940" lon="10.3081470">
	<ele>1564.60</ele>
	<time>2025-07-29T10:35:16.000Z</time>
</trkpt>
<trkpt lat="45.8834890" lon="10.3081750">
	<ele>1564.40</ele>
	<time>2025-07-29T10:35:17.000Z</time>
</trkpt>
<trkpt lat="45.8834880" lon="10.3081990">
	<ele>1564.40</ele>
	<time>2025-07-29T10:35:18.000Z</time>
</trkpt>
<trkpt lat="45.8834870" lon="10.3082120">
	<ele>1564.40</ele>
	<time>2025-07-29T10:35:19.000Z</time>
</trkpt>
<trkpt lat="45.8834910" lon="10.3082320">
	<ele>1564.40</ele>
	<time>2025-07-29T10:35:20.000Z</time>
</trkpt>
<trkpt lat="45.8834980" lon="10.3082450">
	<ele>1564.40</ele>
	<time>2025-07-29T10:35:21.000Z</time>
</trkpt>
<trkpt lat="45.8835070" lon="10.3082590">
	<ele>1564.40</ele>
	<time>2025-07-29T10:35:22.000Z</time>
</trkpt>
<trkpt lat="45.8835120" lon="10.3082690">
	<ele>1564.40</ele>
	<time>2025-07-29T10:35:23.000Z</time>
</trkpt>
<trkpt lat="45.8835170" lon="10.3082820">
	<ele>1564.40</ele>
	<time>2025-07-29T10:35:24.000Z</time>
</trkpt>
<trkpt lat="45.8835240" lon="10.3082970">
	<ele>1564.40</ele>
	<time>2025-07-29T10:35:25.000Z</time>
</trkpt>
<trkpt lat="45.8835330" lon="10.3083010">
	<ele>1564.40</ele>
	<time>2025-07-29T10:35:26.000Z</time>
</trkpt>
<trkpt lat="45.8835390" lon="10.3083110">
	<ele>1564.40</ele>
	<time>2025-07-29T10:35:27.000Z</time>
</trkpt>
<trkpt lat="45.8835470" lon="10.3083190">
	<ele>1564.40</ele>
	<time>2025-07-29T10:35:28.000Z</time>
</trkpt>
<trkpt lat="45.8835550" lon="10.3083290">
	<ele>1564.40</ele>
	<time>2025-07-29T10:35:29.000Z</time>
</trkpt>
<trkpt lat="45.8835610" lon="10.3083470">
	<ele>1564.40</ele>
	<time>2025-07-29T10:35:30.000Z</time>
</trkpt>
<trkpt lat="45.8835630" lon="10.3083590">
	<ele>1564.20</ele>
	<time>2025-07-29T10:35:31.000Z</time>
</trkpt>
<trkpt lat="45.8835670" lon="10.3083750">
	<ele>1564.00</ele>
	<time>2025-07-29T10:35:32.000Z</time>
</trkpt>
<trkpt lat="45.8835730" lon="10.3083880">
	<ele>1564.00</ele>
	<time>2025-07-29T10:35:33.000Z</time>
</trkpt>
<trkpt lat="45.8835810" lon="10.3083960">
	<ele>1563.80</ele>
	<time>2025-07-29T10:35:34.000Z</time>
</trkpt>
<trkpt lat="45.8835820" lon="10.3084110">
	<ele>1563.80</ele>
	<time>2025-07-29T10:35:35.000Z</time>
</trkpt>
<trkpt lat="45.8835880" lon="10.3084270">
	<ele>1563.80</ele>
	<time>2025-07-29T10:35:36.000Z</time>
</trkpt>
<trkpt lat="45.8836010" lon="10.3084410">
	<ele>1563.80</ele>
	<time>2025-07-29T10:35:37.000Z</time>
</trkpt>
<trkpt lat="45.8836170" lon="10.3084690">
	<ele>1563.60</ele>
	<time>2025-07-29T10:35:38.000Z</time>
</trkpt>
<trkpt lat="45.8836300" lon="10.3084790">
	<ele>1563.60</ele>
	<time>2025-07-29T10:35:39.000Z</time>
</trkpt>
<trkpt lat="45.8836400" lon="10.3084840">
	<ele>1563.40</ele>
	<time>2025-07-29T10:35:40.000Z</time>
</trkpt>
<trkpt lat="45.8836510" lon="10.3084940">
	<ele>1563.40</ele>
	<time>2025-07-29T10:35:41.000Z</time>
</trkpt>
<trkpt lat="45.8836610" lon="10.3085110">
	<ele>1563.40</ele>
	<time>2025-07-29T10:35:42.000Z</time>
</trkpt>
<trkpt lat="45.8836690" lon="10.3085190">
	<ele>1563.40</ele>
	<time>2025-07-29T10:35:43.000Z</time>
</trkpt>
<trkpt lat="45.8836790" lon="10.3085280">
	<ele>1563.40</ele>
	<time>2025-07-29T10:35:44.000Z</time>
</trkpt>
<trkpt lat="45.8836890" lon="10.3085410">
	<ele>1563.40</ele>
	<time>2025-07-29T10:35:45.000Z</time>
</trkpt>
<trkpt lat="45.8836990" lon="10.3085550">
	<ele>1563.40</ele>
	<time>2025-07-29T10:35:46.000Z</time>
</trkpt>
<trkpt lat="45.8837080" lon="10.3085670">
	<ele>1563.40</ele>
	<time>2025-07-29T10:35:47.000Z</time>
</trkpt>
<trkpt lat="45.8837150" lon="10.3085740">
	<ele>1563.40</ele>
	<time>2025-07-29T10:35:48.000Z</time>
</trkpt>
<trkpt lat="45.8837230" lon="10.3085850">
	<ele>1563.40</ele>
	<time>2025-07-29T10:35:49.000Z</time>
</trkpt>
<trkpt lat="45.8837320" lon="10.3085970">
	<ele>1563.40</ele>
	<time>2025-07-29T10:35:50.000Z</time>
</trkpt>
<trkpt lat="45.8837410" lon="10.3086090">
	<ele>1563.40</ele>
	<time>2025-07-29T10:35:51.000Z</time>
</trkpt>
<trkpt lat="45.8837510" lon="10.3086220">
	<ele>1563.40</ele>
	<time>2025-07-29T10:35:52.000Z</time>
</trkpt>
<trkpt lat="45.8837600" lon="10.3086370">
	<ele>1563.20</ele>
	<time>2025-07-29T10:35:53.000Z</time>
</trkpt>
<trkpt lat="45.8837670" lon="10.3086540">
	<ele>1563.20</ele>
	<time>2025-07-29T10:35:54.000Z</time>
</trkpt>
<trkpt lat="45.8837710" lon="10.3086640">
	<ele>1563.20</ele>
	<time>2025-07-29T10:35:55.000Z</time>
</trkpt>
<trkpt lat="45.8837780" lon="10.3086810">
	<ele>1563.20</ele>
	<time>2025-07-29T10:35:56.000Z</time>
</trkpt>
<trkpt lat="45.8837810" lon="10.3086970">
	<ele>1563.20</ele>
	<time>2025-07-29T10:35:57.000Z</time>
</trkpt>
<trkpt lat="45.8837840" lon="10.3087140">
	<ele>1563.20</ele>
	<time>2025-07-29T10:35:58.000Z</time>
</trkpt>
<trkpt lat="45.8837900" lon="10.3087240">
	<ele>1563.20</ele>
	<time>2025-07-29T10:35:59.000Z</time>
</trkpt>
<trkpt lat="45.8837990" lon="10.3087390">
	<ele>1563.20</ele>
	<time>2025-07-29T10:36:00.000Z</time>
</trkpt>
<trkpt lat="45.8838000" lon="10.3087530">
	<ele>1563.20</ele>
	<time>2025-07-29T10:36:01.000Z</time>
</trkpt>
<trkpt lat="45.8838020" lon="10.3087770">
	<ele>1563.00</ele>
	<time>2025-07-29T10:36:02.000Z</time>
</trkpt>
<trkpt lat="45.8838060" lon="10.3087970">
	<ele>1563.00</ele>
	<time>2025-07-29T10:36:03.000Z</time>
</trkpt>
<trkpt lat="45.8838070" lon="10.3088110">
	<ele>1563.00</ele>
	<time>2025-07-29T10:36:04.000Z</time>
</trkpt>
<trkpt lat="45.8838120" lon="10.3088360">
	<ele>1563.00</ele>
	<time>2025-07-29T10:36:05.000Z</time>
</trkpt>
<trkpt lat="45.8838170" lon="10.3088500">
	<ele>1563.00</ele>
	<time>2025-07-29T10:36:06.000Z</time>
</trkpt>
<trkpt lat="45.8838210" lon="10.3088680">
	<ele>1563.00</ele>
	<time>2025-07-29T10:36:07.000Z</time>
</trkpt>
<trkpt lat="45.8838210" lon="10.3088880">
	<ele>1562.80</ele>
	<time>2025-07-29T10:36:08.000Z</time>
</trkpt>
<trkpt lat="45.8838240" lon="10.3089100">
	<ele>1562.80</ele>
	<time>2025-07-29T10:36:09.000Z</time>
</trkpt>
<trkpt lat="45.8838260" lon="10.3089350">
	<ele>1562.80</ele>
	<time>2025-07-29T10:36:10.000Z</time>
</trkpt>
<trkpt lat="45.8838330" lon="10.3089550">
	<ele>1562.80</ele>
	<time>2025-07-29T10:36:11.000Z</time>
</trkpt>
<trkpt lat="45.8838390" lon="10.3089690">
	<ele>1562.80</ele>
	<time>2025-07-29T10:36:12.000Z</time>
</trkpt>
<trkpt lat="45.8838440" lon="10.3089820">
	<ele>1562.80</ele>
	<time>2025-07-29T10:36:13.000Z</time>
</trkpt>
<trkpt lat="45.8838460" lon="10.3089920">
	<ele>1562.80</ele>
	<time>2025-07-29T10:36:14.000Z</time>
</trkpt>
<trkpt lat="45.8838510" lon="10.3090040">
	<ele>1562.60</ele>
	<time>2025-07-29T10:36:15.000Z</time>
</trkpt>
<trkpt lat="45.8838590" lon="10.3090200">
	<ele>1562.60</ele>
	<time>2025-07-29T10:36:16.000Z</time>
</trkpt>
<trkpt lat="45.8838720" lon="10.3090380">
	<ele>1562.60</ele>
	<time>2025-07-29T10:36:17.000Z</time>
</trkpt>
<trkpt lat="45.8838800" lon="10.3090600">
	<ele>1562.60</ele>
	<time>2025-07-29T10:36:18.000Z</time>
</trkpt>
<trkpt lat="45.8838870" lon="10.3090770">
	<ele>1562.60</ele>
	<time>2025-07-29T10:36:19.000Z</time>
</trkpt>
<trkpt lat="45.8838930" lon="10.3090850">
	<ele>1562.60</ele>
	<time>2025-07-29T10:36:20.000Z</time>
</trkpt>
<trkpt lat="45.8839040" lon="10.3091050">
	<ele>1562.60</ele>
	<time>2025-07-29T10:36:21.000Z</time>
</trkpt>
<trkpt lat="45.8839150" lon="10.3091230">
	<ele>1562.40</ele>
	<time>2025-07-29T10:36:22.000Z</time>
</trkpt>
<trkpt lat="45.8839270" lon="10.3091450">
	<ele>1562.40</ele>
	<time>2025-07-29T10:36:23.000Z</time>
</trkpt>
<trkpt lat="45.8839390" lon="10.3091560">
	<ele>1562.40</ele>
	<time>2025-07-29T10:36:24.000Z</time>
</trkpt>
<trkpt lat="45.8839510" lon="10.3091780">
	<ele>1562.40</ele>
	<time>2025-07-29T10:36:25.000Z</time>
</trkpt>
<trkpt lat="45.8839590" lon="10.3091970">
	<ele>1562.40</ele>
	<time>2025-07-29T10:36:26.000Z</time>
</trkpt>
<trkpt lat="45.8839690" lon="10.3092160">
	<ele>1562.20</ele>
	<time>2025-07-29T10:36:27.000Z</time>
</trkpt>
<trkpt lat="45.8839780" lon="10.3092280">
	<ele>1562.20</ele>
	<time>2025-07-29T10:36:28.000Z</time>
</trkpt>
<trkpt lat="45.8839870" lon="10.3092390">
	<ele>1562.20</ele>
	<time>2025-07-29T10:36:29.000Z</time>
</trkpt>
<trkpt lat="45.8839970" lon="10.3092490">
	<ele>1562.20</ele>
	<time>2025-07-29T10:36:30.000Z</time>
</trkpt>
<trkpt lat="45.8840070" lon="10.3092580">
	<ele>1562.00</ele>
	<time>2025-07-29T10:36:31.000Z</time>
</trkpt>
<trkpt lat="45.8840160" lon="10.3092680">
	<ele>1562.00</ele>
	<time>2025-07-29T10:36:32.000Z</time>
</trkpt>
<trkpt lat="45.8840240" lon="10.3092840">
	<ele>1562.00</ele>
	<time>2025-07-29T10:36:33.000Z</time>
</trkpt>
<trkpt lat="45.8840320" lon="10.3093010">
	<ele>1562.00</ele>
	<time>2025-07-29T10:36:34.000Z</time>
</trkpt>
<trkpt lat="45.8840390" lon="10.3093150">
	<ele>1562.00</ele>
	<time>2025-07-29T10:36:35.000Z</time>
</trkpt>
<trkpt lat="45.8840480" lon="10.3093290">
	<ele>1561.80</ele>
	<time>2025-07-29T10:36:36.000Z</time>
</trkpt>
<trkpt lat="45.8840570" lon="10.3093400">
	<ele>1561.80</ele>
	<time>2025-07-29T10:36:37.000Z</time>
</trkpt>
<trkpt lat="45.8840680" lon="10.3093510">
	<ele>1561.80</ele>
	<time>2025-07-29T10:36:38.000Z</time>
</trkpt>
<trkpt lat="45.8840750" lon="10.3093600">
	<ele>1561.80</ele>
	<time>2025-07-29T10:36:39.000Z</time>
</trkpt>
<trkpt lat="45.8840890" lon="10.3093770">
	<ele>1561.80</ele>
	<time>2025-07-29T10:36:40.000Z</time>
</trkpt>
<trkpt lat="45.8840930" lon="10.3093930">
	<ele>1561.80</ele>
	<time>2025-07-29T10:36:41.000Z</time>
</trkpt>
<trkpt lat="45.8841010" lon="10.3094060">
	<ele>1561.80</ele>
	<time>2025-07-29T10:36:42.000Z</time>
</trkpt>
<trkpt lat="45.8841130" lon="10.3094230">
	<ele>1562.00</ele>
	<time>2025-07-29T10:36:43.000Z</time>
</trkpt>
<trkpt lat="45.8841240" lon="10.3094360">
	<ele>1562.00</ele>
	<time>2025-07-29T10:36:44.000Z</time>
</trkpt>
<trkpt lat="45.8841290" lon="10.3094480">
	<ele>1562.00</ele>
	<time>2025-07-29T10:36:45.000Z</time>
</trkpt>
<trkpt lat="45.8841380" lon="10.3094640">
	<ele>1562.00</ele>
	<time>2025-07-29T10:36:46.000Z</time>
</trkpt>
<trkpt lat="45.8841460" lon="10.3094740">
	<ele>1562.00</ele>
	<time>2025-07-29T10:36:47.000Z</time>
</trkpt>
<trkpt lat="45.8841450" lon="10.3094810">
	<ele>1562.00</ele>
	<time>2025-07-29T10:36:48.000Z</time>
</trkpt>
<trkpt lat="45.8841510" lon="10.3094840">
	<ele>1562.00</ele>
	<time>2025-07-29T10:36:49.000Z</time>
</trkpt>
<trkpt lat="45.8841610" lon="10.3094890">
	<ele>1562.00</ele>
	<time>2025-07-29T10:36:50.000Z</time>
</trkpt>
<trkpt lat="45.8841740" lon="10.3095000">
	<ele>1562.00</ele>
	<time>2025-07-29T10:36:51.000Z</time>
</trkpt>
<trkpt lat="45.8841790" lon="10.3095080">
	<ele>1562.00</ele>
	<time>2025-07-29T10:36:52.000Z</time>
</trkpt>
<trkpt lat="45.8841840" lon="10.3095200">
	<ele>1562.00</ele>
	<time>2025-07-29T10:36:53.000Z</time>
</trkpt>
<trkpt lat="45.8841930" lon="10.3095300">
	<ele>1562.00</ele>
	<time>2025-07-29T10:36:54.000Z</time>
</trkpt>
<trkpt lat="45.8842030" lon="10.3095420">
	<ele>1562.00</ele>
	<time>2025-07-29T10:36:55.000Z</time>
</trkpt>
<trkpt lat="45.8842110" lon="10.3095550">
	<ele>1562.00</ele>
	<time>2025-07-29T10:36:56.000Z</time>
</trkpt>
<trkpt lat="45.8842190" lon="10.3095780">
	<ele>1561.80</ele>
	<time>2025-07-29T10:36:57.000Z</time>
</trkpt>
<trkpt lat="45.8842290" lon="10.3095970">
	<ele>1561.80</ele>
	<time>2025-07-29T10:36:58.000Z</time>
</trkpt>
<trkpt lat="45.8842350" lon="10.3096100">
	<ele>1561.80</ele>
	<time>2025-07-29T10:36:59.000Z</time>
</trkpt>
<trkpt lat="45.8842390" lon="10.3096180">
	<ele>1561.80</ele>
	<time>2025-07-29T10:37:00.000Z</time>
</trkpt>
<trkpt lat="45.8842540" lon="10.3096280">
	<ele>1561.80</ele>
	<time>2025-07-29T10:37:01.000Z</time>
</trkpt>
<trkpt lat="45.8842650" lon="10.3096340">
	<ele>1561.80</ele>
	<time>2025-07-29T10:37:02.000Z</time>
</trkpt>
<trkpt lat="45.8842810" lon="10.3096360">
	<ele>1561.80</ele>
	<time>2025-07-29T10:37:03.000Z</time>
</trkpt>
<trkpt lat="45.8842960" lon="10.3096410">
	<ele>1561.80</ele>
	<time>2025-07-29T10:37:04.000Z</time>
</trkpt>
<trkpt lat="45.8843090" lon="10.3096510">
	<ele>1561.80</ele>
	<time>2025-07-29T10:37:05.000Z</time>
</trkpt>
<trkpt lat="45.8843180" lon="10.3096630">
	<ele>1561.80</ele>
	<time>2025-07-29T10:37:06.000Z</time>
</trkpt>
<trkpt lat="45.8843290" lon="10.3096790">
	<ele>1561.80</ele>
	<time>2025-07-29T10:37:07.000Z</time>
</trkpt>
<trkpt lat="45.8843390" lon="10.3096920">
	<ele>1561.60</ele>
	<time>2025-07-29T10:37:08.000Z</time>
</trkpt>
<trkpt lat="45.8843500" lon="10.3097020">
	<ele>1561.40</ele>
	<time>2025-07-29T10:37:09.000Z</time>
</trkpt>
<trkpt lat="45.8843630" lon="10.3097110">
	<ele>1561.40</ele>
	<time>2025-07-29T10:37:10.000Z</time>
</trkpt>
<trkpt lat="45.8843780" lon="10.3097230">
	<ele>1561.40</ele>
	<time>2025-07-29T10:37:11.000Z</time>
</trkpt>
<trkpt lat="45.8843830" lon="10.3097350">
	<ele>1561.40</ele>
	<time>2025-07-29T10:37:12.000Z</time>
</trkpt>
<trkpt lat="45.8843900" lon="10.3097470">
	<ele>1561.40</ele>
	<time>2025-07-29T10:37:13.000Z</time>
</trkpt>
<trkpt lat="45.8843990" lon="10.3097590">
	<ele>1561.20</ele>
	<time>2025-07-29T10:37:14.000Z</time>
</trkpt>
<trkpt lat="45.8844090" lon="10.3097740">
	<ele>1561.20</ele>
	<time>2025-07-29T10:37:15.000Z</time>
</trkpt>
<trkpt lat="45.8844210" lon="10.3097880">
	<ele>1561.20</ele>
	<time>2025-07-29T10:37:16.000Z</time>
</trkpt>
<trkpt lat="45.8844300" lon="10.3098010">
	<ele>1561.20</ele>
	<time>2025-07-29T10:37:17.000Z</time>
</trkpt>
<trkpt lat="45.8844460" lon="10.3098160">
	<ele>1561.00</ele>
	<time>2025-07-29T10:37:18.000Z</time>
</trkpt>
<trkpt lat="45.8844630" lon="10.3098260">
	<ele>1561.20</ele>
	<time>2025-07-29T10:37:19.000Z</time>
</trkpt>
<trkpt lat="45.8844750" lon="10.3098300">
	<ele>1561.00</ele>
	<time>2025-07-29T10:37:20.000Z</time>
</trkpt>
<trkpt lat="45.8844890" lon="10.3098330">
	<ele>1561.00</ele>
	<time>2025-07-29T10:37:21.000Z</time>
</trkpt>
<trkpt lat="45.8844970" lon="10.3098350">
	<ele>1561.00</ele>
	<time>2025-07-29T10:37:22.000Z</time>
</trkpt>
<trkpt lat="45.8845120" lon="10.3098400">
	<ele>1561.00</ele>
	<time>2025-07-29T10:37:23.000Z</time>
</trkpt>
<trkpt lat="45.8845230" lon="10.3098460">
	<ele>1561.00</ele>
	<time>2025-07-29T10:37:24.000Z</time>
</trkpt>
<trkpt lat="45.8845340" lon="10.3098500">
	<ele>1561.00</ele>
	<time>2025-07-29T10:37:25.000Z</time>
</trkpt>
<trkpt lat="45.8845500" lon="10.3098570">
	<ele>1561.00</ele>
	<time>2025-07-29T10:37:26.000Z</time>
</trkpt>
<trkpt lat="45.8845660" lon="10.3098600">
	<ele>1561.00</ele>
	<time>2025-07-29T10:37:27.000Z</time>
</trkpt>
<trkpt lat="45.8845780" lon="10.3098610">
	<ele>1561.20</ele>
	<time>2025-07-29T10:37:28.000Z</time>
</trkpt>
<trkpt lat="45.8845910" lon="10.3098620">
	<ele>1561.20</ele>
	<time>2025-07-29T10:37:29.000Z</time>
</trkpt>
<trkpt lat="45.8846030" lon="10.3098660">
	<ele>1561.20</ele>
	<time>2025-07-29T10:37:30.000Z</time>
</trkpt>
<trkpt lat="45.8846120" lon="10.3098710">
	<ele>1561.20</ele>
	<time>2025-07-29T10:37:31.000Z</time>
</trkpt>
<trkpt lat="45.8846140" lon="10.3098770">
	<ele>1561.20</ele>
	<time>2025-07-29T10:37:32.000Z</time>
</trkpt>
<trkpt lat="45.8846200" lon="10.3098930">
	<ele>1561.00</ele>
	<time>2025-07-29T10:37:33.000Z</time>
</trkpt>
<trkpt lat="45.8846250" lon="10.3099030">
	<ele>1560.80</ele>
	<time>2025-07-29T10:37:34.000Z</time>
</trkpt>
<trkpt lat="45.8846400" lon="10.3099130">
	<ele>1560.80</ele>
	<time>2025-07-29T10:37:35.000Z</time>
</trkpt>
<trkpt lat="45.8846520" lon="10.3099130">
	<ele>1560.60</ele>
	<time>2025-07-29T10:37:36.000Z</time>
</trkpt>
<trkpt lat="45.8846700" lon="10.3099220">
	<ele>1560.40</ele>
	<time>2025-07-29T10:37:37.000Z</time>
</trkpt>
<trkpt lat="45.8846850" lon="10.3099350">
	<ele>1560.40</ele>
	<time>2025-07-29T10:37:38.000Z</time>
</trkpt>
<trkpt lat="45.8846960" lon="10.3099480">
	<ele>1560.20</ele>
	<time>2025-07-29T10:37:39.000Z</time>
</trkpt>
<trkpt lat="45.8847040" lon="10.3099610">
	<ele>1560.00</ele>
	<time>2025-07-29T10:37:40.000Z</time>
</trkpt>
<trkpt lat="45.8847090" lon="10.3099750">
	<ele>1559.80</ele>
	<time>2025-07-29T10:37:41.000Z</time>
</trkpt>
<trkpt lat="45.8847150" lon="10.3099920">
	<ele>1559.80</ele>
	<time>2025-07-29T10:37:42.000Z</time>
</trkpt>
<trkpt lat="45.8847200" lon="10.3100040">
	<ele>1559.80</ele>
	<time>2025-07-29T10:37:43.000Z</time>
</trkpt>
<trkpt lat="45.8847320" lon="10.3100190">
	<ele>1559.80</ele>
	<time>2025-07-29T10:37:44.000Z</time>
</trkpt>
<trkpt lat="45.8847450" lon="10.3100320">
	<ele>1559.80</ele>
	<time>2025-07-29T10:37:45.000Z</time>
</trkpt>
<trkpt lat="45.8847530" lon="10.3100430">
	<ele>1559.80</ele>
	<time>2025-07-29T10:37:46.000Z</time>
</trkpt>
<trkpt lat="45.8847610" lon="10.3100590">
	<ele>1559.80</ele>
	<time>2025-07-29T10:37:47.000Z</time>
</trkpt>
<trkpt lat="45.8847690" lon="10.3100730">
	<ele>1559.80</ele>
	<time>2025-07-29T10:37:48.000Z</time>
</trkpt>
<trkpt lat="45.8847790" lon="10.3100840">
	<ele>1560.00</ele>
	<time>2025-07-29T10:37:49.000Z</time>
</trkpt>
<trkpt lat="45.8847860" lon="10.3100910">
	<ele>1560.00</ele>
	<time>2025-07-29T10:37:50.000Z</time>
</trkpt>
<trkpt lat="45.8847940" lon="10.3100990">
	<ele>1560.20</ele>
	<time>2025-07-29T10:37:51.000Z</time>
</trkpt>
<trkpt lat="45.8848010" lon="10.3101100">
	<ele>1560.20</ele>
	<time>2025-07-29T10:37:52.000Z</time>
</trkpt>
<trkpt lat="45.8848080" lon="10.3101170">
	<ele>1560.40</ele>
	<time>2025-07-29T10:37:53.000Z</time>
</trkpt>
<trkpt lat="45.8848170" lon="10.3101240">
	<ele>1560.60</ele>
	<time>2025-07-29T10:37:54.000Z</time>
</trkpt>
<trkpt lat="45.8848290" lon="10.3101360">
	<ele>1560.80</ele>
	<time>2025-07-29T10:37:55.000Z</time>
</trkpt>
<trkpt lat="45.8848430" lon="10.3101500">
	<ele>1561.00</ele>
	<time>2025-07-29T10:37:56.000Z</time>
</trkpt>
<trkpt lat="45.8848600" lon="10.3101490">
	<ele>1561.00</ele>
	<time>2025-07-29T10:37:57.000Z</time>
</trkpt>
<trkpt lat="45.8848760" lon="10.3101370">
	<ele>1561.00</ele>
	<time>2025-07-29T10:37:58.000Z</time>
</trkpt>
<trkpt lat="45.8848890" lon="10.3101350">
	<ele>1561.20</ele>
	<time>2025-07-29T10:37:59.000Z</time>
</trkpt>
<trkpt lat="45.8849030" lon="10.3101360">
	<ele>1561.20</ele>
	<time>2025-07-29T10:38:00.000Z</time>
</trkpt>
<trkpt lat="45.8849130" lon="10.3101360">
	<ele>1561.20</ele>
	<time>2025-07-29T10:38:01.000Z</time>
</trkpt>
<trkpt lat="45.8849270" lon="10.3101390">
	<ele>1561.20</ele>
	<time>2025-07-29T10:38:02.000Z</time>
</trkpt>
<trkpt lat="45.8849410" lon="10.3101380">
	<ele>1561.20</ele>
	<time>2025-07-29T10:38:03.000Z</time>
</trkpt>
<trkpt lat="45.8849570" lon="10.3101390">
	<ele>1561.20</ele>
	<time>2025-07-29T10:38:04.000Z</time>
</trkpt>
<trkpt lat="45.8849710" lon="10.3101390">
	<ele>1561.20</ele>
	<time>2025-07-29T10:38:05.000Z</time>
</trkpt>
<trkpt lat="45.8849830" lon="10.3101380">
	<ele>1561.00</ele>
	<time>2025-07-29T10:38:06.000Z</time>
</trkpt>
<trkpt lat="45.8849940" lon="10.3101420">
	<ele>1561.00</ele>
	<time>2025-07-29T10:38:07.000Z</time>
</trkpt>
<trkpt lat="45.8850080" lon="10.3101450">
	<ele>1560.80</ele>
	<time>2025-07-29T10:38:08.000Z</time>
</trkpt>
<trkpt lat="45.8850140" lon="10.3101500">
	<ele>1560.80</ele>
	<time>2025-07-29T10:38:09.000Z</time>
</trkpt>
<trkpt lat="45.8850210" lon="10.3101500">
	<ele>1560.80</ele>
	<time>2025-07-29T10:38:10.000Z</time>
</trkpt>
<trkpt lat="45.8850310" lon="10.3101420">
	<ele>1560.80</ele>
	<time>2025-07-29T10:38:11.000Z</time>
</trkpt>
<trkpt lat="45.8850420" lon="10.3101440">
	<ele>1560.80</ele>
	<time>2025-07-29T10:38:12.000Z</time>
</trkpt>
<trkpt lat="45.8850540" lon="10.3101480">
	<ele>1560.60</ele>
	<time>2025-07-29T10:38:13.000Z</time>
</trkpt>
<trkpt lat="45.8850700" lon="10.3101480">
	<ele>1560.60</ele>
	<time>2025-07-29T10:38:14.000Z</time>
</trkpt>
<trkpt lat="45.8850860" lon="10.3101490">
	<ele>1560.60</ele>
	<time>2025-07-29T10:38:15.000Z</time>
</trkpt>
<trkpt lat="45.8850960" lon="10.3101520">
	<ele>1560.60</ele>
	<time>2025-07-29T10:38:16.000Z</time>
</trkpt>
<trkpt lat="45.8851040" lon="10.3101580">
	<ele>1560.40</ele>
	<time>2025-07-29T10:38:17.000Z</time>
</trkpt>
<trkpt lat="45.8851120" lon="10.3101620">
	<ele>1560.40</ele>
	<time>2025-07-29T10:38:18.000Z</time>
</trkpt>
<trkpt lat="45.8851190" lon="10.3101690">
	<ele>1560.40</ele>
	<time>2025-07-29T10:38:19.000Z</time>
</trkpt>
<trkpt lat="45.8851260" lon="10.3101800">
	<ele>1560.40</ele>
	<time>2025-07-29T10:38:20.000Z</time>
</trkpt>
<trkpt lat="45.8851350" lon="10.3101890">
	<ele>1560.60</ele>
	<time>2025-07-29T10:38:21.000Z</time>
</trkpt>
<trkpt lat="45.8851440" lon="10.3101930">
	<ele>1560.60</ele>
	<time>2025-07-29T10:38:22.000Z</time>
</trkpt>
<trkpt lat="45.8851540" lon="10.3102020">
	<ele>1560.60</ele>
	<time>2025-07-29T10:38:23.000Z</time>
</trkpt>
<trkpt lat="45.8851580" lon="10.3102070">
	<ele>1560.80</ele>
	<time>2025-07-29T10:38:24.000Z</time>
</trkpt>
<trkpt lat="45.8851600" lon="10.3102210">
	<ele>1560.80</ele>
	<time>2025-07-29T10:38:25.000Z</time>
</trkpt>
<trkpt lat="45.8851660" lon="10.3102340">
	<ele>1560.80</ele>
	<time>2025-07-29T10:38:26.000Z</time>
</trkpt>
<trkpt lat="45.8851680" lon="10.3102430">
	<ele>1560.60</ele>
	<time>2025-07-29T10:38:27.000Z</time>
</trkpt>
<trkpt lat="45.8851750" lon="10.3102600">
	<ele>1560.60</ele>
	<time>2025-07-29T10:38:28.000Z</time>
</trkpt>
<trkpt lat="45.8851810" lon="10.3102640">
	<ele>1560.60</ele>
	<time>2025-07-29T10:38:29.000Z</time>
</trkpt>
<trkpt lat="45.8851880" lon="10.3102740">
	<ele>1560.40</ele>
	<time>2025-07-29T10:38:30.000Z</time>
</trkpt>
<trkpt lat="45.8851940" lon="10.3102880">
	<ele>1560.40</ele>
	<time>2025-07-29T10:38:31.000Z</time>
</trkpt>
<trkpt lat="45.8852010" lon="10.3103020">
	<ele>1560.20</ele>
	<time>2025-07-29T10:38:32.000Z</time>
</trkpt>
<trkpt lat="45.8852080" lon="10.3103100">
	<ele>1560.20</ele>
	<time>2025-07-29T10:38:33.000Z</time>
</trkpt>
<trkpt lat="45.8852160" lon="10.3103180">
	<ele>1560.00</ele>
	<time>2025-07-29T10:38:34.000Z</time>
</trkpt>
<trkpt lat="45.8852210" lon="10.3103290">
	<ele>1559.80</ele>
	<time>2025-07-29T10:38:35.000Z</time>
</trkpt>
<trkpt lat="45.8852260" lon="10.3103350">
	<ele>1559.60</ele>
	<time>2025-07-29T10:38:36.000Z</time>
</trkpt>
<trkpt lat="45.8852310" lon="10.3103490">
	<ele>1559.60</ele>
	<time>2025-07-29T10:38:37.000Z</time>
</trkpt>
<trkpt lat="45.8852360" lon="10.3103700">
	<ele>1559.40</ele>
	<time>2025-07-29T10:38:38.000Z</time>
</trkpt>
<trkpt lat="45.8852360" lon="10.3103890">
	<ele>1559.20</ele>
	<time>2025-07-29T10:38:39.000Z</time>
</trkpt>
<trkpt lat="45.8852430" lon="10.3104020">
	<ele>1559.00</ele>
	<time>2025-07-29T10:38:40.000Z</time>
</trkpt>
<trkpt lat="45.8852490" lon="10.3104080">
	<ele>1559.00</ele>
	<time>2025-07-29T10:38:41.000Z</time>
</trkpt>
<trkpt lat="45.8852490" lon="10.3104080">
	<ele>1559.00</ele>
	<time>2025-07-29T10:38:42.000Z</time>
</trkpt>
<trkpt lat="45.8852490" lon="10.3104080">
	<ele>1559.00</ele>
	<time>2025-07-29T10:38:43.000Z</time>
</trkpt>
<trkpt lat="45.8852510" lon="10.3104000">
	<ele>1559.00</ele>
	<time>2025-07-29T10:38:44.000Z</time>
</trkpt>
<trkpt lat="45.8852530" lon="10.3103890">
	<ele>1559.00</ele>
	<time>2025-07-29T10:38:45.000Z</time>
</trkpt>
<trkpt lat="45.8852480" lon="10.3103730">
	<ele>1559.00</ele>
	<time>2025-07-29T10:38:46.000Z</time>
</trkpt>
<trkpt lat="45.8852530" lon="10.3103560">
	<ele>1559.00</ele>
	<time>2025-07-29T10:38:47.000Z</time>
</trkpt>
<trkpt lat="45.8852480" lon="10.3103530">
	<ele>1559.00</ele>
	<time>2025-07-29T10:38:48.000Z</time>
</trkpt>
<trkpt lat="45.8852440" lon="10.3103510">
	<ele>1559.00</ele>
	<time>2025-07-29T10:38:49.000Z</time>
</trkpt>
<trkpt lat="45.8852380" lon="10.3103570">
	<ele>1559.00</ele>
	<time>2025-07-29T10:38:50.000Z</time>
</trkpt>
<trkpt lat="45.8852320" lon="10.3103650">
	<ele>1559.00</ele>
	<time>2025-07-29T10:38:51.000Z</time>
</trkpt>
<trkpt lat="45.8852310" lon="10.3103610">
	<ele>1559.00</ele>
	<time>2025-07-29T10:38:52.000Z</time>
</trkpt>
<trkpt lat="45.8852310" lon="10.3103570">
	<ele>1559.00</ele>
	<time>2025-07-29T10:38:53.000Z</time>
</trkpt>
<trkpt lat="45.8852300" lon="10.3103590">
	<ele>1559.00</ele>
	<time>2025-07-29T10:38:54.000Z</time>
</trkpt>
<trkpt lat="45.8852360" lon="10.3103620">
	<ele>1559.00</ele>
	<time>2025-07-29T10:38:55.000Z</time>
</trkpt>
<trkpt lat="45.8852440" lon="10.3103640">
	<ele>1558.80</ele>
	<time>2025-07-29T10:38:56.000Z</time>
</trkpt>
<trkpt lat="45.8852440" lon="10.3103680">
	<ele>1558.60</ele>
	<time>2025-07-29T10:38:57.000Z</time>
</trkpt>
<trkpt lat="45.8852510" lon="10.3103690">
	<ele>1558.60</ele>
	<time>2025-07-29T10:38:58.000Z</time>
</trkpt>
<trkpt lat="45.8852580" lon="10.3103680">
	<ele>1558.20</ele>
	<time>2025-07-29T10:38:59.000Z</time>
</trkpt>
<trkpt lat="45.8852670" lon="10.3103690">
	<ele>1558.20</ele>
	<time>2025-07-29T10:39:00.000Z</time>
</trkpt>
<trkpt lat="45.8852760" lon="10.3103730">
	<ele>1558.00</ele>
	<time>2025-07-29T10:39:01.000Z</time>
</trkpt>
<trkpt lat="45.8852850" lon="10.3103770">
	<ele>1558.00</ele>
	<time>2025-07-29T10:39:02.000Z</time>
</trkpt>
<trkpt lat="45.8852930" lon="10.3103800">
	<ele>1558.00</ele>
	<time>2025-07-29T10:39:03.000Z</time>
</trkpt>
<trkpt lat="45.8852970" lon="10.3103830">
	<ele>1557.80</ele>
	<time>2025-07-29T10:39:04.000Z</time>
</trkpt>
<trkpt lat="45.8852970" lon="10.3103840">
	<ele>1557.80</ele>
	<time>2025-07-29T10:39:05.000Z</time>
</trkpt>
<trkpt lat="45.8853050" lon="10.3103810">
	<ele>1557.80</ele>
	<time>2025-07-29T10:39:06.000Z</time>
</trkpt>
<trkpt lat="45.8853080" lon="10.3103770">
	<ele>1557.60</ele>
	<time>2025-07-29T10:39:07.000Z</time>
</trkpt>
<trkpt lat="45.8853090" lon="10.3103810">
	<ele>1557.60</ele>
	<time>2025-07-29T10:39:08.000Z</time>
</trkpt>
<trkpt lat="45.8853100" lon="10.3104110">
	<ele>1557.40</ele>
	<time>2025-07-29T10:39:09.000Z</time>
</trkpt>
<trkpt lat="45.8853170" lon="10.3104330">
	<ele>1557.20</ele>
	<time>2025-07-29T10:39:10.000Z</time>
</trkpt>
<trkpt lat="45.8853190" lon="10.3104400">
	<ele>1557.20</ele>
	<time>2025-07-29T10:39:11.000Z</time>
</trkpt>
<trkpt lat="45.8853330" lon="10.3104470">
	<ele>1557.20</ele>
	<time>2025-07-29T10:39:12.000Z</time>
</trkpt>
<trkpt lat="45.8853480" lon="10.3104670">
	<ele>1557.20</ele>
	<time>2025-07-29T10:39:13.000Z</time>
</trkpt>
<trkpt lat="45.8853670" lon="10.3104830">
	<ele>1557.40</ele>
	<time>2025-07-29T10:39:14.000Z</time>
</trkpt>
<trkpt lat="45.8853730" lon="10.3105020">
	<ele>1557.40</ele>
	<time>2025-07-29T10:39:15.000Z</time>
</trkpt>
<trkpt lat="45.8853790" lon="10.3105160">
	<ele>1557.40</ele>
	<time>2025-07-29T10:39:16.000Z</time>
</trkpt>
<trkpt lat="45.8853910" lon="10.3105270">
	<ele>1557.40</ele>
	<time>2025-07-29T10:39:17.000Z</time>
</trkpt>
<trkpt lat="45.8854000" lon="10.3105420">
	<ele>1557.40</ele>
	<time>2025-07-29T10:39:18.000Z</time>
</trkpt>
<trkpt lat="45.8854080" lon="10.3105490">
	<ele>1557.40</ele>
	<time>2025-07-29T10:39:19.000Z</time>
</trkpt>
<trkpt lat="45.8854190" lon="10.3105550">
	<ele>1557.40</ele>
	<time>2025-07-29T10:39:20.000Z</time>
</trkpt>
<trkpt lat="45.8854230" lon="10.3105600">
	<ele>1557.40</ele>
	<time>2025-07-29T10:39:21.000Z</time>
</trkpt>
<trkpt lat="45.8854290" lon="10.3105660">
	<ele>1557.20</ele>
	<time>2025-07-29T10:39:22.000Z</time>
</trkpt>
<trkpt lat="45.8854370" lon="10.3105770">
	<ele>1557.20</ele>
	<time>2025-07-29T10:39:23.000Z</time>
</trkpt>
<trkpt lat="45.8854470" lon="10.3105850">
	<ele>1557.40</ele>
	<time>2025-07-29T10:39:24.000Z</time>
</trkpt>
<trkpt lat="45.8854590" lon="10.3105980">
	<ele>1557.40</ele>
	<time>2025-07-29T10:39:25.000Z</time>
</trkpt>
<trkpt lat="45.8854680" lon="10.3106040">
	<ele>1557.40</ele>
	<time>2025-07-29T10:39:26.000Z</time>
</trkpt>
<trkpt lat="45.8854760" lon="10.3106130">
	<ele>1557.40</ele>
	<time>2025-07-29T10:39:27.000Z</time>
</trkpt>
<trkpt lat="45.8854790" lon="10.3106150">
	<ele>1557.40</ele>
	<time>2025-07-29T10:39:28.000Z</time>
</trkpt>
<trkpt lat="45.8854730" lon="10.3106260">
	<ele>1557.40</ele>
	<time>2025-07-29T10:39:29.000Z</time>
</trkpt>
<trkpt lat="45.8854780" lon="10.3106360">
	<ele>1557.20</ele>
	<time>2025-07-29T10:39:30.000Z</time>
</trkpt>
<trkpt lat="45.8855020" lon="10.3106350">
	<ele>1556.80</ele>
	<time>2025-07-29T10:39:31.000Z</time>
</trkpt>
<trkpt lat="45.8855030" lon="10.3106360">
	<ele>1556.60</ele>
	<time>2025-07-29T10:39:32.000Z</time>
</trkpt>
<trkpt lat="45.8855070" lon="10.3106410">
	<ele>1556.20</ele>
	<time>2025-07-29T10:39:33.000Z</time>
</trkpt>
<trkpt lat="45.8855110" lon="10.3106490">
	<ele>1556.00</ele>
	<time>2025-07-29T10:39:34.000Z</time>
</trkpt>
<trkpt lat="45.8855110" lon="10.3106560">
	<ele>1555.60</ele>
	<time>2025-07-29T10:39:35.000Z</time>
</trkpt>
<trkpt lat="45.8855110" lon="10.3106690">
	<ele>1555.40</ele>
	<time>2025-07-29T10:39:36.000Z</time>
</trkpt>
<trkpt lat="45.8855130" lon="10.3106860">
	<ele>1555.40</ele>
	<time>2025-07-29T10:39:37.000Z</time>
</trkpt>
<trkpt lat="45.8855160" lon="10.3106910">
	<ele>1555.20</ele>
	<time>2025-07-29T10:39:38.000Z</time>
</trkpt>
<trkpt lat="45.8855340" lon="10.3107090">
	<ele>1555.00</ele>
	<time>2025-07-29T10:39:39.000Z</time>
</trkpt>
<trkpt lat="45.8855560" lon="10.3107210">
	<ele>1555.00</ele>
	<time>2025-07-29T10:39:40.000Z</time>
</trkpt>
<trkpt lat="45.8855750" lon="10.3107370">
	<ele>1554.80</ele>
	<time>2025-07-29T10:39:41.000Z</time>
</trkpt>
<trkpt lat="45.8855900" lon="10.3107680">
	<ele>1554.80</ele>
	<time>2025-07-29T10:39:42.000Z</time>
</trkpt>
<trkpt lat="45.8856040" lon="10.3107830">
	<ele>1554.40</ele>
	<time>2025-07-29T10:39:43.000Z</time>
</trkpt>
<trkpt lat="45.8856160" lon="10.3107900">
	<ele>1554.40</ele>
	<time>2025-07-29T10:39:44.000Z</time>
</trkpt>
<trkpt lat="45.8856340" lon="10.3107970">
	<ele>1554.20</ele>
	<time>2025-07-29T10:39:45.000Z</time>
</trkpt>
<trkpt lat="45.8856490" lon="10.3108100">
	<ele>1554.00</ele>
	<time>2025-07-29T10:39:46.000Z</time>
</trkpt>
<trkpt lat="45.8856600" lon="10.3108150">
	<ele>1554.00</ele>
	<time>2025-07-29T10:39:47.000Z</time>
</trkpt>
<trkpt lat="45.8856620" lon="10.3108170">
	<ele>1553.80</ele>
	<time>2025-07-29T10:39:48.000Z</time>
</trkpt>
<trkpt lat="45.8856640" lon="10.3108200">
	<ele>1553.60</ele>
	<time>2025-07-29T10:39:49.000Z</time>
</trkpt>
<trkpt lat="45.8856730" lon="10.3108340">
	<ele>1553.20</ele>
	<time>2025-07-29T10:39:50.000Z</time>
</trkpt>
<trkpt lat="45.8856780" lon="10.3108500">
	<ele>1553.00</ele>
	<time>2025-07-29T10:39:51.000Z</time>
</trkpt>
<trkpt lat="45.8856820" lon="10.3108680">
	<ele>1552.80</ele>
	<time>2025-07-29T10:39:52.000Z</time>
</trkpt>
<trkpt lat="45.8856860" lon="10.3108700">
	<ele>1552.80</ele>
	<time>2025-07-29T10:39:53.000Z</time>
</trkpt>
<trkpt lat="45.8856920" lon="10.3108480">
	<ele>1552.80</ele>
	<time>2025-07-29T10:39:54.000Z</time>
</trkpt>
<trkpt lat="45.8857070" lon="10.3108400">
	<ele>1552.60</ele>
	<time>2025-07-29T10:39:55.000Z</time>
</trkpt>
<trkpt lat="45.8856930" lon="10.3108320">
	<ele>1552.60</ele>
	<time>2025-07-29T10:39:56.000Z</time>
</trkpt>
<trkpt lat="45.8856890" lon="10.3108240">
	<ele>1552.40</ele>
	<time>2025-07-29T10:39:57.000Z</time>
</trkpt>
<trkpt lat="45.8856960" lon="10.3108240">
	<ele>1552.20</ele>
	<time>2025-07-29T10:39:58.000Z</time>
</trkpt>
<trkpt lat="45.8856960" lon="10.3108240">
	<ele>1552.20</ele>
	<time>2025-07-29T10:39:59.000Z</time>
</trkpt>
<trkpt lat="45.8856930" lon="10.3108370">
	<ele>1552.20</ele>
	<time>2025-07-29T10:40:00.000Z</time>
</trkpt>
<trkpt lat="45.8856930" lon="10.3108370">
	<ele>1552.00</ele>
	<time>2025-07-29T10:40:01.000Z</time>
</trkpt>
<trkpt lat="45.8856890" lon="10.3108450">
	<ele>1552.00</ele>
	<time>2025-07-29T10:40:02.000Z</time>
</trkpt>
<trkpt lat="45.8857040" lon="10.3108590">
	<ele>1552.00</ele>
	<time>2025-07-29T10:40:03.000Z</time>
</trkpt>
<trkpt lat="45.8857130" lon="10.3108700">
	<ele>1552.20</ele>
	<time>2025-07-29T10:40:04.000Z</time>
</trkpt>
<trkpt lat="45.8857200" lon="10.3108790">
	<ele>1552.20</ele>
	<time>2025-07-29T10:40:05.000Z</time>
</trkpt>
<trkpt lat="45.8857270" lon="10.3108820">
	<ele>1552.20</ele>
	<time>2025-07-29T10:40:06.000Z</time>
</trkpt>
<trkpt lat="45.8857370" lon="10.3108850">
	<ele>1552.20</ele>
	<time>2025-07-29T10:40:07.000Z</time>
</trkpt>
<trkpt lat="45.8857450" lon="10.3108890">
	<ele>1552.20</ele>
	<time>2025-07-29T10:40:08.000Z</time>
</trkpt>
<trkpt lat="45.8857480" lon="10.3108840">
	<ele>1552.20</ele>
	<time>2025-07-29T10:40:09.000Z</time>
</trkpt>
<trkpt lat="45.8857730" lon="10.3108810">
	<ele>1552.20</ele>
	<time>2025-07-29T10:40:10.000Z</time>
</trkpt>
<trkpt lat="45.8857780" lon="10.3108780">
	<ele>1552.40</ele>
	<time>2025-07-29T10:40:11.000Z</time>
</trkpt>
<trkpt lat="45.8857570" lon="10.3109000">
	<ele>1552.40</ele>
	<time>2025-07-29T10:40:12.000Z</time>
</trkpt>
<trkpt lat="45.8857600" lon="10.3109030">
	<ele>1552.40</ele>
	<time>2025-07-29T10:40:13.000Z</time>
</trkpt>
<trkpt lat="45.8857600" lon="10.3109070">
	<ele>1552.40</ele>
	<time>2025-07-29T10:40:14.000Z</time>
</trkpt>
<trkpt lat="45.8857580" lon="10.3109090">
	<ele>1552.40</ele>
	<time>2025-07-29T10:40:15.000Z</time>
</trkpt>
<trkpt lat="45.8857620" lon="10.3108960">
	<ele>1552.40</ele>
	<time>2025-07-29T10:40:16.000Z</time>
</trkpt>
<trkpt lat="45.8857650" lon="10.3108930">
	<ele>1552.60</ele>
	<time>2025-07-29T10:40:17.000Z</time>
</trkpt>
<trkpt lat="45.8857700" lon="10.3108780">
	<ele>1552.60</ele>
	<time>2025-07-29T10:40:18.000Z</time>
</trkpt>
<trkpt lat="45.8857740" lon="10.3108730">
	<ele>1552.60</ele>
	<time>2025-07-29T10:40:19.000Z</time>
</trkpt>
<trkpt lat="45.8857720" lon="10.3108780">
	<ele>1552.80</ele>
	<time>2025-07-29T10:40:20.000Z</time>
</trkpt>
<trkpt lat="45.8857690" lon="10.3108890">
	<ele>1552.80</ele>
	<time>2025-07-29T10:40:21.000Z</time>
</trkpt>
<trkpt lat="45.8857690" lon="10.3108920">
	<ele>1552.60</ele>
	<time>2025-07-29T10:40:22.000Z</time>
</trkpt>
<trkpt lat="45.8857730" lon="10.3109040">
	<ele>1552.60</ele>
	<time>2025-07-29T10:40:23.000Z</time>
</trkpt>
<trkpt lat="45.8857810" lon="10.3109240">
	<ele>1552.60</ele>
	<time>2025-07-29T10:40:24.000Z</time>
</trkpt>
<trkpt lat="45.8857910" lon="10.3109420">
	<ele>1552.60</ele>
	<time>2025-07-29T10:40:25.000Z</time>
</trkpt>
<trkpt lat="45.8857960" lon="10.3109580">
	<ele>1552.40</ele>
	<time>2025-07-29T10:40:26.000Z</time>
</trkpt>
<trkpt lat="45.8858080" lon="10.3109770">
	<ele>1552.40</ele>
	<time>2025-07-29T10:40:27.000Z</time>
</trkpt>
<trkpt lat="45.8858140" lon="10.3109950">
	<ele>1552.20</ele>
	<time>2025-07-29T10:40:28.000Z</time>
</trkpt>
<trkpt lat="45.8858250" lon="10.3110000">
	<ele>1552.20</ele>
	<time>2025-07-29T10:40:29.000Z</time>
</trkpt>
<trkpt lat="45.8858280" lon="10.3110180">
	<ele>1552.20</ele>
	<time>2025-07-29T10:40:30.000Z</time>
</trkpt>
<trkpt lat="45.8858320" lon="10.3110220">
	<ele>1552.00</ele>
	<time>2025-07-29T10:40:31.000Z</time>
</trkpt>
<trkpt lat="45.8858350" lon="10.3110230">
	<ele>1552.00</ele>
	<time>2025-07-29T10:40:32.000Z</time>
</trkpt>
<trkpt lat="45.8858380" lon="10.3110220">
	<ele>1551.80</ele>
	<time>2025-07-29T10:40:33.000Z</time>
</trkpt>
<trkpt lat="45.8858410" lon="10.3110220">
	<ele>1551.60</ele>
	<time>2025-07-29T10:40:34.000Z</time>
</trkpt>
<trkpt lat="45.8858320" lon="10.3110480">
	<ele>1551.60</ele>
	<time>2025-07-29T10:40:35.000Z</time>
</trkpt>
<trkpt lat="45.8858290" lon="10.3110690">
	<ele>1551.60</ele>
	<time>2025-07-29T10:40:36.000Z</time>
</trkpt>
<trkpt lat="45.8858230" lon="10.3111010">
	<ele>1551.40</ele>
	<time>2025-07-29T10:40:37.000Z</time>
</trkpt>
<trkpt lat="45.8858170" lon="10.3111360">
	<ele>1551.20</ele>
	<time>2025-07-29T10:40:38.000Z</time>
</trkpt>
<trkpt lat="45.8858160" lon="10.3111600">
	<ele>1551.00</ele>
	<time>2025-07-29T10:40:39.000Z</time>
</trkpt>
<trkpt lat="45.8858140" lon="10.3111750">
	<ele>1551.00</ele>
	<time>2025-07-29T10:40:40.000Z</time>
</trkpt>
<trkpt lat="45.8858190" lon="10.3111870">
	<ele>1550.80</ele>
	<time>2025-07-29T10:40:41.000Z</time>
</trkpt>
<trkpt lat="45.8858280" lon="10.3112000">
	<ele>1550.60</ele>
	<time>2025-07-29T10:40:42.000Z</time>
</trkpt>
<trkpt lat="45.8858390" lon="10.3112180">
	<ele>1550.40</ele>
	<time>2025-07-29T10:40:43.000Z</time>
</trkpt>
<trkpt lat="45.8858510" lon="10.3112290">
	<ele>1550.40</ele>
	<time>2025-07-29T10:40:44.000Z</time>
</trkpt>
<trkpt lat="45.8858620" lon="10.3112400">
	<ele>1550.40</ele>
	<time>2025-07-29T10:40:45.000Z</time>
</trkpt>
<trkpt lat="45.8858750" lon="10.3112440">
	<ele>1550.20</ele>
	<time>2025-07-29T10:40:46.000Z</time>
</trkpt>
<trkpt lat="45.8858850" lon="10.3112530">
	<ele>1550.20</ele>
	<time>2025-07-29T10:40:47.000Z</time>
</trkpt>
<trkpt lat="45.8858930" lon="10.3112650">
	<ele>1550.20</ele>
	<time>2025-07-29T10:40:48.000Z</time>
</trkpt>
<trkpt lat="45.8858950" lon="10.3112730">
	<ele>1550.00</ele>
	<time>2025-07-29T10:40:49.000Z</time>
</trkpt>
<trkpt lat="45.8858950" lon="10.3112850">
	<ele>1550.00</ele>
	<time>2025-07-29T10:40:50.000Z</time>
</trkpt>
<trkpt lat="45.8858920" lon="10.3112960">
	<ele>1549.80</ele>
	<time>2025-07-29T10:40:51.000Z</time>
</trkpt>
<trkpt lat="45.8858970" lon="10.3113050">
	<ele>1549.60</ele>
	<time>2025-07-29T10:40:52.000Z</time>
</trkpt>
<trkpt lat="45.8859040" lon="10.3113220">
	<ele>1549.20</ele>
	<time>2025-07-29T10:40:53.000Z</time>
</trkpt>
<trkpt lat="45.8859140" lon="10.3113390">
	<ele>1549.20</ele>
	<time>2025-07-29T10:40:54.000Z</time>
</trkpt>
<trkpt lat="45.8859200" lon="10.3113490">
	<ele>1549.00</ele>
	<time>2025-07-29T10:40:55.000Z</time>
</trkpt>
<trkpt lat="45.8859230" lon="10.3113620">
	<ele>1548.80</ele>
	<time>2025-07-29T10:40:56.000Z</time>
</trkpt>
<trkpt lat="45.8859340" lon="10.3113740">
	<ele>1548.60</ele>
	<time>2025-07-29T10:40:57.000Z</time>
</trkpt>
<trkpt lat="45.8859500" lon="10.3113870">
	<ele>1548.40</ele>
	<time>2025-07-29T10:40:58.000Z</time>
</trkpt>
<trkpt lat="45.8859670" lon="10.3114020">
	<ele>1548.20</ele>
	<time>2025-07-29T10:40:59.000Z</time>
</trkpt>
<trkpt lat="45.8859790" lon="10.3114100">
	<ele>1548.00</ele>
	<time>2025-07-29T10:41:00.000Z</time>
</trkpt>
<trkpt lat="45.8859910" lon="10.3114140">
	<ele>1548.00</ele>
	<time>2025-07-29T10:41:01.000Z</time>
</trkpt>
<trkpt lat="45.8860060" lon="10.3114220">
	<ele>1548.00</ele>
	<time>2025-07-29T10:41:02.000Z</time>
</trkpt>
<trkpt lat="45.8860180" lon="10.3114310">
	<ele>1547.80</ele>
	<time>2025-07-29T10:41:03.000Z</time>
</trkpt>
<trkpt lat="45.8860280" lon="10.3114440">
	<ele>1547.80</ele>
	<time>2025-07-29T10:41:04.000Z</time>
</trkpt>
<trkpt lat="45.8860390" lon="10.3114570">
	<ele>1547.80</ele>
	<time>2025-07-29T10:41:05.000Z</time>
</trkpt>
<trkpt lat="45.8860490" lon="10.3114730">
	<ele>1547.80</ele>
	<time>2025-07-29T10:41:06.000Z</time>
</trkpt>
<trkpt lat="45.8860610" lon="10.3114790">
	<ele>1547.80</ele>
	<time>2025-07-29T10:41:07.000Z</time>
</trkpt>
<trkpt lat="45.8860740" lon="10.3114880">
	<ele>1547.80</ele>
	<time>2025-07-29T10:41:08.000Z</time>
</trkpt>
<trkpt lat="45.8860970" lon="10.3114830">
	<ele>1547.80</ele>
	<time>2025-07-29T10:41:09.000Z</time>
</trkpt>
<trkpt lat="45.8861070" lon="10.3114860">
	<ele>1547.80</ele>
	<time>2025-07-29T10:41:10.000Z</time>
</trkpt>
<trkpt lat="45.8861180" lon="10.3115000">
	<ele>1547.80</ele>
	<time>2025-07-29T10:41:11.000Z</time>
</trkpt>
<trkpt lat="45.8861250" lon="10.3115120">
	<ele>1547.80</ele>
	<time>2025-07-29T10:41:12.000Z</time>
</trkpt>
<trkpt lat="45.8861260" lon="10.3115210">
	<ele>1547.80</ele>
	<time>2025-07-29T10:41:13.000Z</time>
</trkpt>
<trkpt lat="45.8861240" lon="10.3115270">
	<ele>1547.80</ele>
	<time>2025-07-29T10:41:14.000Z</time>
</trkpt>
<trkpt lat="45.8861200" lon="10.3115360">
	<ele>1547.80</ele>
	<time>2025-07-29T10:41:15.000Z</time>
</trkpt>
<trkpt lat="45.8861200" lon="10.3115500">
	<ele>1547.80</ele>
	<time>2025-07-29T10:41:16.000Z</time>
</trkpt>
<trkpt lat="45.8861270" lon="10.3115540">
	<ele>1547.60</ele>
	<time>2025-07-29T10:41:17.000Z</time>
</trkpt>
<trkpt lat="45.8861330" lon="10.3115620">
	<ele>1547.60</ele>
	<time>2025-07-29T10:41:18.000Z</time>
</trkpt>
<trkpt lat="45.8861450" lon="10.3115680">
	<ele>1547.60</ele>
	<time>2025-07-29T10:41:19.000Z</time>
</trkpt>
<trkpt lat="45.8861630" lon="10.3115750">
	<ele>1547.40</ele>
	<time>2025-07-29T10:41:20.000Z</time>
</trkpt>
<trkpt lat="45.8861730" lon="10.3115950">
	<ele>1547.20</ele>
	<time>2025-07-29T10:41:21.000Z</time>
</trkpt>
<trkpt lat="45.8861850" lon="10.3116090">
	<ele>1547.20</ele>
	<time>2025-07-29T10:41:22.000Z</time>
</trkpt>
<trkpt lat="45.8861950" lon="10.3116130">
	<ele>1547.00</ele>
	<time>2025-07-29T10:41:23.000Z</time>
</trkpt>
<trkpt lat="45.8862020" lon="10.3116100">
	<ele>1547.00</ele>
	<time>2025-07-29T10:41:24.000Z</time>
</trkpt>
<trkpt lat="45.8862110" lon="10.3116080">
	<ele>1547.00</ele>
	<time>2025-07-29T10:41:25.000Z</time>
</trkpt>
<trkpt lat="45.8862200" lon="10.3116100">
	<ele>1546.80</ele>
	<time>2025-07-29T10:41:26.000Z</time>
</trkpt>
<trkpt lat="45.8862290" lon="10.3116120">
	<ele>1546.80</ele>
	<time>2025-07-29T10:41:27.000Z</time>
</trkpt>
<trkpt lat="45.8862340" lon="10.3116240">
	<ele>1546.80</ele>
	<time>2025-07-29T10:41:28.000Z</time>
</trkpt>
<trkpt lat="45.8862370" lon="10.3116420">
	<ele>1546.80</ele>
	<time>2025-07-29T10:41:29.000Z</time>
</trkpt>
<trkpt lat="45.8862420" lon="10.3116480">
	<ele>1546.80</ele>
	<time>2025-07-29T10:41:30.000Z</time>
</trkpt>
<trkpt lat="45.8862390" lon="10.3116560">
	<ele>1546.80</ele>
	<time>2025-07-29T10:41:31.000Z</time>
</trkpt>
<trkpt lat="45.8862380" lon="10.3116660">
	<ele>1546.60</ele>
	<time>2025-07-29T10:41:32.000Z</time>
</trkpt>
<trkpt lat="45.8862360" lon="10.3116770">
	<ele>1546.60</ele>
	<time>2025-07-29T10:41:33.000Z</time>
</trkpt>
<trkpt lat="45.8862360" lon="10.3116910">
	<ele>1546.60</ele>
	<time>2025-07-29T10:41:34.000Z</time>
</trkpt>
<trkpt lat="45.8862390" lon="10.3117000">
	<ele>1546.60</ele>
	<time>2025-07-29T10:41:35.000Z</time>
</trkpt>
<trkpt lat="45.8862370" lon="10.3117130">
	<ele>1546.40</ele>
	<time>2025-07-29T10:41:36.000Z</time>
</trkpt>
<trkpt lat="45.8862340" lon="10.3117300">
	<ele>1546.40</ele>
	<time>2025-07-29T10:41:37.000Z</time>
</trkpt>
<trkpt lat="45.8862360" lon="10.3117440">
	<ele>1546.20</ele>
	<time>2025-07-29T10:41:38.000Z</time>
</trkpt>
<trkpt lat="45.8862360" lon="10.3117610">
	<ele>1546.00</ele>
	<time>2025-07-29T10:41:39.000Z</time>
</trkpt>
<trkpt lat="45.8862420" lon="10.3117740">
	<ele>1546.00</ele>
	<time>2025-07-29T10:41:40.000Z</time>
</trkpt>
<trkpt lat="45.8862440" lon="10.3117880">
	<ele>1545.80</ele>
	<time>2025-07-29T10:41:41.000Z</time>
</trkpt>
<trkpt lat="45.8862470" lon="10.3118040">
	<ele>1545.80</ele>
	<time>2025-07-29T10:41:42.000Z</time>
</trkpt>
<trkpt lat="45.8862500" lon="10.3118150">
	<ele>1545.60</ele>
	<time>2025-07-29T10:41:43.000Z</time>
</trkpt>
<trkpt lat="45.8862460" lon="10.3118260">
	<ele>1545.60</ele>
	<time>2025-07-29T10:41:44.000Z</time>
</trkpt>
<trkpt lat="45.8862460" lon="10.3118350">
	<ele>1545.40</ele>
	<time>2025-07-29T10:41:45.000Z</time>
</trkpt>
<trkpt lat="45.8862430" lon="10.3118450">
	<ele>1545.40</ele>
	<time>2025-07-29T10:41:46.000Z</time>
</trkpt>
<trkpt lat="45.8862460" lon="10.3118620">
	<ele>1545.20</ele>
	<time>2025-07-29T10:41:47.000Z</time>
</trkpt>
<trkpt lat="45.8862490" lon="10.3118700">
	<ele>1545.20</ele>
	<time>2025-07-29T10:41:48.000Z</time>
</trkpt>
<trkpt lat="45.8862490" lon="10.3118880">
	<ele>1545.20</ele>
	<time>2025-07-29T10:41:49.000Z</time>
</trkpt>
<trkpt lat="45.8862500" lon="10.3119070">
	<ele>1545.20</ele>
	<time>2025-07-29T10:41:50.000Z</time>
</trkpt>
<trkpt lat="45.8862560" lon="10.3119160">
	<ele>1545.00</ele>
	<time>2025-07-29T10:41:51.000Z</time>
</trkpt>
<trkpt lat="45.8862670" lon="10.3119250">
	<ele>1545.00</ele>
	<time>2025-07-29T10:41:52.000Z</time>
</trkpt>
<trkpt lat="45.8862770" lon="10.3119380">
	<ele>1544.80</ele>
	<time>2025-07-29T10:41:53.000Z</time>
</trkpt>
<trkpt lat="45.8862810" lon="10.3119490">
	<ele>1544.80</ele>
	<time>2025-07-29T10:41:54.000Z</time>
</trkpt>
<trkpt lat="45.8862910" lon="10.3119580">
	<ele>1544.60</ele>
	<time>2025-07-29T10:41:55.000Z</time>
</trkpt>
<trkpt lat="45.8863050" lon="10.3119670">
	<ele>1544.60</ele>
	<time>2025-07-29T10:41:56.000Z</time>
</trkpt>
<trkpt lat="45.8863170" lon="10.3119700">
	<ele>1544.60</ele>
	<time>2025-07-29T10:41:57.000Z</time>
</trkpt>
<trkpt lat="45.8863260" lon="10.3119800">
	<ele>1544.60</ele>
	<time>2025-07-29T10:41:58.000Z</time>
</trkpt>
<trkpt lat="45.8863310" lon="10.3119850">
	<ele>1544.60</ele>
	<time>2025-07-29T10:41:59.000Z</time>
</trkpt>
<trkpt lat="45.8863310" lon="10.3119950">
	<ele>1544.40</ele>
	<time>2025-07-29T10:42:00.000Z</time>
</trkpt>
<trkpt lat="45.8863400" lon="10.3120020">
	<ele>1544.40</ele>
	<time>2025-07-29T10:42:01.000Z</time>
</trkpt>
<trkpt lat="45.8863490" lon="10.3120100">
	<ele>1544.40</ele>
	<time>2025-07-29T10:42:02.000Z</time>
</trkpt>
<trkpt lat="45.8863580" lon="10.3120140">
	<ele>1544.40</ele>
	<time>2025-07-29T10:42:03.000Z</time>
</trkpt>
<trkpt lat="45.8863610" lon="10.3120180">
	<ele>1544.40</ele>
	<time>2025-07-29T10:42:04.000Z</time>
</trkpt>
<trkpt lat="45.8863740" lon="10.3120240">
	<ele>1544.40</ele>
	<time>2025-07-29T10:42:05.000Z</time>
</trkpt>
<trkpt lat="45.8863790" lon="10.3120390">
	<ele>1544.40</ele>
	<time>2025-07-29T10:42:06.000Z</time>
</trkpt>
<trkpt lat="45.8863880" lon="10.3120450">
	<ele>1544.20</ele>
	<time>2025-07-29T10:42:07.000Z</time>
</trkpt>
<trkpt lat="45.8863960" lon="10.3120600">
	<ele>1544.20</ele>
	<time>2025-07-29T10:42:08.000Z</time>
</trkpt>
<trkpt lat="45.8864040" lon="10.3120770">
	<ele>1544.20</ele>
	<time>2025-07-29T10:42:09.000Z</time>
</trkpt>
<trkpt lat="45.8864110" lon="10.3120970">
	<ele>1544.00</ele>
	<time>2025-07-29T10:42:10.000Z</time>
</trkpt>
<trkpt lat="45.8864160" lon="10.3121160">
	<ele>1543.80</ele>
	<time>2025-07-29T10:42:11.000Z</time>
</trkpt>
<trkpt lat="45.8864240" lon="10.3121300">
	<ele>1543.80</ele>
	<time>2025-07-29T10:42:12.000Z</time>
</trkpt>
<trkpt lat="45.8864330" lon="10.3121390">
	<ele>1543.80</ele>
	<time>2025-07-29T10:42:13.000Z</time>
</trkpt>
<trkpt lat="45.8864340" lon="10.3121490">
	<ele>1543.60</ele>
	<time>2025-07-29T10:42:14.000Z</time>
</trkpt>
<trkpt lat="45.8864350" lon="10.3121640">
	<ele>1543.40</ele>
	<time>2025-07-29T10:42:15.000Z</time>
</trkpt>
<trkpt lat="45.8864370" lon="10.3121830">
	<ele>1543.20</ele>
	<time>2025-07-29T10:42:16.000Z</time>
</trkpt>
<trkpt lat="45.8864460" lon="10.3121930">
	<ele>1543.20</ele>
	<time>2025-07-29T10:42:17.000Z</time>
</trkpt>
<trkpt lat="45.8864530" lon="10.3122010">
	<ele>1543.00</ele>
	<time>2025-07-29T10:42:18.000Z</time>
</trkpt>
<trkpt lat="45.8864590" lon="10.3122100">
	<ele>1543.00</ele>
	<time>2025-07-29T10:42:19.000Z</time>
</trkpt>
<trkpt lat="45.8864630" lon="10.3122140">
	<ele>1542.80</ele>
	<time>2025-07-29T10:42:20.000Z</time>
</trkpt>
<trkpt lat="45.8864780" lon="10.3122170">
	<ele>1542.80</ele>
	<time>2025-07-29T10:42:21.000Z</time>
</trkpt>
<trkpt lat="45.8864990" lon="10.3122060">
	<ele>1542.80</ele>
	<time>2025-07-29T10:42:22.000Z</time>
</trkpt>
<trkpt lat="45.8865170" lon="10.3122120">
	<ele>1542.60</ele>
	<time>2025-07-29T10:42:23.000Z</time>
</trkpt>
<trkpt lat="45.8865270" lon="10.3122170">
	<ele>1542.40</ele>
	<time>2025-07-29T10:42:24.000Z</time>
</trkpt>
<trkpt lat="45.8865400" lon="10.3122230">
	<ele>1542.40</ele>
	<time>2025-07-29T10:42:25.000Z</time>
</trkpt>
<trkpt lat="45.8865510" lon="10.3122290">
	<ele>1542.40</ele>
	<time>2025-07-29T10:42:26.000Z</time>
</trkpt>
<trkpt lat="45.8865550" lon="10.3122370">
	<ele>1542.40</ele>
	<time>2025-07-29T10:42:27.000Z</time>
</trkpt>
<trkpt lat="45.8865630" lon="10.3122450">
	<ele>1542.40</ele>
	<time>2025-07-29T10:42:28.000Z</time>
</trkpt>
<trkpt lat="45.8865710" lon="10.3122560">
	<ele>1542.40</ele>
	<time>2025-07-29T10:42:29.000Z</time>
</trkpt>
<trkpt lat="45.8865760" lon="10.3122720">
	<ele>1542.40</ele>
	<time>2025-07-29T10:42:30.000Z</time>
</trkpt>
<trkpt lat="45.8865800" lon="10.3122820">
	<ele>1542.80</ele>
	<time>2025-07-29T10:42:31.000Z</time>
</trkpt>
<trkpt lat="45.8865860" lon="10.3122910">
	<ele>1543.00</ele>
	<time>2025-07-29T10:42:32.000Z</time>
</trkpt>
<trkpt lat="45.8865920" lon="10.3123020">
	<ele>1543.00</ele>
	<time>2025-07-29T10:42:33.000Z</time>
</trkpt>
<trkpt lat="45.8865930" lon="10.3123130">
	<ele>1543.20</ele>
	<time>2025-07-29T10:42:34.000Z</time>
</trkpt>
<trkpt lat="45.8865880" lon="10.3123260">
	<ele>1543.20</ele>
	<time>2025-07-29T10:42:35.000Z</time>
</trkpt>
<trkpt lat="45.8865840" lon="10.3123400">
	<ele>1543.20</ele>
	<time>2025-07-29T10:42:36.000Z</time>
</trkpt>
<trkpt lat="45.8865820" lon="10.3123490">
	<ele>1543.00</ele>
	<time>2025-07-29T10:42:37.000Z</time>
</trkpt>
<trkpt lat="45.8865800" lon="10.3123650">
	<ele>1543.00</ele>
	<time>2025-07-29T10:42:38.000Z</time>
</trkpt>
<trkpt lat="45.8865810" lon="10.3123830">
	<ele>1542.80</ele>
	<time>2025-07-29T10:42:39.000Z</time>
</trkpt>
<trkpt lat="45.8865840" lon="10.3123940">
	<ele>1542.40</ele>
	<time>2025-07-29T10:42:40.000Z</time>
</trkpt>
<trkpt lat="45.8865850" lon="10.3124100">
	<ele>1542.40</ele>
	<time>2025-07-29T10:42:41.000Z</time>
</trkpt>
<trkpt lat="45.8865870" lon="10.3124290">
	<ele>1542.00</ele>
	<time>2025-07-29T10:42:42.000Z</time>
</trkpt>
<trkpt lat="45.8865950" lon="10.3124490">
	<ele>1541.80</ele>
	<time>2025-07-29T10:42:43.000Z</time>
</trkpt>
<trkpt lat="45.8866010" lon="10.3124560">
	<ele>1541.60</ele>
	<time>2025-07-29T10:42:44.000Z</time>
</trkpt>
<trkpt lat="45.8866100" lon="10.3124650">
	<ele>1541.40</ele>
	<time>2025-07-29T10:42:45.000Z</time>
</trkpt>
<trkpt lat="45.8866200" lon="10.3124810">
	<ele>1541.40</ele>
	<time>2025-07-29T10:42:46.000Z</time>
</trkpt>
<trkpt lat="45.8866260" lon="10.3124990">
	<ele>1541.20</ele>
	<time>2025-07-29T10:42:47.000Z</time>
</trkpt>
<trkpt lat="45.8866370" lon="10.3125150">
	<ele>1541.00</ele>
	<time>2025-07-29T10:42:48.000Z</time>
</trkpt>
<trkpt lat="45.8866470" lon="10.3125190">
	<ele>1540.80</ele>
	<time>2025-07-29T10:42:49.000Z</time>
</trkpt>
<trkpt lat="45.8866550" lon="10.3125380">
	<ele>1540.80</ele>
	<time>2025-07-29T10:42:50.000Z</time>
</trkpt>
<trkpt lat="45.8866590" lon="10.3125480">
	<ele>1540.80</ele>
	<time>2025-07-29T10:42:51.000Z</time>
</trkpt>
<trkpt lat="45.8866630" lon="10.3125570">
	<ele>1540.40</ele>
	<time>2025-07-29T10:42:52.000Z</time>
</trkpt>
<trkpt lat="45.8866640" lon="10.3125650">
	<ele>1540.20</ele>
	<time>2025-07-29T10:42:53.000Z</time>
</trkpt>
<trkpt lat="45.8866640" lon="10.3125680">
	<ele>1539.80</ele>
	<time>2025-07-29T10:42:54.000Z</time>
</trkpt>
<trkpt lat="45.8866630" lon="10.3125740">
	<ele>1539.60</ele>
	<time>2025-07-29T10:42:55.000Z</time>
</trkpt>
<trkpt lat="45.8866580" lon="10.3125840">
	<ele>1539.40</ele>
	<time>2025-07-29T10:42:56.000Z</time>
</trkpt>
<trkpt lat="45.8866550" lon="10.3125970">
	<ele>1539.00</ele>
	<time>2025-07-29T10:42:57.000Z</time>
</trkpt>
<trkpt lat="45.8866620" lon="10.3126150">
	<ele>1538.80</ele>
	<time>2025-07-29T10:42:58.000Z</time>
</trkpt>
<trkpt lat="45.8866680" lon="10.3126280">
	<ele>1538.60</ele>
	<time>2025-07-29T10:42:59.000Z</time>
</trkpt>
<trkpt lat="45.8866700" lon="10.3126340">
	<ele>1538.40</ele>
	<time>2025-07-29T10:43:00.000Z</time>
</trkpt>
<trkpt lat="45.8866730" lon="10.3126420">
	<ele>1538.20</ele>
	<time>2025-07-29T10:43:01.000Z</time>
</trkpt>
<trkpt lat="45.8866750" lon="10.3126520">
	<ele>1538.20</ele>
	<time>2025-07-29T10:43:02.000Z</time>
</trkpt>
<trkpt lat="45.8866790" lon="10.3126640">
	<ele>1538.00</ele>
	<time>2025-07-29T10:43:03.000Z</time>
</trkpt>
<trkpt lat="45.8866820" lon="10.3126790">
	<ele>1537.80</ele>
	<time>2025-07-29T10:43:04.000Z</time>
</trkpt>
<trkpt lat="45.8866890" lon="10.3126900">
	<ele>1537.40</ele>
	<time>2025-07-29T10:43:05.000Z</time>
</trkpt>
<trkpt lat="45.8866910" lon="10.3127000">
	<ele>1537.20</ele>
	<time>2025-07-29T10:43:06.000Z</time>
</trkpt>
<trkpt lat="45.8866850" lon="10.3127140">
	<ele>1537.20</ele>
	<time>2025-07-29T10:43:07.000Z</time>
</trkpt>
<trkpt lat="45.8866870" lon="10.3127220">
	<ele>1536.80</ele>
	<time>2025-07-29T10:43:08.000Z</time>
</trkpt>
<trkpt lat="45.8866970" lon="10.3127330">
	<ele>1536.80</ele>
	<time>2025-07-29T10:43:09.000Z</time>
</trkpt>
<trkpt lat="45.8867030" lon="10.3127440">
	<ele>1536.60</ele>
	<time>2025-07-29T10:43:10.000Z</time>
</trkpt>
<trkpt lat="45.8867090" lon="10.3127520">
	<ele>1536.60</ele>
	<time>2025-07-29T10:43:11.000Z</time>
</trkpt>
<trkpt lat="45.8867140" lon="10.3127610">
	<ele>1536.40</ele>
	<time>2025-07-29T10:43:12.000Z</time>
</trkpt>
<trkpt lat="45.8867170" lon="10.3127700">
	<ele>1536.00</ele>
	<time>2025-07-29T10:43:13.000Z</time>
</trkpt>
<trkpt lat="45.8867210" lon="10.3127740">
	<ele>1535.80</ele>
	<time>2025-07-29T10:43:14.000Z</time>
</trkpt>
<trkpt lat="45.8867240" lon="10.3127870">
	<ele>1535.60</ele>
	<time>2025-07-29T10:43:15.000Z</time>
</trkpt>
<trkpt lat="45.8867310" lon="10.3127940">
	<ele>1535.40</ele>
	<time>2025-07-29T10:43:16.000Z</time>
</trkpt>
<trkpt lat="45.8867360" lon="10.3128020">
	<ele>1535.40</ele>
	<time>2025-07-29T10:43:17.000Z</time>
</trkpt>
<trkpt lat="45.8867380" lon="10.3128100">
	<ele>1535.00</ele>
	<time>2025-07-29T10:43:18.000Z</time>
</trkpt>
<trkpt lat="45.8867430" lon="10.3128140">
	<ele>1534.80</ele>
	<time>2025-07-29T10:43:19.000Z</time>
</trkpt>
<trkpt lat="45.8867460" lon="10.3128220">
	<ele>1534.80</ele>
	<time>2025-07-29T10:43:20.000Z</time>
</trkpt>
<trkpt lat="45.8867470" lon="10.3128340">
	<ele>1534.60</ele>
	<time>2025-07-29T10:43:21.000Z</time>
</trkpt>
<trkpt lat="45.8867490" lon="10.3128540">
	<ele>1534.20</ele>
	<time>2025-07-29T10:43:22.000Z</time>
</trkpt>
<trkpt lat="45.8867560" lon="10.3128600">
	<ele>1534.00</ele>
	<time>2025-07-29T10:43:23.000Z</time>
</trkpt>
<trkpt lat="45.8867610" lon="10.3128670">
	<ele>1533.80</ele>
	<time>2025-07-29T10:43:24.000Z</time>
</trkpt>
<trkpt lat="45.8867590" lon="10.3128830">
	<ele>1533.80</ele>
	<time>2025-07-29T10:43:25.000Z</time>
</trkpt>
<trkpt lat="45.8867580" lon="10.3128980">
	<ele>1533.60</ele>
	<time>2025-07-29T10:43:26.000Z</time>
</trkpt>
<trkpt lat="45.8867640" lon="10.3129090">
	<ele>1533.60</ele>
	<time>2025-07-29T10:43:27.000Z</time>
</trkpt>
<trkpt lat="45.8867750" lon="10.3129130">
	<ele>1533.40</ele>
	<time>2025-07-29T10:43:28.000Z</time>
</trkpt>
<trkpt lat="45.8867830" lon="10.3129170">
	<ele>1533.00</ele>
	<time>2025-07-29T10:43:29.000Z</time>
</trkpt>
<trkpt lat="45.8867870" lon="10.3129270">
	<ele>1533.00</ele>
	<time>2025-07-29T10:43:30.000Z</time>
</trkpt>
<trkpt lat="45.8867920" lon="10.3129370">
	<ele>1532.80</ele>
	<time>2025-07-29T10:43:31.000Z</time>
</trkpt>
<trkpt lat="45.8867940" lon="10.3129380">
	<ele>1532.60</ele>
	<time>2025-07-29T10:43:32.000Z</time>
</trkpt>
<trkpt lat="45.8868060" lon="10.3129370">
	<ele>1532.40</ele>
	<time>2025-07-29T10:43:33.000Z</time>
</trkpt>
<trkpt lat="45.8868170" lon="10.3129340">
	<ele>1532.00</ele>
	<time>2025-07-29T10:43:34.000Z</time>
</trkpt>
<trkpt lat="45.8868240" lon="10.3129420">
	<ele>1531.80</ele>
	<time>2025-07-29T10:43:35.000Z</time>
</trkpt>
<trkpt lat="45.8868310" lon="10.3129540">
	<ele>1531.60</ele>
	<time>2025-07-29T10:43:36.000Z</time>
</trkpt>
<trkpt lat="45.8868400" lon="10.3129640">
	<ele>1531.40</ele>
	<time>2025-07-29T10:43:37.000Z</time>
</trkpt>
<trkpt lat="45.8868440" lon="10.3129700">
	<ele>1531.40</ele>
	<time>2025-07-29T10:43:38.000Z</time>
</trkpt>
<trkpt lat="45.8868510" lon="10.3129740">
	<ele>1531.20</ele>
	<time>2025-07-29T10:43:39.000Z</time>
</trkpt>
<trkpt lat="45.8868600" lon="10.3129770">
	<ele>1531.00</ele>
	<time>2025-07-29T10:43:40.000Z</time>
</trkpt>
<trkpt lat="45.8868680" lon="10.3129820">
	<ele>1530.80</ele>
	<time>2025-07-29T10:43:41.000Z</time>
</trkpt>
<trkpt lat="45.8868790" lon="10.3129850">
	<ele>1530.60</ele>
	<time>2025-07-29T10:43:42.000Z</time>
</trkpt>
<trkpt lat="45.8868890" lon="10.3129900">
	<ele>1530.60</ele>
	<time>2025-07-29T10:43:43.000Z</time>
</trkpt>
<trkpt lat="45.8868970" lon="10.3129960">
	<ele>1530.60</ele>
	<time>2025-07-29T10:43:44.000Z</time>
</trkpt>
<trkpt lat="45.8869070" lon="10.3130070">
	<ele>1530.60</ele>
	<time>2025-07-29T10:43:45.000Z</time>
</trkpt>
<trkpt lat="45.8869130" lon="10.3130170">
	<ele>1530.60</ele>
	<time>2025-07-29T10:43:46.000Z</time>
</trkpt>
<trkpt lat="45.8869170" lon="10.3130270">
	<ele>1530.60</ele>
	<time>2025-07-29T10:43:47.000Z</time>
</trkpt>
<trkpt lat="45.8869220" lon="10.3130340">
	<ele>1530.60</ele>
	<time>2025-07-29T10:43:48.000Z</time>
</trkpt>
<trkpt lat="45.8869300" lon="10.3130490">
	<ele>1530.40</ele>
	<time>2025-07-29T10:43:49.000Z</time>
</trkpt>
<trkpt lat="45.8869390" lon="10.3130560">
	<ele>1530.20</ele>
	<time>2025-07-29T10:43:50.000Z</time>
</trkpt>
<trkpt lat="45.8869440" lon="10.3130660">
	<ele>1530.00</ele>
	<time>2025-07-29T10:43:51.000Z</time>
</trkpt>
<trkpt lat="45.8869540" lon="10.3130700">
	<ele>1529.80</ele>
	<time>2025-07-29T10:43:52.000Z</time>
</trkpt>
<trkpt lat="45.8869670" lon="10.3130770">
	<ele>1529.80</ele>
	<time>2025-07-29T10:43:53.000Z</time>
</trkpt>
<trkpt lat="45.8869770" lon="10.3130850">
	<ele>1529.60</ele>
	<time>2025-07-29T10:43:54.000Z</time>
</trkpt>
<trkpt lat="45.8869890" lon="10.3130940">
	<ele>1529.60</ele>
	<time>2025-07-29T10:43:55.000Z</time>
</trkpt>
<trkpt lat="45.8869960" lon="10.3131030">
	<ele>1529.40</ele>
	<time>2025-07-29T10:43:56.000Z</time>
</trkpt>
<trkpt lat="45.8870040" lon="10.3131140">
	<ele>1529.20</ele>
	<time>2025-07-29T10:43:57.000Z</time>
</trkpt>
<trkpt lat="45.8870070" lon="10.3131280">
	<ele>1529.00</ele>
	<time>2025-07-29T10:43:58.000Z</time>
</trkpt>
<trkpt lat="45.8870130" lon="10.3131430">
	<ele>1528.80</ele>
	<time>2025-07-29T10:43:59.000Z</time>
</trkpt>
<trkpt lat="45.8870180" lon="10.3131560">
	<ele>1528.80</ele>
	<time>2025-07-29T10:44:00.000Z</time>
</trkpt>
<trkpt lat="45.8870250" lon="10.3131660">
	<ele>1528.20</ele>
	<time>2025-07-29T10:44:01.000Z</time>
</trkpt>
<trkpt lat="45.8870280" lon="10.3131810">
	<ele>1528.00</ele>
	<time>2025-07-29T10:44:02.000Z</time>
</trkpt>
<trkpt lat="45.8870330" lon="10.3131980">
	<ele>1527.80</ele>
	<time>2025-07-29T10:44:03.000Z</time>
</trkpt>
<trkpt lat="45.8870410" lon="10.3132080">
	<ele>1527.80</ele>
	<time>2025-07-29T10:44:04.000Z</time>
</trkpt>
<trkpt lat="45.8870530" lon="10.3132160">
	<ele>1527.60</ele>
	<time>2025-07-29T10:44:05.000Z</time>
</trkpt>
<trkpt lat="45.8870640" lon="10.3132130">
	<ele>1527.60</ele>
	<time>2025-07-29T10:44:06.000Z</time>
</trkpt>
<trkpt lat="45.8870740" lon="10.3132110">
	<ele>1527.40</ele>
	<time>2025-07-29T10:44:07.000Z</time>
</trkpt>
<trkpt lat="45.8870860" lon="10.3132200">
	<ele>1527.40</ele>
	<time>2025-07-29T10:44:08.000Z</time>
</trkpt>
<trkpt lat="45.8871000" lon="10.3132240">
	<ele>1527.20</ele>
	<time>2025-07-29T10:44:09.000Z</time>
</trkpt>
<trkpt lat="45.8871090" lon="10.3132280">
	<ele>1527.20</ele>
	<time>2025-07-29T10:44:10.000Z</time>
</trkpt>
<trkpt lat="45.8871170" lon="10.3132370">
	<ele>1527.00</ele>
	<time>2025-07-29T10:44:11.000Z</time>
</trkpt>
<trkpt lat="45.8871260" lon="10.3132440">
	<ele>1526.80</ele>
	<time>2025-07-29T10:44:12.000Z</time>
</trkpt>
<trkpt lat="45.8871370" lon="10.3132450">
	<ele>1526.80</ele>
	<time>2025-07-29T10:44:13.000Z</time>
</trkpt>
<trkpt lat="45.8871460" lon="10.3132440">
	<ele>1526.60</ele>
	<time>2025-07-29T10:44:14.000Z</time>
</trkpt>
<trkpt lat="45.8871530" lon="10.3132460">
	<ele>1526.60</ele>
	<time>2025-07-29T10:44:15.000Z</time>
</trkpt>
<trkpt lat="45.8871630" lon="10.3132380">
	<ele>1526.40</ele>
	<time>2025-07-29T10:44:16.000Z</time>
</trkpt>
<trkpt lat="45.8871560" lon="10.3132160">
	<ele>1526.40</ele>
	<time>2025-07-29T10:44:17.000Z</time>
</trkpt>
<trkpt lat="45.8871550" lon="10.3132040">
	<ele>1526.40</ele>
	<time>2025-07-29T10:44:18.000Z</time>
</trkpt>
<trkpt lat="45.8871550" lon="10.3132110">
	<ele>1526.40</ele>
	<time>2025-07-29T10:44:19.000Z</time>
</trkpt>
<trkpt lat="45.8871530" lon="10.3132260">
	<ele>1526.40</ele>
	<time>2025-07-29T10:44:20.000Z</time>
</trkpt>
<trkpt lat="45.8871510" lon="10.3132290">
	<ele>1526.40</ele>
	<time>2025-07-29T10:44:21.000Z</time>
</trkpt>
<trkpt lat="45.8871500" lon="10.3132290">
	<ele>1526.40</ele>
	<time>2025-07-29T10:44:22.000Z</time>
</trkpt>
<trkpt lat="45.8871550" lon="10.3132330">
	<ele>1526.40</ele>
	<time>2025-07-29T10:44:23.000Z</time>
</trkpt>
<trkpt lat="45.8871520" lon="10.3132330">
	<ele>1526.40</ele>
	<time>2025-07-29T10:44:24.000Z</time>
</trkpt>
<trkpt lat="45.8871610" lon="10.3132380">
	<ele>1526.40</ele>
	<time>2025-07-29T10:44:25.000Z</time>
</trkpt>
<trkpt lat="45.8871610" lon="10.3132370">
	<ele>1526.40</ele>
	<time>2025-07-29T10:44:26.000Z</time>
</trkpt>
<trkpt lat="45.8871690" lon="10.3132440">
	<ele>1526.40</ele>
	<time>2025-07-29T10:44:27.000Z</time>
</trkpt>
<trkpt lat="45.8871730" lon="10.3132430">
	<ele>1526.60</ele>
	<time>2025-07-29T10:44:28.000Z</time>
</trkpt>
<trkpt lat="45.8871750" lon="10.3132420">
	<ele>1526.60</ele>
	<time>2025-07-29T10:44:29.000Z</time>
</trkpt>
<trkpt lat="45.8871760" lon="10.3132390">
	<ele>1526.60</ele>
	<time>2025-07-29T10:44:30.000Z</time>
</trkpt>
<trkpt lat="45.8871760" lon="10.3132390">
	<ele>1526.60</ele>
	<time>2025-07-29T10:44:31.000Z</time>
</trkpt>
<trkpt lat="45.8871750" lon="10.3132390">
	<ele>1526.60</ele>
	<time>2025-07-29T10:44:32.000Z</time>
</trkpt>
<trkpt lat="45.8871720" lon="10.3132420">
	<ele>1526.80</ele>
	<time>2025-07-29T10:44:33.000Z</time>
</trkpt>
<trkpt lat="45.8871710" lon="10.3132430">
	<ele>1526.80</ele>
	<time>2025-07-29T10:44:34.000Z</time>
</trkpt>
<trkpt lat="45.8871650" lon="10.3132370">
	<ele>1526.80</ele>
	<time>2025-07-29T10:44:35.000Z</time>
</trkpt>
<trkpt lat="45.8871670" lon="10.3132370">
	<ele>1526.80</ele>
	<time>2025-07-29T10:44:36.000Z</time>
</trkpt>
<trkpt lat="45.8871670" lon="10.3132370">
	<ele>1526.80</ele>
	<time>2025-07-29T10:44:37.000Z</time>
</trkpt>
<trkpt lat="45.8871670" lon="10.3132370">
	<ele>1527.00</ele>
	<time>2025-07-29T10:44:38.000Z</time>
</trkpt>
<trkpt lat="45.8871670" lon="10.3132370">
	<ele>1527.00</ele>
	<time>2025-07-29T10:44:39.000Z</time>
</trkpt>
<trkpt lat="45.8871670" lon="10.3132370">
	<ele>1527.00</ele>
	<time>2025-07-29T10:44:40.000Z</time>
</trkpt>
<trkpt lat="45.8871670" lon="10.3132370">
	<ele>1527.00</ele>
	<time>2025-07-29T10:44:41.000Z</time>
</trkpt>
<trkpt lat="45.8871670" lon="10.3132370">
	<ele>1526.80</ele>
	<time>2025-07-29T10:44:42.000Z</time>
</trkpt>
<trkpt lat="45.8871670" lon="10.3132370">
	<ele>1526.80</ele>
	<time>2025-07-29T10:44:43.000Z</time>
</trkpt>
<trkpt lat="45.8871670" lon="10.3132370">
	<ele>1526.80</ele>
	<time>2025-07-29T10:44:44.000Z</time>
</trkpt>
<trkpt lat="45.8871690" lon="10.3132370">
	<ele>1526.80</ele>
	<time>2025-07-29T10:44:45.000Z</time>
</trkpt>
<trkpt lat="45.8871700" lon="10.3132370">
	<ele>1526.80</ele>
	<time>2025-07-29T10:44:46.000Z</time>
</trkpt>
<trkpt lat="45.8871710" lon="10.3132370">
	<ele>1526.80</ele>
	<time>2025-07-29T10:44:47.000Z</time>
</trkpt>
<trkpt lat="45.8871720" lon="10.3132370">
	<ele>1526.80</ele>
	<time>2025-07-29T10:44:48.000Z</time>
</trkpt>
<trkpt lat="45.8871730" lon="10.3132370">
	<ele>1526.80</ele>
	<time>2025-07-29T10:44:49.000Z</time>
</trkpt>
<trkpt lat="45.8871750" lon="10.3132370">
	<ele>1526.80</ele>
	<time>2025-07-29T10:44:50.000Z</time>
</trkpt>
<trkpt lat="45.8871750" lon="10.3132370">
	<ele>1526.80</ele>
	<time>2025-07-29T10:44:51.000Z</time>
</trkpt>
<trkpt lat="45.8871750" lon="10.3132370">
	<ele>1526.80</ele>
	<time>2025-07-29T10:44:52.000Z</time>
</trkpt>
<trkpt lat="45.8871750" lon="10.3132370">
	<ele>1526.80</ele>
	<time>2025-07-29T10:44:53.000Z</time>
</trkpt>
<trkpt lat="45.8871760" lon="10.3132370">
	<ele>1526.80</ele>
	<time>2025-07-29T10:44:54.000Z</time>
</trkpt>
<trkpt lat="45.8871760" lon="10.3132370">
	<ele>1527.00</ele>
	<time>2025-07-29T10:44:55.000Z</time>
</trkpt>
<trkpt lat="45.8871770" lon="10.3132370">
	<ele>1527.00</ele>
	<time>2025-07-29T10:44:56.000Z</time>
</trkpt>
<trkpt lat="45.8871770" lon="10.3132370">
	<ele>1527.20</ele>
	<time>2025-07-29T10:44:57.000Z</time>
</trkpt>
<trkpt lat="45.8871780" lon="10.3132370">
	<ele>1527.20</ele>
	<time>2025-07-29T10:44:58.000Z</time>
</trkpt>
<trkpt lat="45.8871780" lon="10.3132370">
	<ele>1527.00</ele>
	<time>2025-07-29T10:44:59.000Z</time>
</trkpt>
<trkpt lat="45.8871780" lon="10.3132340">
	<ele>1526.60</ele>
	<time>2025-07-29T10:45:00.000Z</time>
</trkpt>
<trkpt lat="45.8871810" lon="10.3132330">
	<ele>1526.60</ele>
	<time>2025-07-29T10:45:01.000Z</time>
</trkpt>
<trkpt lat="45.8871850" lon="10.3132500">
	<ele>1526.40</ele>
	<time>2025-07-29T10:45:02.000Z</time>
</trkpt>
<trkpt lat="45.8871910" lon="10.3132630">
	<ele>1526.40</ele>
	<time>2025-07-29T10:45:03.000Z</time>
</trkpt>
<trkpt lat="45.8871950" lon="10.3132770">
	<ele>1526.20</ele>
	<time>2025-07-29T10:45:04.000Z</time>
</trkpt>
<trkpt lat="45.8871970" lon="10.3132790">
	<ele>1526.20</ele>
	<time>2025-07-29T10:45:05.000Z</time>
</trkpt>
<trkpt lat="45.8871990" lon="10.3132790">
	<ele>1526.20</ele>
	<time>2025-07-29T10:45:06.000Z</time>
</trkpt>
<trkpt lat="45.8872010" lon="10.3132770">
	<ele>1526.20</ele>
	<time>2025-07-29T10:45:07.000Z</time>
</trkpt>
<trkpt lat="45.8872030" lon="10.3132730">
	<ele>1526.20</ele>
	<time>2025-07-29T10:45:08.000Z</time>
</trkpt>
<trkpt lat="45.8872050" lon="10.3132710">
	<ele>1526.20</ele>
	<time>2025-07-29T10:45:09.000Z</time>
</trkpt>
<trkpt lat="45.8872090" lon="10.3132680">
	<ele>1526.20</ele>
	<time>2025-07-29T10:45:10.000Z</time>
</trkpt>
<trkpt lat="45.8872080" lon="10.3132660">
	<ele>1526.20</ele>
	<time>2025-07-29T10:45:11.000Z</time>
</trkpt>
<trkpt lat="45.8872080" lon="10.3132680">
	<ele>1526.20</ele>
	<time>2025-07-29T10:45:12.000Z</time>
</trkpt>
<trkpt lat="45.8872090" lon="10.3132700">
	<ele>1526.20</ele>
	<time>2025-07-29T10:45:13.000Z</time>
</trkpt>
<trkpt lat="45.8872090" lon="10.3132720">
	<ele>1526.20</ele>
	<time>2025-07-29T10:45:14.000Z</time>
</trkpt>
<trkpt lat="45.8872080" lon="10.3132650">
	<ele>1526.20</ele>
	<time>2025-07-29T10:45:15.000Z</time>
</trkpt>
<trkpt lat="45.8872100" lon="10.3132630">
	<ele>1526.20</ele>
	<time>2025-07-29T10:45:16.000Z</time>
</trkpt>
<trkpt lat="45.8872180" lon="10.3132530">
	<ele>1526.20</ele>
	<time>2025-07-29T10:45:17.000Z</time>
</trkpt>
<trkpt lat="45.8872180" lon="10.3132530">
	<ele>1526.20</ele>
	<time>2025-07-29T10:45:18.000Z</time>
</trkpt>
<trkpt lat="45.8872170" lon="10.3132540">
	<ele>1526.20</ele>
	<time>2025-07-29T10:45:19.000Z</time>
</trkpt>
<trkpt lat="45.8872170" lon="10.3132540">
	<ele>1526.20</ele>
	<time>2025-07-29T10:45:20.000Z</time>
</trkpt>
<trkpt lat="45.8872170" lon="10.3132540">
	<ele>1526.20</ele>
	<time>2025-07-29T10:45:21.000Z</time>
</trkpt>
<trkpt lat="45.8872170" lon="10.3132540">
	<ele>1526.40</ele>
	<time>2025-07-29T10:45:22.000Z</time>
</trkpt>
<trkpt lat="45.8872170" lon="10.3132540">
	<ele>1526.40</ele>
	<time>2025-07-29T10:45:23.000Z</time>
</trkpt>
<trkpt lat="45.8872170" lon="10.3132540">
	<ele>1526.40</ele>
	<time>2025-07-29T10:45:24.000Z</time>
</trkpt>
<trkpt lat="45.8872170" lon="10.3132540">
	<ele>1526.40</ele>
	<time>2025-07-29T10:45:25.000Z</time>
</trkpt>
<trkpt lat="45.8872170" lon="10.3132540">
	<ele>1526.40</ele>
	<time>2025-07-29T10:45:26.000Z</time>
</trkpt>
<trkpt lat="45.8872170" lon="10.3132540">
	<ele>1526.40</ele>
	<time>2025-07-29T10:45:27.000Z</time>
</trkpt>
<trkpt lat="45.8872170" lon="10.3132540">
	<ele>1526.40</ele>
	<time>2025-07-29T10:45:28.000Z</time>
</trkpt>
<trkpt lat="45.8872170" lon="10.3132540">
	<ele>1526.40</ele>
	<time>2025-07-29T10:45:29.000Z</time>
</trkpt>
<trkpt lat="45.8872170" lon="10.3132540">
	<ele>1526.20</ele>
	<time>2025-07-29T10:45:30.000Z</time>
</trkpt>
<trkpt lat="45.8872170" lon="10.3132540">
	<ele>1526.20</ele>
	<time>2025-07-29T10:45:31.000Z</time>
</trkpt>
<trkpt lat="45.8872170" lon="10.3132540">
	<ele>1526.20</ele>
	<time>2025-07-29T10:45:32.000Z</time>
</trkpt>
<trkpt lat="45.8872170" lon="10.3132540">
	<ele>1526.20</ele>
	<time>2025-07-29T10:45:33.000Z</time>
</trkpt>
<trkpt lat="45.8872170" lon="10.3132540">
	<ele>1526.20</ele>
	<time>2025-07-29T10:45:34.000Z</time>
</trkpt>
<trkpt lat="45.8872180" lon="10.3132540">
	<ele>1526.20</ele>
	<time>2025-07-29T10:45:35.000Z</time>
</trkpt>
<trkpt lat="45.8872180" lon="10.3132540">
	<ele>1526.20</ele>
	<time>2025-07-29T10:45:36.000Z</time>
</trkpt>
<trkpt lat="45.8872180" lon="10.3132530">
	<ele>1526.20</ele>
	<time>2025-07-29T10:45:37.000Z</time>
</trkpt>
<trkpt lat="45.8872180" lon="10.3132530">
	<ele>1526.20</ele>
	<time>2025-07-29T10:45:38.000Z</time>
</trkpt>
<trkpt lat="45.8872180" lon="10.3132520">
	<ele>1526.00</ele>
	<time>2025-07-29T10:45:39.000Z</time>
</trkpt>
<trkpt lat="45.8872190" lon="10.3132520">
	<ele>1526.00</ele>
	<time>2025-07-29T10:45:40.000Z</time>
</trkpt>
<trkpt lat="45.8872200" lon="10.3132510">
	<ele>1526.00</ele>
	<time>2025-07-29T10:45:41.000Z</time>
</trkpt>
<trkpt lat="45.8872240" lon="10.3132480">
	<ele>1526.00</ele>
	<time>2025-07-29T10:45:42.000Z</time>
</trkpt>
<trkpt lat="45.8872250" lon="10.3132460">
	<ele>1526.00</ele>
	<time>2025-07-29T10:45:43.000Z</time>
</trkpt>
<trkpt lat="45.8872260" lon="10.3132460">
	<ele>1526.00</ele>
	<time>2025-07-29T10:45:44.000Z</time>
</trkpt>
<trkpt lat="45.8872280" lon="10.3132440">
	<ele>1526.00</ele>
	<time>2025-07-29T10:45:45.000Z</time>
</trkpt>
<trkpt lat="45.8872290" lon="10.3132420">
	<ele>1526.20</ele>
	<time>2025-07-29T10:45:46.000Z</time>
</trkpt>
<trkpt lat="45.8872320" lon="10.3132420">
	<ele>1526.20</ele>
	<time>2025-07-29T10:45:47.000Z</time>
</trkpt>
<trkpt lat="45.8872340" lon="10.3132410">
	<ele>1526.20</ele>
	<time>2025-07-29T10:45:48.000Z</time>
</trkpt>
<trkpt lat="45.8872360" lon="10.3132400">
	<ele>1526.20</ele>
	<time>2025-07-29T10:45:49.000Z</time>
</trkpt>
<trkpt lat="45.8872370" lon="10.3132370">
	<ele>1526.20</ele>
	<time>2025-07-29T10:45:50.000Z</time>
</trkpt>
<trkpt lat="45.8872390" lon="10.3132330">
	<ele>1526.20</ele>
	<time>2025-07-29T10:45:51.000Z</time>
</trkpt>
<trkpt lat="45.8872400" lon="10.3132320">
	<ele>1526.00</ele>
	<time>2025-07-29T10:45:52.000Z</time>
</trkpt>
<trkpt lat="45.8872400" lon="10.3132310">
	<ele>1526.00</ele>
	<time>2025-07-29T10:45:53.000Z</time>
</trkpt>
<trkpt lat="45.8872400" lon="10.3132310">
	<ele>1526.00</ele>
	<time>2025-07-29T10:45:54.000Z</time>
</trkpt>
<trkpt lat="45.8872400" lon="10.3132310">
	<ele>1526.00</ele>
	<time>2025-07-29T10:45:55.000Z</time>
</trkpt>
<trkpt lat="45.8872420" lon="10.3132310">
	<ele>1526.00</ele>
	<time>2025-07-29T10:45:56.000Z</time>
</trkpt>
<trkpt lat="45.8872420" lon="10.3132310">
	<ele>1526.00</ele>
	<time>2025-07-29T10:45:57.000Z</time>
</trkpt>
<trkpt lat="45.8872400" lon="10.3132340">
	<ele>1526.00</ele>
	<time>2025-07-29T10:45:58.000Z</time>
</trkpt>
<trkpt lat="45.8872340" lon="10.3132430">
	<ele>1526.00</ele>
	<time>2025-07-29T10:45:59.000Z</time>
</trkpt>
<trkpt lat="45.8872350" lon="10.3132480">
	<ele>1526.00</ele>
	<time>2025-07-29T10:46:00.000Z</time>
</trkpt>
<trkpt lat="45.8872390" lon="10.3132430">
	<ele>1526.00</ele>
	<time>2025-07-29T10:46:01.000Z</time>
</trkpt>
<trkpt lat="45.8872390" lon="10.3132370">
	<ele>1526.00</ele>
	<time>2025-07-29T10:46:02.000Z</time>
</trkpt>
<trkpt lat="45.8872370" lon="10.3132320">
	<ele>1526.00</ele>
	<time>2025-07-29T10:46:03.000Z</time>
</trkpt>
<trkpt lat="45.8872350" lon="10.3132310">
	<ele>1526.00</ele>
	<time>2025-07-29T10:46:04.000Z</time>
</trkpt>
<trkpt lat="45.8872360" lon="10.3132330">
	<ele>1526.00</ele>
	<time>2025-07-29T10:46:05.000Z</time>
</trkpt>
<trkpt lat="45.8872390" lon="10.3132400">
	<ele>1526.00</ele>
	<time>2025-07-29T10:46:06.000Z</time>
</trkpt>
<trkpt lat="45.8872400" lon="10.3132450">
	<ele>1526.00</ele>
	<time>2025-07-29T10:46:07.000Z</time>
</trkpt>
<trkpt lat="45.8872420" lon="10.3132540">
	<ele>1526.00</ele>
	<time>2025-07-29T10:46:08.000Z</time>
</trkpt>
<trkpt lat="45.8872430" lon="10.3132630">
	<ele>1526.20</ele>
	<time>2025-07-29T10:46:09.000Z</time>
</trkpt>
<trkpt lat="45.8872460" lon="10.3132690">
	<ele>1526.20</ele>
	<time>2025-07-29T10:46:10.000Z</time>
</trkpt>
<trkpt lat="45.8872470" lon="10.3132730">
	<ele>1526.20</ele>
	<time>2025-07-29T10:46:11.000Z</time>
</trkpt>
<trkpt lat="45.8872480" lon="10.3132770">
	<ele>1526.20</ele>
	<time>2025-07-29T10:46:12.000Z</time>
</trkpt>
<trkpt lat="45.8872490" lon="10.3132730">
	<ele>1526.20</ele>
	<time>2025-07-29T10:46:13.000Z</time>
</trkpt>
<trkpt lat="45.8872500" lon="10.3132710">
	<ele>1526.20</ele>
	<time>2025-07-29T10:46:14.000Z</time>
</trkpt>
<trkpt lat="45.8872510" lon="10.3132700">
	<ele>1526.20</ele>
	<time>2025-07-29T10:46:15.000Z</time>
</trkpt>
<trkpt lat="45.8872530" lon="10.3132700">
	<ele>1526.40</ele>
	<time>2025-07-29T10:46:16.000Z</time>
</trkpt>
<trkpt lat="45.8872570" lon="10.3132680">
	<ele>1526.40</ele>
	<time>2025-07-29T10:46:17.000Z</time>
</trkpt>
<trkpt lat="45.8872600" lon="10.3132680">
	<ele>1526.40</ele>
	<time>2025-07-29T10:46:18.000Z</time>
</trkpt>
<trkpt lat="45.8872630" lon="10.3132670">
	<ele>1526.60</ele>
	<time>2025-07-29T10:46:19.000Z</time>
</trkpt>
<trkpt lat="45.8872750" lon="10.3132740">
	<ele>1526.80</ele>
	<time>2025-07-29T10:46:20.000Z</time>
</trkpt>
<trkpt lat="45.8872820" lon="10.3132800">
	<ele>1527.00</ele>
	<time>2025-07-29T10:46:21.000Z</time>
</trkpt>
<trkpt lat="45.8872890" lon="10.3132880">
	<ele>1527.00</ele>
	<time>2025-07-29T10:46:22.000Z</time>
</trkpt>
<trkpt lat="45.8872910" lon="10.3132890">
	<ele>1527.00</ele>
	<time>2025-07-29T10:46:23.000Z</time>
</trkpt>
<trkpt lat="45.8872940" lon="10.3132920">
	<ele>1527.20</ele>
	<time>2025-07-29T10:46:24.000Z</time>
</trkpt>
<trkpt lat="45.8872920" lon="10.3132910">
	<ele>1527.20</ele>
	<time>2025-07-29T10:46:25.000Z</time>
</trkpt>
<trkpt lat="45.8872930" lon="10.3132860">
	<ele>1527.20</ele>
	<time>2025-07-29T10:46:26.000Z</time>
</trkpt>
<trkpt lat="45.8872950" lon="10.3132800">
	<ele>1527.00</ele>
	<time>2025-07-29T10:46:27.000Z</time>
</trkpt>
<trkpt lat="45.8872970" lon="10.3132790">
	<ele>1527.00</ele>
	<time>2025-07-29T10:46:28.000Z</time>
</trkpt>
<trkpt lat="45.8872980" lon="10.3132800">
	<ele>1527.00</ele>
	<time>2025-07-29T10:46:29.000Z</time>
</trkpt>
<trkpt lat="45.8872970" lon="10.3132810">
	<ele>1527.00</ele>
	<time>2025-07-29T10:46:30.000Z</time>
</trkpt>
<trkpt lat="45.8872950" lon="10.3132790">
	<ele>1527.00</ele>
	<time>2025-07-29T10:46:31.000Z</time>
</trkpt>
<trkpt lat="45.8872990" lon="10.3132790">
	<ele>1527.00</ele>
	<time>2025-07-29T10:46:32.000Z</time>
</trkpt>
<trkpt lat="45.8873040" lon="10.3132750">
	<ele>1527.00</ele>
	<time>2025-07-29T10:46:33.000Z</time>
</trkpt>
<trkpt lat="45.8873080" lon="10.3132730">
	<ele>1527.20</ele>
	<time>2025-07-29T10:46:34.000Z</time>
</trkpt>
<trkpt lat="45.8873130" lon="10.3132650">
	<ele>1527.40</ele>
	<time>2025-07-29T10:46:35.000Z</time>
</trkpt>
<trkpt lat="45.8873180" lon="10.3132650">
	<ele>1527.60</ele>
	<time>2025-07-29T10:46:36.000Z</time>
</trkpt>
<trkpt lat="45.8873210" lon="10.3132700">
	<ele>1527.80</ele>
	<time>2025-07-29T10:46:37.000Z</time>
</trkpt>
<trkpt lat="45.8873240" lon="10.3132720">
	<ele>1527.80</ele>
	<time>2025-07-29T10:46:38.000Z</time>
</trkpt>
<trkpt lat="45.8873290" lon="10.3132840">
	<ele>1528.00</ele>
	<time>2025-07-29T10:46:39.000Z</time>
</trkpt>
<trkpt lat="45.8873350" lon="10.3132910">
	<ele>1528.20</ele>
	<time>2025-07-29T10:46:40.000Z</time>
</trkpt>
<trkpt lat="45.8873370" lon="10.3132920">
	<ele>1528.60</ele>
	<time>2025-07-29T10:46:41.000Z</time>
</trkpt>
<trkpt lat="45.8873430" lon="10.3132940">
	<ele>1528.80</ele>
	<time>2025-07-29T10:46:42.000Z</time>
</trkpt>
<trkpt lat="45.8873540" lon="10.3133010">
	<ele>1529.20</ele>
	<time>2025-07-29T10:46:43.000Z</time>
</trkpt>
<trkpt lat="45.8873610" lon="10.3133050">
	<ele>1529.40</ele>
	<time>2025-07-29T10:46:44.000Z</time>
</trkpt>
<trkpt lat="45.8873740" lon="10.3133090">
	<ele>1529.40</ele>
	<time>2025-07-29T10:46:45.000Z</time>
</trkpt>
<trkpt lat="45.8873790" lon="10.3133040">
	<ele>1529.60</ele>
	<time>2025-07-29T10:46:46.000Z</time>
</trkpt>
<trkpt lat="45.8873860" lon="10.3133130">
	<ele>1529.80</ele>
	<time>2025-07-29T10:46:47.000Z</time>
</trkpt>
<trkpt lat="45.8873930" lon="10.3133220">
	<ele>1529.80</ele>
	<time>2025-07-29T10:46:48.000Z</time>
</trkpt>
<trkpt lat="45.8873950" lon="10.3133220">
	<ele>1529.80</ele>
	<time>2025-07-29T10:46:49.000Z</time>
</trkpt>
<trkpt lat="45.8874000" lon="10.3133240">
	<ele>1529.80</ele>
	<time>2025-07-29T10:46:50.000Z</time>
</trkpt>
<trkpt lat="45.8874130" lon="10.3133270">
	<ele>1529.60</ele>
	<time>2025-07-29T10:46:51.000Z</time>
</trkpt>
<trkpt lat="45.8874260" lon="10.3133260">
	<ele>1529.40</ele>
	<time>2025-07-29T10:46:52.000Z</time>
</trkpt>
<trkpt lat="45.8874290" lon="10.3133260">
	<ele>1529.40</ele>
	<time>2025-07-29T10:46:53.000Z</time>
</trkpt>
<trkpt lat="45.8874310" lon="10.3133280">
	<ele>1529.20</ele>
	<time>2025-07-29T10:46:54.000Z</time>
</trkpt>
<trkpt lat="45.8874380" lon="10.3133310">
	<ele>1528.80</ele>
	<time>2025-07-29T10:46:55.000Z</time>
</trkpt>
<trkpt lat="45.8874440" lon="10.3133390">
	<ele>1528.80</ele>
	<time>2025-07-29T10:46:56.000Z</time>
</trkpt>
<trkpt lat="45.8874450" lon="10.3133500">
	<ele>1528.60</ele>
	<time>2025-07-29T10:46:57.000Z</time>
</trkpt>
<trkpt lat="45.8874440" lon="10.3133600">
	<ele>1528.60</ele>
	<time>2025-07-29T10:46:58.000Z</time>
</trkpt>
<trkpt lat="45.8874500" lon="10.3133670">
	<ele>1528.60</ele>
	<time>2025-07-29T10:46:59.000Z</time>
</trkpt>
<trkpt lat="45.8874510" lon="10.3133770">
	<ele>1528.80</ele>
	<time>2025-07-29T10:47:00.000Z</time>
</trkpt>
<trkpt lat="45.8874540" lon="10.3133890">
	<ele>1529.20</ele>
	<time>2025-07-29T10:47:01.000Z</time>
</trkpt>
<trkpt lat="45.8874540" lon="10.3134000">
	<ele>1529.40</ele>
	<time>2025-07-29T10:47:02.000Z</time>
</trkpt>
<trkpt lat="45.8874580" lon="10.3134120">
	<ele>1529.40</ele>
	<time>2025-07-29T10:47:03.000Z</time>
</trkpt>
<trkpt lat="45.8874620" lon="10.3134220">
	<ele>1529.60</ele>
	<time>2025-07-29T10:47:04.000Z</time>
</trkpt>
<trkpt lat="45.8874670" lon="10.3134340">
	<ele>1529.60</ele>
	<time>2025-07-29T10:47:05.000Z</time>
</trkpt>
<trkpt lat="45.8874700" lon="10.3134450">
	<ele>1529.80</ele>
	<time>2025-07-29T10:47:06.000Z</time>
</trkpt>
<trkpt lat="45.8874740" lon="10.3134610">
	<ele>1529.80</ele>
	<time>2025-07-29T10:47:07.000Z</time>
</trkpt>
<trkpt lat="45.8874820" lon="10.3134690">
	<ele>1529.80</ele>
	<time>2025-07-29T10:47:08.000Z</time>
</trkpt>
<trkpt lat="45.8874930" lon="10.3134800">
	<ele>1530.00</ele>
	<time>2025-07-29T10:47:09.000Z</time>
</trkpt>
<trkpt lat="45.8875080" lon="10.3134790">
	<ele>1530.20</ele>
	<time>2025-07-29T10:47:10.000Z</time>
</trkpt>
<trkpt lat="45.8875240" lon="10.3134820">
	<ele>1530.20</ele>
	<time>2025-07-29T10:47:11.000Z</time>
</trkpt>
<trkpt lat="45.8875380" lon="10.3134900">
	<ele>1530.40</ele>
	<time>2025-07-29T10:47:12.000Z</time>
</trkpt>
<trkpt lat="45.8875520" lon="10.3134980">
	<ele>1530.60</ele>
	<time>2025-07-29T10:47:13.000Z</time>
</trkpt>
<trkpt lat="45.8875690" lon="10.3135070">
	<ele>1530.80</ele>
	<time>2025-07-29T10:47:14.000Z</time>
</trkpt>
<trkpt lat="45.8875780" lon="10.3135140">
	<ele>1530.80</ele>
	<time>2025-07-29T10:47:15.000Z</time>
</trkpt>
<trkpt lat="45.8875890" lon="10.3135180">
	<ele>1531.00</ele>
	<time>2025-07-29T10:47:16.000Z</time>
</trkpt>
<trkpt lat="45.8876010" lon="10.3135240">
	<ele>1531.00</ele>
	<time>2025-07-29T10:47:17.000Z</time>
</trkpt>
<trkpt lat="45.8876150" lon="10.3135220">
	<ele>1531.00</ele>
	<time>2025-07-29T10:47:18.000Z</time>
</trkpt>
<trkpt lat="45.8876280" lon="10.3135160">
	<ele>1531.00</ele>
	<time>2025-07-29T10:47:19.000Z</time>
</trkpt>
<trkpt lat="45.8876410" lon="10.3135100">
	<ele>1531.20</ele>
	<time>2025-07-29T10:47:20.000Z</time>
</trkpt>
<trkpt lat="45.8876450" lon="10.3135200">
	<ele>1531.20</ele>
	<time>2025-07-29T10:47:21.000Z</time>
</trkpt>
<trkpt lat="45.8876520" lon="10.3135250">
	<ele>1531.20</ele>
	<time>2025-07-29T10:47:22.000Z</time>
</trkpt>
<trkpt lat="45.8876580" lon="10.3135230">
	<ele>1531.40</ele>
	<time>2025-07-29T10:47:23.000Z</time>
</trkpt>
<trkpt lat="45.8876720" lon="10.3135200">
	<ele>1531.40</ele>
	<time>2025-07-29T10:47:24.000Z</time>
</trkpt>
<trkpt lat="45.8876870" lon="10.3135200">
	<ele>1531.60</ele>
	<time>2025-07-29T10:47:25.000Z</time>
</trkpt>
<trkpt lat="45.8877030" lon="10.3135330">
	<ele>1531.80</ele>
	<time>2025-07-29T10:47:26.000Z</time>
</trkpt>
<trkpt lat="45.8877190" lon="10.3135290">
	<ele>1531.80</ele>
	<time>2025-07-29T10:47:27.000Z</time>
</trkpt>
<trkpt lat="45.8877340" lon="10.3135280">
	<ele>1532.00</ele>
	<time>2025-07-29T10:47:28.000Z</time>
</trkpt>
<trkpt lat="45.8877530" lon="10.3135330">
	<ele>1532.00</ele>
	<time>2025-07-29T10:47:29.000Z</time>
</trkpt>
<trkpt lat="45.8877620" lon="10.3135330">
	<ele>1532.00</ele>
	<time>2025-07-29T10:47:30.000Z</time>
</trkpt>
<trkpt lat="45.8877740" lon="10.3135410">
	<ele>1532.00</ele>
	<time>2025-07-29T10:47:31.000Z</time>
</trkpt>
<trkpt lat="45.8877860" lon="10.3135520">
	<ele>1532.00</ele>
	<time>2025-07-29T10:47:32.000Z</time>
</trkpt>
<trkpt lat="45.8877970" lon="10.3135520">
	<ele>1532.00</ele>
	<time>2025-07-29T10:47:33.000Z</time>
</trkpt>
<trkpt lat="45.8878090" lon="10.3135410">
	<ele>1532.00</ele>
	<time>2025-07-29T10:47:34.000Z</time>
</trkpt>
<trkpt lat="45.8878250" lon="10.3135330">
	<ele>1531.80</ele>
	<time>2025-07-29T10:47:35.000Z</time>
</trkpt>
<trkpt lat="45.8878390" lon="10.3135290">
	<ele>1531.80</ele>
	<time>2025-07-29T10:47:36.000Z</time>
</trkpt>
<trkpt lat="45.8878540" lon="10.3135240">
	<ele>1531.80</ele>
	<time>2025-07-29T10:47:37.000Z</time>
</trkpt>
<trkpt lat="45.8878720" lon="10.3135160">
	<ele>1531.80</ele>
	<time>2025-07-29T10:47:38.000Z</time>
</trkpt>
<trkpt lat="45.8878880" lon="10.3135030">
	<ele>1531.80</ele>
	<time>2025-07-29T10:47:39.000Z</time>
</trkpt>
<trkpt lat="45.8879080" lon="10.3134890">
	<ele>1532.00</ele>
	<time>2025-07-29T10:47:40.000Z</time>
</trkpt>
<trkpt lat="45.8879210" lon="10.3134880">
	<ele>1532.20</ele>
	<time>2025-07-29T10:47:41.000Z</time>
</trkpt>
<trkpt lat="45.8879270" lon="10.3134840">
	<ele>1532.60</ele>
	<time>2025-07-29T10:47:42.000Z</time>
</trkpt>
<trkpt lat="45.8879280" lon="10.3134880">
	<ele>1532.60</ele>
	<time>2025-07-29T10:47:43.000Z</time>
</trkpt>
<trkpt lat="45.8879310" lon="10.3134890">
	<ele>1533.00</ele>
	<time>2025-07-29T10:47:44.000Z</time>
</trkpt>
<trkpt lat="45.8879370" lon="10.3134830">
	<ele>1533.20</ele>
	<time>2025-07-29T10:47:45.000Z</time>
</trkpt>
<trkpt lat="45.8879430" lon="10.3134760">
	<ele>1533.40</ele>
	<time>2025-07-29T10:47:46.000Z</time>
</trkpt>
<trkpt lat="45.8879480" lon="10.3134790">
	<ele>1533.60</ele>
	<time>2025-07-29T10:47:47.000Z</time>
</trkpt>
<trkpt lat="45.8879570" lon="10.3134750">
	<ele>1533.80</ele>
	<time>2025-07-29T10:47:48.000Z</time>
</trkpt>
<trkpt lat="45.8879650" lon="10.3134750">
	<ele>1534.00</ele>
	<time>2025-07-29T10:47:49.000Z</time>
</trkpt>
<trkpt lat="45.8879720" lon="10.3134750">
	<ele>1534.40</ele>
	<time>2025-07-29T10:47:50.000Z</time>
</trkpt>
<trkpt lat="45.8879820" lon="10.3134800">
	<ele>1534.60</ele>
	<time>2025-07-29T10:47:51.000Z</time>
</trkpt>
<trkpt lat="45.8879880" lon="10.3134830">
	<ele>1534.60</ele>
	<time>2025-07-29T10:47:52.000Z</time>
</trkpt>
<trkpt lat="45.8879970" lon="10.3134800">
	<ele>1534.80</ele>
	<time>2025-07-29T10:47:53.000Z</time>
</trkpt>
<trkpt lat="45.8880100" lon="10.3134790">
	<ele>1535.00</ele>
	<time>2025-07-29T10:47:54.000Z</time>
</trkpt>
<trkpt lat="45.8880200" lon="10.3134790">
	<ele>1535.20</ele>
	<time>2025-07-29T10:47:55.000Z</time>
</trkpt>
<trkpt lat="45.8880300" lon="10.3134810">
	<ele>1535.20</ele>
	<time>2025-07-29T10:47:56.000Z</time>
</trkpt>
<trkpt lat="45.8880310" lon="10.3134880">
	<ele>1535.20</ele>
	<time>2025-07-29T10:47:57.000Z</time>
</trkpt>
<trkpt lat="45.8880320" lon="10.3134900">
	<ele>1535.20</ele>
	<time>2025-07-29T10:47:58.000Z</time>
</trkpt>
<trkpt lat="45.8880390" lon="10.3134980">
	<ele>1535.20</ele>
	<time>2025-07-29T10:47:59.000Z</time>
</trkpt>
<trkpt lat="45.8880380" lon="10.3134980">
	<ele>1535.20</ele>
	<time>2025-07-29T10:48:00.000Z</time>
</trkpt>
<trkpt lat="45.8880400" lon="10.3134970">
	<ele>1535.40</ele>
	<time>2025-07-29T10:48:01.000Z</time>
</trkpt>
<trkpt lat="45.8880410" lon="10.3134960">
	<ele>1535.40</ele>
	<time>2025-07-29T10:48:02.000Z</time>
</trkpt>
<trkpt lat="45.8880410" lon="10.3134950">
	<ele>1535.40</ele>
	<time>2025-07-29T10:48:03.000Z</time>
</trkpt>
<trkpt lat="45.8880400" lon="10.3134960">
	<ele>1535.40</ele>
	<time>2025-07-29T10:48:04.000Z</time>
</trkpt>
<trkpt lat="45.8880420" lon="10.3134950">
	<ele>1535.40</ele>
	<time>2025-07-29T10:48:05.000Z</time>
</trkpt>
<trkpt lat="45.8880440" lon="10.3134970">
	<ele>1535.40</ele>
	<time>2025-07-29T10:48:06.000Z</time>
</trkpt>
<trkpt lat="45.8880520" lon="10.3135050">
	<ele>1535.40</ele>
	<time>2025-07-29T10:48:07.000Z</time>
</trkpt>
<trkpt lat="45.8880550" lon="10.3135100">
	<ele>1535.40</ele>
	<time>2025-07-29T10:48:08.000Z</time>
</trkpt>
<trkpt lat="45.8880540" lon="10.3135110">
	<ele>1535.40</ele>
	<time>2025-07-29T10:48:09.000Z</time>
</trkpt>
<trkpt lat="45.8880560" lon="10.3135090">
	<ele>1535.40</ele>
	<time>2025-07-29T10:48:10.000Z</time>
</trkpt>
<trkpt lat="45.8880540" lon="10.3135080">
	<ele>1535.40</ele>
	<time>2025-07-29T10:48:11.000Z</time>
</trkpt>
<trkpt lat="45.8880550" lon="10.3135080">
	<ele>1535.40</ele>
	<time>2025-07-29T10:48:12.000Z</time>
</trkpt>
<trkpt lat="45.8880550" lon="10.3135080">
	<ele>1535.40</ele>
	<time>2025-07-29T10:48:13.000Z</time>
</trkpt>
<trkpt lat="45.8880550" lon="10.3135080">
	<ele>1535.40</ele>
	<time>2025-07-29T10:48:14.000Z</time>
</trkpt>
<trkpt lat="45.8880550" lon="10.3135080">
	<ele>1535.40</ele>
	<time>2025-07-29T10:48:15.000Z</time>
</trkpt>
<trkpt lat="45.8880550" lon="10.3135080">
	<ele>1535.20</ele>
	<time>2025-07-29T10:48:16.000Z</time>
</trkpt>
<trkpt lat="45.8880550" lon="10.3135080">
	<ele>1535.20</ele>
	<time>2025-07-29T10:48:17.000Z</time>
</trkpt>
<trkpt lat="45.8880550" lon="10.3135080">
	<ele>1535.40</ele>
	<time>2025-07-29T10:48:18.000Z</time>
</trkpt>
<trkpt lat="45.8880550" lon="10.3135080">
	<ele>1535.40</ele>
	<time>2025-07-29T10:48:19.000Z</time>
</trkpt>
<trkpt lat="45.8880550" lon="10.3135080">
	<ele>1535.40</ele>
	<time>2025-07-29T10:48:20.000Z</time>
</trkpt>
<trkpt lat="45.8880550" lon="10.3135080">
	<ele>1535.40</ele>
	<time>2025-07-29T10:48:21.000Z</time>
</trkpt>
<trkpt lat="45.8880550" lon="10.3135080">
	<ele>1535.40</ele>
	<time>2025-07-29T10:48:22.000Z</time>
</trkpt>
<trkpt lat="45.8880550" lon="10.3135080">
	<ele>1535.40</ele>
	<time>2025-07-29T10:48:23.000Z</time>
</trkpt>
<trkpt lat="45.8880550" lon="10.3135080">
	<ele>1535.60</ele>
	<time>2025-07-29T10:48:24.000Z</time>
</trkpt>
<trkpt lat="45.8880550" lon="10.3135070">
	<ele>1535.80</ele>
	<time>2025-07-29T10:48:25.000Z</time>
</trkpt>
<trkpt lat="45.8880570" lon="10.3135030">
	<ele>1535.80</ele>
	<time>2025-07-29T10:48:26.000Z</time>
</trkpt>
<trkpt lat="45.8880750" lon="10.3135230">
	<ele>1536.20</ele>
	<time>2025-07-29T10:48:27.000Z</time>
</trkpt>
<trkpt lat="45.8880830" lon="10.3135310">
	<ele>1536.40</ele>
	<time>2025-07-29T10:48:28.000Z</time>
</trkpt>
<trkpt lat="45.8880960" lon="10.3135320">
	<ele>1536.80</ele>
	<time>2025-07-29T10:48:29.000Z</time>
</trkpt>
<trkpt lat="45.8881060" lon="10.3135350">
	<ele>1537.00</ele>
	<time>2025-07-29T10:48:30.000Z</time>
</trkpt>
<trkpt lat="45.8881170" lon="10.3135360">
	<ele>1537.20</ele>
	<time>2025-07-29T10:48:31.000Z</time>
</trkpt>
<trkpt lat="45.8881310" lon="10.3135390">
	<ele>1537.20</ele>
	<time>2025-07-29T10:48:32.000Z</time>
</trkpt>
<trkpt lat="45.8881440" lon="10.3135400">
	<ele>1537.40</ele>
	<time>2025-07-29T10:48:33.000Z</time>
</trkpt>
<trkpt lat="45.8881560" lon="10.3135400">
	<ele>1537.60</ele>
	<time>2025-07-29T10:48:34.000Z</time>
</trkpt>
<trkpt lat="45.8881670" lon="10.3135420">
	<ele>1537.80</ele>
	<time>2025-07-29T10:48:35.000Z</time>
</trkpt>
<trkpt lat="45.8881690" lon="10.3135480">
	<ele>1538.00</ele>
	<time>2025-07-29T10:48:36.000Z</time>
</trkpt>
<trkpt lat="45.8881720" lon="10.3135490">
	<ele>1538.40</ele>
	<time>2025-07-29T10:48:37.000Z</time>
</trkpt>
<trkpt lat="45.8881770" lon="10.3135540">
	<ele>1538.60</ele>
	<time>2025-07-29T10:48:38.000Z</time>
</trkpt>
<trkpt lat="45.8881780" lon="10.3135570">
	<ele>1538.80</ele>
	<time>2025-07-29T10:48:39.000Z</time>
</trkpt>
<trkpt lat="45.8881830" lon="10.3135550">
	<ele>1539.00</ele>
	<time>2025-07-29T10:48:40.000Z</time>
</trkpt>
<trkpt lat="45.8881940" lon="10.3135540">
	<ele>1539.20</ele>
	<time>2025-07-29T10:48:41.000Z</time>
</trkpt>
<trkpt lat="45.8882120" lon="10.3135530">
	<ele>1539.40</ele>
	<time>2025-07-29T10:48:42.000Z</time>
</trkpt>
<trkpt lat="45.8882240" lon="10.3135460">
	<ele>1539.60</ele>
	<time>2025-07-29T10:48:43.000Z</time>
</trkpt>
<trkpt lat="45.8882350" lon="10.3135360">
	<ele>1539.80</ele>
	<time>2025-07-29T10:48:44.000Z</time>
</trkpt>
<trkpt lat="45.8882430" lon="10.3135400">
	<ele>1540.20</ele>
	<time>2025-07-29T10:48:45.000Z</time>
</trkpt>
<trkpt lat="45.8882470" lon="10.3135430">
	<ele>1540.20</ele>
	<time>2025-07-29T10:48:46.000Z</time>
</trkpt>
<trkpt lat="45.8882480" lon="10.3135580">
	<ele>1540.60</ele>
	<time>2025-07-29T10:48:47.000Z</time>
</trkpt>
<trkpt lat="45.8882490" lon="10.3135600">
	<ele>1540.60</ele>
	<time>2025-07-29T10:48:48.000Z</time>
</trkpt>
<trkpt lat="45.8882570" lon="10.3135630">
	<ele>1541.00</ele>
	<time>2025-07-29T10:48:49.000Z</time>
</trkpt>
<trkpt lat="45.8882640" lon="10.3135650">
	<ele>1541.20</ele>
	<time>2025-07-29T10:48:50.000Z</time>
</trkpt>
<trkpt lat="45.8882720" lon="10.3135760">
	<ele>1541.60</ele>
	<time>2025-07-29T10:48:51.000Z</time>
</trkpt>
<trkpt lat="45.8882790" lon="10.3135840">
	<ele>1541.60</ele>
	<time>2025-07-29T10:48:52.000Z</time>
</trkpt>
<trkpt lat="45.8882850" lon="10.3135870">
	<ele>1541.80</ele>
	<time>2025-07-29T10:48:53.000Z</time>
</trkpt>
<trkpt lat="45.8882920" lon="10.3135860">
	<ele>1542.00</ele>
	<time>2025-07-29T10:48:54.000Z</time>
</trkpt>
<trkpt lat="45.8882990" lon="10.3135820">
	<ele>1542.00</ele>
	<time>2025-07-29T10:48:55.000Z</time>
</trkpt>
<trkpt lat="45.8883080" lon="10.3135830">
	<ele>1542.20</ele>
	<time>2025-07-29T10:48:56.000Z</time>
</trkpt>
<trkpt lat="45.8883160" lon="10.3135830">
	<ele>1542.40</ele>
	<time>2025-07-29T10:48:57.000Z</time>
</trkpt>
<trkpt lat="45.8883250" lon="10.3135760">
	<ele>1542.60</ele>
	<time>2025-07-29T10:48:58.000Z</time>
</trkpt>
<trkpt lat="45.8883410" lon="10.3135770">
	<ele>1542.80</ele>
	<time>2025-07-29T10:48:59.000Z</time>
</trkpt>
<trkpt lat="45.8883540" lon="10.3135730">
	<ele>1543.00</ele>
	<time>2025-07-29T10:49:00.000Z</time>
</trkpt>
<trkpt lat="45.8883670" lon="10.3135620">
	<ele>1543.00</ele>
	<time>2025-07-29T10:49:01.000Z</time>
</trkpt>
<trkpt lat="45.8883780" lon="10.3135580">
	<ele>1543.40</ele>
	<time>2025-07-29T10:49:02.000Z</time>
</trkpt>
<trkpt lat="45.8883880" lon="10.3135560">
	<ele>1543.60</ele>
	<time>2025-07-29T10:49:03.000Z</time>
</trkpt>
<trkpt lat="45.8883980" lon="10.3135530">
	<ele>1543.80</ele>
	<time>2025-07-29T10:49:04.000Z</time>
</trkpt>
<trkpt lat="45.8884060" lon="10.3135570">
	<ele>1544.00</ele>
	<time>2025-07-29T10:49:05.000Z</time>
</trkpt>
<trkpt lat="45.8884140" lon="10.3135570">
	<ele>1544.20</ele>
	<time>2025-07-29T10:49:06.000Z</time>
</trkpt>
<trkpt lat="45.8884230" lon="10.3135580">
	<ele>1544.40</ele>
	<time>2025-07-29T10:49:07.000Z</time>
</trkpt>
<trkpt lat="45.8884280" lon="10.3135610">
	<ele>1544.60</ele>
	<time>2025-07-29T10:49:08.000Z</time>
</trkpt>
<trkpt lat="45.8884240" lon="10.3135600">
	<ele>1544.80</ele>
	<time>2025-07-29T10:49:09.000Z</time>
</trkpt>
<trkpt lat="45.8884340" lon="10.3135880">
	<ele>1545.00</ele>
	<time>2025-07-29T10:49:10.000Z</time>
</trkpt>
<trkpt lat="45.8884380" lon="10.3136140">
	<ele>1545.20</ele>
	<time>2025-07-29T10:49:11.000Z</time>
</trkpt>
<trkpt lat="45.8884480" lon="10.3136230">
	<ele>1545.40</ele>
	<time>2025-07-29T10:49:12.000Z</time>
</trkpt>
<trkpt lat="45.8884640" lon="10.3136280">
	<ele>1545.40</ele>
	<time>2025-07-29T10:49:13.000Z</time>
</trkpt>
<trkpt lat="45.8884800" lon="10.3136230">
	<ele>1545.60</ele>
	<time>2025-07-29T10:49:14.000Z</time>
</trkpt>
<trkpt lat="45.8884970" lon="10.3136180">
	<ele>1545.60</ele>
	<time>2025-07-29T10:49:15.000Z</time>
</trkpt>
<trkpt lat="45.8884990" lon="10.3136200">
	<ele>1545.80</ele>
	<time>2025-07-29T10:49:16.000Z</time>
</trkpt>
<trkpt lat="45.8884960" lon="10.3136220">
	<ele>1545.80</ele>
	<time>2025-07-29T10:49:17.000Z</time>
</trkpt>
<trkpt lat="45.8885020" lon="10.3136410">
	<ele>1545.80</ele>
	<time>2025-07-29T10:49:18.000Z</time>
</trkpt>
<trkpt lat="45.8885050" lon="10.3136430">
	<ele>1545.80</ele>
	<time>2025-07-29T10:49:19.000Z</time>
</trkpt>
<trkpt lat="45.8885090" lon="10.3136590">
	<ele>1545.80</ele>
	<time>2025-07-29T10:49:20.000Z</time>
</trkpt>
<trkpt lat="45.8885140" lon="10.3136710">
	<ele>1546.00</ele>
	<time>2025-07-29T10:49:21.000Z</time>
</trkpt>
<trkpt lat="45.8885230" lon="10.3136750">
	<ele>1546.00</ele>
	<time>2025-07-29T10:49:22.000Z</time>
</trkpt>
<trkpt lat="45.8885310" lon="10.3136770">
	<ele>1546.20</ele>
	<time>2025-07-29T10:49:23.000Z</time>
</trkpt>
<trkpt lat="45.8885430" lon="10.3136850">
	<ele>1546.20</ele>
	<time>2025-07-29T10:49:24.000Z</time>
</trkpt>
<trkpt lat="45.8885510" lon="10.3136880">
	<ele>1546.20</ele>
	<time>2025-07-29T10:49:25.000Z</time>
</trkpt>
<trkpt lat="45.8885580" lon="10.3136880">
	<ele>1546.20</ele>
	<time>2025-07-29T10:49:26.000Z</time>
</trkpt>
<trkpt lat="45.8885600" lon="10.3136870">
	<ele>1546.20</ele>
	<time>2025-07-29T10:49:27.000Z</time>
</trkpt>
<trkpt lat="45.8885580" lon="10.3136810">
	<ele>1546.40</ele>
	<time>2025-07-29T10:49:28.000Z</time>
</trkpt>
<trkpt lat="45.8885550" lon="10.3136850">
	<ele>1546.40</ele>
	<time>2025-07-29T10:49:29.000Z</time>
</trkpt>
<trkpt lat="45.8885580" lon="10.3136930">
	<ele>1546.40</ele>
	<time>2025-07-29T10:49:30.000Z</time>
</trkpt>
<trkpt lat="45.8885650" lon="10.3137040">
	<ele>1546.20</ele>
	<time>2025-07-29T10:49:31.000Z</time>
</trkpt>
<trkpt lat="45.8885750" lon="10.3137160">
	<ele>1546.20</ele>
	<time>2025-07-29T10:49:32.000Z</time>
</trkpt>
<trkpt lat="45.8885860" lon="10.3137270">
	<ele>1546.00</ele>
	<time>2025-07-29T10:49:33.000Z</time>
</trkpt>
<trkpt lat="45.8885940" lon="10.3137300">
	<ele>1545.80</ele>
	<time>2025-07-29T10:49:34.000Z</time>
</trkpt>
<trkpt lat="45.8886040" lon="10.3137420">
	<ele>1545.60</ele>
	<time>2025-07-29T10:49:35.000Z</time>
</trkpt>
<trkpt lat="45.8886080" lon="10.3137510">
	<ele>1545.60</ele>
	<time>2025-07-29T10:49:36.000Z</time>
</trkpt>
<trkpt lat="45.8886120" lon="10.3137580">
	<ele>1545.60</ele>
	<time>2025-07-29T10:49:37.000Z</time>
</trkpt>
<trkpt lat="45.8886160" lon="10.3137660">
	<ele>1545.60</ele>
	<time>2025-07-29T10:49:38.000Z</time>
</trkpt>
<trkpt lat="45.8886270" lon="10.3137720">
	<ele>1545.60</ele>
	<time>2025-07-29T10:49:39.000Z</time>
</trkpt>
<trkpt lat="45.8886370" lon="10.3137790">
	<ele>1545.60</ele>
	<time>2025-07-29T10:49:40.000Z</time>
</trkpt>
<trkpt lat="45.8886530" lon="10.3137820">
	<ele>1545.40</ele>
	<time>2025-07-29T10:49:41.000Z</time>
</trkpt>
<trkpt lat="45.8886650" lon="10.3137810">
	<ele>1545.20</ele>
	<time>2025-07-29T10:49:42.000Z</time>
</trkpt>
<trkpt lat="45.8886800" lon="10.3137840">
	<ele>1545.00</ele>
	<time>2025-07-29T10:49:43.000Z</time>
</trkpt>
<trkpt lat="45.8886980" lon="10.3137780">
	<ele>1544.80</ele>
	<time>2025-07-29T10:49:44.000Z</time>
</trkpt>
<trkpt lat="45.8887050" lon="10.3137800">
	<ele>1544.60</ele>
	<time>2025-07-29T10:49:45.000Z</time>
</trkpt>
<trkpt lat="45.8887120" lon="10.3137890">
	<ele>1544.40</ele>
	<time>2025-07-29T10:49:46.000Z</time>
</trkpt>
<trkpt lat="45.8887170" lon="10.3137980">
	<ele>1544.40</ele>
	<time>2025-07-29T10:49:47.000Z</time>
</trkpt>
<trkpt lat="45.8887290" lon="10.3138060">
	<ele>1544.40</ele>
	<time>2025-07-29T10:49:48.000Z</time>
</trkpt>
<trkpt lat="45.8887480" lon="10.3138120">
	<ele>1544.40</ele>
	<time>2025-07-29T10:49:49.000Z</time>
</trkpt>
<trkpt lat="45.8887540" lon="10.3138030">
	<ele>1544.40</ele>
	<time>2025-07-29T10:49:50.000Z</time>
</trkpt>
<trkpt lat="45.8887630" lon="10.3138000">
	<ele>1544.40</ele>
	<time>2025-07-29T10:49:51.000Z</time>
</trkpt>
<trkpt lat="45.8887710" lon="10.3137950">
	<ele>1544.60</ele>
	<time>2025-07-29T10:49:52.000Z</time>
</trkpt>
<trkpt lat="45.8887790" lon="10.3137870">
	<ele>1544.60</ele>
	<time>2025-07-29T10:49:53.000Z</time>
</trkpt>
<trkpt lat="45.8887850" lon="10.3137880">
	<ele>1544.60</ele>
	<time>2025-07-29T10:49:54.000Z</time>
</trkpt>
<trkpt lat="45.8887900" lon="10.3137910">
	<ele>1544.80</ele>
	<time>2025-07-29T10:49:55.000Z</time>
</trkpt>
<trkpt lat="45.8887940" lon="10.3137890">
	<ele>1544.80</ele>
	<time>2025-07-29T10:49:56.000Z</time>
</trkpt>
<trkpt lat="45.8888060" lon="10.3137880">
	<ele>1545.00</ele>
	<time>2025-07-29T10:49:57.000Z</time>
</trkpt>
<trkpt lat="45.8888200" lon="10.3137830">
	<ele>1545.20</ele>
	<time>2025-07-29T10:49:58.000Z</time>
</trkpt>
<trkpt lat="45.8888290" lon="10.3137820">
	<ele>1545.20</ele>
	<time>2025-07-29T10:49:59.000Z</time>
</trkpt>
<trkpt lat="45.8888430" lon="10.3137750">
	<ele>1545.60</ele>
	<time>2025-07-29T10:50:00.000Z</time>
</trkpt>
<trkpt lat="45.8888670" lon="10.3137600">
	<ele>1545.60</ele>
	<time>2025-07-29T10:50:01.000Z</time>
</trkpt>
<trkpt lat="45.8888880" lon="10.3137560">
	<ele>1545.80</ele>
	<time>2025-07-29T10:50:02.000Z</time>
</trkpt>
<trkpt lat="45.8889120" lon="10.3137700">
	<ele>1546.20</ele>
	<time>2025-07-29T10:50:03.000Z</time>
</trkpt>
<trkpt lat="45.8889290" lon="10.3137690">
	<ele>1546.40</ele>
	<time>2025-07-29T10:50:04.000Z</time>
</trkpt>
<trkpt lat="45.8889410" lon="10.3137680">
	<ele>1546.60</ele>
	<time>2025-07-29T10:50:05.000Z</time>
</trkpt>
<trkpt lat="45.8889510" lon="10.3137640">
	<ele>1546.80</ele>
	<time>2025-07-29T10:50:06.000Z</time>
</trkpt>
<trkpt lat="45.8889540" lon="10.3137610">
	<ele>1547.00</ele>
	<time>2025-07-29T10:50:07.000Z</time>
</trkpt>
<trkpt lat="45.8889560" lon="10.3137590">
	<ele>1547.20</ele>
	<time>2025-07-29T10:50:08.000Z</time>
</trkpt>
<trkpt lat="45.8889600" lon="10.3137560">
	<ele>1547.40</ele>
	<time>2025-07-29T10:50:09.000Z</time>
</trkpt>
<trkpt lat="45.8889660" lon="10.3137580">
	<ele>1547.80</ele>
	<time>2025-07-29T10:50:10.000Z</time>
</trkpt>
<trkpt lat="45.8889720" lon="10.3137620">
	<ele>1548.00</ele>
	<time>2025-07-29T10:50:11.000Z</time>
</trkpt>
<trkpt lat="45.8889790" lon="10.3137580">
	<ele>1548.20</ele>
	<time>2025-07-29T10:50:12.000Z</time>
</trkpt>
<trkpt lat="45.8889860" lon="10.3137620">
	<ele>1548.40</ele>
	<time>2025-07-29T10:50:13.000Z</time>
</trkpt>
<trkpt lat="45.8889990" lon="10.3137580">
	<ele>1548.40</ele>
	<time>2025-07-29T10:50:14.000Z</time>
</trkpt>
<trkpt lat="45.8890050" lon="10.3137510">
	<ele>1548.60</ele>
	<time>2025-07-29T10:50:15.000Z</time>
</trkpt>
<trkpt lat="45.8890120" lon="10.3137480">
	<ele>1548.80</ele>
	<time>2025-07-29T10:50:16.000Z</time>
</trkpt>
<trkpt lat="45.8890210" lon="10.3137470">
	<ele>1549.00</ele>
	<time>2025-07-29T10:50:17.000Z</time>
</trkpt>
<trkpt lat="45.8890300" lon="10.3137460">
	<ele>1549.20</ele>
	<time>2025-07-29T10:50:18.000Z</time>
</trkpt>
<trkpt lat="45.8890330" lon="10.3137460">
	<ele>1549.20</ele>
	<time>2025-07-29T10:50:19.000Z</time>
</trkpt>
<trkpt lat="45.8890370" lon="10.3137420">
	<ele>1549.40</ele>
	<time>2025-07-29T10:50:20.000Z</time>
</trkpt>
<trkpt lat="45.8890410" lon="10.3137340">
	<ele>1549.80</ele>
	<time>2025-07-29T10:50:21.000Z</time>
</trkpt>
<trkpt lat="45.8890480" lon="10.3137270">
	<ele>1550.00</ele>
	<time>2025-07-29T10:50:22.000Z</time>
</trkpt>
<trkpt lat="45.8890610" lon="10.3137270">
	<ele>1550.00</ele>
	<time>2025-07-29T10:50:23.000Z</time>
</trkpt>
<trkpt lat="45.8890670" lon="10.3137270">
	<ele>1550.20</ele>
	<time>2025-07-29T10:50:24.000Z</time>
</trkpt>
<trkpt lat="45.8890690" lon="10.3137290">
	<ele>1550.40</ele>
	<time>2025-07-29T10:50:25.000Z</time>
</trkpt>
<trkpt lat="45.8890720" lon="10.3137310">
	<ele>1550.40</ele>
	<time>2025-07-29T10:50:26.000Z</time>
</trkpt>
<trkpt lat="45.8890780" lon="10.3137340">
	<ele>1550.60</ele>
	<time>2025-07-29T10:50:27.000Z</time>
</trkpt>
<trkpt lat="45.8890840" lon="10.3137440">
	<ele>1551.00</ele>
	<time>2025-07-29T10:50:28.000Z</time>
</trkpt>
<trkpt lat="45.8890900" lon="10.3137550">
	<ele>1551.20</ele>
	<time>2025-07-29T10:50:29.000Z</time>
</trkpt>
<trkpt lat="45.8890960" lon="10.3137550">
	<ele>1551.40</ele>
	<time>2025-07-29T10:50:30.000Z</time>
</trkpt>
<trkpt lat="45.8891050" lon="10.3137490">
	<ele>1551.60</ele>
	<time>2025-07-29T10:50:31.000Z</time>
</trkpt>
<trkpt lat="45.8891120" lon="10.3137520">
	<ele>1551.80</ele>
	<time>2025-07-29T10:50:32.000Z</time>
</trkpt>
<trkpt lat="45.8891130" lon="10.3137570">
	<ele>1551.80</ele>
	<time>2025-07-29T10:50:33.000Z</time>
</trkpt>
<trkpt lat="45.8891210" lon="10.3137580">
	<ele>1552.00</ele>
	<time>2025-07-29T10:50:34.000Z</time>
</trkpt>
<trkpt lat="45.8891270" lon="10.3137580">
	<ele>1552.20</ele>
	<time>2025-07-29T10:50:35.000Z</time>
</trkpt>
<trkpt lat="45.8891320" lon="10.3137540">
	<ele>1552.40</ele>
	<time>2025-07-29T10:50:36.000Z</time>
</trkpt>
<trkpt lat="45.8891440" lon="10.3137500">
	<ele>1552.40</ele>
	<time>2025-07-29T10:50:37.000Z</time>
</trkpt>
<trkpt lat="45.8891580" lon="10.3137380">
	<ele>1552.60</ele>
	<time>2025-07-29T10:50:38.000Z</time>
</trkpt>
<trkpt lat="45.8891620" lon="10.3137460">
	<ele>1552.80</ele>
	<time>2025-07-29T10:50:39.000Z</time>
</trkpt>
<trkpt lat="45.8891690" lon="10.3137550">
	<ele>1552.80</ele>
	<time>2025-07-29T10:50:40.000Z</time>
</trkpt>
<trkpt lat="45.8891740" lon="10.3137700">
	<ele>1553.00</ele>
	<time>2025-07-29T10:50:41.000Z</time>
</trkpt>
<trkpt lat="45.8891750" lon="10.3137760">
	<ele>1553.00</ele>
	<time>2025-07-29T10:50:42.000Z</time>
</trkpt>
<trkpt lat="45.8891750" lon="10.3137750">
	<ele>1553.00</ele>
	<time>2025-07-29T10:50:43.000Z</time>
</trkpt>
<trkpt lat="45.8891800" lon="10.3137750">
	<ele>1553.00</ele>
	<time>2025-07-29T10:50:44.000Z</time>
</trkpt>
<trkpt lat="45.8891860" lon="10.3137870">
	<ele>1553.00</ele>
	<time>2025-07-29T10:50:45.000Z</time>
</trkpt>
<trkpt lat="45.8891910" lon="10.3137970">
	<ele>1553.00</ele>
	<time>2025-07-29T10:50:46.000Z</time>
</trkpt>
<trkpt lat="45.8891930" lon="10.3138070">
	<ele>1553.00</ele>
	<time>2025-07-29T10:50:47.000Z</time>
</trkpt>
<trkpt lat="45.8891970" lon="10.3138230">
	<ele>1553.00</ele>
	<time>2025-07-29T10:50:48.000Z</time>
</trkpt>
<trkpt lat="45.8892000" lon="10.3138400">
	<ele>1553.00</ele>
	<time>2025-07-29T10:50:49.000Z</time>
</trkpt>
<trkpt lat="45.8892030" lon="10.3138510">
	<ele>1553.00</ele>
	<time>2025-07-29T10:50:50.000Z</time>
</trkpt>
<trkpt lat="45.8892110" lon="10.3138570">
	<ele>1553.00</ele>
	<time>2025-07-29T10:50:51.000Z</time>
</trkpt>
<trkpt lat="45.8892200" lon="10.3138620">
	<ele>1553.00</ele>
	<time>2025-07-29T10:50:52.000Z</time>
</trkpt>
<trkpt lat="45.8892320" lon="10.3138770">
	<ele>1553.20</ele>
	<time>2025-07-29T10:50:53.000Z</time>
</trkpt>
<trkpt lat="45.8892480" lon="10.3138830">
	<ele>1553.20</ele>
	<time>2025-07-29T10:50:54.000Z</time>
</trkpt>
<trkpt lat="45.8892540" lon="10.3138860">
	<ele>1553.20</ele>
	<time>2025-07-29T10:50:55.000Z</time>
</trkpt>
<trkpt lat="45.8892640" lon="10.3138940">
	<ele>1553.20</ele>
	<time>2025-07-29T10:50:56.000Z</time>
</trkpt>
<trkpt lat="45.8892750" lon="10.3138970">
	<ele>1553.40</ele>
	<time>2025-07-29T10:50:57.000Z</time>
</trkpt>
<trkpt lat="45.8892820" lon="10.3139030">
	<ele>1553.40</ele>
	<time>2025-07-29T10:50:58.000Z</time>
</trkpt>
<trkpt lat="45.8892870" lon="10.3139050">
	<ele>1553.40</ele>
	<time>2025-07-29T10:50:59.000Z</time>
</trkpt>
<trkpt lat="45.8892900" lon="10.3139070">
	<ele>1553.40</ele>
	<time>2025-07-29T10:51:00.000Z</time>
</trkpt>
<trkpt lat="45.8892950" lon="10.3139180">
	<ele>1553.40</ele>
	<time>2025-07-29T10:51:01.000Z</time>
</trkpt>
<trkpt lat="45.8892960" lon="10.3139290">
	<ele>1553.40</ele>
	<time>2025-07-29T10:51:02.000Z</time>
</trkpt>
<trkpt lat="45.8893000" lon="10.3139400">
	<ele>1553.60</ele>
	<time>2025-07-29T10:51:03.000Z</time>
</trkpt>
<trkpt lat="45.8893070" lon="10.3139470">
	<ele>1553.80</ele>
	<time>2025-07-29T10:51:04.000Z</time>
</trkpt>
<trkpt lat="45.8893110" lon="10.3139590">
	<ele>1554.00</ele>
	<time>2025-07-29T10:51:05.000Z</time>
</trkpt>
<trkpt lat="45.8893230" lon="10.3139830">
	<ele>1554.20</ele>
	<time>2025-07-29T10:51:06.000Z</time>
</trkpt>
<trkpt lat="45.8893310" lon="10.3140010">
	<ele>1554.40</ele>
	<time>2025-07-29T10:51:07.000Z</time>
</trkpt>
<trkpt lat="45.8893440" lon="10.3140130">
	<ele>1554.60</ele>
	<time>2025-07-29T10:51:08.000Z</time>
</trkpt>
<trkpt lat="45.8893510" lon="10.3140180">
	<ele>1554.80</ele>
	<time>2025-07-29T10:51:09.000Z</time>
</trkpt>
<trkpt lat="45.8893470" lon="10.3140230">
	<ele>1554.80</ele>
	<time>2025-07-29T10:51:10.000Z</time>
</trkpt>
<trkpt lat="45.8893440" lon="10.3140330">
	<ele>1554.80</ele>
	<time>2025-07-29T10:51:11.000Z</time>
</trkpt>
<trkpt lat="45.8893480" lon="10.3140470">
	<ele>1554.60</ele>
	<time>2025-07-29T10:51:12.000Z</time>
</trkpt>
<trkpt lat="45.8893530" lon="10.3140650">
	<ele>1554.40</ele>
	<time>2025-07-29T10:51:13.000Z</time>
</trkpt>
<trkpt lat="45.8893620" lon="10.3140850">
	<ele>1554.20</ele>
	<time>2025-07-29T10:51:14.000Z</time>
</trkpt>
<trkpt lat="45.8893720" lon="10.3141050">
	<ele>1554.00</ele>
	<time>2025-07-29T10:51:15.000Z</time>
</trkpt>
<trkpt lat="45.8893760" lon="10.3141270">
	<ele>1554.00</ele>
	<time>2025-07-29T10:51:16.000Z</time>
</trkpt>
<trkpt lat="45.8893880" lon="10.3141450">
	<ele>1553.80</ele>
	<time>2025-07-29T10:51:17.000Z</time>
</trkpt>
<trkpt lat="45.8893970" lon="10.3141530">
	<ele>1553.80</ele>
	<time>2025-07-29T10:51:18.000Z</time>
</trkpt>
<trkpt lat="45.8894100" lon="10.3141690">
	<ele>1553.80</ele>
	<time>2025-07-29T10:51:19.000Z</time>
</trkpt>
<trkpt lat="45.8894200" lon="10.3141870">
	<ele>1553.80</ele>
	<time>2025-07-29T10:51:20.000Z</time>
</trkpt>
<trkpt lat="45.8894340" lon="10.3141950">
	<ele>1553.80</ele>
	<time>2025-07-29T10:51:21.000Z</time>
</trkpt>
<trkpt lat="45.8894450" lon="10.3141960">
	<ele>1554.00</ele>
	<time>2025-07-29T10:51:22.000Z</time>
</trkpt>
<trkpt lat="45.8894460" lon="10.3141950">
	<ele>1554.00</ele>
	<time>2025-07-29T10:51:23.000Z</time>
</trkpt>
<trkpt lat="45.8894500" lon="10.3142050">
	<ele>1554.20</ele>
	<time>2025-07-29T10:51:24.000Z</time>
</trkpt>
<trkpt lat="45.8894530" lon="10.3142160">
	<ele>1554.40</ele>
	<time>2025-07-29T10:51:25.000Z</time>
</trkpt>
<trkpt lat="45.8894560" lon="10.3142280">
	<ele>1554.60</ele>
	<time>2025-07-29T10:51:26.000Z</time>
</trkpt>
<trkpt lat="45.8894580" lon="10.3142350">
	<ele>1554.60</ele>
	<time>2025-07-29T10:51:27.000Z</time>
</trkpt>
<trkpt lat="45.8894560" lon="10.3142320">
	<ele>1554.60</ele>
	<time>2025-07-29T10:51:28.000Z</time>
</trkpt>
<trkpt lat="45.8894550" lon="10.3142330">
	<ele>1554.60</ele>
	<time>2025-07-29T10:51:29.000Z</time>
</trkpt>
<trkpt lat="45.8894570" lon="10.3142420">
	<ele>1554.60</ele>
	<time>2025-07-29T10:51:30.000Z</time>
</trkpt>
<trkpt lat="45.8894620" lon="10.3142620">
	<ele>1554.60</ele>
	<time>2025-07-29T10:51:31.000Z</time>
</trkpt>
<trkpt lat="45.8894710" lon="10.3142720">
	<ele>1554.60</ele>
	<time>2025-07-29T10:51:32.000Z</time>
</trkpt>
<trkpt lat="45.8894820" lon="10.3142750">
	<ele>1554.60</ele>
	<time>2025-07-29T10:51:33.000Z</time>
</trkpt>
<trkpt lat="45.8894910" lon="10.3142790">
	<ele>1554.60</ele>
	<time>2025-07-29T10:51:34.000Z</time>
</trkpt>
<trkpt lat="45.8894970" lon="10.3142900">
	<ele>1554.60</ele>
	<time>2025-07-29T10:51:35.000Z</time>
</trkpt>
<trkpt lat="45.8895060" lon="10.3143080">
	<ele>1554.60</ele>
	<time>2025-07-29T10:51:36.000Z</time>
</trkpt>
<trkpt lat="45.8895140" lon="10.3143190">
	<ele>1554.60</ele>
	<time>2025-07-29T10:51:37.000Z</time>
</trkpt>
<trkpt lat="45.8895270" lon="10.3143330">
	<ele>1554.80</ele>
	<time>2025-07-29T10:51:38.000Z</time>
</trkpt>
<trkpt lat="45.8895390" lon="10.3143410">
	<ele>1555.00</ele>
	<time>2025-07-29T10:51:39.000Z</time>
</trkpt>
<trkpt lat="45.8895450" lon="10.3143500">
	<ele>1555.20</ele>
	<time>2025-07-29T10:51:40.000Z</time>
</trkpt>
<trkpt lat="45.8895450" lon="10.3143650">
	<ele>1555.40</ele>
	<time>2025-07-29T10:51:41.000Z</time>
</trkpt>
<trkpt lat="45.8895480" lon="10.3143780">
	<ele>1555.60</ele>
	<time>2025-07-29T10:51:42.000Z</time>
</trkpt>
<trkpt lat="45.8895510" lon="10.3143900">
	<ele>1555.60</ele>
	<time>2025-07-29T10:51:43.000Z</time>
</trkpt>
<trkpt lat="45.8895590" lon="10.3144110">
	<ele>1555.80</ele>
	<time>2025-07-29T10:51:44.000Z</time>
</trkpt>
<trkpt lat="45.8895670" lon="10.3144260">
	<ele>1556.00</ele>
	<time>2025-07-29T10:51:45.000Z</time>
</trkpt>
<trkpt lat="45.8895710" lon="10.3144450">
	<ele>1556.20</ele>
	<time>2025-07-29T10:51:46.000Z</time>
</trkpt>
<trkpt lat="45.8895760" lon="10.3144630">
	<ele>1556.20</ele>
	<time>2025-07-29T10:51:47.000Z</time>
</trkpt>
<trkpt lat="45.8895790" lon="10.3144780">
	<ele>1556.40</ele>
	<time>2025-07-29T10:51:48.000Z</time>
</trkpt>
<trkpt lat="45.8895770" lon="10.3144850">
	<ele>1556.40</ele>
	<time>2025-07-29T10:51:49.000Z</time>
</trkpt>
<trkpt lat="45.8895830" lon="10.3144980">
	<ele>1556.60</ele>
	<time>2025-07-29T10:51:50.000Z</time>
</trkpt>
<trkpt lat="45.8895960" lon="10.3145240">
	<ele>1556.60</ele>
	<time>2025-07-29T10:51:51.000Z</time>
</trkpt>
<trkpt lat="45.8896070" lon="10.3145350">
	<ele>1556.60</ele>
	<time>2025-07-29T10:51:52.000Z</time>
</trkpt>
<trkpt lat="45.8896170" lon="10.3145400">
	<ele>1556.60</ele>
	<time>2025-07-29T10:51:53.000Z</time>
</trkpt>
<trkpt lat="45.8896330" lon="10.3145480">
	<ele>1556.40</ele>
	<time>2025-07-29T10:51:54.000Z</time>
</trkpt>
<trkpt lat="45.8896450" lon="10.3145590">
	<ele>1556.20</ele>
	<time>2025-07-29T10:51:55.000Z</time>
</trkpt>
<trkpt lat="45.8896540" lon="10.3145700">
	<ele>1556.20</ele>
	<time>2025-07-29T10:51:56.000Z</time>
</trkpt>
<trkpt lat="45.8896650" lon="10.3145810">
	<ele>1556.20</ele>
	<time>2025-07-29T10:51:57.000Z</time>
</trkpt>
<trkpt lat="45.8896770" lon="10.3145870">
	<ele>1556.00</ele>
	<time>2025-07-29T10:51:58.000Z</time>
</trkpt>
<trkpt lat="45.8896830" lon="10.3146010">
	<ele>1556.20</ele>
	<time>2025-07-29T10:51:59.000Z</time>
</trkpt>
<trkpt lat="45.8896950" lon="10.3146100">
	<ele>1556.20</ele>
	<time>2025-07-29T10:52:00.000Z</time>
</trkpt>
<trkpt lat="45.8897020" lon="10.3146190">
	<ele>1556.20</ele>
	<time>2025-07-29T10:52:01.000Z</time>
</trkpt>
<trkpt lat="45.8897030" lon="10.3146320">
	<ele>1556.40</ele>
	<time>2025-07-29T10:52:02.000Z</time>
</trkpt>
<trkpt lat="45.8897020" lon="10.3146330">
	<ele>1556.60</ele>
	<time>2025-07-29T10:52:03.000Z</time>
</trkpt>
<trkpt lat="45.8897040" lon="10.3146430">
	<ele>1556.80</ele>
	<time>2025-07-29T10:52:04.000Z</time>
</trkpt>
<trkpt lat="45.8897150" lon="10.3146530">
	<ele>1557.00</ele>
	<time>2025-07-29T10:52:05.000Z</time>
</trkpt>
<trkpt lat="45.8897250" lon="10.3146630">
	<ele>1557.20</ele>
	<time>2025-07-29T10:52:06.000Z</time>
</trkpt>
<trkpt lat="45.8897340" lon="10.3146730">
	<ele>1557.40</ele>
	<time>2025-07-29T10:52:07.000Z</time>
</trkpt>
<trkpt lat="45.8897390" lon="10.3146870">
	<ele>1557.60</ele>
	<time>2025-07-29T10:52:08.000Z</time>
</trkpt>
<trkpt lat="45.8897380" lon="10.3147010">
	<ele>1557.80</ele>
	<time>2025-07-29T10:52:09.000Z</time>
</trkpt>
<trkpt lat="45.8897330" lon="10.3147130">
	<ele>1557.80</ele>
	<time>2025-07-29T10:52:10.000Z</time>
</trkpt>
<trkpt lat="45.8897330" lon="10.3147310">
	<ele>1557.80</ele>
	<time>2025-07-29T10:52:11.000Z</time>
</trkpt>
<trkpt lat="45.8897300" lon="10.3147610">
	<ele>1558.00</ele>
	<time>2025-07-29T10:52:12.000Z</time>
</trkpt>
<trkpt lat="45.8897250" lon="10.3147730">
	<ele>1557.80</ele>
	<time>2025-07-29T10:52:13.000Z</time>
</trkpt>
<trkpt lat="45.8897230" lon="10.3147810">
	<ele>1557.80</ele>
	<time>2025-07-29T10:52:14.000Z</time>
</trkpt>
<trkpt lat="45.8897240" lon="10.3147890">
	<ele>1557.60</ele>
	<time>2025-07-29T10:52:15.000Z</time>
</trkpt>
<trkpt lat="45.8897280" lon="10.3147980">
	<ele>1557.40</ele>
	<time>2025-07-29T10:52:16.000Z</time>
</trkpt>
<trkpt lat="45.8897350" lon="10.3148070">
	<ele>1557.20</ele>
	<time>2025-07-29T10:52:17.000Z</time>
</trkpt>
<trkpt lat="45.8897380" lon="10.3148240">
	<ele>1557.20</ele>
	<time>2025-07-29T10:52:18.000Z</time>
</trkpt>
<trkpt lat="45.8897380" lon="10.3148290">
	<ele>1557.00</ele>
	<time>2025-07-29T10:52:19.000Z</time>
</trkpt>
<trkpt lat="45.8897370" lon="10.3148320">
	<ele>1557.00</ele>
	<time>2025-07-29T10:52:20.000Z</time>
</trkpt>
<trkpt lat="45.8897370" lon="10.3148330">
	<ele>1557.00</ele>
	<time>2025-07-29T10:52:21.000Z</time>
</trkpt>
<trkpt lat="45.8897370" lon="10.3148330">
	<ele>1557.00</ele>
	<time>2025-07-29T10:52:22.000Z</time>
</trkpt>
<trkpt lat="45.8897380" lon="10.3148330">
	<ele>1557.00</ele>
	<time>2025-07-29T10:52:23.000Z</time>
</trkpt>
<trkpt lat="45.8897390" lon="10.3148320">
	<ele>1557.00</ele>
	<time>2025-07-29T10:52:24.000Z</time>
</trkpt>
<trkpt lat="45.8897410" lon="10.3148420">
	<ele>1557.00</ele>
	<time>2025-07-29T10:52:25.000Z</time>
</trkpt>
<trkpt lat="45.8897400" lon="10.3148420">
	<ele>1556.80</ele>
	<time>2025-07-29T10:52:26.000Z</time>
</trkpt>
<trkpt lat="45.8897420" lon="10.3148400">
	<ele>1556.80</ele>
	<time>2025-07-29T10:52:27.000Z</time>
</trkpt>
<trkpt lat="45.8897430" lon="10.3148390">
	<ele>1556.80</ele>
	<time>2025-07-29T10:52:28.000Z</time>
</trkpt>
<trkpt lat="45.8897420" lon="10.3148400">
	<ele>1556.80</ele>
	<time>2025-07-29T10:52:29.000Z</time>
</trkpt>
<trkpt lat="45.8897420" lon="10.3148400">
	<ele>1556.80</ele>
	<time>2025-07-29T10:52:30.000Z</time>
</trkpt>
<trkpt lat="45.8897420" lon="10.3148400">
	<ele>1556.80</ele>
	<time>2025-07-29T10:52:31.000Z</time>
</trkpt>
<trkpt lat="45.8897420" lon="10.3148400">
	<ele>1556.80</ele>
	<time>2025-07-29T10:52:32.000Z</time>
</trkpt>
<trkpt lat="45.8897420" lon="10.3148400">
	<ele>1556.80</ele>
	<time>2025-07-29T10:52:33.000Z</time>
</trkpt>
<trkpt lat="45.8897420" lon="10.3148400">
	<ele>1556.80</ele>
	<time>2025-07-29T10:52:34.000Z</time>
</trkpt>
<trkpt lat="45.8897420" lon="10.3148400">
	<ele>1556.80</ele>
	<time>2025-07-29T10:52:35.000Z</time>
</trkpt>
<trkpt lat="45.8897420" lon="10.3148400">
	<ele>1557.00</ele>
	<time>2025-07-29T10:52:36.000Z</time>
</trkpt>
<trkpt lat="45.8897420" lon="10.3148400">
	<ele>1557.00</ele>
	<time>2025-07-29T10:52:37.000Z</time>
</trkpt>
<trkpt lat="45.8897420" lon="10.3148400">
	<ele>1557.00</ele>
	<time>2025-07-29T10:52:38.000Z</time>
</trkpt>
<trkpt lat="45.8897420" lon="10.3148400">
	<ele>1557.00</ele>
	<time>2025-07-29T10:52:39.000Z</time>
</trkpt>
<trkpt lat="45.8897420" lon="10.3148400">
	<ele>1557.00</ele>
	<time>2025-07-29T10:52:40.000Z</time>
</trkpt>
<trkpt lat="45.8897420" lon="10.3148400">
	<ele>1557.00</ele>
	<time>2025-07-29T10:52:41.000Z</time>
</trkpt>
<trkpt lat="45.8897410" lon="10.3148470">
	<ele>1556.80</ele>
	<time>2025-07-29T10:52:42.000Z</time>
</trkpt>
<trkpt lat="45.8897400" lon="10.3148610">
	<ele>1556.80</ele>
	<time>2025-07-29T10:52:43.000Z</time>
</trkpt>
<trkpt lat="45.8897380" lon="10.3148660">
	<ele>1556.80</ele>
	<time>2025-07-29T10:52:44.000Z</time>
</trkpt>
<trkpt lat="45.8897450" lon="10.3148810">
	<ele>1556.80</ele>
	<time>2025-07-29T10:52:45.000Z</time>
</trkpt>
<trkpt lat="45.8897450" lon="10.3148930">
	<ele>1556.80</ele>
	<time>2025-07-29T10:52:46.000Z</time>
</trkpt>
<trkpt lat="45.8897480" lon="10.3149030">
	<ele>1556.80</ele>
	<time>2025-07-29T10:52:47.000Z</time>
</trkpt>
<trkpt lat="45.8897480" lon="10.3149070">
	<ele>1557.00</ele>
	<time>2025-07-29T10:52:48.000Z</time>
</trkpt>
<trkpt lat="45.8897470" lon="10.3149130">
	<ele>1557.20</ele>
	<time>2025-07-29T10:52:49.000Z</time>
</trkpt>
<trkpt lat="45.8897560" lon="10.3149200">
	<ele>1557.40</ele>
	<time>2025-07-29T10:52:50.000Z</time>
</trkpt>
<trkpt lat="45.8897590" lon="10.3149230">
	<ele>1557.40</ele>
	<time>2025-07-29T10:52:51.000Z</time>
</trkpt>
<trkpt lat="45.8897630" lon="10.3149230">
	<ele>1557.80</ele>
	<time>2025-07-29T10:52:52.000Z</time>
</trkpt>
<trkpt lat="45.8897630" lon="10.3149230">
	<ele>1558.00</ele>
	<time>2025-07-29T10:52:53.000Z</time>
</trkpt>
<trkpt lat="45.8897700" lon="10.3149360">
	<ele>1558.20</ele>
	<time>2025-07-29T10:52:54.000Z</time>
</trkpt>
<trkpt lat="45.8897820" lon="10.3149520">
	<ele>1558.40</ele>
	<time>2025-07-29T10:52:55.000Z</time>
</trkpt>
<trkpt lat="45.8897960" lon="10.3149670">
	<ele>1558.60</ele>
	<time>2025-07-29T10:52:56.000Z</time>
</trkpt>
<trkpt lat="45.8898110" lon="10.3149800">
	<ele>1559.00</ele>
	<time>2025-07-29T10:52:57.000Z</time>
</trkpt>
<trkpt lat="45.8898150" lon="10.3149900">
	<ele>1559.20</ele>
	<time>2025-07-29T10:52:58.000Z</time>
</trkpt>
<trkpt lat="45.8898180" lon="10.3150010">
	<ele>1559.20</ele>
	<time>2025-07-29T10:52:59.000Z</time>
</trkpt>
<trkpt lat="45.8898230" lon="10.3150140">
	<ele>1559.40</ele>
	<time>2025-07-29T10:53:00.000Z</time>
</trkpt>
<trkpt lat="45.8898240" lon="10.3150180">
	<ele>1559.60</ele>
	<time>2025-07-29T10:53:01.000Z</time>
</trkpt>
<trkpt lat="45.8898260" lon="10.3150210">
	<ele>1559.60</ele>
	<time>2025-07-29T10:53:02.000Z</time>
</trkpt>
<trkpt lat="45.8898350" lon="10.3150330">
	<ele>1559.60</ele>
	<time>2025-07-29T10:53:03.000Z</time>
</trkpt>
<trkpt lat="45.8898480" lon="10.3150460">
	<ele>1559.60</ele>
	<time>2025-07-29T10:53:04.000Z</time>
</trkpt>
<trkpt lat="45.8898570" lon="10.3150630">
	<ele>1559.80</ele>
	<time>2025-07-29T10:53:05.000Z</time>
</trkpt>
<trkpt lat="45.8898640" lon="10.3150870">
	<ele>1559.60</ele>
	<time>2025-07-29T10:53:06.000Z</time>
</trkpt>
<trkpt lat="45.8898740" lon="10.3151080">
	<ele>1559.60</ele>
	<time>2025-07-29T10:53:07.000Z</time>
</trkpt>
<trkpt lat="45.8898880" lon="10.3151310">
	<ele>1559.60</ele>
	<time>2025-07-29T10:53:08.000Z</time>
</trkpt>
<trkpt lat="45.8898920" lon="10.3151340">
	<ele>1559.60</ele>
	<time>2025-07-29T10:53:09.000Z</time>
</trkpt>
<trkpt lat="45.8898960" lon="10.3151480">
	<ele>1559.60</ele>
	<time>2025-07-29T10:53:10.000Z</time>
</trkpt>
<trkpt lat="45.8899050" lon="10.3151600">
	<ele>1559.60</ele>
	<time>2025-07-29T10:53:11.000Z</time>
</trkpt>
<trkpt lat="45.8899130" lon="10.3151750">
	<ele>1559.60</ele>
	<time>2025-07-29T10:53:12.000Z</time>
</trkpt>
<trkpt lat="45.8899190" lon="10.3151920">
	<ele>1559.60</ele>
	<time>2025-07-29T10:53:13.000Z</time>
</trkpt>
<trkpt lat="45.8899250" lon="10.3152070">
	<ele>1559.60</ele>
	<time>2025-07-29T10:53:14.000Z</time>
</trkpt>
<trkpt lat="45.8899410" lon="10.3152270">
	<ele>1559.60</ele>
	<time>2025-07-29T10:53:15.000Z</time>
</trkpt>
<trkpt lat="45.8899610" lon="10.3152570">
	<ele>1559.80</ele>
	<time>2025-07-29T10:53:16.000Z</time>
</trkpt>
<trkpt lat="45.8899710" lon="10.3152750">
	<ele>1559.80</ele>
	<time>2025-07-29T10:53:17.000Z</time>
</trkpt>
<trkpt lat="45.8899760" lon="10.3152890">
	<ele>1559.80</ele>
	<time>2025-07-29T10:53:18.000Z</time>
</trkpt>
<trkpt lat="45.8899770" lon="10.3153070">
	<ele>1560.00</ele>
	<time>2025-07-29T10:53:19.000Z</time>
</trkpt>
<trkpt lat="45.8899790" lon="10.3153190">
	<ele>1560.00</ele>
	<time>2025-07-29T10:53:20.000Z</time>
</trkpt>
<trkpt lat="45.8899820" lon="10.3153310">
	<ele>1560.00</ele>
	<time>2025-07-29T10:53:21.000Z</time>
</trkpt>
<trkpt lat="45.8899850" lon="10.3153350">
	<ele>1559.80</ele>
	<time>2025-07-29T10:53:22.000Z</time>
</trkpt>
<trkpt lat="45.8899930" lon="10.3153440">
	<ele>1559.80</ele>
	<time>2025-07-29T10:53:23.000Z</time>
</trkpt>
<trkpt lat="45.8900020" lon="10.3153540">
	<ele>1559.60</ele>
	<time>2025-07-29T10:53:24.000Z</time>
</trkpt>
<trkpt lat="45.8900120" lon="10.3153710">
	<ele>1559.60</ele>
	<time>2025-07-29T10:53:25.000Z</time>
</trkpt>
<trkpt lat="45.8900200" lon="10.3153940">
	<ele>1559.40</ele>
	<time>2025-07-29T10:53:26.000Z</time>
</trkpt>
<trkpt lat="45.8900230" lon="10.3154070">
	<ele>1559.40</ele>
	<time>2025-07-29T10:53:27.000Z</time>
</trkpt>
<trkpt lat="45.8900270" lon="10.3154140">
	<ele>1559.20</ele>
	<time>2025-07-29T10:53:28.000Z</time>
</trkpt>
<trkpt lat="45.8900430" lon="10.3154190">
	<ele>1559.20</ele>
	<time>2025-07-29T10:53:29.000Z</time>
</trkpt>
<trkpt lat="45.8900540" lon="10.3154280">
	<ele>1559.20</ele>
	<time>2025-07-29T10:53:30.000Z</time>
</trkpt>
<trkpt lat="45.8900670" lon="10.3154350">
	<ele>1559.20</ele>
	<time>2025-07-29T10:53:31.000Z</time>
</trkpt>
<trkpt lat="45.8900820" lon="10.3154480">
	<ele>1559.20</ele>
	<time>2025-07-29T10:53:32.000Z</time>
</trkpt>
<trkpt lat="45.8900900" lon="10.3154630">
	<ele>1559.20</ele>
	<time>2025-07-29T10:53:33.000Z</time>
</trkpt>
<trkpt lat="45.8901010" lon="10.3154750">
	<ele>1559.20</ele>
	<time>2025-07-29T10:53:34.000Z</time>
</trkpt>
<trkpt lat="45.8901100" lon="10.3154900">
	<ele>1559.40</ele>
	<time>2025-07-29T10:53:35.000Z</time>
</trkpt>
<trkpt lat="45.8901210" lon="10.3155050">
	<ele>1559.40</ele>
	<time>2025-07-29T10:53:36.000Z</time>
</trkpt>
<trkpt lat="45.8901280" lon="10.3155210">
	<ele>1559.40</ele>
	<time>2025-07-29T10:53:37.000Z</time>
</trkpt>
<trkpt lat="45.8901380" lon="10.3155340">
	<ele>1559.40</ele>
	<time>2025-07-29T10:53:38.000Z</time>
</trkpt>
<trkpt lat="45.8901450" lon="10.3155430">
	<ele>1559.60</ele>
	<time>2025-07-29T10:53:39.000Z</time>
</trkpt>
<trkpt lat="45.8901540" lon="10.3155550">
	<ele>1559.60</ele>
	<time>2025-07-29T10:53:40.000Z</time>
</trkpt>
<trkpt lat="45.8901640" lon="10.3155680">
	<ele>1559.60</ele>
	<time>2025-07-29T10:53:41.000Z</time>
</trkpt>
<trkpt lat="45.8901820" lon="10.3155790">
	<ele>1559.80</ele>
	<time>2025-07-29T10:53:42.000Z</time>
</trkpt>
<trkpt lat="45.8901970" lon="10.3155920">
	<ele>1560.00</ele>
	<time>2025-07-29T10:53:43.000Z</time>
</trkpt>
<trkpt lat="45.8902090" lon="10.3156050">
	<ele>1560.20</ele>
	<time>2025-07-29T10:53:44.000Z</time>
</trkpt>
<trkpt lat="45.8902240" lon="10.3156060">
	<ele>1560.40</ele>
	<time>2025-07-29T10:53:45.000Z</time>
</trkpt>
<trkpt lat="45.8902420" lon="10.3156050">
	<ele>1560.40</ele>
	<time>2025-07-29T10:53:46.000Z</time>
</trkpt>
<trkpt lat="45.8902570" lon="10.3155970">
	<ele>1560.60</ele>
	<time>2025-07-29T10:53:47.000Z</time>
</trkpt>
<trkpt lat="45.8902690" lon="10.3155850">
	<ele>1560.60</ele>
	<time>2025-07-29T10:53:48.000Z</time>
</trkpt>
<trkpt lat="45.8902840" lon="10.3155790">
	<ele>1560.60</ele>
	<time>2025-07-29T10:53:49.000Z</time>
</trkpt>
<trkpt lat="45.8902970" lon="10.3155840">
	<ele>1560.60</ele>
	<time>2025-07-29T10:53:50.000Z</time>
</trkpt>
<trkpt lat="45.8903110" lon="10.3155820">
	<ele>1560.80</ele>
	<time>2025-07-29T10:53:51.000Z</time>
</trkpt>
<trkpt lat="45.8903240" lon="10.3155790">
	<ele>1560.80</ele>
	<time>2025-07-29T10:53:52.000Z</time>
</trkpt>
<trkpt lat="45.8903320" lon="10.3155900">
	<ele>1561.00</ele>
	<time>2025-07-29T10:53:53.000Z</time>
</trkpt>
<trkpt lat="45.8903360" lon="10.3156150">
	<ele>1561.00</ele>
	<time>2025-07-29T10:53:54.000Z</time>
</trkpt>
<trkpt lat="45.8903440" lon="10.3156490">
	<ele>1561.20</ele>
	<time>2025-07-29T10:53:55.000Z</time>
</trkpt>
<trkpt lat="45.8903440" lon="10.3156670">
	<ele>1561.20</ele>
	<time>2025-07-29T10:53:56.000Z</time>
</trkpt>
<trkpt lat="45.8903450" lon="10.3156920">
	<ele>1561.40</ele>
	<time>2025-07-29T10:53:57.000Z</time>
</trkpt>
<trkpt lat="45.8903460" lon="10.3157040">
	<ele>1561.40</ele>
	<time>2025-07-29T10:53:58.000Z</time>
</trkpt>
<trkpt lat="45.8903530" lon="10.3157060">
	<ele>1561.40</ele>
	<time>2025-07-29T10:53:59.000Z</time>
</trkpt>
<trkpt lat="45.8903620" lon="10.3157130">
	<ele>1561.40</ele>
	<time>2025-07-29T10:54:00.000Z</time>
</trkpt>
<trkpt lat="45.8903770" lon="10.3157400">
	<ele>1561.20</ele>
	<time>2025-07-29T10:54:01.000Z</time>
</trkpt>
<trkpt lat="45.8903820" lon="10.3157630">
	<ele>1561.00</ele>
	<time>2025-07-29T10:54:02.000Z</time>
</trkpt>
<trkpt lat="45.8903900" lon="10.3157740">
	<ele>1560.80</ele>
	<time>2025-07-29T10:54:03.000Z</time>
</trkpt>
<trkpt lat="45.8903960" lon="10.3157920">
	<ele>1560.80</ele>
	<time>2025-07-29T10:54:04.000Z</time>
</trkpt>
<trkpt lat="45.8903990" lon="10.3158190">
	<ele>1560.80</ele>
	<time>2025-07-29T10:54:05.000Z</time>
</trkpt>
<trkpt lat="45.8903990" lon="10.3158400">
	<ele>1561.00</ele>
	<time>2025-07-29T10:54:06.000Z</time>
</trkpt>
<trkpt lat="45.8904010" lon="10.3158540">
	<ele>1561.20</ele>
	<time>2025-07-29T10:54:07.000Z</time>
</trkpt>
<trkpt lat="45.8904100" lon="10.3158640">
	<ele>1561.20</ele>
	<time>2025-07-29T10:54:08.000Z</time>
</trkpt>
<trkpt lat="45.8904170" lon="10.3158670">
	<ele>1561.40</ele>
	<time>2025-07-29T10:54:09.000Z</time>
</trkpt>
<trkpt lat="45.8904170" lon="10.3158720">
	<ele>1561.60</ele>
	<time>2025-07-29T10:54:10.000Z</time>
</trkpt>
<trkpt lat="45.8904270" lon="10.3158740">
	<ele>1562.20</ele>
	<time>2025-07-29T10:54:11.000Z</time>
</trkpt>
<trkpt lat="45.8904290" lon="10.3158780">
	<ele>1562.40</ele>
	<time>2025-07-29T10:54:12.000Z</time>
</trkpt>
<trkpt lat="45.8904410" lon="10.3158830">
	<ele>1562.60</ele>
	<time>2025-07-29T10:54:13.000Z</time>
</trkpt>
<trkpt lat="45.8904560" lon="10.3158870">
	<ele>1562.80</ele>
	<time>2025-07-29T10:54:14.000Z</time>
</trkpt>
<trkpt lat="45.8904690" lon="10.3158910">
	<ele>1563.00</ele>
	<time>2025-07-29T10:54:15.000Z</time>
</trkpt>
<trkpt lat="45.8904820" lon="10.3159050">
	<ele>1563.20</ele>
	<time>2025-07-29T10:54:16.000Z</time>
</trkpt>
<trkpt lat="45.8904920" lon="10.3159170">
	<ele>1563.40</ele>
	<time>2025-07-29T10:54:17.000Z</time>
</trkpt>
<trkpt lat="45.8905010" lon="10.3159240">
	<ele>1563.40</ele>
	<time>2025-07-29T10:54:18.000Z</time>
</trkpt>
<trkpt lat="45.8905110" lon="10.3159280">
	<ele>1563.40</ele>
	<time>2025-07-29T10:54:19.000Z</time>
</trkpt>
<trkpt lat="45.8905220" lon="10.3159340">
	<ele>1563.60</ele>
	<time>2025-07-29T10:54:20.000Z</time>
</trkpt>
<trkpt lat="45.8905310" lon="10.3159370">
	<ele>1563.60</ele>
	<time>2025-07-29T10:54:21.000Z</time>
</trkpt>
<trkpt lat="45.8905460" lon="10.3159350">
	<ele>1563.60</ele>
	<time>2025-07-29T10:54:22.000Z</time>
</trkpt>
<trkpt lat="45.8905590" lon="10.3159350">
	<ele>1563.80</ele>
	<time>2025-07-29T10:54:23.000Z</time>
</trkpt>
<trkpt lat="45.8905700" lon="10.3159380">
	<ele>1563.80</ele>
	<time>2025-07-29T10:54:24.000Z</time>
</trkpt>
<trkpt lat="45.8905810" lon="10.3159420">
	<ele>1563.80</ele>
	<time>2025-07-29T10:54:25.000Z</time>
</trkpt>
<trkpt lat="45.8905880" lon="10.3159450">
	<ele>1564.40</ele>
	<time>2025-07-29T10:54:26.000Z</time>
</trkpt>
<trkpt lat="45.8905970" lon="10.3159420">
	<ele>1564.60</ele>
	<time>2025-07-29T10:54:27.000Z</time>
</trkpt>
<trkpt lat="45.8906050" lon="10.3159400">
	<ele>1564.80</ele>
	<time>2025-07-29T10:54:28.000Z</time>
</trkpt>
<trkpt lat="45.8906130" lon="10.3159310">
	<ele>1564.80</ele>
	<time>2025-07-29T10:54:29.000Z</time>
</trkpt>
<trkpt lat="45.8906310" lon="10.3159250">
	<ele>1564.80</ele>
	<time>2025-07-29T10:54:30.000Z</time>
</trkpt>
<trkpt lat="45.8906480" lon="10.3159220">
	<ele>1564.80</ele>
	<time>2025-07-29T10:54:31.000Z</time>
</trkpt>
<trkpt lat="45.8906620" lon="10.3159210">
	<ele>1564.80</ele>
	<time>2025-07-29T10:54:32.000Z</time>
</trkpt>
<trkpt lat="45.8906840" lon="10.3159050">
	<ele>1564.80</ele>
	<time>2025-07-29T10:54:33.000Z</time>
</trkpt>
<trkpt lat="45.8907040" lon="10.3158910">
	<ele>1564.80</ele>
	<time>2025-07-29T10:54:34.000Z</time>
</trkpt>
<trkpt lat="45.8907110" lon="10.3158800">
	<ele>1564.60</ele>
	<time>2025-07-29T10:54:35.000Z</time>
</trkpt>
<trkpt lat="45.8907230" lon="10.3158840">
	<ele>1564.80</ele>
	<time>2025-07-29T10:54:36.000Z</time>
</trkpt>
<trkpt lat="45.8907380" lon="10.3159040">
	<ele>1564.80</ele>
	<time>2025-07-29T10:54:37.000Z</time>
</trkpt>
<trkpt lat="45.8907520" lon="10.3159310">
	<ele>1564.80</ele>
	<time>2025-07-29T10:54:38.000Z</time>
</trkpt>
<trkpt lat="45.8907660" lon="10.3159480">
	<ele>1564.80</ele>
	<time>2025-07-29T10:54:39.000Z</time>
</trkpt>
<trkpt lat="45.8907820" lon="10.3159600">
	<ele>1565.00</ele>
	<time>2025-07-29T10:54:40.000Z</time>
</trkpt>
<trkpt lat="45.8907940" lon="10.3159680">
	<ele>1565.00</ele>
	<time>2025-07-29T10:54:41.000Z</time>
</trkpt>
<trkpt lat="45.8908110" lon="10.3159650">
	<ele>1565.20</ele>
	<time>2025-07-29T10:54:42.000Z</time>
</trkpt>
<trkpt lat="45.8908270" lon="10.3159560">
	<ele>1565.20</ele>
	<time>2025-07-29T10:54:43.000Z</time>
</trkpt>
<trkpt lat="45.8908380" lon="10.3159470">
	<ele>1565.40</ele>
	<time>2025-07-29T10:54:44.000Z</time>
</trkpt>
<trkpt lat="45.8908420" lon="10.3159490">
	<ele>1565.40</ele>
	<time>2025-07-29T10:54:45.000Z</time>
</trkpt>
<trkpt lat="45.8908430" lon="10.3159520">
	<ele>1565.40</ele>
	<time>2025-07-29T10:54:46.000Z</time>
</trkpt>
<trkpt lat="45.8908530" lon="10.3159610">
	<ele>1565.40</ele>
	<time>2025-07-29T10:54:47.000Z</time>
</trkpt>
<trkpt lat="45.8908610" lon="10.3159680">
	<ele>1565.60</ele>
	<time>2025-07-29T10:54:48.000Z</time>
</trkpt>
<trkpt lat="45.8908680" lon="10.3159750">
	<ele>1565.60</ele>
	<time>2025-07-29T10:54:49.000Z</time>
</trkpt>
<trkpt lat="45.8908730" lon="10.3159840">
	<ele>1565.80</ele>
	<time>2025-07-29T10:54:50.000Z</time>
</trkpt>
<trkpt lat="45.8908810" lon="10.3159870">
	<ele>1565.80</ele>
	<time>2025-07-29T10:54:51.000Z</time>
</trkpt>
<trkpt lat="45.8908900" lon="10.3159820">
	<ele>1565.80</ele>
	<time>2025-07-29T10:54:52.000Z</time>
</trkpt>
<trkpt lat="45.8908940" lon="10.3159910">
	<ele>1565.80</ele>
	<time>2025-07-29T10:54:53.000Z</time>
</trkpt>
<trkpt lat="45.8909040" lon="10.3160040">
	<ele>1565.80</ele>
	<time>2025-07-29T10:54:54.000Z</time>
</trkpt>
<trkpt lat="45.8909180" lon="10.3160090">
	<ele>1565.80</ele>
	<time>2025-07-29T10:54:55.000Z</time>
</trkpt>
<trkpt lat="45.8909290" lon="10.3160180">
	<ele>1565.60</ele>
	<time>2025-07-29T10:54:56.000Z</time>
</trkpt>
<trkpt lat="45.8909400" lon="10.3160300">
	<ele>1565.60</ele>
	<time>2025-07-29T10:54:57.000Z</time>
</trkpt>
<trkpt lat="45.8909500" lon="10.3160470">
	<ele>1565.40</ele>
	<time>2025-07-29T10:54:58.000Z</time>
</trkpt>
<trkpt lat="45.8909600" lon="10.3160630">
	<ele>1565.20</ele>
	<time>2025-07-29T10:54:59.000Z</time>
</trkpt>
<trkpt lat="45.8909730" lon="10.3160780">
	<ele>1565.00</ele>
	<time>2025-07-29T10:55:00.000Z</time>
</trkpt>
<trkpt lat="45.8909850" lon="10.3160900">
	<ele>1565.00</ele>
	<time>2025-07-29T10:55:01.000Z</time>
</trkpt>
<trkpt lat="45.8909920" lon="10.3160970">
	<ele>1564.80</ele>
	<time>2025-07-29T10:55:02.000Z</time>
</trkpt>
<trkpt lat="45.8910040" lon="10.3160930">
	<ele>1564.80</ele>
	<time>2025-07-29T10:55:03.000Z</time>
</trkpt>
<trkpt lat="45.8910140" lon="10.3160990">
	<ele>1564.80</ele>
	<time>2025-07-29T10:55:04.000Z</time>
</trkpt>
<trkpt lat="45.8910180" lon="10.3161080">
	<ele>1564.60</ele>
	<time>2025-07-29T10:55:05.000Z</time>
</trkpt>
<trkpt lat="45.8910190" lon="10.3161190">
	<ele>1564.60</ele>
	<time>2025-07-29T10:55:06.000Z</time>
</trkpt>
<trkpt lat="45.8910280" lon="10.3161260">
	<ele>1564.40</ele>
	<time>2025-07-29T10:55:07.000Z</time>
</trkpt>
<trkpt lat="45.8910400" lon="10.3161370">
	<ele>1564.40</ele>
	<time>2025-07-29T10:55:08.000Z</time>
</trkpt>
<trkpt lat="45.8910480" lon="10.3161410">
	<ele>1564.40</ele>
	<time>2025-07-29T10:55:09.000Z</time>
</trkpt>
<trkpt lat="45.8910570" lon="10.3161410">
	<ele>1564.40</ele>
	<time>2025-07-29T10:55:10.000Z</time>
</trkpt>
<trkpt lat="45.8910660" lon="10.3161380">
	<ele>1564.40</ele>
	<time>2025-07-29T10:55:11.000Z</time>
</trkpt>
<trkpt lat="45.8910760" lon="10.3161490">
	<ele>1564.40</ele>
	<time>2025-07-29T10:55:12.000Z</time>
</trkpt>
<trkpt lat="45.8910840" lon="10.3161550">
	<ele>1564.40</ele>
	<time>2025-07-29T10:55:13.000Z</time>
</trkpt>
<trkpt lat="45.8910970" lon="10.3161570">
	<ele>1564.60</ele>
	<time>2025-07-29T10:55:14.000Z</time>
</trkpt>
<trkpt lat="45.8911080" lon="10.3161640">
	<ele>1565.00</ele>
	<time>2025-07-29T10:55:15.000Z</time>
</trkpt>
<trkpt lat="45.8911110" lon="10.3161610">
	<ele>1565.20</ele>
	<time>2025-07-29T10:55:16.000Z</time>
</trkpt>
<trkpt lat="45.8911160" lon="10.3161590">
	<ele>1565.40</ele>
	<time>2025-07-29T10:55:17.000Z</time>
</trkpt>
<trkpt lat="45.8911240" lon="10.3161550">
	<ele>1565.80</ele>
	<time>2025-07-29T10:55:18.000Z</time>
</trkpt>
<trkpt lat="45.8911390" lon="10.3161590">
	<ele>1565.80</ele>
	<time>2025-07-29T10:55:19.000Z</time>
</trkpt>
<trkpt lat="45.8911470" lon="10.3161690">
	<ele>1566.00</ele>
	<time>2025-07-29T10:55:20.000Z</time>
</trkpt>
<trkpt lat="45.8911580" lon="10.3161800">
	<ele>1566.20</ele>
	<time>2025-07-29T10:55:21.000Z</time>
</trkpt>
<trkpt lat="45.8911630" lon="10.3161980">
	<ele>1566.40</ele>
	<time>2025-07-29T10:55:22.000Z</time>
</trkpt>
<trkpt lat="45.8911670" lon="10.3162190">
	<ele>1566.80</ele>
	<time>2025-07-29T10:55:23.000Z</time>
</trkpt>
<trkpt lat="45.8911690" lon="10.3162430">
	<ele>1567.00</ele>
	<time>2025-07-29T10:55:24.000Z</time>
</trkpt>
<trkpt lat="45.8911710" lon="10.3162490">
	<ele>1567.20</ele>
	<time>2025-07-29T10:55:25.000Z</time>
</trkpt>
<trkpt lat="45.8911790" lon="10.3162590">
	<ele>1567.40</ele>
	<time>2025-07-29T10:55:26.000Z</time>
</trkpt>
<trkpt lat="45.8911900" lon="10.3162650">
	<ele>1567.60</ele>
	<time>2025-07-29T10:55:27.000Z</time>
</trkpt>
<trkpt lat="45.8911980" lon="10.3162680">
	<ele>1567.80</ele>
	<time>2025-07-29T10:55:28.000Z</time>
</trkpt>
<trkpt lat="45.8912090" lon="10.3162690">
	<ele>1568.00</ele>
	<time>2025-07-29T10:55:29.000Z</time>
</trkpt>
<trkpt lat="45.8912170" lon="10.3162730">
	<ele>1568.20</ele>
	<time>2025-07-29T10:55:30.000Z</time>
</trkpt>
<trkpt lat="45.8912250" lon="10.3162800">
	<ele>1568.20</ele>
	<time>2025-07-29T10:55:31.000Z</time>
</trkpt>
<trkpt lat="45.8912290" lon="10.3162950">
	<ele>1568.40</ele>
	<time>2025-07-29T10:55:32.000Z</time>
</trkpt>
<trkpt lat="45.8912310" lon="10.3163100">
	<ele>1568.60</ele>
	<time>2025-07-29T10:55:33.000Z</time>
</trkpt>
<trkpt lat="45.8912440" lon="10.3163090">
	<ele>1568.60</ele>
	<time>2025-07-29T10:55:34.000Z</time>
</trkpt>
<trkpt lat="45.8912580" lon="10.3163110">
	<ele>1568.80</ele>
	<time>2025-07-29T10:55:35.000Z</time>
</trkpt>
<trkpt lat="45.8912700" lon="10.3163320">
	<ele>1569.00</ele>
	<time>2025-07-29T10:55:36.000Z</time>
</trkpt>
<trkpt lat="45.8912760" lon="10.3163330">
	<ele>1569.20</ele>
	<time>2025-07-29T10:55:37.000Z</time>
</trkpt>
<trkpt lat="45.8912810" lon="10.3163450">
	<ele>1569.20</ele>
	<time>2025-07-29T10:55:38.000Z</time>
</trkpt>
<trkpt lat="45.8912890" lon="10.3163640">
	<ele>1569.20</ele>
	<time>2025-07-29T10:55:39.000Z</time>
</trkpt>
<trkpt lat="45.8912960" lon="10.3163910">
	<ele>1569.20</ele>
	<time>2025-07-29T10:55:40.000Z</time>
</trkpt>
<trkpt lat="45.8912980" lon="10.3164030">
	<ele>1569.40</ele>
	<time>2025-07-29T10:55:41.000Z</time>
</trkpt>
<trkpt lat="45.8913010" lon="10.3164160">
	<ele>1569.40</ele>
	<time>2025-07-29T10:55:42.000Z</time>
</trkpt>
<trkpt lat="45.8913030" lon="10.3164230">
	<ele>1569.60</ele>
	<time>2025-07-29T10:55:43.000Z</time>
</trkpt>
<trkpt lat="45.8913110" lon="10.3164370">
	<ele>1569.60</ele>
	<time>2025-07-29T10:55:44.000Z</time>
</trkpt>
<trkpt lat="45.8913190" lon="10.3164530">
	<ele>1569.80</ele>
	<time>2025-07-29T10:55:45.000Z</time>
</trkpt>
<trkpt lat="45.8913250" lon="10.3164710">
	<ele>1570.00</ele>
	<time>2025-07-29T10:55:46.000Z</time>
</trkpt>
<trkpt lat="45.8913310" lon="10.3164920">
	<ele>1570.40</ele>
	<time>2025-07-29T10:55:47.000Z</time>
</trkpt>
<trkpt lat="45.8913370" lon="10.3165200">
	<ele>1570.40</ele>
	<time>2025-07-29T10:55:48.000Z</time>
</trkpt>
<trkpt lat="45.8913480" lon="10.3165310">
	<ele>1570.60</ele>
	<time>2025-07-29T10:55:49.000Z</time>
</trkpt>
<trkpt lat="45.8913500" lon="10.3165380">
	<ele>1570.60</ele>
	<time>2025-07-29T10:55:50.000Z</time>
</trkpt>
<trkpt lat="45.8913460" lon="10.3165420">
	<ele>1570.80</ele>
	<time>2025-07-29T10:55:51.000Z</time>
</trkpt>
<trkpt lat="45.8913540" lon="10.3165400">
	<ele>1570.80</ele>
	<time>2025-07-29T10:55:52.000Z</time>
</trkpt>
<trkpt lat="45.8913630" lon="10.3165550">
	<ele>1571.00</ele>
	<time>2025-07-29T10:55:53.000Z</time>
</trkpt>
<trkpt lat="45.8913670" lon="10.3165670">
	<ele>1571.00</ele>
	<time>2025-07-29T10:55:54.000Z</time>
</trkpt>
<trkpt lat="45.8913740" lon="10.3165840">
	<ele>1571.00</ele>
	<time>2025-07-29T10:55:55.000Z</time>
</trkpt>
<trkpt lat="45.8913760" lon="10.3165970">
	<ele>1571.00</ele>
	<time>2025-07-29T10:55:56.000Z</time>
</trkpt>
<trkpt lat="45.8913690" lon="10.3166060">
	<ele>1571.20</ele>
	<time>2025-07-29T10:55:57.000Z</time>
</trkpt>
<trkpt lat="45.8913740" lon="10.3166260">
	<ele>1571.20</ele>
	<time>2025-07-29T10:55:58.000Z</time>
</trkpt>
<trkpt lat="45.8913860" lon="10.3166420">
	<ele>1571.40</ele>
	<time>2025-07-29T10:55:59.000Z</time>
</trkpt>
<trkpt lat="45.8913910" lon="10.3166670">
	<ele>1571.40</ele>
	<time>2025-07-29T10:56:00.000Z</time>
</trkpt>
<trkpt lat="45.8913970" lon="10.3166970">
	<ele>1571.40</ele>
	<time>2025-07-29T10:56:01.000Z</time>
</trkpt>
<trkpt lat="45.8914030" lon="10.3167240">
	<ele>1571.60</ele>
	<time>2025-07-29T10:56:02.000Z</time>
</trkpt>
<trkpt lat="45.8914020" lon="10.3167430">
	<ele>1571.60</ele>
	<time>2025-07-29T10:56:03.000Z</time>
</trkpt>
<trkpt lat="45.8914030" lon="10.3167490">
	<ele>1571.80</ele>
	<time>2025-07-29T10:56:04.000Z</time>
</trkpt>
<trkpt lat="45.8914030" lon="10.3167450">
	<ele>1572.00</ele>
	<time>2025-07-29T10:56:05.000Z</time>
</trkpt>
<trkpt lat="45.8913990" lon="10.3167600">
	<ele>1572.00</ele>
	<time>2025-07-29T10:56:06.000Z</time>
</trkpt>
<trkpt lat="45.8914040" lon="10.3167710">
	<ele>1572.20</ele>
	<time>2025-07-29T10:56:07.000Z</time>
</trkpt>
<trkpt lat="45.8914030" lon="10.3167880">
	<ele>1572.40</ele>
	<time>2025-07-29T10:56:08.000Z</time>
</trkpt>
<trkpt lat="45.8914080" lon="10.3168060">
	<ele>1572.60</ele>
	<time>2025-07-29T10:56:09.000Z</time>
</trkpt>
<trkpt lat="45.8914110" lon="10.3168100">
	<ele>1573.00</ele>
	<time>2025-07-29T10:56:10.000Z</time>
</trkpt>
<trkpt lat="45.8914090" lon="10.3168360">
	<ele>1573.20</ele>
	<time>2025-07-29T10:56:11.000Z</time>
</trkpt>
<trkpt lat="45.8914070" lon="10.3168550">
	<ele>1573.40</ele>
	<time>2025-07-29T10:56:12.000Z</time>
</trkpt>
<trkpt lat="45.8914150" lon="10.3168670">
	<ele>1573.80</ele>
	<time>2025-07-29T10:56:13.000Z</time>
</trkpt>
<trkpt lat="45.8914140" lon="10.3168860">
	<ele>1574.00</ele>
	<time>2025-07-29T10:56:14.000Z</time>
</trkpt>
<trkpt lat="45.8914170" lon="10.3169050">
	<ele>1574.20</ele>
	<time>2025-07-29T10:56:15.000Z</time>
</trkpt>
<trkpt lat="45.8914310" lon="10.3169120">
	<ele>1574.40</ele>
	<time>2025-07-29T10:56:16.000Z</time>
</trkpt>
<trkpt lat="45.8914410" lon="10.3169170">
	<ele>1574.60</ele>
	<time>2025-07-29T10:56:17.000Z</time>
</trkpt>
<trkpt lat="45.8914500" lon="10.3169190">
	<ele>1574.80</ele>
	<time>2025-07-29T10:56:18.000Z</time>
</trkpt>
<trkpt lat="45.8914580" lon="10.3169220">
	<ele>1575.00</ele>
	<time>2025-07-29T10:56:19.000Z</time>
</trkpt>
<trkpt lat="45.8914670" lon="10.3169190">
	<ele>1575.20</ele>
	<time>2025-07-29T10:56:20.000Z</time>
</trkpt>
<trkpt lat="45.8914720" lon="10.3169110">
	<ele>1575.40</ele>
	<time>2025-07-29T10:56:21.000Z</time>
</trkpt>
<trkpt lat="45.8914790" lon="10.3169210">
	<ele>1575.60</ele>
	<time>2025-07-29T10:56:22.000Z</time>
</trkpt>
<trkpt lat="45.8914860" lon="10.3169450">
	<ele>1575.60</ele>
	<time>2025-07-29T10:56:23.000Z</time>
</trkpt>
<trkpt lat="45.8914930" lon="10.3169600">
	<ele>1576.00</ele>
	<time>2025-07-29T10:56:24.000Z</time>
</trkpt>
<trkpt lat="45.8914930" lon="10.3169700">
	<ele>1576.00</ele>
	<time>2025-07-29T10:56:25.000Z</time>
</trkpt>
<trkpt lat="45.8915040" lon="10.3169690">
	<ele>1576.20</ele>
	<time>2025-07-29T10:56:26.000Z</time>
</trkpt>
<trkpt lat="45.8915100" lon="10.3169680">
	<ele>1576.40</ele>
	<time>2025-07-29T10:56:27.000Z</time>
</trkpt>
<trkpt lat="45.8915110" lon="10.3169740">
	<ele>1576.60</ele>
	<time>2025-07-29T10:56:28.000Z</time>
</trkpt>
<trkpt lat="45.8915080" lon="10.3169880">
	<ele>1576.60</ele>
	<time>2025-07-29T10:56:29.000Z</time>
</trkpt>
<trkpt lat="45.8915080" lon="10.3170090">
	<ele>1576.80</ele>
	<time>2025-07-29T10:56:30.000Z</time>
</trkpt>
<trkpt lat="45.8915160" lon="10.3170200">
	<ele>1577.00</ele>
	<time>2025-07-29T10:56:31.000Z</time>
</trkpt>
<trkpt lat="45.8915310" lon="10.3170340">
	<ele>1577.20</ele>
	<time>2025-07-29T10:56:32.000Z</time>
</trkpt>
<trkpt lat="45.8915470" lon="10.3170550">
	<ele>1577.20</ele>
	<time>2025-07-29T10:56:33.000Z</time>
</trkpt>
<trkpt lat="45.8915570" lon="10.3170690">
	<ele>1577.20</ele>
	<time>2025-07-29T10:56:34.000Z</time>
</trkpt>
<trkpt lat="45.8915590" lon="10.3170850">
	<ele>1577.40</ele>
	<time>2025-07-29T10:56:35.000Z</time>
</trkpt>
<trkpt lat="45.8915650" lon="10.3170870">
	<ele>1577.40</ele>
	<time>2025-07-29T10:56:36.000Z</time>
</trkpt>
<trkpt lat="45.8915670" lon="10.3170910">
	<ele>1577.40</ele>
	<time>2025-07-29T10:56:37.000Z</time>
</trkpt>
<trkpt lat="45.8915750" lon="10.3170950">
	<ele>1577.40</ele>
	<time>2025-07-29T10:56:38.000Z</time>
</trkpt>
<trkpt lat="45.8915860" lon="10.3171000">
	<ele>1577.40</ele>
	<time>2025-07-29T10:56:39.000Z</time>
</trkpt>
<trkpt lat="45.8915900" lon="10.3171060">
	<ele>1577.40</ele>
	<time>2025-07-29T10:56:40.000Z</time>
</trkpt>
<trkpt lat="45.8915910" lon="10.3171100">
	<ele>1577.40</ele>
	<time>2025-07-29T10:56:41.000Z</time>
</trkpt>
<trkpt lat="45.8915890" lon="10.3171120">
	<ele>1577.40</ele>
	<time>2025-07-29T10:56:42.000Z</time>
</trkpt>
<trkpt lat="45.8915890" lon="10.3171130">
	<ele>1577.40</ele>
	<time>2025-07-29T10:56:43.000Z</time>
</trkpt>
<trkpt lat="45.8915930" lon="10.3171250">
	<ele>1577.40</ele>
	<time>2025-07-29T10:56:44.000Z</time>
</trkpt>
<trkpt lat="45.8915930" lon="10.3171310">
	<ele>1577.40</ele>
	<time>2025-07-29T10:56:45.000Z</time>
</trkpt>
<trkpt lat="45.8915920" lon="10.3171330">
	<ele>1577.40</ele>
	<time>2025-07-29T10:56:46.000Z</time>
</trkpt>
<trkpt lat="45.8915930" lon="10.3171370">
	<ele>1577.40</ele>
	<time>2025-07-29T10:56:47.000Z</time>
</trkpt>
<trkpt lat="45.8915950" lon="10.3171380">
	<ele>1577.40</ele>
	<time>2025-07-29T10:56:48.000Z</time>
</trkpt>
<trkpt lat="45.8915970" lon="10.3171410">
	<ele>1577.40</ele>
	<time>2025-07-29T10:56:49.000Z</time>
</trkpt>
<trkpt lat="45.8915970" lon="10.3171440">
	<ele>1577.40</ele>
	<time>2025-07-29T10:56:50.000Z</time>
</trkpt>
<trkpt lat="45.8916000" lon="10.3171460">
	<ele>1577.40</ele>
	<time>2025-07-29T10:56:51.000Z</time>
</trkpt>
<trkpt lat="45.8916060" lon="10.3171430">
	<ele>1577.40</ele>
	<time>2025-07-29T10:56:52.000Z</time>
</trkpt>
<trkpt lat="45.8916060" lon="10.3171440">
	<ele>1577.40</ele>
	<time>2025-07-29T10:56:53.000Z</time>
</trkpt>
<trkpt lat="45.8916040" lon="10.3171430">
	<ele>1577.40</ele>
	<time>2025-07-29T10:56:54.000Z</time>
</trkpt>
<trkpt lat="45.8916040" lon="10.3171430">
	<ele>1577.40</ele>
	<time>2025-07-29T10:56:55.000Z</time>
</trkpt>
<trkpt lat="45.8916040" lon="10.3171430">
	<ele>1577.40</ele>
	<time>2025-07-29T10:56:56.000Z</time>
</trkpt>
<trkpt lat="45.8916040" lon="10.3171430">
	<ele>1577.40</ele>
	<time>2025-07-29T10:56:57.000Z</time>
</trkpt>
<trkpt lat="45.8916040" lon="10.3171430">
	<ele>1577.40</ele>
	<time>2025-07-29T10:56:58.000Z</time>
</trkpt>
<trkpt lat="45.8916040" lon="10.3171430">
	<ele>1577.40</ele>
	<time>2025-07-29T10:56:59.000Z</time>
</trkpt>
<trkpt lat="45.8916040" lon="10.3171430">
	<ele>1577.40</ele>
	<time>2025-07-29T10:57:00.000Z</time>
</trkpt>
<trkpt lat="45.8916040" lon="10.3171430">
	<ele>1577.40</ele>
	<time>2025-07-29T10:57:01.000Z</time>
</trkpt>
<trkpt lat="45.8916040" lon="10.3171430">
	<ele>1577.40</ele>
	<time>2025-07-29T10:57:02.000Z</time>
</trkpt>
<trkpt lat="45.8916040" lon="10.3171430">
	<ele>1577.40</ele>
	<time>2025-07-29T10:57:03.000Z</time>
</trkpt>
<trkpt lat="45.8916030" lon="10.3171430">
	<ele>1577.40</ele>
	<time>2025-07-29T10:57:04.000Z</time>
</trkpt>
<trkpt lat="45.8916030" lon="10.3171430">
	<ele>1577.40</ele>
	<time>2025-07-29T10:57:05.000Z</time>
</trkpt>
<trkpt lat="45.8916020" lon="10.3171430">
	<ele>1577.40</ele>
	<time>2025-07-29T10:57:06.000Z</time>
</trkpt>
<trkpt lat="45.8916010" lon="10.3171430">
	<ele>1577.40</ele>
	<time>2025-07-29T10:57:07.000Z</time>
</trkpt>
<trkpt lat="45.8916000" lon="10.3171430">
	<ele>1577.60</ele>
	<time>2025-07-29T10:57:08.000Z</time>
</trkpt>
<trkpt lat="45.8915980" lon="10.3171430">
	<ele>1577.60</ele>
	<time>2025-07-29T10:57:09.000Z</time>
</trkpt>
<trkpt lat="45.8915980" lon="10.3171410">
	<ele>1577.60</ele>
	<time>2025-07-29T10:57:10.000Z</time>
</trkpt>
<trkpt lat="45.8915980" lon="10.3171390">
	<ele>1577.60</ele>
	<time>2025-07-29T10:57:11.000Z</time>
</trkpt>
<trkpt lat="45.8915980" lon="10.3171380">
	<ele>1577.60</ele>
	<time>2025-07-29T10:57:12.000Z</time>
</trkpt>
<trkpt lat="45.8915980" lon="10.3171370">
	<ele>1577.60</ele>
	<time>2025-07-29T10:57:13.000Z</time>
</trkpt>
<trkpt lat="45.8915980" lon="10.3171360">
	<ele>1577.60</ele>
	<time>2025-07-29T10:57:14.000Z</time>
</trkpt>
<trkpt lat="45.8915980" lon="10.3171350">
	<ele>1577.60</ele>
	<time>2025-07-29T10:57:15.000Z</time>
</trkpt>
<trkpt lat="45.8915990" lon="10.3171350">
	<ele>1577.60</ele>
	<time>2025-07-29T10:57:16.000Z</time>
</trkpt>
<trkpt lat="45.8916010" lon="10.3171360">
	<ele>1577.60</ele>
	<time>2025-07-29T10:57:17.000Z</time>
</trkpt>
<trkpt lat="45.8916020" lon="10.3171360">
	<ele>1577.60</ele>
	<time>2025-07-29T10:57:18.000Z</time>
</trkpt>
<trkpt lat="45.8916030" lon="10.3171360">
	<ele>1577.60</ele>
	<time>2025-07-29T10:57:19.000Z</time>
</trkpt>
<trkpt lat="45.8916030" lon="10.3171360">
	<ele>1577.60</ele>
	<time>2025-07-29T10:57:20.000Z</time>
</trkpt>
<trkpt lat="45.8916040" lon="10.3171360">
	<ele>1577.60</ele>
	<time>2025-07-29T10:57:21.000Z</time>
</trkpt>
<trkpt lat="45.8916100" lon="10.3171390">
	<ele>1577.60</ele>
	<time>2025-07-29T10:57:22.000Z</time>
</trkpt>
<trkpt lat="45.8916290" lon="10.3171470">
	<ele>1577.40</ele>
	<time>2025-07-29T10:57:23.000Z</time>
</trkpt>
<trkpt lat="45.8916450" lon="10.3171500">
	<ele>1577.40</ele>
	<time>2025-07-29T10:57:24.000Z</time>
</trkpt>
<trkpt lat="45.8916670" lon="10.3171530">
	<ele>1577.40</ele>
	<time>2025-07-29T10:57:25.000Z</time>
</trkpt>
<trkpt lat="45.8916860" lon="10.3171560">
	<ele>1577.20</ele>
	<time>2025-07-29T10:57:26.000Z</time>
</trkpt>
<trkpt lat="45.8916980" lon="10.3171610">
	<ele>1577.20</ele>
	<time>2025-07-29T10:57:27.000Z</time>
</trkpt>
<trkpt lat="45.8917150" lon="10.3171560">
	<ele>1577.00</ele>
	<time>2025-07-29T10:57:28.000Z</time>
</trkpt>
<trkpt lat="45.8917310" lon="10.3171500">
	<ele>1576.80</ele>
	<time>2025-07-29T10:57:29.000Z</time>
</trkpt>
<trkpt lat="45.8917380" lon="10.3171510">
	<ele>1576.60</ele>
	<time>2025-07-29T10:57:30.000Z</time>
</trkpt>
<trkpt lat="45.8917440" lon="10.3171520">
	<ele>1576.60</ele>
	<time>2025-07-29T10:57:31.000Z</time>
</trkpt>
<trkpt lat="45.8917440" lon="10.3171490">
	<ele>1576.60</ele>
	<time>2025-07-29T10:57:32.000Z</time>
</trkpt>
<trkpt lat="45.8917420" lon="10.3171470">
	<ele>1576.60</ele>
	<time>2025-07-29T10:57:33.000Z</time>
</trkpt>
<trkpt lat="45.8917390" lon="10.3171430">
	<ele>1576.40</ele>
	<time>2025-07-29T10:57:34.000Z</time>
</trkpt>
<trkpt lat="45.8917350" lon="10.3171340">
	<ele>1576.40</ele>
	<time>2025-07-29T10:57:35.000Z</time>
</trkpt>
<trkpt lat="45.8917330" lon="10.3171340">
	<ele>1576.40</ele>
	<time>2025-07-29T10:57:36.000Z</time>
</trkpt>
<trkpt lat="45.8917320" lon="10.3171340">
	<ele>1576.40</ele>
	<time>2025-07-29T10:57:37.000Z</time>
</trkpt>
<trkpt lat="45.8917330" lon="10.3171320">
	<ele>1576.40</ele>
	<time>2025-07-29T10:57:38.000Z</time>
</trkpt>
<trkpt lat="45.8917340" lon="10.3171290">
	<ele>1576.40</ele>
	<time>2025-07-29T10:57:39.000Z</time>
</trkpt>
<trkpt lat="45.8917340" lon="10.3171290">
	<ele>1576.40</ele>
	<time>2025-07-29T10:57:40.000Z</time>
</trkpt>
<trkpt lat="45.8917340" lon="10.3171290">
	<ele>1576.40</ele>
	<time>2025-07-29T10:57:41.000Z</time>
</trkpt>
<trkpt lat="45.8917340" lon="10.3171290">
	<ele>1576.40</ele>
	<time>2025-07-29T10:57:42.000Z</time>
</trkpt>
<trkpt lat="45.8917340" lon="10.3171290">
	<ele>1576.20</ele>
	<time>2025-07-29T10:57:43.000Z</time>
</trkpt>
<trkpt lat="45.8917340" lon="10.3171290">
	<ele>1576.20</ele>
	<time>2025-07-29T10:57:44.000Z</time>
</trkpt>
<trkpt lat="45.8917350" lon="10.3171320">
	<ele>1576.20</ele>
	<time>2025-07-29T10:57:45.000Z</time>
</trkpt>
<trkpt lat="45.8917400" lon="10.3171430">
	<ele>1576.20</ele>
	<time>2025-07-29T10:57:46.000Z</time>
</trkpt>
<trkpt lat="45.8917440" lon="10.3171520">
	<ele>1576.20</ele>
	<time>2025-07-29T10:57:47.000Z</time>
</trkpt>
<trkpt lat="45.8917510" lon="10.3171530">
	<ele>1576.20</ele>
	<time>2025-07-29T10:57:48.000Z</time>
</trkpt>
<trkpt lat="45.8917620" lon="10.3171460">
	<ele>1576.20</ele>
	<time>2025-07-29T10:57:49.000Z</time>
</trkpt>
<trkpt lat="45.8917650" lon="10.3171480">
	<ele>1576.20</ele>
	<time>2025-07-29T10:57:50.000Z</time>
</trkpt>
<trkpt lat="45.8917680" lon="10.3171490">
	<ele>1576.20</ele>
	<time>2025-07-29T10:57:51.000Z</time>
</trkpt>
<trkpt lat="45.8917690" lon="10.3171460">
	<ele>1576.20</ele>
	<time>2025-07-29T10:57:52.000Z</time>
</trkpt>
<trkpt lat="45.8917680" lon="10.3171470">
	<ele>1576.20</ele>
	<time>2025-07-29T10:57:53.000Z</time>
</trkpt>
<trkpt lat="45.8917670" lon="10.3171520">
	<ele>1576.20</ele>
	<time>2025-07-29T10:57:54.000Z</time>
</trkpt>
<trkpt lat="45.8917620" lon="10.3171540">
	<ele>1576.20</ele>
	<time>2025-07-29T10:57:55.000Z</time>
</trkpt>
<trkpt lat="45.8917570" lon="10.3171510">
	<ele>1576.40</ele>
	<time>2025-07-29T10:57:56.000Z</time>
</trkpt>
<trkpt lat="45.8917470" lon="10.3171430">
	<ele>1576.40</ele>
	<time>2025-07-29T10:57:57.000Z</time>
</trkpt>
<trkpt lat="45.8917390" lon="10.3171370">
	<ele>1576.60</ele>
	<time>2025-07-29T10:57:58.000Z</time>
</trkpt>
<trkpt lat="45.8917280" lon="10.3171290">
	<ele>1576.60</ele>
	<time>2025-07-29T10:57:59.000Z</time>
</trkpt>
<trkpt lat="45.8917200" lon="10.3171240">
	<ele>1576.80</ele>
	<time>2025-07-29T10:58:00.000Z</time>
</trkpt>
<trkpt lat="45.8917110" lon="10.3171280">
	<ele>1576.80</ele>
	<time>2025-07-29T10:58:01.000Z</time>
</trkpt>
<trkpt lat="45.8917050" lon="10.3171350">
	<ele>1577.60</ele>
	<time>2025-07-29T10:58:02.000Z</time>
</trkpt>
<trkpt lat="45.8917040" lon="10.3171390">
	<ele>1577.60</ele>
	<time>2025-07-29T10:58:03.000Z</time>
</trkpt>
<trkpt lat="45.8917040" lon="10.3171390">
	<ele>1577.60</ele>
	<time>2025-07-29T10:58:04.000Z</time>
</trkpt>
<trkpt lat="45.8917040" lon="10.3171390">
	<ele>1577.60</ele>
	<time>2025-07-29T10:58:05.000Z</time>
</trkpt>
<trkpt lat="45.8917040" lon="10.3171390">
	<ele>1577.60</ele>
	<time>2025-07-29T10:58:06.000Z</time>
</trkpt>
<trkpt lat="45.8917040" lon="10.3171390">
	<ele>1577.60</ele>
	<time>2025-07-29T10:58:07.000Z</time>
</trkpt>
<trkpt lat="45.8917040" lon="10.3171390">
	<ele>1577.60</ele>
	<time>2025-07-29T10:58:08.000Z</time>
</trkpt>
<trkpt lat="45.8917040" lon="10.3171390">
	<ele>1577.60</ele>
	<time>2025-07-29T10:58:09.000Z</time>
</trkpt>
<trkpt lat="45.8917040" lon="10.3171390">
	<ele>1577.60</ele>
	<time>2025-07-29T10:58:10.000Z</time>
</trkpt>
<trkpt lat="45.8917040" lon="10.3171390">
	<ele>1577.60</ele>
	<time>2025-07-29T10:58:11.000Z</time>
</trkpt>
<trkpt lat="45.8917080" lon="10.3171390">
	<ele>1577.60</ele>
	<time>2025-07-29T10:58:12.000Z</time>
</trkpt>
<trkpt lat="45.8917260" lon="10.3171360">
	<ele>1577.60</ele>
	<time>2025-07-29T10:58:13.000Z</time>
</trkpt>
<trkpt lat="45.8917390" lon="10.3171300">
	<ele>1577.60</ele>
	<time>2025-07-29T10:58:14.000Z</time>
</trkpt>
<trkpt lat="45.8917480" lon="10.3171220">
	<ele>1577.60</ele>
	<time>2025-07-29T10:58:15.000Z</time>
</trkpt>
<trkpt lat="45.8917580" lon="10.3171210">
	<ele>1577.60</ele>
	<time>2025-07-29T10:58:16.000Z</time>
</trkpt>
<trkpt lat="45.8917650" lon="10.3171210">
	<ele>1577.60</ele>
	<time>2025-07-29T10:58:17.000Z</time>
</trkpt>
<trkpt lat="45.8917700" lon="10.3171190">
	<ele>1577.60</ele>
	<time>2025-07-29T10:58:18.000Z</time>
</trkpt>
<trkpt lat="45.8917740" lon="10.3171190">
	<ele>1577.60</ele>
	<time>2025-07-29T10:58:19.000Z</time>
</trkpt>
<trkpt lat="45.8917800" lon="10.3171190">
	<ele>1577.20</ele>
	<time>2025-07-29T10:58:20.000Z</time>
</trkpt>
<trkpt lat="45.8917860" lon="10.3171150">
	<ele>1577.00</ele>
	<time>2025-07-29T10:58:21.000Z</time>
</trkpt>
<trkpt lat="45.8917960" lon="10.3171110">
	<ele>1577.00</ele>
	<time>2025-07-29T10:58:22.000Z</time>
</trkpt>
<trkpt lat="45.8918100" lon="10.3171000">
	<ele>1577.00</ele>
	<time>2025-07-29T10:58:23.000Z</time>
</trkpt>
<trkpt lat="45.8918220" lon="10.3170880">
	<ele>1577.00</ele>
	<time>2025-07-29T10:58:24.000Z</time>
</trkpt>
<trkpt lat="45.8918320" lon="10.3170780">
	<ele>1577.00</ele>
	<time>2025-07-29T10:58:25.000Z</time>
</trkpt>
<trkpt lat="45.8918420" lon="10.3170700">
	<ele>1577.00</ele>
	<time>2025-07-29T10:58:26.000Z</time>
</trkpt>
<trkpt lat="45.8918550" lon="10.3170660">
	<ele>1577.20</ele>
	<time>2025-07-29T10:58:27.000Z</time>
</trkpt>
<trkpt lat="45.8918680" lon="10.3170610">
	<ele>1577.20</ele>
	<time>2025-07-29T10:58:28.000Z</time>
</trkpt>
<trkpt lat="45.8918830" lon="10.3170610">
	<ele>1577.20</ele>
	<time>2025-07-29T10:58:29.000Z</time>
</trkpt>
<trkpt lat="45.8918990" lon="10.3170600">
	<ele>1577.20</ele>
	<time>2025-07-29T10:58:30.000Z</time>
</trkpt>
<trkpt lat="45.8919170" lon="10.3170630">
	<ele>1577.20</ele>
	<time>2025-07-29T10:58:31.000Z</time>
</trkpt>
<trkpt lat="45.8919270" lon="10.3170650">
	<ele>1577.20</ele>
	<time>2025-07-29T10:58:32.000Z</time>
</trkpt>
<trkpt lat="45.8919380" lon="10.3170660">
	<ele>1577.00</ele>
	<time>2025-07-29T10:58:33.000Z</time>
</trkpt>
<trkpt lat="45.8919490" lon="10.3170710">
	<ele>1577.00</ele>
	<time>2025-07-29T10:58:34.000Z</time>
</trkpt>
<trkpt lat="45.8919630" lon="10.3170790">
	<ele>1576.80</ele>
	<time>2025-07-29T10:58:35.000Z</time>
</trkpt>
<trkpt lat="45.8919730" lon="10.3170810">
	<ele>1576.80</ele>
	<time>2025-07-29T10:58:36.000Z</time>
</trkpt>
<trkpt lat="45.8919850" lon="10.3170730">
	<ele>1576.60</ele>
	<time>2025-07-29T10:58:37.000Z</time>
</trkpt>
<trkpt lat="45.8920040" lon="10.3170610">
	<ele>1576.40</ele>
	<time>2025-07-29T10:58:38.000Z</time>
</trkpt>
<trkpt lat="45.8920180" lon="10.3170540">
	<ele>1576.40</ele>
	<time>2025-07-29T10:58:39.000Z</time>
</trkpt>
<trkpt lat="45.8920300" lon="10.3170500">
	<ele>1576.40</ele>
	<time>2025-07-29T10:58:40.000Z</time>
</trkpt>
<trkpt lat="45.8920420" lon="10.3170440">
	<ele>1576.20</ele>
	<time>2025-07-29T10:58:41.000Z</time>
</trkpt>
<trkpt lat="45.8920530" lon="10.3170380">
	<ele>1576.20</ele>
	<time>2025-07-29T10:58:42.000Z</time>
</trkpt>
<trkpt lat="45.8920660" lon="10.3170350">
	<ele>1576.20</ele>
	<time>2025-07-29T10:58:43.000Z</time>
</trkpt>
<trkpt lat="45.8920740" lon="10.3170320">
	<ele>1576.20</ele>
	<time>2025-07-29T10:58:44.000Z</time>
</trkpt>
<trkpt lat="45.8920860" lon="10.3170320">
	<ele>1576.20</ele>
	<time>2025-07-29T10:58:45.000Z</time>
</trkpt>
<trkpt lat="45.8920900" lon="10.3170280">
	<ele>1576.00</ele>
	<time>2025-07-29T10:58:46.000Z</time>
</trkpt>
<trkpt lat="45.8920900" lon="10.3170260">
	<ele>1575.80</ele>
	<time>2025-07-29T10:58:47.000Z</time>
</trkpt>
<trkpt lat="45.8920870" lon="10.3170300">
	<ele>1575.80</ele>
	<time>2025-07-29T10:58:48.000Z</time>
</trkpt>
<trkpt lat="45.8920880" lon="10.3170340">
	<ele>1575.80</ele>
	<time>2025-07-29T10:58:49.000Z</time>
</trkpt>
<trkpt lat="45.8920870" lon="10.3170380">
	<ele>1575.60</ele>
	<time>2025-07-29T10:58:50.000Z</time>
</trkpt>
<trkpt lat="45.8920850" lon="10.3170410">
	<ele>1575.40</ele>
	<time>2025-07-29T10:58:51.000Z</time>
</trkpt>
<trkpt lat="45.8920840" lon="10.3170340">
	<ele>1575.20</ele>
	<time>2025-07-29T10:58:52.000Z</time>
</trkpt>
<trkpt lat="45.8920890" lon="10.3170350">
	<ele>1575.20</ele>
	<time>2025-07-29T10:58:53.000Z</time>
</trkpt>
<trkpt lat="45.8920940" lon="10.3170410">
	<ele>1574.80</ele>
	<time>2025-07-29T10:58:54.000Z</time>
</trkpt>
<trkpt lat="45.8920990" lon="10.3170460">
	<ele>1574.40</ele>
	<time>2025-07-29T10:58:55.000Z</time>
</trkpt>
<trkpt lat="45.8921030" lon="10.3170530">
	<ele>1574.00</ele>
	<time>2025-07-29T10:58:56.000Z</time>
</trkpt>
<trkpt lat="45.8921090" lon="10.3170590">
	<ele>1573.80</ele>
	<time>2025-07-29T10:58:57.000Z</time>
</trkpt>
<trkpt lat="45.8921150" lon="10.3170630">
	<ele>1573.40</ele>
	<time>2025-07-29T10:58:58.000Z</time>
</trkpt>
<trkpt lat="45.8921200" lon="10.3170690">
	<ele>1573.20</ele>
	<time>2025-07-29T10:58:59.000Z</time>
</trkpt>
<trkpt lat="45.8921200" lon="10.3170770">
	<ele>1573.00</ele>
	<time>2025-07-29T10:59:00.000Z</time>
</trkpt>
<trkpt lat="45.8921180" lon="10.3170870">
	<ele>1572.80</ele>
	<time>2025-07-29T10:59:01.000Z</time>
</trkpt>
<trkpt lat="45.8921180" lon="10.3170930">
	<ele>1572.60</ele>
	<time>2025-07-29T10:59:02.000Z</time>
</trkpt>
<trkpt lat="45.8921190" lon="10.3170980">
	<ele>1572.20</ele>
	<time>2025-07-29T10:59:03.000Z</time>
</trkpt>
<trkpt lat="45.8921200" lon="10.3171020">
	<ele>1572.00</ele>
	<time>2025-07-29T10:59:04.000Z</time>
</trkpt>
<trkpt lat="45.8921190" lon="10.3171060">
	<ele>1571.60</ele>
	<time>2025-07-29T10:59:05.000Z</time>
</trkpt>
<trkpt lat="45.8921170" lon="10.3171130">
	<ele>1571.20</ele>
	<time>2025-07-29T10:59:06.000Z</time>
</trkpt>
<trkpt lat="45.8921130" lon="10.3171210">
	<ele>1571.00</ele>
	<time>2025-07-29T10:59:07.000Z</time>
</trkpt>
<trkpt lat="45.8921120" lon="10.3171220">
	<ele>1570.80</ele>
	<time>2025-07-29T10:59:08.000Z</time>
</trkpt>
<trkpt lat="45.8921100" lon="10.3171270">
	<ele>1570.60</ele>
	<time>2025-07-29T10:59:09.000Z</time>
</trkpt>
<trkpt lat="45.8921060" lon="10.3171300">
	<ele>1570.40</ele>
	<time>2025-07-29T10:59:10.000Z</time>
</trkpt>
<trkpt lat="45.8921060" lon="10.3171330">
	<ele>1570.00</ele>
	<time>2025-07-29T10:59:11.000Z</time>
</trkpt>
<trkpt lat="45.8921100" lon="10.3171450">
	<ele>1569.80</ele>
	<time>2025-07-29T10:59:12.000Z</time>
</trkpt>
<trkpt lat="45.8921170" lon="10.3171550">
	<ele>1569.40</ele>
	<time>2025-07-29T10:59:13.000Z</time>
</trkpt>
<trkpt lat="45.8921240" lon="10.3171640">
	<ele>1569.40</ele>
	<time>2025-07-29T10:59:14.000Z</time>
</trkpt>
<trkpt lat="45.8921250" lon="10.3171700">
	<ele>1569.20</ele>
	<time>2025-07-29T10:59:15.000Z</time>
</trkpt>
<trkpt lat="45.8921340" lon="10.3171760">
	<ele>1569.00</ele>
	<time>2025-07-29T10:59:16.000Z</time>
</trkpt>
<trkpt lat="45.8921390" lon="10.3171820">
	<ele>1568.60</ele>
	<time>2025-07-29T10:59:17.000Z</time>
</trkpt>
<trkpt lat="45.8921430" lon="10.3171990">
	<ele>1568.20</ele>
	<time>2025-07-29T10:59:18.000Z</time>
</trkpt>
<trkpt lat="45.8921500" lon="10.3172240">
	<ele>1568.00</ele>
	<time>2025-07-29T10:59:19.000Z</time>
</trkpt>
<trkpt lat="45.8921550" lon="10.3172300">
	<ele>1567.40</ele>
	<time>2025-07-29T10:59:20.000Z</time>
</trkpt>
<trkpt lat="45.8921610" lon="10.3172300">
	<ele>1567.20</ele>
	<time>2025-07-29T10:59:21.000Z</time>
</trkpt>
<trkpt lat="45.8921670" lon="10.3172360">
	<ele>1567.00</ele>
	<time>2025-07-29T10:59:22.000Z</time>
</trkpt>
<trkpt lat="45.8921770" lon="10.3172450">
	<ele>1566.80</ele>
	<time>2025-07-29T10:59:23.000Z</time>
</trkpt>
<trkpt lat="45.8921810" lon="10.3172420">
	<ele>1566.60</ele>
	<time>2025-07-29T10:59:24.000Z</time>
</trkpt>
<trkpt lat="45.8921770" lon="10.3172430">
	<ele>1566.40</ele>
	<time>2025-07-29T10:59:25.000Z</time>
</trkpt>
<trkpt lat="45.8921750" lon="10.3172420">
	<ele>1566.00</ele>
	<time>2025-07-29T10:59:26.000Z</time>
</trkpt>
<trkpt lat="45.8921830" lon="10.3172520">
	<ele>1565.80</ele>
	<time>2025-07-29T10:59:27.000Z</time>
</trkpt>
<trkpt lat="45.8921860" lon="10.3172530">
	<ele>1565.40</ele>
	<time>2025-07-29T10:59:28.000Z</time>
</trkpt>
<trkpt lat="45.8921930" lon="10.3172680">
	<ele>1565.20</ele>
	<time>2025-07-29T10:59:29.000Z</time>
</trkpt>
<trkpt lat="45.8922010" lon="10.3172880">
	<ele>1565.20</ele>
	<time>2025-07-29T10:59:30.000Z</time>
</trkpt>
<trkpt lat="45.8922140" lon="10.3173090">
	<ele>1565.00</ele>
	<time>2025-07-29T10:59:31.000Z</time>
</trkpt>
<trkpt lat="45.8922160" lon="10.3173120">
	<ele>1564.80</ele>
	<time>2025-07-29T10:59:32.000Z</time>
</trkpt>
<trkpt lat="45.8922170" lon="10.3173120">
	<ele>1564.80</ele>
	<time>2025-07-29T10:59:33.000Z</time>
</trkpt>
<trkpt lat="45.8922250" lon="10.3173260">
	<ele>1564.60</ele>
	<time>2025-07-29T10:59:34.000Z</time>
</trkpt>
<trkpt lat="45.8922250" lon="10.3173280">
	<ele>1564.40</ele>
	<time>2025-07-29T10:59:35.000Z</time>
</trkpt>
<trkpt lat="45.8922250" lon="10.3173320">
	<ele>1564.20</ele>
	<time>2025-07-29T10:59:36.000Z</time>
</trkpt>
<trkpt lat="45.8922240" lon="10.3173330">
	<ele>1564.20</ele>
	<time>2025-07-29T10:59:37.000Z</time>
</trkpt>
<trkpt lat="45.8922230" lon="10.3173350">
	<ele>1564.20</ele>
	<time>2025-07-29T10:59:38.000Z</time>
</trkpt>
<trkpt lat="45.8922210" lon="10.3173230">
	<ele>1564.20</ele>
	<time>2025-07-29T10:59:39.000Z</time>
</trkpt>
<trkpt lat="45.8922180" lon="10.3173200">
	<ele>1564.00</ele>
	<time>2025-07-29T10:59:40.000Z</time>
</trkpt>
<trkpt lat="45.8922200" lon="10.3173340">
	<ele>1564.00</ele>
	<time>2025-07-29T10:59:41.000Z</time>
</trkpt>
<trkpt lat="45.8922270" lon="10.3173520">
	<ele>1564.00</ele>
	<time>2025-07-29T10:59:42.000Z</time>
</trkpt>
<trkpt lat="45.8922280" lon="10.3173540">
	<ele>1564.00</ele>
	<time>2025-07-29T10:59:43.000Z</time>
</trkpt>
<trkpt lat="45.8922280" lon="10.3173560">
	<ele>1564.00</ele>
	<time>2025-07-29T10:59:44.000Z</time>
</trkpt>
<trkpt lat="45.8922430" lon="10.3173740">
	<ele>1564.00</ele>
	<time>2025-07-29T10:59:45.000Z</time>
</trkpt>
<trkpt lat="45.8922430" lon="10.3173780">
	<ele>1564.00</ele>
	<time>2025-07-29T10:59:46.000Z</time>
</trkpt>
<trkpt lat="45.8922430" lon="10.3173810">
	<ele>1564.00</ele>
	<time>2025-07-29T10:59:47.000Z</time>
</trkpt>
<trkpt lat="45.8922420" lon="10.3173830">
	<ele>1564.20</ele>
	<time>2025-07-29T10:59:48.000Z</time>
</trkpt>
<trkpt lat="45.8922470" lon="10.3173860">
	<ele>1564.20</ele>
	<time>2025-07-29T10:59:49.000Z</time>
</trkpt>
<trkpt lat="45.8922500" lon="10.3173890">
	<ele>1564.20</ele>
	<time>2025-07-29T10:59:50.000Z</time>
</trkpt>
<trkpt lat="45.8922520" lon="10.3173910">
	<ele>1564.20</ele>
	<time>2025-07-29T10:59:51.000Z</time>
</trkpt>
<trkpt lat="45.8922560" lon="10.3173960">
	<ele>1564.20</ele>
	<time>2025-07-29T10:59:52.000Z</time>
</trkpt>
<trkpt lat="45.8922610" lon="10.3173990">
	<ele>1564.00</ele>
	<time>2025-07-29T10:59:53.000Z</time>
</trkpt>
<trkpt lat="45.8922640" lon="10.3174010">
	<ele>1564.00</ele>
	<time>2025-07-29T10:59:54.000Z</time>
</trkpt>
<trkpt lat="45.8922610" lon="10.3174040">
	<ele>1563.80</ele>
	<time>2025-07-29T10:59:55.000Z</time>
</trkpt>
<trkpt lat="45.8922590" lon="10.3174110">
	<ele>1563.80</ele>
	<time>2025-07-29T10:59:56.000Z</time>
</trkpt>
<trkpt lat="45.8922620" lon="10.3174150">
	<ele>1563.60</ele>
	<time>2025-07-29T10:59:57.000Z</time>
</trkpt>
<trkpt lat="45.8922700" lon="10.3174150">
	<ele>1563.60</ele>
	<time>2025-07-29T10:59:58.000Z</time>
</trkpt>
<trkpt lat="45.8922750" lon="10.3174150">
	<ele>1563.60</ele>
	<time>2025-07-29T10:59:59.000Z</time>
</trkpt>
<trkpt lat="45.8922840" lon="10.3174180">
	<ele>1563.20</ele>
	<time>2025-07-29T11:00:00.000Z</time>
</trkpt>
<trkpt lat="45.8922870" lon="10.3174210">
	<ele>1563.00</ele>
	<time>2025-07-29T11:00:01.000Z</time>
</trkpt>
<trkpt lat="45.8922970" lon="10.3174410">
	<ele>1562.60</ele>
	<time>2025-07-29T11:00:02.000Z</time>
</trkpt>
<trkpt lat="45.8923070" lon="10.3174580">
	<ele>1562.40</ele>
	<time>2025-07-29T11:00:03.000Z</time>
</trkpt>
<trkpt lat="45.8923130" lon="10.3174740">
	<ele>1562.20</ele>
	<time>2025-07-29T11:00:04.000Z</time>
</trkpt>
<trkpt lat="45.8923160" lon="10.3174860">
	<ele>1561.80</ele>
	<time>2025-07-29T11:00:05.000Z</time>
</trkpt>
<trkpt lat="45.8923230" lon="10.3174930">
	<ele>1561.60</ele>
	<time>2025-07-29T11:00:06.000Z</time>
</trkpt>
<trkpt lat="45.8923240" lon="10.3174980">
	<ele>1561.60</ele>
	<time>2025-07-29T11:00:07.000Z</time>
</trkpt>
<trkpt lat="45.8923260" lon="10.3175040">
	<ele>1561.00</ele>
	<time>2025-07-29T11:00:08.000Z</time>
</trkpt>
<trkpt lat="45.8923290" lon="10.3175110">
	<ele>1560.60</ele>
	<time>2025-07-29T11:00:09.000Z</time>
</trkpt>
<trkpt lat="45.8923280" lon="10.3175160">
	<ele>1560.20</ele>
	<time>2025-07-29T11:00:10.000Z</time>
</trkpt>
<trkpt lat="45.8923260" lon="10.3175220">
	<ele>1560.00</ele>
	<time>2025-07-29T11:00:11.000Z</time>
</trkpt>
<trkpt lat="45.8923280" lon="10.3175320">
	<ele>1560.00</ele>
	<time>2025-07-29T11:00:12.000Z</time>
</trkpt>
<trkpt lat="45.8923300" lon="10.3175400">
	<ele>1559.80</ele>
	<time>2025-07-29T11:00:13.000Z</time>
</trkpt>
<trkpt lat="45.8923360" lon="10.3175550">
	<ele>1559.60</ele>
	<time>2025-07-29T11:00:14.000Z</time>
</trkpt>
<trkpt lat="45.8923420" lon="10.3175620">
	<ele>1559.60</ele>
	<time>2025-07-29T11:00:15.000Z</time>
</trkpt>
<trkpt lat="45.8923510" lon="10.3175700">
	<ele>1559.40</ele>
	<time>2025-07-29T11:00:16.000Z</time>
</trkpt>
<trkpt lat="45.8923530" lon="10.3175740">
	<ele>1559.20</ele>
	<time>2025-07-29T11:00:17.000Z</time>
</trkpt>
<trkpt lat="45.8923560" lon="10.3175820">
	<ele>1559.00</ele>
	<time>2025-07-29T11:00:18.000Z</time>
</trkpt>
<trkpt lat="45.8923650" lon="10.3175950">
	<ele>1558.60</ele>
	<time>2025-07-29T11:00:19.000Z</time>
</trkpt>
<trkpt lat="45.8923780" lon="10.3176000">
	<ele>1558.40</ele>
	<time>2025-07-29T11:00:20.000Z</time>
</trkpt>
<trkpt lat="45.8923860" lon="10.3176030">
	<ele>1558.20</ele>
	<time>2025-07-29T11:00:21.000Z</time>
</trkpt>
<trkpt lat="45.8923950" lon="10.3176080">
	<ele>1557.80</ele>
	<time>2025-07-29T11:00:22.000Z</time>
</trkpt>
<trkpt lat="45.8924080" lon="10.3176080">
	<ele>1557.60</ele>
	<time>2025-07-29T11:00:23.000Z</time>
</trkpt>
<trkpt lat="45.8924260" lon="10.3176120">
	<ele>1557.40</ele>
	<time>2025-07-29T11:00:24.000Z</time>
</trkpt>
<trkpt lat="45.8924370" lon="10.3176130">
	<ele>1557.00</ele>
	<time>2025-07-29T11:00:25.000Z</time>
</trkpt>
<trkpt lat="45.8924460" lon="10.3176120">
	<ele>1556.80</ele>
	<time>2025-07-29T11:00:26.000Z</time>
</trkpt>
<trkpt lat="45.8924530" lon="10.3176140">
	<ele>1556.60</ele>
	<time>2025-07-29T11:00:27.000Z</time>
</trkpt>
<trkpt lat="45.8924540" lon="10.3176230">
	<ele>1556.20</ele>
	<time>2025-07-29T11:00:28.000Z</time>
</trkpt>
<trkpt lat="45.8924540" lon="10.3176360">
	<ele>1556.00</ele>
	<time>2025-07-29T11:00:29.000Z</time>
</trkpt>
<trkpt lat="45.8924600" lon="10.3176490">
	<ele>1555.60</ele>
	<time>2025-07-29T11:00:30.000Z</time>
</trkpt>
<trkpt lat="45.8924680" lon="10.3176530">
	<ele>1555.40</ele>
	<time>2025-07-29T11:00:31.000Z</time>
</trkpt>
<trkpt lat="45.8924770" lon="10.3176520">
	<ele>1555.20</ele>
	<time>2025-07-29T11:00:32.000Z</time>
</trkpt>
<trkpt lat="45.8924860" lon="10.3176430">
	<ele>1555.00</ele>
	<time>2025-07-29T11:00:33.000Z</time>
</trkpt>
<trkpt lat="45.8924970" lon="10.3176380">
	<ele>1554.60</ele>
	<time>2025-07-29T11:00:34.000Z</time>
</trkpt>
<trkpt lat="45.8925040" lon="10.3176380">
	<ele>1554.60</ele>
	<time>2025-07-29T11:00:35.000Z</time>
</trkpt>
<trkpt lat="45.8925080" lon="10.3176440">
	<ele>1554.20</ele>
	<time>2025-07-29T11:00:36.000Z</time>
</trkpt>
<trkpt lat="45.8925160" lon="10.3176480">
	<ele>1554.00</ele>
	<time>2025-07-29T11:00:37.000Z</time>
</trkpt>
<trkpt lat="45.8925290" lon="10.3176540">
	<ele>1553.80</ele>
	<time>2025-07-29T11:00:38.000Z</time>
</trkpt>
<trkpt lat="45.8925380" lon="10.3176580">
	<ele>1553.40</ele>
	<time>2025-07-29T11:00:39.000Z</time>
</trkpt>
<trkpt lat="45.8925520" lon="10.3176580">
	<ele>1553.20</ele>
	<time>2025-07-29T11:00:40.000Z</time>
</trkpt>
<trkpt lat="45.8925630" lon="10.3176570">
	<ele>1553.00</ele>
	<time>2025-07-29T11:00:41.000Z</time>
</trkpt>
<trkpt lat="45.8925720" lon="10.3176550">
	<ele>1552.60</ele>
	<time>2025-07-29T11:00:42.000Z</time>
</trkpt>
<trkpt lat="45.8925750" lon="10.3176520">
	<ele>1552.40</ele>
	<time>2025-07-29T11:00:43.000Z</time>
</trkpt>
<trkpt lat="45.8925760" lon="10.3176510">
	<ele>1552.40</ele>
	<time>2025-07-29T11:00:44.000Z</time>
</trkpt>
<trkpt lat="45.8925820" lon="10.3176600">
	<ele>1552.00</ele>
	<time>2025-07-29T11:00:45.000Z</time>
</trkpt>
<trkpt lat="45.8925890" lon="10.3176630">
	<ele>1551.80</ele>
	<time>2025-07-29T11:00:46.000Z</time>
</trkpt>
<trkpt lat="45.8925980" lon="10.3176650">
	<ele>1551.60</ele>
	<time>2025-07-29T11:00:47.000Z</time>
</trkpt>
<trkpt lat="45.8926080" lon="10.3176690">
	<ele>1551.40</ele>
	<time>2025-07-29T11:00:48.000Z</time>
</trkpt>
<trkpt lat="45.8926200" lon="10.3176730">
	<ele>1551.20</ele>
	<time>2025-07-29T11:00:49.000Z</time>
</trkpt>
<trkpt lat="45.8926300" lon="10.3176790">
	<ele>1550.80</ele>
	<time>2025-07-29T11:00:50.000Z</time>
</trkpt>
<trkpt lat="45.8926370" lon="10.3176900">
	<ele>1550.60</ele>
	<time>2025-07-29T11:00:51.000Z</time>
</trkpt>
<trkpt lat="45.8926430" lon="10.3176970">
	<ele>1550.60</ele>
	<time>2025-07-29T11:00:52.000Z</time>
</trkpt>
<trkpt lat="45.8926530" lon="10.3177050">
	<ele>1550.40</ele>
	<time>2025-07-29T11:00:53.000Z</time>
</trkpt>
<trkpt lat="45.8926600" lon="10.3177090">
	<ele>1550.20</ele>
	<time>2025-07-29T11:00:54.000Z</time>
</trkpt>
<trkpt lat="45.8926670" lon="10.3177110">
	<ele>1549.80</ele>
	<time>2025-07-29T11:00:55.000Z</time>
</trkpt>
<trkpt lat="45.8926700" lon="10.3177140">
	<ele>1549.60</ele>
	<time>2025-07-29T11:00:56.000Z</time>
</trkpt>
<trkpt lat="45.8926780" lon="10.3177130">
	<ele>1549.40</ele>
	<time>2025-07-29T11:00:57.000Z</time>
</trkpt>
<trkpt lat="45.8926830" lon="10.3177140">
	<ele>1549.00</ele>
	<time>2025-07-29T11:00:58.000Z</time>
</trkpt>
<trkpt lat="45.8926880" lon="10.3177080">
	<ele>1548.60</ele>
	<time>2025-07-29T11:00:59.000Z</time>
</trkpt>
<trkpt lat="45.8926930" lon="10.3177030">
	<ele>1548.40</ele>
	<time>2025-07-29T11:01:00.000Z</time>
</trkpt>
<trkpt lat="45.8927000" lon="10.3177040">
	<ele>1548.20</ele>
	<time>2025-07-29T11:01:01.000Z</time>
</trkpt>
<trkpt lat="45.8927110" lon="10.3177070">
	<ele>1547.80</ele>
	<time>2025-07-29T11:01:02.000Z</time>
</trkpt>
<trkpt lat="45.8927150" lon="10.3177110">
	<ele>1547.40</ele>
	<time>2025-07-29T11:01:03.000Z</time>
</trkpt>
<trkpt lat="45.8927280" lon="10.3177170">
	<ele>1547.20</ele>
	<time>2025-07-29T11:01:04.000Z</time>
</trkpt>
<trkpt lat="45.8927340" lon="10.3177230">
	<ele>1547.00</ele>
	<time>2025-07-29T11:01:05.000Z</time>
</trkpt>
<trkpt lat="45.8927380" lon="10.3177200">
	<ele>1546.80</ele>
	<time>2025-07-29T11:01:06.000Z</time>
</trkpt>
<trkpt lat="45.8927450" lon="10.3177300">
	<ele>1546.40</ele>
	<time>2025-07-29T11:01:07.000Z</time>
</trkpt>
<trkpt lat="45.8927540" lon="10.3177330">
	<ele>1546.20</ele>
	<time>2025-07-29T11:01:08.000Z</time>
</trkpt>
<trkpt lat="45.8927660" lon="10.3177280">
	<ele>1546.00</ele>
	<time>2025-07-29T11:01:09.000Z</time>
</trkpt>
<trkpt lat="45.8927760" lon="10.3177230">
	<ele>1545.80</ele>
	<time>2025-07-29T11:01:10.000Z</time>
</trkpt>
<trkpt lat="45.8927830" lon="10.3177200">
	<ele>1545.60</ele>
	<time>2025-07-29T11:01:11.000Z</time>
</trkpt>
<trkpt lat="45.8927870" lon="10.3177180">
	<ele>1545.40</ele>
	<time>2025-07-29T11:01:12.000Z</time>
</trkpt>
<trkpt lat="45.8927870" lon="10.3177010">
	<ele>1545.20</ele>
	<time>2025-07-29T11:01:13.000Z</time>
</trkpt>
<trkpt lat="45.8927890" lon="10.3176940">
	<ele>1545.00</ele>
	<time>2025-07-29T11:01:14.000Z</time>
</trkpt>
<trkpt lat="45.8928020" lon="10.3176920">
	<ele>1544.80</ele>
	<time>2025-07-29T11:01:15.000Z</time>
</trkpt>
<trkpt lat="45.8928180" lon="10.3176920">
	<ele>1544.40</ele>
	<time>2025-07-29T11:01:16.000Z</time>
</trkpt>
<trkpt lat="45.8928320" lon="10.3176890">
	<ele>1544.20</ele>
	<time>2025-07-29T11:01:17.000Z</time>
</trkpt>
<trkpt lat="45.8928450" lon="10.3176850">
	<ele>1544.00</ele>
	<time>2025-07-29T11:01:18.000Z</time>
</trkpt>
<trkpt lat="45.8928490" lon="10.3176730">
	<ele>1543.80</ele>
	<time>2025-07-29T11:01:19.000Z</time>
</trkpt>
<trkpt lat="45.8928550" lon="10.3176630">
	<ele>1543.40</ele>
	<time>2025-07-29T11:01:20.000Z</time>
</trkpt>
<trkpt lat="45.8928640" lon="10.3176590">
	<ele>1543.20</ele>
	<time>2025-07-29T11:01:21.000Z</time>
</trkpt>
<trkpt lat="45.8928700" lon="10.3176540">
	<ele>1543.00</ele>
	<time>2025-07-29T11:01:22.000Z</time>
</trkpt>
<trkpt lat="45.8928740" lon="10.3176490">
	<ele>1542.60</ele>
	<time>2025-07-29T11:01:23.000Z</time>
</trkpt>
<trkpt lat="45.8928810" lon="10.3176450">
	<ele>1542.40</ele>
	<time>2025-07-29T11:01:24.000Z</time>
</trkpt>
<trkpt lat="45.8928890" lon="10.3176400">
	<ele>1542.20</ele>
	<time>2025-07-29T11:01:25.000Z</time>
</trkpt>
<trkpt lat="45.8928980" lon="10.3176360">
	<ele>1541.80</ele>
	<time>2025-07-29T11:01:26.000Z</time>
</trkpt>
<trkpt lat="45.8929090" lon="10.3176300">
	<ele>1541.60</ele>
	<time>2025-07-29T11:01:27.000Z</time>
</trkpt>
<trkpt lat="45.8929130" lon="10.3176260">
	<ele>1541.40</ele>
	<time>2025-07-29T11:01:28.000Z</time>
</trkpt>
<trkpt lat="45.8929190" lon="10.3176200">
	<ele>1541.20</ele>
	<time>2025-07-29T11:01:29.000Z</time>
</trkpt>
<trkpt lat="45.8929230" lon="10.3176180">
	<ele>1541.00</ele>
	<time>2025-07-29T11:01:30.000Z</time>
</trkpt>
<trkpt lat="45.8929290" lon="10.3176230">
	<ele>1540.80</ele>
	<time>2025-07-29T11:01:31.000Z</time>
</trkpt>
<trkpt lat="45.8929370" lon="10.3176330">
	<ele>1540.60</ele>
	<time>2025-07-29T11:01:32.000Z</time>
</trkpt>
<trkpt lat="45.8929470" lon="10.3176410">
	<ele>1540.40</ele>
	<time>2025-07-29T11:01:33.000Z</time>
</trkpt>
<trkpt lat="45.8929580" lon="10.3176430">
	<ele>1540.00</ele>
	<time>2025-07-29T11:01:34.000Z</time>
</trkpt>
<trkpt lat="45.8929790" lon="10.3176460">
	<ele>1540.00</ele>
	<time>2025-07-29T11:01:35.000Z</time>
</trkpt>
<trkpt lat="45.8929920" lon="10.3176440">
	<ele>1539.60</ele>
	<time>2025-07-29T11:01:36.000Z</time>
</trkpt>
<trkpt lat="45.8930030" lon="10.3176400">
	<ele>1539.40</ele>
	<time>2025-07-29T11:01:37.000Z</time>
</trkpt>
<trkpt lat="45.8930090" lon="10.3176350">
	<ele>1539.20</ele>
	<time>2025-07-29T11:01:38.000Z</time>
</trkpt>
<trkpt lat="45.8930180" lon="10.3176320">
	<ele>1539.00</ele>
	<time>2025-07-29T11:01:39.000Z</time>
</trkpt>
<trkpt lat="45.8930320" lon="10.3176320">
	<ele>1538.80</ele>
	<time>2025-07-29T11:01:40.000Z</time>
</trkpt>
<trkpt lat="45.8930410" lon="10.3176320">
	<ele>1538.60</ele>
	<time>2025-07-29T11:01:41.000Z</time>
</trkpt>
<trkpt lat="45.8930470" lon="10.3176290">
	<ele>1538.40</ele>
	<time>2025-07-29T11:01:42.000Z</time>
</trkpt>
<trkpt lat="45.8930520" lon="10.3176270">
	<ele>1538.20</ele>
	<time>2025-07-29T11:01:43.000Z</time>
</trkpt>
<trkpt lat="45.8930560" lon="10.3176270">
	<ele>1538.00</ele>
	<time>2025-07-29T11:01:44.000Z</time>
</trkpt>
<trkpt lat="45.8930640" lon="10.3176220">
	<ele>1538.00</ele>
	<time>2025-07-29T11:01:45.000Z</time>
</trkpt>
<trkpt lat="45.8930670" lon="10.3176110">
	<ele>1537.60</ele>
	<time>2025-07-29T11:01:46.000Z</time>
</trkpt>
<trkpt lat="45.8930710" lon="10.3176040">
	<ele>1537.40</ele>
	<time>2025-07-29T11:01:47.000Z</time>
</trkpt>
<trkpt lat="45.8930800" lon="10.3175950">
	<ele>1537.20</ele>
	<time>2025-07-29T11:01:48.000Z</time>
</trkpt>
<trkpt lat="45.8930870" lon="10.3175880">
	<ele>1537.00</ele>
	<time>2025-07-29T11:01:49.000Z</time>
</trkpt>
<trkpt lat="45.8930940" lon="10.3175820">
	<ele>1536.80</ele>
	<time>2025-07-29T11:01:50.000Z</time>
</trkpt>
<trkpt lat="45.8931030" lon="10.3175730">
	<ele>1536.60</ele>
	<time>2025-07-29T11:01:51.000Z</time>
</trkpt>
<trkpt lat="45.8931100" lon="10.3175720">
	<ele>1536.40</ele>
	<time>2025-07-29T11:01:52.000Z</time>
</trkpt>
<trkpt lat="45.8931160" lon="10.3175700">
	<ele>1536.00</ele>
	<time>2025-07-29T11:01:53.000Z</time>
</trkpt>
<trkpt lat="45.8931170" lon="10.3175640">
	<ele>1535.80</ele>
	<time>2025-07-29T11:01:54.000Z</time>
</trkpt>
<trkpt lat="45.8931240" lon="10.3175640">
	<ele>1535.60</ele>
	<time>2025-07-29T11:01:55.000Z</time>
</trkpt>
<trkpt lat="45.8931320" lon="10.3175640">
	<ele>1535.20</ele>
	<time>2025-07-29T11:01:56.000Z</time>
</trkpt>
<trkpt lat="45.8931400" lon="10.3175620">
	<ele>1535.00</ele>
	<time>2025-07-29T11:01:57.000Z</time>
</trkpt>
<trkpt lat="45.8931510" lon="10.3175560">
	<ele>1534.60</ele>
	<time>2025-07-29T11:01:58.000Z</time>
</trkpt>
<trkpt lat="45.8931620" lon="10.3175500">
	<ele>1534.40</ele>
	<time>2025-07-29T11:01:59.000Z</time>
</trkpt>
<trkpt lat="45.8931710" lon="10.3175450">
	<ele>1534.20</ele>
	<time>2025-07-29T11:02:00.000Z</time>
</trkpt>
<trkpt lat="45.8931800" lon="10.3175350">
	<ele>1534.00</ele>
	<time>2025-07-29T11:02:01.000Z</time>
</trkpt>
<trkpt lat="45.8931920" lon="10.3175210">
	<ele>1533.80</ele>
	<time>2025-07-29T11:02:02.000Z</time>
</trkpt>
<trkpt lat="45.8932070" lon="10.3175060">
	<ele>1533.60</ele>
	<time>2025-07-29T11:02:03.000Z</time>
</trkpt>
<trkpt lat="45.8932320" lon="10.3174860">
	<ele>1533.40</ele>
	<time>2025-07-29T11:02:04.000Z</time>
</trkpt>
<trkpt lat="45.8932520" lon="10.3174730">
	<ele>1533.20</ele>
	<time>2025-07-29T11:02:05.000Z</time>
</trkpt>
<trkpt lat="45.8932590" lon="10.3174620">
	<ele>1533.00</ele>
	<time>2025-07-29T11:02:06.000Z</time>
</trkpt>
<trkpt lat="45.8932650" lon="10.3174520">
	<ele>1532.80</ele>
	<time>2025-07-29T11:02:07.000Z</time>
</trkpt>
<trkpt lat="45.8932670" lon="10.3174380">
	<ele>1532.60</ele>
	<time>2025-07-29T11:02:08.000Z</time>
</trkpt>
<trkpt lat="45.8932710" lon="10.3174290">
	<ele>1532.40</ele>
	<time>2025-07-29T11:02:09.000Z</time>
</trkpt>
<trkpt lat="45.8932760" lon="10.3174220">
	<ele>1532.20</ele>
	<time>2025-07-29T11:02:10.000Z</time>
</trkpt>
<trkpt lat="45.8932930" lon="10.3174270">
	<ele>1532.00</ele>
	<time>2025-07-29T11:02:11.000Z</time>
</trkpt>
<trkpt lat="45.8933110" lon="10.3174310">
	<ele>1531.60</ele>
	<time>2025-07-29T11:02:12.000Z</time>
</trkpt>
<trkpt lat="45.8933190" lon="10.3174250">
	<ele>1531.40</ele>
	<time>2025-07-29T11:02:13.000Z</time>
</trkpt>
<trkpt lat="45.8933270" lon="10.3174230">
	<ele>1531.20</ele>
	<time>2025-07-29T11:02:14.000Z</time>
</trkpt>
<trkpt lat="45.8933350" lon="10.3174240">
	<ele>1531.00</ele>
	<time>2025-07-29T11:02:15.000Z</time>
</trkpt>
<trkpt lat="45.8933420" lon="10.3174300">
	<ele>1530.80</ele>
	<time>2025-07-29T11:02:16.000Z</time>
</trkpt>
<trkpt lat="45.8933530" lon="10.3174370">
	<ele>1530.60</ele>
	<time>2025-07-29T11:02:17.000Z</time>
</trkpt>
<trkpt lat="45.8933660" lon="10.3174300">
	<ele>1530.20</ele>
	<time>2025-07-29T11:02:18.000Z</time>
</trkpt>
<trkpt lat="45.8933710" lon="10.3174250">
	<ele>1530.20</ele>
	<time>2025-07-29T11:02:19.000Z</time>
</trkpt>
<trkpt lat="45.8933760" lon="10.3174240">
	<ele>1530.00</ele>
	<time>2025-07-29T11:02:20.000Z</time>
</trkpt>
<trkpt lat="45.8933810" lon="10.3174260">
	<ele>1529.60</ele>
	<time>2025-07-29T11:02:21.000Z</time>
</trkpt>
<trkpt lat="45.8933880" lon="10.3174280">
	<ele>1529.40</ele>
	<time>2025-07-29T11:02:22.000Z</time>
</trkpt>
<trkpt lat="45.8933940" lon="10.3174270">
	<ele>1529.40</ele>
	<time>2025-07-29T11:02:23.000Z</time>
</trkpt>
<trkpt lat="45.8934050" lon="10.3174310">
	<ele>1529.00</ele>
	<time>2025-07-29T11:02:24.000Z</time>
</trkpt>
<trkpt lat="45.8934110" lon="10.3174320">
	<ele>1528.80</ele>
	<time>2025-07-29T11:02:25.000Z</time>
</trkpt>
<trkpt lat="45.8934180" lon="10.3174280">
	<ele>1528.60</ele>
	<time>2025-07-29T11:02:26.000Z</time>
</trkpt>
<trkpt lat="45.8934240" lon="10.3174250">
	<ele>1528.20</ele>
	<time>2025-07-29T11:02:27.000Z</time>
</trkpt>
<trkpt lat="45.8934280" lon="10.3174180">
	<ele>1527.80</ele>
	<time>2025-07-29T11:02:28.000Z</time>
</trkpt>
<trkpt lat="45.8934320" lon="10.3174140">
	<ele>1527.60</ele>
	<time>2025-07-29T11:02:29.000Z</time>
</trkpt>
<trkpt lat="45.8934340" lon="10.3174110">
	<ele>1527.20</ele>
	<time>2025-07-29T11:02:30.000Z</time>
</trkpt>
<trkpt lat="45.8934350" lon="10.3174080">
	<ele>1527.20</ele>
	<time>2025-07-29T11:02:31.000Z</time>
</trkpt>
<trkpt lat="45.8934390" lon="10.3174080">
	<ele>1526.80</ele>
	<time>2025-07-29T11:02:32.000Z</time>
</trkpt>
<trkpt lat="45.8934440" lon="10.3174040">
	<ele>1526.60</ele>
	<time>2025-07-29T11:02:33.000Z</time>
</trkpt>
<trkpt lat="45.8934550" lon="10.3174020">
	<ele>1526.40</ele>
	<time>2025-07-29T11:02:34.000Z</time>
</trkpt>
<trkpt lat="45.8934640" lon="10.3174020">
	<ele>1526.00</ele>
	<time>2025-07-29T11:02:35.000Z</time>
</trkpt>
<trkpt lat="45.8934720" lon="10.3174000">
	<ele>1525.80</ele>
	<time>2025-07-29T11:02:36.000Z</time>
</trkpt>
<trkpt lat="45.8934770" lon="10.3174040">
	<ele>1525.60</ele>
	<time>2025-07-29T11:02:37.000Z</time>
</trkpt>
<trkpt lat="45.8934810" lon="10.3174070">
	<ele>1525.20</ele>
	<time>2025-07-29T11:02:38.000Z</time>
</trkpt>
<trkpt lat="45.8934850" lon="10.3174060">
	<ele>1525.00</ele>
	<time>2025-07-29T11:02:39.000Z</time>
</trkpt>
<trkpt lat="45.8934900" lon="10.3174120">
	<ele>1524.80</ele>
	<time>2025-07-29T11:02:40.000Z</time>
</trkpt>
<trkpt lat="45.8934970" lon="10.3174120">
	<ele>1524.60</ele>
	<time>2025-07-29T11:02:41.000Z</time>
</trkpt>
<trkpt lat="45.8935060" lon="10.3174050">
	<ele>1524.40</ele>
	<time>2025-07-29T11:02:42.000Z</time>
</trkpt>
<trkpt lat="45.8935160" lon="10.3173920">
	<ele>1524.20</ele>
	<time>2025-07-29T11:02:43.000Z</time>
</trkpt>
<trkpt lat="45.8935270" lon="10.3173800">
	<ele>1524.00</ele>
	<time>2025-07-29T11:02:44.000Z</time>
</trkpt>
<trkpt lat="45.8935270" lon="10.3173810">
	<ele>1523.80</ele>
	<time>2025-07-29T11:02:45.000Z</time>
</trkpt>
<trkpt lat="45.8935370" lon="10.3173950">
	<ele>1523.40</ele>
	<time>2025-07-29T11:02:46.000Z</time>
</trkpt>
<trkpt lat="45.8935460" lon="10.3173930">
	<ele>1523.20</ele>
	<time>2025-07-29T11:02:47.000Z</time>
</trkpt>
<trkpt lat="45.8935590" lon="10.3173870">
	<ele>1523.00</ele>
	<time>2025-07-29T11:02:48.000Z</time>
</trkpt>
<trkpt lat="45.8935730" lon="10.3173940">
	<ele>1522.80</ele>
	<time>2025-07-29T11:02:49.000Z</time>
</trkpt>
<trkpt lat="45.8935850" lon="10.3174040">
	<ele>1522.80</ele>
	<time>2025-07-29T11:02:50.000Z</time>
</trkpt>
<trkpt lat="45.8935980" lon="10.3174180">
	<ele>1522.60</ele>
	<time>2025-07-29T11:02:51.000Z</time>
</trkpt>
<trkpt lat="45.8936060" lon="10.3174340">
	<ele>1522.20</ele>
	<time>2025-07-29T11:02:52.000Z</time>
</trkpt>
<trkpt lat="45.8936060" lon="10.3174460">
	<ele>1521.80</ele>
	<time>2025-07-29T11:02:53.000Z</time>
</trkpt>
<trkpt lat="45.8935940" lon="10.3174480">
	<ele>1521.20</ele>
	<time>2025-07-29T11:02:54.000Z</time>
</trkpt>
<trkpt lat="45.8935860" lon="10.3174440">
	<ele>1520.80</ele>
	<time>2025-07-29T11:02:55.000Z</time>
</trkpt>
<trkpt lat="45.8935870" lon="10.3174430">
	<ele>1520.60</ele>
	<time>2025-07-29T11:02:56.000Z</time>
</trkpt>
<trkpt lat="45.8935880" lon="10.3174450">
	<ele>1520.60</ele>
	<time>2025-07-29T11:02:57.000Z</time>
</trkpt>
<trkpt lat="45.8935860" lon="10.3174400">
	<ele>1520.20</ele>
	<time>2025-07-29T11:02:58.000Z</time>
</trkpt>
<trkpt lat="45.8935820" lon="10.3174440">
	<ele>1519.80</ele>
	<time>2025-07-29T11:02:59.000Z</time>
</trkpt>
<trkpt lat="45.8935900" lon="10.3174610">
	<ele>1519.60</ele>
	<time>2025-07-29T11:03:00.000Z</time>
</trkpt>
<trkpt lat="45.8935970" lon="10.3174680">
	<ele>1519.40</ele>
	<time>2025-07-29T11:03:01.000Z</time>
</trkpt>
<trkpt lat="45.8936130" lon="10.3174900">
	<ele>1519.20</ele>
	<time>2025-07-29T11:03:02.000Z</time>
</trkpt>
<trkpt lat="45.8936280" lon="10.3175130">
	<ele>1519.00</ele>
	<time>2025-07-29T11:03:03.000Z</time>
</trkpt>
<trkpt lat="45.8936360" lon="10.3175420">
	<ele>1519.00</ele>
	<time>2025-07-29T11:03:04.000Z</time>
</trkpt>
<trkpt lat="45.8936420" lon="10.3175600">
	<ele>1518.80</ele>
	<time>2025-07-29T11:03:05.000Z</time>
</trkpt>
<trkpt lat="45.8936550" lon="10.3175760">
	<ele>1518.60</ele>
	<time>2025-07-29T11:03:06.000Z</time>
</trkpt>
<trkpt lat="45.8936700" lon="10.3175820">
	<ele>1518.00</ele>
	<time>2025-07-29T11:03:07.000Z</time>
</trkpt>
<trkpt lat="45.8936730" lon="10.3175780">
	<ele>1517.80</ele>
	<time>2025-07-29T11:03:08.000Z</time>
</trkpt>
<trkpt lat="45.8936740" lon="10.3175750">
	<ele>1517.40</ele>
	<time>2025-07-29T11:03:09.000Z</time>
</trkpt>
<trkpt lat="45.8936780" lon="10.3175720">
	<ele>1517.00</ele>
	<time>2025-07-29T11:03:10.000Z</time>
</trkpt>
<trkpt lat="45.8936820" lon="10.3175640">
	<ele>1516.80</ele>
	<time>2025-07-29T11:03:11.000Z</time>
</trkpt>
<trkpt lat="45.8936860" lon="10.3175650">
	<ele>1516.60</ele>
	<time>2025-07-29T11:03:12.000Z</time>
</trkpt>
<trkpt lat="45.8936890" lon="10.3175620">
	<ele>1516.20</ele>
	<time>2025-07-29T11:03:13.000Z</time>
</trkpt>
<trkpt lat="45.8937020" lon="10.3175670">
	<ele>1516.00</ele>
	<time>2025-07-29T11:03:14.000Z</time>
</trkpt>
<trkpt lat="45.8937160" lon="10.3175700">
	<ele>1515.80</ele>
	<time>2025-07-29T11:03:15.000Z</time>
</trkpt>
<trkpt lat="45.8937370" lon="10.3175760">
	<ele>1515.40</ele>
	<time>2025-07-29T11:03:16.000Z</time>
</trkpt>
<trkpt lat="45.8937560" lon="10.3175730">
	<ele>1515.20</ele>
	<time>2025-07-29T11:03:17.000Z</time>
</trkpt>
<trkpt lat="45.8937770" lon="10.3175630">
	<ele>1515.00</ele>
	<time>2025-07-29T11:03:18.000Z</time>
</trkpt>
<trkpt lat="45.8937860" lon="10.3175520">
	<ele>1514.80</ele>
	<time>2025-07-29T11:03:19.000Z</time>
</trkpt>
<trkpt lat="45.8937950" lon="10.3175390">
	<ele>1514.60</ele>
	<time>2025-07-29T11:03:20.000Z</time>
</trkpt>
<trkpt lat="45.8938030" lon="10.3175370">
	<ele>1514.40</ele>
	<time>2025-07-29T11:03:21.000Z</time>
</trkpt>
<trkpt lat="45.8938110" lon="10.3175290">
	<ele>1514.20</ele>
	<time>2025-07-29T11:03:22.000Z</time>
</trkpt>
<trkpt lat="45.8938180" lon="10.3175190">
	<ele>1513.80</ele>
	<time>2025-07-29T11:03:23.000Z</time>
</trkpt>
<trkpt lat="45.8938260" lon="10.3175100">
	<ele>1513.40</ele>
	<time>2025-07-29T11:03:24.000Z</time>
</trkpt>
<trkpt lat="45.8938320" lon="10.3174980">
	<ele>1513.20</ele>
	<time>2025-07-29T11:03:25.000Z</time>
</trkpt>
<trkpt lat="45.8938370" lon="10.3174900">
	<ele>1513.00</ele>
	<time>2025-07-29T11:03:26.000Z</time>
</trkpt>
<trkpt lat="45.8938420" lon="10.3174840">
	<ele>1512.80</ele>
	<time>2025-07-29T11:03:27.000Z</time>
</trkpt>
<trkpt lat="45.8938510" lon="10.3174740">
	<ele>1512.40</ele>
	<time>2025-07-29T11:03:28.000Z</time>
</trkpt>
<trkpt lat="45.8938590" lon="10.3174720">
	<ele>1512.20</ele>
	<time>2025-07-29T11:03:29.000Z</time>
</trkpt>
<trkpt lat="45.8938600" lon="10.3174720">
	<ele>1512.00</ele>
	<time>2025-07-29T11:03:30.000Z</time>
</trkpt>
<trkpt lat="45.8938610" lon="10.3174650">
	<ele>1511.80</ele>
	<time>2025-07-29T11:03:31.000Z</time>
</trkpt>
<trkpt lat="45.8938610" lon="10.3174430">
	<ele>1511.60</ele>
	<time>2025-07-29T11:03:32.000Z</time>
</trkpt>
<trkpt lat="45.8938760" lon="10.3174320">
	<ele>1511.40</ele>
	<time>2025-07-29T11:03:33.000Z</time>
</trkpt>
<trkpt lat="45.8939020" lon="10.3174330">
	<ele>1511.40</ele>
	<time>2025-07-29T11:03:34.000Z</time>
</trkpt>
<trkpt lat="45.8939270" lon="10.3174310">
	<ele>1511.20</ele>
	<time>2025-07-29T11:03:35.000Z</time>
</trkpt>
<trkpt lat="45.8939550" lon="10.3174220">
	<ele>1511.00</ele>
	<time>2025-07-29T11:03:36.000Z</time>
</trkpt>
<trkpt lat="45.8939590" lon="10.3174060">
	<ele>1511.00</ele>
	<time>2025-07-29T11:03:37.000Z</time>
</trkpt>
<trkpt lat="45.8939740" lon="10.3174010">
	<ele>1510.60</ele>
	<time>2025-07-29T11:03:38.000Z</time>
</trkpt>
<trkpt lat="45.8939830" lon="10.3174020">
	<ele>1510.60</ele>
	<time>2025-07-29T11:03:39.000Z</time>
</trkpt>
<trkpt lat="45.8939870" lon="10.3174030">
	<ele>1510.40</ele>
	<time>2025-07-29T11:03:40.000Z</time>
</trkpt>
<trkpt lat="45.8939910" lon="10.3174040">
	<ele>1510.20</ele>
	<time>2025-07-29T11:03:41.000Z</time>
</trkpt>
<trkpt lat="45.8939940" lon="10.3174020">
	<ele>1510.00</ele>
	<time>2025-07-29T11:03:42.000Z</time>
</trkpt>
<trkpt lat="45.8939990" lon="10.3174040">
	<ele>1509.80</ele>
	<time>2025-07-29T11:03:43.000Z</time>
</trkpt>
<trkpt lat="45.8940080" lon="10.3174080">
	<ele>1509.60</ele>
	<time>2025-07-29T11:03:44.000Z</time>
</trkpt>
<trkpt lat="45.8940200" lon="10.3174060">
	<ele>1509.20</ele>
	<time>2025-07-29T11:03:45.000Z</time>
</trkpt>
<trkpt lat="45.8940290" lon="10.3174030">
	<ele>1509.00</ele>
	<time>2025-07-29T11:03:46.000Z</time>
</trkpt>
<trkpt lat="45.8940430" lon="10.3174020">
	<ele>1508.60</ele>
	<time>2025-07-29T11:03:47.000Z</time>
</trkpt>
<trkpt lat="45.8940570" lon="10.3174040">
	<ele>1508.40</ele>
	<time>2025-07-29T11:03:48.000Z</time>
</trkpt>
<trkpt lat="45.8940690" lon="10.3174020">
	<ele>1508.20</ele>
	<time>2025-07-29T11:03:49.000Z</time>
</trkpt>
<trkpt lat="45.8940850" lon="10.3174010">
	<ele>1507.80</ele>
	<time>2025-07-29T11:03:50.000Z</time>
</trkpt>
<trkpt lat="45.8941030" lon="10.3174060">
	<ele>1507.40</ele>
	<time>2025-07-29T11:03:51.000Z</time>
</trkpt>
<trkpt lat="45.8941140" lon="10.3174090">
	<ele>1507.20</ele>
	<time>2025-07-29T11:03:52.000Z</time>
</trkpt>
<trkpt lat="45.8941220" lon="10.3174080">
	<ele>1507.00</ele>
	<time>2025-07-29T11:03:53.000Z</time>
</trkpt>
<trkpt lat="45.8941250" lon="10.3173970">
	<ele>1506.80</ele>
	<time>2025-07-29T11:03:54.000Z</time>
</trkpt>
<trkpt lat="45.8941280" lon="10.3173880">
	<ele>1506.60</ele>
	<time>2025-07-29T11:03:55.000Z</time>
</trkpt>
<trkpt lat="45.8941320" lon="10.3173720">
	<ele>1506.20</ele>
	<time>2025-07-29T11:03:56.000Z</time>
</trkpt>
<trkpt lat="45.8941470" lon="10.3173600">
	<ele>1506.00</ele>
	<time>2025-07-29T11:03:57.000Z</time>
</trkpt>
<trkpt lat="45.8941600" lon="10.3173460">
	<ele>1506.00</ele>
	<time>2025-07-29T11:03:58.000Z</time>
</trkpt>
<trkpt lat="45.8941750" lon="10.3173320">
	<ele>1505.80</ele>
	<time>2025-07-29T11:03:59.000Z</time>
</trkpt>
<trkpt lat="45.8941840" lon="10.3173260">
	<ele>1505.60</ele>
	<time>2025-07-29T11:04:00.000Z</time>
</trkpt>
<trkpt lat="45.8941920" lon="10.3173170">
	<ele>1505.40</ele>
	<time>2025-07-29T11:04:01.000Z</time>
</trkpt>
<trkpt lat="45.8941920" lon="10.3173150">
	<ele>1505.40</ele>
	<time>2025-07-29T11:04:02.000Z</time>
</trkpt>
<trkpt lat="45.8941980" lon="10.3173160">
	<ele>1505.20</ele>
	<time>2025-07-29T11:04:03.000Z</time>
</trkpt>
<trkpt lat="45.8942080" lon="10.3173150">
	<ele>1505.20</ele>
	<time>2025-07-29T11:04:04.000Z</time>
</trkpt>
<trkpt lat="45.8942150" lon="10.3173180">
	<ele>1505.00</ele>
	<time>2025-07-29T11:04:05.000Z</time>
</trkpt>
<trkpt lat="45.8942210" lon="10.3173190">
	<ele>1505.00</ele>
	<time>2025-07-29T11:04:06.000Z</time>
</trkpt>
<trkpt lat="45.8942340" lon="10.3173150">
	<ele>1505.00</ele>
	<time>2025-07-29T11:04:07.000Z</time>
</trkpt>
<trkpt lat="45.8942400" lon="10.3173120">
	<ele>1504.80</ele>
	<time>2025-07-29T11:04:08.000Z</time>
</trkpt>
<trkpt lat="45.8942430" lon="10.3173130">
	<ele>1504.80</ele>
	<time>2025-07-29T11:04:09.000Z</time>
</trkpt>
<trkpt lat="45.8942510" lon="10.3173130">
	<ele>1504.40</ele>
	<time>2025-07-29T11:04:10.000Z</time>
</trkpt>
<trkpt lat="45.8942600" lon="10.3173110">
	<ele>1503.80</ele>
	<time>2025-07-29T11:04:11.000Z</time>
</trkpt>
<trkpt lat="45.8942700" lon="10.3173080">
	<ele>1503.60</ele>
	<time>2025-07-29T11:04:12.000Z</time>
</trkpt>
<trkpt lat="45.8942760" lon="10.3173100">
	<ele>1503.20</ele>
	<time>2025-07-29T11:04:13.000Z</time>
</trkpt>
<trkpt lat="45.8942840" lon="10.3173110">
	<ele>1503.00</ele>
	<time>2025-07-29T11:04:14.000Z</time>
</trkpt>
<trkpt lat="45.8942950" lon="10.3173090">
	<ele>1502.60</ele>
	<time>2025-07-29T11:04:15.000Z</time>
</trkpt>
<trkpt lat="45.8943050" lon="10.3173050">
	<ele>1502.20</ele>
	<time>2025-07-29T11:04:16.000Z</time>
</trkpt>
<trkpt lat="45.8943190" lon="10.3173050">
	<ele>1502.00</ele>
	<time>2025-07-29T11:04:17.000Z</time>
</trkpt>
<trkpt lat="45.8943300" lon="10.3173020">
	<ele>1501.80</ele>
	<time>2025-07-29T11:04:18.000Z</time>
</trkpt>
<trkpt lat="45.8943440" lon="10.3172990">
	<ele>1501.40</ele>
	<time>2025-07-29T11:04:19.000Z</time>
</trkpt>
<trkpt lat="45.8943550" lon="10.3172950">
	<ele>1501.40</ele>
	<time>2025-07-29T11:04:20.000Z</time>
</trkpt>
<trkpt lat="45.8943640" lon="10.3172900">
	<ele>1501.00</ele>
	<time>2025-07-29T11:04:21.000Z</time>
</trkpt>
<trkpt lat="45.8943720" lon="10.3172840">
	<ele>1501.00</ele>
	<time>2025-07-29T11:04:22.000Z</time>
</trkpt>
<trkpt lat="45.8943780" lon="10.3172820">
	<ele>1500.80</ele>
	<time>2025-07-29T11:04:23.000Z</time>
</trkpt>
<trkpt lat="45.8943850" lon="10.3172810">
	<ele>1500.60</ele>
	<time>2025-07-29T11:04:24.000Z</time>
</trkpt>
<trkpt lat="45.8943900" lon="10.3172820">
	<ele>1500.40</ele>
	<time>2025-07-29T11:04:25.000Z</time>
</trkpt>
<trkpt lat="45.8943980" lon="10.3172880">
	<ele>1500.20</ele>
	<time>2025-07-29T11:04:26.000Z</time>
</trkpt>
<trkpt lat="45.8944090" lon="10.3172880">
	<ele>1500.00</ele>
	<time>2025-07-29T11:04:27.000Z</time>
</trkpt>
<trkpt lat="45.8944200" lon="10.3172880">
	<ele>1499.60</ele>
	<time>2025-07-29T11:04:28.000Z</time>
</trkpt>
<trkpt lat="45.8944310" lon="10.3172880">
	<ele>1499.40</ele>
	<time>2025-07-29T11:04:29.000Z</time>
</trkpt>
<trkpt lat="45.8944420" lon="10.3172890">
	<ele>1499.00</ele>
	<time>2025-07-29T11:04:30.000Z</time>
</trkpt>
<trkpt lat="45.8944470" lon="10.3172870">
	<ele>1498.80</ele>
	<time>2025-07-29T11:04:31.000Z</time>
</trkpt>
<trkpt lat="45.8944550" lon="10.3172850">
	<ele>1498.80</ele>
	<time>2025-07-29T11:04:32.000Z</time>
</trkpt>
<trkpt lat="45.8944650" lon="10.3172830">
	<ele>1498.60</ele>
	<time>2025-07-29T11:04:33.000Z</time>
</trkpt>
<trkpt lat="45.8944790" lon="10.3172850">
	<ele>1498.40</ele>
	<time>2025-07-29T11:04:34.000Z</time>
</trkpt>
<trkpt lat="45.8944920" lon="10.3172900">
	<ele>1498.00</ele>
	<time>2025-07-29T11:04:35.000Z</time>
</trkpt>
<trkpt lat="45.8945010" lon="10.3172920">
	<ele>1497.80</ele>
	<time>2025-07-29T11:04:36.000Z</time>
</trkpt>
<trkpt lat="45.8945090" lon="10.3172900">
	<ele>1497.60</ele>
	<time>2025-07-29T11:04:37.000Z</time>
</trkpt>
<trkpt lat="45.8945150" lon="10.3172880">
	<ele>1497.40</ele>
	<time>2025-07-29T11:04:38.000Z</time>
</trkpt>
<trkpt lat="45.8945210" lon="10.3172850">
	<ele>1497.20</ele>
	<time>2025-07-29T11:04:39.000Z</time>
</trkpt>
<trkpt lat="45.8945370" lon="10.3172840">
	<ele>1497.00</ele>
	<time>2025-07-29T11:04:40.000Z</time>
</trkpt>
<trkpt lat="45.8945520" lon="10.3172820">
	<ele>1496.80</ele>
	<time>2025-07-29T11:04:41.000Z</time>
</trkpt>
<trkpt lat="45.8945670" lon="10.3172830">
	<ele>1496.60</ele>
	<time>2025-07-29T11:04:42.000Z</time>
</trkpt>
<trkpt lat="45.8945740" lon="10.3172860">
	<ele>1496.20</ele>
	<time>2025-07-29T11:04:43.000Z</time>
</trkpt>
<trkpt lat="45.8945810" lon="10.3172880">
	<ele>1496.20</ele>
	<time>2025-07-29T11:04:44.000Z</time>
</trkpt>
<trkpt lat="45.8945930" lon="10.3172820">
	<ele>1495.80</ele>
	<time>2025-07-29T11:04:45.000Z</time>
</trkpt>
<trkpt lat="45.8946010" lon="10.3172770">
	<ele>1495.60</ele>
	<time>2025-07-29T11:04:46.000Z</time>
</trkpt>
<trkpt lat="45.8946160" lon="10.3172760">
	<ele>1495.40</ele>
	<time>2025-07-29T11:04:47.000Z</time>
</trkpt>
<trkpt lat="45.8946310" lon="10.3172740">
	<ele>1495.20</ele>
	<time>2025-07-29T11:04:48.000Z</time>
</trkpt>
<trkpt lat="45.8946490" lon="10.3172760">
	<ele>1495.00</ele>
	<time>2025-07-29T11:04:49.000Z</time>
</trkpt>
<trkpt lat="45.8946610" lon="10.3172750">
	<ele>1494.80</ele>
	<time>2025-07-29T11:04:50.000Z</time>
</trkpt>
<trkpt lat="45.8946630" lon="10.3172820">
	<ele>1494.60</ele>
	<time>2025-07-29T11:04:51.000Z</time>
</trkpt>
<trkpt lat="45.8946660" lon="10.3172930">
	<ele>1494.20</ele>
	<time>2025-07-29T11:04:52.000Z</time>
</trkpt>
<trkpt lat="45.8946720" lon="10.3173000">
	<ele>1494.00</ele>
	<time>2025-07-29T11:04:53.000Z</time>
</trkpt>
<trkpt lat="45.8946780" lon="10.3173020">
	<ele>1493.80</ele>
	<time>2025-07-29T11:04:54.000Z</time>
</trkpt>
<trkpt lat="45.8946820" lon="10.3173050">
	<ele>1493.60</ele>
	<time>2025-07-29T11:04:55.000Z</time>
</trkpt>
<trkpt lat="45.8946910" lon="10.3173000">
	<ele>1493.40</ele>
	<time>2025-07-29T11:04:56.000Z</time>
</trkpt>
<trkpt lat="45.8947050" lon="10.3172880">
	<ele>1493.40</ele>
	<time>2025-07-29T11:04:57.000Z</time>
</trkpt>
<trkpt lat="45.8947160" lon="10.3172780">
	<ele>1493.00</ele>
	<time>2025-07-29T11:04:58.000Z</time>
</trkpt>
<trkpt lat="45.8947180" lon="10.3172650">
	<ele>1492.80</ele>
	<time>2025-07-29T11:04:59.000Z</time>
</trkpt>
<trkpt lat="45.8947310" lon="10.3172470">
	<ele>1492.40</ele>
	<time>2025-07-29T11:05:00.000Z</time>
</trkpt>
<trkpt lat="45.8947380" lon="10.3172370">
	<ele>1492.00</ele>
	<time>2025-07-29T11:05:01.000Z</time>
</trkpt>
<trkpt lat="45.8947570" lon="10.3172340">
	<ele>1491.80</ele>
	<time>2025-07-29T11:05:02.000Z</time>
</trkpt>
<trkpt lat="45.8947700" lon="10.3172330">
	<ele>1491.60</ele>
	<time>2025-07-29T11:05:03.000Z</time>
</trkpt>
<trkpt lat="45.8947850" lon="10.3172290">
	<ele>1491.40</ele>
	<time>2025-07-29T11:05:04.000Z</time>
</trkpt>
<trkpt lat="45.8947920" lon="10.3172250">
	<ele>1491.40</ele>
	<time>2025-07-29T11:05:05.000Z</time>
</trkpt>
<trkpt lat="45.8948040" lon="10.3172190">
	<ele>1491.20</ele>
	<time>2025-07-29T11:05:06.000Z</time>
</trkpt>
<trkpt lat="45.8948160" lon="10.3172170">
	<ele>1491.00</ele>
	<time>2025-07-29T11:05:07.000Z</time>
</trkpt>
<trkpt lat="45.8948280" lon="10.3172130">
	<ele>1490.80</ele>
	<time>2025-07-29T11:05:08.000Z</time>
</trkpt>
<trkpt lat="45.8948410" lon="10.3172120">
	<ele>1490.60</ele>
	<time>2025-07-29T11:05:09.000Z</time>
</trkpt>
<trkpt lat="45.8948500" lon="10.3172080">
	<ele>1490.60</ele>
	<time>2025-07-29T11:05:10.000Z</time>
</trkpt>
<trkpt lat="45.8948610" lon="10.3172030">
	<ele>1490.40</ele>
	<time>2025-07-29T11:05:11.000Z</time>
</trkpt>
<trkpt lat="45.8948690" lon="10.3172010">
	<ele>1490.20</ele>
	<time>2025-07-29T11:05:12.000Z</time>
</trkpt>
<trkpt lat="45.8948780" lon="10.3172000">
	<ele>1490.20</ele>
	<time>2025-07-29T11:05:13.000Z</time>
</trkpt>
<trkpt lat="45.8948870" lon="10.3171980">
	<ele>1490.00</ele>
	<time>2025-07-29T11:05:14.000Z</time>
</trkpt>
<trkpt lat="45.8948970" lon="10.3171940">
	<ele>1490.00</ele>
	<time>2025-07-29T11:05:15.000Z</time>
</trkpt>
<trkpt lat="45.8949050" lon="10.3171880">
	<ele>1489.80</ele>
	<time>2025-07-29T11:05:16.000Z</time>
</trkpt>
<trkpt lat="45.8949120" lon="10.3171800">
	<ele>1489.80</ele>
	<time>2025-07-29T11:05:17.000Z</time>
</trkpt>
<trkpt lat="45.8949220" lon="10.3171710">
	<ele>1489.60</ele>
	<time>2025-07-29T11:05:18.000Z</time>
</trkpt>
<trkpt lat="45.8949330" lon="10.3171650">
	<ele>1489.40</ele>
	<time>2025-07-29T11:05:19.000Z</time>
</trkpt>
<trkpt lat="45.8949430" lon="10.3171630">
	<ele>1489.20</ele>
	<time>2025-07-29T11:05:20.000Z</time>
</trkpt>
<trkpt lat="45.8949510" lon="10.3171600">
	<ele>1489.00</ele>
	<time>2025-07-29T11:05:21.000Z</time>
</trkpt>
<trkpt lat="45.8949630" lon="10.3171560">
	<ele>1488.80</ele>
	<time>2025-07-29T11:05:22.000Z</time>
</trkpt>
<trkpt lat="45.8949720" lon="10.3171510">
	<ele>1488.80</ele>
	<time>2025-07-29T11:05:23.000Z</time>
</trkpt>
<trkpt lat="45.8949790" lon="10.3171420">
	<ele>1488.80</ele>
	<time>2025-07-29T11:05:24.000Z</time>
</trkpt>
<trkpt lat="45.8949900" lon="10.3171320">
	<ele>1488.60</ele>
	<time>2025-07-29T11:05:25.000Z</time>
</trkpt>
<trkpt lat="45.8949970" lon="10.3171200">
	<ele>1488.40</ele>
	<time>2025-07-29T11:05:26.000Z</time>
</trkpt>
<trkpt lat="45.8950070" lon="10.3171100">
	<ele>1488.40</ele>
	<time>2025-07-29T11:05:27.000Z</time>
</trkpt>
<trkpt lat="45.8950200" lon="10.3170980">
	<ele>1488.20</ele>
	<time>2025-07-29T11:05:28.000Z</time>
</trkpt>
<trkpt lat="45.8950330" lon="10.3170850">
	<ele>1488.00</ele>
	<time>2025-07-29T11:05:29.000Z</time>
</trkpt>
<trkpt lat="45.8950410" lon="10.3170730">
	<ele>1488.00</ele>
	<time>2025-07-29T11:05:30.000Z</time>
</trkpt>
<trkpt lat="45.8950520" lon="10.3170600">
	<ele>1487.80</ele>
	<time>2025-07-29T11:05:31.000Z</time>
</trkpt>
<trkpt lat="45.8950610" lon="10.3170480">
	<ele>1487.80</ele>
	<time>2025-07-29T11:05:32.000Z</time>
</trkpt>
<trkpt lat="45.8950700" lon="10.3170370">
	<ele>1487.60</ele>
	<time>2025-07-29T11:05:33.000Z</time>
</trkpt>
<trkpt lat="45.8950770" lon="10.3170300">
	<ele>1487.60</ele>
	<time>2025-07-29T11:05:34.000Z</time>
</trkpt>
<trkpt lat="45.8950880" lon="10.3170240">
	<ele>1487.40</ele>
	<time>2025-07-29T11:05:35.000Z</time>
</trkpt>
<trkpt lat="45.8950960" lon="10.3170220">
	<ele>1487.40</ele>
	<time>2025-07-29T11:05:36.000Z</time>
</trkpt>
<trkpt lat="45.8951060" lon="10.3170200">
	<ele>1487.40</ele>
	<time>2025-07-29T11:05:37.000Z</time>
</trkpt>
<trkpt lat="45.8951110" lon="10.3170200">
	<ele>1487.20</ele>
	<time>2025-07-29T11:05:38.000Z</time>
</trkpt>
<trkpt lat="45.8951180" lon="10.3170150">
	<ele>1487.00</ele>
	<time>2025-07-29T11:05:39.000Z</time>
</trkpt>
<trkpt lat="45.8951240" lon="10.3170120">
	<ele>1486.60</ele>
	<time>2025-07-29T11:05:40.000Z</time>
</trkpt>
<trkpt lat="45.8951290" lon="10.3170070">
	<ele>1486.60</ele>
	<time>2025-07-29T11:05:41.000Z</time>
</trkpt>
<trkpt lat="45.8951370" lon="10.3170020">
	<ele>1486.40</ele>
	<time>2025-07-29T11:05:42.000Z</time>
</trkpt>
<trkpt lat="45.8951450" lon="10.3169940">
	<ele>1486.40</ele>
	<time>2025-07-29T11:05:43.000Z</time>
</trkpt>
<trkpt lat="45.8951530" lon="10.3169830">
	<ele>1486.40</ele>
	<time>2025-07-29T11:05:44.000Z</time>
</trkpt>
<trkpt lat="45.8951590" lon="10.3169660">
	<ele>1486.40</ele>
	<time>2025-07-29T11:05:45.000Z</time>
</trkpt>
<trkpt lat="45.8951690" lon="10.3169520">
	<ele>1486.40</ele>
	<time>2025-07-29T11:05:46.000Z</time>
</trkpt>
<trkpt lat="45.8951760" lon="10.3169380">
	<ele>1486.40</ele>
	<time>2025-07-29T11:05:47.000Z</time>
</trkpt>
<trkpt lat="45.8951850" lon="10.3169180">
	<ele>1486.40</ele>
	<time>2025-07-29T11:05:48.000Z</time>
</trkpt>
<trkpt lat="45.8951920" lon="10.3169070">
	<ele>1486.40</ele>
	<time>2025-07-29T11:05:49.000Z</time>
</trkpt>
<trkpt lat="45.8951960" lon="10.3168950">
	<ele>1486.40</ele>
	<time>2025-07-29T11:05:50.000Z</time>
</trkpt>
<trkpt lat="45.8951990" lon="10.3168870">
	<ele>1486.40</ele>
	<time>2025-07-29T11:05:51.000Z</time>
</trkpt>
<trkpt lat="45.8952070" lon="10.3168820">
	<ele>1486.40</ele>
	<time>2025-07-29T11:05:52.000Z</time>
</trkpt>
<trkpt lat="45.8952220" lon="10.3168810">
	<ele>1486.20</ele>
	<time>2025-07-29T11:05:53.000Z</time>
</trkpt>
<trkpt lat="45.8952400" lon="10.3168840">
	<ele>1486.20</ele>
	<time>2025-07-29T11:05:54.000Z</time>
</trkpt>
<trkpt lat="45.8952480" lon="10.3168810">
	<ele>1486.00</ele>
	<time>2025-07-29T11:05:55.000Z</time>
</trkpt>
<trkpt lat="45.8952620" lon="10.3168770">
	<ele>1486.00</ele>
	<time>2025-07-29T11:05:56.000Z</time>
</trkpt>
<trkpt lat="45.8952740" lon="10.3168700">
	<ele>1485.80</ele>
	<time>2025-07-29T11:05:57.000Z</time>
</trkpt>
<trkpt lat="45.8952870" lon="10.3168620">
	<ele>1485.60</ele>
	<time>2025-07-29T11:05:58.000Z</time>
</trkpt>
<trkpt lat="45.8953020" lon="10.3168580">
	<ele>1485.40</ele>
	<time>2025-07-29T11:05:59.000Z</time>
</trkpt>
<trkpt lat="45.8953150" lon="10.3168510">
	<ele>1485.40</ele>
	<time>2025-07-29T11:06:00.000Z</time>
</trkpt>
<trkpt lat="45.8953220" lon="10.3168430">
	<ele>1485.40</ele>
	<time>2025-07-29T11:06:01.000Z</time>
</trkpt>
<trkpt lat="45.8953340" lon="10.3168320">
	<ele>1485.20</ele>
	<time>2025-07-29T11:06:02.000Z</time>
</trkpt>
<trkpt lat="45.8953520" lon="10.3168240">
	<ele>1485.20</ele>
	<time>2025-07-29T11:06:03.000Z</time>
</trkpt>
<trkpt lat="45.8953650" lon="10.3168150">
	<ele>1485.00</ele>
	<time>2025-07-29T11:06:04.000Z</time>
</trkpt>
<trkpt lat="45.8953710" lon="10.3167990">
	<ele>1484.80</ele>
	<time>2025-07-29T11:06:05.000Z</time>
</trkpt>
<trkpt lat="45.8953780" lon="10.3167890">
	<ele>1484.80</ele>
	<time>2025-07-29T11:06:06.000Z</time>
</trkpt>
<trkpt lat="45.8953880" lon="10.3167830">
	<ele>1484.80</ele>
	<time>2025-07-29T11:06:07.000Z</time>
</trkpt>
<trkpt lat="45.8953990" lon="10.3167730">
	<ele>1484.60</ele>
	<time>2025-07-29T11:06:08.000Z</time>
</trkpt>
<trkpt lat="45.8954110" lon="10.3167640">
	<ele>1484.60</ele>
	<time>2025-07-29T11:06:09.000Z</time>
</trkpt>
<trkpt lat="45.8954200" lon="10.3167490">
	<ele>1484.60</ele>
	<time>2025-07-29T11:06:10.000Z</time>
</trkpt>
<trkpt lat="45.8954320" lon="10.3167350">
	<ele>1484.60</ele>
	<time>2025-07-29T11:06:11.000Z</time>
</trkpt>
<trkpt lat="45.8954470" lon="10.3167290">
	<ele>1484.60</ele>
	<time>2025-07-29T11:06:12.000Z</time>
</trkpt>
<trkpt lat="45.8954580" lon="10.3167270">
	<ele>1484.40</ele>
	<time>2025-07-29T11:06:13.000Z</time>
</trkpt>
<trkpt lat="45.8954660" lon="10.3167230">
	<ele>1484.20</ele>
	<time>2025-07-29T11:06:14.000Z</time>
</trkpt>
<trkpt lat="45.8954670" lon="10.3167000">
	<ele>1484.20</ele>
	<time>2025-07-29T11:06:15.000Z</time>
</trkpt>
<trkpt lat="45.8954780" lon="10.3166820">
	<ele>1484.20</ele>
	<time>2025-07-29T11:06:16.000Z</time>
</trkpt>
<trkpt lat="45.8954900" lon="10.3166750">
	<ele>1484.20</ele>
	<time>2025-07-29T11:06:17.000Z</time>
</trkpt>
<trkpt lat="45.8954940" lon="10.3166710">
	<ele>1484.20</ele>
	<time>2025-07-29T11:06:18.000Z</time>
</trkpt>
<trkpt lat="45.8954930" lon="10.3166600">
	<ele>1484.20</ele>
	<time>2025-07-29T11:06:19.000Z</time>
</trkpt>
<trkpt lat="45.8955010" lon="10.3166530">
	<ele>1484.00</ele>
	<time>2025-07-29T11:06:20.000Z</time>
</trkpt>
<trkpt lat="45.8955040" lon="10.3166510">
	<ele>1484.00</ele>
	<time>2025-07-29T11:06:21.000Z</time>
</trkpt>
<trkpt lat="45.8955090" lon="10.3166370">
	<ele>1483.80</ele>
	<time>2025-07-29T11:06:22.000Z</time>
</trkpt>
<trkpt lat="45.8955160" lon="10.3166230">
	<ele>1483.80</ele>
	<time>2025-07-29T11:06:23.000Z</time>
</trkpt>
<trkpt lat="45.8955250" lon="10.3166110">
	<ele>1483.60</ele>
	<time>2025-07-29T11:06:24.000Z</time>
</trkpt>
<trkpt lat="45.8955280" lon="10.3165950">
	<ele>1483.60</ele>
	<time>2025-07-29T11:06:25.000Z</time>
</trkpt>
<trkpt lat="45.8955410" lon="10.3165820">
	<ele>1483.40</ele>
	<time>2025-07-29T11:06:26.000Z</time>
</trkpt>
<trkpt lat="45.8955540" lon="10.3165780">
	<ele>1483.20</ele>
	<time>2025-07-29T11:06:27.000Z</time>
</trkpt>
<trkpt lat="45.8955650" lon="10.3165740">
	<ele>1483.20</ele>
	<time>2025-07-29T11:06:28.000Z</time>
</trkpt>
<trkpt lat="45.8955770" lon="10.3165680">
	<ele>1483.00</ele>
	<time>2025-07-29T11:06:29.000Z</time>
</trkpt>
<trkpt lat="45.8955980" lon="10.3165710">
	<ele>1483.00</ele>
	<time>2025-07-29T11:06:30.000Z</time>
</trkpt>
<trkpt lat="45.8956220" lon="10.3165740">
	<ele>1482.80</ele>
	<time>2025-07-29T11:06:31.000Z</time>
</trkpt>
<trkpt lat="45.8956290" lon="10.3165700">
	<ele>1482.80</ele>
	<time>2025-07-29T11:06:32.000Z</time>
</trkpt>
<trkpt lat="45.8956390" lon="10.3165630">
	<ele>1482.80</ele>
	<time>2025-07-29T11:06:33.000Z</time>
</trkpt>
<trkpt lat="45.8956460" lon="10.3165550">
	<ele>1482.80</ele>
	<time>2025-07-29T11:06:34.000Z</time>
</trkpt>
<trkpt lat="45.8956510" lon="10.3165470">
	<ele>1482.80</ele>
	<time>2025-07-29T11:06:35.000Z</time>
</trkpt>
<trkpt lat="45.8956600" lon="10.3165370">
	<ele>1482.80</ele>
	<time>2025-07-29T11:06:36.000Z</time>
</trkpt>
<trkpt lat="45.8956670" lon="10.3165270">
	<ele>1482.80</ele>
	<time>2025-07-29T11:06:37.000Z</time>
</trkpt>
<trkpt lat="45.8956710" lon="10.3165240">
	<ele>1482.80</ele>
	<time>2025-07-29T11:06:38.000Z</time>
</trkpt>
<trkpt lat="45.8956830" lon="10.3165220">
	<ele>1482.60</ele>
	<time>2025-07-29T11:06:39.000Z</time>
</trkpt>
<trkpt lat="45.8956960" lon="10.3165140">
	<ele>1482.60</ele>
	<time>2025-07-29T11:06:40.000Z</time>
</trkpt>
<trkpt lat="45.8957000" lon="10.3165090">
	<ele>1482.60</ele>
	<time>2025-07-29T11:06:41.000Z</time>
</trkpt>
<trkpt lat="45.8957070" lon="10.3165010">
	<ele>1482.40</ele>
	<time>2025-07-29T11:06:42.000Z</time>
</trkpt>
<trkpt lat="45.8957080" lon="10.3164950">
	<ele>1482.20</ele>
	<time>2025-07-29T11:06:43.000Z</time>
</trkpt>
<trkpt lat="45.8957110" lon="10.3164940">
	<ele>1482.00</ele>
	<time>2025-07-29T11:06:44.000Z</time>
</trkpt>
<trkpt lat="45.8957090" lon="10.3164920">
	<ele>1482.00</ele>
	<time>2025-07-29T11:06:45.000Z</time>
</trkpt>
<trkpt lat="45.8957110" lon="10.3164910">
	<ele>1482.00</ele>
	<time>2025-07-29T11:06:46.000Z</time>
</trkpt>
<trkpt lat="45.8957110" lon="10.3164870">
	<ele>1481.80</ele>
	<time>2025-07-29T11:06:47.000Z</time>
</trkpt>
<trkpt lat="45.8957200" lon="10.3164840">
	<ele>1481.60</ele>
	<time>2025-07-29T11:06:48.000Z</time>
</trkpt>
<trkpt lat="45.8957320" lon="10.3164800">
	<ele>1481.60</ele>
	<time>2025-07-29T11:06:49.000Z</time>
</trkpt>
<trkpt lat="45.8957400" lon="10.3164710">
	<ele>1481.40</ele>
	<time>2025-07-29T11:06:50.000Z</time>
</trkpt>
<trkpt lat="45.8957440" lon="10.3164700">
	<ele>1481.40</ele>
	<time>2025-07-29T11:06:51.000Z</time>
</trkpt>
<trkpt lat="45.8957590" lon="10.3164590">
	<ele>1481.40</ele>
	<time>2025-07-29T11:06:52.000Z</time>
</trkpt>
<trkpt lat="45.8957600" lon="10.3164540">
	<ele>1481.20</ele>
	<time>2025-07-29T11:06:53.000Z</time>
</trkpt>
<trkpt lat="45.8957730" lon="10.3164430">
	<ele>1481.00</ele>
	<time>2025-07-29T11:06:54.000Z</time>
</trkpt>
<trkpt lat="45.8957880" lon="10.3164320">
	<ele>1481.00</ele>
	<time>2025-07-29T11:06:55.000Z</time>
</trkpt>
<trkpt lat="45.8958010" lon="10.3164160">
	<ele>1480.80</ele>
	<time>2025-07-29T11:06:56.000Z</time>
</trkpt>
<trkpt lat="45.8958120" lon="10.3163970">
	<ele>1480.80</ele>
	<time>2025-07-29T11:06:57.000Z</time>
</trkpt>
<trkpt lat="45.8958200" lon="10.3163720">
	<ele>1480.80</ele>
	<time>2025-07-29T11:06:58.000Z</time>
</trkpt>
<trkpt lat="45.8958240" lon="10.3163490">
	<ele>1480.80</ele>
	<time>2025-07-29T11:06:59.000Z</time>
</trkpt>
<trkpt lat="45.8958380" lon="10.3163300">
	<ele>1480.60</ele>
	<time>2025-07-29T11:07:00.000Z</time>
</trkpt>
<trkpt lat="45.8958520" lon="10.3163170">
	<ele>1480.60</ele>
	<time>2025-07-29T11:07:01.000Z</time>
</trkpt>
<trkpt lat="45.8958660" lon="10.3163100">
	<ele>1480.60</ele>
	<time>2025-07-29T11:07:02.000Z</time>
</trkpt>
<trkpt lat="45.8958730" lon="10.3162980">
	<ele>1480.40</ele>
	<time>2025-07-29T11:07:03.000Z</time>
</trkpt>
<trkpt lat="45.8958790" lon="10.3162880">
	<ele>1480.20</ele>
	<time>2025-07-29T11:07:04.000Z</time>
</trkpt>
<trkpt lat="45.8958920" lon="10.3162850">
	<ele>1480.00</ele>
	<time>2025-07-29T11:07:05.000Z</time>
</trkpt>
<trkpt lat="45.8959040" lon="10.3162720">
	<ele>1479.80</ele>
	<time>2025-07-29T11:07:06.000Z</time>
</trkpt>
<trkpt lat="45.8959210" lon="10.3162520">
	<ele>1479.60</ele>
	<time>2025-07-29T11:07:07.000Z</time>
</trkpt>
<trkpt lat="45.8959410" lon="10.3162340">
	<ele>1479.60</ele>
	<time>2025-07-29T11:07:08.000Z</time>
</trkpt>
<trkpt lat="45.8959590" lon="10.3162160">
	<ele>1479.40</ele>
	<time>2025-07-29T11:07:09.000Z</time>
</trkpt>
<trkpt lat="45.8959670" lon="10.3162010">
	<ele>1479.20</ele>
	<time>2025-07-29T11:07:10.000Z</time>
</trkpt>
<trkpt lat="45.8959730" lon="10.3161860">
	<ele>1479.00</ele>
	<time>2025-07-29T11:07:11.000Z</time>
</trkpt>
<trkpt lat="45.8959740" lon="10.3161660">
	<ele>1478.80</ele>
	<time>2025-07-29T11:07:12.000Z</time>
</trkpt>
<trkpt lat="45.8959750" lon="10.3161380">
	<ele>1478.60</ele>
	<time>2025-07-29T11:07:13.000Z</time>
</trkpt>
<trkpt lat="45.8959800" lon="10.3161120">
	<ele>1478.60</ele>
	<time>2025-07-29T11:07:14.000Z</time>
</trkpt>
<trkpt lat="45.8959840" lon="10.3160870">
	<ele>1478.60</ele>
	<time>2025-07-29T11:07:15.000Z</time>
</trkpt>
<trkpt lat="45.8959880" lon="10.3160640">
	<ele>1478.60</ele>
	<time>2025-07-29T11:07:16.000Z</time>
</trkpt>
<trkpt lat="45.8959930" lon="10.3160460">
	<ele>1478.60</ele>
	<time>2025-07-29T11:07:17.000Z</time>
</trkpt>
<trkpt lat="45.8960000" lon="10.3160300">
	<ele>1478.60</ele>
	<time>2025-07-29T11:07:18.000Z</time>
</trkpt>
<trkpt lat="45.8960200" lon="10.3160120">
	<ele>1478.60</ele>
	<time>2025-07-29T11:07:19.000Z</time>
</trkpt>
<trkpt lat="45.8960380" lon="10.3159990">
	<ele>1478.40</ele>
	<time>2025-07-29T11:07:20.000Z</time>
</trkpt>
<trkpt lat="45.8960540" lon="10.3159750">
	<ele>1478.40</ele>
	<time>2025-07-29T11:07:21.000Z</time>
</trkpt>
<trkpt lat="45.8960640" lon="10.3159530">
	<ele>1478.20</ele>
	<time>2025-07-29T11:07:22.000Z</time>
</trkpt>
<trkpt lat="45.8960740" lon="10.3159350">
	<ele>1478.20</ele>
	<time>2025-07-29T11:07:23.000Z</time>
</trkpt>
<trkpt lat="45.8960820" lon="10.3159150">
	<ele>1478.20</ele>
	<time>2025-07-29T11:07:24.000Z</time>
</trkpt>
<trkpt lat="45.8960850" lon="10.3158960">
	<ele>1478.20</ele>
	<time>2025-07-29T11:07:25.000Z</time>
</trkpt>
<trkpt lat="45.8960860" lon="10.3158750">
	<ele>1478.00</ele>
	<time>2025-07-29T11:07:26.000Z</time>
</trkpt>
<trkpt lat="45.8960960" lon="10.3158550">
	<ele>1478.00</ele>
	<time>2025-07-29T11:07:27.000Z</time>
</trkpt>
<trkpt lat="45.8961040" lon="10.3158460">
	<ele>1478.00</ele>
	<time>2025-07-29T11:07:28.000Z</time>
</trkpt>
<trkpt lat="45.8961050" lon="10.3158430">
	<ele>1478.00</ele>
	<time>2025-07-29T11:07:29.000Z</time>
</trkpt>
<trkpt lat="45.8961030" lon="10.3158350">
	<ele>1478.00</ele>
	<time>2025-07-29T11:07:30.000Z</time>
</trkpt>
<trkpt lat="45.8961090" lon="10.3158200">
	<ele>1478.00</ele>
	<time>2025-07-29T11:07:31.000Z</time>
</trkpt>
<trkpt lat="45.8961190" lon="10.3158090">
	<ele>1477.80</ele>
	<time>2025-07-29T11:07:32.000Z</time>
</trkpt>
<trkpt lat="45.8961210" lon="10.3157920">
	<ele>1477.80</ele>
	<time>2025-07-29T11:07:33.000Z</time>
</trkpt>
<trkpt lat="45.8961270" lon="10.3157670">
	<ele>1477.60</ele>
	<time>2025-07-29T11:07:34.000Z</time>
</trkpt>
<trkpt lat="45.8961300" lon="10.3157430">
	<ele>1477.60</ele>
	<time>2025-07-29T11:07:35.000Z</time>
</trkpt>
<trkpt lat="45.8961400" lon="10.3157180">
	<ele>1477.60</ele>
	<time>2025-07-29T11:07:36.000Z</time>
</trkpt>
<trkpt lat="45.8961450" lon="10.3157040">
	<ele>1477.60</ele>
	<time>2025-07-29T11:07:37.000Z</time>
</trkpt>
<trkpt lat="45.8961440" lon="10.3156940">
	<ele>1477.60</ele>
	<time>2025-07-29T11:07:38.000Z</time>
</trkpt>
<trkpt lat="45.8961500" lon="10.3156850">
	<ele>1477.60</ele>
	<time>2025-07-29T11:07:39.000Z</time>
</trkpt>
<trkpt lat="45.8961540" lon="10.3156720">
	<ele>1477.60</ele>
	<time>2025-07-29T11:07:40.000Z</time>
</trkpt>
<trkpt lat="45.8961600" lon="10.3156530">
	<ele>1477.60</ele>
	<time>2025-07-29T11:07:41.000Z</time>
</trkpt>
<trkpt lat="45.8961750" lon="10.3156300">
	<ele>1477.60</ele>
	<time>2025-07-29T11:07:42.000Z</time>
</trkpt>
<trkpt lat="45.8961960" lon="10.3156150">
	<ele>1477.60</ele>
	<time>2025-07-29T11:07:43.000Z</time>
</trkpt>
<trkpt lat="45.8962130" lon="10.3156040">
	<ele>1477.60</ele>
	<time>2025-07-29T11:07:44.000Z</time>
</trkpt>
<trkpt lat="45.8962290" lon="10.3155910">
	<ele>1477.60</ele>
	<time>2025-07-29T11:07:45.000Z</time>
</trkpt>
<trkpt lat="45.8962400" lon="10.3155820">
	<ele>1477.60</ele>
	<time>2025-07-29T11:07:46.000Z</time>
</trkpt>
<trkpt lat="45.8962460" lon="10.3155620">
	<ele>1477.60</ele>
	<time>2025-07-29T11:07:47.000Z</time>
</trkpt>
<trkpt lat="45.8962550" lon="10.3155420">
	<ele>1477.60</ele>
	<time>2025-07-29T11:07:48.000Z</time>
</trkpt>
<trkpt lat="45.8962590" lon="10.3155280">
	<ele>1477.40</ele>
	<time>2025-07-29T11:07:49.000Z</time>
</trkpt>
<trkpt lat="45.8962690" lon="10.3155170">
	<ele>1477.40</ele>
	<time>2025-07-29T11:07:50.000Z</time>
</trkpt>
<trkpt lat="45.8962860" lon="10.3155010">
	<ele>1477.20</ele>
	<time>2025-07-29T11:07:51.000Z</time>
</trkpt>
<trkpt lat="45.8962940" lon="10.3154880">
	<ele>1477.20</ele>
	<time>2025-07-29T11:07:52.000Z</time>
</trkpt>
<trkpt lat="45.8963040" lon="10.3154770">
	<ele>1477.20</ele>
	<time>2025-07-29T11:07:53.000Z</time>
</trkpt>
<trkpt lat="45.8963190" lon="10.3154680">
	<ele>1477.20</ele>
	<time>2025-07-29T11:07:54.000Z</time>
</trkpt>
<trkpt lat="45.8963360" lon="10.3154620">
	<ele>1477.00</ele>
	<time>2025-07-29T11:07:55.000Z</time>
</trkpt>
<trkpt lat="45.8963590" lon="10.3154540">
	<ele>1476.80</ele>
	<time>2025-07-29T11:07:56.000Z</time>
</trkpt>
<trkpt lat="45.8963720" lon="10.3154490">
	<ele>1476.60</ele>
	<time>2025-07-29T11:07:57.000Z</time>
</trkpt>
<trkpt lat="45.8963730" lon="10.3154350">
	<ele>1476.40</ele>
	<time>2025-07-29T11:07:58.000Z</time>
</trkpt>
<trkpt lat="45.8963700" lon="10.3154100">
	<ele>1476.20</ele>
	<time>2025-07-29T11:07:59.000Z</time>
</trkpt>
<trkpt lat="45.8963750" lon="10.3154020">
	<ele>1476.20</ele>
	<time>2025-07-29T11:08:00.000Z</time>
</trkpt>
<trkpt lat="45.8963840" lon="10.3153920">
	<ele>1476.00</ele>
	<time>2025-07-29T11:08:01.000Z</time>
</trkpt>
<trkpt lat="45.8963890" lon="10.3153800">
	<ele>1475.80</ele>
	<time>2025-07-29T11:08:02.000Z</time>
</trkpt>
<trkpt lat="45.8963850" lon="10.3153570">
	<ele>1475.60</ele>
	<time>2025-07-29T11:08:03.000Z</time>
</trkpt>
<trkpt lat="45.8963890" lon="10.3153390">
	<ele>1475.60</ele>
	<time>2025-07-29T11:08:04.000Z</time>
</trkpt>
<trkpt lat="45.8963850" lon="10.3153130">
	<ele>1475.40</ele>
	<time>2025-07-29T11:08:05.000Z</time>
</trkpt>
<trkpt lat="45.8963910" lon="10.3152920">
	<ele>1475.40</ele>
	<time>2025-07-29T11:08:06.000Z</time>
</trkpt>
<trkpt lat="45.8964040" lon="10.3152830">
	<ele>1475.20</ele>
	<time>2025-07-29T11:08:07.000Z</time>
</trkpt>
<trkpt lat="45.8964120" lon="10.3152690">
	<ele>1475.20</ele>
	<time>2025-07-29T11:08:08.000Z</time>
</trkpt>
<trkpt lat="45.8964190" lon="10.3152660">
	<ele>1475.20</ele>
	<time>2025-07-29T11:08:09.000Z</time>
</trkpt>
<trkpt lat="45.8964210" lon="10.3152550">
	<ele>1475.20</ele>
	<time>2025-07-29T11:08:10.000Z</time>
</trkpt>
<trkpt lat="45.8964260" lon="10.3152470">
	<ele>1475.20</ele>
	<time>2025-07-29T11:08:11.000Z</time>
</trkpt>
<trkpt lat="45.8964260" lon="10.3152380">
	<ele>1475.20</ele>
	<time>2025-07-29T11:08:12.000Z</time>
</trkpt>
<trkpt lat="45.8964300" lon="10.3152360">
	<ele>1475.40</ele>
	<time>2025-07-29T11:08:13.000Z</time>
</trkpt>
<trkpt lat="45.8964320" lon="10.3152360">
	<ele>1475.40</ele>
	<time>2025-07-29T11:08:14.000Z</time>
</trkpt>
<trkpt lat="45.8964330" lon="10.3152360">
	<ele>1475.40</ele>
	<time>2025-07-29T11:08:15.000Z</time>
</trkpt>
<trkpt lat="45.8964350" lon="10.3152340">
	<ele>1475.20</ele>
	<time>2025-07-29T11:08:16.000Z</time>
</trkpt>
<trkpt lat="45.8964450" lon="10.3152280">
	<ele>1475.20</ele>
	<time>2025-07-29T11:08:17.000Z</time>
</trkpt>
<trkpt lat="45.8964530" lon="10.3152160">
	<ele>1475.00</ele>
	<time>2025-07-29T11:08:18.000Z</time>
</trkpt>
<trkpt lat="45.8964650" lon="10.3152130">
	<ele>1474.60</ele>
	<time>2025-07-29T11:08:19.000Z</time>
</trkpt>
<trkpt lat="45.8964750" lon="10.3152080">
	<ele>1474.60</ele>
	<time>2025-07-29T11:08:20.000Z</time>
</trkpt>
<trkpt lat="45.8964860" lon="10.3152000">
	<ele>1474.40</ele>
	<time>2025-07-29T11:08:21.000Z</time>
</trkpt>
<trkpt lat="45.8964950" lon="10.3151880">
	<ele>1474.40</ele>
	<time>2025-07-29T11:08:22.000Z</time>
</trkpt>
<trkpt lat="45.8965010" lon="10.3151770">
	<ele>1474.20</ele>
	<time>2025-07-29T11:08:23.000Z</time>
</trkpt>
<trkpt lat="45.8965080" lon="10.3151630">
	<ele>1474.20</ele>
	<time>2025-07-29T11:08:24.000Z</time>
</trkpt>
<trkpt lat="45.8965180" lon="10.3151520">
	<ele>1474.00</ele>
	<time>2025-07-29T11:08:25.000Z</time>
</trkpt>
<trkpt lat="45.8965270" lon="10.3151410">
	<ele>1473.80</ele>
	<time>2025-07-29T11:08:26.000Z</time>
</trkpt>
<trkpt lat="45.8965360" lon="10.3151290">
	<ele>1473.60</ele>
	<time>2025-07-29T11:08:27.000Z</time>
</trkpt>
<trkpt lat="45.8965450" lon="10.3151150">
	<ele>1473.20</ele>
	<time>2025-07-29T11:08:28.000Z</time>
</trkpt>
<trkpt lat="45.8965540" lon="10.3151030">
	<ele>1473.00</ele>
	<time>2025-07-29T11:08:29.000Z</time>
</trkpt>
<trkpt lat="45.8965620" lon="10.3150920">
	<ele>1473.00</ele>
	<time>2025-07-29T11:08:30.000Z</time>
</trkpt>
<trkpt lat="45.8965700" lon="10.3150820">
	<ele>1472.60</ele>
	<time>2025-07-29T11:08:31.000Z</time>
</trkpt>
<trkpt lat="45.8965770" lon="10.3150720">
	<ele>1472.40</ele>
	<time>2025-07-29T11:08:32.000Z</time>
</trkpt>
<trkpt lat="45.8965860" lon="10.3150610">
	<ele>1472.20</ele>
	<time>2025-07-29T11:08:33.000Z</time>
</trkpt>
<trkpt lat="45.8965960" lon="10.3150480">
	<ele>1472.00</ele>
	<time>2025-07-29T11:08:34.000Z</time>
</trkpt>
<trkpt lat="45.8966050" lon="10.3150360">
	<ele>1471.60</ele>
	<time>2025-07-29T11:08:35.000Z</time>
</trkpt>
<trkpt lat="45.8966110" lon="10.3150210">
	<ele>1471.40</ele>
	<time>2025-07-29T11:08:36.000Z</time>
</trkpt>
<trkpt lat="45.8966140" lon="10.3150050">
	<ele>1471.00</ele>
	<time>2025-07-29T11:08:37.000Z</time>
</trkpt>
<trkpt lat="45.8966220" lon="10.3149930">
	<ele>1470.80</ele>
	<time>2025-07-29T11:08:38.000Z</time>
</trkpt>
<trkpt lat="45.8966290" lon="10.3149820">
	<ele>1470.60</ele>
	<time>2025-07-29T11:08:39.000Z</time>
</trkpt>
<trkpt lat="45.8966420" lon="10.3149720">
	<ele>1470.40</ele>
	<time>2025-07-29T11:08:40.000Z</time>
</trkpt>
<trkpt lat="45.8966540" lon="10.3149620">
	<ele>1470.00</ele>
	<time>2025-07-29T11:08:41.000Z</time>
</trkpt>
<trkpt lat="45.8966650" lon="10.3149510">
	<ele>1469.80</ele>
	<time>2025-07-29T11:08:42.000Z</time>
</trkpt>
<trkpt lat="45.8966730" lon="10.3149360">
	<ele>1469.60</ele>
	<time>2025-07-29T11:08:43.000Z</time>
</trkpt>
<trkpt lat="45.8966830" lon="10.3149280">
	<ele>1469.40</ele>
	<time>2025-07-29T11:08:44.000Z</time>
</trkpt>
<trkpt lat="45.8966930" lon="10.3149190">
	<ele>1469.00</ele>
	<time>2025-07-29T11:08:45.000Z</time>
</trkpt>
<trkpt lat="45.8967020" lon="10.3149070">
	<ele>1468.80</ele>
	<time>2025-07-29T11:08:46.000Z</time>
</trkpt>
<trkpt lat="45.8967050" lon="10.3148970">
	<ele>1468.40</ele>
	<time>2025-07-29T11:08:47.000Z</time>
</trkpt>
<trkpt lat="45.8967110" lon="10.3148870">
	<ele>1468.20</ele>
	<time>2025-07-29T11:08:48.000Z</time>
</trkpt>
<trkpt lat="45.8967150" lon="10.3148740">
	<ele>1468.00</ele>
	<time>2025-07-29T11:08:49.000Z</time>
</trkpt>
<trkpt lat="45.8967220" lon="10.3148610">
	<ele>1467.80</ele>
	<time>2025-07-29T11:08:50.000Z</time>
</trkpt>
<trkpt lat="45.8967300" lon="10.3148480">
	<ele>1467.60</ele>
	<time>2025-07-29T11:08:51.000Z</time>
</trkpt>
<trkpt lat="45.8967370" lon="10.3148340">
	<ele>1467.20</ele>
	<time>2025-07-29T11:08:52.000Z</time>
</trkpt>
<trkpt lat="45.8967460" lon="10.3148220">
	<ele>1467.00</ele>
	<time>2025-07-29T11:08:53.000Z</time>
</trkpt>
<trkpt lat="45.8967560" lon="10.3148110">
	<ele>1467.00</ele>
	<time>2025-07-29T11:08:54.000Z</time>
</trkpt>
<trkpt lat="45.8967630" lon="10.3148030">
	<ele>1466.80</ele>
	<time>2025-07-29T11:08:55.000Z</time>
</trkpt>
<trkpt lat="45.8967720" lon="10.3147930">
	<ele>1466.80</ele>
	<time>2025-07-29T11:08:56.000Z</time>
</trkpt>
<trkpt lat="45.8967770" lon="10.3147840">
	<ele>1466.60</ele>
	<time>2025-07-29T11:08:57.000Z</time>
</trkpt>
<trkpt lat="45.8967870" lon="10.3147740">
	<ele>1466.40</ele>
	<time>2025-07-29T11:08:58.000Z</time>
</trkpt>
<trkpt lat="45.8967960" lon="10.3147620">
	<ele>1466.40</ele>
	<time>2025-07-29T11:08:59.000Z</time>
</trkpt>
<trkpt lat="45.8968030" lon="10.3147490">
	<ele>1466.20</ele>
	<time>2025-07-29T11:09:00.000Z</time>
</trkpt>
<trkpt lat="45.8968070" lon="10.3147360">
	<ele>1466.20</ele>
	<time>2025-07-29T11:09:01.000Z</time>
</trkpt>
<trkpt lat="45.8968140" lon="10.3147260">
	<ele>1466.00</ele>
	<time>2025-07-29T11:09:02.000Z</time>
</trkpt>
<trkpt lat="45.8968180" lon="10.3147180">
	<ele>1465.80</ele>
	<time>2025-07-29T11:09:03.000Z</time>
</trkpt>
<trkpt lat="45.8968210" lon="10.3147110">
	<ele>1465.60</ele>
	<time>2025-07-29T11:09:04.000Z</time>
</trkpt>
<trkpt lat="45.8968210" lon="10.3147050">
	<ele>1465.60</ele>
	<time>2025-07-29T11:09:05.000Z</time>
</trkpt>
<trkpt lat="45.8968180" lon="10.3146980">
	<ele>1465.40</ele>
	<time>2025-07-29T11:09:06.000Z</time>
</trkpt>
<trkpt lat="45.8968170" lon="10.3146900">
	<ele>1465.40</ele>
	<time>2025-07-29T11:09:07.000Z</time>
</trkpt>
<trkpt lat="45.8968220" lon="10.3146800">
	<ele>1465.40</ele>
	<time>2025-07-29T11:09:08.000Z</time>
</trkpt>
<trkpt lat="45.8968320" lon="10.3146690">
	<ele>1465.40</ele>
	<time>2025-07-29T11:09:09.000Z</time>
</trkpt>
<trkpt lat="45.8968330" lon="10.3146650">
	<ele>1465.20</ele>
	<time>2025-07-29T11:09:10.000Z</time>
</trkpt>
<trkpt lat="45.8968340" lon="10.3146620">
	<ele>1465.20</ele>
	<time>2025-07-29T11:09:11.000Z</time>
</trkpt>
<trkpt lat="45.8968330" lon="10.3146590">
	<ele>1465.20</ele>
	<time>2025-07-29T11:09:12.000Z</time>
</trkpt>
<trkpt lat="45.8968320" lon="10.3146590">
	<ele>1465.00</ele>
	<time>2025-07-29T11:09:13.000Z</time>
</trkpt>
<trkpt lat="45.8968320" lon="10.3146580">
	<ele>1465.20</ele>
	<time>2025-07-29T11:09:14.000Z</time>
</trkpt>
<trkpt lat="45.8968310" lon="10.3146600">
	<ele>1465.20</ele>
	<time>2025-07-29T11:09:15.000Z</time>
</trkpt>
<trkpt lat="45.8968310" lon="10.3146630">
	<ele>1465.20</ele>
	<time>2025-07-29T11:09:16.000Z</time>
</trkpt>
<trkpt lat="45.8968280" lon="10.3146630">
	<ele>1465.20</ele>
	<time>2025-07-29T11:09:17.000Z</time>
</trkpt>
<trkpt lat="45.8968300" lon="10.3146630">
	<ele>1465.20</ele>
	<time>2025-07-29T11:09:18.000Z</time>
</trkpt>
<trkpt lat="45.8968340" lon="10.3146640">
	<ele>1465.20</ele>
	<time>2025-07-29T11:09:19.000Z</time>
</trkpt>
<trkpt lat="45.8968390" lon="10.3146580">
	<ele>1465.20</ele>
	<time>2025-07-29T11:09:20.000Z</time>
</trkpt>
<trkpt lat="45.8968440" lon="10.3146480">
	<ele>1465.00</ele>
	<time>2025-07-29T11:09:21.000Z</time>
</trkpt>
<trkpt lat="45.8968480" lon="10.3146340">
	<ele>1465.00</ele>
	<time>2025-07-29T11:09:22.000Z</time>
</trkpt>
<trkpt lat="45.8968550" lon="10.3146200">
	<ele>1465.00</ele>
	<time>2025-07-29T11:09:23.000Z</time>
</trkpt>
<trkpt lat="45.8968650" lon="10.3146070">
	<ele>1464.80</ele>
	<time>2025-07-29T11:09:24.000Z</time>
</trkpt>
<trkpt lat="45.8968800" lon="10.3145940">
	<ele>1464.80</ele>
	<time>2025-07-29T11:09:25.000Z</time>
</trkpt>
<trkpt lat="45.8968960" lon="10.3145870">
	<ele>1464.80</ele>
	<time>2025-07-29T11:09:26.000Z</time>
</trkpt>
<trkpt lat="45.8969070" lon="10.3145750">
	<ele>1464.60</ele>
	<time>2025-07-29T11:09:27.000Z</time>
</trkpt>
<trkpt lat="45.8969150" lon="10.3145690">
	<ele>1464.60</ele>
	<time>2025-07-29T11:09:28.000Z</time>
</trkpt>
<trkpt lat="45.8969230" lon="10.3145590">
	<ele>1464.40</ele>
	<time>2025-07-29T11:09:29.000Z</time>
</trkpt>
<trkpt lat="45.8969310" lon="10.3145470">
	<ele>1464.40</ele>
	<time>2025-07-29T11:09:30.000Z</time>
</trkpt>
<trkpt lat="45.8969420" lon="10.3145370">
	<ele>1464.40</ele>
	<time>2025-07-29T11:09:31.000Z</time>
</trkpt>
<trkpt lat="45.8969470" lon="10.3145260">
	<ele>1464.20</ele>
	<time>2025-07-29T11:09:32.000Z</time>
</trkpt>
<trkpt lat="45.8969560" lon="10.3145230">
	<ele>1464.20</ele>
	<time>2025-07-29T11:09:33.000Z</time>
</trkpt>
<trkpt lat="45.8969600" lon="10.3145230">
	<ele>1464.20</ele>
	<time>2025-07-29T11:09:34.000Z</time>
</trkpt>
<trkpt lat="45.8969620" lon="10.3145230">
	<ele>1464.20</ele>
	<time>2025-07-29T11:09:35.000Z</time>
</trkpt>
<trkpt lat="45.8969640" lon="10.3145230">
	<ele>1464.20</ele>
	<time>2025-07-29T11:09:36.000Z</time>
</trkpt>
<trkpt lat="45.8969650" lon="10.3145220">
	<ele>1464.20</ele>
	<time>2025-07-29T11:09:37.000Z</time>
</trkpt>
<trkpt lat="45.8969670" lon="10.3145210">
	<ele>1464.20</ele>
	<time>2025-07-29T11:09:38.000Z</time>
</trkpt>
<trkpt lat="45.8969710" lon="10.3145150">
	<ele>1464.20</ele>
	<time>2025-07-29T11:09:39.000Z</time>
</trkpt>
<trkpt lat="45.8969810" lon="10.3145080">
	<ele>1464.00</ele>
	<time>2025-07-29T11:09:40.000Z</time>
</trkpt>
<trkpt lat="45.8969970" lon="10.3145000">
	<ele>1464.00</ele>
	<time>2025-07-29T11:09:41.000Z</time>
</trkpt>
<trkpt lat="45.8970090" lon="10.3144900">
	<ele>1463.80</ele>
	<time>2025-07-29T11:09:42.000Z</time>
</trkpt>
<trkpt lat="45.8970160" lon="10.3144760">
	<ele>1463.80</ele>
	<time>2025-07-29T11:09:43.000Z</time>
</trkpt>
<trkpt lat="45.8970190" lon="10.3144670">
	<ele>1463.60</ele>
	<time>2025-07-29T11:09:44.000Z</time>
</trkpt>
<trkpt lat="45.8970210" lon="10.3144610">
	<ele>1463.60</ele>
	<time>2025-07-29T11:09:45.000Z</time>
</trkpt>
<trkpt lat="45.8970230" lon="10.3144560">
	<ele>1463.60</ele>
	<time>2025-07-29T11:09:46.000Z</time>
</trkpt>
<trkpt lat="45.8970240" lon="10.3144530">
	<ele>1463.60</ele>
	<time>2025-07-29T11:09:47.000Z</time>
</trkpt>
<trkpt lat="45.8970240" lon="10.3144430">
	<ele>1463.60</ele>
	<time>2025-07-29T11:09:48.000Z</time>
</trkpt>
<trkpt lat="45.8970260" lon="10.3144310">
	<ele>1463.40</ele>
	<time>2025-07-29T11:09:49.000Z</time>
</trkpt>
<trkpt lat="45.8970320" lon="10.3144190">
	<ele>1463.20</ele>
	<time>2025-07-29T11:09:50.000Z</time>
</trkpt>
<trkpt lat="45.8970400" lon="10.3144070">
	<ele>1463.20</ele>
	<time>2025-07-29T11:09:51.000Z</time>
</trkpt>
<trkpt lat="45.8970500" lon="10.3143970">
	<ele>1463.00</ele>
	<time>2025-07-29T11:09:52.000Z</time>
</trkpt>
<trkpt lat="45.8970610" lon="10.3143860">
	<ele>1463.00</ele>
	<time>2025-07-29T11:09:53.000Z</time>
</trkpt>
<trkpt lat="45.8970710" lon="10.3143730">
	<ele>1463.00</ele>
	<time>2025-07-29T11:09:54.000Z</time>
</trkpt>
<trkpt lat="45.8970790" lon="10.3143600">
	<ele>1463.00</ele>
	<time>2025-07-29T11:09:55.000Z</time>
</trkpt>
<trkpt lat="45.8970860" lon="10.3143490">
	<ele>1462.80</ele>
	<time>2025-07-29T11:09:56.000Z</time>
</trkpt>
<trkpt lat="45.8970900" lon="10.3143340">
	<ele>1462.80</ele>
	<time>2025-07-29T11:09:57.000Z</time>
</trkpt>
<trkpt lat="45.8970940" lon="10.3143160">
	<ele>1462.80</ele>
	<time>2025-07-29T11:09:58.000Z</time>
</trkpt>
<trkpt lat="45.8970970" lon="10.3142940">
	<ele>1462.80</ele>
	<time>2025-07-29T11:09:59.000Z</time>
</trkpt>
<trkpt lat="45.8971070" lon="10.3142820">
	<ele>1462.80</ele>
	<time>2025-07-29T11:10:00.000Z</time>
</trkpt>
<trkpt lat="45.8971210" lon="10.3142700">
	<ele>1462.60</ele>
	<time>2025-07-29T11:10:01.000Z</time>
</trkpt>
<trkpt lat="45.8971340" lon="10.3142560">
	<ele>1462.60</ele>
	<time>2025-07-29T11:10:02.000Z</time>
</trkpt>
<trkpt lat="45.8971410" lon="10.3142380">
	<ele>1462.60</ele>
	<time>2025-07-29T11:10:03.000Z</time>
</trkpt>
<trkpt lat="45.8971470" lon="10.3142260">
	<ele>1462.40</ele>
	<time>2025-07-29T11:10:04.000Z</time>
</trkpt>
<trkpt lat="45.8971490" lon="10.3142140">
	<ele>1462.40</ele>
	<time>2025-07-29T11:10:05.000Z</time>
</trkpt>
<trkpt lat="45.8971520" lon="10.3142020">
	<ele>1462.20</ele>
	<time>2025-07-29T11:10:06.000Z</time>
</trkpt>
<trkpt lat="45.8971560" lon="10.3141920">
	<ele>1462.20</ele>
	<time>2025-07-29T11:10:07.000Z</time>
</trkpt>
<trkpt lat="45.8971610" lon="10.3141810">
	<ele>1462.20</ele>
	<time>2025-07-29T11:10:08.000Z</time>
</trkpt>
<trkpt lat="45.8971660" lon="10.3141720">
	<ele>1462.00</ele>
	<time>2025-07-29T11:10:09.000Z</time>
</trkpt>
<trkpt lat="45.8971700" lon="10.3141610">
	<ele>1462.00</ele>
	<time>2025-07-29T11:10:10.000Z</time>
</trkpt>
<trkpt lat="45.8971780" lon="10.3141450">
	<ele>1462.00</ele>
	<time>2025-07-29T11:10:11.000Z</time>
</trkpt>
<trkpt lat="45.8971890" lon="10.3141280">
	<ele>1461.80</ele>
	<time>2025-07-29T11:10:12.000Z</time>
</trkpt>
<trkpt lat="45.8971990" lon="10.3141100">
	<ele>1461.40</ele>
	<time>2025-07-29T11:10:13.000Z</time>
</trkpt>
<trkpt lat="45.8972080" lon="10.3140960">
	<ele>1461.40</ele>
	<time>2025-07-29T11:10:14.000Z</time>
</trkpt>
<trkpt lat="45.8972160" lon="10.3140820">
	<ele>1461.20</ele>
	<time>2025-07-29T11:10:15.000Z</time>
</trkpt>
<trkpt lat="45.8972190" lon="10.3140660">
	<ele>1461.20</ele>
	<time>2025-07-29T11:10:16.000Z</time>
</trkpt>
<trkpt lat="45.8972270" lon="10.3140540">
	<ele>1461.00</ele>
	<time>2025-07-29T11:10:17.000Z</time>
</trkpt>
<trkpt lat="45.8972330" lon="10.3140410">
	<ele>1461.00</ele>
	<time>2025-07-29T11:10:18.000Z</time>
</trkpt>
<trkpt lat="45.8972390" lon="10.3140260">
	<ele>1460.80</ele>
	<time>2025-07-29T11:10:19.000Z</time>
</trkpt>
<trkpt lat="45.8972420" lon="10.3140090">
	<ele>1460.40</ele>
	<time>2025-07-29T11:10:20.000Z</time>
</trkpt>
<trkpt lat="45.8972500" lon="10.3139960">
	<ele>1460.20</ele>
	<time>2025-07-29T11:10:21.000Z</time>
</trkpt>
<trkpt lat="45.8972570" lon="10.3139830">
	<ele>1460.00</ele>
	<time>2025-07-29T11:10:22.000Z</time>
</trkpt>
<trkpt lat="45.8972620" lon="10.3139650">
	<ele>1459.80</ele>
	<time>2025-07-29T11:10:23.000Z</time>
</trkpt>
<trkpt lat="45.8972690" lon="10.3139480">
	<ele>1459.60</ele>
	<time>2025-07-29T11:10:24.000Z</time>
</trkpt>
<trkpt lat="45.8972770" lon="10.3139330">
	<ele>1459.60</ele>
	<time>2025-07-29T11:10:25.000Z</time>
</trkpt>
<trkpt lat="45.8972800" lon="10.3139190">
	<ele>1459.40</ele>
	<time>2025-07-29T11:10:26.000Z</time>
</trkpt>
<trkpt lat="45.8972870" lon="10.3139050">
	<ele>1459.20</ele>
	<time>2025-07-29T11:10:27.000Z</time>
</trkpt>
<trkpt lat="45.8972950" lon="10.3138890">
	<ele>1458.80</ele>
	<time>2025-07-29T11:10:28.000Z</time>
</trkpt>
<trkpt lat="45.8973050" lon="10.3138760">
	<ele>1458.80</ele>
	<time>2025-07-29T11:10:29.000Z</time>
</trkpt>
<trkpt lat="45.8973130" lon="10.3138650">
	<ele>1458.60</ele>
	<time>2025-07-29T11:10:30.000Z</time>
</trkpt>
<trkpt lat="45.8973190" lon="10.3138550">
	<ele>1458.40</ele>
	<time>2025-07-29T11:10:31.000Z</time>
</trkpt>
<trkpt lat="45.8973150" lon="10.3138460">
	<ele>1458.40</ele>
	<time>2025-07-29T11:10:32.000Z</time>
</trkpt>
<trkpt lat="45.8973130" lon="10.3138390">
	<ele>1458.40</ele>
	<time>2025-07-29T11:10:33.000Z</time>
</trkpt>
<trkpt lat="45.8973130" lon="10.3138360">
	<ele>1458.40</ele>
	<time>2025-07-29T11:10:34.000Z</time>
</trkpt>
<trkpt lat="45.8973140" lon="10.3138350">
	<ele>1458.40</ele>
	<time>2025-07-29T11:10:35.000Z</time>
</trkpt>
<trkpt lat="45.8973160" lon="10.3138360">
	<ele>1458.40</ele>
	<time>2025-07-29T11:10:36.000Z</time>
</trkpt>
<trkpt lat="45.8973180" lon="10.3138340">
	<ele>1458.40</ele>
	<time>2025-07-29T11:10:37.000Z</time>
</trkpt>
<trkpt lat="45.8973200" lon="10.3138330">
	<ele>1458.40</ele>
	<time>2025-07-29T11:10:38.000Z</time>
</trkpt>
<trkpt lat="45.8973200" lon="10.3138310">
	<ele>1458.40</ele>
	<time>2025-07-29T11:10:39.000Z</time>
</trkpt>
<trkpt lat="45.8973210" lon="10.3138270">
	<ele>1458.40</ele>
	<time>2025-07-29T11:10:40.000Z</time>
</trkpt>
<trkpt lat="45.8973200" lon="10.3138170">
	<ele>1458.20</ele>
	<time>2025-07-29T11:10:41.000Z</time>
</trkpt>
<trkpt lat="45.8973220" lon="10.3138070">
	<ele>1458.00</ele>
	<time>2025-07-29T11:10:42.000Z</time>
</trkpt>
<trkpt lat="45.8973240" lon="10.3137980">
	<ele>1457.80</ele>
	<time>2025-07-29T11:10:43.000Z</time>
</trkpt>
<trkpt lat="45.8973270" lon="10.3137890">
	<ele>1457.80</ele>
	<time>2025-07-29T11:10:44.000Z</time>
</trkpt>
<trkpt lat="45.8973340" lon="10.3137740">
	<ele>1457.40</ele>
	<time>2025-07-29T11:10:45.000Z</time>
</trkpt>
<trkpt lat="45.8973360" lon="10.3137550">
	<ele>1457.20</ele>
	<time>2025-07-29T11:10:46.000Z</time>
</trkpt>
<trkpt lat="45.8973400" lon="10.3137360">
	<ele>1457.00</ele>
	<time>2025-07-29T11:10:47.000Z</time>
</trkpt>
<trkpt lat="45.8973450" lon="10.3137190">
	<ele>1456.80</ele>
	<time>2025-07-29T11:10:48.000Z</time>
</trkpt>
<trkpt lat="45.8973510" lon="10.3137080">
	<ele>1456.80</ele>
	<time>2025-07-29T11:10:49.000Z</time>
</trkpt>
<trkpt lat="45.8973560" lon="10.3136960">
	<ele>1456.60</ele>
	<time>2025-07-29T11:10:50.000Z</time>
</trkpt>
<trkpt lat="45.8973610" lon="10.3136840">
	<ele>1456.40</ele>
	<time>2025-07-29T11:10:51.000Z</time>
</trkpt>
<trkpt lat="45.8973680" lon="10.3136740">
	<ele>1456.00</ele>
	<time>2025-07-29T11:10:52.000Z</time>
</trkpt>
<trkpt lat="45.8973720" lon="10.3136640">
	<ele>1455.80</ele>
	<time>2025-07-29T11:10:53.000Z</time>
</trkpt>
<trkpt lat="45.8973780" lon="10.3136510">
	<ele>1455.60</ele>
	<time>2025-07-29T11:10:54.000Z</time>
</trkpt>
<trkpt lat="45.8973800" lon="10.3136370">
	<ele>1455.40</ele>
	<time>2025-07-29T11:10:55.000Z</time>
</trkpt>
<trkpt lat="45.8973810" lon="10.3136230">
	<ele>1455.40</ele>
	<time>2025-07-29T11:10:56.000Z</time>
</trkpt>
<trkpt lat="45.8973880" lon="10.3136160">
	<ele>1455.40</ele>
	<time>2025-07-29T11:10:57.000Z</time>
</trkpt>
<trkpt lat="45.8974030" lon="10.3136090">
	<ele>1455.20</ele>
	<time>2025-07-29T11:10:58.000Z</time>
</trkpt>
<trkpt lat="45.8974120" lon="10.3135950">
	<ele>1455.00</ele>
	<time>2025-07-29T11:10:59.000Z</time>
</trkpt>
<trkpt lat="45.8974160" lon="10.3135750">
	<ele>1454.80</ele>
	<time>2025-07-29T11:11:00.000Z</time>
</trkpt>
<trkpt lat="45.8974170" lon="10.3135600">
	<ele>1454.60</ele>
	<time>2025-07-29T11:11:01.000Z</time>
</trkpt>
<trkpt lat="45.8974180" lon="10.3135590">
	<ele>1454.40</ele>
	<time>2025-07-29T11:11:02.000Z</time>
</trkpt>
<trkpt lat="45.8974230" lon="10.3135520">
	<ele>1454.40</ele>
	<time>2025-07-29T11:11:03.000Z</time>
</trkpt>
<trkpt lat="45.8974270" lon="10.3135410">
	<ele>1454.20</ele>
	<time>2025-07-29T11:11:04.000Z</time>
</trkpt>
<trkpt lat="45.8974320" lon="10.3135270">
	<ele>1454.20</ele>
	<time>2025-07-29T11:11:05.000Z</time>
</trkpt>
<trkpt lat="45.8974360" lon="10.3135120">
	<ele>1454.00</ele>
	<time>2025-07-29T11:11:06.000Z</time>
</trkpt>
<trkpt lat="45.8974440" lon="10.3134990">
	<ele>1454.00</ele>
	<time>2025-07-29T11:11:07.000Z</time>
</trkpt>
<trkpt lat="45.8974470" lon="10.3134800">
	<ele>1453.80</ele>
	<time>2025-07-29T11:11:08.000Z</time>
</trkpt>
<trkpt lat="45.8974500" lon="10.3134620">
	<ele>1453.60</ele>
	<time>2025-07-29T11:11:09.000Z</time>
</trkpt>
<trkpt lat="45.8974530" lon="10.3134360">
	<ele>1453.40</ele>
	<time>2025-07-29T11:11:10.000Z</time>
</trkpt>
<trkpt lat="45.8974580" lon="10.3134200">
	<ele>1453.20</ele>
	<time>2025-07-29T11:11:11.000Z</time>
</trkpt>
<trkpt lat="45.8974660" lon="10.3134110">
	<ele>1453.00</ele>
	<time>2025-07-29T11:11:12.000Z</time>
</trkpt>
<trkpt lat="45.8974710" lon="10.3133970">
	<ele>1452.60</ele>
	<time>2025-07-29T11:11:13.000Z</time>
</trkpt>
<trkpt lat="45.8974730" lon="10.3133810">
	<ele>1452.40</ele>
	<time>2025-07-29T11:11:14.000Z</time>
</trkpt>
<trkpt lat="45.8974750" lon="10.3133650">
	<ele>1452.40</ele>
	<time>2025-07-29T11:11:15.000Z</time>
</trkpt>
<trkpt lat="45.8974810" lon="10.3133450">
	<ele>1452.20</ele>
	<time>2025-07-29T11:11:16.000Z</time>
</trkpt>
<trkpt lat="45.8974850" lon="10.3133290">
	<ele>1452.20</ele>
	<time>2025-07-29T11:11:17.000Z</time>
</trkpt>
<trkpt lat="45.8974850" lon="10.3133090">
	<ele>1452.00</ele>
	<time>2025-07-29T11:11:18.000Z</time>
</trkpt>
<trkpt lat="45.8974820" lon="10.3132870">
	<ele>1451.60</ele>
	<time>2025-07-29T11:11:19.000Z</time>
</trkpt>
<trkpt lat="45.8974850" lon="10.3132690">
	<ele>1451.60</ele>
	<time>2025-07-29T11:11:20.000Z</time>
</trkpt>
<trkpt lat="45.8974860" lon="10.3132520">
	<ele>1451.40</ele>
	<time>2025-07-29T11:11:21.000Z</time>
</trkpt>
<trkpt lat="45.8974870" lon="10.3132420">
	<ele>1451.20</ele>
	<time>2025-07-29T11:11:22.000Z</time>
</trkpt>
<trkpt lat="45.8974890" lon="10.3132310">
	<ele>1451.00</ele>
	<time>2025-07-29T11:11:23.000Z</time>
</trkpt>
<trkpt lat="45.8974950" lon="10.3132190">
	<ele>1450.80</ele>
	<time>2025-07-29T11:11:24.000Z</time>
</trkpt>
<trkpt lat="45.8975010" lon="10.3131990">
	<ele>1450.60</ele>
	<time>2025-07-29T11:11:25.000Z</time>
</trkpt>
<trkpt lat="45.8975040" lon="10.3131780">
	<ele>1450.60</ele>
	<time>2025-07-29T11:11:26.000Z</time>
</trkpt>
<trkpt lat="45.8975060" lon="10.3131640">
	<ele>1450.40</ele>
	<time>2025-07-29T11:11:27.000Z</time>
</trkpt>
<trkpt lat="45.8975100" lon="10.3131500">
	<ele>1450.20</ele>
	<time>2025-07-29T11:11:28.000Z</time>
</trkpt>
<trkpt lat="45.8975110" lon="10.3131340">
	<ele>1450.00</ele>
	<time>2025-07-29T11:11:29.000Z</time>
</trkpt>
<trkpt lat="45.8975110" lon="10.3131170">
	<ele>1449.80</ele>
	<time>2025-07-29T11:11:30.000Z</time>
</trkpt>
<trkpt lat="45.8975080" lon="10.3131000">
	<ele>1449.60</ele>
	<time>2025-07-29T11:11:31.000Z</time>
</trkpt>
<trkpt lat="45.8975100" lon="10.3130870">
	<ele>1449.40</ele>
	<time>2025-07-29T11:11:32.000Z</time>
</trkpt>
<trkpt lat="45.8975130" lon="10.3130730">
	<ele>1449.20</ele>
	<time>2025-07-29T11:11:33.000Z</time>
</trkpt>
<trkpt lat="45.8975160" lon="10.3130570">
	<ele>1449.20</ele>
	<time>2025-07-29T11:11:34.000Z</time>
</trkpt>
<trkpt lat="45.8975220" lon="10.3130420">
	<ele>1449.00</ele>
	<time>2025-07-29T11:11:35.000Z</time>
</trkpt>
<trkpt lat="45.8975250" lon="10.3130250">
	<ele>1448.80</ele>
	<time>2025-07-29T11:11:36.000Z</time>
</trkpt>
<trkpt lat="45.8975280" lon="10.3130050">
	<ele>1448.60</ele>
	<time>2025-07-29T11:11:37.000Z</time>
</trkpt>
<trkpt lat="45.8975290" lon="10.3129870">
	<ele>1448.40</ele>
	<time>2025-07-29T11:11:38.000Z</time>
</trkpt>
<trkpt lat="45.8975300" lon="10.3129690">
	<ele>1448.20</ele>
	<time>2025-07-29T11:11:39.000Z</time>
</trkpt>
<trkpt lat="45.8975310" lon="10.3129500">
	<ele>1448.00</ele>
	<time>2025-07-29T11:11:40.000Z</time>
</trkpt>
<trkpt lat="45.8975340" lon="10.3129280">
	<ele>1447.80</ele>
	<time>2025-07-29T11:11:41.000Z</time>
</trkpt>
<trkpt lat="45.8975370" lon="10.3129040">
	<ele>1447.80</ele>
	<time>2025-07-29T11:11:42.000Z</time>
</trkpt>
<trkpt lat="45.8975450" lon="10.3128870">
	<ele>1447.60</ele>
	<time>2025-07-29T11:11:43.000Z</time>
</trkpt>
<trkpt lat="45.8975540" lon="10.3128760">
	<ele>1447.40</ele>
	<time>2025-07-29T11:11:44.000Z</time>
</trkpt>
<trkpt lat="45.8975600" lon="10.3128620">
	<ele>1447.40</ele>
	<time>2025-07-29T11:11:45.000Z</time>
</trkpt>
<trkpt lat="45.8975710" lon="10.3128420">
	<ele>1447.00</ele>
	<time>2025-07-29T11:11:46.000Z</time>
</trkpt>
<trkpt lat="45.8975790" lon="10.3128250">
	<ele>1446.80</ele>
	<time>2025-07-29T11:11:47.000Z</time>
</trkpt>
<trkpt lat="45.8975830" lon="10.3128100">
	<ele>1446.80</ele>
	<time>2025-07-29T11:11:48.000Z</time>
</trkpt>
<trkpt lat="45.8975790" lon="10.3127910">
	<ele>1446.60</ele>
	<time>2025-07-29T11:11:49.000Z</time>
</trkpt>
<trkpt lat="45.8975740" lon="10.3127810">
	<ele>1446.40</ele>
	<time>2025-07-29T11:11:50.000Z</time>
</trkpt>
<trkpt lat="45.8975720" lon="10.3127680">
	<ele>1446.20</ele>
	<time>2025-07-29T11:11:51.000Z</time>
</trkpt>
<trkpt lat="45.8975760" lon="10.3127500">
	<ele>1445.80</ele>
	<time>2025-07-29T11:11:52.000Z</time>
</trkpt>
<trkpt lat="45.8975780" lon="10.3127360">
	<ele>1445.60</ele>
	<time>2025-07-29T11:11:53.000Z</time>
</trkpt>
<trkpt lat="45.8975800" lon="10.3127190">
	<ele>1445.40</ele>
	<time>2025-07-29T11:11:54.000Z</time>
</trkpt>
<trkpt lat="45.8975800" lon="10.3126990">
	<ele>1445.20</ele>
	<time>2025-07-29T11:11:55.000Z</time>
</trkpt>
<trkpt lat="45.8975800" lon="10.3126870">
	<ele>1445.00</ele>
	<time>2025-07-29T11:11:56.000Z</time>
</trkpt>
<trkpt lat="45.8975760" lon="10.3126710">
	<ele>1444.80</ele>
	<time>2025-07-29T11:11:57.000Z</time>
</trkpt>
<trkpt lat="45.8975680" lon="10.3126580">
	<ele>1444.60</ele>
	<time>2025-07-29T11:11:58.000Z</time>
</trkpt>
<trkpt lat="45.8975690" lon="10.3126510">
	<ele>1444.60</ele>
	<time>2025-07-29T11:11:59.000Z</time>
</trkpt>
<trkpt lat="45.8975700" lon="10.3126450">
	<ele>1444.60</ele>
	<time>2025-07-29T11:12:00.000Z</time>
</trkpt>
<trkpt lat="45.8975610" lon="10.3126340">
	<ele>1444.40</ele>
	<time>2025-07-29T11:12:01.000Z</time>
</trkpt>
<trkpt lat="45.8975520" lon="10.3126260">
	<ele>1444.40</ele>
	<time>2025-07-29T11:12:02.000Z</time>
</trkpt>
<trkpt lat="45.8975450" lon="10.3126260">
	<ele>1444.40</ele>
	<time>2025-07-29T11:12:03.000Z</time>
</trkpt>
<trkpt lat="45.8975430" lon="10.3126260">
	<ele>1444.40</ele>
	<time>2025-07-29T11:12:04.000Z</time>
</trkpt>
<trkpt lat="45.8975410" lon="10.3126270">
	<ele>1444.60</ele>
	<time>2025-07-29T11:12:05.000Z</time>
</trkpt>
<trkpt lat="45.8975430" lon="10.3126270">
	<ele>1444.60</ele>
	<time>2025-07-29T11:12:06.000Z</time>
</trkpt>
<trkpt lat="45.8975430" lon="10.3126280">
	<ele>1444.80</ele>
	<time>2025-07-29T11:12:07.000Z</time>
</trkpt>
<trkpt lat="45.8975460" lon="10.3126360">
	<ele>1444.80</ele>
	<time>2025-07-29T11:12:08.000Z</time>
</trkpt>
<trkpt lat="45.8975490" lon="10.3126400">
	<ele>1444.80</ele>
	<time>2025-07-29T11:12:09.000Z</time>
</trkpt>
<trkpt lat="45.8975490" lon="10.3126390">
	<ele>1444.80</ele>
	<time>2025-07-29T11:12:10.000Z</time>
</trkpt>
<trkpt lat="45.8975500" lon="10.3126390">
	<ele>1444.80</ele>
	<time>2025-07-29T11:12:11.000Z</time>
</trkpt>
<trkpt lat="45.8975590" lon="10.3126370">
	<ele>1444.80</ele>
	<time>2025-07-29T11:12:12.000Z</time>
</trkpt>
<trkpt lat="45.8975650" lon="10.3126360">
	<ele>1444.80</ele>
	<time>2025-07-29T11:12:13.000Z</time>
</trkpt>
<trkpt lat="45.8975690" lon="10.3126240">
	<ele>1444.40</ele>
	<time>2025-07-29T11:12:14.000Z</time>
</trkpt>
<trkpt lat="45.8975750" lon="10.3126180">
	<ele>1444.20</ele>
	<time>2025-07-29T11:12:15.000Z</time>
</trkpt>
<trkpt lat="45.8975790" lon="10.3126070">
	<ele>1444.00</ele>
	<time>2025-07-29T11:12:16.000Z</time>
</trkpt>
<trkpt lat="45.8975870" lon="10.3126010">
	<ele>1443.80</ele>
	<time>2025-07-29T11:12:17.000Z</time>
</trkpt>
<trkpt lat="45.8975870" lon="10.3125950">
	<ele>1443.60</ele>
	<time>2025-07-29T11:12:18.000Z</time>
</trkpt>
<trkpt lat="45.8975900" lon="10.3125890">
	<ele>1443.60</ele>
	<time>2025-07-29T11:12:19.000Z</time>
</trkpt>
<trkpt lat="45.8975840" lon="10.3125750">
	<ele>1443.60</ele>
	<time>2025-07-29T11:12:20.000Z</time>
</trkpt>
<trkpt lat="45.8975780" lon="10.3125640">
	<ele>1443.40</ele>
	<time>2025-07-29T11:12:21.000Z</time>
</trkpt>
<trkpt lat="45.8975730" lon="10.3125600">
	<ele>1443.40</ele>
	<time>2025-07-29T11:12:22.000Z</time>
</trkpt>
<trkpt lat="45.8975730" lon="10.3125620">
	<ele>1443.40</ele>
	<time>2025-07-29T11:12:23.000Z</time>
</trkpt>
<trkpt lat="45.8975740" lon="10.3125630">
	<ele>1443.40</ele>
	<time>2025-07-29T11:12:24.000Z</time>
</trkpt>
<trkpt lat="45.8975720" lon="10.3125640">
	<ele>1443.20</ele>
	<time>2025-07-29T11:12:25.000Z</time>
</trkpt>
<trkpt lat="45.8975810" lon="10.3125670">
	<ele>1443.00</ele>
	<time>2025-07-29T11:12:26.000Z</time>
</trkpt>
<trkpt lat="45.8975790" lon="10.3125600">
	<ele>1442.80</ele>
	<time>2025-07-29T11:12:27.000Z</time>
</trkpt>
<trkpt lat="45.8975790" lon="10.3125610">
	<ele>1442.80</ele>
	<time>2025-07-29T11:12:28.000Z</time>
</trkpt>
<trkpt lat="45.8975780" lon="10.3125600">
	<ele>1442.80</ele>
	<time>2025-07-29T11:12:29.000Z</time>
</trkpt>
<trkpt lat="45.8975680" lon="10.3125650">
	<ele>1442.80</ele>
	<time>2025-07-29T11:12:30.000Z</time>
</trkpt>
<trkpt lat="45.8975640" lon="10.3125640">
	<ele>1442.80</ele>
	<time>2025-07-29T11:12:31.000Z</time>
</trkpt>
<trkpt lat="45.8975630" lon="10.3125630">
	<ele>1442.80</ele>
	<time>2025-07-29T11:12:32.000Z</time>
</trkpt>
<trkpt lat="45.8975570" lon="10.3125660">
	<ele>1442.80</ele>
	<time>2025-07-29T11:12:33.000Z</time>
</trkpt>
<trkpt lat="45.8975560" lon="10.3125680">
	<ele>1442.80</ele>
	<time>2025-07-29T11:12:34.000Z</time>
</trkpt>
<trkpt lat="45.8975570" lon="10.3125710">
	<ele>1442.80</ele>
	<time>2025-07-29T11:12:35.000Z</time>
</trkpt>
<trkpt lat="45.8975560" lon="10.3125770">
	<ele>1442.80</ele>
	<time>2025-07-29T11:12:36.000Z</time>
</trkpt>
<trkpt lat="45.8975550" lon="10.3125860">
	<ele>1442.80</ele>
	<time>2025-07-29T11:12:37.000Z</time>
</trkpt>
<trkpt lat="45.8975580" lon="10.3125980">
	<ele>1442.80</ele>
	<time>2025-07-29T11:12:38.000Z</time>
</trkpt>
<trkpt lat="45.8975590" lon="10.3126120">
	<ele>1442.80</ele>
	<time>2025-07-29T11:12:39.000Z</time>
</trkpt>
<trkpt lat="45.8975560" lon="10.3126210">
	<ele>1443.00</ele>
	<time>2025-07-29T11:12:40.000Z</time>
</trkpt>
<trkpt lat="45.8975580" lon="10.3126320">
	<ele>1443.00</ele>
	<time>2025-07-29T11:12:41.000Z</time>
</trkpt>
<trkpt lat="45.8975590" lon="10.3126360">
	<ele>1443.00</ele>
	<time>2025-07-29T11:12:42.000Z</time>
</trkpt>
<trkpt lat="45.8975590" lon="10.3126310">
	<ele>1443.00</ele>
	<time>2025-07-29T11:12:43.000Z</time>
</trkpt>
<trkpt lat="45.8975600" lon="10.3126300">
	<ele>1443.20</ele>
	<time>2025-07-29T11:12:44.000Z</time>
</trkpt>
<trkpt lat="45.8975520" lon="10.3126240">
	<ele>1443.20</ele>
	<time>2025-07-29T11:12:45.000Z</time>
</trkpt>
<trkpt lat="45.8975480" lon="10.3126150">
	<ele>1443.20</ele>
	<time>2025-07-29T11:12:46.000Z</time>
</trkpt>
<trkpt lat="45.8975460" lon="10.3125980">
	<ele>1443.00</ele>
	<time>2025-07-29T11:12:47.000Z</time>
</trkpt>
<trkpt lat="45.8975460" lon="10.3125920">
	<ele>1443.00</ele>
	<time>2025-07-29T11:12:48.000Z</time>
</trkpt>
<trkpt lat="45.8975520" lon="10.3125860">
	<ele>1442.80</ele>
	<time>2025-07-29T11:12:49.000Z</time>
</trkpt>
<trkpt lat="45.8975580" lon="10.3125820">
	<ele>1442.80</ele>
	<time>2025-07-29T11:12:50.000Z</time>
</trkpt>
<trkpt lat="45.8975650" lon="10.3125760">
	<ele>1442.40</ele>
	<time>2025-07-29T11:12:51.000Z</time>
</trkpt>
<trkpt lat="45.8975720" lon="10.3125570">
	<ele>1442.20</ele>
	<time>2025-07-29T11:12:52.000Z</time>
</trkpt>
<trkpt lat="45.8975800" lon="10.3125610">
	<ele>1442.00</ele>
	<time>2025-07-29T11:12:53.000Z</time>
</trkpt>
<trkpt lat="45.8975860" lon="10.3125690">
	<ele>1441.80</ele>
	<time>2025-07-29T11:12:54.000Z</time>
</trkpt>
<trkpt lat="45.8975970" lon="10.3125720">
	<ele>1441.60</ele>
	<time>2025-07-29T11:12:55.000Z</time>
</trkpt>
<trkpt lat="45.8976050" lon="10.3125700">
	<ele>1441.40</ele>
	<time>2025-07-29T11:12:56.000Z</time>
</trkpt>
<trkpt lat="45.8976080" lon="10.3125820">
	<ele>1441.00</ele>
	<time>2025-07-29T11:12:57.000Z</time>
</trkpt>
<trkpt lat="45.8976170" lon="10.3125850">
	<ele>1440.80</ele>
	<time>2025-07-29T11:12:58.000Z</time>
</trkpt>
<trkpt lat="45.8976320" lon="10.3125830">
	<ele>1440.40</ele>
	<time>2025-07-29T11:12:59.000Z</time>
</trkpt>
<trkpt lat="45.8976480" lon="10.3125810">
	<ele>1440.20</ele>
	<time>2025-07-29T11:13:00.000Z</time>
</trkpt>
<trkpt lat="45.8976640" lon="10.3125840">
	<ele>1440.00</ele>
	<time>2025-07-29T11:13:01.000Z</time>
</trkpt>
<trkpt lat="45.8976740" lon="10.3125880">
	<ele>1439.80</ele>
	<time>2025-07-29T11:13:02.000Z</time>
</trkpt>
<trkpt lat="45.8976840" lon="10.3125980">
	<ele>1439.40</ele>
	<time>2025-07-29T11:13:03.000Z</time>
</trkpt>
<trkpt lat="45.8976920" lon="10.3126040">
	<ele>1439.20</ele>
	<time>2025-07-29T11:13:04.000Z</time>
</trkpt>
<trkpt lat="45.8977020" lon="10.3126290">
	<ele>1438.80</ele>
	<time>2025-07-29T11:13:05.000Z</time>
</trkpt>
<trkpt lat="45.8977130" lon="10.3126430">
	<ele>1438.60</ele>
	<time>2025-07-29T11:13:06.000Z</time>
</trkpt>
<trkpt lat="45.8977280" lon="10.3126620">
	<ele>1438.40</ele>
	<time>2025-07-29T11:13:07.000Z</time>
</trkpt>
<trkpt lat="45.8977360" lon="10.3126810">
	<ele>1438.00</ele>
	<time>2025-07-29T11:13:08.000Z</time>
</trkpt>
<trkpt lat="45.8977310" lon="10.3126840">
	<ele>1437.80</ele>
	<time>2025-07-29T11:13:09.000Z</time>
</trkpt>
<trkpt lat="45.8977310" lon="10.3126800">
	<ele>1437.60</ele>
	<time>2025-07-29T11:13:10.000Z</time>
</trkpt>
<trkpt lat="45.8977370" lon="10.3126900">
	<ele>1437.60</ele>
	<time>2025-07-29T11:13:11.000Z</time>
</trkpt>
<trkpt lat="45.8977450" lon="10.3127040">
	<ele>1437.20</ele>
	<time>2025-07-29T11:13:12.000Z</time>
</trkpt>
<trkpt lat="45.8977580" lon="10.3127240">
	<ele>1437.00</ele>
	<time>2025-07-29T11:13:13.000Z</time>
</trkpt>
<trkpt lat="45.8977680" lon="10.3127370">
	<ele>1436.60</ele>
	<time>2025-07-29T11:13:14.000Z</time>
</trkpt>
<trkpt lat="45.8977800" lon="10.3127420">
	<ele>1436.40</ele>
	<time>2025-07-29T11:13:15.000Z</time>
</trkpt>
<trkpt lat="45.8977920" lon="10.3127540">
	<ele>1436.20</ele>
	<time>2025-07-29T11:13:16.000Z</time>
</trkpt>
<trkpt lat="45.8978060" lon="10.3127710">
	<ele>1436.00</ele>
	<time>2025-07-29T11:13:17.000Z</time>
</trkpt>
<trkpt lat="45.8978190" lon="10.3127970">
	<ele>1435.60</ele>
	<time>2025-07-29T11:13:18.000Z</time>
</trkpt>
<trkpt lat="45.8978460" lon="10.3128290">
	<ele>1435.40</ele>
	<time>2025-07-29T11:13:19.000Z</time>
</trkpt>
<trkpt lat="45.8978640" lon="10.3128550">
	<ele>1435.20</ele>
	<time>2025-07-29T11:13:20.000Z</time>
</trkpt>
<trkpt lat="45.8978650" lon="10.3128690">
	<ele>1435.20</ele>
	<time>2025-07-29T11:13:21.000Z</time>
</trkpt>
<trkpt lat="45.8978690" lon="10.3128810">
	<ele>1435.00</ele>
	<time>2025-07-29T11:13:22.000Z</time>
</trkpt>
<trkpt lat="45.8978710" lon="10.3128990">
	<ele>1434.80</ele>
	<time>2025-07-29T11:13:23.000Z</time>
</trkpt>
<trkpt lat="45.8978790" lon="10.3129210">
	<ele>1434.40</ele>
	<time>2025-07-29T11:13:24.000Z</time>
</trkpt>
<trkpt lat="45.8978850" lon="10.3129380">
	<ele>1434.00</ele>
	<time>2025-07-29T11:13:25.000Z</time>
</trkpt>
<trkpt lat="45.8978870" lon="10.3129520">
	<ele>1433.80</ele>
	<time>2025-07-29T11:13:26.000Z</time>
</trkpt>
<trkpt lat="45.8978950" lon="10.3129590">
	<ele>1433.60</ele>
	<time>2025-07-29T11:13:27.000Z</time>
</trkpt>
<trkpt lat="45.8979110" lon="10.3129650">
	<ele>1433.20</ele>
	<time>2025-07-29T11:13:28.000Z</time>
</trkpt>
<trkpt lat="45.8979260" lon="10.3129690">
	<ele>1432.80</ele>
	<time>2025-07-29T11:13:29.000Z</time>
</trkpt>
<trkpt lat="45.8979400" lon="10.3129820">
	<ele>1432.60</ele>
	<time>2025-07-29T11:13:30.000Z</time>
</trkpt>
<trkpt lat="45.8979530" lon="10.3129950">
	<ele>1432.40</ele>
	<time>2025-07-29T11:13:31.000Z</time>
</trkpt>
<trkpt lat="45.8979700" lon="10.3130090">
	<ele>1432.40</ele>
	<time>2025-07-29T11:13:32.000Z</time>
</trkpt>
<trkpt lat="45.8979890" lon="10.3130220">
	<ele>1432.20</ele>
	<time>2025-07-29T11:13:33.000Z</time>
</trkpt>
<trkpt lat="45.8979990" lon="10.3130410">
	<ele>1432.00</ele>
	<time>2025-07-29T11:13:34.000Z</time>
</trkpt>
<trkpt lat="45.8980040" lon="10.3130640">
	<ele>1431.60</ele>
	<time>2025-07-29T11:13:35.000Z</time>
</trkpt>
<trkpt lat="45.8979990" lon="10.3130860">
	<ele>1431.40</ele>
	<time>2025-07-29T11:13:36.000Z</time>
</trkpt>
<trkpt lat="45.8980020" lon="10.3131010">
	<ele>1431.00</ele>
	<time>2025-07-29T11:13:37.000Z</time>
</trkpt>
<trkpt lat="45.8980070" lon="10.3131140">
	<ele>1430.80</ele>
	<time>2025-07-29T11:13:38.000Z</time>
</trkpt>
<trkpt lat="45.8980180" lon="10.3131270">
	<ele>1430.60</ele>
	<time>2025-07-29T11:13:39.000Z</time>
</trkpt>
<trkpt lat="45.8980350" lon="10.3131390">
	<ele>1430.20</ele>
	<time>2025-07-29T11:13:40.000Z</time>
</trkpt>
<trkpt lat="45.8980480" lon="10.3131530">
	<ele>1430.00</ele>
	<time>2025-07-29T11:13:41.000Z</time>
</trkpt>
<trkpt lat="45.8980640" lon="10.3131670">
	<ele>1429.80</ele>
	<time>2025-07-29T11:13:42.000Z</time>
</trkpt>
<trkpt lat="45.8980780" lon="10.3131780">
	<ele>1429.60</ele>
	<time>2025-07-29T11:13:43.000Z</time>
</trkpt>
<trkpt lat="45.8980980" lon="10.3131930">
	<ele>1429.40</ele>
	<time>2025-07-29T11:13:44.000Z</time>
</trkpt>
<trkpt lat="45.8981120" lon="10.3132100">
	<ele>1429.00</ele>
	<time>2025-07-29T11:13:45.000Z</time>
</trkpt>
<trkpt lat="45.8981170" lon="10.3132270">
	<ele>1428.80</ele>
	<time>2025-07-29T11:13:46.000Z</time>
</trkpt>
<trkpt lat="45.8981050" lon="10.3132440">
	<ele>1428.60</ele>
	<time>2025-07-29T11:13:47.000Z</time>
</trkpt>
<trkpt lat="45.8981080" lon="10.3132570">
	<ele>1428.40</ele>
	<time>2025-07-29T11:13:48.000Z</time>
</trkpt>
<trkpt lat="45.8981170" lon="10.3132660">
	<ele>1428.20</ele>
	<time>2025-07-29T11:13:49.000Z</time>
</trkpt>
<trkpt lat="45.8981300" lon="10.3132700">
	<ele>1428.00</ele>
	<time>2025-07-29T11:13:50.000Z</time>
</trkpt>
<trkpt lat="45.8981430" lon="10.3132740">
	<ele>1427.80</ele>
	<time>2025-07-29T11:13:51.000Z</time>
</trkpt>
<trkpt lat="45.8981520" lon="10.3132870">
	<ele>1427.60</ele>
	<time>2025-07-29T11:13:52.000Z</time>
</trkpt>
<trkpt lat="45.8981550" lon="10.3133020">
	<ele>1427.40</ele>
	<time>2025-07-29T11:13:53.000Z</time>
</trkpt>
<trkpt lat="45.8981270" lon="10.3133350">
	<ele>1427.40</ele>
	<time>2025-07-29T11:13:54.000Z</time>
</trkpt>
<trkpt lat="45.8981160" lon="10.3133620">
	<ele>1427.20</ele>
	<time>2025-07-29T11:13:55.000Z</time>
</trkpt>
<trkpt lat="45.8981120" lon="10.3133830">
	<ele>1426.80</ele>
	<time>2025-07-29T11:13:56.000Z</time>
</trkpt>
<trkpt lat="45.8981190" lon="10.3134060">
	<ele>1426.60</ele>
	<time>2025-07-29T11:13:57.000Z</time>
</trkpt>
<trkpt lat="45.8981280" lon="10.3134240">
	<ele>1426.40</ele>
	<time>2025-07-29T11:13:58.000Z</time>
</trkpt>
<trkpt lat="45.8981380" lon="10.3134400">
	<ele>1426.20</ele>
	<time>2025-07-29T11:13:59.000Z</time>
</trkpt>
<trkpt lat="45.8981510" lon="10.3134570">
	<ele>1426.00</ele>
	<time>2025-07-29T11:14:00.000Z</time>
</trkpt>
<trkpt lat="45.8981620" lon="10.3134780">
	<ele>1425.60</ele>
	<time>2025-07-29T11:14:01.000Z</time>
</trkpt>
<trkpt lat="45.8981710" lon="10.3134900">
	<ele>1425.40</ele>
	<time>2025-07-29T11:14:02.000Z</time>
</trkpt>
<trkpt lat="45.8981790" lon="10.3135060">
	<ele>1425.40</ele>
	<time>2025-07-29T11:14:03.000Z</time>
</trkpt>
<trkpt lat="45.8981860" lon="10.3135230">
	<ele>1425.20</ele>
	<time>2025-07-29T11:14:04.000Z</time>
</trkpt>
<trkpt lat="45.8981930" lon="10.3135340">
	<ele>1425.00</ele>
	<time>2025-07-29T11:14:05.000Z</time>
</trkpt>
<trkpt lat="45.8982010" lon="10.3135440">
	<ele>1424.80</ele>
	<time>2025-07-29T11:14:06.000Z</time>
</trkpt>
<trkpt lat="45.8982090" lon="10.3135600">
	<ele>1424.60</ele>
	<time>2025-07-29T11:14:07.000Z</time>
</trkpt>
<trkpt lat="45.8982170" lon="10.3135770">
	<ele>1424.40</ele>
	<time>2025-07-29T11:14:08.000Z</time>
</trkpt>
<trkpt lat="45.8982270" lon="10.3135920">
	<ele>1424.20</ele>
	<time>2025-07-29T11:14:09.000Z</time>
</trkpt>
<trkpt lat="45.8982420" lon="10.3136020">
	<ele>1423.80</ele>
	<time>2025-07-29T11:14:10.000Z</time>
</trkpt>
<trkpt lat="45.8982530" lon="10.3136130">
	<ele>1423.60</ele>
	<time>2025-07-29T11:14:11.000Z</time>
</trkpt>
<trkpt lat="45.8982560" lon="10.3136260">
	<ele>1423.20</ele>
	<time>2025-07-29T11:14:12.000Z</time>
</trkpt>
<trkpt lat="45.8982610" lon="10.3136380">
	<ele>1423.00</ele>
	<time>2025-07-29T11:14:13.000Z</time>
</trkpt>
<trkpt lat="45.8982670" lon="10.3136540">
	<ele>1422.80</ele>
	<time>2025-07-29T11:14:14.000Z</time>
</trkpt>
<trkpt lat="45.8982720" lon="10.3136670">
	<ele>1422.80</ele>
	<time>2025-07-29T11:14:15.000Z</time>
</trkpt>
<trkpt lat="45.8982780" lon="10.3136850">
	<ele>1422.60</ele>
	<time>2025-07-29T11:14:16.000Z</time>
</trkpt>
<trkpt lat="45.8982880" lon="10.3137040">
	<ele>1422.20</ele>
	<time>2025-07-29T11:14:17.000Z</time>
</trkpt>
<trkpt lat="45.8982840" lon="10.3137240">
	<ele>1421.80</ele>
	<time>2025-07-29T11:14:18.000Z</time>
</trkpt>
<trkpt lat="45.8982740" lon="10.3137440">
	<ele>1421.60</ele>
	<time>2025-07-29T11:14:19.000Z</time>
</trkpt>
<trkpt lat="45.8982720" lon="10.3137630">
	<ele>1421.40</ele>
	<time>2025-07-29T11:14:20.000Z</time>
</trkpt>
<trkpt lat="45.8982750" lon="10.3137830">
	<ele>1421.20</ele>
	<time>2025-07-29T11:14:21.000Z</time>
</trkpt>
<trkpt lat="45.8982700" lon="10.3138090">
	<ele>1421.00</ele>
	<time>2025-07-29T11:14:22.000Z</time>
</trkpt>
<trkpt lat="45.8982670" lon="10.3138320">
	<ele>1420.80</ele>
	<time>2025-07-29T11:14:23.000Z</time>
</trkpt>
<trkpt lat="45.8982660" lon="10.3138540">
	<ele>1420.60</ele>
	<time>2025-07-29T11:14:24.000Z</time>
</trkpt>
<trkpt lat="45.8982660" lon="10.3138720">
	<ele>1420.40</ele>
	<time>2025-07-29T11:14:25.000Z</time>
</trkpt>
<trkpt lat="45.8982730" lon="10.3138890">
	<ele>1420.00</ele>
	<time>2025-07-29T11:14:26.000Z</time>
</trkpt>
<trkpt lat="45.8982830" lon="10.3139000">
	<ele>1419.80</ele>
	<time>2025-07-29T11:14:27.000Z</time>
</trkpt>
<trkpt lat="45.8982920" lon="10.3139130">
	<ele>1419.60</ele>
	<time>2025-07-29T11:14:28.000Z</time>
</trkpt>
<trkpt lat="45.8982980" lon="10.3139330">
	<ele>1419.60</ele>
	<time>2025-07-29T11:14:29.000Z</time>
</trkpt>
<trkpt lat="45.8983030" lon="10.3139530">
	<ele>1419.00</ele>
	<time>2025-07-29T11:14:30.000Z</time>
</trkpt>
<trkpt lat="45.8983040" lon="10.3139690">
	<ele>1418.80</ele>
	<time>2025-07-29T11:14:31.000Z</time>
</trkpt>
<trkpt lat="45.8983020" lon="10.3139870">
	<ele>1418.60</ele>
	<time>2025-07-29T11:14:32.000Z</time>
</trkpt>
<trkpt lat="45.8982860" lon="10.3140090">
	<ele>1418.60</ele>
	<time>2025-07-29T11:14:33.000Z</time>
</trkpt>
<trkpt lat="45.8982820" lon="10.3140310">
	<ele>1418.20</ele>
	<time>2025-07-29T11:14:34.000Z</time>
</trkpt>
<trkpt lat="45.8982890" lon="10.3140530">
	<ele>1418.00</ele>
	<time>2025-07-29T11:14:35.000Z</time>
</trkpt>
<trkpt lat="45.8982970" lon="10.3140740">
	<ele>1417.80</ele>
	<time>2025-07-29T11:14:36.000Z</time>
</trkpt>
<trkpt lat="45.8983030" lon="10.3140960">
	<ele>1417.40</ele>
	<time>2025-07-29T11:14:37.000Z</time>
</trkpt>
<trkpt lat="45.8983090" lon="10.3141090">
	<ele>1417.20</ele>
	<time>2025-07-29T11:14:38.000Z</time>
</trkpt>
<trkpt lat="45.8983060" lon="10.3141140">
	<ele>1417.00</ele>
	<time>2025-07-29T11:14:39.000Z</time>
</trkpt>
<trkpt lat="45.8983040" lon="10.3141190">
	<ele>1416.80</ele>
	<time>2025-07-29T11:14:40.000Z</time>
</trkpt>
<trkpt lat="45.8983000" lon="10.3141270">
	<ele>1416.60</ele>
	<time>2025-07-29T11:14:41.000Z</time>
</trkpt>
<trkpt lat="45.8983030" lon="10.3141300">
	<ele>1416.60</ele>
	<time>2025-07-29T11:14:42.000Z</time>
</trkpt>
<trkpt lat="45.8983060" lon="10.3141310">
	<ele>1416.60</ele>
	<time>2025-07-29T11:14:43.000Z</time>
</trkpt>
<trkpt lat="45.8983080" lon="10.3141350">
	<ele>1416.40</ele>
	<time>2025-07-29T11:14:44.000Z</time>
</trkpt>
<trkpt lat="45.8983090" lon="10.3141390">
	<ele>1416.40</ele>
	<time>2025-07-29T11:14:45.000Z</time>
</trkpt>
<trkpt lat="45.8983110" lon="10.3141460">
	<ele>1416.40</ele>
	<time>2025-07-29T11:14:46.000Z</time>
</trkpt>
<trkpt lat="45.8983090" lon="10.3141540">
	<ele>1416.20</ele>
	<time>2025-07-29T11:14:47.000Z</time>
</trkpt>
<trkpt lat="45.8983060" lon="10.3141660">
	<ele>1416.20</ele>
	<time>2025-07-29T11:14:48.000Z</time>
</trkpt>
<trkpt lat="45.8983020" lon="10.3141750">
	<ele>1416.20</ele>
	<time>2025-07-29T11:14:49.000Z</time>
</trkpt>
<trkpt lat="45.8982970" lon="10.3141810">
	<ele>1416.00</ele>
	<time>2025-07-29T11:14:50.000Z</time>
</trkpt>
<trkpt lat="45.8982870" lon="10.3141860">
	<ele>1415.80</ele>
	<time>2025-07-29T11:14:51.000Z</time>
</trkpt>
<trkpt lat="45.8982750" lon="10.3141950">
	<ele>1415.20</ele>
	<time>2025-07-29T11:14:52.000Z</time>
</trkpt>
<trkpt lat="45.8982640" lon="10.3142030">
	<ele>1415.00</ele>
	<time>2025-07-29T11:14:53.000Z</time>
</trkpt>
<trkpt lat="45.8982540" lon="10.3142130">
	<ele>1414.60</ele>
	<time>2025-07-29T11:14:54.000Z</time>
</trkpt>
<trkpt lat="45.8982420" lon="10.3142170">
	<ele>1414.40</ele>
	<time>2025-07-29T11:14:55.000Z</time>
</trkpt>
<trkpt lat="45.8982310" lon="10.3142230">
	<ele>1414.00</ele>
	<time>2025-07-29T11:14:56.000Z</time>
</trkpt>
<trkpt lat="45.8982210" lon="10.3142400">
	<ele>1413.80</ele>
	<time>2025-07-29T11:14:57.000Z</time>
</trkpt>
<trkpt lat="45.8982120" lon="10.3142520">
	<ele>1413.20</ele>
	<time>2025-07-29T11:14:58.000Z</time>
</trkpt>
<trkpt lat="45.8982040" lon="10.3142680">
	<ele>1413.00</ele>
	<time>2025-07-29T11:14:59.000Z</time>
</trkpt>
<trkpt lat="45.8982020" lon="10.3142870">
	<ele>1412.80</ele>
	<time>2025-07-29T11:15:00.000Z</time>
</trkpt>
<trkpt lat="45.8981940" lon="10.3143030">
	<ele>1412.60</ele>
	<time>2025-07-29T11:15:01.000Z</time>
</trkpt>
<trkpt lat="45.8981850" lon="10.3143190">
	<ele>1412.00</ele>
	<time>2025-07-29T11:15:02.000Z</time>
</trkpt>
<trkpt lat="45.8981750" lon="10.3143340">
	<ele>1411.60</ele>
	<time>2025-07-29T11:15:03.000Z</time>
</trkpt>
<trkpt lat="45.8981640" lon="10.3143520">
	<ele>1411.40</ele>
	<time>2025-07-29T11:15:04.000Z</time>
</trkpt>
<trkpt lat="45.8981570" lon="10.3143720">
	<ele>1411.20</ele>
	<time>2025-07-29T11:15:05.000Z</time>
</trkpt>
<trkpt lat="45.8981520" lon="10.3143880">
	<ele>1410.80</ele>
	<time>2025-07-29T11:15:06.000Z</time>
</trkpt>
<trkpt lat="45.8981490" lon="10.3144020">
	<ele>1410.40</ele>
	<time>2025-07-29T11:15:07.000Z</time>
</trkpt>
<trkpt lat="45.8981450" lon="10.3144170">
	<ele>1410.20</ele>
	<time>2025-07-29T11:15:08.000Z</time>
</trkpt>
<trkpt lat="45.8981370" lon="10.3144310">
	<ele>1410.00</ele>
	<time>2025-07-29T11:15:09.000Z</time>
</trkpt>
<trkpt lat="45.8981300" lon="10.3144470">
	<ele>1409.60</ele>
	<time>2025-07-29T11:15:10.000Z</time>
</trkpt>
<trkpt lat="45.8981260" lon="10.3144650">
	<ele>1409.40</ele>
	<time>2025-07-29T11:15:11.000Z</time>
</trkpt>
<trkpt lat="45.8981200" lon="10.3144810">
	<ele>1409.20</ele>
	<time>2025-07-29T11:15:12.000Z</time>
</trkpt>
<trkpt lat="45.8981160" lon="10.3144970">
	<ele>1409.00</ele>
	<time>2025-07-29T11:15:13.000Z</time>
</trkpt>
<trkpt lat="45.8981130" lon="10.3145120">
	<ele>1408.80</ele>
	<time>2025-07-29T11:15:14.000Z</time>
</trkpt>
<trkpt lat="45.8981090" lon="10.3145290">
	<ele>1408.40</ele>
	<time>2025-07-29T11:15:15.000Z</time>
</trkpt>
<trkpt lat="45.8981080" lon="10.3145490">
	<ele>1408.20</ele>
	<time>2025-07-29T11:15:16.000Z</time>
</trkpt>
<trkpt lat="45.8981020" lon="10.3145700">
	<ele>1408.00</ele>
	<time>2025-07-29T11:15:17.000Z</time>
</trkpt>
<trkpt lat="45.8980960" lon="10.3145890">
	<ele>1407.80</ele>
	<time>2025-07-29T11:15:18.000Z</time>
</trkpt>
<trkpt lat="45.8980920" lon="10.3146070">
	<ele>1407.60</ele>
	<time>2025-07-29T11:15:19.000Z</time>
</trkpt>
<trkpt lat="45.8980900" lon="10.3146240">
	<ele>1407.40</ele>
	<time>2025-07-29T11:15:20.000Z</time>
</trkpt>
<trkpt lat="45.8980860" lon="10.3146410">
	<ele>1407.20</ele>
	<time>2025-07-29T11:15:21.000Z</time>
</trkpt>
<trkpt lat="45.8980810" lon="10.3146590">
	<ele>1407.00</ele>
	<time>2025-07-29T11:15:22.000Z</time>
</trkpt>
<trkpt lat="45.8980790" lon="10.3146770">
	<ele>1406.60</ele>
	<time>2025-07-29T11:15:23.000Z</time>
</trkpt>
<trkpt lat="45.8980750" lon="10.3146930">
	<ele>1406.20</ele>
	<time>2025-07-29T11:15:24.000Z</time>
</trkpt>
<trkpt lat="45.8980770" lon="10.3147080">
	<ele>1406.00</ele>
	<time>2025-07-29T11:15:25.000Z</time>
</trkpt>
<trkpt lat="45.8980800" lon="10.3147210">
	<ele>1405.60</ele>
	<time>2025-07-29T11:15:26.000Z</time>
</trkpt>
<trkpt lat="45.8980770" lon="10.3147310">
	<ele>1405.40</ele>
	<time>2025-07-29T11:15:27.000Z</time>
</trkpt>
<trkpt lat="45.8980710" lon="10.3147440">
	<ele>1405.00</ele>
	<time>2025-07-29T11:15:28.000Z</time>
</trkpt>
<trkpt lat="45.8980630" lon="10.3147570">
	<ele>1404.80</ele>
	<time>2025-07-29T11:15:29.000Z</time>
</trkpt>
<trkpt lat="45.8980600" lon="10.3147710">
	<ele>1404.40</ele>
	<time>2025-07-29T11:15:30.000Z</time>
</trkpt>
<trkpt lat="45.8980590" lon="10.3147870">
	<ele>1404.20</ele>
	<time>2025-07-29T11:15:31.000Z</time>
</trkpt>
<trkpt lat="45.8980540" lon="10.3148050">
	<ele>1404.00</ele>
	<time>2025-07-29T11:15:32.000Z</time>
</trkpt>
<trkpt lat="45.8980530" lon="10.3148250">
	<ele>1403.60</ele>
	<time>2025-07-29T11:15:33.000Z</time>
</trkpt>
<trkpt lat="45.8980490" lon="10.3148460">
	<ele>1403.40</ele>
	<time>2025-07-29T11:15:34.000Z</time>
</trkpt>
<trkpt lat="45.8980270" lon="10.3148770">
	<ele>1403.00</ele>
	<time>2025-07-29T11:15:35.000Z</time>
</trkpt>
<trkpt lat="45.8980230" lon="10.3148990">
	<ele>1402.80</ele>
	<time>2025-07-29T11:15:36.000Z</time>
</trkpt>
<trkpt lat="45.8980210" lon="10.3149200">
	<ele>1402.40</ele>
	<time>2025-07-29T11:15:37.000Z</time>
</trkpt>
<trkpt lat="45.8980160" lon="10.3149470">
	<ele>1402.20</ele>
	<time>2025-07-29T11:15:38.000Z</time>
</trkpt>
<trkpt lat="45.8980190" lon="10.3149630">
	<ele>1402.00</ele>
	<time>2025-07-29T11:15:39.000Z</time>
</trkpt>
<trkpt lat="45.8980210" lon="10.3149820">
	<ele>1401.60</ele>
	<time>2025-07-29T11:15:40.000Z</time>
</trkpt>
<trkpt lat="45.8980190" lon="10.3149990">
	<ele>1401.20</ele>
	<time>2025-07-29T11:15:41.000Z</time>
</trkpt>
<trkpt lat="45.8980170" lon="10.3150170">
	<ele>1401.00</ele>
	<time>2025-07-29T11:15:42.000Z</time>
</trkpt>
<trkpt lat="45.8980200" lon="10.3150460">
	<ele>1401.00</ele>
	<time>2025-07-29T11:15:43.000Z</time>
</trkpt>
<trkpt lat="45.8980150" lon="10.3150700">
	<ele>1400.80</ele>
	<time>2025-07-29T11:15:44.000Z</time>
</trkpt>
<trkpt lat="45.8980140" lon="10.3150940">
	<ele>1400.60</ele>
	<time>2025-07-29T11:15:45.000Z</time>
</trkpt>
<trkpt lat="45.8980180" lon="10.3151180">
	<ele>1400.20</ele>
	<time>2025-07-29T11:15:46.000Z</time>
</trkpt>
<trkpt lat="45.8980140" lon="10.3151380">
	<ele>1400.00</ele>
	<time>2025-07-29T11:15:47.000Z</time>
</trkpt>
<trkpt lat="45.8980020" lon="10.3151590">
	<ele>1399.80</ele>
	<time>2025-07-29T11:15:48.000Z</time>
</trkpt>
<trkpt lat="45.8979980" lon="10.3151750">
	<ele>1399.60</ele>
	<time>2025-07-29T11:15:49.000Z</time>
</trkpt>
<trkpt lat="45.8979960" lon="10.3151890">
	<ele>1399.40</ele>
	<time>2025-07-29T11:15:50.000Z</time>
</trkpt>
<trkpt lat="45.8980000" lon="10.3152090">
	<ele>1399.20</ele>
	<time>2025-07-29T11:15:51.000Z</time>
</trkpt>
<trkpt lat="45.8979960" lon="10.3152310">
	<ele>1399.00</ele>
	<time>2025-07-29T11:15:52.000Z</time>
</trkpt>
<trkpt lat="45.8979890" lon="10.3152470">
	<ele>1398.80</ele>
	<time>2025-07-29T11:15:53.000Z</time>
</trkpt>
<trkpt lat="45.8979900" lon="10.3152620">
	<ele>1398.60</ele>
	<time>2025-07-29T11:15:54.000Z</time>
</trkpt>
<trkpt lat="45.8979930" lon="10.3152780">
	<ele>1398.20</ele>
	<time>2025-07-29T11:15:55.000Z</time>
</trkpt>
<trkpt lat="45.8979980" lon="10.3152940">
	<ele>1398.20</ele>
	<time>2025-07-29T11:15:56.000Z</time>
</trkpt>
<trkpt lat="45.8980030" lon="10.3153090">
	<ele>1398.00</ele>
	<time>2025-07-29T11:15:57.000Z</time>
</trkpt>
<trkpt lat="45.8980070" lon="10.3153190">
	<ele>1397.80</ele>
	<time>2025-07-29T11:15:58.000Z</time>
</trkpt>
<trkpt lat="45.8980110" lon="10.3153320">
	<ele>1397.60</ele>
	<time>2025-07-29T11:15:59.000Z</time>
</trkpt>
<trkpt lat="45.8980160" lon="10.3153420">
	<ele>1397.20</ele>
	<time>2025-07-29T11:16:00.000Z</time>
</trkpt>
<trkpt lat="45.8980150" lon="10.3153530">
	<ele>1396.80</ele>
	<time>2025-07-29T11:16:01.000Z</time>
</trkpt>
<trkpt lat="45.8980140" lon="10.3153620">
	<ele>1396.80</ele>
	<time>2025-07-29T11:16:02.000Z</time>
</trkpt>
<trkpt lat="45.8980170" lon="10.3153750">
	<ele>1396.60</ele>
	<time>2025-07-29T11:16:03.000Z</time>
</trkpt>
<trkpt lat="45.8980330" lon="10.3153820">
	<ele>1396.20</ele>
	<time>2025-07-29T11:16:04.000Z</time>
</trkpt>
<trkpt lat="45.8980480" lon="10.3153990">
	<ele>1396.00</ele>
	<time>2025-07-29T11:16:05.000Z</time>
</trkpt>
<trkpt lat="45.8980680" lon="10.3154100">
	<ele>1395.80</ele>
	<time>2025-07-29T11:16:06.000Z</time>
</trkpt>
<trkpt lat="45.8980860" lon="10.3154260">
	<ele>1395.40</ele>
	<time>2025-07-29T11:16:07.000Z</time>
</trkpt>
<trkpt lat="45.8980990" lon="10.3154430">
	<ele>1395.20</ele>
	<time>2025-07-29T11:16:08.000Z</time>
</trkpt>
<trkpt lat="45.8981070" lon="10.3154590">
	<ele>1395.00</ele>
	<time>2025-07-29T11:16:09.000Z</time>
</trkpt>
<trkpt lat="45.8981100" lon="10.3154760">
	<ele>1394.60</ele>
	<time>2025-07-29T11:16:10.000Z</time>
</trkpt>
<trkpt lat="45.8981100" lon="10.3154910">
	<ele>1394.20</ele>
	<time>2025-07-29T11:16:11.000Z</time>
</trkpt>
<trkpt lat="45.8981090" lon="10.3155050">
	<ele>1394.00</ele>
	<time>2025-07-29T11:16:12.000Z</time>
</trkpt>
<trkpt lat="45.8981140" lon="10.3155130">
	<ele>1393.80</ele>
	<time>2025-07-29T11:16:13.000Z</time>
</trkpt>
<trkpt lat="45.8981230" lon="10.3155210">
	<ele>1393.40</ele>
	<time>2025-07-29T11:16:14.000Z</time>
</trkpt>
<trkpt lat="45.8981370" lon="10.3155310">
	<ele>1393.40</ele>
	<time>2025-07-29T11:16:15.000Z</time>
</trkpt>
<trkpt lat="45.8981500" lon="10.3155390">
	<ele>1393.20</ele>
	<time>2025-07-29T11:16:16.000Z</time>
</trkpt>
<trkpt lat="45.8981620" lon="10.3155490">
	<ele>1393.00</ele>
	<time>2025-07-29T11:16:17.000Z</time>
</trkpt>
<trkpt lat="45.8981760" lon="10.3155590">
	<ele>1392.60</ele>
	<time>2025-07-29T11:16:18.000Z</time>
</trkpt>
<trkpt lat="45.8981910" lon="10.3155740">
	<ele>1392.40</ele>
	<time>2025-07-29T11:16:19.000Z</time>
</trkpt>
<trkpt lat="45.8982020" lon="10.3155830">
	<ele>1392.00</ele>
	<time>2025-07-29T11:16:20.000Z</time>
</trkpt>
<trkpt lat="45.8982120" lon="10.3155910">
	<ele>1392.00</ele>
	<time>2025-07-29T11:16:21.000Z</time>
</trkpt>
<trkpt lat="45.8982210" lon="10.3156030">
	<ele>1391.80</ele>
	<time>2025-07-29T11:16:22.000Z</time>
</trkpt>
<trkpt lat="45.8982240" lon="10.3156170">
	<ele>1391.60</ele>
	<time>2025-07-29T11:16:23.000Z</time>
</trkpt>
<trkpt lat="45.8982270" lon="10.3156270">
	<ele>1391.40</ele>
	<time>2025-07-29T11:16:24.000Z</time>
</trkpt>
<trkpt lat="45.8982280" lon="10.3156380">
	<ele>1391.40</ele>
	<time>2025-07-29T11:16:25.000Z</time>
</trkpt>
<trkpt lat="45.8982240" lon="10.3156500">
	<ele>1391.20</ele>
	<time>2025-07-29T11:16:26.000Z</time>
</trkpt>
<trkpt lat="45.8982260" lon="10.3156620">
	<ele>1390.80</ele>
	<time>2025-07-29T11:16:27.000Z</time>
</trkpt>
<trkpt lat="45.8982290" lon="10.3156760">
	<ele>1390.60</ele>
	<time>2025-07-29T11:16:28.000Z</time>
</trkpt>
<trkpt lat="45.8982350" lon="10.3156920">
	<ele>1390.40</ele>
	<time>2025-07-29T11:16:29.000Z</time>
</trkpt>
<trkpt lat="45.8982370" lon="10.3157090">
	<ele>1390.20</ele>
	<time>2025-07-29T11:16:30.000Z</time>
</trkpt>
<trkpt lat="45.8982450" lon="10.3157240">
	<ele>1390.00</ele>
	<time>2025-07-29T11:16:31.000Z</time>
</trkpt>
<trkpt lat="45.8982550" lon="10.3157390">
	<ele>1389.80</ele>
	<time>2025-07-29T11:16:32.000Z</time>
</trkpt>
<trkpt lat="45.8982590" lon="10.3157550">
	<ele>1389.60</ele>
	<time>2025-07-29T11:16:33.000Z</time>
</trkpt>
<trkpt lat="45.8982680" lon="10.3157720">
	<ele>1389.60</ele>
	<time>2025-07-29T11:16:34.000Z</time>
</trkpt>
<trkpt lat="45.8982760" lon="10.3157920">
	<ele>1389.20</ele>
	<time>2025-07-29T11:16:35.000Z</time>
</trkpt>
<trkpt lat="45.8982800" lon="10.3158090">
	<ele>1389.20</ele>
	<time>2025-07-29T11:16:36.000Z</time>
</trkpt>
<trkpt lat="45.8982790" lon="10.3158230">
	<ele>1389.00</ele>
	<time>2025-07-29T11:16:37.000Z</time>
</trkpt>
<trkpt lat="45.8982790" lon="10.3158400">
	<ele>1388.80</ele>
	<time>2025-07-29T11:16:38.000Z</time>
</trkpt>
<trkpt lat="45.8982790" lon="10.3158610">
	<ele>1388.80</ele>
	<time>2025-07-29T11:16:39.000Z</time>
</trkpt>
<trkpt lat="45.8982760" lon="10.3158830">
	<ele>1388.60</ele>
	<time>2025-07-29T11:16:40.000Z</time>
</trkpt>
<trkpt lat="45.8982790" lon="10.3159050">
	<ele>1388.20</ele>
	<time>2025-07-29T11:16:41.000Z</time>
</trkpt>
<trkpt lat="45.8982800" lon="10.3159290">
	<ele>1388.00</ele>
	<time>2025-07-29T11:16:42.000Z</time>
</trkpt>
<trkpt lat="45.8982810" lon="10.3159520">
	<ele>1387.80</ele>
	<time>2025-07-29T11:16:43.000Z</time>
</trkpt>
<trkpt lat="45.8982800" lon="10.3159740">
	<ele>1387.80</ele>
	<time>2025-07-29T11:16:44.000Z</time>
</trkpt>
<trkpt lat="45.8982770" lon="10.3159890">
	<ele>1387.60</ele>
	<time>2025-07-29T11:16:45.000Z</time>
</trkpt>
<trkpt lat="45.8982810" lon="10.3160070">
	<ele>1387.60</ele>
	<time>2025-07-29T11:16:46.000Z</time>
</trkpt>
<trkpt lat="45.8982850" lon="10.3160230">
	<ele>1387.40</ele>
	<time>2025-07-29T11:16:47.000Z</time>
</trkpt>
<trkpt lat="45.8982950" lon="10.3160400">
	<ele>1387.20</ele>
	<time>2025-07-29T11:16:48.000Z</time>
</trkpt>
<trkpt lat="45.8982990" lon="10.3160630">
	<ele>1387.20</ele>
	<time>2025-07-29T11:16:49.000Z</time>
</trkpt>
<trkpt lat="45.8982980" lon="10.3160870">
	<ele>1387.00</ele>
	<time>2025-07-29T11:16:50.000Z</time>
</trkpt>
<trkpt lat="45.8982970" lon="10.3161090">
	<ele>1386.80</ele>
	<time>2025-07-29T11:16:51.000Z</time>
</trkpt>
<trkpt lat="45.8983080" lon="10.3161220">
	<ele>1386.60</ele>
	<time>2025-07-29T11:16:52.000Z</time>
</trkpt>
<trkpt lat="45.8983200" lon="10.3161350">
	<ele>1386.20</ele>
	<time>2025-07-29T11:16:53.000Z</time>
</trkpt>
<trkpt lat="45.8983340" lon="10.3161410">
	<ele>1386.00</ele>
	<time>2025-07-29T11:16:54.000Z</time>
</trkpt>
<trkpt lat="45.8983450" lon="10.3161450">
	<ele>1385.60</ele>
	<time>2025-07-29T11:16:55.000Z</time>
</trkpt>
<trkpt lat="45.8983400" lon="10.3161570">
	<ele>1385.40</ele>
	<time>2025-07-29T11:16:56.000Z</time>
</trkpt>
<trkpt lat="45.8983390" lon="10.3161640">
	<ele>1385.00</ele>
	<time>2025-07-29T11:16:57.000Z</time>
</trkpt>
<trkpt lat="45.8983390" lon="10.3161790">
	<ele>1384.80</ele>
	<time>2025-07-29T11:16:58.000Z</time>
</trkpt>
<trkpt lat="45.8983470" lon="10.3161990">
	<ele>1384.20</ele>
	<time>2025-07-29T11:16:59.000Z</time>
</trkpt>
<trkpt lat="45.8983510" lon="10.3162140">
	<ele>1383.80</ele>
	<time>2025-07-29T11:17:00.000Z</time>
</trkpt>
<trkpt lat="45.8983520" lon="10.3162290">
	<ele>1383.60</ele>
	<time>2025-07-29T11:17:01.000Z</time>
</trkpt>
<trkpt lat="45.8983530" lon="10.3162490">
	<ele>1383.20</ele>
	<time>2025-07-29T11:17:02.000Z</time>
</trkpt>
<trkpt lat="45.8983560" lon="10.3162640">
	<ele>1383.00</ele>
	<time>2025-07-29T11:17:03.000Z</time>
</trkpt>
<trkpt lat="45.8983590" lon="10.3162820">
	<ele>1382.80</ele>
	<time>2025-07-29T11:17:04.000Z</time>
</trkpt>
<trkpt lat="45.8983630" lon="10.3163040">
	<ele>1382.40</ele>
	<time>2025-07-29T11:17:05.000Z</time>
</trkpt>
<trkpt lat="45.8983660" lon="10.3163250">
	<ele>1382.00</ele>
	<time>2025-07-29T11:17:06.000Z</time>
</trkpt>
<trkpt lat="45.8983700" lon="10.3163420">
	<ele>1381.80</ele>
	<time>2025-07-29T11:17:07.000Z</time>
</trkpt>
<trkpt lat="45.8983800" lon="10.3163540">
	<ele>1381.60</ele>
	<time>2025-07-29T11:17:08.000Z</time>
</trkpt>
<trkpt lat="45.8983850" lon="10.3163620">
	<ele>1381.40</ele>
	<time>2025-07-29T11:17:09.000Z</time>
</trkpt>
<trkpt lat="45.8983810" lon="10.3163740">
	<ele>1381.00</ele>
	<time>2025-07-29T11:17:10.000Z</time>
</trkpt>
<trkpt lat="45.8983760" lon="10.3163900">
	<ele>1380.80</ele>
	<time>2025-07-29T11:17:11.000Z</time>
</trkpt>
<trkpt lat="45.8983720" lon="10.3164040">
	<ele>1380.80</ele>
	<time>2025-07-29T11:17:12.000Z</time>
</trkpt>
<trkpt lat="45.8983650" lon="10.3164040">
	<ele>1380.80</ele>
	<time>2025-07-29T11:17:13.000Z</time>
</trkpt>
<trkpt lat="45.8983590" lon="10.3163920">
	<ele>1380.60</ele>
	<time>2025-07-29T11:17:14.000Z</time>
</trkpt>
<trkpt lat="45.8983470" lon="10.3163830">
	<ele>1380.60</ele>
	<time>2025-07-29T11:17:15.000Z</time>
</trkpt>
<trkpt lat="45.8983450" lon="10.3163710">
	<ele>1380.60</ele>
	<time>2025-07-29T11:17:16.000Z</time>
</trkpt>
<trkpt lat="45.8983500" lon="10.3163750">
	<ele>1380.60</ele>
	<time>2025-07-29T11:17:17.000Z</time>
</trkpt>
<trkpt lat="45.8983540" lon="10.3163870">
	<ele>1380.60</ele>
	<time>2025-07-29T11:17:18.000Z</time>
</trkpt>
<trkpt lat="45.8983580" lon="10.3164080">
	<ele>1380.20</ele>
	<time>2025-07-29T11:17:19.000Z</time>
</trkpt>
<trkpt lat="45.8983610" lon="10.3164270">
	<ele>1379.80</ele>
	<time>2025-07-29T11:17:20.000Z</time>
</trkpt>
<trkpt lat="45.8983640" lon="10.3164470">
	<ele>1379.60</ele>
	<time>2025-07-29T11:17:21.000Z</time>
</trkpt>
<trkpt lat="45.8983610" lon="10.3164570">
	<ele>1379.40</ele>
	<time>2025-07-29T11:17:22.000Z</time>
</trkpt>
<trkpt lat="45.8983570" lon="10.3164690">
	<ele>1379.20</ele>
	<time>2025-07-29T11:17:23.000Z</time>
</trkpt>
<trkpt lat="45.8983580" lon="10.3164870">
	<ele>1379.00</ele>
	<time>2025-07-29T11:17:24.000Z</time>
</trkpt>
<trkpt lat="45.8983530" lon="10.3165020">
	<ele>1378.60</ele>
	<time>2025-07-29T11:17:25.000Z</time>
</trkpt>
<trkpt lat="45.8983500" lon="10.3165180">
	<ele>1378.40</ele>
	<time>2025-07-29T11:17:26.000Z</time>
</trkpt>
<trkpt lat="45.8983480" lon="10.3165320">
	<ele>1378.20</ele>
	<time>2025-07-29T11:17:27.000Z</time>
</trkpt>
<trkpt lat="45.8983490" lon="10.3165380">
	<ele>1378.00</ele>
	<time>2025-07-29T11:17:28.000Z</time>
</trkpt>
<trkpt lat="45.8983450" lon="10.3165470">
	<ele>1377.80</ele>
	<time>2025-07-29T11:17:29.000Z</time>
</trkpt>
<trkpt lat="45.8983380" lon="10.3165580">
	<ele>1377.60</ele>
	<time>2025-07-29T11:17:30.000Z</time>
</trkpt>
<trkpt lat="45.8983370" lon="10.3165730">
	<ele>1377.40</ele>
	<time>2025-07-29T11:17:31.000Z</time>
</trkpt>
<trkpt lat="45.8983300" lon="10.3165870">
	<ele>1377.20</ele>
	<time>2025-07-29T11:17:32.000Z</time>
</trkpt>
<trkpt lat="45.8983350" lon="10.3166000">
	<ele>1377.00</ele>
	<time>2025-07-29T11:17:33.000Z</time>
</trkpt>
<trkpt lat="45.8983410" lon="10.3166140">
	<ele>1376.60</ele>
	<time>2025-07-29T11:17:34.000Z</time>
</trkpt>
<trkpt lat="45.8983440" lon="10.3166260">
	<ele>1376.40</ele>
	<time>2025-07-29T11:17:35.000Z</time>
</trkpt>
<trkpt lat="45.8983480" lon="10.3166360">
	<ele>1376.40</ele>
	<time>2025-07-29T11:17:36.000Z</time>
</trkpt>
<trkpt lat="45.8983520" lon="10.3166450">
	<ele>1376.20</ele>
	<time>2025-07-29T11:17:37.000Z</time>
</trkpt>
<trkpt lat="45.8983630" lon="10.3166550">
	<ele>1376.00</ele>
	<time>2025-07-29T11:17:38.000Z</time>
</trkpt>
<trkpt lat="45.8983750" lon="10.3166610">
	<ele>1376.00</ele>
	<time>2025-07-29T11:17:39.000Z</time>
</trkpt>
<trkpt lat="45.8983910" lon="10.3166590">
	<ele>1375.80</ele>
	<time>2025-07-29T11:17:40.000Z</time>
</trkpt>
<trkpt lat="45.8984100" lon="10.3166530">
	<ele>1375.60</ele>
	<time>2025-07-29T11:17:41.000Z</time>
</trkpt>
<trkpt lat="45.8984250" lon="10.3166490">
	<ele>1375.40</ele>
	<time>2025-07-29T11:17:42.000Z</time>
</trkpt>
<trkpt lat="45.8984380" lon="10.3166400">
	<ele>1375.40</ele>
	<time>2025-07-29T11:17:43.000Z</time>
</trkpt>
<trkpt lat="45.8984420" lon="10.3166280">
	<ele>1375.20</ele>
	<time>2025-07-29T11:17:44.000Z</time>
</trkpt>
<trkpt lat="45.8984440" lon="10.3166160">
	<ele>1375.00</ele>
	<time>2025-07-29T11:17:45.000Z</time>
</trkpt>
<trkpt lat="45.8984480" lon="10.3166020">
	<ele>1375.00</ele>
	<time>2025-07-29T11:17:46.000Z</time>
</trkpt>
<trkpt lat="45.8984490" lon="10.3165920">
	<ele>1374.80</ele>
	<time>2025-07-29T11:17:47.000Z</time>
</trkpt>
<trkpt lat="45.8984570" lon="10.3165820">
	<ele>1374.40</ele>
	<time>2025-07-29T11:17:48.000Z</time>
</trkpt>
<trkpt lat="45.8984600" lon="10.3165650">
	<ele>1374.20</ele>
	<time>2025-07-29T11:17:49.000Z</time>
</trkpt>
<trkpt lat="45.8984770" lon="10.3165650">
	<ele>1373.80</ele>
	<time>2025-07-29T11:17:50.000Z</time>
</trkpt>
<trkpt lat="45.8984840" lon="10.3165570">
	<ele>1373.60</ele>
	<time>2025-07-29T11:17:51.000Z</time>
</trkpt>
<trkpt lat="45.8984890" lon="10.3165380">
	<ele>1373.20</ele>
	<time>2025-07-29T11:17:52.000Z</time>
</trkpt>
<trkpt lat="45.8984880" lon="10.3165210">
	<ele>1373.00</ele>
	<time>2025-07-29T11:17:53.000Z</time>
</trkpt>
<trkpt lat="45.8984900" lon="10.3165030">
	<ele>1372.60</ele>
	<time>2025-07-29T11:17:54.000Z</time>
</trkpt>
<trkpt lat="45.8984990" lon="10.3164920">
	<ele>1372.40</ele>
	<time>2025-07-29T11:17:55.000Z</time>
</trkpt>
<trkpt lat="45.8985110" lon="10.3164820">
	<ele>1372.00</ele>
	<time>2025-07-29T11:17:56.000Z</time>
</trkpt>
<trkpt lat="45.8985170" lon="10.3164730">
	<ele>1371.80</ele>
	<time>2025-07-29T11:17:57.000Z</time>
</trkpt>
<trkpt lat="45.8985260" lon="10.3164670">
	<ele>1371.40</ele>
	<time>2025-07-29T11:17:58.000Z</time>
</trkpt>
<trkpt lat="45.8985350" lon="10.3164540">
	<ele>1371.20</ele>
	<time>2025-07-29T11:17:59.000Z</time>
</trkpt>
<trkpt lat="45.8985430" lon="10.3164410">
	<ele>1370.80</ele>
	<time>2025-07-29T11:18:00.000Z</time>
</trkpt>
<trkpt lat="45.8985510" lon="10.3164270">
	<ele>1370.60</ele>
	<time>2025-07-29T11:18:01.000Z</time>
</trkpt>
<trkpt lat="45.8985570" lon="10.3164070">
	<ele>1370.40</ele>
	<time>2025-07-29T11:18:02.000Z</time>
</trkpt>
<trkpt lat="45.8985620" lon="10.3163890">
	<ele>1370.20</ele>
	<time>2025-07-29T11:18:03.000Z</time>
</trkpt>
<trkpt lat="45.8985680" lon="10.3163780">
	<ele>1369.80</ele>
	<time>2025-07-29T11:18:04.000Z</time>
</trkpt>
<trkpt lat="45.8985710" lon="10.3163600">
	<ele>1369.60</ele>
	<time>2025-07-29T11:18:05.000Z</time>
</trkpt>
<trkpt lat="45.8985820" lon="10.3163370">
	<ele>1369.40</ele>
	<time>2025-07-29T11:18:06.000Z</time>
</trkpt>
<trkpt lat="45.8985860" lon="10.3163160">
	<ele>1369.20</ele>
	<time>2025-07-29T11:18:07.000Z</time>
</trkpt>
<trkpt lat="45.8985890" lon="10.3162960">
	<ele>1369.00</ele>
	<time>2025-07-29T11:18:08.000Z</time>
</trkpt>
<trkpt lat="45.8985910" lon="10.3162830">
	<ele>1368.80</ele>
	<time>2025-07-29T11:18:09.000Z</time>
</trkpt>
<trkpt lat="45.8985900" lon="10.3162670">
	<ele>1368.80</ele>
	<time>2025-07-29T11:18:10.000Z</time>
</trkpt>
<trkpt lat="45.8985890" lon="10.3162470">
	<ele>1368.60</ele>
	<time>2025-07-29T11:18:11.000Z</time>
</trkpt>
<trkpt lat="45.8985970" lon="10.3162210">
	<ele>1368.40</ele>
	<time>2025-07-29T11:18:12.000Z</time>
</trkpt>
<trkpt lat="45.8986010" lon="10.3161970">
	<ele>1368.40</ele>
	<time>2025-07-29T11:18:13.000Z</time>
</trkpt>
<trkpt lat="45.8985980" lon="10.3161810">
	<ele>1368.40</ele>
	<time>2025-07-29T11:18:14.000Z</time>
</trkpt>
<trkpt lat="45.8985970" lon="10.3161600">
	<ele>1368.20</ele>
	<time>2025-07-29T11:18:15.000Z</time>
</trkpt>
<trkpt lat="45.8986020" lon="10.3161410">
	<ele>1368.20</ele>
	<time>2025-07-29T11:18:16.000Z</time>
</trkpt>
<trkpt lat="45.8986020" lon="10.3161210">
	<ele>1368.00</ele>
	<time>2025-07-29T11:18:17.000Z</time>
</trkpt>
<trkpt lat="45.8986000" lon="10.3160980">
	<ele>1368.00</ele>
	<time>2025-07-29T11:18:18.000Z</time>
</trkpt>
<trkpt lat="45.8985980" lon="10.3160840">
	<ele>1368.00</ele>
	<time>2025-07-29T11:18:19.000Z</time>
</trkpt>
<trkpt lat="45.8986030" lon="10.3160690">
	<ele>1368.00</ele>
	<time>2025-07-29T11:18:20.000Z</time>
</trkpt>
<trkpt lat="45.8986100" lon="10.3160560">
	<ele>1367.80</ele>
	<time>2025-07-29T11:18:21.000Z</time>
</trkpt>
<trkpt lat="45.8986140" lon="10.3160480">
	<ele>1367.80</ele>
	<time>2025-07-29T11:18:22.000Z</time>
</trkpt>
<trkpt lat="45.8986280" lon="10.3160350">
	<ele>1367.80</ele>
	<time>2025-07-29T11:18:23.000Z</time>
</trkpt>
<trkpt lat="45.8986450" lon="10.3160160">
	<ele>1367.80</ele>
	<time>2025-07-29T11:18:24.000Z</time>
</trkpt>
<trkpt lat="45.8986590" lon="10.3159940">
	<ele>1367.60</ele>
	<time>2025-07-29T11:18:25.000Z</time>
</trkpt>
<trkpt lat="45.8986630" lon="10.3159730">
	<ele>1367.40</ele>
	<time>2025-07-29T11:18:26.000Z</time>
</trkpt>
<trkpt lat="45.8986760" lon="10.3159520">
	<ele>1367.20</ele>
	<time>2025-07-29T11:18:27.000Z</time>
</trkpt>
<trkpt lat="45.8986810" lon="10.3159270">
	<ele>1367.00</ele>
	<time>2025-07-29T11:18:28.000Z</time>
</trkpt>
<trkpt lat="45.8986910" lon="10.3159110">
	<ele>1366.80</ele>
	<time>2025-07-29T11:18:29.000Z</time>
</trkpt>
<trkpt lat="45.8986960" lon="10.3158940">
	<ele>1366.80</ele>
	<time>2025-07-29T11:18:30.000Z</time>
</trkpt>
<trkpt lat="45.8987070" lon="10.3158740">
	<ele>1366.60</ele>
	<time>2025-07-29T11:18:31.000Z</time>
</trkpt>
<trkpt lat="45.8987100" lon="10.3158550">
	<ele>1366.40</ele>
	<time>2025-07-29T11:18:32.000Z</time>
</trkpt>
<trkpt lat="45.8987170" lon="10.3158410">
	<ele>1366.40</ele>
	<time>2025-07-29T11:18:33.000Z</time>
</trkpt>
<trkpt lat="45.8987200" lon="10.3158290">
	<ele>1366.20</ele>
	<time>2025-07-29T11:18:34.000Z</time>
</trkpt>
<trkpt lat="45.8987220" lon="10.3158160">
	<ele>1366.00</ele>
	<time>2025-07-29T11:18:35.000Z</time>
</trkpt>
<trkpt lat="45.8987210" lon="10.3158010">
	<ele>1365.80</ele>
	<time>2025-07-29T11:18:36.000Z</time>
</trkpt>
<trkpt lat="45.8987250" lon="10.3157980">
	<ele>1365.60</ele>
	<time>2025-07-29T11:18:37.000Z</time>
</trkpt>
<trkpt lat="45.8987290" lon="10.3157900">
	<ele>1365.60</ele>
	<time>2025-07-29T11:18:38.000Z</time>
</trkpt>
<trkpt lat="45.8987360" lon="10.3157820">
	<ele>1365.40</ele>
	<time>2025-07-29T11:18:39.000Z</time>
</trkpt>
<trkpt lat="45.8987400" lon="10.3157760">
	<ele>1365.40</ele>
	<time>2025-07-29T11:18:40.000Z</time>
</trkpt>
<trkpt lat="45.8987450" lon="10.3157710">
	<ele>1365.20</ele>
	<time>2025-07-29T11:18:41.000Z</time>
</trkpt>
<trkpt lat="45.8987530" lon="10.3157630">
	<ele>1365.20</ele>
	<time>2025-07-29T11:18:42.000Z</time>
</trkpt>
<trkpt lat="45.8987630" lon="10.3157560">
	<ele>1365.00</ele>
	<time>2025-07-29T11:18:43.000Z</time>
</trkpt>
<trkpt lat="45.8987650" lon="10.3157500">
	<ele>1364.80</ele>
	<time>2025-07-29T11:18:44.000Z</time>
</trkpt>
<trkpt lat="45.8987620" lon="10.3157380">
	<ele>1364.80</ele>
	<time>2025-07-29T11:18:45.000Z</time>
</trkpt>
<trkpt lat="45.8987650" lon="10.3157270">
	<ele>1364.60</ele>
	<time>2025-07-29T11:18:46.000Z</time>
</trkpt>
<trkpt lat="45.8987650" lon="10.3157190">
	<ele>1364.60</ele>
	<time>2025-07-29T11:18:47.000Z</time>
</trkpt>
<trkpt lat="45.8987590" lon="10.3157170">
	<ele>1364.40</ele>
	<time>2025-07-29T11:18:48.000Z</time>
</trkpt>
<trkpt lat="45.8987510" lon="10.3157210">
	<ele>1364.40</ele>
	<time>2025-07-29T11:18:49.000Z</time>
</trkpt>
<trkpt lat="45.8987360" lon="10.3157210">
	<ele>1364.40</ele>
	<time>2025-07-29T11:18:50.000Z</time>
</trkpt>
<trkpt lat="45.8987250" lon="10.3157210">
	<ele>1364.40</ele>
	<time>2025-07-29T11:18:51.000Z</time>
</trkpt>
<trkpt lat="45.8987140" lon="10.3157280">
	<ele>1364.60</ele>
	<time>2025-07-29T11:18:52.000Z</time>
</trkpt>
<trkpt lat="45.8987070" lon="10.3157370">
	<ele>1364.60</ele>
	<time>2025-07-29T11:18:53.000Z</time>
</trkpt>
<trkpt lat="45.8987000" lon="10.3157510">
	<ele>1364.60</ele>
	<time>2025-07-29T11:18:54.000Z</time>
</trkpt>
<trkpt lat="45.8986980" lon="10.3157640">
	<ele>1364.80</ele>
	<time>2025-07-29T11:18:55.000Z</time>
</trkpt>
<trkpt lat="45.8986940" lon="10.3157740">
	<ele>1364.80</ele>
	<time>2025-07-29T11:18:56.000Z</time>
</trkpt>
<trkpt lat="45.8986910" lon="10.3157790">
	<ele>1364.80</ele>
	<time>2025-07-29T11:18:57.000Z</time>
</trkpt>
<trkpt lat="45.8986880" lon="10.3157800">
	<ele>1365.00</ele>
	<time>2025-07-29T11:18:58.000Z</time>
</trkpt>
<trkpt lat="45.8986850" lon="10.3157810">
	<ele>1365.00</ele>
	<time>2025-07-29T11:18:59.000Z</time>
</trkpt>
<trkpt lat="45.8986810" lon="10.3157860">
	<ele>1364.80</ele>
	<time>2025-07-29T11:19:00.000Z</time>
</trkpt>
<trkpt lat="45.8986790" lon="10.3157860">
	<ele>1364.80</ele>
	<time>2025-07-29T11:19:01.000Z</time>
</trkpt>
<trkpt lat="45.8986820" lon="10.3157830">
	<ele>1364.80</ele>
	<time>2025-07-29T11:19:02.000Z</time>
</trkpt>
<trkpt lat="45.8986830" lon="10.3157770">
	<ele>1364.80</ele>
	<time>2025-07-29T11:19:03.000Z</time>
</trkpt>
<trkpt lat="45.8986710" lon="10.3157670">
	<ele>1364.80</ele>
	<time>2025-07-29T11:19:04.000Z</time>
</trkpt>
<trkpt lat="45.8986740" lon="10.3157500">
	<ele>1364.80</ele>
	<time>2025-07-29T11:19:05.000Z</time>
</trkpt>
<trkpt lat="45.8986760" lon="10.3157370">
	<ele>1364.80</ele>
	<time>2025-07-29T11:19:06.000Z</time>
</trkpt>
<trkpt lat="45.8986780" lon="10.3157330">
	<ele>1364.80</ele>
	<time>2025-07-29T11:19:07.000Z</time>
</trkpt>
<trkpt lat="45.8986770" lon="10.3157270">
	<ele>1364.80</ele>
	<time>2025-07-29T11:19:08.000Z</time>
</trkpt>
<trkpt lat="45.8986700" lon="10.3157250">
	<ele>1364.80</ele>
	<time>2025-07-29T11:19:09.000Z</time>
</trkpt>
<trkpt lat="45.8986710" lon="10.3157220">
	<ele>1364.80</ele>
	<time>2025-07-29T11:19:10.000Z</time>
</trkpt>
<trkpt lat="45.8986700" lon="10.3157190">
	<ele>1364.80</ele>
	<time>2025-07-29T11:19:11.000Z</time>
</trkpt>
<trkpt lat="45.8986690" lon="10.3157140">
	<ele>1364.80</ele>
	<time>2025-07-29T11:19:12.000Z</time>
</trkpt>
<trkpt lat="45.8986670" lon="10.3157110">
	<ele>1364.80</ele>
	<time>2025-07-29T11:19:13.000Z</time>
</trkpt>
<trkpt lat="45.8986580" lon="10.3157100">
	<ele>1364.80</ele>
	<time>2025-07-29T11:19:14.000Z</time>
</trkpt>
<trkpt lat="45.8986500" lon="10.3157060">
	<ele>1364.80</ele>
	<time>2025-07-29T11:19:15.000Z</time>
</trkpt>
<trkpt lat="45.8986470" lon="10.3157030">
	<ele>1364.80</ele>
	<time>2025-07-29T11:19:16.000Z</time>
</trkpt>
<trkpt lat="45.8986480" lon="10.3157030">
	<ele>1364.80</ele>
	<time>2025-07-29T11:19:17.000Z</time>
</trkpt>
<trkpt lat="45.8986500" lon="10.3157020">
	<ele>1364.60</ele>
	<time>2025-07-29T11:19:18.000Z</time>
</trkpt>
<trkpt lat="45.8986500" lon="10.3157000">
	<ele>1364.60</ele>
	<time>2025-07-29T11:19:19.000Z</time>
</trkpt>
<trkpt lat="45.8986490" lon="10.3157020">
	<ele>1364.40</ele>
	<time>2025-07-29T11:19:20.000Z</time>
</trkpt>
<trkpt lat="45.8986480" lon="10.3157040">
	<ele>1364.40</ele>
	<time>2025-07-29T11:19:21.000Z</time>
</trkpt>
<trkpt lat="45.8986490" lon="10.3157050">
	<ele>1364.40</ele>
	<time>2025-07-29T11:19:22.000Z</time>
</trkpt>
<trkpt lat="45.8986480" lon="10.3157080">
	<ele>1364.40</ele>
	<time>2025-07-29T11:19:23.000Z</time>
</trkpt>
<trkpt lat="45.8986430" lon="10.3157040">
	<ele>1364.40</ele>
	<time>2025-07-29T11:19:24.000Z</time>
</trkpt>
<trkpt lat="45.8986390" lon="10.3156980">
	<ele>1364.40</ele>
	<time>2025-07-29T11:19:25.000Z</time>
</trkpt>
<trkpt lat="45.8986420" lon="10.3156990">
	<ele>1364.40</ele>
	<time>2025-07-29T11:19:26.000Z</time>
</trkpt>
<trkpt lat="45.8986470" lon="10.3156900">
	<ele>1364.40</ele>
	<time>2025-07-29T11:19:27.000Z</time>
</trkpt>
<trkpt lat="45.8986480" lon="10.3156940">
	<ele>1364.40</ele>
	<time>2025-07-29T11:19:28.000Z</time>
</trkpt>
<trkpt lat="45.8986500" lon="10.3157090">
	<ele>1364.60</ele>
	<time>2025-07-29T11:19:29.000Z</time>
</trkpt>
<trkpt lat="45.8986540" lon="10.3157060">
	<ele>1364.60</ele>
	<time>2025-07-29T11:19:30.000Z</time>
</trkpt>
<trkpt lat="45.8986760" lon="10.3156760">
	<ele>1364.60</ele>
	<time>2025-07-29T11:19:31.000Z</time>
</trkpt>
<trkpt lat="45.8986870" lon="10.3156690">
	<ele>1364.60</ele>
	<time>2025-07-29T11:19:32.000Z</time>
</trkpt>
<trkpt lat="45.8986900" lon="10.3156670">
	<ele>1364.60</ele>
	<time>2025-07-29T11:19:33.000Z</time>
</trkpt>
<trkpt lat="45.8987050" lon="10.3156660">
	<ele>1364.60</ele>
	<time>2025-07-29T11:19:34.000Z</time>
</trkpt>
<trkpt lat="45.8987270" lon="10.3156790">
	<ele>1364.60</ele>
	<time>2025-07-29T11:19:35.000Z</time>
</trkpt>
<trkpt lat="45.8987270" lon="10.3156810">
	<ele>1364.60</ele>
	<time>2025-07-29T11:19:36.000Z</time>
</trkpt>
<trkpt lat="45.8987160" lon="10.3156780">
	<ele>1364.60</ele>
	<time>2025-07-29T11:19:37.000Z</time>
</trkpt>
<trkpt lat="45.8987050" lon="10.3156780">
	<ele>1364.60</ele>
	<time>2025-07-29T11:19:38.000Z</time>
</trkpt>
<trkpt lat="45.8986980" lon="10.3156760">
	<ele>1364.60</ele>
	<time>2025-07-29T11:19:39.000Z</time>
</trkpt>
<trkpt lat="45.8986960" lon="10.3156770">
	<ele>1364.60</ele>
	<time>2025-07-29T11:19:40.000Z</time>
</trkpt>
<trkpt lat="45.8986930" lon="10.3156760">
	<ele>1364.60</ele>
	<time>2025-07-29T11:19:41.000Z</time>
</trkpt>
<trkpt lat="45.8986860" lon="10.3156810">
	<ele>1364.60</ele>
	<time>2025-07-29T11:19:42.000Z</time>
</trkpt>
<trkpt lat="45.8986990" lon="10.3156810">
	<ele>1364.80</ele>
	<time>2025-07-29T11:19:43.000Z</time>
</trkpt>
<trkpt lat="45.8986940" lon="10.3156840">
	<ele>1364.80</ele>
	<time>2025-07-29T11:19:44.000Z</time>
</trkpt>
<trkpt lat="45.8986900" lon="10.3156880">
	<ele>1364.80</ele>
	<time>2025-07-29T11:19:45.000Z</time>
</trkpt>
<trkpt lat="45.8986840" lon="10.3156940">
	<ele>1364.80</ele>
	<time>2025-07-29T11:19:46.000Z</time>
</trkpt>
<trkpt lat="45.8986750" lon="10.3156970">
	<ele>1364.80</ele>
	<time>2025-07-29T11:19:47.000Z</time>
</trkpt>
<trkpt lat="45.8986670" lon="10.3157030">
	<ele>1364.80</ele>
	<time>2025-07-29T11:19:48.000Z</time>
</trkpt>
<trkpt lat="45.8986680" lon="10.3157220">
	<ele>1364.80</ele>
	<time>2025-07-29T11:19:49.000Z</time>
</trkpt>
<trkpt lat="45.8986720" lon="10.3157240">
	<ele>1364.60</ele>
	<time>2025-07-29T11:19:50.000Z</time>
</trkpt>
<trkpt lat="45.8986730" lon="10.3157340">
	<ele>1364.60</ele>
	<time>2025-07-29T11:19:51.000Z</time>
</trkpt>
<trkpt lat="45.8986730" lon="10.3157370">
	<ele>1364.40</ele>
	<time>2025-07-29T11:19:52.000Z</time>
</trkpt>
<trkpt lat="45.8986730" lon="10.3157370">
	<ele>1364.40</ele>
	<time>2025-07-29T11:19:53.000Z</time>
</trkpt>
<trkpt lat="45.8986730" lon="10.3157340">
	<ele>1364.40</ele>
	<time>2025-07-29T11:19:54.000Z</time>
</trkpt>
<trkpt lat="45.8986730" lon="10.3157330">
	<ele>1364.40</ele>
	<time>2025-07-29T11:19:55.000Z</time>
</trkpt>
<trkpt lat="45.8986720" lon="10.3157280">
	<ele>1364.40</ele>
	<time>2025-07-29T11:19:56.000Z</time>
</trkpt>
<trkpt lat="45.8986730" lon="10.3157270">
	<ele>1364.40</ele>
	<time>2025-07-29T11:19:57.000Z</time>
</trkpt>
<trkpt lat="45.8986730" lon="10.3157290">
	<ele>1364.40</ele>
	<time>2025-07-29T11:19:58.000Z</time>
</trkpt>
<trkpt lat="45.8986700" lon="10.3157300">
	<ele>1364.40</ele>
	<time>2025-07-29T11:19:59.000Z</time>
</trkpt>
<trkpt lat="45.8986610" lon="10.3157340">
	<ele>1364.40</ele>
	<time>2025-07-29T11:20:00.000Z</time>
</trkpt>
<trkpt lat="45.8986570" lon="10.3157370">
	<ele>1364.40</ele>
	<time>2025-07-29T11:20:01.000Z</time>
</trkpt>
<trkpt lat="45.8986540" lon="10.3157340">
	<ele>1364.60</ele>
	<time>2025-07-29T11:20:02.000Z</time>
</trkpt>
<trkpt lat="45.8986480" lon="10.3157290">
	<ele>1364.60</ele>
	<time>2025-07-29T11:20:03.000Z</time>
</trkpt>
<trkpt lat="45.8986630" lon="10.3157250">
	<ele>1364.60</ele>
	<time>2025-07-29T11:20:04.000Z</time>
</trkpt>
<trkpt lat="45.8986580" lon="10.3157290">
	<ele>1364.60</ele>
	<time>2025-07-29T11:20:05.000Z</time>
</trkpt>
<trkpt lat="45.8986550" lon="10.3157370">
	<ele>1364.60</ele>
	<time>2025-07-29T11:20:06.000Z</time>
</trkpt>
<trkpt lat="45.8986500" lon="10.3157470">
	<ele>1364.60</ele>
	<time>2025-07-29T11:20:07.000Z</time>
</trkpt>
<trkpt lat="45.8986430" lon="10.3157520">
	<ele>1364.60</ele>
	<time>2025-07-29T11:20:08.000Z</time>
</trkpt>
<trkpt lat="45.8986410" lon="10.3157500">
	<ele>1364.60</ele>
	<time>2025-07-29T11:20:09.000Z</time>
</trkpt>
<trkpt lat="45.8986430" lon="10.3157550">
	<ele>1364.60</ele>
	<time>2025-07-29T11:20:10.000Z</time>
</trkpt>
<trkpt lat="45.8986420" lon="10.3157550">
	<ele>1364.60</ele>
	<time>2025-07-29T11:20:11.000Z</time>
</trkpt>
<trkpt lat="45.8986430" lon="10.3157540">
	<ele>1364.60</ele>
	<time>2025-07-29T11:20:12.000Z</time>
</trkpt>
<trkpt lat="45.8986480" lon="10.3157530">
	<ele>1364.60</ele>
	<time>2025-07-29T11:20:13.000Z</time>
</trkpt>
<trkpt lat="45.8986520" lon="10.3157510">
	<ele>1364.60</ele>
	<time>2025-07-29T11:20:14.000Z</time>
</trkpt>
<trkpt lat="45.8986530" lon="10.3157490">
	<ele>1364.60</ele>
	<time>2025-07-29T11:20:15.000Z</time>
</trkpt>
<trkpt lat="45.8986480" lon="10.3157470">
	<ele>1364.60</ele>
	<time>2025-07-29T11:20:16.000Z</time>
</trkpt>
<trkpt lat="45.8986430" lon="10.3157370">
	<ele>1364.60</ele>
	<time>2025-07-29T11:20:17.000Z</time>
</trkpt>
<trkpt lat="45.8986400" lon="10.3157360">
	<ele>1364.40</ele>
	<time>2025-07-29T11:20:18.000Z</time>
</trkpt>
<trkpt lat="45.8986390" lon="10.3157370">
	<ele>1364.40</ele>
	<time>2025-07-29T11:20:19.000Z</time>
</trkpt>
<trkpt lat="45.8986430" lon="10.3157390">
	<ele>1364.40</ele>
	<time>2025-07-29T11:20:20.000Z</time>
</trkpt>
<trkpt lat="45.8986440" lon="10.3157400">
	<ele>1364.40</ele>
	<time>2025-07-29T11:20:21.000Z</time>
</trkpt>
<trkpt lat="45.8986450" lon="10.3157430">
	<ele>1364.40</ele>
	<time>2025-07-29T11:20:22.000Z</time>
</trkpt>
<trkpt lat="45.8986360" lon="10.3157310">
	<ele>1364.40</ele>
	<time>2025-07-29T11:20:23.000Z</time>
</trkpt>
<trkpt lat="45.8986340" lon="10.3157290">
	<ele>1364.40</ele>
	<time>2025-07-29T11:20:24.000Z</time>
</trkpt>
<trkpt lat="45.8986410" lon="10.3157330">
	<ele>1364.40</ele>
	<time>2025-07-29T11:20:25.000Z</time>
</trkpt>
<trkpt lat="45.8986420" lon="10.3157340">
	<ele>1364.40</ele>
	<time>2025-07-29T11:20:26.000Z</time>
</trkpt>
<trkpt lat="45.8986500" lon="10.3157360">
	<ele>1364.40</ele>
	<time>2025-07-29T11:20:27.000Z</time>
</trkpt>
<trkpt lat="45.8986540" lon="10.3157340">
	<ele>1364.20</ele>
	<time>2025-07-29T11:20:28.000Z</time>
</trkpt>
<trkpt lat="45.8986530" lon="10.3157310">
	<ele>1364.20</ele>
	<time>2025-07-29T11:20:29.000Z</time>
</trkpt>
<trkpt lat="45.8986510" lon="10.3157280">
	<ele>1364.20</ele>
	<time>2025-07-29T11:20:30.000Z</time>
</trkpt>
<trkpt lat="45.8986490" lon="10.3157280">
	<ele>1364.20</ele>
	<time>2025-07-29T11:20:31.000Z</time>
</trkpt>
<trkpt lat="45.8986480" lon="10.3157280">
	<ele>1364.20</ele>
	<time>2025-07-29T11:20:32.000Z</time>
</trkpt>
<trkpt lat="45.8986460" lon="10.3157190">
	<ele>1364.20</ele>
	<time>2025-07-29T11:20:33.000Z</time>
</trkpt>
<trkpt lat="45.8986470" lon="10.3157110">
	<ele>1364.20</ele>
	<time>2025-07-29T11:20:34.000Z</time>
</trkpt>
<trkpt lat="45.8986460" lon="10.3157060">
	<ele>1364.20</ele>
	<time>2025-07-29T11:20:35.000Z</time>
</trkpt>
<trkpt lat="45.8986450" lon="10.3157070">
	<ele>1364.20</ele>
	<time>2025-07-29T11:20:36.000Z</time>
</trkpt>
<trkpt lat="45.8986440" lon="10.3157060">
	<ele>1364.20</ele>
	<time>2025-07-29T11:20:37.000Z</time>
</trkpt>
<trkpt lat="45.8986420" lon="10.3157090">
	<ele>1364.20</ele>
	<time>2025-07-29T11:20:38.000Z</time>
</trkpt>
<trkpt lat="45.8986410" lon="10.3157110">
	<ele>1364.20</ele>
	<time>2025-07-29T11:20:39.000Z</time>
</trkpt>
<trkpt lat="45.8986430" lon="10.3157080">
	<ele>1364.40</ele>
	<time>2025-07-29T11:20:40.000Z</time>
</trkpt>
<trkpt lat="45.8986430" lon="10.3157070">
	<ele>1364.40</ele>
	<time>2025-07-29T11:20:41.000Z</time>
</trkpt>
<trkpt lat="45.8986420" lon="10.3157100">
	<ele>1364.60</ele>
	<time>2025-07-29T11:20:42.000Z</time>
</trkpt>
<trkpt lat="45.8986400" lon="10.3157100">
	<ele>1364.60</ele>
	<time>2025-07-29T11:20:43.000Z</time>
</trkpt>
<trkpt lat="45.8986380" lon="10.3157070">
	<ele>1364.60</ele>
	<time>2025-07-29T11:20:44.000Z</time>
</trkpt>
<trkpt lat="45.8986370" lon="10.3157090">
	<ele>1364.60</ele>
	<time>2025-07-29T11:20:45.000Z</time>
</trkpt>
<trkpt lat="45.8986360" lon="10.3157080">
	<ele>1364.40</ele>
	<time>2025-07-29T11:20:46.000Z</time>
</trkpt>
<trkpt lat="45.8986340" lon="10.3157080">
	<ele>1364.40</ele>
	<time>2025-07-29T11:20:47.000Z</time>
</trkpt>
<trkpt lat="45.8986420" lon="10.3157140">
	<ele>1364.40</ele>
	<time>2025-07-29T11:20:48.000Z</time>
</trkpt>
<trkpt lat="45.8986430" lon="10.3157220">
	<ele>1364.40</ele>
	<time>2025-07-29T11:20:49.000Z</time>
</trkpt>
<trkpt lat="45.8986450" lon="10.3157250">
	<ele>1364.40</ele>
	<time>2025-07-29T11:20:50.000Z</time>
</trkpt>
<trkpt lat="45.8986480" lon="10.3157290">
	<ele>1364.40</ele>
	<time>2025-07-29T11:20:51.000Z</time>
</trkpt>
<trkpt lat="45.8986490" lon="10.3157280">
	<ele>1364.40</ele>
	<time>2025-07-29T11:20:52.000Z</time>
</trkpt>
<trkpt lat="45.8986460" lon="10.3157270">
	<ele>1364.20</ele>
	<time>2025-07-29T11:20:53.000Z</time>
</trkpt>
<trkpt lat="45.8986460" lon="10.3157270">
	<ele>1364.20</ele>
	<time>2025-07-29T11:20:54.000Z</time>
</trkpt>
<trkpt lat="45.8986460" lon="10.3157270">
	<ele>1364.20</ele>
	<time>2025-07-29T11:20:55.000Z</time>
</trkpt>
<trkpt lat="45.8986460" lon="10.3157270">
	<ele>1364.40</ele>
	<time>2025-07-29T11:20:56.000Z</time>
</trkpt>
<trkpt lat="45.8986460" lon="10.3157270">
	<ele>1364.40</ele>
	<time>2025-07-29T11:20:57.000Z</time>
</trkpt>
<trkpt lat="45.8986460" lon="10.3157270">
	<ele>1364.40</ele>
	<time>2025-07-29T11:20:58.000Z</time>
</trkpt>
<trkpt lat="45.8986460" lon="10.3157270">
	<ele>1364.40</ele>
	<time>2025-07-29T11:20:59.000Z</time>
</trkpt>
<trkpt lat="45.8986460" lon="10.3157270">
	<ele>1364.40</ele>
	<time>2025-07-29T11:21:00.000Z</time>
</trkpt>
<trkpt lat="45.8986460" lon="10.3157270">
	<ele>1364.40</ele>
	<time>2025-07-29T11:21:01.000Z</time>
</trkpt>
<trkpt lat="45.8986460" lon="10.3157270">
	<ele>1364.40</ele>
	<time>2025-07-29T11:21:02.000Z</time>
</trkpt>
<trkpt lat="45.8986440" lon="10.3157270">
	<ele>1364.40</ele>
	<time>2025-07-29T11:21:03.000Z</time>
</trkpt>
<trkpt lat="45.8986350" lon="10.3157240">
	<ele>1364.40</ele>
	<time>2025-07-29T11:21:04.000Z</time>
</trkpt>
<trkpt lat="45.8986430" lon="10.3157180">
	<ele>1364.40</ele>
	<time>2025-07-29T11:21:05.000Z</time>
</trkpt>
<trkpt lat="45.8986370" lon="10.3157150">
	<ele>1364.60</ele>
	<time>2025-07-29T11:21:06.000Z</time>
</trkpt>
<trkpt lat="45.8986410" lon="10.3157150">
	<ele>1364.60</ele>
	<time>2025-07-29T11:21:07.000Z</time>
</trkpt>
<trkpt lat="45.8986430" lon="10.3157160">
	<ele>1364.60</ele>
	<time>2025-07-29T11:21:08.000Z</time>
</trkpt>
<trkpt lat="45.8986370" lon="10.3157160">
	<ele>1364.60</ele>
	<time>2025-07-29T11:21:09.000Z</time>
</trkpt>
<trkpt lat="45.8986340" lon="10.3157180">
	<ele>1364.60</ele>
	<time>2025-07-29T11:21:10.000Z</time>
</trkpt>
<trkpt lat="45.8986320" lon="10.3157180">
	<ele>1364.60</ele>
	<time>2025-07-29T11:21:11.000Z</time>
</trkpt>
<trkpt lat="45.8986350" lon="10.3157120">
	<ele>1364.60</ele>
	<time>2025-07-29T11:21:12.000Z</time>
</trkpt>
<trkpt lat="45.8986330" lon="10.3157100">
	<ele>1364.40</ele>
	<time>2025-07-29T11:21:13.000Z</time>
</trkpt>
<trkpt lat="45.8986310" lon="10.3157110">
	<ele>1364.40</ele>
	<time>2025-07-29T11:21:14.000Z</time>
</trkpt>
<trkpt lat="45.8986320" lon="10.3157120">
	<ele>1364.40</ele>
	<time>2025-07-29T11:21:15.000Z</time>
</trkpt>
<trkpt lat="45.8986340" lon="10.3157130">
	<ele>1364.40</ele>
	<time>2025-07-29T11:21:16.000Z</time>
</trkpt>
<trkpt lat="45.8986340" lon="10.3157140">
	<ele>1364.40</ele>
	<time>2025-07-29T11:21:17.000Z</time>
</trkpt>
<trkpt lat="45.8986320" lon="10.3157130">
	<ele>1364.40</ele>
	<time>2025-07-29T11:21:18.000Z</time>
</trkpt>
<trkpt lat="45.8986310" lon="10.3157110">
	<ele>1364.40</ele>
	<time>2025-07-29T11:21:19.000Z</time>
</trkpt>
<trkpt lat="45.8986330" lon="10.3157110">
	<ele>1364.40</ele>
	<time>2025-07-29T11:21:20.000Z</time>
</trkpt>
<trkpt lat="45.8986330" lon="10.3157150">
	<ele>1364.40</ele>
	<time>2025-07-29T11:21:21.000Z</time>
</trkpt>
<trkpt lat="45.8986340" lon="10.3157180">
	<ele>1364.40</ele>
	<time>2025-07-29T11:21:22.000Z</time>
</trkpt>
<trkpt lat="45.8986360" lon="10.3157200">
	<ele>1364.40</ele>
	<time>2025-07-29T11:21:23.000Z</time>
</trkpt>
<trkpt lat="45.8986370" lon="10.3157220">
	<ele>1364.40</ele>
	<time>2025-07-29T11:21:24.000Z</time>
</trkpt>
<trkpt lat="45.8986350" lon="10.3157220">
	<ele>1364.40</ele>
	<time>2025-07-29T11:21:25.000Z</time>
</trkpt>
<trkpt lat="45.8986350" lon="10.3157230">
	<ele>1364.40</ele>
	<time>2025-07-29T11:21:26.000Z</time>
</trkpt>
<trkpt lat="45.8986350" lon="10.3157230">
	<ele>1364.40</ele>
	<time>2025-07-29T11:21:27.000Z</time>
</trkpt>
<trkpt lat="45.8986350" lon="10.3157230">
	<ele>1364.40</ele>
	<time>2025-07-29T11:21:28.000Z</time>
</trkpt>
<trkpt lat="45.8986350" lon="10.3157230">
	<ele>1364.40</ele>
	<time>2025-07-29T11:21:29.000Z</time>
</trkpt>
<trkpt lat="45.8986350" lon="10.3157230">
	<ele>1364.60</ele>
	<time>2025-07-29T11:21:30.000Z</time>
</trkpt>
<trkpt lat="45.8986350" lon="10.3157230">
	<ele>1364.60</ele>
	<time>2025-07-29T11:21:31.000Z</time>
</trkpt>
<trkpt lat="45.8986350" lon="10.3157230">
	<ele>1364.60</ele>
	<time>2025-07-29T11:21:32.000Z</time>
</trkpt>
<trkpt lat="45.8986350" lon="10.3157230">
	<ele>1364.60</ele>
	<time>2025-07-29T11:21:33.000Z</time>
</trkpt>
<trkpt lat="45.8986350" lon="10.3157220">
	<ele>1364.40</ele>
	<time>2025-07-29T11:21:34.000Z</time>
</trkpt>
<trkpt lat="45.8986350" lon="10.3157220">
	<ele>1364.40</ele>
	<time>2025-07-29T11:21:35.000Z</time>
</trkpt>
<trkpt lat="45.8986350" lon="10.3157210">
	<ele>1364.40</ele>
	<time>2025-07-29T11:21:36.000Z</time>
</trkpt>
<trkpt lat="45.8986350" lon="10.3157200">
	<ele>1364.40</ele>
	<time>2025-07-29T11:21:37.000Z</time>
</trkpt>
<trkpt lat="45.8986350" lon="10.3157200">
	<ele>1364.60</ele>
	<time>2025-07-29T11:21:38.000Z</time>
</trkpt>
<trkpt lat="45.8986350" lon="10.3157190">
	<ele>1364.60</ele>
	<time>2025-07-29T11:21:39.000Z</time>
</trkpt>
<trkpt lat="45.8986350" lon="10.3157150">
	<ele>1364.60</ele>
	<time>2025-07-29T11:21:40.000Z</time>
</trkpt>
<trkpt lat="45.8986350" lon="10.3157140">
	<ele>1364.60</ele>
	<time>2025-07-29T11:21:41.000Z</time>
</trkpt>
<trkpt lat="45.8986350" lon="10.3157130">
	<ele>1364.60</ele>
	<time>2025-07-29T11:21:42.000Z</time>
</trkpt>
<trkpt lat="45.8986350" lon="10.3157130">
	<ele>1364.60</ele>
	<time>2025-07-29T11:21:43.000Z</time>
</trkpt>
<trkpt lat="45.8986350" lon="10.3157130">
	<ele>1364.60</ele>
	<time>2025-07-29T11:21:44.000Z</time>
</trkpt>
<trkpt lat="45.8986330" lon="10.3157120">
	<ele>1364.60</ele>
	<time>2025-07-29T11:21:45.000Z</time>
</trkpt>
<trkpt lat="45.8986310" lon="10.3157110">
	<ele>1364.60</ele>
	<time>2025-07-29T11:21:46.000Z</time>
</trkpt>
<trkpt lat="45.8986310" lon="10.3157190">
	<ele>1364.60</ele>
	<time>2025-07-29T11:21:47.000Z</time>
</trkpt>
<trkpt lat="45.8986280" lon="10.3157200">
	<ele>1364.60</ele>
	<time>2025-07-29T11:21:48.000Z</time>
</trkpt>
<trkpt lat="45.8986250" lon="10.3157210">
	<ele>1364.60</ele>
	<time>2025-07-29T11:21:49.000Z</time>
</trkpt>
<trkpt lat="45.8986270" lon="10.3157220">
	<ele>1364.60</ele>
	<time>2025-07-29T11:21:50.000Z</time>
</trkpt>
<trkpt lat="45.8986320" lon="10.3157230">
	<ele>1364.60</ele>
	<time>2025-07-29T11:21:51.000Z</time>
</trkpt>
<trkpt lat="45.8986340" lon="10.3157210">
	<ele>1364.60</ele>
	<time>2025-07-29T11:21:52.000Z</time>
</trkpt>
<trkpt lat="45.8986480" lon="10.3157310">
	<ele>1364.60</ele>
	<time>2025-07-29T11:21:53.000Z</time>
</trkpt>
<trkpt lat="45.8986530" lon="10.3157360">
	<ele>1364.60</ele>
	<time>2025-07-29T11:21:54.000Z</time>
</trkpt>
<trkpt lat="45.8986560" lon="10.3157340">
	<ele>1364.60</ele>
	<time>2025-07-29T11:21:55.000Z</time>
</trkpt>
<trkpt lat="45.8986390" lon="10.3157390">
	<ele>1364.60</ele>
	<time>2025-07-29T11:21:56.000Z</time>
</trkpt>
<trkpt lat="45.8986350" lon="10.3157400">
	<ele>1364.60</ele>
	<time>2025-07-29T11:21:57.000Z</time>
</trkpt>
<trkpt lat="45.8986300" lon="10.3157410">
	<ele>1364.60</ele>
	<time>2025-07-29T11:21:58.000Z</time>
</trkpt>
<trkpt lat="45.8986280" lon="10.3157390">
	<ele>1364.60</ele>
	<time>2025-07-29T11:21:59.000Z</time>
</trkpt>
<trkpt lat="45.8986250" lon="10.3157420">
	<ele>1364.60</ele>
	<time>2025-07-29T11:22:00.000Z</time>
</trkpt>
<trkpt lat="45.8986230" lon="10.3157480">
	<ele>1364.60</ele>
	<time>2025-07-29T11:22:01.000Z</time>
</trkpt>
<trkpt lat="45.8986180" lon="10.3157530">
	<ele>1364.60</ele>
	<time>2025-07-29T11:22:02.000Z</time>
</trkpt>
<trkpt lat="45.8986140" lon="10.3157550">
	<ele>1364.60</ele>
	<time>2025-07-29T11:22:03.000Z</time>
</trkpt>
<trkpt lat="45.8986130" lon="10.3157570">
	<ele>1364.60</ele>
	<time>2025-07-29T11:22:04.000Z</time>
</trkpt>
<trkpt lat="45.8986110" lon="10.3157570">
	<ele>1364.60</ele>
	<time>2025-07-29T11:22:05.000Z</time>
</trkpt>
<trkpt lat="45.8985920" lon="10.3157570">
	<ele>1364.60</ele>
	<time>2025-07-29T11:22:06.000Z</time>
</trkpt>
<trkpt lat="45.8985770" lon="10.3157560">
	<ele>1364.80</ele>
	<time>2025-07-29T11:22:07.000Z</time>
</trkpt>
<trkpt lat="45.8985720" lon="10.3157580">
	<ele>1364.80</ele>
	<time>2025-07-29T11:22:08.000Z</time>
</trkpt>
<trkpt lat="45.8985700" lon="10.3157580">
	<ele>1364.80</ele>
	<time>2025-07-29T11:22:09.000Z</time>
</trkpt>
<trkpt lat="45.8985690" lon="10.3157580">
	<ele>1364.80</ele>
	<time>2025-07-29T11:22:10.000Z</time>
</trkpt>
<trkpt lat="45.8985710" lon="10.3157570">
	<ele>1364.80</ele>
	<time>2025-07-29T11:22:11.000Z</time>
</trkpt>
<trkpt lat="45.8985720" lon="10.3157540">
	<ele>1364.60</ele>
	<time>2025-07-29T11:22:12.000Z</time>
</trkpt>
<trkpt lat="45.8985730" lon="10.3157520">
	<ele>1364.60</ele>
	<time>2025-07-29T11:22:13.000Z</time>
</trkpt>
<trkpt lat="45.8985750" lon="10.3157530">
	<ele>1364.60</ele>
	<time>2025-07-29T11:22:14.000Z</time>
</trkpt>
<trkpt lat="45.8985760" lon="10.3157530">
	<ele>1364.60</ele>
	<time>2025-07-29T11:22:15.000Z</time>
</trkpt>
<trkpt lat="45.8985760" lon="10.3157480">
	<ele>1364.80</ele>
	<time>2025-07-29T11:22:16.000Z</time>
</trkpt>
<trkpt lat="45.8985770" lon="10.3157470">
	<ele>1364.80</ele>
	<time>2025-07-29T11:22:17.000Z</time>
</trkpt>
<trkpt lat="45.8985760" lon="10.3157480">
	<ele>1364.80</ele>
	<time>2025-07-29T11:22:18.000Z</time>
</trkpt>
<trkpt lat="45.8985760" lon="10.3157480">
	<ele>1364.80</ele>
	<time>2025-07-29T11:22:19.000Z</time>
</trkpt>
<trkpt lat="45.8985760" lon="10.3157480">
	<ele>1364.80</ele>
	<time>2025-07-29T11:22:20.000Z</time>
</trkpt>
<trkpt lat="45.8985760" lon="10.3157480">
	<ele>1364.60</ele>
	<time>2025-07-29T11:22:21.000Z</time>
</trkpt>
<trkpt lat="45.8985760" lon="10.3157480">
	<ele>1364.60</ele>
	<time>2025-07-29T11:22:22.000Z</time>
</trkpt>
<trkpt lat="45.8985760" lon="10.3157480">
	<ele>1364.60</ele>
	<time>2025-07-29T11:22:23.000Z</time>
</trkpt>
<trkpt lat="45.8985760" lon="10.3157480">
	<ele>1364.60</ele>
	<time>2025-07-29T11:22:24.000Z</time>
</trkpt>
<trkpt lat="45.8985770" lon="10.3157480">
	<ele>1364.40</ele>
	<time>2025-07-29T11:22:25.000Z</time>
</trkpt>
<trkpt lat="45.8985790" lon="10.3157480">
	<ele>1364.40</ele>
	<time>2025-07-29T11:22:26.000Z</time>
</trkpt>
<trkpt lat="45.8985750" lon="10.3157440">
	<ele>1364.40</ele>
	<time>2025-07-29T11:22:27.000Z</time>
</trkpt>
<trkpt lat="45.8985790" lon="10.3157440">
	<ele>1364.60</ele>
	<time>2025-07-29T11:22:28.000Z</time>
</trkpt>
<trkpt lat="45.8985770" lon="10.3157430">
	<ele>1365.00</ele>
	<time>2025-07-29T11:22:29.000Z</time>
</trkpt>
<trkpt lat="45.8985760" lon="10.3157440">
	<ele>1365.00</ele>
	<time>2025-07-29T11:22:30.000Z</time>
</trkpt>
<trkpt lat="45.8985750" lon="10.3157480">
	<ele>1365.00</ele>
	<time>2025-07-29T11:22:31.000Z</time>
</trkpt>
<trkpt lat="45.8985760" lon="10.3157490">
	<ele>1365.00</ele>
	<time>2025-07-29T11:22:32.000Z</time>
</trkpt>
<trkpt lat="45.8985760" lon="10.3157490">
	<ele>1365.00</ele>
	<time>2025-07-29T11:22:33.000Z</time>
</trkpt>
<trkpt lat="45.8985760" lon="10.3157490">
	<ele>1365.00</ele>
	<time>2025-07-29T11:22:34.000Z</time>
</trkpt>
<trkpt lat="45.8985760" lon="10.3157490">
	<ele>1365.00</ele>
	<time>2025-07-29T11:22:35.000Z</time>
</trkpt>
<trkpt lat="45.8985760" lon="10.3157490">
	<ele>1365.00</ele>
	<time>2025-07-29T11:22:36.000Z</time>
</trkpt>
<trkpt lat="45.8985760" lon="10.3157490">
	<ele>1365.00</ele>
	<time>2025-07-29T11:22:37.000Z</time>
</trkpt>
<trkpt lat="45.8985760" lon="10.3157490">
	<ele>1365.00</ele>
	<time>2025-07-29T11:22:38.000Z</time>
</trkpt>
<trkpt lat="45.8985760" lon="10.3157490">
	<ele>1365.00</ele>
	<time>2025-07-29T11:22:39.000Z</time>
</trkpt>
<trkpt lat="45.8985760" lon="10.3157490">
	<ele>1365.00</ele>
	<time>2025-07-29T11:22:40.000Z</time>
</trkpt>
<trkpt lat="45.8985760" lon="10.3157490">
	<ele>1365.00</ele>
	<time>2025-07-29T11:22:41.000Z</time>
</trkpt>
<trkpt lat="45.8985760" lon="10.3157490">
	<ele>1365.00</ele>
	<time>2025-07-29T11:22:42.000Z</time>
</trkpt>
<trkpt lat="45.8985760" lon="10.3157490">
	<ele>1365.00</ele>
	<time>2025-07-29T11:22:43.000Z</time>
</trkpt>
<trkpt lat="45.8985760" lon="10.3157490">
	<ele>1365.00</ele>
	<time>2025-07-29T11:22:44.000Z</time>
</trkpt>
<trkpt lat="45.8985760" lon="10.3157490">
	<ele>1365.00</ele>
	<time>2025-07-29T11:22:45.000Z</time>
</trkpt>
<trkpt lat="45.8985760" lon="10.3157490">
	<ele>1365.00</ele>
	<time>2025-07-29T11:22:46.000Z</time>
</trkpt>
<trkpt lat="45.8985760" lon="10.3157490">
	<ele>1365.00</ele>
	<time>2025-07-29T11:22:47.000Z</time>
</trkpt>
<trkpt lat="45.8985760" lon="10.3157480">
	<ele>1365.00</ele>
	<time>2025-07-29T11:22:48.000Z</time>
</trkpt>
<trkpt lat="45.8985770" lon="10.3157480">
	<ele>1365.00</ele>
	<time>2025-07-29T11:22:49.000Z</time>
</trkpt>
<trkpt lat="45.8985780" lon="10.3157460">
	<ele>1365.00</ele>
	<time>2025-07-29T11:22:50.000Z</time>
</trkpt>
<trkpt lat="45.8985830" lon="10.3157460">
	<ele>1365.00</ele>
	<time>2025-07-29T11:22:51.000Z</time>
</trkpt>
<trkpt lat="45.8985870" lon="10.3157440">
	<ele>1365.00</ele>
	<time>2025-07-29T11:22:52.000Z</time>
</trkpt>
<trkpt lat="45.8985880" lon="10.3157440">
	<ele>1365.00</ele>
	<time>2025-07-29T11:22:53.000Z</time>
</trkpt>
<trkpt lat="45.8985910" lon="10.3157510">
	<ele>1365.00</ele>
	<time>2025-07-29T11:22:54.000Z</time>
</trkpt>
<trkpt lat="45.8985930" lon="10.3157530">
	<ele>1365.00</ele>
	<time>2025-07-29T11:22:55.000Z</time>
</trkpt>
<trkpt lat="45.8985930" lon="10.3157520">
	<ele>1365.00</ele>
	<time>2025-07-29T11:22:56.000Z</time>
</trkpt>
<trkpt lat="45.8985990" lon="10.3157540">
	<ele>1365.00</ele>
	<time>2025-07-29T11:22:57.000Z</time>
</trkpt>
<trkpt lat="45.8986010" lon="10.3157540">
	<ele>1365.00</ele>
	<time>2025-07-29T11:22:58.000Z</time>
</trkpt>
<trkpt lat="45.8986130" lon="10.3157500">
	<ele>1365.00</ele>
	<time>2025-07-29T11:22:59.000Z</time>
</trkpt>
<trkpt lat="45.8986280" lon="10.3157460">
	<ele>1365.00</ele>
	<time>2025-07-29T11:23:00.000Z</time>
</trkpt>
<trkpt lat="45.8986270" lon="10.3157420">
	<ele>1365.00</ele>
	<time>2025-07-29T11:23:01.000Z</time>
</trkpt>
<trkpt lat="45.8986270" lon="10.3157410">
	<ele>1365.00</ele>
	<time>2025-07-29T11:23:02.000Z</time>
</trkpt>
<trkpt lat="45.8986250" lon="10.3157380">
	<ele>1365.00</ele>
	<time>2025-07-29T11:23:03.000Z</time>
</trkpt>
<trkpt lat="45.8986260" lon="10.3157300">
	<ele>1365.00</ele>
	<time>2025-07-29T11:23:04.000Z</time>
</trkpt>
<trkpt lat="45.8986270" lon="10.3157280">
	<ele>1365.00</ele>
	<time>2025-07-29T11:23:05.000Z</time>
</trkpt>
<trkpt lat="45.8986270" lon="10.3157280">
	<ele>1365.00</ele>
	<time>2025-07-29T11:23:06.000Z</time>
</trkpt>
<trkpt lat="45.8986290" lon="10.3157270">
	<ele>1365.00</ele>
	<time>2025-07-29T11:23:07.000Z</time>
</trkpt>
<trkpt lat="45.8986360" lon="10.3157180">
	<ele>1365.00</ele>
	<time>2025-07-29T11:23:08.000Z</time>
</trkpt>
<trkpt lat="45.8986400" lon="10.3157100">
	<ele>1365.00</ele>
	<time>2025-07-29T11:23:09.000Z</time>
</trkpt>
<trkpt lat="45.8986420" lon="10.3157070">
	<ele>1365.00</ele>
	<time>2025-07-29T11:23:10.000Z</time>
</trkpt>
<trkpt lat="45.8986450" lon="10.3157040">
	<ele>1365.00</ele>
	<time>2025-07-29T11:23:11.000Z</time>
</trkpt>
<trkpt lat="45.8986550" lon="10.3157110">
	<ele>1365.00</ele>
	<time>2025-07-29T11:23:12.000Z</time>
</trkpt>
<trkpt lat="45.8986570" lon="10.3157140">
	<ele>1365.00</ele>
	<time>2025-07-29T11:23:13.000Z</time>
</trkpt>
<trkpt lat="45.8986660" lon="10.3157240">
	<ele>1365.00</ele>
	<time>2025-07-29T11:23:14.000Z</time>
</trkpt>
<trkpt lat="45.8986760" lon="10.3157350">
	<ele>1365.00</ele>
	<time>2025-07-29T11:23:15.000Z</time>
</trkpt>
<trkpt lat="45.8986840" lon="10.3157500">
	<ele>1365.00</ele>
	<time>2025-07-29T11:23:16.000Z</time>
</trkpt>
<trkpt lat="45.8986870" lon="10.3157530">
	<ele>1365.00</ele>
	<time>2025-07-29T11:23:17.000Z</time>
</trkpt>
<trkpt lat="45.8986960" lon="10.3157600">
	<ele>1365.00</ele>
	<time>2025-07-29T11:23:18.000Z</time>
</trkpt>
<trkpt lat="45.8987020" lon="10.3157530">
	<ele>1365.00</ele>
	<time>2025-07-29T11:23:19.000Z</time>
</trkpt>
<trkpt lat="45.8987020" lon="10.3157500">
	<ele>1365.00</ele>
	<time>2025-07-29T11:23:20.000Z</time>
</trkpt>
<trkpt lat="45.8987010" lon="10.3157560">
	<ele>1365.00</ele>
	<time>2025-07-29T11:23:21.000Z</time>
</trkpt>
<trkpt lat="45.8987010" lon="10.3157580">
	<ele>1365.00</ele>
	<time>2025-07-29T11:23:22.000Z</time>
</trkpt>
<trkpt lat="45.8987010" lon="10.3157590">
	<ele>1365.00</ele>
	<time>2025-07-29T11:23:23.000Z</time>
</trkpt>
<trkpt lat="45.8987010" lon="10.3157610">
	<ele>1365.00</ele>
	<time>2025-07-29T11:23:24.000Z</time>
</trkpt>
<trkpt lat="45.8986980" lon="10.3157640">
	<ele>1365.00</ele>
	<time>2025-07-29T11:23:25.000Z</time>
</trkpt>
<trkpt lat="45.8986990" lon="10.3157680">
	<ele>1365.00</ele>
	<time>2025-07-29T11:23:26.000Z</time>
</trkpt>
<trkpt lat="45.8987020" lon="10.3157670">
	<ele>1365.00</ele>
	<time>2025-07-29T11:23:27.000Z</time>
</trkpt>
<trkpt lat="45.8986970" lon="10.3157650">
	<ele>1365.00</ele>
	<time>2025-07-29T11:23:28.000Z</time>
</trkpt>
<trkpt lat="45.8987020" lon="10.3157670">
	<ele>1365.00</ele>
	<time>2025-07-29T11:23:29.000Z</time>
</trkpt>
<trkpt lat="45.8986980" lon="10.3157700">
	<ele>1365.00</ele>
	<time>2025-07-29T11:23:30.000Z</time>
</trkpt>
<trkpt lat="45.8987000" lon="10.3157800">
	<ele>1365.00</ele>
	<time>2025-07-29T11:23:31.000Z</time>
</trkpt>
<trkpt lat="45.8987010" lon="10.3157790">
	<ele>1365.00</ele>
	<time>2025-07-29T11:23:32.000Z</time>
</trkpt>
<trkpt lat="45.8987020" lon="10.3157800">
	<ele>1365.00</ele>
	<time>2025-07-29T11:23:33.000Z</time>
</trkpt>
<trkpt lat="45.8987030" lon="10.3157760">
	<ele>1365.00</ele>
	<time>2025-07-29T11:23:34.000Z</time>
</trkpt>
<trkpt lat="45.8987040" lon="10.3157730">
	<ele>1365.00</ele>
	<time>2025-07-29T11:23:35.000Z</time>
</trkpt>
<trkpt lat="45.8987020" lon="10.3157740">
	<ele>1365.00</ele>
	<time>2025-07-29T11:23:36.000Z</time>
</trkpt>
<trkpt lat="45.8987080" lon="10.3157820">
	<ele>1365.00</ele>
	<time>2025-07-29T11:23:37.000Z</time>
</trkpt>
<trkpt lat="45.8987060" lon="10.3157850">
	<ele>1365.00</ele>
	<time>2025-07-29T11:23:38.000Z</time>
</trkpt>
<trkpt lat="45.8987120" lon="10.3157870">
	<ele>1365.00</ele>
	<time>2025-07-29T11:23:39.000Z</time>
</trkpt>
<trkpt lat="45.8987150" lon="10.3157880">
	<ele>1365.00</ele>
	<time>2025-07-29T11:23:40.000Z</time>
</trkpt>
<trkpt lat="45.8987150" lon="10.3157880">
	<ele>1365.00</ele>
	<time>2025-07-29T11:23:41.000Z</time>
</trkpt>
<trkpt lat="45.8987170" lon="10.3157860">
	<ele>1365.00</ele>
	<time>2025-07-29T11:23:42.000Z</time>
</trkpt>
<trkpt lat="45.8987190" lon="10.3157830">
	<ele>1365.00</ele>
	<time>2025-07-29T11:23:43.000Z</time>
</trkpt>
<trkpt lat="45.8987190" lon="10.3157820">
	<ele>1365.00</ele>
	<time>2025-07-29T11:23:44.000Z</time>
</trkpt>
<trkpt lat="45.8987230" lon="10.3157800">
	<ele>1365.00</ele>
	<time>2025-07-29T11:23:45.000Z</time>
</trkpt>
<trkpt lat="45.8987250" lon="10.3157800">
	<ele>1365.00</ele>
	<time>2025-07-29T11:23:46.000Z</time>
</trkpt>
<trkpt lat="45.8987280" lon="10.3157780">
	<ele>1365.00</ele>
	<time>2025-07-29T11:23:47.000Z</time>
</trkpt>
<trkpt lat="45.8987290" lon="10.3157740">
	<ele>1365.00</ele>
	<time>2025-07-29T11:23:48.000Z</time>
</trkpt>
<trkpt lat="45.8987300" lon="10.3157770">
	<ele>1365.00</ele>
	<time>2025-07-29T11:23:49.000Z</time>
</trkpt>
<trkpt lat="45.8987360" lon="10.3157770">
	<ele>1365.00</ele>
	<time>2025-07-29T11:23:50.000Z</time>
</trkpt>
<trkpt lat="45.8987380" lon="10.3157800">
	<ele>1365.00</ele>
	<time>2025-07-29T11:23:51.000Z</time>
</trkpt>
<trkpt lat="45.8987410" lon="10.3157800">
	<ele>1365.00</ele>
	<time>2025-07-29T11:23:52.000Z</time>
</trkpt>
<trkpt lat="45.8987430" lon="10.3157820">
	<ele>1365.00</ele>
	<time>2025-07-29T11:23:53.000Z</time>
</trkpt>
<trkpt lat="45.8987430" lon="10.3157820">
	<ele>1365.00</ele>
	<time>2025-07-29T11:23:54.000Z</time>
</trkpt>
<trkpt lat="45.8987400" lon="10.3157810">
	<ele>1365.00</ele>
	<time>2025-07-29T11:23:55.000Z</time>
</trkpt>
<trkpt lat="45.8987380" lon="10.3157770">
	<ele>1365.00</ele>
	<time>2025-07-29T11:23:56.000Z</time>
</trkpt>
<trkpt lat="45.8987350" lon="10.3157750">
	<ele>1365.00</ele>
	<time>2025-07-29T11:23:57.000Z</time>
</trkpt>
<trkpt lat="45.8987310" lon="10.3157690">
	<ele>1365.00</ele>
	<time>2025-07-29T11:23:58.000Z</time>
</trkpt>
<trkpt lat="45.8987270" lon="10.3157680">
	<ele>1365.00</ele>
	<time>2025-07-29T11:23:59.000Z</time>
</trkpt>
<trkpt lat="45.8987270" lon="10.3157630">
	<ele>1365.00</ele>
	<time>2025-07-29T11:24:00.000Z</time>
</trkpt>
<trkpt lat="45.8987250" lon="10.3157590">
	<ele>1365.00</ele>
	<time>2025-07-29T11:24:01.000Z</time>
</trkpt>
<trkpt lat="45.8987220" lon="10.3157560">
	<ele>1365.00</ele>
	<time>2025-07-29T11:24:02.000Z</time>
</trkpt>
<trkpt lat="45.8987210" lon="10.3157520">
	<ele>1365.00</ele>
	<time>2025-07-29T11:24:03.000Z</time>
</trkpt>
<trkpt lat="45.8987190" lon="10.3157450">
	<ele>1365.00</ele>
	<time>2025-07-29T11:24:04.000Z</time>
</trkpt>
<trkpt lat="45.8987300" lon="10.3157440">
	<ele>1365.00</ele>
	<time>2025-07-29T11:24:05.000Z</time>
</trkpt>
<trkpt lat="45.8987420" lon="10.3157410">
	<ele>1365.00</ele>
	<time>2025-07-29T11:24:06.000Z</time>
</trkpt>
<trkpt lat="45.8987470" lon="10.3157380">
	<ele>1365.00</ele>
	<time>2025-07-29T11:24:07.000Z</time>
</trkpt>
<trkpt lat="45.8987280" lon="10.3157380">
	<ele>1365.00</ele>
	<time>2025-07-29T11:24:08.000Z</time>
</trkpt>
<trkpt lat="45.8987230" lon="10.3157400">
	<ele>1365.00</ele>
	<time>2025-07-29T11:24:09.000Z</time>
</trkpt>
<trkpt lat="45.8987170" lon="10.3157400">
	<ele>1365.00</ele>
	<time>2025-07-29T11:24:10.000Z</time>
</trkpt>
<trkpt lat="45.8987180" lon="10.3157380">
	<ele>1365.00</ele>
	<time>2025-07-29T11:24:11.000Z</time>
</trkpt>
<trkpt lat="45.8987400" lon="10.3157410">
	<ele>1365.00</ele>
	<time>2025-07-29T11:24:12.000Z</time>
</trkpt>
<trkpt lat="45.8987390" lon="10.3157340">
	<ele>1365.00</ele>
	<time>2025-07-29T11:24:13.000Z</time>
</trkpt>
<trkpt lat="45.8987430" lon="10.3157330">
	<ele>1365.00</ele>
	<time>2025-07-29T11:24:14.000Z</time>
</trkpt>
<trkpt lat="45.8987460" lon="10.3157310">
	<ele>1365.00</ele>
	<time>2025-07-29T11:24:15.000Z</time>
</trkpt>
<trkpt lat="45.8987450" lon="10.3157330">
	<ele>1365.00</ele>
	<time>2025-07-29T11:24:16.000Z</time>
</trkpt>
<trkpt lat="45.8987450" lon="10.3157330">
	<ele>1365.00</ele>
	<time>2025-07-29T11:24:17.000Z</time>
</trkpt>
<trkpt lat="45.8987450" lon="10.3157330">
	<ele>1365.00</ele>
	<time>2025-07-29T11:24:18.000Z</time>
</trkpt>
<trkpt lat="45.8987450" lon="10.3157330">
	<ele>1365.00</ele>
	<time>2025-07-29T11:24:19.000Z</time>
</trkpt>
<trkpt lat="45.8987450" lon="10.3157330">
	<ele>1365.00</ele>
	<time>2025-07-29T11:24:20.000Z</time>
</trkpt>
<trkpt lat="45.8987450" lon="10.3157330">
	<ele>1365.00</ele>
	<time>2025-07-29T11:24:21.000Z</time>
</trkpt>
<trkpt lat="45.8987450" lon="10.3157330">
	<ele>1365.00</ele>
	<time>2025-07-29T11:24:22.000Z</time>
</trkpt>
<trkpt lat="45.8987450" lon="10.3157330">
	<ele>1365.00</ele>
	<time>2025-07-29T11:24:23.000Z</time>
</trkpt>
<trkpt lat="45.8987450" lon="10.3157330">
	<ele>1365.00</ele>
	<time>2025-07-29T11:24:24.000Z</time>
</trkpt>
<trkpt lat="45.8987450" lon="10.3157330">
	<ele>1365.00</ele>
	<time>2025-07-29T11:24:25.000Z</time>
</trkpt>
<trkpt lat="45.8987450" lon="10.3157330">
	<ele>1365.00</ele>
	<time>2025-07-29T11:24:26.000Z</time>
</trkpt>
<trkpt lat="45.8987450" lon="10.3157330">
	<ele>1365.00</ele>
	<time>2025-07-29T11:24:27.000Z</time>
</trkpt>
<trkpt lat="45.8987450" lon="10.3157330">
	<ele>1365.00</ele>
	<time>2025-07-29T11:24:28.000Z</time>
</trkpt>
<trkpt lat="45.8987450" lon="10.3157330">
	<ele>1365.00</ele>
	<time>2025-07-29T11:24:29.000Z</time>
</trkpt>
<trkpt lat="45.8987450" lon="10.3157340">
	<ele>1365.00</ele>
	<time>2025-07-29T11:24:30.000Z</time>
</trkpt>
<trkpt lat="45.8987450" lon="10.3157340">
	<ele>1365.00</ele>
	<time>2025-07-29T11:24:31.000Z</time>
</trkpt>
<trkpt lat="45.8987450" lon="10.3157350">
	<ele>1365.00</ele>
	<time>2025-07-29T11:24:32.000Z</time>
</trkpt>
<trkpt lat="45.8987450" lon="10.3157350">
	<ele>1365.00</ele>
	<time>2025-07-29T11:24:33.000Z</time>
</trkpt>
<trkpt lat="45.8987430" lon="10.3157360">
	<ele>1365.00</ele>
	<time>2025-07-29T11:24:34.000Z</time>
</trkpt>
<trkpt lat="45.8987320" lon="10.3157300">
	<ele>1365.00</ele>
	<time>2025-07-29T11:24:35.000Z</time>
</trkpt>
<trkpt lat="45.8987270" lon="10.3157270">
	<ele>1365.00</ele>
	<time>2025-07-29T11:24:36.000Z</time>
</trkpt>
<trkpt lat="45.8987230" lon="10.3157310">
	<ele>1365.00</ele>
	<time>2025-07-29T11:24:37.000Z</time>
</trkpt>
<trkpt lat="45.8987170" lon="10.3157330">
	<ele>1365.00</ele>
	<time>2025-07-29T11:24:38.000Z</time>
</trkpt>
<trkpt lat="45.8987100" lon="10.3157400">
	<ele>1365.00</ele>
	<time>2025-07-29T11:24:39.000Z</time>
</trkpt>
<trkpt lat="45.8987020" lon="10.3157470">
	<ele>1365.00</ele>
	<time>2025-07-29T11:24:40.000Z</time>
</trkpt>
<trkpt lat="45.8986930" lon="10.3157550">
	<ele>1365.00</ele>
	<time>2025-07-29T11:24:41.000Z</time>
</trkpt>
<trkpt lat="45.8986850" lon="10.3157610">
	<ele>1365.00</ele>
	<time>2025-07-29T11:24:42.000Z</time>
</trkpt>
<trkpt lat="45.8986820" lon="10.3157620">
	<ele>1365.00</ele>
	<time>2025-07-29T11:24:43.000Z</time>
</trkpt>
<trkpt lat="45.8986840" lon="10.3157610">
	<ele>1365.00</ele>
	<time>2025-07-29T11:24:44.000Z</time>
</trkpt>
<trkpt lat="45.8986860" lon="10.3157600">
	<ele>1365.00</ele>
	<time>2025-07-29T11:24:45.000Z</time>
</trkpt>
<trkpt lat="45.8986830" lon="10.3157490">
	<ele>1365.00</ele>
	<time>2025-07-29T11:24:46.000Z</time>
</trkpt>
<trkpt lat="45.8986750" lon="10.3157500">
	<ele>1365.00</ele>
	<time>2025-07-29T11:24:47.000Z</time>
</trkpt>
<trkpt lat="45.8986670" lon="10.3157530">
	<ele>1365.00</ele>
	<time>2025-07-29T11:24:48.000Z</time>
</trkpt>
<trkpt lat="45.8986620" lon="10.3157560">
	<ele>1365.00</ele>
	<time>2025-07-29T11:24:49.000Z</time>
</trkpt>
<trkpt lat="45.8986600" lon="10.3157600">
	<ele>1365.00</ele>
	<time>2025-07-29T11:24:50.000Z</time>
</trkpt>
<trkpt lat="45.8986580" lon="10.3157570">
	<ele>1365.00</ele>
	<time>2025-07-29T11:24:51.000Z</time>
</trkpt>
<trkpt lat="45.8986570" lon="10.3157580">
	<ele>1365.00</ele>
	<time>2025-07-29T11:24:52.000Z</time>
</trkpt>
<trkpt lat="45.8986600" lon="10.3157550">
	<ele>1365.00</ele>
	<time>2025-07-29T11:24:53.000Z</time>
</trkpt>
<trkpt lat="45.8986610" lon="10.3157550">
	<ele>1365.00</ele>
	<time>2025-07-29T11:24:54.000Z</time>
</trkpt>
<trkpt lat="45.8986640" lon="10.3157560">
	<ele>1365.00</ele>
	<time>2025-07-29T11:24:55.000Z</time>
</trkpt>
<trkpt lat="45.8986720" lon="10.3157590">
	<ele>1365.00</ele>
	<time>2025-07-29T11:24:56.000Z</time>
</trkpt>
<trkpt lat="45.8986730" lon="10.3157600">
	<ele>1365.00</ele>
	<time>2025-07-29T11:24:57.000Z</time>
</trkpt>
<trkpt lat="45.8986740" lon="10.3157620">
	<ele>1365.00</ele>
	<time>2025-07-29T11:24:58.000Z</time>
</trkpt>
<trkpt lat="45.8986720" lon="10.3157650">
	<ele>1365.00</ele>
	<time>2025-07-29T11:24:59.000Z</time>
</trkpt>
<trkpt lat="45.8986710" lon="10.3157700">
	<ele>1365.00</ele>
	<time>2025-07-29T11:25:00.000Z</time>
</trkpt>
<trkpt lat="45.8986680" lon="10.3157730">
	<ele>1365.00</ele>
	<time>2025-07-29T11:25:01.000Z</time>
</trkpt>
<trkpt lat="45.8986650" lon="10.3157770">
	<ele>1365.00</ele>
	<time>2025-07-29T11:25:02.000Z</time>
</trkpt>
<trkpt lat="45.8986680" lon="10.3157790">
	<ele>1365.00</ele>
	<time>2025-07-29T11:25:03.000Z</time>
</trkpt>
<trkpt lat="45.8986710" lon="10.3157920">
	<ele>1365.00</ele>
	<time>2025-07-29T11:25:04.000Z</time>
</trkpt>
<trkpt lat="45.8986740" lon="10.3158000">
	<ele>1365.00</ele>
	<time>2025-07-29T11:25:05.000Z</time>
</trkpt>
<trkpt lat="45.8986790" lon="10.3158040">
	<ele>1365.00</ele>
	<time>2025-07-29T11:25:06.000Z</time>
</trkpt>
<trkpt lat="45.8986770" lon="10.3158080">
	<ele>1365.00</ele>
	<time>2025-07-29T11:25:07.000Z</time>
</trkpt>
<trkpt lat="45.8986790" lon="10.3158200">
	<ele>1365.00</ele>
	<time>2025-07-29T11:25:08.000Z</time>
</trkpt>
<trkpt lat="45.8986810" lon="10.3158320">
	<ele>1365.00</ele>
	<time>2025-07-29T11:25:09.000Z</time>
</trkpt>
<trkpt lat="45.8986820" lon="10.3158360">
	<ele>1365.00</ele>
	<time>2025-07-29T11:25:10.000Z</time>
</trkpt>
<trkpt lat="45.8986810" lon="10.3158370">
	<ele>1365.00</ele>
	<time>2025-07-29T11:25:11.000Z</time>
</trkpt>
<trkpt lat="45.8986790" lon="10.3158380">
	<ele>1365.00</ele>
	<time>2025-07-29T11:25:12.000Z</time>
</trkpt>
<trkpt lat="45.8986790" lon="10.3158380">
	<ele>1365.00</ele>
	<time>2025-07-29T11:25:13.000Z</time>
</trkpt>
<trkpt lat="45.8986790" lon="10.3158330">
	<ele>1365.00</ele>
	<time>2025-07-29T11:25:14.000Z</time>
</trkpt>
<trkpt lat="45.8986830" lon="10.3158330">
	<ele>1365.00</ele>
	<time>2025-07-29T11:25:15.000Z</time>
</trkpt>
<trkpt lat="45.8986820" lon="10.3158330">
	<ele>1365.00</ele>
	<time>2025-07-29T11:25:16.000Z</time>
</trkpt>
<trkpt lat="45.8986810" lon="10.3158310">
	<ele>1365.00</ele>
	<time>2025-07-29T11:25:17.000Z</time>
</trkpt>
<trkpt lat="45.8986760" lon="10.3158270">
	<ele>1365.00</ele>
	<time>2025-07-29T11:25:18.000Z</time>
</trkpt>
<trkpt lat="45.8986740" lon="10.3158200">
	<ele>1365.00</ele>
	<time>2025-07-29T11:25:19.000Z</time>
</trkpt>
<trkpt lat="45.8986750" lon="10.3158160">
	<ele>1365.00</ele>
	<time>2025-07-29T11:25:20.000Z</time>
</trkpt>
<trkpt lat="45.8986730" lon="10.3158140">
	<ele>1365.00</ele>
	<time>2025-07-29T11:25:21.000Z</time>
</trkpt>
<trkpt lat="45.8986750" lon="10.3158140">
	<ele>1365.00</ele>
	<time>2025-07-29T11:25:22.000Z</time>
</trkpt>
<trkpt lat="45.8986790" lon="10.3158190">
	<ele>1365.00</ele>
	<time>2025-07-29T11:25:23.000Z</time>
</trkpt>
<trkpt lat="45.8986840" lon="10.3158200">
	<ele>1365.00</ele>
	<time>2025-07-29T11:25:24.000Z</time>
</trkpt>
<trkpt lat="45.8986820" lon="10.3158210">
	<ele>1365.00</ele>
	<time>2025-07-29T11:25:25.000Z</time>
</trkpt>
<trkpt lat="45.8986850" lon="10.3158240">
	<ele>1365.00</ele>
	<time>2025-07-29T11:25:26.000Z</time>
</trkpt>
<trkpt lat="45.8986850" lon="10.3158220">
	<ele>1365.00</ele>
	<time>2025-07-29T11:25:27.000Z</time>
</trkpt>
<trkpt lat="45.8986820" lon="10.3158230">
	<ele>1365.00</ele>
	<time>2025-07-29T11:25:28.000Z</time>
</trkpt>
<trkpt lat="45.8986800" lon="10.3158220">
	<ele>1365.00</ele>
	<time>2025-07-29T11:25:29.000Z</time>
</trkpt>
<trkpt lat="45.8986770" lon="10.3158230">
	<ele>1365.00</ele>
	<time>2025-07-29T11:25:30.000Z</time>
</trkpt>
<trkpt lat="45.8986730" lon="10.3158220">
	<ele>1365.00</ele>
	<time>2025-07-29T11:25:31.000Z</time>
</trkpt>
<trkpt lat="45.8986700" lon="10.3158210">
	<ele>1365.00</ele>
	<time>2025-07-29T11:25:32.000Z</time>
</trkpt>
<trkpt lat="45.8986700" lon="10.3158200">
	<ele>1365.00</ele>
	<time>2025-07-29T11:25:33.000Z</time>
</trkpt>
<trkpt lat="45.8986700" lon="10.3158200">
	<ele>1365.00</ele>
	<time>2025-07-29T11:25:34.000Z</time>
</trkpt>
<trkpt lat="45.8986700" lon="10.3158200">
	<ele>1365.00</ele>
	<time>2025-07-29T11:25:35.000Z</time>
</trkpt>
<trkpt lat="45.8986700" lon="10.3158200">
	<ele>1365.00</ele>
	<time>2025-07-29T11:25:36.000Z</time>
</trkpt>
<trkpt lat="45.8986700" lon="10.3158200">
	<ele>1365.00</ele>
	<time>2025-07-29T11:25:37.000Z</time>
</trkpt>
<trkpt lat="45.8986700" lon="10.3158200">
	<ele>1365.00</ele>
	<time>2025-07-29T11:25:38.000Z</time>
</trkpt>
<trkpt lat="45.8986700" lon="10.3158200">
	<ele>1365.00</ele>
	<time>2025-07-29T11:25:39.000Z</time>
</trkpt>
<trkpt lat="45.8986700" lon="10.3158200">
	<ele>1365.00</ele>
	<time>2025-07-29T11:25:40.000Z</time>
</trkpt>
<trkpt lat="45.8986700" lon="10.3158200">
	<ele>1365.00</ele>
	<time>2025-07-29T11:25:41.000Z</time>
</trkpt>
<trkpt lat="45.8986700" lon="10.3158200">
	<ele>1365.00</ele>
	<time>2025-07-29T11:25:42.000Z</time>
</trkpt>
<trkpt lat="45.8986700" lon="10.3158200">
	<ele>1365.00</ele>
	<time>2025-07-29T11:25:43.000Z</time>
</trkpt>
<trkpt lat="45.8986700" lon="10.3158200">
	<ele>1365.00</ele>
	<time>2025-07-29T11:25:44.000Z</time>
</trkpt>
<trkpt lat="45.8986700" lon="10.3158200">
	<ele>1365.00</ele>
	<time>2025-07-29T11:25:45.000Z</time>
</trkpt>
<trkpt lat="45.8986700" lon="10.3158200">
	<ele>1365.00</ele>
	<time>2025-07-29T11:25:46.000Z</time>
</trkpt>
<trkpt lat="45.8986700" lon="10.3158200">
	<ele>1365.00</ele>
	<time>2025-07-29T11:25:47.000Z</time>
</trkpt>
<trkpt lat="45.8986700" lon="10.3158200">
	<ele>1365.00</ele>
	<time>2025-07-29T11:25:48.000Z</time>
</trkpt>
<trkpt lat="45.8986720" lon="10.3158200">
	<ele>1365.00</ele>
	<time>2025-07-29T11:25:49.000Z</time>
</trkpt>
<trkpt lat="45.8986730" lon="10.3158200">
	<ele>1365.00</ele>
	<time>2025-07-29T11:25:50.000Z</time>
</trkpt>
<trkpt lat="45.8986740" lon="10.3158200">
	<ele>1365.00</ele>
	<time>2025-07-29T11:25:51.000Z</time>
</trkpt>
<trkpt lat="45.8986740" lon="10.3158190">
	<ele>1365.00</ele>
	<time>2025-07-29T11:25:52.000Z</time>
</trkpt>
<trkpt lat="45.8986740" lon="10.3158150">
	<ele>1365.00</ele>
	<time>2025-07-29T11:25:53.000Z</time>
</trkpt>
<trkpt lat="45.8986740" lon="10.3158140">
	<ele>1365.00</ele>
	<time>2025-07-29T11:25:54.000Z</time>
</trkpt>
<trkpt lat="45.8986740" lon="10.3158130">
	<ele>1365.00</ele>
	<time>2025-07-29T11:25:55.000Z</time>
</trkpt>
<trkpt lat="45.8986740" lon="10.3158070">
	<ele>1365.00</ele>
	<time>2025-07-29T11:25:56.000Z</time>
</trkpt>
<trkpt lat="45.8986740" lon="10.3158060">
	<ele>1365.00</ele>
	<time>2025-07-29T11:25:57.000Z</time>
</trkpt>
<trkpt lat="45.8986740" lon="10.3158060">
	<ele>1365.00</ele>
	<time>2025-07-29T11:25:58.000Z</time>
</trkpt>
<trkpt lat="45.8986740" lon="10.3158050">
	<ele>1365.00</ele>
	<time>2025-07-29T11:25:59.000Z</time>
</trkpt>
<trkpt lat="45.8986730" lon="10.3158040">
	<ele>1365.00</ele>
	<time>2025-07-29T11:26:00.000Z</time>
</trkpt>
<trkpt lat="45.8986730" lon="10.3158040">
	<ele>1365.00</ele>
	<time>2025-07-29T11:26:01.000Z</time>
</trkpt>
<trkpt lat="45.8986730" lon="10.3158030">
	<ele>1365.00</ele>
	<time>2025-07-29T11:26:02.000Z</time>
</trkpt>
<trkpt lat="45.8986730" lon="10.3158030">
	<ele>1365.00</ele>
	<time>2025-07-29T11:26:03.000Z</time>
</trkpt>
<trkpt lat="45.8986730" lon="10.3158010">
	<ele>1365.00</ele>
	<time>2025-07-29T11:26:04.000Z</time>
</trkpt>
<trkpt lat="45.8986730" lon="10.3158010">
	<ele>1365.00</ele>
	<time>2025-07-29T11:26:05.000Z</time>
</trkpt>
<trkpt lat="45.8986730" lon="10.3158010">
	<ele>1365.00</ele>
	<time>2025-07-29T11:26:06.000Z</time>
</trkpt>
<trkpt lat="45.8986730" lon="10.3158010">
	<ele>1365.00</ele>
	<time>2025-07-29T11:26:07.000Z</time>
</trkpt>
<trkpt lat="45.8986730" lon="10.3158000">
	<ele>1365.00</ele>
	<time>2025-07-29T11:26:08.000Z</time>
</trkpt>
<trkpt lat="45.8986730" lon="10.3158000">
	<ele>1365.00</ele>
	<time>2025-07-29T11:26:09.000Z</time>
</trkpt>
<trkpt lat="45.8986730" lon="10.3158000">
	<ele>1365.00</ele>
	<time>2025-07-29T11:26:10.000Z</time>
</trkpt>
<trkpt lat="45.8986730" lon="10.3158000">
	<ele>1365.00</ele>
	<time>2025-07-29T11:26:11.000Z</time>
</trkpt>
<trkpt lat="45.8986720" lon="10.3157990">
	<ele>1365.00</ele>
	<time>2025-07-29T11:26:12.000Z</time>
</trkpt>
<trkpt lat="45.8986720" lon="10.3157980">
	<ele>1365.00</ele>
	<time>2025-07-29T11:26:13.000Z</time>
</trkpt>
<trkpt lat="45.8986690" lon="10.3157950">
	<ele>1365.00</ele>
	<time>2025-07-29T11:26:14.000Z</time>
</trkpt>
<trkpt lat="45.8986660" lon="10.3157940">
	<ele>1365.00</ele>
	<time>2025-07-29T11:26:15.000Z</time>
</trkpt>
<trkpt lat="45.8986650" lon="10.3157920">
	<ele>1365.00</ele>
	<time>2025-07-29T11:26:16.000Z</time>
</trkpt>
<trkpt lat="45.8986640" lon="10.3157910">
	<ele>1365.00</ele>
	<time>2025-07-29T11:26:17.000Z</time>
</trkpt>
<trkpt lat="45.8986640" lon="10.3157910">
	<ele>1365.00</ele>
	<time>2025-07-29T11:26:18.000Z</time>
</trkpt>
<trkpt lat="45.8986630" lon="10.3157910">
	<ele>1365.00</ele>
	<time>2025-07-29T11:26:19.000Z</time>
</trkpt>
<trkpt lat="45.8986620" lon="10.3157900">
	<ele>1365.00</ele>
	<time>2025-07-29T11:26:20.000Z</time>
</trkpt>
<trkpt lat="45.8986620" lon="10.3157900">
	<ele>1365.00</ele>
	<time>2025-07-29T11:26:21.000Z</time>
</trkpt>
<trkpt lat="45.8986620" lon="10.3157900">
	<ele>1365.00</ele>
	<time>2025-07-29T11:26:22.000Z</time>
</trkpt>
<trkpt lat="45.8986620" lon="10.3157900">
	<ele>1365.00</ele>
	<time>2025-07-29T11:26:23.000Z</time>
</trkpt>
<trkpt lat="45.8986620" lon="10.3157900">
	<ele>1365.00</ele>
	<time>2025-07-29T11:26:24.000Z</time>
</trkpt>
<trkpt lat="45.8986610" lon="10.3157900">
	<ele>1365.00</ele>
	<time>2025-07-29T11:26:25.000Z</time>
</trkpt>
<trkpt lat="45.8986600" lon="10.3157900">
	<ele>1365.00</ele>
	<time>2025-07-29T11:26:26.000Z</time>
</trkpt>
<trkpt lat="45.8986600" lon="10.3157860">
	<ele>1365.00</ele>
	<time>2025-07-29T11:26:27.000Z</time>
</trkpt>
<trkpt lat="45.8986590" lon="10.3157830">
	<ele>1365.00</ele>
	<time>2025-07-29T11:26:28.000Z</time>
</trkpt>
<trkpt lat="45.8986560" lon="10.3157820">
	<ele>1365.00</ele>
	<time>2025-07-29T11:26:29.000Z</time>
</trkpt>
<trkpt lat="45.8986540" lon="10.3157820">
	<ele>1365.00</ele>
	<time>2025-07-29T11:26:30.000Z</time>
</trkpt>
<trkpt lat="45.8986510" lon="10.3157810">
	<ele>1365.00</ele>
	<time>2025-07-29T11:26:31.000Z</time>
</trkpt>
<trkpt lat="45.8986490" lon="10.3157810">
	<ele>1365.00</ele>
	<time>2025-07-29T11:26:32.000Z</time>
</trkpt>
<trkpt lat="45.8986480" lon="10.3157800">
	<ele>1365.00</ele>
	<time>2025-07-29T11:26:33.000Z</time>
</trkpt>
<trkpt lat="45.8986470" lon="10.3157800">
	<ele>1365.00</ele>
	<time>2025-07-29T11:26:34.000Z</time>
</trkpt>
<trkpt lat="45.8986470" lon="10.3157790">
	<ele>1365.00</ele>
	<time>2025-07-29T11:26:35.000Z</time>
</trkpt>
<trkpt lat="45.8986460" lon="10.3157780">
	<ele>1365.00</ele>
	<time>2025-07-29T11:26:36.000Z</time>
</trkpt>
<trkpt lat="45.8986460" lon="10.3157780">
	<ele>1365.00</ele>
	<time>2025-07-29T11:26:37.000Z</time>
</trkpt>
<trkpt lat="45.8986460" lon="10.3157770">
	<ele>1365.00</ele>
	<time>2025-07-29T11:26:38.000Z</time>
</trkpt>
<trkpt lat="45.8986450" lon="10.3157770">
	<ele>1365.00</ele>
	<time>2025-07-29T11:26:39.000Z</time>
</trkpt>
<trkpt lat="45.8986440" lon="10.3157770">
	<ele>1365.00</ele>
	<time>2025-07-29T11:26:40.000Z</time>
</trkpt>
<trkpt lat="45.8986440" lon="10.3157760">
	<ele>1365.00</ele>
	<time>2025-07-29T11:26:41.000Z</time>
</trkpt>
<trkpt lat="45.8986430" lon="10.3157750">
	<ele>1365.00</ele>
	<time>2025-07-29T11:26:42.000Z</time>
</trkpt>
<trkpt lat="45.8986430" lon="10.3157750">
	<ele>1365.00</ele>
	<time>2025-07-29T11:26:43.000Z</time>
</trkpt>
<trkpt lat="45.8986420" lon="10.3157740">
	<ele>1365.00</ele>
	<time>2025-07-29T11:26:44.000Z</time>
</trkpt>
<trkpt lat="45.8986400" lon="10.3157740">
	<ele>1365.00</ele>
	<time>2025-07-29T11:26:45.000Z</time>
</trkpt>
<trkpt lat="45.8986380" lon="10.3157740">
	<ele>1365.00</ele>
	<time>2025-07-29T11:26:46.000Z</time>
</trkpt>
<trkpt lat="45.8986350" lon="10.3157730">
	<ele>1365.00</ele>
	<time>2025-07-29T11:26:47.000Z</time>
</trkpt>
<trkpt lat="45.8986320" lon="10.3157730">
	<ele>1365.00</ele>
	<time>2025-07-29T11:26:48.000Z</time>
</trkpt>
<trkpt lat="45.8986280" lon="10.3157720">
	<ele>1365.00</ele>
	<time>2025-07-29T11:26:49.000Z</time>
</trkpt>
<trkpt lat="45.8986270" lon="10.3157720">
	<ele>1365.00</ele>
	<time>2025-07-29T11:26:50.000Z</time>
</trkpt>
<trkpt lat="45.8986250" lon="10.3157720">
	<ele>1365.00</ele>
	<time>2025-07-29T11:26:51.000Z</time>
</trkpt>
<trkpt lat="45.8986200" lon="10.3157720">
	<ele>1365.00</ele>
	<time>2025-07-29T11:26:52.000Z</time>
</trkpt>
<trkpt lat="45.8986180" lon="10.3157710">
	<ele>1365.00</ele>
	<time>2025-07-29T11:26:53.000Z</time>
</trkpt>
<trkpt lat="45.8986170" lon="10.3157710">
	<ele>1365.00</ele>
	<time>2025-07-29T11:26:54.000Z</time>
</trkpt>
<trkpt lat="45.8986170" lon="10.3157700">
	<ele>1365.00</ele>
	<time>2025-07-29T11:26:55.000Z</time>
</trkpt>
<trkpt lat="45.8986170" lon="10.3157700">
	<ele>1365.00</ele>
	<time>2025-07-29T11:26:56.000Z</time>
</trkpt>
<trkpt lat="45.8986170" lon="10.3157700">
	<ele>1365.00</ele>
	<time>2025-07-29T11:26:57.000Z</time>
</trkpt>
<trkpt lat="45.8986150" lon="10.3157690">
	<ele>1365.00</ele>
	<time>2025-07-29T11:26:58.000Z</time>
</trkpt>
<trkpt lat="45.8986140" lon="10.3157680">
	<ele>1365.00</ele>
	<time>2025-07-29T11:26:59.000Z</time>
</trkpt>
<trkpt lat="45.8986130" lon="10.3157680">
	<ele>1365.00</ele>
	<time>2025-07-29T11:27:00.000Z</time>
</trkpt>
<trkpt lat="45.8986130" lon="10.3157670">
	<ele>1365.00</ele>
	<time>2025-07-29T11:27:01.000Z</time>
</trkpt>
<trkpt lat="45.8986120" lon="10.3157660">
	<ele>1365.00</ele>
	<time>2025-07-29T11:27:02.000Z</time>
</trkpt>
<trkpt lat="45.8986120" lon="10.3157660">
	<ele>1365.00</ele>
	<time>2025-07-29T11:27:03.000Z</time>
</trkpt>
<trkpt lat="45.8986120" lon="10.3157660">
	<ele>1365.00</ele>
	<time>2025-07-29T11:27:04.000Z</time>
</trkpt>
<trkpt lat="45.8986120" lon="10.3157660">
	<ele>1365.00</ele>
	<time>2025-07-29T11:27:05.000Z</time>
</trkpt>
<trkpt lat="45.8986130" lon="10.3157650">
	<ele>1365.00</ele>
	<time>2025-07-29T11:27:06.000Z</time>
</trkpt>
<trkpt lat="45.8986130" lon="10.3157640">
	<ele>1365.00</ele>
	<time>2025-07-29T11:27:07.000Z</time>
</trkpt>
<trkpt lat="45.8986140" lon="10.3157640">
	<ele>1365.00</ele>
	<time>2025-07-29T11:27:08.000Z</time>
</trkpt>
<trkpt lat="45.8986140" lon="10.3157630">
	<ele>1365.00</ele>
	<time>2025-07-29T11:27:09.000Z</time>
</trkpt>
<trkpt lat="45.8986140" lon="10.3157630">
	<ele>1365.00</ele>
	<time>2025-07-29T11:27:10.000Z</time>
</trkpt>
<trkpt lat="45.8986140" lon="10.3157620">
	<ele>1365.00</ele>
	<time>2025-07-29T11:27:11.000Z</time>
</trkpt>
<trkpt lat="45.8986150" lon="10.3157610">
	<ele>1365.00</ele>
	<time>2025-07-29T11:27:12.000Z</time>
</trkpt>
<trkpt lat="45.8986180" lon="10.3157600">
	<ele>1365.00</ele>
	<time>2025-07-29T11:27:13.000Z</time>
</trkpt>
<trkpt lat="45.8986190" lon="10.3157600">
	<ele>1365.00</ele>
	<time>2025-07-29T11:27:14.000Z</time>
</trkpt>
<trkpt lat="45.8986210" lon="10.3157580">
	<ele>1365.00</ele>
	<time>2025-07-29T11:27:15.000Z</time>
</trkpt>
<trkpt lat="45.8986210" lon="10.3157570">
	<ele>1365.00</ele>
	<time>2025-07-29T11:27:16.000Z</time>
</trkpt>
<trkpt lat="45.8986210" lon="10.3157540">
	<ele>1365.00</ele>
	<time>2025-07-29T11:27:17.000Z</time>
</trkpt>
<trkpt lat="45.8986220" lon="10.3157530">
	<ele>1365.00</ele>
	<time>2025-07-29T11:27:18.000Z</time>
</trkpt>
<trkpt lat="45.8986220" lon="10.3157530">
	<ele>1365.00</ele>
	<time>2025-07-29T11:27:19.000Z</time>
</trkpt>
<trkpt lat="45.8986230" lon="10.3157520">
	<ele>1365.00</ele>
	<time>2025-07-29T11:27:20.000Z</time>
</trkpt>
<trkpt lat="45.8986230" lon="10.3157520">
	<ele>1365.00</ele>
	<time>2025-07-29T11:27:21.000Z</time>
</trkpt>
<trkpt lat="45.8986230" lon="10.3157490">
	<ele>1365.00</ele>
	<time>2025-07-29T11:27:22.000Z</time>
</trkpt>
<trkpt lat="45.8986230" lon="10.3157480">
	<ele>1365.00</ele>
	<time>2025-07-29T11:27:23.000Z</time>
</trkpt>
<trkpt lat="45.8986230" lon="10.3157480">
	<ele>1365.00</ele>
	<time>2025-07-29T11:27:24.000Z</time>
</trkpt>
<trkpt lat="45.8986230" lon="10.3157470">
	<ele>1365.00</ele>
	<time>2025-07-29T11:27:25.000Z</time>
</trkpt>
<trkpt lat="45.8986230" lon="10.3157470">
	<ele>1365.00</ele>
	<time>2025-07-29T11:27:26.000Z</time>
</trkpt>
<trkpt lat="45.8986230" lon="10.3157470">
	<ele>1365.00</ele>
	<time>2025-07-29T11:27:27.000Z</time>
</trkpt>
<trkpt lat="45.8986220" lon="10.3157470">
	<ele>1365.00</ele>
	<time>2025-07-29T11:27:28.000Z</time>
</trkpt>
<trkpt lat="45.8986220" lon="10.3157470">
	<ele>1365.00</ele>
	<time>2025-07-29T11:27:29.000Z</time>
</trkpt>
<trkpt lat="45.8986220" lon="10.3157470">
	<ele>1365.00</ele>
	<time>2025-07-29T11:27:30.000Z</time>
</trkpt>
<trkpt lat="45.8986220" lon="10.3157460">
	<ele>1365.00</ele>
	<time>2025-07-29T11:27:31.000Z</time>
</trkpt>
<trkpt lat="45.8986220" lon="10.3157450">
	<ele>1365.00</ele>
	<time>2025-07-29T11:27:32.000Z</time>
</trkpt>
<trkpt lat="45.8986220" lon="10.3157430">
	<ele>1365.00</ele>
	<time>2025-07-29T11:27:33.000Z</time>
</trkpt>
<trkpt lat="45.8986220" lon="10.3157420">
	<ele>1365.00</ele>
	<time>2025-07-29T11:27:34.000Z</time>
</trkpt>
<trkpt lat="45.8986220" lon="10.3157410">
	<ele>1365.00</ele>
	<time>2025-07-29T11:27:35.000Z</time>
</trkpt>
<trkpt lat="45.8986220" lon="10.3157410">
	<ele>1365.00</ele>
	<time>2025-07-29T11:27:36.000Z</time>
</trkpt>
<trkpt lat="45.8986210" lon="10.3157400">
	<ele>1365.00</ele>
	<time>2025-07-29T11:27:37.000Z</time>
</trkpt>
<trkpt lat="45.8986200" lon="10.3157400">
	<ele>1365.00</ele>
	<time>2025-07-29T11:27:38.000Z</time>
</trkpt>
<trkpt lat="45.8986180" lon="10.3157400">
	<ele>1365.00</ele>
	<time>2025-07-29T11:27:39.000Z</time>
</trkpt>
<trkpt lat="45.8986160" lon="10.3157400">
	<ele>1365.00</ele>
	<time>2025-07-29T11:27:40.000Z</time>
</trkpt>
<trkpt lat="45.8986140" lon="10.3157410">
	<ele>1365.00</ele>
	<time>2025-07-29T11:27:41.000Z</time>
</trkpt>
<trkpt lat="45.8986130" lon="10.3157410">
	<ele>1365.00</ele>
	<time>2025-07-29T11:27:42.000Z</time>
</trkpt>
<trkpt lat="45.8986120" lon="10.3157420">
	<ele>1365.00</ele>
	<time>2025-07-29T11:27:43.000Z</time>
</trkpt>
<trkpt lat="45.8986110" lon="10.3157420">
	<ele>1365.00</ele>
	<time>2025-07-29T11:27:44.000Z</time>
</trkpt>
<trkpt lat="45.8986100" lon="10.3157420">
	<ele>1365.00</ele>
	<time>2025-07-29T11:27:45.000Z</time>
</trkpt>
<trkpt lat="45.8986100" lon="10.3157420">
	<ele>1365.00</ele>
	<time>2025-07-29T11:27:46.000Z</time>
</trkpt>
<trkpt lat="45.8986090" lon="10.3157420">
	<ele>1365.00</ele>
	<time>2025-07-29T11:27:47.000Z</time>
</trkpt>
<trkpt lat="45.8986080" lon="10.3157420">
	<ele>1365.00</ele>
	<time>2025-07-29T11:27:48.000Z</time>
</trkpt>
<trkpt lat="45.8986070" lon="10.3157420">
	<ele>1365.00</ele>
	<time>2025-07-29T11:27:49.000Z</time>
</trkpt>
<trkpt lat="45.8986050" lon="10.3157430">
	<ele>1365.00</ele>
	<time>2025-07-29T11:27:50.000Z</time>
</trkpt>
<trkpt lat="45.8986030" lon="10.3157440">
	<ele>1365.00</ele>
	<time>2025-07-29T11:27:51.000Z</time>
</trkpt>
<trkpt lat="45.8986000" lon="10.3157440">
	<ele>1365.00</ele>
	<time>2025-07-29T11:27:52.000Z</time>
</trkpt>
<trkpt lat="45.8985840" lon="10.3157450">
	<ele>1365.00</ele>
	<time>2025-07-29T11:27:53.000Z</time>
</trkpt>
<trkpt lat="45.8985800" lon="10.3157440">
	<ele>1365.00</ele>
	<time>2025-07-29T11:27:54.000Z</time>
</trkpt>
<trkpt lat="45.8985770" lon="10.3157350">
	<ele>1365.00</ele>
	<time>2025-07-29T11:27:55.000Z</time>
</trkpt>
<trkpt lat="45.8985740" lon="10.3157280">
	<ele>1365.00</ele>
	<time>2025-07-29T11:27:56.000Z</time>
</trkpt>
<trkpt lat="45.8985750" lon="10.3157230">
	<ele>1365.00</ele>
	<time>2025-07-29T11:27:57.000Z</time>
</trkpt>
<trkpt lat="45.8985710" lon="10.3157210">
	<ele>1365.00</ele>
	<time>2025-07-29T11:27:58.000Z</time>
</trkpt>
<trkpt lat="45.8985650" lon="10.3157180">
	<ele>1365.00</ele>
	<time>2025-07-29T11:27:59.000Z</time>
</trkpt>
<trkpt lat="45.8985560" lon="10.3157160">
	<ele>1365.00</ele>
	<time>2025-07-29T11:28:00.000Z</time>
</trkpt>
<trkpt lat="45.8985510" lon="10.3157130">
	<ele>1365.00</ele>
	<time>2025-07-29T11:28:01.000Z</time>
</trkpt>
<trkpt lat="45.8985500" lon="10.3157100">
	<ele>1365.00</ele>
	<time>2025-07-29T11:28:02.000Z</time>
</trkpt>
<trkpt lat="45.8985490" lon="10.3157060">
	<ele>1365.00</ele>
	<time>2025-07-29T11:28:03.000Z</time>
</trkpt>
<trkpt lat="45.8985470" lon="10.3157030">
	<ele>1365.00</ele>
	<time>2025-07-29T11:28:04.000Z</time>
</trkpt>
<trkpt lat="45.8985510" lon="10.3157100">
	<ele>1365.00</ele>
	<time>2025-07-29T11:28:05.000Z</time>
</trkpt>
<trkpt lat="45.8985580" lon="10.3157260">
	<ele>1365.00</ele>
	<time>2025-07-29T11:28:06.000Z</time>
</trkpt>
<trkpt lat="45.8985690" lon="10.3157430">
	<ele>1365.00</ele>
	<time>2025-07-29T11:28:07.000Z</time>
</trkpt>
<trkpt lat="45.8985800" lon="10.3157600">
	<ele>1365.00</ele>
	<time>2025-07-29T11:28:08.000Z</time>
</trkpt>
<trkpt lat="45.8985900" lon="10.3157710">
	<ele>1365.00</ele>
	<time>2025-07-29T11:28:09.000Z</time>
</trkpt>
<trkpt lat="45.8986010" lon="10.3157820">
	<ele>1365.00</ele>
	<time>2025-07-29T11:28:10.000Z</time>
</trkpt>
<trkpt lat="45.8986070" lon="10.3157890">
	<ele>1365.00</ele>
	<time>2025-07-29T11:28:11.000Z</time>
</trkpt>
<trkpt lat="45.8986110" lon="10.3157920">
	<ele>1365.00</ele>
	<time>2025-07-29T11:28:12.000Z</time>
</trkpt>
<trkpt lat="45.8986140" lon="10.3157950">
	<ele>1365.00</ele>
	<time>2025-07-29T11:28:13.000Z</time>
</trkpt>
<trkpt lat="45.8986190" lon="10.3157990">
	<ele>1365.00</ele>
	<time>2025-07-29T11:28:14.000Z</time>
</trkpt>
<trkpt lat="45.8986220" lon="10.3158020">
	<ele>1365.00</ele>
	<time>2025-07-29T11:28:15.000Z</time>
</trkpt>
<trkpt lat="45.8986100" lon="10.3157980">
	<ele>1365.00</ele>
	<time>2025-07-29T11:28:16.000Z</time>
</trkpt>
<trkpt lat="45.8985950" lon="10.3157930">
	<ele>1365.00</ele>
	<time>2025-07-29T11:28:17.000Z</time>
</trkpt>
<trkpt lat="45.8985890" lon="10.3157960">
	<ele>1365.00</ele>
	<time>2025-07-29T11:28:18.000Z</time>
</trkpt>
<trkpt lat="45.8985800" lon="10.3157950">
	<ele>1365.00</ele>
	<time>2025-07-29T11:28:19.000Z</time>
</trkpt>
<trkpt lat="45.8985740" lon="10.3157970">
	<ele>1365.00</ele>
	<time>2025-07-29T11:28:20.000Z</time>
</trkpt>
<trkpt lat="45.8985810" lon="10.3157940">
	<ele>1365.00</ele>
	<time>2025-07-29T11:28:21.000Z</time>
</trkpt>
<trkpt lat="45.8985910" lon="10.3157910">
	<ele>1365.00</ele>
	<time>2025-07-29T11:28:22.000Z</time>
</trkpt>
<trkpt lat="45.8985950" lon="10.3157820">
	<ele>1365.00</ele>
	<time>2025-07-29T11:28:23.000Z</time>
</trkpt>
<trkpt lat="45.8986020" lon="10.3157760">
	<ele>1365.00</ele>
	<time>2025-07-29T11:28:24.000Z</time>
</trkpt>
<trkpt lat="45.8986020" lon="10.3157730">
	<ele>1365.00</ele>
	<time>2025-07-29T11:28:25.000Z</time>
</trkpt>
<trkpt lat="45.8986010" lon="10.3157710">
	<ele>1365.00</ele>
	<time>2025-07-29T11:28:26.000Z</time>
</trkpt>
<trkpt lat="45.8985860" lon="10.3157640">
	<ele>1365.00</ele>
	<time>2025-07-29T11:28:27.000Z</time>
</trkpt>
<trkpt lat="45.8985760" lon="10.3157580">
	<ele>1365.00</ele>
	<time>2025-07-29T11:28:28.000Z</time>
</trkpt>
<trkpt lat="45.8985720" lon="10.3157630">
	<ele>1365.00</ele>
	<time>2025-07-29T11:28:29.000Z</time>
</trkpt>
<trkpt lat="45.8985640" lon="10.3157620">
	<ele>1365.00</ele>
	<time>2025-07-29T11:28:30.000Z</time>
</trkpt>
<trkpt lat="45.8985460" lon="10.3157520">
	<ele>1365.00</ele>
	<time>2025-07-29T11:28:31.000Z</time>
</trkpt>
<trkpt lat="45.8985280" lon="10.3157450">
	<ele>1365.00</ele>
	<time>2025-07-29T11:28:32.000Z</time>
</trkpt>
<trkpt lat="45.8985240" lon="10.3157450">
	<ele>1365.00</ele>
	<time>2025-07-29T11:28:33.000Z</time>
</trkpt>
<trkpt lat="45.8985150" lon="10.3157400">
	<ele>1365.00</ele>
	<time>2025-07-29T11:28:34.000Z</time>
</trkpt>
<trkpt lat="45.8985020" lon="10.3157340">
	<ele>1365.00</ele>
	<time>2025-07-29T11:28:35.000Z</time>
</trkpt>
<trkpt lat="45.8984790" lon="10.3157280">
	<ele>1365.00</ele>
	<time>2025-07-29T11:28:36.000Z</time>
</trkpt>
<trkpt lat="45.8984970" lon="10.3157250">
	<ele>1365.00</ele>
	<time>2025-07-29T11:28:37.000Z</time>
</trkpt>
<trkpt lat="45.8985010" lon="10.3157090">
	<ele>1365.00</ele>
	<time>2025-07-29T11:28:38.000Z</time>
</trkpt>
<trkpt lat="45.8985200" lon="10.3157060">
	<ele>1365.00</ele>
	<time>2025-07-29T11:28:39.000Z</time>
</trkpt>
<trkpt lat="45.8985350" lon="10.3157020">
	<ele>1365.00</ele>
	<time>2025-07-29T11:28:40.000Z</time>
</trkpt>
<trkpt lat="45.8985460" lon="10.3157020">
	<ele>1365.00</ele>
	<time>2025-07-29T11:28:41.000Z</time>
</trkpt>
<trkpt lat="45.8985560" lon="10.3157220">
	<ele>1365.00</ele>
	<time>2025-07-29T11:28:42.000Z</time>
</trkpt>
<trkpt lat="45.8985600" lon="10.3157270">
	<ele>1365.00</ele>
	<time>2025-07-29T11:28:43.000Z</time>
</trkpt>
<trkpt lat="45.8985680" lon="10.3157270">
	<ele>1365.00</ele>
	<time>2025-07-29T11:28:44.000Z</time>
</trkpt>
<trkpt lat="45.8985780" lon="10.3157340">
	<ele>1365.00</ele>
	<time>2025-07-29T11:28:45.000Z</time>
</trkpt>
<trkpt lat="45.8985890" lon="10.3157410">
	<ele>1365.00</ele>
	<time>2025-07-29T11:28:46.000Z</time>
</trkpt>
<trkpt lat="45.8986010" lon="10.3157470">
	<ele>1365.00</ele>
	<time>2025-07-29T11:28:47.000Z</time>
</trkpt>
<trkpt lat="45.8986030" lon="10.3157790">
	<ele>1365.00</ele>
	<time>2025-07-29T11:28:48.000Z</time>
</trkpt>
<trkpt lat="45.8986020" lon="10.3157830">
	<ele>1365.00</ele>
	<time>2025-07-29T11:28:49.000Z</time>
</trkpt>
<trkpt lat="45.8986030" lon="10.3157860">
	<ele>1365.00</ele>
	<time>2025-07-29T11:28:50.000Z</time>
</trkpt>
<trkpt lat="45.8986030" lon="10.3157860">
	<ele>1365.00</ele>
	<time>2025-07-29T11:28:51.000Z</time>
</trkpt>
<trkpt lat="45.8986030" lon="10.3157860">
	<ele>1365.00</ele>
	<time>2025-07-29T11:28:52.000Z</time>
</trkpt>
<trkpt lat="45.8986030" lon="10.3157830">
	<ele>1365.00</ele>
	<time>2025-07-29T11:28:53.000Z</time>
</trkpt>
<trkpt lat="45.8986070" lon="10.3157210">
	<ele>1365.00</ele>
	<time>2025-07-29T11:28:54.000Z</time>
</trkpt>
<trkpt lat="45.8986090" lon="10.3156490">
	<ele>1365.00</ele>
	<time>2025-07-29T11:28:55.000Z</time>
</trkpt>
<trkpt lat="45.8986070" lon="10.3156030">
	<ele>1365.00</ele>
	<time>2025-07-29T11:28:56.000Z</time>
</trkpt>
<trkpt lat="45.8986020" lon="10.3155830">
	<ele>1365.00</ele>
	<time>2025-07-29T11:28:57.000Z</time>
</trkpt>
<trkpt lat="45.8985980" lon="10.3155630">
	<ele>1365.00</ele>
	<time>2025-07-29T11:28:58.000Z</time>
</trkpt>
<trkpt lat="45.8985930" lon="10.3155330">
	<ele>1365.00</ele>
	<time>2025-07-29T11:28:59.000Z</time>
</trkpt>
<trkpt lat="45.8985960" lon="10.3155200">
	<ele>1365.00</ele>
	<time>2025-07-29T11:29:00.000Z</time>
</trkpt>
<trkpt lat="45.8985940" lon="10.3154950">
	<ele>1365.00</ele>
	<time>2025-07-29T11:29:01.000Z</time>
</trkpt>
<trkpt lat="45.8986030" lon="10.3154970">
	<ele>1365.00</ele>
	<time>2025-07-29T11:29:02.000Z</time>
</trkpt>
<trkpt lat="45.8986150" lon="10.3155140">
	<ele>1365.00</ele>
	<time>2025-07-29T11:29:03.000Z</time>
</trkpt>
<trkpt lat="45.8986370" lon="10.3155750">
	<ele>1365.00</ele>
	<time>2025-07-29T11:29:04.000Z</time>
</trkpt>
<trkpt lat="45.8986550" lon="10.3155930">
	<ele>1365.00</ele>
	<time>2025-07-29T11:29:05.000Z</time>
</trkpt>
<trkpt lat="45.8986630" lon="10.3156040">
	<ele>1365.00</ele>
	<time>2025-07-29T11:29:06.000Z</time>
</trkpt>
<trkpt lat="45.8986560" lon="10.3156170">
	<ele>1365.00</ele>
	<time>2025-07-29T11:29:07.000Z</time>
</trkpt>
<trkpt lat="45.8986590" lon="10.3156210">
	<ele>1365.00</ele>
	<time>2025-07-29T11:29:08.000Z</time>
</trkpt>
<trkpt lat="45.8986610" lon="10.3156260">
	<ele>1365.00</ele>
	<time>2025-07-29T11:29:09.000Z</time>
</trkpt>
<trkpt lat="45.8986640" lon="10.3156210">
	<ele>1365.00</ele>
	<time>2025-07-29T11:29:10.000Z</time>
</trkpt>
<trkpt lat="45.8986670" lon="10.3156280">
	<ele>1365.00</ele>
	<time>2025-07-29T11:29:11.000Z</time>
</trkpt>
<trkpt lat="45.8986700" lon="10.3156380">
	<ele>1365.00</ele>
	<time>2025-07-29T11:29:12.000Z</time>
</trkpt>
<trkpt lat="45.8986720" lon="10.3156390">
	<ele>1365.00</ele>
	<time>2025-07-29T11:29:13.000Z</time>
</trkpt>
<trkpt lat="45.8986770" lon="10.3156450">
	<ele>1365.00</ele>
	<time>2025-07-29T11:29:14.000Z</time>
</trkpt>
<trkpt lat="45.8986800" lon="10.3156470">
	<ele>1365.00</ele>
	<time>2025-07-29T11:29:15.000Z</time>
</trkpt>
<trkpt lat="45.8986780" lon="10.3156520">
	<ele>1365.00</ele>
	<time>2025-07-29T11:29:16.000Z</time>
</trkpt>
<trkpt lat="45.8986770" lon="10.3156520">
	<ele>1365.00</ele>
	<time>2025-07-29T11:29:17.000Z</time>
</trkpt>
<trkpt lat="45.8986770" lon="10.3156530">
	<ele>1365.00</ele>
	<time>2025-07-29T11:29:18.000Z</time>
</trkpt>
<trkpt lat="45.8986750" lon="10.3156550">
	<ele>1365.00</ele>
	<time>2025-07-29T11:29:19.000Z</time>
</trkpt>
<trkpt lat="45.8986740" lon="10.3156560">
	<ele>1365.00</ele>
	<time>2025-07-29T11:29:20.000Z</time>
</trkpt>
<trkpt lat="45.8986730" lon="10.3156560">
	<ele>1365.00</ele>
	<time>2025-07-29T11:29:21.000Z</time>
</trkpt>
<trkpt lat="45.8986690" lon="10.3156560">
	<ele>1365.00</ele>
	<time>2025-07-29T11:29:22.000Z</time>
</trkpt>
<trkpt lat="45.8986670" lon="10.3156580">
	<ele>1365.00</ele>
	<time>2025-07-29T11:29:23.000Z</time>
</trkpt>
<trkpt lat="45.8986670" lon="10.3156600">
	<ele>1365.00</ele>
	<time>2025-07-29T11:29:24.000Z</time>
</trkpt>
<trkpt lat="45.8986670" lon="10.3156570">
	<ele>1365.00</ele>
	<time>2025-07-29T11:29:25.000Z</time>
</trkpt>
<trkpt lat="45.8986660" lon="10.3156610">
	<ele>1365.00</ele>
	<time>2025-07-29T11:29:26.000Z</time>
</trkpt>
<trkpt lat="45.8986660" lon="10.3156590">
	<ele>1365.00</ele>
	<time>2025-07-29T11:29:27.000Z</time>
</trkpt>
<trkpt lat="45.8986550" lon="10.3156670">
	<ele>1365.00</ele>
	<time>2025-07-29T11:29:28.000Z</time>
</trkpt>
<trkpt lat="45.8986340" lon="10.3156730">
	<ele>1365.00</ele>
	<time>2025-07-29T11:29:29.000Z</time>
</trkpt>
<trkpt lat="45.8986340" lon="10.3156680">
	<ele>1365.00</ele>
	<time>2025-07-29T11:29:30.000Z</time>
</trkpt>
<trkpt lat="45.8986400" lon="10.3156750">
	<ele>1365.00</ele>
	<time>2025-07-29T11:29:31.000Z</time>
</trkpt>
<trkpt lat="45.8986440" lon="10.3156820">
	<ele>1365.00</ele>
	<time>2025-07-29T11:29:32.000Z</time>
</trkpt>
<trkpt lat="45.8986530" lon="10.3156990">
	<ele>1365.00</ele>
	<time>2025-07-29T11:29:33.000Z</time>
</trkpt>
<trkpt lat="45.8986560" lon="10.3157000">
	<ele>1365.00</ele>
	<time>2025-07-29T11:29:34.000Z</time>
</trkpt>
<trkpt lat="45.8986580" lon="10.3157010">
	<ele>1365.00</ele>
	<time>2025-07-29T11:29:35.000Z</time>
</trkpt>
<trkpt lat="45.8986590" lon="10.3157010">
	<ele>1365.00</ele>
	<time>2025-07-29T11:29:36.000Z</time>
</trkpt>
<trkpt lat="45.8986520" lon="10.3157020">
	<ele>1365.00</ele>
	<time>2025-07-29T11:29:37.000Z</time>
</trkpt>
<trkpt lat="45.8986500" lon="10.3157010">
	<ele>1365.00</ele>
	<time>2025-07-29T11:29:38.000Z</time>
</trkpt>
<trkpt lat="45.8986510" lon="10.3156990">
	<ele>1365.00</ele>
	<time>2025-07-29T11:29:39.000Z</time>
</trkpt>
<trkpt lat="45.8986590" lon="10.3157070">
	<ele>1365.00</ele>
	<time>2025-07-29T11:29:40.000Z</time>
</trkpt>
<trkpt lat="45.8986620" lon="10.3157040">
	<ele>1365.00</ele>
	<time>2025-07-29T11:29:41.000Z</time>
</trkpt>
<trkpt lat="45.8986640" lon="10.3157000">
	<ele>1365.00</ele>
	<time>2025-07-29T11:29:42.000Z</time>
</trkpt>
<trkpt lat="45.8986640" lon="10.3156990">
	<ele>1365.00</ele>
	<time>2025-07-29T11:29:43.000Z</time>
</trkpt>
<trkpt lat="45.8986670" lon="10.3157050">
	<ele>1365.00</ele>
	<time>2025-07-29T11:29:44.000Z</time>
</trkpt>
<trkpt lat="45.8986720" lon="10.3157120">
	<ele>1365.00</ele>
	<time>2025-07-29T11:29:45.000Z</time>
</trkpt>
<trkpt lat="45.8986680" lon="10.3157160">
	<ele>1365.00</ele>
	<time>2025-07-29T11:29:46.000Z</time>
</trkpt>
<trkpt lat="45.8986590" lon="10.3157160">
	<ele>1365.00</ele>
	<time>2025-07-29T11:29:47.000Z</time>
</trkpt>
<trkpt lat="45.8986570" lon="10.3157150">
	<ele>1365.00</ele>
	<time>2025-07-29T11:29:48.000Z</time>
</trkpt>
<trkpt lat="45.8986550" lon="10.3157140">
	<ele>1365.00</ele>
	<time>2025-07-29T11:29:49.000Z</time>
</trkpt>
<trkpt lat="45.8986540" lon="10.3157140">
	<ele>1365.00</ele>
	<time>2025-07-29T11:29:50.000Z</time>
</trkpt>
<trkpt lat="45.8986540" lon="10.3157140">
	<ele>1365.00</ele>
	<time>2025-07-29T11:29:51.000Z</time>
</trkpt>
<trkpt lat="45.8986540" lon="10.3157140">
	<ele>1365.00</ele>
	<time>2025-07-29T11:29:52.000Z</time>
</trkpt>
<trkpt lat="45.8986540" lon="10.3157140">
	<ele>1365.00</ele>
	<time>2025-07-29T11:29:53.000Z</time>
</trkpt>
<trkpt lat="45.8986540" lon="10.3157140">
	<ele>1365.00</ele>
	<time>2025-07-29T11:29:54.000Z</time>
</trkpt>
<trkpt lat="45.8986540" lon="10.3157140">
	<ele>1365.00</ele>
	<time>2025-07-29T11:29:55.000Z</time>
</trkpt>
<trkpt lat="45.8986540" lon="10.3157140">
	<ele>1365.00</ele>
	<time>2025-07-29T11:29:56.000Z</time>
</trkpt>
<trkpt lat="45.8986550" lon="10.3157160">
	<ele>1365.00</ele>
	<time>2025-07-29T11:29:57.000Z</time>
</trkpt>
<trkpt lat="45.8986600" lon="10.3157160">
	<ele>1365.00</ele>
	<time>2025-07-29T11:29:58.000Z</time>
</trkpt>
<trkpt lat="45.8986560" lon="10.3157110">
	<ele>1365.00</ele>
	<time>2025-07-29T11:29:59.000Z</time>
</trkpt>
<trkpt lat="45.8986570" lon="10.3157100">
	<ele>1365.00</ele>
	<time>2025-07-29T11:30:00.000Z</time>
</trkpt>
<trkpt lat="45.8986570" lon="10.3157100">
	<ele>1365.00</ele>
	<time>2025-07-29T11:30:01.000Z</time>
</trkpt>
<trkpt lat="45.8986570" lon="10.3157110">
	<ele>1365.00</ele>
	<time>2025-07-29T11:30:02.000Z</time>
</trkpt>
<trkpt lat="45.8986470" lon="10.3157090">
	<ele>1365.00</ele>
	<time>2025-07-29T11:30:03.000Z</time>
</trkpt>
<trkpt lat="45.8986450" lon="10.3157140">
	<ele>1365.00</ele>
	<time>2025-07-29T11:30:04.000Z</time>
</trkpt>
<trkpt lat="45.8986450" lon="10.3157190">
	<ele>1365.00</ele>
	<time>2025-07-29T11:30:05.000Z</time>
</trkpt>
<trkpt lat="45.8986520" lon="10.3157250">
	<ele>1365.00</ele>
	<time>2025-07-29T11:30:06.000Z</time>
</trkpt>
<trkpt lat="45.8986550" lon="10.3157310">
	<ele>1365.00</ele>
	<time>2025-07-29T11:30:07.000Z</time>
</trkpt>
<trkpt lat="45.8986590" lon="10.3157310">
	<ele>1365.00</ele>
	<time>2025-07-29T11:30:08.000Z</time>
</trkpt>
<trkpt lat="45.8986560" lon="10.3157370">
	<ele>1365.00</ele>
	<time>2025-07-29T11:30:09.000Z</time>
</trkpt>
<trkpt lat="45.8986550" lon="10.3157430">
	<ele>1365.00</ele>
	<time>2025-07-29T11:30:10.000Z</time>
</trkpt>
<trkpt lat="45.8986550" lon="10.3157460">
	<ele>1365.00</ele>
	<time>2025-07-29T11:30:11.000Z</time>
</trkpt>
<trkpt lat="45.8986550" lon="10.3157410">
	<ele>1365.00</ele>
	<time>2025-07-29T11:30:12.000Z</time>
</trkpt>
<trkpt lat="45.8986590" lon="10.3157430">
	<ele>1365.00</ele>
	<time>2025-07-29T11:30:13.000Z</time>
</trkpt>
<trkpt lat="45.8986640" lon="10.3157340">
	<ele>1365.00</ele>
	<time>2025-07-29T11:30:14.000Z</time>
</trkpt>
<trkpt lat="45.8986670" lon="10.3157550">
	<ele>1365.00</ele>
	<time>2025-07-29T11:30:15.000Z</time>
</trkpt>
<trkpt lat="45.8986700" lon="10.3157600">
	<ele>1365.00</ele>
	<time>2025-07-29T11:30:16.000Z</time>
</trkpt>
<trkpt lat="45.8986750" lon="10.3157660">
	<ele>1365.00</ele>
	<time>2025-07-29T11:30:17.000Z</time>
</trkpt>
<trkpt lat="45.8986740" lon="10.3157610">
	<ele>1365.00</ele>
	<time>2025-07-29T11:30:18.000Z</time>
</trkpt>
<trkpt lat="45.8986750" lon="10.3157570">
	<ele>1365.00</ele>
	<time>2025-07-29T11:30:19.000Z</time>
</trkpt>
<trkpt lat="45.8986800" lon="10.3157520">
	<ele>1365.00</ele>
	<time>2025-07-29T11:30:20.000Z</time>
</trkpt>
<trkpt lat="45.8986760" lon="10.3157480">
	<ele>1365.00</ele>
	<time>2025-07-29T11:30:21.000Z</time>
</trkpt>
<trkpt lat="45.8986730" lon="10.3157470">
	<ele>1365.00</ele>
	<time>2025-07-29T11:30:22.000Z</time>
</trkpt>
<trkpt lat="45.8986860" lon="10.3157490">
	<ele>1365.00</ele>
	<time>2025-07-29T11:30:23.000Z</time>
</trkpt>
<trkpt lat="45.8986870" lon="10.3157500">
	<ele>1365.00</ele>
	<time>2025-07-29T11:30:24.000Z</time>
</trkpt>
<trkpt lat="45.8986870" lon="10.3157500">
	<ele>1365.00</ele>
	<time>2025-07-29T11:30:25.000Z</time>
</trkpt>
<trkpt lat="45.8986870" lon="10.3157500">
	<ele>1365.00</ele>
	<time>2025-07-29T11:30:26.000Z</time>
</trkpt>
<trkpt lat="45.8986870" lon="10.3157500">
	<ele>1365.00</ele>
	<time>2025-07-29T11:30:27.000Z</time>
</trkpt>
<trkpt lat="45.8986870" lon="10.3157500">
	<ele>1365.00</ele>
	<time>2025-07-29T11:30:28.000Z</time>
</trkpt>
<trkpt lat="45.8986870" lon="10.3157500">
	<ele>1365.00</ele>
	<time>2025-07-29T11:30:29.000Z</time>
</trkpt>
<trkpt lat="45.8986870" lon="10.3157500">
	<ele>1365.00</ele>
	<time>2025-07-29T11:30:30.000Z</time>
</trkpt>
<trkpt lat="45.8986870" lon="10.3157500">
	<ele>1365.00</ele>
	<time>2025-07-29T11:30:31.000Z</time>
</trkpt>
<trkpt lat="45.8986870" lon="10.3157500">
	<ele>1365.00</ele>
	<time>2025-07-29T11:30:32.000Z</time>
</trkpt>
<trkpt lat="45.8986870" lon="10.3157500">
	<ele>1365.00</ele>
	<time>2025-07-29T11:30:33.000Z</time>
</trkpt>
<trkpt lat="45.8986860" lon="10.3157500">
	<ele>1365.00</ele>
	<time>2025-07-29T11:30:34.000Z</time>
</trkpt>
<trkpt lat="45.8986840" lon="10.3157500">
	<ele>1365.00</ele>
	<time>2025-07-29T11:30:35.000Z</time>
</trkpt>
<trkpt lat="45.8986840" lon="10.3157500">
	<ele>1365.00</ele>
	<time>2025-07-29T11:30:36.000Z</time>
</trkpt>
<trkpt lat="45.8986840" lon="10.3157500">
	<ele>1365.00</ele>
	<time>2025-07-29T11:30:37.000Z</time>
</trkpt>
<trkpt lat="45.8986840" lon="10.3157490">
	<ele>1365.00</ele>
	<time>2025-07-29T11:30:38.000Z</time>
</trkpt>
<trkpt lat="45.8986840" lon="10.3157490">
	<ele>1365.00</ele>
	<time>2025-07-29T11:30:39.000Z</time>
</trkpt>
<trkpt lat="45.8986840" lon="10.3157490">
	<ele>1365.00</ele>
	<time>2025-07-29T11:30:40.000Z</time>
</trkpt>
<trkpt lat="45.8986840" lon="10.3157480">
	<ele>1365.00</ele>
	<time>2025-07-29T11:30:41.000Z</time>
</trkpt>
<trkpt lat="45.8986840" lon="10.3157470">
	<ele>1365.00</ele>
	<time>2025-07-29T11:30:42.000Z</time>
</trkpt>
<trkpt lat="45.8986840" lon="10.3157410">
	<ele>1365.00</ele>
	<time>2025-07-29T11:30:43.000Z</time>
</trkpt>
<trkpt lat="45.8986850" lon="10.3157190">
	<ele>1365.00</ele>
	<time>2025-07-29T11:30:44.000Z</time>
</trkpt>
<trkpt lat="45.8986830" lon="10.3157060">
	<ele>1365.00</ele>
	<time>2025-07-29T11:30:45.000Z</time>
</trkpt>
<trkpt lat="45.8986740" lon="10.3156930">
	<ele>1365.00</ele>
	<time>2025-07-29T11:30:46.000Z</time>
</trkpt>
<trkpt lat="45.8986640" lon="10.3156860">
	<ele>1365.00</ele>
	<time>2025-07-29T11:30:47.000Z</time>
</trkpt>
<trkpt lat="45.8986540" lon="10.3156810">
	<ele>1365.00</ele>
	<time>2025-07-29T11:30:48.000Z</time>
</trkpt>
<trkpt lat="45.8986560" lon="10.3156700">
	<ele>1365.00</ele>
	<time>2025-07-29T11:30:49.000Z</time>
</trkpt>
<trkpt lat="45.8986570" lon="10.3156570">
	<ele>1365.00</ele>
	<time>2025-07-29T11:30:50.000Z</time>
</trkpt>
<trkpt lat="45.8986580" lon="10.3156360">
	<ele>1365.00</ele>
	<time>2025-07-29T11:30:51.000Z</time>
</trkpt>
<trkpt lat="45.8986580" lon="10.3156140">
	<ele>1365.00</ele>
	<time>2025-07-29T11:30:52.000Z</time>
</trkpt>
<trkpt lat="45.8986540" lon="10.3155930">
	<ele>1365.00</ele>
	<time>2025-07-29T11:30:53.000Z</time>
</trkpt>
<trkpt lat="45.8986520" lon="10.3155770">
	<ele>1365.00</ele>
	<time>2025-07-29T11:30:54.000Z</time>
</trkpt>
<trkpt lat="45.8986520" lon="10.3155620">
	<ele>1365.00</ele>
	<time>2025-07-29T11:30:55.000Z</time>
</trkpt>
<trkpt lat="45.8986510" lon="10.3155510">
	<ele>1365.00</ele>
	<time>2025-07-29T11:30:56.000Z</time>
</trkpt>
<trkpt lat="45.8986510" lon="10.3155300">
	<ele>1365.00</ele>
	<time>2025-07-29T11:30:57.000Z</time>
</trkpt>
<trkpt lat="45.8986470" lon="10.3155100">
	<ele>1365.00</ele>
	<time>2025-07-29T11:30:58.000Z</time>
</trkpt>
<trkpt lat="45.8986450" lon="10.3154910">
	<ele>1365.00</ele>
	<time>2025-07-29T11:30:59.000Z</time>
</trkpt>
<trkpt lat="45.8986480" lon="10.3154720">
	<ele>1365.00</ele>
	<time>2025-07-29T11:31:00.000Z</time>
</trkpt>
<trkpt lat="45.8986460" lon="10.3154480">
	<ele>1363.00</ele>
	<time>2025-07-29T11:31:01.000Z</time>
</trkpt>
<trkpt lat="45.8986390" lon="10.3154270">
	<ele>1361.80</ele>
	<time>2025-07-29T11:31:02.000Z</time>
</trkpt>
<trkpt lat="45.8986380" lon="10.3154050">
	<ele>1361.20</ele>
	<time>2025-07-29T11:31:03.000Z</time>
</trkpt>
<trkpt lat="45.8986370" lon="10.3153840">
	<ele>1360.60</ele>
	<time>2025-07-29T11:31:04.000Z</time>
</trkpt>
<trkpt lat="45.8986350" lon="10.3153730">
	<ele>1360.20</ele>
	<time>2025-07-29T11:31:05.000Z</time>
</trkpt>
<trkpt lat="45.8986350" lon="10.3153570">
	<ele>1360.00</ele>
	<time>2025-07-29T11:31:06.000Z</time>
</trkpt>
<trkpt lat="45.8986350" lon="10.3153390">
	<ele>1359.60</ele>
	<time>2025-07-29T11:31:07.000Z</time>
</trkpt>
<trkpt lat="45.8986340" lon="10.3153230">
	<ele>1359.40</ele>
	<time>2025-07-29T11:31:08.000Z</time>
</trkpt>
<trkpt lat="45.8986390" lon="10.3153130">
	<ele>1359.40</ele>
	<time>2025-07-29T11:31:09.000Z</time>
</trkpt>
<trkpt lat="45.8986480" lon="10.3153010">
	<ele>1359.20</ele>
	<time>2025-07-29T11:31:10.000Z</time>
</trkpt>
<trkpt lat="45.8986490" lon="10.3152870">
	<ele>1359.00</ele>
	<time>2025-07-29T11:31:11.000Z</time>
</trkpt>
<trkpt lat="45.8986570" lon="10.3152620">
	<ele>1358.80</ele>
	<time>2025-07-29T11:31:12.000Z</time>
</trkpt>
<trkpt lat="45.8986630" lon="10.3152460">
	<ele>1358.80</ele>
	<time>2025-07-29T11:31:13.000Z</time>
</trkpt>
<trkpt lat="45.8986640" lon="10.3152290">
	<ele>1358.80</ele>
	<time>2025-07-29T11:31:14.000Z</time>
</trkpt>
<trkpt lat="45.8986610" lon="10.3152260">
	<ele>1358.60</ele>
	<time>2025-07-29T11:31:15.000Z</time>
</trkpt>
<trkpt lat="45.8986590" lon="10.3152210">
	<ele>1358.60</ele>
	<time>2025-07-29T11:31:16.000Z</time>
</trkpt>
<trkpt lat="45.8986600" lon="10.3152040">
	<ele>1358.60</ele>
	<time>2025-07-29T11:31:17.000Z</time>
</trkpt>
<trkpt lat="45.8986670" lon="10.3151860">
	<ele>1358.80</ele>
	<time>2025-07-29T11:31:18.000Z</time>
</trkpt>
<trkpt lat="45.8986760" lon="10.3151750">
	<ele>1358.80</ele>
	<time>2025-07-29T11:31:19.000Z</time>
</trkpt>
<trkpt lat="45.8986830" lon="10.3151610">
	<ele>1358.80</ele>
	<time>2025-07-29T11:31:20.000Z</time>
</trkpt>
<trkpt lat="45.8986880" lon="10.3151590">
	<ele>1359.00</ele>
	<time>2025-07-29T11:31:21.000Z</time>
</trkpt>
<trkpt lat="45.8986950" lon="10.3151450">
	<ele>1359.00</ele>
	<time>2025-07-29T11:31:22.000Z</time>
</trkpt>
<trkpt lat="45.8986940" lon="10.3151380">
	<ele>1359.00</ele>
	<time>2025-07-29T11:31:23.000Z</time>
</trkpt>
<trkpt lat="45.8986990" lon="10.3151220">
	<ele>1359.00</ele>
	<time>2025-07-29T11:31:24.000Z</time>
</trkpt>
<trkpt lat="45.8987040" lon="10.3151070">
	<ele>1359.00</ele>
	<time>2025-07-29T11:31:25.000Z</time>
</trkpt>
<trkpt lat="45.8987160" lon="10.3150930">
	<ele>1358.80</ele>
	<time>2025-07-29T11:31:26.000Z</time>
</trkpt>
<trkpt lat="45.8987290" lon="10.3150900">
	<ele>1358.80</ele>
	<time>2025-07-29T11:31:27.000Z</time>
</trkpt>
<trkpt lat="45.8987430" lon="10.3150840">
	<ele>1358.80</ele>
	<time>2025-07-29T11:31:28.000Z</time>
</trkpt>
<trkpt lat="45.8987480" lon="10.3150790">
	<ele>1358.80</ele>
	<time>2025-07-29T11:31:29.000Z</time>
</trkpt>
<trkpt lat="45.8987600" lon="10.3150670">
	<ele>1358.80</ele>
	<time>2025-07-29T11:31:30.000Z</time>
</trkpt>
<trkpt lat="45.8987820" lon="10.3150540">
	<ele>1358.60</ele>
	<time>2025-07-29T11:31:31.000Z</time>
</trkpt>
<trkpt lat="45.8988020" lon="10.3150350">
	<ele>1358.60</ele>
	<time>2025-07-29T11:31:32.000Z</time>
</trkpt>
<trkpt lat="45.8988190" lon="10.3150220">
	<ele>1358.60</ele>
	<time>2025-07-29T11:31:33.000Z</time>
</trkpt>
<trkpt lat="45.8988340" lon="10.3150060">
	<ele>1358.80</ele>
	<time>2025-07-29T11:31:34.000Z</time>
</trkpt>
<trkpt lat="45.8988430" lon="10.3149900">
	<ele>1358.80</ele>
	<time>2025-07-29T11:31:35.000Z</time>
</trkpt>
<trkpt lat="45.8988560" lon="10.3149740">
	<ele>1358.80</ele>
	<time>2025-07-29T11:31:36.000Z</time>
</trkpt>
<trkpt lat="45.8988670" lon="10.3149560">
	<ele>1358.80</ele>
	<time>2025-07-29T11:31:37.000Z</time>
</trkpt>
<trkpt lat="45.8988740" lon="10.3149360">
	<ele>1358.80</ele>
	<time>2025-07-29T11:31:38.000Z</time>
</trkpt>
<trkpt lat="45.8988860" lon="10.3149220">
	<ele>1358.80</ele>
	<time>2025-07-29T11:31:39.000Z</time>
</trkpt>
<trkpt lat="45.8989120" lon="10.3149100">
	<ele>1358.80</ele>
	<time>2025-07-29T11:31:40.000Z</time>
</trkpt>
<trkpt lat="45.8989280" lon="10.3149010">
	<ele>1358.80</ele>
	<time>2025-07-29T11:31:41.000Z</time>
</trkpt>
<trkpt lat="45.8989440" lon="10.3148880">
	<ele>1358.80</ele>
	<time>2025-07-29T11:31:42.000Z</time>
</trkpt>
<trkpt lat="45.8989560" lon="10.3148730">
	<ele>1358.80</ele>
	<time>2025-07-29T11:31:43.000Z</time>
</trkpt>
<trkpt lat="45.8989590" lon="10.3148680">
	<ele>1358.80</ele>
	<time>2025-07-29T11:31:44.000Z</time>
</trkpt>
<trkpt lat="45.8989620" lon="10.3148600">
	<ele>1358.80</ele>
	<time>2025-07-29T11:31:45.000Z</time>
</trkpt>
<trkpt lat="45.8989770" lon="10.3148350">
	<ele>1358.80</ele>
	<time>2025-07-29T11:31:46.000Z</time>
</trkpt>
<trkpt lat="45.8989930" lon="10.3148190">
	<ele>1359.00</ele>
	<time>2025-07-29T11:31:47.000Z</time>
</trkpt>
<trkpt lat="45.8990150" lon="10.3148100">
	<ele>1359.20</ele>
	<time>2025-07-29T11:31:48.000Z</time>
</trkpt>
<trkpt lat="45.8990240" lon="10.3147940">
	<ele>1359.40</ele>
	<time>2025-07-29T11:31:49.000Z</time>
</trkpt>
<trkpt lat="45.8990310" lon="10.3147750">
	<ele>1359.40</ele>
	<time>2025-07-29T11:31:50.000Z</time>
</trkpt>
<trkpt lat="45.8990360" lon="10.3147540">
	<ele>1359.60</ele>
	<time>2025-07-29T11:31:51.000Z</time>
</trkpt>
<trkpt lat="45.8990430" lon="10.3147380">
	<ele>1359.60</ele>
	<time>2025-07-29T11:31:52.000Z</time>
</trkpt>
<trkpt lat="45.8990510" lon="10.3147220">
	<ele>1359.60</ele>
	<time>2025-07-29T11:31:53.000Z</time>
</trkpt>
<trkpt lat="45.8990570" lon="10.3147020">
	<ele>1359.60</ele>
	<time>2025-07-29T11:31:54.000Z</time>
</trkpt>
<trkpt lat="45.8990640" lon="10.3146810">
	<ele>1359.60</ele>
	<time>2025-07-29T11:31:55.000Z</time>
</trkpt>
<trkpt lat="45.8990770" lon="10.3146620">
	<ele>1359.60</ele>
	<time>2025-07-29T11:31:56.000Z</time>
</trkpt>
<trkpt lat="45.8990910" lon="10.3146480">
	<ele>1359.60</ele>
	<time>2025-07-29T11:31:57.000Z</time>
</trkpt>
<trkpt lat="45.8991040" lon="10.3146340">
	<ele>1359.60</ele>
	<time>2025-07-29T11:31:58.000Z</time>
</trkpt>
<trkpt lat="45.8991250" lon="10.3146250">
	<ele>1359.60</ele>
	<time>2025-07-29T11:31:59.000Z</time>
</trkpt>
<trkpt lat="45.8991460" lon="10.3146140">
	<ele>1359.60</ele>
	<time>2025-07-29T11:32:00.000Z</time>
</trkpt>
<trkpt lat="45.8991630" lon="10.3146060">
	<ele>1359.60</ele>
	<time>2025-07-29T11:32:01.000Z</time>
</trkpt>
<trkpt lat="45.8991790" lon="10.3145980">
	<ele>1359.60</ele>
	<time>2025-07-29T11:32:02.000Z</time>
</trkpt>
<trkpt lat="45.8991930" lon="10.3145830">
	<ele>1359.40</ele>
	<time>2025-07-29T11:32:03.000Z</time>
</trkpt>
<trkpt lat="45.8992080" lon="10.3145750">
	<ele>1359.40</ele>
	<time>2025-07-29T11:32:04.000Z</time>
</trkpt>
<trkpt lat="45.8992300" lon="10.3145590">
	<ele>1359.40</ele>
	<time>2025-07-29T11:32:05.000Z</time>
</trkpt>
<trkpt lat="45.8992660" lon="10.3145050">
	<ele>1359.40</ele>
	<time>2025-07-29T11:32:06.000Z</time>
</trkpt>
<trkpt lat="45.8992660" lon="10.3145050">
	<ele>1359.40</ele>
	<time>2025-07-29T11:32:07.000Z</time>
</trkpt>
<trkpt lat="45.8992630" lon="10.3144840">
	<ele>1359.40</ele>
	<time>2025-07-29T11:32:08.000Z</time>
</trkpt>
<trkpt lat="45.8992640" lon="10.3144710">
	<ele>1359.20</ele>
	<time>2025-07-29T11:32:09.000Z</time>
</trkpt>
<trkpt lat="45.8992670" lon="10.3144580">
	<ele>1359.20</ele>
	<time>2025-07-29T11:32:10.000Z</time>
</trkpt>
<trkpt lat="45.8992810" lon="10.3144450">
	<ele>1359.00</ele>
	<time>2025-07-29T11:32:11.000Z</time>
</trkpt>
<trkpt lat="45.8992900" lon="10.3144300">
	<ele>1358.80</ele>
	<time>2025-07-29T11:32:12.000Z</time>
</trkpt>
<trkpt lat="45.8993000" lon="10.3144180">
	<ele>1358.60</ele>
	<time>2025-07-29T11:32:13.000Z</time>
</trkpt>
<trkpt lat="45.8993040" lon="10.3144110">
	<ele>1358.20</ele>
	<time>2025-07-29T11:32:14.000Z</time>
</trkpt>
<trkpt lat="45.8993070" lon="10.3144020">
	<ele>1358.00</ele>
	<time>2025-07-29T11:32:15.000Z</time>
</trkpt>
<trkpt lat="45.8993260" lon="10.3143970">
	<ele>1357.60</ele>
	<time>2025-07-29T11:32:16.000Z</time>
</trkpt>
<trkpt lat="45.8993460" lon="10.3143860">
	<ele>1357.40</ele>
	<time>2025-07-29T11:32:17.000Z</time>
</trkpt>
<trkpt lat="45.8993610" lon="10.3143800">
	<ele>1357.00</ele>
	<time>2025-07-29T11:32:18.000Z</time>
</trkpt>
<trkpt lat="45.8993740" lon="10.3143660">
	<ele>1356.80</ele>
	<time>2025-07-29T11:32:19.000Z</time>
</trkpt>
<trkpt lat="45.8993830" lon="10.3143460">
	<ele>1356.80</ele>
	<time>2025-07-29T11:32:20.000Z</time>
</trkpt>
<trkpt lat="45.8993830" lon="10.3143410">
	<ele>1356.40</ele>
	<time>2025-07-29T11:32:21.000Z</time>
</trkpt>
<trkpt lat="45.8993870" lon="10.3143260">
	<ele>1356.00</ele>
	<time>2025-07-29T11:32:22.000Z</time>
</trkpt>
<trkpt lat="45.8993850" lon="10.3143090">
	<ele>1355.80</ele>
	<time>2025-07-29T11:32:23.000Z</time>
</trkpt>
<trkpt lat="45.8993940" lon="10.3142930">
	<ele>1355.60</ele>
	<time>2025-07-29T11:32:24.000Z</time>
</trkpt>
<trkpt lat="45.8993980" lon="10.3142700">
	<ele>1355.20</ele>
	<time>2025-07-29T11:32:25.000Z</time>
</trkpt>
<trkpt lat="45.8994000" lon="10.3142570">
	<ele>1354.80</ele>
	<time>2025-07-29T11:32:26.000Z</time>
</trkpt>
<trkpt lat="45.8994010" lon="10.3142420">
	<ele>1354.40</ele>
	<time>2025-07-29T11:32:27.000Z</time>
</trkpt>
<trkpt lat="45.8993960" lon="10.3142340">
	<ele>1354.00</ele>
	<time>2025-07-29T11:32:28.000Z</time>
</trkpt>
<trkpt lat="45.8993860" lon="10.3142250">
	<ele>1353.80</ele>
	<time>2025-07-29T11:32:29.000Z</time>
</trkpt>
<trkpt lat="45.8993740" lon="10.3142100">
	<ele>1353.60</ele>
	<time>2025-07-29T11:32:30.000Z</time>
</trkpt>
<trkpt lat="45.8993660" lon="10.3141930">
	<ele>1353.40</ele>
	<time>2025-07-29T11:32:31.000Z</time>
</trkpt>
<trkpt lat="45.8993700" lon="10.3141800">
	<ele>1353.20</ele>
	<time>2025-07-29T11:32:32.000Z</time>
</trkpt>
<trkpt lat="45.8993730" lon="10.3141610">
	<ele>1353.00</ele>
	<time>2025-07-29T11:32:33.000Z</time>
</trkpt>
<trkpt lat="45.8993720" lon="10.3141380">
	<ele>1352.60</ele>
	<time>2025-07-29T11:32:34.000Z</time>
</trkpt>
<trkpt lat="45.8993750" lon="10.3141140">
	<ele>1352.20</ele>
	<time>2025-07-29T11:32:35.000Z</time>
</trkpt>
<trkpt lat="45.8993870" lon="10.3140970">
	<ele>1352.00</ele>
	<time>2025-07-29T11:32:36.000Z</time>
</trkpt>
<trkpt lat="45.8994040" lon="10.3140860">
	<ele>1351.60</ele>
	<time>2025-07-29T11:32:37.000Z</time>
</trkpt>
<trkpt lat="45.8994130" lon="10.3140840">
	<ele>1351.20</ele>
	<time>2025-07-29T11:32:38.000Z</time>
</trkpt>
<trkpt lat="45.8994280" lon="10.3140840">
	<ele>1350.80</ele>
	<time>2025-07-29T11:32:39.000Z</time>
</trkpt>
<trkpt lat="45.8994410" lon="10.3140690">
	<ele>1350.40</ele>
	<time>2025-07-29T11:32:40.000Z</time>
</trkpt>
<trkpt lat="45.8994510" lon="10.3140470">
	<ele>1350.20</ele>
	<time>2025-07-29T11:32:41.000Z</time>
</trkpt>
<trkpt lat="45.8994620" lon="10.3140330">
	<ele>1349.80</ele>
	<time>2025-07-29T11:32:42.000Z</time>
</trkpt>
<trkpt lat="45.8994630" lon="10.3140190">
	<ele>1349.60</ele>
	<time>2025-07-29T11:32:43.000Z</time>
</trkpt>
<trkpt lat="45.8994680" lon="10.3140150">
	<ele>1349.00</ele>
	<time>2025-07-29T11:32:44.000Z</time>
</trkpt>
<trkpt lat="45.8994750" lon="10.3140130">
	<ele>1348.80</ele>
	<time>2025-07-29T11:32:45.000Z</time>
</trkpt>
<trkpt lat="45.8994810" lon="10.3140040">
	<ele>1348.60</ele>
	<time>2025-07-29T11:32:46.000Z</time>
</trkpt>
<trkpt lat="45.8994760" lon="10.3139940">
	<ele>1348.20</ele>
	<time>2025-07-29T11:32:47.000Z</time>
</trkpt>
<trkpt lat="45.8994720" lon="10.3139790">
	<ele>1347.80</ele>
	<time>2025-07-29T11:32:48.000Z</time>
</trkpt>
<trkpt lat="45.8994640" lon="10.3139610">
	<ele>1347.60</ele>
	<time>2025-07-29T11:32:49.000Z</time>
</trkpt>
<trkpt lat="45.8994650" lon="10.3139390">
	<ele>1347.20</ele>
	<time>2025-07-29T11:32:50.000Z</time>
</trkpt>
<trkpt lat="45.8994780" lon="10.3139150">
	<ele>1347.00</ele>
	<time>2025-07-29T11:32:51.000Z</time>
</trkpt>
<trkpt lat="45.8994950" lon="10.3138890">
	<ele>1346.80</ele>
	<time>2025-07-29T11:32:52.000Z</time>
</trkpt>
<trkpt lat="45.8995070" lon="10.3138670">
	<ele>1346.40</ele>
	<time>2025-07-29T11:32:53.000Z</time>
</trkpt>
<trkpt lat="45.8995180" lon="10.3138430">
	<ele>1346.20</ele>
	<time>2025-07-29T11:32:54.000Z</time>
</trkpt>
<trkpt lat="45.8995280" lon="10.3138280">
	<ele>1346.00</ele>
	<time>2025-07-29T11:32:55.000Z</time>
</trkpt>
<trkpt lat="45.8995350" lon="10.3138120">
	<ele>1345.60</ele>
	<time>2025-07-29T11:32:56.000Z</time>
</trkpt>
<trkpt lat="45.8995420" lon="10.3137980">
	<ele>1345.20</ele>
	<time>2025-07-29T11:32:57.000Z</time>
</trkpt>
<trkpt lat="45.8995540" lon="10.3137840">
	<ele>1345.00</ele>
	<time>2025-07-29T11:32:58.000Z</time>
</trkpt>
<trkpt lat="45.8995630" lon="10.3137640">
	<ele>1344.60</ele>
	<time>2025-07-29T11:32:59.000Z</time>
</trkpt>
<trkpt lat="45.8995700" lon="10.3137510">
	<ele>1344.20</ele>
	<time>2025-07-29T11:33:00.000Z</time>
</trkpt>
<trkpt lat="45.8995770" lon="10.3137350">
	<ele>1343.80</ele>
	<time>2025-07-29T11:33:01.000Z</time>
</trkpt>
<trkpt lat="45.8995870" lon="10.3137110">
	<ele>1343.60</ele>
	<time>2025-07-29T11:33:02.000Z</time>
</trkpt>
<trkpt lat="45.8996040" lon="10.3136870">
	<ele>1343.20</ele>
	<time>2025-07-29T11:33:03.000Z</time>
</trkpt>
<trkpt lat="45.8996180" lon="10.3136570">
	<ele>1343.00</ele>
	<time>2025-07-29T11:33:04.000Z</time>
</trkpt>
<trkpt lat="45.8996220" lon="10.3136360">
	<ele>1342.80</ele>
	<time>2025-07-29T11:33:05.000Z</time>
</trkpt>
<trkpt lat="45.8996220" lon="10.3136360">
	<ele>1342.60</ele>
	<time>2025-07-29T11:33:06.000Z</time>
</trkpt>
<trkpt lat="45.8996120" lon="10.3136070">
	<ele>1342.40</ele>
	<time>2025-07-29T11:33:07.000Z</time>
</trkpt>
<trkpt lat="45.8996020" lon="10.3135880">
	<ele>1342.20</ele>
	<time>2025-07-29T11:33:08.000Z</time>
</trkpt>
<trkpt lat="45.8996000" lon="10.3135660">
	<ele>1342.00</ele>
	<time>2025-07-29T11:33:09.000Z</time>
</trkpt>
<trkpt lat="45.8996020" lon="10.3135400">
	<ele>1342.00</ele>
	<time>2025-07-29T11:33:10.000Z</time>
</trkpt>
<trkpt lat="45.8996060" lon="10.3135270">
	<ele>1341.60</ele>
	<time>2025-07-29T11:33:11.000Z</time>
</trkpt>
<trkpt lat="45.8996090" lon="10.3135160">
	<ele>1341.60</ele>
	<time>2025-07-29T11:33:12.000Z</time>
</trkpt>
<trkpt lat="45.8996150" lon="10.3135070">
	<ele>1341.40</ele>
	<time>2025-07-29T11:33:13.000Z</time>
</trkpt>
<trkpt lat="45.8996160" lon="10.3134970">
	<ele>1341.20</ele>
	<time>2025-07-29T11:33:14.000Z</time>
</trkpt>
<trkpt lat="45.8996160" lon="10.3134740">
	<ele>1341.00</ele>
	<time>2025-07-29T11:33:15.000Z</time>
</trkpt>
<trkpt lat="45.8996180" lon="10.3134540">
	<ele>1340.80</ele>
	<time>2025-07-29T11:33:16.000Z</time>
</trkpt>
<trkpt lat="45.8996170" lon="10.3134300">
	<ele>1340.40</ele>
	<time>2025-07-29T11:33:17.000Z</time>
</trkpt>
<trkpt lat="45.8996170" lon="10.3134110">
	<ele>1340.20</ele>
	<time>2025-07-29T11:33:18.000Z</time>
</trkpt>
<trkpt lat="45.8996220" lon="10.3133970">
	<ele>1340.00</ele>
	<time>2025-07-29T11:33:19.000Z</time>
</trkpt>
<trkpt lat="45.8996260" lon="10.3133800">
	<ele>1339.80</ele>
	<time>2025-07-29T11:33:20.000Z</time>
</trkpt>
<trkpt lat="45.8996270" lon="10.3133610">
	<ele>1339.40</ele>
	<time>2025-07-29T11:33:21.000Z</time>
</trkpt>
<trkpt lat="45.8996260" lon="10.3133450">
	<ele>1339.00</ele>
	<time>2025-07-29T11:33:22.000Z</time>
</trkpt>
<trkpt lat="45.8996250" lon="10.3133170">
	<ele>1338.80</ele>
	<time>2025-07-29T11:33:23.000Z</time>
</trkpt>
<trkpt lat="45.8996220" lon="10.3132910">
	<ele>1338.40</ele>
	<time>2025-07-29T11:33:24.000Z</time>
</trkpt>
<trkpt lat="45.8996180" lon="10.3132720">
	<ele>1338.00</ele>
	<time>2025-07-29T11:33:25.000Z</time>
</trkpt>
<trkpt lat="45.8996110" lon="10.3132570">
	<ele>1337.80</ele>
	<time>2025-07-29T11:33:26.000Z</time>
</trkpt>
<trkpt lat="45.8996000" lon="10.3132440">
	<ele>1337.40</ele>
	<time>2025-07-29T11:33:27.000Z</time>
</trkpt>
<trkpt lat="45.8995890" lon="10.3132220">
	<ele>1337.00</ele>
	<time>2025-07-29T11:33:28.000Z</time>
</trkpt>
<trkpt lat="45.8995830" lon="10.3132060">
	<ele>1336.60</ele>
	<time>2025-07-29T11:33:29.000Z</time>
</trkpt>
<trkpt lat="45.8995790" lon="10.3131890">
	<ele>1336.40</ele>
	<time>2025-07-29T11:33:30.000Z</time>
</trkpt>
<trkpt lat="45.8995770" lon="10.3131690">
	<ele>1336.00</ele>
	<time>2025-07-29T11:33:31.000Z</time>
</trkpt>
<trkpt lat="45.8995740" lon="10.3131510">
	<ele>1335.60</ele>
	<time>2025-07-29T11:33:32.000Z</time>
</trkpt>
<trkpt lat="45.8995670" lon="10.3131290">
	<ele>1335.40</ele>
	<time>2025-07-29T11:33:33.000Z</time>
</trkpt>
<trkpt lat="45.8995670" lon="10.3131120">
	<ele>1335.20</ele>
	<time>2025-07-29T11:33:34.000Z</time>
</trkpt>
<trkpt lat="45.8995690" lon="10.3130950">
	<ele>1334.80</ele>
	<time>2025-07-29T11:33:35.000Z</time>
</trkpt>
<trkpt lat="45.8995710" lon="10.3130800">
	<ele>1334.40</ele>
	<time>2025-07-29T11:33:36.000Z</time>
</trkpt>
<trkpt lat="45.8995730" lon="10.3130680">
	<ele>1334.00</ele>
	<time>2025-07-29T11:33:37.000Z</time>
</trkpt>
<trkpt lat="45.8995780" lon="10.3130590">
	<ele>1333.80</ele>
	<time>2025-07-29T11:33:38.000Z</time>
</trkpt>
<trkpt lat="45.8995810" lon="10.3130540">
	<ele>1333.40</ele>
	<time>2025-07-29T11:33:39.000Z</time>
</trkpt>
<trkpt lat="45.8995900" lon="10.3130540">
	<ele>1333.00</ele>
	<time>2025-07-29T11:33:40.000Z</time>
</trkpt>
<trkpt lat="45.8996000" lon="10.3130540">
	<ele>1332.80</ele>
	<time>2025-07-29T11:33:41.000Z</time>
</trkpt>
<trkpt lat="45.8996130" lon="10.3130630">
	<ele>1332.60</ele>
	<time>2025-07-29T11:33:42.000Z</time>
</trkpt>
<trkpt lat="45.8996180" lon="10.3130710">
	<ele>1332.20</ele>
	<time>2025-07-29T11:33:43.000Z</time>
</trkpt>
<trkpt lat="45.8996270" lon="10.3130790">
	<ele>1331.80</ele>
	<time>2025-07-29T11:33:44.000Z</time>
</trkpt>
<trkpt lat="45.8996440" lon="10.3130860">
	<ele>1331.20</ele>
	<time>2025-07-29T11:33:45.000Z</time>
</trkpt>
<trkpt lat="45.8996600" lon="10.3130910">
	<ele>1331.00</ele>
	<time>2025-07-29T11:33:46.000Z</time>
</trkpt>
<trkpt lat="45.8996790" lon="10.3130970">
	<ele>1330.80</ele>
	<time>2025-07-29T11:33:47.000Z</time>
</trkpt>
<trkpt lat="45.8996960" lon="10.3131020">
	<ele>1330.60</ele>
	<time>2025-07-29T11:33:48.000Z</time>
</trkpt>
<trkpt lat="45.8997010" lon="10.3131040">
	<ele>1330.20</ele>
	<time>2025-07-29T11:33:49.000Z</time>
</trkpt>
<trkpt lat="45.8997020" lon="10.3131050">
	<ele>1330.00</ele>
	<time>2025-07-29T11:33:50.000Z</time>
</trkpt>
<trkpt lat="45.8997140" lon="10.3131300">
	<ele>1329.80</ele>
	<time>2025-07-29T11:33:51.000Z</time>
</trkpt>
<trkpt lat="45.8997120" lon="10.3131310">
	<ele>1329.80</ele>
	<time>2025-07-29T11:33:52.000Z</time>
</trkpt>
<trkpt lat="45.8997120" lon="10.3131320">
	<ele>1329.80</ele>
	<time>2025-07-29T11:33:53.000Z</time>
</trkpt>
<trkpt lat="45.8997230" lon="10.3131380">
	<ele>1329.80</ele>
	<time>2025-07-29T11:33:54.000Z</time>
</trkpt>
<trkpt lat="45.8997370" lon="10.3131340">
	<ele>1329.60</ele>
	<time>2025-07-29T11:33:55.000Z</time>
</trkpt>
<trkpt lat="45.8997610" lon="10.3131330">
	<ele>1329.60</ele>
	<time>2025-07-29T11:33:56.000Z</time>
</trkpt>
<trkpt lat="45.8997800" lon="10.3131340">
	<ele>1329.20</ele>
	<time>2025-07-29T11:33:57.000Z</time>
</trkpt>
<trkpt lat="45.8997990" lon="10.3131390">
	<ele>1328.80</ele>
	<time>2025-07-29T11:33:58.000Z</time>
</trkpt>
<trkpt lat="45.8998140" lon="10.3131510">
	<ele>1328.60</ele>
	<time>2025-07-29T11:33:59.000Z</time>
</trkpt>
<trkpt lat="45.8998170" lon="10.3131530">
	<ele>1328.00</ele>
	<time>2025-07-29T11:34:00.000Z</time>
</trkpt>
<trkpt lat="45.8998250" lon="10.3131570">
	<ele>1327.40</ele>
	<time>2025-07-29T11:34:01.000Z</time>
</trkpt>
<trkpt lat="45.8998380" lon="10.3131650">
	<ele>1327.20</ele>
	<time>2025-07-29T11:34:02.000Z</time>
</trkpt>
<trkpt lat="45.8998460" lon="10.3131700">
	<ele>1326.80</ele>
	<time>2025-07-29T11:34:03.000Z</time>
</trkpt>
<trkpt lat="45.8998500" lon="10.3131730">
	<ele>1326.40</ele>
	<time>2025-07-29T11:34:04.000Z</time>
</trkpt>
<trkpt lat="45.8998490" lon="10.3131900">
	<ele>1326.00</ele>
	<time>2025-07-29T11:34:05.000Z</time>
</trkpt>
<trkpt lat="45.8998560" lon="10.3132050">
	<ele>1325.60</ele>
	<time>2025-07-29T11:34:06.000Z</time>
</trkpt>
<trkpt lat="45.8998620" lon="10.3132110">
	<ele>1325.20</ele>
	<time>2025-07-29T11:34:07.000Z</time>
</trkpt>
<trkpt lat="45.8998610" lon="10.3132210">
	<ele>1324.80</ele>
	<time>2025-07-29T11:34:08.000Z</time>
</trkpt>
<trkpt lat="45.8998790" lon="10.3132240">
	<ele>1324.60</ele>
	<time>2025-07-29T11:34:09.000Z</time>
</trkpt>
<trkpt lat="45.8999000" lon="10.3132370">
	<ele>1324.20</ele>
	<time>2025-07-29T11:34:10.000Z</time>
</trkpt>
<trkpt lat="45.8999050" lon="10.3132440">
	<ele>1323.60</ele>
	<time>2025-07-29T11:34:11.000Z</time>
</trkpt>
<trkpt lat="45.8999120" lon="10.3132480">
	<ele>1323.20</ele>
	<time>2025-07-29T11:34:12.000Z</time>
</trkpt>
<trkpt lat="45.8999200" lon="10.3132530">
	<ele>1323.00</ele>
	<time>2025-07-29T11:34:13.000Z</time>
</trkpt>
<trkpt lat="45.8999260" lon="10.3132550">
	<ele>1322.60</ele>
	<time>2025-07-29T11:34:14.000Z</time>
</trkpt>
<trkpt lat="45.8999330" lon="10.3132540">
	<ele>1322.20</ele>
	<time>2025-07-29T11:34:15.000Z</time>
</trkpt>
<trkpt lat="45.8999440" lon="10.3132520">
	<ele>1321.80</ele>
	<time>2025-07-29T11:34:16.000Z</time>
</trkpt>
<trkpt lat="45.8999560" lon="10.3132550">
	<ele>1321.60</ele>
	<time>2025-07-29T11:34:17.000Z</time>
</trkpt>
<trkpt lat="45.8999700" lon="10.3132590">
	<ele>1321.40</ele>
	<time>2025-07-29T11:34:18.000Z</time>
</trkpt>
<trkpt lat="45.8999790" lon="10.3132600">
	<ele>1321.20</ele>
	<time>2025-07-29T11:34:19.000Z</time>
</trkpt>
<trkpt lat="45.8999890" lon="10.3132640">
	<ele>1320.60</ele>
	<time>2025-07-29T11:34:20.000Z</time>
</trkpt>
<trkpt lat="45.9000000" lon="10.3132610">
	<ele>1320.00</ele>
	<time>2025-07-29T11:34:21.000Z</time>
</trkpt>
<trkpt lat="45.9000140" lon="10.3132610">
	<ele>1319.80</ele>
	<time>2025-07-29T11:34:22.000Z</time>
</trkpt>
<trkpt lat="45.9000290" lon="10.3132610">
	<ele>1319.40</ele>
	<time>2025-07-29T11:34:23.000Z</time>
</trkpt>
<trkpt lat="45.9000310" lon="10.3132620">
	<ele>1319.00</ele>
	<time>2025-07-29T11:34:24.000Z</time>
</trkpt>
<trkpt lat="45.9000440" lon="10.3132730">
	<ele>1318.60</ele>
	<time>2025-07-29T11:34:25.000Z</time>
</trkpt>
<trkpt lat="45.9000470" lon="10.3132730">
	<ele>1318.40</ele>
	<time>2025-07-29T11:34:26.000Z</time>
</trkpt>
<trkpt lat="45.9000450" lon="10.3132770">
	<ele>1318.20</ele>
	<time>2025-07-29T11:34:27.000Z</time>
</trkpt>
<trkpt lat="45.9000460" lon="10.3132780">
	<ele>1318.00</ele>
	<time>2025-07-29T11:34:28.000Z</time>
</trkpt>
<trkpt lat="45.9000500" lon="10.3132710">
	<ele>1317.60</ele>
	<time>2025-07-29T11:34:29.000Z</time>
</trkpt>
<trkpt lat="45.9000640" lon="10.3132750">
	<ele>1317.20</ele>
	<time>2025-07-29T11:34:30.000Z</time>
</trkpt>
<trkpt lat="45.9000760" lon="10.3132740">
	<ele>1316.80</ele>
	<time>2025-07-29T11:34:31.000Z</time>
</trkpt>
<trkpt lat="45.9000990" lon="10.3132830">
	<ele>1316.60</ele>
	<time>2025-07-29T11:34:32.000Z</time>
</trkpt>
<trkpt lat="45.9001110" lon="10.3133000">
	<ele>1316.00</ele>
	<time>2025-07-29T11:34:33.000Z</time>
</trkpt>
<trkpt lat="45.9001150" lon="10.3133270">
	<ele>1315.60</ele>
	<time>2025-07-29T11:34:34.000Z</time>
</trkpt>
<trkpt lat="45.9001250" lon="10.3133490">
	<ele>1315.40</ele>
	<time>2025-07-29T11:34:35.000Z</time>
</trkpt>
<trkpt lat="45.9001340" lon="10.3133490">
	<ele>1315.00</ele>
	<time>2025-07-29T11:34:36.000Z</time>
</trkpt>
<trkpt lat="45.9001320" lon="10.3133550">
	<ele>1314.80</ele>
	<time>2025-07-29T11:34:37.000Z</time>
</trkpt>
<trkpt lat="45.9001470" lon="10.3133600">
	<ele>1314.40</ele>
	<time>2025-07-29T11:34:38.000Z</time>
</trkpt>
<trkpt lat="45.9001570" lon="10.3133670">
	<ele>1314.00</ele>
	<time>2025-07-29T11:34:39.000Z</time>
</trkpt>
<trkpt lat="45.9001670" lon="10.3133650">
	<ele>1313.80</ele>
	<time>2025-07-29T11:34:40.000Z</time>
</trkpt>
<trkpt lat="45.9001830" lon="10.3133640">
	<ele>1313.40</ele>
	<time>2025-07-29T11:34:41.000Z</time>
</trkpt>
<trkpt lat="45.9001970" lon="10.3133650">
	<ele>1313.20</ele>
	<time>2025-07-29T11:34:42.000Z</time>
</trkpt>
<trkpt lat="45.9002140" lon="10.3133570">
	<ele>1312.80</ele>
	<time>2025-07-29T11:34:43.000Z</time>
</trkpt>
<trkpt lat="45.9002270" lon="10.3133550">
	<ele>1312.40</ele>
	<time>2025-07-29T11:34:44.000Z</time>
</trkpt>
<trkpt lat="45.9002360" lon="10.3133440">
	<ele>1312.00</ele>
	<time>2025-07-29T11:34:45.000Z</time>
</trkpt>
<trkpt lat="45.9002410" lon="10.3133350">
	<ele>1311.40</ele>
	<time>2025-07-29T11:34:46.000Z</time>
</trkpt>
<trkpt lat="45.9002440" lon="10.3133180">
	<ele>1311.00</ele>
	<time>2025-07-29T11:34:47.000Z</time>
</trkpt>
<trkpt lat="45.9002430" lon="10.3133010">
	<ele>1310.80</ele>
	<time>2025-07-29T11:34:48.000Z</time>
</trkpt>
<trkpt lat="45.9002460" lon="10.3132790">
	<ele>1310.40</ele>
	<time>2025-07-29T11:34:49.000Z</time>
</trkpt>
<trkpt lat="45.9002450" lon="10.3132630">
	<ele>1310.20</ele>
	<time>2025-07-29T11:34:50.000Z</time>
</trkpt>
<trkpt lat="45.9002460" lon="10.3132510">
	<ele>1310.00</ele>
	<time>2025-07-29T11:34:51.000Z</time>
</trkpt>
<trkpt lat="45.9002470" lon="10.3132370">
	<ele>1309.60</ele>
	<time>2025-07-29T11:34:52.000Z</time>
</trkpt>
<trkpt lat="45.9002420" lon="10.3132170">
	<ele>1309.40</ele>
	<time>2025-07-29T11:34:53.000Z</time>
</trkpt>
<trkpt lat="45.9002380" lon="10.3131970">
	<ele>1309.00</ele>
	<time>2025-07-29T11:34:54.000Z</time>
</trkpt>
<trkpt lat="45.9002380" lon="10.3131790">
	<ele>1308.60</ele>
	<time>2025-07-29T11:34:55.000Z</time>
</trkpt>
<trkpt lat="45.9002390" lon="10.3131720">
	<ele>1308.00</ele>
	<time>2025-07-29T11:34:56.000Z</time>
</trkpt>
<trkpt lat="45.9002360" lon="10.3131630">
	<ele>1307.80</ele>
	<time>2025-07-29T11:34:57.000Z</time>
</trkpt>
<trkpt lat="45.9002320" lon="10.3131480">
	<ele>1307.60</ele>
	<time>2025-07-29T11:34:58.000Z</time>
</trkpt>
<trkpt lat="45.9002260" lon="10.3131280">
	<ele>1307.20</ele>
	<time>2025-07-29T11:34:59.000Z</time>
</trkpt>
<trkpt lat="45.9002230" lon="10.3131090">
	<ele>1306.80</ele>
	<time>2025-07-29T11:35:00.000Z</time>
</trkpt>
<trkpt lat="45.9002220" lon="10.3130940">
	<ele>1306.60</ele>
	<time>2025-07-29T11:35:01.000Z</time>
</trkpt>
<trkpt lat="45.9002180" lon="10.3130750">
	<ele>1306.20</ele>
	<time>2025-07-29T11:35:02.000Z</time>
</trkpt>
<trkpt lat="45.9002110" lon="10.3130680">
	<ele>1305.80</ele>
	<time>2025-07-29T11:35:03.000Z</time>
</trkpt>
<trkpt lat="45.9002020" lon="10.3130500">
	<ele>1305.60</ele>
	<time>2025-07-29T11:35:04.000Z</time>
</trkpt>
<trkpt lat="45.9001960" lon="10.3130320">
	<ele>1305.40</ele>
	<time>2025-07-29T11:35:05.000Z</time>
</trkpt>
<trkpt lat="45.9001890" lon="10.3130100">
	<ele>1305.00</ele>
	<time>2025-07-29T11:35:06.000Z</time>
</trkpt>
<trkpt lat="45.9001840" lon="10.3129920">
	<ele>1304.80</ele>
	<time>2025-07-29T11:35:07.000Z</time>
</trkpt>
<trkpt lat="45.9001730" lon="10.3129810">
	<ele>1304.20</ele>
	<time>2025-07-29T11:35:08.000Z</time>
</trkpt>
<trkpt lat="45.9001590" lon="10.3129730">
	<ele>1304.00</ele>
	<time>2025-07-29T11:35:09.000Z</time>
</trkpt>
<trkpt lat="45.9001350" lon="10.3129550">
	<ele>1303.60</ele>
	<time>2025-07-29T11:35:10.000Z</time>
</trkpt>
<trkpt lat="45.9001150" lon="10.3129280">
	<ele>1303.40</ele>
	<time>2025-07-29T11:35:11.000Z</time>
</trkpt>
<trkpt lat="45.9001080" lon="10.3128980">
	<ele>1303.00</ele>
	<time>2025-07-29T11:35:12.000Z</time>
</trkpt>
<trkpt lat="45.9001110" lon="10.3128810">
	<ele>1302.60</ele>
	<time>2025-07-29T11:35:13.000Z</time>
</trkpt>
<trkpt lat="45.9001090" lon="10.3128640">
	<ele>1302.20</ele>
	<time>2025-07-29T11:35:14.000Z</time>
</trkpt>
<trkpt lat="45.9001010" lon="10.3128530">
	<ele>1302.00</ele>
	<time>2025-07-29T11:35:15.000Z</time>
</trkpt>
<trkpt lat="45.9000890" lon="10.3128410">
	<ele>1301.80</ele>
	<time>2025-07-29T11:35:16.000Z</time>
</trkpt>
<trkpt lat="45.9000810" lon="10.3128300">
	<ele>1301.40</ele>
	<time>2025-07-29T11:35:17.000Z</time>
</trkpt>
<trkpt lat="45.9000740" lon="10.3128080">
	<ele>1301.20</ele>
	<time>2025-07-29T11:35:18.000Z</time>
</trkpt>
<trkpt lat="45.9000690" lon="10.3127880">
	<ele>1300.80</ele>
	<time>2025-07-29T11:35:19.000Z</time>
</trkpt>
<trkpt lat="45.9000650" lon="10.3127720">
	<ele>1300.40</ele>
	<time>2025-07-29T11:35:20.000Z</time>
</trkpt>
<trkpt lat="45.9000620" lon="10.3127590">
	<ele>1300.20</ele>
	<time>2025-07-29T11:35:21.000Z</time>
</trkpt>
<trkpt lat="45.9000560" lon="10.3127460">
	<ele>1300.00</ele>
	<time>2025-07-29T11:35:22.000Z</time>
</trkpt>
<trkpt lat="45.9000450" lon="10.3127350">
	<ele>1299.60</ele>
	<time>2025-07-29T11:35:23.000Z</time>
</trkpt>
<trkpt lat="45.9000370" lon="10.3127250">
	<ele>1299.20</ele>
	<time>2025-07-29T11:35:24.000Z</time>
</trkpt>
<trkpt lat="45.9000270" lon="10.3126920">
	<ele>1299.00</ele>
	<time>2025-07-29T11:35:25.000Z</time>
</trkpt>
<trkpt lat="45.9000180" lon="10.3126610">
	<ele>1298.60</ele>
	<time>2025-07-29T11:35:26.000Z</time>
</trkpt>
<trkpt lat="45.9000080" lon="10.3126380">
	<ele>1298.40</ele>
	<time>2025-07-29T11:35:27.000Z</time>
</trkpt>
<trkpt lat="45.8999940" lon="10.3126180">
	<ele>1297.80</ele>
	<time>2025-07-29T11:35:28.000Z</time>
</trkpt>
<trkpt lat="45.8999870" lon="10.3126030">
	<ele>1297.60</ele>
	<time>2025-07-29T11:35:29.000Z</time>
</trkpt>
<trkpt lat="45.8999790" lon="10.3125880">
	<ele>1297.20</ele>
	<time>2025-07-29T11:35:30.000Z</time>
</trkpt>
<trkpt lat="45.8999680" lon="10.3125720">
	<ele>1297.00</ele>
	<time>2025-07-29T11:35:31.000Z</time>
</trkpt>
<trkpt lat="45.8999530" lon="10.3125650">
	<ele>1296.60</ele>
	<time>2025-07-29T11:35:32.000Z</time>
</trkpt>
<trkpt lat="45.8999380" lon="10.3125550">
	<ele>1296.40</ele>
	<time>2025-07-29T11:35:33.000Z</time>
</trkpt>
<trkpt lat="45.8999290" lon="10.3125460">
	<ele>1296.00</ele>
	<time>2025-07-29T11:35:34.000Z</time>
</trkpt>
<trkpt lat="45.8999220" lon="10.3125420">
	<ele>1295.80</ele>
	<time>2025-07-29T11:35:35.000Z</time>
</trkpt>
<trkpt lat="45.8999160" lon="10.3125330">
	<ele>1295.40</ele>
	<time>2025-07-29T11:35:36.000Z</time>
</trkpt>
<trkpt lat="45.8999110" lon="10.3125090">
	<ele>1295.00</ele>
	<time>2025-07-29T11:35:37.000Z</time>
</trkpt>
<trkpt lat="45.8999010" lon="10.3124870">
	<ele>1294.60</ele>
	<time>2025-07-29T11:35:38.000Z</time>
</trkpt>
<trkpt lat="45.8998920" lon="10.3124680">
	<ele>1294.40</ele>
	<time>2025-07-29T11:35:39.000Z</time>
</trkpt>
<trkpt lat="45.8998860" lon="10.3124570">
	<ele>1294.20</ele>
	<time>2025-07-29T11:35:40.000Z</time>
</trkpt>
<trkpt lat="45.8998840" lon="10.3124420">
	<ele>1293.80</ele>
	<time>2025-07-29T11:35:41.000Z</time>
</trkpt>
<trkpt lat="45.8998800" lon="10.3124360">
	<ele>1293.60</ele>
	<time>2025-07-29T11:35:42.000Z</time>
</trkpt>
<trkpt lat="45.8998770" lon="10.3124250">
	<ele>1293.20</ele>
	<time>2025-07-29T11:35:43.000Z</time>
</trkpt>
<trkpt lat="45.8998690" lon="10.3124070">
	<ele>1292.80</ele>
	<time>2025-07-29T11:35:44.000Z</time>
</trkpt>
<trkpt lat="45.8998600" lon="10.3123940">
	<ele>1292.40</ele>
	<time>2025-07-29T11:35:45.000Z</time>
</trkpt>
<trkpt lat="45.8998500" lon="10.3123810">
	<ele>1292.20</ele>
	<time>2025-07-29T11:35:46.000Z</time>
</trkpt>
<trkpt lat="45.8998450" lon="10.3123610">
	<ele>1291.80</ele>
	<time>2025-07-29T11:35:47.000Z</time>
</trkpt>
<trkpt lat="45.8998370" lon="10.3123370">
	<ele>1291.40</ele>
	<time>2025-07-29T11:35:48.000Z</time>
</trkpt>
<trkpt lat="45.8998320" lon="10.3123210">
	<ele>1291.20</ele>
	<time>2025-07-29T11:35:49.000Z</time>
</trkpt>
<trkpt lat="45.8998240" lon="10.3123070">
	<ele>1291.00</ele>
	<time>2025-07-29T11:35:50.000Z</time>
</trkpt>
<trkpt lat="45.8998180" lon="10.3122910">
	<ele>1290.60</ele>
	<time>2025-07-29T11:35:51.000Z</time>
</trkpt>
<trkpt lat="45.8998150" lon="10.3122770">
	<ele>1290.20</ele>
	<time>2025-07-29T11:35:52.000Z</time>
</trkpt>
<trkpt lat="45.8998120" lon="10.3122660">
	<ele>1290.00</ele>
	<time>2025-07-29T11:35:53.000Z</time>
</trkpt>
<trkpt lat="45.8998060" lon="10.3122490">
	<ele>1289.80</ele>
	<time>2025-07-29T11:35:54.000Z</time>
</trkpt>
<trkpt lat="45.8998040" lon="10.3122330">
	<ele>1289.40</ele>
	<time>2025-07-29T11:35:55.000Z</time>
</trkpt>
<trkpt lat="45.8997970" lon="10.3122080">
	<ele>1289.20</ele>
	<time>2025-07-29T11:35:56.000Z</time>
</trkpt>
<trkpt lat="45.8997860" lon="10.3121860">
	<ele>1288.80</ele>
	<time>2025-07-29T11:35:57.000Z</time>
</trkpt>
<trkpt lat="45.8997790" lon="10.3121600">
	<ele>1288.60</ele>
	<time>2025-07-29T11:35:58.000Z</time>
</trkpt>
<trkpt lat="45.8997760" lon="10.3121460">
	<ele>1288.20</ele>
	<time>2025-07-29T11:35:59.000Z</time>
</trkpt>
<trkpt lat="45.8997720" lon="10.3121220">
	<ele>1287.80</ele>
	<time>2025-07-29T11:36:00.000Z</time>
</trkpt>
<trkpt lat="45.8997710" lon="10.3121090">
	<ele>1287.80</ele>
	<time>2025-07-29T11:36:01.000Z</time>
</trkpt>
<trkpt lat="45.8997650" lon="10.3120890">
	<ele>1287.60</ele>
	<time>2025-07-29T11:36:02.000Z</time>
</trkpt>
<trkpt lat="45.8997550" lon="10.3120690">
	<ele>1287.00</ele>
	<time>2025-07-29T11:36:03.000Z</time>
</trkpt>
<trkpt lat="45.8997480" lon="10.3120590">
	<ele>1286.60</ele>
	<time>2025-07-29T11:36:04.000Z</time>
</trkpt>
<trkpt lat="45.8997410" lon="10.3120500">
	<ele>1286.20</ele>
	<time>2025-07-29T11:36:05.000Z</time>
</trkpt>
<trkpt lat="45.8997310" lon="10.3120380">
	<ele>1286.00</ele>
	<time>2025-07-29T11:36:06.000Z</time>
</trkpt>
<trkpt lat="45.8997250" lon="10.3120260">
	<ele>1285.60</ele>
	<time>2025-07-29T11:36:07.000Z</time>
</trkpt>
<trkpt lat="45.8997240" lon="10.3120140">
	<ele>1285.20</ele>
	<time>2025-07-29T11:36:08.000Z</time>
</trkpt>
<trkpt lat="45.8997220" lon="10.3119980">
	<ele>1284.80</ele>
	<time>2025-07-29T11:36:09.000Z</time>
</trkpt>
<trkpt lat="45.8997210" lon="10.3119830">
	<ele>1284.60</ele>
	<time>2025-07-29T11:36:10.000Z</time>
</trkpt>
<trkpt lat="45.8997310" lon="10.3119670">
	<ele>1284.20</ele>
	<time>2025-07-29T11:36:11.000Z</time>
</trkpt>
<trkpt lat="45.8997330" lon="10.3119580">
	<ele>1284.00</ele>
	<time>2025-07-29T11:36:12.000Z</time>
</trkpt>
<trkpt lat="45.8997330" lon="10.3119530">
	<ele>1283.60</ele>
	<time>2025-07-29T11:36:13.000Z</time>
</trkpt>
<trkpt lat="45.8997300" lon="10.3119490">
	<ele>1283.40</ele>
	<time>2025-07-29T11:36:14.000Z</time>
</trkpt>
<trkpt lat="45.8997290" lon="10.3119380">
	<ele>1283.00</ele>
	<time>2025-07-29T11:36:15.000Z</time>
</trkpt>
<trkpt lat="45.8997320" lon="10.3119210">
	<ele>1282.60</ele>
	<time>2025-07-29T11:36:16.000Z</time>
</trkpt>
<trkpt lat="45.8997360" lon="10.3118960">
	<ele>1282.40</ele>
	<time>2025-07-29T11:36:17.000Z</time>
</trkpt>
<trkpt lat="45.8997380" lon="10.3118730">
	<ele>1282.20</ele>
	<time>2025-07-29T11:36:18.000Z</time>
</trkpt>
<trkpt lat="45.8997460" lon="10.3118540">
	<ele>1281.80</ele>
	<time>2025-07-29T11:36:19.000Z</time>
</trkpt>
<trkpt lat="45.8997460" lon="10.3118370">
	<ele>1281.60</ele>
	<time>2025-07-29T11:36:20.000Z</time>
</trkpt>
<trkpt lat="45.8997480" lon="10.3118240">
	<ele>1281.20</ele>
	<time>2025-07-29T11:36:21.000Z</time>
</trkpt>
<trkpt lat="45.8997570" lon="10.3118080">
	<ele>1280.80</ele>
	<time>2025-07-29T11:36:22.000Z</time>
</trkpt>
<trkpt lat="45.8997690" lon="10.3117910">
	<ele>1280.60</ele>
	<time>2025-07-29T11:36:23.000Z</time>
</trkpt>
<trkpt lat="45.8997770" lon="10.3117780">
	<ele>1280.20</ele>
	<time>2025-07-29T11:36:24.000Z</time>
</trkpt>
<trkpt lat="45.8997850" lon="10.3117660">
	<ele>1280.20</ele>
	<time>2025-07-29T11:36:25.000Z</time>
</trkpt>
<trkpt lat="45.8998000" lon="10.3117500">
	<ele>1280.00</ele>
	<time>2025-07-29T11:36:26.000Z</time>
</trkpt>
<trkpt lat="45.8998120" lon="10.3117350">
	<ele>1279.80</ele>
	<time>2025-07-29T11:36:27.000Z</time>
</trkpt>
<trkpt lat="45.8998250" lon="10.3117230">
	<ele>1279.60</ele>
	<time>2025-07-29T11:36:28.000Z</time>
</trkpt>
<trkpt lat="45.8998390" lon="10.3117110">
	<ele>1279.40</ele>
	<time>2025-07-29T11:36:29.000Z</time>
</trkpt>
<trkpt lat="45.8998470" lon="10.3117030">
	<ele>1279.40</ele>
	<time>2025-07-29T11:36:30.000Z</time>
</trkpt>
<trkpt lat="45.8998540" lon="10.3116920">
	<ele>1279.40</ele>
	<time>2025-07-29T11:36:31.000Z</time>
</trkpt>
<trkpt lat="45.8998560" lon="10.3116830">
	<ele>1279.00</ele>
	<time>2025-07-29T11:36:32.000Z</time>
</trkpt>
<trkpt lat="45.8998590" lon="10.3116780">
	<ele>1278.80</ele>
	<time>2025-07-29T11:36:33.000Z</time>
</trkpt>
<trkpt lat="45.8998610" lon="10.3116670">
	<ele>1278.60</ele>
	<time>2025-07-29T11:36:34.000Z</time>
</trkpt>
<trkpt lat="45.8998560" lon="10.3116520">
	<ele>1278.20</ele>
	<time>2025-07-29T11:36:35.000Z</time>
</trkpt>
<trkpt lat="45.8998460" lon="10.3116480">
	<ele>1277.80</ele>
	<time>2025-07-29T11:36:36.000Z</time>
</trkpt>
<trkpt lat="45.8998500" lon="10.3116300">
	<ele>1277.40</ele>
	<time>2025-07-29T11:36:37.000Z</time>
</trkpt>
<trkpt lat="45.8998520" lon="10.3116120">
	<ele>1277.20</ele>
	<time>2025-07-29T11:36:38.000Z</time>
</trkpt>
<trkpt lat="45.8998470" lon="10.3115970">
	<ele>1276.80</ele>
	<time>2025-07-29T11:36:39.000Z</time>
</trkpt>
<trkpt lat="45.8998510" lon="10.3115860">
	<ele>1276.40</ele>
	<time>2025-07-29T11:36:40.000Z</time>
</trkpt>
<trkpt lat="45.8998510" lon="10.3115800">
	<ele>1276.20</ele>
	<time>2025-07-29T11:36:41.000Z</time>
</trkpt>
<trkpt lat="45.8998400" lon="10.3115700">
	<ele>1276.00</ele>
	<time>2025-07-29T11:36:42.000Z</time>
</trkpt>
<trkpt lat="45.8998210" lon="10.3115610">
	<ele>1275.40</ele>
	<time>2025-07-29T11:36:43.000Z</time>
</trkpt>
<trkpt lat="45.8998010" lon="10.3115390">
	<ele>1275.00</ele>
	<time>2025-07-29T11:36:44.000Z</time>
</trkpt>
<trkpt lat="45.8997860" lon="10.3115230">
	<ele>1274.60</ele>
	<time>2025-07-29T11:36:45.000Z</time>
</trkpt>
<trkpt lat="45.8997770" lon="10.3115130">
	<ele>1274.20</ele>
	<time>2025-07-29T11:36:46.000Z</time>
</trkpt>
<trkpt lat="45.8997840" lon="10.3115010">
	<ele>1273.80</ele>
	<time>2025-07-29T11:36:47.000Z</time>
</trkpt>
<trkpt lat="45.8997890" lon="10.3114870">
	<ele>1273.60</ele>
	<time>2025-07-29T11:36:48.000Z</time>
</trkpt>
<trkpt lat="45.8997920" lon="10.3114850">
	<ele>1273.00</ele>
	<time>2025-07-29T11:36:49.000Z</time>
</trkpt>
<trkpt lat="45.8997950" lon="10.3114650">
	<ele>1272.80</ele>
	<time>2025-07-29T11:36:50.000Z</time>
</trkpt>
<trkpt lat="45.8997780" lon="10.3114210">
	<ele>1272.60</ele>
	<time>2025-07-29T11:36:51.000Z</time>
</trkpt>
<trkpt lat="45.8997690" lon="10.3113810">
	<ele>1272.40</ele>
	<time>2025-07-29T11:36:52.000Z</time>
</trkpt>
<trkpt lat="45.8997410" lon="10.3114090">
	<ele>1271.80</ele>
	<time>2025-07-29T11:36:53.000Z</time>
</trkpt>
<trkpt lat="45.8997360" lon="10.3114040">
	<ele>1271.60</ele>
	<time>2025-07-29T11:36:54.000Z</time>
</trkpt>
<trkpt lat="45.8997370" lon="10.3114110">
	<ele>1271.00</ele>
	<time>2025-07-29T11:36:55.000Z</time>
</trkpt>
<trkpt lat="45.8997340" lon="10.3114180">
	<ele>1270.60</ele>
	<time>2025-07-29T11:36:56.000Z</time>
</trkpt>
<trkpt lat="45.8997340" lon="10.3114200">
	<ele>1270.40</ele>
	<time>2025-07-29T11:36:57.000Z</time>
</trkpt>
<trkpt lat="45.8997380" lon="10.3114220">
	<ele>1270.00</ele>
	<time>2025-07-29T11:36:58.000Z</time>
</trkpt>
<trkpt lat="45.8997470" lon="10.3114060">
	<ele>1269.80</ele>
	<time>2025-07-29T11:36:59.000Z</time>
</trkpt>
<trkpt lat="45.8997610" lon="10.3114270">
	<ele>1269.80</ele>
	<time>2025-07-29T11:37:00.000Z</time>
</trkpt>
<trkpt lat="45.8997740" lon="10.3114250">
	<ele>1269.60</ele>
	<time>2025-07-29T11:37:01.000Z</time>
</trkpt>
<trkpt lat="45.8997850" lon="10.3114180">
	<ele>1269.40</ele>
	<time>2025-07-29T11:37:02.000Z</time>
</trkpt>
<trkpt lat="45.8998040" lon="10.3114110">
	<ele>1269.40</ele>
	<time>2025-07-29T11:37:03.000Z</time>
</trkpt>
<trkpt lat="45.8998190" lon="10.3114090">
	<ele>1269.40</ele>
	<time>2025-07-29T11:37:04.000Z</time>
</trkpt>
<trkpt lat="45.8998290" lon="10.3114080">
	<ele>1269.40</ele>
	<time>2025-07-29T11:37:05.000Z</time>
</trkpt>
<trkpt lat="45.8998360" lon="10.3114160">
	<ele>1269.40</ele>
	<time>2025-07-29T11:37:06.000Z</time>
</trkpt>
<trkpt lat="45.8998440" lon="10.3114120">
	<ele>1269.40</ele>
	<time>2025-07-29T11:37:07.000Z</time>
</trkpt>
<trkpt lat="45.8998580" lon="10.3114000">
	<ele>1269.20</ele>
	<time>2025-07-29T11:37:08.000Z</time>
</trkpt>
<trkpt lat="45.8998720" lon="10.3113830">
	<ele>1269.00</ele>
	<time>2025-07-29T11:37:09.000Z</time>
</trkpt>
<trkpt lat="45.8998880" lon="10.3113700">
	<ele>1268.80</ele>
	<time>2025-07-29T11:37:10.000Z</time>
</trkpt>
<trkpt lat="45.8998990" lon="10.3113660">
	<ele>1268.80</ele>
	<time>2025-07-29T11:37:11.000Z</time>
</trkpt>
<trkpt lat="45.8999040" lon="10.3113790">
	<ele>1268.40</ele>
	<time>2025-07-29T11:37:12.000Z</time>
</trkpt>
<trkpt lat="45.8999120" lon="10.3113820">
	<ele>1268.20</ele>
	<time>2025-07-29T11:37:13.000Z</time>
</trkpt>
<trkpt lat="45.8999320" lon="10.3113560">
	<ele>1267.80</ele>
	<time>2025-07-29T11:37:14.000Z</time>
</trkpt>
<trkpt lat="45.8999610" lon="10.3113320">
	<ele>1267.60</ele>
	<time>2025-07-29T11:37:15.000Z</time>
</trkpt>
<trkpt lat="45.8999710" lon="10.3113660">
	<ele>1267.40</ele>
	<time>2025-07-29T11:37:16.000Z</time>
</trkpt>
<trkpt lat="45.8999530" lon="10.3114020">
	<ele>1267.40</ele>
	<time>2025-07-29T11:37:17.000Z</time>
</trkpt>
<trkpt lat="45.8999670" lon="10.3114120">
	<ele>1267.20</ele>
	<time>2025-07-29T11:37:18.000Z</time>
</trkpt>
<trkpt lat="45.8999820" lon="10.3114160">
	<ele>1266.80</ele>
	<time>2025-07-29T11:37:19.000Z</time>
</trkpt>
<trkpt lat="45.8999990" lon="10.3114100">
	<ele>1266.60</ele>
	<time>2025-07-29T11:37:20.000Z</time>
</trkpt>
<trkpt lat="45.9000120" lon="10.3113980">
	<ele>1266.40</ele>
	<time>2025-07-29T11:37:21.000Z</time>
</trkpt>
<trkpt lat="45.9000130" lon="10.3113930">
	<ele>1266.20</ele>
	<time>2025-07-29T11:37:22.000Z</time>
</trkpt>
<trkpt lat="45.9000150" lon="10.3113870">
	<ele>1266.20</ele>
	<time>2025-07-29T11:37:23.000Z</time>
</trkpt>
<trkpt lat="45.9000150" lon="10.3113830">
	<ele>1266.20</ele>
	<time>2025-07-29T11:37:24.000Z</time>
</trkpt>
<trkpt lat="45.9000120" lon="10.3113820">
	<ele>1266.00</ele>
	<time>2025-07-29T11:37:25.000Z</time>
</trkpt>
<trkpt lat="45.9000120" lon="10.3113830">
	<ele>1265.80</ele>
	<time>2025-07-29T11:37:26.000Z</time>
</trkpt>
<trkpt lat="45.9000190" lon="10.3113810">
	<ele>1265.80</ele>
	<time>2025-07-29T11:37:27.000Z</time>
</trkpt>
<trkpt lat="45.9000180" lon="10.3113820">
	<ele>1265.60</ele>
	<time>2025-07-29T11:37:28.000Z</time>
</trkpt>
<trkpt lat="45.9000180" lon="10.3113800">
	<ele>1265.60</ele>
	<time>2025-07-29T11:37:29.000Z</time>
</trkpt>
<trkpt lat="45.9000180" lon="10.3113800">
	<ele>1265.40</ele>
	<time>2025-07-29T11:37:30.000Z</time>
</trkpt>
<trkpt lat="45.9000170" lon="10.3113810">
	<ele>1265.40</ele>
	<time>2025-07-29T11:37:31.000Z</time>
</trkpt>
<trkpt lat="45.9000150" lon="10.3113830">
	<ele>1265.40</ele>
	<time>2025-07-29T11:37:32.000Z</time>
</trkpt>
<trkpt lat="45.9000110" lon="10.3113920">
	<ele>1265.60</ele>
	<time>2025-07-29T11:37:33.000Z</time>
</trkpt>
<trkpt lat="45.9000130" lon="10.3114010">
	<ele>1265.60</ele>
	<time>2025-07-29T11:37:34.000Z</time>
</trkpt>
<trkpt lat="45.9000190" lon="10.3114030">
	<ele>1265.60</ele>
	<time>2025-07-29T11:37:35.000Z</time>
</trkpt>
<trkpt lat="45.9000150" lon="10.3114060">
	<ele>1265.60</ele>
	<time>2025-07-29T11:37:36.000Z</time>
</trkpt>
<trkpt lat="45.9000150" lon="10.3114090">
	<ele>1265.60</ele>
	<time>2025-07-29T11:37:37.000Z</time>
</trkpt>
<trkpt lat="45.9000250" lon="10.3114090">
	<ele>1265.60</ele>
	<time>2025-07-29T11:37:38.000Z</time>
</trkpt>
<trkpt lat="45.9000260" lon="10.3114070">
	<ele>1265.60</ele>
	<time>2025-07-29T11:37:39.000Z</time>
</trkpt>
<trkpt lat="45.9000240" lon="10.3114120">
	<ele>1265.60</ele>
	<time>2025-07-29T11:37:40.000Z</time>
</trkpt>
<trkpt lat="45.9000240" lon="10.3114110">
	<ele>1265.60</ele>
	<time>2025-07-29T11:37:41.000Z</time>
</trkpt>
<trkpt lat="45.9000240" lon="10.3114100">
	<ele>1265.60</ele>
	<time>2025-07-29T11:37:42.000Z</time>
</trkpt>
<trkpt lat="45.9000230" lon="10.3114110">
	<ele>1265.60</ele>
	<time>2025-07-29T11:37:43.000Z</time>
</trkpt>
<trkpt lat="45.9000150" lon="10.3114270">
	<ele>1265.60</ele>
	<time>2025-07-29T11:37:44.000Z</time>
</trkpt>
<trkpt lat="45.8999970" lon="10.3114460">
	<ele>1265.60</ele>
	<time>2025-07-29T11:37:45.000Z</time>
</trkpt>
<trkpt lat="45.8999880" lon="10.3114570">
	<ele>1265.60</ele>
	<time>2025-07-29T11:37:46.000Z</time>
</trkpt>
<trkpt lat="45.8999850" lon="10.3114580">
	<ele>1265.60</ele>
	<time>2025-07-29T11:37:47.000Z</time>
</trkpt>
<trkpt lat="45.8999850" lon="10.3114610">
	<ele>1265.60</ele>
	<time>2025-07-29T11:37:48.000Z</time>
</trkpt>
<trkpt lat="45.8999850" lon="10.3114580">
	<ele>1265.60</ele>
	<time>2025-07-29T11:37:49.000Z</time>
</trkpt>
<trkpt lat="45.8999900" lon="10.3114470">
	<ele>1265.60</ele>
	<time>2025-07-29T11:37:50.000Z</time>
</trkpt>
<trkpt lat="45.8999910" lon="10.3114420">
	<ele>1265.60</ele>
	<time>2025-07-29T11:37:51.000Z</time>
</trkpt>
<trkpt lat="45.8999880" lon="10.3114270">
	<ele>1265.60</ele>
	<time>2025-07-29T11:37:52.000Z</time>
</trkpt>
<trkpt lat="45.8999850" lon="10.3114190">
	<ele>1265.60</ele>
	<time>2025-07-29T11:37:53.000Z</time>
</trkpt>
<trkpt lat="45.8999810" lon="10.3114140">
	<ele>1265.60</ele>
	<time>2025-07-29T11:37:54.000Z</time>
</trkpt>
<trkpt lat="45.8999800" lon="10.3114110">
	<ele>1265.60</ele>
	<time>2025-07-29T11:37:55.000Z</time>
</trkpt>
<trkpt lat="45.8999810" lon="10.3114090">
	<ele>1265.60</ele>
	<time>2025-07-29T11:37:56.000Z</time>
</trkpt>
<trkpt lat="45.8999810" lon="10.3114080">
	<ele>1265.60</ele>
	<time>2025-07-29T11:37:57.000Z</time>
</trkpt>
<trkpt lat="45.8999800" lon="10.3114060">
	<ele>1265.60</ele>
	<time>2025-07-29T11:37:58.000Z</time>
</trkpt>
<trkpt lat="45.8999780" lon="10.3114020">
	<ele>1265.60</ele>
	<time>2025-07-29T11:37:59.000Z</time>
</trkpt>
<trkpt lat="45.8999830" lon="10.3114070">
	<ele>1265.60</ele>
	<time>2025-07-29T11:38:00.000Z</time>
</trkpt>
<trkpt lat="45.8999850" lon="10.3114090">
	<ele>1265.60</ele>
	<time>2025-07-29T11:38:01.000Z</time>
</trkpt>
<trkpt lat="45.8999920" lon="10.3114110">
	<ele>1265.60</ele>
	<time>2025-07-29T11:38:02.000Z</time>
</trkpt>
<trkpt lat="45.8999930" lon="10.3114130">
	<ele>1265.60</ele>
	<time>2025-07-29T11:38:03.000Z</time>
</trkpt>
<trkpt lat="45.8999930" lon="10.3114110">
	<ele>1265.60</ele>
	<time>2025-07-29T11:38:04.000Z</time>
</trkpt>
<trkpt lat="45.8999940" lon="10.3114130">
	<ele>1265.40</ele>
	<time>2025-07-29T11:38:05.000Z</time>
</trkpt>
<trkpt lat="45.8999910" lon="10.3114160">
	<ele>1265.60</ele>
	<time>2025-07-29T11:38:06.000Z</time>
</trkpt>
<trkpt lat="45.8999970" lon="10.3114240">
	<ele>1265.60</ele>
	<time>2025-07-29T11:38:07.000Z</time>
</trkpt>
<trkpt lat="45.9000030" lon="10.3114320">
	<ele>1265.60</ele>
	<time>2025-07-29T11:38:08.000Z</time>
</trkpt>
<trkpt lat="45.9000050" lon="10.3114420">
	<ele>1265.60</ele>
	<time>2025-07-29T11:38:09.000Z</time>
</trkpt>
<trkpt lat="45.9000110" lon="10.3114450">
	<ele>1265.60</ele>
	<time>2025-07-29T11:38:10.000Z</time>
</trkpt>
<trkpt lat="45.9000120" lon="10.3114480">
	<ele>1265.60</ele>
	<time>2025-07-29T11:38:11.000Z</time>
</trkpt>
<trkpt lat="45.9000120" lon="10.3114480">
	<ele>1265.60</ele>
	<time>2025-07-29T11:38:12.000Z</time>
</trkpt>
<trkpt lat="45.9000120" lon="10.3114480">
	<ele>1265.60</ele>
	<time>2025-07-29T11:38:13.000Z</time>
</trkpt>
<trkpt lat="45.9000120" lon="10.3114480">
	<ele>1265.60</ele>
	<time>2025-07-29T11:38:14.000Z</time>
</trkpt>
<trkpt lat="45.9000120" lon="10.3114480">
	<ele>1265.60</ele>
	<time>2025-07-29T11:38:15.000Z</time>
</trkpt>
<trkpt lat="45.9000120" lon="10.3114480">
	<ele>1265.60</ele>
	<time>2025-07-29T11:38:16.000Z</time>
</trkpt>
<trkpt lat="45.9000120" lon="10.3114480">
	<ele>1265.60</ele>
	<time>2025-07-29T11:38:17.000Z</time>
</trkpt>
<trkpt lat="45.9000120" lon="10.3114480">
	<ele>1265.60</ele>
	<time>2025-07-29T11:38:18.000Z</time>
</trkpt>
<trkpt lat="45.9000120" lon="10.3114480">
	<ele>1265.60</ele>
	<time>2025-07-29T11:38:19.000Z</time>
</trkpt>
<trkpt lat="45.9000120" lon="10.3114480">
	<ele>1265.60</ele>
	<time>2025-07-29T11:38:20.000Z</time>
</trkpt>
<trkpt lat="45.9000120" lon="10.3114480">
	<ele>1265.60</ele>
	<time>2025-07-29T11:38:21.000Z</time>
</trkpt>
<trkpt lat="45.9000120" lon="10.3114480">
	<ele>1265.60</ele>
	<time>2025-07-29T11:38:22.000Z</time>
</trkpt>
<trkpt lat="45.9000120" lon="10.3114480">
	<ele>1265.60</ele>
	<time>2025-07-29T11:38:23.000Z</time>
</trkpt>
<trkpt lat="45.9000120" lon="10.3114480">
	<ele>1265.60</ele>
	<time>2025-07-29T11:38:24.000Z</time>
</trkpt>
<trkpt lat="45.9000120" lon="10.3114480">
	<ele>1265.60</ele>
	<time>2025-07-29T11:38:25.000Z</time>
</trkpt>
<trkpt lat="45.9000120" lon="10.3114480">
	<ele>1265.60</ele>
	<time>2025-07-29T11:38:26.000Z</time>
</trkpt>
<trkpt lat="45.9000140" lon="10.3114480">
	<ele>1265.60</ele>
	<time>2025-07-29T11:38:27.000Z</time>
</trkpt>
<trkpt lat="45.9000220" lon="10.3114480">
	<ele>1265.60</ele>
	<time>2025-07-29T11:38:28.000Z</time>
</trkpt>
<trkpt lat="45.9000240" lon="10.3114480">
	<ele>1265.40</ele>
	<time>2025-07-29T11:38:29.000Z</time>
</trkpt>
<trkpt lat="45.9000240" lon="10.3114480">
	<ele>1265.40</ele>
	<time>2025-07-29T11:38:30.000Z</time>
</trkpt>
<trkpt lat="45.9000240" lon="10.3114480">
	<ele>1265.40</ele>
	<time>2025-07-29T11:38:31.000Z</time>
</trkpt>
<trkpt lat="45.9000250" lon="10.3114470">
	<ele>1265.40</ele>
	<time>2025-07-29T11:38:32.000Z</time>
</trkpt>
<trkpt lat="45.9000260" lon="10.3114470">
	<ele>1265.40</ele>
	<time>2025-07-29T11:38:33.000Z</time>
</trkpt>
<trkpt lat="45.9000270" lon="10.3114470">
	<ele>1265.40</ele>
	<time>2025-07-29T11:38:34.000Z</time>
</trkpt>
<trkpt lat="45.9000270" lon="10.3114470">
	<ele>1265.40</ele>
	<time>2025-07-29T11:38:35.000Z</time>
</trkpt>
<trkpt lat="45.9000280" lon="10.3114470">
	<ele>1265.60</ele>
	<time>2025-07-29T11:38:36.000Z</time>
</trkpt>
<trkpt lat="45.9000290" lon="10.3114470">
	<ele>1265.60</ele>
	<time>2025-07-29T11:38:37.000Z</time>
</trkpt>
<trkpt lat="45.9000300" lon="10.3114470">
	<ele>1265.60</ele>
	<time>2025-07-29T11:38:38.000Z</time>
</trkpt>
<trkpt lat="45.9000300" lon="10.3114470">
	<ele>1265.60</ele>
	<time>2025-07-29T11:38:39.000Z</time>
</trkpt>
<trkpt lat="45.9000310" lon="10.3114470">
	<ele>1265.60</ele>
	<time>2025-07-29T11:38:40.000Z</time>
</trkpt>
<trkpt lat="45.9000320" lon="10.3114450">
	<ele>1265.60</ele>
	<time>2025-07-29T11:38:41.000Z</time>
</trkpt>
<trkpt lat="45.9000320" lon="10.3114450">
	<ele>1265.60</ele>
	<time>2025-07-29T11:38:42.000Z</time>
</trkpt>
<trkpt lat="45.9000320" lon="10.3114450">
	<ele>1265.40</ele>
	<time>2025-07-29T11:38:43.000Z</time>
</trkpt>
<trkpt lat="45.9000330" lon="10.3114450">
	<ele>1265.40</ele>
	<time>2025-07-29T11:38:44.000Z</time>
</trkpt>
<trkpt lat="45.9000350" lon="10.3114450">
	<ele>1265.40</ele>
	<time>2025-07-29T11:38:45.000Z</time>
</trkpt>
<trkpt lat="45.9000370" lon="10.3114370">
	<ele>1265.40</ele>
	<time>2025-07-29T11:38:46.000Z</time>
</trkpt>
<trkpt lat="45.9000360" lon="10.3114340">
	<ele>1265.40</ele>
	<time>2025-07-29T11:38:47.000Z</time>
</trkpt>
<trkpt lat="45.9000320" lon="10.3114290">
	<ele>1265.40</ele>
	<time>2025-07-29T11:38:48.000Z</time>
</trkpt>
<trkpt lat="45.9000320" lon="10.3114300">
	<ele>1265.40</ele>
	<time>2025-07-29T11:38:49.000Z</time>
</trkpt>
<trkpt lat="45.9000350" lon="10.3114280">
	<ele>1265.40</ele>
	<time>2025-07-29T11:38:50.000Z</time>
</trkpt>
<trkpt lat="45.9000370" lon="10.3114280">
	<ele>1265.40</ele>
	<time>2025-07-29T11:38:51.000Z</time>
</trkpt>
<trkpt lat="45.9000400" lon="10.3114300">
	<ele>1265.40</ele>
	<time>2025-07-29T11:38:52.000Z</time>
</trkpt>
<trkpt lat="45.9000410" lon="10.3114320">
	<ele>1265.40</ele>
	<time>2025-07-29T11:38:53.000Z</time>
</trkpt>
<trkpt lat="45.9000430" lon="10.3114360">
	<ele>1265.40</ele>
	<time>2025-07-29T11:38:54.000Z</time>
</trkpt>
<trkpt lat="45.9000440" lon="10.3114390">
	<ele>1265.40</ele>
	<time>2025-07-29T11:38:55.000Z</time>
</trkpt>
<trkpt lat="45.9000420" lon="10.3114400">
	<ele>1265.40</ele>
	<time>2025-07-29T11:38:56.000Z</time>
</trkpt>
<trkpt lat="45.9000400" lon="10.3114410">
	<ele>1265.40</ele>
	<time>2025-07-29T11:38:57.000Z</time>
</trkpt>
<trkpt lat="45.9000380" lon="10.3114410">
	<ele>1265.40</ele>
	<time>2025-07-29T11:38:58.000Z</time>
</trkpt>
<trkpt lat="45.9000380" lon="10.3114390">
	<ele>1265.40</ele>
	<time>2025-07-29T11:38:59.000Z</time>
</trkpt>
<trkpt lat="45.9000470" lon="10.3114330">
	<ele>1265.40</ele>
	<time>2025-07-29T11:39:00.000Z</time>
</trkpt>
<trkpt lat="45.9000490" lon="10.3114330">
	<ele>1265.40</ele>
	<time>2025-07-29T11:39:01.000Z</time>
</trkpt>
<trkpt lat="45.9000630" lon="10.3114150">
	<ele>1265.40</ele>
	<time>2025-07-29T11:39:02.000Z</time>
</trkpt>
<trkpt lat="45.9000640" lon="10.3114100">
	<ele>1265.40</ele>
	<time>2025-07-29T11:39:03.000Z</time>
</trkpt>
<trkpt lat="45.9000580" lon="10.3114100">
	<ele>1265.40</ele>
	<time>2025-07-29T11:39:04.000Z</time>
</trkpt>
<trkpt lat="45.9000580" lon="10.3114100">
	<ele>1265.40</ele>
	<time>2025-07-29T11:39:05.000Z</time>
</trkpt>
<trkpt lat="45.9000580" lon="10.3114100">
	<ele>1265.40</ele>
	<time>2025-07-29T11:39:06.000Z</time>
</trkpt>
<trkpt lat="45.9000580" lon="10.3114100">
	<ele>1265.40</ele>
	<time>2025-07-29T11:39:07.000Z</time>
</trkpt>
<trkpt lat="45.9000580" lon="10.3114100">
	<ele>1265.40</ele>
	<time>2025-07-29T11:39:08.000Z</time>
</trkpt>
<trkpt lat="45.9000580" lon="10.3114100">
	<ele>1265.40</ele>
	<time>2025-07-29T11:39:09.000Z</time>
</trkpt>
<trkpt lat="45.9000580" lon="10.3114100">
	<ele>1265.40</ele>
	<time>2025-07-29T11:39:10.000Z</time>
</trkpt>
<trkpt lat="45.9000570" lon="10.3114040">
	<ele>1265.40</ele>
	<time>2025-07-29T11:39:11.000Z</time>
</trkpt>
<trkpt lat="45.9000530" lon="10.3113950">
	<ele>1265.40</ele>
	<time>2025-07-29T11:39:12.000Z</time>
</trkpt>
<trkpt lat="45.9000510" lon="10.3113870">
	<ele>1265.40</ele>
	<time>2025-07-29T11:39:13.000Z</time>
</trkpt>
<trkpt lat="45.9000490" lon="10.3113840">
	<ele>1265.40</ele>
	<time>2025-07-29T11:39:14.000Z</time>
</trkpt>
<trkpt lat="45.9000490" lon="10.3113790">
	<ele>1265.40</ele>
	<time>2025-07-29T11:39:15.000Z</time>
</trkpt>
<trkpt lat="45.9000500" lon="10.3113740">
	<ele>1265.40</ele>
	<time>2025-07-29T11:39:16.000Z</time>
</trkpt>
<trkpt lat="45.9000500" lon="10.3113690">
	<ele>1265.40</ele>
	<time>2025-07-29T11:39:17.000Z</time>
</trkpt>
<trkpt lat="45.9000530" lon="10.3113600">
	<ele>1265.40</ele>
	<time>2025-07-29T11:39:18.000Z</time>
</trkpt>
<trkpt lat="45.9000510" lon="10.3113500">
	<ele>1265.40</ele>
	<time>2025-07-29T11:39:19.000Z</time>
</trkpt>
<trkpt lat="45.9000580" lon="10.3113360">
	<ele>1265.40</ele>
	<time>2025-07-29T11:39:20.000Z</time>
</trkpt>
<trkpt lat="45.9000590" lon="10.3113310">
	<ele>1265.40</ele>
	<time>2025-07-29T11:39:21.000Z</time>
</trkpt>
<trkpt lat="45.9000610" lon="10.3113270">
	<ele>1265.40</ele>
	<time>2025-07-29T11:39:22.000Z</time>
</trkpt>
<trkpt lat="45.9000640" lon="10.3113280">
	<ele>1265.40</ele>
	<time>2025-07-29T11:39:23.000Z</time>
</trkpt>
<trkpt lat="45.9000620" lon="10.3113290">
	<ele>1265.40</ele>
	<time>2025-07-29T11:39:24.000Z</time>
</trkpt>
<trkpt lat="45.9000680" lon="10.3113230">
	<ele>1265.40</ele>
	<time>2025-07-29T11:39:25.000Z</time>
</trkpt>
<trkpt lat="45.9000700" lon="10.3113240">
	<ele>1265.40</ele>
	<time>2025-07-29T11:39:26.000Z</time>
</trkpt>
<trkpt lat="45.9000750" lon="10.3113250">
	<ele>1265.40</ele>
	<time>2025-07-29T11:39:27.000Z</time>
</trkpt>
<trkpt lat="45.9000760" lon="10.3113260">
	<ele>1265.40</ele>
	<time>2025-07-29T11:39:28.000Z</time>
</trkpt>
<trkpt lat="45.9000730" lon="10.3113280">
	<ele>1265.40</ele>
	<time>2025-07-29T11:39:29.000Z</time>
</trkpt>
<trkpt lat="45.9000710" lon="10.3113280">
	<ele>1265.40</ele>
	<time>2025-07-29T11:39:30.000Z</time>
</trkpt>
<trkpt lat="45.9000610" lon="10.3113300">
	<ele>1265.40</ele>
	<time>2025-07-29T11:39:31.000Z</time>
</trkpt>
<trkpt lat="45.9000590" lon="10.3113350">
	<ele>1265.40</ele>
	<time>2025-07-29T11:39:32.000Z</time>
</trkpt>
<trkpt lat="45.9000590" lon="10.3113370">
	<ele>1265.40</ele>
	<time>2025-07-29T11:39:33.000Z</time>
</trkpt>
<trkpt lat="45.9000580" lon="10.3113400">
	<ele>1265.40</ele>
	<time>2025-07-29T11:39:34.000Z</time>
</trkpt>
<trkpt lat="45.9000600" lon="10.3113390">
	<ele>1265.40</ele>
	<time>2025-07-29T11:39:35.000Z</time>
</trkpt>
<trkpt lat="45.9000670" lon="10.3113530">
	<ele>1265.40</ele>
	<time>2025-07-29T11:39:36.000Z</time>
</trkpt>
<trkpt lat="45.9000690" lon="10.3113580">
	<ele>1265.40</ele>
	<time>2025-07-29T11:39:37.000Z</time>
</trkpt>
<trkpt lat="45.9000720" lon="10.3113590">
	<ele>1265.40</ele>
	<time>2025-07-29T11:39:38.000Z</time>
</trkpt>
<trkpt lat="45.9000730" lon="10.3113610">
	<ele>1265.40</ele>
	<time>2025-07-29T11:39:39.000Z</time>
</trkpt>
<trkpt lat="45.9000800" lon="10.3113590">
	<ele>1265.40</ele>
	<time>2025-07-29T11:39:40.000Z</time>
</trkpt>
<trkpt lat="45.9000800" lon="10.3113630">
	<ele>1265.40</ele>
	<time>2025-07-29T11:39:41.000Z</time>
</trkpt>
<trkpt lat="45.9000810" lon="10.3113670">
	<ele>1265.40</ele>
	<time>2025-07-29T11:39:42.000Z</time>
</trkpt>
<trkpt lat="45.9000880" lon="10.3113700">
	<ele>1265.40</ele>
	<time>2025-07-29T11:39:43.000Z</time>
</trkpt>
<trkpt lat="45.9001000" lon="10.3113690">
	<ele>1265.40</ele>
	<time>2025-07-29T11:39:44.000Z</time>
</trkpt>
<trkpt lat="45.9001090" lon="10.3113830">
	<ele>1265.40</ele>
	<time>2025-07-29T11:39:45.000Z</time>
</trkpt>
<trkpt lat="45.9001130" lon="10.3114000">
	<ele>1265.40</ele>
	<time>2025-07-29T11:39:46.000Z</time>
</trkpt>
<trkpt lat="45.9001200" lon="10.3114230">
	<ele>1265.40</ele>
	<time>2025-07-29T11:39:47.000Z</time>
</trkpt>
<trkpt lat="45.9001270" lon="10.3114330">
	<ele>1265.40</ele>
	<time>2025-07-29T11:39:48.000Z</time>
</trkpt>
<trkpt lat="45.9001290" lon="10.3114490">
	<ele>1265.40</ele>
	<time>2025-07-29T11:39:49.000Z</time>
</trkpt>
<trkpt lat="45.9001280" lon="10.3114550">
	<ele>1265.40</ele>
	<time>2025-07-29T11:39:50.000Z</time>
</trkpt>
<trkpt lat="45.9001350" lon="10.3114700">
	<ele>1265.40</ele>
	<time>2025-07-29T11:39:51.000Z</time>
</trkpt>
<trkpt lat="45.9001410" lon="10.3114860">
	<ele>1265.40</ele>
	<time>2025-07-29T11:39:52.000Z</time>
</trkpt>
<trkpt lat="45.9001520" lon="10.3115020">
	<ele>1265.40</ele>
	<time>2025-07-29T11:39:53.000Z</time>
</trkpt>
<trkpt lat="45.9001650" lon="10.3115190">
	<ele>1263.20</ele>
	<time>2025-07-29T11:39:54.000Z</time>
</trkpt>
<trkpt lat="45.9001770" lon="10.3115360">
	<ele>1262.00</ele>
	<time>2025-07-29T11:39:55.000Z</time>
</trkpt>
<trkpt lat="45.9001870" lon="10.3115500">
	<ele>1261.20</ele>
	<time>2025-07-29T11:39:56.000Z</time>
</trkpt>
<trkpt lat="45.9001990" lon="10.3115650">
	<ele>1260.60</ele>
	<time>2025-07-29T11:39:57.000Z</time>
</trkpt>
<trkpt lat="45.9002090" lon="10.3115820">
	<ele>1260.00</ele>
	<time>2025-07-29T11:39:58.000Z</time>
</trkpt>
<trkpt lat="45.9002160" lon="10.3116050">
	<ele>1259.40</ele>
	<time>2025-07-29T11:39:59.000Z</time>
</trkpt>
<trkpt lat="45.9002240" lon="10.3116160">
	<ele>1259.20</ele>
	<time>2025-07-29T11:40:00.000Z</time>
</trkpt>
<trkpt lat="45.9002330" lon="10.3116280">
	<ele>1258.60</ele>
	<time>2025-07-29T11:40:01.000Z</time>
</trkpt>
<trkpt lat="45.9002420" lon="10.3116400">
	<ele>1258.20</ele>
	<time>2025-07-29T11:40:02.000Z</time>
</trkpt>
<trkpt lat="45.9002450" lon="10.3116400">
	<ele>1257.80</ele>
	<time>2025-07-29T11:40:03.000Z</time>
</trkpt>
<trkpt lat="45.9002480" lon="10.3116350">
	<ele>1257.40</ele>
	<time>2025-07-29T11:40:04.000Z</time>
</trkpt>
<trkpt lat="45.9002600" lon="10.3116250">
	<ele>1257.00</ele>
	<time>2025-07-29T11:40:05.000Z</time>
</trkpt>
<trkpt lat="45.9002740" lon="10.3116130">
	<ele>1256.80</ele>
	<time>2025-07-29T11:40:06.000Z</time>
</trkpt>
<trkpt lat="45.9002880" lon="10.3116000">
	<ele>1256.40</ele>
	<time>2025-07-29T11:40:07.000Z</time>
</trkpt>
<trkpt lat="45.9003020" lon="10.3116000">
	<ele>1256.00</ele>
	<time>2025-07-29T11:40:08.000Z</time>
</trkpt>
<trkpt lat="45.9003130" lon="10.3116050">
	<ele>1255.60</ele>
	<time>2025-07-29T11:40:09.000Z</time>
</trkpt>
<trkpt lat="45.9003280" lon="10.3116120">
	<ele>1255.20</ele>
	<time>2025-07-29T11:40:10.000Z</time>
</trkpt>
<trkpt lat="45.9003420" lon="10.3116140">
	<ele>1255.00</ele>
	<time>2025-07-29T11:40:11.000Z</time>
</trkpt>
<trkpt lat="45.9003560" lon="10.3116130">
	<ele>1254.60</ele>
	<time>2025-07-29T11:40:12.000Z</time>
</trkpt>
<trkpt lat="45.9003690" lon="10.3116080">
	<ele>1254.40</ele>
	<time>2025-07-29T11:40:13.000Z</time>
</trkpt>
<trkpt lat="45.9003830" lon="10.3115970">
	<ele>1254.00</ele>
	<time>2025-07-29T11:40:14.000Z</time>
</trkpt>
<trkpt lat="45.9003950" lon="10.3115820">
	<ele>1253.80</ele>
	<time>2025-07-29T11:40:15.000Z</time>
</trkpt>
<trkpt lat="45.9004060" lon="10.3115640">
	<ele>1253.60</ele>
	<time>2025-07-29T11:40:16.000Z</time>
</trkpt>
<trkpt lat="45.9004160" lon="10.3115420">
	<ele>1253.20</ele>
	<time>2025-07-29T11:40:17.000Z</time>
</trkpt>
<trkpt lat="45.9004250" lon="10.3115280">
	<ele>1252.80</ele>
	<time>2025-07-29T11:40:18.000Z</time>
</trkpt>
<trkpt lat="45.9004300" lon="10.3115160">
	<ele>1252.60</ele>
	<time>2025-07-29T11:40:19.000Z</time>
</trkpt>
<trkpt lat="45.9004370" lon="10.3115010">
	<ele>1252.20</ele>
	<time>2025-07-29T11:40:20.000Z</time>
</trkpt>
<trkpt lat="45.9004500" lon="10.3114790">
	<ele>1252.00</ele>
	<time>2025-07-29T11:40:21.000Z</time>
</trkpt>
<trkpt lat="45.9004610" lon="10.3114590">
	<ele>1251.80</ele>
	<time>2025-07-29T11:40:22.000Z</time>
</trkpt>
<trkpt lat="45.9004730" lon="10.3114310">
	<ele>1251.20</ele>
	<time>2025-07-29T11:40:23.000Z</time>
</trkpt>
<trkpt lat="45.9004820" lon="10.3113940">
	<ele>1250.80</ele>
	<time>2025-07-29T11:40:24.000Z</time>
</trkpt>
<trkpt lat="45.9004960" lon="10.3113650">
	<ele>1250.40</ele>
	<time>2025-07-29T11:40:25.000Z</time>
</trkpt>
<trkpt lat="45.9005020" lon="10.3113450">
	<ele>1250.20</ele>
	<time>2025-07-29T11:40:26.000Z</time>
</trkpt>
<trkpt lat="45.9005060" lon="10.3113220">
	<ele>1249.80</ele>
	<time>2025-07-29T11:40:27.000Z</time>
</trkpt>
<trkpt lat="45.9005200" lon="10.3113020">
	<ele>1249.40</ele>
	<time>2025-07-29T11:40:28.000Z</time>
</trkpt>
<trkpt lat="45.9005180" lon="10.3112870">
	<ele>1249.00</ele>
	<time>2025-07-29T11:40:29.000Z</time>
</trkpt>
<trkpt lat="45.9005120" lon="10.3112650">
	<ele>1248.80</ele>
	<time>2025-07-29T11:40:30.000Z</time>
</trkpt>
<trkpt lat="45.9005180" lon="10.3112480">
	<ele>1248.60</ele>
	<time>2025-07-29T11:40:31.000Z</time>
</trkpt>
<trkpt lat="45.9005330" lon="10.3112270">
	<ele>1248.20</ele>
	<time>2025-07-29T11:40:32.000Z</time>
</trkpt>
<trkpt lat="45.9005440" lon="10.3112060">
	<ele>1248.00</ele>
	<time>2025-07-29T11:40:33.000Z</time>
</trkpt>
<trkpt lat="45.9005560" lon="10.3111830">
	<ele>1247.60</ele>
	<time>2025-07-29T11:40:34.000Z</time>
</trkpt>
<trkpt lat="45.9005730" lon="10.3111630">
	<ele>1247.20</ele>
	<time>2025-07-29T11:40:35.000Z</time>
</trkpt>
<trkpt lat="45.9005910" lon="10.3111360">
	<ele>1247.00</ele>
	<time>2025-07-29T11:40:36.000Z</time>
</trkpt>
<trkpt lat="45.9006160" lon="10.3111100">
	<ele>1246.60</ele>
	<time>2025-07-29T11:40:37.000Z</time>
</trkpt>
<trkpt lat="45.9006340" lon="10.3110850">
	<ele>1246.40</ele>
	<time>2025-07-29T11:40:38.000Z</time>
</trkpt>
<trkpt lat="45.9006450" lon="10.3110680">
	<ele>1246.20</ele>
	<time>2025-07-29T11:40:39.000Z</time>
</trkpt>
<trkpt lat="45.9006580" lon="10.3110350">
	<ele>1246.00</ele>
	<time>2025-07-29T11:40:40.000Z</time>
</trkpt>
<trkpt lat="45.9006690" lon="10.3110170">
	<ele>1245.60</ele>
	<time>2025-07-29T11:40:41.000Z</time>
</trkpt>
<trkpt lat="45.9006840" lon="10.3109970">
	<ele>1245.20</ele>
	<time>2025-07-29T11:40:42.000Z</time>
</trkpt>
<trkpt lat="45.9006980" lon="10.3109790">
	<ele>1245.00</ele>
	<time>2025-07-29T11:40:43.000Z</time>
</trkpt>
<trkpt lat="45.9007050" lon="10.3109660">
	<ele>1244.60</ele>
	<time>2025-07-29T11:40:44.000Z</time>
</trkpt>
<trkpt lat="45.9007130" lon="10.3109530">
	<ele>1244.40</ele>
	<time>2025-07-29T11:40:45.000Z</time>
</trkpt>
<trkpt lat="45.9007220" lon="10.3109320">
	<ele>1244.20</ele>
	<time>2025-07-29T11:40:46.000Z</time>
</trkpt>
<trkpt lat="45.9007280" lon="10.3109160">
	<ele>1243.80</ele>
	<time>2025-07-29T11:40:47.000Z</time>
</trkpt>
<trkpt lat="45.9007330" lon="10.3108970">
	<ele>1243.40</ele>
	<time>2025-07-29T11:40:48.000Z</time>
</trkpt>
<trkpt lat="45.9007370" lon="10.3108790">
	<ele>1243.20</ele>
	<time>2025-07-29T11:40:49.000Z</time>
</trkpt>
<trkpt lat="45.9007410" lon="10.3108600">
	<ele>1242.80</ele>
	<time>2025-07-29T11:40:50.000Z</time>
</trkpt>
<trkpt lat="45.9007390" lon="10.3108410">
	<ele>1242.60</ele>
	<time>2025-07-29T11:40:51.000Z</time>
</trkpt>
<trkpt lat="45.9007310" lon="10.3108230">
	<ele>1242.20</ele>
	<time>2025-07-29T11:40:52.000Z</time>
</trkpt>
<trkpt lat="45.9007250" lon="10.3108000">
	<ele>1242.00</ele>
	<time>2025-07-29T11:40:53.000Z</time>
</trkpt>
<trkpt lat="45.9007240" lon="10.3107750">
	<ele>1241.60</ele>
	<time>2025-07-29T11:40:54.000Z</time>
</trkpt>
<trkpt lat="45.9007370" lon="10.3107490">
	<ele>1241.40</ele>
	<time>2025-07-29T11:40:55.000Z</time>
</trkpt>
<trkpt lat="45.9007460" lon="10.3107270">
	<ele>1241.20</ele>
	<time>2025-07-29T11:40:56.000Z</time>
</trkpt>
<trkpt lat="45.9007460" lon="10.3107010">
	<ele>1241.00</ele>
	<time>2025-07-29T11:40:57.000Z</time>
</trkpt>
<trkpt lat="45.9007520" lon="10.3106730">
	<ele>1240.60</ele>
	<time>2025-07-29T11:40:58.000Z</time>
</trkpt>
<trkpt lat="45.9007550" lon="10.3106530">
	<ele>1240.40</ele>
	<time>2025-07-29T11:40:59.000Z</time>
</trkpt>
<trkpt lat="45.9007540" lon="10.3106350">
	<ele>1240.00</ele>
	<time>2025-07-29T11:41:00.000Z</time>
</trkpt>
<trkpt lat="45.9007530" lon="10.3106120">
	<ele>1239.80</ele>
	<time>2025-07-29T11:41:01.000Z</time>
</trkpt>
<trkpt lat="45.9007470" lon="10.3105970">
	<ele>1239.60</ele>
	<time>2025-07-29T11:41:02.000Z</time>
</trkpt>
<trkpt lat="45.9007430" lon="10.3105820">
	<ele>1239.40</ele>
	<time>2025-07-29T11:41:03.000Z</time>
</trkpt>
<trkpt lat="45.9007430" lon="10.3105650">
	<ele>1239.00</ele>
	<time>2025-07-29T11:41:04.000Z</time>
</trkpt>
<trkpt lat="45.9007450" lon="10.3105570">
	<ele>1238.60</ele>
	<time>2025-07-29T11:41:05.000Z</time>
</trkpt>
<trkpt lat="45.9007510" lon="10.3105500">
	<ele>1238.40</ele>
	<time>2025-07-29T11:41:06.000Z</time>
</trkpt>
<trkpt lat="45.9007590" lon="10.3105480">
	<ele>1238.20</ele>
	<time>2025-07-29T11:41:07.000Z</time>
</trkpt>
<trkpt lat="45.9007670" lon="10.3105560">
	<ele>1238.00</ele>
	<time>2025-07-29T11:41:08.000Z</time>
</trkpt>
<trkpt lat="45.9007740" lon="10.3105690">
	<ele>1237.80</ele>
	<time>2025-07-29T11:41:09.000Z</time>
</trkpt>
<trkpt lat="45.9007820" lon="10.3105800">
	<ele>1237.40</ele>
	<time>2025-07-29T11:41:10.000Z</time>
</trkpt>
<trkpt lat="45.9007880" lon="10.3105840">
	<ele>1237.00</ele>
	<time>2025-07-29T11:41:11.000Z</time>
</trkpt>
<trkpt lat="45.9007870" lon="10.3105870">
	<ele>1236.80</ele>
	<time>2025-07-29T11:41:12.000Z</time>
</trkpt>
<trkpt lat="45.9007860" lon="10.3105890">
	<ele>1236.60</ele>
	<time>2025-07-29T11:41:13.000Z</time>
</trkpt>
<trkpt lat="45.9007850" lon="10.3105890">
	<ele>1236.40</ele>
	<time>2025-07-29T11:41:14.000Z</time>
</trkpt>
<trkpt lat="45.9007840" lon="10.3105870">
	<ele>1236.40</ele>
	<time>2025-07-29T11:41:15.000Z</time>
</trkpt>
<trkpt lat="45.9007830" lon="10.3105860">
	<ele>1236.40</ele>
	<time>2025-07-29T11:41:16.000Z</time>
</trkpt>
<trkpt lat="45.9007820" lon="10.3105850">
	<ele>1236.40</ele>
	<time>2025-07-29T11:41:17.000Z</time>
</trkpt>
<trkpt lat="45.9007810" lon="10.3105850">
	<ele>1236.40</ele>
	<time>2025-07-29T11:41:18.000Z</time>
</trkpt>
<trkpt lat="45.9007800" lon="10.3105820">
	<ele>1236.40</ele>
	<time>2025-07-29T11:41:19.000Z</time>
</trkpt>
<trkpt lat="45.9007800" lon="10.3105810">
	<ele>1236.40</ele>
	<time>2025-07-29T11:41:20.000Z</time>
</trkpt>
<trkpt lat="45.9007800" lon="10.3105810">
	<ele>1236.40</ele>
	<time>2025-07-29T11:41:21.000Z</time>
</trkpt>
<trkpt lat="45.9007800" lon="10.3105810">
	<ele>1236.40</ele>
	<time>2025-07-29T11:41:22.000Z</time>
</trkpt>
<trkpt lat="45.9007800" lon="10.3105810">
	<ele>1236.40</ele>
	<time>2025-07-29T11:41:23.000Z</time>
</trkpt>
<trkpt lat="45.9007800" lon="10.3105810">
	<ele>1236.40</ele>
	<time>2025-07-29T11:41:24.000Z</time>
</trkpt>
<trkpt lat="45.9007810" lon="10.3105850">
	<ele>1236.20</ele>
	<time>2025-07-29T11:41:25.000Z</time>
</trkpt>
<trkpt lat="45.9007890" lon="10.3106020">
	<ele>1236.00</ele>
	<time>2025-07-29T11:41:26.000Z</time>
</trkpt>
<trkpt lat="45.9007980" lon="10.3106190">
	<ele>1235.80</ele>
	<time>2025-07-29T11:41:27.000Z</time>
</trkpt>
<trkpt lat="45.9008090" lon="10.3106380">
	<ele>1235.60</ele>
	<time>2025-07-29T11:41:28.000Z</time>
</trkpt>
<trkpt lat="45.9008210" lon="10.3106580">
	<ele>1235.40</ele>
	<time>2025-07-29T11:41:29.000Z</time>
</trkpt>
<trkpt lat="45.9008310" lon="10.3106780">
	<ele>1235.20</ele>
	<time>2025-07-29T11:41:30.000Z</time>
</trkpt>
<trkpt lat="45.9008400" lon="10.3106990">
	<ele>1234.60</ele>
	<time>2025-07-29T11:41:31.000Z</time>
</trkpt>
<trkpt lat="45.9008520" lon="10.3107210">
	<ele>1234.20</ele>
	<time>2025-07-29T11:41:32.000Z</time>
</trkpt>
<trkpt lat="45.9008650" lon="10.3107440">
	<ele>1234.00</ele>
	<time>2025-07-29T11:41:33.000Z</time>
</trkpt>
<trkpt lat="45.9008780" lon="10.3107670">
	<ele>1233.60</ele>
	<time>2025-07-29T11:41:34.000Z</time>
</trkpt>
<trkpt lat="45.9008890" lon="10.3107830">
	<ele>1233.20</ele>
	<time>2025-07-29T11:41:35.000Z</time>
</trkpt>
<trkpt lat="45.9009000" lon="10.3108000">
	<ele>1233.00</ele>
	<time>2025-07-29T11:41:36.000Z</time>
</trkpt>
<trkpt lat="45.9009100" lon="10.3108150">
	<ele>1232.80</ele>
	<time>2025-07-29T11:41:37.000Z</time>
</trkpt>
<trkpt lat="45.9009200" lon="10.3108280">
	<ele>1232.60</ele>
	<time>2025-07-29T11:41:38.000Z</time>
</trkpt>
<trkpt lat="45.9009270" lon="10.3108430">
	<ele>1232.20</ele>
	<time>2025-07-29T11:41:39.000Z</time>
</trkpt>
<trkpt lat="45.9009350" lon="10.3108610">
	<ele>1232.00</ele>
	<time>2025-07-29T11:41:40.000Z</time>
</trkpt>
<trkpt lat="45.9009420" lon="10.3108790">
	<ele>1231.80</ele>
	<time>2025-07-29T11:41:41.000Z</time>
</trkpt>
<trkpt lat="45.9009530" lon="10.3108940">
	<ele>1231.60</ele>
	<time>2025-07-29T11:41:42.000Z</time>
</trkpt>
<trkpt lat="45.9009660" lon="10.3109060">
	<ele>1231.20</ele>
	<time>2025-07-29T11:41:43.000Z</time>
</trkpt>
<trkpt lat="45.9009750" lon="10.3109170">
	<ele>1231.00</ele>
	<time>2025-07-29T11:41:44.000Z</time>
</trkpt>
<trkpt lat="45.9009810" lon="10.3109290">
	<ele>1230.80</ele>
	<time>2025-07-29T11:41:45.000Z</time>
</trkpt>
<trkpt lat="45.9009910" lon="10.3109430">
	<ele>1230.60</ele>
	<time>2025-07-29T11:41:46.000Z</time>
</trkpt>
<trkpt lat="45.9010020" lon="10.3109570">
	<ele>1230.40</ele>
	<time>2025-07-29T11:41:47.000Z</time>
</trkpt>
<trkpt lat="45.9010110" lon="10.3109730">
	<ele>1230.20</ele>
	<time>2025-07-29T11:41:48.000Z</time>
</trkpt>
<trkpt lat="45.9010210" lon="10.3109900">
	<ele>1230.00</ele>
	<time>2025-07-29T11:41:49.000Z</time>
</trkpt>
<trkpt lat="45.9010300" lon="10.3110070">
	<ele>1229.80</ele>
	<time>2025-07-29T11:41:50.000Z</time>
</trkpt>
<trkpt lat="45.9010400" lon="10.3110210">
	<ele>1229.60</ele>
	<time>2025-07-29T11:41:51.000Z</time>
</trkpt>
<trkpt lat="45.9010450" lon="10.3110370">
	<ele>1229.20</ele>
	<time>2025-07-29T11:41:52.000Z</time>
</trkpt>
<trkpt lat="45.9010480" lon="10.3110590">
	<ele>1229.00</ele>
	<time>2025-07-29T11:41:53.000Z</time>
</trkpt>
<trkpt lat="45.9010500" lon="10.3110770">
	<ele>1228.80</ele>
	<time>2025-07-29T11:41:54.000Z</time>
</trkpt>
<trkpt lat="45.9010530" lon="10.3110910">
	<ele>1228.40</ele>
	<time>2025-07-29T11:41:55.000Z</time>
</trkpt>
<trkpt lat="45.9010580" lon="10.3111050">
	<ele>1228.20</ele>
	<time>2025-07-29T11:41:56.000Z</time>
</trkpt>
<trkpt lat="45.9010680" lon="10.3111170">
	<ele>1227.80</ele>
	<time>2025-07-29T11:41:57.000Z</time>
</trkpt>
<trkpt lat="45.9010750" lon="10.3111340">
	<ele>1227.60</ele>
	<time>2025-07-29T11:41:58.000Z</time>
</trkpt>
<trkpt lat="45.9010810" lon="10.3111550">
	<ele>1227.40</ele>
	<time>2025-07-29T11:41:59.000Z</time>
</trkpt>
<trkpt lat="45.9010910" lon="10.3111690">
	<ele>1227.40</ele>
	<time>2025-07-29T11:42:00.000Z</time>
</trkpt>
<trkpt lat="45.9011010" lon="10.3111810">
	<ele>1227.20</ele>
	<time>2025-07-29T11:42:01.000Z</time>
</trkpt>
<trkpt lat="45.9011130" lon="10.3111860">
	<ele>1227.20</ele>
	<time>2025-07-29T11:42:02.000Z</time>
</trkpt>
<trkpt lat="45.9011340" lon="10.3111940">
	<ele>1226.80</ele>
	<time>2025-07-29T11:42:03.000Z</time>
</trkpt>
<trkpt lat="45.9011490" lon="10.3111970">
	<ele>1226.60</ele>
	<time>2025-07-29T11:42:04.000Z</time>
</trkpt>
<trkpt lat="45.9011640" lon="10.3111930">
	<ele>1226.20</ele>
	<time>2025-07-29T11:42:05.000Z</time>
</trkpt>
<trkpt lat="45.9011810" lon="10.3111850">
	<ele>1226.00</ele>
	<time>2025-07-29T11:42:06.000Z</time>
</trkpt>
<trkpt lat="45.9011980" lon="10.3111780">
	<ele>1225.80</ele>
	<time>2025-07-29T11:42:07.000Z</time>
</trkpt>
<trkpt lat="45.9012190" lon="10.3111770">
	<ele>1225.40</ele>
	<time>2025-07-29T11:42:08.000Z</time>
</trkpt>
<trkpt lat="45.9012350" lon="10.3111650">
	<ele>1225.00</ele>
	<time>2025-07-29T11:42:09.000Z</time>
</trkpt>
<trkpt lat="45.9012530" lon="10.3111520">
	<ele>1224.60</ele>
	<time>2025-07-29T11:42:10.000Z</time>
</trkpt>
<trkpt lat="45.9012710" lon="10.3111440">
	<ele>1224.00</ele>
	<time>2025-07-29T11:42:11.000Z</time>
</trkpt>
<trkpt lat="45.9012840" lon="10.3111420">
	<ele>1223.60</ele>
	<time>2025-07-29T11:42:12.000Z</time>
</trkpt>
<trkpt lat="45.9013000" lon="10.3111350">
	<ele>1223.40</ele>
	<time>2025-07-29T11:42:13.000Z</time>
</trkpt>
<trkpt lat="45.9013180" lon="10.3111260">
	<ele>1223.20</ele>
	<time>2025-07-29T11:42:14.000Z</time>
</trkpt>
<trkpt lat="45.9013370" lon="10.3111150">
	<ele>1222.80</ele>
	<time>2025-07-29T11:42:15.000Z</time>
</trkpt>
<trkpt lat="45.9013510" lon="10.3110970">
	<ele>1222.80</ele>
	<time>2025-07-29T11:42:16.000Z</time>
</trkpt>
<trkpt lat="45.9013620" lon="10.3110740">
	<ele>1222.20</ele>
	<time>2025-07-29T11:42:17.000Z</time>
</trkpt>
<trkpt lat="45.9013660" lon="10.3110490">
	<ele>1222.00</ele>
	<time>2025-07-29T11:42:18.000Z</time>
</trkpt>
<trkpt lat="45.9013700" lon="10.3110280">
	<ele>1221.80</ele>
	<time>2025-07-29T11:42:19.000Z</time>
</trkpt>
<trkpt lat="45.9013750" lon="10.3110060">
	<ele>1221.40</ele>
	<time>2025-07-29T11:42:20.000Z</time>
</trkpt>
<trkpt lat="45.9013770" lon="10.3109860">
	<ele>1221.20</ele>
	<time>2025-07-29T11:42:21.000Z</time>
</trkpt>
<trkpt lat="45.9013760" lon="10.3109740">
	<ele>1221.00</ele>
	<time>2025-07-29T11:42:22.000Z</time>
</trkpt>
<trkpt lat="45.9013810" lon="10.3109560">
	<ele>1220.80</ele>
	<time>2025-07-29T11:42:23.000Z</time>
</trkpt>
<trkpt lat="45.9013790" lon="10.3109430">
	<ele>1220.40</ele>
	<time>2025-07-29T11:42:24.000Z</time>
</trkpt>
<trkpt lat="45.9013860" lon="10.3109190">
	<ele>1220.20</ele>
	<time>2025-07-29T11:42:25.000Z</time>
</trkpt>
<trkpt lat="45.9013950" lon="10.3108950">
	<ele>1220.00</ele>
	<time>2025-07-29T11:42:26.000Z</time>
</trkpt>
<trkpt lat="45.9014010" lon="10.3108690">
	<ele>1219.80</ele>
	<time>2025-07-29T11:42:27.000Z</time>
</trkpt>
<trkpt lat="45.9014030" lon="10.3108470">
	<ele>1219.80</ele>
	<time>2025-07-29T11:42:28.000Z</time>
</trkpt>
<trkpt lat="45.9013980" lon="10.3108360">
	<ele>1219.40</ele>
	<time>2025-07-29T11:42:29.000Z</time>
</trkpt>
<trkpt lat="45.9014020" lon="10.3108300">
	<ele>1219.20</ele>
	<time>2025-07-29T11:42:30.000Z</time>
</trkpt>
<trkpt lat="45.9014070" lon="10.3108220">
	<ele>1219.20</ele>
	<time>2025-07-29T11:42:31.000Z</time>
</trkpt>
<trkpt lat="45.9014140" lon="10.3108060">
	<ele>1218.80</ele>
	<time>2025-07-29T11:42:32.000Z</time>
</trkpt>
<trkpt lat="45.9014150" lon="10.3107880">
	<ele>1218.60</ele>
	<time>2025-07-29T11:42:33.000Z</time>
</trkpt>
<trkpt lat="45.9014220" lon="10.3107750">
	<ele>1218.20</ele>
	<time>2025-07-29T11:42:34.000Z</time>
</trkpt>
<trkpt lat="45.9014250" lon="10.3107590">
	<ele>1218.00</ele>
	<time>2025-07-29T11:42:35.000Z</time>
</trkpt>
<trkpt lat="45.9014360" lon="10.3107500">
	<ele>1217.60</ele>
	<time>2025-07-29T11:42:36.000Z</time>
</trkpt>
<trkpt lat="45.9014460" lon="10.3107410">
	<ele>1217.20</ele>
	<time>2025-07-29T11:42:37.000Z</time>
</trkpt>
<trkpt lat="45.9014490" lon="10.3107280">
	<ele>1216.80</ele>
	<time>2025-07-29T11:42:38.000Z</time>
</trkpt>
<trkpt lat="45.9014530" lon="10.3107050">
	<ele>1216.60</ele>
	<time>2025-07-29T11:42:39.000Z</time>
</trkpt>
<trkpt lat="45.9014570" lon="10.3106900">
	<ele>1216.40</ele>
	<time>2025-07-29T11:42:40.000Z</time>
</trkpt>
<trkpt lat="45.9014620" lon="10.3106760">
	<ele>1216.00</ele>
	<time>2025-07-29T11:42:41.000Z</time>
</trkpt>
<trkpt lat="45.9014680" lon="10.3106600">
	<ele>1215.60</ele>
	<time>2025-07-29T11:42:42.000Z</time>
</trkpt>
<trkpt lat="45.9014720" lon="10.3106420">
	<ele>1215.20</ele>
	<time>2025-07-29T11:42:43.000Z</time>
</trkpt>
<trkpt lat="45.9014740" lon="10.3106210">
	<ele>1215.00</ele>
	<time>2025-07-29T11:42:44.000Z</time>
</trkpt>
<trkpt lat="45.9014820" lon="10.3106000">
	<ele>1214.60</ele>
	<time>2025-07-29T11:42:45.000Z</time>
</trkpt>
<trkpt lat="45.9014910" lon="10.3105800">
	<ele>1214.20</ele>
	<time>2025-07-29T11:42:46.000Z</time>
</trkpt>
<trkpt lat="45.9015000" lon="10.3105630">
	<ele>1213.80</ele>
	<time>2025-07-29T11:42:47.000Z</time>
</trkpt>
<trkpt lat="45.9015070" lon="10.3105410">
	<ele>1213.40</ele>
	<time>2025-07-29T11:42:48.000Z</time>
</trkpt>
<trkpt lat="45.9015160" lon="10.3105210">
	<ele>1213.00</ele>
	<time>2025-07-29T11:42:49.000Z</time>
</trkpt>
<trkpt lat="45.9015270" lon="10.3105020">
	<ele>1212.60</ele>
	<time>2025-07-29T11:42:50.000Z</time>
</trkpt>
<trkpt lat="45.9015310" lon="10.3104770">
	<ele>1212.20</ele>
	<time>2025-07-29T11:42:51.000Z</time>
</trkpt>
<trkpt lat="45.9015360" lon="10.3104520">
	<ele>1212.00</ele>
	<time>2025-07-29T11:42:52.000Z</time>
</trkpt>
<trkpt lat="45.9015400" lon="10.3104270">
	<ele>1211.60</ele>
	<time>2025-07-29T11:42:53.000Z</time>
</trkpt>
<trkpt lat="45.9015400" lon="10.3103980">
	<ele>1211.40</ele>
	<time>2025-07-29T11:42:54.000Z</time>
</trkpt>
<trkpt lat="45.9015360" lon="10.3103710">
	<ele>1211.00</ele>
	<time>2025-07-29T11:42:55.000Z</time>
</trkpt>
<trkpt lat="45.9015350" lon="10.3103440">
	<ele>1210.80</ele>
	<time>2025-07-29T11:42:56.000Z</time>
</trkpt>
<trkpt lat="45.9015320" lon="10.3103180">
	<ele>1210.40</ele>
	<time>2025-07-29T11:42:57.000Z</time>
</trkpt>
<trkpt lat="45.9015280" lon="10.3102960">
	<ele>1210.00</ele>
	<time>2025-07-29T11:42:58.000Z</time>
</trkpt>
<trkpt lat="45.9015240" lon="10.3102770">
	<ele>1209.60</ele>
	<time>2025-07-29T11:42:59.000Z</time>
</trkpt>
<trkpt lat="45.9015230" lon="10.3102600">
	<ele>1209.40</ele>
	<time>2025-07-29T11:43:00.000Z</time>
</trkpt>
<trkpt lat="45.9015270" lon="10.3102410">
	<ele>1209.20</ele>
	<time>2025-07-29T11:43:01.000Z</time>
</trkpt>
<trkpt lat="45.9015350" lon="10.3102200">
	<ele>1208.80</ele>
	<time>2025-07-29T11:43:02.000Z</time>
</trkpt>
<trkpt lat="45.9015570" lon="10.3101980">
	<ele>1208.40</ele>
	<time>2025-07-29T11:43:03.000Z</time>
</trkpt>
<trkpt lat="45.9015670" lon="10.3101750">
	<ele>1208.20</ele>
	<time>2025-07-29T11:43:04.000Z</time>
</trkpt>
<trkpt lat="45.9015750" lon="10.3101570">
	<ele>1207.80</ele>
	<time>2025-07-29T11:43:05.000Z</time>
</trkpt>
<trkpt lat="45.9015740" lon="10.3101350">
	<ele>1207.60</ele>
	<time>2025-07-29T11:43:06.000Z</time>
</trkpt>
<trkpt lat="45.9015640" lon="10.3101170">
	<ele>1207.40</ele>
	<time>2025-07-29T11:43:07.000Z</time>
</trkpt>
<trkpt lat="45.9015630" lon="10.3101100">
	<ele>1206.80</ele>
	<time>2025-07-29T11:43:08.000Z</time>
</trkpt>
<trkpt lat="45.9015710" lon="10.3101020">
	<ele>1206.60</ele>
	<time>2025-07-29T11:43:09.000Z</time>
</trkpt>
<trkpt lat="45.9015790" lon="10.3100970">
	<ele>1206.00</ele>
	<time>2025-07-29T11:43:10.000Z</time>
</trkpt>
<trkpt lat="45.9015860" lon="10.3100900">
	<ele>1205.80</ele>
	<time>2025-07-29T11:43:11.000Z</time>
</trkpt>
<trkpt lat="45.9015940" lon="10.3100810">
	<ele>1205.20</ele>
	<time>2025-07-29T11:43:12.000Z</time>
</trkpt>
<trkpt lat="45.9016020" lon="10.3100720">
	<ele>1205.00</ele>
	<time>2025-07-29T11:43:13.000Z</time>
</trkpt>
<trkpt lat="45.9016150" lon="10.3100680">
	<ele>1204.80</ele>
	<time>2025-07-29T11:43:14.000Z</time>
</trkpt>
<trkpt lat="45.9016270" lon="10.3100690">
	<ele>1204.40</ele>
	<time>2025-07-29T11:43:15.000Z</time>
</trkpt>
<trkpt lat="45.9016370" lon="10.3100750">
	<ele>1204.20</ele>
	<time>2025-07-29T11:43:16.000Z</time>
</trkpt>
<trkpt lat="45.9016450" lon="10.3100870">
	<ele>1203.80</ele>
	<time>2025-07-29T11:43:17.000Z</time>
</trkpt>
<trkpt lat="45.9016560" lon="10.3101010">
	<ele>1203.60</ele>
	<time>2025-07-29T11:43:18.000Z</time>
</trkpt>
<trkpt lat="45.9016630" lon="10.3101140">
	<ele>1203.20</ele>
	<time>2025-07-29T11:43:19.000Z</time>
</trkpt>
<trkpt lat="45.9016700" lon="10.3101300">
	<ele>1203.00</ele>
	<time>2025-07-29T11:43:20.000Z</time>
</trkpt>
<trkpt lat="45.9016820" lon="10.3101490">
	<ele>1202.80</ele>
	<time>2025-07-29T11:43:21.000Z</time>
</trkpt>
<trkpt lat="45.9016890" lon="10.3101650">
	<ele>1202.20</ele>
	<time>2025-07-29T11:43:22.000Z</time>
</trkpt>
<trkpt lat="45.9016900" lon="10.3101860">
	<ele>1202.00</ele>
	<time>2025-07-29T11:43:23.000Z</time>
</trkpt>
<trkpt lat="45.9016900" lon="10.3102130">
	<ele>1201.80</ele>
	<time>2025-07-29T11:43:24.000Z</time>
</trkpt>
<trkpt lat="45.9016870" lon="10.3102390">
	<ele>1201.80</ele>
	<time>2025-07-29T11:43:25.000Z</time>
</trkpt>
<trkpt lat="45.9016930" lon="10.3102590">
	<ele>1201.60</ele>
	<time>2025-07-29T11:43:26.000Z</time>
</trkpt>
<trkpt lat="45.9016990" lon="10.3102810">
	<ele>1201.20</ele>
	<time>2025-07-29T11:43:27.000Z</time>
</trkpt>
<trkpt lat="45.9017170" lon="10.3103000">
	<ele>1201.20</ele>
	<time>2025-07-29T11:43:28.000Z</time>
</trkpt>
<trkpt lat="45.9017270" lon="10.3103130">
	<ele>1200.80</ele>
	<time>2025-07-29T11:43:29.000Z</time>
</trkpt>
<trkpt lat="45.9017370" lon="10.3103280">
	<ele>1200.60</ele>
	<time>2025-07-29T11:43:30.000Z</time>
</trkpt>
<trkpt lat="45.9017370" lon="10.3103440">
	<ele>1200.40</ele>
	<time>2025-07-29T11:43:31.000Z</time>
</trkpt>
<trkpt lat="45.9017410" lon="10.3103610">
	<ele>1200.20</ele>
	<time>2025-07-29T11:43:32.000Z</time>
</trkpt>
<trkpt lat="45.9017500" lon="10.3103790">
	<ele>1200.00</ele>
	<time>2025-07-29T11:43:33.000Z</time>
</trkpt>
<trkpt lat="45.9017550" lon="10.3103960">
	<ele>1199.80</ele>
	<time>2025-07-29T11:43:34.000Z</time>
</trkpt>
<trkpt lat="45.9017630" lon="10.3104050">
	<ele>1199.60</ele>
	<time>2025-07-29T11:43:35.000Z</time>
</trkpt>
<trkpt lat="45.9017680" lon="10.3104140">
	<ele>1199.60</ele>
	<time>2025-07-29T11:43:36.000Z</time>
</trkpt>
<trkpt lat="45.9017810" lon="10.3104260">
	<ele>1199.20</ele>
	<time>2025-07-29T11:43:37.000Z</time>
</trkpt>
<trkpt lat="45.9017920" lon="10.3104430">
	<ele>1198.80</ele>
	<time>2025-07-29T11:43:38.000Z</time>
</trkpt>
<trkpt lat="45.9018040" lon="10.3104570">
	<ele>1198.60</ele>
	<time>2025-07-29T11:43:39.000Z</time>
</trkpt>
<trkpt lat="45.9018240" lon="10.3104570">
	<ele>1198.40</ele>
	<time>2025-07-29T11:43:40.000Z</time>
</trkpt>
<trkpt lat="45.9018460" lon="10.3104610">
	<ele>1198.20</ele>
	<time>2025-07-29T11:43:41.000Z</time>
</trkpt>
<trkpt lat="45.9018620" lon="10.3104690">
	<ele>1198.00</ele>
	<time>2025-07-29T11:43:42.000Z</time>
</trkpt>
<trkpt lat="45.9018680" lon="10.3104680">
	<ele>1197.80</ele>
	<time>2025-07-29T11:43:43.000Z</time>
</trkpt>
<trkpt lat="45.9018840" lon="10.3104550">
	<ele>1197.80</ele>
	<time>2025-07-29T11:43:44.000Z</time>
</trkpt>
<trkpt lat="45.9018990" lon="10.3104250">
	<ele>1197.60</ele>
	<time>2025-07-29T11:43:45.000Z</time>
</trkpt>
<trkpt lat="45.9019020" lon="10.3104010">
	<ele>1197.40</ele>
	<time>2025-07-29T11:43:46.000Z</time>
</trkpt>
<trkpt lat="45.9018960" lon="10.3103830">
	<ele>1197.20</ele>
	<time>2025-07-29T11:43:47.000Z</time>
</trkpt>
<trkpt lat="45.9018930" lon="10.3103620">
	<ele>1197.00</ele>
	<time>2025-07-29T11:43:48.000Z</time>
</trkpt>
<trkpt lat="45.9018940" lon="10.3103420">
	<ele>1196.80</ele>
	<time>2025-07-29T11:43:49.000Z</time>
</trkpt>
<trkpt lat="45.9018940" lon="10.3103230">
	<ele>1196.60</ele>
	<time>2025-07-29T11:43:50.000Z</time>
</trkpt>
<trkpt lat="45.9018930" lon="10.3103080">
	<ele>1196.40</ele>
	<time>2025-07-29T11:43:51.000Z</time>
</trkpt>
<trkpt lat="45.9018940" lon="10.3102880">
	<ele>1196.20</ele>
	<time>2025-07-29T11:43:52.000Z</time>
</trkpt>
<trkpt lat="45.9018920" lon="10.3102700">
	<ele>1196.20</ele>
	<time>2025-07-29T11:43:53.000Z</time>
</trkpt>
<trkpt lat="45.9018920" lon="10.3102490">
	<ele>1195.80</ele>
	<time>2025-07-29T11:43:54.000Z</time>
</trkpt>
<trkpt lat="45.9018920" lon="10.3102310">
	<ele>1195.40</ele>
	<time>2025-07-29T11:43:55.000Z</time>
</trkpt>
<trkpt lat="45.9019050" lon="10.3102090">
	<ele>1195.20</ele>
	<time>2025-07-29T11:43:56.000Z</time>
</trkpt>
<trkpt lat="45.9019150" lon="10.3101960">
	<ele>1194.80</ele>
	<time>2025-07-29T11:43:57.000Z</time>
</trkpt>
<trkpt lat="45.9019240" lon="10.3101780">
	<ele>1194.40</ele>
	<time>2025-07-29T11:43:58.000Z</time>
</trkpt>
<trkpt lat="45.9019250" lon="10.3101720">
	<ele>1194.00</ele>
	<time>2025-07-29T11:43:59.000Z</time>
</trkpt>
<trkpt lat="45.9019270" lon="10.3101580">
	<ele>1193.80</ele>
	<time>2025-07-29T11:44:00.000Z</time>
</trkpt>
<trkpt lat="45.9019310" lon="10.3101430">
	<ele>1193.40</ele>
	<time>2025-07-29T11:44:01.000Z</time>
</trkpt>
<trkpt lat="45.9019370" lon="10.3101220">
	<ele>1193.00</ele>
	<time>2025-07-29T11:44:02.000Z</time>
</trkpt>
<trkpt lat="45.9019410" lon="10.3100990">
	<ele>1192.60</ele>
	<time>2025-07-29T11:44:03.000Z</time>
</trkpt>
<trkpt lat="45.9019460" lon="10.3100800">
	<ele>1192.20</ele>
	<time>2025-07-29T11:44:04.000Z</time>
</trkpt>
<trkpt lat="45.9019570" lon="10.3100590">
	<ele>1192.00</ele>
	<time>2025-07-29T11:44:05.000Z</time>
</trkpt>
<trkpt lat="45.9019580" lon="10.3100410">
	<ele>1191.80</ele>
	<time>2025-07-29T11:44:06.000Z</time>
</trkpt>
<trkpt lat="45.9019520" lon="10.3100040">
	<ele>1191.60</ele>
	<time>2025-07-29T11:44:07.000Z</time>
</trkpt>
<trkpt lat="45.9019500" lon="10.3099680">
	<ele>1191.40</ele>
	<time>2025-07-29T11:44:08.000Z</time>
</trkpt>
<trkpt lat="45.9019520" lon="10.3099320">
	<ele>1191.20</ele>
	<time>2025-07-29T11:44:09.000Z</time>
</trkpt>
<trkpt lat="45.9019510" lon="10.3099030">
	<ele>1190.80</ele>
	<time>2025-07-29T11:44:10.000Z</time>
</trkpt>
<trkpt lat="45.9019560" lon="10.3098810">
	<ele>1190.60</ele>
	<time>2025-07-29T11:44:11.000Z</time>
</trkpt>
<trkpt lat="45.9019450" lon="10.3098600">
	<ele>1190.40</ele>
	<time>2025-07-29T11:44:12.000Z</time>
</trkpt>
<trkpt lat="45.9019260" lon="10.3098330">
	<ele>1190.00</ele>
	<time>2025-07-29T11:44:13.000Z</time>
</trkpt>
<trkpt lat="45.9019090" lon="10.3098160">
	<ele>1189.80</ele>
	<time>2025-07-29T11:44:14.000Z</time>
</trkpt>
<trkpt lat="45.9018920" lon="10.3098130">
	<ele>1189.60</ele>
	<time>2025-07-29T11:44:15.000Z</time>
</trkpt>
<trkpt lat="45.9018790" lon="10.3098050">
	<ele>1189.20</ele>
	<time>2025-07-29T11:44:16.000Z</time>
</trkpt>
<trkpt lat="45.9018720" lon="10.3097930">
	<ele>1189.00</ele>
	<time>2025-07-29T11:44:17.000Z</time>
</trkpt>
<trkpt lat="45.9018630" lon="10.3097750">
	<ele>1188.80</ele>
	<time>2025-07-29T11:44:18.000Z</time>
</trkpt>
<trkpt lat="45.9018590" lon="10.3097710">
	<ele>1188.60</ele>
	<time>2025-07-29T11:44:19.000Z</time>
</trkpt>
<trkpt lat="45.9018590" lon="10.3097690">
	<ele>1188.60</ele>
	<time>2025-07-29T11:44:20.000Z</time>
</trkpt>
<trkpt lat="45.9018590" lon="10.3097670">
	<ele>1188.60</ele>
	<time>2025-07-29T11:44:21.000Z</time>
</trkpt>
<trkpt lat="45.9018580" lon="10.3097650">
	<ele>1188.60</ele>
	<time>2025-07-29T11:44:22.000Z</time>
</trkpt>
<trkpt lat="45.9018610" lon="10.3097710">
	<ele>1188.60</ele>
	<time>2025-07-29T11:44:23.000Z</time>
</trkpt>
<trkpt lat="45.9018640" lon="10.3097910">
	<ele>1188.80</ele>
	<time>2025-07-29T11:44:24.000Z</time>
</trkpt>
<trkpt lat="45.9018640" lon="10.3097960">
	<ele>1188.80</ele>
	<time>2025-07-29T11:44:25.000Z</time>
</trkpt>
<trkpt lat="45.9018680" lon="10.3098060">
	<ele>1188.80</ele>
	<time>2025-07-29T11:44:26.000Z</time>
</trkpt>
<trkpt lat="45.9018660" lon="10.3098080">
	<ele>1188.80</ele>
	<time>2025-07-29T11:44:27.000Z</time>
</trkpt>
<trkpt lat="45.9018640" lon="10.3098050">
	<ele>1188.80</ele>
	<time>2025-07-29T11:44:28.000Z</time>
</trkpt>
<trkpt lat="45.9018650" lon="10.3097980">
	<ele>1188.60</ele>
	<time>2025-07-29T11:44:29.000Z</time>
</trkpt>
<trkpt lat="45.9018550" lon="10.3097880">
	<ele>1188.40</ele>
	<time>2025-07-29T11:44:30.000Z</time>
</trkpt>
<trkpt lat="45.9018470" lon="10.3097850">
	<ele>1188.20</ele>
	<time>2025-07-29T11:44:31.000Z</time>
</trkpt>
<trkpt lat="45.9018450" lon="10.3097740">
	<ele>1188.20</ele>
	<time>2025-07-29T11:44:32.000Z</time>
</trkpt>
<trkpt lat="45.9018430" lon="10.3097640">
	<ele>1188.00</ele>
	<time>2025-07-29T11:44:33.000Z</time>
</trkpt>
<trkpt lat="45.9018480" lon="10.3097540">
	<ele>1187.80</ele>
	<time>2025-07-29T11:44:34.000Z</time>
</trkpt>
<trkpt lat="45.9018540" lon="10.3097480">
	<ele>1187.60</ele>
	<time>2025-07-29T11:44:35.000Z</time>
</trkpt>
<trkpt lat="45.9018650" lon="10.3097440">
	<ele>1187.40</ele>
	<time>2025-07-29T11:44:36.000Z</time>
</trkpt>
<trkpt lat="45.9018750" lon="10.3097430">
	<ele>1187.20</ele>
	<time>2025-07-29T11:44:37.000Z</time>
</trkpt>
<trkpt lat="45.9018930" lon="10.3097570">
	<ele>1187.00</ele>
	<time>2025-07-29T11:44:38.000Z</time>
</trkpt>
<trkpt lat="45.9019030" lon="10.3097700">
	<ele>1186.60</ele>
	<time>2025-07-29T11:44:39.000Z</time>
</trkpt>
<trkpt lat="45.9019100" lon="10.3097840">
	<ele>1186.40</ele>
	<time>2025-07-29T11:44:40.000Z</time>
</trkpt>
<trkpt lat="45.9019180" lon="10.3097940">
	<ele>1186.00</ele>
	<time>2025-07-29T11:44:41.000Z</time>
</trkpt>
<trkpt lat="45.9019310" lon="10.3098050">
	<ele>1185.60</ele>
	<time>2025-07-29T11:44:42.000Z</time>
</trkpt>
<trkpt lat="45.9019450" lon="10.3098130">
	<ele>1185.20</ele>
	<time>2025-07-29T11:44:43.000Z</time>
</trkpt>
<trkpt lat="45.9019600" lon="10.3098190">
	<ele>1185.00</ele>
	<time>2025-07-29T11:44:44.000Z</time>
</trkpt>
<trkpt lat="45.9019730" lon="10.3098310">
	<ele>1184.60</ele>
	<time>2025-07-29T11:44:45.000Z</time>
</trkpt>
<trkpt lat="45.9019830" lon="10.3098390">
	<ele>1184.20</ele>
	<time>2025-07-29T11:44:46.000Z</time>
</trkpt>
<trkpt lat="45.9019970" lon="10.3098470">
	<ele>1183.80</ele>
	<time>2025-07-29T11:44:47.000Z</time>
</trkpt>
<trkpt lat="45.9020110" lon="10.3098470">
	<ele>1183.40</ele>
	<time>2025-07-29T11:44:48.000Z</time>
</trkpt>
<trkpt lat="45.9020220" lon="10.3098490">
	<ele>1183.20</ele>
	<time>2025-07-29T11:44:49.000Z</time>
</trkpt>
<trkpt lat="45.9020340" lon="10.3098530">
	<ele>1182.80</ele>
	<time>2025-07-29T11:44:50.000Z</time>
</trkpt>
<trkpt lat="45.9020500" lon="10.3098540">
	<ele>1182.60</ele>
	<time>2025-07-29T11:44:51.000Z</time>
</trkpt>
<trkpt lat="45.9020660" lon="10.3098540">
	<ele>1182.40</ele>
	<time>2025-07-29T11:44:52.000Z</time>
</trkpt>
<trkpt lat="45.9020870" lon="10.3098560">
	<ele>1182.20</ele>
	<time>2025-07-29T11:44:53.000Z</time>
</trkpt>
<trkpt lat="45.9020970" lon="10.3098650">
	<ele>1182.00</ele>
	<time>2025-07-29T11:44:54.000Z</time>
</trkpt>
<trkpt lat="45.9020980" lon="10.3098810">
	<ele>1181.40</ele>
	<time>2025-07-29T11:44:55.000Z</time>
</trkpt>
<trkpt lat="45.9020960" lon="10.3098930">
	<ele>1181.20</ele>
	<time>2025-07-29T11:44:56.000Z</time>
</trkpt>
<trkpt lat="45.9020900" lon="10.3099110">
	<ele>1180.80</ele>
	<time>2025-07-29T11:44:57.000Z</time>
</trkpt>
<trkpt lat="45.9020900" lon="10.3099230">
	<ele>1180.40</ele>
	<time>2025-07-29T11:44:58.000Z</time>
</trkpt>
<trkpt lat="45.9020920" lon="10.3099290">
	<ele>1180.20</ele>
	<time>2025-07-29T11:44:59.000Z</time>
</trkpt>
<trkpt lat="45.9021010" lon="10.3099300">
	<ele>1180.00</ele>
	<time>2025-07-29T11:45:00.000Z</time>
</trkpt>
<trkpt lat="45.9021160" lon="10.3099320">
	<ele>1179.60</ele>
	<time>2025-07-29T11:45:01.000Z</time>
</trkpt>
<trkpt lat="45.9021300" lon="10.3099350">
	<ele>1179.60</ele>
	<time>2025-07-29T11:45:02.000Z</time>
</trkpt>
<trkpt lat="45.9021370" lon="10.3099290">
	<ele>1179.40</ele>
	<time>2025-07-29T11:45:03.000Z</time>
</trkpt>
<trkpt lat="45.9021440" lon="10.3099260">
	<ele>1179.20</ele>
	<time>2025-07-29T11:45:04.000Z</time>
</trkpt>
<trkpt lat="45.9021510" lon="10.3099210">
	<ele>1179.00</ele>
	<time>2025-07-29T11:45:05.000Z</time>
</trkpt>
<trkpt lat="45.9021550" lon="10.3099080">
	<ele>1178.60</ele>
	<time>2025-07-29T11:45:06.000Z</time>
</trkpt>
<trkpt lat="45.9021580" lon="10.3098910">
	<ele>1178.60</ele>
	<time>2025-07-29T11:45:07.000Z</time>
</trkpt>
<trkpt lat="45.9021550" lon="10.3098690">
	<ele>1178.40</ele>
	<time>2025-07-29T11:45:08.000Z</time>
</trkpt>
<trkpt lat="45.9021520" lon="10.3098480">
	<ele>1178.20</ele>
	<time>2025-07-29T11:45:09.000Z</time>
</trkpt>
<trkpt lat="45.9021490" lon="10.3098260">
	<ele>1178.00</ele>
	<time>2025-07-29T11:45:10.000Z</time>
</trkpt>
<trkpt lat="45.9021420" lon="10.3098090">
	<ele>1178.00</ele>
	<time>2025-07-29T11:45:11.000Z</time>
</trkpt>
<trkpt lat="45.9021410" lon="10.3097910">
	<ele>1177.60</ele>
	<time>2025-07-29T11:45:12.000Z</time>
</trkpt>
<trkpt lat="45.9021400" lon="10.3097760">
	<ele>1177.40</ele>
	<time>2025-07-29T11:45:13.000Z</time>
</trkpt>
<trkpt lat="45.9021420" lon="10.3097570">
	<ele>1177.40</ele>
	<time>2025-07-29T11:45:14.000Z</time>
</trkpt>
<trkpt lat="45.9021370" lon="10.3097410">
	<ele>1177.00</ele>
	<time>2025-07-29T11:45:15.000Z</time>
</trkpt>
<trkpt lat="45.9021370" lon="10.3097240">
	<ele>1176.80</ele>
	<time>2025-07-29T11:45:16.000Z</time>
</trkpt>
<trkpt lat="45.9021330" lon="10.3097060">
	<ele>1176.40</ele>
	<time>2025-07-29T11:45:17.000Z</time>
</trkpt>
<trkpt lat="45.9021360" lon="10.3096870">
	<ele>1176.20</ele>
	<time>2025-07-29T11:45:18.000Z</time>
</trkpt>
<trkpt lat="45.9021420" lon="10.3096670">
	<ele>1176.00</ele>
	<time>2025-07-29T11:45:19.000Z</time>
</trkpt>
<trkpt lat="45.9021450" lon="10.3096510">
	<ele>1175.60</ele>
	<time>2025-07-29T11:45:20.000Z</time>
</trkpt>
<trkpt lat="45.9021500" lon="10.3096350">
	<ele>1175.20</ele>
	<time>2025-07-29T11:45:21.000Z</time>
</trkpt>
<trkpt lat="45.9021530" lon="10.3096200">
	<ele>1175.00</ele>
	<time>2025-07-29T11:45:22.000Z</time>
</trkpt>
<trkpt lat="45.9021500" lon="10.3096060">
	<ele>1174.60</ele>
	<time>2025-07-29T11:45:23.000Z</time>
</trkpt>
<trkpt lat="45.9021460" lon="10.3095970">
	<ele>1174.20</ele>
	<time>2025-07-29T11:45:24.000Z</time>
</trkpt>
<trkpt lat="45.9021450" lon="10.3095910">
	<ele>1174.00</ele>
	<time>2025-07-29T11:45:25.000Z</time>
</trkpt>
<trkpt lat="45.9021480" lon="10.3095890">
	<ele>1173.60</ele>
	<time>2025-07-29T11:45:26.000Z</time>
</trkpt>
<trkpt lat="45.9021510" lon="10.3095780">
	<ele>1173.40</ele>
	<time>2025-07-29T11:45:27.000Z</time>
</trkpt>
<trkpt lat="45.9021570" lon="10.3095660">
	<ele>1173.20</ele>
	<time>2025-07-29T11:45:28.000Z</time>
</trkpt>
<trkpt lat="45.9021600" lon="10.3095570">
	<ele>1172.80</ele>
	<time>2025-07-29T11:45:29.000Z</time>
</trkpt>
<trkpt lat="45.9021680" lon="10.3095580">
	<ele>1172.40</ele>
	<time>2025-07-29T11:45:30.000Z</time>
</trkpt>
<trkpt lat="45.9021700" lon="10.3095540">
	<ele>1172.20</ele>
	<time>2025-07-29T11:45:31.000Z</time>
</trkpt>
<trkpt lat="45.9021750" lon="10.3095540">
	<ele>1171.80</ele>
	<time>2025-07-29T11:45:32.000Z</time>
</trkpt>
<trkpt lat="45.9021860" lon="10.3095560">
	<ele>1171.40</ele>
	<time>2025-07-29T11:45:33.000Z</time>
</trkpt>
<trkpt lat="45.9022010" lon="10.3095650">
	<ele>1171.00</ele>
	<time>2025-07-29T11:45:34.000Z</time>
</trkpt>
<trkpt lat="45.9022160" lon="10.3095800">
	<ele>1170.60</ele>
	<time>2025-07-29T11:45:35.000Z</time>
</trkpt>
<trkpt lat="45.9022280" lon="10.3095880">
	<ele>1170.40</ele>
	<time>2025-07-29T11:45:36.000Z</time>
</trkpt>
<trkpt lat="45.9022300" lon="10.3095960">
	<ele>1170.00</ele>
	<time>2025-07-29T11:45:37.000Z</time>
</trkpt>
<trkpt lat="45.9022380" lon="10.3095990">
	<ele>1169.60</ele>
	<time>2025-07-29T11:45:38.000Z</time>
</trkpt>
<trkpt lat="45.9022510" lon="10.3096050">
	<ele>1169.20</ele>
	<time>2025-07-29T11:45:39.000Z</time>
</trkpt>
<trkpt lat="45.9022660" lon="10.3096120">
	<ele>1169.00</ele>
	<time>2025-07-29T11:45:40.000Z</time>
</trkpt>
<trkpt lat="45.9022820" lon="10.3096110">
	<ele>1168.60</ele>
	<time>2025-07-29T11:45:41.000Z</time>
</trkpt>
<trkpt lat="45.9022930" lon="10.3096130">
	<ele>1168.20</ele>
	<time>2025-07-29T11:45:42.000Z</time>
</trkpt>
<trkpt lat="45.9022990" lon="10.3096150">
	<ele>1168.00</ele>
	<time>2025-07-29T11:45:43.000Z</time>
</trkpt>
<trkpt lat="45.9023040" lon="10.3096200">
	<ele>1167.40</ele>
	<time>2025-07-29T11:45:44.000Z</time>
</trkpt>
<trkpt lat="45.9023100" lon="10.3096260">
	<ele>1167.20</ele>
	<time>2025-07-29T11:45:45.000Z</time>
</trkpt>
<trkpt lat="45.9023150" lon="10.3096320">
	<ele>1166.80</ele>
	<time>2025-07-29T11:45:46.000Z</time>
</trkpt>
<trkpt lat="45.9023250" lon="10.3096480">
	<ele>1166.60</ele>
	<time>2025-07-29T11:45:47.000Z</time>
</trkpt>
<trkpt lat="45.9023370" lon="10.3096550">
	<ele>1166.20</ele>
	<time>2025-07-29T11:45:48.000Z</time>
</trkpt>
<trkpt lat="45.9023600" lon="10.3096520">
	<ele>1166.00</ele>
	<time>2025-07-29T11:45:49.000Z</time>
</trkpt>
<trkpt lat="45.9023740" lon="10.3096420">
	<ele>1165.80</ele>
	<time>2025-07-29T11:45:50.000Z</time>
</trkpt>
<trkpt lat="45.9023860" lon="10.3096330">
	<ele>1165.60</ele>
	<time>2025-07-29T11:45:51.000Z</time>
</trkpt>
<trkpt lat="45.9023970" lon="10.3096230">
	<ele>1165.20</ele>
	<time>2025-07-29T11:45:52.000Z</time>
</trkpt>
<trkpt lat="45.9024000" lon="10.3096200">
	<ele>1165.00</ele>
	<time>2025-07-29T11:45:53.000Z</time>
</trkpt>
<trkpt lat="45.9024010" lon="10.3096160">
	<ele>1164.80</ele>
	<time>2025-07-29T11:45:54.000Z</time>
</trkpt>
<trkpt lat="45.9024110" lon="10.3096070">
	<ele>1164.40</ele>
	<time>2025-07-29T11:45:55.000Z</time>
</trkpt>
<trkpt lat="45.9024110" lon="10.3096010">
	<ele>1164.00</ele>
	<time>2025-07-29T11:45:56.000Z</time>
</trkpt>
<trkpt lat="45.9024250" lon="10.3095950">
	<ele>1163.80</ele>
	<time>2025-07-29T11:45:57.000Z</time>
</trkpt>
<trkpt lat="45.9024360" lon="10.3095850">
	<ele>1163.60</ele>
	<time>2025-07-29T11:45:58.000Z</time>
</trkpt>
<trkpt lat="45.9024520" lon="10.3095680">
	<ele>1163.40</ele>
	<time>2025-07-29T11:45:59.000Z</time>
</trkpt>
<trkpt lat="45.9024670" lon="10.3095450">
	<ele>1163.00</ele>
	<time>2025-07-29T11:46:00.000Z</time>
</trkpt>
<trkpt lat="45.9024720" lon="10.3095260">
	<ele>1162.80</ele>
	<time>2025-07-29T11:46:01.000Z</time>
</trkpt>
<trkpt lat="45.9024820" lon="10.3095090">
	<ele>1162.60</ele>
	<time>2025-07-29T11:46:02.000Z</time>
</trkpt>
<trkpt lat="45.9024850" lon="10.3094890">
	<ele>1162.20</ele>
	<time>2025-07-29T11:46:03.000Z</time>
</trkpt>
<trkpt lat="45.9024920" lon="10.3094760">
	<ele>1162.00</ele>
	<time>2025-07-29T11:46:04.000Z</time>
</trkpt>
<trkpt lat="45.9025000" lon="10.3094580">
	<ele>1161.60</ele>
	<time>2025-07-29T11:46:05.000Z</time>
</trkpt>
<trkpt lat="45.9025040" lon="10.3094390">
	<ele>1161.40</ele>
	<time>2025-07-29T11:46:06.000Z</time>
</trkpt>
<trkpt lat="45.9025110" lon="10.3094220">
	<ele>1161.00</ele>
	<time>2025-07-29T11:46:07.000Z</time>
</trkpt>
<trkpt lat="45.9025070" lon="10.3094150">
	<ele>1160.60</ele>
	<time>2025-07-29T11:46:08.000Z</time>
</trkpt>
<trkpt lat="45.9025140" lon="10.3094250">
	<ele>1160.20</ele>
	<time>2025-07-29T11:46:09.000Z</time>
</trkpt>
<trkpt lat="45.9025200" lon="10.3094320">
	<ele>1160.00</ele>
	<time>2025-07-29T11:46:10.000Z</time>
</trkpt>
<trkpt lat="45.9025240" lon="10.3094330">
	<ele>1159.60</ele>
	<time>2025-07-29T11:46:11.000Z</time>
</trkpt>
<trkpt lat="45.9025150" lon="10.3094290">
	<ele>1159.40</ele>
	<time>2025-07-29T11:46:12.000Z</time>
</trkpt>
<trkpt lat="45.9025160" lon="10.3094270">
	<ele>1159.20</ele>
	<time>2025-07-29T11:46:13.000Z</time>
</trkpt>
<trkpt lat="45.9025280" lon="10.3094280">
	<ele>1159.20</ele>
	<time>2025-07-29T11:46:14.000Z</time>
</trkpt>
<trkpt lat="45.9025400" lon="10.3094400">
	<ele>1159.00</ele>
	<time>2025-07-29T11:46:15.000Z</time>
</trkpt>
<trkpt lat="45.9025520" lon="10.3094470">
	<ele>1159.00</ele>
	<time>2025-07-29T11:46:16.000Z</time>
</trkpt>
<trkpt lat="45.9025590" lon="10.3094450">
	<ele>1159.00</ele>
	<time>2025-07-29T11:46:17.000Z</time>
</trkpt>
<trkpt lat="45.9025690" lon="10.3094360">
	<ele>1158.80</ele>
	<time>2025-07-29T11:46:18.000Z</time>
</trkpt>
<trkpt lat="45.9025830" lon="10.3094250">
	<ele>1158.60</ele>
	<time>2025-07-29T11:46:19.000Z</time>
</trkpt>
<trkpt lat="45.9025960" lon="10.3094150">
	<ele>1158.40</ele>
	<time>2025-07-29T11:46:20.000Z</time>
</trkpt>
<trkpt lat="45.9026030" lon="10.3094140">
	<ele>1158.20</ele>
	<time>2025-07-29T11:46:21.000Z</time>
</trkpt>
<trkpt lat="45.9026090" lon="10.3094090">
	<ele>1158.00</ele>
	<time>2025-07-29T11:46:22.000Z</time>
</trkpt>
<trkpt lat="45.9026100" lon="10.3094010">
	<ele>1157.80</ele>
	<time>2025-07-29T11:46:23.000Z</time>
</trkpt>
<trkpt lat="45.9026140" lon="10.3093980">
	<ele>1157.40</ele>
	<time>2025-07-29T11:46:24.000Z</time>
</trkpt>
<trkpt lat="45.9026120" lon="10.3093910">
	<ele>1157.00</ele>
	<time>2025-07-29T11:46:25.000Z</time>
</trkpt>
<trkpt lat="45.9026210" lon="10.3093900">
	<ele>1156.80</ele>
	<time>2025-07-29T11:46:26.000Z</time>
</trkpt>
<trkpt lat="45.9026330" lon="10.3093920">
	<ele>1156.40</ele>
	<time>2025-07-29T11:46:27.000Z</time>
</trkpt>
<trkpt lat="45.9026400" lon="10.3093930">
	<ele>1156.20</ele>
	<time>2025-07-29T11:46:28.000Z</time>
</trkpt>
<trkpt lat="45.9026510" lon="10.3093950">
	<ele>1156.00</ele>
	<time>2025-07-29T11:46:29.000Z</time>
</trkpt>
<trkpt lat="45.9026550" lon="10.3093910">
	<ele>1155.80</ele>
	<time>2025-07-29T11:46:30.000Z</time>
</trkpt>
<trkpt lat="45.9026640" lon="10.3093890">
	<ele>1155.40</ele>
	<time>2025-07-29T11:46:31.000Z</time>
</trkpt>
<trkpt lat="45.9026710" lon="10.3093820">
	<ele>1155.00</ele>
	<time>2025-07-29T11:46:32.000Z</time>
</trkpt>
<trkpt lat="45.9026790" lon="10.3093740">
	<ele>1154.80</ele>
	<time>2025-07-29T11:46:33.000Z</time>
</trkpt>
<trkpt lat="45.9026810" lon="10.3093700">
	<ele>1154.60</ele>
	<time>2025-07-29T11:46:34.000Z</time>
</trkpt>
<trkpt lat="45.9026940" lon="10.3093550">
	<ele>1154.40</ele>
	<time>2025-07-29T11:46:35.000Z</time>
</trkpt>
<trkpt lat="45.9026940" lon="10.3093520">
	<ele>1154.00</ele>
	<time>2025-07-29T11:46:36.000Z</time>
</trkpt>
<trkpt lat="45.9027070" lon="10.3093440">
	<ele>1153.60</ele>
	<time>2025-07-29T11:46:37.000Z</time>
</trkpt>
<trkpt lat="45.9027320" lon="10.3093350">
	<ele>1153.40</ele>
	<time>2025-07-29T11:46:38.000Z</time>
</trkpt>
<trkpt lat="45.9027500" lon="10.3093130">
	<ele>1153.20</ele>
	<time>2025-07-29T11:46:39.000Z</time>
</trkpt>
<trkpt lat="45.9027570" lon="10.3092840">
	<ele>1152.80</ele>
	<time>2025-07-29T11:46:40.000Z</time>
</trkpt>
<trkpt lat="45.9027620" lon="10.3092590">
	<ele>1152.60</ele>
	<time>2025-07-29T11:46:41.000Z</time>
</trkpt>
<trkpt lat="45.9027720" lon="10.3092360">
	<ele>1152.20</ele>
	<time>2025-07-29T11:46:42.000Z</time>
</trkpt>
<trkpt lat="45.9027800" lon="10.3092130">
	<ele>1151.80</ele>
	<time>2025-07-29T11:46:43.000Z</time>
</trkpt>
<trkpt lat="45.9027930" lon="10.3091990">
	<ele>1151.20</ele>
	<time>2025-07-29T11:46:44.000Z</time>
</trkpt>
<trkpt lat="45.9028030" lon="10.3091850">
	<ele>1151.00</ele>
	<time>2025-07-29T11:46:45.000Z</time>
</trkpt>
<trkpt lat="45.9028090" lon="10.3091720">
	<ele>1150.60</ele>
	<time>2025-07-29T11:46:46.000Z</time>
</trkpt>
<trkpt lat="45.9028240" lon="10.3091520">
	<ele>1150.60</ele>
	<time>2025-07-29T11:46:47.000Z</time>
</trkpt>
<trkpt lat="45.9028260" lon="10.3091410">
	<ele>1150.20</ele>
	<time>2025-07-29T11:46:48.000Z</time>
</trkpt>
<trkpt lat="45.9028240" lon="10.3091370">
	<ele>1150.20</ele>
	<time>2025-07-29T11:46:49.000Z</time>
</trkpt>
<trkpt lat="45.9028170" lon="10.3091250">
	<ele>1150.00</ele>
	<time>2025-07-29T11:46:50.000Z</time>
</trkpt>
<trkpt lat="45.9028180" lon="10.3091000">
	<ele>1149.80</ele>
	<time>2025-07-29T11:46:51.000Z</time>
</trkpt>
<trkpt lat="45.9028210" lon="10.3090640">
	<ele>1149.40</ele>
	<time>2025-07-29T11:46:52.000Z</time>
</trkpt>
<trkpt lat="45.9028230" lon="10.3090420">
	<ele>1149.20</ele>
	<time>2025-07-29T11:46:53.000Z</time>
</trkpt>
<trkpt lat="45.9028340" lon="10.3090250">
	<ele>1148.80</ele>
	<time>2025-07-29T11:46:54.000Z</time>
</trkpt>
<trkpt lat="45.9028510" lon="10.3090070">
	<ele>1148.60</ele>
	<time>2025-07-29T11:46:55.000Z</time>
</trkpt>
<trkpt lat="45.9028630" lon="10.3089910">
	<ele>1148.40</ele>
	<time>2025-07-29T11:46:56.000Z</time>
</trkpt>
<trkpt lat="45.9028680" lon="10.3089720">
	<ele>1148.00</ele>
	<time>2025-07-29T11:46:57.000Z</time>
</trkpt>
<trkpt lat="45.9028780" lon="10.3089590">
	<ele>1147.80</ele>
	<time>2025-07-29T11:46:58.000Z</time>
</trkpt>
<trkpt lat="45.9028820" lon="10.3089490">
	<ele>1147.60</ele>
	<time>2025-07-29T11:46:59.000Z</time>
</trkpt>
<trkpt lat="45.9028840" lon="10.3089480">
	<ele>1147.40</ele>
	<time>2025-07-29T11:47:00.000Z</time>
</trkpt>
<trkpt lat="45.9028860" lon="10.3089330">
	<ele>1147.20</ele>
	<time>2025-07-29T11:47:01.000Z</time>
</trkpt>
<trkpt lat="45.9028930" lon="10.3089340">
	<ele>1147.00</ele>
	<time>2025-07-29T11:47:02.000Z</time>
</trkpt>
<trkpt lat="45.9028880" lon="10.3089440">
	<ele>1146.80</ele>
	<time>2025-07-29T11:47:03.000Z</time>
</trkpt>
<trkpt lat="45.9028880" lon="10.3089460">
	<ele>1146.40</ele>
	<time>2025-07-29T11:47:04.000Z</time>
</trkpt>
<trkpt lat="45.9028920" lon="10.3089470">
	<ele>1146.00</ele>
	<time>2025-07-29T11:47:05.000Z</time>
</trkpt>
<trkpt lat="45.9028990" lon="10.3089510">
	<ele>1145.80</ele>
	<time>2025-07-29T11:47:06.000Z</time>
</trkpt>
<trkpt lat="45.9029110" lon="10.3089480">
	<ele>1145.60</ele>
	<time>2025-07-29T11:47:07.000Z</time>
</trkpt>
<trkpt lat="45.9029130" lon="10.3089440">
	<ele>1145.40</ele>
	<time>2025-07-29T11:47:08.000Z</time>
</trkpt>
<trkpt lat="45.9029330" lon="10.3089250">
	<ele>1145.00</ele>
	<time>2025-07-29T11:47:09.000Z</time>
</trkpt>
<trkpt lat="45.9029520" lon="10.3089120">
	<ele>1144.80</ele>
	<time>2025-07-29T11:47:10.000Z</time>
</trkpt>
<trkpt lat="45.9029590" lon="10.3089120">
	<ele>1144.80</ele>
	<time>2025-07-29T11:47:11.000Z</time>
</trkpt>
<trkpt lat="45.9029610" lon="10.3089100">
	<ele>1144.40</ele>
	<time>2025-07-29T11:47:12.000Z</time>
</trkpt>
<trkpt lat="45.9029620" lon="10.3089110">
	<ele>1144.00</ele>
	<time>2025-07-29T11:47:13.000Z</time>
</trkpt>
<trkpt lat="45.9029640" lon="10.3089130">
	<ele>1143.80</ele>
	<time>2025-07-29T11:47:14.000Z</time>
</trkpt>
<trkpt lat="45.9029700" lon="10.3089140">
	<ele>1143.40</ele>
	<time>2025-07-29T11:47:15.000Z</time>
</trkpt>
<trkpt lat="45.9029730" lon="10.3089070">
	<ele>1143.20</ele>
	<time>2025-07-29T11:47:16.000Z</time>
</trkpt>
<trkpt lat="45.9029710" lon="10.3089160">
	<ele>1142.80</ele>
	<time>2025-07-29T11:47:17.000Z</time>
</trkpt>
<trkpt lat="45.9029730" lon="10.3089100">
	<ele>1142.80</ele>
	<time>2025-07-29T11:47:18.000Z</time>
</trkpt>
<trkpt lat="45.9029780" lon="10.3089040">
	<ele>1142.40</ele>
	<time>2025-07-29T11:47:19.000Z</time>
</trkpt>
<trkpt lat="45.9029850" lon="10.3088960">
	<ele>1142.00</ele>
	<time>2025-07-29T11:47:20.000Z</time>
</trkpt>
<trkpt lat="45.9029930" lon="10.3088880">
	<ele>1141.60</ele>
	<time>2025-07-29T11:47:21.000Z</time>
</trkpt>
<trkpt lat="45.9030080" lon="10.3088800">
	<ele>1141.20</ele>
	<time>2025-07-29T11:47:22.000Z</time>
</trkpt>
<trkpt lat="45.9030190" lon="10.3088780">
	<ele>1141.00</ele>
	<time>2025-07-29T11:47:23.000Z</time>
</trkpt>
<trkpt lat="45.9030290" lon="10.3088750">
	<ele>1140.80</ele>
	<time>2025-07-29T11:47:24.000Z</time>
</trkpt>
<trkpt lat="45.9030390" lon="10.3088750">
	<ele>1140.40</ele>
	<time>2025-07-29T11:47:25.000Z</time>
</trkpt>
<trkpt lat="45.9030490" lon="10.3088670">
	<ele>1140.20</ele>
	<time>2025-07-29T11:47:26.000Z</time>
</trkpt>
<trkpt lat="45.9030550" lon="10.3088700">
	<ele>1140.00</ele>
	<time>2025-07-29T11:47:27.000Z</time>
</trkpt>
<trkpt lat="45.9030730" lon="10.3088580">
	<ele>1139.80</ele>
	<time>2025-07-29T11:47:28.000Z</time>
</trkpt>
<trkpt lat="45.9030860" lon="10.3088530">
	<ele>1139.40</ele>
	<time>2025-07-29T11:47:29.000Z</time>
</trkpt>
<trkpt lat="45.9030980" lon="10.3088520">
	<ele>1139.00</ele>
	<time>2025-07-29T11:47:30.000Z</time>
</trkpt>
<trkpt lat="45.9031070" lon="10.3088470">
	<ele>1138.60</ele>
	<time>2025-07-29T11:47:31.000Z</time>
</trkpt>
<trkpt lat="45.9031200" lon="10.3088350">
	<ele>1138.40</ele>
	<time>2025-07-29T11:47:32.000Z</time>
</trkpt>
<trkpt lat="45.9031300" lon="10.3088280">
	<ele>1138.20</ele>
	<time>2025-07-29T11:47:33.000Z</time>
</trkpt>
<trkpt lat="45.9031330" lon="10.3088240">
	<ele>1138.00</ele>
	<time>2025-07-29T11:47:34.000Z</time>
</trkpt>
<trkpt lat="45.9031530" lon="10.3088120">
	<ele>1137.60</ele>
	<time>2025-07-29T11:47:35.000Z</time>
</trkpt>
<trkpt lat="45.9031660" lon="10.3088040">
	<ele>1137.40</ele>
	<time>2025-07-29T11:47:36.000Z</time>
</trkpt>
<trkpt lat="45.9031740" lon="10.3087960">
	<ele>1137.00</ele>
	<time>2025-07-29T11:47:37.000Z</time>
</trkpt>
<trkpt lat="45.9031830" lon="10.3087920">
	<ele>1136.80</ele>
	<time>2025-07-29T11:47:38.000Z</time>
</trkpt>
<trkpt lat="45.9031910" lon="10.3087870">
	<ele>1136.40</ele>
	<time>2025-07-29T11:47:39.000Z</time>
</trkpt>
<trkpt lat="45.9031960" lon="10.3087850">
	<ele>1136.20</ele>
	<time>2025-07-29T11:47:40.000Z</time>
</trkpt>
<trkpt lat="45.9032060" lon="10.3087810">
	<ele>1136.00</ele>
	<time>2025-07-29T11:47:41.000Z</time>
</trkpt>
<trkpt lat="45.9032200" lon="10.3087770">
	<ele>1135.60</ele>
	<time>2025-07-29T11:47:42.000Z</time>
</trkpt>
<trkpt lat="45.9032290" lon="10.3087680">
	<ele>1135.40</ele>
	<time>2025-07-29T11:47:43.000Z</time>
</trkpt>
<trkpt lat="45.9032400" lon="10.3087520">
	<ele>1135.20</ele>
	<time>2025-07-29T11:47:44.000Z</time>
</trkpt>
<trkpt lat="45.9032670" lon="10.3087270">
	<ele>1135.00</ele>
	<time>2025-07-29T11:47:45.000Z</time>
</trkpt>
<trkpt lat="45.9032900" lon="10.3087070">
	<ele>1134.80</ele>
	<time>2025-07-29T11:47:46.000Z</time>
</trkpt>
<trkpt lat="45.9033050" lon="10.3086950">
	<ele>1134.40</ele>
	<time>2025-07-29T11:47:47.000Z</time>
</trkpt>
<trkpt lat="45.9033160" lon="10.3086930">
	<ele>1134.00</ele>
	<time>2025-07-29T11:47:48.000Z</time>
</trkpt>
<trkpt lat="45.9033280" lon="10.3086840">
	<ele>1133.80</ele>
	<time>2025-07-29T11:47:49.000Z</time>
</trkpt>
<trkpt lat="45.9033340" lon="10.3086830">
	<ele>1133.60</ele>
	<time>2025-07-29T11:47:50.000Z</time>
</trkpt>
<trkpt lat="45.9033460" lon="10.3086720">
	<ele>1133.40</ele>
	<time>2025-07-29T11:47:51.000Z</time>
</trkpt>
<trkpt lat="45.9033570" lon="10.3086670">
	<ele>1133.00</ele>
	<time>2025-07-29T11:47:52.000Z</time>
</trkpt>
<trkpt lat="45.9033610" lon="10.3086610">
	<ele>1132.80</ele>
	<time>2025-07-29T11:47:53.000Z</time>
</trkpt>
<trkpt lat="45.9033670" lon="10.3086520">
	<ele>1132.60</ele>
	<time>2025-07-29T11:47:54.000Z</time>
</trkpt>
<trkpt lat="45.9033780" lon="10.3086460">
	<ele>1132.40</ele>
	<time>2025-07-29T11:47:55.000Z</time>
</trkpt>
<trkpt lat="45.9033870" lon="10.3086400">
	<ele>1132.20</ele>
	<time>2025-07-29T11:47:56.000Z</time>
</trkpt>
<trkpt lat="45.9034040" lon="10.3086440">
	<ele>1131.80</ele>
	<time>2025-07-29T11:47:57.000Z</time>
</trkpt>
<trkpt lat="45.9034150" lon="10.3086550">
	<ele>1131.40</ele>
	<time>2025-07-29T11:47:58.000Z</time>
</trkpt>
<trkpt lat="45.9034220" lon="10.3086640">
	<ele>1131.20</ele>
	<time>2025-07-29T11:47:59.000Z</time>
</trkpt>
<trkpt lat="45.9034330" lon="10.3086670">
	<ele>1131.00</ele>
	<time>2025-07-29T11:48:00.000Z</time>
</trkpt>
<trkpt lat="45.9034380" lon="10.3086750">
	<ele>1130.60</ele>
	<time>2025-07-29T11:48:01.000Z</time>
</trkpt>
<trkpt lat="45.9034450" lon="10.3086780">
	<ele>1130.40</ele>
	<time>2025-07-29T11:48:02.000Z</time>
</trkpt>
<trkpt lat="45.9034550" lon="10.3086770">
	<ele>1130.00</ele>
	<time>2025-07-29T11:48:03.000Z</time>
</trkpt>
<trkpt lat="45.9034750" lon="10.3086650">
	<ele>1129.80</ele>
	<time>2025-07-29T11:48:04.000Z</time>
</trkpt>
<trkpt lat="45.9034970" lon="10.3086610">
	<ele>1129.40</ele>
	<time>2025-07-29T11:48:05.000Z</time>
</trkpt>
<trkpt lat="45.9035190" lon="10.3086540">
	<ele>1129.40</ele>
	<time>2025-07-29T11:48:06.000Z</time>
</trkpt>
<trkpt lat="45.9035370" lon="10.3086430">
	<ele>1129.00</ele>
	<time>2025-07-29T11:48:07.000Z</time>
</trkpt>
<trkpt lat="45.9035570" lon="10.3086310">
	<ele>1128.60</ele>
	<time>2025-07-29T11:48:08.000Z</time>
</trkpt>
<trkpt lat="45.9035680" lon="10.3086300">
	<ele>1128.20</ele>
	<time>2025-07-29T11:48:09.000Z</time>
</trkpt>
<trkpt lat="45.9035750" lon="10.3086350">
	<ele>1127.80</ele>
	<time>2025-07-29T11:48:10.000Z</time>
</trkpt>
<trkpt lat="45.9035780" lon="10.3086430">
	<ele>1127.40</ele>
	<time>2025-07-29T11:48:11.000Z</time>
</trkpt>
<trkpt lat="45.9035800" lon="10.3086460">
	<ele>1127.20</ele>
	<time>2025-07-29T11:48:12.000Z</time>
</trkpt>
<trkpt lat="45.9035870" lon="10.3086410">
	<ele>1126.80</ele>
	<time>2025-07-29T11:48:13.000Z</time>
</trkpt>
<trkpt lat="45.9035970" lon="10.3086350">
	<ele>1126.40</ele>
	<time>2025-07-29T11:48:14.000Z</time>
</trkpt>
<trkpt lat="45.9036020" lon="10.3086300">
	<ele>1126.20</ele>
	<time>2025-07-29T11:48:15.000Z</time>
</trkpt>
<trkpt lat="45.9036080" lon="10.3086240">
	<ele>1125.80</ele>
	<time>2025-07-29T11:48:16.000Z</time>
</trkpt>
<trkpt lat="45.9036230" lon="10.3086160">
	<ele>1125.40</ele>
	<time>2025-07-29T11:48:17.000Z</time>
</trkpt>
<trkpt lat="45.9036370" lon="10.3086050">
	<ele>1125.20</ele>
	<time>2025-07-29T11:48:18.000Z</time>
</trkpt>
<trkpt lat="45.9036500" lon="10.3086050">
	<ele>1125.00</ele>
	<time>2025-07-29T11:48:19.000Z</time>
</trkpt>
<trkpt lat="45.9036610" lon="10.3086030">
	<ele>1124.60</ele>
	<time>2025-07-29T11:48:20.000Z</time>
</trkpt>
<trkpt lat="45.9036750" lon="10.3085890">
	<ele>1124.40</ele>
	<time>2025-07-29T11:48:21.000Z</time>
</trkpt>
<trkpt lat="45.9036910" lon="10.3085760">
	<ele>1124.00</ele>
	<time>2025-07-29T11:48:22.000Z</time>
</trkpt>
<trkpt lat="45.9037030" lon="10.3085780">
	<ele>1123.80</ele>
	<time>2025-07-29T11:48:23.000Z</time>
</trkpt>
<trkpt lat="45.9036840" lon="10.3086140">
	<ele>1123.40</ele>
	<time>2025-07-29T11:48:24.000Z</time>
</trkpt>
<trkpt lat="45.9036860" lon="10.3086200">
	<ele>1123.00</ele>
	<time>2025-07-29T11:48:25.000Z</time>
</trkpt>
<trkpt lat="45.9036910" lon="10.3086320">
	<ele>1122.80</ele>
	<time>2025-07-29T11:48:26.000Z</time>
</trkpt>
<trkpt lat="45.9036960" lon="10.3086430">
	<ele>1122.60</ele>
	<time>2025-07-29T11:48:27.000Z</time>
</trkpt>
<trkpt lat="45.9037020" lon="10.3086560">
	<ele>1122.40</ele>
	<time>2025-07-29T11:48:28.000Z</time>
</trkpt>
<trkpt lat="45.9037100" lon="10.3086530">
	<ele>1122.00</ele>
	<time>2025-07-29T11:48:29.000Z</time>
</trkpt>
<trkpt lat="45.9037280" lon="10.3086420">
	<ele>1121.80</ele>
	<time>2025-07-29T11:48:30.000Z</time>
</trkpt>
<trkpt lat="45.9037410" lon="10.3086340">
	<ele>1121.60</ele>
	<time>2025-07-29T11:48:31.000Z</time>
</trkpt>
<trkpt lat="45.9037460" lon="10.3086350">
	<ele>1121.40</ele>
	<time>2025-07-29T11:48:32.000Z</time>
</trkpt>
<trkpt lat="45.9037510" lon="10.3086280">
	<ele>1121.20</ele>
	<time>2025-07-29T11:48:33.000Z</time>
</trkpt>
<trkpt lat="45.9037580" lon="10.3086170">
	<ele>1120.80</ele>
	<time>2025-07-29T11:48:34.000Z</time>
</trkpt>
<trkpt lat="45.9037650" lon="10.3086040">
	<ele>1120.40</ele>
	<time>2025-07-29T11:48:35.000Z</time>
</trkpt>
<trkpt lat="45.9037780" lon="10.3085930">
	<ele>1120.00</ele>
	<time>2025-07-29T11:48:36.000Z</time>
</trkpt>
<trkpt lat="45.9037870" lon="10.3085880">
	<ele>1119.80</ele>
	<time>2025-07-29T11:48:37.000Z</time>
</trkpt>
<trkpt lat="45.9038000" lon="10.3085910">
	<ele>1119.40</ele>
	<time>2025-07-29T11:48:38.000Z</time>
</trkpt>
<trkpt lat="45.9038180" lon="10.3085910">
	<ele>1119.20</ele>
	<time>2025-07-29T11:48:39.000Z</time>
</trkpt>
<trkpt lat="45.9038360" lon="10.3085920">
	<ele>1118.80</ele>
	<time>2025-07-29T11:48:40.000Z</time>
</trkpt>
<trkpt lat="45.9038510" lon="10.3085990">
	<ele>1118.40</ele>
	<time>2025-07-29T11:48:41.000Z</time>
</trkpt>
<trkpt lat="45.9038610" lon="10.3086020">
	<ele>1118.00</ele>
	<time>2025-07-29T11:48:42.000Z</time>
</trkpt>
<trkpt lat="45.9038660" lon="10.3086030">
	<ele>1117.80</ele>
	<time>2025-07-29T11:48:43.000Z</time>
</trkpt>
<trkpt lat="45.9038720" lon="10.3086100">
	<ele>1117.40</ele>
	<time>2025-07-29T11:48:44.000Z</time>
</trkpt>
<trkpt lat="45.9038770" lon="10.3086180">
	<ele>1117.20</ele>
	<time>2025-07-29T11:48:45.000Z</time>
</trkpt>
<trkpt lat="45.9038830" lon="10.3086220">
	<ele>1116.80</ele>
	<time>2025-07-29T11:48:46.000Z</time>
</trkpt>
<trkpt lat="45.9038810" lon="10.3086280">
	<ele>1116.40</ele>
	<time>2025-07-29T11:48:47.000Z</time>
</trkpt>
<trkpt lat="45.9038870" lon="10.3086310">
	<ele>1116.00</ele>
	<time>2025-07-29T11:48:48.000Z</time>
</trkpt>
<trkpt lat="45.9038990" lon="10.3086320">
	<ele>1115.60</ele>
	<time>2025-07-29T11:48:49.000Z</time>
</trkpt>
<trkpt lat="45.9039070" lon="10.3086290">
	<ele>1115.40</ele>
	<time>2025-07-29T11:48:50.000Z</time>
</trkpt>
<trkpt lat="45.9039210" lon="10.3086230">
	<ele>1115.00</ele>
	<time>2025-07-29T11:48:51.000Z</time>
</trkpt>
<trkpt lat="45.9039320" lon="10.3086240">
	<ele>1114.80</ele>
	<time>2025-07-29T11:48:52.000Z</time>
</trkpt>
<trkpt lat="45.9039420" lon="10.3086260">
	<ele>1114.20</ele>
	<time>2025-07-29T11:48:53.000Z</time>
</trkpt>
<trkpt lat="45.9039490" lon="10.3086280">
	<ele>1114.00</ele>
	<time>2025-07-29T11:48:54.000Z</time>
</trkpt>
<trkpt lat="45.9039560" lon="10.3086280">
	<ele>1113.60</ele>
	<time>2025-07-29T11:48:55.000Z</time>
</trkpt>
<trkpt lat="45.9039660" lon="10.3086210">
	<ele>1113.40</ele>
	<time>2025-07-29T11:48:56.000Z</time>
</trkpt>
<trkpt lat="45.9039740" lon="10.3086120">
	<ele>1113.00</ele>
	<time>2025-07-29T11:48:57.000Z</time>
</trkpt>
<trkpt lat="45.9039920" lon="10.3086010">
	<ele>1112.60</ele>
	<time>2025-07-29T11:48:58.000Z</time>
</trkpt>
<trkpt lat="45.9040180" lon="10.3085990">
	<ele>1112.20</ele>
	<time>2025-07-29T11:48:59.000Z</time>
</trkpt>
<trkpt lat="45.9040550" lon="10.3085880">
	<ele>1111.80</ele>
	<time>2025-07-29T11:49:00.000Z</time>
</trkpt>
<trkpt lat="45.9040730" lon="10.3085840">
	<ele>1111.60</ele>
	<time>2025-07-29T11:49:01.000Z</time>
</trkpt>
<trkpt lat="45.9040930" lon="10.3085830">
	<ele>1111.20</ele>
	<time>2025-07-29T11:49:02.000Z</time>
</trkpt>
<trkpt lat="45.9041090" lon="10.3085850">
	<ele>1111.00</ele>
	<time>2025-07-29T11:49:03.000Z</time>
</trkpt>
<trkpt lat="45.9041290" lon="10.3085900">
	<ele>1110.40</ele>
	<time>2025-07-29T11:49:04.000Z</time>
</trkpt>
<trkpt lat="45.9041370" lon="10.3085920">
	<ele>1110.20</ele>
	<time>2025-07-29T11:49:05.000Z</time>
</trkpt>
<trkpt lat="45.9041430" lon="10.3085920">
	<ele>1109.80</ele>
	<time>2025-07-29T11:49:06.000Z</time>
</trkpt>
<trkpt lat="45.9041480" lon="10.3085960">
	<ele>1109.40</ele>
	<time>2025-07-29T11:49:07.000Z</time>
</trkpt>
<trkpt lat="45.9041580" lon="10.3085900">
	<ele>1109.00</ele>
	<time>2025-07-29T11:49:08.000Z</time>
</trkpt>
<trkpt lat="45.9041770" lon="10.3085820">
	<ele>1108.40</ele>
	<time>2025-07-29T11:49:09.000Z</time>
</trkpt>
<trkpt lat="45.9042000" lon="10.3085820">
	<ele>1108.20</ele>
	<time>2025-07-29T11:49:10.000Z</time>
</trkpt>
<trkpt lat="45.9042290" lon="10.3085880">
	<ele>1107.80</ele>
	<time>2025-07-29T11:49:11.000Z</time>
</trkpt>
<trkpt lat="45.9042570" lon="10.3085950">
	<ele>1107.60</ele>
	<time>2025-07-29T11:49:12.000Z</time>
</trkpt>
<trkpt lat="45.9042770" lon="10.3085910">
	<ele>1107.20</ele>
	<time>2025-07-29T11:49:13.000Z</time>
</trkpt>
<trkpt lat="45.9042930" lon="10.3085850">
	<ele>1106.80</ele>
	<time>2025-07-29T11:49:14.000Z</time>
</trkpt>
<trkpt lat="45.9043090" lon="10.3085800">
	<ele>1106.40</ele>
	<time>2025-07-29T11:49:15.000Z</time>
</trkpt>
<trkpt lat="45.9043240" lon="10.3085730">
	<ele>1106.20</ele>
	<time>2025-07-29T11:49:16.000Z</time>
</trkpt>
<trkpt lat="45.9043380" lon="10.3085750">
	<ele>1105.60</ele>
	<time>2025-07-29T11:49:17.000Z</time>
</trkpt>
<trkpt lat="45.9043490" lon="10.3085730">
	<ele>1105.40</ele>
	<time>2025-07-29T11:49:18.000Z</time>
</trkpt>
<trkpt lat="45.9043570" lon="10.3085660">
	<ele>1105.00</ele>
	<time>2025-07-29T11:49:19.000Z</time>
</trkpt>
<trkpt lat="45.9043610" lon="10.3085640">
	<ele>1104.80</ele>
	<time>2025-07-29T11:49:20.000Z</time>
</trkpt>
<trkpt lat="45.9043630" lon="10.3085670">
	<ele>1104.40</ele>
	<time>2025-07-29T11:49:21.000Z</time>
</trkpt>
<trkpt lat="45.9043590" lon="10.3085720">
	<ele>1104.00</ele>
	<time>2025-07-29T11:49:22.000Z</time>
</trkpt>
<trkpt lat="45.9043540" lon="10.3085710">
	<ele>1103.80</ele>
	<time>2025-07-29T11:49:23.000Z</time>
</trkpt>
<trkpt lat="45.9043640" lon="10.3085680">
	<ele>1103.20</ele>
	<time>2025-07-29T11:49:24.000Z</time>
</trkpt>
<trkpt lat="45.9043860" lon="10.3085510">
	<ele>1103.00</ele>
	<time>2025-07-29T11:49:25.000Z</time>
</trkpt>
<trkpt lat="45.9044090" lon="10.3085280">
	<ele>1102.80</ele>
	<time>2025-07-29T11:49:26.000Z</time>
</trkpt>
<trkpt lat="45.9044370" lon="10.3085020">
	<ele>1102.40</ele>
	<time>2025-07-29T11:49:27.000Z</time>
</trkpt>
<trkpt lat="45.9044550" lon="10.3084910">
	<ele>1102.20</ele>
	<time>2025-07-29T11:49:28.000Z</time>
</trkpt>
<trkpt lat="45.9044730" lon="10.3084880">
	<ele>1101.80</ele>
	<time>2025-07-29T11:49:29.000Z</time>
</trkpt>
<trkpt lat="45.9044840" lon="10.3084800">
	<ele>1101.40</ele>
	<time>2025-07-29T11:49:30.000Z</time>
</trkpt>
<trkpt lat="45.9044950" lon="10.3084740">
	<ele>1101.20</ele>
	<time>2025-07-29T11:49:31.000Z</time>
</trkpt>
<trkpt lat="45.9045040" lon="10.3084670">
	<ele>1100.80</ele>
	<time>2025-07-29T11:49:32.000Z</time>
</trkpt>
<trkpt lat="45.9045110" lon="10.3084570">
	<ele>1100.20</ele>
	<time>2025-07-29T11:49:33.000Z</time>
</trkpt>
<trkpt lat="45.9045180" lon="10.3084470">
	<ele>1100.00</ele>
	<time>2025-07-29T11:49:34.000Z</time>
</trkpt>
<trkpt lat="45.9045280" lon="10.3084390">
	<ele>1099.60</ele>
	<time>2025-07-29T11:49:35.000Z</time>
</trkpt>
<trkpt lat="45.9045380" lon="10.3084290">
	<ele>1099.40</ele>
	<time>2025-07-29T11:49:36.000Z</time>
</trkpt>
<trkpt lat="45.9045470" lon="10.3084200">
	<ele>1099.00</ele>
	<time>2025-07-29T11:49:37.000Z</time>
</trkpt>
<trkpt lat="45.9045570" lon="10.3084110">
	<ele>1098.60</ele>
	<time>2025-07-29T11:49:38.000Z</time>
</trkpt>
<trkpt lat="45.9045640" lon="10.3084000">
	<ele>1098.20</ele>
	<time>2025-07-29T11:49:39.000Z</time>
</trkpt>
<trkpt lat="45.9045710" lon="10.3083900">
	<ele>1098.00</ele>
	<time>2025-07-29T11:49:40.000Z</time>
</trkpt>
<trkpt lat="45.9045730" lon="10.3083760">
	<ele>1097.60</ele>
	<time>2025-07-29T11:49:41.000Z</time>
</trkpt>
<trkpt lat="45.9045810" lon="10.3083690">
	<ele>1097.40</ele>
	<time>2025-07-29T11:49:42.000Z</time>
</trkpt>
<trkpt lat="45.9045900" lon="10.3083630">
	<ele>1097.20</ele>
	<time>2025-07-29T11:49:43.000Z</time>
</trkpt>
<trkpt lat="45.9045980" lon="10.3083570">
	<ele>1096.80</ele>
	<time>2025-07-29T11:49:44.000Z</time>
</trkpt>
<trkpt lat="45.9046030" lon="10.3083520">
	<ele>1096.40</ele>
	<time>2025-07-29T11:49:45.000Z</time>
</trkpt>
<trkpt lat="45.9046090" lon="10.3083400">
	<ele>1096.00</ele>
	<time>2025-07-29T11:49:46.000Z</time>
</trkpt>
<trkpt lat="45.9046140" lon="10.3083290">
	<ele>1095.80</ele>
	<time>2025-07-29T11:49:47.000Z</time>
</trkpt>
<trkpt lat="45.9046190" lon="10.3083160">
	<ele>1095.40</ele>
	<time>2025-07-29T11:49:48.000Z</time>
</trkpt>
<trkpt lat="45.9046240" lon="10.3083030">
	<ele>1095.20</ele>
	<time>2025-07-29T11:49:49.000Z</time>
</trkpt>
<trkpt lat="45.9046290" lon="10.3082880">
	<ele>1094.80</ele>
	<time>2025-07-29T11:49:50.000Z</time>
</trkpt>
<trkpt lat="45.9046320" lon="10.3082700">
	<ele>1094.60</ele>
	<time>2025-07-29T11:49:51.000Z</time>
</trkpt>
<trkpt lat="45.9046410" lon="10.3082570">
	<ele>1094.40</ele>
	<time>2025-07-29T11:49:52.000Z</time>
</trkpt>
<trkpt lat="45.9046520" lon="10.3082430">
	<ele>1094.00</ele>
	<time>2025-07-29T11:49:53.000Z</time>
</trkpt>
<trkpt lat="45.9046630" lon="10.3082240">
	<ele>1093.80</ele>
	<time>2025-07-29T11:49:54.000Z</time>
</trkpt>
<trkpt lat="45.9046700" lon="10.3082090">
	<ele>1093.40</ele>
	<time>2025-07-29T11:49:55.000Z</time>
</trkpt>
<trkpt lat="45.9046750" lon="10.3082010">
	<ele>1093.00</ele>
	<time>2025-07-29T11:49:56.000Z</time>
</trkpt>
<trkpt lat="45.9046800" lon="10.3081970">
	<ele>1092.80</ele>
	<time>2025-07-29T11:49:57.000Z</time>
</trkpt>
<trkpt lat="45.9046840" lon="10.3081940">
	<ele>1092.40</ele>
	<time>2025-07-29T11:49:58.000Z</time>
</trkpt>
<trkpt lat="45.9046910" lon="10.3082000">
	<ele>1092.20</ele>
	<time>2025-07-29T11:49:59.000Z</time>
</trkpt>
<trkpt lat="45.9047000" lon="10.3082010">
	<ele>1091.80</ele>
	<time>2025-07-29T11:50:00.000Z</time>
</trkpt>
<trkpt lat="45.9047030" lon="10.3082020">
	<ele>1091.60</ele>
	<time>2025-07-29T11:50:01.000Z</time>
</trkpt>
<trkpt lat="45.9047140" lon="10.3082000">
	<ele>1091.40</ele>
	<time>2025-07-29T11:50:02.000Z</time>
</trkpt>
<trkpt lat="45.9047220" lon="10.3082020">
	<ele>1091.00</ele>
	<time>2025-07-29T11:50:03.000Z</time>
</trkpt>
<trkpt lat="45.9047260" lon="10.3082100">
	<ele>1090.80</ele>
	<time>2025-07-29T11:50:04.000Z</time>
</trkpt>
<trkpt lat="45.9047370" lon="10.3082170">
	<ele>1090.60</ele>
	<time>2025-07-29T11:50:05.000Z</time>
</trkpt>
<trkpt lat="45.9047510" lon="10.3082130">
	<ele>1090.40</ele>
	<time>2025-07-29T11:50:06.000Z</time>
</trkpt>
<trkpt lat="45.9047640" lon="10.3082090">
	<ele>1090.00</ele>
	<time>2025-07-29T11:50:07.000Z</time>
</trkpt>
<trkpt lat="45.9047800" lon="10.3081980">
	<ele>1089.80</ele>
	<time>2025-07-29T11:50:08.000Z</time>
</trkpt>
<trkpt lat="45.9047940" lon="10.3081910">
	<ele>1089.40</ele>
	<time>2025-07-29T11:50:09.000Z</time>
</trkpt>
<trkpt lat="45.9048070" lon="10.3081870">
	<ele>1089.20</ele>
	<time>2025-07-29T11:50:10.000Z</time>
</trkpt>
<trkpt lat="45.9048180" lon="10.3081850">
	<ele>1089.00</ele>
	<time>2025-07-29T11:50:11.000Z</time>
</trkpt>
<trkpt lat="45.9048210" lon="10.3081850">
	<ele>1088.80</ele>
	<time>2025-07-29T11:50:12.000Z</time>
</trkpt>
<trkpt lat="45.9048320" lon="10.3081850">
	<ele>1088.40</ele>
	<time>2025-07-29T11:50:13.000Z</time>
</trkpt>
<trkpt lat="45.9048430" lon="10.3081930">
	<ele>1088.20</ele>
	<time>2025-07-29T11:50:14.000Z</time>
</trkpt>
<trkpt lat="45.9048570" lon="10.3081910">
	<ele>1088.00</ele>
	<time>2025-07-29T11:50:15.000Z</time>
</trkpt>
<trkpt lat="45.9048800" lon="10.3081780">
	<ele>1087.80</ele>
	<time>2025-07-29T11:50:16.000Z</time>
</trkpt>
<trkpt lat="45.9048900" lon="10.3081700">
	<ele>1087.40</ele>
	<time>2025-07-29T11:50:17.000Z</time>
</trkpt>
<trkpt lat="45.9048980" lon="10.3081570">
	<ele>1087.20</ele>
	<time>2025-07-29T11:50:18.000Z</time>
</trkpt>
<trkpt lat="45.9049140" lon="10.3081450">
	<ele>1086.80</ele>
	<time>2025-07-29T11:50:19.000Z</time>
</trkpt>
<trkpt lat="45.9049200" lon="10.3081420">
	<ele>1086.60</ele>
	<time>2025-07-29T11:50:20.000Z</time>
</trkpt>
<trkpt lat="45.9049300" lon="10.3081400">
	<ele>1086.40</ele>
	<time>2025-07-29T11:50:21.000Z</time>
</trkpt>
<trkpt lat="45.9049410" lon="10.3081410">
	<ele>1086.00</ele>
	<time>2025-07-29T11:50:22.000Z</time>
</trkpt>
<trkpt lat="45.9049530" lon="10.3081320">
	<ele>1085.80</ele>
	<time>2025-07-29T11:50:23.000Z</time>
</trkpt>
<trkpt lat="45.9049700" lon="10.3081220">
	<ele>1085.60</ele>
	<time>2025-07-29T11:50:24.000Z</time>
</trkpt>
<trkpt lat="45.9049920" lon="10.3081200">
	<ele>1085.20</ele>
	<time>2025-07-29T11:50:25.000Z</time>
</trkpt>
<trkpt lat="45.9050130" lon="10.3081190">
	<ele>1085.00</ele>
	<time>2025-07-29T11:50:26.000Z</time>
</trkpt>
<trkpt lat="45.9050260" lon="10.3081200">
	<ele>1084.80</ele>
	<time>2025-07-29T11:50:27.000Z</time>
</trkpt>
<trkpt lat="45.9050340" lon="10.3081190">
	<ele>1084.60</ele>
	<time>2025-07-29T11:50:28.000Z</time>
</trkpt>
<trkpt lat="45.9050450" lon="10.3081050">
	<ele>1084.40</ele>
	<time>2025-07-29T11:50:29.000Z</time>
</trkpt>
<trkpt lat="45.9050610" lon="10.3080940">
	<ele>1084.20</ele>
	<time>2025-07-29T11:50:30.000Z</time>
</trkpt>
<trkpt lat="45.9050700" lon="10.3080910">
	<ele>1083.60</ele>
	<time>2025-07-29T11:50:31.000Z</time>
</trkpt>
<trkpt lat="45.9050730" lon="10.3080890">
	<ele>1083.40</ele>
	<time>2025-07-29T11:50:32.000Z</time>
</trkpt>
<trkpt lat="45.9050740" lon="10.3080900">
	<ele>1083.20</ele>
	<time>2025-07-29T11:50:33.000Z</time>
</trkpt>
<trkpt lat="45.9050770" lon="10.3080880">
	<ele>1083.00</ele>
	<time>2025-07-29T11:50:34.000Z</time>
</trkpt>
<trkpt lat="45.9050770" lon="10.3080890">
	<ele>1083.00</ele>
	<time>2025-07-29T11:50:35.000Z</time>
</trkpt>
<trkpt lat="45.9050770" lon="10.3080920">
	<ele>1083.00</ele>
	<time>2025-07-29T11:50:36.000Z</time>
</trkpt>
<trkpt lat="45.9050770" lon="10.3080970">
	<ele>1083.00</ele>
	<time>2025-07-29T11:50:37.000Z</time>
</trkpt>
<trkpt lat="45.9050750" lon="10.3081010">
	<ele>1083.00</ele>
	<time>2025-07-29T11:50:38.000Z</time>
</trkpt>
<trkpt lat="45.9050730" lon="10.3081030">
	<ele>1083.00</ele>
	<time>2025-07-29T11:50:39.000Z</time>
</trkpt>
<trkpt lat="45.9050590" lon="10.3081180">
	<ele>1083.00</ele>
	<time>2025-07-29T11:50:40.000Z</time>
</trkpt>
<trkpt lat="45.9050550" lon="10.3081240">
	<ele>1083.00</ele>
	<time>2025-07-29T11:50:41.000Z</time>
</trkpt>
<trkpt lat="45.9050550" lon="10.3081190">
	<ele>1083.00</ele>
	<time>2025-07-29T11:50:42.000Z</time>
</trkpt>
<trkpt lat="45.9050560" lon="10.3081180">
	<ele>1083.00</ele>
	<time>2025-07-29T11:50:43.000Z</time>
</trkpt>
<trkpt lat="45.9050600" lon="10.3081300">
	<ele>1083.00</ele>
	<time>2025-07-29T11:50:44.000Z</time>
</trkpt>
<trkpt lat="45.9050670" lon="10.3081440">
	<ele>1083.00</ele>
	<time>2025-07-29T11:50:45.000Z</time>
</trkpt>
<trkpt lat="45.9050760" lon="10.3081510">
	<ele>1082.80</ele>
	<time>2025-07-29T11:50:46.000Z</time>
</trkpt>
<trkpt lat="45.9050860" lon="10.3081550">
	<ele>1082.60</ele>
	<time>2025-07-29T11:50:47.000Z</time>
</trkpt>
<trkpt lat="45.9050920" lon="10.3081600">
	<ele>1082.60</ele>
	<time>2025-07-29T11:50:48.000Z</time>
</trkpt>
<trkpt lat="45.9050940" lon="10.3081650">
	<ele>1082.20</ele>
	<time>2025-07-29T11:50:49.000Z</time>
</trkpt>
<trkpt lat="45.9050910" lon="10.3081800">
	<ele>1082.20</ele>
	<time>2025-07-29T11:50:50.000Z</time>
</trkpt>
<trkpt lat="45.9050900" lon="10.3081810">
	<ele>1081.80</ele>
	<time>2025-07-29T11:50:51.000Z</time>
</trkpt>
<trkpt lat="45.9050860" lon="10.3081860">
	<ele>1081.80</ele>
	<time>2025-07-29T11:50:52.000Z</time>
</trkpt>
<trkpt lat="45.9050730" lon="10.3081870">
	<ele>1081.40</ele>
	<time>2025-07-29T11:50:53.000Z</time>
</trkpt>
<trkpt lat="45.9050580" lon="10.3081810">
	<ele>1081.20</ele>
	<time>2025-07-29T11:50:54.000Z</time>
</trkpt>
<trkpt lat="45.9050450" lon="10.3081740">
	<ele>1081.00</ele>
	<time>2025-07-29T11:50:55.000Z</time>
</trkpt>
<trkpt lat="45.9050320" lon="10.3081660">
	<ele>1080.80</ele>
	<time>2025-07-29T11:50:56.000Z</time>
</trkpt>
<trkpt lat="45.9050170" lon="10.3081670">
	<ele>1080.40</ele>
	<time>2025-07-29T11:50:57.000Z</time>
</trkpt>
<trkpt lat="45.9050090" lon="10.3081810">
	<ele>1080.20</ele>
	<time>2025-07-29T11:50:58.000Z</time>
</trkpt>
<trkpt lat="45.9050020" lon="10.3081960">
	<ele>1079.80</ele>
	<time>2025-07-29T11:50:59.000Z</time>
</trkpt>
<trkpt lat="45.9049970" lon="10.3082160">
	<ele>1079.40</ele>
	<time>2025-07-29T11:51:00.000Z</time>
</trkpt>
<trkpt lat="45.9049840" lon="10.3082390">
	<ele>1079.20</ele>
	<time>2025-07-29T11:51:01.000Z</time>
</trkpt>
<trkpt lat="45.9049770" lon="10.3082620">
	<ele>1078.80</ele>
	<time>2025-07-29T11:51:02.000Z</time>
</trkpt>
<trkpt lat="45.9049670" lon="10.3082740">
	<ele>1078.60</ele>
	<time>2025-07-29T11:51:03.000Z</time>
</trkpt>
<trkpt lat="45.9049600" lon="10.3082820">
	<ele>1078.20</ele>
	<time>2025-07-29T11:51:04.000Z</time>
</trkpt>
<trkpt lat="45.9049550" lon="10.3082840">
	<ele>1078.00</ele>
	<time>2025-07-29T11:51:05.000Z</time>
</trkpt>
<trkpt lat="45.9049450" lon="10.3082800">
	<ele>1077.80</ele>
	<time>2025-07-29T11:51:06.000Z</time>
</trkpt>
<trkpt lat="45.9049330" lon="10.3082740">
	<ele>1077.60</ele>
	<time>2025-07-29T11:51:07.000Z</time>
</trkpt>
<trkpt lat="45.9049210" lon="10.3082780">
	<ele>1077.40</ele>
	<time>2025-07-29T11:51:08.000Z</time>
</trkpt>
<trkpt lat="45.9049170" lon="10.3082850">
	<ele>1077.20</ele>
	<time>2025-07-29T11:51:09.000Z</time>
</trkpt>
<trkpt lat="45.9049180" lon="10.3082910">
	<ele>1077.00</ele>
	<time>2025-07-29T11:51:10.000Z</time>
</trkpt>
<trkpt lat="45.9049170" lon="10.3083020">
	<ele>1076.60</ele>
	<time>2025-07-29T11:51:11.000Z</time>
</trkpt>
<trkpt lat="45.9049090" lon="10.3083170">
	<ele>1076.40</ele>
	<time>2025-07-29T11:51:12.000Z</time>
</trkpt>
<trkpt lat="45.9049030" lon="10.3083410">
	<ele>1076.20</ele>
	<time>2025-07-29T11:51:13.000Z</time>
</trkpt>
<trkpt lat="45.9049040" lon="10.3083600">
	<ele>1075.80</ele>
	<time>2025-07-29T11:51:14.000Z</time>
</trkpt>
<trkpt lat="45.9048990" lon="10.3083730">
	<ele>1075.60</ele>
	<time>2025-07-29T11:51:15.000Z</time>
</trkpt>
<trkpt lat="45.9048970" lon="10.3083870">
	<ele>1075.40</ele>
	<time>2025-07-29T11:51:16.000Z</time>
</trkpt>
<trkpt lat="45.9048930" lon="10.3083960">
	<ele>1075.00</ele>
	<time>2025-07-29T11:51:17.000Z</time>
</trkpt>
<trkpt lat="45.9048900" lon="10.3084030">
	<ele>1074.80</ele>
	<time>2025-07-29T11:51:18.000Z</time>
</trkpt>
<trkpt lat="45.9048850" lon="10.3084160">
	<ele>1074.60</ele>
	<time>2025-07-29T11:51:19.000Z</time>
</trkpt>
<trkpt lat="45.9048800" lon="10.3084330">
	<ele>1074.40</ele>
	<time>2025-07-29T11:51:20.000Z</time>
</trkpt>
<trkpt lat="45.9048760" lon="10.3084580">
	<ele>1074.20</ele>
	<time>2025-07-29T11:51:21.000Z</time>
</trkpt>
<trkpt lat="45.9048700" lon="10.3084920">
	<ele>1073.80</ele>
	<time>2025-07-29T11:51:22.000Z</time>
</trkpt>
<trkpt lat="45.9048650" lon="10.3085260">
	<ele>1073.60</ele>
	<time>2025-07-29T11:51:23.000Z</time>
</trkpt>
<trkpt lat="45.9048610" lon="10.3085570">
	<ele>1073.40</ele>
	<time>2025-07-29T11:51:24.000Z</time>
</trkpt>
<trkpt lat="45.9048630" lon="10.3085870">
	<ele>1073.20</ele>
	<time>2025-07-29T11:51:25.000Z</time>
</trkpt>
<trkpt lat="45.9048690" lon="10.3086160">
	<ele>1072.80</ele>
	<time>2025-07-29T11:51:26.000Z</time>
</trkpt>
<trkpt lat="45.9048700" lon="10.3086410">
	<ele>1072.60</ele>
	<time>2025-07-29T11:51:27.000Z</time>
</trkpt>
<trkpt lat="45.9048690" lon="10.3086610">
	<ele>1072.40</ele>
	<time>2025-07-29T11:51:28.000Z</time>
</trkpt>
<trkpt lat="45.9048680" lon="10.3086740">
	<ele>1072.20</ele>
	<time>2025-07-29T11:51:29.000Z</time>
</trkpt>
<trkpt lat="45.9048660" lon="10.3086880">
	<ele>1072.00</ele>
	<time>2025-07-29T11:51:30.000Z</time>
</trkpt>
<trkpt lat="45.9048590" lon="10.3087050">
	<ele>1071.80</ele>
	<time>2025-07-29T11:51:31.000Z</time>
</trkpt>
<trkpt lat="45.9048570" lon="10.3087350">
	<ele>1071.40</ele>
	<time>2025-07-29T11:51:32.000Z</time>
</trkpt>
<trkpt lat="45.9048450" lon="10.3087520">
	<ele>1071.20</ele>
	<time>2025-07-29T11:51:33.000Z</time>
</trkpt>
<trkpt lat="45.9048420" lon="10.3087610">
	<ele>1070.80</ele>
	<time>2025-07-29T11:51:34.000Z</time>
</trkpt>
<trkpt lat="45.9048310" lon="10.3087750">
	<ele>1070.60</ele>
	<time>2025-07-29T11:51:35.000Z</time>
</trkpt>
<trkpt lat="45.9048280" lon="10.3087970">
	<ele>1070.40</ele>
	<time>2025-07-29T11:51:36.000Z</time>
</trkpt>
<trkpt lat="45.9048290" lon="10.3088140">
	<ele>1070.40</ele>
	<time>2025-07-29T11:51:37.000Z</time>
</trkpt>
<trkpt lat="45.9048270" lon="10.3088360">
	<ele>1070.20</ele>
	<time>2025-07-29T11:51:38.000Z</time>
</trkpt>
<trkpt lat="45.9048310" lon="10.3088530">
	<ele>1070.00</ele>
	<time>2025-07-29T11:51:39.000Z</time>
</trkpt>
<trkpt lat="45.9048240" lon="10.3088730">
	<ele>1069.60</ele>
	<time>2025-07-29T11:51:40.000Z</time>
</trkpt>
<trkpt lat="45.9048180" lon="10.3088880">
	<ele>1069.20</ele>
	<time>2025-07-29T11:51:41.000Z</time>
</trkpt>
<trkpt lat="45.9048080" lon="10.3089090">
	<ele>1069.00</ele>
	<time>2025-07-29T11:51:42.000Z</time>
</trkpt>
<trkpt lat="45.9048030" lon="10.3089250">
	<ele>1068.80</ele>
	<time>2025-07-29T11:51:43.000Z</time>
</trkpt>
<trkpt lat="45.9047960" lon="10.3089480">
	<ele>1068.60</ele>
	<time>2025-07-29T11:51:44.000Z</time>
</trkpt>
<trkpt lat="45.9047890" lon="10.3089650">
	<ele>1068.40</ele>
	<time>2025-07-29T11:51:45.000Z</time>
</trkpt>
<trkpt lat="45.9047880" lon="10.3089830">
	<ele>1068.00</ele>
	<time>2025-07-29T11:51:46.000Z</time>
</trkpt>
<trkpt lat="45.9047820" lon="10.3090030">
	<ele>1067.80</ele>
	<time>2025-07-29T11:51:47.000Z</time>
</trkpt>
<trkpt lat="45.9047710" lon="10.3090250">
	<ele>1067.60</ele>
	<time>2025-07-29T11:51:48.000Z</time>
</trkpt>
<trkpt lat="45.9047570" lon="10.3090470">
	<ele>1067.60</ele>
	<time>2025-07-29T11:51:49.000Z</time>
</trkpt>
<trkpt lat="45.9047500" lon="10.3090680">
	<ele>1067.20</ele>
	<time>2025-07-29T11:51:50.000Z</time>
</trkpt>
<trkpt lat="45.9047420" lon="10.3090840">
	<ele>1067.20</ele>
	<time>2025-07-29T11:51:51.000Z</time>
</trkpt>
<trkpt lat="45.9047380" lon="10.3090970">
	<ele>1066.80</ele>
	<time>2025-07-29T11:51:52.000Z</time>
</trkpt>
<trkpt lat="45.9047420" lon="10.3091190">
	<ele>1066.80</ele>
	<time>2025-07-29T11:51:53.000Z</time>
</trkpt>
<trkpt lat="45.9047400" lon="10.3091300">
	<ele>1066.40</ele>
	<time>2025-07-29T11:51:54.000Z</time>
</trkpt>
<trkpt lat="45.9047380" lon="10.3091340">
	<ele>1066.20</ele>
	<time>2025-07-29T11:51:55.000Z</time>
</trkpt>
<trkpt lat="45.9047320" lon="10.3091450">
	<ele>1066.00</ele>
	<time>2025-07-29T11:51:56.000Z</time>
</trkpt>
<trkpt lat="45.9047270" lon="10.3091590">
	<ele>1066.00</ele>
	<time>2025-07-29T11:51:57.000Z</time>
</trkpt>
<trkpt lat="45.9047220" lon="10.3091790">
	<ele>1065.80</ele>
	<time>2025-07-29T11:51:58.000Z</time>
</trkpt>
<trkpt lat="45.9047150" lon="10.3092140">
	<ele>1065.40</ele>
	<time>2025-07-29T11:51:59.000Z</time>
</trkpt>
<trkpt lat="45.9047050" lon="10.3092510">
	<ele>1065.40</ele>
	<time>2025-07-29T11:52:00.000Z</time>
</trkpt>
<trkpt lat="45.9047000" lon="10.3092760">
	<ele>1065.20</ele>
	<time>2025-07-29T11:52:01.000Z</time>
</trkpt>
<trkpt lat="45.9046900" lon="10.3093110">
	<ele>1065.00</ele>
	<time>2025-07-29T11:52:02.000Z</time>
</trkpt>
<trkpt lat="45.9046830" lon="10.3093390">
	<ele>1064.60</ele>
	<time>2025-07-29T11:52:03.000Z</time>
</trkpt>
<trkpt lat="45.9046740" lon="10.3093630">
	<ele>1064.40</ele>
	<time>2025-07-29T11:52:04.000Z</time>
</trkpt>
<trkpt lat="45.9046690" lon="10.3093890">
	<ele>1064.20</ele>
	<time>2025-07-29T11:52:05.000Z</time>
</trkpt>
<trkpt lat="45.9046620" lon="10.3094100">
	<ele>1064.00</ele>
	<time>2025-07-29T11:52:06.000Z</time>
</trkpt>
<trkpt lat="45.9046580" lon="10.3094220">
	<ele>1063.80</ele>
	<time>2025-07-29T11:52:07.000Z</time>
</trkpt>
<trkpt lat="45.9046500" lon="10.3094340">
	<ele>1063.40</ele>
	<time>2025-07-29T11:52:08.000Z</time>
</trkpt>
<trkpt lat="45.9046460" lon="10.3094480">
	<ele>1063.20</ele>
	<time>2025-07-29T11:52:09.000Z</time>
</trkpt>
<trkpt lat="45.9046400" lon="10.3094600">
	<ele>1062.80</ele>
	<time>2025-07-29T11:52:10.000Z</time>
</trkpt>
<trkpt lat="45.9046360" lon="10.3094830">
	<ele>1062.60</ele>
	<time>2025-07-29T11:52:11.000Z</time>
</trkpt>
<trkpt lat="45.9046260" lon="10.3094900">
	<ele>1062.20</ele>
	<time>2025-07-29T11:52:12.000Z</time>
</trkpt>
<trkpt lat="45.9046100" lon="10.3094960">
	<ele>1061.80</ele>
	<time>2025-07-29T11:52:13.000Z</time>
</trkpt>
<trkpt lat="45.9045990" lon="10.3095060">
	<ele>1061.60</ele>
	<time>2025-07-29T11:52:14.000Z</time>
</trkpt>
<trkpt lat="45.9045950" lon="10.3095190">
	<ele>1061.40</ele>
	<time>2025-07-29T11:52:15.000Z</time>
</trkpt>
<trkpt lat="45.9045960" lon="10.3095340">
	<ele>1061.00</ele>
	<time>2025-07-29T11:52:16.000Z</time>
</trkpt>
<trkpt lat="45.9045870" lon="10.3095430">
	<ele>1060.80</ele>
	<time>2025-07-29T11:52:17.000Z</time>
</trkpt>
<trkpt lat="45.9045800" lon="10.3095560">
	<ele>1060.80</ele>
	<time>2025-07-29T11:52:18.000Z</time>
</trkpt>
<trkpt lat="45.9045740" lon="10.3095760">
	<ele>1060.60</ele>
	<time>2025-07-29T11:52:19.000Z</time>
</trkpt>
<trkpt lat="45.9045740" lon="10.3095920">
	<ele>1060.40</ele>
	<time>2025-07-29T11:52:20.000Z</time>
</trkpt>
<trkpt lat="45.9045740" lon="10.3096210">
	<ele>1060.20</ele>
	<time>2025-07-29T11:52:21.000Z</time>
</trkpt>
<trkpt lat="45.9045700" lon="10.3096400">
	<ele>1060.20</ele>
	<time>2025-07-29T11:52:22.000Z</time>
</trkpt>
<trkpt lat="45.9045640" lon="10.3096560">
	<ele>1059.80</ele>
	<time>2025-07-29T11:52:23.000Z</time>
</trkpt>
<trkpt lat="45.9045660" lon="10.3096680">
	<ele>1059.60</ele>
	<time>2025-07-29T11:52:24.000Z</time>
</trkpt>
<trkpt lat="45.9045680" lon="10.3096760">
	<ele>1059.40</ele>
	<time>2025-07-29T11:52:25.000Z</time>
</trkpt>
<trkpt lat="45.9045640" lon="10.3096900">
	<ele>1059.00</ele>
	<time>2025-07-29T11:52:26.000Z</time>
</trkpt>
<trkpt lat="45.9045650" lon="10.3096980">
	<ele>1058.60</ele>
	<time>2025-07-29T11:52:27.000Z</time>
</trkpt>
<trkpt lat="45.9045680" lon="10.3097090">
	<ele>1058.40</ele>
	<time>2025-07-29T11:52:28.000Z</time>
</trkpt>
<trkpt lat="45.9045690" lon="10.3097190">
	<ele>1058.20</ele>
	<time>2025-07-29T11:52:29.000Z</time>
</trkpt>
<trkpt lat="45.9045750" lon="10.3097170">
	<ele>1057.80</ele>
	<time>2025-07-29T11:52:30.000Z</time>
</trkpt>
<trkpt lat="45.9045760" lon="10.3097150">
	<ele>1057.60</ele>
	<time>2025-07-29T11:52:31.000Z</time>
</trkpt>
<trkpt lat="45.9045710" lon="10.3097150">
	<ele>1057.40</ele>
	<time>2025-07-29T11:52:32.000Z</time>
</trkpt>
<trkpt lat="45.9045830" lon="10.3097250">
	<ele>1057.20</ele>
	<time>2025-07-29T11:52:33.000Z</time>
</trkpt>
<trkpt lat="45.9045860" lon="10.3097240">
	<ele>1057.00</ele>
	<time>2025-07-29T11:52:34.000Z</time>
</trkpt>
<trkpt lat="45.9045950" lon="10.3097370">
	<ele>1056.60</ele>
	<time>2025-07-29T11:52:35.000Z</time>
</trkpt>
<trkpt lat="45.9046170" lon="10.3097440">
	<ele>1056.20</ele>
	<time>2025-07-29T11:52:36.000Z</time>
</trkpt>
<trkpt lat="45.9046370" lon="10.3097390">
	<ele>1056.00</ele>
	<time>2025-07-29T11:52:37.000Z</time>
</trkpt>
<trkpt lat="45.9046600" lon="10.3097270">
	<ele>1055.60</ele>
	<time>2025-07-29T11:52:38.000Z</time>
</trkpt>
<trkpt lat="45.9046750" lon="10.3097110">
	<ele>1055.40</ele>
	<time>2025-07-29T11:52:39.000Z</time>
</trkpt>
<trkpt lat="45.9046850" lon="10.3096940">
	<ele>1055.20</ele>
	<time>2025-07-29T11:52:40.000Z</time>
</trkpt>
<trkpt lat="45.9046910" lon="10.3096780">
	<ele>1054.80</ele>
	<time>2025-07-29T11:52:41.000Z</time>
</trkpt>
<trkpt lat="45.9046900" lon="10.3096550">
	<ele>1054.60</ele>
	<time>2025-07-29T11:52:42.000Z</time>
</trkpt>
<trkpt lat="45.9046970" lon="10.3096350">
	<ele>1054.20</ele>
	<time>2025-07-29T11:52:43.000Z</time>
</trkpt>
<trkpt lat="45.9046990" lon="10.3096220">
	<ele>1054.20</ele>
	<time>2025-07-29T11:52:44.000Z</time>
</trkpt>
<trkpt lat="45.9047040" lon="10.3096130">
	<ele>1054.00</ele>
	<time>2025-07-29T11:52:45.000Z</time>
</trkpt>
<trkpt lat="45.9047150" lon="10.3096070">
	<ele>1053.80</ele>
	<time>2025-07-29T11:52:46.000Z</time>
</trkpt>
<trkpt lat="45.9047250" lon="10.3096050">
	<ele>1053.40</ele>
	<time>2025-07-29T11:52:47.000Z</time>
</trkpt>
<trkpt lat="45.9047360" lon="10.3096100">
	<ele>1053.20</ele>
	<time>2025-07-29T11:52:48.000Z</time>
</trkpt>
<trkpt lat="45.9047430" lon="10.3096210">
	<ele>1053.00</ele>
	<time>2025-07-29T11:52:49.000Z</time>
</trkpt>
<trkpt lat="45.9047450" lon="10.3096260">
	<ele>1052.80</ele>
	<time>2025-07-29T11:52:50.000Z</time>
</trkpt>
<trkpt lat="45.9047490" lon="10.3096280">
	<ele>1052.40</ele>
	<time>2025-07-29T11:52:51.000Z</time>
</trkpt>
<trkpt lat="45.9047540" lon="10.3096310">
	<ele>1052.20</ele>
	<time>2025-07-29T11:52:52.000Z</time>
</trkpt>
<trkpt lat="45.9047630" lon="10.3096240">
	<ele>1052.00</ele>
	<time>2025-07-29T11:52:53.000Z</time>
</trkpt>
<trkpt lat="45.9047760" lon="10.3096160">
	<ele>1051.80</ele>
	<time>2025-07-29T11:52:54.000Z</time>
</trkpt>
<trkpt lat="45.9047960" lon="10.3096050">
	<ele>1051.40</ele>
	<time>2025-07-29T11:52:55.000Z</time>
</trkpt>
<trkpt lat="45.9048110" lon="10.3095990">
	<ele>1051.20</ele>
	<time>2025-07-29T11:52:56.000Z</time>
</trkpt>
<trkpt lat="45.9048280" lon="10.3095900">
	<ele>1051.00</ele>
	<time>2025-07-29T11:52:57.000Z</time>
</trkpt>
<trkpt lat="45.9048430" lon="10.3095810">
	<ele>1050.80</ele>
	<time>2025-07-29T11:52:58.000Z</time>
</trkpt>
<trkpt lat="45.9048540" lon="10.3095830">
	<ele>1050.40</ele>
	<time>2025-07-29T11:52:59.000Z</time>
</trkpt>
<trkpt lat="45.9048650" lon="10.3095830">
	<ele>1050.20</ele>
	<time>2025-07-29T11:53:00.000Z</time>
</trkpt>
<trkpt lat="45.9048760" lon="10.3095770">
	<ele>1050.00</ele>
	<time>2025-07-29T11:53:01.000Z</time>
</trkpt>
<trkpt lat="45.9048860" lon="10.3095680">
	<ele>1050.00</ele>
	<time>2025-07-29T11:53:02.000Z</time>
</trkpt>
<trkpt lat="45.9048940" lon="10.3095610">
	<ele>1050.00</ele>
	<time>2025-07-29T11:53:03.000Z</time>
</trkpt>
<trkpt lat="45.9049020" lon="10.3095550">
	<ele>1049.80</ele>
	<time>2025-07-29T11:53:04.000Z</time>
</trkpt>
<trkpt lat="45.9049120" lon="10.3095470">
	<ele>1049.60</ele>
	<time>2025-07-29T11:53:05.000Z</time>
</trkpt>
<trkpt lat="45.9049210" lon="10.3095330">
	<ele>1049.40</ele>
	<time>2025-07-29T11:53:06.000Z</time>
</trkpt>
<trkpt lat="45.9049290" lon="10.3095190">
	<ele>1049.20</ele>
	<time>2025-07-29T11:53:07.000Z</time>
</trkpt>
<trkpt lat="45.9049380" lon="10.3095120">
	<ele>1049.00</ele>
	<time>2025-07-29T11:53:08.000Z</time>
</trkpt>
<trkpt lat="45.9049450" lon="10.3095000">
	<ele>1048.60</ele>
	<time>2025-07-29T11:53:09.000Z</time>
</trkpt>
<trkpt lat="45.9049610" lon="10.3094820">
	<ele>1048.40</ele>
	<time>2025-07-29T11:53:10.000Z</time>
</trkpt>
<trkpt lat="45.9049720" lon="10.3094630">
	<ele>1048.20</ele>
	<time>2025-07-29T11:53:11.000Z</time>
</trkpt>
<trkpt lat="45.9049850" lon="10.3094610">
	<ele>1048.00</ele>
	<time>2025-07-29T11:53:12.000Z</time>
</trkpt>
<trkpt lat="45.9049970" lon="10.3094480">
	<ele>1047.80</ele>
	<time>2025-07-29T11:53:13.000Z</time>
</trkpt>
<trkpt lat="45.9050030" lon="10.3094350">
	<ele>1047.40</ele>
	<time>2025-07-29T11:53:14.000Z</time>
</trkpt>
<trkpt lat="45.9050140" lon="10.3094360">
	<ele>1047.40</ele>
	<time>2025-07-29T11:53:15.000Z</time>
</trkpt>
<trkpt lat="45.9050320" lon="10.3094290">
	<ele>1047.20</ele>
	<time>2025-07-29T11:53:16.000Z</time>
</trkpt>
<trkpt lat="45.9050620" lon="10.3094120">
	<ele>1047.00</ele>
	<time>2025-07-29T11:53:17.000Z</time>
</trkpt>
<trkpt lat="45.9050800" lon="10.3094030">
	<ele>1047.00</ele>
	<time>2025-07-29T11:53:18.000Z</time>
</trkpt>
<trkpt lat="45.9050950" lon="10.3093920">
	<ele>1046.80</ele>
	<time>2025-07-29T11:53:19.000Z</time>
</trkpt>
<trkpt lat="45.9051100" lon="10.3093800">
	<ele>1046.60</ele>
	<time>2025-07-29T11:53:20.000Z</time>
</trkpt>
<trkpt lat="45.9051180" lon="10.3093700">
	<ele>1046.40</ele>
	<time>2025-07-29T11:53:21.000Z</time>
</trkpt>
<trkpt lat="45.9051280" lon="10.3093600">
	<ele>1046.20</ele>
	<time>2025-07-29T11:53:22.000Z</time>
</trkpt>
<trkpt lat="45.9051350" lon="10.3093520">
	<ele>1046.00</ele>
	<time>2025-07-29T11:53:23.000Z</time>
</trkpt>
<trkpt lat="45.9051490" lon="10.3093330">
	<ele>1045.60</ele>
	<time>2025-07-29T11:53:24.000Z</time>
</trkpt>
<trkpt lat="45.9051570" lon="10.3093140">
	<ele>1045.40</ele>
	<time>2025-07-29T11:53:25.000Z</time>
</trkpt>
<trkpt lat="45.9051710" lon="10.3092900">
	<ele>1045.20</ele>
	<time>2025-07-29T11:53:26.000Z</time>
</trkpt>
<trkpt lat="45.9051770" lon="10.3092700">
	<ele>1045.00</ele>
	<time>2025-07-29T11:53:27.000Z</time>
</trkpt>
<trkpt lat="45.9051860" lon="10.3092490">
	<ele>1044.80</ele>
	<time>2025-07-29T11:53:28.000Z</time>
</trkpt>
<trkpt lat="45.9051900" lon="10.3092290">
	<ele>1044.40</ele>
	<time>2025-07-29T11:53:29.000Z</time>
</trkpt>
<trkpt lat="45.9051950" lon="10.3092120">
	<ele>1044.20</ele>
	<time>2025-07-29T11:53:30.000Z</time>
</trkpt>
<trkpt lat="45.9051990" lon="10.3091960">
	<ele>1044.00</ele>
	<time>2025-07-29T11:53:31.000Z</time>
</trkpt>
<trkpt lat="45.9052010" lon="10.3091840">
	<ele>1043.80</ele>
	<time>2025-07-29T11:53:32.000Z</time>
</trkpt>
<trkpt lat="45.9052000" lon="10.3091750">
	<ele>1043.60</ele>
	<time>2025-07-29T11:53:33.000Z</time>
</trkpt>
<trkpt lat="45.9052020" lon="10.3091670">
	<ele>1043.40</ele>
	<time>2025-07-29T11:53:34.000Z</time>
</trkpt>
<trkpt lat="45.9052080" lon="10.3091570">
	<ele>1043.40</ele>
	<time>2025-07-29T11:53:35.000Z</time>
</trkpt>
<trkpt lat="45.9052210" lon="10.3091500">
	<ele>1043.20</ele>
	<time>2025-07-29T11:53:36.000Z</time>
</trkpt>
<trkpt lat="45.9052320" lon="10.3091380">
	<ele>1043.00</ele>
	<time>2025-07-29T11:53:37.000Z</time>
</trkpt>
<trkpt lat="45.9052320" lon="10.3091330">
	<ele>1043.00</ele>
	<time>2025-07-29T11:53:38.000Z</time>
</trkpt>
<trkpt lat="45.9052410" lon="10.3091240">
	<ele>1042.80</ele>
	<time>2025-07-29T11:53:39.000Z</time>
</trkpt>
<trkpt lat="45.9052560" lon="10.3091200">
	<ele>1042.60</ele>
	<time>2025-07-29T11:53:40.000Z</time>
</trkpt>
<trkpt lat="45.9052690" lon="10.3091080">
	<ele>1042.40</ele>
	<time>2025-07-29T11:53:41.000Z</time>
</trkpt>
<trkpt lat="45.9052800" lon="10.3091000">
	<ele>1042.00</ele>
	<time>2025-07-29T11:53:42.000Z</time>
</trkpt>
<trkpt lat="45.9052840" lon="10.3090960">
	<ele>1041.80</ele>
	<time>2025-07-29T11:53:43.000Z</time>
</trkpt>
<trkpt lat="45.9052920" lon="10.3090810">
	<ele>1041.40</ele>
	<time>2025-07-29T11:53:44.000Z</time>
</trkpt>
<trkpt lat="45.9053010" lon="10.3090700">
	<ele>1041.20</ele>
	<time>2025-07-29T11:53:45.000Z</time>
</trkpt>
<trkpt lat="45.9053150" lon="10.3090540">
	<ele>1041.00</ele>
	<time>2025-07-29T11:53:46.000Z</time>
</trkpt>
<trkpt lat="45.9053280" lon="10.3090390">
	<ele>1040.80</ele>
	<time>2025-07-29T11:53:47.000Z</time>
</trkpt>
<trkpt lat="45.9053350" lon="10.3090300">
	<ele>1040.60</ele>
	<time>2025-07-29T11:53:48.000Z</time>
</trkpt>
<trkpt lat="45.9053490" lon="10.3090350">
	<ele>1040.40</ele>
	<time>2025-07-29T11:53:49.000Z</time>
</trkpt>
<trkpt lat="45.9053580" lon="10.3090370">
	<ele>1040.40</ele>
	<time>2025-07-29T11:53:50.000Z</time>
</trkpt>
<trkpt lat="45.9053680" lon="10.3090210">
	<ele>1040.20</ele>
	<time>2025-07-29T11:53:51.000Z</time>
</trkpt>
<trkpt lat="45.9053830" lon="10.3090170">
	<ele>1039.80</ele>
	<time>2025-07-29T11:53:52.000Z</time>
</trkpt>
<trkpt lat="45.9054070" lon="10.3090120">
	<ele>1039.60</ele>
	<time>2025-07-29T11:53:53.000Z</time>
</trkpt>
<trkpt lat="45.9054290" lon="10.3090140">
	<ele>1039.40</ele>
	<time>2025-07-29T11:53:54.000Z</time>
</trkpt>
<trkpt lat="45.9054420" lon="10.3090080">
	<ele>1039.20</ele>
	<time>2025-07-29T11:53:55.000Z</time>
</trkpt>
<trkpt lat="45.9054630" lon="10.3090010">
	<ele>1039.00</ele>
	<time>2025-07-29T11:53:56.000Z</time>
</trkpt>
<trkpt lat="45.9054760" lon="10.3089890">
	<ele>1038.80</ele>
	<time>2025-07-29T11:53:57.000Z</time>
</trkpt>
<trkpt lat="45.9054900" lon="10.3089890">
	<ele>1038.60</ele>
	<time>2025-07-29T11:53:58.000Z</time>
</trkpt>
<trkpt lat="45.9054980" lon="10.3089870">
	<ele>1038.40</ele>
	<time>2025-07-29T11:53:59.000Z</time>
</trkpt>
<trkpt lat="45.9055010" lon="10.3089890">
	<ele>1038.20</ele>
	<time>2025-07-29T11:54:00.000Z</time>
</trkpt>
<trkpt lat="45.9055010" lon="10.3089890">
	<ele>1038.00</ele>
	<time>2025-07-29T11:54:01.000Z</time>
</trkpt>
<trkpt lat="45.9055020" lon="10.3089900">
	<ele>1037.80</ele>
	<time>2025-07-29T11:54:02.000Z</time>
</trkpt>
<trkpt lat="45.9055120" lon="10.3089680">
	<ele>1037.80</ele>
	<time>2025-07-29T11:54:03.000Z</time>
</trkpt>
<trkpt lat="45.9055250" lon="10.3089510">
	<ele>1037.60</ele>
	<time>2025-07-29T11:54:04.000Z</time>
</trkpt>
<trkpt lat="45.9055260" lon="10.3089500">
	<ele>1037.60</ele>
	<time>2025-07-29T11:54:05.000Z</time>
</trkpt>
<trkpt lat="45.9055470" lon="10.3089370">
	<ele>1037.40</ele>
	<time>2025-07-29T11:54:06.000Z</time>
</trkpt>
<trkpt lat="45.9055480" lon="10.3089360">
	<ele>1037.20</ele>
	<time>2025-07-29T11:54:07.000Z</time>
</trkpt>
<trkpt lat="45.9055740" lon="10.3089000">
	<ele>1037.00</ele>
	<time>2025-07-29T11:54:08.000Z</time>
</trkpt>
<trkpt lat="45.9056020" lon="10.3088720">
	<ele>1036.80</ele>
	<time>2025-07-29T11:54:09.000Z</time>
</trkpt>
<trkpt lat="45.9056230" lon="10.3088530">
	<ele>1036.80</ele>
	<time>2025-07-29T11:54:10.000Z</time>
</trkpt>
<trkpt lat="45.9056440" lon="10.3088250">
	<ele>1036.60</ele>
	<time>2025-07-29T11:54:11.000Z</time>
</trkpt>
<trkpt lat="45.9056670" lon="10.3087900">
	<ele>1036.40</ele>
	<time>2025-07-29T11:54:12.000Z</time>
</trkpt>
<trkpt lat="45.9056850" lon="10.3087550">
	<ele>1036.20</ele>
	<time>2025-07-29T11:54:13.000Z</time>
</trkpt>
<trkpt lat="45.9057030" lon="10.3087330">
	<ele>1036.00</ele>
	<time>2025-07-29T11:54:14.000Z</time>
</trkpt>
<trkpt lat="45.9057190" lon="10.3087130">
	<ele>1035.80</ele>
	<time>2025-07-29T11:54:15.000Z</time>
</trkpt>
<trkpt lat="45.9057310" lon="10.3086770">
	<ele>1035.60</ele>
	<time>2025-07-29T11:54:16.000Z</time>
</trkpt>
<trkpt lat="45.9057370" lon="10.3086620">
	<ele>1035.20</ele>
	<time>2025-07-29T11:54:17.000Z</time>
</trkpt>
<trkpt lat="45.9057340" lon="10.3086510">
	<ele>1035.00</ele>
	<time>2025-07-29T11:54:18.000Z</time>
</trkpt>
<trkpt lat="45.9057340" lon="10.3086230">
	<ele>1034.60</ele>
	<time>2025-07-29T11:54:19.000Z</time>
</trkpt>
<trkpt lat="45.9057330" lon="10.3086190">
	<ele>1034.40</ele>
	<time>2025-07-29T11:54:20.000Z</time>
</trkpt>
<trkpt lat="45.9057410" lon="10.3086170">
	<ele>1034.20</ele>
	<time>2025-07-29T11:54:21.000Z</time>
</trkpt>
<trkpt lat="45.9057510" lon="10.3086220">
	<ele>1034.00</ele>
	<time>2025-07-29T11:54:22.000Z</time>
</trkpt>
<trkpt lat="45.9057630" lon="10.3086090">
	<ele>1033.80</ele>
	<time>2025-07-29T11:54:23.000Z</time>
</trkpt>
<trkpt lat="45.9057740" lon="10.3085960">
	<ele>1033.60</ele>
	<time>2025-07-29T11:54:24.000Z</time>
</trkpt>
<trkpt lat="45.9057870" lon="10.3085840">
	<ele>1033.40</ele>
	<time>2025-07-29T11:54:25.000Z</time>
</trkpt>
<trkpt lat="45.9057980" lon="10.3085710">
	<ele>1033.00</ele>
	<time>2025-07-29T11:54:26.000Z</time>
</trkpt>
<trkpt lat="45.9058070" lon="10.3085650">
	<ele>1032.80</ele>
	<time>2025-07-29T11:54:27.000Z</time>
</trkpt>
<trkpt lat="45.9058110" lon="10.3085480">
	<ele>1032.60</ele>
	<time>2025-07-29T11:54:28.000Z</time>
</trkpt>
<trkpt lat="45.9058070" lon="10.3085480">
	<ele>1032.20</ele>
	<time>2025-07-29T11:54:29.000Z</time>
</trkpt>
<trkpt lat="45.9058140" lon="10.3085360">
	<ele>1032.00</ele>
	<time>2025-07-29T11:54:30.000Z</time>
</trkpt>
<trkpt lat="45.9058140" lon="10.3085360">
	<ele>1031.80</ele>
	<time>2025-07-29T11:54:31.000Z</time>
</trkpt>
<trkpt lat="45.9058260" lon="10.3085010">
	<ele>1031.40</ele>
	<time>2025-07-29T11:54:32.000Z</time>
</trkpt>
<trkpt lat="45.9058340" lon="10.3084830">
	<ele>1031.00</ele>
	<time>2025-07-29T11:54:33.000Z</time>
</trkpt>
<trkpt lat="45.9058450" lon="10.3084560">
	<ele>1030.60</ele>
	<time>2025-07-29T11:54:34.000Z</time>
</trkpt>
<trkpt lat="45.9058570" lon="10.3084290">
	<ele>1030.20</ele>
	<time>2025-07-29T11:54:35.000Z</time>
</trkpt>
<trkpt lat="45.9058640" lon="10.3084200">
	<ele>1030.00</ele>
	<time>2025-07-29T11:54:36.000Z</time>
</trkpt>
<trkpt lat="45.9058690" lon="10.3084120">
	<ele>1029.80</ele>
	<time>2025-07-29T11:54:37.000Z</time>
</trkpt>
<trkpt lat="45.9058640" lon="10.3084230">
	<ele>1029.40</ele>
	<time>2025-07-29T11:54:38.000Z</time>
</trkpt>
<trkpt lat="45.9058590" lon="10.3084260">
	<ele>1029.40</ele>
	<time>2025-07-29T11:54:39.000Z</time>
</trkpt>
<trkpt lat="45.9058540" lon="10.3084190">
	<ele>1029.20</ele>
	<time>2025-07-29T11:54:40.000Z</time>
</trkpt>
<trkpt lat="45.9058490" lon="10.3084150">
	<ele>1029.00</ele>
	<time>2025-07-29T11:54:41.000Z</time>
</trkpt>
<trkpt lat="45.9058510" lon="10.3083870">
	<ele>1028.80</ele>
	<time>2025-07-29T11:54:42.000Z</time>
</trkpt>
<trkpt lat="45.9058550" lon="10.3083680">
	<ele>1028.60</ele>
	<time>2025-07-29T11:54:43.000Z</time>
</trkpt>
<trkpt lat="45.9058540" lon="10.3083460">
	<ele>1028.60</ele>
	<time>2025-07-29T11:54:44.000Z</time>
</trkpt>
<trkpt lat="45.9058560" lon="10.3083280">
	<ele>1028.40</ele>
	<time>2025-07-29T11:54:45.000Z</time>
</trkpt>
<trkpt lat="45.9058580" lon="10.3083230">
	<ele>1028.40</ele>
	<time>2025-07-29T11:54:46.000Z</time>
</trkpt>
<trkpt lat="45.9058610" lon="10.3083240">
	<ele>1028.40</ele>
	<time>2025-07-29T11:54:47.000Z</time>
</trkpt>
<trkpt lat="45.9058650" lon="10.3083240">
	<ele>1028.60</ele>
	<time>2025-07-29T11:54:48.000Z</time>
</trkpt>
<trkpt lat="45.9058710" lon="10.3083260">
	<ele>1028.60</ele>
	<time>2025-07-29T11:54:49.000Z</time>
</trkpt>
<trkpt lat="45.9058750" lon="10.3083290">
	<ele>1028.60</ele>
	<time>2025-07-29T11:54:50.000Z</time>
</trkpt>
<trkpt lat="45.9058780" lon="10.3083360">
	<ele>1028.60</ele>
	<time>2025-07-29T11:54:51.000Z</time>
</trkpt>
<trkpt lat="45.9058810" lon="10.3083330">
	<ele>1028.60</ele>
	<time>2025-07-29T11:54:52.000Z</time>
</trkpt>
<trkpt lat="45.9058850" lon="10.3083320">
	<ele>1028.40</ele>
	<time>2025-07-29T11:54:53.000Z</time>
</trkpt>
<trkpt lat="45.9058960" lon="10.3083310">
	<ele>1028.40</ele>
	<time>2025-07-29T11:54:54.000Z</time>
</trkpt>
<trkpt lat="45.9059050" lon="10.3083250">
	<ele>1028.20</ele>
	<time>2025-07-29T11:54:55.000Z</time>
</trkpt>
<trkpt lat="45.9059140" lon="10.3083160">
	<ele>1028.20</ele>
	<time>2025-07-29T11:54:56.000Z</time>
</trkpt>
<trkpt lat="45.9059230" lon="10.3083040">
	<ele>1028.00</ele>
	<time>2025-07-29T11:54:57.000Z</time>
</trkpt>
<trkpt lat="45.9059280" lon="10.3083130">
	<ele>1028.00</ele>
	<time>2025-07-29T11:54:58.000Z</time>
</trkpt>
<trkpt lat="45.9059320" lon="10.3083190">
	<ele>1028.00</ele>
	<time>2025-07-29T11:54:59.000Z</time>
</trkpt>
<trkpt lat="45.9059340" lon="10.3083190">
	<ele>1028.00</ele>
	<time>2025-07-29T11:55:00.000Z</time>
</trkpt>
<trkpt lat="45.9059350" lon="10.3083190">
	<ele>1028.00</ele>
	<time>2025-07-29T11:55:01.000Z</time>
</trkpt>
<trkpt lat="45.9059360" lon="10.3083130">
	<ele>1028.00</ele>
	<time>2025-07-29T11:55:02.000Z</time>
</trkpt>
<trkpt lat="45.9059370" lon="10.3083000">
	<ele>1028.00</ele>
	<time>2025-07-29T11:55:03.000Z</time>
</trkpt>
<trkpt lat="45.9059360" lon="10.3082930">
	<ele>1028.00</ele>
	<time>2025-07-29T11:55:04.000Z</time>
</trkpt>
<trkpt lat="45.9059380" lon="10.3082820">
	<ele>1028.00</ele>
	<time>2025-07-29T11:55:05.000Z</time>
</trkpt>
<trkpt lat="45.9059390" lon="10.3082750">
	<ele>1028.00</ele>
	<time>2025-07-29T11:55:06.000Z</time>
</trkpt>
<trkpt lat="45.9059440" lon="10.3082630">
	<ele>1028.00</ele>
	<time>2025-07-29T11:55:07.000Z</time>
</trkpt>
<trkpt lat="45.9059430" lon="10.3082610">
	<ele>1028.00</ele>
	<time>2025-07-29T11:55:08.000Z</time>
</trkpt>
<trkpt lat="45.9059540" lon="10.3082470">
	<ele>1028.00</ele>
	<time>2025-07-29T11:55:09.000Z</time>
</trkpt>
<trkpt lat="45.9059600" lon="10.3082300">
	<ele>1028.00</ele>
	<time>2025-07-29T11:55:10.000Z</time>
</trkpt>
<trkpt lat="45.9059690" lon="10.3082130">
	<ele>1028.20</ele>
	<time>2025-07-29T11:55:11.000Z</time>
</trkpt>
<trkpt lat="45.9059750" lon="10.3082150">
	<ele>1028.20</ele>
	<time>2025-07-29T11:55:12.000Z</time>
</trkpt>
<trkpt lat="45.9059830" lon="10.3082260">
	<ele>1028.20</ele>
	<time>2025-07-29T11:55:13.000Z</time>
</trkpt>
<trkpt lat="45.9059920" lon="10.3082300">
	<ele>1028.20</ele>
	<time>2025-07-29T11:55:14.000Z</time>
</trkpt>
<trkpt lat="45.9060020" lon="10.3082340">
	<ele>1028.20</ele>
	<time>2025-07-29T11:55:15.000Z</time>
</trkpt>
<trkpt lat="45.9060110" lon="10.3082370">
	<ele>1028.00</ele>
	<time>2025-07-29T11:55:16.000Z</time>
</trkpt>
<trkpt lat="45.9060160" lon="10.3082350">
	<ele>1028.00</ele>
	<time>2025-07-29T11:55:17.000Z</time>
</trkpt>
<trkpt lat="45.9060250" lon="10.3082370">
	<ele>1028.00</ele>
	<time>2025-07-29T11:55:18.000Z</time>
</trkpt>
<trkpt lat="45.9060280" lon="10.3082510">
	<ele>1027.80</ele>
	<time>2025-07-29T11:55:19.000Z</time>
</trkpt>
<trkpt lat="45.9060300" lon="10.3082530">
	<ele>1027.60</ele>
	<time>2025-07-29T11:55:20.000Z</time>
</trkpt>
<trkpt lat="45.9060330" lon="10.3082490">
	<ele>1027.40</ele>
	<time>2025-07-29T11:55:21.000Z</time>
</trkpt>
<trkpt lat="45.9060340" lon="10.3082440">
	<ele>1027.20</ele>
	<time>2025-07-29T11:55:22.000Z</time>
</trkpt>
<trkpt lat="45.9060300" lon="10.3082410">
	<ele>1027.00</ele>
	<time>2025-07-29T11:55:23.000Z</time>
</trkpt>
<trkpt lat="45.9060290" lon="10.3082470">
	<ele>1027.00</ele>
	<time>2025-07-29T11:55:24.000Z</time>
</trkpt>
<trkpt lat="45.9060280" lon="10.3082550">
	<ele>1026.80</ele>
	<time>2025-07-29T11:55:25.000Z</time>
</trkpt>
<trkpt lat="45.9060330" lon="10.3082690">
	<ele>1026.80</ele>
	<time>2025-07-29T11:55:26.000Z</time>
</trkpt>
<trkpt lat="45.9060430" lon="10.3082770">
	<ele>1026.80</ele>
	<time>2025-07-29T11:55:27.000Z</time>
</trkpt>
<trkpt lat="45.9060530" lon="10.3082830">
	<ele>1026.80</ele>
	<time>2025-07-29T11:55:28.000Z</time>
</trkpt>
<trkpt lat="45.9060670" lon="10.3082900">
	<ele>1026.60</ele>
	<time>2025-07-29T11:55:29.000Z</time>
</trkpt>
<trkpt lat="45.9060810" lon="10.3082980">
	<ele>1026.40</ele>
	<time>2025-07-29T11:55:30.000Z</time>
</trkpt>
<trkpt lat="45.9060920" lon="10.3083130">
	<ele>1026.40</ele>
	<time>2025-07-29T11:55:31.000Z</time>
</trkpt>
<trkpt lat="45.9061010" lon="10.3083260">
	<ele>1026.40</ele>
	<time>2025-07-29T11:55:32.000Z</time>
</trkpt>
<trkpt lat="45.9061080" lon="10.3083410">
	<ele>1026.40</ele>
	<time>2025-07-29T11:55:33.000Z</time>
</trkpt>
<trkpt lat="45.9061140" lon="10.3083560">
	<ele>1026.20</ele>
	<time>2025-07-29T11:55:34.000Z</time>
</trkpt>
<trkpt lat="45.9061220" lon="10.3083660">
	<ele>1026.20</ele>
	<time>2025-07-29T11:55:35.000Z</time>
</trkpt>
<trkpt lat="45.9061250" lon="10.3083720">
	<ele>1026.00</ele>
	<time>2025-07-29T11:55:36.000Z</time>
</trkpt>
<trkpt lat="45.9061340" lon="10.3083770">
	<ele>1025.80</ele>
	<time>2025-07-29T11:55:37.000Z</time>
</trkpt>
<trkpt lat="45.9061380" lon="10.3083760">
	<ele>1025.80</ele>
	<time>2025-07-29T11:55:38.000Z</time>
</trkpt>
<trkpt lat="45.9061430" lon="10.3083810">
	<ele>1025.80</ele>
	<time>2025-07-29T11:55:39.000Z</time>
</trkpt>
<trkpt lat="45.9061480" lon="10.3083950">
	<ele>1025.60</ele>
	<time>2025-07-29T11:55:40.000Z</time>
</trkpt>
<trkpt lat="45.9061510" lon="10.3084150">
	<ele>1025.60</ele>
	<time>2025-07-29T11:55:41.000Z</time>
</trkpt>
<trkpt lat="45.9061530" lon="10.3084210">
	<ele>1025.60</ele>
	<time>2025-07-29T11:55:42.000Z</time>
</trkpt>
<trkpt lat="45.9061540" lon="10.3084210">
	<ele>1025.60</ele>
	<time>2025-07-29T11:55:43.000Z</time>
</trkpt>
<trkpt lat="45.9061520" lon="10.3084250">
	<ele>1025.60</ele>
	<time>2025-07-29T11:55:44.000Z</time>
</trkpt>
<trkpt lat="45.9061510" lon="10.3084270">
	<ele>1025.60</ele>
	<time>2025-07-29T11:55:45.000Z</time>
</trkpt>
<trkpt lat="45.9061500" lon="10.3084260">
	<ele>1025.60</ele>
	<time>2025-07-29T11:55:46.000Z</time>
</trkpt>
<trkpt lat="45.9061480" lon="10.3084250">
	<ele>1025.40</ele>
	<time>2025-07-29T11:55:47.000Z</time>
</trkpt>
<trkpt lat="45.9061460" lon="10.3084250">
	<ele>1025.40</ele>
	<time>2025-07-29T11:55:48.000Z</time>
</trkpt>
<trkpt lat="45.9061500" lon="10.3084320">
	<ele>1025.40</ele>
	<time>2025-07-29T11:55:49.000Z</time>
</trkpt>
<trkpt lat="45.9061570" lon="10.3084410">
	<ele>1025.40</ele>
	<time>2025-07-29T11:55:50.000Z</time>
</trkpt>
<trkpt lat="45.9061630" lon="10.3084560">
	<ele>1025.20</ele>
	<time>2025-07-29T11:55:51.000Z</time>
</trkpt>
<trkpt lat="45.9061700" lon="10.3084690">
	<ele>1025.00</ele>
	<time>2025-07-29T11:55:52.000Z</time>
</trkpt>
<trkpt lat="45.9061790" lon="10.3084770">
	<ele>1024.80</ele>
	<time>2025-07-29T11:55:53.000Z</time>
</trkpt>
<trkpt lat="45.9061870" lon="10.3084810">
	<ele>1024.60</ele>
	<time>2025-07-29T11:55:54.000Z</time>
</trkpt>
<trkpt lat="45.9061920" lon="10.3084860">
	<ele>1024.60</ele>
	<time>2025-07-29T11:55:55.000Z</time>
</trkpt>
<trkpt lat="45.9061930" lon="10.3084890">
	<ele>1024.40</ele>
	<time>2025-07-29T11:55:56.000Z</time>
</trkpt>
<trkpt lat="45.9061820" lon="10.3085210">
	<ele>1024.20</ele>
	<time>2025-07-29T11:55:57.000Z</time>
</trkpt>
<trkpt lat="45.9061810" lon="10.3085230">
	<ele>1024.20</ele>
	<time>2025-07-29T11:55:58.000Z</time>
</trkpt>
<trkpt lat="45.9061820" lon="10.3085220">
	<ele>1024.00</ele>
	<time>2025-07-29T11:55:59.000Z</time>
</trkpt>
<trkpt lat="45.9061900" lon="10.3085200">
	<ele>1024.00</ele>
	<time>2025-07-29T11:56:00.000Z</time>
</trkpt>
<trkpt lat="45.9061970" lon="10.3085250">
	<ele>1024.00</ele>
	<time>2025-07-29T11:56:01.000Z</time>
</trkpt>
<trkpt lat="45.9062120" lon="10.3084810">
	<ele>1023.80</ele>
	<time>2025-07-29T11:56:02.000Z</time>
</trkpt>
<trkpt lat="45.9062240" lon="10.3084480">
	<ele>1023.60</ele>
	<time>2025-07-29T11:56:03.000Z</time>
</trkpt>
<trkpt lat="45.9062330" lon="10.3084270">
	<ele>1023.60</ele>
	<time>2025-07-29T11:56:04.000Z</time>
</trkpt>
<trkpt lat="45.9062330" lon="10.3084190">
	<ele>1023.60</ele>
	<time>2025-07-29T11:56:05.000Z</time>
</trkpt>
<trkpt lat="45.9062350" lon="10.3084440">
	<ele>1023.60</ele>
	<time>2025-07-29T11:56:06.000Z</time>
</trkpt>
<trkpt lat="45.9062390" lon="10.3084580">
	<ele>1023.40</ele>
	<time>2025-07-29T11:56:07.000Z</time>
</trkpt>
<trkpt lat="45.9062380" lon="10.3084930">
	<ele>1023.40</ele>
	<time>2025-07-29T11:56:08.000Z</time>
</trkpt>
<trkpt lat="45.9062430" lon="10.3085080">
	<ele>1023.40</ele>
	<time>2025-07-29T11:56:09.000Z</time>
</trkpt>
<trkpt lat="45.9062510" lon="10.3085180">
	<ele>1023.40</ele>
	<time>2025-07-29T11:56:10.000Z</time>
</trkpt>
<trkpt lat="45.9062630" lon="10.3085260">
	<ele>1023.40</ele>
	<time>2025-07-29T11:56:11.000Z</time>
</trkpt>
<trkpt lat="45.9062750" lon="10.3085250">
	<ele>1023.40</ele>
	<time>2025-07-29T11:56:12.000Z</time>
</trkpt>
<trkpt lat="45.9062840" lon="10.3085290">
	<ele>1023.00</ele>
	<time>2025-07-29T11:56:13.000Z</time>
</trkpt>
<trkpt lat="45.9062940" lon="10.3085350">
	<ele>1022.80</ele>
	<time>2025-07-29T11:56:14.000Z</time>
</trkpt>
<trkpt lat="45.9063030" lon="10.3085410">
	<ele>1022.60</ele>
	<time>2025-07-29T11:56:15.000Z</time>
</trkpt>
<trkpt lat="45.9063150" lon="10.3085410">
	<ele>1022.40</ele>
	<time>2025-07-29T11:56:16.000Z</time>
</trkpt>
<trkpt lat="45.9063270" lon="10.3085360">
	<ele>1022.00</ele>
	<time>2025-07-29T11:56:17.000Z</time>
</trkpt>
<trkpt lat="45.9063340" lon="10.3085340">
	<ele>1021.60</ele>
	<time>2025-07-29T11:56:18.000Z</time>
</trkpt>
<trkpt lat="45.9063400" lon="10.3085420">
	<ele>1021.20</ele>
	<time>2025-07-29T11:56:19.000Z</time>
</trkpt>
<trkpt lat="45.9063530" lon="10.3085490">
	<ele>1020.80</ele>
	<time>2025-07-29T11:56:20.000Z</time>
</trkpt>
<trkpt lat="45.9063710" lon="10.3085350">
	<ele>1020.40</ele>
	<time>2025-07-29T11:56:21.000Z</time>
</trkpt>
<trkpt lat="45.9063850" lon="10.3085290">
	<ele>1020.00</ele>
	<time>2025-07-29T11:56:22.000Z</time>
</trkpt>
<trkpt lat="45.9064040" lon="10.3085230">
	<ele>1019.40</ele>
	<time>2025-07-29T11:56:23.000Z</time>
</trkpt>
<trkpt lat="45.9064170" lon="10.3085150">
	<ele>1019.00</ele>
	<time>2025-07-29T11:56:24.000Z</time>
</trkpt>
<trkpt lat="45.9064270" lon="10.3085210">
	<ele>1018.60</ele>
	<time>2025-07-29T11:56:25.000Z</time>
</trkpt>
<trkpt lat="45.9064310" lon="10.3085370">
	<ele>1018.40</ele>
	<time>2025-07-29T11:56:26.000Z</time>
</trkpt>
<trkpt lat="45.9064420" lon="10.3085500">
	<ele>1017.80</ele>
	<time>2025-07-29T11:56:27.000Z</time>
</trkpt>
<trkpt lat="45.9064550" lon="10.3085590">
	<ele>1017.60</ele>
	<time>2025-07-29T11:56:28.000Z</time>
</trkpt>
<trkpt lat="45.9064750" lon="10.3085680">
	<ele>1017.20</ele>
	<time>2025-07-29T11:56:29.000Z</time>
</trkpt>
<trkpt lat="45.9064920" lon="10.3085750">
	<ele>1016.80</ele>
	<time>2025-07-29T11:56:30.000Z</time>
</trkpt>
<trkpt lat="45.9065060" lon="10.3085810">
	<ele>1016.60</ele>
	<time>2025-07-29T11:56:31.000Z</time>
</trkpt>
<trkpt lat="45.9065160" lon="10.3085780">
	<ele>1016.40</ele>
	<time>2025-07-29T11:56:32.000Z</time>
</trkpt>
<trkpt lat="45.9065240" lon="10.3085830">
	<ele>1016.40</ele>
	<time>2025-07-29T11:56:33.000Z</time>
</trkpt>
<trkpt lat="45.9065290" lon="10.3085930">
	<ele>1016.20</ele>
	<time>2025-07-29T11:56:34.000Z</time>
</trkpt>
<trkpt lat="45.9065380" lon="10.3086040">
	<ele>1015.80</ele>
	<time>2025-07-29T11:56:35.000Z</time>
</trkpt>
<trkpt lat="45.9065540" lon="10.3086250">
	<ele>1015.60</ele>
	<time>2025-07-29T11:56:36.000Z</time>
</trkpt>
<trkpt lat="45.9065630" lon="10.3086450">
	<ele>1015.40</ele>
	<time>2025-07-29T11:56:37.000Z</time>
</trkpt>
<trkpt lat="45.9065730" lon="10.3086640">
	<ele>1015.20</ele>
	<time>2025-07-29T11:56:38.000Z</time>
</trkpt>
<trkpt lat="45.9065900" lon="10.3086810">
	<ele>1015.00</ele>
	<time>2025-07-29T11:56:39.000Z</time>
</trkpt>
<trkpt lat="45.9066000" lon="10.3086870">
	<ele>1015.00</ele>
	<time>2025-07-29T11:56:40.000Z</time>
</trkpt>
<trkpt lat="45.9066100" lon="10.3087000">
	<ele>1014.80</ele>
	<time>2025-07-29T11:56:41.000Z</time>
</trkpt>
<trkpt lat="45.9066170" lon="10.3087090">
	<ele>1014.80</ele>
	<time>2025-07-29T11:56:42.000Z</time>
</trkpt>
<trkpt lat="45.9066220" lon="10.3087110">
	<ele>1014.60</ele>
	<time>2025-07-29T11:56:43.000Z</time>
</trkpt>
<trkpt lat="45.9066280" lon="10.3087030">
	<ele>1014.40</ele>
	<time>2025-07-29T11:56:44.000Z</time>
</trkpt>
<trkpt lat="45.9066400" lon="10.3086960">
	<ele>1014.20</ele>
	<time>2025-07-29T11:56:45.000Z</time>
</trkpt>
<trkpt lat="45.9066510" lon="10.3086940">
	<ele>1014.00</ele>
	<time>2025-07-29T11:56:46.000Z</time>
</trkpt>
<trkpt lat="45.9066520" lon="10.3086930">
	<ele>1014.00</ele>
	<time>2025-07-29T11:56:47.000Z</time>
</trkpt>
<trkpt lat="45.9066520" lon="10.3086910">
	<ele>1014.00</ele>
	<time>2025-07-29T11:56:48.000Z</time>
</trkpt>
<trkpt lat="45.9066520" lon="10.3087010">
	<ele>1014.00</ele>
	<time>2025-07-29T11:56:49.000Z</time>
</trkpt>
<trkpt lat="45.9066560" lon="10.3087110">
	<ele>1014.00</ele>
	<time>2025-07-29T11:56:50.000Z</time>
</trkpt>
<trkpt lat="45.9066540" lon="10.3087160">
	<ele>1014.00</ele>
	<time>2025-07-29T11:56:51.000Z</time>
</trkpt>
<trkpt lat="45.9066670" lon="10.3087000">
	<ele>1014.00</ele>
	<time>2025-07-29T11:56:52.000Z</time>
</trkpt>
<trkpt lat="45.9066660" lon="10.3087010">
	<ele>1014.00</ele>
	<time>2025-07-29T11:56:53.000Z</time>
</trkpt>
<trkpt lat="45.9066770" lon="10.3086940">
	<ele>1014.00</ele>
	<time>2025-07-29T11:56:54.000Z</time>
</trkpt>
<trkpt lat="45.9066760" lon="10.3087020">
	<ele>1014.00</ele>
	<time>2025-07-29T11:56:55.000Z</time>
</trkpt>
<trkpt lat="45.9066740" lon="10.3087280">
	<ele>1014.00</ele>
	<time>2025-07-29T11:56:56.000Z</time>
</trkpt>
<trkpt lat="45.9066770" lon="10.3087360">
	<ele>1013.80</ele>
	<time>2025-07-29T11:56:57.000Z</time>
</trkpt>
<trkpt lat="45.9066790" lon="10.3087440">
	<ele>1013.60</ele>
	<time>2025-07-29T11:56:58.000Z</time>
</trkpt>
<trkpt lat="45.9066860" lon="10.3087570">
	<ele>1013.60</ele>
	<time>2025-07-29T11:56:59.000Z</time>
</trkpt>
<trkpt lat="45.9066940" lon="10.3087690">
	<ele>1013.60</ele>
	<time>2025-07-29T11:57:00.000Z</time>
</trkpt>
<trkpt lat="45.9067080" lon="10.3087710">
	<ele>1013.40</ele>
	<time>2025-07-29T11:57:01.000Z</time>
</trkpt>
<trkpt lat="45.9067280" lon="10.3087710">
	<ele>1013.40</ele>
	<time>2025-07-29T11:57:02.000Z</time>
</trkpt>
<trkpt lat="45.9067470" lon="10.3087590">
	<ele>1013.20</ele>
	<time>2025-07-29T11:57:03.000Z</time>
</trkpt>
<trkpt lat="45.9067590" lon="10.3087560">
	<ele>1013.20</ele>
	<time>2025-07-29T11:57:04.000Z</time>
</trkpt>
<trkpt lat="45.9067610" lon="10.3087680">
	<ele>1013.00</ele>
	<time>2025-07-29T11:57:05.000Z</time>
</trkpt>
<trkpt lat="45.9067720" lon="10.3087830">
	<ele>1013.00</ele>
	<time>2025-07-29T11:57:06.000Z</time>
</trkpt>
<trkpt lat="45.9067780" lon="10.3088010">
	<ele>1013.00</ele>
	<time>2025-07-29T11:57:07.000Z</time>
</trkpt>
<trkpt lat="45.9067890" lon="10.3088110">
	<ele>1012.80</ele>
	<time>2025-07-29T11:57:08.000Z</time>
</trkpt>
<trkpt lat="45.9068020" lon="10.3088190">
	<ele>1012.80</ele>
	<time>2025-07-29T11:57:09.000Z</time>
</trkpt>
<trkpt lat="45.9068150" lon="10.3088300">
	<ele>1012.60</ele>
	<time>2025-07-29T11:57:10.000Z</time>
</trkpt>
<trkpt lat="45.9068240" lon="10.3088400">
	<ele>1012.40</ele>
	<time>2025-07-29T11:57:11.000Z</time>
</trkpt>
<trkpt lat="45.9068330" lon="10.3088570">
	<ele>1012.20</ele>
	<time>2025-07-29T11:57:12.000Z</time>
</trkpt>
<trkpt lat="45.9068460" lon="10.3088650">
	<ele>1011.80</ele>
	<time>2025-07-29T11:57:13.000Z</time>
</trkpt>
<trkpt lat="45.9068580" lon="10.3088730">
	<ele>1011.40</ele>
	<time>2025-07-29T11:57:14.000Z</time>
</trkpt>
<trkpt lat="45.9068670" lon="10.3088800">
	<ele>1011.20</ele>
	<time>2025-07-29T11:57:15.000Z</time>
</trkpt>
<trkpt lat="45.9068750" lon="10.3088820">
	<ele>1010.80</ele>
	<time>2025-07-29T11:57:16.000Z</time>
</trkpt>
<trkpt lat="45.9068860" lon="10.3088940">
	<ele>1010.60</ele>
	<time>2025-07-29T11:57:17.000Z</time>
</trkpt>
<trkpt lat="45.9069070" lon="10.3089110">
	<ele>1010.60</ele>
	<time>2025-07-29T11:57:18.000Z</time>
</trkpt>
<trkpt lat="45.9069200" lon="10.3089480">
	<ele>1010.40</ele>
	<time>2025-07-29T11:57:19.000Z</time>
</trkpt>
<trkpt lat="45.9069260" lon="10.3089780">
	<ele>1010.20</ele>
	<time>2025-07-29T11:57:20.000Z</time>
</trkpt>
<trkpt lat="45.9069400" lon="10.3089970">
	<ele>1009.80</ele>
	<time>2025-07-29T11:57:21.000Z</time>
</trkpt>
<trkpt lat="45.9069470" lon="10.3090150">
	<ele>1009.60</ele>
	<time>2025-07-29T11:57:22.000Z</time>
</trkpt>
<trkpt lat="45.9069690" lon="10.3090060">
	<ele>1009.20</ele>
	<time>2025-07-29T11:57:23.000Z</time>
</trkpt>
<trkpt lat="45.9069780" lon="10.3090060">
	<ele>1009.20</ele>
	<time>2025-07-29T11:57:24.000Z</time>
</trkpt>
<trkpt lat="45.9069810" lon="10.3090090">
	<ele>1009.00</ele>
	<time>2025-07-29T11:57:25.000Z</time>
</trkpt>
<trkpt lat="45.9069900" lon="10.3090180">
	<ele>1008.80</ele>
	<time>2025-07-29T11:57:26.000Z</time>
</trkpt>
<trkpt lat="45.9070010" lon="10.3090420">
	<ele>1008.60</ele>
	<time>2025-07-29T11:57:27.000Z</time>
</trkpt>
<trkpt lat="45.9070170" lon="10.3090860">
	<ele>1008.40</ele>
	<time>2025-07-29T11:57:28.000Z</time>
</trkpt>
<trkpt lat="45.9070370" lon="10.3090950">
	<ele>1008.20</ele>
	<time>2025-07-29T11:57:29.000Z</time>
</trkpt>
<trkpt lat="45.9070550" lon="10.3091080">
	<ele>1008.20</ele>
	<time>2025-07-29T11:57:30.000Z</time>
</trkpt>
<trkpt lat="45.9070770" lon="10.3091060">
	<ele>1007.60</ele>
	<time>2025-07-29T11:57:31.000Z</time>
</trkpt>
<trkpt lat="45.9070890" lon="10.3090900">
	<ele>1007.40</ele>
	<time>2025-07-29T11:57:32.000Z</time>
</trkpt>
<trkpt lat="45.9070960" lon="10.3090840">
	<ele>1007.00</ele>
	<time>2025-07-29T11:57:33.000Z</time>
</trkpt>
<trkpt lat="45.9071010" lon="10.3090920">
	<ele>1006.80</ele>
	<time>2025-07-29T11:57:34.000Z</time>
</trkpt>
<trkpt lat="45.9071020" lon="10.3090940">
	<ele>1006.60</ele>
	<time>2025-07-29T11:57:35.000Z</time>
</trkpt>
<trkpt lat="45.9071090" lon="10.3090970">
	<ele>1006.20</ele>
	<time>2025-07-29T11:57:36.000Z</time>
</trkpt>
<trkpt lat="45.9071100" lon="10.3090990">
	<ele>1006.00</ele>
	<time>2025-07-29T11:57:37.000Z</time>
</trkpt>
<trkpt lat="45.9071250" lon="10.3091000">
	<ele>1005.80</ele>
	<time>2025-07-29T11:57:38.000Z</time>
</trkpt>
<trkpt lat="45.9071350" lon="10.3091070">
	<ele>1005.60</ele>
	<time>2025-07-29T11:57:39.000Z</time>
</trkpt>
<trkpt lat="45.9071490" lon="10.3091100">
	<ele>1005.60</ele>
	<time>2025-07-29T11:57:40.000Z</time>
</trkpt>
<trkpt lat="45.9071710" lon="10.3091120">
	<ele>1005.40</ele>
	<time>2025-07-29T11:57:41.000Z</time>
</trkpt>
<trkpt lat="45.9071920" lon="10.3091210">
	<ele>1005.20</ele>
	<time>2025-07-29T11:57:42.000Z</time>
</trkpt>
<trkpt lat="45.9072140" lon="10.3091230">
	<ele>1005.00</ele>
	<time>2025-07-29T11:57:43.000Z</time>
</trkpt>
<trkpt lat="45.9072330" lon="10.3091350">
	<ele>1004.80</ele>
	<time>2025-07-29T11:57:44.000Z</time>
</trkpt>
<trkpt lat="45.9072490" lon="10.3091350">
	<ele>1004.60</ele>
	<time>2025-07-29T11:57:45.000Z</time>
</trkpt>
<trkpt lat="45.9072570" lon="10.3091420">
	<ele>1004.60</ele>
	<time>2025-07-29T11:57:46.000Z</time>
</trkpt>
<trkpt lat="45.9072630" lon="10.3091380">
	<ele>1004.40</ele>
	<time>2025-07-29T11:57:47.000Z</time>
</trkpt>
<trkpt lat="45.9072780" lon="10.3091200">
	<ele>1004.40</ele>
	<time>2025-07-29T11:57:48.000Z</time>
</trkpt>
<trkpt lat="45.9072930" lon="10.3090940">
	<ele>1004.40</ele>
	<time>2025-07-29T11:57:49.000Z</time>
</trkpt>
<trkpt lat="45.9073010" lon="10.3090750">
	<ele>1004.20</ele>
	<time>2025-07-29T11:57:50.000Z</time>
</trkpt>
<trkpt lat="45.9073170" lon="10.3090660">
	<ele>1004.00</ele>
	<time>2025-07-29T11:57:51.000Z</time>
</trkpt>
<trkpt lat="45.9073330" lon="10.3090710">
	<ele>1003.60</ele>
	<time>2025-07-29T11:57:52.000Z</time>
</trkpt>
<trkpt lat="45.9073470" lon="10.3090680">
	<ele>1003.40</ele>
	<time>2025-07-29T11:57:53.000Z</time>
</trkpt>
<trkpt lat="45.9073580" lon="10.3090910">
	<ele>1003.20</ele>
	<time>2025-07-29T11:57:54.000Z</time>
</trkpt>
<trkpt lat="45.9073720" lon="10.3091100">
	<ele>1003.20</ele>
	<time>2025-07-29T11:57:55.000Z</time>
</trkpt>
<trkpt lat="45.9073810" lon="10.3091370">
	<ele>1003.00</ele>
	<time>2025-07-29T11:57:56.000Z</time>
</trkpt>
<trkpt lat="45.9073950" lon="10.3091670">
	<ele>1003.00</ele>
	<time>2025-07-29T11:57:57.000Z</time>
</trkpt>
<trkpt lat="45.9074080" lon="10.3091790">
	<ele>1002.80</ele>
	<time>2025-07-29T11:57:58.000Z</time>
</trkpt>
<trkpt lat="45.9074230" lon="10.3091790">
	<ele>1002.80</ele>
	<time>2025-07-29T11:57:59.000Z</time>
</trkpt>
<trkpt lat="45.9074350" lon="10.3091760">
	<ele>1002.60</ele>
	<time>2025-07-29T11:58:00.000Z</time>
</trkpt>
<trkpt lat="45.9074500" lon="10.3091660">
	<ele>1002.40</ele>
	<time>2025-07-29T11:58:01.000Z</time>
</trkpt>
<trkpt lat="45.9074650" lon="10.3091580">
	<ele>1002.20</ele>
	<time>2025-07-29T11:58:02.000Z</time>
</trkpt>
<trkpt lat="45.9074750" lon="10.3091560">
	<ele>1002.20</ele>
	<time>2025-07-29T11:58:03.000Z</time>
</trkpt>
<trkpt lat="45.9074850" lon="10.3091570">
	<ele>1002.00</ele>
	<time>2025-07-29T11:58:04.000Z</time>
</trkpt>
<trkpt lat="45.9074990" lon="10.3091640">
	<ele>1001.80</ele>
	<time>2025-07-29T11:58:05.000Z</time>
</trkpt>
<trkpt lat="45.9075180" lon="10.3091740">
	<ele>1001.80</ele>
	<time>2025-07-29T11:58:06.000Z</time>
</trkpt>
<trkpt lat="45.9075280" lon="10.3091790">
	<ele>1001.60</ele>
	<time>2025-07-29T11:58:07.000Z</time>
</trkpt>
<trkpt lat="45.9075460" lon="10.3091950">
	<ele>1001.60</ele>
	<time>2025-07-29T11:58:08.000Z</time>
</trkpt>
<trkpt lat="45.9075640" lon="10.3091860">
	<ele>1001.40</ele>
	<time>2025-07-29T11:58:09.000Z</time>
</trkpt>
<trkpt lat="45.9075820" lon="10.3091760">
	<ele>1001.40</ele>
	<time>2025-07-29T11:58:10.000Z</time>
</trkpt>
<trkpt lat="45.9075950" lon="10.3091640">
	<ele>1001.40</ele>
	<time>2025-07-29T11:58:11.000Z</time>
</trkpt>
<trkpt lat="45.9076130" lon="10.3091470">
	<ele>1001.20</ele>
	<time>2025-07-29T11:58:12.000Z</time>
</trkpt>
<trkpt lat="45.9076200" lon="10.3091410">
	<ele>1001.20</ele>
	<time>2025-07-29T11:58:13.000Z</time>
</trkpt>
<trkpt lat="45.9076350" lon="10.3091420">
	<ele>1001.20</ele>
	<time>2025-07-29T11:58:14.000Z</time>
</trkpt>
<trkpt lat="45.9076560" lon="10.3091470">
	<ele>1001.00</ele>
	<time>2025-07-29T11:58:15.000Z</time>
</trkpt>
<trkpt lat="45.9076670" lon="10.3091650">
	<ele>1001.00</ele>
	<time>2025-07-29T11:58:16.000Z</time>
</trkpt>
<trkpt lat="45.9076820" lon="10.3091860">
	<ele>1001.00</ele>
	<time>2025-07-29T11:58:17.000Z</time>
</trkpt>
<trkpt lat="45.9076950" lon="10.3091970">
	<ele>1001.00</ele>
	<time>2025-07-29T11:58:18.000Z</time>
</trkpt>
<trkpt lat="45.9077090" lon="10.3092180">
	<ele>1001.00</ele>
	<time>2025-07-29T11:58:19.000Z</time>
</trkpt>
<trkpt lat="45.9077240" lon="10.3092190">
	<ele>1001.00</ele>
	<time>2025-07-29T11:58:20.000Z</time>
</trkpt>
<trkpt lat="45.9077450" lon="10.3092440">
	<ele>1000.80</ele>
	<time>2025-07-29T11:58:21.000Z</time>
</trkpt>
<trkpt lat="45.9077540" lon="10.3092680">
	<ele>1000.80</ele>
	<time>2025-07-29T11:58:22.000Z</time>
</trkpt>
<trkpt lat="45.9077680" lon="10.3092740">
	<ele>1000.80</ele>
	<time>2025-07-29T11:58:23.000Z</time>
</trkpt>
<trkpt lat="45.9077800" lon="10.3092600">
	<ele>1000.60</ele>
	<time>2025-07-29T11:58:24.000Z</time>
</trkpt>
<trkpt lat="45.9077990" lon="10.3092440">
	<ele>1000.60</ele>
	<time>2025-07-29T11:58:25.000Z</time>
</trkpt>
<trkpt lat="45.9078110" lon="10.3092310">
	<ele>1000.60</ele>
	<time>2025-07-29T11:58:26.000Z</time>
</trkpt>
<trkpt lat="45.9078260" lon="10.3092170">
	<ele>1000.60</ele>
	<time>2025-07-29T11:58:27.000Z</time>
</trkpt>
<trkpt lat="45.9078340" lon="10.3092230">
	<ele>1000.40</ele>
	<time>2025-07-29T11:58:28.000Z</time>
</trkpt>
<trkpt lat="45.9078480" lon="10.3092330">
	<ele>1000.20</ele>
	<time>2025-07-29T11:58:29.000Z</time>
</trkpt>
<trkpt lat="45.9078610" lon="10.3092270">
	<ele>1000.20</ele>
	<time>2025-07-29T11:58:30.000Z</time>
</trkpt>
<trkpt lat="45.9078760" lon="10.3092340">
	<ele>1000.20</ele>
	<time>2025-07-29T11:58:31.000Z</time>
</trkpt>
<trkpt lat="45.9078910" lon="10.3092360">
	<ele>1000.20</ele>
	<time>2025-07-29T11:58:32.000Z</time>
</trkpt>
<trkpt lat="45.9079040" lon="10.3092260">
	<ele>1000.20</ele>
	<time>2025-07-29T11:58:33.000Z</time>
</trkpt>
<trkpt lat="45.9079210" lon="10.3092180">
	<ele>1000.20</ele>
	<time>2025-07-29T11:58:34.000Z</time>
</trkpt>
<trkpt lat="45.9079400" lon="10.3092080">
	<ele>1000.20</ele>
	<time>2025-07-29T11:58:35.000Z</time>
</trkpt>
<trkpt lat="45.9079580" lon="10.3091980">
	<ele>1000.20</ele>
	<time>2025-07-29T11:58:36.000Z</time>
</trkpt>
<trkpt lat="45.9079730" lon="10.3091880">
	<ele>1000.20</ele>
	<time>2025-07-29T11:58:37.000Z</time>
</trkpt>
<trkpt lat="45.9079880" lon="10.3091860">
	<ele>1000.00</ele>
	<time>2025-07-29T11:58:38.000Z</time>
</trkpt>
<trkpt lat="45.9080030" lon="10.3091790">
	<ele>1000.00</ele>
	<time>2025-07-29T11:58:39.000Z</time>
</trkpt>
<trkpt lat="45.9080130" lon="10.3091700">
	<ele>999.80</ele>
	<time>2025-07-29T11:58:40.000Z</time>
</trkpt>
<trkpt lat="45.9080290" lon="10.3091610">
	<ele>999.80</ele>
	<time>2025-07-29T11:58:41.000Z</time>
</trkpt>
<trkpt lat="45.9080450" lon="10.3091480">
	<ele>999.80</ele>
	<time>2025-07-29T11:58:42.000Z</time>
</trkpt>
<trkpt lat="45.9080500" lon="10.3091590">
	<ele>999.80</ele>
	<time>2025-07-29T11:58:43.000Z</time>
</trkpt>
<trkpt lat="45.9080580" lon="10.3091660">
	<ele>999.80</ele>
	<time>2025-07-29T11:58:44.000Z</time>
</trkpt>
<trkpt lat="45.9080690" lon="10.3091780">
	<ele>999.80</ele>
	<time>2025-07-29T11:58:45.000Z</time>
</trkpt>
<trkpt lat="45.9080820" lon="10.3091960">
	<ele>999.60</ele>
	<time>2025-07-29T11:58:46.000Z</time>
</trkpt>
<trkpt lat="45.9080940" lon="10.3092090">
	<ele>999.40</ele>
	<time>2025-07-29T11:58:47.000Z</time>
</trkpt>
<trkpt lat="45.9081040" lon="10.3092210">
	<ele>999.40</ele>
	<time>2025-07-29T11:58:48.000Z</time>
</trkpt>
<trkpt lat="45.9081150" lon="10.3092370">
	<ele>999.20</ele>
	<time>2025-07-29T11:58:49.000Z</time>
</trkpt>
<trkpt lat="45.9081250" lon="10.3092530">
	<ele>999.00</ele>
	<time>2025-07-29T11:58:50.000Z</time>
</trkpt>
<trkpt lat="45.9081340" lon="10.3092620">
	<ele>999.00</ele>
	<time>2025-07-29T11:58:51.000Z</time>
</trkpt>
<trkpt lat="45.9081420" lon="10.3092740">
	<ele>998.80</ele>
	<time>2025-07-29T11:58:52.000Z</time>
</trkpt>
<trkpt lat="45.9081470" lon="10.3092790">
	<ele>998.80</ele>
	<time>2025-07-29T11:58:53.000Z</time>
</trkpt>
<trkpt lat="45.9081510" lon="10.3092900">
	<ele>998.80</ele>
	<time>2025-07-29T11:58:54.000Z</time>
</trkpt>
<trkpt lat="45.9081550" lon="10.3093100">
	<ele>998.80</ele>
	<time>2025-07-29T11:58:55.000Z</time>
</trkpt>
<trkpt lat="45.9081610" lon="10.3093360">
	<ele>998.60</ele>
	<time>2025-07-29T11:58:56.000Z</time>
</trkpt>
<trkpt lat="45.9081680" lon="10.3093500">
	<ele>998.60</ele>
	<time>2025-07-29T11:58:57.000Z</time>
</trkpt>
<trkpt lat="45.9081790" lon="10.3093760">
	<ele>998.20</ele>
	<time>2025-07-29T11:58:58.000Z</time>
</trkpt>
<trkpt lat="45.9081930" lon="10.3094030">
	<ele>998.20</ele>
	<time>2025-07-29T11:58:59.000Z</time>
</trkpt>
<trkpt lat="45.9082060" lon="10.3094180">
	<ele>998.00</ele>
	<time>2025-07-29T11:59:00.000Z</time>
</trkpt>
<trkpt lat="45.9082180" lon="10.3094300">
	<ele>998.00</ele>
	<time>2025-07-29T11:59:01.000Z</time>
</trkpt>
<trkpt lat="45.9082340" lon="10.3094290">
	<ele>997.80</ele>
	<time>2025-07-29T11:59:02.000Z</time>
</trkpt>
<trkpt lat="45.9082500" lon="10.3094280">
	<ele>997.60</ele>
	<time>2025-07-29T11:59:03.000Z</time>
</trkpt>
<trkpt lat="45.9082660" lon="10.3094260">
	<ele>997.60</ele>
	<time>2025-07-29T11:59:04.000Z</time>
</trkpt>
<trkpt lat="45.9082780" lon="10.3094260">
	<ele>997.60</ele>
	<time>2025-07-29T11:59:05.000Z</time>
</trkpt>
<trkpt lat="45.9082930" lon="10.3094150">
	<ele>997.40</ele>
	<time>2025-07-29T11:59:06.000Z</time>
</trkpt>
<trkpt lat="45.9083080" lon="10.3094110">
	<ele>997.40</ele>
	<time>2025-07-29T11:59:07.000Z</time>
</trkpt>
<trkpt lat="45.9083240" lon="10.3094120">
	<ele>997.40</ele>
	<time>2025-07-29T11:59:08.000Z</time>
</trkpt>
<trkpt lat="45.9083380" lon="10.3094250">
	<ele>997.20</ele>
	<time>2025-07-29T11:59:09.000Z</time>
</trkpt>
<trkpt lat="45.9083570" lon="10.3094490">
	<ele>997.00</ele>
	<time>2025-07-29T11:59:10.000Z</time>
</trkpt>
<trkpt lat="45.9083820" lon="10.3094400">
	<ele>996.80</ele>
	<time>2025-07-29T11:59:11.000Z</time>
</trkpt>
<trkpt lat="45.9084120" lon="10.3094110">
	<ele>996.60</ele>
	<time>2025-07-29T11:59:12.000Z</time>
</trkpt>
<trkpt lat="45.9084260" lon="10.3094050">
	<ele>996.60</ele>
	<time>2025-07-29T11:59:13.000Z</time>
</trkpt>
<trkpt lat="45.9084310" lon="10.3093970">
	<ele>996.40</ele>
	<time>2025-07-29T11:59:14.000Z</time>
</trkpt>
<trkpt lat="45.9084390" lon="10.3093800">
	<ele>996.20</ele>
	<time>2025-07-29T11:59:15.000Z</time>
</trkpt>
<trkpt lat="45.9084440" lon="10.3093870">
	<ele>996.00</ele>
	<time>2025-07-29T11:59:16.000Z</time>
</trkpt>
<trkpt lat="45.9084640" lon="10.3093950">
	<ele>996.00</ele>
	<time>2025-07-29T11:59:17.000Z</time>
</trkpt>
<trkpt lat="45.9084850" lon="10.3093950">
	<ele>995.80</ele>
	<time>2025-07-29T11:59:18.000Z</time>
</trkpt>
<trkpt lat="45.9085090" lon="10.3094040">
	<ele>995.60</ele>
	<time>2025-07-29T11:59:19.000Z</time>
</trkpt>
<trkpt lat="45.9085260" lon="10.3094050">
	<ele>995.60</ele>
	<time>2025-07-29T11:59:20.000Z</time>
</trkpt>
<trkpt lat="45.9085420" lon="10.3094020">
	<ele>995.40</ele>
	<time>2025-07-29T11:59:21.000Z</time>
</trkpt>
<trkpt lat="45.9085520" lon="10.3094200">
	<ele>995.20</ele>
	<time>2025-07-29T11:59:22.000Z</time>
</trkpt>
<trkpt lat="45.9085710" lon="10.3094380">
	<ele>995.20</ele>
	<time>2025-07-29T11:59:23.000Z</time>
</trkpt>
<trkpt lat="45.9085840" lon="10.3094470">
	<ele>995.00</ele>
	<time>2025-07-29T11:59:24.000Z</time>
</trkpt>
<trkpt lat="45.9085950" lon="10.3094420">
	<ele>995.00</ele>
	<time>2025-07-29T11:59:25.000Z</time>
</trkpt>
<trkpt lat="45.9085950" lon="10.3094520">
	<ele>994.80</ele>
	<time>2025-07-29T11:59:26.000Z</time>
</trkpt>
<trkpt lat="45.9086000" lon="10.3094550">
	<ele>994.40</ele>
	<time>2025-07-29T11:59:27.000Z</time>
</trkpt>
<trkpt lat="45.9086050" lon="10.3094500">
	<ele>994.20</ele>
	<time>2025-07-29T11:59:28.000Z</time>
</trkpt>
<trkpt lat="45.9086060" lon="10.3094370">
	<ele>994.00</ele>
	<time>2025-07-29T11:59:29.000Z</time>
</trkpt>
<trkpt lat="45.9086230" lon="10.3094360">
	<ele>993.80</ele>
	<time>2025-07-29T11:59:30.000Z</time>
</trkpt>
<trkpt lat="45.9086460" lon="10.3094290">
	<ele>993.60</ele>
	<time>2025-07-29T11:59:31.000Z</time>
</trkpt>
<trkpt lat="45.9086680" lon="10.3094280">
	<ele>993.40</ele>
	<time>2025-07-29T11:59:32.000Z</time>
</trkpt>
<trkpt lat="45.9086820" lon="10.3094340">
	<ele>993.20</ele>
	<time>2025-07-29T11:59:33.000Z</time>
</trkpt>
<trkpt lat="45.9087080" lon="10.3094380">
	<ele>993.20</ele>
	<time>2025-07-29T11:59:34.000Z</time>
</trkpt>
<trkpt lat="45.9087150" lon="10.3094480">
	<ele>993.00</ele>
	<time>2025-07-29T11:59:35.000Z</time>
</trkpt>
<trkpt lat="45.9087220" lon="10.3094520">
	<ele>992.80</ele>
	<time>2025-07-29T11:59:36.000Z</time>
</trkpt>
<trkpt lat="45.9087340" lon="10.3094480">
	<ele>992.80</ele>
	<time>2025-07-29T11:59:37.000Z</time>
</trkpt>
<trkpt lat="45.9087530" lon="10.3094740">
	<ele>992.60</ele>
	<time>2025-07-29T11:59:38.000Z</time>
</trkpt>
<trkpt lat="45.9087670" lon="10.3095050">
	<ele>992.60</ele>
	<time>2025-07-29T11:59:39.000Z</time>
</trkpt>
<trkpt lat="45.9087870" lon="10.3095350">
	<ele>992.40</ele>
	<time>2025-07-29T11:59:40.000Z</time>
</trkpt>
<trkpt lat="45.9088060" lon="10.3095600">
	<ele>992.20</ele>
	<time>2025-07-29T11:59:41.000Z</time>
</trkpt>
<trkpt lat="45.9088170" lon="10.3095490">
	<ele>991.80</ele>
	<time>2025-07-29T11:59:42.000Z</time>
</trkpt>
<trkpt lat="45.9088330" lon="10.3095510">
	<ele>991.60</ele>
	<time>2025-07-29T11:59:43.000Z</time>
</trkpt>
<trkpt lat="45.9088460" lon="10.3095550">
	<ele>991.40</ele>
	<time>2025-07-29T11:59:44.000Z</time>
</trkpt>
<trkpt lat="45.9088540" lon="10.3095560">
	<ele>991.00</ele>
	<time>2025-07-29T11:59:45.000Z</time>
</trkpt>
<trkpt lat="45.9088640" lon="10.3095540">
	<ele>991.00</ele>
	<time>2025-07-29T11:59:46.000Z</time>
</trkpt>
<trkpt lat="45.9088710" lon="10.3095530">
	<ele>990.60</ele>
	<time>2025-07-29T11:59:47.000Z</time>
</trkpt>
<trkpt lat="45.9088850" lon="10.3095540">
	<ele>990.40</ele>
	<time>2025-07-29T11:59:48.000Z</time>
</trkpt>
<trkpt lat="45.9088990" lon="10.3095630">
	<ele>990.40</ele>
	<time>2025-07-29T11:59:49.000Z</time>
</trkpt>
<trkpt lat="45.9089110" lon="10.3095650">
	<ele>990.20</ele>
	<time>2025-07-29T11:59:50.000Z</time>
</trkpt>
<trkpt lat="45.9089290" lon="10.3095690">
	<ele>990.00</ele>
	<time>2025-07-29T11:59:51.000Z</time>
</trkpt>
<trkpt lat="45.9089430" lon="10.3095800">
	<ele>989.80</ele>
	<time>2025-07-29T11:59:52.000Z</time>
</trkpt>
<trkpt lat="45.9089490" lon="10.3095840">
	<ele>989.60</ele>
	<time>2025-07-29T11:59:53.000Z</time>
</trkpt>
<trkpt lat="45.9089580" lon="10.3095900">
	<ele>989.40</ele>
	<time>2025-07-29T11:59:54.000Z</time>
</trkpt>
<trkpt lat="45.9089750" lon="10.3095810">
	<ele>989.20</ele>
	<time>2025-07-29T11:59:55.000Z</time>
</trkpt>
<trkpt lat="45.9089880" lon="10.3095810">
	<ele>989.00</ele>
	<time>2025-07-29T11:59:56.000Z</time>
</trkpt>
<trkpt lat="45.9089960" lon="10.3095820">
	<ele>988.80</ele>
	<time>2025-07-29T11:59:57.000Z</time>
</trkpt>
<trkpt lat="45.9090060" lon="10.3095890">
	<ele>988.60</ele>
	<time>2025-07-29T11:59:58.000Z</time>
</trkpt>
<trkpt lat="45.9090310" lon="10.3095850">
	<ele>988.40</ele>
	<time>2025-07-29T11:59:59.000Z</time>
</trkpt>
<trkpt lat="45.9090540" lon="10.3095810">
	<ele>988.20</ele>
	<time>2025-07-29T12:00:00.000Z</time>
</trkpt>
<trkpt lat="45.9090760" lon="10.3095720">
	<ele>988.00</ele>
	<time>2025-07-29T12:00:01.000Z</time>
</trkpt>
<trkpt lat="45.9090810" lon="10.3095670">
	<ele>987.80</ele>
	<time>2025-07-29T12:00:02.000Z</time>
</trkpt>
<trkpt lat="45.9090840" lon="10.3095710">
	<ele>987.80</ele>
	<time>2025-07-29T12:00:03.000Z</time>
</trkpt>
<trkpt lat="45.9090860" lon="10.3095730">
	<ele>987.80</ele>
	<time>2025-07-29T12:00:04.000Z</time>
</trkpt>
<trkpt lat="45.9090940" lon="10.3095860">
	<ele>987.80</ele>
	<time>2025-07-29T12:00:05.000Z</time>
</trkpt>
<trkpt lat="45.9091070" lon="10.3095900">
	<ele>987.80</ele>
	<time>2025-07-29T12:00:06.000Z</time>
</trkpt>
<trkpt lat="45.9091210" lon="10.3096130">
	<ele>987.60</ele>
	<time>2025-07-29T12:00:07.000Z</time>
</trkpt>
<trkpt lat="45.9091330" lon="10.3096220">
	<ele>987.60</ele>
	<time>2025-07-29T12:00:08.000Z</time>
</trkpt>
<trkpt lat="45.9091400" lon="10.3096360">
	<ele>987.40</ele>
	<time>2025-07-29T12:00:09.000Z</time>
</trkpt>
<trkpt lat="45.9091510" lon="10.3096450">
	<ele>987.40</ele>
	<time>2025-07-29T12:00:10.000Z</time>
</trkpt>
<trkpt lat="45.9091680" lon="10.3096390">
	<ele>987.20</ele>
	<time>2025-07-29T12:00:11.000Z</time>
</trkpt>
<trkpt lat="45.9091820" lon="10.3096320">
	<ele>987.00</ele>
	<time>2025-07-29T12:00:12.000Z</time>
</trkpt>
<trkpt lat="45.9091910" lon="10.3096320">
	<ele>986.80</ele>
	<time>2025-07-29T12:00:13.000Z</time>
</trkpt>
<trkpt lat="45.9091990" lon="10.3096360">
	<ele>986.80</ele>
	<time>2025-07-29T12:00:14.000Z</time>
</trkpt>
<trkpt lat="45.9092110" lon="10.3096420">
	<ele>986.80</ele>
	<time>2025-07-29T12:00:15.000Z</time>
</trkpt>
<trkpt lat="45.9092210" lon="10.3096400">
	<ele>986.60</ele>
	<time>2025-07-29T12:00:16.000Z</time>
</trkpt>
<trkpt lat="45.9092300" lon="10.3096290">
	<ele>986.60</ele>
	<time>2025-07-29T12:00:17.000Z</time>
</trkpt>
<trkpt lat="45.9092370" lon="10.3096380">
	<ele>986.60</ele>
	<time>2025-07-29T12:00:18.000Z</time>
</trkpt>
<trkpt lat="45.9092480" lon="10.3096360">
	<ele>986.60</ele>
	<time>2025-07-29T12:00:19.000Z</time>
</trkpt>
<trkpt lat="45.9092640" lon="10.3096320">
	<ele>986.60</ele>
	<time>2025-07-29T12:00:20.000Z</time>
</trkpt>
<trkpt lat="45.9092790" lon="10.3096360">
	<ele>986.60</ele>
	<time>2025-07-29T12:00:21.000Z</time>
</trkpt>
<trkpt lat="45.9092950" lon="10.3096280">
	<ele>986.60</ele>
	<time>2025-07-29T12:00:22.000Z</time>
</trkpt>
<trkpt lat="45.9093100" lon="10.3096240">
	<ele>986.40</ele>
	<time>2025-07-29T12:00:23.000Z</time>
</trkpt>
<trkpt lat="45.9093200" lon="10.3096230">
	<ele>986.40</ele>
	<time>2025-07-29T12:00:24.000Z</time>
</trkpt>
<trkpt lat="45.9093330" lon="10.3096230">
	<ele>986.40</ele>
	<time>2025-07-29T12:00:25.000Z</time>
</trkpt>
<trkpt lat="45.9093450" lon="10.3096170">
	<ele>986.40</ele>
	<time>2025-07-29T12:00:26.000Z</time>
</trkpt>
<trkpt lat="45.9093570" lon="10.3096120">
	<ele>986.20</ele>
	<time>2025-07-29T12:00:27.000Z</time>
</trkpt>
<trkpt lat="45.9093710" lon="10.3096320">
	<ele>986.20</ele>
	<time>2025-07-29T12:00:28.000Z</time>
</trkpt>
<trkpt lat="45.9093830" lon="10.3096590">
	<ele>986.20</ele>
	<time>2025-07-29T12:00:29.000Z</time>
</trkpt>
<trkpt lat="45.9094000" lon="10.3096500">
	<ele>986.20</ele>
	<time>2025-07-29T12:00:30.000Z</time>
</trkpt>
<trkpt lat="45.9094170" lon="10.3096440">
	<ele>986.00</ele>
	<time>2025-07-29T12:00:31.000Z</time>
</trkpt>
<trkpt lat="45.9094350" lon="10.3096320">
	<ele>986.00</ele>
	<time>2025-07-29T12:00:32.000Z</time>
</trkpt>
<trkpt lat="45.9094430" lon="10.3096470">
	<ele>986.00</ele>
	<time>2025-07-29T12:00:33.000Z</time>
</trkpt>
<trkpt lat="45.9094520" lon="10.3096760">
	<ele>986.00</ele>
	<time>2025-07-29T12:00:34.000Z</time>
</trkpt>
<trkpt lat="45.9094670" lon="10.3097040">
	<ele>986.00</ele>
	<time>2025-07-29T12:00:35.000Z</time>
</trkpt>
<trkpt lat="45.9094810" lon="10.3097120">
	<ele>986.00</ele>
	<time>2025-07-29T12:00:36.000Z</time>
</trkpt>
<trkpt lat="45.9094940" lon="10.3096940">
	<ele>985.80</ele>
	<time>2025-07-29T12:00:37.000Z</time>
</trkpt>
<trkpt lat="45.9095100" lon="10.3096910">
	<ele>985.80</ele>
	<time>2025-07-29T12:00:38.000Z</time>
</trkpt>
<trkpt lat="45.9095220" lon="10.3097010">
	<ele>985.80</ele>
	<time>2025-07-29T12:00:39.000Z</time>
</trkpt>
<trkpt lat="45.9095330" lon="10.3097300">
	<ele>985.80</ele>
	<time>2025-07-29T12:00:40.000Z</time>
</trkpt>
<trkpt lat="45.9095430" lon="10.3097480">
	<ele>985.80</ele>
	<time>2025-07-29T12:00:41.000Z</time>
</trkpt>
<trkpt lat="45.9095560" lon="10.3097770">
	<ele>985.80</ele>
	<time>2025-07-29T12:00:42.000Z</time>
</trkpt>
<trkpt lat="45.9095680" lon="10.3098020">
	<ele>985.80</ele>
	<time>2025-07-29T12:00:43.000Z</time>
</trkpt>
<trkpt lat="45.9095800" lon="10.3098240">
	<ele>985.80</ele>
	<time>2025-07-29T12:00:44.000Z</time>
</trkpt>
<trkpt lat="45.9095940" lon="10.3098430">
	<ele>985.80</ele>
	<time>2025-07-29T12:00:45.000Z</time>
</trkpt>
<trkpt lat="45.9096080" lon="10.3098600">
	<ele>985.80</ele>
	<time>2025-07-29T12:00:46.000Z</time>
</trkpt>
<trkpt lat="45.9096170" lon="10.3098910">
	<ele>985.80</ele>
	<time>2025-07-29T12:00:47.000Z</time>
</trkpt>
<trkpt lat="45.9096250" lon="10.3099130">
	<ele>985.80</ele>
	<time>2025-07-29T12:00:48.000Z</time>
</trkpt>
<trkpt lat="45.9096410" lon="10.3099290">
	<ele>985.80</ele>
	<time>2025-07-29T12:00:49.000Z</time>
</trkpt>
<trkpt lat="45.9096540" lon="10.3099350">
	<ele>985.60</ele>
	<time>2025-07-29T12:00:50.000Z</time>
</trkpt>
<trkpt lat="45.9096700" lon="10.3099300">
	<ele>985.40</ele>
	<time>2025-07-29T12:00:51.000Z</time>
</trkpt>
<trkpt lat="45.9096830" lon="10.3099330">
	<ele>985.40</ele>
	<time>2025-07-29T12:00:52.000Z</time>
</trkpt>
<trkpt lat="45.9096960" lon="10.3099440">
	<ele>985.20</ele>
	<time>2025-07-29T12:00:53.000Z</time>
</trkpt>
<trkpt lat="45.9097100" lon="10.3099570">
	<ele>985.20</ele>
	<time>2025-07-29T12:00:54.000Z</time>
</trkpt>
<trkpt lat="45.9097250" lon="10.3099350">
	<ele>985.00</ele>
	<time>2025-07-29T12:00:55.000Z</time>
</trkpt>
<trkpt lat="45.9097380" lon="10.3099410">
	<ele>984.80</ele>
	<time>2025-07-29T12:00:56.000Z</time>
</trkpt>
<trkpt lat="45.9097520" lon="10.3099540">
	<ele>984.60</ele>
	<time>2025-07-29T12:00:57.000Z</time>
</trkpt>
<trkpt lat="45.9097680" lon="10.3099650">
	<ele>984.40</ele>
	<time>2025-07-29T12:00:58.000Z</time>
</trkpt>
<trkpt lat="45.9097800" lon="10.3099640">
	<ele>984.00</ele>
	<time>2025-07-29T12:00:59.000Z</time>
</trkpt>
<trkpt lat="45.9097910" lon="10.3099580">
	<ele>983.80</ele>
	<time>2025-07-29T12:01:00.000Z</time>
</trkpt>
<trkpt lat="45.9098000" lon="10.3099760">
	<ele>983.60</ele>
	<time>2025-07-29T12:01:01.000Z</time>
</trkpt>
<trkpt lat="45.9098090" lon="10.3099870">
	<ele>983.20</ele>
	<time>2025-07-29T12:01:02.000Z</time>
</trkpt>
<trkpt lat="45.9098190" lon="10.3099960">
	<ele>983.00</ele>
	<time>2025-07-29T12:01:03.000Z</time>
</trkpt>
<trkpt lat="45.9098260" lon="10.3100000">
	<ele>982.80</ele>
	<time>2025-07-29T12:01:04.000Z</time>
</trkpt>
<trkpt lat="45.9098330" lon="10.3100170">
	<ele>982.60</ele>
	<time>2025-07-29T12:01:05.000Z</time>
</trkpt>
<trkpt lat="45.9098440" lon="10.3100300">
	<ele>982.40</ele>
	<time>2025-07-29T12:01:06.000Z</time>
</trkpt>
<trkpt lat="45.9098540" lon="10.3100210">
	<ele>982.00</ele>
	<time>2025-07-29T12:01:07.000Z</time>
</trkpt>
<trkpt lat="45.9098680" lon="10.3099920">
	<ele>981.80</ele>
	<time>2025-07-29T12:01:08.000Z</time>
</trkpt>
<trkpt lat="45.9098790" lon="10.3099790">
	<ele>981.60</ele>
	<time>2025-07-29T12:01:09.000Z</time>
</trkpt>
<trkpt lat="45.9098880" lon="10.3099650">
	<ele>981.40</ele>
	<time>2025-07-29T12:01:10.000Z</time>
</trkpt>
<trkpt lat="45.9099000" lon="10.3099540">
	<ele>981.20</ele>
	<time>2025-07-29T12:01:11.000Z</time>
</trkpt>
<trkpt lat="45.9099140" lon="10.3099390">
	<ele>981.00</ele>
	<time>2025-07-29T12:01:12.000Z</time>
</trkpt>
<trkpt lat="45.9099320" lon="10.3099430">
	<ele>980.80</ele>
	<time>2025-07-29T12:01:13.000Z</time>
</trkpt>
<trkpt lat="45.9099450" lon="10.3099500">
	<ele>980.80</ele>
	<time>2025-07-29T12:01:14.000Z</time>
</trkpt>
<trkpt lat="45.9099580" lon="10.3099430">
	<ele>980.60</ele>
	<time>2025-07-29T12:01:15.000Z</time>
</trkpt>
<trkpt lat="45.9099740" lon="10.3099400">
	<ele>980.60</ele>
	<time>2025-07-29T12:01:16.000Z</time>
</trkpt>
<trkpt lat="45.9099850" lon="10.3099330">
	<ele>980.20</ele>
	<time>2025-07-29T12:01:17.000Z</time>
</trkpt>
<trkpt lat="45.9099940" lon="10.3099500">
	<ele>980.00</ele>
	<time>2025-07-29T12:01:18.000Z</time>
</trkpt>
<trkpt lat="45.9100000" lon="10.3099700">
	<ele>979.80</ele>
	<time>2025-07-29T12:01:19.000Z</time>
</trkpt>
<trkpt lat="45.9100110" lon="10.3099680">
	<ele>979.60</ele>
	<time>2025-07-29T12:01:20.000Z</time>
</trkpt>
<trkpt lat="45.9100240" lon="10.3099670">
	<ele>979.40</ele>
	<time>2025-07-29T12:01:21.000Z</time>
</trkpt>
<trkpt lat="45.9100370" lon="10.3099680">
	<ele>979.40</ele>
	<time>2025-07-29T12:01:22.000Z</time>
</trkpt>
<trkpt lat="45.9100510" lon="10.3099570">
	<ele>979.00</ele>
	<time>2025-07-29T12:01:23.000Z</time>
</trkpt>
<trkpt lat="45.9100620" lon="10.3099260">
	<ele>978.80</ele>
	<time>2025-07-29T12:01:24.000Z</time>
</trkpt>
<trkpt lat="45.9100690" lon="10.3099190">
	<ele>978.60</ele>
	<time>2025-07-29T12:01:25.000Z</time>
</trkpt>
<trkpt lat="45.9100800" lon="10.3098850">
	<ele>978.40</ele>
	<time>2025-07-29T12:01:26.000Z</time>
</trkpt>
<trkpt lat="45.9100900" lon="10.3098410">
	<ele>978.40</ele>
	<time>2025-07-29T12:01:27.000Z</time>
</trkpt>
<trkpt lat="45.9101020" lon="10.3098040">
	<ele>978.00</ele>
	<time>2025-07-29T12:01:28.000Z</time>
</trkpt>
<trkpt lat="45.9101140" lon="10.3097780">
	<ele>978.00</ele>
	<time>2025-07-29T12:01:29.000Z</time>
</trkpt>
<trkpt lat="45.9101280" lon="10.3097530">
	<ele>977.80</ele>
	<time>2025-07-29T12:01:30.000Z</time>
</trkpt>
<trkpt lat="45.9101460" lon="10.3097190">
	<ele>977.60</ele>
	<time>2025-07-29T12:01:31.000Z</time>
</trkpt>
<trkpt lat="45.9101670" lon="10.3096880">
	<ele>977.40</ele>
	<time>2025-07-29T12:01:32.000Z</time>
</trkpt>
<trkpt lat="45.9101880" lon="10.3096500">
	<ele>977.20</ele>
	<time>2025-07-29T12:01:33.000Z</time>
</trkpt>
<trkpt lat="45.9102010" lon="10.3096210">
	<ele>977.20</ele>
	<time>2025-07-29T12:01:34.000Z</time>
</trkpt>
<trkpt lat="45.9102180" lon="10.3095900">
	<ele>977.00</ele>
	<time>2025-07-29T12:01:35.000Z</time>
</trkpt>
<trkpt lat="45.9102310" lon="10.3095590">
	<ele>976.80</ele>
	<time>2025-07-29T12:01:36.000Z</time>
</trkpt>
<trkpt lat="45.9102450" lon="10.3095330">
	<ele>976.60</ele>
	<time>2025-07-29T12:01:37.000Z</time>
</trkpt>
<trkpt lat="45.9102610" lon="10.3095020">
	<ele>976.40</ele>
	<time>2025-07-29T12:01:38.000Z</time>
</trkpt>
<trkpt lat="45.9102770" lon="10.3094890">
	<ele>976.20</ele>
	<time>2025-07-29T12:01:39.000Z</time>
</trkpt>
<trkpt lat="45.9102890" lon="10.3094830">
	<ele>975.80</ele>
	<time>2025-07-29T12:01:40.000Z</time>
</trkpt>
<trkpt lat="45.9103010" lon="10.3094700">
	<ele>975.60</ele>
	<time>2025-07-29T12:01:41.000Z</time>
</trkpt>
<trkpt lat="45.9103080" lon="10.3094540">
	<ele>975.20</ele>
	<time>2025-07-29T12:01:42.000Z</time>
</trkpt>
<trkpt lat="45.9103160" lon="10.3094320">
	<ele>975.20</ele>
	<time>2025-07-29T12:01:43.000Z</time>
</trkpt>
<trkpt lat="45.9103280" lon="10.3094140">
	<ele>975.00</ele>
	<time>2025-07-29T12:01:44.000Z</time>
</trkpt>
<trkpt lat="45.9103390" lon="10.3093940">
	<ele>974.80</ele>
	<time>2025-07-29T12:01:45.000Z</time>
</trkpt>
<trkpt lat="45.9103570" lon="10.3093780">
	<ele>974.40</ele>
	<time>2025-07-29T12:01:46.000Z</time>
</trkpt>
<trkpt lat="45.9103680" lon="10.3093690">
	<ele>974.40</ele>
	<time>2025-07-29T12:01:47.000Z</time>
</trkpt>
<trkpt lat="45.9103760" lon="10.3093520">
	<ele>974.20</ele>
	<time>2025-07-29T12:01:48.000Z</time>
</trkpt>
<trkpt lat="45.9103830" lon="10.3093300">
	<ele>974.20</ele>
	<time>2025-07-29T12:01:49.000Z</time>
</trkpt>
<trkpt lat="45.9103930" lon="10.3092970">
	<ele>974.00</ele>
	<time>2025-07-29T12:01:50.000Z</time>
</trkpt>
<trkpt lat="45.9104140" lon="10.3092810">
	<ele>973.80</ele>
	<time>2025-07-29T12:01:51.000Z</time>
</trkpt>
<trkpt lat="45.9104360" lon="10.3092680">
	<ele>973.60</ele>
	<time>2025-07-29T12:01:52.000Z</time>
</trkpt>
<trkpt lat="45.9104630" lon="10.3092600">
	<ele>973.40</ele>
	<time>2025-07-29T12:01:53.000Z</time>
</trkpt>
<trkpt lat="45.9104770" lon="10.3092520">
	<ele>973.40</ele>
	<time>2025-07-29T12:01:54.000Z</time>
</trkpt>
<trkpt lat="45.9104850" lon="10.3092410">
	<ele>973.20</ele>
	<time>2025-07-29T12:01:55.000Z</time>
</trkpt>
<trkpt lat="45.9104880" lon="10.3092270">
	<ele>973.20</ele>
	<time>2025-07-29T12:01:56.000Z</time>
</trkpt>
<trkpt lat="45.9104930" lon="10.3092140">
	<ele>972.60</ele>
	<time>2025-07-29T12:01:57.000Z</time>
</trkpt>
<trkpt lat="45.9104970" lon="10.3092010">
	<ele>972.40</ele>
	<time>2025-07-29T12:01:58.000Z</time>
</trkpt>
<trkpt lat="45.9105020" lon="10.3091920">
	<ele>972.00</ele>
	<time>2025-07-29T12:01:59.000Z</time>
</trkpt>
<trkpt lat="45.9105120" lon="10.3091790">
	<ele>971.80</ele>
	<time>2025-07-29T12:02:00.000Z</time>
</trkpt>
<trkpt lat="45.9105260" lon="10.3091570">
	<ele>971.60</ele>
	<time>2025-07-29T12:02:01.000Z</time>
</trkpt>
<trkpt lat="45.9105350" lon="10.3091400">
	<ele>971.40</ele>
	<time>2025-07-29T12:02:02.000Z</time>
</trkpt>
<trkpt lat="45.9105460" lon="10.3091240">
	<ele>971.20</ele>
	<time>2025-07-29T12:02:03.000Z</time>
</trkpt>
<trkpt lat="45.9105560" lon="10.3091330">
	<ele>971.00</ele>
	<time>2025-07-29T12:02:04.000Z</time>
</trkpt>
<trkpt lat="45.9105600" lon="10.3091330">
	<ele>970.60</ele>
	<time>2025-07-29T12:02:05.000Z</time>
</trkpt>
<trkpt lat="45.9105640" lon="10.3091320">
	<ele>970.60</ele>
	<time>2025-07-29T12:02:06.000Z</time>
</trkpt>
<trkpt lat="45.9105720" lon="10.3091180">
	<ele>970.40</ele>
	<time>2025-07-29T12:02:07.000Z</time>
</trkpt>
<trkpt lat="45.9105840" lon="10.3091050">
	<ele>970.00</ele>
	<time>2025-07-29T12:02:08.000Z</time>
</trkpt>
<trkpt lat="45.9105920" lon="10.3090910">
	<ele>969.80</ele>
	<time>2025-07-29T12:02:09.000Z</time>
</trkpt>
<trkpt lat="45.9105980" lon="10.3090800">
	<ele>969.60</ele>
	<time>2025-07-29T12:02:10.000Z</time>
</trkpt>
<trkpt lat="45.9106010" lon="10.3090670">
	<ele>969.40</ele>
	<time>2025-07-29T12:02:11.000Z</time>
</trkpt>
<trkpt lat="45.9106060" lon="10.3090560">
	<ele>969.20</ele>
	<time>2025-07-29T12:02:12.000Z</time>
</trkpt>
<trkpt lat="45.9106100" lon="10.3090480">
	<ele>969.00</ele>
	<time>2025-07-29T12:02:13.000Z</time>
</trkpt>
<trkpt lat="45.9106120" lon="10.3090380">
	<ele>968.80</ele>
	<time>2025-07-29T12:02:14.000Z</time>
</trkpt>
<trkpt lat="45.9106220" lon="10.3090300">
	<ele>968.60</ele>
	<time>2025-07-29T12:02:15.000Z</time>
</trkpt>
<trkpt lat="45.9106350" lon="10.3090170">
	<ele>968.20</ele>
	<time>2025-07-29T12:02:16.000Z</time>
</trkpt>
<trkpt lat="45.9106480" lon="10.3090030">
	<ele>968.00</ele>
	<time>2025-07-29T12:02:17.000Z</time>
</trkpt>
<trkpt lat="45.9106570" lon="10.3089860">
	<ele>968.00</ele>
	<time>2025-07-29T12:02:18.000Z</time>
</trkpt>
<trkpt lat="45.9106690" lon="10.3089680">
	<ele>967.60</ele>
	<time>2025-07-29T12:02:19.000Z</time>
</trkpt>
<trkpt lat="45.9106750" lon="10.3089550">
	<ele>967.40</ele>
	<time>2025-07-29T12:02:20.000Z</time>
</trkpt>
<trkpt lat="45.9106860" lon="10.3089340">
	<ele>967.20</ele>
	<time>2025-07-29T12:02:21.000Z</time>
</trkpt>
<trkpt lat="45.9106990" lon="10.3089070">
	<ele>967.00</ele>
	<time>2025-07-29T12:02:22.000Z</time>
</trkpt>
<trkpt lat="45.9107040" lon="10.3088770">
	<ele>966.80</ele>
	<time>2025-07-29T12:02:23.000Z</time>
</trkpt>
<trkpt lat="45.9107090" lon="10.3088720">
	<ele>966.60</ele>
	<time>2025-07-29T12:02:24.000Z</time>
</trkpt>
<trkpt lat="45.9107180" lon="10.3088500">
	<ele>966.60</ele>
	<time>2025-07-29T12:02:25.000Z</time>
</trkpt>
<trkpt lat="45.9107240" lon="10.3088260">
	<ele>966.40</ele>
	<time>2025-07-29T12:02:26.000Z</time>
</trkpt>
<trkpt lat="45.9107340" lon="10.3088110">
	<ele>966.00</ele>
	<time>2025-07-29T12:02:27.000Z</time>
</trkpt>
<trkpt lat="45.9107350" lon="10.3087990">
	<ele>966.00</ele>
	<time>2025-07-29T12:02:28.000Z</time>
</trkpt>
<trkpt lat="45.9107350" lon="10.3087910">
	<ele>965.60</ele>
	<time>2025-07-29T12:02:29.000Z</time>
</trkpt>
<trkpt lat="45.9107440" lon="10.3087830">
	<ele>965.40</ele>
	<time>2025-07-29T12:02:30.000Z</time>
</trkpt>
<trkpt lat="45.9107620" lon="10.3087690">
	<ele>965.40</ele>
	<time>2025-07-29T12:02:31.000Z</time>
</trkpt>
<trkpt lat="45.9107970" lon="10.3087550">
	<ele>965.20</ele>
	<time>2025-07-29T12:02:32.000Z</time>
</trkpt>
<trkpt lat="45.9108160" lon="10.3087370">
	<ele>965.00</ele>
	<time>2025-07-29T12:02:33.000Z</time>
</trkpt>
<trkpt lat="45.9108240" lon="10.3087140">
	<ele>964.80</ele>
	<time>2025-07-29T12:02:34.000Z</time>
</trkpt>
<trkpt lat="45.9108380" lon="10.3087020">
	<ele>964.60</ele>
	<time>2025-07-29T12:02:35.000Z</time>
</trkpt>
<trkpt lat="45.9108560" lon="10.3086940">
	<ele>964.40</ele>
	<time>2025-07-29T12:02:36.000Z</time>
</trkpt>
<trkpt lat="45.9108740" lon="10.3086800">
	<ele>964.00</ele>
	<time>2025-07-29T12:02:37.000Z</time>
</trkpt>
<trkpt lat="45.9108960" lon="10.3086670">
	<ele>963.80</ele>
	<time>2025-07-29T12:02:38.000Z</time>
</trkpt>
<trkpt lat="45.9109190" lon="10.3086450">
	<ele>963.60</ele>
	<time>2025-07-29T12:02:39.000Z</time>
</trkpt>
<trkpt lat="45.9109230" lon="10.3086400">
	<ele>963.20</ele>
	<time>2025-07-29T12:02:40.000Z</time>
</trkpt>
<trkpt lat="45.9109500" lon="10.3086270">
	<ele>962.80</ele>
	<time>2025-07-29T12:02:41.000Z</time>
</trkpt>
<trkpt lat="45.9109750" lon="10.3086100">
	<ele>962.60</ele>
	<time>2025-07-29T12:02:42.000Z</time>
</trkpt>
<trkpt lat="45.9109960" lon="10.3085750">
	<ele>962.40</ele>
	<time>2025-07-29T12:02:43.000Z</time>
</trkpt>
<trkpt lat="45.9110030" lon="10.3085520">
	<ele>962.40</ele>
	<time>2025-07-29T12:02:44.000Z</time>
</trkpt>
<trkpt lat="45.9109900" lon="10.3085240">
	<ele>962.20</ele>
	<time>2025-07-29T12:02:45.000Z</time>
</trkpt>
<trkpt lat="45.9109810" lon="10.3085070">
	<ele>962.00</ele>
	<time>2025-07-29T12:02:46.000Z</time>
</trkpt>
<trkpt lat="45.9109710" lon="10.3084970">
	<ele>962.00</ele>
	<time>2025-07-29T12:02:47.000Z</time>
</trkpt>
<trkpt lat="45.9109620" lon="10.3084850">
	<ele>962.00</ele>
	<time>2025-07-29T12:02:48.000Z</time>
</trkpt>
<trkpt lat="45.9109480" lon="10.3084760">
	<ele>962.00</ele>
	<time>2025-07-29T12:02:49.000Z</time>
</trkpt>
<trkpt lat="45.9109380" lon="10.3084670">
	<ele>961.80</ele>
	<time>2025-07-29T12:02:50.000Z</time>
</trkpt>
<trkpt lat="45.9109340" lon="10.3084500">
	<ele>961.80</ele>
	<time>2025-07-29T12:02:51.000Z</time>
</trkpt>
<trkpt lat="45.9109430" lon="10.3084190">
	<ele>961.80</ele>
	<time>2025-07-29T12:02:52.000Z</time>
</trkpt>
<trkpt lat="45.9109520" lon="10.3083870">
	<ele>961.60</ele>
	<time>2025-07-29T12:02:53.000Z</time>
</trkpt>
<trkpt lat="45.9109640" lon="10.3083600">
	<ele>961.60</ele>
	<time>2025-07-29T12:02:54.000Z</time>
</trkpt>
<trkpt lat="45.9109670" lon="10.3083390">
	<ele>961.60</ele>
	<time>2025-07-29T12:02:55.000Z</time>
</trkpt>
<trkpt lat="45.9109680" lon="10.3083210">
	<ele>961.40</ele>
	<time>2025-07-29T12:02:56.000Z</time>
</trkpt>
<trkpt lat="45.9109730" lon="10.3083060">
	<ele>961.20</ele>
	<time>2025-07-29T12:02:57.000Z</time>
</trkpt>
<trkpt lat="45.9109750" lon="10.3082910">
	<ele>961.00</ele>
	<time>2025-07-29T12:02:58.000Z</time>
</trkpt>
<trkpt lat="45.9109850" lon="10.3082760">
	<ele>960.80</ele>
	<time>2025-07-29T12:02:59.000Z</time>
</trkpt>
<trkpt lat="45.9110030" lon="10.3082560">
	<ele>960.60</ele>
	<time>2025-07-29T12:03:00.000Z</time>
</trkpt>
<trkpt lat="45.9110240" lon="10.3082350">
	<ele>960.60</ele>
	<time>2025-07-29T12:03:01.000Z</time>
</trkpt>
<trkpt lat="45.9110340" lon="10.3082130">
	<ele>960.20</ele>
	<time>2025-07-29T12:03:02.000Z</time>
</trkpt>
<trkpt lat="45.9110420" lon="10.3081870">
	<ele>960.20</ele>
	<time>2025-07-29T12:03:03.000Z</time>
</trkpt>
<trkpt lat="45.9110320" lon="10.3081710">
	<ele>960.00</ele>
	<time>2025-07-29T12:03:04.000Z</time>
</trkpt>
<trkpt lat="45.9110180" lon="10.3081560">
	<ele>959.80</ele>
	<time>2025-07-29T12:03:05.000Z</time>
</trkpt>
<trkpt lat="45.9110020" lon="10.3081350">
	<ele>959.80</ele>
	<time>2025-07-29T12:03:06.000Z</time>
</trkpt>
<trkpt lat="45.9109950" lon="10.3081080">
	<ele>959.80</ele>
	<time>2025-07-29T12:03:07.000Z</time>
</trkpt>
<trkpt lat="45.9110020" lon="10.3080870">
	<ele>959.80</ele>
	<time>2025-07-29T12:03:08.000Z</time>
</trkpt>
<trkpt lat="45.9110130" lon="10.3080650">
	<ele>959.60</ele>
	<time>2025-07-29T12:03:09.000Z</time>
</trkpt>
<trkpt lat="45.9110260" lon="10.3080450">
	<ele>959.60</ele>
	<time>2025-07-29T12:03:10.000Z</time>
</trkpt>
<trkpt lat="45.9110360" lon="10.3080220">
	<ele>959.40</ele>
	<time>2025-07-29T12:03:11.000Z</time>
</trkpt>
<trkpt lat="45.9110500" lon="10.3080070">
	<ele>959.40</ele>
	<time>2025-07-29T12:03:12.000Z</time>
</trkpt>
<trkpt lat="45.9110590" lon="10.3079920">
	<ele>959.40</ele>
	<time>2025-07-29T12:03:13.000Z</time>
</trkpt>
<trkpt lat="45.9110610" lon="10.3079740">
	<ele>959.40</ele>
	<time>2025-07-29T12:03:14.000Z</time>
</trkpt>
<trkpt lat="45.9110550" lon="10.3079580">
	<ele>959.40</ele>
	<time>2025-07-29T12:03:15.000Z</time>
</trkpt>
<trkpt lat="45.9110580" lon="10.3079450">
	<ele>959.40</ele>
	<time>2025-07-29T12:03:16.000Z</time>
</trkpt>
<trkpt lat="45.9110580" lon="10.3079380">
	<ele>959.40</ele>
	<time>2025-07-29T12:03:17.000Z</time>
</trkpt>
<trkpt lat="45.9110570" lon="10.3079320">
	<ele>959.40</ele>
	<time>2025-07-29T12:03:18.000Z</time>
</trkpt>
<trkpt lat="45.9110570" lon="10.3079230">
	<ele>959.40</ele>
	<time>2025-07-29T12:03:19.000Z</time>
</trkpt>
<trkpt lat="45.9110490" lon="10.3079180">
	<ele>959.40</ele>
	<time>2025-07-29T12:03:20.000Z</time>
</trkpt>
<trkpt lat="45.9110500" lon="10.3079130">
	<ele>959.60</ele>
	<time>2025-07-29T12:03:21.000Z</time>
</trkpt>
<trkpt lat="45.9110450" lon="10.3078970">
	<ele>959.60</ele>
	<time>2025-07-29T12:03:22.000Z</time>
</trkpt>
<trkpt lat="45.9110460" lon="10.3078700">
	<ele>959.60</ele>
	<time>2025-07-29T12:03:23.000Z</time>
</trkpt>
<trkpt lat="45.9110470" lon="10.3078490">
	<ele>959.80</ele>
	<time>2025-07-29T12:03:24.000Z</time>
</trkpt>
<trkpt lat="45.9110670" lon="10.3078320">
	<ele>959.80</ele>
	<time>2025-07-29T12:03:25.000Z</time>
</trkpt>
<trkpt lat="45.9110850" lon="10.3078210">
	<ele>959.80</ele>
	<time>2025-07-29T12:03:26.000Z</time>
</trkpt>
<trkpt lat="45.9110850" lon="10.3077980">
	<ele>959.80</ele>
	<time>2025-07-29T12:03:27.000Z</time>
</trkpt>
<trkpt lat="45.9110960" lon="10.3077760">
	<ele>959.80</ele>
	<time>2025-07-29T12:03:28.000Z</time>
</trkpt>
<trkpt lat="45.9111100" lon="10.3077430">
	<ele>959.80</ele>
	<time>2025-07-29T12:03:29.000Z</time>
</trkpt>
<trkpt lat="45.9111280" lon="10.3077070">
	<ele>959.80</ele>
	<time>2025-07-29T12:03:30.000Z</time>
</trkpt>
<trkpt lat="45.9111320" lon="10.3076820">
	<ele>959.80</ele>
	<time>2025-07-29T12:03:31.000Z</time>
</trkpt>
<trkpt lat="45.9111460" lon="10.3076680">
	<ele>960.00</ele>
	<time>2025-07-29T12:03:32.000Z</time>
</trkpt>
<trkpt lat="45.9111490" lon="10.3076480">
	<ele>960.00</ele>
	<time>2025-07-29T12:03:33.000Z</time>
</trkpt>
<trkpt lat="45.9111580" lon="10.3076290">
	<ele>960.00</ele>
	<time>2025-07-29T12:03:34.000Z</time>
</trkpt>
<trkpt lat="45.9111740" lon="10.3076040">
	<ele>960.20</ele>
	<time>2025-07-29T12:03:35.000Z</time>
</trkpt>
<trkpt lat="45.9111860" lon="10.3075920">
	<ele>960.20</ele>
	<time>2025-07-29T12:03:36.000Z</time>
</trkpt>
<trkpt lat="45.9111980" lon="10.3075640">
	<ele>960.40</ele>
	<time>2025-07-29T12:03:37.000Z</time>
</trkpt>
<trkpt lat="45.9112140" lon="10.3075430">
	<ele>960.40</ele>
	<time>2025-07-29T12:03:38.000Z</time>
</trkpt>
<trkpt lat="45.9112240" lon="10.3075170">
	<ele>960.60</ele>
	<time>2025-07-29T12:03:39.000Z</time>
</trkpt>
<trkpt lat="45.9112240" lon="10.3074910">
	<ele>960.60</ele>
	<time>2025-07-29T12:03:40.000Z</time>
</trkpt>
<trkpt lat="45.9112330" lon="10.3074610">
	<ele>960.80</ele>
	<time>2025-07-29T12:03:41.000Z</time>
</trkpt>
<trkpt lat="45.9112390" lon="10.3074410">
	<ele>961.00</ele>
	<time>2025-07-29T12:03:42.000Z</time>
</trkpt>
<trkpt lat="45.9112450" lon="10.3074160">
	<ele>961.00</ele>
	<time>2025-07-29T12:03:43.000Z</time>
</trkpt>
<trkpt lat="45.9112430" lon="10.3073970">
	<ele>961.00</ele>
	<time>2025-07-29T12:03:44.000Z</time>
</trkpt>
<trkpt lat="45.9112350" lon="10.3073770">
	<ele>961.00</ele>
	<time>2025-07-29T12:03:45.000Z</time>
</trkpt>
<trkpt lat="45.9112200" lon="10.3073590">
	<ele>961.20</ele>
	<time>2025-07-29T12:03:46.000Z</time>
</trkpt>
<trkpt lat="45.9112090" lon="10.3073390">
	<ele>961.20</ele>
	<time>2025-07-29T12:03:47.000Z</time>
</trkpt>
<trkpt lat="45.9112020" lon="10.3073220">
	<ele>961.40</ele>
	<time>2025-07-29T12:03:48.000Z</time>
</trkpt>
<trkpt lat="45.9112040" lon="10.3073110">
	<ele>961.40</ele>
	<time>2025-07-29T12:03:49.000Z</time>
</trkpt>
<trkpt lat="45.9112050" lon="10.3072920">
	<ele>961.60</ele>
	<time>2025-07-29T12:03:50.000Z</time>
</trkpt>
<trkpt lat="45.9112040" lon="10.3072760">
	<ele>961.80</ele>
	<time>2025-07-29T12:03:51.000Z</time>
</trkpt>
<trkpt lat="45.9111940" lon="10.3072630">
	<ele>961.80</ele>
	<time>2025-07-29T12:03:52.000Z</time>
</trkpt>
<trkpt lat="45.9111860" lon="10.3072390">
	<ele>962.00</ele>
	<time>2025-07-29T12:03:53.000Z</time>
</trkpt>
<trkpt lat="45.9111910" lon="10.3072200">
	<ele>962.00</ele>
	<time>2025-07-29T12:03:54.000Z</time>
</trkpt>
<trkpt lat="45.9111900" lon="10.3071840">
	<ele>962.20</ele>
	<time>2025-07-29T12:03:55.000Z</time>
</trkpt>
<trkpt lat="45.9111940" lon="10.3071690">
	<ele>962.20</ele>
	<time>2025-07-29T12:03:56.000Z</time>
</trkpt>
<trkpt lat="45.9111950" lon="10.3071670">
	<ele>962.20</ele>
	<time>2025-07-29T12:03:57.000Z</time>
</trkpt>
<trkpt lat="45.9112110" lon="10.3071710">
	<ele>962.20</ele>
	<time>2025-07-29T12:03:58.000Z</time>
</trkpt>
<trkpt lat="45.9112200" lon="10.3071640">
	<ele>962.20</ele>
	<time>2025-07-29T12:03:59.000Z</time>
</trkpt>
<trkpt lat="45.9112260" lon="10.3071670">
	<ele>962.20</ele>
	<time>2025-07-29T12:04:00.000Z</time>
</trkpt>
<trkpt lat="45.9112310" lon="10.3071930">
	<ele>962.20</ele>
	<time>2025-07-29T12:04:01.000Z</time>
</trkpt>
<trkpt lat="45.9112300" lon="10.3071950">
	<ele>962.20</ele>
	<time>2025-07-29T12:04:02.000Z</time>
</trkpt>
<trkpt lat="45.9112270" lon="10.3072130">
	<ele>962.20</ele>
	<time>2025-07-29T12:04:03.000Z</time>
</trkpt>
<trkpt lat="45.9112250" lon="10.3072180">
	<ele>962.20</ele>
	<time>2025-07-29T12:04:04.000Z</time>
</trkpt>
<trkpt lat="45.9112070" lon="10.3072330">
	<ele>962.20</ele>
	<time>2025-07-29T12:04:05.000Z</time>
</trkpt>
<trkpt lat="45.9112050" lon="10.3072450">
	<ele>962.00</ele>
	<time>2025-07-29T12:04:06.000Z</time>
</trkpt>
<trkpt lat="45.9111970" lon="10.3072570">
	<ele>962.00</ele>
	<time>2025-07-29T12:04:07.000Z</time>
</trkpt>
<trkpt lat="45.9111980" lon="10.3072420">
	<ele>961.80</ele>
	<time>2025-07-29T12:04:08.000Z</time>
</trkpt>
<trkpt lat="45.9112210" lon="10.3071930">
	<ele>961.80</ele>
	<time>2025-07-29T12:04:09.000Z</time>
</trkpt>
<trkpt lat="45.9112380" lon="10.3071310">
	<ele>961.60</ele>
	<time>2025-07-29T12:04:10.000Z</time>
</trkpt>
<trkpt lat="45.9112470" lon="10.3070910">
	<ele>961.60</ele>
	<time>2025-07-29T12:04:11.000Z</time>
</trkpt>
<trkpt lat="45.9112370" lon="10.3070710">
	<ele>961.60</ele>
	<time>2025-07-29T12:04:12.000Z</time>
</trkpt>
<trkpt lat="45.9112200" lon="10.3070740">
	<ele>961.60</ele>
	<time>2025-07-29T12:04:13.000Z</time>
</trkpt>
<trkpt lat="45.9112130" lon="10.3070880">
	<ele>961.60</ele>
	<time>2025-07-29T12:04:14.000Z</time>
</trkpt>
<trkpt lat="45.9112150" lon="10.3071020">
	<ele>961.60</ele>
	<time>2025-07-29T12:04:15.000Z</time>
</trkpt>
<trkpt lat="45.9112190" lon="10.3071090">
	<ele>961.60</ele>
	<time>2025-07-29T12:04:16.000Z</time>
</trkpt>
<trkpt lat="45.9112210" lon="10.3071150">
	<ele>961.60</ele>
	<time>2025-07-29T12:04:17.000Z</time>
</trkpt>
<trkpt lat="45.9112300" lon="10.3071240">
	<ele>961.60</ele>
	<time>2025-07-29T12:04:18.000Z</time>
</trkpt>
<trkpt lat="45.9112440" lon="10.3071050">
	<ele>961.60</ele>
	<time>2025-07-29T12:04:19.000Z</time>
</trkpt>
<trkpt lat="45.9112660" lon="10.3071020">
	<ele>961.60</ele>
	<time>2025-07-29T12:04:20.000Z</time>
</trkpt>
<trkpt lat="45.9112950" lon="10.3071060">
	<ele>961.60</ele>
	<time>2025-07-29T12:04:21.000Z</time>
</trkpt>
<trkpt lat="45.9112750" lon="10.3071070">
	<ele>961.60</ele>
	<time>2025-07-29T12:04:22.000Z</time>
</trkpt>
<trkpt lat="45.9112900" lon="10.3071210">
	<ele>961.40</ele>
	<time>2025-07-29T12:04:23.000Z</time>
</trkpt>
<trkpt lat="45.9112830" lon="10.3071400">
	<ele>961.40</ele>
	<time>2025-07-29T12:04:24.000Z</time>
</trkpt>
<trkpt lat="45.9112810" lon="10.3071490">
	<ele>961.20</ele>
	<time>2025-07-29T12:04:25.000Z</time>
</trkpt>
<trkpt lat="45.9112820" lon="10.3071520">
	<ele>961.20</ele>
	<time>2025-07-29T12:04:26.000Z</time>
</trkpt>
<trkpt lat="45.9112910" lon="10.3071580">
	<ele>961.00</ele>
	<time>2025-07-29T12:04:27.000Z</time>
</trkpt>
<trkpt lat="45.9112940" lon="10.3071610">
	<ele>961.00</ele>
	<time>2025-07-29T12:04:28.000Z</time>
</trkpt>
<trkpt lat="45.9113110" lon="10.3071420">
	<ele>960.80</ele>
	<time>2025-07-29T12:04:29.000Z</time>
</trkpt>
<trkpt lat="45.9113280" lon="10.3071290">
	<ele>960.60</ele>
	<time>2025-07-29T12:04:30.000Z</time>
</trkpt>
<trkpt lat="45.9113460" lon="10.3071310">
	<ele>960.60</ele>
	<time>2025-07-29T12:04:31.000Z</time>
</trkpt>
<trkpt lat="45.9113720" lon="10.3071280">
	<ele>960.40</ele>
	<time>2025-07-29T12:04:32.000Z</time>
</trkpt>
<trkpt lat="45.9113820" lon="10.3071160">
	<ele>960.40</ele>
	<time>2025-07-29T12:04:33.000Z</time>
</trkpt>
<trkpt lat="45.9113940" lon="10.3071070">
	<ele>960.40</ele>
	<time>2025-07-29T12:04:34.000Z</time>
</trkpt>
<trkpt lat="45.9114020" lon="10.3070930">
	<ele>960.20</ele>
	<time>2025-07-29T12:04:35.000Z</time>
</trkpt>
<trkpt lat="45.9114210" lon="10.3070890">
	<ele>960.20</ele>
	<time>2025-07-29T12:04:36.000Z</time>
</trkpt>
<trkpt lat="45.9114400" lon="10.3070740">
	<ele>960.20</ele>
	<time>2025-07-29T12:04:37.000Z</time>
</trkpt>
<trkpt lat="45.9114570" lon="10.3070590">
	<ele>960.20</ele>
	<time>2025-07-29T12:04:38.000Z</time>
</trkpt>
<trkpt lat="45.9114680" lon="10.3070350">
	<ele>960.20</ele>
	<time>2025-07-29T12:04:39.000Z</time>
</trkpt>
<trkpt lat="45.9114780" lon="10.3070160">
	<ele>960.20</ele>
	<time>2025-07-29T12:04:40.000Z</time>
</trkpt>
<trkpt lat="45.9114900" lon="10.3070030">
	<ele>960.20</ele>
	<time>2025-07-29T12:04:41.000Z</time>
</trkpt>
<trkpt lat="45.9115040" lon="10.3070000">
	<ele>960.20</ele>
	<time>2025-07-29T12:04:42.000Z</time>
</trkpt>
<trkpt lat="45.9115210" lon="10.3070010">
	<ele>960.20</ele>
	<time>2025-07-29T12:04:43.000Z</time>
</trkpt>
<trkpt lat="45.9115380" lon="10.3070020">
	<ele>960.20</ele>
	<time>2025-07-29T12:04:44.000Z</time>
</trkpt>
<trkpt lat="45.9115510" lon="10.3069930">
	<ele>960.20</ele>
	<time>2025-07-29T12:04:45.000Z</time>
</trkpt>
<trkpt lat="45.9115620" lon="10.3069770">
	<ele>960.20</ele>
	<time>2025-07-29T12:04:46.000Z</time>
</trkpt>
<trkpt lat="45.9115690" lon="10.3069540">
	<ele>960.20</ele>
	<time>2025-07-29T12:04:47.000Z</time>
</trkpt>
<trkpt lat="45.9115820" lon="10.3069300">
	<ele>960.20</ele>
	<time>2025-07-29T12:04:48.000Z</time>
</trkpt>
<trkpt lat="45.9116080" lon="10.3069190">
	<ele>960.20</ele>
	<time>2025-07-29T12:04:49.000Z</time>
</trkpt>
<trkpt lat="45.9116290" lon="10.3068990">
	<ele>960.40</ele>
	<time>2025-07-29T12:04:50.000Z</time>
</trkpt>
<trkpt lat="45.9116460" lon="10.3068760">
	<ele>960.40</ele>
	<time>2025-07-29T12:04:51.000Z</time>
</trkpt>
<trkpt lat="45.9116640" lon="10.3068620">
	<ele>960.40</ele>
	<time>2025-07-29T12:04:52.000Z</time>
</trkpt>
<trkpt lat="45.9116760" lon="10.3068490">
	<ele>960.40</ele>
	<time>2025-07-29T12:04:53.000Z</time>
</trkpt>
<trkpt lat="45.9116830" lon="10.3068320">
	<ele>960.40</ele>
	<time>2025-07-29T12:04:54.000Z</time>
</trkpt>
<trkpt lat="45.9116810" lon="10.3068290">
	<ele>960.40</ele>
	<time>2025-07-29T12:04:55.000Z</time>
</trkpt>
<trkpt lat="45.9116820" lon="10.3068270">
	<ele>960.40</ele>
	<time>2025-07-29T12:04:56.000Z</time>
</trkpt>
<trkpt lat="45.9116890" lon="10.3068150">
	<ele>960.40</ele>
	<time>2025-07-29T12:04:57.000Z</time>
</trkpt>
<trkpt lat="45.9116880" lon="10.3067970">
	<ele>960.20</ele>
	<time>2025-07-29T12:04:58.000Z</time>
</trkpt>
<trkpt lat="45.9116890" lon="10.3067860">
	<ele>960.20</ele>
	<time>2025-07-29T12:04:59.000Z</time>
</trkpt>
<trkpt lat="45.9116890" lon="10.3067720">
	<ele>960.20</ele>
	<time>2025-07-29T12:05:00.000Z</time>
</trkpt>
<trkpt lat="45.9116870" lon="10.3067480">
	<ele>960.20</ele>
	<time>2025-07-29T12:05:01.000Z</time>
</trkpt>
<trkpt lat="45.9116770" lon="10.3067210">
	<ele>960.20</ele>
	<time>2025-07-29T12:05:02.000Z</time>
</trkpt>
<trkpt lat="45.9116770" lon="10.3066920">
	<ele>960.20</ele>
	<time>2025-07-29T12:05:03.000Z</time>
</trkpt>
<trkpt lat="45.9116760" lon="10.3066630">
	<ele>960.00</ele>
	<time>2025-07-29T12:05:04.000Z</time>
</trkpt>
<trkpt lat="45.9116740" lon="10.3066430">
	<ele>960.00</ele>
	<time>2025-07-29T12:05:05.000Z</time>
</trkpt>
<trkpt lat="45.9116720" lon="10.3066220">
	<ele>960.00</ele>
	<time>2025-07-29T12:05:06.000Z</time>
</trkpt>
<trkpt lat="45.9116690" lon="10.3066020">
	<ele>960.00</ele>
	<time>2025-07-29T12:05:07.000Z</time>
</trkpt>
<trkpt lat="45.9116770" lon="10.3065750">
	<ele>959.80</ele>
	<time>2025-07-29T12:05:08.000Z</time>
</trkpt>
<trkpt lat="45.9116860" lon="10.3065550">
	<ele>959.60</ele>
	<time>2025-07-29T12:05:09.000Z</time>
</trkpt>
<trkpt lat="45.9116990" lon="10.3065290">
	<ele>959.60</ele>
	<time>2025-07-29T12:05:10.000Z</time>
</trkpt>
<trkpt lat="45.9116990" lon="10.3065240">
	<ele>959.40</ele>
	<time>2025-07-29T12:05:11.000Z</time>
</trkpt>
<trkpt lat="45.9117130" lon="10.3065090">
	<ele>959.40</ele>
	<time>2025-07-29T12:05:12.000Z</time>
</trkpt>
<trkpt lat="45.9117220" lon="10.3064900">
	<ele>959.40</ele>
	<time>2025-07-29T12:05:13.000Z</time>
</trkpt>
<trkpt lat="45.9117200" lon="10.3064710">
	<ele>959.20</ele>
	<time>2025-07-29T12:05:14.000Z</time>
</trkpt>
<trkpt lat="45.9117270" lon="10.3064440">
	<ele>959.20</ele>
	<time>2025-07-29T12:05:15.000Z</time>
</trkpt>
<trkpt lat="45.9117240" lon="10.3064200">
	<ele>959.20</ele>
	<time>2025-07-29T12:05:16.000Z</time>
</trkpt>
<trkpt lat="45.9117360" lon="10.3064010">
	<ele>959.00</ele>
	<time>2025-07-29T12:05:17.000Z</time>
</trkpt>
<trkpt lat="45.9117430" lon="10.3063810">
	<ele>959.00</ele>
	<time>2025-07-29T12:05:18.000Z</time>
</trkpt>
<trkpt lat="45.9117700" lon="10.3063560">
	<ele>959.00</ele>
	<time>2025-07-29T12:05:19.000Z</time>
</trkpt>
<trkpt lat="45.9117890" lon="10.3063400">
	<ele>958.80</ele>
	<time>2025-07-29T12:05:20.000Z</time>
</trkpt>
<trkpt lat="45.9117980" lon="10.3063360">
	<ele>958.60</ele>
	<time>2025-07-29T12:05:21.000Z</time>
</trkpt>
<trkpt lat="45.9117980" lon="10.3063360">
	<ele>958.60</ele>
	<time>2025-07-29T12:05:22.000Z</time>
</trkpt>
<trkpt lat="45.9118000" lon="10.3063260">
	<ele>958.40</ele>
	<time>2025-07-29T12:05:23.000Z</time>
</trkpt>
<trkpt lat="45.9117980" lon="10.3063090">
	<ele>958.40</ele>
	<time>2025-07-29T12:05:24.000Z</time>
</trkpt>
<trkpt lat="45.9118010" lon="10.3063030">
	<ele>958.20</ele>
	<time>2025-07-29T12:05:25.000Z</time>
</trkpt>
<trkpt lat="45.9118030" lon="10.3062950">
	<ele>958.00</ele>
	<time>2025-07-29T12:05:26.000Z</time>
</trkpt>
<trkpt lat="45.9118080" lon="10.3062910">
	<ele>957.80</ele>
	<time>2025-07-29T12:05:27.000Z</time>
</trkpt>
<trkpt lat="45.9118160" lon="10.3062820">
	<ele>957.60</ele>
	<time>2025-07-29T12:05:28.000Z</time>
</trkpt>
<trkpt lat="45.9118320" lon="10.3062680">
	<ele>957.40</ele>
	<time>2025-07-29T12:05:29.000Z</time>
</trkpt>
<trkpt lat="45.9118370" lon="10.3062470">
	<ele>957.20</ele>
	<time>2025-07-29T12:05:30.000Z</time>
</trkpt>
<trkpt lat="45.9118350" lon="10.3062360">
	<ele>956.80</ele>
	<time>2025-07-29T12:05:31.000Z</time>
</trkpt>
<trkpt lat="45.9118340" lon="10.3062340">
	<ele>956.40</ele>
	<time>2025-07-29T12:05:32.000Z</time>
</trkpt>
<trkpt lat="45.9118390" lon="10.3062290">
	<ele>956.40</ele>
	<time>2025-07-29T12:05:33.000Z</time>
</trkpt>
<trkpt lat="45.9118500" lon="10.3062300">
	<ele>956.00</ele>
	<time>2025-07-29T12:05:34.000Z</time>
</trkpt>
<trkpt lat="45.9118530" lon="10.3062260">
	<ele>955.60</ele>
	<time>2025-07-29T12:05:35.000Z</time>
</trkpt>
<trkpt lat="45.9118510" lon="10.3062080">
	<ele>955.40</ele>
	<time>2025-07-29T12:05:36.000Z</time>
</trkpt>
<trkpt lat="45.9118550" lon="10.3061880">
	<ele>955.20</ele>
	<time>2025-07-29T12:05:37.000Z</time>
</trkpt>
<trkpt lat="45.9118630" lon="10.3061790">
	<ele>955.20</ele>
	<time>2025-07-29T12:05:38.000Z</time>
</trkpt>
<trkpt lat="45.9118740" lon="10.3061880">
	<ele>955.00</ele>
	<time>2025-07-29T12:05:39.000Z</time>
</trkpt>
<trkpt lat="45.9118780" lon="10.3061790">
	<ele>954.80</ele>
	<time>2025-07-29T12:05:40.000Z</time>
</trkpt>
<trkpt lat="45.9118910" lon="10.3061780">
	<ele>954.60</ele>
	<time>2025-07-29T12:05:41.000Z</time>
</trkpt>
<trkpt lat="45.9119110" lon="10.3061860">
	<ele>954.40</ele>
	<time>2025-07-29T12:05:42.000Z</time>
</trkpt>
<trkpt lat="45.9119280" lon="10.3061850">
	<ele>954.20</ele>
	<time>2025-07-29T12:05:43.000Z</time>
</trkpt>
<trkpt lat="45.9119440" lon="10.3061840">
	<ele>954.00</ele>
	<time>2025-07-29T12:05:44.000Z</time>
</trkpt>
<trkpt lat="45.9119550" lon="10.3061760">
	<ele>953.80</ele>
	<time>2025-07-29T12:05:45.000Z</time>
</trkpt>
<trkpt lat="45.9119610" lon="10.3061650">
	<ele>953.60</ele>
	<time>2025-07-29T12:05:46.000Z</time>
</trkpt>
<trkpt lat="45.9119650" lon="10.3061450">
	<ele>953.40</ele>
	<time>2025-07-29T12:05:47.000Z</time>
</trkpt>
<trkpt lat="45.9119580" lon="10.3061270">
	<ele>953.20</ele>
	<time>2025-07-29T12:05:48.000Z</time>
</trkpt>
<trkpt lat="45.9119600" lon="10.3061190">
	<ele>953.00</ele>
	<time>2025-07-29T12:05:49.000Z</time>
</trkpt>
<trkpt lat="45.9119640" lon="10.3061160">
	<ele>952.80</ele>
	<time>2025-07-29T12:05:50.000Z</time>
</trkpt>
<trkpt lat="45.9119740" lon="10.3061030">
	<ele>952.40</ele>
	<time>2025-07-29T12:05:51.000Z</time>
</trkpt>
<trkpt lat="45.9119840" lon="10.3060890">
	<ele>952.20</ele>
	<time>2025-07-29T12:05:52.000Z</time>
</trkpt>
<trkpt lat="45.9119930" lon="10.3060740">
	<ele>952.00</ele>
	<time>2025-07-29T12:05:53.000Z</time>
</trkpt>
<trkpt lat="45.9120010" lon="10.3060640">
	<ele>951.80</ele>
	<time>2025-07-29T12:05:54.000Z</time>
</trkpt>
<trkpt lat="45.9120070" lon="10.3060540">
	<ele>951.60</ele>
	<time>2025-07-29T12:05:55.000Z</time>
</trkpt>
<trkpt lat="45.9120180" lon="10.3060480">
	<ele>951.20</ele>
	<time>2025-07-29T12:05:56.000Z</time>
</trkpt>
<trkpt lat="45.9120220" lon="10.3060370">
	<ele>950.80</ele>
	<time>2025-07-29T12:05:57.000Z</time>
</trkpt>
<trkpt lat="45.9120280" lon="10.3060230">
	<ele>950.40</ele>
	<time>2025-07-29T12:05:58.000Z</time>
</trkpt>
<trkpt lat="45.9120340" lon="10.3060070">
	<ele>950.20</ele>
	<time>2025-07-29T12:05:59.000Z</time>
</trkpt>
<trkpt lat="45.9120440" lon="10.3059970">
	<ele>950.00</ele>
	<time>2025-07-29T12:06:00.000Z</time>
</trkpt>
<trkpt lat="45.9120540" lon="10.3059930">
	<ele>949.60</ele>
	<time>2025-07-29T12:06:01.000Z</time>
</trkpt>
<trkpt lat="45.9120640" lon="10.3059730">
	<ele>949.60</ele>
	<time>2025-07-29T12:06:02.000Z</time>
</trkpt>
<trkpt lat="45.9120730" lon="10.3059650">
	<ele>949.40</ele>
	<time>2025-07-29T12:06:03.000Z</time>
</trkpt>
<trkpt lat="45.9120800" lon="10.3059550">
	<ele>949.20</ele>
	<time>2025-07-29T12:06:04.000Z</time>
</trkpt>
<trkpt lat="45.9120940" lon="10.3059450">
	<ele>949.00</ele>
	<time>2025-07-29T12:06:05.000Z</time>
</trkpt>
<trkpt lat="45.9121050" lon="10.3059360">
	<ele>948.80</ele>
	<time>2025-07-29T12:06:06.000Z</time>
</trkpt>
<trkpt lat="45.9121200" lon="10.3059340">
	<ele>948.60</ele>
	<time>2025-07-29T12:06:07.000Z</time>
</trkpt>
<trkpt lat="45.9121390" lon="10.3059320">
	<ele>948.40</ele>
	<time>2025-07-29T12:06:08.000Z</time>
</trkpt>
<trkpt lat="45.9121550" lon="10.3059110">
	<ele>948.00</ele>
	<time>2025-07-29T12:06:09.000Z</time>
</trkpt>
<trkpt lat="45.9121660" lon="10.3059000">
	<ele>947.60</ele>
	<time>2025-07-29T12:06:10.000Z</time>
</trkpt>
<trkpt lat="45.9121740" lon="10.3058830">
	<ele>947.20</ele>
	<time>2025-07-29T12:06:11.000Z</time>
</trkpt>
<trkpt lat="45.9121890" lon="10.3058710">
	<ele>947.00</ele>
	<time>2025-07-29T12:06:12.000Z</time>
</trkpt>
<trkpt lat="45.9122020" lon="10.3058690">
	<ele>946.60</ele>
	<time>2025-07-29T12:06:13.000Z</time>
</trkpt>
<trkpt lat="45.9122110" lon="10.3058660">
	<ele>946.20</ele>
	<time>2025-07-29T12:06:14.000Z</time>
</trkpt>
<trkpt lat="45.9122190" lon="10.3058750">
	<ele>945.80</ele>
	<time>2025-07-29T12:06:15.000Z</time>
</trkpt>
<trkpt lat="45.9122170" lon="10.3058800">
	<ele>945.60</ele>
	<time>2025-07-29T12:06:16.000Z</time>
</trkpt>
<trkpt lat="45.9122190" lon="10.3058870">
	<ele>945.40</ele>
	<time>2025-07-29T12:06:17.000Z</time>
</trkpt>
<trkpt lat="45.9122270" lon="10.3058850">
	<ele>945.00</ele>
	<time>2025-07-29T12:06:18.000Z</time>
</trkpt>
<trkpt lat="45.9122290" lon="10.3058900">
	<ele>944.60</ele>
	<time>2025-07-29T12:06:19.000Z</time>
</trkpt>
<trkpt lat="45.9122310" lon="10.3058950">
	<ele>944.40</ele>
	<time>2025-07-29T12:06:20.000Z</time>
</trkpt>
<trkpt lat="45.9122380" lon="10.3058790">
	<ele>944.00</ele>
	<time>2025-07-29T12:06:21.000Z</time>
</trkpt>
<trkpt lat="45.9122420" lon="10.3058620">
	<ele>943.60</ele>
	<time>2025-07-29T12:06:22.000Z</time>
</trkpt>
<trkpt lat="45.9122440" lon="10.3058430">
	<ele>943.20</ele>
	<time>2025-07-29T12:06:23.000Z</time>
</trkpt>
<trkpt lat="45.9122570" lon="10.3058430">
	<ele>942.80</ele>
	<time>2025-07-29T12:06:24.000Z</time>
</trkpt>
<trkpt lat="45.9122700" lon="10.3058580">
	<ele>942.40</ele>
	<time>2025-07-29T12:06:25.000Z</time>
</trkpt>
<trkpt lat="45.9122930" lon="10.3058710">
	<ele>942.00</ele>
	<time>2025-07-29T12:06:26.000Z</time>
</trkpt>
<trkpt lat="45.9123110" lon="10.3058500">
	<ele>941.80</ele>
	<time>2025-07-29T12:06:27.000Z</time>
</trkpt>
<trkpt lat="45.9123290" lon="10.3058420">
	<ele>941.40</ele>
	<time>2025-07-29T12:06:28.000Z</time>
</trkpt>
<trkpt lat="45.9123400" lon="10.3058280">
	<ele>941.20</ele>
	<time>2025-07-29T12:06:29.000Z</time>
</trkpt>
<trkpt lat="45.9123500" lon="10.3058260">
	<ele>940.80</ele>
	<time>2025-07-29T12:06:30.000Z</time>
</trkpt>
<trkpt lat="45.9123610" lon="10.3058410">
	<ele>940.60</ele>
	<time>2025-07-29T12:06:31.000Z</time>
</trkpt>
<trkpt lat="45.9123680" lon="10.3058470">
	<ele>940.40</ele>
	<time>2025-07-29T12:06:32.000Z</time>
</trkpt>
<trkpt lat="45.9123710" lon="10.3058430">
	<ele>940.00</ele>
	<time>2025-07-29T12:06:33.000Z</time>
</trkpt>
<trkpt lat="45.9123730" lon="10.3058390">
	<ele>940.00</ele>
	<time>2025-07-29T12:06:34.000Z</time>
</trkpt>
<trkpt lat="45.9123770" lon="10.3058330">
	<ele>939.80</ele>
	<time>2025-07-29T12:06:35.000Z</time>
</trkpt>
<trkpt lat="45.9123770" lon="10.3058280">
	<ele>939.60</ele>
	<time>2025-07-29T12:06:36.000Z</time>
</trkpt>
<trkpt lat="45.9123810" lon="10.3058190">
	<ele>939.40</ele>
	<time>2025-07-29T12:06:37.000Z</time>
</trkpt>
<trkpt lat="45.9123890" lon="10.3058170">
	<ele>939.40</ele>
	<time>2025-07-29T12:06:38.000Z</time>
</trkpt>
<trkpt lat="45.9123960" lon="10.3058120">
	<ele>939.20</ele>
	<time>2025-07-29T12:06:39.000Z</time>
</trkpt>
<trkpt lat="45.9124040" lon="10.3058070">
	<ele>939.00</ele>
	<time>2025-07-29T12:06:40.000Z</time>
</trkpt>
<trkpt lat="45.9124170" lon="10.3058130">
	<ele>938.80</ele>
	<time>2025-07-29T12:06:41.000Z</time>
</trkpt>
<trkpt lat="45.9124310" lon="10.3058270">
	<ele>938.60</ele>
	<time>2025-07-29T12:06:42.000Z</time>
</trkpt>
<trkpt lat="45.9124460" lon="10.3058270">
	<ele>938.20</ele>
	<time>2025-07-29T12:06:43.000Z</time>
</trkpt>
<trkpt lat="45.9124600" lon="10.3058300">
	<ele>938.00</ele>
	<time>2025-07-29T12:06:44.000Z</time>
</trkpt>
<trkpt lat="45.9124770" lon="10.3058240">
	<ele>937.80</ele>
	<time>2025-07-29T12:06:45.000Z</time>
</trkpt>
<trkpt lat="45.9124920" lon="10.3058200">
	<ele>937.40</ele>
	<time>2025-07-29T12:06:46.000Z</time>
</trkpt>
<trkpt lat="45.9125060" lon="10.3058080">
	<ele>937.00</ele>
	<time>2025-07-29T12:06:47.000Z</time>
</trkpt>
<trkpt lat="45.9125200" lon="10.3057860">
	<ele>936.80</ele>
	<time>2025-07-29T12:06:48.000Z</time>
</trkpt>
<trkpt lat="45.9125320" lon="10.3057650">
	<ele>936.60</ele>
	<time>2025-07-29T12:06:49.000Z</time>
</trkpt>
<trkpt lat="45.9125480" lon="10.3057410">
	<ele>936.40</ele>
	<time>2025-07-29T12:06:50.000Z</time>
</trkpt>
<trkpt lat="45.9125630" lon="10.3057230">
	<ele>936.20</ele>
	<time>2025-07-29T12:06:51.000Z</time>
</trkpt>
<trkpt lat="45.9125780" lon="10.3057090">
	<ele>935.80</ele>
	<time>2025-07-29T12:06:52.000Z</time>
</trkpt>
<trkpt lat="45.9125950" lon="10.3056880">
	<ele>935.60</ele>
	<time>2025-07-29T12:06:53.000Z</time>
</trkpt>
<trkpt lat="45.9126210" lon="10.3056630">
	<ele>935.40</ele>
	<time>2025-07-29T12:06:54.000Z</time>
</trkpt>
<trkpt lat="45.9126340" lon="10.3056460">
	<ele>935.00</ele>
	<time>2025-07-29T12:06:55.000Z</time>
</trkpt>
<trkpt lat="45.9126430" lon="10.3056270">
	<ele>934.80</ele>
	<time>2025-07-29T12:06:56.000Z</time>
</trkpt>
<trkpt lat="45.9126560" lon="10.3056010">
	<ele>934.40</ele>
	<time>2025-07-29T12:06:57.000Z</time>
</trkpt>
<trkpt lat="45.9126660" lon="10.3055780">
	<ele>934.00</ele>
	<time>2025-07-29T12:06:58.000Z</time>
</trkpt>
<trkpt lat="45.9126780" lon="10.3055560">
	<ele>933.80</ele>
	<time>2025-07-29T12:06:59.000Z</time>
</trkpt>
<trkpt lat="45.9126940" lon="10.3055380">
	<ele>933.60</ele>
	<time>2025-07-29T12:07:00.000Z</time>
</trkpt>
<trkpt lat="45.9126890" lon="10.3055020">
	<ele>933.40</ele>
	<time>2025-07-29T12:07:01.000Z</time>
</trkpt>
<trkpt lat="45.9126870" lon="10.3054820">
	<ele>933.20</ele>
	<time>2025-07-29T12:07:02.000Z</time>
</trkpt>
<trkpt lat="45.9126800" lon="10.3054680">
	<ele>933.20</ele>
	<time>2025-07-29T12:07:03.000Z</time>
</trkpt>
<trkpt lat="45.9126630" lon="10.3054590">
	<ele>933.00</ele>
	<time>2025-07-29T12:07:04.000Z</time>
</trkpt>
<trkpt lat="45.9126550" lon="10.3054530">
	<ele>933.00</ele>
	<time>2025-07-29T12:07:05.000Z</time>
</trkpt>
<trkpt lat="45.9126620" lon="10.3054610">
	<ele>933.00</ele>
	<time>2025-07-29T12:07:06.000Z</time>
</trkpt>
<trkpt lat="45.9126600" lon="10.3054660">
	<ele>933.00</ele>
	<time>2025-07-29T12:07:07.000Z</time>
</trkpt>
<trkpt lat="45.9126680" lon="10.3054710">
	<ele>932.80</ele>
	<time>2025-07-29T12:07:08.000Z</time>
</trkpt>
<trkpt lat="45.9126740" lon="10.3054850">
	<ele>932.80</ele>
	<time>2025-07-29T12:07:09.000Z</time>
</trkpt>
<trkpt lat="45.9126800" lon="10.3054860">
	<ele>932.60</ele>
	<time>2025-07-29T12:07:10.000Z</time>
</trkpt>
<trkpt lat="45.9126770" lon="10.3054790">
	<ele>932.40</ele>
	<time>2025-07-29T12:07:11.000Z</time>
</trkpt>
<trkpt lat="45.9126860" lon="10.3054700">
	<ele>932.40</ele>
	<time>2025-07-29T12:07:12.000Z</time>
</trkpt>
<trkpt lat="45.9127000" lon="10.3054570">
	<ele>932.20</ele>
	<time>2025-07-29T12:07:13.000Z</time>
</trkpt>
<trkpt lat="45.9127080" lon="10.3054520">
	<ele>932.20</ele>
	<time>2025-07-29T12:07:14.000Z</time>
</trkpt>
<trkpt lat="45.9127140" lon="10.3054450">
	<ele>932.20</ele>
	<time>2025-07-29T12:07:15.000Z</time>
</trkpt>
<trkpt lat="45.9127170" lon="10.3054340">
	<ele>931.80</ele>
	<time>2025-07-29T12:07:16.000Z</time>
</trkpt>
<trkpt lat="45.9127210" lon="10.3054220">
	<ele>931.60</ele>
	<time>2025-07-29T12:07:17.000Z</time>
</trkpt>
<trkpt lat="45.9127330" lon="10.3054130">
	<ele>931.40</ele>
	<time>2025-07-29T12:07:18.000Z</time>
</trkpt>
<trkpt lat="45.9127410" lon="10.3054040">
	<ele>931.20</ele>
	<time>2025-07-29T12:07:19.000Z</time>
</trkpt>
<trkpt lat="45.9127520" lon="10.3053870">
	<ele>931.20</ele>
	<time>2025-07-29T12:07:20.000Z</time>
</trkpt>
<trkpt lat="45.9127700" lon="10.3053630">
	<ele>931.00</ele>
	<time>2025-07-29T12:07:21.000Z</time>
</trkpt>
<trkpt lat="45.9127860" lon="10.3053440">
	<ele>930.80</ele>
	<time>2025-07-29T12:07:22.000Z</time>
</trkpt>
<trkpt lat="45.9127970" lon="10.3053360">
	<ele>930.40</ele>
	<time>2025-07-29T12:07:23.000Z</time>
</trkpt>
<trkpt lat="45.9128000" lon="10.3053310">
	<ele>930.20</ele>
	<time>2025-07-29T12:07:24.000Z</time>
</trkpt>
<trkpt lat="45.9128020" lon="10.3053380">
	<ele>930.00</ele>
	<time>2025-07-29T12:07:25.000Z</time>
</trkpt>
<trkpt lat="45.9128140" lon="10.3053380">
	<ele>929.80</ele>
	<time>2025-07-29T12:07:26.000Z</time>
</trkpt>
<trkpt lat="45.9128230" lon="10.3053440">
	<ele>929.60</ele>
	<time>2025-07-29T12:07:27.000Z</time>
</trkpt>
<trkpt lat="45.9128420" lon="10.3053560">
	<ele>929.20</ele>
	<time>2025-07-29T12:07:28.000Z</time>
</trkpt>
<trkpt lat="45.9128580" lon="10.3053620">
	<ele>929.20</ele>
	<time>2025-07-29T12:07:29.000Z</time>
</trkpt>
<trkpt lat="45.9128730" lon="10.3053730">
	<ele>929.00</ele>
	<time>2025-07-29T12:07:30.000Z</time>
</trkpt>
<trkpt lat="45.9128850" lon="10.3053810">
	<ele>928.80</ele>
	<time>2025-07-29T12:07:31.000Z</time>
</trkpt>
<trkpt lat="45.9129070" lon="10.3053820">
	<ele>928.80</ele>
	<time>2025-07-29T12:07:32.000Z</time>
</trkpt>
<trkpt lat="45.9129310" lon="10.3053740">
	<ele>928.60</ele>
	<time>2025-07-29T12:07:33.000Z</time>
</trkpt>
<trkpt lat="45.9129340" lon="10.3053740">
	<ele>928.40</ele>
	<time>2025-07-29T12:07:34.000Z</time>
</trkpt>
<trkpt lat="45.9129350" lon="10.3053550">
	<ele>928.20</ele>
	<time>2025-07-29T12:07:35.000Z</time>
</trkpt>
<trkpt lat="45.9129330" lon="10.3053300">
	<ele>928.00</ele>
	<time>2025-07-29T12:07:36.000Z</time>
</trkpt>
<trkpt lat="45.9129260" lon="10.3053080">
	<ele>927.80</ele>
	<time>2025-07-29T12:07:37.000Z</time>
</trkpt>
<trkpt lat="45.9129290" lon="10.3053000">
	<ele>927.60</ele>
	<time>2025-07-29T12:07:38.000Z</time>
</trkpt>
<trkpt lat="45.9129280" lon="10.3052760">
	<ele>927.60</ele>
	<time>2025-07-29T12:07:39.000Z</time>
</trkpt>
<trkpt lat="45.9129360" lon="10.3052580">
	<ele>927.20</ele>
	<time>2025-07-29T12:07:40.000Z</time>
</trkpt>
<trkpt lat="45.9129390" lon="10.3052350">
	<ele>927.00</ele>
	<time>2025-07-29T12:07:41.000Z</time>
</trkpt>
<trkpt lat="45.9129360" lon="10.3052340">
	<ele>927.00</ele>
	<time>2025-07-29T12:07:42.000Z</time>
</trkpt>
<trkpt lat="45.9129550" lon="10.3052180">
	<ele>926.80</ele>
	<time>2025-07-29T12:07:43.000Z</time>
</trkpt>
<trkpt lat="45.9129690" lon="10.3052000">
	<ele>926.60</ele>
	<time>2025-07-29T12:07:44.000Z</time>
</trkpt>
<trkpt lat="45.9129790" lon="10.3051840">
	<ele>926.40</ele>
	<time>2025-07-29T12:07:45.000Z</time>
</trkpt>
<trkpt lat="45.9129820" lon="10.3051690">
	<ele>926.20</ele>
	<time>2025-07-29T12:07:46.000Z</time>
</trkpt>
<trkpt lat="45.9129850" lon="10.3051600">
	<ele>925.80</ele>
	<time>2025-07-29T12:07:47.000Z</time>
</trkpt>
<trkpt lat="45.9129920" lon="10.3051580">
	<ele>925.40</ele>
	<time>2025-07-29T12:07:48.000Z</time>
</trkpt>
<trkpt lat="45.9130000" lon="10.3051500">
	<ele>925.00</ele>
	<time>2025-07-29T12:07:49.000Z</time>
</trkpt>
<trkpt lat="45.9130210" lon="10.3051420">
	<ele>924.60</ele>
	<time>2025-07-29T12:07:50.000Z</time>
</trkpt>
<trkpt lat="45.9130380" lon="10.3051340">
	<ele>924.40</ele>
	<time>2025-07-29T12:07:51.000Z</time>
</trkpt>
<trkpt lat="45.9130470" lon="10.3051240">
	<ele>923.80</ele>
	<time>2025-07-29T12:07:52.000Z</time>
</trkpt>
<trkpt lat="45.9130610" lon="10.3051140">
	<ele>923.60</ele>
	<time>2025-07-29T12:07:53.000Z</time>
</trkpt>
<trkpt lat="45.9130660" lon="10.3051000">
	<ele>923.40</ele>
	<time>2025-07-29T12:07:54.000Z</time>
</trkpt>
<trkpt lat="45.9130810" lon="10.3050790">
	<ele>923.00</ele>
	<time>2025-07-29T12:07:55.000Z</time>
</trkpt>
<trkpt lat="45.9131000" lon="10.3050590">
	<ele>922.60</ele>
	<time>2025-07-29T12:07:56.000Z</time>
</trkpt>
<trkpt lat="45.9131220" lon="10.3050330">
	<ele>922.40</ele>
	<time>2025-07-29T12:07:57.000Z</time>
</trkpt>
<trkpt lat="45.9131470" lon="10.3050000">
	<ele>922.00</ele>
	<time>2025-07-29T12:07:58.000Z</time>
</trkpt>
<trkpt lat="45.9131640" lon="10.3049870">
	<ele>921.60</ele>
	<time>2025-07-29T12:07:59.000Z</time>
</trkpt>
<trkpt lat="45.9131730" lon="10.3049800">
	<ele>921.00</ele>
	<time>2025-07-29T12:08:00.000Z</time>
</trkpt>
<trkpt lat="45.9131850" lon="10.3049810">
	<ele>920.60</ele>
	<time>2025-07-29T12:08:01.000Z</time>
</trkpt>
<trkpt lat="45.9131820" lon="10.3049750">
	<ele>920.40</ele>
	<time>2025-07-29T12:08:02.000Z</time>
</trkpt>
<trkpt lat="45.9131790" lon="10.3049700">
	<ele>920.00</ele>
	<time>2025-07-29T12:08:03.000Z</time>
</trkpt>
<trkpt lat="45.9131970" lon="10.3049730">
	<ele>919.60</ele>
	<time>2025-07-29T12:08:04.000Z</time>
</trkpt>
<trkpt lat="45.9132040" lon="10.3049680">
	<ele>919.20</ele>
	<time>2025-07-29T12:08:05.000Z</time>
</trkpt>
<trkpt lat="45.9132100" lon="10.3049700">
	<ele>919.00</ele>
	<time>2025-07-29T12:08:06.000Z</time>
</trkpt>
<trkpt lat="45.9132150" lon="10.3049680">
	<ele>918.60</ele>
	<time>2025-07-29T12:08:07.000Z</time>
</trkpt>
<trkpt lat="45.9132250" lon="10.3049670">
	<ele>918.20</ele>
	<time>2025-07-29T12:08:08.000Z</time>
</trkpt>
<trkpt lat="45.9132470" lon="10.3049740">
	<ele>917.80</ele>
	<time>2025-07-29T12:08:09.000Z</time>
</trkpt>
<trkpt lat="45.9132460" lon="10.3049660">
	<ele>917.40</ele>
	<time>2025-07-29T12:08:10.000Z</time>
</trkpt>
<trkpt lat="45.9132310" lon="10.3049720">
	<ele>917.00</ele>
	<time>2025-07-29T12:08:11.000Z</time>
</trkpt>
<trkpt lat="45.9132200" lon="10.3049700">
	<ele>916.60</ele>
	<time>2025-07-29T12:08:12.000Z</time>
</trkpt>
<trkpt lat="45.9132030" lon="10.3049730">
	<ele>916.40</ele>
	<time>2025-07-29T12:08:13.000Z</time>
</trkpt>
<trkpt lat="45.9131880" lon="10.3050000">
	<ele>916.00</ele>
	<time>2025-07-29T12:08:14.000Z</time>
</trkpt>
<trkpt lat="45.9131760" lon="10.3050250">
	<ele>915.60</ele>
	<time>2025-07-29T12:08:15.000Z</time>
</trkpt>
<trkpt lat="45.9131590" lon="10.3050510">
	<ele>915.20</ele>
	<time>2025-07-29T12:08:16.000Z</time>
</trkpt>
<trkpt lat="45.9131620" lon="10.3050580">
	<ele>914.80</ele>
	<time>2025-07-29T12:08:17.000Z</time>
</trkpt>
<trkpt lat="45.9131670" lon="10.3050640">
	<ele>914.60</ele>
	<time>2025-07-29T12:08:18.000Z</time>
</trkpt>
<trkpt lat="45.9131880" lon="10.3050940">
	<ele>914.20</ele>
	<time>2025-07-29T12:08:19.000Z</time>
</trkpt>
<trkpt lat="45.9131990" lon="10.3051060">
	<ele>914.00</ele>
	<time>2025-07-29T12:08:20.000Z</time>
</trkpt>
<trkpt lat="45.9132090" lon="10.3051120">
	<ele>913.60</ele>
	<time>2025-07-29T12:08:21.000Z</time>
</trkpt>
<trkpt lat="45.9132170" lon="10.3051110">
	<ele>913.20</ele>
	<time>2025-07-29T12:08:22.000Z</time>
</trkpt>
<trkpt lat="45.9132210" lon="10.3051230">
	<ele>912.80</ele>
	<time>2025-07-29T12:08:23.000Z</time>
</trkpt>
<trkpt lat="45.9132270" lon="10.3051220">
	<ele>912.40</ele>
	<time>2025-07-29T12:08:24.000Z</time>
</trkpt>
<trkpt lat="45.9132380" lon="10.3051170">
	<ele>912.20</ele>
	<time>2025-07-29T12:08:25.000Z</time>
</trkpt>
<trkpt lat="45.9132490" lon="10.3051150">
	<ele>911.80</ele>
	<time>2025-07-29T12:08:26.000Z</time>
</trkpt>
<trkpt lat="45.9132570" lon="10.3051160">
	<ele>911.60</ele>
	<time>2025-07-29T12:08:27.000Z</time>
</trkpt>
<trkpt lat="45.9132680" lon="10.3051090">
	<ele>911.00</ele>
	<time>2025-07-29T12:08:28.000Z</time>
</trkpt>
<trkpt lat="45.9132770" lon="10.3051090">
	<ele>910.80</ele>
	<time>2025-07-29T12:08:29.000Z</time>
</trkpt>
<trkpt lat="45.9132880" lon="10.3051110">
	<ele>910.40</ele>
	<time>2025-07-29T12:08:30.000Z</time>
</trkpt>
<trkpt lat="45.9133000" lon="10.3051080">
	<ele>910.00</ele>
	<time>2025-07-29T12:08:31.000Z</time>
</trkpt>
<trkpt lat="45.9133130" lon="10.3050990">
	<ele>909.80</ele>
	<time>2025-07-29T12:08:32.000Z</time>
</trkpt>
<trkpt lat="45.9133150" lon="10.3050970">
	<ele>909.60</ele>
	<time>2025-07-29T12:08:33.000Z</time>
</trkpt>
<trkpt lat="45.9133310" lon="10.3050870">
	<ele>909.20</ele>
	<time>2025-07-29T12:08:34.000Z</time>
</trkpt>
<trkpt lat="45.9133570" lon="10.3050670">
	<ele>908.80</ele>
	<time>2025-07-29T12:08:35.000Z</time>
</trkpt>
<trkpt lat="45.9133590" lon="10.3050710">
	<ele>908.60</ele>
	<time>2025-07-29T12:08:36.000Z</time>
</trkpt>
<trkpt lat="45.9133610" lon="10.3050730">
	<ele>908.20</ele>
	<time>2025-07-29T12:08:37.000Z</time>
</trkpt>
<trkpt lat="45.9133610" lon="10.3050760">
	<ele>908.00</ele>
	<time>2025-07-29T12:08:38.000Z</time>
</trkpt>
<trkpt lat="45.9133720" lon="10.3050690">
	<ele>907.60</ele>
	<time>2025-07-29T12:08:39.000Z</time>
</trkpt>
<trkpt lat="45.9133830" lon="10.3050710">
	<ele>907.40</ele>
	<time>2025-07-29T12:08:40.000Z</time>
</trkpt>
<trkpt lat="45.9133940" lon="10.3050710">
	<ele>907.00</ele>
	<time>2025-07-29T12:08:41.000Z</time>
</trkpt>
<trkpt lat="45.9134100" lon="10.3050680">
	<ele>906.60</ele>
	<time>2025-07-29T12:08:42.000Z</time>
</trkpt>
<trkpt lat="45.9134260" lon="10.3050670">
	<ele>906.20</ele>
	<time>2025-07-29T12:08:43.000Z</time>
</trkpt>
<trkpt lat="45.9134400" lon="10.3050720">
	<ele>905.80</ele>
	<time>2025-07-29T12:08:44.000Z</time>
</trkpt>
<trkpt lat="45.9134540" lon="10.3050760">
	<ele>905.60</ele>
	<time>2025-07-29T12:08:45.000Z</time>
</trkpt>
<trkpt lat="45.9134680" lon="10.3050780">
	<ele>905.20</ele>
	<time>2025-07-29T12:08:46.000Z</time>
</trkpt>
<trkpt lat="45.9134830" lon="10.3050780">
	<ele>905.00</ele>
	<time>2025-07-29T12:08:47.000Z</time>
</trkpt>
<trkpt lat="45.9134960" lon="10.3050770">
	<ele>904.40</ele>
	<time>2025-07-29T12:08:48.000Z</time>
</trkpt>
<trkpt lat="45.9135120" lon="10.3050790">
	<ele>904.00</ele>
	<time>2025-07-29T12:08:49.000Z</time>
</trkpt>
<trkpt lat="45.9135340" lon="10.3050850">
	<ele>903.60</ele>
	<time>2025-07-29T12:08:50.000Z</time>
</trkpt>
<trkpt lat="45.9135610" lon="10.3050860">
	<ele>903.20</ele>
	<time>2025-07-29T12:08:51.000Z</time>
</trkpt>
<trkpt lat="45.9135830" lon="10.3050870">
	<ele>902.80</ele>
	<time>2025-07-29T12:08:52.000Z</time>
</trkpt>
<trkpt lat="45.9136060" lon="10.3050810">
	<ele>902.40</ele>
	<time>2025-07-29T12:08:53.000Z</time>
</trkpt>
<trkpt lat="45.9136250" lon="10.3050690">
	<ele>902.20</ele>
	<time>2025-07-29T12:08:54.000Z</time>
</trkpt>
<trkpt lat="45.9136450" lon="10.3050750">
	<ele>901.80</ele>
	<time>2025-07-29T12:08:55.000Z</time>
</trkpt>
<trkpt lat="45.9136660" lon="10.3050800">
	<ele>901.60</ele>
	<time>2025-07-29T12:08:56.000Z</time>
</trkpt>
<trkpt lat="45.9136820" lon="10.3050830">
	<ele>901.20</ele>
	<time>2025-07-29T12:08:57.000Z</time>
</trkpt>
<trkpt lat="45.9136960" lon="10.3050900">
	<ele>900.80</ele>
	<time>2025-07-29T12:08:58.000Z</time>
</trkpt>
<trkpt lat="45.9137050" lon="10.3050990">
	<ele>900.40</ele>
	<time>2025-07-29T12:08:59.000Z</time>
</trkpt>
<trkpt lat="45.9137290" lon="10.3051200">
	<ele>900.00</ele>
	<time>2025-07-29T12:09:00.000Z</time>
</trkpt>
<trkpt lat="45.9137510" lon="10.3051300">
	<ele>899.60</ele>
	<time>2025-07-29T12:09:01.000Z</time>
</trkpt>
<trkpt lat="45.9137720" lon="10.3051400">
	<ele>899.20</ele>
	<time>2025-07-29T12:09:02.000Z</time>
</trkpt>
<trkpt lat="45.9137920" lon="10.3051480">
	<ele>898.80</ele>
	<time>2025-07-29T12:09:03.000Z</time>
</trkpt>
<trkpt lat="45.9138000" lon="10.3051490">
	<ele>898.60</ele>
	<time>2025-07-29T12:09:04.000Z</time>
</trkpt>
<trkpt lat="45.9138160" lon="10.3051410">
	<ele>898.20</ele>
	<time>2025-07-29T12:09:05.000Z</time>
</trkpt>
<trkpt lat="45.9138330" lon="10.3051300">
	<ele>897.80</ele>
	<time>2025-07-29T12:09:06.000Z</time>
</trkpt>
<trkpt lat="45.9138460" lon="10.3051180">
	<ele>897.60</ele>
	<time>2025-07-29T12:09:07.000Z</time>
</trkpt>
<trkpt lat="45.9138610" lon="10.3051240">
	<ele>897.20</ele>
	<time>2025-07-29T12:09:08.000Z</time>
</trkpt>
<trkpt lat="45.9138810" lon="10.3051320">
	<ele>897.00</ele>
	<time>2025-07-29T12:09:09.000Z</time>
</trkpt>
<trkpt lat="45.9139080" lon="10.3051350">
	<ele>896.60</ele>
	<time>2025-07-29T12:09:10.000Z</time>
</trkpt>
<trkpt lat="45.9139250" lon="10.3051430">
	<ele>896.40</ele>
	<time>2025-07-29T12:09:11.000Z</time>
</trkpt>
<trkpt lat="45.9139430" lon="10.3051450">
	<ele>896.20</ele>
	<time>2025-07-29T12:09:12.000Z</time>
</trkpt>
<trkpt lat="45.9139600" lon="10.3051500">
	<ele>895.80</ele>
	<time>2025-07-29T12:09:13.000Z</time>
</trkpt>
<trkpt lat="45.9139780" lon="10.3051500">
	<ele>895.40</ele>
	<time>2025-07-29T12:09:14.000Z</time>
</trkpt>
<trkpt lat="45.9139880" lon="10.3051520">
	<ele>895.20</ele>
	<time>2025-07-29T12:09:15.000Z</time>
</trkpt>
<trkpt lat="45.9140060" lon="10.3051460">
	<ele>895.00</ele>
	<time>2025-07-29T12:09:16.000Z</time>
</trkpt>
<trkpt lat="45.9140160" lon="10.3051460">
	<ele>894.60</ele>
	<time>2025-07-29T12:09:17.000Z</time>
</trkpt>
<trkpt lat="45.9140380" lon="10.3051470">
	<ele>894.40</ele>
	<time>2025-07-29T12:09:18.000Z</time>
</trkpt>
<trkpt lat="45.9140510" lon="10.3051430">
	<ele>894.20</ele>
	<time>2025-07-29T12:09:19.000Z</time>
</trkpt>
<trkpt lat="45.9140690" lon="10.3051430">
	<ele>893.80</ele>
	<time>2025-07-29T12:09:20.000Z</time>
</trkpt>
<trkpt lat="45.9140830" lon="10.3051380">
	<ele>893.40</ele>
	<time>2025-07-29T12:09:21.000Z</time>
</trkpt>
<trkpt lat="45.9140970" lon="10.3051320">
	<ele>893.20</ele>
	<time>2025-07-29T12:09:22.000Z</time>
</trkpt>
<trkpt lat="45.9141120" lon="10.3051230">
	<ele>892.80</ele>
	<time>2025-07-29T12:09:23.000Z</time>
</trkpt>
<trkpt lat="45.9141230" lon="10.3051150">
	<ele>892.60</ele>
	<time>2025-07-29T12:09:24.000Z</time>
</trkpt>
<trkpt lat="45.9141330" lon="10.3051120">
	<ele>892.20</ele>
	<time>2025-07-29T12:09:25.000Z</time>
</trkpt>
<trkpt lat="45.9141400" lon="10.3051050">
	<ele>891.80</ele>
	<time>2025-07-29T12:09:26.000Z</time>
</trkpt>
<trkpt lat="45.9141520" lon="10.3050900">
	<ele>891.60</ele>
	<time>2025-07-29T12:09:27.000Z</time>
</trkpt>
<trkpt lat="45.9141680" lon="10.3050820">
	<ele>891.40</ele>
	<time>2025-07-29T12:09:28.000Z</time>
</trkpt>
<trkpt lat="45.9141820" lon="10.3050750">
	<ele>891.40</ele>
	<time>2025-07-29T12:09:29.000Z</time>
</trkpt>
<trkpt lat="45.9141900" lon="10.3050700">
	<ele>891.20</ele>
	<time>2025-07-29T12:09:30.000Z</time>
</trkpt>
<trkpt lat="45.9141980" lon="10.3050740">
	<ele>891.00</ele>
	<time>2025-07-29T12:09:31.000Z</time>
</trkpt>
<trkpt lat="45.9142090" lon="10.3050720">
	<ele>890.80</ele>
	<time>2025-07-29T12:09:32.000Z</time>
</trkpt>
<trkpt lat="45.9142210" lon="10.3050580">
	<ele>890.60</ele>
	<time>2025-07-29T12:09:33.000Z</time>
</trkpt>
<trkpt lat="45.9142340" lon="10.3050410">
	<ele>890.20</ele>
	<time>2025-07-29T12:09:34.000Z</time>
</trkpt>
<trkpt lat="45.9142440" lon="10.3050250">
	<ele>890.00</ele>
	<time>2025-07-29T12:09:35.000Z</time>
</trkpt>
<trkpt lat="45.9142540" lon="10.3050160">
	<ele>889.60</ele>
	<time>2025-07-29T12:09:36.000Z</time>
</trkpt>
<trkpt lat="45.9142630" lon="10.3050140">
	<ele>889.40</ele>
	<time>2025-07-29T12:09:37.000Z</time>
</trkpt>
<trkpt lat="45.9142740" lon="10.3050130">
	<ele>889.20</ele>
	<time>2025-07-29T12:09:38.000Z</time>
</trkpt>
<trkpt lat="45.9142950" lon="10.3050000">
	<ele>889.00</ele>
	<time>2025-07-29T12:09:39.000Z</time>
</trkpt>
<trkpt lat="45.9143190" lon="10.3049810">
	<ele>888.80</ele>
	<time>2025-07-29T12:09:40.000Z</time>
</trkpt>
<trkpt lat="45.9143330" lon="10.3049700">
	<ele>888.60</ele>
	<time>2025-07-29T12:09:41.000Z</time>
</trkpt>
<trkpt lat="45.9143390" lon="10.3049560">
	<ele>888.20</ele>
	<time>2025-07-29T12:09:42.000Z</time>
</trkpt>
<trkpt lat="45.9143430" lon="10.3049520">
	<ele>888.00</ele>
	<time>2025-07-29T12:09:43.000Z</time>
</trkpt>
<trkpt lat="45.9143570" lon="10.3049450">
	<ele>887.80</ele>
	<time>2025-07-29T12:09:44.000Z</time>
</trkpt>
<trkpt lat="45.9143750" lon="10.3049400">
	<ele>887.60</ele>
	<time>2025-07-29T12:09:45.000Z</time>
</trkpt>
<trkpt lat="45.9143880" lon="10.3049370">
	<ele>887.40</ele>
	<time>2025-07-29T12:09:46.000Z</time>
</trkpt>
<trkpt lat="45.9144030" lon="10.3049320">
	<ele>887.00</ele>
	<time>2025-07-29T12:09:47.000Z</time>
</trkpt>
<trkpt lat="45.9144180" lon="10.3049290">
	<ele>886.60</ele>
	<time>2025-07-29T12:09:48.000Z</time>
</trkpt>
<trkpt lat="45.9144260" lon="10.3049240">
	<ele>886.20</ele>
	<time>2025-07-29T12:09:49.000Z</time>
</trkpt>
<trkpt lat="45.9144340" lon="10.3049230">
	<ele>885.80</ele>
	<time>2025-07-29T12:09:50.000Z</time>
</trkpt>
<trkpt lat="45.9144400" lon="10.3049220">
	<ele>885.60</ele>
	<time>2025-07-29T12:09:51.000Z</time>
</trkpt>
<trkpt lat="45.9144470" lon="10.3049200">
	<ele>885.00</ele>
	<time>2025-07-29T12:09:52.000Z</time>
</trkpt>
<trkpt lat="45.9144560" lon="10.3049200">
	<ele>884.60</ele>
	<time>2025-07-29T12:09:53.000Z</time>
</trkpt>
<trkpt lat="45.9144670" lon="10.3049220">
	<ele>884.40</ele>
	<time>2025-07-29T12:09:54.000Z</time>
</trkpt>
<trkpt lat="45.9144790" lon="10.3049230">
	<ele>883.80</ele>
	<time>2025-07-29T12:09:55.000Z</time>
</trkpt>
<trkpt lat="45.9144900" lon="10.3049210">
	<ele>883.60</ele>
	<time>2025-07-29T12:09:56.000Z</time>
</trkpt>
<trkpt lat="45.9145040" lon="10.3049180">
	<ele>883.20</ele>
	<time>2025-07-29T12:09:57.000Z</time>
</trkpt>
<trkpt lat="45.9145180" lon="10.3049160">
	<ele>882.80</ele>
	<time>2025-07-29T12:09:58.000Z</time>
</trkpt>
<trkpt lat="45.9145330" lon="10.3049140">
	<ele>882.80</ele>
	<time>2025-07-29T12:09:59.000Z</time>
</trkpt>
<trkpt lat="45.9145440" lon="10.3049180">
	<ele>882.20</ele>
	<time>2025-07-29T12:10:00.000Z</time>
</trkpt>
<trkpt lat="45.9145580" lon="10.3049150">
	<ele>882.00</ele>
	<time>2025-07-29T12:10:01.000Z</time>
</trkpt>
<trkpt lat="45.9145700" lon="10.3049130">
	<ele>881.60</ele>
	<time>2025-07-29T12:10:02.000Z</time>
</trkpt>
<trkpt lat="45.9145830" lon="10.3049060">
	<ele>881.20</ele>
	<time>2025-07-29T12:10:03.000Z</time>
</trkpt>
<trkpt lat="45.9145910" lon="10.3049060">
	<ele>880.80</ele>
	<time>2025-07-29T12:10:04.000Z</time>
</trkpt>
<trkpt lat="45.9146000" lon="10.3049090">
	<ele>880.60</ele>
	<time>2025-07-29T12:10:05.000Z</time>
</trkpt>
<trkpt lat="45.9146090" lon="10.3049220">
	<ele>880.20</ele>
	<time>2025-07-29T12:10:06.000Z</time>
</trkpt>
<trkpt lat="45.9146290" lon="10.3049180">
	<ele>880.00</ele>
	<time>2025-07-29T12:10:07.000Z</time>
</trkpt>
<trkpt lat="45.9146530" lon="10.3049090">
	<ele>879.60</ele>
	<time>2025-07-29T12:10:08.000Z</time>
</trkpt>
<trkpt lat="45.9146680" lon="10.3049010">
	<ele>879.20</ele>
	<time>2025-07-29T12:10:09.000Z</time>
</trkpt>
<trkpt lat="45.9146840" lon="10.3048880">
	<ele>879.00</ele>
	<time>2025-07-29T12:10:10.000Z</time>
</trkpt>
<trkpt lat="45.9146890" lon="10.3048740">
	<ele>878.60</ele>
	<time>2025-07-29T12:10:11.000Z</time>
</trkpt>
<trkpt lat="45.9146960" lon="10.3048680">
	<ele>878.20</ele>
	<time>2025-07-29T12:10:12.000Z</time>
</trkpt>
<trkpt lat="45.9147080" lon="10.3048660">
	<ele>878.00</ele>
	<time>2025-07-29T12:10:13.000Z</time>
</trkpt>
<trkpt lat="45.9147150" lon="10.3048600">
	<ele>877.80</ele>
	<time>2025-07-29T12:10:14.000Z</time>
</trkpt>
<trkpt lat="45.9147300" lon="10.3048490">
	<ele>877.80</ele>
	<time>2025-07-29T12:10:15.000Z</time>
</trkpt>
<trkpt lat="45.9147400" lon="10.3048450">
	<ele>877.40</ele>
	<time>2025-07-29T12:10:16.000Z</time>
</trkpt>
<trkpt lat="45.9147600" lon="10.3048210">
	<ele>877.20</ele>
	<time>2025-07-29T12:10:17.000Z</time>
</trkpt>
<trkpt lat="45.9147750" lon="10.3048080">
	<ele>877.00</ele>
	<time>2025-07-29T12:10:18.000Z</time>
</trkpt>
<trkpt lat="45.9147820" lon="10.3048000">
	<ele>876.60</ele>
	<time>2025-07-29T12:10:19.000Z</time>
</trkpt>
<trkpt lat="45.9147960" lon="10.3047890">
	<ele>876.20</ele>
	<time>2025-07-29T12:10:20.000Z</time>
</trkpt>
<trkpt lat="45.9148190" lon="10.3047840">
	<ele>875.80</ele>
	<time>2025-07-29T12:10:21.000Z</time>
</trkpt>
<trkpt lat="45.9148340" lon="10.3047810">
	<ele>875.40</ele>
	<time>2025-07-29T12:10:22.000Z</time>
</trkpt>
<trkpt lat="45.9148510" lon="10.3047750">
	<ele>875.20</ele>
	<time>2025-07-29T12:10:23.000Z</time>
</trkpt>
<trkpt lat="45.9148660" lon="10.3047680">
	<ele>875.00</ele>
	<time>2025-07-29T12:10:24.000Z</time>
</trkpt>
<trkpt lat="45.9148820" lon="10.3047570">
	<ele>874.80</ele>
	<time>2025-07-29T12:10:25.000Z</time>
</trkpt>
<trkpt lat="45.9149010" lon="10.3047450">
	<ele>874.80</ele>
	<time>2025-07-29T12:10:26.000Z</time>
</trkpt>
<trkpt lat="45.9149100" lon="10.3047350">
	<ele>874.60</ele>
	<time>2025-07-29T12:10:27.000Z</time>
</trkpt>
<trkpt lat="45.9149220" lon="10.3047240">
	<ele>874.60</ele>
	<time>2025-07-29T12:10:28.000Z</time>
</trkpt>
<trkpt lat="45.9149310" lon="10.3047120">
	<ele>874.20</ele>
	<time>2025-07-29T12:10:29.000Z</time>
</trkpt>
<trkpt lat="45.9149440" lon="10.3046930">
	<ele>874.20</ele>
	<time>2025-07-29T12:10:30.000Z</time>
</trkpt>
<trkpt lat="45.9149570" lon="10.3046810">
	<ele>874.00</ele>
	<time>2025-07-29T12:10:31.000Z</time>
</trkpt>
<trkpt lat="45.9149670" lon="10.3046630">
	<ele>873.80</ele>
	<time>2025-07-29T12:10:32.000Z</time>
</trkpt>
<trkpt lat="45.9149770" lon="10.3046490">
	<ele>873.40</ele>
	<time>2025-07-29T12:10:33.000Z</time>
</trkpt>
<trkpt lat="45.9149870" lon="10.3046340">
	<ele>873.40</ele>
	<time>2025-07-29T12:10:34.000Z</time>
</trkpt>
<trkpt lat="45.9149940" lon="10.3046230">
	<ele>873.20</ele>
	<time>2025-07-29T12:10:35.000Z</time>
</trkpt>
<trkpt lat="45.9149920" lon="10.3046130">
	<ele>873.00</ele>
	<time>2025-07-29T12:10:36.000Z</time>
</trkpt>
<trkpt lat="45.9149900" lon="10.3046000">
	<ele>873.00</ele>
	<time>2025-07-29T12:10:37.000Z</time>
</trkpt>
<trkpt lat="45.9149910" lon="10.3045890">
	<ele>872.80</ele>
	<time>2025-07-29T12:10:38.000Z</time>
</trkpt>
<trkpt lat="45.9149940" lon="10.3045800">
	<ele>872.80</ele>
	<time>2025-07-29T12:10:39.000Z</time>
</trkpt>
<trkpt lat="45.9149910" lon="10.3045720">
	<ele>872.80</ele>
	<time>2025-07-29T12:10:40.000Z</time>
</trkpt>
<trkpt lat="45.9149900" lon="10.3045700">
	<ele>872.80</ele>
	<time>2025-07-29T12:10:41.000Z</time>
</trkpt>
<trkpt lat="45.9149890" lon="10.3045690">
	<ele>872.80</ele>
	<time>2025-07-29T12:10:42.000Z</time>
</trkpt>
<trkpt lat="45.9149890" lon="10.3045680">
	<ele>872.80</ele>
	<time>2025-07-29T12:10:43.000Z</time>
</trkpt>
<trkpt lat="45.9149880" lon="10.3045670">
	<ele>872.80</ele>
	<time>2025-07-29T12:10:44.000Z</time>
</trkpt>
<trkpt lat="45.9149870" lon="10.3045670">
	<ele>872.80</ele>
	<time>2025-07-29T12:10:45.000Z</time>
</trkpt>
<trkpt lat="45.9149880" lon="10.3045670">
	<ele>872.80</ele>
	<time>2025-07-29T12:10:46.000Z</time>
</trkpt>
<trkpt lat="45.9149900" lon="10.3045680">
	<ele>872.80</ele>
	<time>2025-07-29T12:10:47.000Z</time>
</trkpt>
<trkpt lat="45.9149910" lon="10.3045820">
	<ele>872.80</ele>
	<time>2025-07-29T12:10:48.000Z</time>
</trkpt>
<trkpt lat="45.9149950" lon="10.3045830">
	<ele>872.80</ele>
	<time>2025-07-29T12:10:49.000Z</time>
</trkpt>
<trkpt lat="45.9150050" lon="10.3045770">
	<ele>872.60</ele>
	<time>2025-07-29T12:10:50.000Z</time>
</trkpt>
<trkpt lat="45.9150160" lon="10.3045690">
	<ele>872.60</ele>
	<time>2025-07-29T12:10:51.000Z</time>
</trkpt>
<trkpt lat="45.9150290" lon="10.3045610">
	<ele>872.40</ele>
	<time>2025-07-29T12:10:52.000Z</time>
</trkpt>
<trkpt lat="45.9150380" lon="10.3045500">
	<ele>872.40</ele>
	<time>2025-07-29T12:10:53.000Z</time>
</trkpt>
<trkpt lat="45.9150410" lon="10.3045330">
	<ele>872.40</ele>
	<time>2025-07-29T12:10:54.000Z</time>
</trkpt>
<trkpt lat="45.9150500" lon="10.3045200">
	<ele>872.20</ele>
	<time>2025-07-29T12:10:55.000Z</time>
</trkpt>
<trkpt lat="45.9150580" lon="10.3045100">
	<ele>872.20</ele>
	<time>2025-07-29T12:10:56.000Z</time>
</trkpt>
<trkpt lat="45.9150690" lon="10.3044990">
	<ele>872.20</ele>
	<time>2025-07-29T12:10:57.000Z</time>
</trkpt>
<trkpt lat="45.9150810" lon="10.3044860">
	<ele>872.00</ele>
	<time>2025-07-29T12:10:58.000Z</time>
</trkpt>
<trkpt lat="45.9150940" lon="10.3044780">
	<ele>872.00</ele>
	<time>2025-07-29T12:10:59.000Z</time>
</trkpt>
<trkpt lat="45.9151050" lon="10.3044710">
	<ele>871.80</ele>
	<time>2025-07-29T12:11:00.000Z</time>
</trkpt>
<trkpt lat="45.9151180" lon="10.3044640">
	<ele>871.60</ele>
	<time>2025-07-29T12:11:01.000Z</time>
</trkpt>
<trkpt lat="45.9151320" lon="10.3044560">
	<ele>871.40</ele>
	<time>2025-07-29T12:11:02.000Z</time>
</trkpt>
<trkpt lat="45.9151450" lon="10.3044480">
	<ele>871.20</ele>
	<time>2025-07-29T12:11:03.000Z</time>
</trkpt>
<trkpt lat="45.9151560" lon="10.3044440">
	<ele>871.00</ele>
	<time>2025-07-29T12:11:04.000Z</time>
</trkpt>
<trkpt lat="45.9151690" lon="10.3044360">
	<ele>870.80</ele>
	<time>2025-07-29T12:11:05.000Z</time>
</trkpt>
<trkpt lat="45.9151790" lon="10.3044250">
	<ele>870.60</ele>
	<time>2025-07-29T12:11:06.000Z</time>
</trkpt>
<trkpt lat="45.9151890" lon="10.3044150">
	<ele>870.20</ele>
	<time>2025-07-29T12:11:07.000Z</time>
</trkpt>
<trkpt lat="45.9152010" lon="10.3044060">
	<ele>870.00</ele>
	<time>2025-07-29T12:11:08.000Z</time>
</trkpt>
<trkpt lat="45.9152110" lon="10.3044020">
	<ele>869.80</ele>
	<time>2025-07-29T12:11:09.000Z</time>
</trkpt>
<trkpt lat="45.9152240" lon="10.3043930">
	<ele>869.60</ele>
	<time>2025-07-29T12:11:10.000Z</time>
</trkpt>
<trkpt lat="45.9152290" lon="10.3043780">
	<ele>869.40</ele>
	<time>2025-07-29T12:11:11.000Z</time>
</trkpt>
<trkpt lat="45.9152330" lon="10.3043640">
	<ele>869.20</ele>
	<time>2025-07-29T12:11:12.000Z</time>
</trkpt>
<trkpt lat="45.9152380" lon="10.3043500">
	<ele>869.20</ele>
	<time>2025-07-29T12:11:13.000Z</time>
</trkpt>
<trkpt lat="45.9152450" lon="10.3043370">
	<ele>869.00</ele>
	<time>2025-07-29T12:11:14.000Z</time>
</trkpt>
<trkpt lat="45.9152540" lon="10.3043240">
	<ele>869.00</ele>
	<time>2025-07-29T12:11:15.000Z</time>
</trkpt>
<trkpt lat="45.9152630" lon="10.3043140">
	<ele>868.80</ele>
	<time>2025-07-29T12:11:16.000Z</time>
</trkpt>
<trkpt lat="45.9152650" lon="10.3043080">
	<ele>868.60</ele>
	<time>2025-07-29T12:11:17.000Z</time>
</trkpt>
<trkpt lat="45.9152660" lon="10.3043040">
	<ele>868.40</ele>
	<time>2025-07-29T12:11:18.000Z</time>
</trkpt>
<trkpt lat="45.9152670" lon="10.3043000">
	<ele>868.20</ele>
	<time>2025-07-29T12:11:19.000Z</time>
</trkpt>
<trkpt lat="45.9152750" lon="10.3042910">
	<ele>868.00</ele>
	<time>2025-07-29T12:11:20.000Z</time>
</trkpt>
<trkpt lat="45.9152770" lon="10.3042880">
	<ele>867.80</ele>
	<time>2025-07-29T12:11:21.000Z</time>
</trkpt>
<trkpt lat="45.9152870" lon="10.3042780">
	<ele>867.80</ele>
	<time>2025-07-29T12:11:22.000Z</time>
</trkpt>
<trkpt lat="45.9152900" lon="10.3042730">
	<ele>867.60</ele>
	<time>2025-07-29T12:11:23.000Z</time>
</trkpt>
<trkpt lat="45.9152910" lon="10.3042700">
	<ele>867.60</ele>
	<time>2025-07-29T12:11:24.000Z</time>
</trkpt>
<trkpt lat="45.9152900" lon="10.3042700">
	<ele>867.60</ele>
	<time>2025-07-29T12:11:25.000Z</time>
</trkpt>
<trkpt lat="45.9152900" lon="10.3042700">
	<ele>867.60</ele>
	<time>2025-07-29T12:11:26.000Z</time>
</trkpt>
<trkpt lat="45.9152900" lon="10.3042710">
	<ele>867.60</ele>
	<time>2025-07-29T12:11:27.000Z</time>
</trkpt>
<trkpt lat="45.9152910" lon="10.3042720">
	<ele>867.60</ele>
	<time>2025-07-29T12:11:28.000Z</time>
</trkpt>
<trkpt lat="45.9152900" lon="10.3042730">
	<ele>867.60</ele>
	<time>2025-07-29T12:11:29.000Z</time>
</trkpt>
<trkpt lat="45.9152900" lon="10.3042750">
	<ele>867.60</ele>
	<time>2025-07-29T12:11:30.000Z</time>
</trkpt>
<trkpt lat="45.9152920" lon="10.3042750">
	<ele>867.60</ele>
	<time>2025-07-29T12:11:31.000Z</time>
</trkpt>
<trkpt lat="45.9152980" lon="10.3042690">
	<ele>867.60</ele>
	<time>2025-07-29T12:11:32.000Z</time>
</trkpt>
<trkpt lat="45.9152990" lon="10.3042700">
	<ele>867.60</ele>
	<time>2025-07-29T12:11:33.000Z</time>
</trkpt>
<trkpt lat="45.9152990" lon="10.3042700">
	<ele>867.40</ele>
	<time>2025-07-29T12:11:34.000Z</time>
</trkpt>
<trkpt lat="45.9152990" lon="10.3042700">
	<ele>867.60</ele>
	<time>2025-07-29T12:11:35.000Z</time>
</trkpt>
<trkpt lat="45.9152990" lon="10.3042700">
	<ele>867.60</ele>
	<time>2025-07-29T12:11:36.000Z</time>
</trkpt>
<trkpt lat="45.9152990" lon="10.3042700">
	<ele>867.60</ele>
	<time>2025-07-29T12:11:37.000Z</time>
</trkpt>
<trkpt lat="45.9152990" lon="10.3042700">
	<ele>867.60</ele>
	<time>2025-07-29T12:11:38.000Z</time>
</trkpt>
<trkpt lat="45.9152990" lon="10.3042700">
	<ele>867.60</ele>
	<time>2025-07-29T12:11:39.000Z</time>
</trkpt>
<trkpt lat="45.9152990" lon="10.3042700">
	<ele>867.40</ele>
	<time>2025-07-29T12:11:40.000Z</time>
</trkpt>
<trkpt lat="45.9152990" lon="10.3042700">
	<ele>867.20</ele>
	<time>2025-07-29T12:11:41.000Z</time>
</trkpt>
<trkpt lat="45.9153000" lon="10.3042660">
	<ele>867.00</ele>
	<time>2025-07-29T12:11:42.000Z</time>
</trkpt>
<trkpt lat="45.9153010" lon="10.3042530">
	<ele>866.80</ele>
	<time>2025-07-29T12:11:43.000Z</time>
</trkpt>
<trkpt lat="45.9153050" lon="10.3042400">
	<ele>866.80</ele>
	<time>2025-07-29T12:11:44.000Z</time>
</trkpt>
<trkpt lat="45.9153150" lon="10.3042230">
	<ele>866.60</ele>
	<time>2025-07-29T12:11:45.000Z</time>
</trkpt>
<trkpt lat="45.9153240" lon="10.3042050">
	<ele>866.60</ele>
	<time>2025-07-29T12:11:46.000Z</time>
</trkpt>
<trkpt lat="45.9153350" lon="10.3041850">
	<ele>866.60</ele>
	<time>2025-07-29T12:11:47.000Z</time>
</trkpt>
<trkpt lat="45.9153460" lon="10.3041640">
	<ele>866.60</ele>
	<time>2025-07-29T12:11:48.000Z</time>
</trkpt>
<trkpt lat="45.9153550" lon="10.3041420">
	<ele>866.40</ele>
	<time>2025-07-29T12:11:49.000Z</time>
</trkpt>
<trkpt lat="45.9153610" lon="10.3041230">
	<ele>866.40</ele>
	<time>2025-07-29T12:11:50.000Z</time>
</trkpt>
<trkpt lat="45.9153670" lon="10.3041020">
	<ele>866.00</ele>
	<time>2025-07-29T12:11:51.000Z</time>
</trkpt>
<trkpt lat="45.9153750" lon="10.3040850">
	<ele>865.80</ele>
	<time>2025-07-29T12:11:52.000Z</time>
</trkpt>
<trkpt lat="45.9153840" lon="10.3040700">
	<ele>865.80</ele>
	<time>2025-07-29T12:11:53.000Z</time>
</trkpt>
<trkpt lat="45.9153850" lon="10.3040550">
	<ele>865.60</ele>
	<time>2025-07-29T12:11:54.000Z</time>
</trkpt>
<trkpt lat="45.9153870" lon="10.3040370">
	<ele>865.40</ele>
	<time>2025-07-29T12:11:55.000Z</time>
</trkpt>
<trkpt lat="45.9153920" lon="10.3040190">
	<ele>865.40</ele>
	<time>2025-07-29T12:11:56.000Z</time>
</trkpt>
<trkpt lat="45.9153970" lon="10.3040010">
	<ele>865.20</ele>
	<time>2025-07-29T12:11:57.000Z</time>
</trkpt>
<trkpt lat="45.9154020" lon="10.3039860">
	<ele>865.00</ele>
	<time>2025-07-29T12:11:58.000Z</time>
</trkpt>
<trkpt lat="45.9154050" lon="10.3039740">
	<ele>865.00</ele>
	<time>2025-07-29T12:11:59.000Z</time>
</trkpt>
<trkpt lat="45.9154090" lon="10.3039610">
	<ele>864.80</ele>
	<time>2025-07-29T12:12:00.000Z</time>
</trkpt>
<trkpt lat="45.9154120" lon="10.3039430">
	<ele>864.40</ele>
	<time>2025-07-29T12:12:01.000Z</time>
</trkpt>
<trkpt lat="45.9154150" lon="10.3039260">
	<ele>864.20</ele>
	<time>2025-07-29T12:12:02.000Z</time>
</trkpt>
<trkpt lat="45.9154190" lon="10.3039080">
	<ele>864.20</ele>
	<time>2025-07-29T12:12:03.000Z</time>
</trkpt>
<trkpt lat="45.9154290" lon="10.3038940">
	<ele>863.80</ele>
	<time>2025-07-29T12:12:04.000Z</time>
</trkpt>
<trkpt lat="45.9154400" lon="10.3038770">
	<ele>863.80</ele>
	<time>2025-07-29T12:12:05.000Z</time>
</trkpt>
<trkpt lat="45.9154540" lon="10.3038670">
	<ele>863.60</ele>
	<time>2025-07-29T12:12:06.000Z</time>
</trkpt>
<trkpt lat="45.9154700" lon="10.3038570">
	<ele>863.40</ele>
	<time>2025-07-29T12:12:07.000Z</time>
</trkpt>
<trkpt lat="45.9154810" lon="10.3038510">
	<ele>863.20</ele>
	<time>2025-07-29T12:12:08.000Z</time>
</trkpt>
<trkpt lat="45.9154920" lon="10.3038420">
	<ele>863.00</ele>
	<time>2025-07-29T12:12:09.000Z</time>
</trkpt>
<trkpt lat="45.9155070" lon="10.3038350">
	<ele>862.80</ele>
	<time>2025-07-29T12:12:10.000Z</time>
</trkpt>
<trkpt lat="45.9155200" lon="10.3038280">
	<ele>862.60</ele>
	<time>2025-07-29T12:12:11.000Z</time>
</trkpt>
<trkpt lat="45.9155320" lon="10.3038180">
	<ele>862.20</ele>
	<time>2025-07-29T12:12:12.000Z</time>
</trkpt>
<trkpt lat="45.9155410" lon="10.3038100">
	<ele>862.00</ele>
	<time>2025-07-29T12:12:13.000Z</time>
</trkpt>
<trkpt lat="45.9155490" lon="10.3038070">
	<ele>861.80</ele>
	<time>2025-07-29T12:12:14.000Z</time>
</trkpt>
<trkpt lat="45.9155620" lon="10.3038090">
	<ele>861.60</ele>
	<time>2025-07-29T12:12:15.000Z</time>
</trkpt>
<trkpt lat="45.9155730" lon="10.3038120">
	<ele>861.20</ele>
	<time>2025-07-29T12:12:16.000Z</time>
</trkpt>
<trkpt lat="45.9155880" lon="10.3038080">
	<ele>861.00</ele>
	<time>2025-07-29T12:12:17.000Z</time>
</trkpt>
<trkpt lat="45.9156040" lon="10.3038020">
	<ele>860.80</ele>
	<time>2025-07-29T12:12:18.000Z</time>
</trkpt>
<trkpt lat="45.9156230" lon="10.3037960">
	<ele>860.60</ele>
	<time>2025-07-29T12:12:19.000Z</time>
</trkpt>
<trkpt lat="45.9156390" lon="10.3037900">
	<ele>860.40</ele>
	<time>2025-07-29T12:12:20.000Z</time>
</trkpt>
<trkpt lat="45.9156530" lon="10.3037880">
	<ele>860.20</ele>
	<time>2025-07-29T12:12:21.000Z</time>
</trkpt>
<trkpt lat="45.9156700" lon="10.3037910">
	<ele>860.00</ele>
	<time>2025-07-29T12:12:22.000Z</time>
</trkpt>
<trkpt lat="45.9156810" lon="10.3037900">
	<ele>859.80</ele>
	<time>2025-07-29T12:12:23.000Z</time>
</trkpt>
<trkpt lat="45.9156860" lon="10.3037860">
	<ele>859.60</ele>
	<time>2025-07-29T12:12:24.000Z</time>
</trkpt>
<trkpt lat="45.9156920" lon="10.3037860">
	<ele>859.40</ele>
	<time>2025-07-29T12:12:25.000Z</time>
</trkpt>
<trkpt lat="45.9156970" lon="10.3037820">
	<ele>859.40</ele>
	<time>2025-07-29T12:12:26.000Z</time>
</trkpt>
<trkpt lat="45.9156890" lon="10.3037640">
	<ele>859.00</ele>
	<time>2025-07-29T12:12:27.000Z</time>
</trkpt>
<trkpt lat="45.9157080" lon="10.3037620">
	<ele>858.80</ele>
	<time>2025-07-29T12:12:28.000Z</time>
</trkpt>
<trkpt lat="45.9157320" lon="10.3037550">
	<ele>858.40</ele>
	<time>2025-07-29T12:12:29.000Z</time>
</trkpt>
<trkpt lat="45.9157490" lon="10.3037530">
	<ele>858.00</ele>
	<time>2025-07-29T12:12:30.000Z</time>
</trkpt>
<trkpt lat="45.9157720" lon="10.3037440">
	<ele>857.80</ele>
	<time>2025-07-29T12:12:31.000Z</time>
</trkpt>
<trkpt lat="45.9157890" lon="10.3037400">
	<ele>857.60</ele>
	<time>2025-07-29T12:12:32.000Z</time>
</trkpt>
<trkpt lat="45.9157930" lon="10.3037380">
	<ele>857.00</ele>
	<time>2025-07-29T12:12:33.000Z</time>
</trkpt>
<trkpt lat="45.9157940" lon="10.3037390">
	<ele>856.60</ele>
	<time>2025-07-29T12:12:34.000Z</time>
</trkpt>
<trkpt lat="45.9158040" lon="10.3037410">
	<ele>856.20</ele>
	<time>2025-07-29T12:12:35.000Z</time>
</trkpt>
<trkpt lat="45.9158150" lon="10.3037410">
	<ele>856.00</ele>
	<time>2025-07-29T12:12:36.000Z</time>
</trkpt>
<trkpt lat="45.9158310" lon="10.3037410">
	<ele>855.80</ele>
	<time>2025-07-29T12:12:37.000Z</time>
</trkpt>
<trkpt lat="45.9158470" lon="10.3037400">
	<ele>855.20</ele>
	<time>2025-07-29T12:12:38.000Z</time>
</trkpt>
<trkpt lat="45.9158600" lon="10.3037410">
	<ele>854.80</ele>
	<time>2025-07-29T12:12:39.000Z</time>
</trkpt>
<trkpt lat="45.9158700" lon="10.3037400">
	<ele>854.60</ele>
	<time>2025-07-29T12:12:40.000Z</time>
</trkpt>
<trkpt lat="45.9158800" lon="10.3037410">
	<ele>854.20</ele>
	<time>2025-07-29T12:12:41.000Z</time>
</trkpt>
<trkpt lat="45.9158930" lon="10.3037380">
	<ele>853.80</ele>
	<time>2025-07-29T12:12:42.000Z</time>
</trkpt>
<trkpt lat="45.9159040" lon="10.3037330">
	<ele>853.40</ele>
	<time>2025-07-29T12:12:43.000Z</time>
</trkpt>
<trkpt lat="45.9159130" lon="10.3037290">
	<ele>853.20</ele>
	<time>2025-07-29T12:12:44.000Z</time>
</trkpt>
<trkpt lat="45.9159170" lon="10.3037230">
	<ele>853.00</ele>
	<time>2025-07-29T12:12:45.000Z</time>
</trkpt>
<trkpt lat="45.9159230" lon="10.3037120">
	<ele>853.00</ele>
	<time>2025-07-29T12:12:46.000Z</time>
</trkpt>
<trkpt lat="45.9159310" lon="10.3037030">
	<ele>853.00</ele>
	<time>2025-07-29T12:12:47.000Z</time>
</trkpt>
<trkpt lat="45.9159420" lon="10.3036940">
	<ele>853.00</ele>
	<time>2025-07-29T12:12:48.000Z</time>
</trkpt>
<trkpt lat="45.9159530" lon="10.3036790">
	<ele>852.80</ele>
	<time>2025-07-29T12:12:49.000Z</time>
</trkpt>
<trkpt lat="45.9159630" lon="10.3036630">
	<ele>852.80</ele>
	<time>2025-07-29T12:12:50.000Z</time>
</trkpt>
<trkpt lat="45.9159740" lon="10.3036500">
	<ele>852.80</ele>
	<time>2025-07-29T12:12:51.000Z</time>
</trkpt>
<trkpt lat="45.9159870" lon="10.3036450">
	<ele>852.80</ele>
	<time>2025-07-29T12:12:52.000Z</time>
</trkpt>
<trkpt lat="45.9159880" lon="10.3036460">
	<ele>852.60</ele>
	<time>2025-07-29T12:12:53.000Z</time>
</trkpt>
<trkpt lat="45.9159930" lon="10.3036400">
	<ele>852.60</ele>
	<time>2025-07-29T12:12:54.000Z</time>
</trkpt>
<trkpt lat="45.9160020" lon="10.3036290">
	<ele>852.40</ele>
	<time>2025-07-29T12:12:55.000Z</time>
</trkpt>
<trkpt lat="45.9160070" lon="10.3036150">
	<ele>852.20</ele>
	<time>2025-07-29T12:12:56.000Z</time>
</trkpt>
<trkpt lat="45.9160160" lon="10.3036030">
	<ele>851.80</ele>
	<time>2025-07-29T12:12:57.000Z</time>
</trkpt>
<trkpt lat="45.9160270" lon="10.3035910">
	<ele>851.60</ele>
	<time>2025-07-29T12:12:58.000Z</time>
</trkpt>
<trkpt lat="45.9160410" lon="10.3035790">
	<ele>851.60</ele>
	<time>2025-07-29T12:12:59.000Z</time>
</trkpt>
<trkpt lat="45.9160570" lon="10.3035620">
	<ele>851.40</ele>
	<time>2025-07-29T12:13:00.000Z</time>
</trkpt>
<trkpt lat="45.9160730" lon="10.3035500">
	<ele>851.40</ele>
	<time>2025-07-29T12:13:01.000Z</time>
</trkpt>
<trkpt lat="45.9160880" lon="10.3035350">
	<ele>851.00</ele>
	<time>2025-07-29T12:13:02.000Z</time>
</trkpt>
<trkpt lat="45.9161040" lon="10.3035230">
	<ele>851.00</ele>
	<time>2025-07-29T12:13:03.000Z</time>
</trkpt>
<trkpt lat="45.9161170" lon="10.3035040">
	<ele>850.80</ele>
	<time>2025-07-29T12:13:04.000Z</time>
</trkpt>
<trkpt lat="45.9161260" lon="10.3034850">
	<ele>850.80</ele>
	<time>2025-07-29T12:13:05.000Z</time>
</trkpt>
<trkpt lat="45.9161370" lon="10.3034660">
	<ele>850.60</ele>
	<time>2025-07-29T12:13:06.000Z</time>
</trkpt>
<trkpt lat="45.9161460" lon="10.3034460">
	<ele>850.60</ele>
	<time>2025-07-29T12:13:07.000Z</time>
</trkpt>
<trkpt lat="45.9161570" lon="10.3034290">
	<ele>850.40</ele>
	<time>2025-07-29T12:13:08.000Z</time>
</trkpt>
<trkpt lat="45.9161680" lon="10.3034140">
	<ele>850.40</ele>
	<time>2025-07-29T12:13:09.000Z</time>
</trkpt>
<trkpt lat="45.9161740" lon="10.3033990">
	<ele>850.20</ele>
	<time>2025-07-29T12:13:10.000Z</time>
</trkpt>
<trkpt lat="45.9161840" lon="10.3033810">
	<ele>850.00</ele>
	<time>2025-07-29T12:13:11.000Z</time>
</trkpt>
<trkpt lat="45.9161960" lon="10.3033670">
	<ele>849.80</ele>
	<time>2025-07-29T12:13:12.000Z</time>
</trkpt>
<trkpt lat="45.9162060" lon="10.3033550">
	<ele>849.60</ele>
	<time>2025-07-29T12:13:13.000Z</time>
</trkpt>
<trkpt lat="45.9162140" lon="10.3033430">
	<ele>849.20</ele>
	<time>2025-07-29T12:13:14.000Z</time>
</trkpt>
<trkpt lat="45.9162220" lon="10.3033270">
	<ele>849.00</ele>
	<time>2025-07-29T12:13:15.000Z</time>
</trkpt>
<trkpt lat="45.9162310" lon="10.3033120">
	<ele>848.60</ele>
	<time>2025-07-29T12:13:16.000Z</time>
</trkpt>
<trkpt lat="45.9162370" lon="10.3032970">
	<ele>848.40</ele>
	<time>2025-07-29T12:13:17.000Z</time>
</trkpt>
<trkpt lat="45.9162420" lon="10.3032860">
	<ele>848.00</ele>
	<time>2025-07-29T12:13:18.000Z</time>
</trkpt>
<trkpt lat="45.9162480" lon="10.3032740">
	<ele>847.80</ele>
	<time>2025-07-29T12:13:19.000Z</time>
</trkpt>
<trkpt lat="45.9162520" lon="10.3032620">
	<ele>847.40</ele>
	<time>2025-07-29T12:13:20.000Z</time>
</trkpt>
<trkpt lat="45.9162560" lon="10.3032530">
	<ele>847.20</ele>
	<time>2025-07-29T12:13:21.000Z</time>
</trkpt>
<trkpt lat="45.9162640" lon="10.3032480">
	<ele>846.80</ele>
	<time>2025-07-29T12:13:22.000Z</time>
</trkpt>
<trkpt lat="45.9162760" lon="10.3032340">
	<ele>846.60</ele>
	<time>2025-07-29T12:13:23.000Z</time>
</trkpt>
<trkpt lat="45.9162870" lon="10.3032140">
	<ele>846.40</ele>
	<time>2025-07-29T12:13:24.000Z</time>
</trkpt>
<trkpt lat="45.9162930" lon="10.3031960">
	<ele>846.20</ele>
	<time>2025-07-29T12:13:25.000Z</time>
</trkpt>
<trkpt lat="45.9162970" lon="10.3031810">
	<ele>846.00</ele>
	<time>2025-07-29T12:13:26.000Z</time>
</trkpt>
<trkpt lat="45.9162980" lon="10.3031750">
	<ele>845.80</ele>
	<time>2025-07-29T12:13:27.000Z</time>
</trkpt>
<trkpt lat="45.9162960" lon="10.3031650">
	<ele>845.60</ele>
	<time>2025-07-29T12:13:28.000Z</time>
</trkpt>
<trkpt lat="45.9163140" lon="10.3031450">
	<ele>845.40</ele>
	<time>2025-07-29T12:13:29.000Z</time>
</trkpt>
<trkpt lat="45.9163320" lon="10.3031280">
	<ele>845.00</ele>
	<time>2025-07-29T12:13:30.000Z</time>
</trkpt>
<trkpt lat="45.9163530" lon="10.3031150">
	<ele>844.80</ele>
	<time>2025-07-29T12:13:31.000Z</time>
</trkpt>
<trkpt lat="45.9163780" lon="10.3030940">
	<ele>844.60</ele>
	<time>2025-07-29T12:13:32.000Z</time>
</trkpt>
<trkpt lat="45.9163990" lon="10.3030700">
	<ele>844.40</ele>
	<time>2025-07-29T12:13:33.000Z</time>
</trkpt>
<trkpt lat="45.9164010" lon="10.3030600">
	<ele>844.40</ele>
	<time>2025-07-29T12:13:34.000Z</time>
</trkpt>
<trkpt lat="45.9164060" lon="10.3030430">
	<ele>844.20</ele>
	<time>2025-07-29T12:13:35.000Z</time>
</trkpt>
<trkpt lat="45.9164040" lon="10.3030360">
	<ele>844.00</ele>
	<time>2025-07-29T12:13:36.000Z</time>
</trkpt>
<trkpt lat="45.9164090" lon="10.3030190">
	<ele>843.80</ele>
	<time>2025-07-29T12:13:37.000Z</time>
</trkpt>
<trkpt lat="45.9164140" lon="10.3030030">
	<ele>843.60</ele>
	<time>2025-07-29T12:13:38.000Z</time>
</trkpt>
<trkpt lat="45.9164170" lon="10.3029830">
	<ele>843.40</ele>
	<time>2025-07-29T12:13:39.000Z</time>
</trkpt>
<trkpt lat="45.9164210" lon="10.3029670">
	<ele>843.20</ele>
	<time>2025-07-29T12:13:40.000Z</time>
</trkpt>
<trkpt lat="45.9164290" lon="10.3029450">
	<ele>843.00</ele>
	<time>2025-07-29T12:13:41.000Z</time>
</trkpt>
<trkpt lat="45.9164340" lon="10.3029250">
	<ele>842.80</ele>
	<time>2025-07-29T12:13:42.000Z</time>
</trkpt>
<trkpt lat="45.9164380" lon="10.3029020">
	<ele>842.20</ele>
	<time>2025-07-29T12:13:43.000Z</time>
</trkpt>
<trkpt lat="45.9164390" lon="10.3028840">
	<ele>842.00</ele>
	<time>2025-07-29T12:13:44.000Z</time>
</trkpt>
<trkpt lat="45.9164390" lon="10.3028650">
	<ele>841.80</ele>
	<time>2025-07-29T12:13:45.000Z</time>
</trkpt>
<trkpt lat="45.9164380" lon="10.3028490">
	<ele>841.60</ele>
	<time>2025-07-29T12:13:46.000Z</time>
</trkpt>
<trkpt lat="45.9164360" lon="10.3028320">
	<ele>841.40</ele>
	<time>2025-07-29T12:13:47.000Z</time>
</trkpt>
<trkpt lat="45.9164310" lon="10.3028170">
	<ele>841.20</ele>
	<time>2025-07-29T12:13:48.000Z</time>
</trkpt>
<trkpt lat="45.9164280" lon="10.3028020">
	<ele>841.00</ele>
	<time>2025-07-29T12:13:49.000Z</time>
</trkpt>
<trkpt lat="45.9164300" lon="10.3027810">
	<ele>840.60</ele>
	<time>2025-07-29T12:13:50.000Z</time>
</trkpt>
<trkpt lat="45.9164400" lon="10.3027570">
	<ele>840.40</ele>
	<time>2025-07-29T12:13:51.000Z</time>
</trkpt>
<trkpt lat="45.9164500" lon="10.3027320">
	<ele>840.20</ele>
	<time>2025-07-29T12:13:52.000Z</time>
</trkpt>
<trkpt lat="45.9164600" lon="10.3027130">
	<ele>840.00</ele>
	<time>2025-07-29T12:13:53.000Z</time>
</trkpt>
<trkpt lat="45.9164650" lon="10.3026940">
	<ele>839.80</ele>
	<time>2025-07-29T12:13:54.000Z</time>
</trkpt>
<trkpt lat="45.9164680" lon="10.3026840">
	<ele>839.60</ele>
	<time>2025-07-29T12:13:55.000Z</time>
</trkpt>
<trkpt lat="45.9164750" lon="10.3026670">
	<ele>839.40</ele>
	<time>2025-07-29T12:13:56.000Z</time>
</trkpt>
<trkpt lat="45.9164910" lon="10.3026450">
	<ele>839.20</ele>
	<time>2025-07-29T12:13:57.000Z</time>
</trkpt>
<trkpt lat="45.9165060" lon="10.3026110">
	<ele>839.00</ele>
	<time>2025-07-29T12:13:58.000Z</time>
</trkpt>
<trkpt lat="45.9165230" lon="10.3025860">
	<ele>838.80</ele>
	<time>2025-07-29T12:13:59.000Z</time>
</trkpt>
<trkpt lat="45.9165320" lon="10.3025660">
	<ele>838.60</ele>
	<time>2025-07-29T12:14:00.000Z</time>
</trkpt>
<trkpt lat="45.9165390" lon="10.3025510">
	<ele>838.20</ele>
	<time>2025-07-29T12:14:01.000Z</time>
</trkpt>
<trkpt lat="45.9165500" lon="10.3025260">
	<ele>838.00</ele>
	<time>2025-07-29T12:14:02.000Z</time>
</trkpt>
<trkpt lat="45.9165640" lon="10.3025000">
	<ele>837.80</ele>
	<time>2025-07-29T12:14:03.000Z</time>
</trkpt>
<trkpt lat="45.9165790" lon="10.3024780">
	<ele>837.60</ele>
	<time>2025-07-29T12:14:04.000Z</time>
</trkpt>
<trkpt lat="45.9166040" lon="10.3024590">
	<ele>837.40</ele>
	<time>2025-07-29T12:14:05.000Z</time>
</trkpt>
<trkpt lat="45.9166170" lon="10.3024430">
	<ele>837.40</ele>
	<time>2025-07-29T12:14:06.000Z</time>
</trkpt>
<trkpt lat="45.9166290" lon="10.3024230">
	<ele>837.20</ele>
	<time>2025-07-29T12:14:07.000Z</time>
</trkpt>
<trkpt lat="45.9166360" lon="10.3024070">
	<ele>836.80</ele>
	<time>2025-07-29T12:14:08.000Z</time>
</trkpt>
<trkpt lat="45.9166440" lon="10.3023950">
	<ele>836.80</ele>
	<time>2025-07-29T12:14:09.000Z</time>
</trkpt>
<trkpt lat="45.9166520" lon="10.3023830">
	<ele>836.60</ele>
	<time>2025-07-29T12:14:10.000Z</time>
</trkpt>
<trkpt lat="45.9166600" lon="10.3023690">
	<ele>836.20</ele>
	<time>2025-07-29T12:14:11.000Z</time>
</trkpt>
<trkpt lat="45.9166710" lon="10.3023550">
	<ele>836.00</ele>
	<time>2025-07-29T12:14:12.000Z</time>
</trkpt>
<trkpt lat="45.9166780" lon="10.3023430">
	<ele>835.60</ele>
	<time>2025-07-29T12:14:13.000Z</time>
</trkpt>
<trkpt lat="45.9166830" lon="10.3023290">
	<ele>835.40</ele>
	<time>2025-07-29T12:14:14.000Z</time>
</trkpt>
<trkpt lat="45.9166890" lon="10.3023150">
	<ele>835.20</ele>
	<time>2025-07-29T12:14:15.000Z</time>
</trkpt>
<trkpt lat="45.9166950" lon="10.3023020">
	<ele>835.00</ele>
	<time>2025-07-29T12:14:16.000Z</time>
</trkpt>
<trkpt lat="45.9167000" lon="10.3022860">
	<ele>834.80</ele>
	<time>2025-07-29T12:14:17.000Z</time>
</trkpt>
<trkpt lat="45.9166970" lon="10.3022680">
	<ele>834.60</ele>
	<time>2025-07-29T12:14:18.000Z</time>
</trkpt>
<trkpt lat="45.9167020" lon="10.3022430">
	<ele>834.40</ele>
	<time>2025-07-29T12:14:19.000Z</time>
</trkpt>
<trkpt lat="45.9167150" lon="10.3022190">
	<ele>834.20</ele>
	<time>2025-07-29T12:14:20.000Z</time>
</trkpt>
<trkpt lat="45.9167210" lon="10.3021980">
	<ele>834.00</ele>
	<time>2025-07-29T12:14:21.000Z</time>
</trkpt>
<trkpt lat="45.9167270" lon="10.3021810">
	<ele>833.80</ele>
	<time>2025-07-29T12:14:22.000Z</time>
</trkpt>
<trkpt lat="45.9167270" lon="10.3021690">
	<ele>833.60</ele>
	<time>2025-07-29T12:14:23.000Z</time>
</trkpt>
<trkpt lat="45.9167310" lon="10.3021500">
	<ele>833.40</ele>
	<time>2025-07-29T12:14:24.000Z</time>
</trkpt>
<trkpt lat="45.9167410" lon="10.3021240">
	<ele>833.20</ele>
	<time>2025-07-29T12:14:25.000Z</time>
</trkpt>
<trkpt lat="45.9167450" lon="10.3021000">
	<ele>833.00</ele>
	<time>2025-07-29T12:14:26.000Z</time>
</trkpt>
<trkpt lat="45.9167530" lon="10.3020790">
	<ele>833.00</ele>
	<time>2025-07-29T12:14:27.000Z</time>
</trkpt>
<trkpt lat="45.9167620" lon="10.3020570">
	<ele>832.80</ele>
	<time>2025-07-29T12:14:28.000Z</time>
</trkpt>
<trkpt lat="45.9167740" lon="10.3020360">
	<ele>832.60</ele>
	<time>2025-07-29T12:14:29.000Z</time>
</trkpt>
<trkpt lat="45.9167810" lon="10.3020200">
	<ele>832.40</ele>
	<time>2025-07-29T12:14:30.000Z</time>
</trkpt>
<trkpt lat="45.9167820" lon="10.3020060">
	<ele>832.20</ele>
	<time>2025-07-29T12:14:31.000Z</time>
</trkpt>
<trkpt lat="45.9167820" lon="10.3019880">
	<ele>832.00</ele>
	<time>2025-07-29T12:14:32.000Z</time>
</trkpt>
<trkpt lat="45.9167820" lon="10.3019700">
	<ele>831.60</ele>
	<time>2025-07-29T12:14:33.000Z</time>
</trkpt>
<trkpt lat="45.9167880" lon="10.3019510">
	<ele>831.20</ele>
	<time>2025-07-29T12:14:34.000Z</time>
</trkpt>
<trkpt lat="45.9167940" lon="10.3019370">
	<ele>830.80</ele>
	<time>2025-07-29T12:14:35.000Z</time>
</trkpt>
<trkpt lat="45.9167980" lon="10.3019210">
	<ele>830.40</ele>
	<time>2025-07-29T12:14:36.000Z</time>
</trkpt>
<trkpt lat="45.9167970" lon="10.3019010">
	<ele>830.20</ele>
	<time>2025-07-29T12:14:37.000Z</time>
</trkpt>
<trkpt lat="45.9168000" lon="10.3018820">
	<ele>829.80</ele>
	<time>2025-07-29T12:14:38.000Z</time>
</trkpt>
<trkpt lat="45.9168010" lon="10.3018650">
	<ele>829.80</ele>
	<time>2025-07-29T12:14:39.000Z</time>
</trkpt>
<trkpt lat="45.9167990" lon="10.3018500">
	<ele>829.40</ele>
	<time>2025-07-29T12:14:40.000Z</time>
</trkpt>
<trkpt lat="45.9167960" lon="10.3018310">
	<ele>829.20</ele>
	<time>2025-07-29T12:14:41.000Z</time>
</trkpt>
<trkpt lat="45.9167960" lon="10.3018120">
	<ele>828.80</ele>
	<time>2025-07-29T12:14:42.000Z</time>
</trkpt>
<trkpt lat="45.9167980" lon="10.3017910">
	<ele>828.40</ele>
	<time>2025-07-29T12:14:43.000Z</time>
</trkpt>
<trkpt lat="45.9167970" lon="10.3017700">
	<ele>828.20</ele>
	<time>2025-07-29T12:14:44.000Z</time>
</trkpt>
<trkpt lat="45.9167990" lon="10.3017490">
	<ele>827.80</ele>
	<time>2025-07-29T12:14:45.000Z</time>
</trkpt>
<trkpt lat="45.9168040" lon="10.3017310">
	<ele>827.60</ele>
	<time>2025-07-29T12:14:46.000Z</time>
</trkpt>
<trkpt lat="45.9168090" lon="10.3017140">
	<ele>827.20</ele>
	<time>2025-07-29T12:14:47.000Z</time>
</trkpt>
<trkpt lat="45.9168060" lon="10.3017010">
	<ele>826.60</ele>
	<time>2025-07-29T12:14:48.000Z</time>
</trkpt>
<trkpt lat="45.9168010" lon="10.3016840">
	<ele>826.40</ele>
	<time>2025-07-29T12:14:49.000Z</time>
</trkpt>
<trkpt lat="45.9168000" lon="10.3016680">
	<ele>826.00</ele>
	<time>2025-07-29T12:14:50.000Z</time>
</trkpt>
<trkpt lat="45.9168020" lon="10.3016450">
	<ele>825.80</ele>
	<time>2025-07-29T12:14:51.000Z</time>
</trkpt>
<trkpt lat="45.9168080" lon="10.3016200">
	<ele>825.60</ele>
	<time>2025-07-29T12:14:52.000Z</time>
</trkpt>
<trkpt lat="45.9168070" lon="10.3016040">
	<ele>825.00</ele>
	<time>2025-07-29T12:14:53.000Z</time>
</trkpt>
<trkpt lat="45.9168020" lon="10.3015930">
	<ele>824.60</ele>
	<time>2025-07-29T12:14:54.000Z</time>
</trkpt>
<trkpt lat="45.9167930" lon="10.3015830">
	<ele>824.40</ele>
	<time>2025-07-29T12:14:55.000Z</time>
</trkpt>
<trkpt lat="45.9167890" lon="10.3015590">
	<ele>824.20</ele>
	<time>2025-07-29T12:14:56.000Z</time>
</trkpt>
<trkpt lat="45.9168020" lon="10.3015290">
	<ele>823.80</ele>
	<time>2025-07-29T12:14:57.000Z</time>
</trkpt>
<trkpt lat="45.9168090" lon="10.3015130">
	<ele>823.60</ele>
	<time>2025-07-29T12:14:58.000Z</time>
</trkpt>
<trkpt lat="45.9168240" lon="10.3014960">
	<ele>823.20</ele>
	<time>2025-07-29T12:14:59.000Z</time>
</trkpt>
<trkpt lat="45.9168300" lon="10.3014750">
	<ele>823.00</ele>
	<time>2025-07-29T12:15:00.000Z</time>
</trkpt>
<trkpt lat="45.9168270" lon="10.3014700">
	<ele>822.60</ele>
	<time>2025-07-29T12:15:01.000Z</time>
</trkpt>
<trkpt lat="45.9168270" lon="10.3014670">
	<ele>822.00</ele>
	<time>2025-07-29T12:15:02.000Z</time>
</trkpt>
<trkpt lat="45.9168240" lon="10.3014640">
	<ele>821.80</ele>
	<time>2025-07-29T12:15:03.000Z</time>
</trkpt>
<trkpt lat="45.9168290" lon="10.3014360">
	<ele>821.40</ele>
	<time>2025-07-29T12:15:04.000Z</time>
</trkpt>
<trkpt lat="45.9168310" lon="10.3014120">
	<ele>821.20</ele>
	<time>2025-07-29T12:15:05.000Z</time>
</trkpt>
<trkpt lat="45.9168340" lon="10.3013910">
	<ele>821.20</ele>
	<time>2025-07-29T12:15:06.000Z</time>
</trkpt>
<trkpt lat="45.9168350" lon="10.3013820">
	<ele>821.20</ele>
	<time>2025-07-29T12:15:07.000Z</time>
</trkpt>
<trkpt lat="45.9168360" lon="10.3013720">
	<ele>821.00</ele>
	<time>2025-07-29T12:15:08.000Z</time>
</trkpt>
<trkpt lat="45.9168390" lon="10.3013650">
	<ele>821.00</ele>
	<time>2025-07-29T12:15:09.000Z</time>
</trkpt>
<trkpt lat="45.9168410" lon="10.3013520">
	<ele>821.00</ele>
	<time>2025-07-29T12:15:10.000Z</time>
</trkpt>
<trkpt lat="45.9168380" lon="10.3013450">
	<ele>821.00</ele>
	<time>2025-07-29T12:15:11.000Z</time>
</trkpt>
<trkpt lat="45.9168370" lon="10.3013380">
	<ele>821.00</ele>
	<time>2025-07-29T12:15:12.000Z</time>
</trkpt>
<trkpt lat="45.9168340" lon="10.3013390">
	<ele>820.80</ele>
	<time>2025-07-29T12:15:13.000Z</time>
</trkpt>
<trkpt lat="45.9168400" lon="10.3013240">
	<ele>820.40</ele>
	<time>2025-07-29T12:15:14.000Z</time>
</trkpt>
<trkpt lat="45.9168380" lon="10.3013200">
	<ele>820.20</ele>
	<time>2025-07-29T12:15:15.000Z</time>
</trkpt>
<trkpt lat="45.9168440" lon="10.3013030">
	<ele>820.00</ele>
	<time>2025-07-29T12:15:16.000Z</time>
</trkpt>
<trkpt lat="45.9168550" lon="10.3012940">
	<ele>819.60</ele>
	<time>2025-07-29T12:15:17.000Z</time>
</trkpt>
<trkpt lat="45.9168550" lon="10.3012910">
	<ele>819.40</ele>
	<time>2025-07-29T12:15:18.000Z</time>
</trkpt>
<trkpt lat="45.9168670" lon="10.3012770">
	<ele>819.20</ele>
	<time>2025-07-29T12:15:19.000Z</time>
</trkpt>
<trkpt lat="45.9168830" lon="10.3012630">
	<ele>819.20</ele>
	<time>2025-07-29T12:15:20.000Z</time>
</trkpt>
<trkpt lat="45.9168950" lon="10.3012480">
	<ele>818.80</ele>
	<time>2025-07-29T12:15:21.000Z</time>
</trkpt>
<trkpt lat="45.9168980" lon="10.3012450">
	<ele>818.60</ele>
	<time>2025-07-29T12:15:22.000Z</time>
</trkpt>
<trkpt lat="45.9169010" lon="10.3012340">
	<ele>818.40</ele>
	<time>2025-07-29T12:15:23.000Z</time>
</trkpt>
<trkpt lat="45.9169060" lon="10.3012210">
	<ele>818.40</ele>
	<time>2025-07-29T12:15:24.000Z</time>
</trkpt>
<trkpt lat="45.9169100" lon="10.3012260">
	<ele>818.40</ele>
	<time>2025-07-29T12:15:25.000Z</time>
</trkpt>
<trkpt lat="45.9169200" lon="10.3012230">
	<ele>818.40</ele>
	<time>2025-07-29T12:15:26.000Z</time>
</trkpt>
<trkpt lat="45.9169360" lon="10.3012220">
	<ele>818.20</ele>
	<time>2025-07-29T12:15:27.000Z</time>
</trkpt>
<trkpt lat="45.9169550" lon="10.3012160">
	<ele>818.40</ele>
	<time>2025-07-29T12:15:28.000Z</time>
</trkpt>
<trkpt lat="45.9169790" lon="10.3012200">
	<ele>818.60</ele>
	<time>2025-07-29T12:15:29.000Z</time>
</trkpt>
<trkpt lat="45.9170060" lon="10.3012130">
	<ele>818.60</ele>
	<time>2025-07-29T12:15:30.000Z</time>
</trkpt>
<trkpt lat="45.9170330" lon="10.3011980">
	<ele>818.60</ele>
	<time>2025-07-29T12:15:31.000Z</time>
</trkpt>
<trkpt lat="45.9170530" lon="10.3011820">
	<ele>818.60</ele>
	<time>2025-07-29T12:15:32.000Z</time>
</trkpt>
<trkpt lat="45.9170730" lon="10.3011680">
	<ele>818.60</ele>
	<time>2025-07-29T12:15:33.000Z</time>
</trkpt>
<trkpt lat="45.9170930" lon="10.3011550">
	<ele>818.60</ele>
	<time>2025-07-29T12:15:34.000Z</time>
</trkpt>
<trkpt lat="45.9171110" lon="10.3011530">
	<ele>818.60</ele>
	<time>2025-07-29T12:15:35.000Z</time>
</trkpt>
<trkpt lat="45.9171280" lon="10.3011540">
	<ele>818.40</ele>
	<time>2025-07-29T12:15:36.000Z</time>
</trkpt>
<trkpt lat="45.9171420" lon="10.3011530">
	<ele>818.40</ele>
	<time>2025-07-29T12:15:37.000Z</time>
</trkpt>
<trkpt lat="45.9171500" lon="10.3011500">
	<ele>818.20</ele>
	<time>2025-07-29T12:15:38.000Z</time>
</trkpt>
<trkpt lat="45.9171580" lon="10.3011480">
	<ele>818.20</ele>
	<time>2025-07-29T12:15:39.000Z</time>
</trkpt>
<trkpt lat="45.9171670" lon="10.3011450">
	<ele>818.20</ele>
	<time>2025-07-29T12:15:40.000Z</time>
</trkpt>
<trkpt lat="45.9171740" lon="10.3011490">
	<ele>818.40</ele>
	<time>2025-07-29T12:15:41.000Z</time>
</trkpt>
<trkpt lat="45.9171820" lon="10.3011480">
	<ele>818.40</ele>
	<time>2025-07-29T12:15:42.000Z</time>
</trkpt>
<trkpt lat="45.9171900" lon="10.3011540">
	<ele>818.40</ele>
	<time>2025-07-29T12:15:43.000Z</time>
</trkpt>
<trkpt lat="45.9172040" lon="10.3011550">
	<ele>818.40</ele>
	<time>2025-07-29T12:15:44.000Z</time>
</trkpt>
<trkpt lat="45.9172150" lon="10.3011480">
	<ele>818.40</ele>
	<time>2025-07-29T12:15:45.000Z</time>
</trkpt>
<trkpt lat="45.9172290" lon="10.3011380">
	<ele>818.20</ele>
	<time>2025-07-29T12:15:46.000Z</time>
</trkpt>
<trkpt lat="45.9172430" lon="10.3011220">
	<ele>818.20</ele>
	<time>2025-07-29T12:15:47.000Z</time>
</trkpt>
<trkpt lat="45.9172560" lon="10.3011050">
	<ele>818.00</ele>
	<time>2025-07-29T12:15:48.000Z</time>
</trkpt>
<trkpt lat="45.9172710" lon="10.3010930">
	<ele>817.80</ele>
	<time>2025-07-29T12:15:49.000Z</time>
</trkpt>
<trkpt lat="45.9172840" lon="10.3010860">
	<ele>817.60</ele>
	<time>2025-07-29T12:15:50.000Z</time>
</trkpt>
<trkpt lat="45.9172930" lon="10.3010810">
	<ele>817.60</ele>
	<time>2025-07-29T12:15:51.000Z</time>
</trkpt>
<trkpt lat="45.9173040" lon="10.3010770">
	<ele>817.40</ele>
	<time>2025-07-29T12:15:52.000Z</time>
</trkpt>
<trkpt lat="45.9173180" lon="10.3010680">
	<ele>817.40</ele>
	<time>2025-07-29T12:15:53.000Z</time>
</trkpt>
<trkpt lat="45.9173330" lon="10.3010600">
	<ele>817.20</ele>
	<time>2025-07-29T12:15:54.000Z</time>
</trkpt>
<trkpt lat="45.9173510" lon="10.3010590">
	<ele>817.00</ele>
	<time>2025-07-29T12:15:55.000Z</time>
</trkpt>
<trkpt lat="45.9173690" lon="10.3010560">
	<ele>816.60</ele>
	<time>2025-07-29T12:15:56.000Z</time>
</trkpt>
<trkpt lat="45.9173870" lon="10.3010520">
	<ele>816.40</ele>
	<time>2025-07-29T12:15:57.000Z</time>
</trkpt>
<trkpt lat="45.9174050" lon="10.3010530">
	<ele>816.20</ele>
	<time>2025-07-29T12:15:58.000Z</time>
</trkpt>
<trkpt lat="45.9174230" lon="10.3010500">
	<ele>816.00</ele>
	<time>2025-07-29T12:15:59.000Z</time>
</trkpt>
<trkpt lat="45.9174320" lon="10.3010560">
	<ele>815.80</ele>
	<time>2025-07-29T12:16:00.000Z</time>
</trkpt>
<trkpt lat="45.9174410" lon="10.3010600">
	<ele>815.60</ele>
	<time>2025-07-29T12:16:01.000Z</time>
</trkpt>
<trkpt lat="45.9174470" lon="10.3010620">
	<ele>815.40</ele>
	<time>2025-07-29T12:16:02.000Z</time>
</trkpt>
<trkpt lat="45.9174440" lon="10.3010600">
	<ele>815.20</ele>
	<time>2025-07-29T12:16:03.000Z</time>
</trkpt>
<trkpt lat="45.9174510" lon="10.3010510">
	<ele>815.00</ele>
	<time>2025-07-29T12:16:04.000Z</time>
</trkpt>
<trkpt lat="45.9174690" lon="10.3010490">
	<ele>815.00</ele>
	<time>2025-07-29T12:16:05.000Z</time>
</trkpt>
<trkpt lat="45.9174900" lon="10.3010540">
	<ele>814.80</ele>
	<time>2025-07-29T12:16:06.000Z</time>
</trkpt>
<trkpt lat="45.9175150" lon="10.3010610">
	<ele>814.60</ele>
	<time>2025-07-29T12:16:07.000Z</time>
</trkpt>
<trkpt lat="45.9175400" lon="10.3010600">
	<ele>814.40</ele>
	<time>2025-07-29T12:16:08.000Z</time>
</trkpt>
<trkpt lat="45.9175480" lon="10.3010600">
	<ele>814.20</ele>
	<time>2025-07-29T12:16:09.000Z</time>
</trkpt>
<trkpt lat="45.9175510" lon="10.3010620">
	<ele>814.20</ele>
	<time>2025-07-29T12:16:10.000Z</time>
</trkpt>
<trkpt lat="45.9175590" lon="10.3010570">
	<ele>814.20</ele>
	<time>2025-07-29T12:16:11.000Z</time>
</trkpt>
<trkpt lat="45.9175690" lon="10.3010540">
	<ele>814.00</ele>
	<time>2025-07-29T12:16:12.000Z</time>
</trkpt>
<trkpt lat="45.9175800" lon="10.3010470">
	<ele>814.00</ele>
	<time>2025-07-29T12:16:13.000Z</time>
</trkpt>
<trkpt lat="45.9175930" lon="10.3010410">
	<ele>813.80</ele>
	<time>2025-07-29T12:16:14.000Z</time>
</trkpt>
<trkpt lat="45.9176070" lon="10.3010370">
	<ele>813.80</ele>
	<time>2025-07-29T12:16:15.000Z</time>
</trkpt>
<trkpt lat="45.9176200" lon="10.3010400">
	<ele>813.60</ele>
	<time>2025-07-29T12:16:16.000Z</time>
</trkpt>
<trkpt lat="45.9176340" lon="10.3010420">
	<ele>813.40</ele>
	<time>2025-07-29T12:16:17.000Z</time>
</trkpt>
<trkpt lat="45.9176450" lon="10.3010450">
	<ele>813.40</ele>
	<time>2025-07-29T12:16:18.000Z</time>
</trkpt>
<trkpt lat="45.9176570" lon="10.3010470">
	<ele>813.20</ele>
	<time>2025-07-29T12:16:19.000Z</time>
</trkpt>
<trkpt lat="45.9176690" lon="10.3010430">
	<ele>813.20</ele>
	<time>2025-07-29T12:16:20.000Z</time>
</trkpt>
<trkpt lat="45.9176800" lon="10.3010410">
	<ele>813.00</ele>
	<time>2025-07-29T12:16:21.000Z</time>
</trkpt>
<trkpt lat="45.9176990" lon="10.3010380">
	<ele>813.00</ele>
	<time>2025-07-29T12:16:22.000Z</time>
</trkpt>
<trkpt lat="45.9177180" lon="10.3010310">
	<ele>812.80</ele>
	<time>2025-07-29T12:16:23.000Z</time>
</trkpt>
<trkpt lat="45.9177350" lon="10.3010210">
	<ele>812.60</ele>
	<time>2025-07-29T12:16:24.000Z</time>
</trkpt>
<trkpt lat="45.9177400" lon="10.3010190">
	<ele>812.60</ele>
	<time>2025-07-29T12:16:25.000Z</time>
</trkpt>
<trkpt lat="45.9177560" lon="10.3010120">
	<ele>812.40</ele>
	<time>2025-07-29T12:16:26.000Z</time>
</trkpt>
<trkpt lat="45.9177750" lon="10.3010010">
	<ele>812.20</ele>
	<time>2025-07-29T12:16:27.000Z</time>
</trkpt>
<trkpt lat="45.9177950" lon="10.3009830">
	<ele>812.00</ele>
	<time>2025-07-29T12:16:28.000Z</time>
</trkpt>
<trkpt lat="45.9178150" lon="10.3009720">
	<ele>811.80</ele>
	<time>2025-07-29T12:16:29.000Z</time>
</trkpt>
<trkpt lat="45.9178300" lon="10.3009690">
	<ele>811.60</ele>
	<time>2025-07-29T12:16:30.000Z</time>
</trkpt>
<trkpt lat="45.9178450" lon="10.3009700">
	<ele>811.60</ele>
	<time>2025-07-29T12:16:31.000Z</time>
</trkpt>
<trkpt lat="45.9178640" lon="10.3009610">
	<ele>811.40</ele>
	<time>2025-07-29T12:16:32.000Z</time>
</trkpt>
<trkpt lat="45.9178830" lon="10.3009550">
	<ele>811.20</ele>
	<time>2025-07-29T12:16:33.000Z</time>
</trkpt>
<trkpt lat="45.9178940" lon="10.3009490">
	<ele>811.00</ele>
	<time>2025-07-29T12:16:34.000Z</time>
</trkpt>
<trkpt lat="45.9179070" lon="10.3009330">
	<ele>810.80</ele>
	<time>2025-07-29T12:16:35.000Z</time>
</trkpt>
<trkpt lat="45.9179200" lon="10.3009170">
	<ele>810.60</ele>
	<time>2025-07-29T12:16:36.000Z</time>
</trkpt>
<trkpt lat="45.9179310" lon="10.3009030">
	<ele>810.20</ele>
	<time>2025-07-29T12:16:37.000Z</time>
</trkpt>
<trkpt lat="45.9179420" lon="10.3008880">
	<ele>810.00</ele>
	<time>2025-07-29T12:16:38.000Z</time>
</trkpt>
<trkpt lat="45.9179570" lon="10.3008740">
	<ele>810.00</ele>
	<time>2025-07-29T12:16:39.000Z</time>
</trkpt>
<trkpt lat="45.9179730" lon="10.3008600">
	<ele>809.60</ele>
	<time>2025-07-29T12:16:40.000Z</time>
</trkpt>
<trkpt lat="45.9179910" lon="10.3008510">
	<ele>809.20</ele>
	<time>2025-07-29T12:16:41.000Z</time>
</trkpt>
<trkpt lat="45.9180090" lon="10.3008410">
	<ele>809.00</ele>
	<time>2025-07-29T12:16:42.000Z</time>
</trkpt>
<trkpt lat="45.9180260" lon="10.3008310">
	<ele>808.80</ele>
	<time>2025-07-29T12:16:43.000Z</time>
</trkpt>
<trkpt lat="45.9180430" lon="10.3008130">
	<ele>808.40</ele>
	<time>2025-07-29T12:16:44.000Z</time>
</trkpt>
<trkpt lat="45.9180580" lon="10.3008010">
	<ele>808.20</ele>
	<time>2025-07-29T12:16:45.000Z</time>
</trkpt>
<trkpt lat="45.9180620" lon="10.3007910">
	<ele>808.00</ele>
	<time>2025-07-29T12:16:46.000Z</time>
</trkpt>
<trkpt lat="45.9180690" lon="10.3007810">
	<ele>807.80</ele>
	<time>2025-07-29T12:16:47.000Z</time>
</trkpt>
<trkpt lat="45.9180790" lon="10.3007610">
	<ele>807.60</ele>
	<time>2025-07-29T12:16:48.000Z</time>
</trkpt>
<trkpt lat="45.9180940" lon="10.3007180">
	<ele>807.20</ele>
	<time>2025-07-29T12:16:49.000Z</time>
</trkpt>
<trkpt lat="45.9181080" lon="10.3006880">
	<ele>806.80</ele>
	<time>2025-07-29T12:16:50.000Z</time>
</trkpt>
<trkpt lat="45.9181290" lon="10.3006670">
	<ele>806.40</ele>
	<time>2025-07-29T12:16:51.000Z</time>
</trkpt>
<trkpt lat="45.9181480" lon="10.3006500">
	<ele>806.20</ele>
	<time>2025-07-29T12:16:52.000Z</time>
</trkpt>
<trkpt lat="45.9181600" lon="10.3006390">
	<ele>806.00</ele>
	<time>2025-07-29T12:16:53.000Z</time>
</trkpt>
<trkpt lat="45.9181680" lon="10.3006330">
	<ele>805.80</ele>
	<time>2025-07-29T12:16:54.000Z</time>
</trkpt>
<trkpt lat="45.9181760" lon="10.3006200">
	<ele>805.60</ele>
	<time>2025-07-29T12:16:55.000Z</time>
</trkpt>
<trkpt lat="45.9181850" lon="10.3006110">
	<ele>805.60</ele>
	<time>2025-07-29T12:16:56.000Z</time>
</trkpt>
<trkpt lat="45.9181960" lon="10.3006000">
	<ele>805.40</ele>
	<time>2025-07-29T12:16:57.000Z</time>
</trkpt>
<trkpt lat="45.9182060" lon="10.3005810">
	<ele>805.40</ele>
	<time>2025-07-29T12:16:58.000Z</time>
</trkpt>
<trkpt lat="45.9182190" lon="10.3005610">
	<ele>805.20</ele>
	<time>2025-07-29T12:16:59.000Z</time>
</trkpt>
<trkpt lat="45.9182350" lon="10.3005430">
	<ele>805.00</ele>
	<time>2025-07-29T12:17:00.000Z</time>
</trkpt>
<trkpt lat="45.9182490" lon="10.3005320">
	<ele>805.00</ele>
	<time>2025-07-29T12:17:01.000Z</time>
</trkpt>
<trkpt lat="45.9182620" lon="10.3005190">
	<ele>804.80</ele>
	<time>2025-07-29T12:17:02.000Z</time>
</trkpt>
<trkpt lat="45.9182690" lon="10.3005100">
	<ele>804.80</ele>
	<time>2025-07-29T12:17:03.000Z</time>
</trkpt>
<trkpt lat="45.9182770" lon="10.3005180">
	<ele>804.60</ele>
	<time>2025-07-29T12:17:04.000Z</time>
</trkpt>
<trkpt lat="45.9182800" lon="10.3005200">
	<ele>804.60</ele>
	<time>2025-07-29T12:17:05.000Z</time>
</trkpt>
<trkpt lat="45.9182850" lon="10.3005010">
	<ele>804.40</ele>
	<time>2025-07-29T12:17:06.000Z</time>
</trkpt>
<trkpt lat="45.9182950" lon="10.3004780">
	<ele>804.20</ele>
	<time>2025-07-29T12:17:07.000Z</time>
</trkpt>
<trkpt lat="45.9183020" lon="10.3004570">
	<ele>804.20</ele>
	<time>2025-07-29T12:17:08.000Z</time>
</trkpt>
<trkpt lat="45.9183120" lon="10.3004380">
	<ele>804.00</ele>
	<time>2025-07-29T12:17:09.000Z</time>
</trkpt>
<trkpt lat="45.9183160" lon="10.3004340">
	<ele>804.00</ele>
	<time>2025-07-29T12:17:10.000Z</time>
</trkpt>
<trkpt lat="45.9183300" lon="10.3004190">
	<ele>803.80</ele>
	<time>2025-07-29T12:17:11.000Z</time>
</trkpt>
<trkpt lat="45.9183420" lon="10.3004130">
	<ele>803.60</ele>
	<time>2025-07-29T12:17:12.000Z</time>
</trkpt>
<trkpt lat="45.9183530" lon="10.3004130">
	<ele>803.60</ele>
	<time>2025-07-29T12:17:13.000Z</time>
</trkpt>
<trkpt lat="45.9183620" lon="10.3004080">
	<ele>803.40</ele>
	<time>2025-07-29T12:17:14.000Z</time>
</trkpt>
<trkpt lat="45.9183750" lon="10.3004050">
	<ele>803.20</ele>
	<time>2025-07-29T12:17:15.000Z</time>
</trkpt>
<trkpt lat="45.9183850" lon="10.3003980">
	<ele>803.00</ele>
	<time>2025-07-29T12:17:16.000Z</time>
</trkpt>
<trkpt lat="45.9184020" lon="10.3003880">
	<ele>803.00</ele>
	<time>2025-07-29T12:17:17.000Z</time>
</trkpt>
<trkpt lat="45.9184130" lon="10.3003830">
	<ele>802.80</ele>
	<time>2025-07-29T12:17:18.000Z</time>
</trkpt>
<trkpt lat="45.9184210" lon="10.3003790">
	<ele>802.60</ele>
	<time>2025-07-29T12:17:19.000Z</time>
</trkpt>
<trkpt lat="45.9184240" lon="10.3003640">
	<ele>802.40</ele>
	<time>2025-07-29T12:17:20.000Z</time>
</trkpt>
<trkpt lat="45.9184360" lon="10.3003440">
	<ele>802.40</ele>
	<time>2025-07-29T12:17:21.000Z</time>
</trkpt>
<trkpt lat="45.9184520" lon="10.3003360">
	<ele>802.40</ele>
	<time>2025-07-29T12:17:22.000Z</time>
</trkpt>
<trkpt lat="45.9184700" lon="10.3003360">
	<ele>802.20</ele>
	<time>2025-07-29T12:17:23.000Z</time>
</trkpt>
<trkpt lat="45.9184790" lon="10.3003300">
	<ele>802.20</ele>
	<time>2025-07-29T12:17:24.000Z</time>
</trkpt>
<trkpt lat="45.9184890" lon="10.3003220">
	<ele>802.20</ele>
	<time>2025-07-29T12:17:25.000Z</time>
</trkpt>
<trkpt lat="45.9184950" lon="10.3003100">
	<ele>802.20</ele>
	<time>2025-07-29T12:17:26.000Z</time>
</trkpt>
<trkpt lat="45.9185020" lon="10.3003030">
	<ele>802.00</ele>
	<time>2025-07-29T12:17:27.000Z</time>
</trkpt>
<trkpt lat="45.9185140" lon="10.3002920">
	<ele>801.80</ele>
	<time>2025-07-29T12:17:28.000Z</time>
</trkpt>
<trkpt lat="45.9185270" lon="10.3002880">
	<ele>801.60</ele>
	<time>2025-07-29T12:17:29.000Z</time>
</trkpt>
<trkpt lat="45.9185380" lon="10.3002840">
	<ele>801.40</ele>
	<time>2025-07-29T12:17:30.000Z</time>
</trkpt>
<trkpt lat="45.9185510" lon="10.3002810">
	<ele>801.40</ele>
	<time>2025-07-29T12:17:31.000Z</time>
</trkpt>
<trkpt lat="45.9185640" lon="10.3002690">
	<ele>801.00</ele>
	<time>2025-07-29T12:17:32.000Z</time>
</trkpt>
<trkpt lat="45.9185790" lon="10.3002510">
	<ele>800.80</ele>
	<time>2025-07-29T12:17:33.000Z</time>
</trkpt>
<trkpt lat="45.9185910" lon="10.3002380">
	<ele>800.60</ele>
	<time>2025-07-29T12:17:34.000Z</time>
</trkpt>
<trkpt lat="45.9186050" lon="10.3002250">
	<ele>800.40</ele>
	<time>2025-07-29T12:17:35.000Z</time>
</trkpt>
<trkpt lat="45.9186130" lon="10.3002080">
	<ele>800.20</ele>
	<time>2025-07-29T12:17:36.000Z</time>
</trkpt>
<trkpt lat="45.9186190" lon="10.3001860">
	<ele>800.20</ele>
	<time>2025-07-29T12:17:37.000Z</time>
</trkpt>
<trkpt lat="45.9186280" lon="10.3001690">
	<ele>800.00</ele>
	<time>2025-07-29T12:17:38.000Z</time>
</trkpt>
<trkpt lat="45.9186340" lon="10.3001490">
	<ele>799.80</ele>
	<time>2025-07-29T12:17:39.000Z</time>
</trkpt>
<trkpt lat="45.9186440" lon="10.3001310">
	<ele>799.60</ele>
	<time>2025-07-29T12:17:40.000Z</time>
</trkpt>
<trkpt lat="45.9186570" lon="10.3001190">
	<ele>799.40</ele>
	<time>2025-07-29T12:17:41.000Z</time>
</trkpt>
<trkpt lat="45.9186690" lon="10.3001120">
	<ele>799.20</ele>
	<time>2025-07-29T12:17:42.000Z</time>
</trkpt>
<trkpt lat="45.9186820" lon="10.3001030">
	<ele>798.80</ele>
	<time>2025-07-29T12:17:43.000Z</time>
</trkpt>
<trkpt lat="45.9186960" lon="10.3000950">
	<ele>798.60</ele>
	<time>2025-07-29T12:17:44.000Z</time>
</trkpt>
<trkpt lat="45.9187090" lon="10.3000870">
	<ele>798.40</ele>
	<time>2025-07-29T12:17:45.000Z</time>
</trkpt>
<trkpt lat="45.9187210" lon="10.3000830">
	<ele>798.00</ele>
	<time>2025-07-29T12:17:46.000Z</time>
</trkpt>
<trkpt lat="45.9187290" lon="10.3000800">
	<ele>797.80</ele>
	<time>2025-07-29T12:17:47.000Z</time>
</trkpt>
<trkpt lat="45.9187330" lon="10.3000740">
	<ele>797.40</ele>
	<time>2025-07-29T12:17:48.000Z</time>
</trkpt>
<trkpt lat="45.9187420" lon="10.3000700">
	<ele>797.20</ele>
	<time>2025-07-29T12:17:49.000Z</time>
</trkpt>
<trkpt lat="45.9187520" lon="10.3000670">
	<ele>796.80</ele>
	<time>2025-07-29T12:17:50.000Z</time>
</trkpt>
<trkpt lat="45.9187620" lon="10.3000640">
	<ele>796.60</ele>
	<time>2025-07-29T12:17:51.000Z</time>
</trkpt>
<trkpt lat="45.9187760" lon="10.3000600">
	<ele>796.40</ele>
	<time>2025-07-29T12:17:52.000Z</time>
</trkpt>
<trkpt lat="45.9187910" lon="10.3000570">
	<ele>796.00</ele>
	<time>2025-07-29T12:17:53.000Z</time>
</trkpt>
<trkpt lat="45.9187990" lon="10.3000580">
	<ele>795.80</ele>
	<time>2025-07-29T12:17:54.000Z</time>
</trkpt>
<trkpt lat="45.9188100" lon="10.3000590">
	<ele>795.40</ele>
	<time>2025-07-29T12:17:55.000Z</time>
</trkpt>
<trkpt lat="45.9188220" lon="10.3000520">
	<ele>795.00</ele>
	<time>2025-07-29T12:17:56.000Z</time>
</trkpt>
<trkpt lat="45.9188370" lon="10.3000400">
	<ele>794.80</ele>
	<time>2025-07-29T12:17:57.000Z</time>
</trkpt>
<trkpt lat="45.9188490" lon="10.3000320">
	<ele>794.20</ele>
	<time>2025-07-29T12:17:58.000Z</time>
</trkpt>
<trkpt lat="45.9188570" lon="10.3000280">
	<ele>793.80</ele>
	<time>2025-07-29T12:17:59.000Z</time>
</trkpt>
<trkpt lat="45.9188650" lon="10.3000230">
	<ele>793.60</ele>
	<time>2025-07-29T12:18:00.000Z</time>
</trkpt>
<trkpt lat="45.9188760" lon="10.3000130">
	<ele>793.20</ele>
	<time>2025-07-29T12:18:01.000Z</time>
</trkpt>
<trkpt lat="45.9188890" lon="10.3000000">
	<ele>793.00</ele>
	<time>2025-07-29T12:18:02.000Z</time>
</trkpt>
<trkpt lat="45.9188980" lon="10.2999860">
	<ele>792.80</ele>
	<time>2025-07-29T12:18:03.000Z</time>
</trkpt>
<trkpt lat="45.9189060" lon="10.2999700">
	<ele>792.60</ele>
	<time>2025-07-29T12:18:04.000Z</time>
</trkpt>
<trkpt lat="45.9189160" lon="10.2999500">
	<ele>792.20</ele>
	<time>2025-07-29T12:18:05.000Z</time>
</trkpt>
<trkpt lat="45.9189280" lon="10.2999320">
	<ele>792.00</ele>
	<time>2025-07-29T12:18:06.000Z</time>
</trkpt>
<trkpt lat="45.9189400" lon="10.2999160">
	<ele>791.80</ele>
	<time>2025-07-29T12:18:07.000Z</time>
</trkpt>
<trkpt lat="45.9189500" lon="10.2998970">
	<ele>791.40</ele>
	<time>2025-07-29T12:18:08.000Z</time>
</trkpt>
<trkpt lat="45.9189600" lon="10.2998840">
	<ele>791.20</ele>
	<time>2025-07-29T12:18:09.000Z</time>
</trkpt>
<trkpt lat="45.9189720" lon="10.2998690">
	<ele>791.00</ele>
	<time>2025-07-29T12:18:10.000Z</time>
</trkpt>
<trkpt lat="45.9189820" lon="10.2998510">
	<ele>790.80</ele>
	<time>2025-07-29T12:18:11.000Z</time>
</trkpt>
<trkpt lat="45.9189920" lon="10.2998400">
	<ele>790.60</ele>
	<time>2025-07-29T12:18:12.000Z</time>
</trkpt>
<trkpt lat="45.9189990" lon="10.2998300">
	<ele>790.40</ele>
	<time>2025-07-29T12:18:13.000Z</time>
</trkpt>
<trkpt lat="45.9190040" lon="10.2998140">
	<ele>790.20</ele>
	<time>2025-07-29T12:18:14.000Z</time>
</trkpt>
<trkpt lat="45.9190130" lon="10.2997940">
	<ele>790.00</ele>
	<time>2025-07-29T12:18:15.000Z</time>
</trkpt>
<trkpt lat="45.9190240" lon="10.2997750">
	<ele>789.80</ele>
	<time>2025-07-29T12:18:16.000Z</time>
</trkpt>
<trkpt lat="45.9190290" lon="10.2997600">
	<ele>789.60</ele>
	<time>2025-07-29T12:18:17.000Z</time>
</trkpt>
<trkpt lat="45.9190370" lon="10.2997400">
	<ele>789.40</ele>
	<time>2025-07-29T12:18:18.000Z</time>
</trkpt>
<trkpt lat="45.9190490" lon="10.2997210">
	<ele>789.20</ele>
	<time>2025-07-29T12:18:19.000Z</time>
</trkpt>
<trkpt lat="45.9190620" lon="10.2997090">
	<ele>788.80</ele>
	<time>2025-07-29T12:18:20.000Z</time>
</trkpt>
<trkpt lat="45.9190650" lon="10.2997000">
	<ele>788.60</ele>
	<time>2025-07-29T12:18:21.000Z</time>
</trkpt>
<trkpt lat="45.9190710" lon="10.2996830">
	<ele>788.40</ele>
	<time>2025-07-29T12:18:22.000Z</time>
</trkpt>
<trkpt lat="45.9190790" lon="10.2996640">
	<ele>788.40</ele>
	<time>2025-07-29T12:18:23.000Z</time>
</trkpt>
<trkpt lat="45.9190910" lon="10.2996490">
	<ele>788.20</ele>
	<time>2025-07-29T12:18:24.000Z</time>
</trkpt>
<trkpt lat="45.9191010" lon="10.2996370">
	<ele>788.00</ele>
	<time>2025-07-29T12:18:25.000Z</time>
</trkpt>
<trkpt lat="45.9191090" lon="10.2996220">
	<ele>787.80</ele>
	<time>2025-07-29T12:18:26.000Z</time>
</trkpt>
<trkpt lat="45.9191200" lon="10.2996140">
	<ele>787.60</ele>
	<time>2025-07-29T12:18:27.000Z</time>
</trkpt>
<trkpt lat="45.9191330" lon="10.2996060">
	<ele>787.40</ele>
	<time>2025-07-29T12:18:28.000Z</time>
</trkpt>
<trkpt lat="45.9191430" lon="10.2996010">
	<ele>787.40</ele>
	<time>2025-07-29T12:18:29.000Z</time>
</trkpt>
<trkpt lat="45.9191510" lon="10.2995940">
	<ele>787.40</ele>
	<time>2025-07-29T12:18:30.000Z</time>
</trkpt>
<trkpt lat="45.9191570" lon="10.2995890">
	<ele>787.20</ele>
	<time>2025-07-29T12:18:31.000Z</time>
</trkpt>
<trkpt lat="45.9191550" lon="10.2995810">
	<ele>787.20</ele>
	<time>2025-07-29T12:18:32.000Z</time>
</trkpt>
<trkpt lat="45.9191500" lon="10.2995690">
	<ele>787.00</ele>
	<time>2025-07-29T12:18:33.000Z</time>
</trkpt>
<trkpt lat="45.9191530" lon="10.2995510">
	<ele>787.00</ele>
	<time>2025-07-29T12:18:34.000Z</time>
</trkpt>
<trkpt lat="45.9191620" lon="10.2995260">
	<ele>786.80</ele>
	<time>2025-07-29T12:18:35.000Z</time>
</trkpt>
<trkpt lat="45.9191660" lon="10.2995130">
	<ele>786.60</ele>
	<time>2025-07-29T12:18:36.000Z</time>
</trkpt>
<trkpt lat="45.9191840" lon="10.2994890">
	<ele>786.40</ele>
	<time>2025-07-29T12:18:37.000Z</time>
</trkpt>
<trkpt lat="45.9192010" lon="10.2994620">
	<ele>786.40</ele>
	<time>2025-07-29T12:18:38.000Z</time>
</trkpt>
<trkpt lat="45.9192150" lon="10.2994370">
	<ele>786.20</ele>
	<time>2025-07-29T12:18:39.000Z</time>
</trkpt>
<trkpt lat="45.9192220" lon="10.2994230">
	<ele>785.80</ele>
	<time>2025-07-29T12:18:40.000Z</time>
</trkpt>
<trkpt lat="45.9192370" lon="10.2994070">
	<ele>785.60</ele>
	<time>2025-07-29T12:18:41.000Z</time>
</trkpt>
<trkpt lat="45.9192530" lon="10.2993960">
	<ele>785.40</ele>
	<time>2025-07-29T12:18:42.000Z</time>
</trkpt>
<trkpt lat="45.9192710" lon="10.2993880">
	<ele>785.40</ele>
	<time>2025-07-29T12:18:43.000Z</time>
</trkpt>
<trkpt lat="45.9192740" lon="10.2993800">
	<ele>785.20</ele>
	<time>2025-07-29T12:18:44.000Z</time>
</trkpt>
<trkpt lat="45.9192900" lon="10.2993590">
	<ele>785.00</ele>
	<time>2025-07-29T12:18:45.000Z</time>
</trkpt>
<trkpt lat="45.9192970" lon="10.2993500">
	<ele>785.00</ele>
	<time>2025-07-29T12:18:46.000Z</time>
</trkpt>
<trkpt lat="45.9193030" lon="10.2993330">
	<ele>784.80</ele>
	<time>2025-07-29T12:18:47.000Z</time>
</trkpt>
<trkpt lat="45.9193110" lon="10.2993210">
	<ele>784.60</ele>
	<time>2025-07-29T12:18:48.000Z</time>
</trkpt>
<trkpt lat="45.9193210" lon="10.2993000">
	<ele>784.20</ele>
	<time>2025-07-29T12:18:49.000Z</time>
</trkpt>
<trkpt lat="45.9193230" lon="10.2992930">
	<ele>784.00</ele>
	<time>2025-07-29T12:18:50.000Z</time>
</trkpt>
<trkpt lat="45.9193360" lon="10.2992700">
	<ele>783.80</ele>
	<time>2025-07-29T12:18:51.000Z</time>
</trkpt>
<trkpt lat="45.9193470" lon="10.2992490">
	<ele>783.60</ele>
	<time>2025-07-29T12:18:52.000Z</time>
</trkpt>
<trkpt lat="45.9193630" lon="10.2992290">
	<ele>783.60</ele>
	<time>2025-07-29T12:18:53.000Z</time>
</trkpt>
<trkpt lat="45.9193680" lon="10.2992160">
	<ele>783.40</ele>
	<time>2025-07-29T12:18:54.000Z</time>
</trkpt>
<trkpt lat="45.9193700" lon="10.2992090">
	<ele>783.20</ele>
	<time>2025-07-29T12:18:55.000Z</time>
</trkpt>
<trkpt lat="45.9193650" lon="10.2991960">
	<ele>783.00</ele>
	<time>2025-07-29T12:18:56.000Z</time>
</trkpt>
<trkpt lat="45.9193610" lon="10.2991660">
	<ele>782.80</ele>
	<time>2025-07-29T12:18:57.000Z</time>
</trkpt>
<trkpt lat="45.9193600" lon="10.2991450">
	<ele>782.80</ele>
	<time>2025-07-29T12:18:58.000Z</time>
</trkpt>
<trkpt lat="45.9193640" lon="10.2991270">
	<ele>782.60</ele>
	<time>2025-07-29T12:18:59.000Z</time>
</trkpt>
<trkpt lat="45.9193780" lon="10.2991090">
	<ele>782.40</ele>
	<time>2025-07-29T12:19:00.000Z</time>
</trkpt>
<trkpt lat="45.9193900" lon="10.2990890">
	<ele>782.20</ele>
	<time>2025-07-29T12:19:01.000Z</time>
</trkpt>
<trkpt lat="45.9194090" lon="10.2990590">
	<ele>782.00</ele>
	<time>2025-07-29T12:19:02.000Z</time>
</trkpt>
<trkpt lat="45.9194250" lon="10.2990310">
	<ele>782.00</ele>
	<time>2025-07-29T12:19:03.000Z</time>
</trkpt>
<trkpt lat="45.9194370" lon="10.2990080">
	<ele>781.80</ele>
	<time>2025-07-29T12:19:04.000Z</time>
</trkpt>
<trkpt lat="45.9194480" lon="10.2989800">
	<ele>781.60</ele>
	<time>2025-07-29T12:19:05.000Z</time>
</trkpt>
<trkpt lat="45.9194470" lon="10.2989520">
	<ele>781.60</ele>
	<time>2025-07-29T12:19:06.000Z</time>
</trkpt>
<trkpt lat="45.9194500" lon="10.2989320">
	<ele>781.40</ele>
	<time>2025-07-29T12:19:07.000Z</time>
</trkpt>
<trkpt lat="45.9194510" lon="10.2989120">
	<ele>781.20</ele>
	<time>2025-07-29T12:19:08.000Z</time>
</trkpt>
<trkpt lat="45.9194600" lon="10.2988890">
	<ele>781.20</ele>
	<time>2025-07-29T12:19:09.000Z</time>
</trkpt>
<trkpt lat="45.9194650" lon="10.2988620">
	<ele>781.00</ele>
	<time>2025-07-29T12:19:10.000Z</time>
</trkpt>
<trkpt lat="45.9194690" lon="10.2988410">
	<ele>781.00</ele>
	<time>2025-07-29T12:19:11.000Z</time>
</trkpt>
<trkpt lat="45.9194690" lon="10.2988260">
	<ele>780.80</ele>
	<time>2025-07-29T12:19:12.000Z</time>
</trkpt>
<trkpt lat="45.9194660" lon="10.2988160">
	<ele>780.80</ele>
	<time>2025-07-29T12:19:13.000Z</time>
</trkpt>
<trkpt lat="45.9194660" lon="10.2988040">
	<ele>780.60</ele>
	<time>2025-07-29T12:19:14.000Z</time>
</trkpt>
<trkpt lat="45.9194750" lon="10.2987910">
	<ele>780.40</ele>
	<time>2025-07-29T12:19:15.000Z</time>
</trkpt>
<trkpt lat="45.9194880" lon="10.2987720">
	<ele>780.40</ele>
	<time>2025-07-29T12:19:16.000Z</time>
</trkpt>
<trkpt lat="45.9195020" lon="10.2987510">
	<ele>780.20</ele>
	<time>2025-07-29T12:19:17.000Z</time>
</trkpt>
<trkpt lat="45.9195080" lon="10.2987200">
	<ele>780.20</ele>
	<time>2025-07-29T12:19:18.000Z</time>
</trkpt>
<trkpt lat="45.9195170" lon="10.2986950">
	<ele>780.00</ele>
	<time>2025-07-29T12:19:19.000Z</time>
</trkpt>
<trkpt lat="45.9195240" lon="10.2986720">
	<ele>779.80</ele>
	<time>2025-07-29T12:19:20.000Z</time>
</trkpt>
<trkpt lat="45.9195280" lon="10.2986500">
	<ele>779.60</ele>
	<time>2025-07-29T12:19:21.000Z</time>
</trkpt>
<trkpt lat="45.9195360" lon="10.2986250">
	<ele>779.60</ele>
	<time>2025-07-29T12:19:22.000Z</time>
</trkpt>
<trkpt lat="45.9195390" lon="10.2985960">
	<ele>779.40</ele>
	<time>2025-07-29T12:19:23.000Z</time>
</trkpt>
<trkpt lat="45.9195450" lon="10.2985710">
	<ele>779.20</ele>
	<time>2025-07-29T12:19:24.000Z</time>
</trkpt>
<trkpt lat="45.9195470" lon="10.2985540">
	<ele>779.00</ele>
	<time>2025-07-29T12:19:25.000Z</time>
</trkpt>
<trkpt lat="45.9195620" lon="10.2985490">
	<ele>779.00</ele>
	<time>2025-07-29T12:19:26.000Z</time>
</trkpt>
<trkpt lat="45.9195730" lon="10.2985420">
	<ele>778.80</ele>
	<time>2025-07-29T12:19:27.000Z</time>
</trkpt>
<trkpt lat="45.9195870" lon="10.2985270">
	<ele>778.60</ele>
	<time>2025-07-29T12:19:28.000Z</time>
</trkpt>
<trkpt lat="45.9195960" lon="10.2985140">
	<ele>778.60</ele>
	<time>2025-07-29T12:19:29.000Z</time>
</trkpt>
<trkpt lat="45.9196010" lon="10.2985060">
	<ele>778.60</ele>
	<time>2025-07-29T12:19:30.000Z</time>
</trkpt>
<trkpt lat="45.9196130" lon="10.2984960">
	<ele>778.40</ele>
	<time>2025-07-29T12:19:31.000Z</time>
</trkpt>
<trkpt lat="45.9196240" lon="10.2984810">
	<ele>778.20</ele>
	<time>2025-07-29T12:19:32.000Z</time>
</trkpt>
<trkpt lat="45.9196310" lon="10.2984680">
	<ele>778.20</ele>
	<time>2025-07-29T12:19:33.000Z</time>
</trkpt>
<trkpt lat="45.9196350" lon="10.2984470">
	<ele>778.00</ele>
	<time>2025-07-29T12:19:34.000Z</time>
</trkpt>
<trkpt lat="45.9196350" lon="10.2984360">
	<ele>778.00</ele>
	<time>2025-07-29T12:19:35.000Z</time>
</trkpt>
<trkpt lat="45.9196330" lon="10.2984250">
	<ele>777.80</ele>
	<time>2025-07-29T12:19:36.000Z</time>
</trkpt>
<trkpt lat="45.9196470" lon="10.2984090">
	<ele>777.40</ele>
	<time>2025-07-29T12:19:37.000Z</time>
</trkpt>
<trkpt lat="45.9196510" lon="10.2983930">
	<ele>777.40</ele>
	<time>2025-07-29T12:19:38.000Z</time>
</trkpt>
<trkpt lat="45.9196460" lon="10.2983790">
	<ele>777.20</ele>
	<time>2025-07-29T12:19:39.000Z</time>
</trkpt>
<trkpt lat="45.9196470" lon="10.2983660">
	<ele>777.00</ele>
	<time>2025-07-29T12:19:40.000Z</time>
</trkpt>
<trkpt lat="45.9196480" lon="10.2983520">
	<ele>776.80</ele>
	<time>2025-07-29T12:19:41.000Z</time>
</trkpt>
<trkpt lat="45.9196550" lon="10.2983390">
	<ele>776.60</ele>
	<time>2025-07-29T12:19:42.000Z</time>
</trkpt>
<trkpt lat="45.9196710" lon="10.2983230">
	<ele>776.40</ele>
	<time>2025-07-29T12:19:43.000Z</time>
</trkpt>
<trkpt lat="45.9196820" lon="10.2983130">
	<ele>776.20</ele>
	<time>2025-07-29T12:19:44.000Z</time>
</trkpt>
<trkpt lat="45.9196920" lon="10.2982990">
	<ele>776.00</ele>
	<time>2025-07-29T12:19:45.000Z</time>
</trkpt>
<trkpt lat="45.9197090" lon="10.2982910">
	<ele>775.80</ele>
	<time>2025-07-29T12:19:46.000Z</time>
</trkpt>
<trkpt lat="45.9197240" lon="10.2982790">
	<ele>775.40</ele>
	<time>2025-07-29T12:19:47.000Z</time>
</trkpt>
<trkpt lat="45.9197450" lon="10.2982620">
	<ele>775.40</ele>
	<time>2025-07-29T12:19:48.000Z</time>
</trkpt>
<trkpt lat="45.9197640" lon="10.2982480">
	<ele>775.20</ele>
	<time>2025-07-29T12:19:49.000Z</time>
</trkpt>
<trkpt lat="45.9197720" lon="10.2982370">
	<ele>775.00</ele>
	<time>2025-07-29T12:19:50.000Z</time>
</trkpt>
<trkpt lat="45.9197870" lon="10.2982210">
	<ele>774.80</ele>
	<time>2025-07-29T12:19:51.000Z</time>
</trkpt>
<trkpt lat="45.9198060" lon="10.2982020">
	<ele>774.60</ele>
	<time>2025-07-29T12:19:52.000Z</time>
</trkpt>
<trkpt lat="45.9198160" lon="10.2981770">
	<ele>774.60</ele>
	<time>2025-07-29T12:19:53.000Z</time>
</trkpt>
<trkpt lat="45.9198320" lon="10.2981610">
	<ele>774.40</ele>
	<time>2025-07-29T12:19:54.000Z</time>
</trkpt>
<trkpt lat="45.9198350" lon="10.2981400">
	<ele>774.20</ele>
	<time>2025-07-29T12:19:55.000Z</time>
</trkpt>
<trkpt lat="45.9198310" lon="10.2981280">
	<ele>774.00</ele>
	<time>2025-07-29T12:19:56.000Z</time>
</trkpt>
<trkpt lat="45.9198100" lon="10.2981160">
	<ele>773.80</ele>
	<time>2025-07-29T12:19:57.000Z</time>
</trkpt>
<trkpt lat="45.9198030" lon="10.2981010">
	<ele>773.40</ele>
	<time>2025-07-29T12:19:58.000Z</time>
</trkpt>
<trkpt lat="45.9198000" lon="10.2980830">
	<ele>773.20</ele>
	<time>2025-07-29T12:19:59.000Z</time>
</trkpt>
<trkpt lat="45.9198160" lon="10.2980640">
	<ele>773.20</ele>
	<time>2025-07-29T12:20:00.000Z</time>
</trkpt>
<trkpt lat="45.9198190" lon="10.2980560">
	<ele>773.00</ele>
	<time>2025-07-29T12:20:01.000Z</time>
</trkpt>
<trkpt lat="45.9198220" lon="10.2980410">
	<ele>772.80</ele>
	<time>2025-07-29T12:20:02.000Z</time>
</trkpt>
<trkpt lat="45.9198290" lon="10.2980200">
	<ele>772.80</ele>
	<time>2025-07-29T12:20:03.000Z</time>
</trkpt>
<trkpt lat="45.9198280" lon="10.2980120">
	<ele>772.60</ele>
	<time>2025-07-29T12:20:04.000Z</time>
</trkpt>
<trkpt lat="45.9198300" lon="10.2980070">
	<ele>772.60</ele>
	<time>2025-07-29T12:20:05.000Z</time>
</trkpt>
<trkpt lat="45.9198280" lon="10.2980010">
	<ele>772.40</ele>
	<time>2025-07-29T12:20:06.000Z</time>
</trkpt>
<trkpt lat="45.9198320" lon="10.2979840">
	<ele>772.40</ele>
	<time>2025-07-29T12:20:07.000Z</time>
</trkpt>
<trkpt lat="45.9198220" lon="10.2979710">
	<ele>772.20</ele>
	<time>2025-07-29T12:20:08.000Z</time>
</trkpt>
<trkpt lat="45.9198120" lon="10.2979480">
	<ele>772.00</ele>
	<time>2025-07-29T12:20:09.000Z</time>
</trkpt>
<trkpt lat="45.9198010" lon="10.2979260">
	<ele>771.80</ele>
	<time>2025-07-29T12:20:10.000Z</time>
</trkpt>
<trkpt lat="45.9197940" lon="10.2979050">
	<ele>771.60</ele>
	<time>2025-07-29T12:20:11.000Z</time>
</trkpt>
<trkpt lat="45.9197900" lon="10.2978980">
	<ele>771.40</ele>
	<time>2025-07-29T12:20:12.000Z</time>
</trkpt>
<trkpt lat="45.9197870" lon="10.2978810">
	<ele>771.20</ele>
	<time>2025-07-29T12:20:13.000Z</time>
</trkpt>
<trkpt lat="45.9197810" lon="10.2978670">
	<ele>771.00</ele>
	<time>2025-07-29T12:20:14.000Z</time>
</trkpt>
<trkpt lat="45.9197680" lon="10.2978600">
	<ele>770.80</ele>
	<time>2025-07-29T12:20:15.000Z</time>
</trkpt>
<trkpt lat="45.9197580" lon="10.2978470">
	<ele>770.60</ele>
	<time>2025-07-29T12:20:16.000Z</time>
</trkpt>
<trkpt lat="45.9197540" lon="10.2978270">
	<ele>770.60</ele>
	<time>2025-07-29T12:20:17.000Z</time>
</trkpt>
<trkpt lat="45.9197600" lon="10.2978040">
	<ele>770.40</ele>
	<time>2025-07-29T12:20:18.000Z</time>
</trkpt>
<trkpt lat="45.9197660" lon="10.2977800">
	<ele>770.40</ele>
	<time>2025-07-29T12:20:19.000Z</time>
</trkpt>
<trkpt lat="45.9197660" lon="10.2977600">
	<ele>770.40</ele>
	<time>2025-07-29T12:20:20.000Z</time>
</trkpt>
<trkpt lat="45.9197670" lon="10.2977370">
	<ele>770.20</ele>
	<time>2025-07-29T12:20:21.000Z</time>
</trkpt>
<trkpt lat="45.9197690" lon="10.2977150">
	<ele>770.00</ele>
	<time>2025-07-29T12:20:22.000Z</time>
</trkpt>
<trkpt lat="45.9197680" lon="10.2976990">
	<ele>769.80</ele>
	<time>2025-07-29T12:20:23.000Z</time>
</trkpt>
<trkpt lat="45.9197690" lon="10.2976810">
	<ele>769.60</ele>
	<time>2025-07-29T12:20:24.000Z</time>
</trkpt>
<trkpt lat="45.9197760" lon="10.2976630">
	<ele>769.60</ele>
	<time>2025-07-29T12:20:25.000Z</time>
</trkpt>
<trkpt lat="45.9197750" lon="10.2976550">
	<ele>769.40</ele>
	<time>2025-07-29T12:20:26.000Z</time>
</trkpt>
<trkpt lat="45.9197740" lon="10.2976500">
	<ele>769.40</ele>
	<time>2025-07-29T12:20:27.000Z</time>
</trkpt>
<trkpt lat="45.9197730" lon="10.2976460">
	<ele>769.20</ele>
	<time>2025-07-29T12:20:28.000Z</time>
</trkpt>
<trkpt lat="45.9197710" lon="10.2976430">
	<ele>769.00</ele>
	<time>2025-07-29T12:20:29.000Z</time>
</trkpt>
<trkpt lat="45.9197700" lon="10.2976260">
	<ele>769.00</ele>
	<time>2025-07-29T12:20:30.000Z</time>
</trkpt>
<trkpt lat="45.9197690" lon="10.2976070">
	<ele>769.00</ele>
	<time>2025-07-29T12:20:31.000Z</time>
</trkpt>
<trkpt lat="45.9197690" lon="10.2976020">
	<ele>769.00</ele>
	<time>2025-07-29T12:20:32.000Z</time>
</trkpt>
<trkpt lat="45.9197730" lon="10.2975900">
	<ele>769.00</ele>
	<time>2025-07-29T12:20:33.000Z</time>
</trkpt>
<trkpt lat="45.9197710" lon="10.2975890">
	<ele>769.00</ele>
	<time>2025-07-29T12:20:34.000Z</time>
</trkpt>
<trkpt lat="45.9197690" lon="10.2975880">
	<ele>769.00</ele>
	<time>2025-07-29T12:20:35.000Z</time>
</trkpt>
<trkpt lat="45.9197680" lon="10.2975890">
	<ele>769.00</ele>
	<time>2025-07-29T12:20:36.000Z</time>
</trkpt>
<trkpt lat="45.9197680" lon="10.2975910">
	<ele>769.00</ele>
	<time>2025-07-29T12:20:37.000Z</time>
</trkpt>
<trkpt lat="45.9197680" lon="10.2975920">
	<ele>769.00</ele>
	<time>2025-07-29T12:20:38.000Z</time>
</trkpt>
<trkpt lat="45.9197720" lon="10.2975900">
	<ele>769.00</ele>
	<time>2025-07-29T12:20:39.000Z</time>
</trkpt>
<trkpt lat="45.9197820" lon="10.2975830">
	<ele>769.00</ele>
	<time>2025-07-29T12:20:40.000Z</time>
</trkpt>
<trkpt lat="45.9197860" lon="10.2975690">
	<ele>769.00</ele>
	<time>2025-07-29T12:20:41.000Z</time>
</trkpt>
<trkpt lat="45.9197890" lon="10.2975590">
	<ele>768.80</ele>
	<time>2025-07-29T12:20:42.000Z</time>
</trkpt>
<trkpt lat="45.9197870" lon="10.2975490">
	<ele>768.60</ele>
	<time>2025-07-29T12:20:43.000Z</time>
</trkpt>
<trkpt lat="45.9197940" lon="10.2975370">
	<ele>768.40</ele>
	<time>2025-07-29T12:20:44.000Z</time>
</trkpt>
<trkpt lat="45.9198030" lon="10.2975280">
	<ele>768.40</ele>
	<time>2025-07-29T12:20:45.000Z</time>
</trkpt>
<trkpt lat="45.9198020" lon="10.2975260">
	<ele>768.20</ele>
	<time>2025-07-29T12:20:46.000Z</time>
</trkpt>
<trkpt lat="45.9197990" lon="10.2975260">
	<ele>768.20</ele>
	<time>2025-07-29T12:20:47.000Z</time>
</trkpt>
<trkpt lat="45.9197910" lon="10.2975200">
	<ele>768.00</ele>
	<time>2025-07-29T12:20:48.000Z</time>
</trkpt>
<trkpt lat="45.9197820" lon="10.2975190">
	<ele>768.00</ele>
	<time>2025-07-29T12:20:49.000Z</time>
</trkpt>
<trkpt lat="45.9197740" lon="10.2975140">
	<ele>768.00</ele>
	<time>2025-07-29T12:20:50.000Z</time>
</trkpt>
<trkpt lat="45.9197670" lon="10.2975080">
	<ele>768.00</ele>
	<time>2025-07-29T12:20:51.000Z</time>
</trkpt>
<trkpt lat="45.9197550" lon="10.2975280">
	<ele>767.80</ele>
	<time>2025-07-29T12:20:52.000Z</time>
</trkpt>
<trkpt lat="45.9197400" lon="10.2975570">
	<ele>767.80</ele>
	<time>2025-07-29T12:20:53.000Z</time>
</trkpt>
<trkpt lat="45.9197320" lon="10.2975740">
	<ele>767.80</ele>
	<time>2025-07-29T12:20:54.000Z</time>
</trkpt>
<trkpt lat="45.9197320" lon="10.2975690">
	<ele>767.80</ele>
	<time>2025-07-29T12:20:55.000Z</time>
</trkpt>
<trkpt lat="45.9197330" lon="10.2975660">
	<ele>767.80</ele>
	<time>2025-07-29T12:20:56.000Z</time>
</trkpt>
<trkpt lat="45.9197360" lon="10.2975590">
	<ele>767.80</ele>
	<time>2025-07-29T12:20:57.000Z</time>
</trkpt>
<trkpt lat="45.9197350" lon="10.2975660">
	<ele>767.80</ele>
	<time>2025-07-29T12:20:58.000Z</time>
</trkpt>
<trkpt lat="45.9197420" lon="10.2975450">
	<ele>767.80</ele>
	<time>2025-07-29T12:20:59.000Z</time>
</trkpt>
<trkpt lat="45.9197440" lon="10.2974900">
	<ele>767.80</ele>
	<time>2025-07-29T12:21:00.000Z</time>
</trkpt>
<trkpt lat="45.9197460" lon="10.2974890">
	<ele>767.80</ele>
	<time>2025-07-29T12:21:01.000Z</time>
</trkpt>
<trkpt lat="45.9197540" lon="10.2974590">
	<ele>767.80</ele>
	<time>2025-07-29T12:21:02.000Z</time>
</trkpt>
<trkpt lat="45.9197650" lon="10.2974320">
	<ele>767.80</ele>
	<time>2025-07-29T12:21:03.000Z</time>
</trkpt>
<trkpt lat="45.9197670" lon="10.2974320">
	<ele>767.80</ele>
	<time>2025-07-29T12:21:04.000Z</time>
</trkpt>
<trkpt lat="45.9197660" lon="10.2974300">
	<ele>767.60</ele>
	<time>2025-07-29T12:21:05.000Z</time>
</trkpt>
<trkpt lat="45.9197680" lon="10.2974140">
	<ele>767.60</ele>
	<time>2025-07-29T12:21:06.000Z</time>
</trkpt>
<trkpt lat="45.9197700" lon="10.2974010">
	<ele>767.40</ele>
	<time>2025-07-29T12:21:07.000Z</time>
</trkpt>
<trkpt lat="45.9197710" lon="10.2974000">
	<ele>767.20</ele>
	<time>2025-07-29T12:21:08.000Z</time>
</trkpt>
<trkpt lat="45.9197690" lon="10.2973990">
	<ele>767.00</ele>
	<time>2025-07-29T12:21:09.000Z</time>
</trkpt>
<trkpt lat="45.9197760" lon="10.2973810">
	<ele>766.80</ele>
	<time>2025-07-29T12:21:10.000Z</time>
</trkpt>
<trkpt lat="45.9197830" lon="10.2973600">
	<ele>766.80</ele>
	<time>2025-07-29T12:21:11.000Z</time>
</trkpt>
<trkpt lat="45.9197900" lon="10.2973400">
	<ele>766.60</ele>
	<time>2025-07-29T12:21:12.000Z</time>
</trkpt>
<trkpt lat="45.9197900" lon="10.2973360">
	<ele>766.60</ele>
	<time>2025-07-29T12:21:13.000Z</time>
</trkpt>
<trkpt lat="45.9197910" lon="10.2973350">
	<ele>766.40</ele>
	<time>2025-07-29T12:21:14.000Z</time>
</trkpt>
<trkpt lat="45.9197910" lon="10.2973350">
	<ele>766.40</ele>
	<time>2025-07-29T12:21:15.000Z</time>
</trkpt>
<trkpt lat="45.9197910" lon="10.2973350">
	<ele>766.40</ele>
	<time>2025-07-29T12:21:16.000Z</time>
</trkpt>
<trkpt lat="45.9197900" lon="10.2973320">
	<ele>766.40</ele>
	<time>2025-07-29T12:21:17.000Z</time>
</trkpt>
<trkpt lat="45.9197880" lon="10.2973290">
	<ele>766.20</ele>
	<time>2025-07-29T12:21:18.000Z</time>
</trkpt>
<trkpt lat="45.9197860" lon="10.2973160">
	<ele>766.20</ele>
	<time>2025-07-29T12:21:19.000Z</time>
</trkpt>
<trkpt lat="45.9197850" lon="10.2972990">
	<ele>766.20</ele>
	<time>2025-07-29T12:21:20.000Z</time>
</trkpt>
<trkpt lat="45.9197860" lon="10.2972930">
	<ele>766.00</ele>
	<time>2025-07-29T12:21:21.000Z</time>
</trkpt>
<trkpt lat="45.9197910" lon="10.2972800">
	<ele>765.80</ele>
	<time>2025-07-29T12:21:22.000Z</time>
</trkpt>
<trkpt lat="45.9197970" lon="10.2972690">
	<ele>765.60</ele>
	<time>2025-07-29T12:21:23.000Z</time>
</trkpt>
<trkpt lat="45.9198050" lon="10.2972580">
	<ele>765.20</ele>
	<time>2025-07-29T12:21:24.000Z</time>
</trkpt>
<trkpt lat="45.9198120" lon="10.2972480">
	<ele>765.00</ele>
	<time>2025-07-29T12:21:25.000Z</time>
</trkpt>
<trkpt lat="45.9198150" lon="10.2972480">
	<ele>765.00</ele>
	<time>2025-07-29T12:21:26.000Z</time>
</trkpt>
<trkpt lat="45.9198160" lon="10.2972470">
	<ele>764.80</ele>
	<time>2025-07-29T12:21:27.000Z</time>
</trkpt>
<trkpt lat="45.9198140" lon="10.2972470">
	<ele>764.60</ele>
	<time>2025-07-29T12:21:28.000Z</time>
</trkpt>
<trkpt lat="45.9198150" lon="10.2972460">
	<ele>764.20</ele>
	<time>2025-07-29T12:21:29.000Z</time>
</trkpt>
<trkpt lat="45.9198140" lon="10.2972440">
	<ele>764.00</ele>
	<time>2025-07-29T12:21:30.000Z</time>
</trkpt>
<trkpt lat="45.9198120" lon="10.2972400">
	<ele>763.80</ele>
	<time>2025-07-29T12:21:31.000Z</time>
</trkpt>
<trkpt lat="45.9198080" lon="10.2972350">
	<ele>763.80</ele>
	<time>2025-07-29T12:21:32.000Z</time>
</trkpt>
<trkpt lat="45.9198060" lon="10.2972320">
	<ele>763.60</ele>
	<time>2025-07-29T12:21:33.000Z</time>
</trkpt>
<trkpt lat="45.9198150" lon="10.2972220">
	<ele>763.20</ele>
	<time>2025-07-29T12:21:34.000Z</time>
</trkpt>
<trkpt lat="45.9198170" lon="10.2972170">
	<ele>763.00</ele>
	<time>2025-07-29T12:21:35.000Z</time>
</trkpt>
<trkpt lat="45.9198190" lon="10.2971960">
	<ele>762.60</ele>
	<time>2025-07-29T12:21:36.000Z</time>
</trkpt>
<trkpt lat="45.9198300" lon="10.2971880">
	<ele>762.20</ele>
	<time>2025-07-29T12:21:37.000Z</time>
</trkpt>
<trkpt lat="45.9198430" lon="10.2971840">
	<ele>761.80</ele>
	<time>2025-07-29T12:21:38.000Z</time>
</trkpt>
<trkpt lat="45.9198530" lon="10.2971800">
	<ele>761.20</ele>
	<time>2025-07-29T12:21:39.000Z</time>
</trkpt>
<trkpt lat="45.9198610" lon="10.2971750">
	<ele>761.00</ele>
	<time>2025-07-29T12:21:40.000Z</time>
</trkpt>
<trkpt lat="45.9198630" lon="10.2971770">
	<ele>760.60</ele>
	<time>2025-07-29T12:21:41.000Z</time>
</trkpt>
<trkpt lat="45.9198640" lon="10.2971780">
	<ele>760.20</ele>
	<time>2025-07-29T12:21:42.000Z</time>
</trkpt>
<trkpt lat="45.9198730" lon="10.2971790">
	<ele>760.00</ele>
	<time>2025-07-29T12:21:43.000Z</time>
</trkpt>
<trkpt lat="45.9198920" lon="10.2971780">
	<ele>759.80</ele>
	<time>2025-07-29T12:21:44.000Z</time>
</trkpt>
<trkpt lat="45.9199040" lon="10.2971800">
	<ele>759.40</ele>
	<time>2025-07-29T12:21:45.000Z</time>
</trkpt>
<trkpt lat="45.9199100" lon="10.2971820">
	<ele>758.80</ele>
	<time>2025-07-29T12:21:46.000Z</time>
</trkpt>
<trkpt lat="45.9199230" lon="10.2971820">
	<ele>758.60</ele>
	<time>2025-07-29T12:21:47.000Z</time>
</trkpt>
<trkpt lat="45.9199420" lon="10.2971850">
	<ele>758.20</ele>
	<time>2025-07-29T12:21:48.000Z</time>
</trkpt>
<trkpt lat="45.9199590" lon="10.2971940">
	<ele>758.00</ele>
	<time>2025-07-29T12:21:49.000Z</time>
</trkpt>
<trkpt lat="45.9199750" lon="10.2972070">
	<ele>757.60</ele>
	<time>2025-07-29T12:21:50.000Z</time>
</trkpt>
<trkpt lat="45.9199910" lon="10.2972190">
	<ele>757.60</ele>
	<time>2025-07-29T12:21:51.000Z</time>
</trkpt>
<trkpt lat="45.9200020" lon="10.2972310">
	<ele>757.20</ele>
	<time>2025-07-29T12:21:52.000Z</time>
</trkpt>
<trkpt lat="45.9200110" lon="10.2972420">
	<ele>757.00</ele>
	<time>2025-07-29T12:21:53.000Z</time>
</trkpt>
<trkpt lat="45.9200220" lon="10.2972490">
	<ele>756.80</ele>
	<time>2025-07-29T12:21:54.000Z</time>
</trkpt>
<trkpt lat="45.9200270" lon="10.2972620">
	<ele>756.40</ele>
	<time>2025-07-29T12:21:55.000Z</time>
</trkpt>
<trkpt lat="45.9200440" lon="10.2972680">
	<ele>756.20</ele>
	<time>2025-07-29T12:21:56.000Z</time>
</trkpt>
<trkpt lat="45.9200620" lon="10.2972720">
	<ele>756.00</ele>
	<time>2025-07-29T12:21:57.000Z</time>
</trkpt>
<trkpt lat="45.9200790" lon="10.2972770">
	<ele>755.60</ele>
	<time>2025-07-29T12:21:58.000Z</time>
</trkpt>
<trkpt lat="45.9200970" lon="10.2972840">
	<ele>755.40</ele>
	<time>2025-07-29T12:21:59.000Z</time>
</trkpt>
<trkpt lat="45.9201130" lon="10.2972910">
	<ele>755.00</ele>
	<time>2025-07-29T12:22:00.000Z</time>
</trkpt>
<trkpt lat="45.9201150" lon="10.2972950">
	<ele>754.80</ele>
	<time>2025-07-29T12:22:01.000Z</time>
</trkpt>
<trkpt lat="45.9201250" lon="10.2973050">
	<ele>754.60</ele>
	<time>2025-07-29T12:22:02.000Z</time>
</trkpt>
<trkpt lat="45.9201350" lon="10.2973130">
	<ele>754.40</ele>
	<time>2025-07-29T12:22:03.000Z</time>
</trkpt>
<trkpt lat="45.9201460" lon="10.2973190">
	<ele>754.00</ele>
	<time>2025-07-29T12:22:04.000Z</time>
</trkpt>
<trkpt lat="45.9201640" lon="10.2973230">
	<ele>753.60</ele>
	<time>2025-07-29T12:22:05.000Z</time>
</trkpt>
<trkpt lat="45.9201930" lon="10.2973210">
	<ele>753.20</ele>
	<time>2025-07-29T12:22:06.000Z</time>
</trkpt>
<trkpt lat="45.9202180" lon="10.2973170">
	<ele>752.80</ele>
	<time>2025-07-29T12:22:07.000Z</time>
</trkpt>
<trkpt lat="45.9202390" lon="10.2973150">
	<ele>752.40</ele>
	<time>2025-07-29T12:22:08.000Z</time>
</trkpt>
<trkpt lat="45.9202600" lon="10.2973080">
	<ele>752.00</ele>
	<time>2025-07-29T12:22:09.000Z</time>
</trkpt>
<trkpt lat="45.9202850" lon="10.2973070">
	<ele>751.60</ele>
	<time>2025-07-29T12:22:10.000Z</time>
</trkpt>
<trkpt lat="45.9203050" lon="10.2973060">
	<ele>751.40</ele>
	<time>2025-07-29T12:22:11.000Z</time>
</trkpt>
<trkpt lat="45.9203200" lon="10.2973060">
	<ele>751.00</ele>
	<time>2025-07-29T12:22:12.000Z</time>
</trkpt>
<trkpt lat="45.9203240" lon="10.2973060">
	<ele>750.60</ele>
	<time>2025-07-29T12:22:13.000Z</time>
</trkpt>
<trkpt lat="45.9203270" lon="10.2973050">
	<ele>750.40</ele>
	<time>2025-07-29T12:22:14.000Z</time>
</trkpt>
<trkpt lat="45.9203360" lon="10.2973090">
	<ele>750.00</ele>
	<time>2025-07-29T12:22:15.000Z</time>
</trkpt>
<trkpt lat="45.9203510" lon="10.2973100">
	<ele>749.60</ele>
	<time>2025-07-29T12:22:16.000Z</time>
</trkpt>
<trkpt lat="45.9203800" lon="10.2973080">
	<ele>749.20</ele>
	<time>2025-07-29T12:22:17.000Z</time>
</trkpt>
<trkpt lat="45.9204060" lon="10.2973060">
	<ele>748.80</ele>
	<time>2025-07-29T12:22:18.000Z</time>
</trkpt>
<trkpt lat="45.9204270" lon="10.2973050">
	<ele>748.60</ele>
	<time>2025-07-29T12:22:19.000Z</time>
</trkpt>
<trkpt lat="45.9204490" lon="10.2973000">
	<ele>748.20</ele>
	<time>2025-07-29T12:22:20.000Z</time>
</trkpt>
<trkpt lat="45.9204850" lon="10.2972850">
	<ele>748.00</ele>
	<time>2025-07-29T12:22:21.000Z</time>
</trkpt>
<trkpt lat="45.9204900" lon="10.2972780">
	<ele>747.80</ele>
	<time>2025-07-29T12:22:22.000Z</time>
</trkpt>
<trkpt lat="45.9205100" lon="10.2972750">
	<ele>747.40</ele>
	<time>2025-07-29T12:22:23.000Z</time>
</trkpt>
<trkpt lat="45.9205130" lon="10.2972690">
	<ele>747.00</ele>
	<time>2025-07-29T12:22:24.000Z</time>
</trkpt>
<trkpt lat="45.9205340" lon="10.2972670">
	<ele>746.80</ele>
	<time>2025-07-29T12:22:25.000Z</time>
</trkpt>
<trkpt lat="45.9205560" lon="10.2972570">
	<ele>746.60</ele>
	<time>2025-07-29T12:22:26.000Z</time>
</trkpt>
<trkpt lat="45.9205760" lon="10.2972590">
	<ele>746.40</ele>
	<time>2025-07-29T12:22:27.000Z</time>
</trkpt>
<trkpt lat="45.9205940" lon="10.2972640">
	<ele>746.00</ele>
	<time>2025-07-29T12:22:28.000Z</time>
</trkpt>
<trkpt lat="45.9206060" lon="10.2972730">
	<ele>745.80</ele>
	<time>2025-07-29T12:22:29.000Z</time>
</trkpt>
<trkpt lat="45.9206090" lon="10.2972860">
	<ele>745.40</ele>
	<time>2025-07-29T12:22:30.000Z</time>
</trkpt>
<trkpt lat="45.9206140" lon="10.2973000">
	<ele>745.20</ele>
	<time>2025-07-29T12:22:31.000Z</time>
</trkpt>
<trkpt lat="45.9206190" lon="10.2973050">
	<ele>744.80</ele>
	<time>2025-07-29T12:22:32.000Z</time>
</trkpt>
<trkpt lat="45.9206250" lon="10.2973100">
	<ele>744.60</ele>
	<time>2025-07-29T12:22:33.000Z</time>
</trkpt>
<trkpt lat="45.9206270" lon="10.2973210">
	<ele>744.20</ele>
	<time>2025-07-29T12:22:34.000Z</time>
</trkpt>
<trkpt lat="45.9206310" lon="10.2973320">
	<ele>744.20</ele>
	<time>2025-07-29T12:22:35.000Z</time>
</trkpt>
<trkpt lat="45.9206330" lon="10.2973430">
	<ele>744.00</ele>
	<time>2025-07-29T12:22:36.000Z</time>
</trkpt>
<trkpt lat="45.9206410" lon="10.2973510">
	<ele>743.80</ele>
	<time>2025-07-29T12:22:37.000Z</time>
</trkpt>
<trkpt lat="45.9206500" lon="10.2973590">
	<ele>743.40</ele>
	<time>2025-07-29T12:22:38.000Z</time>
</trkpt>
<trkpt lat="45.9206600" lon="10.2973680">
	<ele>743.20</ele>
	<time>2025-07-29T12:22:39.000Z</time>
</trkpt>
<trkpt lat="45.9206680" lon="10.2973800">
	<ele>743.20</ele>
	<time>2025-07-29T12:22:40.000Z</time>
</trkpt>
<trkpt lat="45.9206750" lon="10.2973910">
	<ele>742.80</ele>
	<time>2025-07-29T12:22:41.000Z</time>
</trkpt>
<trkpt lat="45.9206760" lon="10.2973960">
	<ele>742.40</ele>
	<time>2025-07-29T12:22:42.000Z</time>
</trkpt>
<trkpt lat="45.9206850" lon="10.2973980">
	<ele>742.20</ele>
	<time>2025-07-29T12:22:43.000Z</time>
</trkpt>
<trkpt lat="45.9206930" lon="10.2974020">
	<ele>741.80</ele>
	<time>2025-07-29T12:22:44.000Z</time>
</trkpt>
<trkpt lat="45.9207020" lon="10.2974070">
	<ele>741.60</ele>
	<time>2025-07-29T12:22:45.000Z</time>
</trkpt>
<trkpt lat="45.9207040" lon="10.2974090">
	<ele>741.40</ele>
	<time>2025-07-29T12:22:46.000Z</time>
</trkpt>
<trkpt lat="45.9207190" lon="10.2974080">
	<ele>741.40</ele>
	<time>2025-07-29T12:22:47.000Z</time>
</trkpt>
<trkpt lat="45.9207410" lon="10.2974040">
	<ele>741.00</ele>
	<time>2025-07-29T12:22:48.000Z</time>
</trkpt>
<trkpt lat="45.9207650" lon="10.2974000">
	<ele>741.00</ele>
	<time>2025-07-29T12:22:49.000Z</time>
</trkpt>
<trkpt lat="45.9207910" lon="10.2973950">
	<ele>740.60</ele>
	<time>2025-07-29T12:22:50.000Z</time>
</trkpt>
<trkpt lat="45.9208120" lon="10.2973890">
	<ele>740.40</ele>
	<time>2025-07-29T12:22:51.000Z</time>
</trkpt>
<trkpt lat="45.9208330" lon="10.2973850">
	<ele>740.20</ele>
	<time>2025-07-29T12:22:52.000Z</time>
</trkpt>
<trkpt lat="45.9208520" lon="10.2973800">
	<ele>739.80</ele>
	<time>2025-07-29T12:22:53.000Z</time>
</trkpt>
<trkpt lat="45.9208700" lon="10.2973720">
	<ele>739.60</ele>
	<time>2025-07-29T12:22:54.000Z</time>
</trkpt>
<trkpt lat="45.9208820" lon="10.2973570">
	<ele>739.40</ele>
	<time>2025-07-29T12:22:55.000Z</time>
</trkpt>
<trkpt lat="45.9208900" lon="10.2973400">
	<ele>739.40</ele>
	<time>2025-07-29T12:22:56.000Z</time>
</trkpt>
<trkpt lat="45.9208930" lon="10.2973220">
	<ele>739.00</ele>
	<time>2025-07-29T12:22:57.000Z</time>
</trkpt>
<trkpt lat="45.9209000" lon="10.2972980">
	<ele>738.60</ele>
	<time>2025-07-29T12:22:58.000Z</time>
</trkpt>
<trkpt lat="45.9209100" lon="10.2972760">
	<ele>738.40</ele>
	<time>2025-07-29T12:22:59.000Z</time>
</trkpt>
<trkpt lat="45.9209140" lon="10.2972620">
	<ele>738.20</ele>
	<time>2025-07-29T12:23:00.000Z</time>
</trkpt>
<trkpt lat="45.9209120" lon="10.2972500">
	<ele>738.00</ele>
	<time>2025-07-29T12:23:01.000Z</time>
</trkpt>
<trkpt lat="45.9209070" lon="10.2972350">
	<ele>737.60</ele>
	<time>2025-07-29T12:23:02.000Z</time>
</trkpt>
<trkpt lat="45.9209000" lon="10.2972230">
	<ele>737.20</ele>
	<time>2025-07-29T12:23:03.000Z</time>
</trkpt>
<trkpt lat="45.9208930" lon="10.2972090">
	<ele>737.00</ele>
	<time>2025-07-29T12:23:04.000Z</time>
</trkpt>
<trkpt lat="45.9208870" lon="10.2971920">
	<ele>736.60</ele>
	<time>2025-07-29T12:23:05.000Z</time>
</trkpt>
<trkpt lat="45.9208820" lon="10.2971720">
	<ele>736.40</ele>
	<time>2025-07-29T12:23:06.000Z</time>
</trkpt>
<trkpt lat="45.9208780" lon="10.2971580">
	<ele>736.20</ele>
	<time>2025-07-29T12:23:07.000Z</time>
</trkpt>
<trkpt lat="45.9208690" lon="10.2971460">
	<ele>735.80</ele>
	<time>2025-07-29T12:23:08.000Z</time>
</trkpt>
<trkpt lat="45.9208610" lon="10.2971350">
	<ele>735.40</ele>
	<time>2025-07-29T12:23:09.000Z</time>
</trkpt>
<trkpt lat="45.9208660" lon="10.2971170">
	<ele>735.20</ele>
	<time>2025-07-29T12:23:10.000Z</time>
</trkpt>
<trkpt lat="45.9208840" lon="10.2970890">
	<ele>735.00</ele>
	<time>2025-07-29T12:23:11.000Z</time>
</trkpt>
<trkpt lat="45.9209010" lon="10.2970510">
	<ele>734.60</ele>
	<time>2025-07-29T12:23:12.000Z</time>
</trkpt>
<trkpt lat="45.9209220" lon="10.2970200">
	<ele>734.20</ele>
	<time>2025-07-29T12:23:13.000Z</time>
</trkpt>
<trkpt lat="45.9209280" lon="10.2970040">
	<ele>733.80</ele>
	<time>2025-07-29T12:23:14.000Z</time>
</trkpt>
<trkpt lat="45.9209280" lon="10.2969960">
	<ele>733.40</ele>
	<time>2025-07-29T12:23:15.000Z</time>
</trkpt>
<trkpt lat="45.9209260" lon="10.2969920">
	<ele>733.20</ele>
	<time>2025-07-29T12:23:16.000Z</time>
</trkpt>
<trkpt lat="45.9209310" lon="10.2969810">
	<ele>732.80</ele>
	<time>2025-07-29T12:23:17.000Z</time>
</trkpt>
<trkpt lat="45.9209370" lon="10.2969640">
	<ele>732.60</ele>
	<time>2025-07-29T12:23:18.000Z</time>
</trkpt>
<trkpt lat="45.9209470" lon="10.2969500">
	<ele>732.40</ele>
	<time>2025-07-29T12:23:19.000Z</time>
</trkpt>
<trkpt lat="45.9209560" lon="10.2969280">
	<ele>732.20</ele>
	<time>2025-07-29T12:23:20.000Z</time>
</trkpt>
<trkpt lat="45.9209620" lon="10.2969110">
	<ele>731.60</ele>
	<time>2025-07-29T12:23:21.000Z</time>
</trkpt>
<trkpt lat="45.9209700" lon="10.2968920">
	<ele>731.40</ele>
	<time>2025-07-29T12:23:22.000Z</time>
</trkpt>
<trkpt lat="45.9209720" lon="10.2968880">
	<ele>730.80</ele>
	<time>2025-07-29T12:23:23.000Z</time>
</trkpt>
<trkpt lat="45.9209810" lon="10.2968780">
	<ele>730.40</ele>
	<time>2025-07-29T12:23:24.000Z</time>
</trkpt>
<trkpt lat="45.9209900" lon="10.2968650">
	<ele>730.20</ele>
	<time>2025-07-29T12:23:25.000Z</time>
</trkpt>
<trkpt lat="45.9209940" lon="10.2968540">
	<ele>730.00</ele>
	<time>2025-07-29T12:23:26.000Z</time>
</trkpt>
<trkpt lat="45.9209900" lon="10.2968480">
	<ele>729.80</ele>
	<time>2025-07-29T12:23:27.000Z</time>
</trkpt>
<trkpt lat="45.9209860" lon="10.2968340">
	<ele>729.60</ele>
	<time>2025-07-29T12:23:28.000Z</time>
</trkpt>
<trkpt lat="45.9209930" lon="10.2968280">
	<ele>729.60</ele>
	<time>2025-07-29T12:23:29.000Z</time>
</trkpt>
<trkpt lat="45.9209950" lon="10.2968290">
	<ele>729.60</ele>
	<time>2025-07-29T12:23:30.000Z</time>
</trkpt>
<trkpt lat="45.9209960" lon="10.2968250">
	<ele>729.40</ele>
	<time>2025-07-29T12:23:31.000Z</time>
</trkpt>
<trkpt lat="45.9210030" lon="10.2968180">
	<ele>729.20</ele>
	<time>2025-07-29T12:23:32.000Z</time>
</trkpt>
<trkpt lat="45.9210050" lon="10.2968190">
	<ele>729.20</ele>
	<time>2025-07-29T12:23:33.000Z</time>
</trkpt>
<trkpt lat="45.9210070" lon="10.2968220">
	<ele>729.20</ele>
	<time>2025-07-29T12:23:34.000Z</time>
</trkpt>
<trkpt lat="45.9210100" lon="10.2968240">
	<ele>729.20</ele>
	<time>2025-07-29T12:23:35.000Z</time>
</trkpt>
<trkpt lat="45.9210120" lon="10.2968240">
	<ele>729.00</ele>
	<time>2025-07-29T12:23:36.000Z</time>
</trkpt>
<trkpt lat="45.9210120" lon="10.2968260">
	<ele>729.00</ele>
	<time>2025-07-29T12:23:37.000Z</time>
</trkpt>
<trkpt lat="45.9210110" lon="10.2968240">
	<ele>729.00</ele>
	<time>2025-07-29T12:23:38.000Z</time>
</trkpt>
<trkpt lat="45.9210130" lon="10.2968210">
	<ele>729.00</ele>
	<time>2025-07-29T12:23:39.000Z</time>
</trkpt>
<trkpt lat="45.9210190" lon="10.2968020">
	<ele>728.80</ele>
	<time>2025-07-29T12:23:40.000Z</time>
</trkpt>
<trkpt lat="45.9210240" lon="10.2967880">
	<ele>728.40</ele>
	<time>2025-07-29T12:23:41.000Z</time>
</trkpt>
<trkpt lat="45.9210370" lon="10.2967850">
	<ele>728.00</ele>
	<time>2025-07-29T12:23:42.000Z</time>
</trkpt>
<trkpt lat="45.9210440" lon="10.2967720">
	<ele>727.80</ele>
	<time>2025-07-29T12:23:43.000Z</time>
</trkpt>
<trkpt lat="45.9210540" lon="10.2967600">
	<ele>727.40</ele>
	<time>2025-07-29T12:23:44.000Z</time>
</trkpt>
<trkpt lat="45.9210640" lon="10.2967480">
	<ele>727.20</ele>
	<time>2025-07-29T12:23:45.000Z</time>
</trkpt>
<trkpt lat="45.9210750" lon="10.2967320">
	<ele>727.20</ele>
	<time>2025-07-29T12:23:46.000Z</time>
</trkpt>
<trkpt lat="45.9210800" lon="10.2967270">
	<ele>727.00</ele>
	<time>2025-07-29T12:23:47.000Z</time>
</trkpt>
<trkpt lat="45.9210880" lon="10.2967260">
	<ele>727.00</ele>
	<time>2025-07-29T12:23:48.000Z</time>
</trkpt>
<trkpt lat="45.9210910" lon="10.2967200">
	<ele>726.60</ele>
	<time>2025-07-29T12:23:49.000Z</time>
</trkpt>
<trkpt lat="45.9210940" lon="10.2967160">
	<ele>726.40</ele>
	<time>2025-07-29T12:23:50.000Z</time>
</trkpt>
<trkpt lat="45.9210940" lon="10.2967130">
	<ele>726.40</ele>
	<time>2025-07-29T12:23:51.000Z</time>
</trkpt>
<trkpt lat="45.9210990" lon="10.2967390">
	<ele>726.20</ele>
	<time>2025-07-29T12:23:52.000Z</time>
</trkpt>
<trkpt lat="45.9211040" lon="10.2967510">
	<ele>726.20</ele>
	<time>2025-07-29T12:23:53.000Z</time>
</trkpt>
<trkpt lat="45.9211050" lon="10.2967510">
	<ele>726.20</ele>
	<time>2025-07-29T12:23:54.000Z</time>
</trkpt>
<trkpt lat="45.9211080" lon="10.2967560">
	<ele>726.20</ele>
	<time>2025-07-29T12:23:55.000Z</time>
</trkpt>
<trkpt lat="45.9211170" lon="10.2967510">
	<ele>726.00</ele>
	<time>2025-07-29T12:23:56.000Z</time>
</trkpt>
<trkpt lat="45.9211340" lon="10.2967400">
	<ele>726.00</ele>
	<time>2025-07-29T12:23:57.000Z</time>
</trkpt>
<trkpt lat="45.9211490" lon="10.2967260">
	<ele>725.80</ele>
	<time>2025-07-29T12:23:58.000Z</time>
</trkpt>
<trkpt lat="45.9211660" lon="10.2967100">
	<ele>725.60</ele>
	<time>2025-07-29T12:23:59.000Z</time>
</trkpt>
<trkpt lat="45.9211820" lon="10.2966960">
	<ele>725.40</ele>
	<time>2025-07-29T12:24:00.000Z</time>
</trkpt>
<trkpt lat="45.9211910" lon="10.2966850">
	<ele>725.20</ele>
	<time>2025-07-29T12:24:01.000Z</time>
</trkpt>
<trkpt lat="45.9211950" lon="10.2966810">
	<ele>725.00</ele>
	<time>2025-07-29T12:24:02.000Z</time>
</trkpt>
<trkpt lat="45.9212000" lon="10.2966750">
	<ele>725.00</ele>
	<time>2025-07-29T12:24:03.000Z</time>
</trkpt>
<trkpt lat="45.9212060" lon="10.2966650">
	<ele>724.60</ele>
	<time>2025-07-29T12:24:04.000Z</time>
</trkpt>
<trkpt lat="45.9212170" lon="10.2966610">
	<ele>724.40</ele>
	<time>2025-07-29T12:24:05.000Z</time>
</trkpt>
<trkpt lat="45.9212310" lon="10.2966550">
	<ele>724.00</ele>
	<time>2025-07-29T12:24:06.000Z</time>
</trkpt>
<trkpt lat="45.9212460" lon="10.2966480">
	<ele>723.80</ele>
	<time>2025-07-29T12:24:07.000Z</time>
</trkpt>
<trkpt lat="45.9212660" lon="10.2966400">
	<ele>723.60</ele>
	<time>2025-07-29T12:24:08.000Z</time>
</trkpt>
<trkpt lat="45.9212760" lon="10.2966350">
	<ele>723.40</ele>
	<time>2025-07-29T12:24:09.000Z</time>
</trkpt>
<trkpt lat="45.9212810" lon="10.2966300">
	<ele>723.20</ele>
	<time>2025-07-29T12:24:10.000Z</time>
</trkpt>
<trkpt lat="45.9212980" lon="10.2966230">
	<ele>722.80</ele>
	<time>2025-07-29T12:24:11.000Z</time>
</trkpt>
<trkpt lat="45.9213200" lon="10.2966160">
	<ele>722.40</ele>
	<time>2025-07-29T12:24:12.000Z</time>
</trkpt>
<trkpt lat="45.9213400" lon="10.2966090">
	<ele>722.20</ele>
	<time>2025-07-29T12:24:13.000Z</time>
</trkpt>
<trkpt lat="45.9213640" lon="10.2966050">
	<ele>721.80</ele>
	<time>2025-07-29T12:24:14.000Z</time>
</trkpt>
<trkpt lat="45.9213840" lon="10.2966070">
	<ele>721.60</ele>
	<time>2025-07-29T12:24:15.000Z</time>
</trkpt>
<trkpt lat="45.9214020" lon="10.2966100">
	<ele>721.40</ele>
	<time>2025-07-29T12:24:16.000Z</time>
</trkpt>
<trkpt lat="45.9214200" lon="10.2965990">
	<ele>721.20</ele>
	<time>2025-07-29T12:24:17.000Z</time>
</trkpt>
<trkpt lat="45.9214340" lon="10.2965930">
	<ele>721.20</ele>
	<time>2025-07-29T12:24:18.000Z</time>
</trkpt>
<trkpt lat="45.9214520" lon="10.2965890">
	<ele>720.80</ele>
	<time>2025-07-29T12:24:19.000Z</time>
</trkpt>
<trkpt lat="45.9214640" lon="10.2966100">
	<ele>720.80</ele>
	<time>2025-07-29T12:24:20.000Z</time>
</trkpt>
<trkpt lat="45.9214700" lon="10.2966240">
	<ele>720.60</ele>
	<time>2025-07-29T12:24:21.000Z</time>
</trkpt>
<trkpt lat="45.9214810" lon="10.2966380">
	<ele>720.40</ele>
	<time>2025-07-29T12:24:22.000Z</time>
</trkpt>
<trkpt lat="45.9214880" lon="10.2966590">
	<ele>720.20</ele>
	<time>2025-07-29T12:24:23.000Z</time>
</trkpt>
<trkpt lat="45.9215010" lon="10.2966730">
	<ele>720.20</ele>
	<time>2025-07-29T12:24:24.000Z</time>
</trkpt>
<trkpt lat="45.9215230" lon="10.2966840">
	<ele>720.20</ele>
	<time>2025-07-29T12:24:25.000Z</time>
</trkpt>
<trkpt lat="45.9215370" lon="10.2966980">
	<ele>720.00</ele>
	<time>2025-07-29T12:24:26.000Z</time>
</trkpt>
<trkpt lat="45.9215540" lon="10.2967130">
	<ele>719.80</ele>
	<time>2025-07-29T12:24:27.000Z</time>
</trkpt>
<trkpt lat="45.9215670" lon="10.2967300">
	<ele>719.80</ele>
	<time>2025-07-29T12:24:28.000Z</time>
</trkpt>
<trkpt lat="45.9215780" lon="10.2967490">
	<ele>719.60</ele>
	<time>2025-07-29T12:24:29.000Z</time>
</trkpt>
<trkpt lat="45.9215870" lon="10.2967640">
	<ele>719.40</ele>
	<time>2025-07-29T12:24:30.000Z</time>
</trkpt>
<trkpt lat="45.9215960" lon="10.2967740">
	<ele>719.40</ele>
	<time>2025-07-29T12:24:31.000Z</time>
</trkpt>
<trkpt lat="45.9216150" lon="10.2967890">
	<ele>719.20</ele>
	<time>2025-07-29T12:24:32.000Z</time>
</trkpt>
<trkpt lat="45.9216310" lon="10.2968040">
	<ele>719.20</ele>
	<time>2025-07-29T12:24:33.000Z</time>
</trkpt>
<trkpt lat="45.9216460" lon="10.2968220">
	<ele>719.00</ele>
	<time>2025-07-29T12:24:34.000Z</time>
</trkpt>
<trkpt lat="45.9216520" lon="10.2968380">
	<ele>719.00</ele>
	<time>2025-07-29T12:24:35.000Z</time>
</trkpt>
<trkpt lat="45.9216630" lon="10.2968440">
	<ele>718.80</ele>
	<time>2025-07-29T12:24:36.000Z</time>
</trkpt>
<trkpt lat="45.9216720" lon="10.2968450">
	<ele>718.80</ele>
	<time>2025-07-29T12:24:37.000Z</time>
</trkpt>
<trkpt lat="45.9216740" lon="10.2968520">
	<ele>718.60</ele>
	<time>2025-07-29T12:24:38.000Z</time>
</trkpt>
<trkpt lat="45.9216810" lon="10.2968620">
	<ele>718.40</ele>
	<time>2025-07-29T12:24:39.000Z</time>
</trkpt>
<trkpt lat="45.9216910" lon="10.2968730">
	<ele>718.20</ele>
	<time>2025-07-29T12:24:40.000Z</time>
</trkpt>
<trkpt lat="45.9217010" lon="10.2968850">
	<ele>718.20</ele>
	<time>2025-07-29T12:24:41.000Z</time>
</trkpt>
<trkpt lat="45.9217110" lon="10.2968940">
	<ele>718.00</ele>
	<time>2025-07-29T12:24:42.000Z</time>
</trkpt>
<trkpt lat="45.9217250" lon="10.2969020">
	<ele>718.00</ele>
	<time>2025-07-29T12:24:43.000Z</time>
</trkpt>
<trkpt lat="45.9217420" lon="10.2969090">
	<ele>717.80</ele>
	<time>2025-07-29T12:24:44.000Z</time>
</trkpt>
<trkpt lat="45.9217530" lon="10.2969200">
	<ele>717.80</ele>
	<time>2025-07-29T12:24:45.000Z</time>
</trkpt>
<trkpt lat="45.9217610" lon="10.2969370">
	<ele>717.60</ele>
	<time>2025-07-29T12:24:46.000Z</time>
</trkpt>
<trkpt lat="45.9217720" lon="10.2969540">
	<ele>717.40</ele>
	<time>2025-07-29T12:24:47.000Z</time>
</trkpt>
<trkpt lat="45.9217840" lon="10.2969670">
	<ele>717.20</ele>
	<time>2025-07-29T12:24:48.000Z</time>
</trkpt>
<trkpt lat="45.9217950" lon="10.2969820">
	<ele>716.80</ele>
	<time>2025-07-29T12:24:49.000Z</time>
</trkpt>
<trkpt lat="45.9218080" lon="10.2969950">
	<ele>716.40</ele>
	<time>2025-07-29T12:24:50.000Z</time>
</trkpt>
<trkpt lat="45.9218190" lon="10.2970080">
	<ele>716.00</ele>
	<time>2025-07-29T12:24:51.000Z</time>
</trkpt>
<trkpt lat="45.9218300" lon="10.2970210">
	<ele>715.60</ele>
	<time>2025-07-29T12:24:52.000Z</time>
</trkpt>
<trkpt lat="45.9218420" lon="10.2970380">
	<ele>715.20</ele>
	<time>2025-07-29T12:24:53.000Z</time>
</trkpt>
<trkpt lat="45.9218550" lon="10.2970500">
	<ele>714.80</ele>
	<time>2025-07-29T12:24:54.000Z</time>
</trkpt>
<trkpt lat="45.9218660" lon="10.2970640">
	<ele>714.60</ele>
	<time>2025-07-29T12:24:55.000Z</time>
</trkpt>
<trkpt lat="45.9218750" lon="10.2970780">
	<ele>714.00</ele>
	<time>2025-07-29T12:24:56.000Z</time>
</trkpt>
<trkpt lat="45.9218780" lon="10.2970890">
	<ele>713.80</ele>
	<time>2025-07-29T12:24:57.000Z</time>
</trkpt>
<trkpt lat="45.9218780" lon="10.2971060">
	<ele>713.40</ele>
	<time>2025-07-29T12:24:58.000Z</time>
</trkpt>
<trkpt lat="45.9218750" lon="10.2971330">
	<ele>713.20</ele>
	<time>2025-07-29T12:24:59.000Z</time>
</trkpt>
<trkpt lat="45.9218680" lon="10.2971600">
	<ele>712.80</ele>
	<time>2025-07-29T12:25:00.000Z</time>
</trkpt>
<trkpt lat="45.9218620" lon="10.2971820">
	<ele>712.60</ele>
	<time>2025-07-29T12:25:01.000Z</time>
</trkpt>
<trkpt lat="45.9218460" lon="10.2972020">
	<ele>712.00</ele>
	<time>2025-07-29T12:25:02.000Z</time>
</trkpt>
<trkpt lat="45.9218410" lon="10.2972180">
	<ele>711.80</ele>
	<time>2025-07-29T12:25:03.000Z</time>
</trkpt>
<trkpt lat="45.9218320" lon="10.2972420">
	<ele>711.60</ele>
	<time>2025-07-29T12:25:04.000Z</time>
</trkpt>
<trkpt lat="45.9218290" lon="10.2972640">
	<ele>711.20</ele>
	<time>2025-07-29T12:25:05.000Z</time>
</trkpt>
<trkpt lat="45.9218260" lon="10.2972840">
	<ele>711.00</ele>
	<time>2025-07-29T12:25:06.000Z</time>
</trkpt>
<trkpt lat="45.9218250" lon="10.2973040">
	<ele>710.80</ele>
	<time>2025-07-29T12:25:07.000Z</time>
</trkpt>
<trkpt lat="45.9218250" lon="10.2973260">
	<ele>710.60</ele>
	<time>2025-07-29T12:25:08.000Z</time>
</trkpt>
<trkpt lat="45.9218230" lon="10.2973380">
	<ele>710.40</ele>
	<time>2025-07-29T12:25:09.000Z</time>
</trkpt>
<trkpt lat="45.9218210" lon="10.2973570">
	<ele>710.20</ele>
	<time>2025-07-29T12:25:10.000Z</time>
</trkpt>
<trkpt lat="45.9218240" lon="10.2973810">
	<ele>710.20</ele>
	<time>2025-07-29T12:25:11.000Z</time>
</trkpt>
<trkpt lat="45.9218280" lon="10.2974020">
	<ele>710.00</ele>
	<time>2025-07-29T12:25:12.000Z</time>
</trkpt>
<trkpt lat="45.9218320" lon="10.2974250">
	<ele>709.80</ele>
	<time>2025-07-29T12:25:13.000Z</time>
</trkpt>
<trkpt lat="45.9218280" lon="10.2974480">
	<ele>709.80</ele>
	<time>2025-07-29T12:25:14.000Z</time>
</trkpt>
<trkpt lat="45.9218210" lon="10.2974780">
	<ele>709.60</ele>
	<time>2025-07-29T12:25:15.000Z</time>
</trkpt>
<trkpt lat="45.9218250" lon="10.2975030">
	<ele>709.60</ele>
	<time>2025-07-29T12:25:16.000Z</time>
</trkpt>
<trkpt lat="45.9218350" lon="10.2975220">
	<ele>709.40</ele>
	<time>2025-07-29T12:25:17.000Z</time>
</trkpt>
<trkpt lat="45.9218330" lon="10.2975380">
	<ele>709.20</ele>
	<time>2025-07-29T12:25:18.000Z</time>
</trkpt>
<trkpt lat="45.9218260" lon="10.2975590">
	<ele>709.00</ele>
	<time>2025-07-29T12:25:19.000Z</time>
</trkpt>
<trkpt lat="45.9218240" lon="10.2975790">
	<ele>709.00</ele>
	<time>2025-07-29T12:25:20.000Z</time>
</trkpt>
<trkpt lat="45.9218240" lon="10.2976050">
	<ele>708.60</ele>
	<time>2025-07-29T12:25:21.000Z</time>
</trkpt>
<trkpt lat="45.9218320" lon="10.2976450">
	<ele>708.60</ele>
	<time>2025-07-29T12:25:22.000Z</time>
</trkpt>
<trkpt lat="45.9218430" lon="10.2976850">
	<ele>708.40</ele>
	<time>2025-07-29T12:25:23.000Z</time>
</trkpt>
<trkpt lat="45.9218410" lon="10.2977200">
	<ele>708.00</ele>
	<time>2025-07-29T12:25:24.000Z</time>
</trkpt>
<trkpt lat="45.9218490" lon="10.2977360">
	<ele>708.00</ele>
	<time>2025-07-29T12:25:25.000Z</time>
</trkpt>
<trkpt lat="45.9218530" lon="10.2977420">
	<ele>707.60</ele>
	<time>2025-07-29T12:25:26.000Z</time>
</trkpt>
<trkpt lat="45.9218690" lon="10.2977450">
	<ele>707.40</ele>
	<time>2025-07-29T12:25:27.000Z</time>
</trkpt>
<trkpt lat="45.9218640" lon="10.2977680">
	<ele>707.20</ele>
	<time>2025-07-29T12:25:28.000Z</time>
</trkpt>
<trkpt lat="45.9218520" lon="10.2978000">
	<ele>707.00</ele>
	<time>2025-07-29T12:25:29.000Z</time>
</trkpt>
<trkpt lat="45.9218510" lon="10.2978210">
	<ele>706.80</ele>
	<time>2025-07-29T12:25:30.000Z</time>
</trkpt>
<trkpt lat="45.9218620" lon="10.2978300">
	<ele>706.60</ele>
	<time>2025-07-29T12:25:31.000Z</time>
</trkpt>
<trkpt lat="45.9218690" lon="10.2978510">
	<ele>706.20</ele>
	<time>2025-07-29T12:25:32.000Z</time>
</trkpt>
<trkpt lat="45.9218750" lon="10.2978630">
	<ele>705.80</ele>
	<time>2025-07-29T12:25:33.000Z</time>
</trkpt>
<trkpt lat="45.9218700" lon="10.2978740">
	<ele>705.60</ele>
	<time>2025-07-29T12:25:34.000Z</time>
</trkpt>
<trkpt lat="45.9218620" lon="10.2978860">
	<ele>705.40</ele>
	<time>2025-07-29T12:25:35.000Z</time>
</trkpt>
<trkpt lat="45.9218720" lon="10.2979050">
	<ele>705.00</ele>
	<time>2025-07-29T12:25:36.000Z</time>
</trkpt>
<trkpt lat="45.9218830" lon="10.2979320">
	<ele>704.60</ele>
	<time>2025-07-29T12:25:37.000Z</time>
</trkpt>
<trkpt lat="45.9218850" lon="10.2979670">
	<ele>704.20</ele>
	<time>2025-07-29T12:25:38.000Z</time>
</trkpt>
<trkpt lat="45.9218930" lon="10.2979890">
	<ele>703.80</ele>
	<time>2025-07-29T12:25:39.000Z</time>
</trkpt>
<trkpt lat="45.9218940" lon="10.2980120">
	<ele>703.60</ele>
	<time>2025-07-29T12:25:40.000Z</time>
</trkpt>
<trkpt lat="45.9219000" lon="10.2980240">
	<ele>703.40</ele>
	<time>2025-07-29T12:25:41.000Z</time>
</trkpt>
<trkpt lat="45.9219030" lon="10.2980360">
	<ele>702.80</ele>
	<time>2025-07-29T12:25:42.000Z</time>
</trkpt>
<trkpt lat="45.9219130" lon="10.2980470">
	<ele>702.60</ele>
	<time>2025-07-29T12:25:43.000Z</time>
</trkpt>
<trkpt lat="45.9219250" lon="10.2980660">
	<ele>702.40</ele>
	<time>2025-07-29T12:25:44.000Z</time>
</trkpt>
<trkpt lat="45.9219270" lon="10.2980690">
	<ele>701.80</ele>
	<time>2025-07-29T12:25:45.000Z</time>
</trkpt>
<trkpt lat="45.9219290" lon="10.2980710">
	<ele>701.60</ele>
	<time>2025-07-29T12:25:46.000Z</time>
</trkpt>
<trkpt lat="45.9219320" lon="10.2980730">
	<ele>701.20</ele>
	<time>2025-07-29T12:25:47.000Z</time>
</trkpt>
<trkpt lat="45.9219380" lon="10.2980720">
	<ele>701.00</ele>
	<time>2025-07-29T12:25:48.000Z</time>
</trkpt>
<trkpt lat="45.9219440" lon="10.2980660">
	<ele>700.40</ele>
	<time>2025-07-29T12:25:49.000Z</time>
</trkpt>
<trkpt lat="45.9219480" lon="10.2980610">
	<ele>700.20</ele>
	<time>2025-07-29T12:25:50.000Z</time>
</trkpt>
<trkpt lat="45.9219570" lon="10.2980550">
	<ele>699.60</ele>
	<time>2025-07-29T12:25:51.000Z</time>
</trkpt>
<trkpt lat="45.9219620" lon="10.2980350">
	<ele>699.20</ele>
	<time>2025-07-29T12:25:52.000Z</time>
</trkpt>
<trkpt lat="45.9219670" lon="10.2980120">
	<ele>698.80</ele>
	<time>2025-07-29T12:25:53.000Z</time>
</trkpt>
<trkpt lat="45.9219780" lon="10.2980060">
	<ele>698.60</ele>
	<time>2025-07-29T12:25:54.000Z</time>
</trkpt>
<trkpt lat="45.9219940" lon="10.2979970">
	<ele>698.00</ele>
	<time>2025-07-29T12:25:55.000Z</time>
</trkpt>
<trkpt lat="45.9219990" lon="10.2979890">
	<ele>697.60</ele>
	<time>2025-07-29T12:25:56.000Z</time>
</trkpt>
<trkpt lat="45.9220160" lon="10.2979780">
	<ele>697.40</ele>
	<time>2025-07-29T12:25:57.000Z</time>
</trkpt>
<trkpt lat="45.9220350" lon="10.2979640">
	<ele>696.80</ele>
	<time>2025-07-29T12:25:58.000Z</time>
</trkpt>
<trkpt lat="45.9220520" lon="10.2979530">
	<ele>696.60</ele>
	<time>2025-07-29T12:25:59.000Z</time>
</trkpt>
<trkpt lat="45.9220780" lon="10.2979410">
	<ele>696.20</ele>
	<time>2025-07-29T12:26:00.000Z</time>
</trkpt>
<trkpt lat="45.9220970" lon="10.2979340">
	<ele>695.80</ele>
	<time>2025-07-29T12:26:01.000Z</time>
</trkpt>
<trkpt lat="45.9221000" lon="10.2979290">
	<ele>695.40</ele>
	<time>2025-07-29T12:26:02.000Z</time>
</trkpt>
<trkpt lat="45.9221110" lon="10.2979180">
	<ele>695.00</ele>
	<time>2025-07-29T12:26:03.000Z</time>
</trkpt>
<trkpt lat="45.9221160" lon="10.2979100">
	<ele>694.80</ele>
	<time>2025-07-29T12:26:04.000Z</time>
</trkpt>
<trkpt lat="45.9221220" lon="10.2979070">
	<ele>694.40</ele>
	<time>2025-07-29T12:26:05.000Z</time>
</trkpt>
<trkpt lat="45.9221260" lon="10.2978960">
	<ele>694.20</ele>
	<time>2025-07-29T12:26:06.000Z</time>
</trkpt>
<trkpt lat="45.9221310" lon="10.2978790">
	<ele>693.80</ele>
	<time>2025-07-29T12:26:07.000Z</time>
</trkpt>
<trkpt lat="45.9221430" lon="10.2978740">
	<ele>693.60</ele>
	<time>2025-07-29T12:26:08.000Z</time>
</trkpt>
<trkpt lat="45.9221530" lon="10.2978650">
	<ele>693.40</ele>
	<time>2025-07-29T12:26:09.000Z</time>
</trkpt>
<trkpt lat="45.9221690" lon="10.2978570">
	<ele>693.20</ele>
	<time>2025-07-29T12:26:10.000Z</time>
</trkpt>
<trkpt lat="45.9221820" lon="10.2978460">
	<ele>693.00</ele>
	<time>2025-07-29T12:26:11.000Z</time>
</trkpt>
<trkpt lat="45.9221990" lon="10.2978290">
	<ele>692.40</ele>
	<time>2025-07-29T12:26:12.000Z</time>
</trkpt>
<trkpt lat="45.9222140" lon="10.2978190">
	<ele>692.20</ele>
	<time>2025-07-29T12:26:13.000Z</time>
</trkpt>
<trkpt lat="45.9222280" lon="10.2978100">
	<ele>691.80</ele>
	<time>2025-07-29T12:26:14.000Z</time>
</trkpt>
<trkpt lat="45.9222400" lon="10.2977990">
	<ele>691.40</ele>
	<time>2025-07-29T12:26:15.000Z</time>
</trkpt>
<trkpt lat="45.9222560" lon="10.2977800">
	<ele>691.00</ele>
	<time>2025-07-29T12:26:16.000Z</time>
</trkpt>
<trkpt lat="45.9222720" lon="10.2977620">
	<ele>690.60</ele>
	<time>2025-07-29T12:26:17.000Z</time>
</trkpt>
<trkpt lat="45.9222920" lon="10.2977440">
	<ele>690.20</ele>
	<time>2025-07-29T12:26:18.000Z</time>
</trkpt>
<trkpt lat="45.9223140" lon="10.2977290">
	<ele>689.80</ele>
	<time>2025-07-29T12:26:19.000Z</time>
</trkpt>
<trkpt lat="45.9223370" lon="10.2977140">
	<ele>689.40</ele>
	<time>2025-07-29T12:26:20.000Z</time>
</trkpt>
<trkpt lat="45.9223570" lon="10.2977090">
	<ele>688.80</ele>
	<time>2025-07-29T12:26:21.000Z</time>
</trkpt>
<trkpt lat="45.9223880" lon="10.2976930">
	<ele>688.40</ele>
	<time>2025-07-29T12:26:22.000Z</time>
</trkpt>
<trkpt lat="45.9224110" lon="10.2976770">
	<ele>688.00</ele>
	<time>2025-07-29T12:26:23.000Z</time>
</trkpt>
<trkpt lat="45.9224310" lon="10.2976630">
	<ele>687.60</ele>
	<time>2025-07-29T12:26:24.000Z</time>
</trkpt>
<trkpt lat="45.9224510" lon="10.2976450">
	<ele>687.20</ele>
	<time>2025-07-29T12:26:25.000Z</time>
</trkpt>
<trkpt lat="45.9224550" lon="10.2976300">
	<ele>687.00</ele>
	<time>2025-07-29T12:26:26.000Z</time>
</trkpt>
<trkpt lat="45.9224530" lon="10.2976200">
	<ele>686.60</ele>
	<time>2025-07-29T12:26:27.000Z</time>
</trkpt>
<trkpt lat="45.9224590" lon="10.2976120">
	<ele>686.20</ele>
	<time>2025-07-29T12:26:28.000Z</time>
</trkpt>
<trkpt lat="45.9224730" lon="10.2975950">
	<ele>685.60</ele>
	<time>2025-07-29T12:26:29.000Z</time>
</trkpt>
<trkpt lat="45.9224900" lon="10.2975750">
	<ele>685.00</ele>
	<time>2025-07-29T12:26:30.000Z</time>
</trkpt>
<trkpt lat="45.9224990" lon="10.2975590">
	<ele>684.60</ele>
	<time>2025-07-29T12:26:31.000Z</time>
</trkpt>
<trkpt lat="45.9225090" lon="10.2975430">
	<ele>684.20</ele>
	<time>2025-07-29T12:26:32.000Z</time>
</trkpt>
<trkpt lat="45.9225180" lon="10.2975270">
	<ele>683.80</ele>
	<time>2025-07-29T12:26:33.000Z</time>
</trkpt>
<trkpt lat="45.9225300" lon="10.2975090">
	<ele>683.20</ele>
	<time>2025-07-29T12:26:34.000Z</time>
</trkpt>
<trkpt lat="45.9225340" lon="10.2974940">
	<ele>682.80</ele>
	<time>2025-07-29T12:26:35.000Z</time>
</trkpt>
<trkpt lat="45.9225420" lon="10.2974730">
	<ele>682.60</ele>
	<time>2025-07-29T12:26:36.000Z</time>
</trkpt>
<trkpt lat="45.9225450" lon="10.2974570">
	<ele>682.20</ele>
	<time>2025-07-29T12:26:37.000Z</time>
</trkpt>
<trkpt lat="45.9225460" lon="10.2974400">
	<ele>681.60</ele>
	<time>2025-07-29T12:26:38.000Z</time>
</trkpt>
<trkpt lat="45.9225540" lon="10.2974170">
	<ele>681.00</ele>
	<time>2025-07-29T12:26:39.000Z</time>
</trkpt>
<trkpt lat="45.9225640" lon="10.2973980">
	<ele>680.60</ele>
	<time>2025-07-29T12:26:40.000Z</time>
</trkpt>
<trkpt lat="45.9225700" lon="10.2973720">
	<ele>680.20</ele>
	<time>2025-07-29T12:26:41.000Z</time>
</trkpt>
<trkpt lat="45.9225690" lon="10.2973400">
	<ele>679.80</ele>
	<time>2025-07-29T12:26:42.000Z</time>
</trkpt>
<trkpt lat="45.9225590" lon="10.2973110">
	<ele>679.20</ele>
	<time>2025-07-29T12:26:43.000Z</time>
</trkpt>
<trkpt lat="45.9225440" lon="10.2972910">
	<ele>678.80</ele>
	<time>2025-07-29T12:26:44.000Z</time>
</trkpt>
<trkpt lat="45.9225430" lon="10.2972760">
	<ele>678.40</ele>
	<time>2025-07-29T12:26:45.000Z</time>
</trkpt>
<trkpt lat="45.9225490" lon="10.2972590">
	<ele>677.80</ele>
	<time>2025-07-29T12:26:46.000Z</time>
</trkpt>
<trkpt lat="45.9225580" lon="10.2972360">
	<ele>677.40</ele>
	<time>2025-07-29T12:26:47.000Z</time>
</trkpt>
<trkpt lat="45.9225620" lon="10.2972120">
	<ele>677.00</ele>
	<time>2025-07-29T12:26:48.000Z</time>
</trkpt>
<trkpt lat="45.9225550" lon="10.2971850">
	<ele>676.80</ele>
	<time>2025-07-29T12:26:49.000Z</time>
</trkpt>
<trkpt lat="45.9225580" lon="10.2971680">
	<ele>676.20</ele>
	<time>2025-07-29T12:26:50.000Z</time>
</trkpt>
<trkpt lat="45.9225600" lon="10.2971400">
	<ele>675.80</ele>
	<time>2025-07-29T12:26:51.000Z</time>
</trkpt>
<trkpt lat="45.9225700" lon="10.2971140">
	<ele>675.20</ele>
	<time>2025-07-29T12:26:52.000Z</time>
</trkpt>
<trkpt lat="45.9225920" lon="10.2970710">
	<ele>675.00</ele>
	<time>2025-07-29T12:26:53.000Z</time>
</trkpt>
<trkpt lat="45.9226220" lon="10.2970370">
	<ele>674.60</ele>
	<time>2025-07-29T12:26:54.000Z</time>
</trkpt>
<trkpt lat="45.9226520" lon="10.2970230">
	<ele>674.00</ele>
	<time>2025-07-29T12:26:55.000Z</time>
</trkpt>
<trkpt lat="45.9226780" lon="10.2970100">
	<ele>673.80</ele>
	<time>2025-07-29T12:26:56.000Z</time>
</trkpt>
<trkpt lat="45.9226800" lon="10.2969860">
	<ele>673.40</ele>
	<time>2025-07-29T12:26:57.000Z</time>
</trkpt>
<trkpt lat="45.9226740" lon="10.2969560">
	<ele>673.00</ele>
	<time>2025-07-29T12:26:58.000Z</time>
</trkpt>
<trkpt lat="45.9226830" lon="10.2969370">
	<ele>672.60</ele>
	<time>2025-07-29T12:26:59.000Z</time>
</trkpt>
<trkpt lat="45.9227040" lon="10.2969150">
	<ele>672.20</ele>
	<time>2025-07-29T12:27:00.000Z</time>
</trkpt>
<trkpt lat="45.9227230" lon="10.2968970">
	<ele>671.80</ele>
	<time>2025-07-29T12:27:01.000Z</time>
</trkpt>
<trkpt lat="45.9227380" lon="10.2968830">
	<ele>671.40</ele>
	<time>2025-07-29T12:27:02.000Z</time>
</trkpt>
<trkpt lat="45.9227470" lon="10.2968750">
	<ele>670.80</ele>
	<time>2025-07-29T12:27:03.000Z</time>
</trkpt>
<trkpt lat="45.9227550" lon="10.2968680">
	<ele>670.20</ele>
	<time>2025-07-29T12:27:04.000Z</time>
</trkpt>
<trkpt lat="45.9227640" lon="10.2968640">
	<ele>669.80</ele>
	<time>2025-07-29T12:27:05.000Z</time>
</trkpt>
<trkpt lat="45.9227770" lon="10.2968600">
	<ele>669.00</ele>
	<time>2025-07-29T12:27:06.000Z</time>
</trkpt>
<trkpt lat="45.9227950" lon="10.2968550">
	<ele>668.60</ele>
	<time>2025-07-29T12:27:07.000Z</time>
</trkpt>
<trkpt lat="45.9228170" lon="10.2968470">
	<ele>668.20</ele>
	<time>2025-07-29T12:27:08.000Z</time>
</trkpt>
<trkpt lat="45.9228300" lon="10.2968430">
	<ele>667.60</ele>
	<time>2025-07-29T12:27:09.000Z</time>
</trkpt>
<trkpt lat="45.9228460" lon="10.2968360">
	<ele>667.20</ele>
	<time>2025-07-29T12:27:10.000Z</time>
</trkpt>
<trkpt lat="45.9228570" lon="10.2968340">
	<ele>666.80</ele>
	<time>2025-07-29T12:27:11.000Z</time>
</trkpt>
<trkpt lat="45.9228670" lon="10.2968340">
	<ele>666.40</ele>
	<time>2025-07-29T12:27:12.000Z</time>
</trkpt>
<trkpt lat="45.9228840" lon="10.2968350">
	<ele>666.00</ele>
	<time>2025-07-29T12:27:13.000Z</time>
</trkpt>
<trkpt lat="45.9229030" lon="10.2968320">
	<ele>665.40</ele>
	<time>2025-07-29T12:27:14.000Z</time>
</trkpt>
<trkpt lat="45.9229190" lon="10.2968260">
	<ele>665.00</ele>
	<time>2025-07-29T12:27:15.000Z</time>
</trkpt>
<trkpt lat="45.9229310" lon="10.2968240">
	<ele>664.40</ele>
	<time>2025-07-29T12:27:16.000Z</time>
</trkpt>
<trkpt lat="45.9229470" lon="10.2968230">
	<ele>664.00</ele>
	<time>2025-07-29T12:27:17.000Z</time>
</trkpt>
<trkpt lat="45.9229670" lon="10.2968190">
	<ele>663.60</ele>
	<time>2025-07-29T12:27:18.000Z</time>
</trkpt>
<trkpt lat="45.9229860" lon="10.2968110">
	<ele>663.20</ele>
	<time>2025-07-29T12:27:19.000Z</time>
</trkpt>
<trkpt lat="45.9230040" lon="10.2968040">
	<ele>662.60</ele>
	<time>2025-07-29T12:27:20.000Z</time>
</trkpt>
<trkpt lat="45.9230240" lon="10.2967950">
	<ele>662.20</ele>
	<time>2025-07-29T12:27:21.000Z</time>
</trkpt>
<trkpt lat="45.9230430" lon="10.2967930">
	<ele>661.60</ele>
	<time>2025-07-29T12:27:22.000Z</time>
</trkpt>
<trkpt lat="45.9230600" lon="10.2967870">
	<ele>661.00</ele>
	<time>2025-07-29T12:27:23.000Z</time>
</trkpt>
<trkpt lat="45.9231040" lon="10.2967790">
	<ele>660.60</ele>
	<time>2025-07-29T12:27:24.000Z</time>
</trkpt>
<trkpt lat="45.9231490" lon="10.2967640">
	<ele>660.20</ele>
	<time>2025-07-29T12:27:25.000Z</time>
</trkpt>
<trkpt lat="45.9231830" lon="10.2967380">
	<ele>659.60</ele>
	<time>2025-07-29T12:27:26.000Z</time>
</trkpt>
<trkpt lat="45.9232070" lon="10.2967190">
	<ele>659.20</ele>
	<time>2025-07-29T12:27:27.000Z</time>
</trkpt>
<trkpt lat="45.9232280" lon="10.2966990">
	<ele>659.00</ele>
	<time>2025-07-29T12:27:28.000Z</time>
</trkpt>
<trkpt lat="45.9232470" lon="10.2966900">
	<ele>658.40</ele>
	<time>2025-07-29T12:27:29.000Z</time>
</trkpt>
<trkpt lat="45.9232690" lon="10.2966700">
	<ele>658.00</ele>
	<time>2025-07-29T12:27:30.000Z</time>
</trkpt>
<trkpt lat="45.9232910" lon="10.2966390">
	<ele>657.40</ele>
	<time>2025-07-29T12:27:31.000Z</time>
</trkpt>
<trkpt lat="45.9232980" lon="10.2966200">
	<ele>657.20</ele>
	<time>2025-07-29T12:27:32.000Z</time>
</trkpt>
<trkpt lat="45.9232910" lon="10.2965990">
	<ele>656.80</ele>
	<time>2025-07-29T12:27:33.000Z</time>
</trkpt>
<trkpt lat="45.9232860" lon="10.2965730">
	<ele>656.60</ele>
	<time>2025-07-29T12:27:34.000Z</time>
</trkpt>
<trkpt lat="45.9232830" lon="10.2965280">
	<ele>656.20</ele>
	<time>2025-07-29T12:27:35.000Z</time>
</trkpt>
<trkpt lat="45.9232960" lon="10.2964870">
	<ele>655.60</ele>
	<time>2025-07-29T12:27:36.000Z</time>
</trkpt>
<trkpt lat="45.9233070" lon="10.2964540">
	<ele>655.20</ele>
	<time>2025-07-29T12:27:37.000Z</time>
</trkpt>
<trkpt lat="45.9233170" lon="10.2964290">
	<ele>655.00</ele>
	<time>2025-07-29T12:27:38.000Z</time>
</trkpt>
<trkpt lat="45.9233240" lon="10.2964090">
	<ele>654.40</ele>
	<time>2025-07-29T12:27:39.000Z</time>
</trkpt>
<trkpt lat="45.9233220" lon="10.2963850">
	<ele>654.00</ele>
	<time>2025-07-29T12:27:40.000Z</time>
</trkpt>
<trkpt lat="45.9233210" lon="10.2963610">
	<ele>653.80</ele>
	<time>2025-07-29T12:27:41.000Z</time>
</trkpt>
<trkpt lat="45.9233200" lon="10.2963330">
	<ele>653.40</ele>
	<time>2025-07-29T12:27:42.000Z</time>
</trkpt>
<trkpt lat="45.9233240" lon="10.2962990">
	<ele>653.20</ele>
	<time>2025-07-29T12:27:43.000Z</time>
</trkpt>
<trkpt lat="45.9233340" lon="10.2962670">
	<ele>652.60</ele>
	<time>2025-07-29T12:27:44.000Z</time>
</trkpt>
<trkpt lat="45.9233450" lon="10.2962520">
	<ele>652.20</ele>
	<time>2025-07-29T12:27:45.000Z</time>
</trkpt>
<trkpt lat="45.9233420" lon="10.2962360">
	<ele>652.00</ele>
	<time>2025-07-29T12:27:46.000Z</time>
</trkpt>
<trkpt lat="45.9233380" lon="10.2962130">
	<ele>651.80</ele>
	<time>2025-07-29T12:27:47.000Z</time>
</trkpt>
<trkpt lat="45.9233380" lon="10.2961930">
	<ele>651.60</ele>
	<time>2025-07-29T12:27:48.000Z</time>
</trkpt>
<trkpt lat="45.9233420" lon="10.2961720">
	<ele>651.60</ele>
	<time>2025-07-29T12:27:49.000Z</time>
</trkpt>
<trkpt lat="45.9233470" lon="10.2961530">
	<ele>651.40</ele>
	<time>2025-07-29T12:27:50.000Z</time>
</trkpt>
<trkpt lat="45.9233510" lon="10.2961300">
	<ele>651.40</ele>
	<time>2025-07-29T12:27:51.000Z</time>
</trkpt>
<trkpt lat="45.9233480" lon="10.2961110">
	<ele>651.20</ele>
	<time>2025-07-29T12:27:52.000Z</time>
</trkpt>
<trkpt lat="45.9233420" lon="10.2960930">
	<ele>651.00</ele>
	<time>2025-07-29T12:27:53.000Z</time>
</trkpt>
<trkpt lat="45.9233440" lon="10.2960710">
	<ele>651.00</ele>
	<time>2025-07-29T12:27:54.000Z</time>
</trkpt>
<trkpt lat="45.9233530" lon="10.2960430">
	<ele>650.60</ele>
	<time>2025-07-29T12:27:55.000Z</time>
</trkpt>
<trkpt lat="45.9233620" lon="10.2960130">
	<ele>650.40</ele>
	<time>2025-07-29T12:27:56.000Z</time>
</trkpt>
<trkpt lat="45.9233710" lon="10.2959840">
	<ele>650.40</ele>
	<time>2025-07-29T12:27:57.000Z</time>
</trkpt>
<trkpt lat="45.9233860" lon="10.2959560">
	<ele>650.20</ele>
	<time>2025-07-29T12:27:58.000Z</time>
</trkpt>
<trkpt lat="45.9233970" lon="10.2959280">
	<ele>650.00</ele>
	<time>2025-07-29T12:27:59.000Z</time>
</trkpt>
<trkpt lat="45.9234020" lon="10.2959050">
	<ele>649.80</ele>
	<time>2025-07-29T12:28:00.000Z</time>
</trkpt>
<trkpt lat="45.9234040" lon="10.2958840">
	<ele>649.40</ele>
	<time>2025-07-29T12:28:01.000Z</time>
</trkpt>
<trkpt lat="45.9233990" lon="10.2958690">
	<ele>649.20</ele>
	<time>2025-07-29T12:28:02.000Z</time>
</trkpt>
<trkpt lat="45.9233880" lon="10.2958560">
	<ele>648.80</ele>
	<time>2025-07-29T12:28:03.000Z</time>
</trkpt>
<trkpt lat="45.9233730" lon="10.2958390">
	<ele>648.40</ele>
	<time>2025-07-29T12:28:04.000Z</time>
</trkpt>
<trkpt lat="45.9233670" lon="10.2958180">
	<ele>648.20</ele>
	<time>2025-07-29T12:28:05.000Z</time>
</trkpt>
<trkpt lat="45.9233660" lon="10.2957930">
	<ele>647.80</ele>
	<time>2025-07-29T12:28:06.000Z</time>
</trkpt>
<trkpt lat="45.9233610" lon="10.2957810">
	<ele>647.40</ele>
	<time>2025-07-29T12:28:07.000Z</time>
</trkpt>
<trkpt lat="45.9233560" lon="10.2957580">
	<ele>647.20</ele>
	<time>2025-07-29T12:28:08.000Z</time>
</trkpt>
<trkpt lat="45.9233550" lon="10.2957320">
	<ele>646.60</ele>
	<time>2025-07-29T12:28:09.000Z</time>
</trkpt>
<trkpt lat="45.9233480" lon="10.2957010">
	<ele>646.20</ele>
	<time>2025-07-29T12:28:10.000Z</time>
</trkpt>
<trkpt lat="45.9233430" lon="10.2956780">
	<ele>645.80</ele>
	<time>2025-07-29T12:28:11.000Z</time>
</trkpt>
<trkpt lat="45.9233450" lon="10.2956590">
	<ele>645.20</ele>
	<time>2025-07-29T12:28:12.000Z</time>
</trkpt>
<trkpt lat="45.9233470" lon="10.2956370">
	<ele>644.80</ele>
	<time>2025-07-29T12:28:13.000Z</time>
</trkpt>
<trkpt lat="45.9233460" lon="10.2956150">
	<ele>644.20</ele>
	<time>2025-07-29T12:28:14.000Z</time>
</trkpt>
<trkpt lat="45.9233430" lon="10.2955980">
	<ele>643.80</ele>
	<time>2025-07-29T12:28:15.000Z</time>
</trkpt>
<trkpt lat="45.9233430" lon="10.2955760">
	<ele>643.40</ele>
	<time>2025-07-29T12:28:16.000Z</time>
</trkpt>
<trkpt lat="45.9233360" lon="10.2955470">
	<ele>643.00</ele>
	<time>2025-07-29T12:28:17.000Z</time>
</trkpt>
<trkpt lat="45.9233280" lon="10.2955230">
	<ele>642.40</ele>
	<time>2025-07-29T12:28:18.000Z</time>
</trkpt>
<trkpt lat="45.9233230" lon="10.2955010">
	<ele>641.60</ele>
	<time>2025-07-29T12:28:19.000Z</time>
</trkpt>
<trkpt lat="45.9233200" lon="10.2954940">
	<ele>641.20</ele>
	<time>2025-07-29T12:28:20.000Z</time>
</trkpt>
<trkpt lat="45.9233200" lon="10.2954720">
	<ele>640.80</ele>
	<time>2025-07-29T12:28:21.000Z</time>
</trkpt>
<trkpt lat="45.9233220" lon="10.2954450">
	<ele>640.20</ele>
	<time>2025-07-29T12:28:22.000Z</time>
</trkpt>
<trkpt lat="45.9233240" lon="10.2954080">
	<ele>639.60</ele>
	<time>2025-07-29T12:28:23.000Z</time>
</trkpt>
<trkpt lat="45.9233310" lon="10.2953790">
	<ele>639.00</ele>
	<time>2025-07-29T12:28:24.000Z</time>
</trkpt>
<trkpt lat="45.9233350" lon="10.2953590">
	<ele>638.40</ele>
	<time>2025-07-29T12:28:25.000Z</time>
</trkpt>
<trkpt lat="45.9233370" lon="10.2953410">
	<ele>637.80</ele>
	<time>2025-07-29T12:28:26.000Z</time>
</trkpt>
<trkpt lat="45.9233420" lon="10.2953220">
	<ele>637.40</ele>
	<time>2025-07-29T12:28:27.000Z</time>
</trkpt>
<trkpt lat="45.9233430" lon="10.2953060">
	<ele>637.00</ele>
	<time>2025-07-29T12:28:28.000Z</time>
</trkpt>
<trkpt lat="45.9233590" lon="10.2952870">
	<ele>636.40</ele>
	<time>2025-07-29T12:28:29.000Z</time>
</trkpt>
<trkpt lat="45.9233770" lon="10.2952690">
	<ele>635.80</ele>
	<time>2025-07-29T12:28:30.000Z</time>
</trkpt>
<trkpt lat="45.9233880" lon="10.2952460">
	<ele>635.40</ele>
	<time>2025-07-29T12:28:31.000Z</time>
</trkpt>
<trkpt lat="45.9233980" lon="10.2952240">
	<ele>634.80</ele>
	<time>2025-07-29T12:28:32.000Z</time>
</trkpt>
<trkpt lat="45.9234120" lon="10.2952010">
	<ele>634.40</ele>
	<time>2025-07-29T12:28:33.000Z</time>
</trkpt>
<trkpt lat="45.9234220" lon="10.2951840">
	<ele>633.80</ele>
	<time>2025-07-29T12:28:34.000Z</time>
</trkpt>
<trkpt lat="45.9234280" lon="10.2951610">
	<ele>633.40</ele>
	<time>2025-07-29T12:28:35.000Z</time>
</trkpt>
<trkpt lat="45.9234230" lon="10.2951430">
	<ele>632.80</ele>
	<time>2025-07-29T12:28:36.000Z</time>
</trkpt>
<trkpt lat="45.9234160" lon="10.2951310">
	<ele>632.20</ele>
	<time>2025-07-29T12:28:37.000Z</time>
</trkpt>
<trkpt lat="45.9234130" lon="10.2951180">
	<ele>631.80</ele>
	<time>2025-07-29T12:28:38.000Z</time>
</trkpt>
<trkpt lat="45.9234120" lon="10.2951050">
	<ele>631.40</ele>
	<time>2025-07-29T12:28:39.000Z</time>
</trkpt>
<trkpt lat="45.9234110" lon="10.2950930">
	<ele>631.20</ele>
	<time>2025-07-29T12:28:40.000Z</time>
</trkpt>
<trkpt lat="45.9234100" lon="10.2950760">
	<ele>630.40</ele>
	<time>2025-07-29T12:28:41.000Z</time>
</trkpt>
<trkpt lat="45.9234090" lon="10.2950580">
	<ele>630.00</ele>
	<time>2025-07-29T12:28:42.000Z</time>
</trkpt>
<trkpt lat="45.9234120" lon="10.2950390">
	<ele>629.40</ele>
	<time>2025-07-29T12:28:43.000Z</time>
</trkpt>
<trkpt lat="45.9234190" lon="10.2950200">
	<ele>629.00</ele>
	<time>2025-07-29T12:28:44.000Z</time>
</trkpt>
<trkpt lat="45.9234220" lon="10.2950010">
	<ele>628.40</ele>
	<time>2025-07-29T12:28:45.000Z</time>
</trkpt>
<trkpt lat="45.9234230" lon="10.2949770">
	<ele>627.80</ele>
	<time>2025-07-29T12:28:46.000Z</time>
</trkpt>
<trkpt lat="45.9234260" lon="10.2949540">
	<ele>627.40</ele>
	<time>2025-07-29T12:28:47.000Z</time>
</trkpt>
<trkpt lat="45.9234290" lon="10.2949290">
	<ele>626.80</ele>
	<time>2025-07-29T12:28:48.000Z</time>
</trkpt>
<trkpt lat="45.9234300" lon="10.2949060">
	<ele>626.40</ele>
	<time>2025-07-29T12:28:49.000Z</time>
</trkpt>
<trkpt lat="45.9234300" lon="10.2948830">
	<ele>625.80</ele>
	<time>2025-07-29T12:28:50.000Z</time>
</trkpt>
<trkpt lat="45.9234320" lon="10.2948590">
	<ele>625.40</ele>
	<time>2025-07-29T12:28:51.000Z</time>
</trkpt>
<trkpt lat="45.9234370" lon="10.2948370">
	<ele>624.80</ele>
	<time>2025-07-29T12:28:52.000Z</time>
</trkpt>
<trkpt lat="45.9234440" lon="10.2948130">
	<ele>624.20</ele>
	<time>2025-07-29T12:28:53.000Z</time>
</trkpt>
<trkpt lat="45.9234530" lon="10.2947860">
	<ele>623.80</ele>
	<time>2025-07-29T12:28:54.000Z</time>
</trkpt>
<trkpt lat="45.9234540" lon="10.2947600">
	<ele>623.40</ele>
	<time>2025-07-29T12:28:55.000Z</time>
</trkpt>
<trkpt lat="45.9234470" lon="10.2947360">
	<ele>622.80</ele>
	<time>2025-07-29T12:28:56.000Z</time>
</trkpt>
<trkpt lat="45.9234440" lon="10.2947170">
	<ele>622.60</ele>
	<time>2025-07-29T12:28:57.000Z</time>
</trkpt>
<trkpt lat="45.9234460" lon="10.2946980">
	<ele>622.20</ele>
	<time>2025-07-29T12:28:58.000Z</time>
</trkpt>
<trkpt lat="45.9234530" lon="10.2946830">
	<ele>621.60</ele>
	<time>2025-07-29T12:28:59.000Z</time>
</trkpt>
<trkpt lat="45.9234600" lon="10.2946690">
	<ele>621.20</ele>
	<time>2025-07-29T12:29:00.000Z</time>
</trkpt>
<trkpt lat="45.9234670" lon="10.2946550">
	<ele>621.00</ele>
	<time>2025-07-29T12:29:01.000Z</time>
</trkpt>
<trkpt lat="45.9234690" lon="10.2946430">
	<ele>620.40</ele>
	<time>2025-07-29T12:29:02.000Z</time>
</trkpt>
<trkpt lat="45.9234710" lon="10.2946270">
	<ele>620.00</ele>
	<time>2025-07-29T12:29:03.000Z</time>
</trkpt>
<trkpt lat="45.9234760" lon="10.2946120">
	<ele>619.60</ele>
	<time>2025-07-29T12:29:04.000Z</time>
</trkpt>
<trkpt lat="45.9234790" lon="10.2945970">
	<ele>619.20</ele>
	<time>2025-07-29T12:29:05.000Z</time>
</trkpt>
<trkpt lat="45.9234750" lon="10.2945790">
	<ele>619.00</ele>
	<time>2025-07-29T12:29:06.000Z</time>
</trkpt>
<trkpt lat="45.9234780" lon="10.2945640">
	<ele>618.60</ele>
	<time>2025-07-29T12:29:07.000Z</time>
</trkpt>
<trkpt lat="45.9234800" lon="10.2945450">
	<ele>618.00</ele>
	<time>2025-07-29T12:29:08.000Z</time>
</trkpt>
<trkpt lat="45.9234810" lon="10.2945260">
	<ele>617.80</ele>
	<time>2025-07-29T12:29:09.000Z</time>
</trkpt>
<trkpt lat="45.9234780" lon="10.2945050">
	<ele>617.40</ele>
	<time>2025-07-29T12:29:10.000Z</time>
</trkpt>
<trkpt lat="45.9234830" lon="10.2944860">
	<ele>617.20</ele>
	<time>2025-07-29T12:29:11.000Z</time>
</trkpt>
<trkpt lat="45.9234850" lon="10.2944790">
	<ele>616.80</ele>
	<time>2025-07-29T12:29:12.000Z</time>
</trkpt>
<trkpt lat="45.9234940" lon="10.2944720">
	<ele>616.60</ele>
	<time>2025-07-29T12:29:13.000Z</time>
</trkpt>
<trkpt lat="45.9234930" lon="10.2944570">
	<ele>616.20</ele>
	<time>2025-07-29T12:29:14.000Z</time>
</trkpt>
<trkpt lat="45.9234920" lon="10.2944370">
	<ele>616.00</ele>
	<time>2025-07-29T12:29:15.000Z</time>
</trkpt>
<trkpt lat="45.9234920" lon="10.2944260">
	<ele>615.80</ele>
	<time>2025-07-29T12:29:16.000Z</time>
</trkpt>
<trkpt lat="45.9234930" lon="10.2944110">
	<ele>615.80</ele>
	<time>2025-07-29T12:29:17.000Z</time>
</trkpt>
<trkpt lat="45.9235010" lon="10.2944020">
	<ele>615.60</ele>
	<time>2025-07-29T12:29:18.000Z</time>
</trkpt>
<trkpt lat="45.9235090" lon="10.2943910">
	<ele>615.60</ele>
	<time>2025-07-29T12:29:19.000Z</time>
</trkpt>
<trkpt lat="45.9235100" lon="10.2943770">
	<ele>615.40</ele>
	<time>2025-07-29T12:29:20.000Z</time>
</trkpt>
<trkpt lat="45.9235130" lon="10.2943610">
	<ele>615.00</ele>
	<time>2025-07-29T12:29:21.000Z</time>
</trkpt>
<trkpt lat="45.9235130" lon="10.2943490">
	<ele>614.60</ele>
	<time>2025-07-29T12:29:22.000Z</time>
</trkpt>
<trkpt lat="45.9235070" lon="10.2943430">
	<ele>614.60</ele>
	<time>2025-07-29T12:29:23.000Z</time>
</trkpt>
<trkpt lat="45.9235020" lon="10.2943360">
	<ele>614.40</ele>
	<time>2025-07-29T12:29:24.000Z</time>
</trkpt>
<trkpt lat="45.9234960" lon="10.2943270">
	<ele>614.40</ele>
	<time>2025-07-29T12:29:25.000Z</time>
</trkpt>
<trkpt lat="45.9234810" lon="10.2943220">
	<ele>614.40</ele>
	<time>2025-07-29T12:29:26.000Z</time>
</trkpt>
<trkpt lat="45.9234570" lon="10.2943210">
	<ele>614.20</ele>
	<time>2025-07-29T12:29:27.000Z</time>
</trkpt>
<trkpt lat="45.9234380" lon="10.2943200">
	<ele>614.20</ele>
	<time>2025-07-29T12:29:28.000Z</time>
</trkpt>
<trkpt lat="45.9234100" lon="10.2943220">
	<ele>614.20</ele>
	<time>2025-07-29T12:29:29.000Z</time>
</trkpt>
<trkpt lat="45.9234030" lon="10.2943230">
	<ele>614.20</ele>
	<time>2025-07-29T12:29:30.000Z</time>
</trkpt>
<trkpt lat="45.9233950" lon="10.2943250">
	<ele>614.20</ele>
	<time>2025-07-29T12:29:31.000Z</time>
</trkpt>
<trkpt lat="45.9233970" lon="10.2943220">
	<ele>614.20</ele>
	<time>2025-07-29T12:29:32.000Z</time>
</trkpt>
<trkpt lat="45.9233950" lon="10.2943110">
	<ele>614.00</ele>
	<time>2025-07-29T12:29:33.000Z</time>
</trkpt>
<trkpt lat="45.9233970" lon="10.2942900">
	<ele>614.00</ele>
	<time>2025-07-29T12:29:34.000Z</time>
</trkpt>
<trkpt lat="45.9233950" lon="10.2942710">
	<ele>613.80</ele>
	<time>2025-07-29T12:29:35.000Z</time>
</trkpt>
<trkpt lat="45.9234020" lon="10.2942500">
	<ele>613.60</ele>
	<time>2025-07-29T12:29:36.000Z</time>
</trkpt>
<trkpt lat="45.9234080" lon="10.2942300">
	<ele>613.40</ele>
	<time>2025-07-29T12:29:37.000Z</time>
</trkpt>
<trkpt lat="45.9234150" lon="10.2942130">
	<ele>613.00</ele>
	<time>2025-07-29T12:29:38.000Z</time>
</trkpt>
<trkpt lat="45.9234200" lon="10.2941890">
	<ele>612.60</ele>
	<time>2025-07-29T12:29:39.000Z</time>
</trkpt>
<trkpt lat="45.9234210" lon="10.2941670">
	<ele>612.20</ele>
	<time>2025-07-29T12:29:40.000Z</time>
</trkpt>
<trkpt lat="45.9234210" lon="10.2941520">
	<ele>611.80</ele>
	<time>2025-07-29T12:29:41.000Z</time>
</trkpt>
<trkpt lat="45.9234220" lon="10.2941440">
	<ele>611.40</ele>
	<time>2025-07-29T12:29:42.000Z</time>
</trkpt>
<trkpt lat="45.9234300" lon="10.2941420">
	<ele>611.00</ele>
	<time>2025-07-29T12:29:43.000Z</time>
</trkpt>
<trkpt lat="45.9234440" lon="10.2941310">
	<ele>610.60</ele>
	<time>2025-07-29T12:29:44.000Z</time>
</trkpt>
<trkpt lat="45.9234550" lon="10.2941120">
	<ele>610.40</ele>
	<time>2025-07-29T12:29:45.000Z</time>
</trkpt>
<trkpt lat="45.9234680" lon="10.2940840">
	<ele>610.20</ele>
	<time>2025-07-29T12:29:46.000Z</time>
</trkpt>
<trkpt lat="45.9234730" lon="10.2940570">
	<ele>609.60</ele>
	<time>2025-07-29T12:29:47.000Z</time>
</trkpt>
<trkpt lat="45.9234770" lon="10.2940300">
	<ele>609.20</ele>
	<time>2025-07-29T12:29:48.000Z</time>
</trkpt>
<trkpt lat="45.9234750" lon="10.2940220">
	<ele>609.00</ele>
	<time>2025-07-29T12:29:49.000Z</time>
</trkpt>
<trkpt lat="45.9234730" lon="10.2940050">
	<ele>608.60</ele>
	<time>2025-07-29T12:29:50.000Z</time>
</trkpt>
<trkpt lat="45.9234730" lon="10.2939880">
	<ele>608.40</ele>
	<time>2025-07-29T12:29:51.000Z</time>
</trkpt>
<trkpt lat="45.9234790" lon="10.2939720">
	<ele>608.20</ele>
	<time>2025-07-29T12:29:52.000Z</time>
</trkpt>
<trkpt lat="45.9234850" lon="10.2939550">
	<ele>608.00</ele>
	<time>2025-07-29T12:29:53.000Z</time>
</trkpt>
<trkpt lat="45.9234850" lon="10.2939420">
	<ele>608.00</ele>
	<time>2025-07-29T12:29:54.000Z</time>
</trkpt>
<trkpt lat="45.9234860" lon="10.2939390">
	<ele>608.00</ele>
	<time>2025-07-29T12:29:55.000Z</time>
</trkpt>
<trkpt lat="45.9234910" lon="10.2939420">
	<ele>607.80</ele>
	<time>2025-07-29T12:29:56.000Z</time>
</trkpt>
<trkpt lat="45.9234940" lon="10.2939450">
	<ele>607.80</ele>
	<time>2025-07-29T12:29:57.000Z</time>
</trkpt>
<trkpt lat="45.9234960" lon="10.2939470">
	<ele>607.80</ele>
	<time>2025-07-29T12:29:58.000Z</time>
</trkpt>
<trkpt lat="45.9234990" lon="10.2939460">
	<ele>607.80</ele>
	<time>2025-07-29T12:29:59.000Z</time>
</trkpt>
<trkpt lat="45.9235020" lon="10.2939400">
	<ele>607.80</ele>
	<time>2025-07-29T12:30:00.000Z</time>
</trkpt>
<trkpt lat="45.9235090" lon="10.2939260">
	<ele>607.80</ele>
	<time>2025-07-29T12:30:01.000Z</time>
</trkpt>
<trkpt lat="45.9235170" lon="10.2939020">
	<ele>607.80</ele>
	<time>2025-07-29T12:30:02.000Z</time>
</trkpt>
<trkpt lat="45.9235220" lon="10.2938680">
	<ele>607.80</ele>
	<time>2025-07-29T12:30:03.000Z</time>
</trkpt>
<trkpt lat="45.9235000" lon="10.2938430">
	<ele>607.80</ele>
	<time>2025-07-29T12:30:04.000Z</time>
</trkpt>
<trkpt lat="45.9234920" lon="10.2938460">
	<ele>607.60</ele>
	<time>2025-07-29T12:30:05.000Z</time>
</trkpt>
<trkpt lat="45.9234660" lon="10.2938330">
	<ele>607.60</ele>
	<time>2025-07-29T12:30:06.000Z</time>
</trkpt>
<trkpt lat="45.9234490" lon="10.2938170">
	<ele>607.60</ele>
	<time>2025-07-29T12:30:07.000Z</time>
</trkpt>
<trkpt lat="45.9234290" lon="10.2938240">
	<ele>607.60</ele>
	<time>2025-07-29T12:30:08.000Z</time>
</trkpt>
<trkpt lat="45.9234160" lon="10.2938280">
	<ele>607.60</ele>
	<time>2025-07-29T12:30:09.000Z</time>
</trkpt>
<trkpt lat="45.9234130" lon="10.2938220">
	<ele>607.60</ele>
	<time>2025-07-29T12:30:10.000Z</time>
</trkpt>
<trkpt lat="45.9234250" lon="10.2938200">
	<ele>607.60</ele>
	<time>2025-07-29T12:30:11.000Z</time>
</trkpt>
<trkpt lat="45.9234310" lon="10.2938240">
	<ele>607.60</ele>
	<time>2025-07-29T12:30:12.000Z</time>
</trkpt>
<trkpt lat="45.9234480" lon="10.2938030">
	<ele>607.80</ele>
	<time>2025-07-29T12:30:13.000Z</time>
</trkpt>
<trkpt lat="45.9234490" lon="10.2938050">
	<ele>607.80</ele>
	<time>2025-07-29T12:30:14.000Z</time>
</trkpt>
<trkpt lat="45.9234370" lon="10.2938320">
	<ele>607.80</ele>
	<time>2025-07-29T12:30:15.000Z</time>
</trkpt>
<trkpt lat="45.9234350" lon="10.2938600">
	<ele>607.80</ele>
	<time>2025-07-29T12:30:16.000Z</time>
</trkpt>
<trkpt lat="45.9234450" lon="10.2938810">
	<ele>607.80</ele>
	<time>2025-07-29T12:30:17.000Z</time>
</trkpt>
<trkpt lat="45.9234440" lon="10.2938860">
	<ele>607.80</ele>
	<time>2025-07-29T12:30:18.000Z</time>
</trkpt>
<trkpt lat="45.9234480" lon="10.2938890">
	<ele>607.80</ele>
	<time>2025-07-29T12:30:19.000Z</time>
</trkpt>
<trkpt lat="45.9234460" lon="10.2938920">
	<ele>607.80</ele>
	<time>2025-07-29T12:30:20.000Z</time>
</trkpt>
<trkpt lat="45.9234420" lon="10.2938900">
	<ele>608.00</ele>
	<time>2025-07-29T12:30:21.000Z</time>
</trkpt>
<trkpt lat="45.9234600" lon="10.2938880">
	<ele>608.00</ele>
	<time>2025-07-29T12:30:22.000Z</time>
</trkpt>
<trkpt lat="45.9234760" lon="10.2938880">
	<ele>608.00</ele>
	<time>2025-07-29T12:30:23.000Z</time>
</trkpt>
<trkpt lat="45.9234930" lon="10.2938890">
	<ele>608.00</ele>
	<time>2025-07-29T12:30:24.000Z</time>
</trkpt>
<trkpt lat="45.9235000" lon="10.2938850">
	<ele>607.80</ele>
	<time>2025-07-29T12:30:25.000Z</time>
</trkpt>
<trkpt lat="45.9234930" lon="10.2938820">
	<ele>607.60</ele>
	<time>2025-07-29T12:30:26.000Z</time>
</trkpt>
<trkpt lat="45.9234830" lon="10.2938870">
	<ele>607.40</ele>
	<time>2025-07-29T12:30:27.000Z</time>
</trkpt>
<trkpt lat="45.9234670" lon="10.2938850">
	<ele>607.20</ele>
	<time>2025-07-29T12:30:28.000Z</time>
</trkpt>
<trkpt lat="45.9234520" lon="10.2938760">
	<ele>606.80</ele>
	<time>2025-07-29T12:30:29.000Z</time>
</trkpt>
<trkpt lat="45.9234550" lon="10.2938690">
	<ele>606.60</ele>
	<time>2025-07-29T12:30:30.000Z</time>
</trkpt>
<trkpt lat="45.9234660" lon="10.2938570">
	<ele>606.40</ele>
	<time>2025-07-29T12:30:31.000Z</time>
</trkpt>
<trkpt lat="45.9234760" lon="10.2938410">
	<ele>606.00</ele>
	<time>2025-07-29T12:30:32.000Z</time>
</trkpt>
<trkpt lat="45.9234870" lon="10.2938240">
	<ele>605.80</ele>
	<time>2025-07-29T12:30:33.000Z</time>
</trkpt>
<trkpt lat="45.9234940" lon="10.2938040">
	<ele>605.40</ele>
	<time>2025-07-29T12:30:34.000Z</time>
</trkpt>
<trkpt lat="45.9234970" lon="10.2937800">
	<ele>605.20</ele>
	<time>2025-07-29T12:30:35.000Z</time>
</trkpt>
<trkpt lat="45.9234970" lon="10.2937560">
	<ele>605.00</ele>
	<time>2025-07-29T12:30:36.000Z</time>
</trkpt>
<trkpt lat="45.9234930" lon="10.2937290">
	<ele>604.80</ele>
	<time>2025-07-29T12:30:37.000Z</time>
</trkpt>
<trkpt lat="45.9234810" lon="10.2937090">
	<ele>604.60</ele>
	<time>2025-07-29T12:30:38.000Z</time>
</trkpt>
<trkpt lat="45.9234710" lon="10.2936870">
	<ele>604.40</ele>
	<time>2025-07-29T12:30:39.000Z</time>
</trkpt>
<trkpt lat="45.9234720" lon="10.2936660">
	<ele>604.20</ele>
	<time>2025-07-29T12:30:40.000Z</time>
</trkpt>
<trkpt lat="45.9234770" lon="10.2936510">
	<ele>604.00</ele>
	<time>2025-07-29T12:30:41.000Z</time>
</trkpt>
<trkpt lat="45.9234870" lon="10.2936330">
	<ele>603.80</ele>
	<time>2025-07-29T12:30:42.000Z</time>
</trkpt>
<trkpt lat="45.9235050" lon="10.2936130">
	<ele>603.60</ele>
	<time>2025-07-29T12:30:43.000Z</time>
</trkpt>
<trkpt lat="45.9235210" lon="10.2935890">
	<ele>603.40</ele>
	<time>2025-07-29T12:30:44.000Z</time>
</trkpt>
<trkpt lat="45.9235310" lon="10.2935660">
	<ele>603.00</ele>
	<time>2025-07-29T12:30:45.000Z</time>
</trkpt>
<trkpt lat="45.9235390" lon="10.2935420">
	<ele>602.80</ele>
	<time>2025-07-29T12:30:46.000Z</time>
</trkpt>
<trkpt lat="45.9235380" lon="10.2935330">
	<ele>602.40</ele>
	<time>2025-07-29T12:30:47.000Z</time>
</trkpt>
<trkpt lat="45.9235330" lon="10.2935160">
	<ele>602.00</ele>
	<time>2025-07-29T12:30:48.000Z</time>
</trkpt>
<trkpt lat="45.9235360" lon="10.2934930">
	<ele>601.40</ele>
	<time>2025-07-29T12:30:49.000Z</time>
</trkpt>
<trkpt lat="45.9235430" lon="10.2934710">
	<ele>601.20</ele>
	<time>2025-07-29T12:30:50.000Z</time>
</trkpt>
<trkpt lat="45.9235540" lon="10.2934560">
	<ele>600.80</ele>
	<time>2025-07-29T12:30:51.000Z</time>
</trkpt>
<trkpt lat="45.9235650" lon="10.2934420">
	<ele>600.40</ele>
	<time>2025-07-29T12:30:52.000Z</time>
</trkpt>
<trkpt lat="45.9235760" lon="10.2934250">
	<ele>599.80</ele>
	<time>2025-07-29T12:30:53.000Z</time>
</trkpt>
<trkpt lat="45.9235890" lon="10.2934090">
	<ele>599.60</ele>
	<time>2025-07-29T12:30:54.000Z</time>
</trkpt>
<trkpt lat="45.9235980" lon="10.2933890">
	<ele>599.20</ele>
	<time>2025-07-29T12:30:55.000Z</time>
</trkpt>
<trkpt lat="45.9236120" lon="10.2933620">
	<ele>598.60</ele>
	<time>2025-07-29T12:30:56.000Z</time>
</trkpt>
<trkpt lat="45.9236200" lon="10.2933360">
	<ele>598.40</ele>
	<time>2025-07-29T12:30:57.000Z</time>
</trkpt>
<trkpt lat="45.9236260" lon="10.2933160">
	<ele>598.00</ele>
	<time>2025-07-29T12:30:58.000Z</time>
</trkpt>
<trkpt lat="45.9236300" lon="10.2933040">
	<ele>597.60</ele>
	<time>2025-07-29T12:30:59.000Z</time>
</trkpt>
<trkpt lat="45.9236390" lon="10.2932780">
	<ele>597.20</ele>
	<time>2025-07-29T12:31:00.000Z</time>
</trkpt>
<trkpt lat="45.9236430" lon="10.2932600">
	<ele>596.80</ele>
	<time>2025-07-29T12:31:01.000Z</time>
</trkpt>
<trkpt lat="45.9236490" lon="10.2932380">
	<ele>596.60</ele>
	<time>2025-07-29T12:31:02.000Z</time>
</trkpt>
<trkpt lat="45.9236610" lon="10.2932110">
	<ele>596.20</ele>
	<time>2025-07-29T12:31:03.000Z</time>
</trkpt>
<trkpt lat="45.9236760" lon="10.2931840">
	<ele>596.20</ele>
	<time>2025-07-29T12:31:04.000Z</time>
</trkpt>
<trkpt lat="45.9236880" lon="10.2931600">
	<ele>595.80</ele>
	<time>2025-07-29T12:31:05.000Z</time>
</trkpt>
<trkpt lat="45.9237000" lon="10.2931380">
	<ele>595.40</ele>
	<time>2025-07-29T12:31:06.000Z</time>
</trkpt>
<trkpt lat="45.9237110" lon="10.2931260">
	<ele>595.00</ele>
	<time>2025-07-29T12:31:07.000Z</time>
</trkpt>
<trkpt lat="45.9237160" lon="10.2931060">
	<ele>594.60</ele>
	<time>2025-07-29T12:31:08.000Z</time>
</trkpt>
<trkpt lat="45.9237220" lon="10.2930770">
	<ele>594.20</ele>
	<time>2025-07-29T12:31:09.000Z</time>
</trkpt>
<trkpt lat="45.9237350" lon="10.2930540">
	<ele>593.80</ele>
	<time>2025-07-29T12:31:10.000Z</time>
</trkpt>
<trkpt lat="45.9237460" lon="10.2930300">
	<ele>593.40</ele>
	<time>2025-07-29T12:31:11.000Z</time>
</trkpt>
<trkpt lat="45.9237590" lon="10.2930050">
	<ele>593.00</ele>
	<time>2025-07-29T12:31:12.000Z</time>
</trkpt>
<trkpt lat="45.9237660" lon="10.2929750">
	<ele>592.60</ele>
	<time>2025-07-29T12:31:13.000Z</time>
</trkpt>
<trkpt lat="45.9237830" lon="10.2929490">
	<ele>592.00</ele>
	<time>2025-07-29T12:31:14.000Z</time>
</trkpt>
<trkpt lat="45.9238020" lon="10.2929220">
	<ele>591.80</ele>
	<time>2025-07-29T12:31:15.000Z</time>
</trkpt>
<trkpt lat="45.9238250" lon="10.2928930">
	<ele>591.40</ele>
	<time>2025-07-29T12:31:16.000Z</time>
</trkpt>
<trkpt lat="45.9238310" lon="10.2928860">
	<ele>591.00</ele>
	<time>2025-07-29T12:31:17.000Z</time>
</trkpt>
<trkpt lat="45.9238430" lon="10.2928690">
	<ele>590.60</ele>
	<time>2025-07-29T12:31:18.000Z</time>
</trkpt>
<trkpt lat="45.9238490" lon="10.2928550">
	<ele>590.20</ele>
	<time>2025-07-29T12:31:19.000Z</time>
</trkpt>
<trkpt lat="45.9238510" lon="10.2928290">
	<ele>589.80</ele>
	<time>2025-07-29T12:31:20.000Z</time>
</trkpt>
<trkpt lat="45.9238550" lon="10.2928070">
	<ele>589.60</ele>
	<time>2025-07-29T12:31:21.000Z</time>
</trkpt>
<trkpt lat="45.9238620" lon="10.2927860">
	<ele>588.80</ele>
	<time>2025-07-29T12:31:22.000Z</time>
</trkpt>
<trkpt lat="45.9238740" lon="10.2927640">
	<ele>588.40</ele>
	<time>2025-07-29T12:31:23.000Z</time>
</trkpt>
<trkpt lat="45.9238740" lon="10.2927450">
	<ele>588.00</ele>
	<time>2025-07-29T12:31:24.000Z</time>
</trkpt>
<trkpt lat="45.9238640" lon="10.2927330">
	<ele>587.60</ele>
	<time>2025-07-29T12:31:25.000Z</time>
</trkpt>
<trkpt lat="45.9238640" lon="10.2927210">
	<ele>587.40</ele>
	<time>2025-07-29T12:31:26.000Z</time>
</trkpt>
<trkpt lat="45.9238580" lon="10.2927110">
	<ele>587.20</ele>
	<time>2025-07-29T12:31:27.000Z</time>
</trkpt>
<trkpt lat="45.9238630" lon="10.2926960">
	<ele>587.20</ele>
	<time>2025-07-29T12:31:28.000Z</time>
</trkpt>
<trkpt lat="45.9238740" lon="10.2926710">
	<ele>586.60</ele>
	<time>2025-07-29T12:31:29.000Z</time>
</trkpt>
<trkpt lat="45.9238690" lon="10.2926510">
	<ele>586.40</ele>
	<time>2025-07-29T12:31:30.000Z</time>
</trkpt>
<trkpt lat="45.9238760" lon="10.2926280">
	<ele>586.00</ele>
	<time>2025-07-29T12:31:31.000Z</time>
</trkpt>
<trkpt lat="45.9238850" lon="10.2926040">
	<ele>585.80</ele>
	<time>2025-07-29T12:31:32.000Z</time>
</trkpt>
<trkpt lat="45.9238950" lon="10.2925830">
	<ele>585.40</ele>
	<time>2025-07-29T12:31:33.000Z</time>
</trkpt>
<trkpt lat="45.9239030" lon="10.2925650">
	<ele>585.40</ele>
	<time>2025-07-29T12:31:34.000Z</time>
</trkpt>
<trkpt lat="45.9239080" lon="10.2925480">
	<ele>585.20</ele>
	<time>2025-07-29T12:31:35.000Z</time>
</trkpt>
<trkpt lat="45.9239220" lon="10.2925310">
	<ele>584.60</ele>
	<time>2025-07-29T12:31:36.000Z</time>
</trkpt>
<trkpt lat="45.9239260" lon="10.2925110">
	<ele>584.20</ele>
	<time>2025-07-29T12:31:37.000Z</time>
</trkpt>
<trkpt lat="45.9239340" lon="10.2924910">
	<ele>583.80</ele>
	<time>2025-07-29T12:31:38.000Z</time>
</trkpt>
<trkpt lat="45.9239390" lon="10.2924710">
	<ele>583.40</ele>
	<time>2025-07-29T12:31:39.000Z</time>
</trkpt>
<trkpt lat="45.9239450" lon="10.2924600">
	<ele>582.80</ele>
	<time>2025-07-29T12:31:40.000Z</time>
</trkpt>
<trkpt lat="45.9239500" lon="10.2924500">
	<ele>582.40</ele>
	<time>2025-07-29T12:31:41.000Z</time>
</trkpt>
<trkpt lat="45.9239610" lon="10.2924310">
	<ele>582.00</ele>
	<time>2025-07-29T12:31:42.000Z</time>
</trkpt>
<trkpt lat="45.9239720" lon="10.2924140">
	<ele>581.80</ele>
	<time>2025-07-29T12:31:43.000Z</time>
</trkpt>
<trkpt lat="45.9239800" lon="10.2923990">
	<ele>581.60</ele>
	<time>2025-07-29T12:31:44.000Z</time>
</trkpt>
<trkpt lat="45.9239890" lon="10.2923810">
	<ele>581.40</ele>
	<time>2025-07-29T12:31:45.000Z</time>
</trkpt>
<trkpt lat="45.9239940" lon="10.2923690">
	<ele>581.20</ele>
	<time>2025-07-29T12:31:46.000Z</time>
</trkpt>
<trkpt lat="45.9240030" lon="10.2923600">
	<ele>581.00</ele>
	<time>2025-07-29T12:31:47.000Z</time>
</trkpt>
<trkpt lat="45.9240100" lon="10.2923510">
	<ele>580.80</ele>
	<time>2025-07-29T12:31:48.000Z</time>
</trkpt>
<trkpt lat="45.9240170" lon="10.2923380">
	<ele>580.80</ele>
	<time>2025-07-29T12:31:49.000Z</time>
</trkpt>
<trkpt lat="45.9240320" lon="10.2923220">
	<ele>580.60</ele>
	<time>2025-07-29T12:31:50.000Z</time>
</trkpt>
<trkpt lat="45.9240470" lon="10.2923020">
	<ele>580.40</ele>
	<time>2025-07-29T12:31:51.000Z</time>
</trkpt>
<trkpt lat="45.9240660" lon="10.2922820">
	<ele>580.20</ele>
	<time>2025-07-29T12:31:52.000Z</time>
</trkpt>
<trkpt lat="45.9240860" lon="10.2922550">
	<ele>580.00</ele>
	<time>2025-07-29T12:31:53.000Z</time>
</trkpt>
<trkpt lat="45.9241010" lon="10.2922340">
	<ele>580.00</ele>
	<time>2025-07-29T12:31:54.000Z</time>
</trkpt>
<trkpt lat="45.9241150" lon="10.2922190">
	<ele>579.80</ele>
	<time>2025-07-29T12:31:55.000Z</time>
</trkpt>
<trkpt lat="45.9241270" lon="10.2922060">
	<ele>579.40</ele>
	<time>2025-07-29T12:31:56.000Z</time>
</trkpt>
<trkpt lat="45.9241430" lon="10.2921940">
	<ele>579.40</ele>
	<time>2025-07-29T12:31:57.000Z</time>
</trkpt>
<trkpt lat="45.9241570" lon="10.2921790">
	<ele>579.20</ele>
	<time>2025-07-29T12:31:58.000Z</time>
</trkpt>
<trkpt lat="45.9241680" lon="10.2921680">
	<ele>579.00</ele>
	<time>2025-07-29T12:31:59.000Z</time>
</trkpt>
<trkpt lat="45.9241810" lon="10.2921580">
	<ele>579.00</ele>
	<time>2025-07-29T12:32:00.000Z</time>
</trkpt>
<trkpt lat="45.9241970" lon="10.2921460">
	<ele>578.80</ele>
	<time>2025-07-29T12:32:01.000Z</time>
</trkpt>
<trkpt lat="45.9242130" lon="10.2921350">
	<ele>578.80</ele>
	<time>2025-07-29T12:32:02.000Z</time>
</trkpt>
<trkpt lat="45.9242240" lon="10.2921260">
	<ele>578.80</ele>
	<time>2025-07-29T12:32:03.000Z</time>
</trkpt>
<trkpt lat="45.9242350" lon="10.2921180">
	<ele>578.80</ele>
	<time>2025-07-29T12:32:04.000Z</time>
</trkpt>
<trkpt lat="45.9242550" lon="10.2921100">
	<ele>578.80</ele>
	<time>2025-07-29T12:32:05.000Z</time>
</trkpt>
<trkpt lat="45.9242800" lon="10.2920970">
	<ele>578.60</ele>
	<time>2025-07-29T12:32:06.000Z</time>
</trkpt>
<trkpt lat="45.9242970" lon="10.2920870">
	<ele>578.40</ele>
	<time>2025-07-29T12:32:07.000Z</time>
</trkpt>
<trkpt lat="45.9243140" lon="10.2920820">
	<ele>578.20</ele>
	<time>2025-07-29T12:32:08.000Z</time>
</trkpt>
<trkpt lat="45.9243250" lon="10.2920860">
	<ele>578.00</ele>
	<time>2025-07-29T12:32:09.000Z</time>
</trkpt>
<trkpt lat="45.9243330" lon="10.2921000">
	<ele>577.80</ele>
	<time>2025-07-29T12:32:10.000Z</time>
</trkpt>
<trkpt lat="45.9243490" lon="10.2921120">
	<ele>577.60</ele>
	<time>2025-07-29T12:32:11.000Z</time>
</trkpt>
<trkpt lat="45.9243670" lon="10.2921280">
	<ele>577.40</ele>
	<time>2025-07-29T12:32:12.000Z</time>
</trkpt>
<trkpt lat="45.9243810" lon="10.2921390">
	<ele>577.20</ele>
	<time>2025-07-29T12:32:13.000Z</time>
</trkpt>
<trkpt lat="45.9243950" lon="10.2921560">
	<ele>577.00</ele>
	<time>2025-07-29T12:32:14.000Z</time>
</trkpt>
<trkpt lat="45.9244030" lon="10.2921760">
	<ele>576.80</ele>
	<time>2025-07-29T12:32:15.000Z</time>
</trkpt>
<trkpt lat="45.9244100" lon="10.2921990">
	<ele>576.60</ele>
	<time>2025-07-29T12:32:16.000Z</time>
</trkpt>
<trkpt lat="45.9244160" lon="10.2922190">
	<ele>576.60</ele>
	<time>2025-07-29T12:32:17.000Z</time>
</trkpt>
<trkpt lat="45.9244230" lon="10.2922310">
	<ele>576.40</ele>
	<time>2025-07-29T12:32:18.000Z</time>
</trkpt>
<trkpt lat="45.9244280" lon="10.2922410">
	<ele>576.40</ele>
	<time>2025-07-29T12:32:19.000Z</time>
</trkpt>
<trkpt lat="45.9244220" lon="10.2922550">
	<ele>576.40</ele>
	<time>2025-07-29T12:32:20.000Z</time>
</trkpt>
<trkpt lat="45.9244220" lon="10.2922700">
	<ele>576.20</ele>
	<time>2025-07-29T12:32:21.000Z</time>
</trkpt>
<trkpt lat="45.9244240" lon="10.2922760">
	<ele>576.00</ele>
	<time>2025-07-29T12:32:22.000Z</time>
</trkpt>
<trkpt lat="45.9244320" lon="10.2922870">
	<ele>575.80</ele>
	<time>2025-07-29T12:32:23.000Z</time>
</trkpt>
<trkpt lat="45.9244440" lon="10.2923000">
	<ele>575.60</ele>
	<time>2025-07-29T12:32:24.000Z</time>
</trkpt>
<trkpt lat="45.9244530" lon="10.2923170">
	<ele>575.20</ele>
	<time>2025-07-29T12:32:25.000Z</time>
</trkpt>
<trkpt lat="45.9244640" lon="10.2923300">
	<ele>575.00</ele>
	<time>2025-07-29T12:32:26.000Z</time>
</trkpt>
<trkpt lat="45.9244720" lon="10.2923510">
	<ele>574.60</ele>
	<time>2025-07-29T12:32:27.000Z</time>
</trkpt>
<trkpt lat="45.9244790" lon="10.2923630">
	<ele>574.20</ele>
	<time>2025-07-29T12:32:28.000Z</time>
</trkpt>
<trkpt lat="45.9244820" lon="10.2923740">
	<ele>573.80</ele>
	<time>2025-07-29T12:32:29.000Z</time>
</trkpt>
<trkpt lat="45.9244860" lon="10.2923870">
	<ele>573.60</ele>
	<time>2025-07-29T12:32:30.000Z</time>
</trkpt>
<trkpt lat="45.9244910" lon="10.2924070">
	<ele>573.20</ele>
	<time>2025-07-29T12:32:31.000Z</time>
</trkpt>
<trkpt lat="45.9245000" lon="10.2924260">
	<ele>573.00</ele>
	<time>2025-07-29T12:32:32.000Z</time>
</trkpt>
<trkpt lat="45.9245140" lon="10.2924440">
	<ele>572.60</ele>
	<time>2025-07-29T12:32:33.000Z</time>
</trkpt>
<trkpt lat="45.9245230" lon="10.2924670">
	<ele>572.40</ele>
	<time>2025-07-29T12:32:34.000Z</time>
</trkpt>
<trkpt lat="45.9245330" lon="10.2924870">
	<ele>572.20</ele>
	<time>2025-07-29T12:32:35.000Z</time>
</trkpt>
<trkpt lat="45.9245380" lon="10.2925120">
	<ele>572.00</ele>
	<time>2025-07-29T12:32:36.000Z</time>
</trkpt>
<trkpt lat="45.9245420" lon="10.2925410">
	<ele>571.80</ele>
	<time>2025-07-29T12:32:37.000Z</time>
</trkpt>
<trkpt lat="45.9245430" lon="10.2925610">
	<ele>571.60</ele>
	<time>2025-07-29T12:32:38.000Z</time>
</trkpt>
<trkpt lat="45.9245420" lon="10.2925830">
	<ele>571.40</ele>
	<time>2025-07-29T12:32:39.000Z</time>
</trkpt>
<trkpt lat="45.9245450" lon="10.2925980">
	<ele>571.20</ele>
	<time>2025-07-29T12:32:40.000Z</time>
</trkpt>
<trkpt lat="45.9245600" lon="10.2926040">
	<ele>571.00</ele>
	<time>2025-07-29T12:32:41.000Z</time>
</trkpt>
<trkpt lat="45.9245700" lon="10.2926110">
	<ele>570.80</ele>
	<time>2025-07-29T12:32:42.000Z</time>
</trkpt>
<trkpt lat="45.9245740" lon="10.2926220">
	<ele>570.80</ele>
	<time>2025-07-29T12:32:43.000Z</time>
</trkpt>
<trkpt lat="45.9245770" lon="10.2926390">
	<ele>570.60</ele>
	<time>2025-07-29T12:32:44.000Z</time>
</trkpt>
<trkpt lat="45.9245730" lon="10.2926580">
	<ele>570.40</ele>
	<time>2025-07-29T12:32:45.000Z</time>
</trkpt>
<trkpt lat="45.9245650" lon="10.2926800">
	<ele>570.20</ele>
	<time>2025-07-29T12:32:46.000Z</time>
</trkpt>
<trkpt lat="45.9245580" lon="10.2927020">
	<ele>570.00</ele>
	<time>2025-07-29T12:32:47.000Z</time>
</trkpt>
<trkpt lat="45.9245550" lon="10.2927290">
	<ele>569.80</ele>
	<time>2025-07-29T12:32:48.000Z</time>
</trkpt>
<trkpt lat="45.9245600" lon="10.2927420">
	<ele>569.60</ele>
	<time>2025-07-29T12:32:49.000Z</time>
</trkpt>
<trkpt lat="45.9245660" lon="10.2927600">
	<ele>569.40</ele>
	<time>2025-07-29T12:32:50.000Z</time>
</trkpt>
<trkpt lat="45.9245620" lon="10.2927860">
	<ele>569.20</ele>
	<time>2025-07-29T12:32:51.000Z</time>
</trkpt>
<trkpt lat="45.9245640" lon="10.2928040">
	<ele>568.80</ele>
	<time>2025-07-29T12:32:52.000Z</time>
</trkpt>
<trkpt lat="45.9245720" lon="10.2928230">
	<ele>568.60</ele>
	<time>2025-07-29T12:32:53.000Z</time>
</trkpt>
<trkpt lat="45.9245810" lon="10.2928390">
	<ele>568.20</ele>
	<time>2025-07-29T12:32:54.000Z</time>
</trkpt>
<trkpt lat="45.9245890" lon="10.2928580">
	<ele>568.00</ele>
	<time>2025-07-29T12:32:55.000Z</time>
</trkpt>
<trkpt lat="45.9245900" lon="10.2928780">
	<ele>567.80</ele>
	<time>2025-07-29T12:32:56.000Z</time>
</trkpt>
<trkpt lat="45.9245980" lon="10.2928910">
	<ele>567.40</ele>
	<time>2025-07-29T12:32:57.000Z</time>
</trkpt>
<trkpt lat="45.9246000" lon="10.2929180">
	<ele>567.20</ele>
	<time>2025-07-29T12:32:58.000Z</time>
</trkpt>
<trkpt lat="45.9246090" lon="10.2929390">
	<ele>566.80</ele>
	<time>2025-07-29T12:32:59.000Z</time>
</trkpt>
<trkpt lat="45.9246270" lon="10.2929560">
	<ele>566.40</ele>
	<time>2025-07-29T12:33:00.000Z</time>
</trkpt>
<trkpt lat="45.9246380" lon="10.2929740">
	<ele>566.00</ele>
	<time>2025-07-29T12:33:01.000Z</time>
</trkpt>
<trkpt lat="45.9246430" lon="10.2929740">
	<ele>565.60</ele>
	<time>2025-07-29T12:33:02.000Z</time>
</trkpt>
<trkpt lat="45.9246570" lon="10.2929930">
	<ele>565.20</ele>
	<time>2025-07-29T12:33:03.000Z</time>
</trkpt>
<trkpt lat="45.9246740" lon="10.2930120">
	<ele>565.00</ele>
	<time>2025-07-29T12:33:04.000Z</time>
</trkpt>
<trkpt lat="45.9246800" lon="10.2930250">
	<ele>564.80</ele>
	<time>2025-07-29T12:33:05.000Z</time>
</trkpt>
<trkpt lat="45.9246820" lon="10.2930280">
	<ele>564.40</ele>
	<time>2025-07-29T12:33:06.000Z</time>
</trkpt>
<trkpt lat="45.9246830" lon="10.2930280">
	<ele>564.20</ele>
	<time>2025-07-29T12:33:07.000Z</time>
</trkpt>
<trkpt lat="45.9246860" lon="10.2930310">
	<ele>563.80</ele>
	<time>2025-07-29T12:33:08.000Z</time>
</trkpt>
<trkpt lat="45.9246990" lon="10.2930300">
	<ele>563.60</ele>
	<time>2025-07-29T12:33:09.000Z</time>
</trkpt>
<trkpt lat="45.9247190" lon="10.2930310">
	<ele>563.20</ele>
	<time>2025-07-29T12:33:10.000Z</time>
</trkpt>
<trkpt lat="45.9247370" lon="10.2930260">
	<ele>563.00</ele>
	<time>2025-07-29T12:33:11.000Z</time>
</trkpt>
<trkpt lat="45.9247520" lon="10.2930190">
	<ele>562.80</ele>
	<time>2025-07-29T12:33:12.000Z</time>
</trkpt>
<trkpt lat="45.9247650" lon="10.2930020">
	<ele>562.60</ele>
	<time>2025-07-29T12:33:13.000Z</time>
</trkpt>
<trkpt lat="45.9247710" lon="10.2929820">
	<ele>562.40</ele>
	<time>2025-07-29T12:33:14.000Z</time>
</trkpt>
<trkpt lat="45.9247810" lon="10.2929640">
	<ele>562.20</ele>
	<time>2025-07-29T12:33:15.000Z</time>
</trkpt>
<trkpt lat="45.9247900" lon="10.2929450">
	<ele>561.60</ele>
	<time>2025-07-29T12:33:16.000Z</time>
</trkpt>
<trkpt lat="45.9247990" lon="10.2929310">
	<ele>561.40</ele>
	<time>2025-07-29T12:33:17.000Z</time>
</trkpt>
<trkpt lat="45.9248020" lon="10.2929130">
	<ele>561.00</ele>
	<time>2025-07-29T12:33:18.000Z</time>
</trkpt>
<trkpt lat="45.9247980" lon="10.2928970">
	<ele>560.60</ele>
	<time>2025-07-29T12:33:19.000Z</time>
</trkpt>
<trkpt lat="45.9247970" lon="10.2928770">
	<ele>560.20</ele>
	<time>2025-07-29T12:33:20.000Z</time>
</trkpt>
<trkpt lat="45.9247990" lon="10.2928600">
	<ele>559.80</ele>
	<time>2025-07-29T12:33:21.000Z</time>
</trkpt>
<trkpt lat="45.9248070" lon="10.2928410">
	<ele>559.60</ele>
	<time>2025-07-29T12:33:22.000Z</time>
</trkpt>
<trkpt lat="45.9248160" lon="10.2928210">
	<ele>559.20</ele>
	<time>2025-07-29T12:33:23.000Z</time>
</trkpt>
<trkpt lat="45.9248260" lon="10.2928010">
	<ele>558.80</ele>
	<time>2025-07-29T12:33:24.000Z</time>
</trkpt>
<trkpt lat="45.9248200" lon="10.2927820">
	<ele>558.40</ele>
	<time>2025-07-29T12:33:25.000Z</time>
</trkpt>
<trkpt lat="45.9248210" lon="10.2927630">
	<ele>558.20</ele>
	<time>2025-07-29T12:33:26.000Z</time>
</trkpt>
<trkpt lat="45.9248240" lon="10.2927470">
	<ele>558.00</ele>
	<time>2025-07-29T12:33:27.000Z</time>
</trkpt>
<trkpt lat="45.9248310" lon="10.2927330">
	<ele>557.60</ele>
	<time>2025-07-29T12:33:28.000Z</time>
</trkpt>
<trkpt lat="45.9248430" lon="10.2927220">
	<ele>557.40</ele>
	<time>2025-07-29T12:33:29.000Z</time>
</trkpt>
<trkpt lat="45.9248560" lon="10.2927110">
	<ele>557.00</ele>
	<time>2025-07-29T12:33:30.000Z</time>
</trkpt>
<trkpt lat="45.9248640" lon="10.2926990">
	<ele>556.80</ele>
	<time>2025-07-29T12:33:31.000Z</time>
</trkpt>
<trkpt lat="45.9248680" lon="10.2926880">
	<ele>556.60</ele>
	<time>2025-07-29T12:33:32.000Z</time>
</trkpt>
<trkpt lat="45.9248700" lon="10.2926750">
	<ele>556.40</ele>
	<time>2025-07-29T12:33:33.000Z</time>
</trkpt>
<trkpt lat="45.9248710" lon="10.2926580">
	<ele>556.00</ele>
	<time>2025-07-29T12:33:34.000Z</time>
</trkpt>
<trkpt lat="45.9248820" lon="10.2926370">
	<ele>555.80</ele>
	<time>2025-07-29T12:33:35.000Z</time>
</trkpt>
<trkpt lat="45.9248860" lon="10.2926190">
	<ele>555.40</ele>
	<time>2025-07-29T12:33:36.000Z</time>
</trkpt>
<trkpt lat="45.9248870" lon="10.2925960">
	<ele>555.00</ele>
	<time>2025-07-29T12:33:37.000Z</time>
</trkpt>
<trkpt lat="45.9248870" lon="10.2925810">
	<ele>554.80</ele>
	<time>2025-07-29T12:33:38.000Z</time>
</trkpt>
<trkpt lat="45.9248900" lon="10.2925690">
	<ele>554.40</ele>
	<time>2025-07-29T12:33:39.000Z</time>
</trkpt>
<trkpt lat="45.9248930" lon="10.2925590">
	<ele>554.20</ele>
	<time>2025-07-29T12:33:40.000Z</time>
</trkpt>
<trkpt lat="45.9249020" lon="10.2925550">
	<ele>553.80</ele>
	<time>2025-07-29T12:33:41.000Z</time>
</trkpt>
<trkpt lat="45.9249130" lon="10.2925460">
	<ele>553.60</ele>
	<time>2025-07-29T12:33:42.000Z</time>
</trkpt>
<trkpt lat="45.9249170" lon="10.2925440">
	<ele>553.20</ele>
	<time>2025-07-29T12:33:43.000Z</time>
</trkpt>
<trkpt lat="45.9249270" lon="10.2925380">
	<ele>553.00</ele>
	<time>2025-07-29T12:33:44.000Z</time>
</trkpt>
<trkpt lat="45.9249430" lon="10.2925260">
	<ele>552.80</ele>
	<time>2025-07-29T12:33:45.000Z</time>
</trkpt>
<trkpt lat="45.9249550" lon="10.2925230">
	<ele>552.40</ele>
	<time>2025-07-29T12:33:46.000Z</time>
</trkpt>
<trkpt lat="45.9249700" lon="10.2925230">
	<ele>552.00</ele>
	<time>2025-07-29T12:33:47.000Z</time>
</trkpt>
<trkpt lat="45.9249860" lon="10.2925310">
	<ele>551.80</ele>
	<time>2025-07-29T12:33:48.000Z</time>
</trkpt>
<trkpt lat="45.9250010" lon="10.2925400">
	<ele>551.40</ele>
	<time>2025-07-29T12:33:49.000Z</time>
</trkpt>
<trkpt lat="45.9250100" lon="10.2925430">
	<ele>551.00</ele>
	<time>2025-07-29T12:33:50.000Z</time>
</trkpt>
<trkpt lat="45.9250120" lon="10.2925440">
	<ele>550.40</ele>
	<time>2025-07-29T12:33:51.000Z</time>
</trkpt>
<trkpt lat="45.9250150" lon="10.2925440">
	<ele>550.20</ele>
	<time>2025-07-29T12:33:52.000Z</time>
</trkpt>
<trkpt lat="45.9250270" lon="10.2925520">
	<ele>549.80</ele>
	<time>2025-07-29T12:33:53.000Z</time>
</trkpt>
<trkpt lat="45.9250370" lon="10.2925620">
	<ele>549.60</ele>
	<time>2025-07-29T12:33:54.000Z</time>
</trkpt>
<trkpt lat="45.9250560" lon="10.2925670">
	<ele>549.20</ele>
	<time>2025-07-29T12:33:55.000Z</time>
</trkpt>
<trkpt lat="45.9250660" lon="10.2925740">
	<ele>548.80</ele>
	<time>2025-07-29T12:33:56.000Z</time>
</trkpt>
<trkpt lat="45.9250690" lon="10.2925890">
	<ele>548.60</ele>
	<time>2025-07-29T12:33:57.000Z</time>
</trkpt>
<trkpt lat="45.9250610" lon="10.2926040">
	<ele>548.20</ele>
	<time>2025-07-29T12:33:58.000Z</time>
</trkpt>
<trkpt lat="45.9250560" lon="10.2926180">
	<ele>548.00</ele>
	<time>2025-07-29T12:33:59.000Z</time>
</trkpt>
<trkpt lat="45.9250620" lon="10.2926360">
	<ele>547.80</ele>
	<time>2025-07-29T12:34:00.000Z</time>
</trkpt>
<trkpt lat="45.9250680" lon="10.2926460">
	<ele>547.60</ele>
	<time>2025-07-29T12:34:01.000Z</time>
</trkpt>
<trkpt lat="45.9250710" lon="10.2926600">
	<ele>547.40</ele>
	<time>2025-07-29T12:34:02.000Z</time>
</trkpt>
<trkpt lat="45.9250730" lon="10.2926720">
	<ele>547.20</ele>
	<time>2025-07-29T12:34:03.000Z</time>
</trkpt>
<trkpt lat="45.9250730" lon="10.2926840">
	<ele>547.20</ele>
	<time>2025-07-29T12:34:04.000Z</time>
</trkpt>
<trkpt lat="45.9250740" lon="10.2926960">
	<ele>547.00</ele>
	<time>2025-07-29T12:34:05.000Z</time>
</trkpt>
<trkpt lat="45.9250750" lon="10.2927100">
	<ele>547.00</ele>
	<time>2025-07-29T12:34:06.000Z</time>
</trkpt>
<trkpt lat="45.9250730" lon="10.2927350">
	<ele>546.80</ele>
	<time>2025-07-29T12:34:07.000Z</time>
</trkpt>
<trkpt lat="45.9250780" lon="10.2927530">
	<ele>546.60</ele>
	<time>2025-07-29T12:34:08.000Z</time>
</trkpt>
<trkpt lat="45.9250830" lon="10.2927630">
	<ele>546.40</ele>
	<time>2025-07-29T12:34:09.000Z</time>
</trkpt>
<trkpt lat="45.9250920" lon="10.2927660">
	<ele>546.40</ele>
	<time>2025-07-29T12:34:10.000Z</time>
</trkpt>
<trkpt lat="45.9251000" lon="10.2927740">
	<ele>546.20</ele>
	<time>2025-07-29T12:34:11.000Z</time>
</trkpt>
<trkpt lat="45.9251030" lon="10.2927820">
	<ele>545.80</ele>
	<time>2025-07-29T12:34:12.000Z</time>
</trkpt>
<trkpt lat="45.9251050" lon="10.2927910">
	<ele>545.80</ele>
	<time>2025-07-29T12:34:13.000Z</time>
</trkpt>
<trkpt lat="45.9251040" lon="10.2928020">
	<ele>545.60</ele>
	<time>2025-07-29T12:34:14.000Z</time>
</trkpt>
<trkpt lat="45.9251020" lon="10.2928080">
	<ele>545.40</ele>
	<time>2025-07-29T12:34:15.000Z</time>
</trkpt>
<trkpt lat="45.9251000" lon="10.2928180">
	<ele>545.20</ele>
	<time>2025-07-29T12:34:16.000Z</time>
</trkpt>
<trkpt lat="45.9251010" lon="10.2928290">
	<ele>545.00</ele>
	<time>2025-07-29T12:34:17.000Z</time>
</trkpt>
<trkpt lat="45.9251050" lon="10.2928380">
	<ele>545.00</ele>
	<time>2025-07-29T12:34:18.000Z</time>
</trkpt>
<trkpt lat="45.9251040" lon="10.2928510">
	<ele>544.80</ele>
	<time>2025-07-29T12:34:19.000Z</time>
</trkpt>
<trkpt lat="45.9251060" lon="10.2928710">
	<ele>544.80</ele>
	<time>2025-07-29T12:34:20.000Z</time>
</trkpt>
<trkpt lat="45.9251060" lon="10.2928920">
	<ele>544.80</ele>
	<time>2025-07-29T12:34:21.000Z</time>
</trkpt>
<trkpt lat="45.9251130" lon="10.2929060">
	<ele>544.60</ele>
	<time>2025-07-29T12:34:22.000Z</time>
</trkpt>
<trkpt lat="45.9251200" lon="10.2929230">
	<ele>544.40</ele>
	<time>2025-07-29T12:34:23.000Z</time>
</trkpt>
<trkpt lat="45.9251240" lon="10.2929410">
	<ele>544.40</ele>
	<time>2025-07-29T12:34:24.000Z</time>
</trkpt>
<trkpt lat="45.9251310" lon="10.2929490">
	<ele>544.40</ele>
	<time>2025-07-29T12:34:25.000Z</time>
</trkpt>
<trkpt lat="45.9251380" lon="10.2929620">
	<ele>544.20</ele>
	<time>2025-07-29T12:34:26.000Z</time>
</trkpt>
<trkpt lat="45.9251340" lon="10.2929860">
	<ele>544.00</ele>
	<time>2025-07-29T12:34:27.000Z</time>
</trkpt>
<trkpt lat="45.9251320" lon="10.2930060">
	<ele>543.80</ele>
	<time>2025-07-29T12:34:28.000Z</time>
</trkpt>
<trkpt lat="45.9251490" lon="10.2930200">
	<ele>543.60</ele>
	<time>2025-07-29T12:34:29.000Z</time>
</trkpt>
<trkpt lat="45.9251750" lon="10.2930330">
	<ele>543.40</ele>
	<time>2025-07-29T12:34:30.000Z</time>
</trkpt>
<trkpt lat="45.9251930" lon="10.2930410">
	<ele>543.20</ele>
	<time>2025-07-29T12:34:31.000Z</time>
</trkpt>
<trkpt lat="45.9252110" lon="10.2930540">
	<ele>543.00</ele>
	<time>2025-07-29T12:34:32.000Z</time>
</trkpt>
<trkpt lat="45.9252050" lon="10.2930710">
	<ele>543.00</ele>
	<time>2025-07-29T12:34:33.000Z</time>
</trkpt>
<trkpt lat="45.9252040" lon="10.2931010">
	<ele>543.00</ele>
	<time>2025-07-29T12:34:34.000Z</time>
</trkpt>
<trkpt lat="45.9252110" lon="10.2931270">
	<ele>542.80</ele>
	<time>2025-07-29T12:34:35.000Z</time>
</trkpt>
<trkpt lat="45.9252210" lon="10.2931440">
	<ele>542.60</ele>
	<time>2025-07-29T12:34:36.000Z</time>
</trkpt>
<trkpt lat="45.9252300" lon="10.2931580">
	<ele>542.60</ele>
	<time>2025-07-29T12:34:37.000Z</time>
</trkpt>
<trkpt lat="45.9252410" lon="10.2931770">
	<ele>542.40</ele>
	<time>2025-07-29T12:34:38.000Z</time>
</trkpt>
<trkpt lat="45.9252600" lon="10.2931920">
	<ele>542.40</ele>
	<time>2025-07-29T12:34:39.000Z</time>
</trkpt>
<trkpt lat="45.9252820" lon="10.2932020">
	<ele>542.20</ele>
	<time>2025-07-29T12:34:40.000Z</time>
</trkpt>
<trkpt lat="45.9253020" lon="10.2932110">
	<ele>542.00</ele>
	<time>2025-07-29T12:34:41.000Z</time>
</trkpt>
<trkpt lat="45.9253110" lon="10.2932240">
	<ele>541.80</ele>
	<time>2025-07-29T12:34:42.000Z</time>
</trkpt>
<trkpt lat="45.9253210" lon="10.2932330">
	<ele>541.40</ele>
	<time>2025-07-29T12:34:43.000Z</time>
</trkpt>
<trkpt lat="45.9253340" lon="10.2932460">
	<ele>541.20</ele>
	<time>2025-07-29T12:34:44.000Z</time>
</trkpt>
<trkpt lat="45.9253480" lon="10.2932580">
	<ele>541.00</ele>
	<time>2025-07-29T12:34:45.000Z</time>
</trkpt>
<trkpt lat="45.9253510" lon="10.2932740">
	<ele>540.80</ele>
	<time>2025-07-29T12:34:46.000Z</time>
</trkpt>
<trkpt lat="45.9253560" lon="10.2932900">
	<ele>540.80</ele>
	<time>2025-07-29T12:34:47.000Z</time>
</trkpt>
<trkpt lat="45.9253570" lon="10.2933040">
	<ele>540.40</ele>
	<time>2025-07-29T12:34:48.000Z</time>
</trkpt>
<trkpt lat="45.9253670" lon="10.2933130">
	<ele>540.20</ele>
	<time>2025-07-29T12:34:49.000Z</time>
</trkpt>
<trkpt lat="45.9253830" lon="10.2933190">
	<ele>540.00</ele>
	<time>2025-07-29T12:34:50.000Z</time>
</trkpt>
<trkpt lat="45.9253980" lon="10.2933260">
	<ele>539.80</ele>
	<time>2025-07-29T12:34:51.000Z</time>
</trkpt>
<trkpt lat="45.9254100" lon="10.2933210">
	<ele>539.40</ele>
	<time>2025-07-29T12:34:52.000Z</time>
</trkpt>
<trkpt lat="45.9254330" lon="10.2933120">
	<ele>539.00</ele>
	<time>2025-07-29T12:34:53.000Z</time>
</trkpt>
<trkpt lat="45.9254510" lon="10.2933140">
	<ele>538.80</ele>
	<time>2025-07-29T12:34:54.000Z</time>
</trkpt>
<trkpt lat="45.9254640" lon="10.2933230">
	<ele>538.60</ele>
	<time>2025-07-29T12:34:55.000Z</time>
</trkpt>
<trkpt lat="45.9254750" lon="10.2933300">
	<ele>538.40</ele>
	<time>2025-07-29T12:34:56.000Z</time>
</trkpt>
<trkpt lat="45.9254820" lon="10.2933390">
	<ele>538.20</ele>
	<time>2025-07-29T12:34:57.000Z</time>
</trkpt>
<trkpt lat="45.9254910" lon="10.2933470">
	<ele>538.00</ele>
	<time>2025-07-29T12:34:58.000Z</time>
</trkpt>
<trkpt lat="45.9254980" lon="10.2933500">
	<ele>537.80</ele>
	<time>2025-07-29T12:34:59.000Z</time>
</trkpt>
<trkpt lat="45.9255110" lon="10.2933550">
	<ele>537.40</ele>
	<time>2025-07-29T12:35:00.000Z</time>
</trkpt>
<trkpt lat="45.9255270" lon="10.2933590">
	<ele>537.00</ele>
	<time>2025-07-29T12:35:01.000Z</time>
</trkpt>
<trkpt lat="45.9255390" lon="10.2933630">
	<ele>536.80</ele>
	<time>2025-07-29T12:35:02.000Z</time>
</trkpt>
<trkpt lat="45.9255630" lon="10.2933700">
	<ele>536.40</ele>
	<time>2025-07-29T12:35:03.000Z</time>
</trkpt>
<trkpt lat="45.9255890" lon="10.2933700">
	<ele>536.00</ele>
	<time>2025-07-29T12:35:04.000Z</time>
</trkpt>
<trkpt lat="45.9256090" lon="10.2933730">
	<ele>535.60</ele>
	<time>2025-07-29T12:35:05.000Z</time>
</trkpt>
<trkpt lat="45.9256240" lon="10.2933790">
	<ele>535.40</ele>
	<time>2025-07-29T12:35:06.000Z</time>
</trkpt>
<trkpt lat="45.9256350" lon="10.2933870">
	<ele>535.20</ele>
	<time>2025-07-29T12:35:07.000Z</time>
</trkpt>
<trkpt lat="45.9256470" lon="10.2933980">
	<ele>534.80</ele>
	<time>2025-07-29T12:35:08.000Z</time>
</trkpt>
<trkpt lat="45.9256600" lon="10.2934130">
	<ele>534.60</ele>
	<time>2025-07-29T12:35:09.000Z</time>
</trkpt>
<trkpt lat="45.9256740" lon="10.2934300">
	<ele>534.20</ele>
	<time>2025-07-29T12:35:10.000Z</time>
</trkpt>
<trkpt lat="45.9256950" lon="10.2934400">
	<ele>534.00</ele>
	<time>2025-07-29T12:35:11.000Z</time>
</trkpt>
<trkpt lat="45.9257140" lon="10.2934490">
	<ele>533.80</ele>
	<time>2025-07-29T12:35:12.000Z</time>
</trkpt>
<trkpt lat="45.9257200" lon="10.2934690">
	<ele>533.60</ele>
	<time>2025-07-29T12:35:13.000Z</time>
</trkpt>
<trkpt lat="45.9257270" lon="10.2934850">
	<ele>533.40</ele>
	<time>2025-07-29T12:35:14.000Z</time>
</trkpt>
<trkpt lat="45.9257370" lon="10.2934950">
	<ele>533.00</ele>
	<time>2025-07-29T12:35:15.000Z</time>
</trkpt>
<trkpt lat="45.9257500" lon="10.2935020">
	<ele>532.80</ele>
	<time>2025-07-29T12:35:16.000Z</time>
</trkpt>
<trkpt lat="45.9257650" lon="10.2935140">
	<ele>532.60</ele>
	<time>2025-07-29T12:35:17.000Z</time>
</trkpt>
<trkpt lat="45.9257720" lon="10.2935220">
	<ele>532.20</ele>
	<time>2025-07-29T12:35:18.000Z</time>
</trkpt>
<trkpt lat="45.9257910" lon="10.2935310">
	<ele>532.20</ele>
	<time>2025-07-29T12:35:19.000Z</time>
</trkpt>
<trkpt lat="45.9258100" lon="10.2935390">
	<ele>532.00</ele>
	<time>2025-07-29T12:35:20.000Z</time>
</trkpt>
<trkpt lat="45.9258290" lon="10.2935490">
	<ele>531.80</ele>
	<time>2025-07-29T12:35:21.000Z</time>
</trkpt>
<trkpt lat="45.9258500" lon="10.2935610">
	<ele>531.60</ele>
	<time>2025-07-29T12:35:22.000Z</time>
</trkpt>
<trkpt lat="45.9258660" lon="10.2935730">
	<ele>531.40</ele>
	<time>2025-07-29T12:35:23.000Z</time>
</trkpt>
<trkpt lat="45.9258760" lon="10.2935920">
	<ele>531.00</ele>
	<time>2025-07-29T12:35:24.000Z</time>
</trkpt>
<trkpt lat="45.9258860" lon="10.2936090">
	<ele>530.80</ele>
	<time>2025-07-29T12:35:25.000Z</time>
</trkpt>
<trkpt lat="45.9259030" lon="10.2936260">
	<ele>530.60</ele>
	<time>2025-07-29T12:35:26.000Z</time>
</trkpt>
<trkpt lat="45.9259200" lon="10.2936360">
	<ele>530.40</ele>
	<time>2025-07-29T12:35:27.000Z</time>
</trkpt>
<trkpt lat="45.9259360" lon="10.2936410">
	<ele>530.20</ele>
	<time>2025-07-29T12:35:28.000Z</time>
</trkpt>
<trkpt lat="45.9259520" lon="10.2936510">
	<ele>530.00</ele>
	<time>2025-07-29T12:35:29.000Z</time>
</trkpt>
<trkpt lat="45.9259720" lon="10.2936670">
	<ele>529.80</ele>
	<time>2025-07-29T12:35:30.000Z</time>
</trkpt>
<trkpt lat="45.9259860" lon="10.2936850">
	<ele>529.40</ele>
	<time>2025-07-29T12:35:31.000Z</time>
</trkpt>
<trkpt lat="45.9259970" lon="10.2937010">
	<ele>529.20</ele>
	<time>2025-07-29T12:35:32.000Z</time>
</trkpt>
<trkpt lat="45.9260090" lon="10.2937150">
	<ele>529.00</ele>
	<time>2025-07-29T12:35:33.000Z</time>
</trkpt>
<trkpt lat="45.9260230" lon="10.2937290">
	<ele>528.80</ele>
	<time>2025-07-29T12:35:34.000Z</time>
</trkpt>
<trkpt lat="45.9260300" lon="10.2937530">
	<ele>528.60</ele>
	<time>2025-07-29T12:35:35.000Z</time>
</trkpt>
<trkpt lat="45.9260240" lon="10.2937740">
	<ele>528.40</ele>
	<time>2025-07-29T12:35:36.000Z</time>
</trkpt>
<trkpt lat="45.9260350" lon="10.2937860">
	<ele>528.20</ele>
	<time>2025-07-29T12:35:37.000Z</time>
</trkpt>
<trkpt lat="45.9260390" lon="10.2938010">
	<ele>528.20</ele>
	<time>2025-07-29T12:35:38.000Z</time>
</trkpt>
<trkpt lat="45.9260470" lon="10.2938170">
	<ele>528.00</ele>
	<time>2025-07-29T12:35:39.000Z</time>
</trkpt>
<trkpt lat="45.9260510" lon="10.2938290">
	<ele>527.80</ele>
	<time>2025-07-29T12:35:40.000Z</time>
</trkpt>
<trkpt lat="45.9260570" lon="10.2938500">
	<ele>527.60</ele>
	<time>2025-07-29T12:35:41.000Z</time>
</trkpt>
<trkpt lat="45.9260710" lon="10.2938650">
	<ele>527.60</ele>
	<time>2025-07-29T12:35:42.000Z</time>
</trkpt>
<trkpt lat="45.9260880" lon="10.2938790">
	<ele>527.40</ele>
	<time>2025-07-29T12:35:43.000Z</time>
</trkpt>
<trkpt lat="45.9261050" lon="10.2938870">
	<ele>527.00</ele>
	<time>2025-07-29T12:35:44.000Z</time>
</trkpt>
<trkpt lat="45.9261190" lon="10.2938950">
	<ele>526.80</ele>
	<time>2025-07-29T12:35:45.000Z</time>
</trkpt>
<trkpt lat="45.9261270" lon="10.2939030">
	<ele>526.60</ele>
	<time>2025-07-29T12:35:46.000Z</time>
</trkpt>
<trkpt lat="45.9261350" lon="10.2939140">
	<ele>526.40</ele>
	<time>2025-07-29T12:35:47.000Z</time>
</trkpt>
<trkpt lat="45.9261470" lon="10.2939260">
	<ele>526.20</ele>
	<time>2025-07-29T12:35:48.000Z</time>
</trkpt>
<trkpt lat="45.9261560" lon="10.2939360">
	<ele>526.00</ele>
	<time>2025-07-29T12:35:49.000Z</time>
</trkpt>
<trkpt lat="45.9261640" lon="10.2939500">
	<ele>525.80</ele>
	<time>2025-07-29T12:35:50.000Z</time>
</trkpt>
<trkpt lat="45.9261730" lon="10.2939700">
	<ele>525.40</ele>
	<time>2025-07-29T12:35:51.000Z</time>
</trkpt>
<trkpt lat="45.9261830" lon="10.2939810">
	<ele>525.20</ele>
	<time>2025-07-29T12:35:52.000Z</time>
</trkpt>
<trkpt lat="45.9261990" lon="10.2939920">
	<ele>524.80</ele>
	<time>2025-07-29T12:35:53.000Z</time>
</trkpt>
<trkpt lat="45.9262150" lon="10.2940030">
	<ele>524.60</ele>
	<time>2025-07-29T12:35:54.000Z</time>
</trkpt>
<trkpt lat="45.9262300" lon="10.2940180">
	<ele>524.40</ele>
	<time>2025-07-29T12:35:55.000Z</time>
</trkpt>
<trkpt lat="45.9262360" lon="10.2940220">
	<ele>524.20</ele>
	<time>2025-07-29T12:35:56.000Z</time>
</trkpt>
<trkpt lat="45.9262420" lon="10.2940260">
	<ele>523.80</ele>
	<time>2025-07-29T12:35:57.000Z</time>
</trkpt>
<trkpt lat="45.9262450" lon="10.2940260">
	<ele>523.40</ele>
	<time>2025-07-29T12:35:58.000Z</time>
</trkpt>
<trkpt lat="45.9262560" lon="10.2940240">
	<ele>523.20</ele>
	<time>2025-07-29T12:35:59.000Z</time>
</trkpt>
<trkpt lat="45.9262660" lon="10.2940320">
	<ele>523.00</ele>
	<time>2025-07-29T12:36:00.000Z</time>
</trkpt>
<trkpt lat="45.9262780" lon="10.2940460">
	<ele>522.60</ele>
	<time>2025-07-29T12:36:01.000Z</time>
</trkpt>
<trkpt lat="45.9262970" lon="10.2940550">
	<ele>522.40</ele>
	<time>2025-07-29T12:36:02.000Z</time>
</trkpt>
<trkpt lat="45.9263090" lon="10.2940590">
	<ele>522.20</ele>
	<time>2025-07-29T12:36:03.000Z</time>
</trkpt>
<trkpt lat="45.9263300" lon="10.2940640">
	<ele>521.80</ele>
	<time>2025-07-29T12:36:04.000Z</time>
</trkpt>
<trkpt lat="45.9263480" lon="10.2940680">
	<ele>521.60</ele>
	<time>2025-07-29T12:36:05.000Z</time>
</trkpt>
<trkpt lat="45.9263580" lon="10.2940670">
	<ele>521.40</ele>
	<time>2025-07-29T12:36:06.000Z</time>
</trkpt>
<trkpt lat="45.9263660" lon="10.2940650">
	<ele>521.20</ele>
	<time>2025-07-29T12:36:07.000Z</time>
</trkpt>
<trkpt lat="45.9263730" lon="10.2940630">
	<ele>521.00</ele>
	<time>2025-07-29T12:36:08.000Z</time>
</trkpt>
<trkpt lat="45.9263850" lon="10.2940640">
	<ele>520.60</ele>
	<time>2025-07-29T12:36:09.000Z</time>
</trkpt>
<trkpt lat="45.9264020" lon="10.2940680">
	<ele>520.40</ele>
	<time>2025-07-29T12:36:10.000Z</time>
</trkpt>
<trkpt lat="45.9264200" lon="10.2940680">
	<ele>520.20</ele>
	<time>2025-07-29T12:36:11.000Z</time>
</trkpt>
<trkpt lat="45.9264360" lon="10.2940520">
	<ele>520.20</ele>
	<time>2025-07-29T12:36:12.000Z</time>
</trkpt>
<trkpt lat="45.9264510" lon="10.2940580">
	<ele>519.80</ele>
	<time>2025-07-29T12:36:13.000Z</time>
</trkpt>
<trkpt lat="45.9264650" lon="10.2940670">
	<ele>519.60</ele>
	<time>2025-07-29T12:36:14.000Z</time>
</trkpt>
<trkpt lat="45.9264760" lon="10.2940840">
	<ele>519.60</ele>
	<time>2025-07-29T12:36:15.000Z</time>
</trkpt>
<trkpt lat="45.9264920" lon="10.2940920">
	<ele>519.40</ele>
	<time>2025-07-29T12:36:16.000Z</time>
</trkpt>
<trkpt lat="45.9265040" lon="10.2940980">
	<ele>519.20</ele>
	<time>2025-07-29T12:36:17.000Z</time>
</trkpt>
<trkpt lat="45.9265170" lon="10.2941110">
	<ele>519.00</ele>
	<time>2025-07-29T12:36:18.000Z</time>
</trkpt>
<trkpt lat="45.9265310" lon="10.2941290">
	<ele>518.60</ele>
	<time>2025-07-29T12:36:19.000Z</time>
</trkpt>
<trkpt lat="45.9265450" lon="10.2941470">
	<ele>518.40</ele>
	<time>2025-07-29T12:36:20.000Z</time>
</trkpt>
<trkpt lat="45.9265640" lon="10.2941570">
	<ele>518.20</ele>
	<time>2025-07-29T12:36:21.000Z</time>
</trkpt>
<trkpt lat="45.9265840" lon="10.2941660">
	<ele>517.80</ele>
	<time>2025-07-29T12:36:22.000Z</time>
</trkpt>
<trkpt lat="45.9266030" lon="10.2941780">
	<ele>517.60</ele>
	<time>2025-07-29T12:36:23.000Z</time>
</trkpt>
<trkpt lat="45.9266150" lon="10.2941950">
	<ele>517.40</ele>
	<time>2025-07-29T12:36:24.000Z</time>
</trkpt>
<trkpt lat="45.9266240" lon="10.2942160">
	<ele>517.20</ele>
	<time>2025-07-29T12:36:25.000Z</time>
</trkpt>
<trkpt lat="45.9266380" lon="10.2942300">
	<ele>516.80</ele>
	<time>2025-07-29T12:36:26.000Z</time>
</trkpt>
<trkpt lat="45.9266500" lon="10.2942390">
	<ele>516.60</ele>
	<time>2025-07-29T12:36:27.000Z</time>
</trkpt>
<trkpt lat="45.9266690" lon="10.2942420">
	<ele>516.40</ele>
	<time>2025-07-29T12:36:28.000Z</time>
</trkpt>
<trkpt lat="45.9266930" lon="10.2942500">
	<ele>516.00</ele>
	<time>2025-07-29T12:36:29.000Z</time>
</trkpt>
<trkpt lat="45.9267110" lon="10.2942530">
	<ele>516.00</ele>
	<time>2025-07-29T12:36:30.000Z</time>
</trkpt>
<trkpt lat="45.9267270" lon="10.2942600">
	<ele>515.80</ele>
	<time>2025-07-29T12:36:31.000Z</time>
</trkpt>
<trkpt lat="45.9267410" lon="10.2942670">
	<ele>515.60</ele>
	<time>2025-07-29T12:36:32.000Z</time>
</trkpt>
<trkpt lat="45.9267620" lon="10.2942750">
	<ele>515.60</ele>
	<time>2025-07-29T12:36:33.000Z</time>
</trkpt>
<trkpt lat="45.9267850" lon="10.2942830">
	<ele>515.40</ele>
	<time>2025-07-29T12:36:34.000Z</time>
</trkpt>
<trkpt lat="45.9268080" lon="10.2942910">
	<ele>515.40</ele>
	<time>2025-07-29T12:36:35.000Z</time>
</trkpt>
<trkpt lat="45.9268270" lon="10.2943060">
	<ele>515.40</ele>
	<time>2025-07-29T12:36:36.000Z</time>
</trkpt>
<trkpt lat="45.9268420" lon="10.2943260">
	<ele>515.20</ele>
	<time>2025-07-29T12:36:37.000Z</time>
</trkpt>
<trkpt lat="45.9268540" lon="10.2943450">
	<ele>515.00</ele>
	<time>2025-07-29T12:36:38.000Z</time>
</trkpt>
<trkpt lat="45.9268650" lon="10.2943640">
	<ele>515.00</ele>
	<time>2025-07-29T12:36:39.000Z</time>
</trkpt>
<trkpt lat="45.9268720" lon="10.2943750">
	<ele>514.80</ele>
	<time>2025-07-29T12:36:40.000Z</time>
</trkpt>
<trkpt lat="45.9268790" lon="10.2943870">
	<ele>514.80</ele>
	<time>2025-07-29T12:36:41.000Z</time>
</trkpt>
<trkpt lat="45.9268980" lon="10.2944020">
	<ele>514.60</ele>
	<time>2025-07-29T12:36:42.000Z</time>
</trkpt>
<trkpt lat="45.9269080" lon="10.2944240">
	<ele>514.60</ele>
	<time>2025-07-29T12:36:43.000Z</time>
</trkpt>
<trkpt lat="45.9269160" lon="10.2944440">
	<ele>514.60</ele>
	<time>2025-07-29T12:36:44.000Z</time>
</trkpt>
<trkpt lat="45.9269250" lon="10.2944670">
	<ele>514.60</ele>
	<time>2025-07-29T12:36:45.000Z</time>
</trkpt>
<trkpt lat="45.9269460" lon="10.2944870">
	<ele>514.40</ele>
	<time>2025-07-29T12:36:46.000Z</time>
</trkpt>
<trkpt lat="45.9269680" lon="10.2945110">
	<ele>514.40</ele>
	<time>2025-07-29T12:36:47.000Z</time>
</trkpt>
<trkpt lat="45.9269890" lon="10.2945290">
	<ele>514.40</ele>
	<time>2025-07-29T12:36:48.000Z</time>
</trkpt>
<trkpt lat="45.9269990" lon="10.2945500">
	<ele>514.40</ele>
	<time>2025-07-29T12:36:49.000Z</time>
</trkpt>
<trkpt lat="45.9270000" lon="10.2945690">
	<ele>514.20</ele>
	<time>2025-07-29T12:36:50.000Z</time>
</trkpt>
<trkpt lat="45.9270030" lon="10.2945910">
	<ele>514.00</ele>
	<time>2025-07-29T12:36:51.000Z</time>
</trkpt>
<trkpt lat="45.9270040" lon="10.2946060">
	<ele>513.60</ele>
	<time>2025-07-29T12:36:52.000Z</time>
</trkpt>
<trkpt lat="45.9270080" lon="10.2946200">
	<ele>513.60</ele>
	<time>2025-07-29T12:36:53.000Z</time>
</trkpt>
<trkpt lat="45.9270230" lon="10.2946350">
	<ele>513.40</ele>
	<time>2025-07-29T12:36:54.000Z</time>
</trkpt>
<trkpt lat="45.9270290" lon="10.2946480">
	<ele>513.20</ele>
	<time>2025-07-29T12:36:55.000Z</time>
</trkpt>
<trkpt lat="45.9270360" lon="10.2946700">
	<ele>513.00</ele>
	<time>2025-07-29T12:36:56.000Z</time>
</trkpt>
<trkpt lat="45.9270450" lon="10.2946840">
	<ele>512.80</ele>
	<time>2025-07-29T12:36:57.000Z</time>
</trkpt>
<trkpt lat="45.9270600" lon="10.2947040">
	<ele>512.60</ele>
	<time>2025-07-29T12:36:58.000Z</time>
</trkpt>
<trkpt lat="45.9270710" lon="10.2947210">
	<ele>512.20</ele>
	<time>2025-07-29T12:36:59.000Z</time>
</trkpt>
<trkpt lat="45.9270800" lon="10.2947330">
	<ele>512.00</ele>
	<time>2025-07-29T12:37:00.000Z</time>
</trkpt>
<trkpt lat="45.9271000" lon="10.2947450">
	<ele>512.00</ele>
	<time>2025-07-29T12:37:01.000Z</time>
</trkpt>
<trkpt lat="45.9271150" lon="10.2947550">
	<ele>512.00</ele>
	<time>2025-07-29T12:37:02.000Z</time>
</trkpt>
<trkpt lat="45.9271270" lon="10.2947640">
	<ele>511.80</ele>
	<time>2025-07-29T12:37:03.000Z</time>
</trkpt>
<trkpt lat="45.9271400" lon="10.2947790">
	<ele>511.60</ele>
	<time>2025-07-29T12:37:04.000Z</time>
</trkpt>
<trkpt lat="45.9271490" lon="10.2947990">
	<ele>511.40</ele>
	<time>2025-07-29T12:37:05.000Z</time>
</trkpt>
<trkpt lat="45.9271560" lon="10.2948140">
	<ele>511.00</ele>
	<time>2025-07-29T12:37:06.000Z</time>
</trkpt>
<trkpt lat="45.9271580" lon="10.2948320">
	<ele>511.00</ele>
	<time>2025-07-29T12:37:07.000Z</time>
</trkpt>
<trkpt lat="45.9271610" lon="10.2948500">
	<ele>510.80</ele>
	<time>2025-07-29T12:37:08.000Z</time>
</trkpt>
<trkpt lat="45.9271770" lon="10.2948640">
	<ele>510.60</ele>
	<time>2025-07-29T12:37:09.000Z</time>
</trkpt>
<trkpt lat="45.9271940" lon="10.2948650">
	<ele>510.20</ele>
	<time>2025-07-29T12:37:10.000Z</time>
</trkpt>
<trkpt lat="45.9272130" lon="10.2948690">
	<ele>510.20</ele>
	<time>2025-07-29T12:37:11.000Z</time>
</trkpt>
<trkpt lat="45.9272240" lon="10.2948720">
	<ele>510.00</ele>
	<time>2025-07-29T12:37:12.000Z</time>
</trkpt>
<trkpt lat="45.9272270" lon="10.2948860">
	<ele>509.80</ele>
	<time>2025-07-29T12:37:13.000Z</time>
</trkpt>
<trkpt lat="45.9272290" lon="10.2949020">
	<ele>509.60</ele>
	<time>2025-07-29T12:37:14.000Z</time>
</trkpt>
<trkpt lat="45.9272280" lon="10.2949130">
	<ele>509.60</ele>
	<time>2025-07-29T12:37:15.000Z</time>
</trkpt>
<trkpt lat="45.9272400" lon="10.2949300">
	<ele>509.40</ele>
	<time>2025-07-29T12:37:16.000Z</time>
</trkpt>
<trkpt lat="45.9272480" lon="10.2949460">
	<ele>509.20</ele>
	<time>2025-07-29T12:37:17.000Z</time>
</trkpt>
<trkpt lat="45.9272580" lon="10.2949560">
	<ele>509.00</ele>
	<time>2025-07-29T12:37:18.000Z</time>
</trkpt>
<trkpt lat="45.9272690" lon="10.2949640">
	<ele>508.80</ele>
	<time>2025-07-29T12:37:19.000Z</time>
</trkpt>
<trkpt lat="45.9272800" lon="10.2949700">
	<ele>508.60</ele>
	<time>2025-07-29T12:37:20.000Z</time>
</trkpt>
<trkpt lat="45.9272890" lon="10.2949840">
	<ele>508.40</ele>
	<time>2025-07-29T12:37:21.000Z</time>
</trkpt>
<trkpt lat="45.9272920" lon="10.2950020">
	<ele>508.20</ele>
	<time>2025-07-29T12:37:22.000Z</time>
</trkpt>
<trkpt lat="45.9272920" lon="10.2950190">
	<ele>508.20</ele>
	<time>2025-07-29T12:37:23.000Z</time>
</trkpt>
<trkpt lat="45.9272970" lon="10.2950360">
	<ele>507.80</ele>
	<time>2025-07-29T12:37:24.000Z</time>
</trkpt>
<trkpt lat="45.9273000" lon="10.2950490">
	<ele>507.60</ele>
	<time>2025-07-29T12:37:25.000Z</time>
</trkpt>
<trkpt lat="45.9273030" lon="10.2950630">
	<ele>507.40</ele>
	<time>2025-07-29T12:37:26.000Z</time>
</trkpt>
<trkpt lat="45.9273080" lon="10.2950780">
	<ele>507.40</ele>
	<time>2025-07-29T12:37:27.000Z</time>
</trkpt>
<trkpt lat="45.9273130" lon="10.2950950">
	<ele>507.20</ele>
	<time>2025-07-29T12:37:28.000Z</time>
</trkpt>
<trkpt lat="45.9273130" lon="10.2951180">
	<ele>507.00</ele>
	<time>2025-07-29T12:37:29.000Z</time>
</trkpt>
<trkpt lat="45.9273180" lon="10.2951370">
	<ele>507.00</ele>
	<time>2025-07-29T12:37:30.000Z</time>
</trkpt>
<trkpt lat="45.9273300" lon="10.2951490">
	<ele>506.80</ele>
	<time>2025-07-29T12:37:31.000Z</time>
</trkpt>
<trkpt lat="45.9273320" lon="10.2951590">
	<ele>506.60</ele>
	<time>2025-07-29T12:37:32.000Z</time>
</trkpt>
<trkpt lat="45.9273430" lon="10.2951650">
	<ele>506.60</ele>
	<time>2025-07-29T12:37:33.000Z</time>
</trkpt>
<trkpt lat="45.9273520" lon="10.2951810">
	<ele>506.40</ele>
	<time>2025-07-29T12:37:34.000Z</time>
</trkpt>
<trkpt lat="45.9273690" lon="10.2952050">
	<ele>506.40</ele>
	<time>2025-07-29T12:37:35.000Z</time>
</trkpt>
<trkpt lat="45.9273770" lon="10.2952230">
	<ele>506.20</ele>
	<time>2025-07-29T12:37:36.000Z</time>
</trkpt>
<trkpt lat="45.9273810" lon="10.2952410">
	<ele>506.20</ele>
	<time>2025-07-29T12:37:37.000Z</time>
</trkpt>
<trkpt lat="45.9273860" lon="10.2952680">
	<ele>506.00</ele>
	<time>2025-07-29T12:37:38.000Z</time>
</trkpt>
<trkpt lat="45.9273920" lon="10.2952880">
	<ele>505.80</ele>
	<time>2025-07-29T12:37:39.000Z</time>
</trkpt>
<trkpt lat="45.9273950" lon="10.2953120">
	<ele>505.80</ele>
	<time>2025-07-29T12:37:40.000Z</time>
</trkpt>
<trkpt lat="45.9274010" lon="10.2953310">
	<ele>505.60</ele>
	<time>2025-07-29T12:37:41.000Z</time>
</trkpt>
<trkpt lat="45.9274090" lon="10.2953540">
	<ele>505.60</ele>
	<time>2025-07-29T12:37:42.000Z</time>
</trkpt>
<trkpt lat="45.9274140" lon="10.2953750">
	<ele>505.40</ele>
	<time>2025-07-29T12:37:43.000Z</time>
</trkpt>
<trkpt lat="45.9274220" lon="10.2954010">
	<ele>505.40</ele>
	<time>2025-07-29T12:37:44.000Z</time>
</trkpt>
<trkpt lat="45.9274260" lon="10.2954200">
	<ele>505.20</ele>
	<time>2025-07-29T12:37:45.000Z</time>
</trkpt>
<trkpt lat="45.9274380" lon="10.2954430">
	<ele>505.00</ele>
	<time>2025-07-29T12:37:46.000Z</time>
</trkpt>
<trkpt lat="45.9274500" lon="10.2954740">
	<ele>505.00</ele>
	<time>2025-07-29T12:37:47.000Z</time>
</trkpt>
<trkpt lat="45.9274610" lon="10.2954950">
	<ele>504.80</ele>
	<time>2025-07-29T12:37:48.000Z</time>
</trkpt>
<trkpt lat="45.9274620" lon="10.2955090">
	<ele>504.80</ele>
	<time>2025-07-29T12:37:49.000Z</time>
</trkpt>
<trkpt lat="45.9274710" lon="10.2955240">
	<ele>504.80</ele>
	<time>2025-07-29T12:37:50.000Z</time>
</trkpt>
<trkpt lat="45.9274820" lon="10.2955320">
	<ele>504.60</ele>
	<time>2025-07-29T12:37:51.000Z</time>
</trkpt>
<trkpt lat="45.9274840" lon="10.2955510">
	<ele>504.60</ele>
	<time>2025-07-29T12:37:52.000Z</time>
</trkpt>
<trkpt lat="45.9274840" lon="10.2955750">
	<ele>504.60</ele>
	<time>2025-07-29T12:37:53.000Z</time>
</trkpt>
<trkpt lat="45.9274830" lon="10.2956000">
	<ele>504.40</ele>
	<time>2025-07-29T12:37:54.000Z</time>
</trkpt>
<trkpt lat="45.9274770" lon="10.2956220">
	<ele>504.40</ele>
	<time>2025-07-29T12:37:55.000Z</time>
</trkpt>
<trkpt lat="45.9274740" lon="10.2956460">
	<ele>504.40</ele>
	<time>2025-07-29T12:37:56.000Z</time>
</trkpt>
<trkpt lat="45.9274680" lon="10.2956770">
	<ele>504.20</ele>
	<time>2025-07-29T12:37:57.000Z</time>
</trkpt>
<trkpt lat="45.9274790" lon="10.2957120">
	<ele>504.20</ele>
	<time>2025-07-29T12:37:58.000Z</time>
</trkpt>
<trkpt lat="45.9274870" lon="10.2957480">
	<ele>504.20</ele>
	<time>2025-07-29T12:37:59.000Z</time>
</trkpt>
<trkpt lat="45.9274910" lon="10.2957840">
	<ele>504.00</ele>
	<time>2025-07-29T12:38:00.000Z</time>
</trkpt>
<trkpt lat="45.9274960" lon="10.2958070">
	<ele>504.00</ele>
	<time>2025-07-29T12:38:01.000Z</time>
</trkpt>
<trkpt lat="45.9275000" lon="10.2958190">
	<ele>504.00</ele>
	<time>2025-07-29T12:38:02.000Z</time>
</trkpt>
<trkpt lat="45.9275030" lon="10.2958340">
	<ele>504.00</ele>
	<time>2025-07-29T12:38:03.000Z</time>
</trkpt>
<trkpt lat="45.9275110" lon="10.2958580">
	<ele>503.80</ele>
	<time>2025-07-29T12:38:04.000Z</time>
</trkpt>
<trkpt lat="45.9275210" lon="10.2958660">
	<ele>503.80</ele>
	<time>2025-07-29T12:38:05.000Z</time>
</trkpt>
<trkpt lat="45.9275430" lon="10.2958800">
	<ele>503.80</ele>
	<time>2025-07-29T12:38:06.000Z</time>
</trkpt>
<trkpt lat="45.9275670" lon="10.2958780">
	<ele>503.80</ele>
	<time>2025-07-29T12:38:07.000Z</time>
</trkpt>
<trkpt lat="45.9275830" lon="10.2958730">
	<ele>503.60</ele>
	<time>2025-07-29T12:38:08.000Z</time>
</trkpt>
<trkpt lat="45.9275900" lon="10.2958690">
	<ele>503.60</ele>
	<time>2025-07-29T12:38:09.000Z</time>
</trkpt>
<trkpt lat="45.9275930" lon="10.2958790">
	<ele>503.60</ele>
	<time>2025-07-29T12:38:10.000Z</time>
</trkpt>
<trkpt lat="45.9275970" lon="10.2958830">
	<ele>503.40</ele>
	<time>2025-07-29T12:38:11.000Z</time>
</trkpt>
<trkpt lat="45.9276050" lon="10.2958830">
	<ele>503.20</ele>
	<time>2025-07-29T12:38:12.000Z</time>
</trkpt>
<trkpt lat="45.9276200" lon="10.2958840">
	<ele>503.20</ele>
	<time>2025-07-29T12:38:13.000Z</time>
</trkpt>
<trkpt lat="45.9276330" lon="10.2958780">
	<ele>503.00</ele>
	<time>2025-07-29T12:38:14.000Z</time>
</trkpt>
<trkpt lat="45.9276450" lon="10.2958740">
	<ele>503.00</ele>
	<time>2025-07-29T12:38:15.000Z</time>
</trkpt>
<trkpt lat="45.9276530" lon="10.2958750">
	<ele>502.80</ele>
	<time>2025-07-29T12:38:16.000Z</time>
</trkpt>
<trkpt lat="45.9276580" lon="10.2958730">
	<ele>502.80</ele>
	<time>2025-07-29T12:38:17.000Z</time>
</trkpt>
<trkpt lat="45.9276710" lon="10.2958720">
	<ele>502.80</ele>
	<time>2025-07-29T12:38:18.000Z</time>
</trkpt>
<trkpt lat="45.9276810" lon="10.2958700">
	<ele>502.80</ele>
	<time>2025-07-29T12:38:19.000Z</time>
</trkpt>
<trkpt lat="45.9276840" lon="10.2958720">
	<ele>502.60</ele>
	<time>2025-07-29T12:38:20.000Z</time>
</trkpt>
<trkpt lat="45.9276970" lon="10.2958650">
	<ele>502.60</ele>
	<time>2025-07-29T12:38:21.000Z</time>
</trkpt>
<trkpt lat="45.9277120" lon="10.2958610">
	<ele>502.80</ele>
	<time>2025-07-29T12:38:22.000Z</time>
</trkpt>
<trkpt lat="45.9277240" lon="10.2958490">
	<ele>502.80</ele>
	<time>2025-07-29T12:38:23.000Z</time>
</trkpt>
<trkpt lat="45.9277370" lon="10.2958410">
	<ele>502.60</ele>
	<time>2025-07-29T12:38:24.000Z</time>
</trkpt>
<trkpt lat="45.9277500" lon="10.2958340">
	<ele>502.60</ele>
	<time>2025-07-29T12:38:25.000Z</time>
</trkpt>
<trkpt lat="45.9277710" lon="10.2958210">
	<ele>502.60</ele>
	<time>2025-07-29T12:38:26.000Z</time>
</trkpt>
<trkpt lat="45.9277810" lon="10.2958090">
	<ele>502.60</ele>
	<time>2025-07-29T12:38:27.000Z</time>
</trkpt>
<trkpt lat="45.9277930" lon="10.2958000">
	<ele>502.60</ele>
	<time>2025-07-29T12:38:28.000Z</time>
</trkpt>
<trkpt lat="45.9278130" lon="10.2957880">
	<ele>502.60</ele>
	<time>2025-07-29T12:38:29.000Z</time>
</trkpt>
<trkpt lat="45.9278270" lon="10.2957840">
	<ele>502.60</ele>
	<time>2025-07-29T12:38:30.000Z</time>
</trkpt>
<trkpt lat="45.9278430" lon="10.2957760">
	<ele>502.60</ele>
	<time>2025-07-29T12:38:31.000Z</time>
</trkpt>
<trkpt lat="45.9278620" lon="10.2957610">
	<ele>502.80</ele>
	<time>2025-07-29T12:38:32.000Z</time>
</trkpt>
<trkpt lat="45.9278790" lon="10.2957470">
	<ele>502.80</ele>
	<time>2025-07-29T12:38:33.000Z</time>
</trkpt>
<trkpt lat="45.9278990" lon="10.2957310">
	<ele>502.60</ele>
	<time>2025-07-29T12:38:34.000Z</time>
</trkpt>
<trkpt lat="45.9279110" lon="10.2957120">
	<ele>502.60</ele>
	<time>2025-07-29T12:38:35.000Z</time>
</trkpt>
<trkpt lat="45.9279250" lon="10.2956970">
	<ele>502.60</ele>
	<time>2025-07-29T12:38:36.000Z</time>
</trkpt>
<trkpt lat="45.9279390" lon="10.2956800">
	<ele>502.60</ele>
	<time>2025-07-29T12:38:37.000Z</time>
</trkpt>
<trkpt lat="45.9279500" lon="10.2956650">
	<ele>502.60</ele>
	<time>2025-07-29T12:38:38.000Z</time>
</trkpt>
<trkpt lat="45.9279610" lon="10.2956530">
	<ele>502.60</ele>
	<time>2025-07-29T12:38:39.000Z</time>
</trkpt>
<trkpt lat="45.9279680" lon="10.2956460">
	<ele>502.60</ele>
	<time>2025-07-29T12:38:40.000Z</time>
</trkpt>
<trkpt lat="45.9279770" lon="10.2956380">
	<ele>502.60</ele>
	<time>2025-07-29T12:38:41.000Z</time>
</trkpt>
<trkpt lat="45.9279840" lon="10.2956300">
	<ele>502.60</ele>
	<time>2025-07-29T12:38:42.000Z</time>
</trkpt>
<trkpt lat="45.9279940" lon="10.2956180">
	<ele>502.60</ele>
	<time>2025-07-29T12:38:43.000Z</time>
</trkpt>
<trkpt lat="45.9279980" lon="10.2956120">
	<ele>502.40</ele>
	<time>2025-07-29T12:38:44.000Z</time>
</trkpt>
<trkpt lat="45.9280060" lon="10.2956020">
	<ele>502.40</ele>
	<time>2025-07-29T12:38:45.000Z</time>
</trkpt>
<trkpt lat="45.9280140" lon="10.2955900">
	<ele>502.40</ele>
	<time>2025-07-29T12:38:46.000Z</time>
</trkpt>
<trkpt lat="45.9280260" lon="10.2955760">
	<ele>502.40</ele>
	<time>2025-07-29T12:38:47.000Z</time>
</trkpt>
<trkpt lat="45.9280420" lon="10.2955630">
	<ele>502.40</ele>
	<time>2025-07-29T12:38:48.000Z</time>
</trkpt>
<trkpt lat="45.9280580" lon="10.2955460">
	<ele>502.40</ele>
	<time>2025-07-29T12:38:49.000Z</time>
</trkpt>
<trkpt lat="45.9280710" lon="10.2955360">
	<ele>502.40</ele>
	<time>2025-07-29T12:38:50.000Z</time>
</trkpt>
<trkpt lat="45.9280800" lon="10.2955400">
	<ele>502.20</ele>
	<time>2025-07-29T12:38:51.000Z</time>
</trkpt>
<trkpt lat="45.9280860" lon="10.2955410">
	<ele>502.00</ele>
	<time>2025-07-29T12:38:52.000Z</time>
</trkpt>
<trkpt lat="45.9280980" lon="10.2955290">
	<ele>502.00</ele>
	<time>2025-07-29T12:38:53.000Z</time>
</trkpt>
<trkpt lat="45.9281120" lon="10.2955120">
	<ele>502.00</ele>
	<time>2025-07-29T12:38:54.000Z</time>
</trkpt>
<trkpt lat="45.9281220" lon="10.2955000">
	<ele>502.00</ele>
	<time>2025-07-29T12:38:55.000Z</time>
</trkpt>
<trkpt lat="45.9281310" lon="10.2954890">
	<ele>502.00</ele>
	<time>2025-07-29T12:38:56.000Z</time>
</trkpt>
<trkpt lat="45.9281410" lon="10.2954780">
	<ele>501.80</ele>
	<time>2025-07-29T12:38:57.000Z</time>
</trkpt>
<trkpt lat="45.9281510" lon="10.2954660">
	<ele>501.80</ele>
	<time>2025-07-29T12:38:58.000Z</time>
</trkpt>
<trkpt lat="45.9281610" lon="10.2954570">
	<ele>502.00</ele>
	<time>2025-07-29T12:38:59.000Z</time>
</trkpt>
<trkpt lat="45.9281770" lon="10.2954470">
	<ele>502.00</ele>
	<time>2025-07-29T12:39:00.000Z</time>
</trkpt>
<trkpt lat="45.9281920" lon="10.2954350">
	<ele>502.00</ele>
	<time>2025-07-29T12:39:01.000Z</time>
</trkpt>
<trkpt lat="45.9282020" lon="10.2954150">
	<ele>501.80</ele>
	<time>2025-07-29T12:39:02.000Z</time>
</trkpt>
<trkpt lat="45.9282110" lon="10.2953990">
	<ele>501.80</ele>
	<time>2025-07-29T12:39:03.000Z</time>
</trkpt>
<trkpt lat="45.9282240" lon="10.2953900">
	<ele>501.80</ele>
	<time>2025-07-29T12:39:04.000Z</time>
</trkpt>
<trkpt lat="45.9282410" lon="10.2953850">
	<ele>501.80</ele>
	<time>2025-07-29T12:39:05.000Z</time>
</trkpt>
<trkpt lat="45.9282520" lon="10.2953870">
	<ele>501.80</ele>
	<time>2025-07-29T12:39:06.000Z</time>
</trkpt>
<trkpt lat="45.9282630" lon="10.2953850">
	<ele>501.80</ele>
	<time>2025-07-29T12:39:07.000Z</time>
</trkpt>
<trkpt lat="45.9282730" lon="10.2953790">
	<ele>501.80</ele>
	<time>2025-07-29T12:39:08.000Z</time>
</trkpt>
<trkpt lat="45.9282890" lon="10.2953720">
	<ele>502.00</ele>
	<time>2025-07-29T12:39:09.000Z</time>
</trkpt>
<trkpt lat="45.9283080" lon="10.2953650">
	<ele>502.00</ele>
	<time>2025-07-29T12:39:10.000Z</time>
</trkpt>
<trkpt lat="45.9283280" lon="10.2953600">
	<ele>502.00</ele>
	<time>2025-07-29T12:39:11.000Z</time>
</trkpt>
<trkpt lat="45.9283430" lon="10.2953590">
	<ele>501.80</ele>
	<time>2025-07-29T12:39:12.000Z</time>
</trkpt>
<trkpt lat="45.9283540" lon="10.2953600">
	<ele>501.80</ele>
	<time>2025-07-29T12:39:13.000Z</time>
</trkpt>
<trkpt lat="45.9283650" lon="10.2953570">
	<ele>501.80</ele>
	<time>2025-07-29T12:39:14.000Z</time>
</trkpt>
<trkpt lat="45.9283770" lon="10.2953490">
	<ele>501.80</ele>
	<time>2025-07-29T12:39:15.000Z</time>
</trkpt>
<trkpt lat="45.9283920" lon="10.2953410">
	<ele>501.80</ele>
	<time>2025-07-29T12:39:16.000Z</time>
</trkpt>
<trkpt lat="45.9284060" lon="10.2953380">
	<ele>501.60</ele>
	<time>2025-07-29T12:39:17.000Z</time>
</trkpt>
<trkpt lat="45.9284230" lon="10.2953350">
	<ele>501.60</ele>
	<time>2025-07-29T12:39:18.000Z</time>
</trkpt>
<trkpt lat="45.9284360" lon="10.2953260">
	<ele>501.60</ele>
	<time>2025-07-29T12:39:19.000Z</time>
</trkpt>
<trkpt lat="45.9284530" lon="10.2953180">
	<ele>501.60</ele>
	<time>2025-07-29T12:39:20.000Z</time>
</trkpt>
<trkpt lat="45.9284670" lon="10.2953100">
	<ele>501.60</ele>
	<time>2025-07-29T12:39:21.000Z</time>
</trkpt>
<trkpt lat="45.9284750" lon="10.2953020">
	<ele>501.60</ele>
	<time>2025-07-29T12:39:22.000Z</time>
</trkpt>
<trkpt lat="45.9284810" lon="10.2952960">
	<ele>501.40</ele>
	<time>2025-07-29T12:39:23.000Z</time>
</trkpt>
<trkpt lat="45.9284910" lon="10.2952840">
	<ele>501.40</ele>
	<time>2025-07-29T12:39:24.000Z</time>
</trkpt>
<trkpt lat="45.9284990" lon="10.2952770">
	<ele>501.40</ele>
	<time>2025-07-29T12:39:25.000Z</time>
</trkpt>
<trkpt lat="45.9285060" lon="10.2952740">
	<ele>501.40</ele>
	<time>2025-07-29T12:39:26.000Z</time>
</trkpt>
<trkpt lat="45.9285260" lon="10.2952800">
	<ele>501.20</ele>
	<time>2025-07-29T12:39:27.000Z</time>
</trkpt>
<trkpt lat="45.9285420" lon="10.2952850">
	<ele>501.20</ele>
	<time>2025-07-29T12:39:28.000Z</time>
</trkpt>
<trkpt lat="45.9285680" lon="10.2952920">
	<ele>501.20</ele>
	<time>2025-07-29T12:39:29.000Z</time>
</trkpt>
<trkpt lat="45.9285950" lon="10.2952950">
	<ele>501.20</ele>
	<time>2025-07-29T12:39:30.000Z</time>
</trkpt>
<trkpt lat="45.9286180" lon="10.2952780">
	<ele>501.00</ele>
	<time>2025-07-29T12:39:31.000Z</time>
</trkpt>
<trkpt lat="45.9286130" lon="10.2952610">
	<ele>501.00</ele>
	<time>2025-07-29T12:39:32.000Z</time>
</trkpt>
<trkpt lat="45.9286230" lon="10.2952560">
	<ele>501.00</ele>
	<time>2025-07-29T12:39:33.000Z</time>
</trkpt>
<trkpt lat="45.9286320" lon="10.2952570">
	<ele>501.20</ele>
	<time>2025-07-29T12:39:34.000Z</time>
</trkpt>
<trkpt lat="45.9286440" lon="10.2952550">
	<ele>501.00</ele>
	<time>2025-07-29T12:39:35.000Z</time>
</trkpt>
<trkpt lat="45.9286520" lon="10.2952530">
	<ele>501.00</ele>
	<time>2025-07-29T12:39:36.000Z</time>
</trkpt>
<trkpt lat="45.9286630" lon="10.2952500">
	<ele>501.00</ele>
	<time>2025-07-29T12:39:37.000Z</time>
</trkpt>
<trkpt lat="45.9286740" lon="10.2952470">
	<ele>501.00</ele>
	<time>2025-07-29T12:39:38.000Z</time>
</trkpt>
<trkpt lat="45.9286880" lon="10.2952390">
	<ele>501.00</ele>
	<time>2025-07-29T12:39:39.000Z</time>
</trkpt>
<trkpt lat="45.9287010" lon="10.2952300">
	<ele>501.00</ele>
	<time>2025-07-29T12:39:40.000Z</time>
</trkpt>
<trkpt lat="45.9287150" lon="10.2952220">
	<ele>500.80</ele>
	<time>2025-07-29T12:39:41.000Z</time>
</trkpt>
<trkpt lat="45.9287280" lon="10.2952160">
	<ele>500.80</ele>
	<time>2025-07-29T12:39:42.000Z</time>
</trkpt>
<trkpt lat="45.9287460" lon="10.2952060">
	<ele>500.60</ele>
	<time>2025-07-29T12:39:43.000Z</time>
</trkpt>
<trkpt lat="45.9287550" lon="10.2951990">
	<ele>500.60</ele>
	<time>2025-07-29T12:39:44.000Z</time>
</trkpt>
<trkpt lat="45.9287670" lon="10.2951960">
	<ele>500.40</ele>
	<time>2025-07-29T12:39:45.000Z</time>
</trkpt>
<trkpt lat="45.9287830" lon="10.2951980">
	<ele>500.40</ele>
	<time>2025-07-29T12:39:46.000Z</time>
</trkpt>
<trkpt lat="45.9288030" lon="10.2951950">
	<ele>500.20</ele>
	<time>2025-07-29T12:39:47.000Z</time>
</trkpt>
<trkpt lat="45.9288190" lon="10.2951930">
	<ele>500.00</ele>
	<time>2025-07-29T12:39:48.000Z</time>
</trkpt>
<trkpt lat="45.9288340" lon="10.2951900">
	<ele>500.00</ele>
	<time>2025-07-29T12:39:49.000Z</time>
</trkpt>
<trkpt lat="45.9288430" lon="10.2951850">
	<ele>500.00</ele>
	<time>2025-07-29T12:39:50.000Z</time>
</trkpt>
<trkpt lat="45.9288550" lon="10.2951810">
	<ele>500.00</ele>
	<time>2025-07-29T12:39:51.000Z</time>
</trkpt>
<trkpt lat="45.9288700" lon="10.2951800">
	<ele>500.20</ele>
	<time>2025-07-29T12:39:52.000Z</time>
</trkpt>
<trkpt lat="45.9288860" lon="10.2951770">
	<ele>500.20</ele>
	<time>2025-07-29T12:39:53.000Z</time>
</trkpt>
<trkpt lat="45.9288990" lon="10.2951690">
	<ele>500.40</ele>
	<time>2025-07-29T12:39:54.000Z</time>
</trkpt>
<trkpt lat="45.9289170" lon="10.2951620">
	<ele>500.60</ele>
	<time>2025-07-29T12:39:55.000Z</time>
</trkpt>
<trkpt lat="45.9289300" lon="10.2951560">
	<ele>500.80</ele>
	<time>2025-07-29T12:39:56.000Z</time>
</trkpt>
<trkpt lat="45.9289410" lon="10.2951530">
	<ele>500.80</ele>
	<time>2025-07-29T12:39:57.000Z</time>
</trkpt>
<trkpt lat="45.9289570" lon="10.2951480">
	<ele>500.80</ele>
	<time>2025-07-29T12:39:58.000Z</time>
</trkpt>
<trkpt lat="45.9289760" lon="10.2951410">
	<ele>500.80</ele>
	<time>2025-07-29T12:39:59.000Z</time>
</trkpt>
<trkpt lat="45.9289970" lon="10.2951330">
	<ele>500.80</ele>
	<time>2025-07-29T12:40:00.000Z</time>
</trkpt>
<trkpt lat="45.9290020" lon="10.2951330">
	<ele>500.80</ele>
	<time>2025-07-29T12:40:01.000Z</time>
</trkpt>
<trkpt lat="45.9290130" lon="10.2951310">
	<ele>500.60</ele>
	<time>2025-07-29T12:40:02.000Z</time>
</trkpt>
<trkpt lat="45.9290320" lon="10.2951240">
	<ele>500.40</ele>
	<time>2025-07-29T12:40:03.000Z</time>
</trkpt>
<trkpt lat="45.9290470" lon="10.2951180">
	<ele>500.20</ele>
	<time>2025-07-29T12:40:04.000Z</time>
</trkpt>
<trkpt lat="45.9290560" lon="10.2951130">
	<ele>500.20</ele>
	<time>2025-07-29T12:40:05.000Z</time>
</trkpt>
<trkpt lat="45.9290710" lon="10.2950890">
	<ele>500.00</ele>
	<time>2025-07-29T12:40:06.000Z</time>
</trkpt>
<trkpt lat="45.9290800" lon="10.2950820">
	<ele>500.00</ele>
	<time>2025-07-29T12:40:07.000Z</time>
</trkpt>
<trkpt lat="45.9290920" lon="10.2950800">
	<ele>500.00</ele>
	<time>2025-07-29T12:40:08.000Z</time>
</trkpt>
<trkpt lat="45.9291090" lon="10.2950720">
	<ele>500.00</ele>
	<time>2025-07-29T12:40:09.000Z</time>
</trkpt>
<trkpt lat="45.9291180" lon="10.2950740">
	<ele>500.00</ele>
	<time>2025-07-29T12:40:10.000Z</time>
</trkpt>
<trkpt lat="45.9291280" lon="10.2950710">
	<ele>500.00</ele>
	<time>2025-07-29T12:40:11.000Z</time>
</trkpt>
<trkpt lat="45.9291350" lon="10.2950740">
	<ele>500.00</ele>
	<time>2025-07-29T12:40:12.000Z</time>
</trkpt>
<trkpt lat="45.9291420" lon="10.2950690">
	<ele>499.80</ele>
	<time>2025-07-29T12:40:13.000Z</time>
</trkpt>
<trkpt lat="45.9291560" lon="10.2950590">
	<ele>499.80</ele>
	<time>2025-07-29T12:40:14.000Z</time>
</trkpt>
<trkpt lat="45.9291700" lon="10.2950550">
	<ele>499.80</ele>
	<time>2025-07-29T12:40:15.000Z</time>
</trkpt>
<trkpt lat="45.9291750" lon="10.2950590">
	<ele>499.80</ele>
	<time>2025-07-29T12:40:16.000Z</time>
</trkpt>
<trkpt lat="45.9291770" lon="10.2950540">
	<ele>499.60</ele>
	<time>2025-07-29T12:40:17.000Z</time>
</trkpt>
<trkpt lat="45.9291930" lon="10.2950450">
	<ele>499.60</ele>
	<time>2025-07-29T12:40:18.000Z</time>
</trkpt>
<trkpt lat="45.9291960" lon="10.2950350">
	<ele>499.60</ele>
	<time>2025-07-29T12:40:19.000Z</time>
</trkpt>
<trkpt lat="45.9291990" lon="10.2950320">
	<ele>499.60</ele>
	<time>2025-07-29T12:40:20.000Z</time>
</trkpt>
<trkpt lat="45.9292160" lon="10.2950270">
	<ele>499.60</ele>
	<time>2025-07-29T12:40:21.000Z</time>
</trkpt>
<trkpt lat="45.9292200" lon="10.2950230">
	<ele>499.40</ele>
	<time>2025-07-29T12:40:22.000Z</time>
</trkpt>
<trkpt lat="45.9292250" lon="10.2950190">
	<ele>499.40</ele>
	<time>2025-07-29T12:40:23.000Z</time>
</trkpt>
<trkpt lat="45.9292410" lon="10.2950090">
	<ele>499.40</ele>
	<time>2025-07-29T12:40:24.000Z</time>
</trkpt>
<trkpt lat="45.9292570" lon="10.2950040">
	<ele>499.20</ele>
	<time>2025-07-29T12:40:25.000Z</time>
</trkpt>
<trkpt lat="45.9292750" lon="10.2950050">
	<ele>499.20</ele>
	<time>2025-07-29T12:40:26.000Z</time>
</trkpt>
<trkpt lat="45.9292950" lon="10.2949930">
	<ele>499.20</ele>
	<time>2025-07-29T12:40:27.000Z</time>
</trkpt>
<trkpt lat="45.9293120" lon="10.2949820">
	<ele>499.20</ele>
	<time>2025-07-29T12:40:28.000Z</time>
</trkpt>
<trkpt lat="45.9293280" lon="10.2949740">
	<ele>499.20</ele>
	<time>2025-07-29T12:40:29.000Z</time>
</trkpt>
<trkpt lat="45.9293410" lon="10.2949770">
	<ele>499.20</ele>
	<time>2025-07-29T12:40:30.000Z</time>
</trkpt>
<trkpt lat="45.9293530" lon="10.2949800">
	<ele>499.20</ele>
	<time>2025-07-29T12:40:31.000Z</time>
</trkpt>
<trkpt lat="45.9293660" lon="10.2949810">
	<ele>499.20</ele>
	<time>2025-07-29T12:40:32.000Z</time>
</trkpt>
<trkpt lat="45.9293790" lon="10.2949820">
	<ele>499.20</ele>
	<time>2025-07-29T12:40:33.000Z</time>
</trkpt>
<trkpt lat="45.9293940" lon="10.2949790">
	<ele>499.20</ele>
	<time>2025-07-29T12:40:34.000Z</time>
</trkpt>
<trkpt lat="45.9294030" lon="10.2949700">
	<ele>499.00</ele>
	<time>2025-07-29T12:40:35.000Z</time>
</trkpt>
<trkpt lat="45.9294150" lon="10.2949580">
	<ele>499.00</ele>
	<time>2025-07-29T12:40:36.000Z</time>
</trkpt>
<trkpt lat="45.9294270" lon="10.2949480">
	<ele>499.00</ele>
	<time>2025-07-29T12:40:37.000Z</time>
</trkpt>
<trkpt lat="45.9294390" lon="10.2949340">
	<ele>499.00</ele>
	<time>2025-07-29T12:40:38.000Z</time>
</trkpt>
<trkpt lat="45.9294510" lon="10.2949220">
	<ele>499.00</ele>
	<time>2025-07-29T12:40:39.000Z</time>
</trkpt>
<trkpt lat="45.9294590" lon="10.2949180">
	<ele>499.20</ele>
	<time>2025-07-29T12:40:40.000Z</time>
</trkpt>
<trkpt lat="45.9294730" lon="10.2949090">
	<ele>499.20</ele>
	<time>2025-07-29T12:40:41.000Z</time>
</trkpt>
<trkpt lat="45.9294840" lon="10.2948980">
	<ele>499.20</ele>
	<time>2025-07-29T12:40:42.000Z</time>
</trkpt>
<trkpt lat="45.9294930" lon="10.2948780">
	<ele>499.20</ele>
	<time>2025-07-29T12:40:43.000Z</time>
</trkpt>
<trkpt lat="45.9295010" lon="10.2948570">
	<ele>499.20</ele>
	<time>2025-07-29T12:40:44.000Z</time>
</trkpt>
<trkpt lat="45.9295150" lon="10.2948460">
	<ele>499.20</ele>
	<time>2025-07-29T12:40:45.000Z</time>
</trkpt>
<trkpt lat="45.9295350" lon="10.2948460">
	<ele>499.20</ele>
	<time>2025-07-29T12:40:46.000Z</time>
</trkpt>
<trkpt lat="45.9295430" lon="10.2948380">
	<ele>499.20</ele>
	<time>2025-07-29T12:40:47.000Z</time>
</trkpt>
<trkpt lat="45.9295540" lon="10.2948330">
	<ele>499.20</ele>
	<time>2025-07-29T12:40:48.000Z</time>
</trkpt>
<trkpt lat="45.9295640" lon="10.2948250">
	<ele>499.20</ele>
	<time>2025-07-29T12:40:49.000Z</time>
</trkpt>
<trkpt lat="45.9295770" lon="10.2948170">
	<ele>499.20</ele>
	<time>2025-07-29T12:40:50.000Z</time>
</trkpt>
<trkpt lat="45.9295870" lon="10.2948100">
	<ele>499.00</ele>
	<time>2025-07-29T12:40:51.000Z</time>
</trkpt>
<trkpt lat="45.9296000" lon="10.2948010">
	<ele>499.00</ele>
	<time>2025-07-29T12:40:52.000Z</time>
</trkpt>
<trkpt lat="45.9296140" lon="10.2947990">
	<ele>499.00</ele>
	<time>2025-07-29T12:40:53.000Z</time>
</trkpt>
<trkpt lat="45.9296280" lon="10.2947920">
	<ele>498.80</ele>
	<time>2025-07-29T12:40:54.000Z</time>
</trkpt>
<trkpt lat="45.9296430" lon="10.2947840">
	<ele>498.80</ele>
	<time>2025-07-29T12:40:55.000Z</time>
</trkpt>
<trkpt lat="45.9296570" lon="10.2947790">
	<ele>498.80</ele>
	<time>2025-07-29T12:40:56.000Z</time>
</trkpt>
<trkpt lat="45.9296710" lon="10.2947730">
	<ele>498.80</ele>
	<time>2025-07-29T12:40:57.000Z</time>
</trkpt>
<trkpt lat="45.9296820" lon="10.2947670">
	<ele>498.60</ele>
	<time>2025-07-29T12:40:58.000Z</time>
</trkpt>
<trkpt lat="45.9296990" lon="10.2947610">
	<ele>498.60</ele>
	<time>2025-07-29T12:40:59.000Z</time>
</trkpt>
<trkpt lat="45.9297150" lon="10.2947560">
	<ele>498.60</ele>
	<time>2025-07-29T12:41:00.000Z</time>
</trkpt>
<trkpt lat="45.9297310" lon="10.2947520">
	<ele>498.40</ele>
	<time>2025-07-29T12:41:01.000Z</time>
</trkpt>
<trkpt lat="45.9297500" lon="10.2947480">
	<ele>498.40</ele>
	<time>2025-07-29T12:41:02.000Z</time>
</trkpt>
<trkpt lat="45.9297680" lon="10.2947470">
	<ele>498.40</ele>
	<time>2025-07-29T12:41:03.000Z</time>
</trkpt>
<trkpt lat="45.9297810" lon="10.2947410">
	<ele>498.20</ele>
	<time>2025-07-29T12:41:04.000Z</time>
</trkpt>
<trkpt lat="45.9297940" lon="10.2947330">
	<ele>498.20</ele>
	<time>2025-07-29T12:41:05.000Z</time>
</trkpt>
<trkpt lat="45.9298100" lon="10.2947250">
	<ele>498.20</ele>
	<time>2025-07-29T12:41:06.000Z</time>
</trkpt>
<trkpt lat="45.9298280" lon="10.2947160">
	<ele>498.20</ele>
	<time>2025-07-29T12:41:07.000Z</time>
</trkpt>
<trkpt lat="45.9298420" lon="10.2947120">
	<ele>498.00</ele>
	<time>2025-07-29T12:41:08.000Z</time>
</trkpt>
<trkpt lat="45.9298530" lon="10.2947030">
	<ele>498.00</ele>
	<time>2025-07-29T12:41:09.000Z</time>
</trkpt>
<trkpt lat="45.9298630" lon="10.2947140">
	<ele>498.00</ele>
	<time>2025-07-29T12:41:10.000Z</time>
</trkpt>
<trkpt lat="45.9298710" lon="10.2947140">
	<ele>498.00</ele>
	<time>2025-07-29T12:41:11.000Z</time>
</trkpt>
<trkpt lat="45.9298850" lon="10.2947070">
	<ele>498.00</ele>
	<time>2025-07-29T12:41:12.000Z</time>
</trkpt>
<trkpt lat="45.9298990" lon="10.2947140">
	<ele>498.00</ele>
	<time>2025-07-29T12:41:13.000Z</time>
</trkpt>
<trkpt lat="45.9299100" lon="10.2947310">
	<ele>498.00</ele>
	<time>2025-07-29T12:41:14.000Z</time>
</trkpt>
<trkpt lat="45.9299220" lon="10.2947460">
	<ele>497.80</ele>
	<time>2025-07-29T12:41:15.000Z</time>
</trkpt>
<trkpt lat="45.9299390" lon="10.2947500">
	<ele>497.80</ele>
	<time>2025-07-29T12:41:16.000Z</time>
</trkpt>
<trkpt lat="45.9299560" lon="10.2947530">
	<ele>497.80</ele>
	<time>2025-07-29T12:41:17.000Z</time>
</trkpt>
<trkpt lat="45.9299760" lon="10.2947470">
	<ele>497.60</ele>
	<time>2025-07-29T12:41:18.000Z</time>
</trkpt>
<trkpt lat="45.9299930" lon="10.2947490">
	<ele>497.60</ele>
	<time>2025-07-29T12:41:19.000Z</time>
</trkpt>
<trkpt lat="45.9300020" lon="10.2947550">
	<ele>497.80</ele>
	<time>2025-07-29T12:41:20.000Z</time>
</trkpt>
<trkpt lat="45.9300100" lon="10.2947620">
	<ele>497.80</ele>
	<time>2025-07-29T12:41:21.000Z</time>
</trkpt>
<trkpt lat="45.9300230" lon="10.2947670">
	<ele>497.80</ele>
	<time>2025-07-29T12:41:22.000Z</time>
</trkpt>
<trkpt lat="45.9300390" lon="10.2947700">
	<ele>497.80</ele>
	<time>2025-07-29T12:41:23.000Z</time>
</trkpt>
<trkpt lat="45.9300570" lon="10.2947690">
	<ele>497.80</ele>
	<time>2025-07-29T12:41:24.000Z</time>
</trkpt>
<trkpt lat="45.9300720" lon="10.2947670">
	<ele>497.80</ele>
	<time>2025-07-29T12:41:25.000Z</time>
</trkpt>
<trkpt lat="45.9300880" lon="10.2947670">
	<ele>497.60</ele>
	<time>2025-07-29T12:41:26.000Z</time>
</trkpt>
<trkpt lat="45.9301040" lon="10.2947630">
	<ele>497.40</ele>
	<time>2025-07-29T12:41:27.000Z</time>
</trkpt>
<trkpt lat="45.9301160" lon="10.2947580">
	<ele>497.40</ele>
	<time>2025-07-29T12:41:28.000Z</time>
</trkpt>
<trkpt lat="45.9301280" lon="10.2947520">
	<ele>497.40</ele>
	<time>2025-07-29T12:41:29.000Z</time>
</trkpt>
<trkpt lat="45.9301400" lon="10.2947410">
	<ele>497.20</ele>
	<time>2025-07-29T12:41:30.000Z</time>
</trkpt>
<trkpt lat="45.9301530" lon="10.2947280">
	<ele>497.20</ele>
	<time>2025-07-29T12:41:31.000Z</time>
</trkpt>
<trkpt lat="45.9301620" lon="10.2947190">
	<ele>497.00</ele>
	<time>2025-07-29T12:41:32.000Z</time>
</trkpt>
<trkpt lat="45.9301760" lon="10.2947130">
	<ele>497.00</ele>
	<time>2025-07-29T12:41:33.000Z</time>
</trkpt>
<trkpt lat="45.9301890" lon="10.2947100">
	<ele>497.00</ele>
	<time>2025-07-29T12:41:34.000Z</time>
</trkpt>
<trkpt lat="45.9302030" lon="10.2947000">
	<ele>497.00</ele>
	<time>2025-07-29T12:41:35.000Z</time>
</trkpt>
<trkpt lat="45.9302160" lon="10.2946950">
	<ele>496.80</ele>
	<time>2025-07-29T12:41:36.000Z</time>
</trkpt>
<trkpt lat="45.9302290" lon="10.2946880">
	<ele>496.80</ele>
	<time>2025-07-29T12:41:37.000Z</time>
</trkpt>
<trkpt lat="45.9302390" lon="10.2946820">
	<ele>496.80</ele>
	<time>2025-07-29T12:41:38.000Z</time>
</trkpt>
<trkpt lat="45.9302510" lon="10.2946740">
	<ele>496.60</ele>
	<time>2025-07-29T12:41:39.000Z</time>
</trkpt>
<trkpt lat="45.9302590" lon="10.2946640">
	<ele>496.60</ele>
	<time>2025-07-29T12:41:40.000Z</time>
</trkpt>
<trkpt lat="45.9302670" lon="10.2946570">
	<ele>496.60</ele>
	<time>2025-07-29T12:41:41.000Z</time>
</trkpt>
<trkpt lat="45.9302780" lon="10.2946430">
	<ele>496.60</ele>
	<time>2025-07-29T12:41:42.000Z</time>
</trkpt>
<trkpt lat="45.9302950" lon="10.2946280">
	<ele>496.60</ele>
	<time>2025-07-29T12:41:43.000Z</time>
</trkpt>
<trkpt lat="45.9303110" lon="10.2946120">
	<ele>496.60</ele>
	<time>2025-07-29T12:41:44.000Z</time>
</trkpt>
<trkpt lat="45.9303300" lon="10.2946020">
	<ele>496.60</ele>
	<time>2025-07-29T12:41:45.000Z</time>
</trkpt>
<trkpt lat="45.9303410" lon="10.2945970">
	<ele>496.60</ele>
	<time>2025-07-29T12:41:46.000Z</time>
</trkpt>
<trkpt lat="45.9303540" lon="10.2945910">
	<ele>496.60</ele>
	<time>2025-07-29T12:41:47.000Z</time>
</trkpt>
<trkpt lat="45.9303660" lon="10.2945880">
	<ele>496.40</ele>
	<time>2025-07-29T12:41:48.000Z</time>
</trkpt>
<trkpt lat="45.9303850" lon="10.2945880">
	<ele>496.40</ele>
	<time>2025-07-29T12:41:49.000Z</time>
</trkpt>
<trkpt lat="45.9304050" lon="10.2945800">
	<ele>496.40</ele>
	<time>2025-07-29T12:41:50.000Z</time>
</trkpt>
<trkpt lat="45.9304290" lon="10.2945730">
	<ele>496.20</ele>
	<time>2025-07-29T12:41:51.000Z</time>
</trkpt>
<trkpt lat="45.9304470" lon="10.2945770">
	<ele>496.20</ele>
	<time>2025-07-29T12:41:52.000Z</time>
</trkpt>
<trkpt lat="45.9304510" lon="10.2945740">
	<ele>496.20</ele>
	<time>2025-07-29T12:41:53.000Z</time>
</trkpt>
<trkpt lat="45.9304540" lon="10.2945730">
	<ele>496.20</ele>
	<time>2025-07-29T12:41:54.000Z</time>
</trkpt>
<trkpt lat="45.9304520" lon="10.2945680">
	<ele>496.20</ele>
	<time>2025-07-29T12:41:55.000Z</time>
</trkpt>
<trkpt lat="45.9304620" lon="10.2945610">
	<ele>496.00</ele>
	<time>2025-07-29T12:41:56.000Z</time>
</trkpt>
<trkpt lat="45.9304790" lon="10.2945520">
	<ele>496.00</ele>
	<time>2025-07-29T12:41:57.000Z</time>
</trkpt>
<trkpt lat="45.9304930" lon="10.2945460">
	<ele>496.00</ele>
	<time>2025-07-29T12:41:58.000Z</time>
</trkpt>
<trkpt lat="45.9305040" lon="10.2945320">
	<ele>496.00</ele>
	<time>2025-07-29T12:41:59.000Z</time>
</trkpt>
<trkpt lat="45.9305060" lon="10.2945200">
	<ele>495.80</ele>
	<time>2025-07-29T12:42:00.000Z</time>
</trkpt>
<trkpt lat="45.9305260" lon="10.2945080">
	<ele>495.80</ele>
	<time>2025-07-29T12:42:01.000Z</time>
</trkpt>
<trkpt lat="45.9305480" lon="10.2944950">
	<ele>495.80</ele>
	<time>2025-07-29T12:42:02.000Z</time>
</trkpt>
<trkpt lat="45.9305700" lon="10.2944900">
	<ele>495.80</ele>
	<time>2025-07-29T12:42:03.000Z</time>
</trkpt>
<trkpt lat="45.9305860" lon="10.2944810">
	<ele>495.60</ele>
	<time>2025-07-29T12:42:04.000Z</time>
</trkpt>
<trkpt lat="45.9305930" lon="10.2944670">
	<ele>495.60</ele>
	<time>2025-07-29T12:42:05.000Z</time>
</trkpt>
<trkpt lat="45.9305970" lon="10.2944520">
	<ele>495.60</ele>
	<time>2025-07-29T12:42:06.000Z</time>
</trkpt>
<trkpt lat="45.9305950" lon="10.2944360">
	<ele>495.60</ele>
	<time>2025-07-29T12:42:07.000Z</time>
</trkpt>
<trkpt lat="45.9306010" lon="10.2944200">
	<ele>495.40</ele>
	<time>2025-07-29T12:42:08.000Z</time>
</trkpt>
<trkpt lat="45.9306070" lon="10.2944170">
	<ele>495.40</ele>
	<time>2025-07-29T12:42:09.000Z</time>
</trkpt>
<trkpt lat="45.9306170" lon="10.2944080">
	<ele>495.40</ele>
	<time>2025-07-29T12:42:10.000Z</time>
</trkpt>
<trkpt lat="45.9306320" lon="10.2944020">
	<ele>495.40</ele>
	<time>2025-07-29T12:42:11.000Z</time>
</trkpt>
<trkpt lat="45.9306420" lon="10.2944030">
	<ele>495.20</ele>
	<time>2025-07-29T12:42:12.000Z</time>
</trkpt>
<trkpt lat="45.9306490" lon="10.2943990">
	<ele>495.20</ele>
	<time>2025-07-29T12:42:13.000Z</time>
</trkpt>
<trkpt lat="45.9306680" lon="10.2943880">
	<ele>495.20</ele>
	<time>2025-07-29T12:42:14.000Z</time>
</trkpt>
<trkpt lat="45.9306890" lon="10.2943850">
	<ele>495.00</ele>
	<time>2025-07-29T12:42:15.000Z</time>
</trkpt>
<trkpt lat="45.9307020" lon="10.2943860">
	<ele>495.00</ele>
	<time>2025-07-29T12:42:16.000Z</time>
</trkpt>
<trkpt lat="45.9307160" lon="10.2943860">
	<ele>495.00</ele>
	<time>2025-07-29T12:42:17.000Z</time>
</trkpt>
<trkpt lat="45.9307280" lon="10.2943780">
	<ele>495.00</ele>
	<time>2025-07-29T12:42:18.000Z</time>
</trkpt>
<trkpt lat="45.9307410" lon="10.2943690">
	<ele>495.00</ele>
	<time>2025-07-29T12:42:19.000Z</time>
</trkpt>
<trkpt lat="45.9307540" lon="10.2943610">
	<ele>495.00</ele>
	<time>2025-07-29T12:42:20.000Z</time>
</trkpt>
<trkpt lat="45.9307650" lon="10.2943480">
	<ele>495.00</ele>
	<time>2025-07-29T12:42:21.000Z</time>
</trkpt>
<trkpt lat="45.9307810" lon="10.2943360">
	<ele>495.00</ele>
	<time>2025-07-29T12:42:22.000Z</time>
</trkpt>
<trkpt lat="45.9308050" lon="10.2943330">
	<ele>495.00</ele>
	<time>2025-07-29T12:42:23.000Z</time>
</trkpt>
<trkpt lat="45.9308240" lon="10.2943260">
	<ele>494.80</ele>
	<time>2025-07-29T12:42:24.000Z</time>
</trkpt>
<trkpt lat="45.9308400" lon="10.2943110">
	<ele>494.80</ele>
	<time>2025-07-29T12:42:25.000Z</time>
</trkpt>
<trkpt lat="45.9308520" lon="10.2942980">
	<ele>494.80</ele>
	<time>2025-07-29T12:42:26.000Z</time>
</trkpt>
<trkpt lat="45.9308580" lon="10.2942810">
	<ele>494.60</ele>
	<time>2025-07-29T12:42:27.000Z</time>
</trkpt>
<trkpt lat="45.9308680" lon="10.2942750">
	<ele>494.60</ele>
	<time>2025-07-29T12:42:28.000Z</time>
</trkpt>
<trkpt lat="45.9308820" lon="10.2942740">
	<ele>494.40</ele>
	<time>2025-07-29T12:42:29.000Z</time>
</trkpt>
<trkpt lat="45.9308970" lon="10.2942740">
	<ele>494.40</ele>
	<time>2025-07-29T12:42:30.000Z</time>
</trkpt>
<trkpt lat="45.9309100" lon="10.2942720">
	<ele>494.40</ele>
	<time>2025-07-29T12:42:31.000Z</time>
</trkpt>
<trkpt lat="45.9309140" lon="10.2942590">
	<ele>494.20</ele>
	<time>2025-07-29T12:42:32.000Z</time>
</trkpt>
<trkpt lat="45.9309270" lon="10.2942480">
	<ele>494.00</ele>
	<time>2025-07-29T12:42:33.000Z</time>
</trkpt>
<trkpt lat="45.9309320" lon="10.2942280">
	<ele>494.00</ele>
	<time>2025-07-29T12:42:34.000Z</time>
</trkpt>
<trkpt lat="45.9309450" lon="10.2942100">
	<ele>493.80</ele>
	<time>2025-07-29T12:42:35.000Z</time>
</trkpt>
<trkpt lat="45.9309580" lon="10.2942020">
	<ele>493.80</ele>
	<time>2025-07-29T12:42:36.000Z</time>
</trkpt>
<trkpt lat="45.9309700" lon="10.2941970">
	<ele>493.80</ele>
	<time>2025-07-29T12:42:37.000Z</time>
</trkpt>
<trkpt lat="45.9309910" lon="10.2941960">
	<ele>493.80</ele>
	<time>2025-07-29T12:42:38.000Z</time>
</trkpt>
<trkpt lat="45.9310060" lon="10.2941910">
	<ele>493.60</ele>
	<time>2025-07-29T12:42:39.000Z</time>
</trkpt>
<trkpt lat="45.9310130" lon="10.2941840">
	<ele>493.60</ele>
	<time>2025-07-29T12:42:40.000Z</time>
</trkpt>
<trkpt lat="45.9310210" lon="10.2941810">
	<ele>493.80</ele>
	<time>2025-07-29T12:42:41.000Z</time>
</trkpt>
<trkpt lat="45.9310360" lon="10.2941740">
	<ele>493.80</ele>
	<time>2025-07-29T12:42:42.000Z</time>
</trkpt>
<trkpt lat="45.9310460" lon="10.2941650">
	<ele>493.80</ele>
	<time>2025-07-29T12:42:43.000Z</time>
</trkpt>
<trkpt lat="45.9310610" lon="10.2941600">
	<ele>493.80</ele>
	<time>2025-07-29T12:42:44.000Z</time>
</trkpt>
<trkpt lat="45.9310720" lon="10.2941590">
	<ele>493.80</ele>
	<time>2025-07-29T12:42:45.000Z</time>
</trkpt>
<trkpt lat="45.9310810" lon="10.2941640">
	<ele>493.80</ele>
	<time>2025-07-29T12:42:46.000Z</time>
</trkpt>
<trkpt lat="45.9310910" lon="10.2941700">
	<ele>493.80</ele>
	<time>2025-07-29T12:42:47.000Z</time>
</trkpt>
<trkpt lat="45.9310940" lon="10.2941720">
	<ele>493.80</ele>
	<time>2025-07-29T12:42:48.000Z</time>
</trkpt>
<trkpt lat="45.9310950" lon="10.2941700">
	<ele>493.80</ele>
	<time>2025-07-29T12:42:49.000Z</time>
</trkpt>
<trkpt lat="45.9310980" lon="10.2941680">
	<ele>493.80</ele>
	<time>2025-07-29T12:42:50.000Z</time>
</trkpt>
<trkpt lat="45.9311000" lon="10.2941640">
	<ele>493.80</ele>
	<time>2025-07-29T12:42:51.000Z</time>
</trkpt>
<trkpt lat="45.9310910" lon="10.2941690">
	<ele>493.80</ele>
	<time>2025-07-29T12:42:52.000Z</time>
</trkpt>
<trkpt lat="45.9310910" lon="10.2941650">
	<ele>493.80</ele>
	<time>2025-07-29T12:42:53.000Z</time>
</trkpt>
<trkpt lat="45.9311020" lon="10.2941610">
	<ele>493.80</ele>
	<time>2025-07-29T12:42:54.000Z</time>
</trkpt>
<trkpt lat="45.9311010" lon="10.2941610">
	<ele>493.80</ele>
	<time>2025-07-29T12:42:55.000Z</time>
</trkpt>
<trkpt lat="45.9311060" lon="10.2941640">
	<ele>494.00</ele>
	<time>2025-07-29T12:42:56.000Z</time>
</trkpt>
<trkpt lat="45.9311100" lon="10.2941700">
	<ele>494.00</ele>
	<time>2025-07-29T12:42:57.000Z</time>
</trkpt>
<trkpt lat="45.9311160" lon="10.2941650">
	<ele>494.00</ele>
	<time>2025-07-29T12:42:58.000Z</time>
</trkpt>
<trkpt lat="45.9311180" lon="10.2941600">
	<ele>493.80</ele>
	<time>2025-07-29T12:42:59.000Z</time>
</trkpt>
<trkpt lat="45.9311130" lon="10.2941500">
	<ele>493.80</ele>
	<time>2025-07-29T12:43:00.000Z</time>
</trkpt>
<trkpt lat="45.9311160" lon="10.2941370">
	<ele>493.80</ele>
	<time>2025-07-29T12:43:01.000Z</time>
</trkpt>
<trkpt lat="45.9311440" lon="10.2941510">
	<ele>493.60</ele>
	<time>2025-07-29T12:43:02.000Z</time>
</trkpt>
<trkpt lat="45.9311570" lon="10.2941390">
	<ele>493.60</ele>
	<time>2025-07-29T12:43:03.000Z</time>
</trkpt>
<trkpt lat="45.9311690" lon="10.2941400">
	<ele>493.60</ele>
	<time>2025-07-29T12:43:04.000Z</time>
</trkpt>
<trkpt lat="45.9311830" lon="10.2941260">
	<ele>493.60</ele>
	<time>2025-07-29T12:43:05.000Z</time>
</trkpt>
<trkpt lat="45.9311930" lon="10.2941180">
	<ele>493.60</ele>
	<time>2025-07-29T12:43:06.000Z</time>
</trkpt>
<trkpt lat="45.9312060" lon="10.2941140">
	<ele>493.60</ele>
	<time>2025-07-29T12:43:07.000Z</time>
</trkpt>
<trkpt lat="45.9312170" lon="10.2941060">
	<ele>493.40</ele>
	<time>2025-07-29T12:43:08.000Z</time>
</trkpt>
<trkpt lat="45.9312250" lon="10.2940960">
	<ele>493.20</ele>
	<time>2025-07-29T12:43:09.000Z</time>
</trkpt>
<trkpt lat="45.9312260" lon="10.2940870">
	<ele>493.00</ele>
	<time>2025-07-29T12:43:10.000Z</time>
</trkpt>
<trkpt lat="45.9312280" lon="10.2940830">
	<ele>493.00</ele>
	<time>2025-07-29T12:43:11.000Z</time>
</trkpt>
<trkpt lat="45.9312460" lon="10.2940900">
	<ele>493.00</ele>
	<time>2025-07-29T12:43:12.000Z</time>
</trkpt>
<trkpt lat="45.9312620" lon="10.2940910">
	<ele>492.80</ele>
	<time>2025-07-29T12:43:13.000Z</time>
</trkpt>
<trkpt lat="45.9312800" lon="10.2940920">
	<ele>492.80</ele>
	<time>2025-07-29T12:43:14.000Z</time>
</trkpt>
<trkpt lat="45.9312840" lon="10.2940900">
	<ele>492.80</ele>
	<time>2025-07-29T12:43:15.000Z</time>
</trkpt>
<trkpt lat="45.9312880" lon="10.2940730">
	<ele>492.80</ele>
	<time>2025-07-29T12:43:16.000Z</time>
</trkpt>
<trkpt lat="45.9312970" lon="10.2940540">
	<ele>492.60</ele>
	<time>2025-07-29T12:43:17.000Z</time>
</trkpt>
<trkpt lat="45.9313040" lon="10.2940440">
	<ele>492.60</ele>
	<time>2025-07-29T12:43:18.000Z</time>
</trkpt>
<trkpt lat="45.9313090" lon="10.2940310">
	<ele>492.40</ele>
	<time>2025-07-29T12:43:19.000Z</time>
</trkpt>
<trkpt lat="45.9313080" lon="10.2940180">
	<ele>492.40</ele>
	<time>2025-07-29T12:43:20.000Z</time>
</trkpt>
<trkpt lat="45.9313100" lon="10.2940060">
	<ele>492.20</ele>
	<time>2025-07-29T12:43:21.000Z</time>
</trkpt>
<trkpt lat="45.9313120" lon="10.2939950">
	<ele>492.20</ele>
	<time>2025-07-29T12:43:22.000Z</time>
</trkpt>
<trkpt lat="45.9313150" lon="10.2939890">
	<ele>492.20</ele>
	<time>2025-07-29T12:43:23.000Z</time>
</trkpt>
<trkpt lat="45.9313250" lon="10.2939930">
	<ele>492.20</ele>
	<time>2025-07-29T12:43:24.000Z</time>
</trkpt>
<trkpt lat="45.9313380" lon="10.2940010">
	<ele>492.20</ele>
	<time>2025-07-29T12:43:25.000Z</time>
</trkpt>
<trkpt lat="45.9313530" lon="10.2940050">
	<ele>492.20</ele>
	<time>2025-07-29T12:43:26.000Z</time>
</trkpt>
<trkpt lat="45.9313580" lon="10.2940040">
	<ele>492.20</ele>
	<time>2025-07-29T12:43:27.000Z</time>
</trkpt>
<trkpt lat="45.9313700" lon="10.2939970">
	<ele>492.20</ele>
	<time>2025-07-29T12:43:28.000Z</time>
</trkpt>
<trkpt lat="45.9313830" lon="10.2939860">
	<ele>492.20</ele>
	<time>2025-07-29T12:43:29.000Z</time>
</trkpt>
<trkpt lat="45.9313960" lon="10.2939750">
	<ele>492.20</ele>
	<time>2025-07-29T12:43:30.000Z</time>
</trkpt>
<trkpt lat="45.9314060" lon="10.2939610">
	<ele>492.00</ele>
	<time>2025-07-29T12:43:31.000Z</time>
</trkpt>
<trkpt lat="45.9314160" lon="10.2939500">
	<ele>491.80</ele>
	<time>2025-07-29T12:43:32.000Z</time>
</trkpt>
<trkpt lat="45.9314200" lon="10.2939510">
	<ele>491.60</ele>
	<time>2025-07-29T12:43:33.000Z</time>
</trkpt>
<trkpt lat="45.9314240" lon="10.2939570">
	<ele>491.20</ele>
	<time>2025-07-29T12:43:34.000Z</time>
</trkpt>
<trkpt lat="45.9314270" lon="10.2939690">
	<ele>491.00</ele>
	<time>2025-07-29T12:43:35.000Z</time>
</trkpt>
<trkpt lat="45.9314310" lon="10.2939740">
	<ele>490.60</ele>
	<time>2025-07-29T12:43:36.000Z</time>
</trkpt>
<trkpt lat="45.9314360" lon="10.2939770">
	<ele>490.40</ele>
	<time>2025-07-29T12:43:37.000Z</time>
</trkpt>
<trkpt lat="45.9314440" lon="10.2939810">
	<ele>490.20</ele>
	<time>2025-07-29T12:43:38.000Z</time>
</trkpt>
<trkpt lat="45.9314290" lon="10.2939710">
	<ele>490.00</ele>
	<time>2025-07-29T12:43:39.000Z</time>
</trkpt>
<trkpt lat="45.9314320" lon="10.2939700">
	<ele>489.80</ele>
	<time>2025-07-29T12:43:40.000Z</time>
</trkpt>
<trkpt lat="45.9314530" lon="10.2939460">
	<ele>489.60</ele>
	<time>2025-07-29T12:43:41.000Z</time>
</trkpt>
<trkpt lat="45.9314590" lon="10.2939420">
	<ele>489.40</ele>
	<time>2025-07-29T12:43:42.000Z</time>
</trkpt>
<trkpt lat="45.9314590" lon="10.2939410">
	<ele>489.40</ele>
	<time>2025-07-29T12:43:43.000Z</time>
</trkpt>
<trkpt lat="45.9314680" lon="10.2939290">
	<ele>489.20</ele>
	<time>2025-07-29T12:43:44.000Z</time>
</trkpt>
<trkpt lat="45.9314860" lon="10.2939150">
	<ele>489.00</ele>
	<time>2025-07-29T12:43:45.000Z</time>
</trkpt>
<trkpt lat="45.9314950" lon="10.2939050">
	<ele>489.00</ele>
	<time>2025-07-29T12:43:46.000Z</time>
</trkpt>
<trkpt lat="45.9315020" lon="10.2938900">
	<ele>488.60</ele>
	<time>2025-07-29T12:43:47.000Z</time>
</trkpt>
<trkpt lat="45.9315170" lon="10.2938700">
	<ele>488.40</ele>
	<time>2025-07-29T12:43:48.000Z</time>
</trkpt>
<trkpt lat="45.9315320" lon="10.2938490">
	<ele>488.00</ele>
	<time>2025-07-29T12:43:49.000Z</time>
</trkpt>
<trkpt lat="45.9315390" lon="10.2938350">
	<ele>488.00</ele>
	<time>2025-07-29T12:43:50.000Z</time>
</trkpt>
<trkpt lat="45.9315430" lon="10.2938300">
	<ele>487.60</ele>
	<time>2025-07-29T12:43:51.000Z</time>
</trkpt>
<trkpt lat="45.9315550" lon="10.2938150">
	<ele>487.40</ele>
	<time>2025-07-29T12:43:52.000Z</time>
</trkpt>
<trkpt lat="45.9315680" lon="10.2938020">
	<ele>487.20</ele>
	<time>2025-07-29T12:43:53.000Z</time>
</trkpt>
<trkpt lat="45.9315790" lon="10.2937870">
	<ele>486.80</ele>
	<time>2025-07-29T12:43:54.000Z</time>
</trkpt>
<trkpt lat="45.9315890" lon="10.2937730">
	<ele>486.60</ele>
	<time>2025-07-29T12:43:55.000Z</time>
</trkpt>
<trkpt lat="45.9315990" lon="10.2937650">
	<ele>486.60</ele>
	<time>2025-07-29T12:43:56.000Z</time>
</trkpt>
<trkpt lat="45.9316150" lon="10.2937570">
	<ele>486.40</ele>
	<time>2025-07-29T12:43:57.000Z</time>
</trkpt>
<trkpt lat="45.9316370" lon="10.2937520">
	<ele>486.20</ele>
	<time>2025-07-29T12:43:58.000Z</time>
</trkpt>
<trkpt lat="45.9316680" lon="10.2937430">
	<ele>486.00</ele>
	<time>2025-07-29T12:43:59.000Z</time>
</trkpt>
<trkpt lat="45.9316910" lon="10.2937330">
	<ele>485.80</ele>
	<time>2025-07-29T12:44:00.000Z</time>
</trkpt>
<trkpt lat="45.9317100" lon="10.2937330">
	<ele>485.60</ele>
	<time>2025-07-29T12:44:01.000Z</time>
</trkpt>
<trkpt lat="45.9317220" lon="10.2937400">
	<ele>485.40</ele>
	<time>2025-07-29T12:44:02.000Z</time>
</trkpt>
<trkpt lat="45.9317320" lon="10.2937500">
	<ele>485.20</ele>
	<time>2025-07-29T12:44:03.000Z</time>
</trkpt>
<trkpt lat="45.9317330" lon="10.2937690">
	<ele>484.80</ele>
	<time>2025-07-29T12:44:04.000Z</time>
</trkpt>
<trkpt lat="45.9317320" lon="10.2937880">
	<ele>484.60</ele>
	<time>2025-07-29T12:44:05.000Z</time>
</trkpt>
<trkpt lat="45.9317350" lon="10.2938040">
	<ele>484.40</ele>
	<time>2025-07-29T12:44:06.000Z</time>
</trkpt>
<trkpt lat="45.9317450" lon="10.2938140">
	<ele>484.20</ele>
	<time>2025-07-29T12:44:07.000Z</time>
</trkpt>
<trkpt lat="45.9317540" lon="10.2938260">
	<ele>484.00</ele>
	<time>2025-07-29T12:44:08.000Z</time>
</trkpt>
<trkpt lat="45.9317650" lon="10.2938450">
	<ele>483.80</ele>
	<time>2025-07-29T12:44:09.000Z</time>
</trkpt>
<trkpt lat="45.9317700" lon="10.2938580">
	<ele>483.40</ele>
	<time>2025-07-29T12:44:10.000Z</time>
</trkpt>
<trkpt lat="45.9317890" lon="10.2938730">
	<ele>483.20</ele>
	<time>2025-07-29T12:44:11.000Z</time>
</trkpt>
<trkpt lat="45.9318040" lon="10.2938890">
	<ele>483.00</ele>
	<time>2025-07-29T12:44:12.000Z</time>
</trkpt>
<trkpt lat="45.9318180" lon="10.2939040">
	<ele>482.80</ele>
	<time>2025-07-29T12:44:13.000Z</time>
</trkpt>
<trkpt lat="45.9318330" lon="10.2939150">
	<ele>482.60</ele>
	<time>2025-07-29T12:44:14.000Z</time>
</trkpt>
<trkpt lat="45.9318550" lon="10.2939260">
	<ele>482.60</ele>
	<time>2025-07-29T12:44:15.000Z</time>
</trkpt>
<trkpt lat="45.9318850" lon="10.2939400">
	<ele>482.20</ele>
	<time>2025-07-29T12:44:16.000Z</time>
</trkpt>
<trkpt lat="45.9319030" lon="10.2939460">
	<ele>482.00</ele>
	<time>2025-07-29T12:44:17.000Z</time>
</trkpt>
<trkpt lat="45.9319140" lon="10.2939550">
	<ele>482.00</ele>
	<time>2025-07-29T12:44:18.000Z</time>
</trkpt>
<trkpt lat="45.9319160" lon="10.2939840">
	<ele>481.60</ele>
	<time>2025-07-29T12:44:19.000Z</time>
</trkpt>
<trkpt lat="45.9319190" lon="10.2940060">
	<ele>481.40</ele>
	<time>2025-07-29T12:44:20.000Z</time>
</trkpt>
<trkpt lat="45.9319250" lon="10.2940340">
	<ele>481.40</ele>
	<time>2025-07-29T12:44:21.000Z</time>
</trkpt>
<trkpt lat="45.9319290" lon="10.2940630">
	<ele>481.20</ele>
	<time>2025-07-29T12:44:22.000Z</time>
</trkpt>
<trkpt lat="45.9319370" lon="10.2940850">
	<ele>481.00</ele>
	<time>2025-07-29T12:44:23.000Z</time>
</trkpt>
<trkpt lat="45.9319320" lon="10.2941180">
	<ele>480.80</ele>
	<time>2025-07-29T12:44:24.000Z</time>
</trkpt>
<trkpt lat="45.9319280" lon="10.2941390">
	<ele>480.60</ele>
	<time>2025-07-29T12:44:25.000Z</time>
</trkpt>
<trkpt lat="45.9319220" lon="10.2941570">
	<ele>480.60</ele>
	<time>2025-07-29T12:44:26.000Z</time>
</trkpt>
<trkpt lat="45.9319220" lon="10.2941820">
	<ele>480.20</ele>
	<time>2025-07-29T12:44:27.000Z</time>
</trkpt>
<trkpt lat="45.9319260" lon="10.2942080">
	<ele>480.20</ele>
	<time>2025-07-29T12:44:28.000Z</time>
</trkpt>
<trkpt lat="45.9319180" lon="10.2942170">
	<ele>480.00</ele>
	<time>2025-07-29T12:44:29.000Z</time>
</trkpt>
<trkpt lat="45.9319250" lon="10.2942370">
	<ele>479.80</ele>
	<time>2025-07-29T12:44:30.000Z</time>
</trkpt>
<trkpt lat="45.9319360" lon="10.2942600">
	<ele>479.60</ele>
	<time>2025-07-29T12:44:31.000Z</time>
</trkpt>
<trkpt lat="45.9319450" lon="10.2942870">
	<ele>479.40</ele>
	<time>2025-07-29T12:44:32.000Z</time>
</trkpt>
<trkpt lat="45.9319410" lon="10.2943100">
	<ele>479.40</ele>
	<time>2025-07-29T12:44:33.000Z</time>
</trkpt>
<trkpt lat="45.9319360" lon="10.2943230">
	<ele>479.20</ele>
	<time>2025-07-29T12:44:34.000Z</time>
</trkpt>
<trkpt lat="45.9319290" lon="10.2943480">
	<ele>479.00</ele>
	<time>2025-07-29T12:44:35.000Z</time>
</trkpt>
<trkpt lat="45.9319220" lon="10.2943660">
	<ele>479.00</ele>
	<time>2025-07-29T12:44:36.000Z</time>
</trkpt>
<trkpt lat="45.9319220" lon="10.2943790">
	<ele>478.80</ele>
	<time>2025-07-29T12:44:37.000Z</time>
</trkpt>
<trkpt lat="45.9319210" lon="10.2943970">
	<ele>478.60</ele>
	<time>2025-07-29T12:44:38.000Z</time>
</trkpt>
<trkpt lat="45.9319210" lon="10.2944280">
	<ele>478.40</ele>
	<time>2025-07-29T12:44:39.000Z</time>
</trkpt>
<trkpt lat="45.9319380" lon="10.2944520">
	<ele>478.20</ele>
	<time>2025-07-29T12:44:40.000Z</time>
</trkpt>
<trkpt lat="45.9319450" lon="10.2944700">
	<ele>478.00</ele>
	<time>2025-07-29T12:44:41.000Z</time>
</trkpt>
<trkpt lat="45.9319420" lon="10.2944920">
	<ele>478.00</ele>
	<time>2025-07-29T12:44:42.000Z</time>
</trkpt>
<trkpt lat="45.9319340" lon="10.2945130">
	<ele>477.80</ele>
	<time>2025-07-29T12:44:43.000Z</time>
</trkpt>
<trkpt lat="45.9319230" lon="10.2945270">
	<ele>477.60</ele>
	<time>2025-07-29T12:44:44.000Z</time>
</trkpt>
<trkpt lat="45.9319250" lon="10.2945410">
	<ele>477.60</ele>
	<time>2025-07-29T12:44:45.000Z</time>
</trkpt>
<trkpt lat="45.9319250" lon="10.2945450">
	<ele>477.60</ele>
	<time>2025-07-29T12:44:46.000Z</time>
</trkpt>
<trkpt lat="45.9319300" lon="10.2945740">
	<ele>477.60</ele>
	<time>2025-07-29T12:44:47.000Z</time>
</trkpt>
<trkpt lat="45.9319380" lon="10.2945960">
	<ele>477.40</ele>
	<time>2025-07-29T12:44:48.000Z</time>
</trkpt>
<trkpt lat="45.9319410" lon="10.2946070">
	<ele>477.40</ele>
	<time>2025-07-29T12:44:49.000Z</time>
</trkpt>
<trkpt lat="45.9319380" lon="10.2946230">
	<ele>477.20</ele>
	<time>2025-07-29T12:44:50.000Z</time>
</trkpt>
<trkpt lat="45.9319440" lon="10.2946460">
	<ele>477.00</ele>
	<time>2025-07-29T12:44:51.000Z</time>
</trkpt>
<trkpt lat="45.9319410" lon="10.2946720">
	<ele>476.80</ele>
	<time>2025-07-29T12:44:52.000Z</time>
</trkpt>
<trkpt lat="45.9319330" lon="10.2947010">
	<ele>476.60</ele>
	<time>2025-07-29T12:44:53.000Z</time>
</trkpt>
<trkpt lat="45.9319210" lon="10.2947260">
	<ele>476.40</ele>
	<time>2025-07-29T12:44:54.000Z</time>
</trkpt>
<trkpt lat="45.9319210" lon="10.2947460">
	<ele>476.20</ele>
	<time>2025-07-29T12:44:55.000Z</time>
</trkpt>
<trkpt lat="45.9319230" lon="10.2947630">
	<ele>476.20</ele>
	<time>2025-07-29T12:44:56.000Z</time>
</trkpt>
<trkpt lat="45.9319330" lon="10.2947840">
	<ele>476.00</ele>
	<time>2025-07-29T12:44:57.000Z</time>
</trkpt>
<trkpt lat="45.9319590" lon="10.2947890">
	<ele>476.00</ele>
	<time>2025-07-29T12:44:58.000Z</time>
</trkpt>
<trkpt lat="45.9319760" lon="10.2948060">
	<ele>475.80</ele>
	<time>2025-07-29T12:44:59.000Z</time>
</trkpt>
<trkpt lat="45.9319830" lon="10.2948200">
	<ele>475.60</ele>
	<time>2025-07-29T12:45:00.000Z</time>
</trkpt>
<trkpt lat="45.9319970" lon="10.2948320">
	<ele>475.60</ele>
	<time>2025-07-29T12:45:01.000Z</time>
</trkpt>
<trkpt lat="45.9320100" lon="10.2948420">
	<ele>475.20</ele>
	<time>2025-07-29T12:45:02.000Z</time>
</trkpt>
<trkpt lat="45.9320200" lon="10.2948550">
	<ele>475.00</ele>
	<time>2025-07-29T12:45:03.000Z</time>
</trkpt>
<trkpt lat="45.9320230" lon="10.2948740">
	<ele>475.00</ele>
	<time>2025-07-29T12:45:04.000Z</time>
</trkpt>
<trkpt lat="45.9320230" lon="10.2948940">
	<ele>474.80</ele>
	<time>2025-07-29T12:45:05.000Z</time>
</trkpt>
<trkpt lat="45.9320310" lon="10.2949110">
	<ele>474.60</ele>
	<time>2025-07-29T12:45:06.000Z</time>
</trkpt>
<trkpt lat="45.9320360" lon="10.2949280">
	<ele>474.40</ele>
	<time>2025-07-29T12:45:07.000Z</time>
</trkpt>
<trkpt lat="45.9320420" lon="10.2949480">
	<ele>474.20</ele>
	<time>2025-07-29T12:45:08.000Z</time>
</trkpt>
<trkpt lat="45.9320490" lon="10.2949580">
	<ele>474.00</ele>
	<time>2025-07-29T12:45:09.000Z</time>
</trkpt>
<trkpt lat="45.9320470" lon="10.2949670">
	<ele>473.80</ele>
	<time>2025-07-29T12:45:10.000Z</time>
</trkpt>
<trkpt lat="45.9320310" lon="10.2949820">
	<ele>473.60</ele>
	<time>2025-07-29T12:45:11.000Z</time>
</trkpt>
<trkpt lat="45.9320210" lon="10.2950030">
	<ele>473.60</ele>
	<time>2025-07-29T12:45:12.000Z</time>
</trkpt>
<trkpt lat="45.9320150" lon="10.2950200">
	<ele>473.40</ele>
	<time>2025-07-29T12:45:13.000Z</time>
</trkpt>
<trkpt lat="45.9320200" lon="10.2950450">
	<ele>473.20</ele>
	<time>2025-07-29T12:45:14.000Z</time>
</trkpt>
<trkpt lat="45.9320220" lon="10.2950700">
	<ele>473.00</ele>
	<time>2025-07-29T12:45:15.000Z</time>
</trkpt>
<trkpt lat="45.9320220" lon="10.2951000">
	<ele>472.80</ele>
	<time>2025-07-29T12:45:16.000Z</time>
</trkpt>
<trkpt lat="45.9320300" lon="10.2951250">
	<ele>472.80</ele>
	<time>2025-07-29T12:45:17.000Z</time>
</trkpt>
<trkpt lat="45.9320430" lon="10.2951390">
	<ele>472.60</ele>
	<time>2025-07-29T12:45:18.000Z</time>
</trkpt>
<trkpt lat="45.9320560" lon="10.2951620">
	<ele>472.40</ele>
	<time>2025-07-29T12:45:19.000Z</time>
</trkpt>
<trkpt lat="45.9320230" lon="10.2951760">
	<ele>472.20</ele>
	<time>2025-07-29T12:45:20.000Z</time>
</trkpt>
<trkpt lat="45.9320110" lon="10.2951850">
	<ele>472.00</ele>
	<time>2025-07-29T12:45:21.000Z</time>
</trkpt>
<trkpt lat="45.9320020" lon="10.2952060">
	<ele>471.80</ele>
	<time>2025-07-29T12:45:22.000Z</time>
</trkpt>
<trkpt lat="45.9319950" lon="10.2952210">
	<ele>471.60</ele>
	<time>2025-07-29T12:45:23.000Z</time>
</trkpt>
<trkpt lat="45.9319900" lon="10.2952450">
	<ele>471.20</ele>
	<time>2025-07-29T12:45:24.000Z</time>
</trkpt>
<trkpt lat="45.9319920" lon="10.2952630">
	<ele>471.00</ele>
	<time>2025-07-29T12:45:25.000Z</time>
</trkpt>
<trkpt lat="45.9319900" lon="10.2952910">
	<ele>470.60</ele>
	<time>2025-07-29T12:45:26.000Z</time>
</trkpt>
<trkpt lat="45.9319850" lon="10.2953140">
	<ele>470.40</ele>
	<time>2025-07-29T12:45:27.000Z</time>
</trkpt>
<trkpt lat="45.9319850" lon="10.2953350">
	<ele>470.20</ele>
	<time>2025-07-29T12:45:28.000Z</time>
</trkpt>
<trkpt lat="45.9319890" lon="10.2953590">
	<ele>469.80</ele>
	<time>2025-07-29T12:45:29.000Z</time>
</trkpt>
<trkpt lat="45.9319880" lon="10.2953830">
	<ele>469.60</ele>
	<time>2025-07-29T12:45:30.000Z</time>
</trkpt>
<trkpt lat="45.9319820" lon="10.2954090">
	<ele>469.60</ele>
	<time>2025-07-29T12:45:31.000Z</time>
</trkpt>
<trkpt lat="45.9319760" lon="10.2954270">
	<ele>469.20</ele>
	<time>2025-07-29T12:45:32.000Z</time>
</trkpt>
<trkpt lat="45.9319840" lon="10.2954500">
	<ele>469.00</ele>
	<time>2025-07-29T12:45:33.000Z</time>
</trkpt>
<trkpt lat="45.9319990" lon="10.2954720">
	<ele>468.80</ele>
	<time>2025-07-29T12:45:34.000Z</time>
</trkpt>
<trkpt lat="45.9320040" lon="10.2954880">
	<ele>468.60</ele>
	<time>2025-07-29T12:45:35.000Z</time>
</trkpt>
<trkpt lat="45.9320060" lon="10.2955060">
	<ele>468.40</ele>
	<time>2025-07-29T12:45:36.000Z</time>
</trkpt>
<trkpt lat="45.9320070" lon="10.2955250">
	<ele>468.20</ele>
	<time>2025-07-29T12:45:37.000Z</time>
</trkpt>
<trkpt lat="45.9320030" lon="10.2955420">
	<ele>468.00</ele>
	<time>2025-07-29T12:45:38.000Z</time>
</trkpt>
<trkpt lat="45.9319980" lon="10.2955600">
	<ele>467.60</ele>
	<time>2025-07-29T12:45:39.000Z</time>
</trkpt>
<trkpt lat="45.9319980" lon="10.2955810">
	<ele>467.20</ele>
	<time>2025-07-29T12:45:40.000Z</time>
</trkpt>
<trkpt lat="45.9319990" lon="10.2956040">
	<ele>467.20</ele>
	<time>2025-07-29T12:45:41.000Z</time>
</trkpt>
<trkpt lat="45.9320020" lon="10.2956310">
	<ele>467.00</ele>
	<time>2025-07-29T12:45:42.000Z</time>
</trkpt>
<trkpt lat="45.9320040" lon="10.2956490">
	<ele>466.80</ele>
	<time>2025-07-29T12:45:43.000Z</time>
</trkpt>
<trkpt lat="45.9319990" lon="10.2956650">
	<ele>466.60</ele>
	<time>2025-07-29T12:45:44.000Z</time>
</trkpt>
<trkpt lat="45.9320110" lon="10.2956820">
	<ele>466.40</ele>
	<time>2025-07-29T12:45:45.000Z</time>
</trkpt>
<trkpt lat="45.9320150" lon="10.2957000">
	<ele>466.20</ele>
	<time>2025-07-29T12:45:46.000Z</time>
</trkpt>
<trkpt lat="45.9320170" lon="10.2957180">
	<ele>466.00</ele>
	<time>2025-07-29T12:45:47.000Z</time>
</trkpt>
<trkpt lat="45.9320140" lon="10.2957410">
	<ele>465.80</ele>
	<time>2025-07-29T12:45:48.000Z</time>
</trkpt>
<trkpt lat="45.9320170" lon="10.2957600">
	<ele>465.60</ele>
	<time>2025-07-29T12:45:49.000Z</time>
</trkpt>
<trkpt lat="45.9320230" lon="10.2957820">
	<ele>465.40</ele>
	<time>2025-07-29T12:45:50.000Z</time>
</trkpt>
<trkpt lat="45.9320220" lon="10.2958050">
	<ele>465.20</ele>
	<time>2025-07-29T12:45:51.000Z</time>
</trkpt>
<trkpt lat="45.9320240" lon="10.2958230">
	<ele>465.00</ele>
	<time>2025-07-29T12:45:52.000Z</time>
</trkpt>
<trkpt lat="45.9320200" lon="10.2958500">
	<ele>464.80</ele>
	<time>2025-07-29T12:45:53.000Z</time>
</trkpt>
<trkpt lat="45.9320190" lon="10.2958740">
	<ele>464.60</ele>
	<time>2025-07-29T12:45:54.000Z</time>
</trkpt>
<trkpt lat="45.9320230" lon="10.2958920">
	<ele>464.40</ele>
	<time>2025-07-29T12:45:55.000Z</time>
</trkpt>
<trkpt lat="45.9320270" lon="10.2959070">
	<ele>464.40</ele>
	<time>2025-07-29T12:45:56.000Z</time>
</trkpt>
<trkpt lat="45.9320290" lon="10.2959170">
	<ele>464.20</ele>
	<time>2025-07-29T12:45:57.000Z</time>
</trkpt>
<trkpt lat="45.9320460" lon="10.2959320">
	<ele>464.20</ele>
	<time>2025-07-29T12:45:58.000Z</time>
</trkpt>
<trkpt lat="45.9320560" lon="10.2959400">
	<ele>464.20</ele>
	<time>2025-07-29T12:45:59.000Z</time>
</trkpt>
<trkpt lat="45.9320710" lon="10.2959500">
	<ele>464.00</ele>
	<time>2025-07-29T12:46:00.000Z</time>
</trkpt>
<trkpt lat="45.9320800" lon="10.2959580">
	<ele>464.00</ele>
	<time>2025-07-29T12:46:01.000Z</time>
</trkpt>
<trkpt lat="45.9320890" lon="10.2959720">
	<ele>464.00</ele>
	<time>2025-07-29T12:46:02.000Z</time>
</trkpt>
<trkpt lat="45.9320980" lon="10.2959870">
	<ele>464.00</ele>
	<time>2025-07-29T12:46:03.000Z</time>
</trkpt>
<trkpt lat="45.9321030" lon="10.2960020">
	<ele>464.00</ele>
	<time>2025-07-29T12:46:04.000Z</time>
</trkpt>
<trkpt lat="45.9321070" lon="10.2960210">
	<ele>463.80</ele>
	<time>2025-07-29T12:46:05.000Z</time>
</trkpt>
<trkpt lat="45.9321100" lon="10.2960400">
	<ele>463.80</ele>
	<time>2025-07-29T12:46:06.000Z</time>
</trkpt>
<trkpt lat="45.9321170" lon="10.2960520">
	<ele>463.80</ele>
	<time>2025-07-29T12:46:07.000Z</time>
</trkpt>
<trkpt lat="45.9321250" lon="10.2960620">
	<ele>464.00</ele>
	<time>2025-07-29T12:46:08.000Z</time>
</trkpt>
<trkpt lat="45.9321360" lon="10.2960680">
	<ele>464.00</ele>
	<time>2025-07-29T12:46:09.000Z</time>
</trkpt>
<trkpt lat="45.9321510" lon="10.2960770">
	<ele>464.00</ele>
	<time>2025-07-29T12:46:10.000Z</time>
</trkpt>
<trkpt lat="45.9321620" lon="10.2960900">
	<ele>464.00</ele>
	<time>2025-07-29T12:46:11.000Z</time>
</trkpt>
<trkpt lat="45.9321700" lon="10.2961070">
	<ele>464.00</ele>
	<time>2025-07-29T12:46:12.000Z</time>
</trkpt>
<trkpt lat="45.9321850" lon="10.2961200">
	<ele>464.00</ele>
	<time>2025-07-29T12:46:13.000Z</time>
</trkpt>
<trkpt lat="45.9321900" lon="10.2961420">
	<ele>464.00</ele>
	<time>2025-07-29T12:46:14.000Z</time>
</trkpt>
<trkpt lat="45.9322010" lon="10.2961580">
	<ele>464.00</ele>
	<time>2025-07-29T12:46:15.000Z</time>
</trkpt>
<trkpt lat="45.9322120" lon="10.2961720">
	<ele>464.00</ele>
	<time>2025-07-29T12:46:16.000Z</time>
</trkpt>
<trkpt lat="45.9322230" lon="10.2961890">
	<ele>464.00</ele>
	<time>2025-07-29T12:46:17.000Z</time>
</trkpt>
<trkpt lat="45.9322330" lon="10.2962000">
	<ele>464.00</ele>
	<time>2025-07-29T12:46:18.000Z</time>
</trkpt>
<trkpt lat="45.9322430" lon="10.2962120">
	<ele>464.00</ele>
	<time>2025-07-29T12:46:19.000Z</time>
</trkpt>
<trkpt lat="45.9322540" lon="10.2962240">
	<ele>464.00</ele>
	<time>2025-07-29T12:46:20.000Z</time>
</trkpt>
<trkpt lat="45.9322660" lon="10.2962360">
	<ele>463.80</ele>
	<time>2025-07-29T12:46:21.000Z</time>
</trkpt>
<trkpt lat="45.9322750" lon="10.2962550">
	<ele>463.80</ele>
	<time>2025-07-29T12:46:22.000Z</time>
</trkpt>
<trkpt lat="45.9322820" lon="10.2962690">
	<ele>463.80</ele>
	<time>2025-07-29T12:46:23.000Z</time>
</trkpt>
<trkpt lat="45.9322910" lon="10.2962830">
	<ele>463.80</ele>
	<time>2025-07-29T12:46:24.000Z</time>
</trkpt>
<trkpt lat="45.9322980" lon="10.2962930">
	<ele>463.80</ele>
	<time>2025-07-29T12:46:25.000Z</time>
</trkpt>
<trkpt lat="45.9323050" lon="10.2963040">
	<ele>463.80</ele>
	<time>2025-07-29T12:46:26.000Z</time>
</trkpt>
<trkpt lat="45.9323160" lon="10.2963180">
	<ele>463.80</ele>
	<time>2025-07-29T12:46:27.000Z</time>
</trkpt>
<trkpt lat="45.9323260" lon="10.2963300">
	<ele>463.80</ele>
	<time>2025-07-29T12:46:28.000Z</time>
</trkpt>
<trkpt lat="45.9323320" lon="10.2963380">
	<ele>463.80</ele>
	<time>2025-07-29T12:46:29.000Z</time>
</trkpt>
<trkpt lat="45.9323390" lon="10.2963430">
	<ele>463.80</ele>
	<time>2025-07-29T12:46:30.000Z</time>
</trkpt>
<trkpt lat="45.9323440" lon="10.2963490">
	<ele>463.80</ele>
	<time>2025-07-29T12:46:31.000Z</time>
</trkpt>
<trkpt lat="45.9323460" lon="10.2963620">
	<ele>463.60</ele>
	<time>2025-07-29T12:46:32.000Z</time>
</trkpt>
<trkpt lat="45.9323490" lon="10.2963720">
	<ele>463.60</ele>
	<time>2025-07-29T12:46:33.000Z</time>
</trkpt>
<trkpt lat="45.9323520" lon="10.2963850">
	<ele>463.80</ele>
	<time>2025-07-29T12:46:34.000Z</time>
</trkpt>
<trkpt lat="45.9323480" lon="10.2964050">
	<ele>463.80</ele>
	<time>2025-07-29T12:46:35.000Z</time>
</trkpt>
<trkpt lat="45.9323460" lon="10.2964200">
	<ele>463.80</ele>
	<time>2025-07-29T12:46:36.000Z</time>
</trkpt>
<trkpt lat="45.9323430" lon="10.2964360">
	<ele>463.80</ele>
	<time>2025-07-29T12:46:37.000Z</time>
</trkpt>
<trkpt lat="45.9323370" lon="10.2964480">
	<ele>463.80</ele>
	<time>2025-07-29T12:46:38.000Z</time>
</trkpt>
<trkpt lat="45.9323310" lon="10.2964550">
	<ele>463.80</ele>
	<time>2025-07-29T12:46:39.000Z</time>
</trkpt>
<trkpt lat="45.9323190" lon="10.2964660">
	<ele>463.80</ele>
	<time>2025-07-29T12:46:40.000Z</time>
</trkpt>
<trkpt lat="45.9323100" lon="10.2964750">
	<ele>463.60</ele>
	<time>2025-07-29T12:46:41.000Z</time>
</trkpt>
<trkpt lat="45.9323010" lon="10.2964810">
	<ele>463.60</ele>
	<time>2025-07-29T12:46:42.000Z</time>
</trkpt>
<trkpt lat="45.9322950" lon="10.2964870">
	<ele>463.60</ele>
	<time>2025-07-29T12:46:43.000Z</time>
</trkpt>
<trkpt lat="45.9322850" lon="10.2965000">
	<ele>463.40</ele>
	<time>2025-07-29T12:46:44.000Z</time>
</trkpt>
<trkpt lat="45.9322750" lon="10.2965100">
	<ele>463.40</ele>
	<time>2025-07-29T12:46:45.000Z</time>
</trkpt>
<trkpt lat="45.9322680" lon="10.2965220">
	<ele>463.40</ele>
	<time>2025-07-29T12:46:46.000Z</time>
</trkpt>
<trkpt lat="45.9322580" lon="10.2965250">
	<ele>463.40</ele>
	<time>2025-07-29T12:46:47.000Z</time>
</trkpt>
<trkpt lat="45.9322540" lon="10.2965280">
	<ele>463.40</ele>
	<time>2025-07-29T12:46:48.000Z</time>
</trkpt>
<trkpt lat="45.9322520" lon="10.2965310">
	<ele>463.40</ele>
	<time>2025-07-29T12:46:49.000Z</time>
</trkpt>
</trkseg>
</trk>
</gpx>
